<?xml version="1.0" encoding="UTF-8" standalone="no" ?>
<gpx xmlns="http://www.topografix.com/GPX/1/1" creator="MapSource 6.16.3" version="1.1" xmlns:xsi="http://www.w3.org/2001/XMLSchema-instance" xsi:schemaLocation="http://www.topografix.com/GPX/1/1 http://www.topografix.com/GPX/1/1/gpx.xsd">

  <metadata>
    <link href="http://www.garmin.com">
      <text>Garmin International</text>
    </link>
    <time>2015-01-17T13:56:02Z</time>
    <bounds maxlat="46.621094103902578" maxlon="7.053591459989548" minlat="43.849940607324243" minlon="5.381905026733875"/>
  </metadata>

  <trk>
    <name>Saint Saturnin 2014 1a Bulle-Lausanne</name>
    <trkseg>
      <trkpt lat="46.615698169916868" lon="7.053591459989548">
        <ele>768.79998779296875</ele>
        <time>2014-05-17T05:05:22Z</time>
      </trkpt>
      <trkpt lat="46.615663636475801" lon="7.053528176620603">
        <ele>769</ele>
        <time>2014-05-17T05:05:23Z</time>
      </trkpt>
      <trkpt lat="46.6156274266541" lon="7.053384426981211">
        <ele>769</ele>
        <time>2014-05-17T05:05:25Z</time>
      </trkpt>
      <trkpt lat="46.615605214610696" lon="7.053307984024286">
        <ele>769</ele>
        <time>2014-05-17T05:05:26Z</time>
      </trkpt>
      <trkpt lat="46.615516617894173" lon="7.052913112565875">
        <ele>769.5999755859375</ele>
        <time>2014-05-17T05:05:31Z</time>
      </trkpt>
      <trkpt lat="46.615499770268798" lon="7.052829628810287">
        <ele>769.79998779296875</ele>
        <time>2014-05-17T05:05:32Z</time>
      </trkpt>
      <trkpt lat="46.615378065034747" lon="7.052267622202635">
        <ele>770.4000244140625</ele>
        <time>2014-05-17T05:05:39Z</time>
      </trkpt>
      <trkpt lat="46.615337748080492" lon="7.052110126242042">
        <ele>770.79998779296875</ele>
        <time>2014-05-17T05:05:41Z</time>
      </trkpt>
      <trkpt lat="46.615247894078493" lon="7.051722798496485">
        <ele>771.79998779296875</ele>
        <time>2014-05-17T05:05:46Z</time>
      </trkpt>
      <trkpt lat="46.615210426971316" lon="7.051575193181634">
        <ele>772.20001220703125</ele>
        <time>2014-05-17T05:05:48Z</time>
      </trkpt>
      <trkpt lat="46.615160973742604" lon="7.051348211243749">
        <ele>773</ele>
        <time>2014-05-17T05:05:51Z</time>
      </trkpt>
      <trkpt lat="46.615111939609051" lon="7.051120223477483">
        <ele>773.20001220703125</ele>
        <time>2014-05-17T05:05:54Z</time>
      </trkpt>
      <trkpt lat="46.615037089213729" lon="7.050739265978336">
        <ele>774</ele>
        <time>2014-05-17T05:05:59Z</time>
      </trkpt>
      <trkpt lat="46.614982523024082" lon="7.050433158874512">
        <ele>774.5999755859375</ele>
        <time>2014-05-17T05:06:03Z</time>
      </trkpt>
      <trkpt lat="46.614916305989027" lon="7.050133002921939">
        <ele>775.20001220703125</ele>
        <time>2014-05-17T05:06:07Z</time>
      </trkpt>
      <trkpt lat="46.614860650151968" lon="7.049837792292237">
        <ele>775.79998779296875</ele>
        <time>2014-05-17T05:06:11Z</time>
      </trkpt>
      <trkpt lat="46.614838438108563" lon="7.04969379119575">
        <ele>776.20001220703125</ele>
        <time>2014-05-17T05:06:13Z</time>
      </trkpt>
      <trkpt lat="46.614753445610404" lon="7.049276623874903">
        <ele>777.4000244140625</ele>
        <time>2014-05-17T05:06:19Z</time>
      </trkpt>
      <trkpt lat="46.614740621298552" lon="7.049207305535674">
        <ele>777.4000244140625</ele>
        <time>2014-05-17T05:06:20Z</time>
      </trkpt>
      <trkpt lat="46.614653868600726" lon="7.048797430470586">
        <ele>778.4000244140625</ele>
        <time>2014-05-17T05:06:26Z</time>
      </trkpt>
      <trkpt lat="46.614614054560661" lon="7.048590565100312">
        <ele>778.79998779296875</ele>
        <time>2014-05-17T05:06:29Z</time>
      </trkpt>
      <trkpt lat="46.614555967971683" lon="7.048321506008506">
        <ele>779.4000244140625</ele>
        <time>2014-05-17T05:06:33Z</time>
      </trkpt>
      <trkpt lat="46.614488745108247" lon="7.04798405058682">
        <ele>780.20001220703125</ele>
        <time>2014-05-17T05:06:38Z</time>
      </trkpt>
      <trkpt lat="46.614463934674859" lon="7.047849018126726">
        <ele>780.5999755859375</ele>
        <time>2014-05-17T05:06:40Z</time>
      </trkpt>
      <trkpt lat="46.614411044865847" lon="7.047570152208209">
        <ele>781</ele>
        <time>2014-05-17T05:06:44Z</time>
      </trkpt>
      <trkpt lat="46.614381792023778" lon="7.047359012067318">
        <ele>781.4000244140625</ele>
        <time>2014-05-17T05:06:47Z</time>
      </trkpt>
      <trkpt lat="46.614366285502911" lon="7.04729120247066">
        <ele>781.5999755859375</ele>
        <time>2014-05-17T05:06:48Z</time>
      </trkpt>
      <trkpt lat="46.614285316318274" lon="7.046951903030276">
        <ele>782.79998779296875</ele>
        <time>2014-05-17T05:06:53Z</time>
      </trkpt>
      <trkpt lat="46.614258075132966" lon="7.046824581921101">
        <ele>782.79998779296875</ele>
        <time>2014-05-17T05:06:55Z</time>
      </trkpt>
      <trkpt lat="46.614194875583053" lon="7.046499531716108">
        <ele>783.79998779296875</ele>
        <time>2014-05-17T05:07:00Z</time>
      </trkpt>
      <trkpt lat="46.614121785387397" lon="7.046155873686075">
        <ele>784.5999755859375</ele>
        <time>2014-05-17T05:07:05Z</time>
      </trkpt>
      <trkpt lat="46.614079875871539" lon="7.0459577254951">
        <ele>785</ele>
        <time>2014-05-17T05:07:08Z</time>
      </trkpt>
      <trkpt lat="46.614002259448171" lon="7.045547012239695">
        <ele>785.79998779296875</ele>
        <time>2014-05-17T05:07:14Z</time>
      </trkpt>
      <trkpt lat="46.613961439579725" lon="7.045343667268753">
        <ele>786.20001220703125</ele>
        <time>2014-05-17T05:07:17Z</time>
      </trkpt>
      <trkpt lat="46.613873848691583" lon="7.044945359230042">
        <ele>787.20001220703125</ele>
        <time>2014-05-17T05:07:23Z</time>
      </trkpt>
      <trkpt lat="46.613836297765374" lon="7.044750899076462">
        <ele>787.79998779296875</ele>
        <time>2014-05-17T05:07:26Z</time>
      </trkpt>
      <trkpt lat="46.613824646919966" lon="7.044567000120878">
        <ele>788.20001220703125</ele>
        <time>2014-05-17T05:07:29Z</time>
      </trkpt>
      <trkpt lat="46.613778211176395" lon="7.044391147792339">
        <ele>788.79998779296875</ele>
        <time>2014-05-17T05:07:32Z</time>
      </trkpt>
      <trkpt lat="46.613711826503277" lon="7.044089902192354">
        <ele>789.4000244140625</ele>
        <time>2014-05-17T05:07:37Z</time>
      </trkpt>
      <trkpt lat="46.613671509549022" lon="7.043908266350627">
        <ele>789.79998779296875</ele>
        <time>2014-05-17T05:07:40Z</time>
      </trkpt>
      <trkpt lat="46.613594144582748" lon="7.043468300253153">
        <ele>790.4000244140625</ele>
        <time>2014-05-17T05:07:47Z</time>
      </trkpt>
      <trkpt lat="46.613572770729661" lon="7.043342906981707">
        <ele>791</ele>
        <time>2014-05-17T05:07:49Z</time>
      </trkpt>
      <trkpt lat="46.613528095185757" lon="7.043032441288233">
        <ele>791.4000244140625</ele>
        <time>2014-05-17T05:07:54Z</time>
      </trkpt>
      <trkpt lat="46.613512337207794" lon="7.042903443798423">
        <ele>791.79998779296875</ele>
        <time>2014-05-17T05:07:56Z</time>
      </trkpt>
      <trkpt lat="46.613475540652871" lon="7.042431542649865">
        <ele>792.4000244140625</ele>
        <time>2014-05-17T05:08:03Z</time>
      </trkpt>
      <trkpt lat="46.613466320559382" lon="7.042295839637518">
        <ele>792.79998779296875</ele>
        <time>2014-05-17T05:08:05Z</time>
      </trkpt>
      <trkpt lat="46.613449556753039" lon="7.042022757232189">
        <ele>793.5999755859375</ele>
        <time>2014-05-17T05:08:09Z</time>
      </trkpt>
      <trkpt lat="46.613453160971403" lon="7.041815724223852">
        <ele>794.20001220703125</ele>
        <time>2014-05-17T05:08:12Z</time>
      </trkpt>
      <trkpt lat="46.613453747704625" lon="7.04174573533237">
        <ele>794.4000244140625</ele>
        <time>2014-05-17T05:08:13Z</time>
      </trkpt>
      <trkpt lat="46.613450730219483" lon="7.041675411164761">
        <ele>794.5999755859375</ele>
        <time>2014-05-17T05:08:14Z</time>
      </trkpt>
      <trkpt lat="46.613420639187098" lon="7.041107285767794">
        <ele>795.5999755859375</ele>
        <time>2014-05-17T05:08:22Z</time>
      </trkpt>
      <trkpt lat="46.613414771854877" lon="7.041040062904358">
        <ele>795.5999755859375</ele>
        <time>2014-05-17T05:08:23Z</time>
      </trkpt>
      <trkpt lat="46.613377975299954" lon="7.040409073233604">
        <ele>796.5999755859375</ele>
        <time>2014-05-17T05:08:32Z</time>
      </trkpt>
      <trkpt lat="46.613375376909971" lon="7.040339922532439">
        <ele>797</ele>
        <time>2014-05-17T05:08:33Z</time>
      </trkpt>
      <trkpt lat="46.613369593396783" lon="7.040139846503735">
        <ele>797.79998779296875</ele>
        <time>2014-05-17T05:08:36Z</time>
      </trkpt>
      <trkpt lat="46.613369341939688" lon="7.040073629468679">
        <ele>798</ele>
        <time>2014-05-17T05:08:37Z</time>
      </trkpt>
      <trkpt lat="46.613380154594779" lon="7.039864584803581">
        <ele>798.4000244140625</ele>
        <time>2014-05-17T05:08:40Z</time>
      </trkpt>
      <trkpt lat="46.613389626145363" lon="7.039660569280386">
        <ele>799</ele>
        <time>2014-05-17T05:08:43Z</time>
      </trkpt>
      <trkpt lat="46.613429356366396" lon="7.039329651743174">
        <ele>799.5999755859375</ele>
        <time>2014-05-17T05:08:48Z</time>
      </trkpt>
      <trkpt lat="46.61347939632833" lon="7.038906449452043">
        <ele>800</ele>
        <time>2014-05-17T05:08:54Z</time>
      </trkpt>
      <trkpt lat="46.613485934212804" lon="7.038838723674417">
        <ele>800.20001220703125</ele>
        <time>2014-05-17T05:08:55Z</time>
      </trkpt>
      <trkpt lat="46.613523904234171" lon="7.038558684289455">
        <ele>800.4000244140625</ele>
        <time>2014-05-17T05:08:59Z</time>
      </trkpt>
      <trkpt lat="46.613557934761047" lon="7.038347208872438">
        <ele>800.79998779296875</ele>
        <time>2014-05-17T05:09:02Z</time>
      </trkpt>
      <trkpt lat="46.613565562292933" lon="7.038275292143226">
        <ele>801</ele>
        <time>2014-05-17T05:09:03Z</time>
      </trkpt>
      <trkpt lat="46.613577464595437" lon="7.038213349878788">
        <ele>801.20001220703125</ele>
        <time>2014-05-17T05:09:04Z</time>
      </trkpt>
      <trkpt lat="46.613624487072229" lon="7.037936747074127">
        <ele>801.5999755859375</ele>
        <time>2014-05-17T05:09:08Z</time>
      </trkpt>
      <trkpt lat="46.61366262473166" lon="7.037754692137241">
        <ele>802.20001220703125</ele>
        <time>2014-05-17T05:09:11Z</time>
      </trkpt>
      <trkpt lat="46.613687016069889" lon="7.037647068500519">
        <ele>802.5999755859375</ele>
        <time>2014-05-17T05:09:13Z</time>
      </trkpt>
      <trkpt lat="46.613703109323978" lon="7.037475407123566">
        <ele>802.79998779296875</ele>
        <time>2014-05-17T05:09:16Z</time>
      </trkpt>
      <trkpt lat="46.613716771826148" lon="7.03735345043242">
        <ele>802.79998779296875</ele>
        <time>2014-05-17T05:09:18Z</time>
      </trkpt>
      <trkpt lat="46.613774104043841" lon="7.036818349733949">
        <ele>803.20001220703125</ele>
        <time>2014-05-17T05:09:26Z</time>
      </trkpt>
      <trkpt lat="46.61383118480444" lon="7.036422807723284">
        <ele>803.79998779296875</ele>
        <time>2014-05-17T05:09:32Z</time>
      </trkpt>
      <trkpt lat="46.613877285271883" lon="7.036072360351682">
        <ele>804.4000244140625</ele>
        <time>2014-05-17T05:09:37Z</time>
      </trkpt>
      <trkpt lat="46.61390352062881" lon="7.035868428647518">
        <ele>804.5999755859375</ele>
        <time>2014-05-17T05:09:40Z</time>
      </trkpt>
      <trkpt lat="46.613967139273882" lon="7.03539309091866">
        <ele>805.4000244140625</ele>
        <time>2014-05-17T05:09:47Z</time>
      </trkpt>
      <trkpt lat="46.613993374630809" lon="7.035191925242543">
        <ele>806</ele>
        <time>2014-05-17T05:09:50Z</time>
      </trkpt>
      <trkpt lat="46.614022543653846" lon="7.034992352128029">
        <ele>806.4000244140625</ele>
        <time>2014-05-17T05:09:53Z</time>
      </trkpt>
      <trkpt lat="46.614068895578384" lon="7.034660680219531">
        <ele>807.4000244140625</ele>
        <time>2014-05-17T05:09:58Z</time>
      </trkpt>
      <trkpt lat="46.614077193662524" lon="7.034590104594827">
        <ele>807.5999755859375</ele>
        <time>2014-05-17T05:09:59Z</time>
      </trkpt>
      <trkpt lat="46.614157576113939" lon="7.034117784351111">
        <ele>808.20001220703125</ele>
        <time>2014-05-17T05:10:06Z</time>
      </trkpt>
      <trkpt lat="46.61427391692996" lon="7.033619815483689">
        <ele>808.5999755859375</ele>
        <time>2014-05-17T05:10:13Z</time>
      </trkpt>
      <trkpt lat="46.614296045154333" lon="7.033549072220922">
        <ele>808.5999755859375</ele>
        <time>2014-05-17T05:10:14Z</time>
      </trkpt>
      <trkpt lat="46.614515986293554" lon="7.032958650961518">
        <ele>808</ele>
        <time>2014-05-17T05:10:22Z</time>
      </trkpt>
      <trkpt lat="46.614719582721591" lon="7.032570485025644">
        <ele>807.5999755859375</ele>
        <time>2014-05-17T05:10:27Z</time>
      </trkpt>
      <trkpt lat="46.61481287330389" lon="7.032412234693766">
        <ele>807</ele>
        <time>2014-05-17T05:10:29Z</time>
      </trkpt>
      <trkpt lat="46.614911444485188" lon="7.032249961048365">
        <ele>806.4000244140625</ele>
        <time>2014-05-17T05:10:31Z</time>
      </trkpt>
      <trkpt lat="46.615071874111891" lon="7.031985931098461">
        <ele>805</ele>
        <time>2014-05-17T05:10:34Z</time>
      </trkpt>
      <trkpt lat="46.615185281261802" lon="7.031799349933863">
        <ele>804.4000244140625</ele>
        <time>2014-05-17T05:10:36Z</time>
      </trkpt>
      <trkpt lat="46.615241020917892" lon="7.03170295804739">
        <ele>803.4000244140625</ele>
        <time>2014-05-17T05:10:37Z</time>
      </trkpt>
      <trkpt lat="46.615406814962626" lon="7.031404646113515">
        <ele>802.4000244140625</ele>
        <time>2014-05-17T05:10:40Z</time>
      </trkpt>
      <trkpt lat="46.615564897656441" lon="7.031093677505851">
        <ele>801.20001220703125</ele>
        <time>2014-05-17T05:10:43Z</time>
      </trkpt>
      <trkpt lat="46.615619799122214" lon="7.030990831553936">
        <ele>801</ele>
        <time>2014-05-17T05:10:44Z</time>
      </trkpt>
      <trkpt lat="46.615920038893819" lon="7.030357327312231">
        <ele>800</ele>
        <time>2014-05-17T05:10:50Z</time>
      </trkpt>
      <trkpt lat="46.616141237318516" lon="7.029824489727616">
        <ele>798.79998779296875</ele>
        <time>2014-05-17T05:10:55Z</time>
      </trkpt>
      <trkpt lat="46.61626311019063" lon="7.029494410380721">
        <ele>798.5999755859375</ele>
        <time>2014-05-17T05:10:58Z</time>
      </trkpt>
      <trkpt lat="46.61637743934989" lon="7.029164414852858">
        <ele>798.5999755859375</ele>
        <time>2014-05-17T05:11:01Z</time>
      </trkpt>
      <trkpt lat="46.616563182324171" lon="7.028657058253884">
        <ele>798.5999755859375</ele>
        <time>2014-05-17T05:11:06Z</time>
      </trkpt>
      <trkpt lat="46.616849759593606" lon="7.028151545673609">
        <ele>799.20001220703125</ele>
        <time>2014-05-17T05:11:12Z</time>
      </trkpt>
      <trkpt lat="46.617259969934821" lon="7.027636226266623">
        <ele>797.79998779296875</ele>
        <time>2014-05-17T05:11:19Z</time>
      </trkpt>
      <trkpt lat="46.617467002943158" lon="7.027442771941423">
        <ele>796.5999755859375</ele>
        <time>2014-05-17T05:11:22Z</time>
      </trkpt>
      <trkpt lat="46.617685938253999" lon="7.027277648448944">
        <ele>795.79998779296875</ele>
        <time>2014-05-17T05:11:25Z</time>
      </trkpt>
      <trkpt lat="46.617892384529114" lon="7.027107160538435">
        <ele>795.5999755859375</ele>
        <time>2014-05-17T05:11:28Z</time>
      </trkpt>
      <trkpt lat="46.618011491373181" lon="7.026981431990862">
        <ele>795.5999755859375</ele>
        <time>2014-05-17T05:11:30Z</time>
      </trkpt>
      <trkpt lat="46.618088688701391" lon="7.02680247835815">
        <ele>795.79998779296875</ele>
        <time>2014-05-17T05:11:32Z</time>
      </trkpt>
      <trkpt lat="46.618123473599553" lon="7.026506597176194">
        <ele>797</ele>
        <time>2014-05-17T05:11:35Z</time>
      </trkpt>
      <trkpt lat="46.618117019534111" lon="7.026324793696404">
        <ele>797.79998779296875</ele>
        <time>2014-05-17T05:11:37Z</time>
      </trkpt>
      <trkpt lat="46.61811157129705" lon="7.026234939694405">
        <ele>798.20001220703125</ele>
        <time>2014-05-17T05:11:38Z</time>
      </trkpt>
      <trkpt lat="46.618096735328436" lon="7.02598113566637">
        <ele>799</ele>
        <time>2014-05-17T05:11:41Z</time>
      </trkpt>
      <trkpt lat="46.618090784177184" lon="7.025902094319463">
        <ele>799.5999755859375</ele>
        <time>2014-05-17T05:11:42Z</time>
      </trkpt>
      <trkpt lat="46.618087096139789" lon="7.025603530928493">
        <ele>800.79998779296875</ele>
        <time>2014-05-17T05:11:46Z</time>
      </trkpt>
      <trkpt lat="46.618077037855983" lon="7.025459110736847">
        <ele>801.4000244140625</ele>
        <time>2014-05-17T05:11:48Z</time>
      </trkpt>
      <trkpt lat="46.618072595447302" lon="7.025387780740857">
        <ele>802.20001220703125</ele>
        <time>2014-05-17T05:11:49Z</time>
      </trkpt>
      <trkpt lat="46.618060860782862" lon="7.025117129087448">
        <ele>803.4000244140625</ele>
        <time>2014-05-17T05:11:53Z</time>
      </trkpt>
      <trkpt lat="46.618049712851644" lon="7.024932308122516">
        <ele>804.4000244140625</ele>
        <time>2014-05-17T05:11:56Z</time>
      </trkpt>
      <trkpt lat="46.618041498586535" lon="7.024869611486793">
        <ele>804.4000244140625</ele>
        <time>2014-05-17T05:11:57Z</time>
      </trkpt>
      <trkpt lat="46.617969665676355" lon="7.024485552683473">
        <ele>805.5999755859375</ele>
        <time>2014-05-17T05:12:03Z</time>
      </trkpt>
      <trkpt lat="46.617779145017266" lon="7.023864956572652">
        <ele>805.79998779296875</ele>
        <time>2014-05-17T05:12:12Z</time>
      </trkpt>
      <trkpt lat="46.617719465866685" lon="7.023421050980687">
        <ele>804.5999755859375</ele>
        <time>2014-05-17T05:12:17Z</time>
      </trkpt>
      <trkpt lat="46.617701360955834" lon="7.023322563618422">
        <ele>804.20001220703125</ele>
        <time>2014-05-17T05:12:18Z</time>
      </trkpt>
      <trkpt lat="46.617677388712764" lon="7.023022407665849">
        <ele>803.79998779296875</ele>
        <time>2014-05-17T05:12:21Z</time>
      </trkpt>
      <trkpt lat="46.617659702897072" lon="7.022811770439148">
        <ele>803.5999755859375</ele>
        <time>2014-05-17T05:12:23Z</time>
      </trkpt>
      <trkpt lat="46.617628857493401" lon="7.022491665557027">
        <ele>803.20001220703125</ele>
        <time>2014-05-17T05:12:26Z</time>
      </trkpt>
      <trkpt lat="46.617623744532466" lon="7.022277088835836">
        <ele>802.79998779296875</ele>
        <time>2014-05-17T05:12:28Z</time>
      </trkpt>
      <trkpt lat="46.617659283801913" lon="7.021509138867259">
        <ele>802.5999755859375</ele>
        <time>2014-05-17T05:12:35Z</time>
      </trkpt>
      <trkpt lat="46.617706306278706" lon="7.021180568262935">
        <ele>802.20001220703125</ele>
        <time>2014-05-17T05:12:38Z</time>
      </trkpt>
      <trkpt lat="46.617738241329789" lon="7.02085392549634">
        <ele>802.20001220703125</ele>
        <time>2014-05-17T05:12:41Z</time>
      </trkpt>
      <trkpt lat="46.617735810577869" lon="7.020744625478983">
        <ele>801.79998779296875</ele>
        <time>2014-05-17T05:12:42Z</time>
      </trkpt>
      <trkpt lat="46.617704294621944" lon="7.02040683478117">
        <ele>801.79998779296875</ele>
        <time>2014-05-17T05:12:45Z</time>
      </trkpt>
      <trkpt lat="46.617654841393232" lon="7.020195862278342">
        <ele>801.5999755859375</ele>
        <time>2014-05-17T05:12:47Z</time>
      </trkpt>
      <trkpt lat="46.617489298805594" lon="7.019726559519768">
        <ele>801.5999755859375</ele>
        <time>2014-05-17T05:12:52Z</time>
      </trkpt>
      <trkpt lat="46.617276482284069" lon="7.019172515720129">
        <ele>801.4000244140625</ele>
        <time>2014-05-17T05:12:58Z</time>
      </trkpt>
      <trkpt lat="46.617257706820965" lon="7.019072687253356">
        <ele>801.4000244140625</ele>
        <time>2014-05-17T05:12:59Z</time>
      </trkpt>
      <trkpt lat="46.617315793409944" lon="7.018778147175908">
        <ele>800.5999755859375</ele>
        <time>2014-05-17T05:13:02Z</time>
      </trkpt>
      <trkpt lat="46.617443533614278" lon="7.018668511882424">
        <ele>800.20001220703125</ele>
        <time>2014-05-17T05:13:04Z</time>
      </trkpt>
      <trkpt lat="46.617577979341149" lon="7.018585614860058">
        <ele>799.79998779296875</ele>
        <time>2014-05-17T05:13:06Z</time>
      </trkpt>
      <trkpt lat="46.617922056466341" lon="7.018372295424342">
        <ele>799.5999755859375</ele>
        <time>2014-05-17T05:13:11Z</time>
      </trkpt>
      <trkpt lat="46.617993302643299" lon="7.01832627877593">
        <ele>799.4000244140625</ele>
        <time>2014-05-17T05:13:12Z</time>
      </trkpt>
      <trkpt lat="46.618322962895036" lon="7.018041629344225">
        <ele>798.5999755859375</ele>
        <time>2014-05-17T05:13:17Z</time>
      </trkpt>
      <trkpt lat="46.618633344769478" lon="7.017708364874125">
        <ele>798.4000244140625</ele>
        <time>2014-05-17T05:13:22Z</time>
      </trkpt>
      <trkpt lat="46.618751613423228" lon="7.01756838709116">
        <ele>798.20001220703125</ele>
        <time>2014-05-17T05:13:24Z</time>
      </trkpt>
      <trkpt lat="46.618905505165458" lon="7.017325898632407">
        <ele>798.4000244140625</ele>
        <time>2014-05-17T05:13:27Z</time>
      </trkpt>
      <trkpt lat="46.618971973657608" lon="7.017124146223068">
        <ele>798</ele>
        <time>2014-05-17T05:13:29Z</time>
      </trkpt>
      <trkpt lat="46.618992760777473" lon="7.016675965860486">
        <ele>798</ele>
        <time>2014-05-17T05:13:33Z</time>
      </trkpt>
      <trkpt lat="46.618982702493668" lon="7.016565576195717">
        <ele>798</ele>
        <time>2014-05-17T05:13:34Z</time>
      </trkpt>
      <trkpt lat="46.618898129090667" lon="7.01591782271862">
        <ele>797.79998779296875</ele>
        <time>2014-05-17T05:13:40Z</time>
      </trkpt>
      <trkpt lat="46.618841299787164" lon="7.015065969899297">
        <ele>797.79998779296875</ele>
        <time>2014-05-17T05:13:48Z</time>
      </trkpt>
      <trkpt lat="46.618797043338418" lon="7.014257535338402">
        <ele>798.79998779296875</ele>
        <time>2014-05-17T05:13:56Z</time>
      </trkpt>
      <trkpt lat="46.618750691413879" lon="7.013799631968141">
        <ele>799.4000244140625</ele>
        <time>2014-05-17T05:14:01Z</time>
      </trkpt>
      <trkpt lat="46.618686486035585" lon="7.013323875144124">
        <ele>799.4000244140625</ele>
        <time>2014-05-17T05:14:06Z</time>
      </trkpt>
      <trkpt lat="46.618584645912051" lon="7.012545615434647">
        <ele>799.5999755859375</ele>
        <time>2014-05-17T05:14:14Z</time>
      </trkpt>
      <trkpt lat="46.618566289544106" lon="7.012157868593931">
        <ele>799.79998779296875</ele>
        <time>2014-05-17T05:14:18Z</time>
      </trkpt>
      <trkpt lat="46.618568049743772" lon="7.011865675449371">
        <ele>799.79998779296875</ele>
        <time>2014-05-17T05:14:21Z</time>
      </trkpt>
      <trkpt lat="46.618503760546446" lon="7.011324455961585">
        <ele>798</ele>
        <time>2014-05-17T05:14:26Z</time>
      </trkpt>
      <trkpt lat="46.618452630937099" lon="7.011090433225036">
        <ele>797</ele>
        <time>2014-05-17T05:14:28Z</time>
      </trkpt>
      <trkpt lat="46.618392197415233" lon="7.010844592005014">
        <ele>795.5999755859375</ele>
        <time>2014-05-17T05:14:30Z</time>
      </trkpt>
      <trkpt lat="46.61836520768702" lon="7.010715762153268">
        <ele>795</ele>
        <time>2014-05-17T05:14:31Z</time>
      </trkpt>
      <trkpt lat="46.618335116654634" lon="7.010586764663458">
        <ele>794.20001220703125</ele>
        <time>2014-05-17T05:14:32Z</time>
      </trkpt>
      <trkpt lat="46.618282478302717" lon="7.010317286476493">
        <ele>792.79998779296875</ele>
        <time>2014-05-17T05:14:34Z</time>
      </trkpt>
      <trkpt lat="46.618270240724087" lon="7.010177979245782">
        <ele>792.20001220703125</ele>
        <time>2014-05-17T05:14:35Z</time>
      </trkpt>
      <trkpt lat="46.618277281522751" lon="7.010035235434771">
        <ele>791.5999755859375</ele>
        <time>2014-05-17T05:14:36Z</time>
      </trkpt>
      <trkpt lat="46.6183368768543" lon="7.00974689796567">
        <ele>789.79998779296875</ele>
        <time>2014-05-17T05:14:38Z</time>
      </trkpt>
      <trkpt lat="46.618394209071994" lon="7.009615385904908">
        <ele>789.20001220703125</ele>
        <time>2014-05-17T05:14:39Z</time>
      </trkpt>
      <trkpt lat="46.618463778868318" lon="7.009492758661509">
        <ele>788.20001220703125</ele>
        <time>2014-05-17T05:14:40Z</time>
      </trkpt>
      <trkpt lat="46.618617922067642" lon="7.009267369285226">
        <ele>786.5999755859375</ele>
        <time>2014-05-17T05:14:42Z</time>
      </trkpt>
      <trkpt lat="46.618845826014876" lon="7.008946426212788">
        <ele>785.4000244140625</ele>
        <time>2014-05-17T05:14:45Z</time>
      </trkpt>
      <trkpt lat="46.619042381644249" lon="7.008626656606793">
        <ele>785.79998779296875</ele>
        <time>2014-05-17T05:14:48Z</time>
      </trkpt>
      <trkpt lat="46.61918462254107" lon="7.008283501490951">
        <ele>786.5999755859375</ele>
        <time>2014-05-17T05:14:51Z</time>
      </trkpt>
      <trkpt lat="46.619223179295659" lon="7.008170345798135">
        <ele>787</ele>
        <time>2014-05-17T05:14:52Z</time>
      </trkpt>
      <trkpt lat="46.619329797104001" lon="7.007716130465269">
        <ele>787.5999755859375</ele>
        <time>2014-05-17T05:14:56Z</time>
      </trkpt>
      <trkpt lat="46.619349746033549" lon="7.00760624371469">
        <ele>787.79998779296875</ele>
        <time>2014-05-17T05:14:57Z</time>
      </trkpt>
      <trkpt lat="46.61945091560483" lon="7.007069466635585">
        <ele>788.5999755859375</ele>
        <time>2014-05-17T05:15:02Z</time>
      </trkpt>
      <trkpt lat="46.61947782151401" lon="7.006862852722406">
        <ele>789</ele>
        <time>2014-05-17T05:15:04Z</time>
      </trkpt>
      <trkpt lat="46.619469774886966" lon="7.006324315443635">
        <ele>789.4000244140625</ele>
        <time>2014-05-17T05:15:09Z</time>
      </trkpt>
      <trkpt lat="46.619443790987134" lon="7.006113594397903">
        <ele>789.79998779296875</ele>
        <time>2014-05-17T05:15:11Z</time>
      </trkpt>
      <trkpt lat="46.619369611144066" lon="7.00559844262898">
        <ele>790.20001220703125</ele>
        <time>2014-05-17T05:15:16Z</time>
      </trkpt>
      <trkpt lat="46.619256120175123" lon="7.004767628386617">
        <ele>790</ele>
        <time>2014-05-17T05:15:24Z</time>
      </trkpt>
      <trkpt lat="46.619259556755424" lon="7.004133956506848">
        <ele>790.20001220703125</ele>
        <time>2014-05-17T05:15:30Z</time>
      </trkpt>
      <trkpt lat="46.619362905621529" lon="7.003422416746616">
        <ele>790.79998779296875</ele>
        <time>2014-05-17T05:15:37Z</time>
      </trkpt>
      <trkpt lat="46.619385620579123" lon="7.002942385151982">
        <ele>792</ele>
        <time>2014-05-17T05:15:42Z</time>
      </trkpt>
      <trkpt lat="46.619380591437221" lon="7.002844149246812">
        <ele>792</ele>
        <time>2014-05-17T05:15:43Z</time>
      </trkpt>
      <trkpt lat="46.619333317503333" lon="7.002384988591075">
        <ele>793</ele>
        <time>2014-05-17T05:15:48Z</time>
      </trkpt>
      <trkpt lat="46.619316637516022" lon="7.00229924172163">
        <ele>793.4000244140625</ele>
        <time>2014-05-17T05:15:49Z</time>
      </trkpt>
      <trkpt lat="46.619266346096992" lon="7.002039737999439">
        <ele>794</ele>
        <time>2014-05-17T05:15:52Z</time>
      </trkpt>
      <trkpt lat="46.619158135727048" lon="7.001423835754395">
        <ele>794.20001220703125</ele>
        <time>2014-05-17T05:15:59Z</time>
      </trkpt>
      <trkpt lat="46.619127625599504" lon="7.000772645696998">
        <ele>794.5999755859375</ele>
        <time>2014-05-17T05:16:06Z</time>
      </trkpt>
      <trkpt lat="46.619195435196161" lon="7.000210722908378">
        <ele>794.79998779296875</ele>
        <time>2014-05-17T05:16:12Z</time>
      </trkpt>
      <trkpt lat="46.619264166802168" lon="6.999760866165161">
        <ele>795.20001220703125</ele>
        <time>2014-05-17T05:16:17Z</time>
      </trkpt>
      <trkpt lat="46.619307668879628" lon="6.99950136244297">
        <ele>795.5999755859375</ele>
        <time>2014-05-17T05:16:20Z</time>
      </trkpt>
      <trkpt lat="46.619337256997824" lon="6.999337915331125">
        <ele>795.79998779296875</ele>
        <time>2014-05-17T05:16:22Z</time>
      </trkpt>
      <trkpt lat="46.619370197877288" lon="6.999178575351834">
        <ele>796.20001220703125</ele>
        <time>2014-05-17T05:16:24Z</time>
      </trkpt>
      <trkpt lat="46.619395930320024" lon="6.99901370331645">
        <ele>797</ele>
        <time>2014-05-17T05:16:26Z</time>
      </trkpt>
      <trkpt lat="46.619475055485964" lon="6.998496623709798">
        <ele>798</ele>
        <time>2014-05-17T05:16:33Z</time>
      </trkpt>
      <trkpt lat="46.619512103497982" lon="6.998355304822326">
        <ele>798.20001220703125</ele>
        <time>2014-05-17T05:16:35Z</time>
      </trkpt>
      <trkpt lat="46.619545463472605" lon="6.99821574613452">
        <ele>798.5999755859375</ele>
        <time>2014-05-17T05:16:37Z</time>
      </trkpt>
      <trkpt lat="46.619611512869596" lon="6.998011143878102">
        <ele>799.79998779296875</ele>
        <time>2014-05-17T05:16:40Z</time>
      </trkpt>
      <trkpt lat="46.619665743783116" lon="6.99788642115891">
        <ele>800</ele>
        <time>2014-05-17T05:16:42Z</time>
      </trkpt>
      <trkpt lat="46.619726596400142" lon="6.997773433104157">
        <ele>800.79998779296875</ele>
        <time>2014-05-17T05:16:44Z</time>
      </trkpt>
      <trkpt lat="46.619847798720002" lon="6.997581152245402">
        <ele>801.79998779296875</ele>
        <time>2014-05-17T05:16:48Z</time>
      </trkpt>
      <trkpt lat="46.619876464828849" lon="6.997534297406673">
        <ele>802.20001220703125</ele>
        <time>2014-05-17T05:16:49Z</time>
      </trkpt>
      <trkpt lat="46.619996326044202" lon="6.997349560260773">
        <ele>803.20001220703125</ele>
        <time>2014-05-17T05:16:53Z</time>
      </trkpt>
      <trkpt lat="46.620089113712311" lon="6.997226430103183">
        <ele>804</ele>
        <time>2014-05-17T05:16:56Z</time>
      </trkpt>
      <trkpt lat="46.620119456201792" lon="6.997186364606023">
        <ele>804.4000244140625</ele>
        <time>2014-05-17T05:16:57Z</time>
      </trkpt>
      <trkpt lat="46.620230851694942" lon="6.997023336589336">
        <ele>805.5999755859375</ele>
        <time>2014-05-17T05:17:01Z</time>
      </trkpt>
      <trkpt lat="46.620337469503284" lon="6.996866427361965">
        <ele>806.5999755859375</ele>
        <time>2014-05-17T05:17:05Z</time>
      </trkpt>
      <trkpt lat="46.620433442294598" lon="6.996700130403042">
        <ele>807.79998779296875</ele>
        <time>2014-05-17T05:17:09Z</time>
      </trkpt>
      <trkpt lat="46.620516506955028" lon="6.996529642492533">
        <ele>808.79998779296875</ele>
        <time>2014-05-17T05:17:13Z</time>
      </trkpt>
      <trkpt lat="46.620534947142005" lon="6.996484966948628">
        <ele>809</ele>
        <time>2014-05-17T05:17:14Z</time>
      </trkpt>
      <trkpt lat="46.620597895234823" lon="6.996288243681192">
        <ele>809.79998779296875</ele>
        <time>2014-05-17T05:17:18Z</time>
      </trkpt>
      <trkpt lat="46.620636619627476" lon="6.996133932843804">
        <ele>810.79998779296875</ele>
        <time>2014-05-17T05:17:21Z</time>
      </trkpt>
      <trkpt lat="46.620648857206106" lon="6.996082048863173">
        <ele>811</ele>
        <time>2014-05-17T05:17:22Z</time>
      </trkpt>
      <trkpt lat="46.620683139190078" lon="6.99587962590158">
        <ele>812.20001220703125</ele>
        <time>2014-05-17T05:17:26Z</time>
      </trkpt>
      <trkpt lat="46.62069839425385" lon="6.99578482657671">
        <ele>812.5999755859375</ele>
        <time>2014-05-17T05:17:28Z</time>
      </trkpt>
      <trkpt lat="46.620704093948007" lon="6.995626157149673">
        <ele>813.4000244140625</ele>
        <time>2014-05-17T05:17:31Z</time>
      </trkpt>
      <trkpt lat="46.620704596862197" lon="6.995459273457527">
        <ele>813.5999755859375</ele>
        <time>2014-05-17T05:17:34Z</time>
      </trkpt>
      <trkpt lat="46.620697388425469" lon="6.995242265984416">
        <ele>814.4000244140625</ele>
        <time>2014-05-17T05:17:38Z</time>
      </trkpt>
      <trkpt lat="46.620674422010779" lon="6.994967926293612">
        <ele>815.4000244140625</ele>
        <time>2014-05-17T05:17:43Z</time>
      </trkpt>
      <trkpt lat="46.620670231059194" lon="6.994907911866903">
        <ele>815.5999755859375</ele>
        <time>2014-05-17T05:17:44Z</time>
      </trkpt>
      <trkpt lat="46.620657239109278" lon="6.994584370404482">
        <ele>816.79998779296875</ele>
        <time>2014-05-17T05:17:50Z</time>
      </trkpt>
      <trkpt lat="46.620622035115957" lon="6.994101237505674">
        <ele>817.79998779296875</ele>
        <time>2014-05-17T05:17:58Z</time>
      </trkpt>
      <trkpt lat="46.620601583272219" lon="6.993561191484332">
        <ele>818.79998779296875</ele>
        <time>2014-05-17T05:18:07Z</time>
      </trkpt>
      <trkpt lat="46.620611138641834" lon="6.993492376059294">
        <ele>818.79998779296875</ele>
        <time>2014-05-17T05:18:08Z</time>
      </trkpt>
      <trkpt lat="46.620664950460196" lon="6.993157519027591">
        <ele>818.79998779296875</ele>
        <time>2014-05-17T05:18:13Z</time>
      </trkpt>
      <trkpt lat="46.620686072856188" lon="6.993093816563487">
        <ele>818.79998779296875</ele>
        <time>2014-05-17T05:18:14Z</time>
      </trkpt>
      <trkpt lat="46.620806772261858" lon="6.992771783843637">
        <ele>818.5999755859375</ele>
        <time>2014-05-17T05:18:19Z</time>
      </trkpt>
      <trkpt lat="46.621015481650829" lon="6.992247411981225">
        <ele>818.79998779296875</ele>
        <time>2014-05-17T05:18:27Z</time>
      </trkpt>
      <trkpt lat="46.621094103902578" lon="6.991783808916807">
        <ele>819</ele>
        <time>2014-05-17T05:18:33Z</time>
      </trkpt>
      <trkpt lat="46.621094103902578" lon="6.991704013198614">
        <ele>819</ele>
        <time>2014-05-17T05:18:34Z</time>
      </trkpt>
      <trkpt lat="46.62108002230525" lon="6.991386087611318">
        <ele>819.20001220703125</ele>
        <time>2014-05-17T05:18:38Z</time>
      </trkpt>
      <trkpt lat="46.621072981506586" lon="6.991059612482786">
        <ele>818.79998779296875</ele>
        <time>2014-05-17T05:18:42Z</time>
      </trkpt>
      <trkpt lat="46.621069712564349" lon="6.990793906152248">
        <ele>818.4000244140625</ele>
        <time>2014-05-17T05:18:45Z</time>
      </trkpt>
      <trkpt lat="46.621039537712932" lon="6.990417810156941">
        <ele>817.79998779296875</ele>
        <time>2014-05-17T05:18:49Z</time>
      </trkpt>
      <trkpt lat="46.621015314012766" lon="6.990324938669801">
        <ele>817.5999755859375</ele>
        <time>2014-05-17T05:18:50Z</time>
      </trkpt>
      <trkpt lat="46.620986815541983" lon="6.99023257009685">
        <ele>817.4000244140625</ele>
        <time>2014-05-17T05:18:51Z</time>
      </trkpt>
      <trkpt lat="46.620876928791404" lon="6.989981951192021">
        <ele>817.20001220703125</ele>
        <time>2014-05-17T05:18:54Z</time>
      </trkpt>
      <trkpt lat="46.620835103094578" lon="6.98991347104311">
        <ele>817.20001220703125</ele>
        <time>2014-05-17T05:18:55Z</time>
      </trkpt>
      <trkpt lat="46.620795205235481" lon="6.989849349483848">
        <ele>817.4000244140625</ele>
        <time>2014-05-17T05:18:56Z</time>
      </trkpt>
      <trkpt lat="46.620603343471885" lon="6.989519521594048">
        <ele>817.79998779296875</ele>
        <time>2014-05-17T05:19:01Z</time>
      </trkpt>
      <trkpt lat="46.620579119771719" lon="6.989445090293884">
        <ele>818.20001220703125</ele>
        <time>2014-05-17T05:19:02Z</time>
      </trkpt>
      <trkpt lat="46.620543915778399" lon="6.989308129996061">
        <ele>818.5999755859375</ele>
        <time>2014-05-17T05:19:04Z</time>
      </trkpt>
      <trkpt lat="46.620480548590422" lon="6.989194303750992">
        <ele>818.79998779296875</ele>
        <time>2014-05-17T05:19:06Z</time>
      </trkpt>
      <trkpt lat="46.620361441746354" lon="6.988980984315276">
        <ele>819.4000244140625</ele>
        <time>2014-05-17T05:19:10Z</time>
      </trkpt>
      <trkpt lat="46.62034073844552" lon="6.988918790593743">
        <ele>819.79998779296875</ele>
        <time>2014-05-17T05:19:11Z</time>
      </trkpt>
      <trkpt lat="46.62031777203083" lon="6.988857770338655">
        <ele>820</ele>
        <time>2014-05-17T05:19:12Z</time>
      </trkpt>
      <trkpt lat="46.620212411507964" lon="6.988545544445515">
        <ele>820.5999755859375</ele>
        <time>2014-05-17T05:19:17Z</time>
      </trkpt>
      <trkpt lat="46.620174944400787" lon="6.988418474793434">
        <ele>820.79998779296875</ele>
        <time>2014-05-17T05:19:19Z</time>
      </trkpt>
      <trkpt lat="46.620091293007135" lon="6.988095100969076">
        <ele>821.79998779296875</ele>
        <time>2014-05-17T05:19:24Z</time>
      </trkpt>
      <trkpt lat="46.620076457038522" lon="6.988027459010482">
        <ele>822</ele>
        <time>2014-05-17T05:19:25Z</time>
      </trkpt>
      <trkpt lat="46.619952572509646" lon="6.987399738281965">
        <ele>822.5999755859375</ele>
        <time>2014-05-17T05:19:34Z</time>
      </trkpt>
      <trkpt lat="46.619923235848546" lon="6.987249283120036">
        <ele>823</ele>
        <time>2014-05-17T05:19:36Z</time>
      </trkpt>
      <trkpt lat="46.619794741272926" lon="6.986642181873322">
        <ele>823.4000244140625</ele>
        <time>2014-05-17T05:19:44Z</time>
      </trkpt>
      <trkpt lat="46.619671359658241" lon="6.985995518043637">
        <ele>823.5999755859375</ele>
        <time>2014-05-17T05:19:52Z</time>
      </trkpt>
      <trkpt lat="46.619518138468266" lon="6.985214492306113">
        <ele>823.5999755859375</ele>
        <time>2014-05-17T05:20:01Z</time>
      </trkpt>
      <trkpt lat="46.619424680247903" lon="6.984703196212649">
        <ele>824.20001220703125</ele>
        <time>2014-05-17T05:20:07Z</time>
      </trkpt>
      <trkpt lat="46.619361732155085" lon="6.984358532354236">
        <ele>824.4000244140625</ele>
        <time>2014-05-17T05:20:11Z</time>
      </trkpt>
      <trkpt lat="46.619222844019532" lon="6.983599048107863">
        <ele>825.20001220703125</ele>
        <time>2014-05-17T05:20:20Z</time>
      </trkpt>
      <trkpt lat="46.619099210947752" lon="6.983037376776338">
        <ele>826.20001220703125</ele>
        <time>2014-05-17T05:20:27Z</time>
      </trkpt>
      <trkpt lat="46.619079932570457" lon="6.98296026326716">
        <ele>826.20001220703125</ele>
        <time>2014-05-17T05:20:28Z</time>
      </trkpt>
      <trkpt lat="46.618973314762115" lon="6.982500934973359">
        <ele>827.4000244140625</ele>
        <time>2014-05-17T05:20:34Z</time>
      </trkpt>
      <trkpt lat="46.618936434388161" lon="6.982344780117273">
        <ele>827.5999755859375</ele>
        <time>2014-05-17T05:20:36Z</time>
      </trkpt>
      <trkpt lat="46.618772819638252" lon="6.981703815981746">
        <ele>828</ele>
        <time>2014-05-17T05:20:44Z</time>
      </trkpt>
      <trkpt lat="46.618536785244942" lon="6.980901164934039">
        <ele>827.4000244140625</ele>
        <time>2014-05-17T05:20:53Z</time>
      </trkpt>
      <trkpt lat="46.618368811905384" lon="6.980398083105683">
        <ele>826.20001220703125</ele>
        <time>2014-05-17T05:20:58Z</time>
      </trkpt>
      <trkpt lat="46.618297565728426" lon="6.980188200250268">
        <ele>826</ele>
        <time>2014-05-17T05:21:00Z</time>
      </trkpt>
      <trkpt lat="46.618184661492705" lon="6.979863820597529">
        <ele>825.20001220703125</ele>
        <time>2014-05-17T05:21:03Z</time>
      </trkpt>
      <trkpt lat="46.617979723960161" lon="6.97917147539556">
        <ele>824.20001220703125</ele>
        <time>2014-05-17T05:21:09Z</time>
      </trkpt>
      <trkpt lat="46.617952398955822" lon="6.979049937799573">
        <ele>824</ele>
        <time>2014-05-17T05:21:10Z</time>
      </trkpt>
      <trkpt lat="46.617865646257997" lon="6.978542832657695">
        <ele>823</ele>
        <time>2014-05-17T05:21:14Z</time>
      </trkpt>
      <trkpt lat="46.617849553003907" lon="6.978413667529821">
        <ele>822.79998779296875</ele>
        <time>2014-05-17T05:21:15Z</time>
      </trkpt>
      <trkpt lat="46.617797669023275" lon="6.977623673155904">
        <ele>822</ele>
        <time>2014-05-17T05:21:21Z</time>
      </trkpt>
      <trkpt lat="46.617787946015596" lon="6.977495010942221">
        <ele>821.79998779296875</ele>
        <time>2014-05-17T05:21:22Z</time>
      </trkpt>
      <trkpt lat="46.617742013186216" lon="6.97661105543375">
        <ele>821.79998779296875</ele>
        <time>2014-05-17T05:21:29Z</time>
      </trkpt>
      <trkpt lat="46.617734469473362" lon="6.976489769294858">
        <ele>822.20001220703125</ele>
        <time>2014-05-17T05:21:30Z</time>
      </trkpt>
      <trkpt lat="46.617718040943146" lon="6.976143009960651">
        <ele>822.79998779296875</ele>
        <time>2014-05-17T05:21:33Z</time>
      </trkpt>
      <trkpt lat="46.617709491401911" lon="6.97573103941977">
        <ele>824.20001220703125</ele>
        <time>2014-05-17T05:21:37Z</time>
      </trkpt>
      <trkpt lat="46.617704043164849" lon="6.975450916215777">
        <ele>825.4000244140625</ele>
        <time>2014-05-17T05:21:40Z</time>
      </trkpt>
      <trkpt lat="46.617706725373864" lon="6.975200129672885">
        <ele>826.5999755859375</ele>
        <time>2014-05-17T05:21:43Z</time>
      </trkpt>
      <trkpt lat="46.617715023458004" lon="6.975124189630151">
        <ele>826.79998779296875</ele>
        <time>2014-05-17T05:21:44Z</time>
      </trkpt>
      <trkpt lat="46.617766488343477" lon="6.974920341745019">
        <ele>827.79998779296875</ele>
        <time>2014-05-17T05:21:47Z</time>
      </trkpt>
      <trkpt lat="46.617811163887382" lon="6.974803498014808">
        <ele>828.5999755859375</ele>
        <time>2014-05-17T05:21:49Z</time>
      </trkpt>
      <trkpt lat="46.617836812511086" lon="6.974751111119986">
        <ele>829.20001220703125</ele>
        <time>2014-05-17T05:21:50Z</time>
      </trkpt>
      <trkpt lat="46.617865562438965" lon="6.974703753367066">
        <ele>829.4000244140625</ele>
        <time>2014-05-17T05:21:51Z</time>
      </trkpt>
      <trkpt lat="46.617892635986209" lon="6.974652204662561">
        <ele>829.5999755859375</ele>
        <time>2014-05-17T05:21:52Z</time>
      </trkpt>
      <trkpt lat="46.617969665676355" lon="6.974500492215157">
        <ele>830.20001220703125</ele>
        <time>2014-05-17T05:21:55Z</time>
      </trkpt>
      <trkpt lat="46.618083324283361" lon="6.974222380667925">
        <ele>831</ele>
        <time>2014-05-17T05:22:00Z</time>
      </trkpt>
      <trkpt lat="46.618105620145798" lon="6.97416253387928">
        <ele>831.4000244140625</ele>
        <time>2014-05-17T05:22:01Z</time>
      </trkpt>
      <trkpt lat="46.618144260719419" lon="6.974033117294312">
        <ele>831.5999755859375</ele>
        <time>2014-05-17T05:22:03Z</time>
      </trkpt>
      <trkpt lat="46.618207711726427" lon="6.973760202527046">
        <ele>832.20001220703125</ele>
        <time>2014-05-17T05:22:07Z</time>
      </trkpt>
      <trkpt lat="46.618232354521751" lon="6.973619218915701">
        <ele>832.4000244140625</ele>
        <time>2014-05-17T05:22:09Z</time>
      </trkpt>
      <trkpt lat="46.618261523544788" lon="6.973242200911045">
        <ele>832.79998779296875</ele>
        <time>2014-05-17T05:22:14Z</time>
      </trkpt>
      <trkpt lat="46.618248531594872" lon="6.972932321950793">
        <ele>833.5999755859375</ele>
        <time>2014-05-17T05:22:18Z</time>
      </trkpt>
      <trkpt lat="46.618214333429933" lon="6.972702657803893">
        <ele>833.5999755859375</ele>
        <time>2014-05-17T05:22:21Z</time>
      </trkpt>
      <trkpt lat="46.618105452507734" lon="6.972045851871371">
        <ele>833.20001220703125</ele>
        <time>2014-05-17T05:22:29Z</time>
      </trkpt>
      <trkpt lat="46.618040157482028" lon="6.971662966534495">
        <ele>832.4000244140625</ele>
        <time>2014-05-17T05:22:33Z</time>
      </trkpt>
      <trkpt lat="46.617979472503066" lon="6.971257198601961">
        <ele>831.20001220703125</ele>
        <time>2014-05-17T05:22:37Z</time>
      </trkpt>
      <trkpt lat="46.617936305701733" lon="6.970917144790292">
        <ele>829.5999755859375</ele>
        <time>2014-05-17T05:22:40Z</time>
      </trkpt>
      <trkpt lat="46.61792297847569" lon="6.970666442066431">
        <ele>828.4000244140625</ele>
        <time>2014-05-17T05:22:42Z</time>
      </trkpt>
      <trkpt lat="46.617913339287043" lon="6.970538198947907">
        <ele>827.79998779296875</ele>
        <time>2014-05-17T05:22:43Z</time>
      </trkpt>
      <trkpt lat="46.617901520803571" lon="6.970408279448748">
        <ele>827.4000244140625</ele>
        <time>2014-05-17T05:22:44Z</time>
      </trkpt>
      <trkpt lat="46.617884086444974" lon="6.970147183164954">
        <ele>826.20001220703125</ele>
        <time>2014-05-17T05:22:46Z</time>
      </trkpt>
      <trkpt lat="46.617885762825608" lon="6.969876363873482">
        <ele>825.20001220703125</ele>
        <time>2014-05-17T05:22:48Z</time>
      </trkpt>
      <trkpt lat="46.617894899100065" lon="6.969603449106216">
        <ele>824.20001220703125</ele>
        <time>2014-05-17T05:22:50Z</time>
      </trkpt>
      <trkpt lat="46.617901520803571" lon="6.969463471323252">
        <ele>823.79998779296875</ele>
        <time>2014-05-17T05:22:51Z</time>
      </trkpt>
      <trkpt lat="46.617901688441634" lon="6.968928957358003">
        <ele>823</ele>
        <time>2014-05-17T05:22:55Z</time>
      </trkpt>
      <trkpt lat="46.61786288022995" lon="6.968818651512265">
        <ele>823.5999755859375</ele>
        <time>2014-05-17T05:22:56Z</time>
      </trkpt>
      <trkpt lat="46.617721477523446" lon="6.968518327921629">
        <ele>823.79998779296875</ele>
        <time>2014-05-17T05:22:59Z</time>
      </trkpt>
      <trkpt lat="46.617632377892733" lon="6.968084899708629">
        <ele>824</ele>
        <time>2014-05-17T05:23:03Z</time>
      </trkpt>
      <trkpt lat="46.617481838911772" lon="6.967385765165091">
        <ele>824.79998779296875</ele>
        <time>2014-05-17T05:23:10Z</time>
      </trkpt>
      <trkpt lat="46.617445209994912" lon="6.967193819582462">
        <ele>825</ele>
        <time>2014-05-17T05:23:12Z</time>
      </trkpt>
      <trkpt lat="46.617335993796587" lon="6.966842450201511">
        <ele>825.4000244140625</ele>
        <time>2014-05-17T05:23:16Z</time>
      </trkpt>
      <trkpt lat="46.61723549477756" lon="6.966612450778484">
        <ele>825.5999755859375</ele>
        <time>2014-05-17T05:23:19Z</time>
      </trkpt>
      <trkpt lat="46.617155615240335" lon="6.966482698917389">
        <ele>826</ele>
        <time>2014-05-17T05:23:21Z</time>
      </trkpt>
      <trkpt lat="46.617114543914795" lon="6.966417403891683">
        <ele>826.20001220703125</ele>
        <time>2014-05-17T05:23:22Z</time>
      </trkpt>
      <trkpt lat="46.616893680766225" lon="6.966121271252632">
        <ele>827.20001220703125</ele>
        <time>2014-05-17T05:23:27Z</time>
      </trkpt>
      <trkpt lat="46.616848921403289" lon="6.966064944863319">
        <ele>827.4000244140625</ele>
        <time>2014-05-17T05:23:28Z</time>
      </trkpt>
      <trkpt lat="46.616510124877095" lon="6.965624643489718">
        <ele>828.4000244140625</ele>
        <time>2014-05-17T05:23:36Z</time>
      </trkpt>
      <trkpt lat="46.616158001124859" lon="6.965166740119457">
        <ele>828.79998779296875</ele>
        <time>2014-05-17T05:23:44Z</time>
      </trkpt>
      <trkpt lat="46.615897407755256" lon="6.964808329939842">
        <ele>829</ele>
        <time>2014-05-17T05:23:50Z</time>
      </trkpt>
      <trkpt lat="46.615715939551592" lon="6.964580761268735">
        <ele>829.4000244140625</ele>
        <time>2014-05-17T05:23:54Z</time>
      </trkpt>
      <trkpt lat="46.615577805787325" lon="6.964404322206974">
        <ele>829.5999755859375</ele>
        <time>2014-05-17T05:23:57Z</time>
      </trkpt>
      <trkpt lat="46.615248145535588" lon="6.963970977813005">
        <ele>830.20001220703125</ele>
        <time>2014-05-17T05:24:04Z</time>
      </trkpt>
      <trkpt lat="46.614931058138609" lon="6.963660260662437">
        <ele>830.20001220703125</ele>
        <time>2014-05-17T05:24:10Z</time>
      </trkpt>
      <trkpt lat="46.614871211349964" lon="6.963622877374291">
        <ele>830.4000244140625</ele>
        <time>2014-05-17T05:24:11Z</time>
      </trkpt>
      <trkpt lat="46.614753277972341" lon="6.963541237637401">
        <ele>830.5999755859375</ele>
        <time>2014-05-17T05:24:13Z</time>
      </trkpt>
      <trkpt lat="46.614459324628115" lon="6.963336803019047">
        <ele>830.79998779296875</ele>
        <time>2014-05-17T05:24:18Z</time>
      </trkpt>
      <trkpt lat="46.614067303016782" lon="6.962939165532589">
        <ele>831</ele>
        <time>2014-05-17T05:24:25Z</time>
      </trkpt>
      <trkpt lat="46.613794472068548" lon="6.962467515841126">
        <ele>831.20001220703125</ele>
        <time>2014-05-17T05:24:31Z</time>
      </trkpt>
      <trkpt lat="46.61345349624753" lon="6.961772069334984">
        <ele>831.20001220703125</ele>
        <time>2014-05-17T05:24:39Z</time>
      </trkpt>
      <trkpt lat="46.613373532891273" lon="6.96159889921546">
        <ele>831.5999755859375</ele>
        <time>2014-05-17T05:24:41Z</time>
      </trkpt>
      <trkpt lat="46.61307136528194" lon="6.961006131023169">
        <ele>831.79998779296875</ele>
        <time>2014-05-17T05:24:48Z</time>
      </trkpt>
      <trkpt lat="46.612789817154408" lon="6.960408836603165">
        <ele>832.20001220703125</ele>
        <time>2014-05-17T05:24:55Z</time>
      </trkpt>
      <trkpt lat="46.612453702837229" lon="6.95972939953208">
        <ele>832.20001220703125</ele>
        <time>2014-05-17T05:25:03Z</time>
      </trkpt>
      <trkpt lat="46.612410871312022" lon="6.959646167233586">
        <ele>832.20001220703125</ele>
        <time>2014-05-17T05:25:04Z</time>
      </trkpt>
      <trkpt lat="46.612282628193498" lon="6.959395632147789">
        <ele>832.79998779296875</ele>
        <time>2014-05-17T05:25:07Z</time>
      </trkpt>
      <trkpt lat="46.611952045932412" lon="6.958714351058006">
        <ele>833.4000244140625</ele>
        <time>2014-05-17T05:25:15Z</time>
      </trkpt>
      <trkpt lat="46.61162406206131" lon="6.958045894280076">
        <ele>833.4000244140625</ele>
        <time>2014-05-17T05:25:23Z</time>
      </trkpt>
      <trkpt lat="46.611582739278674" lon="6.957961237058044">
        <ele>833.4000244140625</ele>
        <time>2014-05-17T05:25:24Z</time>
      </trkpt>
      <trkpt lat="46.61134066991508" lon="6.957459580153227">
        <ele>833.79998779296875</ele>
        <time>2014-05-17T05:25:30Z</time>
      </trkpt>
      <trkpt lat="46.61122097633779" lon="6.957215750589967">
        <ele>833.79998779296875</ele>
        <time>2014-05-17T05:25:33Z</time>
      </trkpt>
      <trkpt lat="46.610936410725117" lon="6.956642093136907">
        <ele>834.20001220703125</ele>
        <time>2014-05-17T05:25:40Z</time>
      </trkpt>
      <trkpt lat="46.610660897567868" lon="6.956079248338938">
        <ele>834.20001220703125</ele>
        <time>2014-05-17T05:25:47Z</time>
      </trkpt>
      <trkpt lat="46.610327130183578" lon="6.955442391335964">
        <ele>834.5999755859375</ele>
        <time>2014-05-17T05:25:55Z</time>
      </trkpt>
      <trkpt lat="46.610235180705786" lon="6.955283973366022">
        <ele>834.5999755859375</ele>
        <time>2014-05-17T05:25:57Z</time>
      </trkpt>
      <trkpt lat="46.609860425814986" lon="6.954638818278909">
        <ele>834.4000244140625</ele>
        <time>2014-05-17T05:26:05Z</time>
      </trkpt>
      <trkpt lat="46.609817259013653" lon="6.954554161056876">
        <ele>834.5999755859375</ele>
        <time>2014-05-17T05:26:06Z</time>
      </trkpt>
      <trkpt lat="46.609443761408329" lon="6.95391864515841">
        <ele>834.4000244140625</ele>
        <time>2014-05-17T05:26:14Z</time>
      </trkpt>
      <trkpt lat="46.609219964593649" lon="6.953540118411183">
        <ele>835</ele>
        <time>2014-05-17T05:26:19Z</time>
      </trkpt>
      <trkpt lat="46.609193058684468" lon="6.953454203903675">
        <ele>835</ele>
        <time>2014-05-17T05:26:20Z</time>
      </trkpt>
      <trkpt lat="46.609177468344569" lon="6.953369043767452">
        <ele>835.4000244140625</ele>
        <time>2014-05-17T05:26:21Z</time>
      </trkpt>
      <trkpt lat="46.609159531071782" lon="6.953214146196842">
        <ele>836.20001220703125</ele>
        <time>2014-05-17T05:26:23Z</time>
      </trkpt>
      <trkpt lat="46.609149305149913" lon="6.95314709097147">
        <ele>836.4000244140625</ele>
        <time>2014-05-17T05:26:24Z</time>
      </trkpt>
      <trkpt lat="46.609128098934889" lon="6.953085148707032">
        <ele>836.4000244140625</ele>
        <time>2014-05-17T05:26:25Z</time>
      </trkpt>
      <trkpt lat="46.608979990705848" lon="6.952831847593188">
        <ele>835.79998779296875</ele>
        <time>2014-05-17T05:26:29Z</time>
      </trkpt>
      <trkpt lat="46.608724594116211" lon="6.952391294762492">
        <ele>835.20001220703125</ele>
        <time>2014-05-17T05:26:35Z</time>
      </trkpt>
      <trkpt lat="46.608680756762624" lon="6.952317282557488">
        <ele>835</ele>
        <time>2014-05-17T05:26:36Z</time>
      </trkpt>
      <trkpt lat="46.608323017135262" lon="6.951705990359187">
        <ele>835.5999755859375</ele>
        <time>2014-05-17T05:26:44Z</time>
      </trkpt>
      <trkpt lat="46.607966870069504" lon="6.951073659583926">
        <ele>835.5999755859375</ele>
        <time>2014-05-17T05:26:52Z</time>
      </trkpt>
      <trkpt lat="46.607919344678521" lon="6.950998809188604">
        <ele>835.5999755859375</ele>
        <time>2014-05-17T05:26:53Z</time>
      </trkpt>
      <trkpt lat="46.60760167054832" lon="6.950445603579283">
        <ele>836</ele>
        <time>2014-05-17T05:27:00Z</time>
      </trkpt>
      <trkpt lat="46.607301095500588" lon="6.949849231168628">
        <ele>835.5999755859375</ele>
        <time>2014-05-17T05:27:07Z</time>
      </trkpt>
      <trkpt lat="46.606976464390755" lon="6.949213379994035">
        <ele>835.79998779296875</ele>
        <time>2014-05-17T05:27:14Z</time>
      </trkpt>
      <trkpt lat="46.606932543218136" lon="6.949116569012404">
        <ele>835.4000244140625</ele>
        <time>2014-05-17T05:27:15Z</time>
      </trkpt>
      <trkpt lat="46.606614114716649" lon="6.948434785008431">
        <ele>835</ele>
        <time>2014-05-17T05:27:22Z</time>
      </trkpt>
      <trkpt lat="46.606282610446215" lon="6.94772282615304">
        <ele>834.4000244140625</ele>
        <time>2014-05-17T05:27:29Z</time>
      </trkpt>
      <trkpt lat="46.606235085055232" lon="6.94761729799211">
        <ele>834</ele>
        <time>2014-05-17T05:27:30Z</time>
      </trkpt>
      <trkpt lat="46.60614606924355" lon="6.947402637451887">
        <ele>833.5999755859375</ele>
        <time>2014-05-17T05:27:32Z</time>
      </trkpt>
      <trkpt lat="46.605852283537388" lon="6.946644578129053">
        <ele>834.20001220703125</ele>
        <time>2014-05-17T05:27:39Z</time>
      </trkpt>
      <trkpt lat="46.605772823095322" lon="6.94642748683691">
        <ele>834</ele>
        <time>2014-05-17T05:27:41Z</time>
      </trkpt>
      <trkpt lat="46.60549127496779" lon="6.945708906278014">
        <ele>834.5999755859375</ele>
        <time>2014-05-17T05:27:48Z</time>
      </trkpt>
      <trkpt lat="46.605414999648929" lon="6.945511344820261">
        <ele>835</ele>
        <time>2014-05-17T05:27:50Z</time>
      </trkpt>
      <trkpt lat="46.605230011045933" lon="6.945016728714109">
        <ele>835.20001220703125</ele>
        <time>2014-05-17T05:27:55Z</time>
      </trkpt>
      <trkpt lat="46.605083076283336" lon="6.94462051615119">
        <ele>835</ele>
        <time>2014-05-17T05:27:59Z</time>
      </trkpt>
      <trkpt lat="46.604839246720076" lon="6.943954238668084">
        <ele>835.4000244140625</ele>
        <time>2014-05-17T05:28:06Z</time>
      </trkpt>
      <trkpt lat="46.604818627238274" lon="6.943847956135869">
        <ele>835.5999755859375</ele>
        <time>2014-05-17T05:28:07Z</time>
      </trkpt>
      <trkpt lat="46.60474855452776" lon="6.943436237052083">
        <ele>835.4000244140625</ele>
        <time>2014-05-17T05:28:11Z</time>
      </trkpt>
      <trkpt lat="46.604623747989535" lon="6.942719500511885">
        <ele>836</ele>
        <time>2014-05-17T05:28:18Z</time>
      </trkpt>
      <trkpt lat="46.604510089382529" lon="6.942106196656823">
        <ele>836.20001220703125</ele>
        <time>2014-05-17T05:28:24Z</time>
      </trkpt>
      <trkpt lat="46.604443788528442" lon="6.94170730188489">
        <ele>836.5999755859375</ele>
        <time>2014-05-17T05:28:28Z</time>
      </trkpt>
      <trkpt lat="46.604292830452323" lon="6.940902303904295">
        <ele>837</ele>
        <time>2014-05-17T05:28:36Z</time>
      </trkpt>
      <trkpt lat="46.60427070222795" lon="6.940805241465569">
        <ele>837</ele>
        <time>2014-05-17T05:28:37Z</time>
      </trkpt>
      <trkpt lat="46.604192331433296" lon="6.940299309790134">
        <ele>837</ele>
        <time>2014-05-17T05:28:42Z</time>
      </trkpt>
      <trkpt lat="46.604159725829959" lon="6.940107699483633">
        <ele>837.4000244140625</ele>
        <time>2014-05-17T05:28:44Z</time>
      </trkpt>
      <trkpt lat="46.604082779958844" lon="6.939828330650926">
        <ele>837.4000244140625</ele>
        <time>2014-05-17T05:28:47Z</time>
      </trkpt>
      <trkpt lat="46.604024609550834" lon="6.939766220748425">
        <ele>837</ele>
        <time>2014-05-17T05:28:48Z</time>
      </trkpt>
      <trkpt lat="46.603799471631646" lon="6.939734201878309">
        <ele>837</ele>
        <time>2014-05-17T05:28:51Z</time>
      </trkpt>
      <trkpt lat="46.603668294847012" lon="6.939781391993165">
        <ele>837.79998779296875</ele>
        <time>2014-05-17T05:28:53Z</time>
      </trkpt>
      <trkpt lat="46.60360224545002" lon="6.939781894907355">
        <ele>838</ele>
        <time>2014-05-17T05:28:54Z</time>
      </trkpt>
      <trkpt lat="46.603536112233996" lon="6.939793126657605">
        <ele>838.20001220703125</ele>
        <time>2014-05-17T05:28:55Z</time>
      </trkpt>
      <trkpt lat="46.603411305695772" lon="6.939804274588823">
        <ele>838.5999755859375</ele>
        <time>2014-05-17T05:28:57Z</time>
      </trkpt>
      <trkpt lat="46.603351207450032" lon="6.939797988161445">
        <ele>839</ele>
        <time>2014-05-17T05:28:58Z</time>
      </trkpt>
      <trkpt lat="46.603242661803961" lon="6.939757168292999">
        <ele>839.79998779296875</ele>
        <time>2014-05-17T05:29:00Z</time>
      </trkpt>
      <trkpt lat="46.603116765618324" lon="6.939642168581486">
        <ele>841.5999755859375</ele>
        <time>2014-05-17T05:29:03Z</time>
      </trkpt>
      <trkpt lat="46.603083238005638" lon="6.939600678160787">
        <ele>841.79998779296875</ele>
        <time>2014-05-17T05:29:04Z</time>
      </trkpt>
      <trkpt lat="46.602979386225343" lon="6.939469501376152">
        <ele>842.79998779296875</ele>
        <time>2014-05-17T05:29:07Z</time>
      </trkpt>
      <trkpt lat="46.602807389572263" lon="6.939290380105376">
        <ele>844</ele>
        <time>2014-05-17T05:29:12Z</time>
      </trkpt>
      <trkpt lat="46.602740921080112" lon="6.939220977947116">
        <ele>844.4000244140625</ele>
        <time>2014-05-17T05:29:14Z</time>
      </trkpt>
      <trkpt lat="46.60267579369247" lon="6.93915325216949">
        <ele>844.79998779296875</ele>
        <time>2014-05-17T05:29:16Z</time>
      </trkpt>
      <trkpt lat="46.602645199745893" lon="6.939115365967155">
        <ele>845</ele>
        <time>2014-05-17T05:29:17Z</time>
      </trkpt>
      <trkpt lat="46.602613851428032" lon="6.939077898859978">
        <ele>845</ele>
        <time>2014-05-17T05:29:18Z</time>
      </trkpt>
      <trkpt lat="46.602309588342905" lon="6.938749998807907">
        <ele>846.20001220703125</ele>
        <time>2014-05-17T05:29:27Z</time>
      </trkpt>
      <trkpt lat="46.602008594200015" lon="6.938424361869693">
        <ele>846.4000244140625</ele>
        <time>2014-05-17T05:29:35Z</time>
      </trkpt>
      <trkpt lat="46.601690920069814" lon="6.938220513984561">
        <ele>846.5999755859375</ele>
        <time>2014-05-17T05:29:42Z</time>
      </trkpt>
      <trkpt lat="46.601405767723918" lon="6.938060503453016">
        <ele>847.4000244140625</ele>
        <time>2014-05-17T05:29:48Z</time>
      </trkpt>
      <trkpt lat="46.601361175999045" lon="6.938031921163201">
        <ele>847.5999755859375</ele>
        <time>2014-05-17T05:29:49Z</time>
      </trkpt>
      <trkpt lat="46.600962532684207" lon="6.937807118520141">
        <ele>847.79998779296875</ele>
        <time>2014-05-17T05:29:58Z</time>
      </trkpt>
      <trkpt lat="46.600764216855168" lon="6.937660183757544">
        <ele>848</ele>
        <time>2014-05-17T05:30:02Z</time>
      </trkpt>
      <trkpt lat="46.600713757798076" lon="6.937608886510134">
        <ele>847.79998779296875</ele>
        <time>2014-05-17T05:30:03Z</time>
      </trkpt>
      <trkpt lat="46.600554585456848" lon="6.937419204041362">
        <ele>846.20001220703125</ele>
        <time>2014-05-17T05:30:06Z</time>
      </trkpt>
      <trkpt lat="46.600435562431812" lon="6.937266485765576">
        <ele>845.20001220703125</ele>
        <time>2014-05-17T05:30:08Z</time>
      </trkpt>
      <trkpt lat="46.600375548005104" lon="6.937187360599637">
        <ele>844.79998779296875</ele>
        <time>2014-05-17T05:30:09Z</time>
      </trkpt>
      <trkpt lat="46.600238336250186" lon="6.937007652595639">
        <ele>843.20001220703125</ele>
        <time>2014-05-17T05:30:11Z</time>
      </trkpt>
      <trkpt lat="46.600083941593766" lon="6.936809504404664">
        <ele>841.5999755859375</ele>
        <time>2014-05-17T05:30:13Z</time>
      </trkpt>
      <trkpt lat="46.600005403161049" lon="6.93670523352921">
        <ele>840.4000244140625</ele>
        <time>2014-05-17T05:30:14Z</time>
      </trkpt>
      <trkpt lat="46.599924014881253" lon="6.936599537730217">
        <ele>837.79998779296875</ele>
        <time>2014-05-17T05:30:15Z</time>
      </trkpt>
      <trkpt lat="46.599837597459555" lon="6.936488142237067">
        <ele>836.5999755859375</ele>
        <time>2014-05-17T05:30:16Z</time>
      </trkpt>
      <trkpt lat="46.599748330190778" lon="6.936371549963951">
        <ele>835.4000244140625</ele>
        <time>2014-05-17T05:30:17Z</time>
      </trkpt>
      <trkpt lat="46.599567113444209" lon="6.93613450974226">
        <ele>834</ele>
        <time>2014-05-17T05:30:19Z</time>
      </trkpt>
      <trkpt lat="46.599121866747737" lon="6.935573257505894">
        <ele>833</ele>
        <time>2014-05-17T05:30:24Z</time>
      </trkpt>
      <trkpt lat="46.599035784602165" lon="6.935461275279522">
        <ele>832.5999755859375</ele>
        <time>2014-05-17T05:30:25Z</time>
      </trkpt>
      <trkpt lat="46.598870828747749" lon="6.935244938358665">
        <ele>832.5999755859375</ele>
        <time>2014-05-17T05:30:27Z</time>
      </trkpt>
      <trkpt lat="46.598395323380828" lon="6.934625180438161">
        <ele>833.5999755859375</ele>
        <time>2014-05-17T05:30:33Z</time>
      </trkpt>
      <trkpt lat="46.598321311175823" lon="6.934529542922974">
        <ele>833.5999755859375</ele>
        <time>2014-05-17T05:30:34Z</time>
      </trkpt>
      <trkpt lat="46.597891990095377" lon="6.933970553800464">
        <ele>834.20001220703125</ele>
        <time>2014-05-17T05:30:40Z</time>
      </trkpt>
      <trkpt lat="46.597827030345798" lon="6.933882543817163">
        <ele>834.4000244140625</ele>
        <time>2014-05-17T05:30:41Z</time>
      </trkpt>
      <trkpt lat="46.597758717834949" lon="6.933799982070923">
        <ele>834.79998779296875</ele>
        <time>2014-05-17T05:30:42Z</time>
      </trkpt>
      <trkpt lat="46.59737809561193" lon="6.933305282145739">
        <ele>835.79998779296875</ele>
        <time>2014-05-17T05:30:48Z</time>
      </trkpt>
      <trkpt lat="46.596949109807611" lon="6.932737743481994">
        <ele>836.20001220703125</ele>
        <time>2014-05-17T05:30:55Z</time>
      </trkpt>
      <trkpt lat="46.596888341009617" lon="6.932657780125737">
        <ele>836.20001220703125</ele>
        <time>2014-05-17T05:30:56Z</time>
      </trkpt>
      <trkpt lat="46.59654744900763" lon="6.932228123769164">
        <ele>834.4000244140625</ele>
        <time>2014-05-17T05:31:01Z</time>
      </trkpt>
      <trkpt lat="46.596476035192609" lon="6.932134162634611">
        <ele>833.79998779296875</ele>
        <time>2014-05-17T05:31:02Z</time>
      </trkpt>
      <trkpt lat="46.596402358263731" lon="6.932033328339458">
        <ele>832.79998779296875</ele>
        <time>2014-05-17T05:31:03Z</time>
      </trkpt>
      <trkpt lat="46.596124079078436" lon="6.931614316999912">
        <ele>831.79998779296875</ele>
        <time>2014-05-17T05:31:07Z</time>
      </trkpt>
      <trkpt lat="46.59606565721333" lon="6.931504011154175">
        <ele>831.79998779296875</ele>
        <time>2014-05-17T05:31:08Z</time>
      </trkpt>
      <trkpt lat="46.595906736329198" lon="6.931165968999267">
        <ele>832.79998779296875</ele>
        <time>2014-05-17T05:31:11Z</time>
      </trkpt>
      <trkpt lat="46.59570699557662" lon="6.930722817778587">
        <ele>832.20001220703125</ele>
        <time>2014-05-17T05:31:15Z</time>
      </trkpt>
      <trkpt lat="46.595460567623377" lon="6.93018201738596">
        <ele>831.4000244140625</ele>
        <time>2014-05-17T05:31:20Z</time>
      </trkpt>
      <trkpt lat="46.59526476636529" lon="6.929742721840739">
        <ele>830.20001220703125</ele>
        <time>2014-05-17T05:31:24Z</time>
      </trkpt>
      <trkpt lat="46.594965364784002" lon="6.929082814604044">
        <ele>830.20001220703125</ele>
        <time>2014-05-17T05:31:30Z</time>
      </trkpt>
      <trkpt lat="46.594822620972991" lon="6.928768828511238">
        <ele>830.4000244140625</ele>
        <time>2014-05-17T05:31:33Z</time>
      </trkpt>
      <trkpt lat="46.594684403389692" lon="6.928469762206078">
        <ele>831.5999755859375</ele>
        <time>2014-05-17T05:31:36Z</time>
      </trkpt>
      <trkpt lat="46.594560854136944" lon="6.928202630952001">
        <ele>832.5999755859375</ele>
        <time>2014-05-17T05:31:39Z</time>
      </trkpt>
      <trkpt lat="46.594524057582021" lon="6.928121913224459">
        <ele>832.79998779296875</ele>
        <time>2014-05-17T05:31:40Z</time>
      </trkpt>
      <trkpt lat="46.594387097284198" lon="6.927806753665209">
        <ele>834.20001220703125</ele>
        <time>2014-05-17T05:31:44Z</time>
      </trkpt>
      <trkpt lat="46.594355329871178" lon="6.927734250202775">
        <ele>834.5999755859375</ele>
        <time>2014-05-17T05:31:45Z</time>
      </trkpt>
      <trkpt lat="46.594264470040798" lon="6.927534341812134">
        <ele>835.4000244140625</ele>
        <time>2014-05-17T05:31:48Z</time>
      </trkpt>
      <trkpt lat="46.594185680150986" lon="6.92735580727458">
        <ele>836.79998779296875</ele>
        <time>2014-05-17T05:31:51Z</time>
      </trkpt>
      <trkpt lat="46.594105884432793" lon="6.927193198353052">
        <ele>837.79998779296875</ele>
        <time>2014-05-17T05:31:54Z</time>
      </trkpt>
      <trkpt lat="46.594082834199071" lon="6.927140895277262">
        <ele>838</ele>
        <time>2014-05-17T05:31:55Z</time>
      </trkpt>
      <trkpt lat="46.594041511416435" lon="6.927039893344045">
        <ele>838.5999755859375</ele>
        <time>2014-05-17T05:31:57Z</time>
      </trkpt>
      <trkpt lat="46.594018880277872" lon="6.926993876695633">
        <ele>838.79998779296875</ele>
        <time>2014-05-17T05:31:58Z</time>
      </trkpt>
      <trkpt lat="46.593940844759345" lon="6.926827328279614">
        <ele>839.79998779296875</ele>
        <time>2014-05-17T05:32:02Z</time>
      </trkpt>
      <trkpt lat="46.593899438157678" lon="6.926743257790804">
        <ele>840.4000244140625</ele>
        <time>2014-05-17T05:32:04Z</time>
      </trkpt>
      <trkpt lat="46.593837076798081" lon="6.926614176481962">
        <ele>841</ele>
        <time>2014-05-17T05:32:07Z</time>
      </trkpt>
      <trkpt lat="46.593752838671207" lon="6.926432121545076">
        <ele>841.79998779296875</ele>
        <time>2014-05-17T05:32:11Z</time>
      </trkpt>
      <trkpt lat="46.593732554465532" lon="6.926384093239904">
        <ele>842</ele>
        <time>2014-05-17T05:32:12Z</time>
      </trkpt>
      <trkpt lat="46.593654351308942" lon="6.926211090758443">
        <ele>843.20001220703125</ele>
        <time>2014-05-17T05:32:16Z</time>
      </trkpt>
      <trkpt lat="46.593633145093918" lon="6.926168594509363">
        <ele>843.4000244140625</ele>
        <time>2014-05-17T05:32:17Z</time>
      </trkpt>
      <trkpt lat="46.593576148152351" lon="6.926044626161456">
        <ele>844.4000244140625</ele>
        <time>2014-05-17T05:32:20Z</time>
      </trkpt>
      <trkpt lat="46.593498280271888" lon="6.925880759954453">
        <ele>845</ele>
        <time>2014-05-17T05:32:24Z</time>
      </trkpt>
      <trkpt lat="46.593460477888584" lon="6.92580197006464">
        <ele>845.4000244140625</ele>
        <time>2014-05-17T05:32:26Z</time>
      </trkpt>
      <trkpt lat="46.593345059081912" lon="6.925558475777507">
        <ele>846.5999755859375</ele>
        <time>2014-05-17T05:32:32Z</time>
      </trkpt>
      <trkpt lat="46.593213882297277" lon="6.925253961235285">
        <ele>847.4000244140625</ele>
        <time>2014-05-17T05:32:39Z</time>
      </trkpt>
      <trkpt lat="46.593194771558046" lon="6.925205430015922">
        <ele>847.79998779296875</ele>
        <time>2014-05-17T05:32:40Z</time>
      </trkpt>
      <trkpt lat="46.593084968626499" lon="6.924966629594564">
        <ele>847.79998779296875</ele>
        <time>2014-05-17T05:32:45Z</time>
      </trkpt>
      <trkpt lat="46.593047752976418" lon="6.924856239929795">
        <ele>848</ele>
        <time>2014-05-17T05:32:47Z</time>
      </trkpt>
      <trkpt lat="46.592979440465569" lon="6.924675023183227">
        <ele>847.5999755859375</ele>
        <time>2014-05-17T05:32:50Z</time>
      </trkpt>
      <trkpt lat="46.592907272279263" lon="6.924470253288746">
        <ele>847.20001220703125</ele>
        <time>2014-05-17T05:32:53Z</time>
      </trkpt>
      <trkpt lat="46.592851867899299" lon="6.924320217221975">
        <ele>846.5999755859375</ele>
        <time>2014-05-17T05:32:55Z</time>
      </trkpt>
      <trkpt lat="46.592730581760406" lon="6.923985611647368">
        <ele>845.5999755859375</ele>
        <time>2014-05-17T05:32:59Z</time>
      </trkpt>
      <trkpt lat="46.592626310884953" lon="6.923690568655729">
        <ele>844.20001220703125</ele>
        <time>2014-05-17T05:33:02Z</time>
      </trkpt>
      <trkpt lat="46.592551628127694" lon="6.923476327210665">
        <ele>842</ele>
        <time>2014-05-17T05:33:04Z</time>
      </trkpt>
      <trkpt lat="46.592511311173439" lon="6.92336761392653">
        <ele>841.20001220703125</ele>
        <time>2014-05-17T05:33:05Z</time>
      </trkpt>
      <trkpt lat="46.59246789291501" lon="6.923254542052746">
        <ele>840.5999755859375</ele>
        <time>2014-05-17T05:33:06Z</time>
      </trkpt>
      <trkpt lat="46.592381643131375" lon="6.923022195696831">
        <ele>839.5999755859375</ele>
        <time>2014-05-17T05:33:08Z</time>
      </trkpt>
      <trkpt lat="46.592292208224535" lon="6.922774259001017">
        <ele>838.5999755859375</ele>
        <time>2014-05-17T05:33:10Z</time>
      </trkpt>
      <trkpt lat="46.592248287051916" lon="6.92264593206346">
        <ele>837.79998779296875</ele>
        <time>2014-05-17T05:33:11Z</time>
      </trkpt>
      <trkpt lat="46.592201935127378" lon="6.922518024221063">
        <ele>837.20001220703125</ele>
        <time>2014-05-17T05:33:12Z</time>
      </trkpt>
      <trkpt lat="46.592098250985146" lon="6.922291461378336">
        <ele>836.20001220703125</ele>
        <time>2014-05-17T05:33:14Z</time>
      </trkpt>
      <trkpt lat="46.592037146911025" lon="6.922194650396705">
        <ele>836</ele>
        <time>2014-05-17T05:33:15Z</time>
      </trkpt>
      <trkpt lat="46.591816199943423" lon="6.921984599903226">
        <ele>834.5999755859375</ele>
        <time>2014-05-17T05:33:18Z</time>
      </trkpt>
      <trkpt lat="46.591737912967801" lon="6.921935733407736">
        <ele>834.4000244140625</ele>
        <time>2014-05-17T05:33:19Z</time>
      </trkpt>
      <trkpt lat="46.591596091166139" lon="6.921847723424435">
        <ele>833.4000244140625</ele>
        <time>2014-05-17T05:33:21Z</time>
      </trkpt>
      <trkpt lat="46.591470446437597" lon="6.921761557459831">
        <ele>832.20001220703125</ele>
        <time>2014-05-17T05:33:23Z</time>
      </trkpt>
      <trkpt lat="46.591265928000212" lon="6.921617137268186">
        <ele>831</ele>
        <time>2014-05-17T05:33:27Z</time>
      </trkpt>
      <trkpt lat="46.591232903301716" lon="6.921576065942645">
        <ele>830.4000244140625</ele>
        <time>2014-05-17T05:33:28Z</time>
      </trkpt>
      <trkpt lat="46.591187976300716" lon="6.921485038474202">
        <ele>829.79998779296875</ele>
        <time>2014-05-17T05:33:30Z</time>
      </trkpt>
      <trkpt lat="46.59111337736249" lon="6.921422928571701">
        <ele>829.4000244140625</ele>
        <time>2014-05-17T05:33:32Z</time>
      </trkpt>
      <trkpt lat="46.591015476733446" lon="6.921419575810432">
        <ele>829.4000244140625</ele>
        <time>2014-05-17T05:33:34Z</time>
      </trkpt>
      <trkpt lat="46.590914558619261" lon="6.921416474506259">
        <ele>829.79998779296875</ele>
        <time>2014-05-17T05:33:36Z</time>
      </trkpt>
      <trkpt lat="46.590703167021275" lon="6.921412367373705">
        <ele>829.79998779296875</ele>
        <time>2014-05-17T05:33:40Z</time>
      </trkpt>
      <trkpt lat="46.590531840920448" lon="6.921395603567362">
        <ele>830.5999755859375</ele>
        <time>2014-05-17T05:33:43Z</time>
      </trkpt>
      <trkpt lat="46.590115679427981" lon="6.921381857246161">
        <ele>830.79998779296875</ele>
        <time>2014-05-17T05:33:50Z</time>
      </trkpt>
      <trkpt lat="46.58998953178525" lon="6.921379258856177">
        <ele>831</ele>
        <time>2014-05-17T05:33:52Z</time>
      </trkpt>
      <trkpt lat="46.589603126049042" lon="6.921367440372706">
        <ele>831.5999755859375</ele>
        <time>2014-05-17T05:33:58Z</time>
      </trkpt>
      <trkpt lat="46.58942811191082" lon="6.921384455636144">
        <ele>832</ele>
        <time>2014-05-17T05:34:01Z</time>
      </trkpt>
      <trkpt lat="46.589372707530856" lon="6.921403985470533">
        <ele>832.20001220703125</ele>
        <time>2014-05-17T05:34:02Z</time>
      </trkpt>
      <trkpt lat="46.589323757216334" lon="6.921436004340649">
        <ele>832.5999755859375</ele>
        <time>2014-05-17T05:34:03Z</time>
      </trkpt>
      <trkpt lat="46.589242368936539" lon="6.921541532501578">
        <ele>833</ele>
        <time>2014-05-17T05:34:05Z</time>
      </trkpt>
      <trkpt lat="46.589205069467425" lon="6.921607162803412">
        <ele>833</ele>
        <time>2014-05-17T05:34:06Z</time>
      </trkpt>
      <trkpt lat="46.589168692007661" lon="6.921680839732289">
        <ele>832.79998779296875</ele>
        <time>2014-05-17T05:34:07Z</time>
      </trkpt>
      <trkpt lat="46.589020751416683" lon="6.922036902979016">
        <ele>831.5999755859375</ele>
        <time>2014-05-17T05:34:11Z</time>
      </trkpt>
      <trkpt lat="46.588980685919523" lon="6.922136396169663">
        <ele>831</ele>
        <time>2014-05-17T05:34:12Z</time>
      </trkpt>
      <trkpt lat="46.588939530774951" lon="6.922238739207387">
        <ele>830.20001220703125</ele>
        <time>2014-05-17T05:34:13Z</time>
      </trkpt>
      <trkpt lat="46.58889845944941" lon="6.922337478026748">
        <ele>828.79998779296875</ele>
        <time>2014-05-17T05:34:14Z</time>
      </trkpt>
      <trkpt lat="46.588821429759264" lon="6.922531435266137">
        <ele>827.79998779296875</ele>
        <time>2014-05-17T05:34:16Z</time>
      </trkpt>
      <trkpt lat="46.588706262409687" lon="6.922794207930565">
        <ele>828.79998779296875</ele>
        <time>2014-05-17T05:34:19Z</time>
      </trkpt>
      <trkpt lat="46.588387917727232" lon="6.923470627516508">
        <ele>828.20001220703125</ele>
        <time>2014-05-17T05:34:27Z</time>
      </trkpt>
      <trkpt lat="46.588213909417391" lon="6.923839012160897">
        <ele>830</ele>
        <time>2014-05-17T05:34:32Z</time>
      </trkpt>
      <trkpt lat="46.588149704039097" lon="6.923969686031342">
        <ele>830.4000244140625</ele>
        <time>2014-05-17T05:34:34Z</time>
      </trkpt>
      <trkpt lat="46.588090443983674" lon="6.924095246940851">
        <ele>831.4000244140625</ele>
        <time>2014-05-17T05:34:36Z</time>
      </trkpt>
      <trkpt lat="46.588013246655464" lon="6.924265399575234">
        <ele>832.5999755859375</ele>
        <time>2014-05-17T05:34:39Z</time>
      </trkpt>
      <trkpt lat="46.58796857111156" lon="6.924370089545846">
        <ele>833.4000244140625</ele>
        <time>2014-05-17T05:34:41Z</time>
      </trkpt>
      <trkpt lat="46.587948454543948" lon="6.92442063242197">
        <ele>833.79998779296875</ele>
        <time>2014-05-17T05:34:42Z</time>
      </trkpt>
      <trkpt lat="46.587866144254804" lon="6.924605621024966">
        <ele>834.79998779296875</ele>
        <time>2014-05-17T05:34:46Z</time>
      </trkpt>
      <trkpt lat="46.587847452610731" lon="6.924647698178887">
        <ele>834.79998779296875</ele>
        <time>2014-05-17T05:34:47Z</time>
      </trkpt>
      <trkpt lat="46.587713593617082" lon="6.924773091450334">
        <ele>835.79998779296875</ele>
        <time>2014-05-17T05:34:52Z</time>
      </trkpt>
      <trkpt lat="46.587537238374352" lon="6.924733193591237">
        <ele>836.79998779296875</ele>
        <time>2014-05-17T05:34:57Z</time>
      </trkpt>
      <trkpt lat="46.587419472634792" lon="6.924696983769536">
        <ele>837</ele>
        <time>2014-05-17T05:35:00Z</time>
      </trkpt>
      <trkpt lat="46.587293744087219" lon="6.92464929074049">
        <ele>837</ele>
        <time>2014-05-17T05:35:03Z</time>
      </trkpt>
      <trkpt lat="46.586908176541328" lon="6.924549462273717">
        <ele>837.20001220703125</ele>
        <time>2014-05-17T05:35:11Z</time>
      </trkpt>
      <trkpt lat="46.586518501862884" lon="6.924458518624306">
        <ele>837.79998779296875</ele>
        <time>2014-05-17T05:35:19Z</time>
      </trkpt>
      <trkpt lat="46.586387744173408" lon="6.924478970468044">
        <ele>838</ele>
        <time>2014-05-17T05:35:22Z</time>
      </trkpt>
      <trkpt lat="46.586312726140022" lon="6.924524484202266">
        <ele>838.5999755859375</ele>
        <time>2014-05-17T05:35:24Z</time>
      </trkpt>
      <trkpt lat="46.586207784712315" lon="6.924610817804933">
        <ele>839</ele>
        <time>2014-05-17T05:35:27Z</time>
      </trkpt>
      <trkpt lat="46.586140980944037" lon="6.924654906615615">
        <ele>839.5999755859375</ele>
        <time>2014-05-17T05:35:29Z</time>
      </trkpt>
      <trkpt lat="46.585964625701308" lon="6.924730930477381">
        <ele>840.20001220703125</ele>
        <time>2014-05-17T05:35:34Z</time>
      </trkpt>
      <trkpt lat="46.585888098925352" lon="6.924732020124793">
        <ele>840.20001220703125</ele>
        <time>2014-05-17T05:35:36Z</time>
      </trkpt>
      <trkpt lat="46.585846105590463" lon="6.924723722040653">
        <ele>840.20001220703125</ele>
        <time>2014-05-17T05:35:37Z</time>
      </trkpt>
      <trkpt lat="46.585681987926364" lon="6.924674268811941">
        <ele>841</ele>
        <time>2014-05-17T05:35:41Z</time>
      </trkpt>
      <trkpt lat="46.585558690130711" lon="6.924605201929808">
        <ele>841</ele>
        <time>2014-05-17T05:35:44Z</time>
      </trkpt>
      <trkpt lat="46.585477469488978" lon="6.924548456445336">
        <ele>841.20001220703125</ele>
        <time>2014-05-17T05:35:46Z</time>
      </trkpt>
      <trkpt lat="46.58517362549901" lon="6.924324743449688">
        <ele>841.4000244140625</ele>
        <time>2014-05-17T05:35:53Z</time>
      </trkpt>
      <trkpt lat="46.584802810102701" lon="6.924066497012973">
        <ele>841.5999755859375</ele>
        <time>2014-05-17T05:36:01Z</time>
      </trkpt>
      <trkpt lat="46.584317330271006" lon="6.923735328018665">
        <ele>842</ele>
        <time>2014-05-17T05:36:11Z</time>
      </trkpt>
      <trkpt lat="46.584169305860996" lon="6.923628207296133">
        <ele>842.4000244140625</ele>
        <time>2014-05-17T05:36:14Z</time>
      </trkpt>
      <trkpt lat="46.583966882899404" lon="6.923491498455405">
        <ele>842.20001220703125</ele>
        <time>2014-05-17T05:36:18Z</time>
      </trkpt>
      <trkpt lat="46.58354845829308" lon="6.923203412443399">
        <ele>842.79998779296875</ele>
        <time>2014-05-17T05:36:26Z</time>
      </trkpt>
      <trkpt lat="46.583113353699446" lon="6.92292639054358">
        <ele>843</ele>
        <time>2014-05-17T05:36:34Z</time>
      </trkpt>
      <trkpt lat="46.582634327933192" lon="6.922686751931906">
        <ele>842.79998779296875</ele>
        <time>2014-05-17T05:36:42Z</time>
      </trkpt>
      <trkpt lat="46.582075087353587" lon="6.92236446775496">
        <ele>842.4000244140625</ele>
        <time>2014-05-17T05:36:51Z</time>
      </trkpt>
      <trkpt lat="46.581603102385998" lon="6.922051487490535">
        <ele>841.5999755859375</ele>
        <time>2014-05-17T05:36:58Z</time>
      </trkpt>
      <trkpt lat="46.581384167075157" lon="6.921900948509574">
        <ele>841.20001220703125</ele>
        <time>2014-05-17T05:37:01Z</time>
      </trkpt>
      <trkpt lat="46.58108577132225" lon="6.921676900237799">
        <ele>840.5999755859375</ele>
        <time>2014-05-17T05:37:05Z</time>
      </trkpt>
      <trkpt lat="46.580937830731273" lon="6.921550668776035">
        <ele>840</ele>
        <time>2014-05-17T05:37:07Z</time>
      </trkpt>
      <trkpt lat="46.580646727234125" lon="6.921259565278888">
        <ele>839.4000244140625</ele>
        <time>2014-05-17T05:37:11Z</time>
      </trkpt>
      <trkpt lat="46.580338440835476" lon="6.920956978574395">
        <ele>839</ele>
        <time>2014-05-17T05:37:15Z</time>
      </trkpt>
      <trkpt lat="46.580031160265207" lon="6.920650955289602">
        <ele>837.4000244140625</ele>
        <time>2014-05-17T05:37:19Z</time>
      </trkpt>
      <trkpt lat="46.579876597970724" lon="6.920496979728341">
        <ele>837.20001220703125</ele>
        <time>2014-05-17T05:37:21Z</time>
      </trkpt>
      <trkpt lat="46.579412659630179" lon="6.920034550130367">
        <ele>837.20001220703125</ele>
        <time>2014-05-17T05:37:27Z</time>
      </trkpt>
      <trkpt lat="46.578954756259918" lon="6.919588884338737">
        <ele>837.5999755859375</ele>
        <time>2014-05-17T05:37:33Z</time>
      </trkpt>
      <trkpt lat="46.578503306955099" lon="6.919149002060294">
        <ele>837.5999755859375</ele>
        <time>2014-05-17T05:37:39Z</time>
      </trkpt>
      <trkpt lat="46.578290406614542" lon="6.918949261307716">
        <ele>837.5999755859375</ele>
        <time>2014-05-17T05:37:42Z</time>
      </trkpt>
      <trkpt lat="46.577809788286686" lon="6.918469313532114">
        <ele>838</ele>
        <time>2014-05-17T05:37:49Z</time>
      </trkpt>
      <trkpt lat="46.57754173502326" lon="6.918211234733462">
        <ele>838.4000244140625</ele>
        <time>2014-05-17T05:37:53Z</time>
      </trkpt>
      <trkpt lat="46.577475601807237" lon="6.91814610734582">
        <ele>838.5999755859375</ele>
        <time>2014-05-17T05:37:54Z</time>
      </trkpt>
      <trkpt lat="46.577217523008585" lon="6.917903870344162">
        <ele>838.79998779296875</ele>
        <time>2014-05-17T05:37:58Z</time>
      </trkpt>
      <trkpt lat="46.576875792816281" lon="6.917552836239338">
        <ele>839.20001220703125</ele>
        <time>2014-05-17T05:38:04Z</time>
      </trkpt>
      <trkpt lat="46.576414033770561" lon="6.917088562622666">
        <ele>838.79998779296875</ele>
        <time>2014-05-17T05:38:12Z</time>
      </trkpt>
      <trkpt lat="46.576357036828995" lon="6.917025363072753">
        <ele>838.79998779296875</ele>
        <time>2014-05-17T05:38:13Z</time>
      </trkpt>
      <trkpt lat="46.576245557516813" lon="6.916907848790288">
        <ele>838.5999755859375</ele>
        <time>2014-05-17T05:38:15Z</time>
      </trkpt>
      <trkpt lat="46.576141538098454" lon="6.916899969801307">
        <ele>838.4000244140625</ele>
        <time>2014-05-17T05:38:17Z</time>
      </trkpt>
      <trkpt lat="46.576075404882431" lon="6.917021842673421">
        <ele>838.79998779296875</ele>
        <time>2014-05-17T05:38:19Z</time>
      </trkpt>
      <trkpt lat="46.576035004109144" lon="6.917205741629005">
        <ele>838</ele>
        <time>2014-05-17T05:38:21Z</time>
      </trkpt>
      <trkpt lat="46.576011786237359" lon="6.917308084666729">
        <ele>837.20001220703125</ele>
        <time>2014-05-17T05:38:22Z</time>
      </trkpt>
      <trkpt lat="46.575985718518496" lon="6.917415708303452">
        <ele>836.4000244140625</ele>
        <time>2014-05-17T05:38:23Z</time>
      </trkpt>
      <trkpt lat="46.575955376029015" lon="6.917525846511126">
        <ele>835.79998779296875</ele>
        <time>2014-05-17T05:38:24Z</time>
      </trkpt>
      <trkpt lat="46.575894858688116" lon="6.917752744629979">
        <ele>834.5999755859375</ele>
        <time>2014-05-17T05:38:26Z</time>
      </trkpt>
      <trkpt lat="46.57583593390882" lon="6.91798048093915">
        <ele>833.20001220703125</ele>
        <time>2014-05-17T05:38:28Z</time>
      </trkpt>
      <trkpt lat="46.575806094333529" lon="6.918093301355839">
        <ele>832.79998779296875</ele>
        <time>2014-05-17T05:38:29Z</time>
      </trkpt>
      <trkpt lat="46.575725125148892" lon="6.918432768434286">
        <ele>832</ele>
        <time>2014-05-17T05:38:32Z</time>
      </trkpt>
      <trkpt lat="46.575670810416341" lon="6.918661594390869">
        <ele>831</ele>
        <time>2014-05-17T05:38:34Z</time>
      </trkpt>
      <trkpt lat="46.575618339702487" lon="6.918863765895367">
        <ele>830.20001220703125</ele>
        <time>2014-05-17T05:38:36Z</time>
      </trkpt>
      <trkpt lat="46.575486157089472" lon="6.918976586312056">
        <ele>830.5999755859375</ele>
        <time>2014-05-17T05:38:39Z</time>
      </trkpt>
      <trkpt lat="46.575336204841733" lon="6.918902322649956">
        <ele>830.79998779296875</ele>
        <time>2014-05-17T05:38:42Z</time>
      </trkpt>
      <trkpt lat="46.575281554833055" lon="6.918865777552128">
        <ele>830.20001220703125</ele>
        <time>2014-05-17T05:38:43Z</time>
      </trkpt>
      <trkpt lat="46.575220702216029" lon="6.918833591043949">
        <ele>829.79998779296875</ele>
        <time>2014-05-17T05:38:44Z</time>
      </trkpt>
      <trkpt lat="46.575015094131231" lon="6.918734600767493">
        <ele>828.5999755859375</ele>
        <time>2014-05-17T05:38:47Z</time>
      </trkpt>
      <trkpt lat="46.574600357562304" lon="6.918521951884031">
        <ele>829.20001220703125</ele>
        <time>2014-05-17T05:38:53Z</time>
      </trkpt>
      <trkpt lat="46.574127366766334" lon="6.918273931369185">
        <ele>829.20001220703125</ele>
        <time>2014-05-17T05:39:00Z</time>
      </trkpt>
      <trkpt lat="46.573576340451837" lon="6.918017026036978">
        <ele>829.4000244140625</ele>
        <time>2014-05-17T05:39:08Z</time>
      </trkpt>
      <trkpt lat="46.573506519198418" lon="6.917984085157514">
        <ele>829.4000244140625</ele>
        <time>2014-05-17T05:39:09Z</time>
      </trkpt>
      <trkpt lat="46.573436530306935" lon="6.917950222268701">
        <ele>829.5999755859375</ele>
        <time>2014-05-17T05:39:10Z</time>
      </trkpt>
      <trkpt lat="46.572945518419147" lon="6.917727012187243">
        <ele>829.5999755859375</ele>
        <time>2014-05-17T05:39:17Z</time>
      </trkpt>
      <trkpt lat="46.572450315579772" lon="6.91748159006238">
        <ele>829.5999755859375</ele>
        <time>2014-05-17T05:39:24Z</time>
      </trkpt>
      <trkpt lat="46.571884704753757" lon="6.9172094296664">
        <ele>829</ele>
        <time>2014-05-17T05:39:32Z</time>
      </trkpt>
      <trkpt lat="46.571387406438589" lon="6.916970796883106">
        <ele>829.20001220703125</ele>
        <time>2014-05-17T05:39:39Z</time>
      </trkpt>
      <trkpt lat="46.571104265749454" lon="6.91683366894722">
        <ele>828.5999755859375</ele>
        <time>2014-05-17T05:39:43Z</time>
      </trkpt>
      <trkpt lat="46.570664048194885" lon="6.916630743071437">
        <ele>828.5999755859375</ele>
        <time>2014-05-17T05:39:49Z</time>
      </trkpt>
      <trkpt lat="46.570097850635648" lon="6.916362270712853">
        <ele>828.20001220703125</ele>
        <time>2014-05-17T05:39:57Z</time>
      </trkpt>
      <trkpt lat="46.569544980302453" lon="6.916095474734902">
        <ele>828.20001220703125</ele>
        <time>2014-05-17T05:40:05Z</time>
      </trkpt>
      <trkpt lat="46.56947884708643" lon="6.916061276569963">
        <ele>828.20001220703125</ele>
        <time>2014-05-17T05:40:06Z</time>
      </trkpt>
      <trkpt lat="46.569346832111478" lon="6.91599128767848">
        <ele>828</ele>
        <time>2014-05-17T05:40:08Z</time>
      </trkpt>
      <trkpt lat="46.569077437743545" lon="6.915862038731575">
        <ele>827.5999755859375</ele>
        <time>2014-05-17T05:40:12Z</time>
      </trkpt>
      <trkpt lat="46.568879289552569" lon="6.915774112567306">
        <ele>827.4000244140625</ele>
        <time>2014-05-17T05:40:15Z</time>
      </trkpt>
      <trkpt lat="46.568564297631383" lon="6.915620304644108">
        <ele>827.20001220703125</ele>
        <time>2014-05-17T05:40:20Z</time>
      </trkpt>
      <trkpt lat="46.567995669320226" lon="6.915359878912568">
        <ele>827.4000244140625</ele>
        <time>2014-05-17T05:40:29Z</time>
      </trkpt>
      <trkpt lat="46.567938672378659" lon="6.915334481745958">
        <ele>827.79998779296875</ele>
        <time>2014-05-17T05:40:30Z</time>
      </trkpt>
      <trkpt lat="46.567539945244789" lon="6.915126442909241">
        <ele>827.5999755859375</ele>
        <time>2014-05-17T05:40:37Z</time>
      </trkpt>
      <trkpt lat="46.567355375736952" lon="6.914824778214097">
        <ele>825.5999755859375</ele>
        <time>2014-05-17T05:40:41Z</time>
      </trkpt>
      <trkpt lat="46.567291673272848" lon="6.914638197049499">
        <ele>825.20001220703125</ele>
        <time>2014-05-17T05:40:43Z</time>
      </trkpt>
      <trkpt lat="46.567235179245472" lon="6.91444331780076">
        <ele>824.5999755859375</ele>
        <time>2014-05-17T05:40:45Z</time>
      </trkpt>
      <trkpt lat="46.567170135676861" lon="6.91424148157239">
        <ele>823.79998779296875</ele>
        <time>2014-05-17T05:40:47Z</time>
      </trkpt>
      <trkpt lat="46.567104002460837" lon="6.914033023640513">
        <ele>823.4000244140625</ele>
        <time>2014-05-17T05:40:49Z</time>
      </trkpt>
      <trkpt lat="46.566964108496904" lon="6.913596745580435">
        <ele>822.4000244140625</ele>
        <time>2014-05-17T05:40:53Z</time>
      </trkpt>
      <trkpt lat="46.566893700510263" lon="6.913369428366423">
        <ele>821.79998779296875</ele>
        <time>2014-05-17T05:40:55Z</time>
      </trkpt>
      <trkpt lat="46.566780796274543" lon="6.91302384249866">
        <ele>821</ele>
        <time>2014-05-17T05:40:58Z</time>
      </trkpt>
      <trkpt lat="46.566618857905269" lon="6.912536937743425">
        <ele>820.20001220703125</ele>
        <time>2014-05-17T05:41:02Z</time>
      </trkpt>
      <trkpt lat="46.566537972539663" lon="6.912290761247277">
        <ele>820</ele>
        <time>2014-05-17T05:41:04Z</time>
      </trkpt>
      <trkpt lat="46.566460272297263" lon="6.912043746560812">
        <ele>818.79998779296875</ele>
        <time>2014-05-17T05:41:06Z</time>
      </trkpt>
      <trkpt lat="46.566258100792766" lon="6.911407141014934">
        <ele>818</ele>
        <time>2014-05-17T05:41:11Z</time>
      </trkpt>
      <trkpt lat="46.566171264275908" lon="6.911146882921457">
        <ele>817.4000244140625</ele>
        <time>2014-05-17T05:41:13Z</time>
      </trkpt>
      <trkpt lat="46.566002117469907" lon="6.910620583221316">
        <ele>816.20001220703125</ele>
        <time>2014-05-17T05:41:17Z</time>
      </trkpt>
      <trkpt lat="46.565919471904635" lon="6.910357559099793">
        <ele>815.4000244140625</ele>
        <time>2014-05-17T05:41:19Z</time>
      </trkpt>
      <trkpt lat="46.565877562388778" lon="6.910226969048381">
        <ele>815.20001220703125</ele>
        <time>2014-05-17T05:41:20Z</time>
      </trkpt>
      <trkpt lat="46.565670613199472" lon="6.909430604428053">
        <ele>814.5999755859375</ele>
        <time>2014-05-17T05:41:26Z</time>
      </trkpt>
      <trkpt lat="46.565621914342046" lon="6.909156516194344">
        <ele>814.20001220703125</ele>
        <time>2014-05-17T05:41:28Z</time>
      </trkpt>
      <trkpt lat="46.565602719783783" lon="6.909014191478491">
        <ele>813</ele>
        <time>2014-05-17T05:41:29Z</time>
      </trkpt>
      <trkpt lat="46.565559804439545" lon="6.908593503758311">
        <ele>812.20001220703125</ele>
        <time>2014-05-17T05:41:32Z</time>
      </trkpt>
      <trkpt lat="46.565517308190465" lon="6.908042142167687">
        <ele>812</ele>
        <time>2014-05-17T05:41:36Z</time>
      </trkpt>
      <trkpt lat="46.56547648832202" lon="6.907500587403774">
        <ele>811.4000244140625</ele>
        <time>2014-05-17T05:41:40Z</time>
      </trkpt>
      <trkpt lat="46.565441451966763" lon="6.907098172232509">
        <ele>811</ele>
        <time>2014-05-17T05:41:43Z</time>
      </trkpt>
      <trkpt lat="46.565385377034545" lon="6.906585870310664">
        <ele>811</ele>
        <time>2014-05-17T05:41:47Z</time>
      </trkpt>
      <trkpt lat="46.565360650420189" lon="6.906461734324694">
        <ele>811.4000244140625</ele>
        <time>2014-05-17T05:41:48Z</time>
      </trkpt>
      <trkpt lat="46.565181780606508" lon="6.905852202326059">
        <ele>810.79998779296875</ele>
        <time>2014-05-17T05:41:53Z</time>
      </trkpt>
      <trkpt lat="46.565031828358769" lon="6.905355909839273">
        <ele>809.79998779296875</ele>
        <time>2014-05-17T05:41:57Z</time>
      </trkpt>
      <trkpt lat="46.564957397058606" lon="6.905114008113742">
        <ele>810.79998779296875</ele>
        <time>2014-05-17T05:41:59Z</time>
      </trkpt>
      <trkpt lat="46.564838625490665" lon="6.904754508286715">
        <ele>810.79998779296875</ele>
        <time>2014-05-17T05:42:02Z</time>
      </trkpt>
      <trkpt lat="46.564592700451612" lon="6.903930064290762">
        <ele>810.5999755859375</ele>
        <time>2014-05-17T05:42:09Z</time>
      </trkpt>
      <trkpt lat="46.564559256657958" lon="6.903815232217312">
        <ele>810.4000244140625</ele>
        <time>2014-05-17T05:42:10Z</time>
      </trkpt>
      <trkpt lat="46.564386840909719" lon="6.902981651946902">
        <ele>810.79998779296875</ele>
        <time>2014-05-17T05:42:17Z</time>
      </trkpt>
      <trkpt lat="46.564354905858636" lon="6.902280924841762">
        <ele>810.4000244140625</ele>
        <time>2014-05-17T05:42:23Z</time>
      </trkpt>
      <trkpt lat="46.5643844101578" lon="6.901406608521938">
        <ele>810.5999755859375</ele>
        <time>2014-05-17T05:42:31Z</time>
      </trkpt>
      <trkpt lat="46.564373262226582" lon="6.900702277198434">
        <ele>812</ele>
        <time>2014-05-17T05:42:38Z</time>
      </trkpt>
      <trkpt lat="46.564344679936767" lon="6.900501446798444">
        <ele>813.20001220703125</ele>
        <time>2014-05-17T05:42:40Z</time>
      </trkpt>
      <trkpt lat="46.564280139282346" lon="6.9002256821841">
        <ele>813.20001220703125</ele>
        <time>2014-05-17T05:42:43Z</time>
      </trkpt>
      <trkpt lat="46.564250970259309" lon="6.900138594210148">
        <ele>813.20001220703125</ele>
        <time>2014-05-17T05:42:44Z</time>
      </trkpt>
      <trkpt lat="46.564032370224595" lon="6.899586729705334">
        <ele>813.20001220703125</ele>
        <time>2014-05-17T05:42:51Z</time>
      </trkpt>
      <trkpt lat="46.563888788223267" lon="6.899512968957424">
        <ele>814</ele>
        <time>2014-05-17T05:42:54Z</time>
      </trkpt>
      <trkpt lat="46.563764568418264" lon="6.899528559297323">
        <ele>813.79998779296875</ele>
        <time>2014-05-17T05:42:56Z</time>
      </trkpt>
      <trkpt lat="46.563619477674365" lon="6.899561919271946">
        <ele>813.20001220703125</ele>
        <time>2014-05-17T05:42:58Z</time>
      </trkpt>
      <trkpt lat="46.563457539305091" lon="6.899594105780125">
        <ele>812.20001220703125</ele>
        <time>2014-05-17T05:43:00Z</time>
      </trkpt>
      <trkpt lat="46.563283698633313" lon="6.899623274803162">
        <ele>811</ele>
        <time>2014-05-17T05:43:02Z</time>
      </trkpt>
      <trkpt lat="46.563100721687078" lon="6.899657640606165">
        <ele>810.79998779296875</ele>
        <time>2014-05-17T05:43:04Z</time>
      </trkpt>
      <trkpt lat="46.562715405598283" lon="6.899732407182455">
        <ele>810</ele>
        <time>2014-05-17T05:43:08Z</time>
      </trkpt>
      <trkpt lat="46.562322042882442" lon="6.899811616167426">
        <ele>810.4000244140625</ele>
        <time>2014-05-17T05:43:12Z</time>
      </trkpt>
      <trkpt lat="46.561739165335894" lon="6.899925945326686">
        <ele>809</ele>
        <time>2014-05-17T05:43:18Z</time>
      </trkpt>
      <trkpt lat="46.561449822038412" lon="6.899980679154396">
        <ele>808.79998779296875</ele>
        <time>2014-05-17T05:43:21Z</time>
      </trkpt>
      <trkpt lat="46.560876918956637" lon="6.900092242285609">
        <ele>807.79998779296875</ele>
        <time>2014-05-17T05:43:27Z</time>
      </trkpt>
      <trkpt lat="46.560601908713579" lon="6.900149323046207">
        <ele>807.79998779296875</ele>
        <time>2014-05-17T05:43:30Z</time>
      </trkpt>
      <trkpt lat="46.560048032552004" lon="6.900258455425501">
        <ele>807.4000244140625</ele>
        <time>2014-05-17T05:43:36Z</time>
      </trkpt>
      <trkpt lat="46.559787774458528" lon="6.900327187031508">
        <ele>808</ele>
        <time>2014-05-17T05:43:39Z</time>
      </trkpt>
      <trkpt lat="46.559230294078588" lon="6.900582415983081">
        <ele>808</ele>
        <time>2014-05-17T05:43:46Z</time>
      </trkpt>
      <trkpt lat="46.558887558057904" lon="6.900804117321968">
        <ele>809</ele>
        <time>2014-05-17T05:43:51Z</time>
      </trkpt>
      <trkpt lat="46.558826370164752" lon="6.900849463418126">
        <ele>809.20001220703125</ele>
        <time>2014-05-17T05:43:52Z</time>
      </trkpt>
      <trkpt lat="46.558646913617849" lon="6.900988854467869">
        <ele>810.20001220703125</ele>
        <time>2014-05-17T05:43:55Z</time>
      </trkpt>
      <trkpt lat="46.558441305533051" lon="6.901183482259512">
        <ele>810.20001220703125</ele>
        <time>2014-05-17T05:43:59Z</time>
      </trkpt>
      <trkpt lat="46.558168223127723" lon="6.901447679847479">
        <ele>811.4000244140625</ele>
        <time>2014-05-17T05:44:05Z</time>
      </trkpt>
      <trkpt lat="46.558078452944756" lon="6.901514986529946">
        <ele>811.79998779296875</ele>
        <time>2014-05-17T05:44:07Z</time>
      </trkpt>
      <trkpt lat="46.557991784065962" lon="6.90158111974597">
        <ele>812.4000244140625</ele>
        <time>2014-05-17T05:44:09Z</time>
      </trkpt>
      <trkpt lat="46.557723982259631" lon="6.901728641241789">
        <ele>813.20001220703125</ele>
        <time>2014-05-17T05:44:15Z</time>
      </trkpt>
      <trkpt lat="46.557680480182171" lon="6.901747668161988">
        <ele>813.4000244140625</ele>
        <time>2014-05-17T05:44:16Z</time>
      </trkpt>
      <trkpt lat="46.557416366413236" lon="6.901816483587027">
        <ele>814.20001220703125</ele>
        <time>2014-05-17T05:44:22Z</time>
      </trkpt>
      <trkpt lat="46.557329362258315" lon="6.901833917945623">
        <ele>814.79998779296875</ele>
        <time>2014-05-17T05:44:24Z</time>
      </trkpt>
      <trkpt lat="46.557124005630612" lon="6.90186551772058">
        <ele>815.5999755859375</ele>
        <time>2014-05-17T05:44:29Z</time>
      </trkpt>
      <trkpt lat="46.557044964283705" lon="6.901878761127591">
        <ele>816</ele>
        <time>2014-05-17T05:44:31Z</time>
      </trkpt>
      <trkpt lat="46.55688252300024" lon="6.901908600702882">
        <ele>816.5999755859375</ele>
        <time>2014-05-17T05:44:35Z</time>
      </trkpt>
      <trkpt lat="46.556797279044986" lon="6.901914468035102">
        <ele>817</ele>
        <time>2014-05-17T05:44:37Z</time>
      </trkpt>
      <trkpt lat="46.556623857468367" lon="6.901938105002046">
        <ele>818</ele>
        <time>2014-05-17T05:44:41Z</time>
      </trkpt>
      <trkpt lat="46.556488992646337" lon="6.901960736140609">
        <ele>818.5999755859375</ele>
        <time>2014-05-17T05:44:44Z</time>
      </trkpt>
      <trkpt lat="46.556309284642339" lon="6.90198915079236">
        <ele>819</ele>
        <time>2014-05-17T05:44:48Z</time>
      </trkpt>
      <trkpt lat="46.556223034858704" lon="6.902005160227418">
        <ele>819.20001220703125</ele>
        <time>2014-05-17T05:44:50Z</time>
      </trkpt>
      <trkpt lat="46.556139634922147" lon="6.902018655091524">
        <ele>819.79998779296875</ele>
        <time>2014-05-17T05:44:52Z</time>
      </trkpt>
      <trkpt lat="46.556098647415638" lon="6.902027456089854">
        <ele>820</ele>
        <time>2014-05-17T05:44:53Z</time>
      </trkpt>
      <trkpt lat="46.555818524211645" lon="6.902063079178333">
        <ele>821.20001220703125</ele>
        <time>2014-05-17T05:45:00Z</time>
      </trkpt>
      <trkpt lat="46.555629093199968" lon="6.902105994522572">
        <ele>822.5999755859375</ele>
        <time>2014-05-17T05:45:05Z</time>
      </trkpt>
      <trkpt lat="46.555556589737535" lon="6.902114963158965">
        <ele>822.79998779296875</ele>
        <time>2014-05-17T05:45:07Z</time>
      </trkpt>
      <trkpt lat="46.555303288623691" lon="6.902136588469148">
        <ele>823.5999755859375</ele>
        <time>2014-05-17T05:45:14Z</time>
      </trkpt>
      <trkpt lat="46.555266408249736" lon="6.90214547328651">
        <ele>823.79998779296875</ele>
        <time>2014-05-17T05:45:15Z</time>
      </trkpt>
      <trkpt lat="46.55508091673255" lon="6.902179587632418">
        <ele>824.79998779296875</ele>
        <time>2014-05-17T05:45:20Z</time>
      </trkpt>
      <trkpt lat="46.55501008965075" lon="6.902188556268811">
        <ele>825.20001220703125</ele>
        <time>2014-05-17T05:45:22Z</time>
      </trkpt>
      <trkpt lat="46.554833818227053" lon="6.902225436642766">
        <ele>826</ele>
        <time>2014-05-17T05:45:27Z</time>
      </trkpt>
      <trkpt lat="46.554725943133235" lon="6.902235494926572">
        <ele>826.5999755859375</ele>
        <time>2014-05-17T05:45:30Z</time>
      </trkpt>
      <trkpt lat="46.554613206535578" lon="6.902243122458458">
        <ele>827</ele>
        <time>2014-05-17T05:45:33Z</time>
      </trkpt>
      <trkpt lat="46.554373232647777" lon="6.902289893478155">
        <ele>827.79998779296875</ele>
        <time>2014-05-17T05:45:39Z</time>
      </trkpt>
      <trkpt lat="46.554252617061138" lon="6.902300622314215">
        <ele>828.20001220703125</ele>
        <time>2014-05-17T05:45:42Z</time>
      </trkpt>
      <trkpt lat="46.554015073925257" lon="6.902334317564964">
        <ele>829.20001220703125</ele>
        <time>2014-05-17T05:45:48Z</time>
      </trkpt>
      <trkpt lat="46.553975930437446" lon="6.902338173240423">
        <ele>829.5999755859375</ele>
        <time>2014-05-17T05:45:49Z</time>
      </trkpt>
      <trkpt lat="46.553827906027436" lon="6.902368934825063">
        <ele>830.5999755859375</ele>
        <time>2014-05-17T05:45:53Z</time>
      </trkpt>
      <trkpt lat="46.553712738677859" lon="6.902389135211706">
        <ele>830.79998779296875</ele>
        <time>2014-05-17T05:45:56Z</time>
      </trkpt>
      <trkpt lat="46.553527163341641" lon="6.902425764128566">
        <ele>831.79998779296875</ele>
        <time>2014-05-17T05:46:01Z</time>
      </trkpt>
      <trkpt lat="46.553416103124619" lon="6.902449568733573">
        <ele>832.20001220703125</ele>
        <time>2014-05-17T05:46:04Z</time>
      </trkpt>
      <trkpt lat="46.553272856399417" lon="6.902476390823722">
        <ele>833</ele>
        <time>2014-05-17T05:46:08Z</time>
      </trkpt>
      <trkpt lat="46.553128520026803" lon="6.902505643665791">
        <ele>833.5999755859375</ele>
        <time>2014-05-17T05:46:12Z</time>
      </trkpt>
      <trkpt lat="46.553061716258526" lon="6.902513606473804">
        <ele>834</ele>
        <time>2014-05-17T05:46:14Z</time>
      </trkpt>
      <trkpt lat="46.552908327430487" lon="6.902520060539246">
        <ele>835.20001220703125</ele>
        <time>2014-05-17T05:46:19Z</time>
      </trkpt>
      <trkpt lat="46.552847810089588" lon="6.902510756626725">
        <ele>835.5999755859375</ele>
        <time>2014-05-17T05:46:21Z</time>
      </trkpt>
      <trkpt lat="46.552751921117306" lon="6.902483347803354">
        <ele>836.4000244140625</ele>
        <time>2014-05-17T05:46:24Z</time>
      </trkpt>
      <trkpt lat="46.552562909200788" lon="6.902391817420721">
        <ele>837.4000244140625</ele>
        <time>2014-05-17T05:46:30Z</time>
      </trkpt>
      <trkpt lat="46.552368868142366" lon="6.902307830750942">
        <ele>838.4000244140625</ele>
        <time>2014-05-17T05:46:36Z</time>
      </trkpt>
      <trkpt lat="46.552335759624839" lon="6.902294838801026">
        <ele>838.5999755859375</ele>
        <time>2014-05-17T05:46:37Z</time>
      </trkpt>
      <trkpt lat="46.55216577462852" lon="6.902247313410044">
        <ele>839.5999755859375</ele>
        <time>2014-05-17T05:46:42Z</time>
      </trkpt>
      <trkpt lat="46.552057396620512" lon="6.902215043082833">
        <ele>840</ele>
        <time>2014-05-17T05:46:45Z</time>
      </trkpt>
      <trkpt lat="46.551884897053242" lon="6.902162069454789">
        <ele>840.5999755859375</ele>
        <time>2014-05-17T05:46:50Z</time>
      </trkpt>
      <trkpt lat="46.551699908450246" lon="6.902095600962639">
        <ele>841.5999755859375</ele>
        <time>2014-05-17T05:46:56Z</time>
      </trkpt>
      <trkpt lat="46.551668141037226" lon="6.902086464688182">
        <ele>841.79998779296875</ele>
        <time>2014-05-17T05:46:57Z</time>
      </trkpt>
      <trkpt lat="46.551392460241914" lon="6.901994347572327">
        <ele>842.4000244140625</ele>
        <time>2014-05-17T05:47:05Z</time>
      </trkpt>
      <trkpt lat="46.551107810810208" lon="6.901845568791032">
        <ele>842.20001220703125</ele>
        <time>2014-05-17T05:47:12Z</time>
      </trkpt>
      <trkpt lat="46.550878565758467" lon="6.901753367856145">
        <ele>840.79998779296875</ele>
        <time>2014-05-17T05:47:16Z</time>
      </trkpt>
      <trkpt lat="46.550813103094697" lon="6.901726378127933">
        <ele>840.20001220703125</ele>
        <time>2014-05-17T05:47:17Z</time>
      </trkpt>
      <trkpt lat="46.550744455307722" lon="6.901700226590037">
        <ele>839.79998779296875</ele>
        <time>2014-05-17T05:47:18Z</time>
      </trkpt>
      <trkpt lat="46.550598694011569" lon="6.901644906029105">
        <ele>838.5999755859375</ele>
        <time>2014-05-17T05:47:20Z</time>
      </trkpt>
      <trkpt lat="46.550442622974515" lon="6.901597380638123">
        <ele>837.4000244140625</ele>
        <time>2014-05-17T05:47:22Z</time>
      </trkpt>
      <trkpt lat="46.55019267462194" lon="6.90155622549355">
        <ele>836</ele>
        <time>2014-05-17T05:47:25Z</time>
      </trkpt>
      <trkpt lat="46.550014978274703" lon="6.901570307090879">
        <ele>835</ele>
        <time>2014-05-17T05:47:27Z</time>
      </trkpt>
      <trkpt lat="46.549933841452003" lon="6.901592183858156">
        <ele>834.79998779296875</ele>
        <time>2014-05-17T05:47:28Z</time>
      </trkpt>
      <trkpt lat="46.54974608682096" lon="6.901674494147301">
        <ele>834.79998779296875</ele>
        <time>2014-05-17T05:47:31Z</time>
      </trkpt>
      <trkpt lat="46.549637792631984" lon="6.9016866479069">
        <ele>835.5999755859375</ele>
        <time>2014-05-17T05:47:34Z</time>
      </trkpt>
      <trkpt lat="46.54960535466671" lon="6.901653287932277">
        <ele>835.5999755859375</ele>
        <time>2014-05-17T05:47:35Z</time>
      </trkpt>
      <trkpt lat="46.549569144845009" lon="6.901528649032116">
        <ele>834.5999755859375</ele>
        <time>2014-05-17T05:47:37Z</time>
      </trkpt>
      <trkpt lat="46.549550537019968" lon="6.901383558288217">
        <ele>834.4000244140625</ele>
        <time>2014-05-17T05:47:41Z</time>
      </trkpt>
      <trkpt lat="46.549548944458365" lon="6.901373667642474">
        <ele>833.79998779296875</ele>
        <time>2014-05-17T05:48:19Z</time>
      </trkpt>
      <trkpt lat="46.549537545070052" lon="6.901343241333962">
        <ele>833.79998779296875</ele>
        <time>2014-05-17T05:48:20Z</time>
      </trkpt>
      <trkpt lat="46.549523295834661" lon="6.901306780055165">
        <ele>833.5999755859375</ele>
        <time>2014-05-17T05:48:21Z</time>
      </trkpt>
      <trkpt lat="46.549450289458036" lon="6.901091197505593">
        <ele>832.4000244140625</ele>
        <time>2014-05-17T05:48:25Z</time>
      </trkpt>
      <trkpt lat="46.549406033009291" lon="6.900955997407436">
        <ele>831.79998779296875</ele>
        <time>2014-05-17T05:48:27Z</time>
      </trkpt>
      <trkpt lat="46.549351047724485" lon="6.900815181434155">
        <ele>831.4000244140625</ele>
        <time>2014-05-17T05:48:29Z</time>
      </trkpt>
      <trkpt lat="46.549317268654704" lon="6.900741085410118">
        <ele>831</ele>
        <time>2014-05-17T05:48:30Z</time>
      </trkpt>
      <trkpt lat="46.549192210659385" lon="6.900502201169729">
        <ele>830.20001220703125</ele>
        <time>2014-05-17T05:48:33Z</time>
      </trkpt>
      <trkpt lat="46.549138482660055" lon="6.900428272783756">
        <ele>830</ele>
        <time>2014-05-17T05:48:34Z</time>
      </trkpt>
      <trkpt lat="46.549081737175584" lon="6.900356020778418">
        <ele>829.5999755859375</ele>
        <time>2014-05-17T05:48:35Z</time>
      </trkpt>
      <trkpt lat="46.548959361389279" lon="6.900237333029509">
        <ele>829.20001220703125</ele>
        <time>2014-05-17T05:48:37Z</time>
      </trkpt>
      <trkpt lat="46.548895156010985" lon="6.900186957791448">
        <ele>829</ele>
        <time>2014-05-17T05:48:38Z</time>
      </trkpt>
      <trkpt lat="46.548763057217002" lon="6.900090482085943">
        <ele>828.79998779296875</ele>
        <time>2014-05-17T05:48:40Z</time>
      </trkpt>
      <trkpt lat="46.548629617318511" lon="6.899991659447551">
        <ele>827.79998779296875</ele>
        <time>2014-05-17T05:48:42Z</time>
      </trkpt>
      <trkpt lat="46.548421075567603" lon="6.899829804897308">
        <ele>826.79998779296875</ele>
        <time>2014-05-17T05:48:45Z</time>
      </trkpt>
      <trkpt lat="46.548350835219026" lon="6.89977565780282">
        <ele>826.5999755859375</ele>
        <time>2014-05-17T05:48:46Z</time>
      </trkpt>
      <trkpt lat="46.547868456691504" lon="6.899422695860267">
        <ele>826</ele>
        <time>2014-05-17T05:48:53Z</time>
      </trkpt>
      <trkpt lat="46.547797797247767" lon="6.899371817708015">
        <ele>826</ele>
        <time>2014-05-17T05:48:54Z</time>
      </trkpt>
      <trkpt lat="46.547656143084168" lon="6.899270480498672">
        <ele>825.5999755859375</ele>
        <time>2014-05-17T05:48:56Z</time>
      </trkpt>
      <trkpt lat="46.547156497836113" lon="6.898929504677653">
        <ele>825.20001220703125</ele>
        <time>2014-05-17T05:49:03Z</time>
      </trkpt>
      <trkpt lat="46.546742096543312" lon="6.898646363988519">
        <ele>824.5999755859375</ele>
        <time>2014-05-17T05:49:09Z</time>
      </trkpt>
      <trkpt lat="46.546528106555343" lon="6.898495825007558">
        <ele>824.5999755859375</ele>
        <time>2014-05-17T05:49:12Z</time>
      </trkpt>
      <trkpt lat="46.545970626175404" lon="6.898150155320764">
        <ele>824.4000244140625</ele>
        <time>2014-05-17T05:49:20Z</time>
      </trkpt>
      <trkpt lat="46.545493695884943" lon="6.897988552227616">
        <ele>825.4000244140625</ele>
        <time>2014-05-17T05:49:27Z</time>
      </trkpt>
      <trkpt lat="46.54493018053472" lon="6.8978201597929">
        <ele>824.4000244140625</ele>
        <time>2014-05-17T05:49:35Z</time>
      </trkpt>
      <trkpt lat="46.544392816722393" lon="6.897660987451673">
        <ele>824.5999755859375</ele>
        <time>2014-05-17T05:49:43Z</time>
      </trkpt>
      <trkpt lat="46.543847573921084" lon="6.897559901699424">
        <ele>824.5999755859375</ele>
        <time>2014-05-17T05:49:51Z</time>
      </trkpt>
      <trkpt lat="46.543779680505395" lon="6.897563673555851">
        <ele>824.79998779296875</ele>
        <time>2014-05-17T05:49:52Z</time>
      </trkpt>
      <trkpt lat="46.543311299756169" lon="6.897641289979219">
        <ele>825.4000244140625</ele>
        <time>2014-05-17T05:49:59Z</time>
      </trkpt>
      <trkpt lat="46.543180122971535" lon="6.897673895582557">
        <ele>825.5999755859375</ele>
        <time>2014-05-17T05:50:01Z</time>
      </trkpt>
      <trkpt lat="46.542768906801939" lon="6.897768024355173">
        <ele>825.20001220703125</ele>
        <time>2014-05-17T05:50:07Z</time>
      </trkpt>
      <trkpt lat="46.542196255177259" lon="6.897891573607922">
        <ele>825.20001220703125</ele>
        <time>2014-05-17T05:50:15Z</time>
      </trkpt>
      <trkpt lat="46.541662160307169" lon="6.898000705987215">
        <ele>825.79998779296875</ele>
        <time>2014-05-17T05:50:23Z</time>
      </trkpt>
      <trkpt lat="46.541122449561954" lon="6.898016212508082">
        <ele>825</ele>
        <time>2014-05-17T05:50:30Z</time>
      </trkpt>
      <trkpt lat="46.540874261409044" lon="6.897999029606581">
        <ele>824.20001220703125</ele>
        <time>2014-05-17T05:50:33Z</time>
      </trkpt>
      <trkpt lat="46.540432702749968" lon="6.897972710430622">
        <ele>823.20001220703125</ele>
        <time>2014-05-17T05:50:38Z</time>
      </trkpt>
      <trkpt lat="46.539817387238145" lon="6.897933650761843">
        <ele>822.20001220703125</ele>
        <time>2014-05-17T05:50:45Z</time>
      </trkpt>
      <trkpt lat="46.539636924862862" lon="6.897917054593563">
        <ele>822.20001220703125</ele>
        <time>2014-05-17T05:50:47Z</time>
      </trkpt>
      <trkpt lat="46.539135603234172" lon="6.897846981883049">
        <ele>822.5999755859375</ele>
        <time>2014-05-17T05:50:53Z</time>
      </trkpt>
      <trkpt lat="46.538854222744703" lon="6.897754361853004">
        <ele>823.4000244140625</ele>
        <time>2014-05-17T05:50:57Z</time>
      </trkpt>
      <trkpt lat="46.53878859244287" lon="6.897734832018614">
        <ele>823.5999755859375</ele>
        <time>2014-05-17T05:50:58Z</time>
      </trkpt>
      <trkpt lat="46.538660014048219" lon="6.89769459888339">
        <ele>824.4000244140625</ele>
        <time>2014-05-17T05:51:00Z</time>
      </trkpt>
      <trkpt lat="46.538540152832866" lon="6.897654701024294">
        <ele>825.5999755859375</ele>
        <time>2014-05-17T05:51:02Z</time>
      </trkpt>
      <trkpt lat="46.538378465920687" lon="6.897590160369873">
        <ele>826</ele>
        <time>2014-05-17T05:51:05Z</time>
      </trkpt>
      <trkpt lat="46.537923328578472" lon="6.897425707429647">
        <ele>826.4000244140625</ele>
        <time>2014-05-17T05:51:13Z</time>
      </trkpt>
      <trkpt lat="46.537753008306026" lon="6.897356640547514">
        <ele>826.79998779296875</ele>
        <time>2014-05-17T05:51:16Z</time>
      </trkpt>
      <trkpt lat="46.537452936172485" lon="6.897243820130825">
        <ele>826.4000244140625</ele>
        <time>2014-05-17T05:51:21Z</time>
      </trkpt>
      <trkpt lat="46.537074660882354" lon="6.897119684144855">
        <ele>827</ele>
        <time>2014-05-17T05:51:27Z</time>
      </trkpt>
      <trkpt lat="46.536776935681701" lon="6.89703737385571">
        <ele>827.79998779296875</ele>
        <time>2014-05-17T05:51:32Z</time>
      </trkpt>
      <trkpt lat="46.536654308438301" lon="6.897018430754542">
        <ele>828.20001220703125</ele>
        <time>2014-05-17T05:51:34Z</time>
      </trkpt>
      <trkpt lat="46.536187520250678" lon="6.896957829594612">
        <ele>828.20001220703125</ele>
        <time>2014-05-17T05:51:42Z</time>
      </trkpt>
      <trkpt lat="46.535724671557546" lon="6.896909549832344">
        <ele>826.79998779296875</ele>
        <time>2014-05-17T05:51:49Z</time>
      </trkpt>
      <trkpt lat="46.535437423735857" lon="6.89686780795455">
        <ele>825.5999755859375</ele>
        <time>2014-05-17T05:51:53Z</time>
      </trkpt>
      <trkpt lat="46.535214129835367" lon="6.896843668073416">
        <ele>825.20001220703125</ele>
        <time>2014-05-17T05:51:56Z</time>
      </trkpt>
      <trkpt lat="46.535062501206994" lon="6.896823467686772">
        <ele>824.5999755859375</ele>
        <time>2014-05-17T05:51:58Z</time>
      </trkpt>
      <trkpt lat="46.534668384119868" lon="6.896762028336525">
        <ele>823.5999755859375</ele>
        <time>2014-05-17T05:52:03Z</time>
      </trkpt>
      <trkpt lat="46.534364456310868" lon="6.896712994202972">
        <ele>823.5999755859375</ele>
        <time>2014-05-17T05:52:07Z</time>
      </trkpt>
      <trkpt lat="46.534222969785333" lon="6.896681226789951">
        <ele>823.79998779296875</ele>
        <time>2014-05-17T05:52:09Z</time>
      </trkpt>
      <trkpt lat="46.533906720578671" lon="6.896598748862743">
        <ele>824.79998779296875</ele>
        <time>2014-05-17T05:52:14Z</time>
      </trkpt>
      <trkpt lat="46.533796666190028" lon="6.896560275927186">
        <ele>825.20001220703125</ele>
        <time>2014-05-17T05:52:16Z</time>
      </trkpt>
      <trkpt lat="46.533697843551636" lon="6.896522808820009">
        <ele>825.79998779296875</ele>
        <time>2014-05-17T05:52:18Z</time>
      </trkpt>
      <trkpt lat="46.533410931006074" lon="6.896410910412669">
        <ele>826.20001220703125</ele>
        <time>2014-05-17T05:52:24Z</time>
      </trkpt>
      <trkpt lat="46.53305796906352" lon="6.896261293441057">
        <ele>826.20001220703125</ele>
        <time>2014-05-17T05:52:31Z</time>
      </trkpt>
      <trkpt lat="46.532588079571724" lon="6.896099857985973">
        <ele>825</ele>
        <time>2014-05-17T05:52:39Z</time>
      </trkpt>
      <trkpt lat="46.53239781036973" lon="6.896042358130217">
        <ele>824.5999755859375</ele>
        <time>2014-05-17T05:52:42Z</time>
      </trkpt>
      <trkpt lat="46.532118190079927" lon="6.895999358966947">
        <ele>823.4000244140625</ele>
        <time>2014-05-17T05:52:46Z</time>
      </trkpt>
      <trkpt lat="46.531955162063241" lon="6.89599122852087">
        <ele>822</ele>
        <time>2014-05-17T05:52:48Z</time>
      </trkpt>
      <trkpt lat="46.531774196773767" lon="6.895985277369618">
        <ele>820.79998779296875</ele>
        <time>2014-05-17T05:52:50Z</time>
      </trkpt>
      <trkpt lat="46.531680822372437" lon="6.89598242752254">
        <ele>820</ele>
        <time>2014-05-17T05:52:51Z</time>
      </trkpt>
      <trkpt lat="46.531583676114678" lon="6.89597999677062">
        <ele>819.20001220703125</ele>
        <time>2014-05-17T05:52:52Z</time>
      </trkpt>
      <trkpt lat="46.531394077464938" lon="6.8959706928581">
        <ele>817.79998779296875</ele>
        <time>2014-05-17T05:52:54Z</time>
      </trkpt>
      <trkpt lat="46.531100459396839" lon="6.895989216864109">
        <ele>816.79998779296875</ele>
        <time>2014-05-17T05:52:57Z</time>
      </trkpt>
      <trkpt lat="46.531001133844256" lon="6.896015955135226">
        <ele>816.4000244140625</ele>
        <time>2014-05-17T05:52:58Z</time>
      </trkpt>
      <trkpt lat="46.530640879645944" lon="6.896187197417021">
        <ele>816</ele>
        <time>2014-05-17T05:53:02Z</time>
      </trkpt>
      <trkpt lat="46.53026981279254" lon="6.896487018093467">
        <ele>816.5999755859375</ele>
        <time>2014-05-17T05:53:07Z</time>
      </trkpt>
      <trkpt lat="46.529909558594227" lon="6.896686675027013">
        <ele>816.20001220703125</ele>
        <time>2014-05-17T05:53:12Z</time>
      </trkpt>
      <trkpt lat="46.529690036550164" lon="6.896802764385939">
        <ele>815.4000244140625</ele>
        <time>2014-05-17T05:53:15Z</time>
      </trkpt>
      <trkpt lat="46.529322238638997" lon="6.89702513627708">
        <ele>814.20001220703125</ele>
        <time>2014-05-17T05:53:20Z</time>
      </trkpt>
      <trkpt lat="46.528789652511477" lon="6.897311378270388">
        <ele>813.20001220703125</ele>
        <time>2014-05-17T05:53:27Z</time>
      </trkpt>
      <trkpt lat="46.528710275888443" lon="6.897355131804943">
        <ele>812.79998779296875</ele>
        <time>2014-05-17T05:53:28Z</time>
      </trkpt>
      <trkpt lat="46.52862754650414" lon="6.897395448759198">
        <ele>812.5999755859375</ele>
        <time>2014-05-17T05:53:29Z</time>
      </trkpt>
      <trkpt lat="46.528464518487453" lon="6.897454122081399">
        <ele>811.4000244140625</ele>
        <time>2014-05-17T05:53:31Z</time>
      </trkpt>
      <trkpt lat="46.528258323669434" lon="6.897501479834318">
        <ele>811</ele>
        <time>2014-05-17T05:53:34Z</time>
      </trkpt>
      <trkpt lat="46.528074676170945" lon="6.897516399621964">
        <ele>810.5999755859375</ele>
        <time>2014-05-17T05:53:38Z</time>
      </trkpt>
      <trkpt lat="46.528033101931214" lon="6.897505167871714">
        <ele>810.20001220703125</ele>
        <time>2014-05-17T05:53:40Z</time>
      </trkpt>
      <trkpt lat="46.528007201850414" lon="6.897500809282064">
        <ele>810.20001220703125</ele>
        <time>2014-05-17T05:53:42Z</time>
      </trkpt>
      <trkpt lat="46.52797082439065" lon="6.897486224770546">
        <ele>810.20001220703125</ele>
        <time>2014-05-17T05:53:50Z</time>
      </trkpt>
      <trkpt lat="46.527883484959602" lon="6.897589070722461">
        <ele>809.79998779296875</ele>
        <time>2014-05-17T05:53:54Z</time>
      </trkpt>
      <trkpt lat="46.527855824679136" lon="6.897641122341156">
        <ele>809.79998779296875</ele>
        <time>2014-05-17T05:53:55Z</time>
      </trkpt>
      <trkpt lat="46.527713416144252" lon="6.897938512265682">
        <ele>809.4000244140625</ele>
        <time>2014-05-17T05:54:00Z</time>
      </trkpt>
      <trkpt lat="46.527686761692166" lon="6.898002717643976">
        <ele>809.20001220703125</ele>
        <time>2014-05-17T05:54:01Z</time>
      </trkpt>
      <trkpt lat="46.527515603229403" lon="6.89845877699554">
        <ele>810</ele>
        <time>2014-05-17T05:54:08Z</time>
      </trkpt>
      <trkpt lat="46.527464725077152" lon="6.898678047582507">
        <ele>810</ele>
        <time>2014-05-17T05:54:11Z</time>
      </trkpt>
      <trkpt lat="46.527470760047436" lon="6.898754071444273">
        <ele>809.79998779296875</ele>
        <time>2014-05-17T05:54:12Z</time>
      </trkpt>
      <trkpt lat="46.527478890493512" lon="6.898983903229237">
        <ele>810.20001220703125</ele>
        <time>2014-05-17T05:54:15Z</time>
      </trkpt>
      <trkpt lat="46.52748174034059" lon="6.899062860757113">
        <ele>810.4000244140625</ele>
        <time>2014-05-17T05:54:16Z</time>
      </trkpt>
      <trkpt lat="46.52744360268116" lon="6.899483967572451">
        <ele>809.79998779296875</ele>
        <time>2014-05-17T05:54:21Z</time>
      </trkpt>
      <trkpt lat="46.52740404009819" lon="6.899652443826199">
        <ele>809.4000244140625</ele>
        <time>2014-05-17T05:54:23Z</time>
      </trkpt>
      <trkpt lat="46.527379816398025" lon="6.899733413010836">
        <ele>809.4000244140625</ele>
        <time>2014-05-17T05:54:24Z</time>
      </trkpt>
      <trkpt lat="46.527309576049447" lon="6.899891663342714">
        <ele>809</ele>
        <time>2014-05-17T05:54:26Z</time>
      </trkpt>
      <trkpt lat="46.527077397331595" lon="6.900317128747702">
        <ele>808.4000244140625</ele>
        <time>2014-05-17T05:54:32Z</time>
      </trkpt>
      <trkpt lat="46.527000451460481" lon="6.900449143722653">
        <ele>808.20001220703125</ele>
        <time>2014-05-17T05:54:34Z</time>
      </trkpt>
      <trkpt lat="46.526931971311569" lon="6.900590797886252">
        <ele>808.4000244140625</ele>
        <time>2014-05-17T05:54:36Z</time>
      </trkpt>
      <trkpt lat="46.526888888329268" lon="6.900735469534993">
        <ele>808.20001220703125</ele>
        <time>2014-05-17T05:54:38Z</time>
      </trkpt>
      <trkpt lat="46.52685871347785" lon="6.900793723762035">
        <ele>808.20001220703125</ele>
        <time>2014-05-17T05:54:39Z</time>
      </trkpt>
      <trkpt lat="46.526768105104566" lon="6.900852899998426">
        <ele>808.20001220703125</ele>
        <time>2014-05-17T05:54:41Z</time>
      </trkpt>
      <trkpt lat="46.526614045724273" lon="6.900781989097595">
        <ele>807.20001220703125</ele>
        <time>2014-05-17T05:54:44Z</time>
      </trkpt>
      <trkpt lat="46.52656551450491" lon="6.900743516162038">
        <ele>807.20001220703125</ele>
        <time>2014-05-17T05:54:45Z</time>
      </trkpt>
      <trkpt lat="46.526296623051167" lon="6.90046414732933">
        <ele>807</ele>
        <time>2014-05-17T05:54:51Z</time>
      </trkpt>
      <trkpt lat="46.525945840403438" lon="6.900266418233514">
        <ele>806.79998779296875</ele>
        <time>2014-05-17T05:54:58Z</time>
      </trkpt>
      <trkpt lat="46.525735203176737" lon="6.900246972218156">
        <ele>807.4000244140625</ele>
        <time>2014-05-17T05:55:02Z</time>
      </trkpt>
      <trkpt lat="46.525681223720312" lon="6.900243954733014">
        <ele>807.4000244140625</ele>
        <time>2014-05-17T05:55:03Z</time>
      </trkpt>
      <trkpt lat="46.525358855724335" lon="6.900206319987774">
        <ele>808</ele>
        <time>2014-05-17T05:55:09Z</time>
      </trkpt>
      <trkpt lat="46.525303786620498" lon="6.900187125429511">
        <ele>808</ele>
        <time>2014-05-17T05:55:10Z</time>
      </trkpt>
      <trkpt lat="46.524963900446892" lon="6.900067180395126">
        <ele>808.20001220703125</ele>
        <time>2014-05-17T05:55:16Z</time>
      </trkpt>
      <trkpt lat="46.524792490527034" lon="6.900001047179103">
        <ele>808.4000244140625</ele>
        <time>2014-05-17T05:55:19Z</time>
      </trkpt>
      <trkpt lat="46.524566849693656" lon="6.899906499311328">
        <ele>809.20001220703125</ele>
        <time>2014-05-17T05:55:23Z</time>
      </trkpt>
      <trkpt lat="46.524236351251602" lon="6.899763755500317">
        <ele>809.4000244140625</ele>
        <time>2014-05-17T05:55:29Z</time>
      </trkpt>
      <trkpt lat="46.52382823638618" lon="6.899541048333049">
        <ele>808.4000244140625</ele>
        <time>2014-05-17T05:55:36Z</time>
      </trkpt>
      <trkpt lat="46.523766042664647" lon="6.89950886182487">
        <ele>808.20001220703125</ele>
        <time>2014-05-17T05:55:37Z</time>
      </trkpt>
      <trkpt lat="46.523580802604556" lon="6.899400819092989">
        <ele>807</ele>
        <time>2014-05-17T05:55:40Z</time>
      </trkpt>
      <trkpt lat="46.523516345769167" lon="6.89937056042254">
        <ele>807</ele>
        <time>2014-05-17T05:55:41Z</time>
      </trkpt>
      <trkpt lat="46.523386258631945" lon="6.899306438863277">
        <ele>807</ele>
        <time>2014-05-17T05:55:43Z</time>
      </trkpt>
      <trkpt lat="46.523134047165513" lon="6.899131089448929">
        <ele>806.20001220703125</ele>
        <time>2014-05-17T05:55:47Z</time>
      </trkpt>
      <trkpt lat="46.523072859272361" lon="6.899076187983155">
        <ele>805.79998779296875</ele>
        <time>2014-05-17T05:55:48Z</time>
      </trkpt>
      <trkpt lat="46.523013347759843" lon="6.899017682299018">
        <ele>805.4000244140625</ele>
        <time>2014-05-17T05:55:49Z</time>
      </trkpt>
      <trkpt lat="46.522749317809939" lon="6.89868257381022">
        <ele>804.79998779296875</ele>
        <time>2014-05-17T05:55:54Z</time>
      </trkpt>
      <trkpt lat="46.522383112460375" lon="6.898124758154154">
        <ele>805</ele>
        <time>2014-05-17T05:56:02Z</time>
      </trkpt>
      <trkpt lat="46.522084465250373" lon="6.897663837298751">
        <ele>805.79998779296875</ele>
        <time>2014-05-17T05:56:09Z</time>
      </trkpt>
      <trkpt lat="46.522042891010642" lon="6.897605247795582">
        <ele>805.79998779296875</ele>
        <time>2014-05-17T05:56:10Z</time>
      </trkpt>
      <trkpt lat="46.521628489717841" lon="6.89712873660028">
        <ele>806</ele>
        <time>2014-05-17T05:56:19Z</time>
      </trkpt>
      <trkpt lat="46.521247364580631" lon="6.896810224279761">
        <ele>806.5999755859375</ele>
        <time>2014-05-17T05:56:26Z</time>
      </trkpt>
      <trkpt lat="46.520750988274813" lon="6.896419962868094">
        <ele>805.79998779296875</ele>
        <time>2014-05-17T05:56:34Z</time>
      </trkpt>
      <trkpt lat="46.520295515656471" lon="6.896070605143905">
        <ele>805.20001220703125</ele>
        <time>2014-05-17T05:56:41Z</time>
      </trkpt>
      <trkpt lat="46.519888658076525" lon="6.89574932679534">
        <ele>806.79998779296875</ele>
        <time>2014-05-17T05:56:48Z</time>
      </trkpt>
      <trkpt lat="46.519731162115932" lon="6.89562913030386">
        <ele>808</ele>
        <time>2014-05-17T05:56:51Z</time>
      </trkpt>
      <trkpt lat="46.519540389999747" lon="6.89549719914794">
        <ele>808.4000244140625</ele>
        <time>2014-05-17T05:56:55Z</time>
      </trkpt>
      <trkpt lat="46.519448440521955" lon="6.895432909950614">
        <ele>809.20001220703125</ele>
        <time>2014-05-17T05:56:57Z</time>
      </trkpt>
      <trkpt lat="46.519177202135324" lon="6.895250603556633">
        <ele>810.20001220703125</ele>
        <time>2014-05-17T05:57:03Z</time>
      </trkpt>
      <trkpt lat="46.519131101667881" lon="6.895222775638104">
        <ele>810.5999755859375</ele>
        <time>2014-05-17T05:57:04Z</time>
      </trkpt>
      <trkpt lat="46.51879440061748" lon="6.895059244707227">
        <ele>811.4000244140625</ele>
        <time>2014-05-17T05:57:11Z</time>
      </trkpt>
      <trkpt lat="46.518744193017483" lon="6.895040133967996">
        <ele>811.4000244140625</ele>
        <time>2014-05-17T05:57:12Z</time>
      </trkpt>
      <trkpt lat="46.518340269103646" lon="6.894936114549637">
        <ele>812.20001220703125</ele>
        <time>2014-05-17T05:57:20Z</time>
      </trkpt>
      <trkpt lat="46.518293078988791" lon="6.894928151741624">
        <ele>812.4000244140625</ele>
        <time>2014-05-17T05:57:21Z</time>
      </trkpt>
      <trkpt lat="46.518152514472604" lon="6.894896803423762">
        <ele>812.4000244140625</ele>
        <time>2014-05-17T05:57:24Z</time>
      </trkpt>
      <trkpt lat="46.51805117726326" lon="6.894823797047138">
        <ele>812.79998779296875</ele>
        <time>2014-05-17T05:57:27Z</time>
      </trkpt>
      <trkpt lat="46.517991917207837" lon="6.894764704629779">
        <ele>813.79998779296875</ele>
        <time>2014-05-17T05:57:30Z</time>
      </trkpt>
      <trkpt lat="46.517976326867938" lon="6.894745090976358">
        <ele>814</ele>
        <time>2014-05-17T05:57:32Z</time>
      </trkpt>
      <trkpt lat="46.517964089289308" lon="6.894753640517592">
        <ele>814</ele>
        <time>2014-05-17T05:59:39Z</time>
      </trkpt>
      <trkpt lat="46.517986888065934" lon="6.894793454557657">
        <ele>814</ele>
        <time>2014-05-17T05:59:47Z</time>
      </trkpt>
      <trkpt lat="46.517964256927371" lon="6.894900240004063">
        <ele>813.4000244140625</ele>
        <time>2014-05-17T05:59:51Z</time>
      </trkpt>
      <trkpt lat="46.517833834514022" lon="6.894865287467837">
        <ele>813.20001220703125</ele>
        <time>2014-05-17T05:59:55Z</time>
      </trkpt>
      <trkpt lat="46.517731826752424" lon="6.894846931099892">
        <ele>812.79998779296875</ele>
        <time>2014-05-17T05:59:57Z</time>
      </trkpt>
      <trkpt lat="46.517675081267953" lon="6.894837124273181">
        <ele>812.79998779296875</ele>
        <time>2014-05-17T05:59:58Z</time>
      </trkpt>
      <trkpt lat="46.5175552200526" lon="6.894813906401396">
        <ele>812.79998779296875</ele>
        <time>2014-05-17T06:00:00Z</time>
      </trkpt>
      <trkpt lat="46.517170406877995" lon="6.894756238907576">
        <ele>812.5999755859375</ele>
        <time>2014-05-17T06:00:06Z</time>
      </trkpt>
      <trkpt lat="46.516622649505734" lon="6.894670911133289">
        <ele>812.4000244140625</ele>
        <time>2014-05-17T06:00:14Z</time>
      </trkpt>
      <trkpt lat="46.516080088913441" lon="6.894583236426115">
        <ele>812.79998779296875</ele>
        <time>2014-05-17T06:00:22Z</time>
      </trkpt>
      <trkpt lat="46.515945056453347" lon="6.894562868401408">
        <ele>812.79998779296875</ele>
        <time>2014-05-17T06:00:24Z</time>
      </trkpt>
      <trkpt lat="46.51540232822299" lon="6.894412077963352">
        <ele>812.20001220703125</ele>
        <time>2014-05-17T06:00:32Z</time>
      </trkpt>
      <trkpt lat="46.515136286616325" lon="6.894262125715613">
        <ele>811.79998779296875</ele>
        <time>2014-05-17T06:00:36Z</time>
      </trkpt>
      <trkpt lat="46.514874016866088" lon="6.894101528450847">
        <ele>811.4000244140625</ele>
        <time>2014-05-17T06:00:40Z</time>
      </trkpt>
      <trkpt lat="46.514357859268785" lon="6.893746638670564">
        <ele>810.79998779296875</ele>
        <time>2014-05-17T06:00:48Z</time>
      </trkpt>
      <trkpt lat="46.514299940317869" lon="6.893688132986426">
        <ele>810.79998779296875</ele>
        <time>2014-05-17T06:00:49Z</time>
      </trkpt>
      <trkpt lat="46.5138597227633" lon="6.893176166340709">
        <ele>810.4000244140625</ele>
        <time>2014-05-17T06:00:57Z</time>
      </trkpt>
      <trkpt lat="46.513476837426424" lon="6.892862431704998">
        <ele>810</ele>
        <time>2014-05-17T06:01:03Z</time>
      </trkpt>
      <trkpt lat="46.513275923207402" lon="6.892716838046908">
        <ele>809.5999755859375</ele>
        <time>2014-05-17T06:01:06Z</time>
      </trkpt>
      <trkpt lat="46.513067549094558" lon="6.892581973224878">
        <ele>808.79998779296875</ele>
        <time>2014-05-17T06:01:09Z</time>
      </trkpt>
      <trkpt lat="46.512856995686889" lon="6.892449036240578">
        <ele>808.4000244140625</ele>
        <time>2014-05-17T06:01:12Z</time>
      </trkpt>
      <trkpt lat="46.51244904845953" lon="6.892127171158791">
        <ele>807.5999755859375</ele>
        <time>2014-05-17T06:01:18Z</time>
      </trkpt>
      <trkpt lat="46.512389285489917" lon="6.892055841162801">
        <ele>807.4000244140625</ele>
        <time>2014-05-17T06:01:19Z</time>
      </trkpt>
      <trkpt lat="46.512225000187755" lon="6.891813101246953">
        <ele>807</ele>
        <time>2014-05-17T06:01:22Z</time>
      </trkpt>
      <trkpt lat="46.51195309124887" lon="6.891309265047312">
        <ele>807</ele>
        <time>2014-05-17T06:01:28Z</time>
      </trkpt>
      <trkpt lat="46.511666094884276" lon="6.890959236770868">
        <ele>806.79998779296875</ele>
        <time>2014-05-17T06:01:33Z</time>
      </trkpt>
      <trkpt lat="46.511260829865932" lon="6.890666289255023">
        <ele>807.20001220703125</ele>
        <time>2014-05-17T06:01:39Z</time>
      </trkpt>
      <trkpt lat="46.511186314746737" lon="6.890635946765542">
        <ele>807</ele>
        <time>2014-05-17T06:01:40Z</time>
      </trkpt>
      <trkpt lat="46.510885739699006" lon="6.890526227653027">
        <ele>806.5999755859375</ele>
        <time>2014-05-17T06:01:44Z</time>
      </trkpt>
      <trkpt lat="46.510641910135746" lon="6.890481971204281">
        <ele>806.20001220703125</ele>
        <time>2014-05-17T06:01:47Z</time>
      </trkpt>
      <trkpt lat="46.510391039773822" lon="6.89044970087707">
        <ele>805.4000244140625</ele>
        <time>2014-05-17T06:01:50Z</time>
      </trkpt>
      <trkpt lat="46.510307807475328" lon="6.890440732240677">
        <ele>805</ele>
        <time>2014-05-17T06:01:51Z</time>
      </trkpt>
      <trkpt lat="46.50980556383729" lon="6.890382645651698">
        <ele>804.79998779296875</ele>
        <time>2014-05-17T06:01:57Z</time>
      </trkpt>
      <trkpt lat="46.509463246911764" lon="6.890442408621311">
        <ele>803.5999755859375</ele>
        <time>2014-05-17T06:02:01Z</time>
      </trkpt>
      <trkpt lat="46.509291334077716" lon="6.89047216437757">
        <ele>802.79998779296875</ele>
        <time>2014-05-17T06:02:03Z</time>
      </trkpt>
      <trkpt lat="46.509029064327478" lon="6.890456322580576">
        <ele>802.5999755859375</ele>
        <time>2014-05-17T06:02:06Z</time>
      </trkpt>
      <trkpt lat="46.508941054344177" lon="6.890428243204951">
        <ele>802.20001220703125</ele>
        <time>2014-05-17T06:02:07Z</time>
      </trkpt>
      <trkpt lat="46.508687920868397" lon="6.8902737647295">
        <ele>801.20001220703125</ele>
        <time>2014-05-17T06:02:10Z</time>
      </trkpt>
      <trkpt lat="46.508610639721155" lon="6.890202686190605">
        <ele>801</ele>
        <time>2014-05-17T06:02:11Z</time>
      </trkpt>
      <trkpt lat="46.508346358314157" lon="6.88983891159296">
        <ele>800.5999755859375</ele>
        <time>2014-05-17T06:02:15Z</time>
      </trkpt>
      <trkpt lat="46.508213002234697" lon="6.889645792543888">
        <ele>799.79998779296875</ele>
        <time>2014-05-17T06:02:17Z</time>
      </trkpt>
      <trkpt lat="46.508002784103155" lon="6.889350917190313">
        <ele>798.79998779296875</ele>
        <time>2014-05-17T06:02:20Z</time>
      </trkpt>
      <trkpt lat="46.507860710844398" lon="6.889143465086818">
        <ele>797.5999755859375</ele>
        <time>2014-05-17T06:02:22Z</time>
      </trkpt>
      <trkpt lat="46.507730456069112" lon="6.888908101245761">
        <ele>796</ele>
        <time>2014-05-17T06:02:24Z</time>
      </trkpt>
      <trkpt lat="46.507637416943908" lon="6.888641640543938">
        <ele>794.79998779296875</ele>
        <time>2014-05-17T06:02:26Z</time>
      </trkpt>
      <trkpt lat="46.50755594484508" lon="6.888360092416406">
        <ele>793.5999755859375</ele>
        <time>2014-05-17T06:02:28Z</time>
      </trkpt>
      <trkpt lat="46.507421918213367" lon="6.887936471030116">
        <ele>792.20001220703125</ele>
        <time>2014-05-17T06:02:31Z</time>
      </trkpt>
      <trkpt lat="46.507327202707529" lon="6.887650229036808">
        <ele>790.79998779296875</ele>
        <time>2014-05-17T06:02:33Z</time>
      </trkpt>
      <trkpt lat="46.507219495251775" lon="6.887372955679894">
        <ele>789.20001220703125</ele>
        <time>2014-05-17T06:02:35Z</time>
      </trkpt>
      <trkpt lat="46.507160570472479" lon="6.887235576286912">
        <ele>788.5999755859375</ele>
        <time>2014-05-17T06:02:36Z</time>
      </trkpt>
      <trkpt lat="46.507098879665136" lon="6.887100040912628">
        <ele>788</ele>
        <time>2014-05-17T06:02:37Z</time>
      </trkpt>
      <trkpt lat="46.506973654031754" lon="6.886840537190437">
        <ele>786.5999755859375</ele>
        <time>2014-05-17T06:02:39Z</time>
      </trkpt>
      <trkpt lat="46.506839375942945" lon="6.886579776182771">
        <ele>785.4000244140625</ele>
        <time>2014-05-17T06:02:41Z</time>
      </trkpt>
      <trkpt lat="46.506762430071831" lon="6.886462764814496">
        <ele>784.79998779296875</ele>
        <time>2014-05-17T06:02:42Z</time>
      </trkpt>
      <trkpt lat="46.506684729829431" lon="6.886350531131029">
        <ele>783.5999755859375</ele>
        <time>2014-05-17T06:02:43Z</time>
      </trkpt>
      <trkpt lat="46.506511475890875" lon="6.886142827570438">
        <ele>782.5999755859375</ele>
        <time>2014-05-17T06:02:45Z</time>
      </trkpt>
      <trkpt lat="46.506330845877528" lon="6.885940739884973">
        <ele>781.5999755859375</ele>
        <time>2014-05-17T06:02:47Z</time>
      </trkpt>
      <trkpt lat="46.5062390640378" lon="6.885840408504009">
        <ele>781</ele>
        <time>2014-05-17T06:02:48Z</time>
      </trkpt>
      <trkpt lat="46.506053069606423" lon="6.885637063533068">
        <ele>779.79998779296875</ele>
        <time>2014-05-17T06:02:50Z</time>
      </trkpt>
      <trkpt lat="46.505862800404429" lon="6.885451907292008">
        <ele>779.20001220703125</ele>
        <time>2014-05-17T06:02:52Z</time>
      </trkpt>
      <trkpt lat="46.505765821784735" lon="6.885365406051278">
        <ele>778.5999755859375</ele>
        <time>2014-05-17T06:02:53Z</time>
      </trkpt>
      <trkpt lat="46.505561470985413" lon="6.885224590077996">
        <ele>777</ele>
        <time>2014-05-17T06:02:55Z</time>
      </trkpt>
      <trkpt lat="46.505349995568395" lon="6.885102214291692">
        <ele>775.5999755859375</ele>
        <time>2014-05-17T06:02:57Z</time>
      </trkpt>
      <trkpt lat="46.505052605643868" lon="6.884864252060652">
        <ele>774.5999755859375</ele>
        <time>2014-05-17T06:03:00Z</time>
      </trkpt>
      <trkpt lat="46.504970379173756" lon="6.884747575968504">
        <ele>774.20001220703125</ele>
        <time>2014-05-17T06:03:01Z</time>
      </trkpt>
      <trkpt lat="46.504836520180106" lon="6.884478349238634">
        <ele>772.79998779296875</ele>
        <time>2014-05-17T06:03:03Z</time>
      </trkpt>
      <trkpt lat="46.504784049466252" lon="6.884330827742815">
        <ele>772</ele>
        <time>2014-05-17T06:03:04Z</time>
      </trkpt>
      <trkpt lat="46.504735769703984" lon="6.884178193286061">
        <ele>771.4000244140625</ele>
        <time>2014-05-17T06:03:05Z</time>
      </trkpt>
      <trkpt lat="46.504637617617846" lon="6.883868565782905">
        <ele>769.4000244140625</ele>
        <time>2014-05-17T06:03:07Z</time>
      </trkpt>
      <trkpt lat="46.504471488296986" lon="6.883392641320825">
        <ele>767.79998779296875</ele>
        <time>2014-05-17T06:03:10Z</time>
      </trkpt>
      <trkpt lat="46.504405774176121" lon="6.883240845054388">
        <ele>766.5999755859375</ele>
        <time>2014-05-17T06:03:11Z</time>
      </trkpt>
      <trkpt lat="46.504079131409526" lon="6.882511368021369">
        <ele>765.79998779296875</ele>
        <time>2014-05-17T06:03:16Z</time>
      </trkpt>
      <trkpt lat="46.504014087840915" lon="6.882372982800007">
        <ele>765.4000244140625</ele>
        <time>2014-05-17T06:03:17Z</time>
      </trkpt>
      <trkpt lat="46.503707394003868" lon="6.881698574870825">
        <ele>764.20001220703125</ele>
        <time>2014-05-17T06:03:22Z</time>
      </trkpt>
      <trkpt lat="46.503589292988181" lon="6.881444519385696">
        <ele>763.79998779296875</ele>
        <time>2014-05-17T06:03:24Z</time>
      </trkpt>
      <trkpt lat="46.50325695052743" lon="6.880711689591408">
        <ele>763.4000244140625</ele>
        <time>2014-05-17T06:03:30Z</time>
      </trkpt>
      <trkpt lat="46.503201546147466" lon="6.88059551641345">
        <ele>763.20001220703125</ele>
        <time>2014-05-17T06:03:31Z</time>
      </trkpt>
      <trkpt lat="46.503148404881358" lon="6.880472805351019">
        <ele>763.20001220703125</ele>
        <time>2014-05-17T06:03:32Z</time>
      </trkpt>
      <trkpt lat="46.502831904217601" lon="6.879778197035193">
        <ele>763</ele>
        <time>2014-05-17T06:03:38Z</time>
      </trkpt>
      <trkpt lat="46.502448935061693" lon="6.87907294370234">
        <ele>762.4000244140625</ele>
        <time>2014-05-17T06:03:45Z</time>
      </trkpt>
      <trkpt lat="46.502178702503443" lon="6.878770608454943">
        <ele>762.4000244140625</ele>
        <time>2014-05-17T06:03:49Z</time>
      </trkpt>
      <trkpt lat="46.502109300345182" lon="6.878705145791173">
        <ele>762</ele>
        <time>2014-05-17T06:03:50Z</time>
      </trkpt>
      <trkpt lat="46.50204224511981" lon="6.878635827451944">
        <ele>762</ele>
        <time>2014-05-17T06:03:51Z</time>
      </trkpt>
      <trkpt lat="46.501612840220332" lon="6.878284122794867">
        <ele>762.4000244140625</ele>
        <time>2014-05-17T06:03:57Z</time>
      </trkpt>
      <trkpt lat="46.501116631552577" lon="6.877909703180194">
        <ele>761.4000244140625</ele>
        <time>2014-05-17T06:04:04Z</time>
      </trkpt>
      <trkpt lat="46.501045301556587" lon="6.877855053171516">
        <ele>761.20001220703125</ele>
        <time>2014-05-17T06:04:05Z</time>
      </trkpt>
      <trkpt lat="46.50076400488615" lon="6.877640392631292">
        <ele>761</ele>
        <time>2014-05-17T06:04:09Z</time>
      </trkpt>
      <trkpt lat="46.50048740208149" lon="6.877435287460685">
        <ele>761</ele>
        <time>2014-05-17T06:04:13Z</time>
      </trkpt>
      <trkpt lat="46.499996557831764" lon="6.877142088487744">
        <ele>760.79998779296875</ele>
        <time>2014-05-17T06:04:20Z</time>
      </trkpt>
      <trkpt lat="46.499529182910919" lon="6.877043265849352">
        <ele>760.20001220703125</ele>
        <time>2014-05-17T06:04:26Z</time>
      </trkpt>
      <trkpt lat="46.499386439099908" lon="6.876985179260373">
        <ele>760.20001220703125</ele>
        <time>2014-05-17T06:04:28Z</time>
      </trkpt>
      <trkpt lat="46.499255849048495" lon="6.87688484787941">
        <ele>760</ele>
        <time>2014-05-17T06:04:30Z</time>
      </trkpt>
      <trkpt lat="46.499045128002763" lon="6.876592990010977">
        <ele>760.4000244140625</ele>
        <time>2014-05-17T06:04:34Z</time>
      </trkpt>
      <trkpt lat="46.498960973694921" lon="6.876421663910151">
        <ele>760</ele>
        <time>2014-05-17T06:04:36Z</time>
      </trkpt>
      <trkpt lat="46.498925182968378" lon="6.876325691118836">
        <ele>759.79998779296875</ele>
        <time>2014-05-17T06:04:37Z</time>
      </trkpt>
      <trkpt lat="46.498870281502604" lon="6.876141792163253">
        <ele>760</ele>
        <time>2014-05-17T06:04:39Z</time>
      </trkpt>
      <trkpt lat="46.498745307326317" lon="6.875659162178636">
        <ele>759.5999755859375</ele>
        <time>2014-05-17T06:04:44Z</time>
      </trkpt>
      <trkpt lat="46.498702894896269" lon="6.875577103346586">
        <ele>759.5999755859375</ele>
        <time>2014-05-17T06:04:45Z</time>
      </trkpt>
      <trkpt lat="46.498474990949035" lon="6.875321455299854">
        <ele>759.20001220703125</ele>
        <time>2014-05-17T06:04:49Z</time>
      </trkpt>
      <trkpt lat="46.498272987082601" lon="6.875222800299525">
        <ele>758.79998779296875</ele>
        <time>2014-05-17T06:04:52Z</time>
      </trkpt>
      <trkpt lat="46.498205177485943" lon="6.875192960724235">
        <ele>758.79998779296875</ele>
        <time>2014-05-17T06:04:53Z</time>
      </trkpt>
      <trkpt lat="46.49780779145658" lon="6.875044433400035">
        <ele>759</ele>
        <time>2014-05-17T06:04:59Z</time>
      </trkpt>
      <trkpt lat="46.497602267190814" lon="6.874831365421414">
        <ele>759.4000244140625</ele>
        <time>2014-05-17T06:05:03Z</time>
      </trkpt>
      <trkpt lat="46.497344188392162" lon="6.874409336596727">
        <ele>759.4000244140625</ele>
        <time>2014-05-17T06:05:09Z</time>
      </trkpt>
      <trkpt lat="46.497068759053946" lon="6.873976578935981">
        <ele>759</ele>
        <time>2014-05-17T06:05:15Z</time>
      </trkpt>
      <trkpt lat="46.496723676100373" lon="6.873461678624153">
        <ele>758.5999755859375</ele>
        <time>2014-05-17T06:05:22Z</time>
      </trkpt>
      <trkpt lat="46.496312962844968" lon="6.872888021171093">
        <ele>758.5999755859375</ele>
        <time>2014-05-17T06:05:30Z</time>
      </trkpt>
      <trkpt lat="46.495954301208258" lon="6.872406397014856">
        <ele>758.4000244140625</ele>
        <time>2014-05-17T06:05:37Z</time>
      </trkpt>
      <trkpt lat="46.495661856606603" lon="6.871972633525729">
        <ele>758.20001220703125</ele>
        <time>2014-05-17T06:05:43Z</time>
      </trkpt>
      <trkpt lat="46.495500169694424" lon="6.871760906651616">
        <ele>757.79998779296875</ele>
        <time>2014-05-17T06:05:46Z</time>
      </trkpt>
      <trkpt lat="46.495276959612966" lon="6.871489668264985">
        <ele>757.79998779296875</ele>
        <time>2014-05-17T06:05:50Z</time>
      </trkpt>
      <trkpt lat="46.494893990457058" lon="6.87116009183228">
        <ele>757</ele>
        <time>2014-05-17T06:05:56Z</time>
      </trkpt>
      <trkpt lat="46.494750324636698" lon="6.871085576713085">
        <ele>756.79998779296875</ele>
        <time>2014-05-17T06:05:58Z</time>
      </trkpt>
      <trkpt lat="46.494520995765924" lon="6.871017515659332">
        <ele>756.20001220703125</ele>
        <time>2014-05-17T06:06:01Z</time>
      </trkpt>
      <trkpt lat="46.494289236143231" lon="6.870976192876697">
        <ele>755.5999755859375</ele>
        <time>2014-05-17T06:06:04Z</time>
      </trkpt>
      <trkpt lat="46.493982458487153" lon="6.870941910892725">
        <ele>755.4000244140625</ele>
        <time>2014-05-17T06:06:08Z</time>
      </trkpt>
      <trkpt lat="46.493451548740268" lon="6.870833449065685">
        <ele>755</ele>
        <time>2014-05-17T06:06:15Z</time>
      </trkpt>
      <trkpt lat="46.493302183225751" lon="6.870753653347492">
        <ele>755</ele>
        <time>2014-05-17T06:06:17Z</time>
      </trkpt>
      <trkpt lat="46.4931545779109" lon="6.870636474341154">
        <ele>754.4000244140625</ele>
        <time>2014-05-17T06:06:19Z</time>
      </trkpt>
      <trkpt lat="46.492838077247143" lon="6.870387531816959">
        <ele>753</ele>
        <time>2014-05-17T06:06:23Z</time>
      </trkpt>
      <trkpt lat="46.492587793618441" lon="6.870186533778906">
        <ele>751.79998779296875</ele>
        <time>2014-05-17T06:06:26Z</time>
      </trkpt>
      <trkpt lat="46.492420993745327" lon="6.870047394186258">
        <ele>750.20001220703125</ele>
        <time>2014-05-17T06:06:28Z</time>
      </trkpt>
      <trkpt lat="46.492083622142673" lon="6.869774060323834">
        <ele>749</ele>
        <time>2014-05-17T06:06:32Z</time>
      </trkpt>
      <trkpt lat="46.491999300196767" lon="6.869704406708479">
        <ele>748.5999755859375</ele>
        <time>2014-05-17T06:06:33Z</time>
      </trkpt>
      <trkpt lat="46.491844486445189" lon="6.869532829150558">
        <ele>748</ele>
        <time>2014-05-17T06:06:35Z</time>
      </trkpt>
      <trkpt lat="46.491784052923322" lon="6.869423445314169">
        <ele>747.79998779296875</ele>
        <time>2014-05-17T06:06:36Z</time>
      </trkpt>
      <trkpt lat="46.491737784817815" lon="6.869303919374943">
        <ele>747.4000244140625</ele>
        <time>2014-05-17T06:06:37Z</time>
      </trkpt>
      <trkpt lat="46.491689505055547" lon="6.869022203609347">
        <ele>746.4000244140625</ele>
        <time>2014-05-17T06:06:39Z</time>
      </trkpt>
      <trkpt lat="46.49166377261281" lon="6.868883231654763">
        <ele>746</ele>
        <time>2014-05-17T06:06:40Z</time>
      </trkpt>
      <trkpt lat="46.491605937480927" lon="6.868601180613041">
        <ele>745.20001220703125</ele>
        <time>2014-05-17T06:06:42Z</time>
      </trkpt>
      <trkpt lat="46.491563944146037" lon="6.868468327447772">
        <ele>744.20001220703125</ele>
        <time>2014-05-17T06:06:43Z</time>
      </trkpt>
      <trkpt lat="46.491475095972419" lon="6.868212344124913">
        <ele>743</ele>
        <time>2014-05-17T06:06:45Z</time>
      </trkpt>
      <trkpt lat="46.491418182849884" lon="6.868098014965653">
        <ele>742.4000244140625</ele>
        <time>2014-05-17T06:06:46Z</time>
      </trkpt>
      <trkpt lat="46.491358587518334" lon="6.867986116558313">
        <ele>741.79998779296875</ele>
        <time>2014-05-17T06:06:47Z</time>
      </trkpt>
      <trkpt lat="46.49123671464622" lon="6.867765840142965">
        <ele>741.20001220703125</ele>
        <time>2014-05-17T06:06:49Z</time>
      </trkpt>
      <trkpt lat="46.491110483184457" lon="6.867547323927283">
        <ele>740.79998779296875</ele>
        <time>2014-05-17T06:06:51Z</time>
      </trkpt>
      <trkpt lat="46.490976205095649" lon="6.867331406101584">
        <ele>739.5999755859375</ele>
        <time>2014-05-17T06:06:53Z</time>
      </trkpt>
      <trkpt lat="46.490843268111348" lon="6.867112973704934">
        <ele>738.20001220703125</ele>
        <time>2014-05-17T06:06:55Z</time>
      </trkpt>
      <trkpt lat="46.490779398009181" lon="6.867002919316292">
        <ele>737.79998779296875</ele>
        <time>2014-05-17T06:06:56Z</time>
      </trkpt>
      <trkpt lat="46.490652663633227" lon="6.866778032854199">
        <ele>737.20001220703125</ele>
        <time>2014-05-17T06:06:58Z</time>
      </trkpt>
      <trkpt lat="46.490452252328396" lon="6.866444181650877">
        <ele>736</ele>
        <time>2014-05-17T06:07:01Z</time>
      </trkpt>
      <trkpt lat="46.490179589018226" lon="6.865983428433538">
        <ele>734.5999755859375</ele>
        <time>2014-05-17T06:07:05Z</time>
      </trkpt>
      <trkpt lat="46.489967023953795" lon="6.86564396135509">
        <ele>732.5999755859375</ele>
        <time>2014-05-17T06:07:08Z</time>
      </trkpt>
      <trkpt lat="46.489817909896374" lon="6.865431061014533">
        <ele>731</ele>
        <time>2014-05-17T06:07:10Z</time>
      </trkpt>
      <trkpt lat="46.489652115851641" lon="6.865240791812539">
        <ele>730</ele>
        <time>2014-05-17T06:07:12Z</time>
      </trkpt>
      <trkpt lat="46.489564944058657" lon="6.86514750123024">
        <ele>729.20001220703125</ele>
        <time>2014-05-17T06:07:13Z</time>
      </trkpt>
      <trkpt lat="46.489391354843974" lon="6.864964021369815">
        <ele>727.5999755859375</ele>
        <time>2014-05-17T06:07:15Z</time>
      </trkpt>
      <trkpt lat="46.489129420369864" lon="6.864681635051966">
        <ele>725.79998779296875</ele>
        <time>2014-05-17T06:07:18Z</time>
      </trkpt>
      <trkpt lat="46.489045098423958" lon="6.864581806585193">
        <ele>725</ele>
        <time>2014-05-17T06:07:19Z</time>
      </trkpt>
      <trkpt lat="46.488960860297084" lon="6.864477535709739">
        <ele>724</ele>
        <time>2014-05-17T06:07:20Z</time>
      </trkpt>
      <trkpt lat="46.488803951069713" lon="6.864243932068348">
        <ele>722.4000244140625</ele>
        <time>2014-05-17T06:07:22Z</time>
      </trkpt>
      <trkpt lat="46.488658944144845" lon="6.863988535478711">
        <ele>721.4000244140625</ele>
        <time>2014-05-17T06:07:24Z</time>
      </trkpt>
      <trkpt lat="46.488515445962548" lon="6.86372609809041">
        <ele>719.5999755859375</ele>
        <time>2014-05-17T06:07:26Z</time>
      </trkpt>
      <trkpt lat="46.488378150388598" lon="6.863460810855031">
        <ele>718.20001220703125</ele>
        <time>2014-05-17T06:07:28Z</time>
      </trkpt>
      <trkpt lat="46.488307658582926" lon="6.863333657383919">
        <ele>717.20001220703125</ele>
        <time>2014-05-17T06:07:29Z</time>
      </trkpt>
      <trkpt lat="46.488166339695454" lon="6.863076752051711">
        <ele>716</ele>
        <time>2014-05-17T06:07:31Z</time>
      </trkpt>
      <trkpt lat="46.488096602261066" lon="6.862948006018996">
        <ele>715.5999755859375</ele>
        <time>2014-05-17T06:07:32Z</time>
      </trkpt>
      <trkpt lat="46.487885126844049" lon="6.862560678273439">
        <ele>714.4000244140625</ele>
        <time>2014-05-17T06:07:35Z</time>
      </trkpt>
      <trkpt lat="46.487741712480783" lon="6.862299079075456">
        <ele>712.4000244140625</ele>
        <time>2014-05-17T06:07:37Z</time>
      </trkpt>
      <trkpt lat="46.487610032781959" lon="6.862025326117873">
        <ele>711</ele>
        <time>2014-05-17T06:07:39Z</time>
      </trkpt>
      <trkpt lat="46.487552784383297" lon="6.861877720803022">
        <ele>710.5999755859375</ele>
        <time>2014-05-17T06:07:40Z</time>
      </trkpt>
      <trkpt lat="46.487419093027711" lon="6.861422751098871">
        <ele>709.5999755859375</ele>
        <time>2014-05-17T06:07:43Z</time>
      </trkpt>
      <trkpt lat="46.487376177683473" lon="6.861275648698211">
        <ele>708.5999755859375</ele>
        <time>2014-05-17T06:07:44Z</time>
      </trkpt>
      <trkpt lat="46.487335525453091" lon="6.861123098060489">
        <ele>707.5999755859375</ele>
        <time>2014-05-17T06:07:45Z</time>
      </trkpt>
      <trkpt lat="46.487292107194662" lon="6.860973481088877">
        <ele>706.5999755859375</ele>
        <time>2014-05-17T06:07:46Z</time>
      </trkpt>
      <trkpt lat="46.4872055221349" lon="6.860673911869526">
        <ele>705</ele>
        <time>2014-05-17T06:07:48Z</time>
      </trkpt>
      <trkpt lat="46.48708482272923" lon="6.860236627981067">
        <ele>704</ele>
        <time>2014-05-17T06:07:51Z</time>
      </trkpt>
      <trkpt lat="46.486966805532575" lon="6.859804876148701">
        <ele>703</ele>
        <time>2014-05-17T06:07:54Z</time>
      </trkpt>
      <trkpt lat="46.486882651224732" lon="6.85952240601182">
        <ele>701.5999755859375</ele>
        <time>2014-05-17T06:07:56Z</time>
      </trkpt>
      <trkpt lat="46.486785588786006" lon="6.85924245044589">
        <ele>700.4000244140625</ele>
        <time>2014-05-17T06:07:58Z</time>
      </trkpt>
      <trkpt lat="46.486732112243772" lon="6.85910071246326">
        <ele>700.4000244140625</ele>
        <time>2014-05-17T06:07:59Z</time>
      </trkpt>
      <trkpt lat="46.486556846648455" lon="6.858694860711694">
        <ele>698.79998779296875</ele>
        <time>2014-05-17T06:08:02Z</time>
      </trkpt>
      <trkpt lat="46.48641929961741" lon="6.85843669809401">
        <ele>696.79998779296875</ele>
        <time>2014-05-17T06:08:04Z</time>
      </trkpt>
      <trkpt lat="46.486345203593373" lon="6.858311975374818">
        <ele>696.20001220703125</ele>
        <time>2014-05-17T06:08:05Z</time>
      </trkpt>
      <trkpt lat="46.486268006265163" lon="6.858190018683672">
        <ele>695.4000244140625</ele>
        <time>2014-05-17T06:08:06Z</time>
      </trkpt>
      <trkpt lat="46.486105816438794" lon="6.857952643185854">
        <ele>694.20001220703125</ele>
        <time>2014-05-17T06:08:08Z</time>
      </trkpt>
      <trkpt lat="46.485934741795063" lon="6.857723230496049">
        <ele>693</ele>
        <time>2014-05-17T06:08:10Z</time>
      </trkpt>
      <trkpt lat="46.485852682963014" lon="6.857603620737791">
        <ele>692.5999755859375</ele>
        <time>2014-05-17T06:08:11Z</time>
      </trkpt>
      <trkpt lat="46.48576945066452" lon="6.857486525550485">
        <ele>692</ele>
        <time>2014-05-17T06:08:12Z</time>
      </trkpt>
      <trkpt lat="46.48560038767755" lon="6.857252670451999">
        <ele>690.79998779296875</ele>
        <time>2014-05-17T06:08:14Z</time>
      </trkpt>
      <trkpt lat="46.485433923080564" lon="6.857021581381559">
        <ele>689.79998779296875</ele>
        <time>2014-05-17T06:08:16Z</time>
      </trkpt>
      <trkpt lat="46.485269218683243" lon="6.856784289702773">
        <ele>688.79998779296875</ele>
        <time>2014-05-17T06:08:18Z</time>
      </trkpt>
      <trkpt lat="46.485100407153368" lon="6.856548674404621">
        <ele>686.79998779296875</ele>
        <time>2014-05-17T06:08:20Z</time>
      </trkpt>
      <trkpt lat="46.485017174854875" lon="6.856433842331171">
        <ele>686.20001220703125</ele>
        <time>2014-05-17T06:08:21Z</time>
      </trkpt>
      <trkpt lat="46.484936289489269" lon="6.856314735487104">
        <ele>685.5999755859375</ele>
        <time>2014-05-17T06:08:22Z</time>
      </trkpt>
      <trkpt lat="46.484522894024849" lon="6.85573160648346">
        <ele>684.20001220703125</ele>
        <time>2014-05-17T06:08:27Z</time>
      </trkpt>
      <trkpt lat="46.484439074993134" lon="6.855616271495819">
        <ele>683.20001220703125</ele>
        <time>2014-05-17T06:08:28Z</time>
      </trkpt>
      <trkpt lat="46.484279735013843" lon="6.855384428054094">
        <ele>682</ele>
        <time>2014-05-17T06:08:30Z</time>
      </trkpt>
      <trkpt lat="46.484041856601834" lon="6.855055522173643">
        <ele>680.5999755859375</ele>
        <time>2014-05-17T06:08:33Z</time>
      </trkpt>
      <trkpt lat="46.483806828036904" lon="6.854731393978">
        <ele>680.5999755859375</ele>
        <time>2014-05-17T06:08:36Z</time>
      </trkpt>
      <trkpt lat="46.483526956290007" lon="6.85424817726016">
        <ele>679.5999755859375</ele>
        <time>2014-05-17T06:08:40Z</time>
      </trkpt>
      <trkpt lat="46.483485298231244" lon="6.854099063202739">
        <ele>678.5999755859375</ele>
        <time>2014-05-17T06:08:41Z</time>
      </trkpt>
      <trkpt lat="46.483461325988173" lon="6.853943075984716">
        <ele>678</ele>
        <time>2014-05-17T06:08:42Z</time>
      </trkpt>
      <trkpt lat="46.483455039560795" lon="6.853623641654849">
        <ele>676.20001220703125</ele>
        <time>2014-05-17T06:08:44Z</time>
      </trkpt>
      <trkpt lat="46.483460990712047" lon="6.853462709113956">
        <ele>675.79998779296875</ele>
        <time>2014-05-17T06:08:45Z</time>
      </trkpt>
      <trkpt lat="46.483461493626237" lon="6.853141849860549">
        <ele>674.79998779296875</ele>
        <time>2014-05-17T06:08:47Z</time>
      </trkpt>
      <trkpt lat="46.483467193320394" lon="6.852812692523003">
        <ele>673.5999755859375</ele>
        <time>2014-05-17T06:08:49Z</time>
      </trkpt>
      <trkpt lat="46.483469372615218" lon="6.852649748325348">
        <ele>672.79998779296875</ele>
        <time>2014-05-17T06:08:50Z</time>
      </trkpt>
      <trkpt lat="46.48347239010036" lon="6.852484373375773">
        <ele>672</ele>
        <time>2014-05-17T06:08:51Z</time>
      </trkpt>
      <trkpt lat="46.483484376221895" lon="6.852156473323703">
        <ele>670.5999755859375</ele>
        <time>2014-05-17T06:08:53Z</time>
      </trkpt>
      <trkpt lat="46.483490662649274" lon="6.851829746738076">
        <ele>668.79998779296875</ele>
        <time>2014-05-17T06:08:55Z</time>
      </trkpt>
      <trkpt lat="46.483503403142095" lon="6.851330185309053">
        <ele>668</ele>
        <time>2014-05-17T06:08:58Z</time>
      </trkpt>
      <trkpt lat="46.48350759409368" lon="6.851161457598209">
        <ele>667.4000244140625</ele>
        <time>2014-05-17T06:08:59Z</time>
      </trkpt>
      <trkpt lat="46.483503235504031" lon="6.85065234079957">
        <ele>666.20001220703125</ele>
        <time>2014-05-17T06:09:02Z</time>
      </trkpt>
      <trkpt lat="46.48345872759819" lon="6.850317399948835">
        <ele>665</ele>
        <time>2014-05-17T06:09:04Z</time>
      </trkpt>
      <trkpt lat="46.483331406489015" lon="6.849837116897106">
        <ele>663.5999755859375</ele>
        <time>2014-05-17T06:09:07Z</time>
      </trkpt>
      <trkpt lat="46.483291424810886" lon="6.849673502147198">
        <ele>661.4000244140625</ele>
        <time>2014-05-17T06:09:08Z</time>
      </trkpt>
      <trkpt lat="46.483251359313726" lon="6.849513156339526">
        <ele>660.4000244140625</ele>
        <time>2014-05-17T06:09:09Z</time>
      </trkpt>
      <trkpt lat="46.483135353773832" lon="6.849034214392304">
        <ele>659.4000244140625</ele>
        <time>2014-05-17T06:09:12Z</time>
      </trkpt>
      <trkpt lat="46.482978444546461" lon="6.84840171597898">
        <ele>658.4000244140625</ele>
        <time>2014-05-17T06:09:16Z</time>
      </trkpt>
      <trkpt lat="46.482940223067999" lon="6.848247237503529">
        <ele>657.5999755859375</ele>
        <time>2014-05-17T06:09:17Z</time>
      </trkpt>
      <trkpt lat="46.482787169516087" lon="6.847608704119921">
        <ele>656.20001220703125</ele>
        <time>2014-05-17T06:09:21Z</time>
      </trkpt>
      <trkpt lat="46.482707289978862" lon="6.847286419942975">
        <ele>655</ele>
        <time>2014-05-17T06:09:23Z</time>
      </trkpt>
      <trkpt lat="46.482665715739131" lon="6.847125319764018">
        <ele>654.4000244140625</ele>
        <time>2014-05-17T06:09:24Z</time>
      </trkpt>
      <trkpt lat="46.482631349936128" lon="6.846969416365027">
        <ele>653.79998779296875</ele>
        <time>2014-05-17T06:09:25Z</time>
      </trkpt>
      <trkpt lat="46.482531018555164" lon="6.846668841317296">
        <ele>652.79998779296875</ele>
        <time>2014-05-17T06:09:27Z</time>
      </trkpt>
      <trkpt lat="46.482454659417272" lon="6.846539257094264">
        <ele>652.4000244140625</ele>
        <time>2014-05-17T06:09:28Z</time>
      </trkpt>
      <trkpt lat="46.482263384386897" lon="6.846332727000117">
        <ele>651.20001220703125</ele>
        <time>2014-05-17T06:09:30Z</time>
      </trkpt>
      <trkpt lat="46.482156766578555" lon="6.846253015100956">
        <ele>650.79998779296875</ele>
        <time>2014-05-17T06:09:31Z</time>
      </trkpt>
      <trkpt lat="46.482043946161866" lon="6.846187887713313">
        <ele>649.79998779296875</ele>
        <time>2014-05-17T06:09:32Z</time>
      </trkpt>
      <trkpt lat="46.481834901496768" lon="6.846074480563402">
        <ele>648.5999755859375</ele>
        <time>2014-05-17T06:09:34Z</time>
      </trkpt>
      <trkpt lat="46.48162686266005" lon="6.845731576904655">
        <ele>647.20001220703125</ele>
        <time>2014-05-17T06:09:37Z</time>
      </trkpt>
      <trkpt lat="46.481611272320151" lon="6.845415495336056">
        <ele>645.5999755859375</ele>
        <time>2014-05-17T06:09:39Z</time>
      </trkpt>
      <trkpt lat="46.48168595507741" lon="6.8451127409935">
        <ele>644.20001220703125</ele>
        <time>2014-05-17T06:09:41Z</time>
      </trkpt>
      <trkpt lat="46.481749657541513" lon="6.844978043809533">
        <ele>643.20001220703125</ele>
        <time>2014-05-17T06:09:42Z</time>
      </trkpt>
      <trkpt lat="46.481816293671727" lon="6.844846112653613">
        <ele>642.4000244140625</ele>
        <time>2014-05-17T06:09:43Z</time>
      </trkpt>
      <trkpt lat="46.481886534020305" lon="6.844718120992184">
        <ele>641.79998779296875</ele>
        <time>2014-05-17T06:09:44Z</time>
      </trkpt>
      <trkpt lat="46.481957277283072" lon="6.844586692750454">
        <ele>641</ele>
        <time>2014-05-17T06:09:45Z</time>
      </trkpt>
      <trkpt lat="46.482090801000595" lon="6.844320315867662">
        <ele>639.4000244140625</ele>
        <time>2014-05-17T06:09:47Z</time>
      </trkpt>
      <trkpt lat="46.482370253652334" lon="6.843733415007591">
        <ele>638.5999755859375</ele>
        <time>2014-05-17T06:09:52Z</time>
      </trkpt>
      <trkpt lat="46.482343347743154" lon="6.84349101036787">
        <ele>638.20001220703125</ele>
        <time>2014-05-17T06:09:54Z</time>
      </trkpt>
      <trkpt lat="46.482198424637318" lon="6.843324545770884">
        <ele>637.79998779296875</ele>
        <time>2014-05-17T06:09:56Z</time>
      </trkpt>
      <trkpt lat="46.482016704976559" lon="6.843338375911117">
        <ele>637</ele>
        <time>2014-05-17T06:09:58Z</time>
      </trkpt>
      <trkpt lat="46.481842277571559" lon="6.843453291803598">
        <ele>635.5999755859375</ele>
        <time>2014-05-17T06:10:00Z</time>
      </trkpt>
      <trkpt lat="46.481749657541513" lon="6.843503667041659">
        <ele>635.20001220703125</ele>
        <time>2014-05-17T06:10:01Z</time>
      </trkpt>
      <trkpt lat="46.481650164350867" lon="6.84353644028306">
        <ele>634.5999755859375</ele>
        <time>2014-05-17T06:10:02Z</time>
      </trkpt>
      <trkpt lat="46.481438269838691" lon="6.843546917662025">
        <ele>633.4000244140625</ele>
        <time>2014-05-17T06:10:04Z</time>
      </trkpt>
      <trkpt lat="46.481218663975596" lon="6.8434929382056">
        <ele>632.20001220703125</ele>
        <time>2014-05-17T06:10:06Z</time>
      </trkpt>
      <trkpt lat="46.481108693405986" lon="6.843451615422964">
        <ele>631.4000244140625</ele>
        <time>2014-05-17T06:10:07Z</time>
      </trkpt>
      <trkpt lat="46.481002410873771" lon="6.843399982899427">
        <ele>630.5999755859375</ele>
        <time>2014-05-17T06:10:08Z</time>
      </trkpt>
      <trkpt lat="46.480788756161928" lon="6.843274170532823">
        <ele>629.20001220703125</ele>
        <time>2014-05-17T06:10:10Z</time>
      </trkpt>
      <trkpt lat="46.480569988489151" lon="6.843155901879072">
        <ele>628.20001220703125</ele>
        <time>2014-05-17T06:10:12Z</time>
      </trkpt>
      <trkpt lat="46.48046001791954" lon="6.843096390366554">
        <ele>627.79998779296875</ele>
        <time>2014-05-17T06:10:13Z</time>
      </trkpt>
      <trkpt lat="46.480236556380987" lon="6.842968231067061">
        <ele>626.4000244140625</ele>
        <time>2014-05-17T06:10:15Z</time>
      </trkpt>
      <trkpt lat="46.480019045993686" lon="6.842841915786266">
        <ele>625.20001220703125</ele>
        <time>2014-05-17T06:10:17Z</time>
      </trkpt>
      <trkpt lat="46.479820730164647" lon="6.842722557485104">
        <ele>624.5999755859375</ele>
        <time>2014-05-17T06:10:19Z</time>
      </trkpt>
      <trkpt lat="46.479737078770995" lon="6.842621890828013">
        <ele>624</ele>
        <time>2014-05-17T06:10:20Z</time>
      </trkpt>
      <trkpt lat="46.479672370478511" lon="6.842488450929523">
        <ele>623.4000244140625</ele>
        <time>2014-05-17T06:10:21Z</time>
      </trkpt>
      <trkpt lat="46.479616966098547" lon="6.842346461489797">
        <ele>622.79998779296875</ele>
        <time>2014-05-17T06:10:22Z</time>
      </trkpt>
      <trkpt lat="46.479565585032105" lon="6.842199694365263">
        <ele>621.5999755859375</ele>
        <time>2014-05-17T06:10:23Z</time>
      </trkpt>
      <trkpt lat="46.479513365775347" lon="6.842046054080129">
        <ele>621.20001220703125</ele>
        <time>2014-05-17T06:10:24Z</time>
      </trkpt>
      <trkpt lat="46.479467935860157" lon="6.84191320091486">
        <ele>620.4000244140625</ele>
        <time>2014-05-17T06:10:25Z</time>
      </trkpt>
      <trkpt lat="46.4793102722615" lon="6.841539200395346">
        <ele>619.5999755859375</ele>
        <time>2014-05-17T06:10:28Z</time>
      </trkpt>
      <trkpt lat="46.479247743263841" lon="6.841415232047439">
        <ele>618.5999755859375</ele>
        <time>2014-05-17T06:10:29Z</time>
      </trkpt>
      <trkpt lat="46.479183370247483" lon="6.841294532641769">
        <ele>617.20001220703125</ele>
        <time>2014-05-17T06:10:30Z</time>
      </trkpt>
      <trkpt lat="46.479039285331964" lon="6.841059420257807">
        <ele>615.79998779296875</ele>
        <time>2014-05-17T06:10:32Z</time>
      </trkpt>
      <trkpt lat="46.478964686393738" lon="6.840941235423088">
        <ele>615.4000244140625</ele>
        <time>2014-05-17T06:10:33Z</time>
      </trkpt>
      <trkpt lat="46.478889584541321" lon="6.840820787474513">
        <ele>614.79998779296875</ele>
        <time>2014-05-17T06:10:34Z</time>
      </trkpt>
      <trkpt lat="46.478658746927977" lon="6.840450977906585">
        <ele>613.4000244140625</ele>
        <time>2014-05-17T06:10:37Z</time>
      </trkpt>
      <trkpt lat="46.478499406948686" lon="6.840199185535312">
        <ele>612.20001220703125</ele>
        <time>2014-05-17T06:10:39Z</time>
      </trkpt>
      <trkpt lat="46.47833445109427" lon="6.839944459497929">
        <ele>610.5999755859375</ele>
        <time>2014-05-17T06:10:41Z</time>
      </trkpt>
      <trkpt lat="46.478178882971406" lon="6.839671125635505">
        <ele>609.4000244140625</ele>
        <time>2014-05-17T06:10:43Z</time>
      </trkpt>
      <trkpt lat="46.47810042835772" lon="6.839533327147365">
        <ele>607</ele>
        <time>2014-05-17T06:10:44Z</time>
      </trkpt>
      <trkpt lat="46.477937903255224" lon="6.839257646352053">
        <ele>606</ele>
        <time>2014-05-17T06:10:46Z</time>
      </trkpt>
      <trkpt lat="46.477780574932694" lon="6.838962938636541">
        <ele>604.4000244140625</ele>
        <time>2014-05-17T06:10:48Z</time>
      </trkpt>
      <trkpt lat="46.477701952680945" lon="6.838813154026866">
        <ele>603.20001220703125</ele>
        <time>2014-05-17T06:10:49Z</time>
      </trkpt>
      <trkpt lat="46.477631712332368" lon="6.838661273941398">
        <ele>601.79998779296875</ele>
        <time>2014-05-17T06:10:50Z</time>
      </trkpt>
      <trkpt lat="46.477566668763757" lon="6.838505873456597">
        <ele>600.4000244140625</ele>
        <time>2014-05-17T06:10:51Z</time>
      </trkpt>
      <trkpt lat="46.477441778406501" lon="6.838192474097014">
        <ele>598.79998779296875</ele>
        <time>2014-05-17T06:10:53Z</time>
      </trkpt>
      <trkpt lat="46.477386793121696" lon="6.838031457737088">
        <ele>598.20001220703125</ele>
        <time>2014-05-17T06:10:54Z</time>
      </trkpt>
      <trkpt lat="46.477335579693317" lon="6.837873626500368">
        <ele>597.20001220703125</ele>
        <time>2014-05-17T06:10:55Z</time>
      </trkpt>
      <trkpt lat="46.477246815338731" lon="6.837552096694708">
        <ele>595.79998779296875</ele>
        <time>2014-05-17T06:10:57Z</time>
      </trkpt>
      <trkpt lat="46.477176826447248" lon="6.837224112823606">
        <ele>594.5999755859375</ele>
        <time>2014-05-17T06:10:59Z</time>
      </trkpt>
      <trkpt lat="46.477088397368789" lon="6.836544508114457">
        <ele>593.4000244140625</ele>
        <time>2014-05-17T06:11:03Z</time>
      </trkpt>
      <trkpt lat="46.47708504460752" lon="6.83636630885303">
        <ele>593</ele>
        <time>2014-05-17T06:11:04Z</time>
      </trkpt>
      <trkpt lat="46.477084122598171" lon="6.836183164268732">
        <ele>592.4000244140625</ele>
        <time>2014-05-17T06:11:05Z</time>
      </trkpt>
      <trkpt lat="46.477090325206518" lon="6.835827939212322">
        <ele>591.20001220703125</ele>
        <time>2014-05-17T06:11:07Z</time>
      </trkpt>
      <trkpt lat="46.477093594148755" lon="6.835648817941546">
        <ele>589.79998779296875</ele>
        <time>2014-05-17T06:11:08Z</time>
      </trkpt>
      <trkpt lat="46.477108849212527" lon="6.835298119112849">
        <ele>588.5999755859375</ele>
        <time>2014-05-17T06:11:10Z</time>
      </trkpt>
      <trkpt lat="46.477141035720706" lon="6.834813980385661">
        <ele>587.20001220703125</ele>
        <time>2014-05-17T06:11:13Z</time>
      </trkpt>
      <trkpt lat="46.477124271914363" lon="6.834533018991351">
        <ele>586.4000244140625</ele>
        <time>2014-05-17T06:11:15Z</time>
      </trkpt>
      <trkpt lat="46.477082781493664" lon="6.834401255473495">
        <ele>586.20001220703125</ele>
        <time>2014-05-17T06:11:16Z</time>
      </trkpt>
      <trkpt lat="46.476984042674303" lon="6.834162035956979">
        <ele>585.20001220703125</ele>
        <time>2014-05-17T06:11:18Z</time>
      </trkpt>
      <trkpt lat="46.476958142593503" lon="6.834034463390708">
        <ele>584.5999755859375</ele>
        <time>2014-05-17T06:11:19Z</time>
      </trkpt>
      <trkpt lat="46.476943306624889" lon="6.83379465714097">
        <ele>584.4000244140625</ele>
        <time>2014-05-17T06:11:21Z</time>
      </trkpt>
      <trkpt lat="46.476922770962119" lon="6.833475222811103">
        <ele>586</ele>
        <time>2014-05-17T06:11:24Z</time>
      </trkpt>
      <trkpt lat="46.476907264441252" lon="6.83328302577138">
        <ele>586.79998779296875</ele>
        <time>2014-05-17T06:11:26Z</time>
      </trkpt>
      <trkpt lat="46.476884298026562" lon="6.833012877032161">
        <ele>587.20001220703125</ele>
        <time>2014-05-17T06:11:29Z</time>
      </trkpt>
      <trkpt lat="46.476864432916045" lon="6.832775669172406">
        <ele>587.79998779296875</ele>
        <time>2014-05-17T06:11:32Z</time>
      </trkpt>
      <trkpt lat="46.476854709908366" lon="6.832629824057221">
        <ele>588.20001220703125</ele>
        <time>2014-05-17T06:11:34Z</time>
      </trkpt>
      <trkpt lat="46.476842723786831" lon="6.832333188503981">
        <ele>588.5999755859375</ele>
        <time>2014-05-17T06:11:38Z</time>
      </trkpt>
      <trkpt lat="46.476832833141088" lon="6.832256158813834">
        <ele>588.79998779296875</ele>
        <time>2014-05-17T06:11:39Z</time>
      </trkpt>
      <trkpt lat="46.476816823706031" lon="6.832030015066266">
        <ele>588.79998779296875</ele>
        <time>2014-05-17T06:11:42Z</time>
      </trkpt>
      <trkpt lat="46.476812716573477" lon="6.831958936527371">
        <ele>589</ele>
        <time>2014-05-17T06:11:43Z</time>
      </trkpt>
      <trkpt lat="46.476785559207201" lon="6.831445377320051">
        <ele>589.20001220703125</ele>
        <time>2014-05-17T06:11:50Z</time>
      </trkpt>
      <trkpt lat="46.476780446246266" lon="6.831369437277317">
        <ele>589.4000244140625</ele>
        <time>2014-05-17T06:11:51Z</time>
      </trkpt>
      <trkpt lat="46.476736441254616" lon="6.830770131200552">
        <ele>588.5999755859375</ele>
        <time>2014-05-17T06:11:59Z</time>
      </trkpt>
      <trkpt lat="46.476724874228239" lon="6.8306864798069">
        <ele>588.4000244140625</ele>
        <time>2014-05-17T06:12:00Z</time>
      </trkpt>
      <trkpt lat="46.47671858780086" lon="6.830603079870343">
        <ele>588</ele>
        <time>2014-05-17T06:12:01Z</time>
      </trkpt>
      <trkpt lat="46.476685479283333" lon="6.830331338569522">
        <ele>587</ele>
        <time>2014-05-17T06:12:04Z</time>
      </trkpt>
      <trkpt lat="46.476671732962132" lon="6.830232767388225">
        <ele>586.4000244140625</ele>
        <time>2014-05-17T06:12:05Z</time>
      </trkpt>
      <trkpt lat="46.476634433493018" lon="6.830019280314446">
        <ele>585.20001220703125</ele>
        <time>2014-05-17T06:12:07Z</time>
      </trkpt>
      <trkpt lat="46.476591434329748" lon="6.829787353053689">
        <ele>583.79998779296875</ele>
        <time>2014-05-17T06:12:09Z</time>
      </trkpt>
      <trkpt lat="46.476545920595527" lon="6.829532962292433">
        <ele>582.4000244140625</ele>
        <time>2014-05-17T06:12:11Z</time>
      </trkpt>
      <trkpt lat="46.476482301950455" lon="6.829268764704466">
        <ele>580.4000244140625</ele>
        <time>2014-05-17T06:12:13Z</time>
      </trkpt>
      <trkpt lat="46.476449361070991" lon="6.829134905710816">
        <ele>579.4000244140625</ele>
        <time>2014-05-17T06:12:14Z</time>
      </trkpt>
      <trkpt lat="46.476373672485352" lon="6.828866098076105">
        <ele>577.5999755859375</ele>
        <time>2014-05-17T06:12:16Z</time>
      </trkpt>
      <trkpt lat="46.476285327225924" lon="6.828601062297821">
        <ele>575.79998779296875</ele>
        <time>2014-05-17T06:12:18Z</time>
      </trkpt>
      <trkpt lat="46.476202178746462" lon="6.828328482806683">
        <ele>574.20001220703125</ele>
        <time>2014-05-17T06:12:20Z</time>
      </trkpt>
      <trkpt lat="46.476093046367168" lon="6.827912740409374">
        <ele>573</ele>
        <time>2014-05-17T06:12:23Z</time>
      </trkpt>
      <trkpt lat="46.476050047203898" lon="6.827626917511225">
        <ele>572</ele>
        <time>2014-05-17T06:12:25Z</time>
      </trkpt>
      <trkpt lat="46.476037977263331" lon="6.827479396015406">
        <ele>571.4000244140625</ele>
        <time>2014-05-17T06:12:26Z</time>
      </trkpt>
      <trkpt lat="46.476039905101061" lon="6.827193321660161">
        <ele>570.79998779296875</ele>
        <time>2014-05-17T06:12:28Z</time>
      </trkpt>
      <trkpt lat="46.476055076345801" lon="6.826902888715267">
        <ele>570</ele>
        <time>2014-05-17T06:12:30Z</time>
      </trkpt>
      <trkpt lat="46.476061111316085" lon="6.826762408018112">
        <ele>569.5999755859375</ele>
        <time>2014-05-17T06:12:31Z</time>
      </trkpt>
      <trkpt lat="46.476059686392546" lon="6.82633082382381">
        <ele>568.4000244140625</ele>
        <time>2014-05-17T06:12:34Z</time>
      </trkpt>
      <trkpt lat="46.476029008626938" lon="6.82604106143117">
        <ele>567.5999755859375</ele>
        <time>2014-05-17T06:12:36Z</time>
      </trkpt>
      <trkpt lat="46.476010987535119" lon="6.825892785564065">
        <ele>567.20001220703125</ele>
        <time>2014-05-17T06:12:37Z</time>
      </trkpt>
      <trkpt lat="46.475977208465338" lon="6.825614422559738">
        <ele>566.20001220703125</ele>
        <time>2014-05-17T06:12:39Z</time>
      </trkpt>
      <trkpt lat="46.475951140746474" lon="6.825360450893641">
        <ele>566.20001220703125</ele>
        <time>2014-05-17T06:12:41Z</time>
      </trkpt>
      <trkpt lat="46.475948207080364" lon="6.825120141729713">
        <ele>566.5999755859375</ele>
        <time>2014-05-17T06:12:43Z</time>
      </trkpt>
      <trkpt lat="46.475958935916424" lon="6.825002711266279">
        <ele>567.4000244140625</ele>
        <time>2014-05-17T06:12:44Z</time>
      </trkpt>
      <trkpt lat="46.475967820733786" lon="6.824887460097671">
        <ele>567.79998779296875</ele>
        <time>2014-05-17T06:12:45Z</time>
      </trkpt>
      <trkpt lat="46.475992714986205" lon="6.824779585003853">
        <ele>568.20001220703125</ele>
        <time>2014-05-17T06:12:46Z</time>
      </trkpt>
      <trkpt lat="46.476012580096722" lon="6.824673470109701">
        <ele>568.5999755859375</ele>
        <time>2014-05-17T06:12:47Z</time>
      </trkpt>
      <trkpt lat="46.476049209013581" lon="6.824468616396189">
        <ele>569.20001220703125</ele>
        <time>2014-05-17T06:12:49Z</time>
      </trkpt>
      <trkpt lat="46.476088101044297" lon="6.824275581166148">
        <ele>569.5999755859375</ele>
        <time>2014-05-17T06:12:51Z</time>
      </trkpt>
      <trkpt lat="46.47613026201725" lon="6.823900826275349">
        <ele>570.4000244140625</ele>
        <time>2014-05-17T06:12:55Z</time>
      </trkpt>
      <trkpt lat="46.476130597293377" lon="6.823817677795887">
        <ele>570.79998779296875</ele>
        <time>2014-05-17T06:12:56Z</time>
      </trkpt>
      <trkpt lat="46.47610436193645" lon="6.823511654511094">
        <ele>571.79998779296875</ele>
        <time>2014-05-17T06:13:00Z</time>
      </trkpt>
      <trkpt lat="46.476097321137786" lon="6.823445605114102">
        <ele>572.20001220703125</ele>
        <time>2014-05-17T06:13:01Z</time>
      </trkpt>
      <trkpt lat="46.476070247590542" lon="6.823251312598586">
        <ele>573.4000244140625</ele>
        <time>2014-05-17T06:13:04Z</time>
      </trkpt>
      <trkpt lat="46.476051220670342" lon="6.823124410584569">
        <ele>574</ele>
        <time>2014-05-17T06:13:06Z</time>
      </trkpt>
      <trkpt lat="46.476046275347471" lon="6.823066910728812">
        <ele>574.4000244140625</ele>
        <time>2014-05-17T06:13:07Z</time>
      </trkpt>
      <trkpt lat="46.476038563996553" lon="6.822960544377565">
        <ele>575.5999755859375</ele>
        <time>2014-05-17T06:13:09Z</time>
      </trkpt>
      <trkpt lat="46.476037641987205" lon="6.822800450026989">
        <ele>576.4000244140625</ele>
        <time>2014-05-17T06:13:12Z</time>
      </trkpt>
      <trkpt lat="46.47603889927268" lon="6.82274529710412">
        <ele>576.5999755859375</ele>
        <time>2014-05-17T06:13:13Z</time>
      </trkpt>
      <trkpt lat="46.476059770211577" lon="6.822393676266074">
        <ele>577.20001220703125</ele>
        <time>2014-05-17T06:13:19Z</time>
      </trkpt>
      <trkpt lat="46.476098410785198" lon="6.822076085954905">
        <ele>577.79998779296875</ele>
        <time>2014-05-17T06:13:24Z</time>
      </trkpt>
      <trkpt lat="46.476129256188869" lon="6.821865784004331">
        <ele>577.4000244140625</ele>
        <time>2014-05-17T06:13:27Z</time>
      </trkpt>
      <trkpt lat="46.476196059957147" lon="6.821376364678145">
        <ele>577</ele>
        <time>2014-05-17T06:13:34Z</time>
      </trkpt>
      <trkpt lat="46.476217685267329" lon="6.821170169860125">
        <ele>576.5999755859375</ele>
        <time>2014-05-17T06:13:37Z</time>
      </trkpt>
      <trkpt lat="46.476237047463655" lon="6.820735735818744">
        <ele>576.20001220703125</ele>
        <time>2014-05-17T06:13:43Z</time>
      </trkpt>
      <trkpt lat="46.476237298920751" lon="6.820146488025785">
        <ele>575.5999755859375</ele>
        <time>2014-05-17T06:13:51Z</time>
      </trkpt>
      <trkpt lat="46.476199412718415" lon="6.819992428645492">
        <ele>576</ele>
        <time>2014-05-17T06:13:55Z</time>
      </trkpt>
      <trkpt lat="46.476223887875676" lon="6.819899138063192">
        <ele>576</ele>
        <time>2014-05-17T06:16:33Z</time>
      </trkpt>
      <trkpt lat="46.476255236193538" lon="6.819701660424471">
        <ele>575.5999755859375</ele>
        <time>2014-05-17T06:16:37Z</time>
      </trkpt>
      <trkpt lat="46.476263450458646" lon="6.819631922990084">
        <ele>575.4000244140625</ele>
        <time>2014-05-17T06:16:38Z</time>
      </trkpt>
      <trkpt lat="46.476278956979513" lon="6.819314165040851">
        <ele>574.4000244140625</ele>
        <time>2014-05-17T06:16:42Z</time>
      </trkpt>
      <trkpt lat="46.476308461278677" lon="6.818862883374095">
        <ele>573.20001220703125</ele>
        <time>2014-05-17T06:16:47Z</time>
      </trkpt>
      <trkpt lat="46.476310724392533" lon="6.818765569478273">
        <ele>573</ele>
        <time>2014-05-17T06:16:48Z</time>
      </trkpt>
      <trkpt lat="46.476320782676339" lon="6.818243376910687">
        <ele>572.20001220703125</ele>
        <time>2014-05-17T06:16:53Z</time>
      </trkpt>
      <trkpt lat="46.476321453228593" lon="6.818133573979139">
        <ele>572.20001220703125</ele>
        <time>2014-05-17T06:16:54Z</time>
      </trkpt>
      <trkpt lat="46.476334864273667" lon="6.817368138581514">
        <ele>571.20001220703125</ele>
        <time>2014-05-17T06:17:01Z</time>
      </trkpt>
      <trkpt lat="46.476337211206555" lon="6.817257832735777">
        <ele>571.20001220703125</ele>
        <time>2014-05-17T06:17:02Z</time>
      </trkpt>
      <trkpt lat="46.47634768858552" lon="6.816466078162193">
        <ele>570.20001220703125</ele>
        <time>2014-05-17T06:17:09Z</time>
      </trkpt>
      <trkpt lat="46.476353220641613" lon="6.816355939954519">
        <ele>570</ele>
        <time>2014-05-17T06:17:10Z</time>
      </trkpt>
      <trkpt lat="46.476363195106387" lon="6.815670300275087">
        <ele>569.20001220703125</ele>
        <time>2014-05-17T06:17:16Z</time>
      </trkpt>
      <trkpt lat="46.476364871487021" lon="6.815437953919172">
        <ele>568.79998779296875</ele>
        <time>2014-05-17T06:17:18Z</time>
      </trkpt>
      <trkpt lat="46.476320447400212" lon="6.814864547923207">
        <ele>568</ele>
        <time>2014-05-17T06:17:23Z</time>
      </trkpt>
      <trkpt lat="46.476306701079011" lon="6.814748207107186">
        <ele>567.79998779296875</ele>
        <time>2014-05-17T06:17:24Z</time>
      </trkpt>
      <trkpt lat="46.476240148767829" lon="6.81417035870254">
        <ele>567.20001220703125</ele>
        <time>2014-05-17T06:17:29Z</time>
      </trkpt>
      <trkpt lat="46.476211315020919" lon="6.813935581594706">
        <ele>567.20001220703125</ele>
        <time>2014-05-17T06:17:31Z</time>
      </trkpt>
      <trkpt lat="46.47619379684329" lon="6.813816139474511">
        <ele>566.79998779296875</ele>
        <time>2014-05-17T06:17:32Z</time>
      </trkpt>
      <trkpt lat="46.476116934791207" lon="6.813110299408436">
        <ele>565.79998779296875</ele>
        <time>2014-05-17T06:17:38Z</time>
      </trkpt>
      <trkpt lat="46.476024985313416" lon="6.812275378033519">
        <ele>565.5999755859375</ele>
        <time>2014-05-17T06:17:45Z</time>
      </trkpt>
      <trkpt lat="46.476014172658324" lon="6.812161132693291">
        <ele>565.20001220703125</ele>
        <time>2014-05-17T06:17:46Z</time>
      </trkpt>
      <trkpt lat="46.475986177101731" lon="6.811928786337376">
        <ele>564.79998779296875</ele>
        <time>2014-05-17T06:17:48Z</time>
      </trkpt>
      <trkpt lat="46.47591819986701" lon="6.811259407550097">
        <ele>565.4000244140625</ele>
        <time>2014-05-17T06:17:54Z</time>
      </trkpt>
      <trkpt lat="46.475895401090384" lon="6.811049105599523">
        <ele>565.79998779296875</ele>
        <time>2014-05-17T06:17:56Z</time>
      </trkpt>
      <trkpt lat="46.475844690576196" lon="6.810520123690367">
        <ele>566.20001220703125</ele>
        <time>2014-05-17T06:18:01Z</time>
      </trkpt>
      <trkpt lat="46.475807726383209" lon="6.809871699661017">
        <ele>566.4000244140625</ele>
        <time>2014-05-17T06:18:07Z</time>
      </trkpt>
      <trkpt lat="46.475736731663346" lon="6.809235932305455">
        <ele>566.5999755859375</ele>
        <time>2014-05-17T06:18:13Z</time>
      </trkpt>
      <trkpt lat="46.47572323679924" lon="6.809031078591943">
        <ele>567</ele>
        <time>2014-05-17T06:18:15Z</time>
      </trkpt>
      <trkpt lat="46.475663222372532" lon="6.808340074494481">
        <ele>568</ele>
        <time>2014-05-17T06:18:22Z</time>
      </trkpt>
      <trkpt lat="46.475614523515105" lon="6.807654518634081">
        <ele>568.5999755859375</ele>
        <time>2014-05-17T06:18:29Z</time>
      </trkpt>
      <trkpt lat="46.475569009780884" lon="6.807091003283858">
        <ele>569</ele>
        <time>2014-05-17T06:18:35Z</time>
      </trkpt>
      <trkpt lat="46.475559622049332" lon="6.806904338300228">
        <ele>569.5999755859375</ele>
        <time>2014-05-17T06:18:37Z</time>
      </trkpt>
      <trkpt lat="46.475581079721451" lon="6.806349456310272">
        <ele>569.5999755859375</ele>
        <time>2014-05-17T06:18:43Z</time>
      </trkpt>
      <trkpt lat="46.475662551820278" lon="6.805530209094286">
        <ele>570</ele>
        <time>2014-05-17T06:18:52Z</time>
      </trkpt>
      <trkpt lat="46.475677471607924" lon="6.805442785844207">
        <ele>570</ele>
        <time>2014-05-17T06:18:53Z</time>
      </trkpt>
      <trkpt lat="46.475815102458" lon="6.804948421195149">
        <ele>570.5999755859375</ele>
        <time>2014-05-17T06:18:59Z</time>
      </trkpt>
      <trkpt lat="46.475979723036289" lon="6.804372919723392">
        <ele>571</ele>
        <time>2014-05-17T06:19:06Z</time>
      </trkpt>
      <trkpt lat="46.47602666169405" lon="6.804206371307373">
        <ele>571.20001220703125</ele>
        <time>2014-05-17T06:19:08Z</time>
      </trkpt>
      <trkpt lat="46.476164376363158" lon="6.803718795999885">
        <ele>571.79998779296875</ele>
        <time>2014-05-17T06:19:14Z</time>
      </trkpt>
      <trkpt lat="46.476218523457646" lon="6.803467506542802">
        <ele>572.20001220703125</ele>
        <time>2014-05-17T06:19:17Z</time>
      </trkpt>
      <trkpt lat="46.476279208436608" lon="6.80312929674983">
        <ele>572.79998779296875</ele>
        <time>2014-05-17T06:19:21Z</time>
      </trkpt>
      <trkpt lat="46.476343329995871" lon="6.802721600979567">
        <ele>573.20001220703125</ele>
        <time>2014-05-17T06:19:26Z</time>
      </trkpt>
      <trkpt lat="46.476384568959475" lon="6.802483219653368">
        <ele>573.4000244140625</ele>
        <time>2014-05-17T06:19:29Z</time>
      </trkpt>
      <trkpt lat="46.476438799872994" lon="6.802156325429678">
        <ele>574.4000244140625</ele>
        <time>2014-05-17T06:19:33Z</time>
      </trkpt>
      <trkpt lat="46.476500993594527" lon="6.801834125071764">
        <ele>574.79998779296875</ele>
        <time>2014-05-17T06:19:37Z</time>
      </trkpt>
      <trkpt lat="46.476510548964143" lon="6.801750306040049">
        <ele>574.5999755859375</ele>
        <time>2014-05-17T06:19:38Z</time>
      </trkpt>
      <trkpt lat="46.476577688008547" lon="6.801300784572959">
        <ele>574.5999755859375</ele>
        <time>2014-05-17T06:19:43Z</time>
      </trkpt>
      <trkpt lat="46.476624291390181" lon="6.801005490124226">
        <ele>573.4000244140625</ele>
        <time>2014-05-17T06:19:46Z</time>
      </trkpt>
      <trkpt lat="46.476681791245937" lon="6.800690079107881">
        <ele>572.20001220703125</ele>
        <time>2014-05-17T06:19:49Z</time>
      </trkpt>
      <trkpt lat="46.476701237261295" lon="6.800578935071826">
        <ele>571.79998779296875</ele>
        <time>2014-05-17T06:19:50Z</time>
      </trkpt>
      <trkpt lat="46.476733675226569" lon="6.800339799374342">
        <ele>571</ele>
        <time>2014-05-17T06:19:52Z</time>
      </trkpt>
      <trkpt lat="46.476755971089005" lon="6.799973594024777">
        <ele>569.79998779296875</ele>
        <time>2014-05-17T06:19:55Z</time>
      </trkpt>
      <trkpt lat="46.476758737117052" lon="6.799852810800076">
        <ele>569.4000244140625</ele>
        <time>2014-05-17T06:19:56Z</time>
      </trkpt>
      <trkpt lat="46.476752702146769" lon="6.799220563843846">
        <ele>570.5999755859375</ele>
        <time>2014-05-17T06:20:02Z</time>
      </trkpt>
      <trkpt lat="46.476748930290341" lon="6.799128362908959">
        <ele>571</ele>
        <time>2014-05-17T06:20:03Z</time>
      </trkpt>
      <trkpt lat="46.476747337728739" lon="6.798770455643535">
        <ele>572</ele>
        <time>2014-05-17T06:20:07Z</time>
      </trkpt>
      <trkpt lat="46.47675228305161" lon="6.798687390983105">
        <ele>572.20001220703125</ele>
        <time>2014-05-17T06:20:08Z</time>
      </trkpt>
      <trkpt lat="46.476775081828237" lon="6.798472562804818">
        <ele>572.79998779296875</ele>
        <time>2014-05-17T06:20:11Z</time>
      </trkpt>
      <trkpt lat="46.47678304463625" lon="6.798401735723019">
        <ele>573.20001220703125</ele>
        <time>2014-05-17T06:20:12Z</time>
      </trkpt>
      <trkpt lat="46.476797210052609" lon="6.79832705296576">
        <ele>573.20001220703125</ele>
        <time>2014-05-17T06:20:13Z</time>
      </trkpt>
      <trkpt lat="46.476902235299349" lon="6.797869317233563">
        <ele>574.20001220703125</ele>
        <time>2014-05-17T06:20:19Z</time>
      </trkpt>
      <trkpt lat="46.477014804258943" lon="6.797523396089673">
        <ele>575.4000244140625</ele>
        <time>2014-05-17T06:20:24Z</time>
      </trkpt>
      <trkpt lat="46.477086888626218" lon="6.797324242070317">
        <ele>576.20001220703125</ele>
        <time>2014-05-17T06:20:27Z</time>
      </trkpt>
      <trkpt lat="46.47713634185493" lon="6.797195244580507">
        <ele>576.5999755859375</ele>
        <time>2014-05-17T06:20:29Z</time>
      </trkpt>
      <trkpt lat="46.477251844480634" lon="6.796962060034275">
        <ele>577</ele>
        <time>2014-05-17T06:20:33Z</time>
      </trkpt>
      <trkpt lat="46.477341111749411" lon="6.796787884086371">
        <ele>577.5999755859375</ele>
        <time>2014-05-17T06:20:36Z</time>
      </trkpt>
      <trkpt lat="46.477486286312342" lon="6.796495774760842">
        <ele>578.5999755859375</ele>
        <time>2014-05-17T06:20:41Z</time>
      </trkpt>
      <trkpt lat="46.477516293525696" lon="6.796437352895737">
        <ele>578.4000244140625</ele>
        <time>2014-05-17T06:20:42Z</time>
      </trkpt>
      <trkpt lat="46.477757608518004" lon="6.795976180583239">
        <ele>579.5999755859375</ele>
        <time>2014-05-17T06:20:50Z</time>
      </trkpt>
      <trkpt lat="46.478044437244534" lon="6.795423645526171">
        <ele>579.79998779296875</ele>
        <time>2014-05-17T06:20:59Z</time>
      </trkpt>
      <trkpt lat="46.478362111374736" lon="6.794814448803663">
        <ele>580.20001220703125</ele>
        <time>2014-05-17T06:21:08Z</time>
      </trkpt>
      <trkpt lat="46.478628823533654" lon="6.794304912909865">
        <ele>580.4000244140625</ele>
        <time>2014-05-17T06:21:15Z</time>
      </trkpt>
      <trkpt lat="46.478741392493248" lon="6.794081032276154">
        <ele>580.5999755859375</ele>
        <time>2014-05-17T06:21:18Z</time>
      </trkpt>
      <trkpt lat="46.47886561229825" lon="6.793779535219073">
        <ele>581.20001220703125</ele>
        <time>2014-05-17T06:21:22Z</time>
      </trkpt>
      <trkpt lat="46.478955298662186" lon="6.793475188314915">
        <ele>581.79998779296875</ele>
        <time>2014-05-17T06:21:26Z</time>
      </trkpt>
      <trkpt lat="46.478987568989396" lon="6.793330097571015">
        <ele>582.4000244140625</ele>
        <time>2014-05-17T06:21:28Z</time>
      </trkpt>
      <trkpt lat="46.479014474898577" lon="6.793189868330956">
        <ele>582.4000244140625</ele>
        <time>2014-05-17T06:21:30Z</time>
      </trkpt>
      <trkpt lat="46.479026544839144" lon="6.793045615777373">
        <ele>583</ele>
        <time>2014-05-17T06:21:32Z</time>
      </trkpt>
      <trkpt lat="46.479037525132298" lon="6.792903374880552">
        <ele>583.79998779296875</ele>
        <time>2014-05-17T06:21:34Z</time>
      </trkpt>
      <trkpt lat="46.479050014168024" lon="6.792764738202095">
        <ele>584.20001220703125</ele>
        <time>2014-05-17T06:21:36Z</time>
      </trkpt>
      <trkpt lat="46.479084044694901" lon="6.7924346588552">
        <ele>584.5999755859375</ele>
        <time>2014-05-17T06:21:41Z</time>
      </trkpt>
      <trkpt lat="46.479130145162344" lon="6.792249921709299">
        <ele>585.20001220703125</ele>
        <time>2014-05-17T06:21:44Z</time>
      </trkpt>
      <trkpt lat="46.479219244793057" lon="6.792000895366073">
        <ele>585.20001220703125</ele>
        <time>2014-05-17T06:21:48Z</time>
      </trkpt>
      <trkpt lat="46.479308009147644" lon="6.79181557148695">
        <ele>585.5999755859375</ele>
        <time>2014-05-17T06:21:51Z</time>
      </trkpt>
      <trkpt lat="46.479423344135284" lon="6.791625721380115">
        <ele>585.4000244140625</ele>
        <time>2014-05-17T06:21:54Z</time>
      </trkpt>
      <trkpt lat="46.479623503983021" lon="6.791238561272621">
        <ele>584.5999755859375</ele>
        <time>2014-05-17T06:21:59Z</time>
      </trkpt>
      <trkpt lat="46.479667676612735" lon="6.791155664250255">
        <ele>584</ele>
        <time>2014-05-17T06:22:00Z</time>
      </trkpt>
      <trkpt lat="46.479760548099875" lon="6.790988193824887">
        <ele>582.5999755859375</ele>
        <time>2014-05-17T06:22:02Z</time>
      </trkpt>
      <trkpt lat="46.479912512004375" lon="6.790731959044933">
        <ele>581.79998779296875</ele>
        <time>2014-05-17T06:22:05Z</time>
      </trkpt>
      <trkpt lat="46.479963809251785" lon="6.79064093157649">
        <ele>581.5999755859375</ele>
        <time>2014-05-17T06:22:06Z</time>
      </trkpt>
      <trkpt lat="46.480282489210367" lon="6.790064256638289">
        <ele>580.5999755859375</ele>
        <time>2014-05-17T06:22:12Z</time>
      </trkpt>
      <trkpt lat="46.480334457010031" lon="6.789958896115422">
        <ele>580</ele>
        <time>2014-05-17T06:22:13Z</time>
      </trkpt>
      <trkpt lat="46.480431687086821" lon="6.789739038795233">
        <ele>579</ele>
        <time>2014-05-17T06:22:15Z</time>
      </trkpt>
      <trkpt lat="46.480518272146583" lon="6.78949411958456">
        <ele>578</ele>
        <time>2014-05-17T06:22:17Z</time>
      </trkpt>
      <trkpt lat="46.480559343472123" lon="6.789365876466036">
        <ele>577.4000244140625</ele>
        <time>2014-05-17T06:22:18Z</time>
      </trkpt>
      <trkpt lat="46.480599911883473" lon="6.789238890632987">
        <ele>576.5999755859375</ele>
        <time>2014-05-17T06:22:19Z</time>
      </trkpt>
      <trkpt lat="46.480677695944905" lon="6.788983913138509">
        <ele>574.4000244140625</ele>
        <time>2014-05-17T06:22:21Z</time>
      </trkpt>
      <trkpt lat="46.480798730626702" lon="6.788472114130855">
        <ele>573.79998779296875</ele>
        <time>2014-05-17T06:22:25Z</time>
      </trkpt>
      <trkpt lat="46.480835611000657" lon="6.787812793627381">
        <ele>573.5999755859375</ele>
        <time>2014-05-17T06:22:30Z</time>
      </trkpt>
      <trkpt lat="46.480830246582627" lon="6.787678934633732">
        <ele>573.20001220703125</ele>
        <time>2014-05-17T06:22:31Z</time>
      </trkpt>
      <trkpt lat="46.480795545503497" lon="6.787144085392356">
        <ele>571.79998779296875</ele>
        <time>2014-05-17T06:22:35Z</time>
      </trkpt>
      <trkpt lat="46.480771321803331" lon="6.786882234737277">
        <ele>571</ele>
        <time>2014-05-17T06:22:37Z</time>
      </trkpt>
      <trkpt lat="46.480760173872113" lon="6.786751477047801">
        <ele>570.4000244140625</ele>
        <time>2014-05-17T06:22:38Z</time>
      </trkpt>
      <trkpt lat="46.480689849704504" lon="6.785976737737656">
        <ele>571</ele>
        <time>2014-05-17T06:22:44Z</time>
      </trkpt>
      <trkpt lat="46.480671912431717" lon="6.785723939538002">
        <ele>570.79998779296875</ele>
        <time>2014-05-17T06:22:46Z</time>
      </trkpt>
      <trkpt lat="46.480615586042404" lon="6.784928580746055">
        <ele>570.5999755859375</ele>
        <time>2014-05-17T06:22:52Z</time>
      </trkpt>
      <trkpt lat="46.480606785044074" lon="6.784535720944405">
        <ele>569</ele>
        <time>2014-05-17T06:22:55Z</time>
      </trkpt>
      <trkpt lat="46.48062321357429" lon="6.784416614100337">
        <ele>568.5999755859375</ele>
        <time>2014-05-17T06:22:56Z</time>
      </trkpt>
      <trkpt lat="46.480754390358925" lon="6.783990394324064">
        <ele>569</ele>
        <time>2014-05-17T06:23:00Z</time>
      </trkpt>
      <trkpt lat="46.480798646807671" lon="6.78389978595078">
        <ele>569.20001220703125</ele>
        <time>2014-05-17T06:23:01Z</time>
      </trkpt>
      <trkpt lat="46.480931667611003" lon="6.783652855083346">
        <ele>570.4000244140625</ele>
        <time>2014-05-17T06:23:04Z</time>
      </trkpt>
      <trkpt lat="46.480974331498146" lon="6.783578172326088">
        <ele>570.79998779296875</ele>
        <time>2014-05-17T06:23:05Z</time>
      </trkpt>
      <trkpt lat="46.481058401986957" lon="6.783434087410569">
        <ele>571.20001220703125</ele>
        <time>2014-05-17T06:23:07Z</time>
      </trkpt>
      <trkpt lat="46.481130653992295" lon="6.783289331942797">
        <ele>571.4000244140625</ele>
        <time>2014-05-17T06:23:09Z</time>
      </trkpt>
      <trkpt lat="46.481203576549888" lon="6.78315413184464">
        <ele>571.79998779296875</ele>
        <time>2014-05-17T06:23:11Z</time>
      </trkpt>
      <trkpt lat="46.481370376423001" lon="6.782815922051668">
        <ele>572.4000244140625</ele>
        <time>2014-05-17T06:23:16Z</time>
      </trkpt>
      <trkpt lat="46.481426618993282" lon="6.782683487981558">
        <ele>573.20001220703125</ele>
        <time>2014-05-17T06:23:18Z</time>
      </trkpt>
      <trkpt lat="46.481450507417321" lon="6.782617103308439">
        <ele>573.5999755859375</ele>
        <time>2014-05-17T06:23:19Z</time>
      </trkpt>
      <trkpt lat="46.481472551822662" lon="6.782546862959862">
        <ele>573.79998779296875</ele>
        <time>2014-05-17T06:23:20Z</time>
      </trkpt>
      <trkpt lat="46.481497529894114" lon="6.782321389764547">
        <ele>574</ele>
        <time>2014-05-17T06:23:23Z</time>
      </trkpt>
      <trkpt lat="46.481499960646033" lon="6.782082170248032">
        <ele>574.5999755859375</ele>
        <time>2014-05-17T06:23:26Z</time>
      </trkpt>
      <trkpt lat="46.48150809109211" lon="6.781836412847042">
        <ele>575.5999755859375</ele>
        <time>2014-05-17T06:23:29Z</time>
      </trkpt>
      <trkpt lat="46.4815120305866" lon="6.781675480306149">
        <ele>575.79998779296875</ele>
        <time>2014-05-17T06:23:31Z</time>
      </trkpt>
      <trkpt lat="46.481525357812643" lon="6.78143760189414">
        <ele>576</ele>
        <time>2014-05-17T06:23:34Z</time>
      </trkpt>
      <trkpt lat="46.481546899303794" lon="6.78128463216126">
        <ele>576</ele>
        <time>2014-05-17T06:23:36Z</time>
      </trkpt>
      <trkpt lat="46.481563914567232" lon="6.781212212517858">
        <ele>576.20001220703125</ele>
        <time>2014-05-17T06:23:37Z</time>
      </trkpt>
      <trkpt lat="46.481629963964224" lon="6.781005598604679">
        <ele>576.79998779296875</ele>
        <time>2014-05-17T06:23:40Z</time>
      </trkpt>
      <trkpt lat="46.481717890128493" lon="6.780806612223387">
        <ele>576.20001220703125</ele>
        <time>2014-05-17T06:23:43Z</time>
      </trkpt>
      <trkpt lat="46.481821071356535" lon="6.780588431283832">
        <ele>575.79998779296875</ele>
        <time>2014-05-17T06:23:46Z</time>
      </trkpt>
      <trkpt lat="46.481893826276064" lon="6.780430767685175">
        <ele>574.79998779296875</ele>
        <time>2014-05-17T06:23:48Z</time>
      </trkpt>
      <trkpt lat="46.481973538175225" lon="6.780268577858806">
        <ele>574</ele>
        <time>2014-05-17T06:23:50Z</time>
      </trkpt>
      <trkpt lat="46.482012765482068" lon="6.780179562047124">
        <ele>573.5999755859375</ele>
        <time>2014-05-17T06:23:51Z</time>
      </trkpt>
      <trkpt lat="46.482048975303769" lon="6.780085349455476">
        <ele>573</ele>
        <time>2014-05-17T06:23:52Z</time>
      </trkpt>
      <trkpt lat="46.482079485431314" lon="6.779987532645464">
        <ele>572.5999755859375</ele>
        <time>2014-05-17T06:23:53Z</time>
      </trkpt>
      <trkpt lat="46.482120808213949" lon="6.779771195724607">
        <ele>571.79998779296875</ele>
        <time>2014-05-17T06:23:55Z</time>
      </trkpt>
      <trkpt lat="46.482134386897087" lon="6.779655944555998">
        <ele>571.20001220703125</ele>
        <time>2014-05-17T06:23:56Z</time>
      </trkpt>
      <trkpt lat="46.482141008600593" lon="6.779534490779042">
        <ele>570</ele>
        <time>2014-05-17T06:23:57Z</time>
      </trkpt>
      <trkpt lat="46.482130447402596" lon="6.779284039512277">
        <ele>569.5999755859375</ele>
        <time>2014-05-17T06:23:59Z</time>
      </trkpt>
      <trkpt lat="46.482091974467039" lon="6.779033588245511">
        <ele>568.4000244140625</ele>
        <time>2014-05-17T06:24:01Z</time>
      </trkpt>
      <trkpt lat="46.482031038030982" lon="6.778806271031499">
        <ele>567.79998779296875</ele>
        <time>2014-05-17T06:24:03Z</time>
      </trkpt>
      <trkpt lat="46.481995917856693" lon="6.778708370402455">
        <ele>567.20001220703125</ele>
        <time>2014-05-17T06:24:04Z</time>
      </trkpt>
      <trkpt lat="46.481920061632991" lon="6.778538972139359">
        <ele>567.20001220703125</ele>
        <time>2014-05-17T06:24:06Z</time>
      </trkpt>
      <trkpt lat="46.481880331411958" lon="6.778470659628511">
        <ele>567.20001220703125</ele>
        <time>2014-05-17T06:24:07Z</time>
      </trkpt>
      <trkpt lat="46.481739431619644" lon="6.778360856696963">
        <ele>566.5999755859375</ele>
        <time>2014-05-17T06:24:10Z</time>
      </trkpt>
      <trkpt lat="46.481673633679748" lon="6.778322886675596">
        <ele>566.20001220703125</ele>
        <time>2014-05-17T06:24:12Z</time>
      </trkpt>
      <trkpt lat="46.481638178229332" lon="6.77825172431767">
        <ele>565.5999755859375</ele>
        <time>2014-05-17T06:24:14Z</time>
      </trkpt>
      <trkpt lat="46.481599872931838" lon="6.777989622205496">
        <ele>566.79998779296875</ele>
        <time>2014-05-17T06:24:20Z</time>
      </trkpt>
      <trkpt lat="46.481579672545195" lon="6.777872778475285">
        <ele>567.4000244140625</ele>
        <time>2014-05-17T06:24:22Z</time>
      </trkpt>
      <trkpt lat="46.481573386117816" lon="6.77780949510634">
        <ele>567.5999755859375</ele>
        <time>2014-05-17T06:24:23Z</time>
      </trkpt>
      <trkpt lat="46.481560813263059" lon="6.777675803750753">
        <ele>567.79998779296875</ele>
        <time>2014-05-17T06:24:25Z</time>
      </trkpt>
      <trkpt lat="46.481556119397283" lon="6.777469189837575">
        <ele>567.79998779296875</ele>
        <time>2014-05-17T06:24:28Z</time>
      </trkpt>
      <trkpt lat="46.481578582897782" lon="6.777266347780824">
        <ele>567.79998779296875</ele>
        <time>2014-05-17T06:24:31Z</time>
      </trkpt>
      <trkpt lat="46.481633400544524" lon="6.77711371332407">
        <ele>568.79998779296875</ele>
        <time>2014-05-17T06:24:34Z</time>
      </trkpt>
      <trkpt lat="46.481674304232001" lon="6.777026960626245">
        <ele>569.5999755859375</ele>
        <time>2014-05-17T06:24:36Z</time>
      </trkpt>
      <trkpt lat="46.48169475607574" lon="6.776986140757799">
        <ele>570</ele>
        <time>2014-05-17T06:24:37Z</time>
      </trkpt>
      <trkpt lat="46.481761895120144" lon="6.776864938437939">
        <ele>571.20001220703125</ele>
        <time>2014-05-17T06:24:40Z</time>
      </trkpt>
      <trkpt lat="46.48184428922832" lon="6.776708867400885">
        <ele>572.20001220703125</ele>
        <time>2014-05-17T06:24:44Z</time>
      </trkpt>
      <trkpt lat="46.481862477958202" lon="6.776672322303057">
        <ele>573</ele>
        <time>2014-05-17T06:24:45Z</time>
      </trkpt>
      <trkpt lat="46.481921570375562" lon="6.776564866304398">
        <ele>574.4000244140625</ele>
        <time>2014-05-17T06:24:48Z</time>
      </trkpt>
      <trkpt lat="46.481963898986578" lon="6.776486160233617">
        <ele>574.4000244140625</ele>
        <time>2014-05-17T06:24:50Z</time>
      </trkpt>
      <trkpt lat="46.482185432687402" lon="6.776240151375532">
        <ele>574.79998779296875</ele>
        <time>2014-05-17T06:24:57Z</time>
      </trkpt>
      <trkpt lat="46.482258858159184" lon="6.776184495538473">
        <ele>575.4000244140625</ele>
        <time>2014-05-17T06:24:59Z</time>
      </trkpt>
      <trkpt lat="46.482329098507762" lon="6.776136718690395">
        <ele>575.20001220703125</ele>
        <time>2014-05-17T06:25:01Z</time>
      </trkpt>
      <trkpt lat="46.482400512322783" lon="6.776080057024956">
        <ele>575.20001220703125</ele>
        <time>2014-05-17T06:25:03Z</time>
      </trkpt>
      <trkpt lat="46.482410319149494" lon="6.77596103399992">
        <ele>575</ele>
        <time>2014-05-17T06:25:05Z</time>
      </trkpt>
      <trkpt lat="46.482308898121119" lon="6.775755677372217">
        <ele>574.4000244140625</ele>
        <time>2014-05-17T06:25:08Z</time>
      </trkpt>
      <trkpt lat="46.482270257547498" lon="6.775677222758532">
        <ele>573.4000244140625</ele>
        <time>2014-05-17T06:25:09Z</time>
      </trkpt>
      <trkpt lat="46.482225498184562" lon="6.775595583021641">
        <ele>572.79998779296875</ele>
        <time>2014-05-17T06:25:10Z</time>
      </trkpt>
      <trkpt lat="46.482135728001595" lon="6.775425933301449">
        <ele>571.20001220703125</ele>
        <time>2014-05-17T06:25:12Z</time>
      </trkpt>
      <trkpt lat="46.482089124619961" lon="6.775337085127831">
        <ele>570.4000244140625</ele>
        <time>2014-05-17T06:25:13Z</time>
      </trkpt>
      <trkpt lat="46.482043191790581" lon="6.775243207812309">
        <ele>569.5999755859375</ele>
        <time>2014-05-17T06:25:14Z</time>
      </trkpt>
      <trkpt lat="46.481944704428315" lon="6.775056542828679">
        <ele>568.5999755859375</ele>
        <time>2014-05-17T06:25:16Z</time>
      </trkpt>
      <trkpt lat="46.481767678633332" lon="6.774799805134535">
        <ele>568.5999755859375</ele>
        <time>2014-05-17T06:25:19Z</time>
      </trkpt>
      <trkpt lat="46.481707496568561" lon="6.774716572836042">
        <ele>568.20001220703125</ele>
        <time>2014-05-17T06:25:20Z</time>
      </trkpt>
      <trkpt lat="46.481520747765899" lon="6.774468300864101">
        <ele>569.20001220703125</ele>
        <time>2014-05-17T06:25:23Z</time>
      </trkpt>
      <trkpt lat="46.481465175747871" lon="6.774378949776292">
        <ele>568.79998779296875</ele>
        <time>2014-05-17T06:25:24Z</time>
      </trkpt>
      <trkpt lat="46.481321342289448" lon="6.774069992825389">
        <ele>568</ele>
        <time>2014-05-17T06:25:27Z</time>
      </trkpt>
      <trkpt lat="46.481223190203309" lon="6.773868994787335">
        <ele>567.5999755859375</ele>
        <time>2014-05-17T06:25:29Z</time>
      </trkpt>
      <trkpt lat="46.481015905737877" lon="6.773680737242103">
        <ele>567</ele>
        <time>2014-05-17T06:25:32Z</time>
      </trkpt>
      <trkpt lat="46.480776937678456" lon="6.773682329803705">
        <ele>566</ele>
        <time>2014-05-17T06:25:35Z</time>
      </trkpt>
      <trkpt lat="46.480632601305842" lon="6.773769082501531">
        <ele>565.4000244140625</ele>
        <time>2014-05-17T06:25:37Z</time>
      </trkpt>
      <trkpt lat="46.480493042618036" lon="6.773865725845099">
        <ele>566.20001220703125</ele>
        <time>2014-05-17T06:25:39Z</time>
      </trkpt>
      <trkpt lat="46.480418192222714" lon="6.773891290649772">
        <ele>566.5999755859375</ele>
        <time>2014-05-17T06:25:40Z</time>
      </trkpt>
      <trkpt lat="46.480274023488164" lon="6.773851308971643">
        <ele>567</ele>
        <time>2014-05-17T06:25:42Z</time>
      </trkpt>
      <trkpt lat="46.480135302990675" lon="6.773625751957297">
        <ele>566.5999755859375</ele>
        <time>2014-05-17T06:25:45Z</time>
      </trkpt>
      <trkpt lat="46.48008962161839" lon="6.773434560745955">
        <ele>566.4000244140625</ele>
        <time>2014-05-17T06:25:47Z</time>
      </trkpt>
      <trkpt lat="46.480072690173984" lon="6.773329367861152">
        <ele>566.4000244140625</ele>
        <time>2014-05-17T06:25:48Z</time>
      </trkpt>
      <trkpt lat="46.480064895004034" lon="6.77321788854897">
        <ele>566.5999755859375</ele>
        <time>2014-05-17T06:25:49Z</time>
      </trkpt>
      <trkpt lat="46.480099344626069" lon="6.772866602987051">
        <ele>565.79998779296875</ele>
        <time>2014-05-17T06:25:52Z</time>
      </trkpt>
      <trkpt lat="46.480117700994015" lon="6.772744143381715">
        <ele>564.79998779296875</ele>
        <time>2014-05-17T06:25:53Z</time>
      </trkpt>
      <trkpt lat="46.480152318254113" lon="6.772493189200759">
        <ele>563.79998779296875</ele>
        <time>2014-05-17T06:25:55Z</time>
      </trkpt>
      <trkpt lat="46.480189952999353" lon="6.772236367687583">
        <ele>561.4000244140625</ele>
        <time>2014-05-17T06:25:57Z</time>
      </trkpt>
      <trkpt lat="46.480209482833743" lon="6.772103598341346">
        <ele>560.79998779296875</ele>
        <time>2014-05-17T06:25:58Z</time>
      </trkpt>
      <trkpt lat="46.480226162821054" lon="6.771967308595777">
        <ele>560</ele>
        <time>2014-05-17T06:25:59Z</time>
      </trkpt>
      <trkpt lat="46.480255499482155" lon="6.771689783781767">
        <ele>558.5999755859375</ele>
        <time>2014-05-17T06:26:01Z</time>
      </trkpt>
      <trkpt lat="46.480274610221386" lon="6.77139918319881">
        <ele>557.4000244140625</ele>
        <time>2014-05-17T06:26:03Z</time>
      </trkpt>
      <trkpt lat="46.480280896648765" lon="6.771253673359752">
        <ele>556.79998779296875</ele>
        <time>2014-05-17T06:26:04Z</time>
      </trkpt>
      <trkpt lat="46.480287853628397" lon="6.771109001711011">
        <ele>556</ele>
        <time>2014-05-17T06:26:05Z</time>
      </trkpt>
      <trkpt lat="46.480317274108529" lon="6.770823430269957">
        <ele>554.79998779296875</ele>
        <time>2014-05-17T06:26:07Z</time>
      </trkpt>
      <trkpt lat="46.480344431474805" lon="6.770684123039246">
        <ele>554.20001220703125</ele>
        <time>2014-05-17T06:26:08Z</time>
      </trkpt>
      <trkpt lat="46.480378964915872" lon="6.770548252388835">
        <ele>553.5999755859375</ele>
        <time>2014-05-17T06:26:09Z</time>
      </trkpt>
      <trkpt lat="46.480445601046085" lon="6.77027290686965">
        <ele>553.20001220703125</ele>
        <time>2014-05-17T06:26:11Z</time>
      </trkpt>
      <trkpt lat="46.480468986555934" lon="6.769975768402219">
        <ele>552.20001220703125</ele>
        <time>2014-05-17T06:26:13Z</time>
      </trkpt>
      <trkpt lat="46.480463957414031" lon="6.769668236374855">
        <ele>551.20001220703125</ele>
        <time>2014-05-17T06:26:15Z</time>
      </trkpt>
      <trkpt lat="46.480457838624716" lon="6.769516188651323">
        <ele>550.5999755859375</ele>
        <time>2014-05-17T06:26:16Z</time>
      </trkpt>
      <trkpt lat="46.48045658133924" lon="6.769214440137148">
        <ele>548.79998779296875</ele>
        <time>2014-05-17T06:26:18Z</time>
      </trkpt>
      <trkpt lat="46.480467393994331" lon="6.769060883671045">
        <ele>548.20001220703125</ele>
        <time>2014-05-17T06:26:19Z</time>
      </trkpt>
      <trkpt lat="46.480511901900172" lon="6.768756788223982">
        <ele>546.79998779296875</ele>
        <time>2014-05-17T06:26:21Z</time>
      </trkpt>
      <trkpt lat="46.480531096458435" lon="6.768611110746861">
        <ele>546.20001220703125</ele>
        <time>2014-05-17T06:26:22Z</time>
      </trkpt>
      <trkpt lat="46.480529168620706" lon="6.768465433269739">
        <ele>545</ele>
        <time>2014-05-17T06:26:23Z</time>
      </trkpt>
      <trkpt lat="46.48047854192555" lon="6.768183466047049">
        <ele>543.4000244140625</ele>
        <time>2014-05-17T06:26:25Z</time>
      </trkpt>
      <trkpt lat="46.480385838076472" lon="6.767933769151568">
        <ele>543.4000244140625</ele>
        <time>2014-05-17T06:26:27Z</time>
      </trkpt>
      <trkpt lat="46.48030118085444" lon="6.767693292349577">
        <ele>543</ele>
        <time>2014-05-17T06:26:29Z</time>
      </trkpt>
      <trkpt lat="46.480294307693839" lon="6.767295654863119">
        <ele>544</ele>
        <time>2014-05-17T06:26:32Z</time>
      </trkpt>
      <trkpt lat="46.480404194444418" lon="6.766888294368982">
        <ele>542</ele>
        <time>2014-05-17T06:26:35Z</time>
      </trkpt>
      <trkpt lat="46.480449037626386" lon="6.766750831156969">
        <ele>540.5999755859375</ele>
        <time>2014-05-17T06:26:36Z</time>
      </trkpt>
      <trkpt lat="46.480493461713195" lon="6.766609596088529">
        <ele>539.5999755859375</ele>
        <time>2014-05-17T06:26:37Z</time>
      </trkpt>
      <trkpt lat="46.480623548850417" lon="6.766166696324945">
        <ele>538.4000244140625</ele>
        <time>2014-05-17T06:26:40Z</time>
      </trkpt>
      <trkpt lat="46.480683814734221" lon="6.766029233112931">
        <ele>538.20001220703125</ele>
        <time>2014-05-17T06:26:41Z</time>
      </trkpt>
      <trkpt lat="46.48091197013855" lon="6.76563779823482">
        <ele>537.4000244140625</ele>
        <time>2014-05-17T06:26:44Z</time>
      </trkpt>
      <trkpt lat="46.480980701744556" lon="6.765490444377065">
        <ele>535.79998779296875</ele>
        <time>2014-05-17T06:26:45Z</time>
      </trkpt>
      <trkpt lat="46.481045410037041" lon="6.765335379168391">
        <ele>534.5999755859375</ele>
        <time>2014-05-17T06:26:46Z</time>
      </trkpt>
      <trkpt lat="46.481105424463749" lon="6.765174027532339">
        <ele>533.4000244140625</ele>
        <time>2014-05-17T06:26:47Z</time>
      </trkpt>
      <trkpt lat="46.481164349243045" lon="6.765008233487606">
        <ele>532.4000244140625</ele>
        <time>2014-05-17T06:26:48Z</time>
      </trkpt>
      <trkpt lat="46.481223190203309" lon="6.764838835224509">
        <ele>531.5999755859375</ele>
        <time>2014-05-17T06:26:49Z</time>
      </trkpt>
      <trkpt lat="46.48140306584537" lon="6.764314966276288">
        <ele>530.20001220703125</ele>
        <time>2014-05-17T06:26:52Z</time>
      </trkpt>
      <trkpt lat="46.481541199609637" lon="6.763982959091663">
        <ele>528.20001220703125</ele>
        <time>2014-05-17T06:26:54Z</time>
      </trkpt>
      <trkpt lat="46.481616720557213" lon="6.763822864741087">
        <ele>526.79998779296875</ele>
        <time>2014-05-17T06:26:55Z</time>
      </trkpt>
      <trkpt lat="46.48169232532382" lon="6.763659920543432">
        <ele>525.4000244140625</ele>
        <time>2014-05-17T06:26:56Z</time>
      </trkpt>
      <trkpt lat="46.481843115761876" lon="6.763330344110727">
        <ele>523.79998779296875</ele>
        <time>2014-05-17T06:26:58Z</time>
      </trkpt>
      <trkpt lat="46.481996169313788" lon="6.763006383553147">
        <ele>521.79998779296875</ele>
        <time>2014-05-17T06:27:00Z</time>
      </trkpt>
      <trkpt lat="46.482072863727808" lon="6.76284528337419">
        <ele>520.20001220703125</ele>
        <time>2014-05-17T06:27:01Z</time>
      </trkpt>
      <trkpt lat="46.48214871995151" lon="6.762684769928455">
        <ele>519</ele>
        <time>2014-05-17T06:27:02Z</time>
      </trkpt>
      <trkpt lat="46.482380395755172" lon="6.762231225147843">
        <ele>517.5999755859375</ele>
        <time>2014-05-17T06:27:05Z</time>
      </trkpt>
      <trkpt lat="46.482555577531457" lon="6.761962249875069">
        <ele>516</ele>
        <time>2014-05-17T06:27:07Z</time>
      </trkpt>
      <trkpt lat="46.482734950259328" lon="6.761705512180924">
        <ele>513.5999755859375</ele>
        <time>2014-05-17T06:27:09Z</time>
      </trkpt>
      <trkpt lat="46.482977103441954" lon="6.761290859431028">
        <ele>512.20001220703125</ele>
        <time>2014-05-17T06:27:12Z</time>
      </trkpt>
      <trkpt lat="46.483135689049959" lon="6.761008808389306">
        <ele>511.20001220703125</ele>
        <time>2014-05-17T06:27:14Z</time>
      </trkpt>
      <trkpt lat="46.483303159475327" lon="6.760731786489487">
        <ele>510.20001220703125</ele>
        <time>2014-05-17T06:27:16Z</time>
      </trkpt>
      <trkpt lat="46.483490075916052" lon="6.760484771803021">
        <ele>508.60000610351562</ele>
        <time>2014-05-17T06:27:18Z</time>
      </trkpt>
      <trkpt lat="46.483681686222553" lon="6.760252173990011">
        <ele>507</ele>
        <time>2014-05-17T06:27:20Z</time>
      </trkpt>
      <trkpt lat="46.483855023980141" lon="6.759994179010391">
        <ele>505.79998779296875</ele>
        <time>2014-05-17T06:27:22Z</time>
      </trkpt>
      <trkpt lat="46.483939681202173" lon="6.759861828759313">
        <ele>505</ele>
        <time>2014-05-17T06:27:23Z</time>
      </trkpt>
      <trkpt lat="46.484025847166777" lon="6.759728221222758">
        <ele>504.20001220703125</ele>
        <time>2014-05-17T06:27:24Z</time>
      </trkpt>
      <trkpt lat="46.484215529635549" lon="6.759486822411418">
        <ele>503.39999389648437</ele>
        <time>2014-05-17T06:27:26Z</time>
      </trkpt>
      <trkpt lat="46.484320051968098" lon="6.759380288422108">
        <ele>503.20001220703125</ele>
        <time>2014-05-17T06:27:27Z</time>
      </trkpt>
      <trkpt lat="46.484529934823513" lon="6.759171914309263">
        <ele>501.39999389648438</ele>
        <time>2014-05-17T06:27:29Z</time>
      </trkpt>
      <trkpt lat="46.484724562615156" lon="6.758946692571044">
        <ele>499.79998779296875</ele>
        <time>2014-05-17T06:27:31Z</time>
      </trkpt>
      <trkpt lat="46.484813746064901" lon="6.758816353976727">
        <ele>499</ele>
        <time>2014-05-17T06:27:32Z</time>
      </trkpt>
      <trkpt lat="46.484897900372744" lon="6.758678890764713">
        <ele>497.39999389648437</ele>
        <time>2014-05-17T06:27:33Z</time>
      </trkpt>
      <trkpt lat="46.485147010535002" lon="6.758265495300293">
        <ele>495.60000610351562</ele>
        <time>2014-05-17T06:27:36Z</time>
      </trkpt>
      <trkpt lat="46.485231081023812" lon="6.758125266060233">
        <ele>494.60000610351562</ele>
        <time>2014-05-17T06:27:37Z</time>
      </trkpt>
      <trkpt lat="46.485402993857861" lon="6.757846316322684">
        <ele>492.60000610351562</ele>
        <time>2014-05-17T06:27:39Z</time>
      </trkpt>
      <trkpt lat="46.485488740727305" lon="6.757705751806498">
        <ele>491.39999389648437</ele>
        <time>2014-05-17T06:27:40Z</time>
      </trkpt>
      <trkpt lat="46.485573565587401" lon="6.757566025480628">
        <ele>490.39999389648437</ele>
        <time>2014-05-17T06:27:41Z</time>
      </trkpt>
      <trkpt lat="46.485740952193737" lon="6.757283639162779">
        <ele>489</ele>
        <time>2014-05-17T06:27:43Z</time>
      </trkpt>
      <trkpt lat="46.485905740410089" lon="6.756997313350439">
        <ele>487.39999389648437</ele>
        <time>2014-05-17T06:27:45Z</time>
      </trkpt>
      <trkpt lat="46.485985619947314" lon="6.756848786026239">
        <ele>486.20001220703125</ele>
        <time>2014-05-17T06:27:46Z</time>
      </trkpt>
      <trkpt lat="46.486144289374352" lon="6.756553240120411">
        <ele>484.79998779296875</ele>
        <time>2014-05-17T06:27:48Z</time>
      </trkpt>
      <trkpt lat="46.486307233572006" lon="6.756259873509407">
        <ele>483.39999389648437</ele>
        <time>2014-05-17T06:27:50Z</time>
      </trkpt>
      <trkpt lat="46.486467830836773" lon="6.755959633737803">
        <ele>482</ele>
        <time>2014-05-17T06:27:52Z</time>
      </trkpt>
      <trkpt lat="46.486632954329252" lon="6.755674816668034">
        <ele>480.20001220703125</ele>
        <time>2014-05-17T06:27:54Z</time>
      </trkpt>
      <trkpt lat="46.486718198284507" lon="6.755540957674384">
        <ele>479</ele>
        <time>2014-05-17T06:27:55Z</time>
      </trkpt>
      <trkpt lat="46.48680629208684" lon="6.755412211641669">
        <ele>477.79998779296875</ele>
        <time>2014-05-17T06:27:56Z</time>
      </trkpt>
      <trkpt lat="46.486983653157949" lon="6.75517475232482">
        <ele>476.60000610351562</ele>
        <time>2014-05-17T06:27:58Z</time>
      </trkpt>
      <trkpt lat="46.487164031714201" lon="6.754970820620656">
        <ele>476.60000610351562</ele>
        <time>2014-05-17T06:28:00Z</time>
      </trkpt>
      <trkpt lat="46.487592095509171" lon="6.754476875066757">
        <ele>476</ele>
        <time>2014-05-17T06:28:05Z</time>
      </trkpt>
      <trkpt lat="46.487739868462086" lon="6.754256011918187">
        <ele>476</ele>
        <time>2014-05-17T06:28:07Z</time>
      </trkpt>
      <trkpt lat="46.487869536504149" lon="6.754010338336229">
        <ele>475.39999389648437</ele>
        <time>2014-05-17T06:28:09Z</time>
      </trkpt>
      <trkpt lat="46.487931730225682" lon="6.753888968378305">
        <ele>474.39999389648437</ele>
        <time>2014-05-17T06:28:10Z</time>
      </trkpt>
      <trkpt lat="46.488058716058731" lon="6.753648910671473">
        <ele>473.79998779296875</ele>
        <time>2014-05-17T06:28:12Z</time>
      </trkpt>
      <trkpt lat="46.488245883956552" lon="6.753286644816399">
        <ele>472.79998779296875</ele>
        <time>2014-05-17T06:28:15Z</time>
      </trkpt>
      <trkpt lat="46.488545453175902" lon="6.752706784754992">
        <ele>471.79998779296875</ele>
        <time>2014-05-17T06:28:20Z</time>
      </trkpt>
      <trkpt lat="46.488681240007281" lon="6.752505535259843">
        <ele>470.39999389648437</ele>
        <time>2014-05-17T06:28:22Z</time>
      </trkpt>
      <trkpt lat="46.488757180050015" lon="6.752418112009764">
        <ele>470.39999389648437</ele>
        <time>2014-05-17T06:28:23Z</time>
      </trkpt>
      <trkpt lat="46.488837143406272" lon="6.752337142825127">
        <ele>470.20001220703125</ele>
        <time>2014-05-17T06:28:24Z</time>
      </trkpt>
      <trkpt lat="46.489242492243648" lon="6.751981247216463">
        <ele>469.20001220703125</ele>
        <time>2014-05-17T06:28:29Z</time>
      </trkpt>
      <trkpt lat="46.489388169720769" lon="6.751642366871238">
        <ele>468.20001220703125</ele>
        <time>2014-05-17T06:28:32Z</time>
      </trkpt>
      <trkpt lat="46.489408789202571" lon="6.751515297219157">
        <ele>467.39999389648437</ele>
        <time>2014-05-17T06:28:33Z</time>
      </trkpt>
      <trkpt lat="46.489427229389548" lon="6.751255039125681">
        <ele>466.39999389648437</ele>
        <time>2014-05-17T06:28:35Z</time>
      </trkpt>
      <trkpt lat="46.489435024559498" lon="6.751121850684285">
        <ele>466.20001220703125</ele>
        <time>2014-05-17T06:28:36Z</time>
      </trkpt>
      <trkpt lat="46.489475760608912" lon="6.75086016766727">
        <ele>466</ele>
        <time>2014-05-17T06:28:38Z</time>
      </trkpt>
      <trkpt lat="46.489515909925103" lon="6.750738127157092">
        <ele>465.79998779296875</ele>
        <time>2014-05-17T06:28:39Z</time>
      </trkpt>
      <trkpt lat="46.489693354815245" lon="6.750430092215538">
        <ele>465.60000610351562</ele>
        <time>2014-05-17T06:28:42Z</time>
      </trkpt>
      <trkpt lat="46.489834254607558" lon="6.750259771943092">
        <ele>465</ele>
        <time>2014-05-17T06:28:44Z</time>
      </trkpt>
      <trkpt lat="46.489966521039605" lon="6.750090708956122">
        <ele>463.60000610351562</ele>
        <time>2014-05-17T06:28:46Z</time>
      </trkpt>
      <trkpt lat="46.490019494667649" lon="6.750002196058631">
        <ele>463</ele>
        <time>2014-05-17T06:28:47Z</time>
      </trkpt>
      <trkpt lat="46.490146145224571" lon="6.749611347913742">
        <ele>462.39999389648437</ele>
        <time>2014-05-17T06:28:51Z</time>
      </trkpt>
      <trkpt lat="46.490162322297692" lon="6.749517219141126">
        <ele>461.79998779296875</ele>
        <time>2014-05-17T06:28:52Z</time>
      </trkpt>
      <trkpt lat="46.490184618160129" lon="6.749432226642966">
        <ele>461</ele>
        <time>2014-05-17T06:28:53Z</time>
      </trkpt>
      <trkpt lat="46.490222001448274" lon="6.749288225546479">
        <ele>461.20001220703125</ele>
        <time>2014-05-17T06:28:55Z</time>
      </trkpt>
      <trkpt lat="46.490249158814549" lon="6.749169286340475">
        <ele>462.39999389648437</ele>
        <time>2014-05-17T06:28:57Z</time>
      </trkpt>
      <trkpt lat="46.490285871550441" lon="6.749014891684055">
        <ele>463.20001220703125</ele>
        <time>2014-05-17T06:29:00Z</time>
      </trkpt>
      <trkpt lat="46.490352842956781" lon="6.748868376016617">
        <ele>462.39999389648437</ele>
        <time>2014-05-17T06:29:03Z</time>
      </trkpt>
      <trkpt lat="46.490415120497346" lon="6.748791849240661">
        <ele>462</ele>
        <time>2014-05-17T06:29:05Z</time>
      </trkpt>
      <trkpt lat="46.490570101886988" lon="6.748707443475723">
        <ele>461</ele>
        <time>2014-05-17T06:29:09Z</time>
      </trkpt>
      <trkpt lat="46.490608491003513" lon="6.748687494546175">
        <ele>461</ele>
        <time>2014-05-17T06:29:10Z</time>
      </trkpt>
      <trkpt lat="46.490711001679301" lon="6.748615242540836">
        <ele>459.60000610351562</ele>
        <time>2014-05-17T06:29:13Z</time>
      </trkpt>
      <trkpt lat="46.490769255906343" lon="6.748574506491423">
        <ele>459</ele>
        <time>2014-05-17T06:29:15Z</time>
      </trkpt>
      <trkpt lat="46.490898840129375" lon="6.748473923653364">
        <ele>458.79998779296875</ele>
        <time>2014-05-17T06:29:19Z</time>
      </trkpt>
      <trkpt lat="46.490936726331711" lon="6.74843511544168">
        <ele>458.60000610351562</ele>
        <time>2014-05-17T06:29:20Z</time>
      </trkpt>
      <trkpt lat="46.491058934479952" lon="6.748310392722487">
        <ele>457.20001220703125</ele>
        <time>2014-05-17T06:29:23Z</time>
      </trkpt>
      <trkpt lat="46.491159433498979" lon="6.748195979744196">
        <ele>457.60000610351562</ele>
        <time>2014-05-17T06:29:25Z</time>
      </trkpt>
      <trkpt lat="46.491318270564079" lon="6.747904540970922">
        <ele>457.20001220703125</ele>
        <time>2014-05-17T06:29:29Z</time>
      </trkpt>
      <trkpt lat="46.491365628316998" lon="6.747835725545883">
        <ele>456.60000610351562</ele>
        <time>2014-05-17T06:29:30Z</time>
      </trkpt>
      <trkpt lat="46.491410387679935" lon="6.747770179063082">
        <ele>456</ele>
        <time>2014-05-17T06:29:31Z</time>
      </trkpt>
      <trkpt lat="46.491500828415155" lon="6.747644366696477">
        <ele>455.39999389648437</ele>
        <time>2014-05-17T06:29:33Z</time>
      </trkpt>
      <trkpt lat="46.491578863933682" lon="6.747512351721525">
        <ele>456</ele>
        <time>2014-05-17T06:29:35Z</time>
      </trkpt>
      <trkpt lat="46.491746753454208" lon="6.747124856337905">
        <ele>455</ele>
        <time>2014-05-17T06:29:40Z</time>
      </trkpt>
      <trkpt lat="46.491805259138346" lon="6.746693858876824">
        <ele>455.20001220703125</ele>
        <time>2014-05-17T06:29:45Z</time>
      </trkpt>
      <trkpt lat="46.491820262745023" lon="6.746618757024407">
        <ele>454.20001220703125</ele>
        <time>2014-05-17T06:29:46Z</time>
      </trkpt>
      <trkpt lat="46.491860160604119" lon="6.746412897482514">
        <ele>455.20001220703125</ele>
        <time>2014-05-17T06:29:49Z</time>
      </trkpt>
      <trkpt lat="46.491869548335671" lon="6.746352463960648">
        <ele>455.60000610351562</ele>
        <time>2014-05-17T06:29:50Z</time>
      </trkpt>
      <trkpt lat="46.491883797571063" lon="6.746229417622089">
        <ele>456.39999389648437</ele>
        <time>2014-05-17T06:29:52Z</time>
      </trkpt>
      <trkpt lat="46.491939621046185" lon="6.74593236297369">
        <ele>457.79998779296875</ele>
        <time>2014-05-17T06:29:57Z</time>
      </trkpt>
      <trkpt lat="46.492046574130654" lon="6.745611000806093">
        <ele>458.20001220703125</ele>
        <time>2014-05-17T06:30:03Z</time>
      </trkpt>
      <trkpt lat="46.492100302129984" lon="6.745533803477883">
        <ele>458.79998779296875</ele>
        <time>2014-05-17T06:30:05Z</time>
      </trkpt>
      <trkpt lat="46.492131985723972" lon="6.745497677475214">
        <ele>459.60000610351562</ele>
        <time>2014-05-17T06:30:06Z</time>
      </trkpt>
      <trkpt lat="46.492162831127644" lon="6.745460629463196">
        <ele>460</ele>
        <time>2014-05-17T06:30:07Z</time>
      </trkpt>
      <trkpt lat="46.492223767563701" lon="6.745402291417122">
        <ele>460.79998779296875</ele>
        <time>2014-05-17T06:30:09Z</time>
      </trkpt>
      <trkpt lat="46.492421077564359" lon="6.745174471288919">
        <ele>460.60000610351562</ele>
        <time>2014-05-17T06:30:16Z</time>
      </trkpt>
      <trkpt lat="46.492452761158347" lon="6.745134657248855">
        <ele>460.39999389648437</ele>
        <time>2014-05-17T06:30:17Z</time>
      </trkpt>
      <trkpt lat="46.492522666230798" lon="6.74495218321681">
        <ele>460</ele>
        <time>2014-05-17T06:30:20Z</time>
      </trkpt>
      <trkpt lat="46.492529707029462" lon="6.744867106899619">
        <ele>459</ele>
        <time>2014-05-17T06:30:21Z</time>
      </trkpt>
      <trkpt lat="46.492499615997076" lon="6.744688572362065">
        <ele>458</ele>
        <time>2014-05-17T06:30:23Z</time>
      </trkpt>
      <trkpt lat="46.492399368435144" lon="6.744462428614497">
        <ele>458</ele>
        <time>2014-05-17T06:30:26Z</time>
      </trkpt>
      <trkpt lat="46.492374306544662" lon="6.74440199509263">
        <ele>458.39999389648438</ele>
        <time>2014-05-17T06:30:27Z</time>
      </trkpt>
      <trkpt lat="46.492339102551341" lon="6.744281798601151">
        <ele>458.79998779296875</ele>
        <time>2014-05-17T06:30:29Z</time>
      </trkpt>
      <trkpt lat="46.492328541353345" lon="6.744227902963758">
        <ele>459</ele>
        <time>2014-05-17T06:30:30Z</time>
      </trkpt>
      <trkpt lat="46.492317225784063" lon="6.744133271276951">
        <ele>460</ele>
        <time>2014-05-17T06:30:32Z</time>
      </trkpt>
      <trkpt lat="46.492317980155349" lon="6.744088092818856">
        <ele>460.20001220703125</ele>
        <time>2014-05-17T06:30:33Z</time>
      </trkpt>
      <trkpt lat="46.492304820567369" lon="6.743952389806509">
        <ele>461</ele>
        <time>2014-05-17T06:30:36Z</time>
      </trkpt>
      <trkpt lat="46.492310184985399" lon="6.743857925757766">
        <ele>461.39999389648438</ele>
        <time>2014-05-17T06:30:38Z</time>
      </trkpt>
      <trkpt lat="46.492317393422127" lon="6.743751307949424">
        <ele>461.39999389648438</ele>
        <time>2014-05-17T06:30:40Z</time>
      </trkpt>
      <trkpt lat="46.492426609620452" lon="6.743375547230244">
        <ele>460</ele>
        <time>2014-05-17T06:30:46Z</time>
      </trkpt>
      <trkpt lat="46.492527863010764" lon="6.743169100955129">
        <ele>459</ele>
        <time>2014-05-17T06:30:49Z</time>
      </trkpt>
      <trkpt lat="46.492586201056838" lon="6.743006492033601">
        <ele>458</ele>
        <time>2014-05-17T06:30:51Z</time>
      </trkpt>
      <trkpt lat="46.492603132501245" lon="6.742913201451302">
        <ele>458</ele>
        <time>2014-05-17T06:30:52Z</time>
      </trkpt>
      <trkpt lat="46.49261218495667" lon="6.742813540622592">
        <ele>457.79998779296875</ele>
        <time>2014-05-17T06:30:53Z</time>
      </trkpt>
      <trkpt lat="46.492608161643147" lon="6.742602316662669">
        <ele>456.60000610351562</ele>
        <time>2014-05-17T06:30:55Z</time>
      </trkpt>
      <trkpt lat="46.492594415321946" lon="6.7424953635782">
        <ele>456</ele>
        <time>2014-05-17T06:30:56Z</time>
      </trkpt>
      <trkpt lat="46.492556864395738" lon="6.74227885901928">
        <ele>455.79998779296875</ele>
        <time>2014-05-17T06:30:58Z</time>
      </trkpt>
      <trkpt lat="46.492543620988727" lon="6.742166541516781">
        <ele>456</ele>
        <time>2014-05-17T06:30:59Z</time>
      </trkpt>
      <trkpt lat="46.492541944608092" lon="6.741936122998595">
        <ele>455.79998779296875</ele>
        <time>2014-05-17T06:31:01Z</time>
      </trkpt>
      <trkpt lat="46.492555188015103" lon="6.741815088316798">
        <ele>455.20001220703125</ele>
        <time>2014-05-17T06:31:02Z</time>
      </trkpt>
      <trkpt lat="46.492597432807088" lon="6.741578718647361">
        <ele>454</ele>
        <time>2014-05-17T06:31:04Z</time>
      </trkpt>
      <trkpt lat="46.492620315402746" lon="6.741459360346198">
        <ele>453.79998779296875</ele>
        <time>2014-05-17T06:31:05Z</time>
      </trkpt>
      <trkpt lat="46.492670020088553" lon="6.741218380630016">
        <ele>452.79998779296875</ele>
        <time>2014-05-17T06:31:07Z</time>
      </trkpt>
      <trkpt lat="46.492777559906244" lon="6.740713119506836">
        <ele>451.60000610351562</ele>
        <time>2014-05-17T06:31:11Z</time>
      </trkpt>
      <trkpt lat="46.492841765284538" lon="6.740318080410361">
        <ele>450.20001220703125</ele>
        <time>2014-05-17T06:31:14Z</time>
      </trkpt>
      <trkpt lat="46.492846459150314" lon="6.740183383226395">
        <ele>449.60000610351562</ele>
        <time>2014-05-17T06:31:15Z</time>
      </trkpt>
      <trkpt lat="46.492841597646475" lon="6.740048099309206">
        <ele>448.79998779296875</ele>
        <time>2014-05-17T06:31:16Z</time>
      </trkpt>
      <trkpt lat="46.492802789434791" lon="6.739634117111564">
        <ele>448.20001220703125</ele>
        <time>2014-05-17T06:31:19Z</time>
      </trkpt>
      <trkpt lat="46.492779068648815" lon="6.739202113822103">
        <ele>447.60000610351562</ele>
        <time>2014-05-17T06:31:22Z</time>
      </trkpt>
      <trkpt lat="46.492791892960668" lon="6.738894581794739">
        <ele>446.39999389648437</ele>
        <time>2014-05-17T06:31:24Z</time>
      </trkpt>
      <trkpt lat="46.492811422795057" lon="6.738740438595414">
        <ele>445.60000610351562</ele>
        <time>2014-05-17T06:31:25Z</time>
      </trkpt>
      <trkpt lat="46.492837406694889" lon="6.738589815795422">
        <ele>444.20001220703125</ele>
        <time>2014-05-17T06:31:26Z</time>
      </trkpt>
      <trkpt lat="46.4929024502635" lon="6.738329557701945">
        <ele>443.60000610351562</ele>
        <time>2014-05-17T06:31:28Z</time>
      </trkpt>
      <trkpt lat="46.492936313152313" lon="6.738223191350699">
        <ele>443.79998779296875</ele>
        <time>2014-05-17T06:31:29Z</time>
      </trkpt>
      <trkpt lat="46.492988783866167" lon="6.738055301830173">
        <ele>444</ele>
        <time>2014-05-17T06:31:31Z</time>
      </trkpt>
      <trkpt lat="46.493043014779687" lon="6.737903840839863">
        <ele>444.79998779296875</ele>
        <time>2014-05-17T06:31:33Z</time>
      </trkpt>
      <trkpt lat="46.49316287599504" lon="6.737598991021514">
        <ele>444</ele>
        <time>2014-05-17T06:31:37Z</time>
      </trkpt>
      <trkpt lat="46.493296483531594" lon="6.737019633874297">
        <ele>443.60000610351562</ele>
        <time>2014-05-17T06:31:44Z</time>
      </trkpt>
      <trkpt lat="46.493348283693194" lon="6.736495764926076">
        <ele>443</ele>
        <time>2014-05-17T06:31:50Z</time>
      </trkpt>
      <trkpt lat="46.493372172117233" lon="6.736182114109397">
        <ele>443</ele>
        <time>2014-05-17T06:31:54Z</time>
      </trkpt>
      <trkpt lat="46.49337837472558" lon="6.73604347743094">
        <ele>443.39999389648437</ele>
        <time>2014-05-17T06:31:56Z</time>
      </trkpt>
      <trkpt lat="46.493378793820739" lon="6.73598094843328">
        <ele>443.60000610351562</ele>
        <time>2014-05-17T06:31:57Z</time>
      </trkpt>
      <trkpt lat="46.493378710001707" lon="6.73591791652143">
        <ele>444.20001220703125</ele>
        <time>2014-05-17T06:31:58Z</time>
      </trkpt>
      <trkpt lat="46.49339790455997" lon="6.73570635728538">
        <ele>443.79998779296875</ele>
        <time>2014-05-17T06:32:01Z</time>
      </trkpt>
      <trkpt lat="46.493415925651789" lon="6.735564703121781">
        <ele>443.39999389648437</ele>
        <time>2014-05-17T06:32:03Z</time>
      </trkpt>
      <trkpt lat="46.493415338918567" lon="6.735491277649999">
        <ele>443</ele>
        <time>2014-05-17T06:32:04Z</time>
      </trkpt>
      <trkpt lat="46.493402766063809" lon="6.735325148329139">
        <ele>442.60000610351562</ele>
        <time>2014-05-17T06:32:06Z</time>
      </trkpt>
      <trkpt lat="46.49339840747416" lon="6.735142339020968">
        <ele>441.60000610351562</ele>
        <time>2014-05-17T06:32:08Z</time>
      </trkpt>
      <trkpt lat="46.493402179330587" lon="6.73504326492548">
        <ele>440.60000610351562</ele>
        <time>2014-05-17T06:32:09Z</time>
      </trkpt>
      <trkpt lat="46.493412237614393" lon="6.734941592440009">
        <ele>440</ele>
        <time>2014-05-17T06:32:10Z</time>
      </trkpt>
      <trkpt lat="46.493451800197363" lon="6.734761549159885">
        <ele>439.39999389648437</ele>
        <time>2014-05-17T06:32:12Z</time>
      </trkpt>
      <trkpt lat="46.493518520146608" lon="6.734622996300459">
        <ele>438.20001220703125</ele>
        <time>2014-05-17T06:32:14Z</time>
      </trkpt>
      <trkpt lat="46.493551209568977" lon="6.73456977121532">
        <ele>438</ele>
        <time>2014-05-17T06:32:15Z</time>
      </trkpt>
      <trkpt lat="46.493633687496185" lon="6.734459381550551">
        <ele>437.20001220703125</ele>
        <time>2014-05-17T06:32:18Z</time>
      </trkpt>
      <trkpt lat="46.493706861510873" lon="6.734214127063751">
        <ele>437.20001220703125</ele>
        <time>2014-05-17T06:32:23Z</time>
      </trkpt>
      <trkpt lat="46.493634860962629" lon="6.734038442373276">
        <ele>436.79998779296875</ele>
        <time>2014-05-17T06:32:26Z</time>
      </trkpt>
      <trkpt lat="46.493599489331245" lon="6.733976332470775">
        <ele>436.60000610351562</ele>
        <time>2014-05-17T06:32:27Z</time>
      </trkpt>
      <trkpt lat="46.493497649207711" lon="6.733875498175621">
        <ele>436.20001220703125</ele>
        <time>2014-05-17T06:32:29Z</time>
      </trkpt>
      <trkpt lat="46.493434952571988" lon="6.73383928835392">
        <ele>435.79998779296875</ele>
        <time>2014-05-17T06:32:30Z</time>
      </trkpt>
      <trkpt lat="46.49329430423677" lon="6.733771562576294">
        <ele>435.20001220703125</ele>
        <time>2014-05-17T06:32:32Z</time>
      </trkpt>
      <trkpt lat="46.49313747882843" lon="6.733696460723877">
        <ele>433.79998779296875</ele>
        <time>2014-05-17T06:32:34Z</time>
      </trkpt>
      <trkpt lat="46.492967577651143" lon="6.733613479882479">
        <ele>433.20001220703125</ele>
        <time>2014-05-17T06:32:36Z</time>
      </trkpt>
      <trkpt lat="46.492877388373017" lon="6.73356662504375">
        <ele>432.60000610351562</ele>
        <time>2014-05-17T06:32:37Z</time>
      </trkpt>
      <trkpt lat="46.492788204923272" lon="6.733504431322217">
        <ele>432</ele>
        <time>2014-05-17T06:32:38Z</time>
      </trkpt>
      <trkpt lat="46.492700278759003" lon="6.733425389975309">
        <ele>431</ele>
        <time>2014-05-17T06:32:39Z</time>
      </trkpt>
      <trkpt lat="46.492535071447492" lon="6.73321777023375">
        <ele>430</ele>
        <time>2014-05-17T06:32:41Z</time>
      </trkpt>
      <trkpt lat="46.492393082007766" lon="6.732959691435099">
        <ele>428.60000610351562</ele>
        <time>2014-05-17T06:32:43Z</time>
      </trkpt>
      <trkpt lat="46.492323679849505" lon="6.732824239879847">
        <ele>427.60000610351562</ele>
        <time>2014-05-17T06:32:44Z</time>
      </trkpt>
      <trkpt lat="46.492251176387072" lon="6.732690297067165">
        <ele>426.60000610351562</ele>
        <time>2014-05-17T06:32:45Z</time>
      </trkpt>
      <trkpt lat="46.492177918553352" lon="6.732552833855152">
        <ele>425.20001220703125</ele>
        <time>2014-05-17T06:32:46Z</time>
      </trkpt>
      <trkpt lat="46.492011453956366" lon="6.732289725914598">
        <ele>423</ele>
        <time>2014-05-17T06:32:48Z</time>
      </trkpt>
      <trkpt lat="46.491916486993432" lon="6.732173217460513">
        <ele>421.79998779296875</ele>
        <time>2014-05-17T06:32:49Z</time>
      </trkpt>
      <trkpt lat="46.491821855306625" lon="6.732063665986061">
        <ele>420.60000610351562</ele>
        <time>2014-05-17T06:32:50Z</time>
      </trkpt>
      <trkpt lat="46.49165547452867" lon="6.73182419501245">
        <ele>419.60000610351562</ele>
        <time>2014-05-17T06:32:52Z</time>
      </trkpt>
      <trkpt lat="46.491586826741695" lon="6.731690336018801">
        <ele>419</ele>
        <time>2014-05-17T06:32:53Z</time>
      </trkpt>
      <trkpt lat="46.491528823971748" lon="6.731545329093933">
        <ele>418.20001220703125</ele>
        <time>2014-05-17T06:32:54Z</time>
      </trkpt>
      <trkpt lat="46.491444334387779" lon="6.731230588629842">
        <ele>417</ele>
        <time>2014-05-17T06:32:56Z</time>
      </trkpt>
      <trkpt lat="46.49141650646925" lon="6.731064962223172">
        <ele>415.60000610351562</ele>
        <time>2014-05-17T06:32:57Z</time>
      </trkpt>
      <trkpt lat="46.491386415436864" lon="6.730898162350059">
        <ele>414.20001220703125</ele>
        <time>2014-05-17T06:32:58Z</time>
      </trkpt>
      <trkpt lat="46.491344841197133" lon="6.730736810714006">
        <ele>412.60000610351562</ele>
        <time>2014-05-17T06:32:59Z</time>
      </trkpt>
      <trkpt lat="46.491288766264915" lon="6.73058501444757">
        <ele>411.79998779296875</ele>
        <time>2014-05-17T06:33:00Z</time>
      </trkpt>
      <trkpt lat="46.49121961556375" lon="6.730450820177794">
        <ele>411.39999389648437</ele>
        <time>2014-05-17T06:33:01Z</time>
      </trkpt>
      <trkpt lat="46.491052815690637" lon="6.730226017534733">
        <ele>411.20001220703125</ele>
        <time>2014-05-17T06:33:03Z</time>
      </trkpt>
      <trkpt lat="46.490856511518359" lon="6.730052093043923">
        <ele>410.20001220703125</ele>
        <time>2014-05-17T06:33:05Z</time>
      </trkpt>
      <trkpt lat="46.490752911195159" lon="6.72997422516346">
        <ele>409.39999389648437</ele>
        <time>2014-05-17T06:33:06Z</time>
      </trkpt>
      <trkpt lat="46.49065081961453" lon="6.729890909045935">
        <ele>409</ele>
        <time>2014-05-17T06:33:07Z</time>
      </trkpt>
      <trkpt lat="46.490446301177144" lon="6.729725869372487">
        <ele>407.20001220703125</ele>
        <time>2014-05-17T06:33:09Z</time>
      </trkpt>
      <trkpt lat="46.490350663661957" lon="6.729648923501372">
        <ele>405.60000610351562</ele>
        <time>2014-05-17T06:33:10Z</time>
      </trkpt>
      <trkpt lat="46.490258211269975" lon="6.729582455009222">
        <ele>405</ele>
        <time>2014-05-17T06:33:11Z</time>
      </trkpt>
      <trkpt lat="46.49008696898818" lon="6.729452535510063">
        <ele>404.39999389648438</ele>
        <time>2014-05-17T06:33:13Z</time>
      </trkpt>
      <trkpt lat="46.489945817738771" lon="6.729317335411906">
        <ele>404</ele>
        <time>2014-05-17T06:33:15Z</time>
      </trkpt>
      <trkpt lat="46.489826375618577" lon="6.729164700955153">
        <ele>403.20001220703125</ele>
        <time>2014-05-17T06:33:17Z</time>
      </trkpt>
      <trkpt lat="46.489775916561484" lon="6.729078954085708">
        <ele>402.79998779296875</ele>
        <time>2014-05-17T06:33:18Z</time>
      </trkpt>
      <trkpt lat="46.489733168855309" lon="6.728986082598567">
        <ele>402.20001220703125</ele>
        <time>2014-05-17T06:33:19Z</time>
      </trkpt>
      <trkpt lat="46.489694863557816" lon="6.728889271616936">
        <ele>401.79998779296875</ele>
        <time>2014-05-17T06:33:20Z</time>
      </trkpt>
      <trkpt lat="46.489629736170173" lon="6.728682992979884">
        <ele>400.60000610351562</ele>
        <time>2014-05-17T06:33:22Z</time>
      </trkpt>
      <trkpt lat="46.489585982635617" lon="6.728458944708109">
        <ele>400</ele>
        <time>2014-05-17T06:33:24Z</time>
      </trkpt>
      <trkpt lat="46.489566285163164" lon="6.728337658569217">
        <ele>399.60000610351562</ele>
        <time>2014-05-17T06:33:25Z</time>
      </trkpt>
      <trkpt lat="46.489549605175853" lon="6.728212935850024">
        <ele>398.39999389648437</ele>
        <time>2014-05-17T06:33:26Z</time>
      </trkpt>
      <trkpt lat="46.48951037786901" lon="6.727954018861055">
        <ele>397</ele>
        <time>2014-05-17T06:33:28Z</time>
      </trkpt>
      <trkpt lat="46.489474335685372" lon="6.727690408006311">
        <ele>396.20001220703125</ele>
        <time>2014-05-17T06:33:30Z</time>
      </trkpt>
      <trkpt lat="46.489457739517093" lon="6.727555710822344">
        <ele>395.20001220703125</ele>
        <time>2014-05-17T06:33:31Z</time>
      </trkpt>
      <trkpt lat="46.489429073408246" lon="6.727291345596314">
        <ele>394</ele>
        <time>2014-05-17T06:33:33Z</time>
      </trkpt>
      <trkpt lat="46.489414907991886" lon="6.727170310914516">
        <ele>392.20001220703125</ele>
        <time>2014-05-17T06:33:34Z</time>
      </trkpt>
      <trkpt lat="46.489375093951821" lon="6.726972749456763">
        <ele>392</ele>
        <time>2014-05-17T06:33:36Z</time>
      </trkpt>
      <trkpt lat="46.489235367625952" lon="6.726817097514868">
        <ele>391.60000610351562</ele>
        <time>2014-05-17T06:33:39Z</time>
      </trkpt>
      <trkpt lat="46.489173928275704" lon="6.726783569902182">
        <ele>391.20001220703125</ele>
        <time>2014-05-17T06:33:40Z</time>
      </trkpt>
      <trkpt lat="46.489035543054342" lon="6.72675708308816">
        <ele>390.39999389648438</ele>
        <time>2014-05-17T06:33:42Z</time>
      </trkpt>
      <trkpt lat="46.488968906924129" lon="6.726778373122215">
        <ele>390</ele>
        <time>2014-05-17T06:33:43Z</time>
      </trkpt>
      <trkpt lat="46.488902270793915" lon="6.726805027574301">
        <ele>389.60000610351562</ele>
        <time>2014-05-17T06:33:44Z</time>
      </trkpt>
      <trkpt lat="46.488835969939828" lon="6.726816091686487">
        <ele>389.39999389648437</ele>
        <time>2014-05-17T06:33:45Z</time>
      </trkpt>
      <trkpt lat="46.488665565848351" lon="6.726735709235072">
        <ele>390.20001220703125</ele>
        <time>2014-05-17T06:33:48Z</time>
      </trkpt>
      <trkpt lat="46.488599684089422" lon="6.726607801392674">
        <ele>391.39999389648437</ele>
        <time>2014-05-17T06:33:50Z</time>
      </trkpt>
      <trkpt lat="46.488586021587253" lon="6.726535214111209">
        <ele>391.60000610351562</ele>
        <time>2014-05-17T06:33:51Z</time>
      </trkpt>
      <trkpt lat="46.488621979951859" lon="6.726348381489515">
        <ele>391.60000610351562</ele>
        <time>2014-05-17T06:33:54Z</time>
      </trkpt>
      <trkpt lat="46.488639498129487" lon="6.726156352087855">
        <ele>392.39999389648437</ele>
        <time>2014-05-17T06:33:58Z</time>
      </trkpt>
      <trkpt lat="46.488632708787918" lon="6.725972704589367">
        <ele>392.79998779296875</ele>
        <time>2014-05-17T06:34:01Z</time>
      </trkpt>
      <trkpt lat="46.488612843677402" lon="6.725837672129273">
        <ele>392.39999389648437</ele>
        <time>2014-05-17T06:34:03Z</time>
      </trkpt>
      <trkpt lat="46.488486528396606" lon="6.725434921681881">
        <ele>391.20001220703125</ele>
        <time>2014-05-17T06:34:09Z</time>
      </trkpt>
      <trkpt lat="46.488414276391268" lon="6.725179944187403">
        <ele>391.60000610351562</ele>
        <time>2014-05-17T06:34:13Z</time>
      </trkpt>
      <trkpt lat="46.488405559211969" lon="6.725056562572718">
        <ele>391.79998779296875</ele>
        <time>2014-05-17T06:34:15Z</time>
      </trkpt>
      <trkpt lat="46.488398015499115" lon="6.724721537902951">
        <ele>391.79998779296875</ele>
        <time>2014-05-17T06:34:20Z</time>
      </trkpt>
      <trkpt lat="46.488399943336844" lon="6.724576950073242">
        <ele>391.20001220703125</ele>
        <time>2014-05-17T06:34:22Z</time>
      </trkpt>
      <trkpt lat="46.488384352996945" lon="6.724135810509324">
        <ele>391.79998779296875</ele>
        <time>2014-05-17T06:34:28Z</time>
      </trkpt>
      <trkpt lat="46.48836063221097" lon="6.724041597917676">
        <ele>392.39999389648437</ele>
        <time>2014-05-17T06:34:30Z</time>
      </trkpt>
      <trkpt lat="46.488335570320487" lon="6.723959036171436">
        <ele>393</ele>
        <time>2014-05-17T06:34:32Z</time>
      </trkpt>
      <trkpt lat="46.488317716866732" lon="6.723872115835547">
        <ele>393.60000610351562</ele>
        <time>2014-05-17T06:34:34Z</time>
      </trkpt>
      <trkpt lat="46.488270359113812" lon="6.723715290427208">
        <ele>395</ele>
        <time>2014-05-17T06:34:38Z</time>
      </trkpt>
      <trkpt lat="46.488237082958221" lon="6.72357028350234">
        <ele>396.20001220703125</ele>
        <time>2014-05-17T06:34:42Z</time>
      </trkpt>
      <trkpt lat="46.488232808187604" lon="6.723459558561444">
        <ele>396.79998779296875</ele>
        <time>2014-05-17T06:34:45Z</time>
      </trkpt>
      <trkpt lat="46.488236160948873" lon="6.723417397588491">
        <ele>397.20001220703125</ele>
        <time>2014-05-17T06:34:46Z</time>
      </trkpt>
      <trkpt lat="46.488227611407638" lon="6.723195612430573">
        <ele>398.20001220703125</ele>
        <time>2014-05-17T06:34:51Z</time>
      </trkpt>
      <trkpt lat="46.488224593922496" lon="6.723151691257954">
        <ele>398.39999389648437</ele>
        <time>2014-05-17T06:34:52Z</time>
      </trkpt>
      <trkpt lat="46.488225013017654" lon="6.722916327416897">
        <ele>399.60000610351562</ele>
        <time>2014-05-17T06:34:57Z</time>
      </trkpt>
      <trkpt lat="46.488220738247037" lon="6.722870478406549">
        <ele>399.79998779296875</ele>
        <time>2014-05-17T06:34:58Z</time>
      </trkpt>
      <trkpt lat="46.488210344687104" lon="6.722524054348469">
        <ele>400.60000610351562</ele>
        <time>2014-05-17T06:35:05Z</time>
      </trkpt>
      <trkpt lat="46.488202381879091" lon="6.72225977294147">
        <ele>402</ele>
        <time>2014-05-17T06:35:10Z</time>
      </trkpt>
      <trkpt lat="46.488191233947873" lon="6.722113508731127">
        <ele>403</ele>
        <time>2014-05-17T06:35:13Z</time>
      </trkpt>
      <trkpt lat="46.488182013854384" lon="6.721954923123121">
        <ele>404.39999389648438</ele>
        <time>2014-05-17T06:35:17Z</time>
      </trkpt>
      <trkpt lat="46.488180086016655" lon="6.721857441589236">
        <ele>405</ele>
        <time>2014-05-17T06:35:20Z</time>
      </trkpt>
      <trkpt lat="46.488170111551881" lon="6.721788961440325">
        <ele>405.20001220703125</ele>
        <time>2014-05-17T06:35:22Z</time>
      </trkpt>
      <trkpt lat="46.488152844831347" lon="6.72172274440527">
        <ele>405.20001220703125</ele>
        <time>2014-05-17T06:35:24Z</time>
      </trkpt>
      <trkpt lat="46.488145971670747" lon="6.721653593704104">
        <ele>405.39999389648437</ele>
        <time>2014-05-17T06:35:26Z</time>
      </trkpt>
      <trkpt lat="46.488146642223001" lon="6.721466258168221">
        <ele>405.20001220703125</ele>
        <time>2014-05-17T06:35:30Z</time>
      </trkpt>
      <trkpt lat="46.488166004419327" lon="6.721278168261051">
        <ele>404.39999389648438</ele>
        <time>2014-05-17T06:35:33Z</time>
      </trkpt>
      <trkpt lat="46.488179415464401" lon="6.72120088711381">
        <ele>404.20001220703125</ele>
        <time>2014-05-17T06:35:34Z</time>
      </trkpt>
      <trkpt lat="46.488193580880761" lon="6.721116984263063">
        <ele>403.79998779296875</ele>
        <time>2014-05-17T06:35:35Z</time>
      </trkpt>
      <trkpt lat="46.488225348293781" lon="6.720939120277762">
        <ele>402.79998779296875</ele>
        <time>2014-05-17T06:35:37Z</time>
      </trkpt>
      <trkpt lat="46.488301539793611" lon="6.720683220773935">
        <ele>401.60000610351562</ele>
        <time>2014-05-17T06:35:40Z</time>
      </trkpt>
      <trkpt lat="46.488497843965888" lon="6.720206122845411">
        <ele>400.79998779296875</ele>
        <time>2014-05-17T06:35:46Z</time>
      </trkpt>
      <trkpt lat="46.488686352968216" lon="6.719870427623391">
        <ele>402.79998779296875</ele>
        <time>2014-05-17T06:35:51Z</time>
      </trkpt>
      <trkpt lat="46.488728597760201" lon="6.719809072092176">
        <ele>403.39999389648437</ele>
        <time>2014-05-17T06:35:52Z</time>
      </trkpt>
      <trkpt lat="46.489038728177547" lon="6.719337925314903">
        <ele>402.20001220703125</ele>
        <time>2014-05-17T06:35:59Z</time>
      </trkpt>
      <trkpt lat="46.489088600501418" lon="6.719248071312904">
        <ele>401.60000610351562</ele>
        <time>2014-05-17T06:36:00Z</time>
      </trkpt>
      <trkpt lat="46.489139813929796" lon="6.719146817922592">
        <ele>400.39999389648437</ele>
        <time>2014-05-17T06:36:01Z</time>
      </trkpt>
      <trkpt lat="46.489195469766855" lon="6.719039948657155">
        <ele>399</ele>
        <time>2014-05-17T06:36:02Z</time>
      </trkpt>
      <trkpt lat="46.489254897460341" lon="6.718928469344974">
        <ele>397.60000610351562</ele>
        <time>2014-05-17T06:36:03Z</time>
      </trkpt>
      <trkpt lat="46.489379703998566" lon="6.718696542084217">
        <ele>396</ele>
        <time>2014-05-17T06:36:05Z</time>
      </trkpt>
      <trkpt lat="46.48956754244864" lon="6.71838884241879">
        <ele>394.79998779296875</ele>
        <time>2014-05-17T06:36:08Z</time>
      </trkpt>
      <trkpt lat="46.489625880494714" lon="6.718304520472884">
        <ele>395</ele>
        <time>2014-05-17T06:36:09Z</time>
      </trkpt>
      <trkpt lat="46.489677093923092" lon="6.718218270689249">
        <ele>396.20001220703125</ele>
        <time>2014-05-17T06:36:10Z</time>
      </trkpt>
      <trkpt lat="46.489723278209567" lon="6.718130931258202">
        <ele>398.20001220703125</ele>
        <time>2014-05-17T06:36:11Z</time>
      </trkpt>
      <trkpt lat="46.48977080360055" lon="6.718051051720977">
        <ele>399.79998779296875</ele>
        <time>2014-05-17T06:36:12Z</time>
      </trkpt>
      <trkpt lat="46.489823861047626" lon="6.717984583228827">
        <ele>400.79998779296875</ele>
        <time>2014-05-17T06:36:13Z</time>
      </trkpt>
      <trkpt lat="46.489969119429588" lon="6.717841252684593">
        <ele>399.79998779296875</ele>
        <time>2014-05-17T06:36:16Z</time>
      </trkpt>
      <trkpt lat="46.490012118592858" lon="6.717813843861222">
        <ele>400</ele>
        <time>2014-05-17T06:36:17Z</time>
      </trkpt>
      <trkpt lat="46.490080179646611" lon="6.717762798070908">
        <ele>401.20001220703125</ele>
        <time>2014-05-17T06:36:19Z</time>
      </trkpt>
      <trkpt lat="46.490140277892351" lon="6.717702196910977">
        <ele>402</ele>
        <time>2014-05-17T06:36:21Z</time>
      </trkpt>
      <trkpt lat="46.490172883495688" lon="6.71766615472734">
        <ele>403</ele>
        <time>2014-05-17T06:36:22Z</time>
      </trkpt>
      <trkpt lat="46.490309424698353" lon="6.717502623796463">
        <ele>403.79998779296875</ele>
        <time>2014-05-17T06:36:26Z</time>
      </trkpt>
      <trkpt lat="46.490344628691673" lon="6.717468844726682">
        <ele>404.20001220703125</ele>
        <time>2014-05-17T06:36:27Z</time>
      </trkpt>
      <trkpt lat="46.490441104397178" lon="6.717388797551394">
        <ele>405.20001220703125</ele>
        <time>2014-05-17T06:36:30Z</time>
      </trkpt>
      <trkpt lat="46.490528527647257" lon="6.717314785346389">
        <ele>406.60000610351562</ele>
        <time>2014-05-17T06:36:33Z</time>
      </trkpt>
      <trkpt lat="46.490582842379808" lon="6.717269858345389">
        <ele>408</ele>
        <time>2014-05-17T06:36:35Z</time>
      </trkpt>
      <trkpt lat="46.490641431882977" lon="6.717188386246562">
        <ele>409.20001220703125</ele>
        <time>2014-05-17T06:36:38Z</time>
      </trkpt>
      <trkpt lat="46.490677976980805" lon="6.717123426496983">
        <ele>409.79998779296875</ele>
        <time>2014-05-17T06:36:40Z</time>
      </trkpt>
      <trkpt lat="46.490736985579133" lon="6.717022592201829">
        <ele>410.20001220703125</ele>
        <time>2014-05-17T06:36:43Z</time>
      </trkpt>
      <trkpt lat="46.490846956148744" lon="6.716848500072956">
        <ele>411.20001220703125</ele>
        <time>2014-05-17T06:36:48Z</time>
      </trkpt>
      <trkpt lat="46.491047032177448" lon="6.716547003015876">
        <ele>412</ele>
        <time>2014-05-17T06:36:56Z</time>
      </trkpt>
      <trkpt lat="46.491202935576439" lon="6.716343658044934">
        <ele>412</ele>
        <time>2014-05-17T06:37:01Z</time>
      </trkpt>
      <trkpt lat="46.491238223388791" lon="6.716293618083">
        <ele>412</ele>
        <time>2014-05-17T06:37:02Z</time>
      </trkpt>
      <trkpt lat="46.491270074620843" lon="6.716236872598529">
        <ele>412.20001220703125</ele>
        <time>2014-05-17T06:37:03Z</time>
      </trkpt>
      <trkpt lat="46.49136470630765" lon="6.716052303090692">
        <ele>412.20001220703125</ele>
        <time>2014-05-17T06:37:06Z</time>
      </trkpt>
      <trkpt lat="46.491401670500636" lon="6.715985834598541">
        <ele>412</ele>
        <time>2014-05-17T06:37:07Z</time>
      </trkpt>
      <trkpt lat="46.491531673818827" lon="6.71575415879488">
        <ele>409</ele>
        <time>2014-05-17T06:37:10Z</time>
      </trkpt>
      <trkpt lat="46.491581965237856" lon="6.715663047507405">
        <ele>407.79998779296875</ele>
        <time>2014-05-17T06:37:11Z</time>
      </trkpt>
      <trkpt lat="46.491722697392106" lon="6.715361634269357">
        <ele>407.39999389648438</ele>
        <time>2014-05-17T06:37:14Z</time>
      </trkpt>
      <trkpt lat="46.491754548624158" lon="6.715248227119446">
        <ele>407.39999389648438</ele>
        <time>2014-05-17T06:37:15Z</time>
      </trkpt>
      <trkpt lat="46.49182160384953" lon="6.714996686205268">
        <ele>406</ele>
        <time>2014-05-17T06:37:17Z</time>
      </trkpt>
      <trkpt lat="46.49185630492866" lon="6.714865928515792">
        <ele>404.79998779296875</ele>
        <time>2014-05-17T06:37:18Z</time>
      </trkpt>
      <trkpt lat="46.491885641589761" lon="6.714734164997935">
        <ele>403.60000610351562</ele>
        <time>2014-05-17T06:37:19Z</time>
      </trkpt>
      <trkpt lat="46.491940710693598" lon="6.714482037350535">
        <ele>402.20001220703125</ele>
        <time>2014-05-17T06:37:21Z</time>
      </trkpt>
      <trkpt lat="46.491975244134665" lon="6.714266706258059">
        <ele>403.39999389648437</ele>
        <time>2014-05-17T06:37:23Z</time>
      </trkpt>
      <trkpt lat="46.491980357095599" lon="6.714177774265409">
        <ele>404.39999389648438</ele>
        <time>2014-05-17T06:37:24Z</time>
      </trkpt>
      <trkpt lat="46.491979183629155" lon="6.714101666584611">
        <ele>405.60000610351562</ele>
        <time>2014-05-17T06:37:25Z</time>
      </trkpt>
      <trkpt lat="46.491973232477903" lon="6.713976776227355">
        <ele>407</ele>
        <time>2014-05-17T06:37:27Z</time>
      </trkpt>
      <trkpt lat="46.491972645744681" lon="6.713923299685121">
        <ele>407.20001220703125</ele>
        <time>2014-05-17T06:37:28Z</time>
      </trkpt>
      <trkpt lat="46.491976166144013" lon="6.713821040466428">
        <ele>408</ele>
        <time>2014-05-17T06:37:30Z</time>
      </trkpt>
      <trkpt lat="46.491984967142344" lon="6.713696485385299">
        <ele>408.20001220703125</ele>
        <time>2014-05-17T06:37:32Z</time>
      </trkpt>
      <trkpt lat="46.49199016392231" lon="6.713620461523533">
        <ele>407.79998779296875</ele>
        <time>2014-05-17T06:37:33Z</time>
      </trkpt>
      <trkpt lat="46.491994354873896" lon="6.713536223396659">
        <ele>406.79998779296875</ele>
        <time>2014-05-17T06:37:34Z</time>
      </trkpt>
      <trkpt lat="46.492016650736332" lon="6.713350564241409">
        <ele>406</ele>
        <time>2014-05-17T06:37:36Z</time>
      </trkpt>
      <trkpt lat="46.492033582180738" lon="6.713255345821381">
        <ele>405.60000610351562</ele>
        <time>2014-05-17T06:37:37Z</time>
      </trkpt>
      <trkpt lat="46.492059901356697" lon="6.713167252019048">
        <ele>405.20001220703125</ele>
        <time>2014-05-17T06:37:38Z</time>
      </trkpt>
      <trkpt lat="46.492122514173388" lon="6.713030878454447">
        <ele>405.60000610351562</ele>
        <time>2014-05-17T06:37:40Z</time>
      </trkpt>
      <trkpt lat="46.492280596867204" lon="6.712736003100872">
        <ele>404.60000610351562</ele>
        <time>2014-05-17T06:37:44Z</time>
      </trkpt>
      <trkpt lat="46.492336085066199" lon="6.712656626477838">
        <ele>403.39999389648437</ele>
        <time>2014-05-17T06:37:45Z</time>
      </trkpt>
      <trkpt lat="46.492395931854844" lon="6.712582614272833">
        <ele>402.20001220703125</ele>
        <time>2014-05-17T06:37:46Z</time>
      </trkpt>
      <trkpt lat="46.492656525224447" lon="6.712305173277855">
        <ele>400.79998779296875</ele>
        <time>2014-05-17T06:37:50Z</time>
      </trkpt>
      <trkpt lat="46.492796922102571" lon="6.71216418966651">
        <ele>399.60000610351562</ele>
        <time>2014-05-17T06:37:52Z</time>
      </trkpt>
      <trkpt lat="46.492929607629776" lon="6.712000574916601">
        <ele>398</ele>
        <time>2014-05-17T06:37:54Z</time>
      </trkpt>
      <trkpt lat="46.492986939847469" lon="6.711911223828793">
        <ele>397.39999389648437</ele>
        <time>2014-05-17T06:37:55Z</time>
      </trkpt>
      <trkpt lat="46.493118284270167" lon="6.711657755076885">
        <ele>396</ele>
        <time>2014-05-17T06:37:58Z</time>
      </trkpt>
      <trkpt lat="46.493153404444456" lon="6.711586927995086">
        <ele>395.60000610351562</ele>
        <time>2014-05-17T06:37:59Z</time>
      </trkpt>
      <trkpt lat="46.493219872936606" lon="6.711450973525643">
        <ele>394.60000610351562</ele>
        <time>2014-05-17T06:38:01Z</time>
      </trkpt>
      <trkpt lat="46.493295729160309" lon="6.711296662688255">
        <ele>392.79998779296875</ele>
        <time>2014-05-17T06:38:03Z</time>
      </trkpt>
      <trkpt lat="46.493335627019405" lon="6.711215609684587">
        <ele>391.79998779296875</ele>
        <time>2014-05-17T06:38:04Z</time>
      </trkpt>
      <trkpt lat="46.49341600947082" lon="6.711080158129334">
        <ele>390.79998779296875</ele>
        <time>2014-05-17T06:38:06Z</time>
      </trkpt>
      <trkpt lat="46.493453308939934" lon="6.711033387109637">
        <ele>390.79998779296875</ele>
        <time>2014-05-17T06:38:07Z</time>
      </trkpt>
      <trkpt lat="46.493487507104874" lon="6.710995333269239">
        <ele>390.79998779296875</ele>
        <time>2014-05-17T06:38:08Z</time>
      </trkpt>
      <trkpt lat="46.493581300601363" lon="6.710906149819493">
        <ele>392</ele>
        <time>2014-05-17T06:38:11Z</time>
      </trkpt>
      <trkpt lat="46.493639722466469" lon="6.71086105518043">
        <ele>392.20001220703125</ele>
        <time>2014-05-17T06:38:13Z</time>
      </trkpt>
      <trkpt lat="46.493705017492175" lon="6.710801795125008">
        <ele>393.39999389648438</ele>
        <time>2014-05-17T06:38:16Z</time>
      </trkpt>
      <trkpt lat="46.493716752156615" lon="6.710801376029849">
        <ele>393.79998779296875</ele>
        <time>2014-05-17T06:39:08Z</time>
      </trkpt>
      <trkpt lat="46.493789590895176" lon="6.710751419886947">
        <ele>394.60000610351562</ele>
        <time>2014-05-17T06:39:21Z</time>
      </trkpt>
      <trkpt lat="46.493948176503181" lon="6.710680341348052">
        <ele>395</ele>
        <time>2014-05-17T06:39:28Z</time>
      </trkpt>
      <trkpt lat="46.49409125559032" lon="6.710574813187122">
        <ele>395.79998779296875</ele>
        <time>2014-05-17T06:39:34Z</time>
      </trkpt>
      <trkpt lat="46.494247494265437" lon="6.710459562018514">
        <ele>395.60000610351562</ele>
        <time>2014-05-17T06:39:39Z</time>
      </trkpt>
      <trkpt lat="46.494427537545562" lon="6.710303658619523">
        <ele>395.79998779296875</ele>
        <time>2014-05-17T06:39:44Z</time>
      </trkpt>
      <trkpt lat="46.494534322991967" lon="6.710152365267277">
        <ele>395.39999389648437</ele>
        <time>2014-05-17T06:39:48Z</time>
      </trkpt>
      <trkpt lat="46.494596600532532" lon="6.71004256233573">
        <ele>394.79998779296875</ele>
        <time>2014-05-17T06:39:50Z</time>
      </trkpt>
      <trkpt lat="46.494752503931522" lon="6.709757326170802">
        <ele>393.60000610351562</ele>
        <time>2014-05-17T06:39:54Z</time>
      </trkpt>
      <trkpt lat="46.494792234152555" lon="6.709678787738085">
        <ele>393.39999389648438</ele>
        <time>2014-05-17T06:39:55Z</time>
      </trkpt>
      <trkpt lat="46.49486817419529" lon="6.709524895995855">
        <ele>392.20001220703125</ele>
        <time>2014-05-17T06:39:57Z</time>
      </trkpt>
      <trkpt lat="46.494903713464737" lon="6.709450129419565">
        <ele>390.79998779296875</ele>
        <time>2014-05-17T06:39:58Z</time>
      </trkpt>
      <trkpt lat="46.494965991005301" lon="6.709324652329087">
        <ele>389.20001220703125</ele>
        <time>2014-05-17T06:40:00Z</time>
      </trkpt>
      <trkpt lat="46.494995327666402" lon="6.709277294576168">
        <ele>388.60000610351562</ele>
        <time>2014-05-17T06:40:01Z</time>
      </trkpt>
      <trkpt lat="46.495061879977584" lon="6.709209736436606">
        <ele>388</ele>
        <time>2014-05-17T06:40:03Z</time>
      </trkpt>
      <trkpt lat="46.495094820857048" lon="6.709177969023585">
        <ele>387.60000610351562</ele>
        <time>2014-05-17T06:40:04Z</time>
      </trkpt>
      <trkpt lat="46.495125582441688" lon="6.709142345935106">
        <ele>386.79998779296875</ele>
        <time>2014-05-17T06:40:05Z</time>
      </trkpt>
      <trkpt lat="46.495186099782586" lon="6.709061376750469">
        <ele>386.39999389648437</ele>
        <time>2014-05-17T06:40:07Z</time>
      </trkpt>
      <trkpt lat="46.495263800024986" lon="6.708915112540126">
        <ele>387.79998779296875</ele>
        <time>2014-05-17T06:40:10Z</time>
      </trkpt>
      <trkpt lat="46.495287604629993" lon="6.708862222731113">
        <ele>388.20001220703125</ele>
        <time>2014-05-17T06:40:11Z</time>
      </trkpt>
      <trkpt lat="46.495429677888751" lon="6.708497609943152">
        <ele>388.20001220703125</ele>
        <time>2014-05-17T06:40:17Z</time>
      </trkpt>
      <trkpt lat="46.49549120105803" lon="6.708278590813279">
        <ele>387</ele>
        <time>2014-05-17T06:40:20Z</time>
      </trkpt>
      <trkpt lat="46.495514921844006" lon="6.708200387656689">
        <ele>385.60000610351562</ele>
        <time>2014-05-17T06:40:21Z</time>
      </trkpt>
      <trkpt lat="46.495543923228979" lon="6.708038030192256">
        <ele>386.39999389648437</ele>
        <time>2014-05-17T06:40:23Z</time>
      </trkpt>
      <trkpt lat="46.495546353980899" lon="6.707951193675399">
        <ele>387</ele>
        <time>2014-05-17T06:40:24Z</time>
      </trkpt>
      <trkpt lat="46.495546102523804" lon="6.707682050764561">
        <ele>387.60000610351562</ele>
        <time>2014-05-17T06:40:27Z</time>
      </trkpt>
      <trkpt lat="46.495564458891749" lon="6.707594459876418">
        <ele>387.39999389648438</ele>
        <time>2014-05-17T06:40:28Z</time>
      </trkpt>
      <trkpt lat="46.495709298178554" lon="6.707288436591625">
        <ele>387.79998779296875</ele>
        <time>2014-05-17T06:40:32Z</time>
      </trkpt>
      <trkpt lat="46.49590602144599" lon="6.706972271203995">
        <ele>385</ele>
        <time>2014-05-17T06:40:36Z</time>
      </trkpt>
      <trkpt lat="46.495955809950829" lon="6.706876633688808">
        <ele>384.20001220703125</ele>
        <time>2014-05-17T06:40:37Z</time>
      </trkpt>
      <trkpt lat="46.495999144390225" lon="6.70679172500968">
        <ele>383.60000610351562</ele>
        <time>2014-05-17T06:40:38Z</time>
      </trkpt>
      <trkpt lat="46.496021188795567" lon="6.706703212112188">
        <ele>383.39999389648437</ele>
        <time>2014-05-17T06:40:39Z</time>
      </trkpt>
      <trkpt lat="46.496018255129457" lon="6.706614196300507">
        <ele>383.20001220703125</ele>
        <time>2014-05-17T06:40:40Z</time>
      </trkpt>
      <trkpt lat="46.495927898213267" lon="6.706437170505524">
        <ele>382.79998779296875</ele>
        <time>2014-05-17T06:40:43Z</time>
      </trkpt>
      <trkpt lat="46.495905769988894" lon="6.70638277195394">
        <ele>382.79998779296875</ele>
        <time>2014-05-17T06:40:44Z</time>
      </trkpt>
      <trkpt lat="46.495913062244654" lon="6.706262407824397">
        <ele>383.20001220703125</ele>
        <time>2014-05-17T06:40:46Z</time>
      </trkpt>
      <trkpt lat="46.495998557657003" lon="6.706089489161968">
        <ele>383.39999389648437</ele>
        <time>2014-05-17T06:40:49Z</time>
      </trkpt>
      <trkpt lat="46.496030492708087" lon="6.706028804183006">
        <ele>383.39999389648437</ele>
        <time>2014-05-17T06:40:50Z</time>
      </trkpt>
      <trkpt lat="46.496200729161501" lon="6.705696545541287">
        <ele>384.79998779296875</ele>
        <time>2014-05-17T06:40:56Z</time>
      </trkpt>
      <trkpt lat="46.496213553473353" lon="6.705638375133276">
        <ele>384.60000610351562</ele>
        <time>2014-05-17T06:40:57Z</time>
      </trkpt>
      <trkpt lat="46.496228473260999" lon="6.705520106479526">
        <ele>384.20001220703125</ele>
        <time>2014-05-17T06:40:59Z</time>
      </trkpt>
      <trkpt lat="46.496291756629944" lon="6.705333022400737">
        <ele>384.20001220703125</ele>
        <time>2014-05-17T06:41:02Z</time>
      </trkpt>
      <trkpt lat="46.496363589540124" lon="6.705195810645819">
        <ele>384</ele>
        <time>2014-05-17T06:41:04Z</time>
      </trkpt>
      <trkpt lat="46.496479008346796" lon="6.704970924183726">
        <ele>384</ele>
        <time>2014-05-17T06:41:07Z</time>
      </trkpt>
      <trkpt lat="46.496760137379169" lon="6.704421658068895">
        <ele>383.60000610351562</ele>
        <time>2014-05-17T06:41:14Z</time>
      </trkpt>
      <trkpt lat="46.496840100735426" lon="6.704258965328336">
        <ele>383.39999389648437</ele>
        <time>2014-05-17T06:41:16Z</time>
      </trkpt>
      <trkpt lat="46.497166994959116" lon="6.703564440831542">
        <ele>383.20001220703125</ele>
        <time>2014-05-17T06:41:24Z</time>
      </trkpt>
      <trkpt lat="46.497280150651932" lon="6.70326529070735">
        <ele>382.39999389648437</ele>
        <time>2014-05-17T06:41:27Z</time>
      </trkpt>
      <trkpt lat="46.497485842555761" lon="6.70273513533175">
        <ele>382</ele>
        <time>2014-05-17T06:41:32Z</time>
      </trkpt>
      <trkpt lat="46.497525237500668" lon="6.702624997124076">
        <ele>381.20001220703125</ele>
        <time>2014-05-17T06:41:33Z</time>
      </trkpt>
      <trkpt lat="46.497852634638548" lon="6.701895017176867">
        <ele>380.39999389648437</ele>
        <time>2014-05-17T06:41:40Z</time>
      </trkpt>
      <trkpt lat="46.49790845811367" lon="6.701800134032965">
        <ele>379.79998779296875</ele>
        <time>2014-05-17T06:41:41Z</time>
      </trkpt>
      <trkpt lat="46.498195119202137" lon="6.701373411342502">
        <ele>378.60000610351562</ele>
        <time>2014-05-17T06:41:46Z</time>
      </trkpt>
      <trkpt lat="46.498250355944037" lon="6.701289508491755">
        <ele>378.79998779296875</ele>
        <time>2014-05-17T06:41:47Z</time>
      </trkpt>
      <trkpt lat="46.498450264334679" lon="6.700941491872072">
        <ele>377.39999389648437</ele>
        <time>2014-05-17T06:41:51Z</time>
      </trkpt>
      <trkpt lat="46.498533915728331" lon="6.700751977041364">
        <ele>377.60000610351562</ele>
        <time>2014-05-17T06:41:53Z</time>
      </trkpt>
      <trkpt lat="46.498765256255865" lon="6.700021661818028">
        <ele>377.39999389648437</ele>
        <time>2014-05-17T06:42:00Z</time>
      </trkpt>
      <trkpt lat="46.498811691999435" lon="6.69980239123106">
        <ele>376.20001220703125</ele>
        <time>2014-05-17T06:42:02Z</time>
      </trkpt>
      <trkpt lat="46.498909424990416" lon="6.699370807036758">
        <ele>377.39999389648437</ele>
        <time>2014-05-17T06:42:06Z</time>
      </trkpt>
      <trkpt lat="46.499083852395415" lon="6.698725316673517">
        <ele>376.39999389648438</ele>
        <time>2014-05-17T06:42:12Z</time>
      </trkpt>
      <trkpt lat="46.499161468818784" lon="6.698525073006749">
        <ele>376.39999389648438</ele>
        <time>2014-05-17T06:42:14Z</time>
      </trkpt>
      <trkpt lat="46.49946179240942" lon="6.697740945965052">
        <ele>376</ele>
        <time>2014-05-17T06:42:21Z</time>
      </trkpt>
      <trkpt lat="46.499505462124944" lon="6.69762116856873">
        <ele>374.20001220703125</ele>
        <time>2014-05-17T06:42:22Z</time>
      </trkpt>
      <trkpt lat="46.499770246446133" lon="6.696923291310668">
        <ele>375</ele>
        <time>2014-05-17T06:42:28Z</time>
      </trkpt>
      <trkpt lat="46.499813329428434" lon="6.69681147672236">
        <ele>375.60000610351562</ele>
        <time>2014-05-17T06:42:29Z</time>
      </trkpt>
      <trkpt lat="46.499857418239117" lon="6.696698404848576">
        <ele>375.79998779296875</ele>
        <time>2014-05-17T06:42:30Z</time>
      </trkpt>
      <trkpt lat="46.500140391290188" lon="6.695936908945441">
        <ele>376.60000610351562</ele>
        <time>2014-05-17T06:42:37Z</time>
      </trkpt>
      <trkpt lat="46.500174840912223" lon="6.695826686918736">
        <ele>376.79998779296875</ele>
        <time>2014-05-17T06:42:38Z</time>
      </trkpt>
      <trkpt lat="46.500201411545277" lon="6.69570816680789">
        <ele>376.39999389648438</ele>
        <time>2014-05-17T06:42:39Z</time>
      </trkpt>
      <trkpt lat="46.500299647450447" lon="6.695240708068013">
        <ele>376.39999389648438</ele>
        <time>2014-05-17T06:42:43Z</time>
      </trkpt>
      <trkpt lat="46.500449432060122" lon="6.694398745894432">
        <ele>376.20001220703125</ele>
        <time>2014-05-17T06:42:51Z</time>
      </trkpt>
      <trkpt lat="46.500470386818051" lon="6.694275867193937">
        <ele>375.60000610351562</ele>
        <time>2014-05-17T06:42:52Z</time>
      </trkpt>
      <trkpt lat="46.500488994643092" lon="6.694154748693109">
        <ele>375.79998779296875</ele>
        <time>2014-05-17T06:42:53Z</time>
      </trkpt>
      <trkpt lat="46.500561330467463" lon="6.693280516192317">
        <ele>376.39999389648438</ele>
        <time>2014-05-17T06:43:00Z</time>
      </trkpt>
      <trkpt lat="46.500598713755608" lon="6.692643323913217">
        <ele>377</ele>
        <time>2014-05-17T06:43:05Z</time>
      </trkpt>
      <trkpt lat="46.500622350722551" lon="6.692259013652802">
        <ele>376.60000610351562</ele>
        <time>2014-05-17T06:43:08Z</time>
      </trkpt>
      <trkpt lat="46.500712372362614" lon="6.691653085872531">
        <ele>376.20001220703125</ele>
        <time>2014-05-17T06:43:13Z</time>
      </trkpt>
      <trkpt lat="46.500852853059769" lon="6.691045146435499">
        <ele>375.79998779296875</ele>
        <time>2014-05-17T06:43:18Z</time>
      </trkpt>
      <trkpt lat="46.500962907448411" lon="6.690705846995115">
        <ele>375.20001220703125</ele>
        <time>2014-05-17T06:43:21Z</time>
      </trkpt>
      <trkpt lat="46.501143453642726" lon="6.690324051305652">
        <ele>376.79998779296875</ele>
        <time>2014-05-17T06:43:25Z</time>
      </trkpt>
      <trkpt lat="46.501195169985294" lon="6.690243417397142">
        <ele>376.60000610351562</ele>
        <time>2014-05-17T06:43:26Z</time>
      </trkpt>
      <trkpt lat="46.501412009820342" lon="6.689945859834552">
        <ele>377.60000610351562</ele>
        <time>2014-05-17T06:43:30Z</time>
      </trkpt>
      <trkpt lat="46.501468671485782" lon="6.689894897863269">
        <ele>377.39999389648437</ele>
        <time>2014-05-17T06:43:31Z</time>
      </trkpt>
      <trkpt lat="46.501662125810981" lon="6.689713932573795">
        <ele>377.60000610351562</ele>
        <time>2014-05-17T06:43:35Z</time>
      </trkpt>
      <trkpt lat="46.501697832718492" lon="6.689644195139408">
        <ele>378.39999389648437</ele>
        <time>2014-05-17T06:43:36Z</time>
      </trkpt>
      <trkpt lat="46.501768156886101" lon="6.689492063596845">
        <ele>378.39999389648437</ele>
        <time>2014-05-17T06:43:38Z</time>
      </trkpt>
      <trkpt lat="46.501804450526834" lon="6.689414279535413">
        <ele>378</ele>
        <time>2014-05-17T06:43:39Z</time>
      </trkpt>
      <trkpt lat="46.501846611499786" lon="6.689342530444264">
        <ele>378</ele>
        <time>2014-05-17T06:43:40Z</time>
      </trkpt>
      <trkpt lat="46.50202858261764" lon="6.689071040600538">
        <ele>377.79998779296875</ele>
        <time>2014-05-17T06:43:44Z</time>
      </trkpt>
      <trkpt lat="46.502303425222635" lon="6.688659656792879">
        <ele>377.79998779296875</ele>
        <time>2014-05-17T06:43:50Z</time>
      </trkpt>
      <trkpt lat="46.502616237848997" lon="6.688188342377543">
        <ele>377.79998779296875</ele>
        <time>2014-05-17T06:43:57Z</time>
      </trkpt>
      <trkpt lat="46.502956375479698" lon="6.687681656330824">
        <ele>378.60000610351562</ele>
        <time>2014-05-17T06:44:05Z</time>
      </trkpt>
      <trkpt lat="46.503076823428273" lon="6.687507228925824">
        <ele>379.39999389648437</ele>
        <time>2014-05-17T06:44:08Z</time>
      </trkpt>
      <trkpt lat="46.503228116780519" lon="6.6872563585639">
        <ele>380.39999389648437</ele>
        <time>2014-05-17T06:44:12Z</time>
      </trkpt>
      <trkpt lat="46.503261141479015" lon="6.687184860929847">
        <ele>380.79998779296875</ele>
        <time>2014-05-17T06:44:13Z</time>
      </trkpt>
      <trkpt lat="46.503455601632595" lon="6.686825780197978">
        <ele>381.79998779296875</ele>
        <time>2014-05-17T06:44:18Z</time>
      </trkpt>
      <trkpt lat="46.50352181866765" lon="6.686677923426032">
        <ele>382</ele>
        <time>2014-05-17T06:44:20Z</time>
      </trkpt>
      <trkpt lat="46.503638913854957" lon="6.686400566250086">
        <ele>382</ele>
        <time>2014-05-17T06:44:24Z</time>
      </trkpt>
      <trkpt lat="46.503695240244269" lon="6.686233766376972">
        <ele>382.39999389648437</ele>
        <time>2014-05-17T06:44:27Z</time>
      </trkpt>
      <trkpt lat="46.503743436187506" lon="6.686085741966963">
        <ele>382.79998779296875</ele>
        <time>2014-05-17T06:44:30Z</time>
      </trkpt>
      <trkpt lat="46.503775957971811" lon="6.685978621244431">
        <ele>383</ele>
        <time>2014-05-17T06:44:33Z</time>
      </trkpt>
      <trkpt lat="46.503781490027905" lon="6.685948362573981">
        <ele>382.79998779296875</ele>
        <time>2014-05-17T06:45:05Z</time>
      </trkpt>
      <trkpt lat="46.503780735656619" lon="6.685709562152624">
        <ele>381.79998779296875</ele>
        <time>2014-05-17T06:45:10Z</time>
      </trkpt>
      <trkpt lat="46.503752656280994" lon="6.685661533847451">
        <ele>381.79998779296875</ele>
        <time>2014-05-17T06:45:11Z</time>
      </trkpt>
      <trkpt lat="46.50365961715579" lon="6.685629095882177">
        <ele>381.79998779296875</ele>
        <time>2014-05-17T06:45:13Z</time>
      </trkpt>
      <trkpt lat="46.503498516976833" lon="6.685679806396365">
        <ele>380.60000610351562</ele>
        <time>2014-05-17T06:45:16Z</time>
      </trkpt>
      <trkpt lat="46.503437999635935" lon="6.685709981247783">
        <ele>380</ele>
        <time>2014-05-17T06:45:17Z</time>
      </trkpt>
      <trkpt lat="46.503375638276339" lon="6.685729846358299">
        <ele>379.39999389648437</ele>
        <time>2014-05-17T06:45:18Z</time>
      </trkpt>
      <trkpt lat="46.503199869766831" lon="6.685680393129587">
        <ele>379.20001220703125</ele>
        <time>2014-05-17T06:45:21Z</time>
      </trkpt>
      <trkpt lat="46.503063412383199" lon="6.685519963502884">
        <ele>378.39999389648437</ele>
        <time>2014-05-17T06:45:24Z</time>
      </trkpt>
      <trkpt lat="46.503024268895388" lon="6.685465732589364">
        <ele>378.39999389648437</ele>
        <time>2014-05-17T06:45:25Z</time>
      </trkpt>
      <trkpt lat="46.502997949719429" lon="6.685402784496546">
        <ele>378.39999389648437</ele>
        <time>2014-05-17T06:45:26Z</time>
      </trkpt>
      <trkpt lat="46.503006918355823" lon="6.6852549277246">
        <ele>377.60000610351562</ele>
        <time>2014-05-17T06:45:28Z</time>
      </trkpt>
      <trkpt lat="46.503116469830275" lon="6.684994837269187">
        <ele>378.20001220703125</ele>
        <time>2014-05-17T06:45:32Z</time>
      </trkpt>
      <trkpt lat="46.50314656086266" lon="6.684928620234132">
        <ele>378.20001220703125</ele>
        <time>2014-05-17T06:45:33Z</time>
      </trkpt>
      <trkpt lat="46.503169611096382" lon="6.684861900284886">
        <ele>378</ele>
        <time>2014-05-17T06:45:34Z</time>
      </trkpt>
      <trkpt lat="46.50322618894279" lon="6.684725945815444">
        <ele>377</ele>
        <time>2014-05-17T06:45:36Z</time>
      </trkpt>
      <trkpt lat="46.503251334652305" lon="6.684653274714947">
        <ele>376.60000610351562</ele>
        <time>2014-05-17T06:45:37Z</time>
      </trkpt>
      <trkpt lat="46.50327212177217" lon="6.6845762450248">
        <ele>376.39999389648438</ele>
        <time>2014-05-17T06:45:38Z</time>
      </trkpt>
      <trkpt lat="46.503287879750133" lon="6.684328643605113">
        <ele>376.39999389648438</ele>
        <time>2014-05-17T06:45:41Z</time>
      </trkpt>
      <trkpt lat="46.503276061266661" lon="6.684160921722651">
        <ele>376.60000610351562</ele>
        <time>2014-05-17T06:45:43Z</time>
      </trkpt>
      <trkpt lat="46.503280084580183" lon="6.684076935052872">
        <ele>376.39999389648438</ele>
        <time>2014-05-17T06:45:44Z</time>
      </trkpt>
      <trkpt lat="46.503276564180851" lon="6.683995211496949">
        <ele>376</ele>
        <time>2014-05-17T06:45:45Z</time>
      </trkpt>
      <trkpt lat="46.503252005204558" lon="6.683920109644532">
        <ele>375.60000610351562</ele>
        <time>2014-05-17T06:45:46Z</time>
      </trkpt>
      <trkpt lat="46.503112865611911" lon="6.683786166831851">
        <ele>375.20001220703125</ele>
        <time>2014-05-17T06:45:49Z</time>
      </trkpt>
      <trkpt lat="46.503011025488377" lon="6.683717854321003">
        <ele>375</ele>
        <time>2014-05-17T06:45:51Z</time>
      </trkpt>
      <trkpt lat="46.502938102930784" lon="6.683636130765081">
        <ele>374.79998779296875</ele>
        <time>2014-05-17T06:45:53Z</time>
      </trkpt>
      <trkpt lat="46.502943970263004" lon="6.683494728058577">
        <ele>374.79998779296875</ele>
        <time>2014-05-17T06:45:56Z</time>
      </trkpt>
      <trkpt lat="46.502989567816257" lon="6.683407556265593">
        <ele>374.79998779296875</ele>
        <time>2014-05-17T06:45:58Z</time>
      </trkpt>
      <trkpt lat="46.503040613606572" lon="6.683313678950071">
        <ele>374.79998779296875</ele>
        <time>2014-05-17T06:46:00Z</time>
      </trkpt>
      <trkpt lat="46.503141783177853" lon="6.683054594323039">
        <ele>376</ele>
        <time>2014-05-17T06:46:05Z</time>
      </trkpt>
      <trkpt lat="46.503284275531769" lon="6.68274044059217">
        <ele>376.20001220703125</ele>
        <time>2014-05-17T06:46:10Z</time>
      </trkpt>
      <trkpt lat="46.50349642150104" lon="6.682245237752795">
        <ele>375.60000610351562</ele>
        <time>2014-05-17T06:46:17Z</time>
      </trkpt>
      <trkpt lat="46.503528943285346" lon="6.682178098708391">
        <ele>375.79998779296875</ele>
        <time>2014-05-17T06:46:18Z</time>
      </trkpt>
      <trkpt lat="46.503652324900031" lon="6.681893281638622">
        <ele>375.20001220703125</ele>
        <time>2014-05-17T06:46:22Z</time>
      </trkpt>
      <trkpt lat="46.503683254122734" lon="6.681815162301064">
        <ele>374.79998779296875</ele>
        <time>2014-05-17T06:46:23Z</time>
      </trkpt>
      <trkpt lat="46.503904955461621" lon="6.681225076317787">
        <ele>374.39999389648437</ele>
        <time>2014-05-17T06:46:31Z</time>
      </trkpt>
      <trkpt lat="46.503947032615542" lon="6.681092474609613">
        <ele>374.60000610351562</ele>
        <time>2014-05-17T06:46:33Z</time>
      </trkpt>
      <trkpt lat="46.503952983766794" lon="6.680874209851027">
        <ele>375.39999389648437</ele>
        <time>2014-05-17T06:46:36Z</time>
      </trkpt>
      <trkpt lat="46.503949128091335" lon="6.68079181574285">
        <ele>375.39999389648437</ele>
        <time>2014-05-17T06:46:37Z</time>
      </trkpt>
      <trkpt lat="46.503929262980819" lon="6.680284794420004">
        <ele>374.60000610351562</ele>
        <time>2014-05-17T06:46:43Z</time>
      </trkpt>
      <trkpt lat="46.503925323486328" lon="6.679707113653421">
        <ele>374.60000610351562</ele>
        <time>2014-05-17T06:46:49Z</time>
      </trkpt>
      <trkpt lat="46.503990199416876" lon="6.679112585261464">
        <ele>374.39999389648437</ele>
        <time>2014-05-17T06:46:55Z</time>
      </trkpt>
      <trkpt lat="46.504018614068627" lon="6.678812680765986">
        <ele>374.20001220703125</ele>
        <time>2014-05-17T06:46:59Z</time>
      </trkpt>
      <trkpt lat="46.50402850471437" lon="6.678754594177008">
        <ele>374.20001220703125</ele>
        <time>2014-05-17T06:47:00Z</time>
      </trkpt>
      <trkpt lat="46.504050465300679" lon="6.67868091724813">
        <ele>373.60000610351562</ele>
        <time>2014-05-17T06:47:02Z</time>
      </trkpt>
      <trkpt lat="46.50405834428966" lon="6.678641606122255">
        <ele>373.39999389648438</ele>
        <time>2014-05-17T06:47:03Z</time>
      </trkpt>
      <trkpt lat="46.50410134345293" lon="6.678507328033447">
        <ele>373.20001220703125</ele>
        <time>2014-05-17T06:47:06Z</time>
      </trkpt>
      <trkpt lat="46.504124728962779" lon="6.678365506231785">
        <ele>373.20001220703125</ele>
        <time>2014-05-17T06:47:08Z</time>
      </trkpt>
      <trkpt lat="46.504193628206849" lon="6.67786686681211">
        <ele>374</ele>
        <time>2014-05-17T06:47:14Z</time>
      </trkpt>
      <trkpt lat="46.504301084205508" lon="6.677197655662894">
        <ele>373.20001220703125</ele>
        <time>2014-05-17T06:47:21Z</time>
      </trkpt>
      <trkpt lat="46.504457909613848" lon="6.67637899518013">
        <ele>374</ele>
        <time>2014-05-17T06:47:29Z</time>
      </trkpt>
      <trkpt lat="46.504495292901993" lon="6.676181014627218">
        <ele>374.60000610351562</ele>
        <time>2014-05-17T06:47:31Z</time>
      </trkpt>
      <trkpt lat="46.504612304270267" lon="6.675742641091347">
        <ele>375.60000610351562</ele>
        <time>2014-05-17T06:47:36Z</time>
      </trkpt>
      <trkpt lat="46.504704253748059" lon="6.675432175397873">
        <ele>376.60000610351562</ele>
        <time>2014-05-17T06:47:40Z</time>
      </trkpt>
      <trkpt lat="46.504760999232531" lon="6.675219777971506">
        <ele>377.60000610351562</ele>
        <time>2014-05-17T06:47:43Z</time>
      </trkpt>
      <trkpt lat="46.504782289266586" lon="6.675154650583863">
        <ele>378</ele>
        <time>2014-05-17T06:47:44Z</time>
      </trkpt>
      <trkpt lat="46.504795784130692" lon="6.675088182091713">
        <ele>378.39999389648437</ele>
        <time>2014-05-17T06:47:45Z</time>
      </trkpt>
      <trkpt lat="46.504847081378102" lon="6.674804789945483">
        <ele>378.79998779296875</ele>
        <time>2014-05-17T06:47:49Z</time>
      </trkpt>
      <trkpt lat="46.504870550706983" lon="6.674654586240649">
        <ele>379.20001220703125</ele>
        <time>2014-05-17T06:47:51Z</time>
      </trkpt>
      <trkpt lat="46.504938444122672" lon="6.674088388681412">
        <ele>379.79998779296875</ele>
        <time>2014-05-17T06:47:58Z</time>
      </trkpt>
      <trkpt lat="46.505024190992117" lon="6.673344746232033">
        <ele>378.79998779296875</ele>
        <time>2014-05-17T06:48:06Z</time>
      </trkpt>
      <trkpt lat="46.505157295614481" lon="6.672493228688836">
        <ele>379.39999389648437</ele>
        <time>2014-05-17T06:48:15Z</time>
      </trkpt>
      <trkpt lat="46.505175903439522" lon="6.672402620315552">
        <ele>379.20001220703125</ele>
        <time>2014-05-17T06:48:16Z</time>
      </trkpt>
      <trkpt lat="46.505325017496943" lon="6.671892246231437">
        <ele>379.39999389648437</ele>
        <time>2014-05-17T06:48:22Z</time>
      </trkpt>
      <trkpt lat="46.505420403555036" lon="6.671655373647809">
        <ele>380.20001220703125</ele>
        <time>2014-05-17T06:48:25Z</time>
      </trkpt>
      <trkpt lat="46.505558118224144" lon="6.671363851055503">
        <ele>380.39999389648437</ele>
        <time>2014-05-17T06:48:29Z</time>
      </trkpt>
      <trkpt lat="46.505636991932988" lon="6.671214736998081">
        <ele>380.79998779296875</ele>
        <time>2014-05-17T06:48:31Z</time>
      </trkpt>
      <trkpt lat="46.505720391869545" lon="6.671064114198089">
        <ele>381.20001220703125</ele>
        <time>2014-05-17T06:48:33Z</time>
      </trkpt>
      <trkpt lat="46.505758780986071" lon="6.670986665412784">
        <ele>381.39999389648437</ele>
        <time>2014-05-17T06:48:34Z</time>
      </trkpt>
      <trkpt lat="46.505997329950333" lon="6.670455420389772">
        <ele>382.20001220703125</ele>
        <time>2014-05-17T06:48:41Z</time>
      </trkpt>
      <trkpt lat="46.506030857563019" lon="6.670375540852547">
        <ele>382.20001220703125</ele>
        <time>2014-05-17T06:48:42Z</time>
      </trkpt>
      <trkpt lat="46.506180977448821" lon="6.669917218387127">
        <ele>381</ele>
        <time>2014-05-17T06:48:47Z</time>
      </trkpt>
      <trkpt lat="46.506293462589383" lon="6.669337609782815">
        <ele>380.20001220703125</ele>
        <time>2014-05-17T06:48:53Z</time>
      </trkpt>
      <trkpt lat="46.506323302164674" lon="6.669113980606198">
        <ele>381.20001220703125</ele>
        <time>2014-05-17T06:48:57Z</time>
      </trkpt>
      <trkpt lat="46.506324727088213" lon="6.669060504063964">
        <ele>381.79998779296875</ele>
        <time>2014-05-17T06:49:05Z</time>
      </trkpt>
      <trkpt lat="46.506345346570015" lon="6.668853722512722">
        <ele>381.79998779296875</ele>
        <time>2014-05-17T06:49:10Z</time>
      </trkpt>
      <trkpt lat="46.506360098719597" lon="6.668755989521742">
        <ele>382</ele>
        <time>2014-05-17T06:49:12Z</time>
      </trkpt>
      <trkpt lat="46.506406869739294" lon="6.668493803590536">
        <ele>382.39999389648437</ele>
        <time>2014-05-17T06:49:16Z</time>
      </trkpt>
      <trkpt lat="46.506511308252811" lon="6.668030871078372">
        <ele>382.39999389648437</ele>
        <time>2014-05-17T06:49:22Z</time>
      </trkpt>
      <trkpt lat="46.506664277985692" lon="6.667573386803269">
        <ele>382</ele>
        <time>2014-05-17T06:49:28Z</time>
      </trkpt>
      <trkpt lat="46.506829652935266" lon="6.667070807889104">
        <ele>382</ele>
        <time>2014-05-17T06:49:34Z</time>
      </trkpt>
      <trkpt lat="46.506953118368983" lon="6.666697897017002">
        <ele>380.79998779296875</ele>
        <time>2014-05-17T06:49:38Z</time>
      </trkpt>
      <trkpt lat="46.507047666236758" lon="6.666396567597985">
        <ele>379.60000610351562</ele>
        <time>2014-05-17T06:49:41Z</time>
      </trkpt>
      <trkpt lat="46.507079936563969" lon="6.66629271581769">
        <ele>379</ele>
        <time>2014-05-17T06:49:42Z</time>
      </trkpt>
      <trkpt lat="46.507137352600694" lon="6.666075875982642">
        <ele>378.39999389648437</ele>
        <time>2014-05-17T06:49:44Z</time>
      </trkpt>
      <trkpt lat="46.507192337885499" lon="6.665737582370639">
        <ele>377.79998779296875</ele>
        <time>2014-05-17T06:49:47Z</time>
      </trkpt>
      <trkpt lat="46.507249334827065" lon="6.665103491395712">
        <ele>379.39999389648437</ele>
        <time>2014-05-17T06:49:53Z</time>
      </trkpt>
      <trkpt lat="46.507229721173644" lon="6.664483230561018">
        <ele>379.39999389648437</ele>
        <time>2014-05-17T06:49:59Z</time>
      </trkpt>
      <trkpt lat="46.507203318178654" lon="6.66427125222981">
        <ele>380.79998779296875</ele>
        <time>2014-05-17T06:50:01Z</time>
      </trkpt>
      <trkpt lat="46.507143890485168" lon="6.663944106549025">
        <ele>379.60000610351562</ele>
        <time>2014-05-17T06:50:04Z</time>
      </trkpt>
      <trkpt lat="46.507097706198692" lon="6.663724416866899">
        <ele>379.39999389648437</ele>
        <time>2014-05-17T06:50:06Z</time>
      </trkpt>
      <trkpt lat="46.507056718692183" lon="6.663494417443872">
        <ele>378.60000610351562</ele>
        <time>2014-05-17T06:50:08Z</time>
      </trkpt>
      <trkpt lat="46.506933085620403" lon="6.662832163274288">
        <ele>378.39999389648437</ele>
        <time>2014-05-17T06:50:14Z</time>
      </trkpt>
      <trkpt lat="46.506769470870495" lon="6.662012413144112">
        <ele>379.20001220703125</ele>
        <time>2014-05-17T06:50:22Z</time>
      </trkpt>
      <trkpt lat="46.506687579676509" lon="6.661231471225619">
        <ele>378</ele>
        <time>2014-05-17T06:50:29Z</time>
      </trkpt>
      <trkpt lat="46.50668422691524" lon="6.661001052707434">
        <ele>377.60000610351562</ele>
        <time>2014-05-17T06:50:31Z</time>
      </trkpt>
      <trkpt lat="46.506715407595038" lon="6.660538539290428">
        <ele>377.79998779296875</ele>
        <time>2014-05-17T06:50:35Z</time>
      </trkpt>
      <trkpt lat="46.506808614358306" lon="6.659763883799315">
        <ele>376.79998779296875</ele>
        <time>2014-05-17T06:50:42Z</time>
      </trkpt>
      <trkpt lat="46.506822947412729" lon="6.659655505791307">
        <ele>376.60000610351562</ele>
        <time>2014-05-17T06:50:43Z</time>
      </trkpt>
      <trkpt lat="46.506834933534265" lon="6.659544780850411">
        <ele>376.60000610351562</ele>
        <time>2014-05-17T06:50:44Z</time>
      </trkpt>
      <trkpt lat="46.506849434226751" lon="6.65889342315495">
        <ele>375.39999389648437</ele>
        <time>2014-05-17T06:50:50Z</time>
      </trkpt>
      <trkpt lat="46.506778774783015" lon="6.658049952238798">
        <ele>376</ele>
        <time>2014-05-17T06:50:58Z</time>
      </trkpt>
      <trkpt lat="46.506768967956305" lon="6.65794987231493">
        <ele>376.60000610351562</ele>
        <time>2014-05-17T06:50:59Z</time>
      </trkpt>
      <trkpt lat="46.506716413423419" lon="6.657350230962038">
        <ele>377.79998779296875</ele>
        <time>2014-05-17T06:51:05Z</time>
      </trkpt>
      <trkpt lat="46.506642485037446" lon="6.656528804451227">
        <ele>377.60000610351562</ele>
        <time>2014-05-17T06:51:13Z</time>
      </trkpt>
      <trkpt lat="46.506633851677179" lon="6.656428724527359">
        <ele>378.39999389648437</ele>
        <time>2014-05-17T06:51:14Z</time>
      </trkpt>
      <trkpt lat="46.506625218316913" lon="6.656331242993474">
        <ele>378.79998779296875</ele>
        <time>2014-05-17T06:51:15Z</time>
      </trkpt>
      <trkpt lat="46.506571071222425" lon="6.655673766508699">
        <ele>379.39999389648437</ele>
        <time>2014-05-17T06:51:22Z</time>
      </trkpt>
      <trkpt lat="46.506558246910572" lon="6.655498584732413">
        <ele>380</ele>
        <time>2014-05-17T06:51:24Z</time>
      </trkpt>
      <trkpt lat="46.506499154493213" lon="6.654860973358154">
        <ele>380.79998779296875</ele>
        <time>2014-05-17T06:51:31Z</time>
      </trkpt>
      <trkpt lat="46.506470907479525" lon="6.65458126924932">
        <ele>381</ele>
        <time>2014-05-17T06:51:34Z</time>
      </trkpt>
      <trkpt lat="46.506441067904234" lon="6.654020352289081">
        <ele>380</ele>
        <time>2014-05-17T06:51:40Z</time>
      </trkpt>
      <trkpt lat="46.506407791748643" lon="6.653433116152883">
        <ele>380.20001220703125</ele>
        <time>2014-05-17T06:51:46Z</time>
      </trkpt>
      <trkpt lat="46.506424555554986" lon="6.652739010751247">
        <ele>379.60000610351562</ele>
        <time>2014-05-17T06:51:52Z</time>
      </trkpt>
      <trkpt lat="46.506444253027439" lon="6.652090419083834">
        <ele>378.79998779296875</ele>
        <time>2014-05-17T06:51:57Z</time>
      </trkpt>
      <trkpt lat="46.506443750113249" lon="6.651810882613063">
        <ele>378.60000610351562</ele>
        <time>2014-05-17T06:51:59Z</time>
      </trkpt>
      <trkpt lat="46.506445594131947" lon="6.651527071371675">
        <ele>377.39999389648437</ele>
        <time>2014-05-17T06:52:01Z</time>
      </trkpt>
      <trkpt lat="46.506452467292547" lon="6.650933800265193">
        <ele>376</ele>
        <time>2014-05-17T06:52:05Z</time>
      </trkpt>
      <trkpt lat="46.506453137844801" lon="6.650644708424807">
        <ele>375.60000610351562</ele>
        <time>2014-05-17T06:52:07Z</time>
      </trkpt>
      <trkpt lat="46.50645942427218" lon="6.650356119498611">
        <ele>374.60000610351562</ele>
        <time>2014-05-17T06:52:09Z</time>
      </trkpt>
      <trkpt lat="46.506476439535618" lon="6.649671569466591">
        <ele>374.79998779296875</ele>
        <time>2014-05-17T06:52:14Z</time>
      </trkpt>
      <trkpt lat="46.506503010168672" lon="6.648791134357452">
        <ele>376</ele>
        <time>2014-05-17T06:52:21Z</time>
      </trkpt>
      <trkpt lat="46.506514241918921" lon="6.64792126044631">
        <ele>376.39999389648438</ele>
        <time>2014-05-17T06:52:28Z</time>
      </trkpt>
      <trkpt lat="46.506519271060824" lon="6.647807769477367">
        <ele>376.39999389648438</ele>
        <time>2014-05-17T06:52:29Z</time>
      </trkpt>
      <trkpt lat="46.506533268839121" lon="6.646999837830663">
        <ele>376.60000610351562</ele>
        <time>2014-05-17T06:52:36Z</time>
      </trkpt>
      <trkpt lat="46.506536705419421" lon="6.646889615803957">
        <ele>376.20001220703125</ele>
        <time>2014-05-17T06:52:37Z</time>
      </trkpt>
      <trkpt lat="46.506548020988703" lon="6.646158462390304">
        <ele>377.39999389648437</ele>
        <time>2014-05-17T06:52:44Z</time>
      </trkpt>
      <trkpt lat="46.506571490317583" lon="6.645320691168308">
        <ele>377.79998779296875</ele>
        <time>2014-05-17T06:52:52Z</time>
      </trkpt>
      <trkpt lat="46.506578866392374" lon="6.645217342302203">
        <ele>377.79998779296875</ele>
        <time>2014-05-17T06:52:53Z</time>
      </trkpt>
      <trkpt lat="46.506563611328602" lon="6.644584340974689">
        <ele>378.39999389648437</ele>
        <time>2014-05-17T06:52:59Z</time>
      </trkpt>
      <trkpt lat="46.506567131727934" lon="6.643905909731984">
        <ele>378.20001220703125</ele>
        <time>2014-05-17T06:53:05Z</time>
      </trkpt>
      <trkpt lat="46.506574507802725" lon="6.643299479037523">
        <ele>378.60000610351562</ele>
        <time>2014-05-17T06:53:11Z</time>
      </trkpt>
      <trkpt lat="46.506580794230103" lon="6.642998736351728">
        <ele>379.39999389648437</ele>
        <time>2014-05-17T06:53:15Z</time>
      </trkpt>
      <trkpt lat="46.506584230810404" lon="6.642944673076272">
        <ele>379.60000610351562</ele>
        <time>2014-05-17T06:53:16Z</time>
      </trkpt>
      <trkpt lat="46.506576854735613" lon="6.642594309523702">
        <ele>379.39999389648437</ele>
        <time>2014-05-17T06:53:21Z</time>
      </trkpt>
      <trkpt lat="46.506553972139955" lon="6.642524236813188">
        <ele>379.39999389648437</ele>
        <time>2014-05-17T06:53:22Z</time>
      </trkpt>
      <trkpt lat="46.506457747891545" lon="6.642449302598834">
        <ele>378.79998779296875</ele>
        <time>2014-05-17T06:53:24Z</time>
      </trkpt>
      <trkpt lat="46.506343418732285" lon="6.642394317314029">
        <ele>378.60000610351562</ele>
        <time>2014-05-17T06:53:26Z</time>
      </trkpt>
      <trkpt lat="46.506278878077865" lon="6.642364310100675">
        <ele>378.20001220703125</ele>
        <time>2014-05-17T06:53:27Z</time>
      </trkpt>
      <trkpt lat="46.506140911951661" lon="6.642297087237239">
        <ele>377.39999389648437</ele>
        <time>2014-05-17T06:53:29Z</time>
      </trkpt>
      <trkpt lat="46.50606706738472" lon="6.642263140529394">
        <ele>376.79998779296875</ele>
        <time>2014-05-17T06:53:30Z</time>
      </trkpt>
      <trkpt lat="46.505915019661188" lon="6.642179824411869">
        <ele>375.39999389648437</ele>
        <time>2014-05-17T06:53:32Z</time>
      </trkpt>
      <trkpt lat="46.505760122090578" lon="6.642093742266297">
        <ele>374</ele>
        <time>2014-05-17T06:53:34Z</time>
      </trkpt>
      <trkpt lat="46.505678817629814" lon="6.64205283857882">
        <ele>373.39999389648438</ele>
        <time>2014-05-17T06:53:35Z</time>
      </trkpt>
      <trkpt lat="46.505525261163712" lon="6.641929373145104">
        <ele>372.60000610351562</ele>
        <time>2014-05-17T06:53:37Z</time>
      </trkpt>
      <trkpt lat="46.505398023873568" lon="6.641753520816565">
        <ele>371.60000610351562</ele>
        <time>2014-05-17T06:53:39Z</time>
      </trkpt>
      <trkpt lat="46.505278665572405" lon="6.6414166521281">
        <ele>371.60000610351562</ele>
        <time>2014-05-17T06:53:42Z</time>
      </trkpt>
      <trkpt lat="46.505275145173073" lon="6.641027731820941">
        <ele>370.60000610351562</ele>
        <time>2014-05-17T06:53:45Z</time>
      </trkpt>
      <trkpt lat="46.505294339731336" lon="6.64090309292078">
        <ele>370.39999389648438</ele>
        <time>2014-05-17T06:53:46Z</time>
      </trkpt>
      <trkpt lat="46.505349241197109" lon="6.640669908374548">
        <ele>370.39999389648438</ele>
        <time>2014-05-17T06:53:48Z</time>
      </trkpt>
      <trkpt lat="46.505375979468226" lon="6.640560021623969">
        <ele>370.20001220703125</ele>
        <time>2014-05-17T06:53:49Z</time>
      </trkpt>
      <trkpt lat="46.505554094910622" lon="6.639974126592279">
        <ele>370.39999389648438</ele>
        <time>2014-05-17T06:53:55Z</time>
      </trkpt>
      <trkpt lat="46.505728522315621" lon="6.63930089212954">
        <ele>371</ele>
        <time>2014-05-17T06:54:02Z</time>
      </trkpt>
      <trkpt lat="46.50586380623281" lon="6.63873746059835">
        <ele>370.79998779296875</ele>
        <time>2014-05-17T06:54:08Z</time>
      </trkpt>
      <trkpt lat="46.505926083773375" lon="6.638630842790008">
        <ele>371.20001220703125</ele>
        <time>2014-05-17T06:54:10Z</time>
      </trkpt>
      <trkpt lat="46.505965227261186" lon="6.638601673766971">
        <ele>371.60000610351562</ele>
        <time>2014-05-17T06:54:11Z</time>
      </trkpt>
      <trkpt lat="46.506012585014105" lon="6.63841936737299">
        <ele>371.79998779296875</ele>
        <time>2014-05-17T06:54:14Z</time>
      </trkpt>
      <trkpt lat="46.506052482873201" lon="6.638280395418406">
        <ele>371.39999389648437</ele>
        <time>2014-05-17T06:54:16Z</time>
      </trkpt>
      <trkpt lat="46.506113419309258" lon="6.63806707598269">
        <ele>370.79998779296875</ele>
        <time>2014-05-17T06:54:19Z</time>
      </trkpt>
      <trkpt lat="46.50617703795433" lon="6.637848811224103">
        <ele>370.39999389648438</ele>
        <time>2014-05-17T06:54:22Z</time>
      </trkpt>
      <trkpt lat="46.506251720711589" lon="6.637553349137306">
        <ele>370.60000610351562</ele>
        <time>2014-05-17T06:54:26Z</time>
      </trkpt>
      <trkpt lat="46.506434362381697" lon="6.636858992278576">
        <ele>370.79998779296875</ele>
        <time>2014-05-17T06:54:35Z</time>
      </trkpt>
      <trkpt lat="46.506543578580022" lon="6.636361945420504">
        <ele>370.60000610351562</ele>
        <time>2014-05-17T06:54:41Z</time>
      </trkpt>
      <trkpt lat="46.506696632131934" lon="6.63577982224524">
        <ele>370.79998779296875</ele>
        <time>2014-05-17T06:54:48Z</time>
      </trkpt>
      <trkpt lat="46.506821773946285" lon="6.635274225845933">
        <ele>370.79998779296875</ele>
        <time>2014-05-17T06:54:54Z</time>
      </trkpt>
      <trkpt lat="46.506979772821069" lon="6.634675255045295">
        <ele>371</ele>
        <time>2014-05-17T06:55:01Z</time>
      </trkpt>
      <trkpt lat="46.507081277668476" lon="6.634279545396566">
        <ele>371</ele>
        <time>2014-05-17T06:55:06Z</time>
      </trkpt>
      <trkpt lat="46.50710005313158" lon="6.634192457422614">
        <ele>371.20001220703125</ele>
        <time>2014-05-17T06:55:07Z</time>
      </trkpt>
      <trkpt lat="46.507103322073817" lon="6.634095227345824">
        <ele>371.20001220703125</ele>
        <time>2014-05-17T06:55:08Z</time>
      </trkpt>
      <trkpt lat="46.507144309580326" lon="6.633902192115784">
        <ele>371</ele>
        <time>2014-05-17T06:55:10Z</time>
      </trkpt>
      <trkpt lat="46.507300212979317" lon="6.633223090320826">
        <ele>370.60000610351562</ele>
        <time>2014-05-17T06:55:17Z</time>
      </trkpt>
      <trkpt lat="46.507376739755273" lon="6.632614312693477">
        <ele>370.60000610351562</ele>
        <time>2014-05-17T06:55:23Z</time>
      </trkpt>
      <trkpt lat="46.507356120273471" lon="6.631960943341255">
        <ele>370</ele>
        <time>2014-05-17T06:55:29Z</time>
      </trkpt>
      <trkpt lat="46.507252687588334" lon="6.631333725526929">
        <ele>369.60000610351562</ele>
        <time>2014-05-17T06:55:35Z</time>
      </trkpt>
      <trkpt lat="46.507127964869142" lon="6.630847826600075">
        <ele>370</ele>
        <time>2014-05-17T06:55:40Z</time>
      </trkpt>
      <trkpt lat="46.507084965705872" lon="6.630662251263857">
        <ele>370</ele>
        <time>2014-05-17T06:55:42Z</time>
      </trkpt>
      <trkpt lat="46.507034590467811" lon="6.630490841343999">
        <ele>370.39999389648438</ele>
        <time>2014-05-17T06:55:44Z</time>
      </trkpt>
      <trkpt lat="46.506967870518565" lon="6.630243072286248">
        <ele>370.39999389648438</ele>
        <time>2014-05-17T06:55:47Z</time>
      </trkpt>
      <trkpt lat="46.506912717595696" lon="6.62975599989295">
        <ele>370.39999389648438</ele>
        <time>2014-05-17T06:55:53Z</time>
      </trkpt>
      <trkpt lat="46.506915567442775" lon="6.629676623269916">
        <ele>370.60000610351562</ele>
        <time>2014-05-17T06:55:54Z</time>
      </trkpt>
      <trkpt lat="46.506924284622073" lon="6.629531197249889">
        <ele>370.79998779296875</ele>
        <time>2014-05-17T06:55:56Z</time>
      </trkpt>
      <trkpt lat="46.506934845820069" lon="6.629386693239212">
        <ele>370.79998779296875</ele>
        <time>2014-05-17T06:55:58Z</time>
      </trkpt>
      <trkpt lat="46.506957979872823" lon="6.628774981945753">
        <ele>370.60000610351562</ele>
        <time>2014-05-17T06:56:06Z</time>
      </trkpt>
      <trkpt lat="46.506983628496528" lon="6.628174586221576">
        <ele>371.39999389648437</ele>
        <time>2014-05-17T06:56:14Z</time>
      </trkpt>
      <trkpt lat="46.506977090612054" lon="6.628115745261312">
        <ele>371.60000610351562</ele>
        <time>2014-05-17T06:56:15Z</time>
      </trkpt>
      <trkpt lat="46.506930571049452" lon="6.628033351153135">
        <ele>372</ele>
        <time>2014-05-17T06:56:17Z</time>
      </trkpt>
      <trkpt lat="46.506802076473832" lon="6.627980126067996">
        <ele>371.79998779296875</ele>
        <time>2014-05-17T06:56:21Z</time>
      </trkpt>
      <trkpt lat="46.506766537204385" lon="6.627976857125759">
        <ele>371.79998779296875</ele>
        <time>2014-05-17T06:56:22Z</time>
      </trkpt>
      <trkpt lat="46.506595546379685" lon="6.627885075286031">
        <ele>371.60000610351562</ele>
        <time>2014-05-17T06:56:27Z</time>
      </trkpt>
      <trkpt lat="46.506312154233456" lon="6.627692291513085">
        <ele>371.39999389648437</ele>
        <time>2014-05-17T06:56:35Z</time>
      </trkpt>
      <trkpt lat="46.50612180121243" lon="6.627566395327449">
        <ele>371.79998779296875</ele>
        <time>2014-05-17T06:56:41Z</time>
      </trkpt>
      <trkpt lat="46.505994396284223" lon="6.627528676763177">
        <ele>371.79998779296875</ele>
        <time>2014-05-17T06:56:45Z</time>
      </trkpt>
      <trkpt lat="46.505785686895251" lon="6.627566060051322">
        <ele>372</ele>
        <time>2014-05-17T06:56:52Z</time>
      </trkpt>
      <trkpt lat="46.505634477362037" lon="6.627607131376863">
        <ele>372.20001220703125</ele>
        <time>2014-05-17T06:56:58Z</time>
      </trkpt>
      <trkpt lat="46.505497517064214" lon="6.627685083076358">
        <ele>372.39999389648437</ele>
        <time>2014-05-17T06:57:04Z</time>
      </trkpt>
      <trkpt lat="46.505355443805456" lon="6.627731854096055">
        <ele>372.20001220703125</ele>
        <time>2014-05-17T06:57:10Z</time>
      </trkpt>
      <trkpt lat="46.505145225673914" lon="6.627700757235289">
        <ele>371.79998779296875</ele>
        <time>2014-05-17T06:57:17Z</time>
      </trkpt>
      <trkpt lat="46.505082780495286" lon="6.62778097204864">
        <ele>371.79998779296875</ele>
        <time>2014-05-17T06:59:18Z</time>
      </trkpt>
      <trkpt lat="46.504999129101634" lon="6.627900246530771">
        <ele>371.79998779296875</ele>
        <time>2014-05-17T06:59:25Z</time>
      </trkpt>
      <trkpt lat="46.504885302856565" lon="6.62789823487401">
        <ele>371.79998779296875</ele>
        <time>2014-05-17T06:59:30Z</time>
      </trkpt>
      <trkpt lat="46.504818079993129" lon="6.62778533063829">
        <ele>371.39999389648437</ele>
        <time>2014-05-17T06:59:35Z</time>
      </trkpt>
      <trkpt lat="46.504788994789124" lon="6.627731183543801">
        <ele>371.39999389648437</ele>
        <time>2014-05-17T06:59:37Z</time>
      </trkpt>
      <trkpt lat="46.504763010889292" lon="6.627606712281704">
        <ele>371.79998779296875</ele>
        <time>2014-05-17T07:00:19Z</time>
      </trkpt>
      <trkpt lat="46.504754209890962" lon="6.627544434741139">
        <ele>371.79998779296875</ele>
        <time>2014-05-17T07:00:22Z</time>
      </trkpt>
      <trkpt lat="46.401508105918765" lon="6.59492701292038">
        <ele>348.39999389648437</ele>
        <time>2014-05-17T08:02:56Z</time>
      </trkpt>
      <trkpt lat="46.40147658996284" lon="6.59494411200285">
        <ele>348.60000610351562</ele>
        <time>2014-05-17T08:03:11Z</time>
      </trkpt>
      <trkpt lat="46.401465609669685" lon="6.59491921775043">
        <ele>348.60000610351562</ele>
        <time>2014-05-17T08:03:13Z</time>
      </trkpt>
      <trkpt lat="46.401467956602573" lon="6.594898346811533">
        <ele>348.39999389648437</ele>
        <time>2014-05-17T08:03:14Z</time>
      </trkpt>
      <trkpt lat="46.401471393182874" lon="6.594796841964126">
        <ele>348.60000610351562</ele>
        <time>2014-05-17T08:03:18Z</time>
      </trkpt>
      <trkpt lat="46.401461837813258" lon="6.59459869377315">
        <ele>348.20001220703125</ele>
        <time>2014-05-17T08:03:22Z</time>
      </trkpt>
      <trkpt lat="46.401449516415596" lon="6.594412866979837">
        <ele>348</ele>
        <time>2014-05-17T08:03:25Z</time>
      </trkpt>
      <trkpt lat="46.401445241644979" lon="6.594189489260316">
        <ele>347.79998779296875</ele>
        <time>2014-05-17T08:03:28Z</time>
      </trkpt>
      <trkpt lat="46.401452533900738" lon="6.594106173142791">
        <ele>347.60000610351562</ele>
        <time>2014-05-17T08:03:29Z</time>
      </trkpt>
      <trkpt lat="46.40148245729506" lon="6.593753965571523">
        <ele>347.39999389648437</ele>
        <time>2014-05-17T08:03:33Z</time>
      </trkpt>
      <trkpt lat="46.401593182235956" lon="6.593034379184246">
        <ele>346.79998779296875</ele>
        <time>2014-05-17T08:03:41Z</time>
      </trkpt>
      <trkpt lat="46.40168571844697" lon="6.592693068087101">
        <ele>346.20001220703125</ele>
        <time>2014-05-17T08:03:45Z</time>
      </trkpt>
      <trkpt lat="46.40176098793745" lon="6.592341614887118">
        <ele>346.60000610351562</ele>
        <time>2014-05-17T08:03:49Z</time>
      </trkpt>
      <trkpt lat="46.401953184977174" lon="6.591573916375637">
        <ele>346.79998779296875</ele>
        <time>2014-05-17T08:03:58Z</time>
      </trkpt>
      <trkpt lat="46.401968523859978" lon="6.591487918049097">
        <ele>347</ele>
        <time>2014-05-17T08:03:59Z</time>
      </trkpt>
      <trkpt lat="46.402064999565482" lon="6.590766655281186">
        <ele>346.60000610351562</ele>
        <time>2014-05-17T08:04:07Z</time>
      </trkpt>
      <trkpt lat="46.402122164145112" lon="6.590045727789402">
        <ele>346.60000610351562</ele>
        <time>2014-05-17T08:04:15Z</time>
      </trkpt>
      <trkpt lat="46.402147561311722" lon="6.589327314868569">
        <ele>346.60000610351562</ele>
        <time>2014-05-17T08:04:23Z</time>
      </trkpt>
      <trkpt lat="46.402117470279336" lon="6.588606806471944">
        <ele>346.60000610351562</ele>
        <time>2014-05-17T08:04:31Z</time>
      </trkpt>
      <trkpt lat="46.402024598792195" lon="6.587793175131083">
        <ele>346.60000610351562</ele>
        <time>2014-05-17T08:04:40Z</time>
      </trkpt>
      <trkpt lat="46.402006996795535" lon="6.587704410776496">
        <ele>346.60000610351562</ele>
        <time>2014-05-17T08:04:41Z</time>
      </trkpt>
      <trkpt lat="46.401923261582851" lon="6.587263438850641">
        <ele>346.39999389648437</ele>
        <time>2014-05-17T08:04:46Z</time>
      </trkpt>
      <trkpt lat="46.401913454756141" lon="6.587081048637629">
        <ele>346.39999389648437</ele>
        <time>2014-05-17T08:04:48Z</time>
      </trkpt>
      <trkpt lat="46.401840196922421" lon="6.586828753352165">
        <ele>346.60000610351562</ele>
        <time>2014-05-17T08:04:51Z</time>
      </trkpt>
      <trkpt lat="46.401818739250302" lon="6.58674300648272">
        <ele>346.60000610351562</ele>
        <time>2014-05-17T08:04:52Z</time>
      </trkpt>
      <trkpt lat="46.401719581335783" lon="6.586223663762212">
        <ele>346.79998779296875</ele>
        <time>2014-05-17T08:04:58Z</time>
      </trkpt>
      <trkpt lat="46.40151615254581" lon="6.585563002154231">
        <ele>346.39999389648437</ele>
        <time>2014-05-17T08:05:06Z</time>
      </trkpt>
      <trkpt lat="46.401479607447982" lon="6.585486559197307">
        <ele>346.39999389648437</ele>
        <time>2014-05-17T08:05:07Z</time>
      </trkpt>
      <trkpt lat="46.401317333802581" lon="6.585175422951579">
        <ele>347.20001220703125</ele>
        <time>2014-05-17T08:05:11Z</time>
      </trkpt>
      <trkpt lat="46.40124742873013" lon="6.585000073537231">
        <ele>347</ele>
        <time>2014-05-17T08:05:13Z</time>
      </trkpt>
      <trkpt lat="46.401174673810601" lon="6.584831262007356">
        <ele>347.20001220703125</ele>
        <time>2014-05-17T08:05:15Z</time>
      </trkpt>
      <trkpt lat="46.4011384639889" lon="6.584749286994338">
        <ele>347.20001220703125</ele>
        <time>2014-05-17T08:05:16Z</time>
      </trkpt>
      <trkpt lat="46.400962276384234" lon="6.584378052502871">
        <ele>348.60000610351562</ele>
        <time>2014-05-17T08:05:21Z</time>
      </trkpt>
      <trkpt lat="46.400890694931149" lon="6.584249222651124">
        <ele>349.20001220703125</ele>
        <time>2014-05-17T08:05:23Z</time>
      </trkpt>
      <trkpt lat="46.400859765708447" lon="6.584189292043448">
        <ele>349.60000610351562</ele>
        <time>2014-05-17T08:05:24Z</time>
      </trkpt>
      <trkpt lat="46.400737976655364" lon="6.583921993151307">
        <ele>350.60000610351562</ele>
        <time>2014-05-17T08:05:28Z</time>
      </trkpt>
      <trkpt lat="46.400712579488754" lon="6.583856111392379">
        <ele>351</ele>
        <time>2014-05-17T08:05:29Z</time>
      </trkpt>
      <trkpt lat="46.400599591434002" lon="6.583593590185046">
        <ele>351.79998779296875</ele>
        <time>2014-05-17T08:05:33Z</time>
      </trkpt>
      <trkpt lat="46.400532033294439" lon="6.583462748676539">
        <ele>352.39999389648437</ele>
        <time>2014-05-17T08:05:35Z</time>
      </trkpt>
      <trkpt lat="46.400494566187263" lon="6.583399632945657">
        <ele>352.79998779296875</ele>
        <time>2014-05-17T08:05:36Z</time>
      </trkpt>
      <trkpt lat="46.400460200384259" lon="6.583339786157012">
        <ele>353.20001220703125</ele>
        <time>2014-05-17T08:05:37Z</time>
      </trkpt>
      <trkpt lat="46.400329945608974" lon="6.583081455901265">
        <ele>354.39999389648437</ele>
        <time>2014-05-17T08:05:41Z</time>
      </trkpt>
      <trkpt lat="46.400266075506806" lon="6.582947932183743">
        <ele>354.79998779296875</ele>
        <time>2014-05-17T08:05:43Z</time>
      </trkpt>
      <trkpt lat="46.400114446878433" lon="6.582613661885262">
        <ele>355.60000610351562</ele>
        <time>2014-05-17T08:05:48Z</time>
      </trkpt>
      <trkpt lat="46.400025011971593" lon="6.582412580028176">
        <ele>356.60000610351562</ele>
        <time>2014-05-17T08:05:51Z</time>
      </trkpt>
      <trkpt lat="46.399993831291795" lon="6.582347704097629">
        <ele>356.60000610351562</ele>
        <time>2014-05-17T08:05:52Z</time>
      </trkpt>
      <trkpt lat="46.399902887642384" lon="6.582156848162413">
        <ele>357.20001220703125</ele>
        <time>2014-05-17T08:05:55Z</time>
      </trkpt>
      <trkpt lat="46.399819739162922" lon="6.581980492919684">
        <ele>357.79998779296875</ele>
        <time>2014-05-17T08:05:58Z</time>
      </trkpt>
      <trkpt lat="46.399790234863758" lon="6.58192366361618">
        <ele>358.20001220703125</ele>
        <time>2014-05-17T08:05:59Z</time>
      </trkpt>
      <trkpt lat="46.399737009778619" lon="6.581805059686303">
        <ele>358.79998779296875</ele>
        <time>2014-05-17T08:06:01Z</time>
      </trkpt>
      <trkpt lat="46.39956115745008" lon="6.581369452178478">
        <ele>360</ele>
        <time>2014-05-17T08:06:08Z</time>
      </trkpt>
      <trkpt lat="46.399433668702841" lon="6.580976005643606">
        <ele>361</ele>
        <time>2014-05-17T08:06:14Z</time>
      </trkpt>
      <trkpt lat="46.399416318163276" lon="6.580904508009553">
        <ele>361</ele>
        <time>2014-05-17T08:06:15Z</time>
      </trkpt>
      <trkpt lat="46.399339539930224" lon="6.580449119210243">
        <ele>361.79998779296875</ele>
        <time>2014-05-17T08:06:21Z</time>
      </trkpt>
      <trkpt lat="46.399326380342245" lon="6.580370664596558">
        <ele>362</ele>
        <time>2014-05-17T08:06:22Z</time>
      </trkpt>
      <trkpt lat="46.399272903800011" lon="6.579978978261352">
        <ele>363.20001220703125</ele>
        <time>2014-05-17T08:06:27Z</time>
      </trkpt>
      <trkpt lat="46.399231078103185" lon="6.579660382121801">
        <ele>363.60000610351562</ele>
        <time>2014-05-17T08:06:31Z</time>
      </trkpt>
      <trkpt lat="46.399139882996678" lon="6.579015059396625">
        <ele>364.20001220703125</ele>
        <time>2014-05-17T08:06:39Z</time>
      </trkpt>
      <trkpt lat="46.399033851921558" lon="6.57828432507813">
        <ele>365.39999389648437</ele>
        <time>2014-05-17T08:06:48Z</time>
      </trkpt>
      <trkpt lat="46.398956989869475" lon="6.577733717858791">
        <ele>366</ele>
        <time>2014-05-17T08:06:55Z</time>
      </trkpt>
      <trkpt lat="46.398921618238091" lon="6.577345971018076">
        <ele>366.39999389648437</ele>
        <time>2014-05-17T08:07:00Z</time>
      </trkpt>
      <trkpt lat="46.39893569983542" lon="6.577265672385693">
        <ele>366.39999389648437</ele>
        <time>2014-05-17T08:07:01Z</time>
      </trkpt>
      <trkpt lat="46.398967551067472" lon="6.576929977163672">
        <ele>366.20001220703125</ele>
        <time>2014-05-17T08:07:05Z</time>
      </trkpt>
      <trkpt lat="46.39896453358233" lon="6.576839871704578">
        <ele>366.39999389648437</ele>
        <time>2014-05-17T08:07:06Z</time>
      </trkpt>
      <trkpt lat="46.398953134194016" lon="6.576750436797738">
        <ele>366.20001220703125</ele>
        <time>2014-05-17T08:07:07Z</time>
      </trkpt>
      <trkpt lat="46.398860849440098" lon="6.576493615284562">
        <ele>366</ele>
        <time>2014-05-17T08:07:10Z</time>
      </trkpt>
      <trkpt lat="46.39882187359035" lon="6.576411304995418">
        <ele>366</ele>
        <time>2014-05-17T08:07:11Z</time>
      </trkpt>
      <trkpt lat="46.398688517510891" lon="6.575964465737343">
        <ele>366.20001220703125</ele>
        <time>2014-05-17T08:07:16Z</time>
      </trkpt>
      <trkpt lat="46.398606961593032" lon="6.575358035042882">
        <ele>366.20001220703125</ele>
        <time>2014-05-17T08:07:22Z</time>
      </trkpt>
      <trkpt lat="46.398507552221417" lon="6.574707264080644">
        <ele>365</ele>
        <time>2014-05-17T08:07:28Z</time>
      </trkpt>
      <trkpt lat="46.398493302986026" lon="6.574594359844923">
        <ele>364.79998779296875</ele>
        <time>2014-05-17T08:07:29Z</time>
      </trkpt>
      <trkpt lat="46.398392049595714" lon="6.573808724060655">
        <ele>364.20001220703125</ele>
        <time>2014-05-17T08:07:36Z</time>
      </trkpt>
      <trkpt lat="46.398330023512244" lon="6.573476465418935">
        <ele>364.20001220703125</ele>
        <time>2014-05-17T08:07:39Z</time>
      </trkpt>
      <trkpt lat="46.398243354633451" lon="6.572919823229313">
        <ele>364</ele>
        <time>2014-05-17T08:07:44Z</time>
      </trkpt>
      <trkpt lat="46.398171270266175" lon="6.572601059451699">
        <ele>363.79998779296875</ele>
        <time>2014-05-17T08:07:47Z</time>
      </trkpt>
      <trkpt lat="46.398043446242809" lon="6.571825817227364">
        <ele>363.39999389648437</ele>
        <time>2014-05-17T08:07:54Z</time>
      </trkpt>
      <trkpt lat="46.397997345775366" lon="6.57149632461369">
        <ele>363.39999389648437</ele>
        <time>2014-05-17T08:07:57Z</time>
      </trkpt>
      <trkpt lat="46.397938001900911" lon="6.571055017411709">
        <ele>364.20001220703125</ele>
        <time>2014-05-17T08:08:01Z</time>
      </trkpt>
      <trkpt lat="46.397831048816442" lon="6.570279188454151">
        <ele>363.79998779296875</ele>
        <time>2014-05-17T08:08:08Z</time>
      </trkpt>
      <trkpt lat="46.397798443213105" lon="6.570057151839137">
        <ele>364</ele>
        <time>2014-05-17T08:08:10Z</time>
      </trkpt>
      <trkpt lat="46.397682270035148" lon="6.569251483306289">
        <ele>364.20001220703125</ele>
        <time>2014-05-17T08:08:17Z</time>
      </trkpt>
      <trkpt lat="46.397645473480225" lon="6.569025004282594">
        <ele>364</ele>
        <time>2014-05-17T08:08:19Z</time>
      </trkpt>
      <trkpt lat="46.397529048845172" lon="6.568242637440562">
        <ele>363.39999389648437</ele>
        <time>2014-05-17T08:08:26Z</time>
      </trkpt>
      <trkpt lat="46.397511446848512" lon="6.568132331594825">
        <ele>363.60000610351562</ele>
        <time>2014-05-17T08:08:27Z</time>
      </trkpt>
      <trkpt lat="46.397402985021472" lon="6.567379720509052">
        <ele>363.79998779296875</ele>
        <time>2014-05-17T08:08:34Z</time>
      </trkpt>
      <trkpt lat="46.397337857633829" lon="6.566881835460663">
        <ele>364.79998779296875</ele>
        <time>2014-05-17T08:08:39Z</time>
      </trkpt>
      <trkpt lat="46.397216487675905" lon="6.566024869680405">
        <ele>365</ele>
        <time>2014-05-17T08:08:47Z</time>
      </trkpt>
      <trkpt lat="46.397135686129332" lon="6.565478872507811">
        <ele>365</ele>
        <time>2014-05-17T08:08:52Z</time>
      </trkpt>
      <trkpt lat="46.397087657824159" lon="6.56513387337327">
        <ele>364.39999389648437</ele>
        <time>2014-05-17T08:08:55Z</time>
      </trkpt>
      <trkpt lat="46.397035857662559" lon="6.564789796248078">
        <ele>364.60000610351562</ele>
        <time>2014-05-17T08:08:58Z</time>
      </trkpt>
      <trkpt lat="46.396967377513647" lon="6.564326360821724">
        <ele>364.60000610351562</ele>
        <time>2014-05-17T08:09:02Z</time>
      </trkpt>
      <trkpt lat="46.396906860172749" lon="6.563874827697873">
        <ele>364</ele>
        <time>2014-05-17T08:09:06Z</time>
      </trkpt>
      <trkpt lat="46.396863274276257" lon="6.563542988151312">
        <ele>363.79998779296875</ele>
        <time>2014-05-17T08:09:09Z</time>
      </trkpt>
      <trkpt lat="46.396756824105978" lon="6.562815103679895">
        <ele>364.79998779296875</ele>
        <time>2014-05-17T08:09:16Z</time>
      </trkpt>
      <trkpt lat="46.396696306765079" lon="6.56224119476974">
        <ele>364.39999389648437</ele>
        <time>2014-05-17T08:09:22Z</time>
      </trkpt>
      <trkpt lat="46.396618019789457" lon="6.561719421297312">
        <ele>364.79998779296875</ele>
        <time>2014-05-17T08:09:27Z</time>
      </trkpt>
      <trkpt lat="46.396491369232535" lon="6.560949040576816">
        <ele>364.60000610351562</ele>
        <time>2014-05-17T08:09:34Z</time>
      </trkpt>
      <trkpt lat="46.396391037851572" lon="6.560276225209236">
        <ele>364</ele>
        <time>2014-05-17T08:09:40Z</time>
      </trkpt>
      <trkpt lat="46.396263297647238" lon="6.559472568333149">
        <ele>363.20001220703125</ele>
        <time>2014-05-17T08:09:47Z</time>
      </trkpt>
      <trkpt lat="46.396214682608843" lon="6.559226140379906">
        <ele>362.79998779296875</ele>
        <time>2014-05-17T08:09:49Z</time>
      </trkpt>
      <trkpt lat="46.396139077842236" lon="6.558842500671744">
        <ele>361</ele>
        <time>2014-05-17T08:09:52Z</time>
      </trkpt>
      <trkpt lat="46.396112758666277" lon="6.558708222582936">
        <ele>360.39999389648437</ele>
        <time>2014-05-17T08:09:53Z</time>
      </trkpt>
      <trkpt lat="46.396053666248918" lon="6.558239087462425">
        <ele>359.79998779296875</ele>
        <time>2014-05-17T08:09:56Z</time>
      </trkpt>
      <trkpt lat="46.396033968776464" lon="6.558093493804336">
        <ele>359.60000610351562</ele>
        <time>2014-05-17T08:09:57Z</time>
      </trkpt>
      <trkpt lat="46.395993316546082" lon="6.557812783867121">
        <ele>359.39999389648437</ele>
        <time>2014-05-17T08:09:59Z</time>
      </trkpt>
      <trkpt lat="46.395953921601176" lon="6.557557722553611">
        <ele>358.60000610351562</ele>
        <time>2014-05-17T08:10:01Z</time>
      </trkpt>
      <trkpt lat="46.395873455330729" lon="6.557037876918912">
        <ele>358</ele>
        <time>2014-05-17T08:10:05Z</time>
      </trkpt>
      <trkpt lat="46.395793911069632" lon="6.55650369822979">
        <ele>357.39999389648437</ele>
        <time>2014-05-17T08:10:09Z</time>
      </trkpt>
      <trkpt lat="46.395733309909701" lon="6.556121148169041">
        <ele>356.79998779296875</ele>
        <time>2014-05-17T08:10:12Z</time>
      </trkpt>
      <trkpt lat="46.395646557211876" lon="6.555582024157047">
        <ele>357</ele>
        <time>2014-05-17T08:10:17Z</time>
      </trkpt>
      <trkpt lat="46.395586207509041" lon="6.555260661989451">
        <ele>356.39999389648438</ele>
        <time>2014-05-17T08:10:20Z</time>
      </trkpt>
      <trkpt lat="46.395549578592181" lon="6.555062597617507">
        <ele>356.39999389648438</ele>
        <time>2014-05-17T08:10:22Z</time>
      </trkpt>
      <trkpt lat="46.395406248047948" lon="6.554385423660278">
        <ele>357</ele>
        <time>2014-05-17T08:10:29Z</time>
      </trkpt>
      <trkpt lat="46.395324356853962" lon="6.553884940221906">
        <ele>356.39999389648438</ele>
        <time>2014-05-17T08:10:34Z</time>
      </trkpt>
      <trkpt lat="46.395222349092364" lon="6.553271971642971">
        <ele>355.60000610351562</ele>
        <time>2014-05-17T08:10:40Z</time>
      </trkpt>
      <trkpt lat="46.395085472613573" lon="6.552637461572886">
        <ele>355.79998779296875</ele>
        <time>2014-05-17T08:10:47Z</time>
      </trkpt>
      <trkpt lat="46.39502864331007" lon="6.552066234871745">
        <ele>355.20001220703125</ele>
        <time>2014-05-17T08:10:53Z</time>
      </trkpt>
      <trkpt lat="46.395016321912408" lon="6.551963221281767">
        <ele>355</ele>
        <time>2014-05-17T08:10:54Z</time>
      </trkpt>
      <trkpt lat="46.39497147873044" lon="6.551294596865773">
        <ele>354</ele>
        <time>2014-05-17T08:11:00Z</time>
      </trkpt>
      <trkpt lat="46.394963767379522" lon="6.551179094240069">
        <ele>353.60000610351562</ele>
        <time>2014-05-17T08:11:01Z</time>
      </trkpt>
      <trkpt lat="46.394956978037953" lon="6.551058227196336">
        <ele>353</ele>
        <time>2014-05-17T08:11:02Z</time>
      </trkpt>
      <trkpt lat="46.394947757944465" lon="6.550932582467794">
        <ele>352.60000610351562</ele>
        <time>2014-05-17T08:11:03Z</time>
      </trkpt>
      <trkpt lat="46.394903166219592" lon="6.55030838213861">
        <ele>352</ele>
        <time>2014-05-17T08:11:08Z</time>
      </trkpt>
      <trkpt lat="46.394890090450644" lon="6.550065223127604">
        <ele>351.60000610351562</ele>
        <time>2014-05-17T08:11:10Z</time>
      </trkpt>
      <trkpt lat="46.394870560616255" lon="6.549704130738974">
        <ele>350.60000610351562</ele>
        <time>2014-05-17T08:11:13Z</time>
      </trkpt>
      <trkpt lat="46.394844576716423" lon="6.549206078052521">
        <ele>349.39999389648437</ele>
        <time>2014-05-17T08:11:17Z</time>
      </trkpt>
      <trkpt lat="46.394822029396892" lon="6.548815229907632">
        <ele>348.39999389648437</ele>
        <time>2014-05-17T08:11:20Z</time>
      </trkpt>
      <trkpt lat="46.394808366894722" lon="6.548556061461568">
        <ele>347.20001220703125</ele>
        <time>2014-05-17T08:11:22Z</time>
      </trkpt>
      <trkpt lat="46.394784729927778" lon="6.548169907182455">
        <ele>347.20001220703125</ele>
        <time>2014-05-17T08:11:25Z</time>
      </trkpt>
      <trkpt lat="46.394737455993891" lon="6.547305816784501">
        <ele>347</ele>
        <time>2014-05-17T08:11:32Z</time>
      </trkpt>
      <trkpt lat="46.394689762964845" lon="6.546516744419932">
        <ele>346.39999389648437</ele>
        <time>2014-05-17T08:11:39Z</time>
      </trkpt>
      <trkpt lat="46.394683560356498" lon="6.546405181288719">
        <ele>346.20001220703125</ele>
        <time>2014-05-17T08:11:40Z</time>
      </trkpt>
      <trkpt lat="46.394680542871356" lon="6.546293115243316">
        <ele>346</ele>
        <time>2014-05-17T08:11:41Z</time>
      </trkpt>
      <trkpt lat="46.394634693861008" lon="6.545581491664052">
        <ele>346.20001220703125</ele>
        <time>2014-05-17T08:11:47Z</time>
      </trkpt>
      <trkpt lat="46.394640058279037" lon="6.544843045994639">
        <ele>346.20001220703125</ele>
        <time>2014-05-17T08:11:54Z</time>
      </trkpt>
      <trkpt lat="46.39467341825366" lon="6.544685298576951">
        <ele>346.39999389648437</ele>
        <time>2014-05-17T08:11:57Z</time>
      </trkpt>
      <trkpt lat="46.394694624468684" lon="6.544604664668441">
        <ele>347.20001220703125</ele>
        <time>2014-05-17T08:12:28Z</time>
      </trkpt>
      <trkpt lat="46.394685823470354" lon="6.544512966647744">
        <ele>347</ele>
        <time>2014-05-17T08:12:31Z</time>
      </trkpt>
      <trkpt lat="46.394714908674359" lon="6.544325714930892">
        <ele>346.79998779296875</ele>
        <time>2014-05-17T08:12:35Z</time>
      </trkpt>
      <trkpt lat="46.394721614196897" lon="6.544271148741245">
        <ele>346.79998779296875</ele>
        <time>2014-05-17T08:12:36Z</time>
      </trkpt>
      <trkpt lat="46.39473837800324" lon="6.544145587831736">
        <ele>346.79998779296875</ele>
        <time>2014-05-17T08:12:38Z</time>
      </trkpt>
      <trkpt lat="46.394760590046644" lon="6.543987672775984">
        <ele>346.39999389648437</ele>
        <time>2014-05-17T08:12:40Z</time>
      </trkpt>
      <trkpt lat="46.394774420186877" lon="6.543898908421397">
        <ele>346.20001220703125</ele>
        <time>2014-05-17T08:12:41Z</time>
      </trkpt>
      <trkpt lat="46.394843151792884" lon="6.543525159358978">
        <ele>346.20001220703125</ele>
        <time>2014-05-17T08:12:45Z</time>
      </trkpt>
      <trkpt lat="46.394897298887372" lon="6.543225003406405">
        <ele>345.79998779296875</ele>
        <time>2014-05-17T08:12:48Z</time>
      </trkpt>
      <trkpt lat="46.395027805119753" lon="6.542361080646515">
        <ele>345.60000610351562</ele>
        <time>2014-05-17T08:12:56Z</time>
      </trkpt>
      <trkpt lat="46.395042054355145" lon="6.541734198108316">
        <ele>346.20001220703125</ele>
        <time>2014-05-17T08:13:02Z</time>
      </trkpt>
      <trkpt lat="46.395041216164827" lon="6.540923668071628">
        <ele>347.20001220703125</ele>
        <time>2014-05-17T08:13:10Z</time>
      </trkpt>
      <trkpt lat="46.395039539784193" lon="6.540826940909028">
        <ele>347.39999389648437</ele>
        <time>2014-05-17T08:13:11Z</time>
      </trkpt>
      <trkpt lat="46.394985811784863" lon="6.540339114144445">
        <ele>347.60000610351562</ele>
        <time>2014-05-17T08:13:16Z</time>
      </trkpt>
      <trkpt lat="46.394884390756488" lon="6.539953881874681">
        <ele>347.60000610351562</ele>
        <time>2014-05-17T08:13:20Z</time>
      </trkpt>
      <trkpt lat="46.394807528704405" lon="6.539789512753487">
        <ele>347.79998779296875</ele>
        <time>2014-05-17T08:13:22Z</time>
      </trkpt>
      <trkpt lat="46.39467878267169" lon="6.539589017629623">
        <ele>347.79998779296875</ele>
        <time>2014-05-17T08:13:25Z</time>
      </trkpt>
      <trkpt lat="46.394595885649323" lon="6.53947158716619">
        <ele>348.20001220703125</ele>
        <time>2014-05-17T08:13:27Z</time>
      </trkpt>
      <trkpt lat="46.394554227590561" lon="6.539420960471034">
        <ele>348.39999389648437</ele>
        <time>2014-05-17T08:13:28Z</time>
      </trkpt>
      <trkpt lat="46.394429337233305" lon="6.539239743724465">
        <ele>349.20001220703125</ele>
        <time>2014-05-17T08:13:32Z</time>
      </trkpt>
      <trkpt lat="46.394389355555177" lon="6.539171598851681">
        <ele>349.39999389648437</ele>
        <time>2014-05-17T08:13:34Z</time>
      </trkpt>
      <trkpt lat="46.394361946731806" lon="6.539125330746174">
        <ele>349.60000610351562</ele>
        <time>2014-05-17T08:13:36Z</time>
      </trkpt>
      <trkpt lat="46.394347362220287" lon="6.539111416786909">
        <ele>349.79998779296875</ele>
        <time>2014-05-17T08:13:47Z</time>
      </trkpt>
      <trkpt lat="46.394275696948171" lon="6.53896045871079">
        <ele>349.79998779296875</ele>
        <time>2014-05-17T08:13:51Z</time>
      </trkpt>
      <trkpt lat="46.394130773842335" lon="6.53863457031548">
        <ele>349.39999389648437</ele>
        <time>2014-05-17T08:13:56Z</time>
      </trkpt>
      <trkpt lat="46.393942348659039" lon="6.53813224285841">
        <ele>349.39999389648437</ele>
        <time>2014-05-17T08:14:02Z</time>
      </trkpt>
      <trkpt lat="46.39367169700563" lon="6.537378961220384">
        <ele>349.60000610351562</ele>
        <time>2014-05-17T08:14:10Z</time>
      </trkpt>
      <trkpt lat="46.39340590685606" lon="6.536635151132941">
        <ele>350</ele>
        <time>2014-05-17T08:14:18Z</time>
      </trkpt>
      <trkpt lat="46.393274143338203" lon="6.536281602457166">
        <ele>350.60000610351562</ele>
        <time>2014-05-17T08:14:22Z</time>
      </trkpt>
      <trkpt lat="46.393090328201652" lon="6.535770474001765">
        <ele>351</ele>
        <time>2014-05-17T08:14:28Z</time>
      </trkpt>
      <trkpt lat="46.393042718991637" lon="6.535616498440504">
        <ele>351.60000610351562</ele>
        <time>2014-05-17T08:14:30Z</time>
      </trkpt>
      <trkpt lat="46.393021512776613" lon="6.535467468202114">
        <ele>352</ele>
        <time>2014-05-17T08:14:32Z</time>
      </trkpt>
      <trkpt lat="46.393030816689134" lon="6.535386918112636">
        <ele>352.39999389648437</ele>
        <time>2014-05-17T08:14:33Z</time>
      </trkpt>
      <trkpt lat="46.393022770062089" lon="6.535221626982093">
        <ele>352.60000610351562</ele>
        <time>2014-05-17T08:14:35Z</time>
      </trkpt>
      <trkpt lat="46.39299888163805" lon="6.535138981416822">
        <ele>352.60000610351562</ele>
        <time>2014-05-17T08:14:36Z</time>
      </trkpt>
      <trkpt lat="46.392959738150239" lon="6.535065891221166">
        <ele>352.60000610351562</ele>
        <time>2014-05-17T08:14:37Z</time>
      </trkpt>
      <trkpt lat="46.392859490588307" lon="6.534940497949719">
        <ele>352.39999389648437</ele>
        <time>2014-05-17T08:14:39Z</time>
      </trkpt>
      <trkpt lat="46.39282445423305" lon="6.534857349470258">
        <ele>352.20001220703125</ele>
        <time>2014-05-17T08:14:40Z</time>
      </trkpt>
      <trkpt lat="46.392683386802673" lon="6.534424340352416">
        <ele>352.39999389648437</ele>
        <time>2014-05-17T08:14:45Z</time>
      </trkpt>
      <trkpt lat="46.392434779554605" lon="6.533828303217888">
        <ele>353</ele>
        <time>2014-05-17T08:14:52Z</time>
      </trkpt>
      <trkpt lat="46.392125822603703" lon="6.533164707943797">
        <ele>353.60000610351562</ele>
        <time>2014-05-17T08:15:00Z</time>
      </trkpt>
      <trkpt lat="46.392046445980668" lon="6.532999584451318">
        <ele>353.79998779296875</ele>
        <time>2014-05-17T08:15:02Z</time>
      </trkpt>
      <trkpt lat="46.391850057989359" lon="6.53259951621294">
        <ele>355</ele>
        <time>2014-05-17T08:15:07Z</time>
      </trkpt>
      <trkpt lat="46.391774201765656" lon="6.532440511509776">
        <ele>355.79998779296875</ele>
        <time>2014-05-17T08:15:09Z</time>
      </trkpt>
      <trkpt lat="46.39173673465848" lon="6.532361470162869">
        <ele>356.20001220703125</ele>
        <time>2014-05-17T08:15:10Z</time>
      </trkpt>
      <trkpt lat="46.391557529568672" lon="6.531988056376576">
        <ele>357.60000610351562</ele>
        <time>2014-05-17T08:15:15Z</time>
      </trkpt>
      <trkpt lat="46.391447391360998" lon="6.53174783103168">
        <ele>357.39999389648437</ele>
        <time>2014-05-17T08:15:18Z</time>
      </trkpt>
      <trkpt lat="46.39125301502645" lon="6.531172161921859">
        <ele>356.79998779296875</ele>
        <time>2014-05-17T08:15:24Z</time>
      </trkpt>
      <trkpt lat="46.391171291470528" lon="6.530845100060105">
        <ele>356.20001220703125</ele>
        <time>2014-05-17T08:15:27Z</time>
      </trkpt>
      <trkpt lat="46.391110103577375" lon="6.530499262735248">
        <ele>355.79998779296875</ele>
        <time>2014-05-17T08:15:30Z</time>
      </trkpt>
      <trkpt lat="46.390977753326297" lon="6.529661491513252">
        <ele>355.20001220703125</ele>
        <time>2014-05-17T08:15:37Z</time>
      </trkpt>
      <trkpt lat="46.390946824103594" lon="6.529414225369692">
        <ele>355</ele>
        <time>2014-05-17T08:15:39Z</time>
      </trkpt>
      <trkpt lat="46.390847750008106" lon="6.528705200180411">
        <ele>356</ele>
        <time>2014-05-17T08:15:45Z</time>
      </trkpt>
      <trkpt lat="46.390830148011446" lon="6.528592547401786">
        <ele>356.20001220703125</ele>
        <time>2014-05-17T08:15:46Z</time>
      </trkpt>
      <trkpt lat="46.390807349234819" lon="6.528480146080256">
        <ele>356.60000610351562</ele>
        <time>2014-05-17T08:15:47Z</time>
      </trkpt>
      <trkpt lat="46.390634346753359" lon="6.527686715126038">
        <ele>356.60000610351562</ele>
        <time>2014-05-17T08:15:54Z</time>
      </trkpt>
      <trkpt lat="46.390605177730322" lon="6.527579762041569">
        <ele>356.39999389648438</ele>
        <time>2014-05-17T08:15:55Z</time>
      </trkpt>
      <trkpt lat="46.390521358698606" lon="6.527167037129402">
        <ele>357.39999389648437</ele>
        <time>2014-05-17T08:15:59Z</time>
      </trkpt>
      <trkpt lat="46.39054155908525" lon="6.527065951377153">
        <ele>357.60000610351562</ele>
        <time>2014-05-17T08:16:00Z</time>
      </trkpt>
      <trkpt lat="46.390633257105947" lon="6.52678138576448">
        <ele>357.60000610351562</ele>
        <time>2014-05-17T08:16:03Z</time>
      </trkpt>
      <trkpt lat="46.390640130266547" lon="6.526480307802558">
        <ele>358.39999389648437</ele>
        <time>2014-05-17T08:16:06Z</time>
      </trkpt>
      <trkpt lat="46.390493446961045" lon="6.52623170055449">
        <ele>358</ele>
        <time>2014-05-17T08:16:09Z</time>
      </trkpt>
      <trkpt lat="46.390367550775409" lon="6.526097841560841">
        <ele>357.60000610351562</ele>
        <time>2014-05-17T08:16:11Z</time>
      </trkpt>
      <trkpt lat="46.390246096998453" lon="6.525944117456675">
        <ele>357.39999389648437</ele>
        <time>2014-05-17T08:16:13Z</time>
      </trkpt>
      <trkpt lat="46.390189100056887" lon="6.525858454406261">
        <ele>357.39999389648437</ele>
        <time>2014-05-17T08:16:14Z</time>
      </trkpt>
      <trkpt lat="46.389906797558069" lon="6.525319665670395">
        <ele>357.60000610351562</ele>
        <time>2014-05-17T08:16:20Z</time>
      </trkpt>
      <trkpt lat="46.389665147289634" lon="6.52478045783937">
        <ele>358.79998779296875</ele>
        <time>2014-05-17T08:16:26Z</time>
      </trkpt>
      <trkpt lat="46.389717953279614" lon="6.524504106491804">
        <ele>358.79998779296875</ele>
        <time>2014-05-17T08:16:29Z</time>
      </trkpt>
      <trkpt lat="46.389778135344386" lon="6.524343341588974">
        <ele>358.60000610351562</ele>
        <time>2014-05-17T08:16:31Z</time>
      </trkpt>
      <trkpt lat="46.389790289103985" lon="6.524256840348244">
        <ele>358.79998779296875</ele>
        <time>2014-05-17T08:16:32Z</time>
      </trkpt>
      <trkpt lat="46.389781907200813" lon="6.524172434583306">
        <ele>359</ele>
        <time>2014-05-17T08:16:33Z</time>
      </trkpt>
      <trkpt lat="46.38965324498713" lon="6.523998426273465">
        <ele>359.39999389648437</ele>
        <time>2014-05-17T08:16:36Z</time>
      </trkpt>
      <trkpt lat="46.389459036290646" lon="6.524022482335568">
        <ele>359.60000610351562</ele>
        <time>2014-05-17T08:16:39Z</time>
      </trkpt>
      <trkpt lat="46.389332721009851" lon="6.524059865623713">
        <ele>359</ele>
        <time>2014-05-17T08:16:41Z</time>
      </trkpt>
      <trkpt lat="46.389270862564445" lon="6.524057686328888">
        <ele>359.20001220703125</ele>
        <time>2014-05-17T08:16:42Z</time>
      </trkpt>
      <trkpt lat="46.389209926128387" lon="6.524033211171627">
        <ele>359.39999389648437</ele>
        <time>2014-05-17T08:16:43Z</time>
      </trkpt>
      <trkpt lat="46.389040946960449" lon="6.523904129862785">
        <ele>359.60000610351562</ele>
        <time>2014-05-17T08:16:46Z</time>
      </trkpt>
      <trkpt lat="46.388984452933073" lon="6.523863645270467">
        <ele>359.60000610351562</ele>
        <time>2014-05-17T08:16:47Z</time>
      </trkpt>
      <trkpt lat="46.388827543705702" lon="6.523708663880825">
        <ele>360</ele>
        <time>2014-05-17T08:16:50Z</time>
      </trkpt>
      <trkpt lat="46.388725033029914" lon="6.523593915626407">
        <ele>360.20001220703125</ele>
        <time>2014-05-17T08:16:52Z</time>
      </trkpt>
      <trkpt lat="46.388370478525758" lon="6.523167528212071">
        <ele>360.20001220703125</ele>
        <time>2014-05-17T08:16:59Z</time>
      </trkpt>
      <trkpt lat="46.388086415827274" lon="6.522805513814092">
        <ele>360.60000610351562</ele>
        <time>2014-05-17T08:17:05Z</time>
      </trkpt>
      <trkpt lat="46.387910479679704" lon="6.522425059229136">
        <ele>360.60000610351562</ele>
        <time>2014-05-17T08:17:10Z</time>
      </trkpt>
      <trkpt lat="46.387857003137469" lon="6.522257840260863">
        <ele>361.20001220703125</ele>
        <time>2014-05-17T08:17:12Z</time>
      </trkpt>
      <trkpt lat="46.387768909335136" lon="6.521911080926657">
        <ele>361.60000610351562</ele>
        <time>2014-05-17T08:17:16Z</time>
      </trkpt>
      <trkpt lat="46.387679893523455" lon="6.521562393754721">
        <ele>362.20001220703125</ele>
        <time>2014-05-17T08:17:20Z</time>
      </trkpt>
      <trkpt lat="46.387519966810942" lon="6.520940456539393">
        <ele>362.79998779296875</ele>
        <time>2014-05-17T08:17:27Z</time>
      </trkpt>
      <trkpt lat="46.38731611892581" lon="6.520152976736426">
        <ele>362.79998779296875</ele>
        <time>2014-05-17T08:17:36Z</time>
      </trkpt>
      <trkpt lat="46.387296756729484" lon="6.520063877105713">
        <ele>363</ele>
        <time>2014-05-17T08:17:37Z</time>
      </trkpt>
      <trkpt lat="46.387284938246012" lon="6.519973604008555">
        <ele>363.20001220703125</ele>
        <time>2014-05-17T08:17:38Z</time>
      </trkpt>
      <trkpt lat="46.38724822551012" lon="6.519817030057311">
        <ele>363.39999389648437</ele>
        <time>2014-05-17T08:17:40Z</time>
      </trkpt>
      <trkpt lat="46.387226935476065" lon="6.519743017852306">
        <ele>363.60000610351562</ele>
        <time>2014-05-17T08:17:41Z</time>
      </trkpt>
      <trkpt lat="46.387198520824313" lon="6.519673699513078">
        <ele>363.60000610351562</ele>
        <time>2014-05-17T08:17:42Z</time>
      </trkpt>
      <trkpt lat="46.387077486142516" lon="6.519372453913093">
        <ele>363.60000610351562</ele>
        <time>2014-05-17T08:17:46Z</time>
      </trkpt>
      <trkpt lat="46.386856874451041" lon="6.518906001001597">
        <ele>363.39999389648437</ele>
        <time>2014-05-17T08:17:52Z</time>
      </trkpt>
      <trkpt lat="46.386567614972591" lon="6.51822698302567">
        <ele>363.39999389648437</ele>
        <time>2014-05-17T08:18:00Z</time>
      </trkpt>
      <trkpt lat="46.38626754283905" lon="6.517532374709845">
        <ele>363.20001220703125</ele>
        <time>2014-05-17T08:18:08Z</time>
      </trkpt>
      <trkpt lat="46.386194955557585" lon="6.51736113242805">
        <ele>363</ele>
        <time>2014-05-17T08:18:10Z</time>
      </trkpt>
      <trkpt lat="46.38589077629149" lon="6.516689993441105">
        <ele>363.60000610351562</ele>
        <time>2014-05-17T08:18:18Z</time>
      </trkpt>
      <trkpt lat="46.385853979736567" lon="6.516603408381343">
        <ele>363.39999389648437</ele>
        <time>2014-05-17T08:18:19Z</time>
      </trkpt>
      <trkpt lat="46.385832270607352" lon="6.516510117799044">
        <ele>363.39999389648437</ele>
        <time>2014-05-17T08:18:20Z</time>
      </trkpt>
      <trkpt lat="46.385826906189322" lon="6.516316412016749">
        <ele>363.60000610351562</ele>
        <time>2014-05-17T08:18:22Z</time>
      </trkpt>
      <trkpt lat="46.385846184566617" lon="6.516126394271851">
        <ele>363.60000610351562</ele>
        <time>2014-05-17T08:18:24Z</time>
      </trkpt>
      <trkpt lat="46.385841239243746" lon="6.515943417325616">
        <ele>363.60000610351562</ele>
        <time>2014-05-17T08:18:26Z</time>
      </trkpt>
      <trkpt lat="46.38572171330452" lon="6.51571542955935">
        <ele>363.79998779296875</ele>
        <time>2014-05-17T08:18:29Z</time>
      </trkpt>
      <trkpt lat="46.385538233444095" lon="6.515620965510607">
        <ele>364.39999389648437</ele>
        <time>2014-05-17T08:18:32Z</time>
      </trkpt>
      <trkpt lat="46.385479979217052" lon="6.515576960518956">
        <ele>364.60000610351562</ele>
        <time>2014-05-17T08:18:33Z</time>
      </trkpt>
      <trkpt lat="46.385341845452785" lon="6.515380069613457">
        <ele>364.79998779296875</ele>
        <time>2014-05-17T08:18:36Z</time>
      </trkpt>
      <trkpt lat="46.385236652567983" lon="6.515142191201448">
        <ele>365.39999389648437</ele>
        <time>2014-05-17T08:18:39Z</time>
      </trkpt>
      <trkpt lat="46.385166915133595" lon="6.514979749917984">
        <ele>365.39999389648437</ele>
        <time>2014-05-17T08:18:41Z</time>
      </trkpt>
      <trkpt lat="46.385032301768661" lon="6.514657801017165">
        <ele>365.39999389648437</ele>
        <time>2014-05-17T08:18:45Z</time>
      </trkpt>
      <trkpt lat="46.384856281802058" lon="6.514256307855249">
        <ele>365.79998779296875</ele>
        <time>2014-05-17T08:18:50Z</time>
      </trkpt>
      <trkpt lat="46.384697109460831" lon="6.513880379498005">
        <ele>366.60000610351562</ele>
        <time>2014-05-17T08:18:55Z</time>
      </trkpt>
      <trkpt lat="46.38460767455399" lon="6.513654571026564">
        <ele>366.20001220703125</ele>
        <time>2014-05-17T08:18:58Z</time>
      </trkpt>
      <trkpt lat="46.384425032883883" lon="6.513231033459306">
        <ele>366.20001220703125</ele>
        <time>2014-05-17T08:19:04Z</time>
      </trkpt>
      <trkpt lat="46.384372310712934" lon="6.513130282983184">
        <ele>367.39999389648438</ele>
        <time>2014-05-17T08:19:06Z</time>
      </trkpt>
      <trkpt lat="46.384339202195406" lon="6.513096839189529">
        <ele>367.79998779296875</ele>
        <time>2014-05-17T08:19:07Z</time>
      </trkpt>
      <trkpt lat="46.384256891906261" lon="6.513076806440949">
        <ele>368.20001220703125</ele>
        <time>2014-05-17T08:19:09Z</time>
      </trkpt>
      <trkpt lat="46.384154045954347" lon="6.513161798939109">
        <ele>368.79998779296875</ele>
        <time>2014-05-17T08:19:12Z</time>
      </trkpt>
      <trkpt lat="46.384008871391416" lon="6.513154422864318">
        <ele>368</ele>
        <time>2014-05-17T08:19:15Z</time>
      </trkpt>
      <trkpt lat="46.383890267461538" lon="6.51297815144062">
        <ele>367.79998779296875</ele>
        <time>2014-05-17T08:19:18Z</time>
      </trkpt>
      <trkpt lat="46.383852381259203" lon="6.51291411370039">
        <ele>368</ele>
        <time>2014-05-17T08:19:19Z</time>
      </trkpt>
      <trkpt lat="46.383616933599114" lon="6.512511111795902">
        <ele>368.39999389648437</ele>
        <time>2014-05-17T08:19:25Z</time>
      </trkpt>
      <trkpt lat="46.383343432098627" lon="6.51198472827673">
        <ele>368</ele>
        <time>2014-05-17T08:19:32Z</time>
      </trkpt>
      <trkpt lat="46.383134806528687" lon="6.511530177667737">
        <ele>368.79998779296875</ele>
        <time>2014-05-17T08:19:38Z</time>
      </trkpt>
      <trkpt lat="46.383110918104649" lon="6.511453567072749">
        <ele>369</ele>
        <time>2014-05-17T08:19:39Z</time>
      </trkpt>
      <trkpt lat="46.382964067161083" lon="6.510898768901825">
        <ele>369</ele>
        <time>2014-05-17T08:19:46Z</time>
      </trkpt>
      <trkpt lat="46.382905561476946" lon="6.510559720918536">
        <ele>370</ele>
        <time>2014-05-17T08:19:50Z</time>
      </trkpt>
      <trkpt lat="46.382885864004493" lon="6.510288650169969">
        <ele>370</ele>
        <time>2014-05-17T08:19:53Z</time>
      </trkpt>
      <trkpt lat="46.382881002500653" lon="6.509672664105892">
        <ele>370.39999389648438</ele>
        <time>2014-05-17T08:20:00Z</time>
      </trkpt>
      <trkpt lat="46.382890474051237" lon="6.509498739615083">
        <ele>371</ele>
        <time>2014-05-17T08:20:02Z</time>
      </trkpt>
      <trkpt lat="46.382899861782789" lon="6.509137731045485">
        <ele>371.60000610351562</ele>
        <time>2014-05-17T08:20:06Z</time>
      </trkpt>
      <trkpt lat="46.382915116846561" lon="6.508497269824147">
        <ele>371.79998779296875</ele>
        <time>2014-05-17T08:20:13Z</time>
      </trkpt>
      <trkpt lat="46.382917044684291" lon="6.508403224870563">
        <ele>372.39999389648437</ele>
        <time>2014-05-17T08:20:14Z</time>
      </trkpt>
      <trkpt lat="46.382926851511002" lon="6.50787491351366">
        <ele>372.39999389648437</ele>
        <time>2014-05-17T08:20:20Z</time>
      </trkpt>
      <trkpt lat="46.382947973906994" lon="6.507048038765788">
        <ele>373</ele>
        <time>2014-05-17T08:20:29Z</time>
      </trkpt>
      <trkpt lat="46.382973790168762" lon="6.506428616121411">
        <ele>372.79998779296875</ele>
        <time>2014-05-17T08:20:36Z</time>
      </trkpt>
      <trkpt lat="46.382959960028529" lon="6.506339851766825">
        <ele>372.79998779296875</ele>
        <time>2014-05-17T08:20:37Z</time>
      </trkpt>
      <trkpt lat="46.382971359416842" lon="6.506174728274345">
        <ele>373</ele>
        <time>2014-05-17T08:20:39Z</time>
      </trkpt>
      <trkpt lat="46.382955517619848" lon="6.505650440230966">
        <ele>373.20001220703125</ele>
        <time>2014-05-17T08:20:45Z</time>
      </trkpt>
      <trkpt lat="46.382939759641886" lon="6.505503673106432">
        <ele>373.20001220703125</ele>
        <time>2014-05-17T08:20:47Z</time>
      </trkpt>
      <trkpt lat="46.38292039744556" lon="6.505351457744837">
        <ele>373.39999389648438</ele>
        <time>2014-05-17T08:20:49Z</time>
      </trkpt>
      <trkpt lat="46.382902879267931" lon="6.505274008959532">
        <ele>373.39999389648438</ele>
        <time>2014-05-17T08:20:50Z</time>
      </trkpt>
      <trkpt lat="46.382888546213508" lon="6.505197482183576">
        <ele>373.39999389648438</ele>
        <time>2014-05-17T08:20:51Z</time>
      </trkpt>
      <trkpt lat="46.382805984467268" lon="6.504769837483764">
        <ele>373.60000610351562</ele>
        <time>2014-05-17T08:20:57Z</time>
      </trkpt>
      <trkpt lat="46.382785197347403" lon="6.504677552729845">
        <ele>374.20001220703125</ele>
        <time>2014-05-17T08:21:01Z</time>
      </trkpt>
      <trkpt lat="46.38277824036777" lon="6.504639331251383">
        <ele>374</ele>
        <time>2014-05-17T08:21:05Z</time>
      </trkpt>
      <trkpt lat="46.382774049416184" lon="6.504566576331854">
        <ele>374</ele>
        <time>2014-05-17T08:21:07Z</time>
      </trkpt>
      <trkpt lat="46.38273281045258" lon="6.504323836416006">
        <ele>373.39999389648438</ele>
        <time>2014-05-17T08:21:11Z</time>
      </trkpt>
      <trkpt lat="46.382637592032552" lon="6.503802733495832">
        <ele>373.60000610351562</ele>
        <time>2014-05-17T08:21:18Z</time>
      </trkpt>
      <trkpt lat="46.382542876526713" lon="6.503332424908876">
        <ele>373.60000610351562</ele>
        <time>2014-05-17T08:21:24Z</time>
      </trkpt>
      <trkpt lat="46.382478754967451" lon="6.502923807129264">
        <ele>374</ele>
        <time>2014-05-17T08:21:30Z</time>
      </trkpt>
      <trkpt lat="46.382472217082977" lon="6.502803778275847">
        <ele>374.20001220703125</ele>
        <time>2014-05-17T08:21:32Z</time>
      </trkpt>
      <trkpt lat="46.382473474368453" lon="6.502710655331612">
        <ele>374.39999389648437</ele>
        <time>2014-05-17T08:21:34Z</time>
      </trkpt>
      <trkpt lat="46.382478922605515" lon="6.502665057778359">
        <ele>374.60000610351562</ele>
        <time>2014-05-17T08:21:35Z</time>
      </trkpt>
      <trkpt lat="46.382519407197833" lon="6.502585178241134">
        <ele>374.60000610351562</ele>
        <time>2014-05-17T08:21:37Z</time>
      </trkpt>
      <trkpt lat="46.382587049156427" lon="6.502506891265512">
        <ele>374.20001220703125</ele>
        <time>2014-05-17T08:21:39Z</time>
      </trkpt>
      <trkpt lat="46.382683692499995" lon="6.502330619841814">
        <ele>373.79998779296875</ele>
        <time>2014-05-17T08:21:42Z</time>
      </trkpt>
      <trkpt lat="46.382736330851912" lon="6.502190474420786">
        <ele>373.79998779296875</ele>
        <time>2014-05-17T08:21:44Z</time>
      </trkpt>
      <trkpt lat="46.382961301133037" lon="6.50162729434669">
        <ele>373.39999389648438</ele>
        <time>2014-05-17T08:21:52Z</time>
      </trkpt>
      <trkpt lat="46.383118377998471" lon="6.501278188079596">
        <ele>373.79998779296875</ele>
        <time>2014-05-17T08:21:57Z</time>
      </trkpt>
      <trkpt lat="46.383239664137363" lon="6.501099402084947">
        <ele>373.60000610351562</ele>
        <time>2014-05-17T08:22:00Z</time>
      </trkpt>
      <trkpt lat="46.38328492641449" lon="6.501045841723681">
        <ele>373.39999389648438</ele>
        <time>2014-05-17T08:22:01Z</time>
      </trkpt>
      <trkpt lat="46.38342515565455" lon="6.500872084870935">
        <ele>372.39999389648437</ele>
        <time>2014-05-17T08:22:04Z</time>
      </trkpt>
      <trkpt lat="46.383570414036512" lon="6.500687096267939">
        <ele>372.60000610351562</ele>
        <time>2014-05-17T08:22:07Z</time>
      </trkpt>
      <trkpt lat="46.383960507810116" lon="6.500202119350433">
        <ele>372.20001220703125</ele>
        <time>2014-05-17T08:22:15Z</time>
      </trkpt>
      <trkpt lat="46.384317073971033" lon="6.4997064974159">
        <ele>372.79998779296875</ele>
        <time>2014-05-17T08:22:23Z</time>
      </trkpt>
      <trkpt lat="46.384567692875862" lon="6.499270219355822">
        <ele>371.79998779296875</ele>
        <time>2014-05-17T08:22:29Z</time>
      </trkpt>
      <trkpt lat="46.384700294584036" lon="6.498957993462682">
        <ele>371.39999389648437</ele>
        <time>2014-05-17T08:22:33Z</time>
      </trkpt>
      <trkpt lat="46.384787382557988" lon="6.498713828623295">
        <ele>371.39999389648437</ele>
        <time>2014-05-17T08:22:36Z</time>
      </trkpt>
      <trkpt lat="46.384987290948629" lon="6.498255422338843">
        <ele>370.60000610351562</ele>
        <time>2014-05-17T08:22:42Z</time>
      </trkpt>
      <trkpt lat="46.38512902893126" lon="6.49800362996757">
        <ele>370.60000610351562</ele>
        <time>2014-05-17T08:22:46Z</time>
      </trkpt>
      <trkpt lat="46.385182002559304" lon="6.497979322448373">
        <ele>370.60000610351562</ele>
        <time>2014-05-17T08:22:47Z</time>
      </trkpt>
      <trkpt lat="46.385304378345609" lon="6.497761895880103">
        <ele>371.39999389648437</ele>
        <time>2014-05-17T08:22:51Z</time>
      </trkpt>
      <trkpt lat="46.385203963145614" lon="6.497582271695137">
        <ele>371.79998779296875</ele>
        <time>2014-05-17T08:22:54Z</time>
      </trkpt>
      <trkpt lat="46.385023081675172" lon="6.497379764914513">
        <ele>371.79998779296875</ele>
        <time>2014-05-17T08:22:58Z</time>
      </trkpt>
      <trkpt lat="46.384950578212738" lon="6.497243056073785">
        <ele>372</ele>
        <time>2014-05-17T08:23:00Z</time>
      </trkpt>
      <trkpt lat="46.384840356186032" lon="6.497056055814028">
        <ele>372.39999389648437</ele>
        <time>2014-05-17T08:23:03Z</time>
      </trkpt>
      <trkpt lat="46.384809510782361" lon="6.496995873749256">
        <ele>372.60000610351562</ele>
        <time>2014-05-17T08:23:04Z</time>
      </trkpt>
      <trkpt lat="46.384721165522933" lon="6.496833264827728">
        <ele>373</ele>
        <time>2014-05-17T08:23:07Z</time>
      </trkpt>
      <trkpt lat="46.384694259613752" lon="6.496715163812041">
        <ele>373.20001220703125</ele>
        <time>2014-05-17T08:23:09Z</time>
      </trkpt>
      <trkpt lat="46.384692415595055" lon="6.496657747775316">
        <ele>373.39999389648438</ele>
        <time>2014-05-17T08:23:10Z</time>
      </trkpt>
      <trkpt lat="46.384738348424435" lon="6.496548447757959">
        <ele>373.39999389648438</ele>
        <time>2014-05-17T08:23:13Z</time>
      </trkpt>
      <trkpt lat="46.384775144979358" lon="6.496460186317563">
        <ele>373.39999389648438</ele>
        <time>2014-05-17T08:23:15Z</time>
      </trkpt>
      <trkpt lat="46.384872794151306" lon="6.496262876316905">
        <ele>373.60000610351562</ele>
        <time>2014-05-17T08:23:19Z</time>
      </trkpt>
      <trkpt lat="46.384984357282519" lon="6.495961714535952">
        <ele>373.20001220703125</ele>
        <time>2014-05-17T08:23:24Z</time>
      </trkpt>
      <trkpt lat="46.385014532133937" lon="6.49582190439105">
        <ele>373</ele>
        <time>2014-05-17T08:23:26Z</time>
      </trkpt>
      <trkpt lat="46.385053507983685" lon="6.495605064556003">
        <ele>373.39999389648438</ele>
        <time>2014-05-17T08:23:29Z</time>
      </trkpt>
      <trkpt lat="46.385101871564984" lon="6.495321840047836">
        <ele>373.60000610351562</ele>
        <time>2014-05-17T08:23:33Z</time>
      </trkpt>
      <trkpt lat="46.385130034759641" lon="6.49517985060811">
        <ele>373.20001220703125</ele>
        <time>2014-05-17T08:23:35Z</time>
      </trkpt>
      <trkpt lat="46.385181583464146" lon="6.494898553937674">
        <ele>373.60000610351562</ele>
        <time>2014-05-17T08:23:39Z</time>
      </trkpt>
      <trkpt lat="46.385232713073492" lon="6.494707362726331">
        <ele>373.60000610351562</ele>
        <time>2014-05-17T08:23:42Z</time>
      </trkpt>
      <trkpt lat="46.385282082483172" lon="6.494599236175418">
        <ele>373.39999389648438</ele>
        <time>2014-05-17T08:23:44Z</time>
      </trkpt>
      <trkpt lat="46.38530446216464" lon="6.494543412700295">
        <ele>373.39999389648438</ele>
        <time>2014-05-17T08:23:45Z</time>
      </trkpt>
      <trkpt lat="46.385370092466474" lon="6.494378373026848">
        <ele>373.60000610351562</ele>
        <time>2014-05-17T08:23:48Z</time>
      </trkpt>
      <trkpt lat="46.38544418849051" lon="6.494220457971096">
        <ele>373.39999389648438</ele>
        <time>2014-05-17T08:23:51Z</time>
      </trkpt>
      <trkpt lat="46.385598415508866" lon="6.493860706686974">
        <ele>372.79998779296875</ele>
        <time>2014-05-17T08:23:58Z</time>
      </trkpt>
      <trkpt lat="46.38562205247581" lon="6.493809325620532">
        <ele>372.79998779296875</ele>
        <time>2014-05-17T08:23:59Z</time>
      </trkpt>
      <trkpt lat="46.385764880105853" lon="6.493476312607527">
        <ele>372.20001220703125</ele>
        <time>2014-05-17T08:24:05Z</time>
      </trkpt>
      <trkpt lat="46.385814500972629" lon="6.49337338283658">
        <ele>371.79998779296875</ele>
        <time>2014-05-17T08:24:07Z</time>
      </trkpt>
      <trkpt lat="46.385946683585644" lon="6.493087811395526">
        <ele>371.79998779296875</ele>
        <time>2014-05-17T08:24:13Z</time>
      </trkpt>
      <trkpt lat="46.386016253381968" lon="6.493022935464978">
        <ele>371.60000610351562</ele>
        <time>2014-05-17T08:24:15Z</time>
      </trkpt>
      <trkpt lat="46.386063024401665" lon="6.492928387597203">
        <ele>371.60000610351562</ele>
        <time>2014-05-17T08:24:17Z</time>
      </trkpt>
      <trkpt lat="46.386132845655084" lon="6.492684306576848">
        <ele>371.79998779296875</ele>
        <time>2014-05-17T08:24:21Z</time>
      </trkpt>
      <trkpt lat="46.386148184537888" lon="6.492614904418588">
        <ele>371.60000610351562</ele>
        <time>2014-05-17T08:24:22Z</time>
      </trkpt>
      <trkpt lat="46.386177353560925" lon="6.492468807846308">
        <ele>371.20001220703125</ele>
        <time>2014-05-17T08:24:24Z</time>
      </trkpt>
      <trkpt lat="46.386271398514509" lon="6.492087347432971">
        <ele>370.39999389648438</ele>
        <time>2014-05-17T08:24:29Z</time>
      </trkpt>
      <trkpt lat="46.386317331343889" lon="6.49192750453949">
        <ele>370</ele>
        <time>2014-05-17T08:24:31Z</time>
      </trkpt>
      <trkpt lat="46.386480191722512" lon="6.491355272009969">
        <ele>369.60000610351562</ele>
        <time>2014-05-17T08:24:38Z</time>
      </trkpt>
      <trkpt lat="46.386496284976602" lon="6.491180006414652">
        <ele>369.39999389648437</ele>
        <time>2014-05-17T08:24:40Z</time>
      </trkpt>
      <trkpt lat="46.38654800131917" lon="6.491021672263742">
        <ele>369.20001220703125</ele>
        <time>2014-05-17T08:24:42Z</time>
      </trkpt>
      <trkpt lat="46.386602316051722" lon="6.490872390568256">
        <ele>369.20001220703125</ele>
        <time>2014-05-17T08:24:44Z</time>
      </trkpt>
      <trkpt lat="46.386621175333858" lon="6.490788152441382">
        <ele>369</ele>
        <time>2014-05-17T08:24:45Z</time>
      </trkpt>
      <trkpt lat="46.386670712381601" lon="6.490627136081457">
        <ele>368.39999389648437</ele>
        <time>2014-05-17T08:24:47Z</time>
      </trkpt>
      <trkpt lat="46.38679375872016" lon="6.490204269066453">
        <ele>368.39999389648437</ele>
        <time>2014-05-17T08:24:52Z</time>
      </trkpt>
      <trkpt lat="46.386809097602963" lon="6.490108799189329">
        <ele>368.20001220703125</ele>
        <time>2014-05-17T08:24:53Z</time>
      </trkpt>
      <trkpt lat="46.386824436485767" lon="6.490011569112539">
        <ele>368</ele>
        <time>2014-05-17T08:24:54Z</time>
      </trkpt>
      <trkpt lat="46.386867351830006" lon="6.489520221948624">
        <ele>367.39999389648438</ele>
        <time>2014-05-17T08:24:59Z</time>
      </trkpt>
      <trkpt lat="46.386879840865731" lon="6.4893245883286">
        <ele>367</ele>
        <time>2014-05-17T08:25:01Z</time>
      </trkpt>
      <trkpt lat="46.386884534731507" lon="6.488813292235136">
        <ele>366.60000610351562</ele>
        <time>2014-05-17T08:25:06Z</time>
      </trkpt>
      <trkpt lat="46.386896353214979" lon="6.488705165684223">
        <ele>366.60000610351562</ele>
        <time>2014-05-17T08:25:07Z</time>
      </trkpt>
      <trkpt lat="46.386908842250705" lon="6.488383552059531">
        <ele>365.79998779296875</ele>
        <time>2014-05-17T08:25:10Z</time>
      </trkpt>
      <trkpt lat="46.386916553601623" lon="6.488275090232492">
        <ele>365.60000610351562</ele>
        <time>2014-05-17T08:25:11Z</time>
      </trkpt>
      <trkpt lat="46.386945052072406" lon="6.487700846046209">
        <ele>364.60000610351562</ele>
        <time>2014-05-17T08:25:16Z</time>
      </trkpt>
      <trkpt lat="46.386969527229667" lon="6.487234560772777">
        <ele>364.20001220703125</ele>
        <time>2014-05-17T08:25:20Z</time>
      </trkpt>
      <trkpt lat="46.387005066499114" lon="6.486429311335087">
        <ele>363.79998779296875</ele>
        <time>2014-05-17T08:25:27Z</time>
      </trkpt>
      <trkpt lat="46.387008167803288" lon="6.486313305795193">
        <ele>363.60000610351562</ele>
        <time>2014-05-17T08:25:28Z</time>
      </trkpt>
      <trkpt lat="46.387019483372569" lon="6.48607911542058">
        <ele>363</ele>
        <time>2014-05-17T08:25:30Z</time>
      </trkpt>
      <trkpt lat="46.387046556919813" lon="6.485267160460353">
        <ele>363.20001220703125</ele>
        <time>2014-05-17T08:25:37Z</time>
      </trkpt>
      <trkpt lat="46.387040689587593" lon="6.485143695026636">
        <ele>362.39999389648437</ele>
        <time>2014-05-17T08:25:38Z</time>
      </trkpt>
      <trkpt lat="46.387017387896776" lon="6.484896764159203">
        <ele>361</ele>
        <time>2014-05-17T08:25:40Z</time>
      </trkpt>
      <trkpt lat="46.386962234973907" lon="6.484646899625659">
        <ele>360.20001220703125</ele>
        <time>2014-05-17T08:25:42Z</time>
      </trkpt>
      <trkpt lat="46.386920493096113" lon="6.48452234454453">
        <ele>359.39999389648437</ele>
        <time>2014-05-17T08:25:43Z</time>
      </trkpt>
      <trkpt lat="46.386822508648038" lon="6.484287651255727">
        <ele>357.79998779296875</ele>
        <time>2014-05-17T08:25:45Z</time>
      </trkpt>
      <trkpt lat="46.386762913316488" lon="6.484181703999639">
        <ele>357</ele>
        <time>2014-05-17T08:25:46Z</time>
      </trkpt>
      <trkpt lat="46.386696109548211" lon="6.484082378447056">
        <ele>356.39999389648438</ele>
        <time>2014-05-17T08:25:47Z</time>
      </trkpt>
      <trkpt lat="46.386462925001979" lon="6.483831591904163">
        <ele>354.79998779296875</ele>
        <time>2014-05-17T08:25:50Z</time>
      </trkpt>
      <trkpt lat="46.386274751275778" lon="6.4837087970227">
        <ele>354</ele>
        <time>2014-05-17T08:25:52Z</time>
      </trkpt>
      <trkpt lat="46.386180873960257" lon="6.483649956062436">
        <ele>353.60000610351562</ele>
        <time>2014-05-17T08:25:53Z</time>
      </trkpt>
      <trkpt lat="46.38608724810183" lon="6.48358709178865">
        <ele>352.79998779296875</ele>
        <time>2014-05-17T08:25:54Z</time>
      </trkpt>
      <trkpt lat="46.385994963347912" lon="6.483521880581975">
        <ele>351.79998779296875</ele>
        <time>2014-05-17T08:25:55Z</time>
      </trkpt>
      <trkpt lat="46.385806202888489" lon="6.483397744596005">
        <ele>350.39999389648438</ele>
        <time>2014-05-17T08:25:57Z</time>
      </trkpt>
      <trkpt lat="46.385427759960294" lon="6.483175121247768">
        <ele>349</ele>
        <time>2014-05-17T08:26:01Z</time>
      </trkpt>
      <trkpt lat="46.38533522374928" lon="6.483130194246769">
        <ele>348.60000610351562</ele>
        <time>2014-05-17T08:26:02Z</time>
      </trkpt>
      <trkpt lat="46.385239753872156" lon="6.483088033273816">
        <ele>347.79998779296875</ele>
        <time>2014-05-17T08:26:03Z</time>
      </trkpt>
      <trkpt lat="46.385048730298877" lon="6.483042351901531">
        <ele>346.79998779296875</ele>
        <time>2014-05-17T08:26:05Z</time>
      </trkpt>
      <trkpt lat="46.384855611249804" lon="6.483013853430748">
        <ele>346.79998779296875</ele>
        <time>2014-05-17T08:26:07Z</time>
      </trkpt>
      <trkpt lat="46.384400054812431" lon="6.483027013018727">
        <ele>347.20001220703125</ele>
        <time>2014-05-17T08:26:12Z</time>
      </trkpt>
      <trkpt lat="46.38381558470428" lon="6.483049560338259">
        <ele>346.60000610351562</ele>
        <time>2014-05-17T08:26:19Z</time>
      </trkpt>
      <trkpt lat="46.383734866976738" lon="6.483050398528576">
        <ele>346.60000610351562</ele>
        <time>2014-05-17T08:26:20Z</time>
      </trkpt>
      <trkpt lat="46.383341420441866" lon="6.483065402135253">
        <ele>347.20001220703125</ele>
        <time>2014-05-17T08:26:25Z</time>
      </trkpt>
      <trkpt lat="46.383260535076261" lon="6.483055846765637">
        <ele>347.20001220703125</ele>
        <time>2014-05-17T08:26:26Z</time>
      </trkpt>
      <trkpt lat="46.382855102419853" lon="6.482950150966644">
        <ele>346.79998779296875</ele>
        <time>2014-05-17T08:26:31Z</time>
      </trkpt>
      <trkpt lat="46.38230231590569" lon="6.482796762138605">
        <ele>347</ele>
        <time>2014-05-17T08:26:38Z</time>
      </trkpt>
      <trkpt lat="46.382146077230573" lon="6.482717553153634">
        <ele>347</ele>
        <time>2014-05-17T08:26:40Z</time>
      </trkpt>
      <trkpt lat="46.381991347298026" lon="6.482622670009732">
        <ele>346.79998779296875</ele>
        <time>2014-05-17T08:26:42Z</time>
      </trkpt>
      <trkpt lat="46.381441159173846" lon="6.482267864048481">
        <ele>346.39999389648437</ele>
        <time>2014-05-17T08:26:49Z</time>
      </trkpt>
      <trkpt lat="46.381207555532455" lon="6.482128724455833">
        <ele>346.39999389648437</ele>
        <time>2014-05-17T08:26:52Z</time>
      </trkpt>
      <trkpt lat="46.380650661885738" lon="6.481860922649503">
        <ele>345.60000610351562</ele>
        <time>2014-05-17T08:26:59Z</time>
      </trkpt>
      <trkpt lat="46.380571788176894" lon="6.48182756267488">
        <ele>345.39999389648437</ele>
        <time>2014-05-17T08:27:00Z</time>
      </trkpt>
      <trkpt lat="46.380035262554884" lon="6.48158716969192">
        <ele>345.60000610351562</ele>
        <time>2014-05-17T08:27:07Z</time>
      </trkpt>
      <trkpt lat="46.37988556176424" lon="6.481519276276231">
        <ele>345.39999389648437</ele>
        <time>2014-05-17T08:27:09Z</time>
      </trkpt>
      <trkpt lat="46.379316430538893" lon="6.481261029839516">
        <ele>345.20001220703125</ele>
        <time>2014-05-17T08:27:17Z</time>
      </trkpt>
      <trkpt lat="46.379247363656759" lon="6.481228591874242">
        <ele>345.20001220703125</ele>
        <time>2014-05-17T08:27:18Z</time>
      </trkpt>
      <trkpt lat="46.378771858289838" lon="6.481006974354386">
        <ele>345.79998779296875</ele>
        <time>2014-05-17T08:27:25Z</time>
      </trkpt>
      <trkpt lat="46.37864981777966" lon="6.480952827259898">
        <ele>346</ele>
        <time>2014-05-17T08:27:27Z</time>
      </trkpt>
      <trkpt lat="46.378557030111551" lon="6.480843108147383">
        <ele>346.39999389648437</ele>
        <time>2014-05-17T08:27:29Z</time>
      </trkpt>
      <trkpt lat="46.378502296283841" lon="6.480810083448887">
        <ele>346.60000610351562</ele>
        <time>2014-05-17T08:27:30Z</time>
      </trkpt>
      <trkpt lat="46.378387212753296" lon="6.480818381533027">
        <ele>346.60000610351562</ele>
        <time>2014-05-17T08:27:32Z</time>
      </trkpt>
      <trkpt lat="46.378332395106554" lon="6.480834474787116">
        <ele>347</ele>
        <time>2014-05-17T08:27:33Z</time>
      </trkpt>
      <trkpt lat="46.378218568861485" lon="6.480852328240871">
        <ele>347.39999389648437</ele>
        <time>2014-05-17T08:27:35Z</time>
      </trkpt>
      <trkpt lat="46.378100803121924" lon="6.480812849476934">
        <ele>347</ele>
        <time>2014-05-17T08:27:37Z</time>
      </trkpt>
      <trkpt lat="46.377673074603081" lon="6.480546640232205">
        <ele>346.20001220703125</ele>
        <time>2014-05-17T08:27:44Z</time>
      </trkpt>
      <trkpt lat="46.377569222822785" lon="6.480438513681293">
        <ele>346.39999389648437</ele>
        <time>2014-05-17T08:27:46Z</time>
      </trkpt>
      <trkpt lat="46.377431591972709" lon="6.480245059356093">
        <ele>346.60000610351562</ele>
        <time>2014-05-17T08:27:49Z</time>
      </trkpt>
      <trkpt lat="46.37739161029458" lon="6.480170460417867">
        <ele>346.60000610351562</ele>
        <time>2014-05-17T08:27:50Z</time>
      </trkpt>
      <trkpt lat="46.377257248386741" lon="6.479866784065962">
        <ele>346.60000610351562</ele>
        <time>2014-05-17T08:27:54Z</time>
      </trkpt>
      <trkpt lat="46.377145769074559" lon="6.479619853198528">
        <ele>347.39999389648437</ele>
        <time>2014-05-17T08:27:58Z</time>
      </trkpt>
      <trkpt lat="46.377083407714963" lon="6.479524131864309">
        <ele>347.20001220703125</ele>
        <time>2014-05-17T08:28:00Z</time>
      </trkpt>
      <trkpt lat="46.377046862617135" lon="6.479490855708718">
        <ele>346.79998779296875</ele>
        <time>2014-05-17T08:28:01Z</time>
      </trkpt>
      <trkpt lat="46.376936556771398" lon="6.479406533762813">
        <ele>347</ele>
        <time>2014-05-17T08:28:04Z</time>
      </trkpt>
      <trkpt lat="46.376685099676251" lon="6.479276781901717">
        <ele>346.60000610351562</ele>
        <time>2014-05-17T08:28:10Z</time>
      </trkpt>
      <trkpt lat="46.376309338957071" lon="6.479086428880692">
        <ele>346.60000610351562</ele>
        <time>2014-05-17T08:28:18Z</time>
      </trkpt>
      <trkpt lat="46.375990491360426" lon="6.478964723646641">
        <ele>346.79998779296875</ele>
        <time>2014-05-17T08:28:25Z</time>
      </trkpt>
      <trkpt lat="46.375764347612858" lon="6.478893309831619">
        <ele>348</ele>
        <time>2014-05-17T08:28:31Z</time>
      </trkpt>
      <trkpt lat="46.375672481954098" lon="6.47883371450007">
        <ele>349</ele>
        <time>2014-05-17T08:28:34Z</time>
      </trkpt>
      <trkpt lat="46.375611964613199" lon="6.478796079754829">
        <ele>350.39999389648438</ele>
        <time>2014-05-17T08:28:36Z</time>
      </trkpt>
      <trkpt lat="46.37551280669868" lon="6.478732125833631">
        <ele>350.79998779296875</ele>
        <time>2014-05-17T08:28:39Z</time>
      </trkpt>
      <trkpt lat="46.37540141120553" lon="6.478673284873366">
        <ele>351.39999389648437</ele>
        <time>2014-05-17T08:28:42Z</time>
      </trkpt>
      <trkpt lat="46.375308372080326" lon="6.478582173585892">
        <ele>352</ele>
        <time>2014-05-17T08:28:45Z</time>
      </trkpt>
      <trkpt lat="46.375246429815888" lon="6.478453259915113">
        <ele>352.39999389648437</ele>
        <time>2014-05-17T08:28:48Z</time>
      </trkpt>
      <trkpt lat="46.375181302428246" lon="6.478327447548509">
        <ele>353</ele>
        <time>2014-05-17T08:28:51Z</time>
      </trkpt>
      <trkpt lat="46.374964714050293" lon="6.477927546948195">
        <ele>353.39999389648438</ele>
        <time>2014-05-17T08:28:59Z</time>
      </trkpt>
      <trkpt lat="46.374939400702715" lon="6.477872310206294">
        <ele>353.60000610351562</ele>
        <time>2014-05-17T08:29:00Z</time>
      </trkpt>
      <trkpt lat="46.374716609716415" lon="6.477438295260072">
        <ele>354.20001220703125</ele>
        <time>2014-05-17T08:29:08Z</time>
      </trkpt>
      <trkpt lat="46.374688949435949" lon="6.477385070174933">
        <ele>354.60000610351562</ele>
        <time>2014-05-17T08:29:09Z</time>
      </trkpt>
      <trkpt lat="46.374531202018261" lon="6.477061528712511">
        <ele>355.79998779296875</ele>
        <time>2014-05-17T08:29:15Z</time>
      </trkpt>
      <trkpt lat="46.374506056308746" lon="6.477009560912848">
        <ele>355.79998779296875</ele>
        <time>2014-05-17T08:29:16Z</time>
      </trkpt>
      <trkpt lat="46.374386278912425" lon="6.476753577589989">
        <ele>357</ele>
        <time>2014-05-17T08:29:21Z</time>
      </trkpt>
      <trkpt lat="46.374312601983547" lon="6.476612677797675">
        <ele>357.39999389648437</ele>
        <time>2014-05-17T08:29:24Z</time>
      </trkpt>
      <trkpt lat="46.374209923669696" lon="6.476428946480155">
        <ele>358.20001220703125</ele>
        <time>2014-05-17T08:29:28Z</time>
      </trkpt>
      <trkpt lat="46.374115543439984" lon="6.476259799674153">
        <ele>359.20001220703125</ele>
        <time>2014-05-17T08:29:32Z</time>
      </trkpt>
      <trkpt lat="46.374072041362524" lon="6.476165000349283">
        <ele>359.39999389648437</ele>
        <time>2014-05-17T08:29:34Z</time>
      </trkpt>
      <trkpt lat="46.373940361663699" lon="6.475871633738279">
        <ele>360.60000610351562</ele>
        <time>2014-05-17T08:29:40Z</time>
      </trkpt>
      <trkpt lat="46.373829888179898" lon="6.475623026490212">
        <ele>361.60000610351562</ele>
        <time>2014-05-17T08:29:45Z</time>
      </trkpt>
      <trkpt lat="46.373785464093089" lon="6.475525042042136">
        <ele>361.79998779296875</ele>
        <time>2014-05-17T08:29:47Z</time>
      </trkpt>
      <trkpt lat="46.373677337542176" lon="6.475268974900246">
        <ele>362.39999389648437</ele>
        <time>2014-05-17T08:29:52Z</time>
      </trkpt>
      <trkpt lat="46.373656131327152" lon="6.475218012928963">
        <ele>362.60000610351562</ele>
        <time>2014-05-17T08:29:53Z</time>
      </trkpt>
      <trkpt lat="46.373635763302445" lon="6.4751694817096">
        <ele>362.79998779296875</ele>
        <time>2014-05-17T08:29:54Z</time>
      </trkpt>
      <trkpt lat="46.373534090816975" lon="6.474917102605104">
        <ele>364</ele>
        <time>2014-05-17T08:29:59Z</time>
      </trkpt>
      <trkpt lat="46.373512465506792" lon="6.474864380434156">
        <ele>364.20001220703125</ele>
        <time>2014-05-17T08:30:00Z</time>
      </trkpt>
      <trkpt lat="46.373433591797948" lon="6.474658604711294">
        <ele>365</ele>
        <time>2014-05-17T08:30:04Z</time>
      </trkpt>
      <trkpt lat="46.373398052528501" lon="6.474573109298945">
        <ele>365.20001220703125</ele>
        <time>2014-05-17T08:30:06Z</time>
      </trkpt>
      <trkpt lat="46.373289339244366" lon="6.474314862862229">
        <ele>366.20001220703125</ele>
        <time>2014-05-17T08:30:11Z</time>
      </trkpt>
      <trkpt lat="46.373267881572247" lon="6.474259626120329">
        <ele>366.39999389648437</ele>
        <time>2014-05-17T08:30:12Z</time>
      </trkpt>
      <trkpt lat="46.373131172731519" lon="6.473934156820178">
        <ele>367.20001220703125</ele>
        <time>2014-05-17T08:30:18Z</time>
      </trkpt>
      <trkpt lat="46.373111056163907" lon="6.473882691934705">
        <ele>367.39999389648438</ele>
        <time>2014-05-17T08:30:19Z</time>
      </trkpt>
      <trkpt lat="46.373025896027684" lon="6.473678927868605">
        <ele>368</ele>
        <time>2014-05-17T08:30:23Z</time>
      </trkpt>
      <trkpt lat="46.373001923784614" lon="6.473627798259258">
        <ele>368.39999389648437</ele>
        <time>2014-05-17T08:30:24Z</time>
      </trkpt>
      <trkpt lat="46.372978957369924" lon="6.47357658483088">
        <ele>368.60000610351562</ele>
        <time>2014-05-17T08:30:25Z</time>
      </trkpt>
      <trkpt lat="46.372900921851397" lon="6.47342411801219">
        <ele>369.39999389648437</ele>
        <time>2014-05-17T08:30:28Z</time>
      </trkpt>
      <trkpt lat="46.372782569378614" lon="6.473246337845922">
        <ele>370</ele>
        <time>2014-05-17T08:30:32Z</time>
      </trkpt>
      <trkpt lat="46.372724398970604" lon="6.473152376711369">
        <ele>370.60000610351562</ele>
        <time>2014-05-17T08:30:34Z</time>
      </trkpt>
      <trkpt lat="46.372629599645734" lon="6.473022624850273">
        <ele>371</ele>
        <time>2014-05-17T08:30:37Z</time>
      </trkpt>
      <trkpt lat="46.372544942423701" lon="6.472892789170146">
        <ele>371.39999389648437</ele>
        <time>2014-05-17T08:30:40Z</time>
      </trkpt>
      <trkpt lat="46.372485598549247" lon="6.472808131948113">
        <ele>371.79998779296875</ele>
        <time>2014-05-17T08:30:42Z</time>
      </trkpt>
      <trkpt lat="46.372322486713529" lon="6.472583161666989">
        <ele>372.60000610351562</ele>
        <time>2014-05-17T08:30:47Z</time>
      </trkpt>
      <trkpt lat="46.372193405404687" lon="6.472417786717415">
        <ele>373</ele>
        <time>2014-05-17T08:30:51Z</time>
      </trkpt>
      <trkpt lat="46.372068012133241" lon="6.472255764529109">
        <ele>373.60000610351562</ele>
        <time>2014-05-17T08:30:55Z</time>
      </trkpt>
      <trkpt lat="46.372007578611374" lon="6.472167503088713">
        <ele>374</ele>
        <time>2014-05-17T08:30:57Z</time>
      </trkpt>
      <trkpt lat="46.371898697689176" lon="6.471982095390558">
        <ele>375</ele>
        <time>2014-05-17T08:31:01Z</time>
      </trkpt>
      <trkpt lat="46.371870785951614" lon="6.47193381562829">
        <ele>375.39999389648437</ele>
        <time>2014-05-17T08:31:02Z</time>
      </trkpt>
      <trkpt lat="46.371700381860137" lon="6.471573142334819">
        <ele>376.20001220703125</ele>
        <time>2014-05-17T08:31:09Z</time>
      </trkpt>
      <trkpt lat="46.371679846197367" lon="6.47151849232614">
        <ele>376.60000610351562</ele>
        <time>2014-05-17T08:31:10Z</time>
      </trkpt>
      <trkpt lat="46.371519835665822" lon="6.471180785447359">
        <ele>377.20001220703125</ele>
        <time>2014-05-17T08:31:17Z</time>
      </trkpt>
      <trkpt lat="46.371491169556975" lon="6.4711441565305">
        <ele>377.39999389648437</ele>
        <time>2014-05-17T08:31:18Z</time>
      </trkpt>
      <trkpt lat="46.371358232572675" lon="6.471046758815646">
        <ele>378</ele>
        <time>2014-05-17T08:31:22Z</time>
      </trkpt>
      <trkpt lat="46.371293943375349" lon="6.471014656126499">
        <ele>378.39999389648437</ele>
        <time>2014-05-17T08:31:24Z</time>
      </trkpt>
      <trkpt lat="46.371238706633449" lon="6.470952881500125">
        <ele>378.39999389648437</ele>
        <time>2014-05-17T08:31:27Z</time>
      </trkpt>
      <trkpt lat="46.371221775189042" lon="6.470950283110142">
        <ele>378.20001220703125</ele>
        <time>2014-05-17T08:31:28Z</time>
      </trkpt>
      <trkpt lat="46.371213896200061" lon="6.47099319845438">
        <ele>378.20001220703125</ele>
        <time>2014-05-17T08:31:30Z</time>
      </trkpt>
      <trkpt lat="46.371259493753314" lon="6.471127728000283">
        <ele>378.39999389648437</ele>
        <time>2014-05-17T08:31:34Z</time>
      </trkpt>
      <trkpt lat="46.371245915070176" lon="6.47125999443233">
        <ele>379.20001220703125</ele>
        <time>2014-05-17T08:31:38Z</time>
      </trkpt>
      <trkpt lat="46.371225547045469" lon="6.471260413527489">
        <ele>379.39999389648437</ele>
        <time>2014-05-17T08:31:39Z</time>
      </trkpt>
      <trkpt lat="46.371194701641798" lon="6.471218671649694">
        <ele>379.39999389648437</ele>
        <time>2014-05-17T08:31:41Z</time>
      </trkpt>
      <trkpt lat="46.371203418821096" lon="6.47112169303">
        <ele>379.20001220703125</ele>
        <time>2014-05-17T08:31:44Z</time>
      </trkpt>
      <trkpt lat="46.371182212606072" lon="6.470974506810308">
        <ele>378.20001220703125</ele>
        <time>2014-05-17T08:31:47Z</time>
      </trkpt>
      <trkpt lat="46.37115765362978" lon="6.470836624503136">
        <ele>378</ele>
        <time>2014-05-17T08:31:49Z</time>
      </trkpt>
      <trkpt lat="46.371113983914256" lon="6.470599668100476">
        <ele>377</ele>
        <time>2014-05-17T08:31:52Z</time>
      </trkpt>
      <trkpt lat="46.371075678616762" lon="6.470418535172939">
        <ele>376.20001220703125</ele>
        <time>2014-05-17T08:31:54Z</time>
      </trkpt>
      <trkpt lat="46.371058076620102" lon="6.470320215448737">
        <ele>375.79998779296875</ele>
        <time>2014-05-17T08:31:55Z</time>
      </trkpt>
      <trkpt lat="46.370985489338636" lon="6.469986867159605">
        <ele>374.20001220703125</ele>
        <time>2014-05-17T08:31:58Z</time>
      </trkpt>
      <trkpt lat="46.370912399142981" lon="6.469747899100184">
        <ele>372.39999389648437</ele>
        <time>2014-05-17T08:32:00Z</time>
      </trkpt>
      <trkpt lat="46.370889516547322" lon="6.469619572162628">
        <ele>371.79998779296875</ele>
        <time>2014-05-17T08:32:01Z</time>
      </trkpt>
      <trkpt lat="46.370877614244819" lon="6.469492670148611">
        <ele>371.39999389648437</ele>
        <time>2014-05-17T08:32:02Z</time>
      </trkpt>
      <trkpt lat="46.370862191542983" lon="6.469366773962975">
        <ele>370.79998779296875</ele>
        <time>2014-05-17T08:32:03Z</time>
      </trkpt>
      <trkpt lat="46.370815085247159" lon="6.469111125916243">
        <ele>369.39999389648437</ele>
        <time>2014-05-17T08:32:05Z</time>
      </trkpt>
      <trkpt lat="46.370788598433137" lon="6.468979446217418">
        <ele>368.79998779296875</ele>
        <time>2014-05-17T08:32:06Z</time>
      </trkpt>
      <trkpt lat="46.370762111619115" lon="6.46885103546083">
        <ele>368.39999389648437</ele>
        <time>2014-05-17T08:32:07Z</time>
      </trkpt>
      <trkpt lat="46.370624899864197" lon="6.468270756304264">
        <ele>368.60000610351562</ele>
        <time>2014-05-17T08:32:12Z</time>
      </trkpt>
      <trkpt lat="46.370442761108279" lon="6.467674551531673">
        <ele>369.39999389648437</ele>
        <time>2014-05-17T08:32:18Z</time>
      </trkpt>
      <trkpt lat="46.370403533801436" lon="6.467593917623162">
        <ele>369.60000610351562</ele>
        <time>2014-05-17T08:32:19Z</time>
      </trkpt>
      <trkpt lat="46.370329605415463" lon="6.467336174100637">
        <ele>370</ele>
        <time>2014-05-17T08:32:22Z</time>
      </trkpt>
      <trkpt lat="46.370318038389087" lon="6.467249672859907">
        <ele>370.20001220703125</ele>
        <time>2014-05-17T08:32:23Z</time>
      </trkpt>
      <trkpt lat="46.370300520211458" lon="6.467168871313334">
        <ele>370.39999389648438</ele>
        <time>2014-05-17T08:32:24Z</time>
      </trkpt>
      <trkpt lat="46.37027520686388" lon="6.467097960412502">
        <ele>370.39999389648438</ele>
        <time>2014-05-17T08:32:25Z</time>
      </trkpt>
      <trkpt lat="46.370244110003114" lon="6.467032749205828">
        <ele>370.39999389648438</ele>
        <time>2014-05-17T08:32:26Z</time>
      </trkpt>
      <trkpt lat="46.370178060606122" lon="6.46688824519515">
        <ele>370.39999389648438</ele>
        <time>2014-05-17T08:32:28Z</time>
      </trkpt>
      <trkpt lat="46.370157776400447" lon="6.466811718419194">
        <ele>370.20001220703125</ele>
        <time>2014-05-17T08:32:29Z</time>
      </trkpt>
      <trkpt lat="46.370122656226158" lon="6.466549281030893">
        <ele>370</ele>
        <time>2014-05-17T08:32:32Z</time>
      </trkpt>
      <trkpt lat="46.370109496638179" lon="6.466371500864625">
        <ele>370</ele>
        <time>2014-05-17T08:32:34Z</time>
      </trkpt>
      <trkpt lat="46.37006021104753" lon="6.465964475646615">
        <ele>370.79998779296875</ele>
        <time>2014-05-17T08:32:39Z</time>
      </trkpt>
      <trkpt lat="46.370043698698282" lon="6.465653507038951">
        <ele>368.79998779296875</ele>
        <time>2014-05-17T08:32:42Z</time>
      </trkpt>
      <trkpt lat="46.370035568252206" lon="6.46554940380156">
        <ele>368</ele>
        <time>2014-05-17T08:32:43Z</time>
      </trkpt>
      <trkpt lat="46.370023833587766" lon="6.465447060763836">
        <ele>367.39999389648438</ele>
        <time>2014-05-17T08:32:44Z</time>
      </trkpt>
      <trkpt lat="46.370008159428835" lon="6.465348321944475">
        <ele>367.39999389648438</ele>
        <time>2014-05-17T08:32:45Z</time>
      </trkpt>
      <trkpt lat="46.369931884109974" lon="6.464941632002592">
        <ele>367.39999389648438</ele>
        <time>2014-05-17T08:32:49Z</time>
      </trkpt>
      <trkpt lat="46.369829373434186" lon="6.464417008683085">
        <ele>367</ele>
        <time>2014-05-17T08:32:54Z</time>
      </trkpt>
      <trkpt lat="46.369695011526346" lon="6.463790293782949">
        <ele>366.79998779296875</ele>
        <time>2014-05-17T08:33:00Z</time>
      </trkpt>
      <trkpt lat="46.369540533050895" lon="6.46314924582839">
        <ele>366.60000610351562</ele>
        <time>2014-05-17T08:33:06Z</time>
      </trkpt>
      <trkpt lat="46.369492672383785" lon="6.462935591116548">
        <ele>366.39999389648437</ele>
        <time>2014-05-17T08:33:08Z</time>
      </trkpt>
      <trkpt lat="46.369417319074273" lon="6.462620012462139">
        <ele>365.79998779296875</ele>
        <time>2014-05-17T08:33:11Z</time>
      </trkpt>
      <trkpt lat="46.369267702102661" lon="6.462042666971684">
        <ele>367</ele>
        <time>2014-05-17T08:33:17Z</time>
      </trkpt>
      <trkpt lat="46.369245490059257" lon="6.461955578997731">
        <ele>366.79998779296875</ele>
        <time>2014-05-17T08:33:18Z</time>
      </trkpt>
      <trkpt lat="46.36920316144824" lon="6.461777547374368">
        <ele>366.39999389648437</ele>
        <time>2014-05-17T08:33:20Z</time>
      </trkpt>
      <trkpt lat="46.369147673249245" lon="6.461496753618121">
        <ele>366.20001220703125</ele>
        <time>2014-05-17T08:33:23Z</time>
      </trkpt>
      <trkpt lat="46.368977520614862" lon="6.460854448378086">
        <ele>366.39999389648437</ele>
        <time>2014-05-17T08:33:30Z</time>
      </trkpt>
      <trkpt lat="46.368832513689995" lon="6.460344158113003">
        <ele>367.39999389648438</ele>
        <time>2014-05-17T08:33:36Z</time>
      </trkpt>
      <trkpt lat="46.368803009390831" lon="6.460264446213841">
        <ele>367.60000610351562</ele>
        <time>2014-05-17T08:33:37Z</time>
      </trkpt>
      <trkpt lat="46.368677197024226" lon="6.459770584478974">
        <ele>367.79998779296875</ele>
        <time>2014-05-17T08:33:43Z</time>
      </trkpt>
      <trkpt lat="46.368586672469974" lon="6.459460873156786">
        <ele>368.20001220703125</ele>
        <time>2014-05-17T08:33:47Z</time>
      </trkpt>
      <trkpt lat="46.368557922542095" lon="6.459388788789511">
        <ele>368.60000610351562</ele>
        <time>2014-05-17T08:33:48Z</time>
      </trkpt>
      <trkpt lat="46.368529172614217" lon="6.459317794069648">
        <ele>368.79998779296875</ele>
        <time>2014-05-17T08:33:49Z</time>
      </trkpt>
      <trkpt lat="46.368427751585841" lon="6.459131548181176">
        <ele>368.60000610351562</ele>
        <time>2014-05-17T08:33:52Z</time>
      </trkpt>
      <trkpt lat="46.368349464610219" lon="6.45901738665998">
        <ele>368.60000610351562</ele>
        <time>2014-05-17T08:33:54Z</time>
      </trkpt>
      <trkpt lat="46.368009159341455" lon="6.45857373252511">
        <ele>369</ele>
        <time>2014-05-17T08:34:02Z</time>
      </trkpt>
      <trkpt lat="46.367931123822927" lon="6.45846426486969">
        <ele>369.39999389648437</ele>
        <time>2014-05-17T08:34:04Z</time>
      </trkpt>
      <trkpt lat="46.367895249277353" lon="6.458410872146487">
        <ele>369.60000610351562</ele>
        <time>2014-05-17T08:34:05Z</time>
      </trkpt>
      <trkpt lat="46.367858536541462" lon="6.45836116746068">
        <ele>369.79998779296875</ele>
        <time>2014-05-17T08:34:06Z</time>
      </trkpt>
      <trkpt lat="46.367637673392892" lon="6.457977863028646">
        <ele>369.60000610351562</ele>
        <time>2014-05-17T08:34:13Z</time>
      </trkpt>
      <trkpt lat="46.367442291229963" lon="6.457552146166563">
        <ele>369.79998779296875</ele>
        <time>2014-05-17T08:34:19Z</time>
      </trkpt>
      <trkpt lat="46.36718412861228" lon="6.456967424601317">
        <ele>369.79998779296875</ele>
        <time>2014-05-17T08:34:27Z</time>
      </trkpt>
      <trkpt lat="46.366971144452691" lon="6.456351689994335">
        <ele>370.79998779296875</ele>
        <time>2014-05-17T08:34:35Z</time>
      </trkpt>
      <trkpt lat="46.366824293509126" lon="6.455812314525247">
        <ele>371.20001220703125</ele>
        <time>2014-05-17T08:34:42Z</time>
      </trkpt>
      <trkpt lat="46.366802081465721" lon="6.455730004236102">
        <ele>371.20001220703125</ele>
        <time>2014-05-17T08:34:43Z</time>
      </trkpt>
      <trkpt lat="46.366697978228331" lon="6.455432949587703">
        <ele>370.39999389648438</ele>
        <time>2014-05-17T08:34:47Z</time>
      </trkpt>
      <trkpt lat="46.366665791720152" lon="6.45536589436233">
        <ele>370.39999389648438</ele>
        <time>2014-05-17T08:34:48Z</time>
      </trkpt>
      <trkpt lat="46.36663586832583" lon="6.455295905470848">
        <ele>370.39999389648438</ele>
        <time>2014-05-17T08:34:49Z</time>
      </trkpt>
      <trkpt lat="46.366524137556553" lon="6.454999856650829">
        <ele>369.79998779296875</ele>
        <time>2014-05-17T08:34:53Z</time>
      </trkpt>
      <trkpt lat="46.366349877789617" lon="6.454570032656193">
        <ele>370.20001220703125</ele>
        <time>2014-05-17T08:34:59Z</time>
      </trkpt>
      <trkpt lat="46.366284834221005" lon="6.454428378492594">
        <ele>369.60000610351562</ele>
        <time>2014-05-17T08:35:01Z</time>
      </trkpt>
      <trkpt lat="46.366153825074434" lon="6.454113973304629">
        <ele>369</ele>
        <time>2014-05-17T08:35:05Z</time>
      </trkpt>
      <trkpt lat="46.366080567240715" lon="6.453956058248878">
        <ele>368.39999389648437</ele>
        <time>2014-05-17T08:35:07Z</time>
      </trkpt>
      <trkpt lat="46.365846628323197" lon="6.453502429649234">
        <ele>368</ele>
        <time>2014-05-17T08:35:13Z</time>
      </trkpt>
      <trkpt lat="46.36547539383173" lon="6.452842019498348">
        <ele>368.79998779296875</ele>
        <time>2014-05-17T08:35:22Z</time>
      </trkpt>
      <trkpt lat="46.365232151001692" lon="6.452287221327424">
        <ele>368.20001220703125</ele>
        <time>2014-05-17T08:35:29Z</time>
      </trkpt>
      <trkpt lat="46.364987483248115" lon="6.451672576367855">
        <ele>368.60000610351562</ele>
        <time>2014-05-17T08:35:37Z</time>
      </trkpt>
      <trkpt lat="46.364827891811728" lon="6.451295893639326">
        <ele>368.79998779296875</ele>
        <time>2014-05-17T08:35:42Z</time>
      </trkpt>
      <trkpt lat="46.36476100422442" lon="6.451154155656695">
        <ele>368.79998779296875</ele>
        <time>2014-05-17T08:35:44Z</time>
      </trkpt>
      <trkpt lat="46.364520359784365" lon="6.450630705803633">
        <ele>368.20001220703125</ele>
        <time>2014-05-17T08:35:51Z</time>
      </trkpt>
      <trkpt lat="46.364310309290886" lon="6.450207252055407">
        <ele>368.20001220703125</ele>
        <time>2014-05-17T08:35:57Z</time>
      </trkpt>
      <trkpt lat="46.364128421992064" lon="6.449813386425376">
        <ele>368</ele>
        <time>2014-05-17T08:36:03Z</time>
      </trkpt>
      <trkpt lat="46.3640021905303" lon="6.449471237137914">
        <ele>368.20001220703125</ele>
        <time>2014-05-17T08:36:08Z</time>
      </trkpt>
      <trkpt lat="46.363967154175043" lon="6.449322290718556">
        <ele>368</ele>
        <time>2014-05-17T08:36:10Z</time>
      </trkpt>
      <trkpt lat="46.363906804472208" lon="6.44898391328752">
        <ele>367.39999389648438</ele>
        <time>2014-05-17T08:36:15Z</time>
      </trkpt>
      <trkpt lat="46.363892136141658" lon="6.448965389281511">
        <ele>367.60000610351562</ele>
        <time>2014-05-17T08:36:16Z</time>
      </trkpt>
      <trkpt lat="46.363873947411776" lon="6.448994893580675">
        <ele>368.39999389648437</ele>
        <time>2014-05-17T08:36:48Z</time>
      </trkpt>
      <trkpt lat="46.363822398707271" lon="6.449023811146617">
        <ele>368.39999389648437</ele>
        <time>2014-05-17T08:36:51Z</time>
      </trkpt>
      <trkpt lat="46.363722151145339" lon="6.448914846405387">
        <ele>368.39999389648437</ele>
        <time>2014-05-17T08:36:57Z</time>
      </trkpt>
      <trkpt lat="46.363634392619133" lon="6.448725499212742">
        <ele>368.39999389648437</ele>
        <time>2014-05-17T08:37:02Z</time>
      </trkpt>
      <trkpt lat="46.363541437312961" lon="6.448609158396721">
        <ele>368</ele>
        <time>2014-05-17T08:37:05Z</time>
      </trkpt>
      <trkpt lat="46.36348276399076" lon="6.448518801480532">
        <ele>368</ele>
        <time>2014-05-17T08:37:07Z</time>
      </trkpt>
      <trkpt lat="46.363412942737341" lon="6.448419559746981">
        <ele>368.39999389648437</ele>
        <time>2014-05-17T08:37:11Z</time>
      </trkpt>
      <trkpt lat="46.363393915817142" lon="6.448420733213425">
        <ele>368.60000610351562</ele>
        <time>2014-05-17T08:37:44Z</time>
      </trkpt>
      <trkpt lat="46.363407745957375" lon="6.448387205600739">
        <ele>368.20001220703125</ele>
        <time>2014-05-17T08:37:46Z</time>
      </trkpt>
      <trkpt lat="46.363478489220142" lon="6.448303386569023">
        <ele>367.39999389648438</ele>
        <time>2014-05-17T08:37:49Z</time>
      </trkpt>
      <trkpt lat="46.363546047359705" lon="6.448224345222116">
        <ele>366.79998779296875</ele>
        <time>2014-05-17T08:37:51Z</time>
      </trkpt>
      <trkpt lat="46.36358343064785" lon="6.448181010782719">
        <ele>366.39999389648437</ele>
        <time>2014-05-17T08:37:52Z</time>
      </trkpt>
      <trkpt lat="46.363712511956692" lon="6.448058299720287">
        <ele>365.20001220703125</ele>
        <time>2014-05-17T08:37:55Z</time>
      </trkpt>
      <trkpt lat="46.363751152530313" lon="6.448017647489905">
        <ele>364.79998779296875</ele>
        <time>2014-05-17T08:37:56Z</time>
      </trkpt>
      <trkpt lat="46.363787110894918" lon="6.447986885905266">
        <ele>364.60000610351562</ele>
        <time>2014-05-17T08:37:57Z</time>
      </trkpt>
      <trkpt lat="46.363820051774383" lon="6.447969367727637">
        <ele>364.20001220703125</ele>
        <time>2014-05-17T08:37:58Z</time>
      </trkpt>
      <trkpt lat="46.363850478082895" lon="6.447952855378389">
        <ele>364</ele>
        <time>2014-05-17T08:37:59Z</time>
      </trkpt>
      <trkpt lat="46.363934967666864" lon="6.447818158194423">
        <ele>363.20001220703125</ele>
        <time>2014-05-17T08:38:02Z</time>
      </trkpt>
      <trkpt lat="46.363944187760353" lon="6.447744313627482">
        <ele>362.60000610351562</ele>
        <time>2014-05-17T08:38:03Z</time>
      </trkpt>
      <trkpt lat="46.363954162225127" lon="6.447664182633162">
        <ele>362.20001220703125</ele>
        <time>2014-05-17T08:38:04Z</time>
      </trkpt>
      <trkpt lat="46.363974697887897" lon="6.447498304769397">
        <ele>361.20001220703125</ele>
        <time>2014-05-17T08:38:06Z</time>
      </trkpt>
      <trkpt lat="46.363964304327965" lon="6.447125812992454">
        <ele>360.20001220703125</ele>
        <time>2014-05-17T08:38:10Z</time>
      </trkpt>
      <trkpt lat="46.363943098112941" lon="6.447034869343042">
        <ele>360</ele>
        <time>2014-05-17T08:38:11Z</time>
      </trkpt>
      <trkpt lat="46.363872438669205" lon="6.446768408641219">
        <ele>359.39999389648437</ele>
        <time>2014-05-17T08:38:14Z</time>
      </trkpt>
      <trkpt lat="46.363797085359693" lon="6.446526674553752">
        <ele>359.60000610351562</ele>
        <time>2014-05-17T08:38:17Z</time>
      </trkpt>
      <trkpt lat="46.36358049698174" lon="6.445870203897357">
        <ele>359</ele>
        <time>2014-05-17T08:38:25Z</time>
      </trkpt>
      <trkpt lat="46.363560799509287" lon="6.445781523361802">
        <ele>359</ele>
        <time>2014-05-17T08:38:26Z</time>
      </trkpt>
      <trkpt lat="46.363510591909289" lon="6.445490000769496">
        <ele>357.60000610351562</ele>
        <time>2014-05-17T08:38:29Z</time>
      </trkpt>
      <trkpt lat="46.363492654636502" lon="6.445386484265328">
        <ele>357.20001220703125</ele>
        <time>2014-05-17T08:38:30Z</time>
      </trkpt>
      <trkpt lat="46.363449571654201" lon="6.44505481235683">
        <ele>356.20001220703125</ele>
        <time>2014-05-17T08:38:33Z</time>
      </trkpt>
      <trkpt lat="46.36341973207891" lon="6.444822633638978">
        <ele>355.20001220703125</ele>
        <time>2014-05-17T08:38:35Z</time>
      </trkpt>
      <trkpt lat="46.363369775936007" lon="6.444472437724471">
        <ele>354</ele>
        <time>2014-05-17T08:38:38Z</time>
      </trkpt>
      <trkpt lat="46.363295847550035" lon="6.444136658683419">
        <ele>353.39999389648438</ele>
        <time>2014-05-17T08:38:41Z</time>
      </trkpt>
      <trkpt lat="46.36308453977108" lon="6.443556882441044">
        <ele>353.79998779296875</ele>
        <time>2014-05-17T08:38:47Z</time>
      </trkpt>
      <trkpt lat="46.362715316936374" lon="6.442873338237405">
        <ele>353.60000610351562</ele>
        <time>2014-05-17T08:38:55Z</time>
      </trkpt>
      <trkpt lat="46.362359337508678" lon="6.442242432385683">
        <ele>353.79998779296875</ele>
        <time>2014-05-17T08:39:03Z</time>
      </trkpt>
      <trkpt lat="46.362316254526377" lon="6.442166492342949">
        <ele>354</ele>
        <time>2014-05-17T08:39:04Z</time>
      </trkpt>
      <trkpt lat="46.362121878191829" lon="6.441792324185371">
        <ele>354.39999389648437</ele>
        <time>2014-05-17T08:39:09Z</time>
      </trkpt>
      <trkpt lat="46.362010734155774" lon="6.441590907052159">
        <ele>355</ele>
        <time>2014-05-17T08:39:12Z</time>
      </trkpt>
      <trkpt lat="46.361943176016212" lon="6.441463753581047">
        <ele>355.39999389648437</ele>
        <time>2014-05-17T08:39:14Z</time>
      </trkpt>
      <trkpt lat="46.36191819794476" lon="6.441398710012436">
        <ele>355.60000610351562</ele>
        <time>2014-05-17T08:39:15Z</time>
      </trkpt>
      <trkpt lat="46.361801605671644" lon="6.441117161884904">
        <ele>356</ele>
        <time>2014-05-17T08:39:20Z</time>
      </trkpt>
      <trkpt lat="46.361765395849943" lon="6.441109785810113">
        <ele>356.60000610351562</ele>
        <time>2014-05-17T08:39:21Z</time>
      </trkpt>
      <trkpt lat="46.361672189086676" lon="6.441124957054853">
        <ele>357.39999389648437</ele>
        <time>2014-05-17T08:39:24Z</time>
      </trkpt>
      <trkpt lat="46.361645199358463" lon="6.441130489110947">
        <ele>357.79998779296875</ele>
        <time>2014-05-17T08:39:25Z</time>
      </trkpt>
      <trkpt lat="46.361528690904379" lon="6.441113725304604">
        <ele>359</ele>
        <time>2014-05-17T08:39:30Z</time>
      </trkpt>
      <trkpt lat="46.361323334276676" lon="6.441087573766708">
        <ele>360</ele>
        <time>2014-05-17T08:39:37Z</time>
      </trkpt>
      <trkpt lat="46.361217889934778" lon="6.441066954284906">
        <ele>361.20001220703125</ele>
        <time>2014-05-17T08:39:40Z</time>
      </trkpt>
      <trkpt lat="46.361110936850309" lon="6.441052788868547">
        <ele>362</ele>
        <time>2014-05-17T08:39:43Z</time>
      </trkpt>
      <trkpt lat="46.361076235771179" lon="6.441044742241502">
        <ele>362.39999389648437</ele>
        <time>2014-05-17T08:39:44Z</time>
      </trkpt>
      <trkpt lat="46.360973138362169" lon="6.441014232113957">
        <ele>363.60000610351562</ele>
        <time>2014-05-17T08:39:47Z</time>
      </trkpt>
      <trkpt lat="46.360840201377869" lon="6.440975172445178">
        <ele>364.60000610351562</ele>
        <time>2014-05-17T08:39:51Z</time>
      </trkpt>
      <trkpt lat="46.360806841403246" lon="6.440960001200438">
        <ele>364.79998779296875</ele>
        <time>2014-05-17T08:39:52Z</time>
      </trkpt>
      <trkpt lat="46.360706258565187" lon="6.440919013693929">
        <ele>365.79998779296875</ele>
        <time>2014-05-17T08:39:55Z</time>
      </trkpt>
      <trkpt lat="46.36058715172112" lon="6.44084676168859">
        <ele>366.79998779296875</ele>
        <time>2014-05-17T08:39:59Z</time>
      </trkpt>
      <trkpt lat="46.360470224171877" lon="6.440763780847192">
        <ele>368.20001220703125</ele>
        <time>2014-05-17T08:40:03Z</time>
      </trkpt>
      <trkpt lat="46.360415825620294" lon="6.440718770027161">
        <ele>368.79998779296875</ele>
        <time>2014-05-17T08:40:05Z</time>
      </trkpt>
      <trkpt lat="46.360366623848677" lon="6.440676609054208">
        <ele>369.20001220703125</ele>
        <time>2014-05-17T08:40:07Z</time>
      </trkpt>
      <trkpt lat="46.360259419307113" lon="6.440583569929004">
        <ele>370.60000610351562</ele>
        <time>2014-05-17T08:40:11Z</time>
      </trkpt>
      <trkpt lat="46.360229747369885" lon="6.440561357885599">
        <ele>370.79998779296875</ele>
        <time>2014-05-17T08:40:12Z</time>
      </trkpt>
      <trkpt lat="46.360141737386584" lon="6.44050226546824">
        <ele>371.60000610351562</ele>
        <time>2014-05-17T08:40:15Z</time>
      </trkpt>
      <trkpt lat="46.360017517581582" lon="6.440452812239528">
        <ele>372.60000610351562</ele>
        <time>2014-05-17T08:40:19Z</time>
      </trkpt>
      <trkpt lat="46.359859770163894" lon="6.440468486398459">
        <ele>373.79998779296875</ele>
        <time>2014-05-17T08:40:24Z</time>
      </trkpt>
      <trkpt lat="46.359804784879088" lon="6.440493045374751">
        <ele>374.39999389648437</ele>
        <time>2014-05-17T08:40:26Z</time>
      </trkpt>
      <trkpt lat="46.359725911170244" lon="6.440541660413146">
        <ele>375.20001220703125</ele>
        <time>2014-05-17T08:40:29Z</time>
      </trkpt>
      <trkpt lat="46.359630189836025" lon="6.440622881054878">
        <ele>376</ele>
        <time>2014-05-17T08:40:33Z</time>
      </trkpt>
      <trkpt lat="46.359605044126511" lon="6.440641824156046">
        <ele>376.20001220703125</ele>
        <time>2014-05-17T08:40:34Z</time>
      </trkpt>
      <trkpt lat="46.359444195404649" lon="6.440778700634837">
        <ele>377.20001220703125</ele>
        <time>2014-05-17T08:40:40Z</time>
      </trkpt>
      <trkpt lat="46.359308743849397" lon="6.440902585163713">
        <ele>378.39999389648437</ele>
        <time>2014-05-17T08:40:45Z</time>
      </trkpt>
      <trkpt lat="46.359253171831369" lon="6.440952708944678">
        <ele>378.60000610351562</ele>
        <time>2014-05-17T08:40:47Z</time>
      </trkpt>
      <trkpt lat="46.359104393050075" lon="6.441048765555024">
        <ele>379.60000610351562</ele>
        <time>2014-05-17T08:40:52Z</time>
      </trkpt>
      <trkpt lat="46.359059549868107" lon="6.441083885729313">
        <ele>380</ele>
        <time>2014-05-17T08:40:54Z</time>
      </trkpt>
      <trkpt lat="46.35889258235693" lon="6.441224617883563">
        <ele>380.60000610351562</ele>
        <time>2014-05-17T08:41:00Z</time>
      </trkpt>
      <trkpt lat="46.358719496056437" lon="6.441371887922287">
        <ele>381.79998779296875</ele>
        <time>2014-05-17T08:41:06Z</time>
      </trkpt>
      <trkpt lat="46.358625451102853" lon="6.441414719447494">
        <ele>382.39999389648437</ele>
        <time>2014-05-17T08:41:09Z</time>
      </trkpt>
      <trkpt lat="46.358498968183994" lon="6.441334756091237">
        <ele>382.39999389648437</ele>
        <time>2014-05-17T08:41:13Z</time>
      </trkpt>
      <trkpt lat="46.358373491093516" lon="6.441100900992751">
        <ele>382.39999389648437</ele>
        <time>2014-05-17T08:41:18Z</time>
      </trkpt>
      <trkpt lat="46.358162183314562" lon="6.440701000392437">
        <ele>382.60000610351562</ele>
        <time>2014-05-17T08:41:25Z</time>
      </trkpt>
      <trkpt lat="46.35789480060339" lon="6.440147208049893">
        <ele>382.60000610351562</ele>
        <time>2014-05-17T08:41:34Z</time>
      </trkpt>
      <trkpt lat="46.357759181410074" lon="6.439938163384795">
        <ele>382.60000610351562</ele>
        <time>2014-05-17T08:41:38Z</time>
      </trkpt>
      <trkpt lat="46.357728922739625" lon="6.439879909157753">
        <ele>382.60000610351562</ele>
        <time>2014-05-17T08:41:39Z</time>
      </trkpt>
      <trkpt lat="46.357667064294219" lon="6.439680168405175">
        <ele>382.60000610351562</ele>
        <time>2014-05-17T08:41:42Z</time>
      </trkpt>
      <trkpt lat="46.357645774260163" lon="6.439614538103342">
        <ele>382.39999389648437</ele>
        <time>2014-05-17T08:41:43Z</time>
      </trkpt>
      <trkpt lat="46.357491882517934" lon="6.439227880910039">
        <ele>382.20001220703125</ele>
        <time>2014-05-17T08:41:49Z</time>
      </trkpt>
      <trkpt lat="46.357355676591396" lon="6.43879453651607">
        <ele>382</ele>
        <time>2014-05-17T08:41:55Z</time>
      </trkpt>
      <trkpt lat="46.357274036854506" lon="6.438142592087388">
        <ele>382</ele>
        <time>2014-05-17T08:42:03Z</time>
      </trkpt>
      <trkpt lat="46.35725961998105" lon="6.438054917380214">
        <ele>381.39999389648437</ele>
        <time>2014-05-17T08:42:04Z</time>
      </trkpt>
      <trkpt lat="46.357241682708263" lon="6.437876466661692">
        <ele>380.60000610351562</ele>
        <time>2014-05-17T08:42:06Z</time>
      </trkpt>
      <trkpt lat="46.357231456786394" lon="6.437786696478725">
        <ele>380.39999389648437</ele>
        <time>2014-05-17T08:42:07Z</time>
      </trkpt>
      <trkpt lat="46.357175717130303" lon="6.43740875646472">
        <ele>379.60000610351562</ele>
        <time>2014-05-17T08:42:11Z</time>
      </trkpt>
      <trkpt lat="46.357147302478552" lon="6.437212284654379">
        <ele>378.39999389648437</ele>
        <time>2014-05-17T08:42:13Z</time>
      </trkpt>
      <trkpt lat="46.357118636369705" lon="6.437014807015657">
        <ele>378.60000610351562</ele>
        <time>2014-05-17T08:42:15Z</time>
      </trkpt>
      <trkpt lat="46.357084605842829" lon="6.436733426526189">
        <ele>377.20001220703125</ele>
        <time>2014-05-17T08:42:18Z</time>
      </trkpt>
      <trkpt lat="46.357031045481563" lon="6.436365628615022">
        <ele>377.60000610351562</ele>
        <time>2014-05-17T08:42:22Z</time>
      </trkpt>
      <trkpt lat="46.356895761564374" lon="6.435624752193689">
        <ele>376.79998779296875</ele>
        <time>2014-05-17T08:42:30Z</time>
      </trkpt>
      <trkpt lat="46.356758382171392" lon="6.4350232668221">
        <ele>376.20001220703125</ele>
        <time>2014-05-17T08:42:36Z</time>
      </trkpt>
      <trkpt lat="46.35673432610929" lon="6.434923522174358">
        <ele>376.20001220703125</ele>
        <time>2014-05-17T08:42:37Z</time>
      </trkpt>
      <trkpt lat="46.356567442417145" lon="6.434261184185743">
        <ele>377</ele>
        <time>2014-05-17T08:42:44Z</time>
      </trkpt>
      <trkpt lat="46.356504913419485" lon="6.433987682685256">
        <ele>377.39999389648437</ele>
        <time>2014-05-17T08:42:47Z</time>
      </trkpt>
      <trkpt lat="46.356435427442193" lon="6.433717533946037">
        <ele>377.79998779296875</ele>
        <time>2014-05-17T08:42:50Z</time>
      </trkpt>
      <trkpt lat="46.356341047212481" lon="6.433379827067256">
        <ele>379</ele>
        <time>2014-05-17T08:42:54Z</time>
      </trkpt>
      <trkpt lat="46.356253288686275" lon="6.433054441586137">
        <ele>379.79998779296875</ele>
        <time>2014-05-17T08:42:58Z</time>
      </trkpt>
      <trkpt lat="46.3561553042382" lon="6.432687398046255">
        <ele>380</ele>
        <time>2014-05-17T08:43:03Z</time>
      </trkpt>
      <trkpt lat="46.356134433299303" lon="6.432635597884655">
        <ele>380.39999389648437</ele>
        <time>2014-05-17T08:43:04Z</time>
      </trkpt>
      <trkpt lat="46.356095708906651" lon="6.432527303695679">
        <ele>381</ele>
        <time>2014-05-17T08:43:08Z</time>
      </trkpt>
      <trkpt lat="46.356090260669589" lon="6.432501319795847">
        <ele>381.20001220703125</ele>
        <time>2014-05-17T08:44:10Z</time>
      </trkpt>
      <trkpt lat="46.356086237356067" lon="6.432472486048937">
        <ele>381</ele>
        <time>2014-05-17T08:44:11Z</time>
      </trkpt>
      <trkpt lat="46.356080118566751" lon="6.432262770831585">
        <ele>380.39999389648437</ele>
        <time>2014-05-17T08:44:15Z</time>
      </trkpt>
      <trkpt lat="46.356069892644882" lon="6.432194290682674">
        <ele>380</ele>
        <time>2014-05-17T08:44:16Z</time>
      </trkpt>
      <trkpt lat="46.356061259284616" lon="6.431963872164488">
        <ele>378.79998779296875</ele>
        <time>2014-05-17T08:44:19Z</time>
      </trkpt>
      <trkpt lat="46.356043824926019" lon="6.431383844465017">
        <ele>377.60000610351562</ele>
        <time>2014-05-17T08:44:25Z</time>
      </trkpt>
      <trkpt lat="46.356034940108657" lon="6.431060722097755">
        <ele>376.39999389648438</ele>
        <time>2014-05-17T08:44:28Z</time>
      </trkpt>
      <trkpt lat="46.356031000614166" lon="6.430724859237671">
        <ele>375</ele>
        <time>2014-05-17T08:44:31Z</time>
      </trkpt>
      <trkpt lat="46.356028988957405" lon="6.430506091564894">
        <ele>374.79998779296875</ele>
        <time>2014-05-17T08:44:33Z</time>
      </trkpt>
      <trkpt lat="46.356033515185118" lon="6.429940480738878">
        <ele>374</ele>
        <time>2014-05-17T08:44:38Z</time>
      </trkpt>
      <trkpt lat="46.356053128838539" lon="6.4297079667449">
        <ele>373.79998779296875</ele>
        <time>2014-05-17T08:44:40Z</time>
      </trkpt>
      <trkpt lat="46.356086572632194" lon="6.429352909326553">
        <ele>372.60000610351562</ele>
        <time>2014-05-17T08:44:43Z</time>
      </trkpt>
      <trkpt lat="46.356084393337369" lon="6.42899701371789">
        <ele>371.60000610351562</ele>
        <time>2014-05-17T08:44:46Z</time>
      </trkpt>
      <trkpt lat="46.356082214042544" lon="6.428881594911218">
        <ele>371.20001220703125</ele>
        <time>2014-05-17T08:44:47Z</time>
      </trkpt>
      <trkpt lat="46.356026642024517" lon="6.428229063749313">
        <ele>371.39999389648437</ele>
        <time>2014-05-17T08:44:53Z</time>
      </trkpt>
      <trkpt lat="46.355921784415841" lon="6.427657082676888">
        <ele>372.20001220703125</ele>
        <time>2014-05-17T08:44:59Z</time>
      </trkpt>
      <trkpt lat="46.355906026437879" lon="6.427570832893252">
        <ele>372.60000610351562</ele>
        <time>2014-05-17T08:45:00Z</time>
      </trkpt>
      <trkpt lat="46.355871744453907" lon="6.427418701350689">
        <ele>373.20001220703125</ele>
        <time>2014-05-17T08:45:02Z</time>
      </trkpt>
      <trkpt lat="46.355846347287297" lon="6.427354076877236">
        <ele>373.60000610351562</ele>
        <time>2014-05-17T08:45:03Z</time>
      </trkpt>
      <trkpt lat="46.35578490793705" lon="6.427241172641516">
        <ele>373.60000610351562</ele>
        <time>2014-05-17T08:45:05Z</time>
      </trkpt>
      <trkpt lat="46.355752050876617" lon="6.42719155177474">
        <ele>373.79998779296875</ele>
        <time>2014-05-17T08:45:06Z</time>
      </trkpt>
      <trkpt lat="46.355626992881298" lon="6.426933975890279">
        <ele>374.60000610351562</ele>
        <time>2014-05-17T08:45:11Z</time>
      </trkpt>
      <trkpt lat="46.355658425018191" lon="6.426697857677937">
        <ele>374.60000610351562</ele>
        <time>2014-05-17T08:45:15Z</time>
      </trkpt>
      <trkpt lat="46.35575020685792" lon="6.426302148029208">
        <ele>373.79998779296875</ele>
        <time>2014-05-17T08:45:21Z</time>
      </trkpt>
      <trkpt lat="46.355832600966096" lon="6.425690772011876">
        <ele>373.79998779296875</ele>
        <time>2014-05-17T08:45:29Z</time>
      </trkpt>
      <trkpt lat="46.355844419449568" lon="6.425077803432941">
        <ele>375</ele>
        <time>2014-05-17T08:45:37Z</time>
      </trkpt>
      <trkpt lat="46.355847185477614" lon="6.424865908920765">
        <ele>375.79998779296875</ele>
        <time>2014-05-17T08:45:40Z</time>
      </trkpt>
      <trkpt lat="46.355849197134376" lon="6.424585282802582">
        <ele>375.60000610351562</ele>
        <time>2014-05-17T08:45:44Z</time>
      </trkpt>
      <trkpt lat="46.355848275125027" lon="6.423933673650026">
        <ele>375.20001220703125</ele>
        <time>2014-05-17T08:45:53Z</time>
      </trkpt>
      <trkpt lat="46.355853891000152" lon="6.423410391435027">
        <ele>376.39999389648438</ele>
        <time>2014-05-17T08:46:00Z</time>
      </trkpt>
      <trkpt lat="46.355800582095981" lon="6.422814186662436">
        <ele>376.79998779296875</ele>
        <time>2014-05-17T08:46:08Z</time>
      </trkpt>
      <trkpt lat="46.355793457478285" lon="6.422741850838065">
        <ele>377</ele>
        <time>2014-05-17T08:46:09Z</time>
      </trkpt>
      <trkpt lat="46.355772335082293" lon="6.42238100990653">
        <ele>377.60000610351562</ele>
        <time>2014-05-17T08:46:14Z</time>
      </trkpt>
      <trkpt lat="46.355759678408504" lon="6.422018324956298">
        <ele>377.60000610351562</ele>
        <time>2014-05-17T08:46:19Z</time>
      </trkpt>
      <trkpt lat="46.35573897510767" lon="6.421947162598372">
        <ele>377.60000610351562</ele>
        <time>2014-05-17T08:46:20Z</time>
      </trkpt>
      <trkpt lat="46.355571420863271" lon="6.421643905341625">
        <ele>378.20001220703125</ele>
        <time>2014-05-17T08:46:25Z</time>
      </trkpt>
      <trkpt lat="46.355401016771793" lon="6.421432262286544">
        <ele>378.79998779296875</ele>
        <time>2014-05-17T08:46:29Z</time>
      </trkpt>
      <trkpt lat="46.355264894664288" lon="6.421288009732962">
        <ele>378.60000610351562</ele>
        <time>2014-05-17T08:46:32Z</time>
      </trkpt>
      <trkpt lat="46.355031793937087" lon="6.420876877382398">
        <ele>378.79998779296875</ele>
        <time>2014-05-17T08:46:38Z</time>
      </trkpt>
      <trkpt lat="46.354961385950446" lon="6.420724829658866">
        <ele>379.20001220703125</ele>
        <time>2014-05-17T08:46:40Z</time>
      </trkpt>
      <trkpt lat="46.354773547500372" lon="6.42023834399879">
        <ele>380</ele>
        <time>2014-05-17T08:46:46Z</time>
      </trkpt>
      <trkpt lat="46.354582188650966" lon="6.419764012098312">
        <ele>380.39999389648437</ele>
        <time>2014-05-17T08:46:52Z</time>
      </trkpt>
      <trkpt lat="46.354373227804899" lon="6.419234946370125">
        <ele>381.39999389648437</ele>
        <time>2014-05-17T08:46:59Z</time>
      </trkpt>
      <trkpt lat="46.354330815374851" lon="6.419072337448597">
        <ele>382</ele>
        <time>2014-05-17T08:47:01Z</time>
      </trkpt>
      <trkpt lat="46.354239033535123" lon="6.418487699702382">
        <ele>382</ele>
        <time>2014-05-17T08:47:08Z</time>
      </trkpt>
      <trkpt lat="46.354208774864674" lon="6.418321402743459">
        <ele>382.20001220703125</ele>
        <time>2014-05-17T08:47:10Z</time>
      </trkpt>
      <trkpt lat="46.354189915582538" lon="6.41824085265398">
        <ele>382.39999389648437</ele>
        <time>2014-05-17T08:47:11Z</time>
      </trkpt>
      <trkpt lat="46.354129146784544" lon="6.418005237355828">
        <ele>383.20001220703125</ele>
        <time>2014-05-17T08:47:14Z</time>
      </trkpt>
      <trkpt lat="46.353930830955505" lon="6.417355220764875">
        <ele>383.60000610351562</ele>
        <time>2014-05-17T08:47:22Z</time>
      </trkpt>
      <trkpt lat="46.35390761308372" lon="6.417273413389921">
        <ele>383.79998779296875</ele>
        <time>2014-05-17T08:47:23Z</time>
      </trkpt>
      <trkpt lat="46.35374047793448" lon="6.416721884161234">
        <ele>384.39999389648437</ele>
        <time>2014-05-17T08:47:30Z</time>
      </trkpt>
      <trkpt lat="46.353678703308105" lon="6.416585426777601">
        <ele>384.60000610351562</ele>
        <time>2014-05-17T08:47:32Z</time>
      </trkpt>
      <trkpt lat="46.353644505143166" lon="6.416524238884449">
        <ele>385</ele>
        <time>2014-05-17T08:47:33Z</time>
      </trkpt>
      <trkpt lat="46.353573007509112" lon="6.416420135647059">
        <ele>385.39999389648437</ele>
        <time>2014-05-17T08:47:35Z</time>
      </trkpt>
      <trkpt lat="46.353440321981907" lon="6.416291724890471">
        <ele>386</ele>
        <time>2014-05-17T08:47:38Z</time>
      </trkpt>
      <trkpt lat="46.353348204866052" lon="6.416204636916518">
        <ele>386.79998779296875</ele>
        <time>2014-05-17T08:47:40Z</time>
      </trkpt>
      <trkpt lat="46.353179393336177" lon="6.416002465412021">
        <ele>387.20001220703125</ele>
        <time>2014-05-17T08:47:44Z</time>
      </trkpt>
      <trkpt lat="46.353069506585598" lon="6.415839521214366">
        <ele>387.79998779296875</ele>
        <time>2014-05-17T08:47:47Z</time>
      </trkpt>
      <trkpt lat="46.353001110255718" lon="6.415725778788328">
        <ele>388.20001220703125</ele>
        <time>2014-05-17T08:47:49Z</time>
      </trkpt>
      <trkpt lat="46.352830706164241" lon="6.415426293388009">
        <ele>389.20001220703125</ele>
        <time>2014-05-17T08:47:54Z</time>
      </trkpt>
      <trkpt lat="46.352795669808984" lon="6.415366027504206">
        <ele>389.39999389648437</ele>
        <time>2014-05-17T08:47:55Z</time>
      </trkpt>
      <trkpt lat="46.352555025368929" lon="6.414900161325932">
        <ele>389.79998779296875</ele>
        <time>2014-05-17T08:48:02Z</time>
      </trkpt>
      <trkpt lat="46.352340783923864" lon="6.414377465844154">
        <ele>390</ele>
        <time>2014-05-17T08:48:09Z</time>
      </trkpt>
      <trkpt lat="46.352080693468451" lon="6.413861894980073">
        <ele>390</ele>
        <time>2014-05-17T08:48:16Z</time>
      </trkpt>
      <trkpt lat="46.351849269121885" lon="6.413554949685931">
        <ele>390.39999389648438</ele>
        <time>2014-05-17T08:48:21Z</time>
      </trkpt>
      <trkpt lat="46.35179478675127" lon="6.4135065022856">
        <ele>390.60000610351562</ele>
        <time>2014-05-17T08:48:22Z</time>
      </trkpt>
      <trkpt lat="46.351736867800355" lon="6.413466855883598">
        <ele>390.60000610351562</ele>
        <time>2014-05-17T08:48:23Z</time>
      </trkpt>
      <trkpt lat="46.351561350747943" lon="6.413375157862902">
        <ele>391.39999389648437</ele>
        <time>2014-05-17T08:48:26Z</time>
      </trkpt>
      <trkpt lat="46.35150108486414" lon="6.413344983011484">
        <ele>391.60000610351562</ele>
        <time>2014-05-17T08:48:27Z</time>
      </trkpt>
      <trkpt lat="46.351153152063489" lon="6.413157563656569">
        <ele>391.79998779296875</ele>
        <time>2014-05-17T08:48:33Z</time>
      </trkpt>
      <trkpt lat="46.35087613016367" lon="6.412886660546064">
        <ele>391.60000610351562</ele>
        <time>2014-05-17T08:48:38Z</time>
      </trkpt>
      <trkpt lat="46.350825922563672" lon="6.412825053557754">
        <ele>391.39999389648437</ele>
        <time>2014-05-17T08:48:39Z</time>
      </trkpt>
      <trkpt lat="46.350453514605761" lon="6.412415932863951">
        <ele>391.39999389648437</ele>
        <time>2014-05-17T08:48:46Z</time>
      </trkpt>
      <trkpt lat="46.350046154111624" lon="6.412135725840926">
        <ele>390.60000610351562</ele>
        <time>2014-05-17T08:48:53Z</time>
      </trkpt>
      <trkpt lat="46.349638290703297" lon="6.411898015066981">
        <ele>390.39999389648438</ele>
        <time>2014-05-17T08:49:00Z</time>
      </trkpt>
      <trkpt lat="46.349579114466906" lon="6.411865660920739">
        <ele>390.20001220703125</ele>
        <time>2014-05-17T08:49:01Z</time>
      </trkpt>
      <trkpt lat="46.349211819469929" lon="6.411681426689029">
        <ele>389.20001220703125</ele>
        <time>2014-05-17T08:49:07Z</time>
      </trkpt>
      <trkpt lat="46.34915130212903" lon="6.411650581285358">
        <ele>389.20001220703125</ele>
        <time>2014-05-17T08:49:08Z</time>
      </trkpt>
      <trkpt lat="46.348846452310681" lon="6.411500880494714">
        <ele>389.20001220703125</ele>
        <time>2014-05-17T08:49:13Z</time>
      </trkpt>
      <trkpt lat="46.348786856979132" lon="6.411469532176852">
        <ele>389</ele>
        <time>2014-05-17T08:49:14Z</time>
      </trkpt>
      <trkpt lat="46.348549397662282" lon="6.411338187754154">
        <ele>388.20001220703125</ele>
        <time>2014-05-17T08:49:18Z</time>
      </trkpt>
      <trkpt lat="46.348336329683661" lon="6.411207765340805">
        <ele>388.20001220703125</ele>
        <time>2014-05-17T08:49:22Z</time>
      </trkpt>
      <trkpt lat="46.348190903663635" lon="6.411132495850325">
        <ele>388.39999389648437</ele>
        <time>2014-05-17T08:49:25Z</time>
      </trkpt>
      <trkpt lat="46.348100043833256" lon="6.411051107570529">
        <ele>387.79998779296875</ele>
        <time>2014-05-17T08:49:27Z</time>
      </trkpt>
      <trkpt lat="46.347826709970832" lon="6.410815408453345">
        <ele>387.20001220703125</ele>
        <time>2014-05-17T08:49:33Z</time>
      </trkpt>
      <trkpt lat="46.347781531512737" lon="6.410778108984232">
        <ele>387</ele>
        <time>2014-05-17T08:49:34Z</time>
      </trkpt>
      <trkpt lat="46.34765362367034" lon="6.410667886957526">
        <ele>387.20001220703125</ele>
        <time>2014-05-17T08:49:37Z</time>
      </trkpt>
      <trkpt lat="46.347620766609907" lon="6.410614913329482">
        <ele>387.20001220703125</ele>
        <time>2014-05-17T08:49:38Z</time>
      </trkpt>
      <trkpt lat="46.347524458542466" lon="6.410449873656035">
        <ele>387</ele>
        <time>2014-05-17T08:49:41Z</time>
      </trkpt>
      <trkpt lat="46.347280461341143" lon="6.410055505111814">
        <ele>386.20001220703125</ele>
        <time>2014-05-17T08:49:48Z</time>
      </trkpt>
      <trkpt lat="46.347182979807258" lon="6.409871773794293">
        <ele>386.60000610351562</ele>
        <time>2014-05-17T08:49:52Z</time>
      </trkpt>
      <trkpt lat="46.34711617603898" lon="6.409772196784616">
        <ele>386.39999389648437</ele>
        <time>2014-05-17T08:49:56Z</time>
      </trkpt>
      <trkpt lat="46.346998829394579" lon="6.409767838194966">
        <ele>386.39999389648437</ele>
        <time>2014-05-17T08:50:00Z</time>
      </trkpt>
      <trkpt lat="46.34696613997221" lon="6.409775381907821">
        <ele>386.39999389648437</ele>
        <time>2014-05-17T08:50:01Z</time>
      </trkpt>
      <trkpt lat="46.34674477390945" lon="6.409809244796634">
        <ele>386.79998779296875</ele>
        <time>2014-05-17T08:50:07Z</time>
      </trkpt>
      <trkpt lat="46.346497256308794" lon="6.409944780170918">
        <ele>386.79998779296875</ele>
        <time>2014-05-17T08:50:13Z</time>
      </trkpt>
      <trkpt lat="46.346260299906135" lon="6.41013253480196">
        <ele>387.39999389648438</ele>
        <time>2014-05-17T08:50:19Z</time>
      </trkpt>
      <trkpt lat="46.346221910789609" lon="6.410169498994947">
        <ele>387.39999389648438</ele>
        <time>2014-05-17T08:50:20Z</time>
      </trkpt>
      <trkpt lat="46.346103474497795" lon="6.410281816497445">
        <ele>387.39999389648438</ele>
        <time>2014-05-17T08:50:24Z</time>
      </trkpt>
      <trkpt lat="46.346000963822007" lon="6.410417519509792">
        <ele>387.20001220703125</ele>
        <time>2014-05-17T08:50:27Z</time>
      </trkpt>
      <trkpt lat="46.3457768317312" lon="6.410851115360856">
        <ele>387.60000610351562</ele>
        <time>2014-05-17T08:50:35Z</time>
      </trkpt>
      <trkpt lat="46.345657054334879" lon="6.41112394630909">
        <ele>388.20001220703125</ele>
        <time>2014-05-17T08:50:40Z</time>
      </trkpt>
      <trkpt lat="46.345584131777287" lon="6.411295440047979">
        <ele>388.60000610351562</ele>
        <time>2014-05-17T08:50:43Z</time>
      </trkpt>
      <trkpt lat="46.345556890591979" lon="6.41135067678988">
        <ele>388.79998779296875</ele>
        <time>2014-05-17T08:50:44Z</time>
      </trkpt>
      <trkpt lat="46.345506012439728" lon="6.411457797512412">
        <ele>389.20001220703125</ele>
        <time>2014-05-17T08:50:46Z</time>
      </trkpt>
      <trkpt lat="46.345462258905172" lon="6.411563660949469">
        <ele>389.60000610351562</ele>
        <time>2014-05-17T08:50:48Z</time>
      </trkpt>
      <trkpt lat="46.345404926687479" lon="6.411738004535437">
        <ele>390</ele>
        <time>2014-05-17T08:50:51Z</time>
      </trkpt>
      <trkpt lat="46.345384139567614" lon="6.411796007305384">
        <ele>390.20001220703125</ele>
        <time>2014-05-17T08:50:52Z</time>
      </trkpt>
      <trkpt lat="46.345369052141905" lon="6.411856776103377">
        <ele>390.79998779296875</ele>
        <time>2014-05-17T08:50:53Z</time>
      </trkpt>
      <trkpt lat="46.345350611954927" lon="6.411914275959134">
        <ele>391.39999389648437</ele>
        <time>2014-05-17T08:50:54Z</time>
      </trkpt>
      <trkpt lat="46.345287663862109" lon="6.41208509914577">
        <ele>392</ele>
        <time>2014-05-17T08:50:57Z</time>
      </trkpt>
      <trkpt lat="46.345266960561275" lon="6.412144023925066">
        <ele>392.39999389648437</ele>
        <time>2014-05-17T08:50:58Z</time>
      </trkpt>
      <trkpt lat="46.345191774889827" lon="6.412383075803518">
        <ele>393</ele>
        <time>2014-05-17T08:51:02Z</time>
      </trkpt>
      <trkpt lat="46.345153134316206" lon="6.412503020837903">
        <ele>393.39999389648438</ele>
        <time>2014-05-17T08:51:04Z</time>
      </trkpt>
      <trkpt lat="46.34513083845377" lon="6.412561945617199">
        <ele>393.60000610351562</ele>
        <time>2014-05-17T08:51:05Z</time>
      </trkpt>
      <trkpt lat="46.345040732994676" lon="6.412810385227203">
        <ele>394.20001220703125</ele>
        <time>2014-05-17T08:51:09Z</time>
      </trkpt>
      <trkpt lat="46.344992117956281" lon="6.412923876196146">
        <ele>394.39999389648437</ele>
        <time>2014-05-17T08:51:11Z</time>
      </trkpt>
      <trkpt lat="46.344966636970639" lon="6.412987997755408">
        <ele>394.60000610351562</ele>
        <time>2014-05-17T08:51:12Z</time>
      </trkpt>
      <trkpt lat="46.344784498214722" lon="6.413354706019163">
        <ele>394.60000610351562</ele>
        <time>2014-05-17T08:51:18Z</time>
      </trkpt>
      <trkpt lat="46.344481073319912" lon="6.413725521415472">
        <ele>394.39999389648437</ele>
        <time>2014-05-17T08:51:25Z</time>
      </trkpt>
      <trkpt lat="46.344246380031109" lon="6.413930375128985">
        <ele>394.60000610351562</ele>
        <time>2014-05-17T08:51:30Z</time>
      </trkpt>
      <trkpt lat="46.344162141904235" lon="6.414016708731651">
        <ele>394.39999389648437</ele>
        <time>2014-05-17T08:51:32Z</time>
      </trkpt>
      <trkpt lat="46.344117550179362" lon="6.41404889523983">
        <ele>394.39999389648437</ele>
        <time>2014-05-17T08:51:33Z</time>
      </trkpt>
      <trkpt lat="46.343906242400408" lon="6.414205553010106">
        <ele>395.39999389648437</ele>
        <time>2014-05-17T08:51:38Z</time>
      </trkpt>
      <trkpt lat="46.343833655118942" lon="6.414269506931305">
        <ele>395.60000610351562</ele>
        <time>2014-05-17T08:51:40Z</time>
      </trkpt>
      <trkpt lat="46.343747237697244" lon="6.414345363155007">
        <ele>396.60000610351562</ele>
        <time>2014-05-17T08:51:43Z</time>
      </trkpt>
      <trkpt lat="46.343722511082888" lon="6.414360031485558">
        <ele>396.79998779296875</ele>
        <time>2014-05-17T08:51:44Z</time>
      </trkpt>
      <trkpt lat="46.343646571040154" lon="6.414375705644488">
        <ele>397.39999389648437</ele>
        <time>2014-05-17T08:51:47Z</time>
      </trkpt>
      <trkpt lat="46.34360340423882" lon="6.414328096434474">
        <ele>397.39999389648437</ele>
        <time>2014-05-17T08:51:49Z</time>
      </trkpt>
      <trkpt lat="46.343500642105937" lon="6.414126260206103">
        <ele>397</ele>
        <time>2014-05-17T08:51:53Z</time>
      </trkpt>
      <trkpt lat="46.343291597440839" lon="6.413697190582752">
        <ele>396.39999389648437</ele>
        <time>2014-05-17T08:51:59Z</time>
      </trkpt>
      <trkpt lat="46.343209706246853" lon="6.413524439558387">
        <ele>395.60000610351562</ele>
        <time>2014-05-17T08:52:01Z</time>
      </trkpt>
      <trkpt lat="46.343027232214808" lon="6.413138788193464">
        <ele>394.39999389648437</ele>
        <time>2014-05-17T08:52:05Z</time>
      </trkpt>
      <trkpt lat="46.342874094843864" lon="6.41281072050333">
        <ele>393</ele>
        <time>2014-05-17T08:52:08Z</time>
      </trkpt>
      <trkpt lat="46.342703606933355" lon="6.412447532638907">
        <ele>392</ele>
        <time>2014-05-17T08:52:11Z</time>
      </trkpt>
      <trkpt lat="46.342466901987791" lon="6.411916287615895">
        <ele>390.79998779296875</ele>
        <time>2014-05-17T08:52:15Z</time>
      </trkpt>
      <trkpt lat="46.342343352735043" lon="6.411624094471335">
        <ele>389.20001220703125</ele>
        <time>2014-05-17T08:52:17Z</time>
      </trkpt>
      <trkpt lat="46.342280488461256" lon="6.411475064232945">
        <ele>388.79998779296875</ele>
        <time>2014-05-17T08:52:18Z</time>
      </trkpt>
      <trkpt lat="46.342216785997152" lon="6.411324692890048">
        <ele>388</ele>
        <time>2014-05-17T08:52:19Z</time>
      </trkpt>
      <trkpt lat="46.34208720177412" lon="6.41102135181427">
        <ele>386.79998779296875</ele>
        <time>2014-05-17T08:52:21Z</time>
      </trkpt>
      <trkpt lat="46.341819064691663" lon="6.410400671884418">
        <ele>385.39999389648437</ele>
        <time>2014-05-17T08:52:25Z</time>
      </trkpt>
      <trkpt lat="46.341484626755118" lon="6.409623920917511">
        <ele>384.39999389648437</ele>
        <time>2014-05-17T08:52:30Z</time>
      </trkpt>
      <trkpt lat="46.341360909864306" lon="6.409332482144237">
        <ele>384.60000610351562</ele>
        <time>2014-05-17T08:52:32Z</time>
      </trkpt>
      <trkpt lat="46.34112554602325" lon="6.408790592104197">
        <ele>387.39999389648438</ele>
        <time>2014-05-17T08:52:36Z</time>
      </trkpt>
      <trkpt lat="46.340960673987865" lon="6.408403515815735">
        <ele>388.39999389648437</ele>
        <time>2014-05-17T08:52:39Z</time>
      </trkpt>
      <trkpt lat="46.340655153617263" lon="6.407703459262848">
        <ele>389.60000610351562</ele>
        <time>2014-05-17T08:52:45Z</time>
      </trkpt>
      <trkpt lat="46.340565299615264" lon="6.407487960532308">
        <ele>390.79998779296875</ele>
        <time>2014-05-17T08:52:47Z</time>
      </trkpt>
      <trkpt lat="46.340475026518106" lon="6.40727648511529">
        <ele>391.79998779296875</ele>
        <time>2014-05-17T08:52:49Z</time>
      </trkpt>
      <trkpt lat="46.34034326300025" lon="6.406971132382751">
        <ele>392.39999389648437</ele>
        <time>2014-05-17T08:52:52Z</time>
      </trkpt>
      <trkpt lat="46.340260449796915" lon="6.406774073839188">
        <ele>393</ele>
        <time>2014-05-17T08:52:54Z</time>
      </trkpt>
      <trkpt lat="46.339953672140837" lon="6.406113412231207">
        <ele>394</ele>
        <time>2014-05-17T08:53:01Z</time>
      </trkpt>
      <trkpt lat="46.339907571673393" lon="6.406019032001495">
        <ele>394</ele>
        <time>2014-05-17T08:53:02Z</time>
      </trkpt>
      <trkpt lat="46.339554861187935" lon="6.40537622384727">
        <ele>393.60000610351562</ele>
        <time>2014-05-17T08:53:09Z</time>
      </trkpt>
      <trkpt lat="46.339498115703464" lon="6.405285112559795">
        <ele>393.39999389648438</ele>
        <time>2014-05-17T08:53:10Z</time>
      </trkpt>
      <trkpt lat="46.33925654925406" lon="6.404916727915406">
        <ele>393</ele>
        <time>2014-05-17T08:53:14Z</time>
      </trkpt>
      <trkpt lat="46.339066782966256" lon="6.404624953866005">
        <ele>392.20001220703125</ele>
        <time>2014-05-17T08:53:17Z</time>
      </trkpt>
      <trkpt lat="46.338998302817345" lon="6.404526131227613">
        <ele>391.60000610351562</ele>
        <time>2014-05-17T08:53:18Z</time>
      </trkpt>
      <trkpt lat="46.338716838508844" lon="6.404122207313776">
        <ele>390.39999389648438</ele>
        <time>2014-05-17T08:53:22Z</time>
      </trkpt>
      <trkpt lat="46.338507626205683" lon="6.403802437707782">
        <ele>389.20001220703125</ele>
        <time>2014-05-17T08:53:25Z</time>
      </trkpt>
      <trkpt lat="46.338083921000361" lon="6.403185864910483">
        <ele>388.60000610351562</ele>
        <time>2014-05-17T08:53:31Z</time>
      </trkpt>
      <trkpt lat="46.338015859946609" lon="6.403086204081774">
        <ele>389</ele>
        <time>2014-05-17T08:53:32Z</time>
      </trkpt>
      <trkpt lat="46.337612690404058" lon="6.402503242716193">
        <ele>389.20001220703125</ele>
        <time>2014-05-17T08:53:38Z</time>
      </trkpt>
      <trkpt lat="46.337475478649139" lon="6.402297550812364">
        <ele>389.20001220703125</ele>
        <time>2014-05-17T08:53:40Z</time>
      </trkpt>
      <trkpt lat="46.337335081771016" lon="6.40209311619401">
        <ele>388.20001220703125</ele>
        <time>2014-05-17T08:53:42Z</time>
      </trkpt>
      <trkpt lat="46.337071387097239" lon="6.401639319956303">
        <ele>387.20001220703125</ele>
        <time>2014-05-17T08:53:46Z</time>
      </trkpt>
      <trkpt lat="46.337002823129296" lon="6.401521470397711">
        <ele>386.60000610351562</ele>
        <time>2014-05-17T08:53:47Z</time>
      </trkpt>
      <trkpt lat="46.336931912228465" lon="6.401405213400722">
        <ele>386</ele>
        <time>2014-05-17T08:53:48Z</time>
      </trkpt>
      <trkpt lat="46.336573166772723" lon="6.400794507935643">
        <ele>385</ele>
        <time>2014-05-17T08:53:53Z</time>
      </trkpt>
      <trkpt lat="46.336503094062209" lon="6.400662241503596">
        <ele>384.20001220703125</ele>
        <time>2014-05-17T08:53:54Z</time>
      </trkpt>
      <trkpt lat="46.336435452103615" lon="6.400528298690915">
        <ele>383.20001220703125</ele>
        <time>2014-05-17T08:53:55Z</time>
      </trkpt>
      <trkpt lat="46.336121382191777" lon="6.399822123348713">
        <ele>383</ele>
        <time>2014-05-17T08:54:00Z</time>
      </trkpt>
      <trkpt lat="46.335961204022169" lon="6.399387186393142">
        <ele>382.20001220703125</ele>
        <time>2014-05-17T08:54:03Z</time>
      </trkpt>
      <trkpt lat="46.335773533210158" lon="6.398820318281651">
        <ele>383</ele>
        <time>2014-05-17T08:54:07Z</time>
      </trkpt>
      <trkpt lat="46.335730701684952" lon="6.398683274164796">
        <ele>383.20001220703125</ele>
        <time>2014-05-17T08:54:08Z</time>
      </trkpt>
      <trkpt lat="46.335559794679284" lon="6.398006938397884">
        <ele>384.20001220703125</ele>
        <time>2014-05-17T08:54:13Z</time>
      </trkpt>
      <trkpt lat="46.335531296208501" lon="6.397871822118759">
        <ele>384.39999389648437</ele>
        <time>2014-05-17T08:54:14Z</time>
      </trkpt>
      <trkpt lat="46.335364663973451" lon="6.397085264325142">
        <ele>384.60000610351562</ele>
        <time>2014-05-17T08:54:20Z</time>
      </trkpt>
      <trkpt lat="46.335309846326709" lon="6.396821150556207">
        <ele>384.60000610351562</ele>
        <time>2014-05-17T08:54:22Z</time>
      </trkpt>
      <trkpt lat="46.335170455276966" lon="6.396140456199646">
        <ele>383.39999389648437</ele>
        <time>2014-05-17T08:54:27Z</time>
      </trkpt>
      <trkpt lat="46.335087055340409" lon="6.395727228373289">
        <ele>382</ele>
        <time>2014-05-17T08:54:30Z</time>
      </trkpt>
      <trkpt lat="46.335033159703016" lon="6.39544727280736">
        <ele>380.79998779296875</ele>
        <time>2014-05-17T08:54:32Z</time>
      </trkpt>
      <trkpt lat="46.334973061457276" lon="6.395170502364636">
        <ele>379.39999389648437</ele>
        <time>2014-05-17T08:54:34Z</time>
      </trkpt>
      <trkpt lat="46.33491707034409" lon="6.394884092733264">
        <ele>378.20001220703125</ele>
        <time>2014-05-17T08:54:36Z</time>
      </trkpt>
      <trkpt lat="46.334889829158783" lon="6.394739085808396">
        <ele>377.79998779296875</ele>
        <time>2014-05-17T08:54:37Z</time>
      </trkpt>
      <trkpt lat="46.334747252985835" lon="6.394024947658181">
        <ele>377</ele>
        <time>2014-05-17T08:54:42Z</time>
      </trkpt>
      <trkpt lat="46.334686651825905" lon="6.393742896616459">
        <ele>376.60000610351562</ele>
        <time>2014-05-17T08:54:44Z</time>
      </trkpt>
      <trkpt lat="46.334602497518063" lon="6.393335284665227">
        <ele>375.79998779296875</ele>
        <time>2014-05-17T08:54:47Z</time>
      </trkpt>
      <trkpt lat="46.334535609930754" lon="6.392991542816162">
        <ele>376.39999389648438</ele>
        <time>2014-05-17T08:54:50Z</time>
      </trkpt>
      <trkpt lat="46.334498059004545" lon="6.392809236422181">
        <ele>376.79998779296875</ele>
        <time>2014-05-17T08:54:53Z</time>
      </trkpt>
      <trkpt lat="46.334489593282342" lon="6.392779564484954">
        <ele>377</ele>
        <time>2014-05-17T08:54:54Z</time>
      </trkpt>
      <trkpt lat="46.334463274106383" lon="6.392661547288299">
        <ele>377</ele>
        <time>2014-05-17T08:54:57Z</time>
      </trkpt>
      <trkpt lat="46.334396218881011" lon="6.392284948378801">
        <ele>376.79998779296875</ele>
        <time>2014-05-17T08:55:05Z</time>
      </trkpt>
      <trkpt lat="46.334319859743118" lon="6.391901141032577">
        <ele>377</ele>
        <time>2014-05-17T08:55:12Z</time>
      </trkpt>
      <trkpt lat="46.334223384037614" lon="6.391432844102383">
        <ele>376.60000610351562</ele>
        <time>2014-05-17T08:55:19Z</time>
      </trkpt>
      <trkpt lat="46.334113413468003" lon="6.390897072851658">
        <ele>377</ele>
        <time>2014-05-17T08:55:26Z</time>
      </trkpt>
      <trkpt lat="46.334050130099058" lon="6.390594150871038">
        <ele>377</ele>
        <time>2014-05-17T08:55:31Z</time>
      </trkpt>
      <trkpt lat="46.333952145650983" lon="6.39010020531714">
        <ele>376.39999389648438</ele>
        <time>2014-05-17T08:55:37Z</time>
      </trkpt>
      <trkpt lat="46.33391241542995" lon="6.389919575303793">
        <ele>376</ele>
        <time>2014-05-17T08:55:39Z</time>
      </trkpt>
      <trkpt lat="46.333856675773859" lon="6.389632914215326">
        <ele>374.60000610351562</ele>
        <time>2014-05-17T08:55:42Z</time>
      </trkpt>
      <trkpt lat="46.333837062120438" lon="6.389531996101141">
        <ele>374.39999389648437</ele>
        <time>2014-05-17T08:55:43Z</time>
      </trkpt>
      <trkpt lat="46.333742095157504" lon="6.38910099864006">
        <ele>373.60000610351562</ele>
        <time>2014-05-17T08:55:47Z</time>
      </trkpt>
      <trkpt lat="46.333718709647655" lon="6.388980047777295">
        <ele>373.20001220703125</ele>
        <time>2014-05-17T08:55:48Z</time>
      </trkpt>
      <trkpt lat="46.333646876737475" lon="6.38861040584743">
        <ele>372.39999389648437</ele>
        <time>2014-05-17T08:55:51Z</time>
      </trkpt>
      <trkpt lat="46.333527015522122" lon="6.388028617948294">
        <ele>373.39999389648438</ele>
        <time>2014-05-17T08:55:56Z</time>
      </trkpt>
      <trkpt lat="46.333484686911106" lon="6.387810185551643">
        <ele>374.60000610351562</ele>
        <time>2014-05-17T08:55:58Z</time>
      </trkpt>
      <trkpt lat="46.333377650007606" lon="6.387298638001084">
        <ele>375.39999389648437</ele>
        <time>2014-05-17T08:56:03Z</time>
      </trkpt>
      <trkpt lat="46.333241024985909" lon="6.386581147089601">
        <ele>375</ele>
        <time>2014-05-17T08:56:10Z</time>
      </trkpt>
      <trkpt lat="46.33306659758091" lon="6.385726276785135">
        <ele>374.60000610351562</ele>
        <time>2014-05-17T08:56:18Z</time>
      </trkpt>
      <trkpt lat="46.333045307546854" lon="6.385616390034556">
        <ele>375</ele>
        <time>2014-05-17T08:56:19Z</time>
      </trkpt>
      <trkpt lat="46.33287993259728" lon="6.384823294356465">
        <ele>374.60000610351562</ele>
        <time>2014-05-17T08:56:26Z</time>
      </trkpt>
      <trkpt lat="46.332833329215646" lon="6.384586170315743">
        <ele>374.20001220703125</ele>
        <time>2014-05-17T08:56:28Z</time>
      </trkpt>
      <trkpt lat="46.332781864330173" lon="6.384346866980195">
        <ele>373.20001220703125</ele>
        <time>2014-05-17T08:56:30Z</time>
      </trkpt>
      <trkpt lat="46.3326630089432" lon="6.38384286314249">
        <ele>372</ele>
        <time>2014-05-17T08:56:34Z</time>
      </trkpt>
      <trkpt lat="46.332627972587943" lon="6.383710009977222">
        <ele>371.39999389648437</ele>
        <time>2014-05-17T08:56:35Z</time>
      </trkpt>
      <trkpt lat="46.332589164376259" lon="6.383575983345509">
        <ele>371</ele>
        <time>2014-05-17T08:56:36Z</time>
      </trkpt>
      <trkpt lat="46.332470560446382" lon="6.383161330595613">
        <ele>369.39999389648437</ele>
        <time>2014-05-17T08:56:39Z</time>
      </trkpt>
      <trkpt lat="46.332387328147888" lon="6.382879782468081">
        <ele>368.39999389648437</ele>
        <time>2014-05-17T08:56:41Z</time>
      </trkpt>
      <trkpt lat="46.332264700904489" lon="6.382443504408002">
        <ele>366.79998779296875</ele>
        <time>2014-05-17T08:56:44Z</time>
      </trkpt>
      <trkpt lat="46.332178115844727" lon="6.382148796692491">
        <ele>365.60000610351562</ele>
        <time>2014-05-17T08:56:46Z</time>
      </trkpt>
      <trkpt lat="46.332040568813682" lon="6.381683852523565">
        <ele>364</ele>
        <time>2014-05-17T08:56:49Z</time>
      </trkpt>
      <trkpt lat="46.331949876621366" lon="6.381362741813064">
        <ele>362.39999389648437</ele>
        <time>2014-05-17T08:56:51Z</time>
      </trkpt>
      <trkpt lat="46.331863962113857" lon="6.381030986085534">
        <ele>361.20001220703125</ele>
        <time>2014-05-17T08:56:53Z</time>
      </trkpt>
      <trkpt lat="46.331829177215695" lon="6.380859659984708">
        <ele>359.79998779296875</ele>
        <time>2014-05-17T08:56:54Z</time>
      </trkpt>
      <trkpt lat="46.331800008192658" lon="6.380687663331628">
        <ele>359.39999389648437</ele>
        <time>2014-05-17T08:56:55Z</time>
      </trkpt>
      <trkpt lat="46.331737898290157" lon="6.380014177411795">
        <ele>359.39999389648437</ele>
        <time>2014-05-17T08:56:59Z</time>
      </trkpt>
      <trkpt lat="46.331742592155933" lon="6.379546718671918">
        <ele>361.39999389648437</ele>
        <time>2014-05-17T08:57:02Z</time>
      </trkpt>
      <trkpt lat="46.331754829734564" lon="6.379405315965414">
        <ele>362</ele>
        <time>2014-05-17T08:57:03Z</time>
      </trkpt>
      <trkpt lat="46.331770587712526" lon="6.379267517477274">
        <ele>362.60000610351562</ele>
        <time>2014-05-17T08:57:04Z</time>
      </trkpt>
      <trkpt lat="46.331806043162942" lon="6.379007091745734">
        <ele>363.79998779296875</ele>
        <time>2014-05-17T08:57:06Z</time>
      </trkpt>
      <trkpt lat="46.331850551068783" lon="6.378770638257265">
        <ele>364.60000610351562</ele>
        <time>2014-05-17T08:57:08Z</time>
      </trkpt>
      <trkpt lat="46.331876199692488" lon="6.378660332411528">
        <ele>365.20001220703125</ele>
        <time>2014-05-17T08:57:09Z</time>
      </trkpt>
      <trkpt lat="46.331925066187978" lon="6.378448354080319">
        <ele>366.39999389648437</ele>
        <time>2014-05-17T08:57:11Z</time>
      </trkpt>
      <trkpt lat="46.33197208866477" lon="6.378252385184169">
        <ele>367.39999389648438</ele>
        <time>2014-05-17T08:57:13Z</time>
      </trkpt>
      <trkpt lat="46.331994300708175" lon="6.378159010782838">
        <ele>368</ele>
        <time>2014-05-17T08:57:14Z</time>
      </trkpt>
      <trkpt lat="46.332037299871445" lon="6.377981984987855">
        <ele>369</ele>
        <time>2014-05-17T08:57:16Z</time>
      </trkpt>
      <trkpt lat="46.332079712301493" lon="6.377811497077346">
        <ele>370</ele>
        <time>2014-05-17T08:57:18Z</time>
      </trkpt>
      <trkpt lat="46.332145594060421" lon="6.377474293112755">
        <ele>370.79998779296875</ele>
        <time>2014-05-17T08:57:22Z</time>
      </trkpt>
      <trkpt lat="46.332187922671437" lon="6.377234403043985">
        <ele>371.20001220703125</ele>
        <time>2014-05-17T08:57:25Z</time>
      </trkpt>
      <trkpt lat="46.332207368686795" lon="6.377068608999252">
        <ele>372</ele>
        <time>2014-05-17T08:57:27Z</time>
      </trkpt>
      <trkpt lat="46.332211894914508" lon="6.376984789967537">
        <ele>372.39999389648437</ele>
        <time>2014-05-17T08:57:28Z</time>
      </trkpt>
      <trkpt lat="46.33221885189414" lon="6.37655446305871">
        <ele>373</ele>
        <time>2014-05-17T08:57:33Z</time>
      </trkpt>
      <trkpt lat="46.332219522446394" lon="6.376380203291774">
        <ele>373.39999389648438</ele>
        <time>2014-05-17T08:57:35Z</time>
      </trkpt>
      <trkpt lat="46.332197310402989" lon="6.376021457836032">
        <ele>373.79998779296875</ele>
        <time>2014-05-17T08:57:39Z</time>
      </trkpt>
      <trkpt lat="46.332117263227701" lon="6.375298937782645">
        <ele>373.79998779296875</ele>
        <time>2014-05-17T08:57:47Z</time>
      </trkpt>
      <trkpt lat="46.332060182467103" lon="6.37501671910286">
        <ele>373.39999389648438</ele>
        <time>2014-05-17T08:57:50Z</time>
      </trkpt>
      <trkpt lat="46.33197845891118" lon="6.374736679717898">
        <ele>373.39999389648438</ele>
        <time>2014-05-17T08:57:53Z</time>
      </trkpt>
      <trkpt lat="46.331892125308514" lon="6.374466782435775">
        <ele>374.39999389648437</ele>
        <time>2014-05-17T08:57:56Z</time>
      </trkpt>
      <trkpt lat="46.33175415918231" lon="6.374005610123277">
        <ele>374.20001220703125</ele>
        <time>2014-05-17T08:58:01Z</time>
      </trkpt>
      <trkpt lat="46.331544863060117" lon="6.373325418680906">
        <ele>373.60000610351562</ele>
        <time>2014-05-17T08:58:08Z</time>
      </trkpt>
      <trkpt lat="46.331517035141587" lon="6.373229194432497">
        <ele>373.39999389648438</ele>
        <time>2014-05-17T08:58:09Z</time>
      </trkpt>
      <trkpt lat="46.331284856423736" lon="6.372492173686624">
        <ele>373.79998779296875</ele>
        <time>2014-05-17T08:58:17Z</time>
      </trkpt>
      <trkpt lat="46.33115409873426" lon="6.372102331370115">
        <ele>373.60000610351562</ele>
        <time>2014-05-17T08:58:22Z</time>
      </trkpt>
      <trkpt lat="46.331121493130922" lon="6.371895549818873">
        <ele>374.20001220703125</ele>
        <time>2014-05-17T08:58:26Z</time>
      </trkpt>
      <trkpt lat="46.331124342978001" lon="6.371755739673972">
        <ele>374</ele>
        <time>2014-05-17T08:58:28Z</time>
      </trkpt>
      <trkpt lat="46.3311399333179" lon="6.371592544019222">
        <ele>373.39999389648438</ele>
        <time>2014-05-17T08:58:30Z</time>
      </trkpt>
      <trkpt lat="46.331139178946614" lon="6.371505372226238">
        <ele>373</ele>
        <time>2014-05-17T08:58:31Z</time>
      </trkpt>
      <trkpt lat="46.331085450947285" lon="6.371327424421907">
        <ele>373.20001220703125</ele>
        <time>2014-05-17T08:58:33Z</time>
      </trkpt>
      <trkpt lat="46.330920327454805" lon="6.371112177148461">
        <ele>372.60000610351562</ele>
        <time>2014-05-17T08:58:36Z</time>
      </trkpt>
      <trkpt lat="46.330872718244791" lon="6.371019808575511">
        <ele>372</ele>
        <time>2014-05-17T08:58:37Z</time>
      </trkpt>
      <trkpt lat="46.3307842053473" lon="6.370818391442299">
        <ele>371.20001220703125</ele>
        <time>2014-05-17T08:58:39Z</time>
      </trkpt>
      <trkpt lat="46.330742463469505" lon="6.370709929615259">
        <ele>371.20001220703125</ele>
        <time>2014-05-17T08:58:40Z</time>
      </trkpt>
      <trkpt lat="46.330701392143965" lon="6.370594846084714">
        <ele>371</ele>
        <time>2014-05-17T08:58:41Z</time>
      </trkpt>
      <trkpt lat="46.330621764063835" lon="6.370357470586896">
        <ele>369.79998779296875</ele>
        <time>2014-05-17T08:58:43Z</time>
      </trkpt>
      <trkpt lat="46.330516319721937" lon="6.369987074285746">
        <ele>369.39999389648437</ele>
        <time>2014-05-17T08:58:46Z</time>
      </trkpt>
      <trkpt lat="46.330301575362682" lon="6.369244605302811">
        <ele>369</ele>
        <time>2014-05-17T08:58:52Z</time>
      </trkpt>
      <trkpt lat="46.33026821538806" lon="6.369125163182616">
        <ele>368.60000610351562</ele>
        <time>2014-05-17T08:58:53Z</time>
      </trkpt>
      <trkpt lat="46.330200070515275" lon="6.36888837441802">
        <ele>368.60000610351562</ele>
        <time>2014-05-17T08:58:55Z</time>
      </trkpt>
      <trkpt lat="46.329965041950345" lon="6.368091758340597">
        <ele>369.20001220703125</ele>
        <time>2014-05-17T08:59:02Z</time>
      </trkpt>
      <trkpt lat="46.329931179061532" lon="6.367980614304543">
        <ele>369</ele>
        <time>2014-05-17T08:59:03Z</time>
      </trkpt>
      <trkpt lat="46.329728169366717" lon="6.367306122556329">
        <ele>370</ele>
        <time>2014-05-17T08:59:09Z</time>
      </trkpt>
      <trkpt lat="46.329620713368058" lon="6.366946287453175">
        <ele>369.39999389648437</ele>
        <time>2014-05-17T08:59:12Z</time>
      </trkpt>
      <trkpt lat="46.32955240085721" lon="6.366705140098929">
        <ele>369</ele>
        <time>2014-05-17T08:59:14Z</time>
      </trkpt>
      <trkpt lat="46.329299937933683" lon="6.365877259522677">
        <ele>369</ele>
        <time>2014-05-17T08:59:21Z</time>
      </trkpt>
      <trkpt lat="46.329165827482939" lon="6.365417847409844">
        <ele>370.20001220703125</ele>
        <time>2014-05-17T08:59:25Z</time>
      </trkpt>
      <trkpt lat="46.328990310430527" lon="6.364858355373144">
        <ele>371.20001220703125</ele>
        <time>2014-05-17T08:59:30Z</time>
      </trkpt>
      <trkpt lat="46.328921914100647" lon="6.364628607407212">
        <ele>371.39999389648437</ele>
        <time>2014-05-17T08:59:32Z</time>
      </trkpt>
      <trkpt lat="46.32868118584156" lon="6.363825453445315">
        <ele>371.39999389648437</ele>
        <time>2014-05-17T08:59:39Z</time>
      </trkpt>
      <trkpt lat="46.328445067629218" lon="6.363033782690764">
        <ele>372</ele>
        <time>2014-05-17T08:59:46Z</time>
      </trkpt>
      <trkpt lat="46.328374156728387" lon="6.362807303667069">
        <ele>372.39999389648437</ele>
        <time>2014-05-17T08:59:48Z</time>
      </trkpt>
      <trkpt lat="46.32833668962121" lon="6.362694818526506">
        <ele>372.60000610351562</ele>
        <time>2014-05-17T08:59:49Z</time>
      </trkpt>
      <trkpt lat="46.328097470104694" lon="6.361915385350585">
        <ele>372.20001220703125</ele>
        <time>2014-05-17T08:59:56Z</time>
      </trkpt>
      <trkpt lat="46.328066121786833" lon="6.361804325133562">
        <ele>372.60000610351562</ele>
        <time>2014-05-17T08:59:57Z</time>
      </trkpt>
      <trkpt lat="46.327835116535425" lon="6.361062694340944">
        <ele>373.39999389648438</ele>
        <time>2014-05-17T09:00:04Z</time>
      </trkpt>
      <trkpt lat="46.327773006632924" lon="6.360857086256146">
        <ele>373.79998779296875</ele>
        <time>2014-05-17T09:00:06Z</time>
      </trkpt>
      <trkpt lat="46.32755340076983" lon="6.360140182077885">
        <ele>374.79998779296875</ele>
        <time>2014-05-17T09:00:13Z</time>
      </trkpt>
      <trkpt lat="46.327408980578184" lon="6.35967037640512">
        <ele>375.79998779296875</ele>
        <time>2014-05-17T09:00:18Z</time>
      </trkpt>
      <trkpt lat="46.327353911474347" lon="6.359491338953376">
        <ele>376.39999389648438</ele>
        <time>2014-05-17T09:00:20Z</time>
      </trkpt>
      <trkpt lat="46.32723773829639" lon="6.359069561585784">
        <ele>377.20001220703125</ele>
        <time>2014-05-17T09:00:25Z</time>
      </trkpt>
      <trkpt lat="46.3271888718009" lon="6.358906198292971">
        <ele>377.79998779296875</ele>
        <time>2014-05-17T09:00:27Z</time>
      </trkpt>
      <trkpt lat="46.327041098847985" lon="6.358395824208856">
        <ele>378.20001220703125</ele>
        <time>2014-05-17T09:00:33Z</time>
      </trkpt>
      <trkpt lat="46.326988209038973" lon="6.358222234994173">
        <ele>378.60000610351562</ele>
        <time>2014-05-17T09:00:35Z</time>
      </trkpt>
      <trkpt lat="46.326847895979881" lon="6.357785873115063">
        <ele>379.39999389648437</ele>
        <time>2014-05-17T09:00:40Z</time>
      </trkpt>
      <trkpt lat="46.326766088604927" lon="6.3575145509094">
        <ele>379.20001220703125</ele>
        <time>2014-05-17T09:00:43Z</time>
      </trkpt>
      <trkpt lat="46.326528377830982" lon="6.356765627861023">
        <ele>379.39999389648437</ele>
        <time>2014-05-17T09:00:51Z</time>
      </trkpt>
      <trkpt lat="46.326500298455358" lon="6.35667510330677">
        <ele>379.60000610351562</ele>
        <time>2014-05-17T09:00:52Z</time>
      </trkpt>
      <trkpt lat="46.326336013153195" lon="6.356131788343191">
        <ele>380.39999389648437</ele>
        <time>2014-05-17T09:00:58Z</time>
      </trkpt>
      <trkpt lat="46.326280860230327" lon="6.355956187471747">
        <ele>380.79998779296875</ele>
        <time>2014-05-17T09:01:00Z</time>
      </trkpt>
      <trkpt lat="46.326200729236007" lon="6.355678662657738">
        <ele>381.60000610351562</ele>
        <time>2014-05-17T09:01:03Z</time>
      </trkpt>
      <trkpt lat="46.326109115034342" lon="6.355399629101157">
        <ele>383</ele>
        <time>2014-05-17T09:01:06Z</time>
      </trkpt>
      <trkpt lat="46.326077431440353" lon="6.355304326862097">
        <ele>383.39999389648437</ele>
        <time>2014-05-17T09:01:07Z</time>
      </trkpt>
      <trkpt lat="46.32583687081933" lon="6.354523720219731">
        <ele>383.79998779296875</ele>
        <time>2014-05-17T09:01:15Z</time>
      </trkpt>
      <trkpt lat="46.325591700151563" lon="6.353744035586715">
        <ele>384.20001220703125</ele>
        <time>2014-05-17T09:01:23Z</time>
      </trkpt>
      <trkpt lat="46.325560268014669" lon="6.353647727519274">
        <ele>384.20001220703125</ele>
        <time>2014-05-17T09:01:24Z</time>
      </trkpt>
      <trkpt lat="46.325392043218017" lon="6.353086726740003">
        <ele>385.60000610351562</ele>
        <time>2014-05-17T09:01:30Z</time>
      </trkpt>
      <trkpt lat="46.325334459543228" lon="6.352903749793768">
        <ele>386</ele>
        <time>2014-05-17T09:01:32Z</time>
      </trkpt>
      <trkpt lat="46.325115272775292" lon="6.352187851443887">
        <ele>385.79998779296875</ele>
        <time>2014-05-17T09:01:40Z</time>
      </trkpt>
      <trkpt lat="46.325061963871121" lon="6.35200772434473">
        <ele>386</ele>
        <time>2014-05-17T09:01:42Z</time>
      </trkpt>
      <trkpt lat="46.324984515085816" lon="6.351746963337064">
        <ele>386.60000610351562</ele>
        <time>2014-05-17T09:01:45Z</time>
      </trkpt>
      <trkpt lat="46.324908910319209" lon="6.351490644738078">
        <ele>387.60000610351562</ele>
        <time>2014-05-17T09:01:48Z</time>
      </trkpt>
      <trkpt lat="46.324809249490499" lon="6.351147070527077">
        <ele>388.60000610351562</ele>
        <time>2014-05-17T09:01:52Z</time>
      </trkpt>
      <trkpt lat="46.324684778228402" lon="6.350715989246965">
        <ele>388.79998779296875</ele>
        <time>2014-05-17T09:01:57Z</time>
      </trkpt>
      <trkpt lat="46.324577322229743" lon="6.350374426692724">
        <ele>389.79998779296875</ele>
        <time>2014-05-17T09:02:01Z</time>
      </trkpt>
      <trkpt lat="46.324551170691848" lon="6.350288428366184">
        <ele>390</ele>
        <time>2014-05-17T09:02:02Z</time>
      </trkpt>
      <trkpt lat="46.324306419119239" lon="6.349513689056039">
        <ele>390.20001220703125</ele>
        <time>2014-05-17T09:02:11Z</time>
      </trkpt>
      <trkpt lat="46.324151605367661" lon="6.349007254466415">
        <ele>391</ele>
        <time>2014-05-17T09:02:17Z</time>
      </trkpt>
      <trkpt lat="46.324055045843124" lon="6.348677510395646">
        <ele>392.20001220703125</ele>
        <time>2014-05-17T09:02:21Z</time>
      </trkpt>
      <trkpt lat="46.32390484213829" lon="6.348187420517206">
        <ele>393.39999389648438</ele>
        <time>2014-05-17T09:02:27Z</time>
      </trkpt>
      <trkpt lat="46.323861591517925" lon="6.348020620644093">
        <ele>393.39999389648438</ele>
        <time>2014-05-17T09:02:29Z</time>
      </trkpt>
      <trkpt lat="46.323673082515597" lon="6.347416033968329">
        <ele>394.39999389648437</ele>
        <time>2014-05-17T09:02:36Z</time>
      </trkpt>
      <trkpt lat="46.323462445288897" lon="6.346734082326293">
        <ele>395.60000610351562</ele>
        <time>2014-05-17T09:02:44Z</time>
      </trkpt>
      <trkpt lat="46.323435707017779" lon="6.3466508500278">
        <ele>395.79998779296875</ele>
        <time>2014-05-17T09:02:45Z</time>
      </trkpt>
      <trkpt lat="46.323318528011441" lon="6.346257152035832">
        <ele>396.79998779296875</ele>
        <time>2014-05-17T09:02:50Z</time>
      </trkpt>
      <trkpt lat="46.323204953223467" lon="6.345880469307303">
        <ele>398.20001220703125</ele>
        <time>2014-05-17T09:02:55Z</time>
      </trkpt>
      <trkpt lat="46.323009738698602" lon="6.34523774497211">
        <ele>398.60000610351562</ele>
        <time>2014-05-17T09:03:03Z</time>
      </trkpt>
      <trkpt lat="46.322787115350366" lon="6.344517571851611">
        <ele>398.39999389648437</ele>
        <time>2014-05-17T09:03:11Z</time>
      </trkpt>
      <trkpt lat="46.322620315477252" lon="6.34397367015481">
        <ele>397</ele>
        <time>2014-05-17T09:03:16Z</time>
      </trkpt>
      <trkpt lat="46.322582932189107" lon="6.343852719292045">
        <ele>396.60000610351562</ele>
        <time>2014-05-17T09:03:17Z</time>
      </trkpt>
      <trkpt lat="46.322507243603468" lon="6.343608470633626">
        <ele>395.39999389648437</ele>
        <time>2014-05-17T09:03:19Z</time>
      </trkpt>
      <trkpt lat="46.32231286726892" lon="6.342983348295093">
        <ele>394.20001220703125</ele>
        <time>2014-05-17T09:03:24Z</time>
      </trkpt>
      <trkpt lat="46.322276070713997" lon="6.342859212309122">
        <ele>394.39999389648437</ele>
        <time>2014-05-17T09:03:25Z</time>
      </trkpt>
      <trkpt lat="46.322058392688632" lon="6.342144403606653">
        <ele>395.20001220703125</ele>
        <time>2014-05-17T09:03:31Z</time>
      </trkpt>
      <trkpt lat="46.322023775428534" lon="6.342033511027694">
        <ele>395</ele>
        <time>2014-05-17T09:03:32Z</time>
      </trkpt>
      <trkpt lat="46.321921348571777" lon="6.341703766956925">
        <ele>395.39999389648437</ele>
        <time>2014-05-17T09:03:35Z</time>
      </trkpt>
      <trkpt lat="46.321786316111684" lon="6.341286096721888">
        <ele>396.39999389648437</ele>
        <time>2014-05-17T09:03:39Z</time>
      </trkpt>
      <trkpt lat="46.321757230907679" lon="6.341182328760624">
        <ele>396.39999389648437</ele>
        <time>2014-05-17T09:03:40Z</time>
      </trkpt>
      <trkpt lat="46.321669137105346" lon="6.340894494205713">
        <ele>397.60000610351562</ele>
        <time>2014-05-17T09:03:43Z</time>
      </trkpt>
      <trkpt lat="46.321534020826221" lon="6.340435417369008">
        <ele>397.60000610351562</ele>
        <time>2014-05-17T09:03:48Z</time>
      </trkpt>
      <trkpt lat="46.321454979479313" lon="6.34017800912261">
        <ele>398.79998779296875</ele>
        <time>2014-05-17T09:03:51Z</time>
      </trkpt>
      <trkpt lat="46.321361269801855" lon="6.339851031079888">
        <ele>400</ele>
        <time>2014-05-17T09:03:55Z</time>
      </trkpt>
      <trkpt lat="46.321338638663292" lon="6.339769307523966">
        <ele>400.60000610351562</ele>
        <time>2014-05-17T09:03:56Z</time>
      </trkpt>
      <trkpt lat="46.321290442720056" lon="6.339614577591419">
        <ele>401.20001220703125</ele>
        <time>2014-05-17T09:03:58Z</time>
      </trkpt>
      <trkpt lat="46.321141915395856" lon="6.339141083881259">
        <ele>401.79998779296875</ele>
        <time>2014-05-17T09:04:04Z</time>
      </trkpt>
      <trkpt lat="46.321063209325075" lon="6.33888266980648">
        <ele>401.60000610351562</ele>
        <time>2014-05-17T09:04:07Z</time>
      </trkpt>
      <trkpt lat="46.320954831317067" lon="6.338522750884295">
        <ele>401.60000610351562</ele>
        <time>2014-05-17T09:04:11Z</time>
      </trkpt>
      <trkpt lat="46.320713348686695" lon="6.337725631892681">
        <ele>400</ele>
        <time>2014-05-17T09:04:19Z</time>
      </trkpt>
      <trkpt lat="46.320684012025595" lon="6.337623288854957">
        <ele>400</ele>
        <time>2014-05-17T09:04:20Z</time>
      </trkpt>
      <trkpt lat="46.320460215210915" lon="6.336893057450652">
        <ele>399.79998779296875</ele>
        <time>2014-05-17T09:04:27Z</time>
      </trkpt>
      <trkpt lat="46.32030020467937" lon="6.336364997550845">
        <ele>399.79998779296875</ele>
        <time>2014-05-17T09:04:32Z</time>
      </trkpt>
      <trkpt lat="46.320145642384887" lon="6.335873985663056">
        <ele>401.20001220703125</ele>
        <time>2014-05-17T09:04:37Z</time>
      </trkpt>
      <trkpt lat="46.320068445056677" lon="6.335617415606976">
        <ele>402</ele>
        <time>2014-05-17T09:04:40Z</time>
      </trkpt>
      <trkpt lat="46.320043215528131" lon="6.335538541898131">
        <ele>402.60000610351562</ele>
        <time>2014-05-17T09:04:41Z</time>
      </trkpt>
      <trkpt lat="46.319960737600923" lon="6.335247689858079">
        <ele>403.79998779296875</ele>
        <time>2014-05-17T09:04:45Z</time>
      </trkpt>
      <trkpt lat="46.319899717345834" lon="6.335062701255083">
        <ele>405</ele>
        <time>2014-05-17T09:04:48Z</time>
      </trkpt>
      <trkpt lat="46.319834003224969" lon="6.3348338752985">
        <ele>406.20001220703125</ele>
        <time>2014-05-17T09:04:52Z</time>
      </trkpt>
      <trkpt lat="46.319765355437994" lon="6.33460178039968">
        <ele>407.39999389648438</ele>
        <time>2014-05-17T09:04:56Z</time>
      </trkpt>
      <trkpt lat="46.319713722914457" lon="6.334432298317552">
        <ele>408</ele>
        <time>2014-05-17T09:04:59Z</time>
      </trkpt>
      <trkpt lat="46.319660078734159" lon="6.334264157339931">
        <ele>408.60000610351562</ele>
        <time>2014-05-17T09:05:02Z</time>
      </trkpt>
      <trkpt lat="46.319571062922478" lon="6.333972718566656">
        <ele>410</ele>
        <time>2014-05-17T09:05:07Z</time>
      </trkpt>
      <trkpt lat="46.319535691291094" lon="6.333857467398047">
        <ele>410.39999389648438</ele>
        <time>2014-05-17T09:05:09Z</time>
      </trkpt>
      <trkpt lat="46.319439299404621" lon="6.333545325323939">
        <ele>411</ele>
        <time>2014-05-17T09:05:14Z</time>
      </trkpt>
      <trkpt lat="46.319379704073071" lon="6.333336699754">
        <ele>411</ele>
        <time>2014-05-17T09:05:17Z</time>
      </trkpt>
      <trkpt lat="46.319177951663733" lon="6.332696909084916">
        <ele>411</ele>
        <time>2014-05-17T09:05:26Z</time>
      </trkpt>
      <trkpt lat="46.318994890898466" lon="6.332087377086282">
        <ele>409.79998779296875</ele>
        <time>2014-05-17T09:05:33Z</time>
      </trkpt>
      <trkpt lat="46.318966895341873" lon="6.331989476457238">
        <ele>409.39999389648437</ele>
        <time>2014-05-17T09:05:34Z</time>
      </trkpt>
      <trkpt lat="46.318868910893798" lon="6.331684878095985">
        <ele>408.39999389648437</ele>
        <time>2014-05-17T09:05:37Z</time>
      </trkpt>
      <trkpt lat="46.31882113404572" lon="6.331472145393491">
        <ele>407.60000610351562</ele>
        <time>2014-05-17T09:05:39Z</time>
      </trkpt>
      <trkpt lat="46.31880696862936" lon="6.331372233107686">
        <ele>407.39999389648438</ele>
        <time>2014-05-17T09:05:40Z</time>
      </trkpt>
      <trkpt lat="46.318787857890129" lon="6.33119797334075">
        <ele>407.20001220703125</ele>
        <time>2014-05-17T09:05:43Z</time>
      </trkpt>
      <trkpt lat="46.318774949759245" lon="6.331046596169472">
        <ele>406.79998779296875</ele>
        <time>2014-05-17T09:07:50Z</time>
      </trkpt>
      <trkpt lat="46.318751480430365" lon="6.331025641411543">
        <ele>406.60000610351562</ele>
        <time>2014-05-17T09:08:14Z</time>
      </trkpt>
      <trkpt lat="46.318678390234709" lon="6.330915000289679">
        <ele>406.39999389648437</ele>
        <time>2014-05-17T09:08:18Z</time>
      </trkpt>
      <trkpt lat="46.318662296980619" lon="6.330874348059297">
        <ele>406.39999389648437</ele>
        <time>2014-05-17T09:08:19Z</time>
      </trkpt>
      <trkpt lat="46.318651903420687" lon="6.330850962549448">
        <ele>406.39999389648437</ele>
        <time>2014-05-17T09:08:20Z</time>
      </trkpt>
      <trkpt lat="46.318639582023025" lon="6.330842413008213">
        <ele>406.39999389648437</ele>
        <time>2014-05-17T09:08:42Z</time>
      </trkpt>
      <trkpt lat="46.318600019440055" lon="6.330777956172824">
        <ele>406.20001220703125</ele>
        <time>2014-05-17T09:08:44Z</time>
      </trkpt>
      <trkpt lat="46.318557690829039" lon="6.330681396648288">
        <ele>405.79998779296875</ele>
        <time>2014-05-17T09:08:46Z</time>
      </trkpt>
      <trkpt lat="46.318531036376953" lon="6.330632949247956">
        <ele>405.39999389648437</ele>
        <time>2014-05-17T09:08:47Z</time>
      </trkpt>
      <trkpt lat="46.318498011678457" lon="6.330585591495037">
        <ele>405</ele>
        <time>2014-05-17T09:08:48Z</time>
      </trkpt>
      <trkpt lat="46.318340599536896" lon="6.330325920134783">
        <ele>405</ele>
        <time>2014-05-17T09:08:52Z</time>
      </trkpt>
      <trkpt lat="46.318011358380318" lon="6.329785957932472">
        <ele>404.39999389648438</ele>
        <time>2014-05-17T09:09:00Z</time>
      </trkpt>
      <trkpt lat="46.317668119445443" lon="6.329230824485421">
        <ele>405</ele>
        <time>2014-05-17T09:09:08Z</time>
      </trkpt>
      <trkpt lat="46.317355055361986" lon="6.328718774020672">
        <ele>404</ele>
        <time>2014-05-17T09:09:15Z</time>
      </trkpt>
      <trkpt lat="46.317310044541955" lon="6.328645013272762">
        <ele>404</ele>
        <time>2014-05-17T09:09:16Z</time>
      </trkpt>
      <trkpt lat="46.316910479217768" lon="6.328046964481473">
        <ele>404.20001220703125</ele>
        <time>2014-05-17T09:09:24Z</time>
      </trkpt>
      <trkpt lat="46.316530024632812" lon="6.327439527958632">
        <ele>404.60000610351562</ele>
        <time>2014-05-17T09:09:31Z</time>
      </trkpt>
      <trkpt lat="46.316471686586738" lon="6.327350176870823">
        <ele>404.39999389648438</ele>
        <time>2014-05-17T09:09:32Z</time>
      </trkpt>
      <trkpt lat="46.316076563671231" lon="6.326706865802407">
        <ele>404</ele>
        <time>2014-05-17T09:09:39Z</time>
      </trkpt>
      <trkpt lat="46.316017638891935" lon="6.326613994315267">
        <ele>403.79998779296875</ele>
        <time>2014-05-17T09:09:40Z</time>
      </trkpt>
      <trkpt lat="46.315615978091955" lon="6.325969928875566">
        <ele>404.60000610351562</ele>
        <time>2014-05-17T09:09:47Z</time>
      </trkpt>
      <trkpt lat="46.315510869026184" lon="6.325783347710967">
        <ele>405</ele>
        <time>2014-05-17T09:09:49Z</time>
      </trkpt>
      <trkpt lat="46.315119853243232" lon="6.325113382190466">
        <ele>405.60000610351562</ele>
        <time>2014-05-17T09:09:56Z</time>
      </trkpt>
      <trkpt lat="46.315064616501331" lon="6.325016068294644">
        <ele>405.39999389648437</ele>
        <time>2014-05-17T09:09:57Z</time>
      </trkpt>
      <trkpt lat="46.314679300412536" lon="6.32433176971972">
        <ele>405.60000610351562</ele>
        <time>2014-05-17T09:10:04Z</time>
      </trkpt>
      <trkpt lat="46.314464388415217" lon="6.323953410610557">
        <ele>405.79998779296875</ele>
        <time>2014-05-17T09:10:08Z</time>
      </trkpt>
      <trkpt lat="46.314358441159129" lon="6.323762554675341">
        <ele>406.39999389648437</ele>
        <time>2014-05-17T09:10:10Z</time>
      </trkpt>
      <trkpt lat="46.313975220546126" lon="6.323043219745159">
        <ele>406.60000610351562</ele>
        <time>2014-05-17T09:10:17Z</time>
      </trkpt>
      <trkpt lat="46.313758715987206" lon="6.322599314153194">
        <ele>405.39999389648437</ele>
        <time>2014-05-17T09:10:21Z</time>
      </trkpt>
      <trkpt lat="46.313553778454661" lon="6.322138393297792">
        <ele>404.60000610351562</ele>
        <time>2014-05-17T09:10:25Z</time>
      </trkpt>
      <trkpt lat="46.31322973407805" lon="6.32145032286644">
        <ele>405</ele>
        <time>2014-05-17T09:10:31Z</time>
      </trkpt>
      <trkpt lat="46.312911557033658" lon="6.320741381496191">
        <ele>405</ele>
        <time>2014-05-17T09:10:37Z</time>
      </trkpt>
      <trkpt lat="46.312581980600953" lon="6.320027327165008">
        <ele>405.20001220703125</ele>
        <time>2014-05-17T09:10:43Z</time>
      </trkpt>
      <trkpt lat="46.312413923442364" lon="6.31965609267354">
        <ele>405</ele>
        <time>2014-05-17T09:10:46Z</time>
      </trkpt>
      <trkpt lat="46.312301438301802" lon="6.319408658891916">
        <ele>404.39999389648438</ele>
        <time>2014-05-17T09:10:48Z</time>
      </trkpt>
      <trkpt lat="46.311967838555574" lon="6.3186807744205">
        <ele>404.20001220703125</ele>
        <time>2014-05-17T09:10:54Z</time>
      </trkpt>
      <trkpt lat="46.311911763623357" lon="6.318559320643544">
        <ele>404.20001220703125</ele>
        <time>2014-05-17T09:10:55Z</time>
      </trkpt>
      <trkpt lat="46.311589395627379" lon="6.317855324596167">
        <ele>404.20001220703125</ele>
        <time>2014-05-17T09:11:01Z</time>
      </trkpt>
      <trkpt lat="46.311488309875131" lon="6.317636976018548">
        <ele>404.60000610351562</ele>
        <time>2014-05-17T09:11:03Z</time>
      </trkpt>
      <trkpt lat="46.311184717342257" lon="6.316962651908398">
        <ele>404.20001220703125</ele>
        <time>2014-05-17T09:11:09Z</time>
      </trkpt>
      <trkpt lat="46.311033507809043" lon="6.316619496792555">
        <ele>404</ele>
        <time>2014-05-17T09:11:12Z</time>
      </trkpt>
      <trkpt lat="46.310735112056136" lon="6.31594936363399">
        <ele>404</ele>
        <time>2014-05-17T09:11:18Z</time>
      </trkpt>
      <trkpt lat="46.310605611652136" lon="6.315626408904791">
        <ele>404.60000610351562</ele>
        <time>2014-05-17T09:11:21Z</time>
      </trkpt>
      <trkpt lat="46.310484660789371" lon="6.3153375685215">
        <ele>405.60000610351562</ele>
        <time>2014-05-17T09:11:24Z</time>
      </trkpt>
      <trkpt lat="46.31039279513061" lon="6.315055266022682">
        <ele>406</ele>
        <time>2014-05-17T09:11:27Z</time>
      </trkpt>
      <trkpt lat="46.310378964990377" lon="6.314950827509165">
        <ele>406.20001220703125</ele>
        <time>2014-05-17T09:11:28Z</time>
      </trkpt>
      <trkpt lat="46.310307886451483" lon="6.314644888043404">
        <ele>406.39999389648437</ele>
        <time>2014-05-17T09:11:31Z</time>
      </trkpt>
      <trkpt lat="46.310250302776694" lon="6.314565846696496">
        <ele>406.79998779296875</ele>
        <time>2014-05-17T09:11:32Z</time>
      </trkpt>
      <trkpt lat="46.310123903676867" lon="6.314422935247421">
        <ele>407</ele>
        <time>2014-05-17T09:11:34Z</time>
      </trkpt>
      <trkpt lat="46.310077887028456" lon="6.314326962456107">
        <ele>406.79998779296875</ele>
        <time>2014-05-17T09:11:35Z</time>
      </trkpt>
      <trkpt lat="46.309989960864186" lon="6.314125042408705">
        <ele>406.20001220703125</ele>
        <time>2014-05-17T09:11:37Z</time>
      </trkpt>
      <trkpt lat="46.309945872053504" lon="6.3140216935426">
        <ele>405.60000610351562</ele>
        <time>2014-05-17T09:11:38Z</time>
      </trkpt>
      <trkpt lat="46.309642866253853" lon="6.313272183761001">
        <ele>405.20001220703125</ele>
        <time>2014-05-17T09:11:45Z</time>
      </trkpt>
      <trkpt lat="46.309466511011124" lon="6.31282308138907">
        <ele>404.20001220703125</ele>
        <time>2014-05-17T09:11:49Z</time>
      </trkpt>
      <trkpt lat="46.30928160622716" lon="6.312378672882915">
        <ele>405.20001220703125</ele>
        <time>2014-05-17T09:11:53Z</time>
      </trkpt>
      <trkpt lat="46.309234667569399" lon="6.312263924628496">
        <ele>405.39999389648437</ele>
        <time>2014-05-17T09:11:54Z</time>
      </trkpt>
      <trkpt lat="46.308916490525007" lon="6.311482060700655">
        <ele>404.60000610351562</ele>
        <time>2014-05-17T09:12:01Z</time>
      </trkpt>
      <trkpt lat="46.308825463056564" lon="6.311264550313354">
        <ele>404.60000610351562</ele>
        <time>2014-05-17T09:12:03Z</time>
      </trkpt>
      <trkpt lat="46.308499909937382" lon="6.310512190684676">
        <ele>404.79998779296875</ele>
        <time>2014-05-17T09:12:10Z</time>
      </trkpt>
      <trkpt lat="46.308356998488307" lon="6.31019233725965">
        <ele>404.79998779296875</ele>
        <time>2014-05-17T09:12:13Z</time>
      </trkpt>
      <trkpt lat="46.308038737624884" lon="6.309439809992909">
        <ele>404.79998779296875</ele>
        <time>2014-05-17T09:12:20Z</time>
      </trkpt>
      <trkpt lat="46.307997331023216" lon="6.309338891878724">
        <ele>405</ele>
        <time>2014-05-17T09:12:21Z</time>
      </trkpt>
      <trkpt lat="46.307699522003531" lon="6.308642271906138">
        <ele>404.39999389648438</ele>
        <time>2014-05-17T09:12:28Z</time>
      </trkpt>
      <trkpt lat="46.307660127058625" lon="6.308543030172586">
        <ele>404.39999389648438</ele>
        <time>2014-05-17T09:12:29Z</time>
      </trkpt>
      <trkpt lat="46.307466672733426" lon="6.307956296950579">
        <ele>405.20001220703125</ele>
        <time>2014-05-17T09:12:35Z</time>
      </trkpt>
      <trkpt lat="46.307304818183184" lon="6.307371575385332">
        <ele>406.39999389648437</ele>
        <time>2014-05-17T09:12:41Z</time>
      </trkpt>
      <trkpt lat="46.307275565341115" lon="6.307266633957624">
        <ele>406.39999389648437</ele>
        <time>2014-05-17T09:12:42Z</time>
      </trkpt>
      <trkpt lat="46.307096527889371" lon="6.306621478870511">
        <ele>405.39999389648437</ele>
        <time>2014-05-17T09:12:48Z</time>
      </trkpt>
      <trkpt lat="46.307069202885032" lon="6.306509915739298">
        <ele>405.39999389648437</ele>
        <time>2014-05-17T09:12:49Z</time>
      </trkpt>
      <trkpt lat="46.306863762438297" lon="6.305692177265883">
        <ele>404</ele>
        <time>2014-05-17T09:12:56Z</time>
      </trkpt>
      <trkpt lat="46.306834761053324" lon="6.305577345192432">
        <ele>404</ele>
        <time>2014-05-17T09:12:57Z</time>
      </trkpt>
      <trkpt lat="46.306753205135465" lon="6.305241230875254">
        <ele>405.20001220703125</ele>
        <time>2014-05-17T09:13:00Z</time>
      </trkpt>
      <trkpt lat="46.306656897068024" lon="6.304792044684291">
        <ele>404.20001220703125</ele>
        <time>2014-05-17T09:13:04Z</time>
      </trkpt>
      <trkpt lat="46.306631080806255" lon="6.30468207411468">
        <ele>404</ele>
        <time>2014-05-17T09:13:05Z</time>
      </trkpt>
      <trkpt lat="46.306471489369869" lon="6.304037673398852">
        <ele>404.20001220703125</ele>
        <time>2014-05-17T09:13:11Z</time>
      </trkpt>
      <trkpt lat="46.306394292041659" lon="6.303705833852291">
        <ele>404.79998779296875</ele>
        <time>2014-05-17T09:13:15Z</time>
      </trkpt>
      <trkpt lat="46.306369649246335" lon="6.303603323176503">
        <ele>405.20001220703125</ele>
        <time>2014-05-17T09:13:17Z</time>
      </trkpt>
      <trkpt lat="46.306328326463699" lon="6.303419088944793">
        <ele>405.60000610351562</ele>
        <time>2014-05-17T09:13:21Z</time>
      </trkpt>
      <trkpt lat="46.306301755830646" lon="6.303299143910408">
        <ele>406</ele>
        <time>2014-05-17T09:13:26Z</time>
      </trkpt>
      <trkpt lat="46.30628976970911" lon="6.303246924653649">
        <ele>406.39999389648437</ele>
        <time>2014-05-17T09:13:38Z</time>
      </trkpt>
      <trkpt lat="46.306275520473719" lon="6.303175259381533">
        <ele>406.20001220703125</ele>
        <time>2014-05-17T09:13:40Z</time>
      </trkpt>
      <trkpt lat="46.306241154670715" lon="6.303049614652991">
        <ele>406</ele>
        <time>2014-05-17T09:13:44Z</time>
      </trkpt>
      <trkpt lat="46.306228078901768" lon="6.302965627983213">
        <ele>406.39999389648437</ele>
        <time>2014-05-17T09:13:54Z</time>
      </trkpt>
      <trkpt lat="46.306165130808949" lon="6.302741998806596">
        <ele>406.20001220703125</ele>
        <time>2014-05-17T09:14:00Z</time>
      </trkpt>
      <trkpt lat="46.306093046441674" lon="6.302497833967209">
        <ele>405.20001220703125</ele>
        <time>2014-05-17T09:14:05Z</time>
      </trkpt>
      <trkpt lat="46.306065721437335" lon="6.302400100976229">
        <ele>405</ele>
        <time>2014-05-17T09:14:07Z</time>
      </trkpt>
      <trkpt lat="46.305998247116804" lon="6.302080666646361">
        <ele>405.79998779296875</ele>
        <time>2014-05-17T09:14:14Z</time>
      </trkpt>
      <trkpt lat="46.305970335379243" lon="6.301997853443027">
        <ele>406</ele>
        <time>2014-05-17T09:14:19Z</time>
      </trkpt>
      <trkpt lat="46.305938735604286" lon="6.301837172359228">
        <ele>405.39999389648437</ele>
        <time>2014-05-17T09:14:25Z</time>
      </trkpt>
      <trkpt lat="46.305872267112136" lon="6.301661403849721">
        <ele>405.60000610351562</ele>
        <time>2014-05-17T09:14:31Z</time>
      </trkpt>
      <trkpt lat="46.305831195786595" lon="6.301510697230697">
        <ele>405.39999389648437</ele>
        <time>2014-05-17T09:14:33Z</time>
      </trkpt>
      <trkpt lat="46.305817281827331" lon="6.301433751359582">
        <ele>405.39999389648437</ele>
        <time>2014-05-17T09:14:34Z</time>
      </trkpt>
      <trkpt lat="46.305740000680089" lon="6.301197716966271">
        <ele>405.20001220703125</ele>
        <time>2014-05-17T09:14:37Z</time>
      </trkpt>
      <trkpt lat="46.305654505267739" lon="6.301020439714193">
        <ele>405</ele>
        <time>2014-05-17T09:14:39Z</time>
      </trkpt>
      <trkpt lat="46.305378908291459" lon="6.300401939079166">
        <ele>404.20001220703125</ele>
        <time>2014-05-17T09:14:45Z</time>
      </trkpt>
      <trkpt lat="46.305158548057079" lon="6.299839597195387">
        <ele>404</ele>
        <time>2014-05-17T09:14:50Z</time>
      </trkpt>
      <trkpt lat="46.30506718531251" lon="6.299620997160673">
        <ele>403.60000610351562</ele>
        <time>2014-05-17T09:14:52Z</time>
      </trkpt>
      <trkpt lat="46.304860403761268" lon="6.299167284741998">
        <ele>404</ele>
        <time>2014-05-17T09:14:57Z</time>
      </trkpt>
      <trkpt lat="46.304685305804014" lon="6.298627154901624">
        <ele>404</ele>
        <time>2014-05-17T09:15:03Z</time>
      </trkpt>
      <trkpt lat="46.3044339325279" lon="6.297836489975452">
        <ele>403.20001220703125</ele>
        <time>2014-05-17T09:15:11Z</time>
      </trkpt>
      <trkpt lat="46.304211057722569" lon="6.297147078439593">
        <ele>402.79998779296875</ele>
        <time>2014-05-17T09:15:18Z</time>
      </trkpt>
      <trkpt lat="46.304013999179006" lon="6.29646236076951">
        <ele>403</ele>
        <time>2014-05-17T09:15:25Z</time>
      </trkpt>
      <trkpt lat="46.303921043872833" lon="6.296165054664016">
        <ele>403.79998779296875</ele>
        <time>2014-05-17T09:15:28Z</time>
      </trkpt>
      <trkpt lat="46.303772935643792" lon="6.295658955350518">
        <ele>404</ele>
        <time>2014-05-17T09:15:33Z</time>
      </trkpt>
      <trkpt lat="46.3035549223423" lon="6.294912714511156">
        <ele>403.79998779296875</ele>
        <time>2014-05-17T09:15:40Z</time>
      </trkpt>
      <trkpt lat="46.303492309525609" lon="6.294701658189297">
        <ele>403.20001220703125</ele>
        <time>2014-05-17T09:15:42Z</time>
      </trkpt>
      <trkpt lat="46.303265327587724" lon="6.293949550017715">
        <ele>404.60000610351562</ele>
        <time>2014-05-17T09:15:49Z</time>
      </trkpt>
      <trkpt lat="46.303170947358012" lon="6.293632546439767">
        <ele>404.60000610351562</ele>
        <time>2014-05-17T09:15:52Z</time>
      </trkpt>
      <trkpt lat="46.30293826572597" lon="6.292877336964011">
        <ele>404.20001220703125</ele>
        <time>2014-05-17T09:15:59Z</time>
      </trkpt>
      <trkpt lat="46.302901217713952" lon="6.292772563174367">
        <ele>404</ele>
        <time>2014-05-17T09:16:00Z</time>
      </trkpt>
      <trkpt lat="46.302716480568051" lon="6.292143920436502">
        <ele>404</ele>
        <time>2014-05-17T09:16:06Z</time>
      </trkpt>
      <trkpt lat="46.302494024857879" lon="6.291400445625186">
        <ele>403.79998779296875</ele>
        <time>2014-05-17T09:16:13Z</time>
      </trkpt>
      <trkpt lat="46.302434429526329" lon="6.291194166988134">
        <ele>403.79998779296875</ele>
        <time>2014-05-17T09:16:15Z</time>
      </trkpt>
      <trkpt lat="46.30221264436841" lon="6.290451195091009">
        <ele>404</ele>
        <time>2014-05-17T09:16:22Z</time>
      </trkpt>
      <trkpt lat="46.302151959389448" lon="6.290235025808215">
        <ele>403.79998779296875</ele>
        <time>2014-05-17T09:16:24Z</time>
      </trkpt>
      <trkpt lat="46.301949368789792" lon="6.289470847696066">
        <ele>403.79998779296875</ele>
        <time>2014-05-17T09:16:31Z</time>
      </trkpt>
      <trkpt lat="46.301805200055242" lon="6.288919905200601">
        <ele>404</ele>
        <time>2014-05-17T09:16:36Z</time>
      </trkpt>
      <trkpt lat="46.301608560606837" lon="6.28815027885139">
        <ele>404</ele>
        <time>2014-05-17T09:16:43Z</time>
      </trkpt>
      <trkpt lat="46.301556928083301" lon="6.287932517006993">
        <ele>404.60000610351562</ele>
        <time>2014-05-17T09:16:45Z</time>
      </trkpt>
      <trkpt lat="46.301529351621866" lon="6.287824055179954">
        <ele>404.79998779296875</ele>
        <time>2014-05-17T09:16:46Z</time>
      </trkpt>
      <trkpt lat="46.301331538707018" lon="6.287049734964967">
        <ele>403.79998779296875</ele>
        <time>2014-05-17T09:16:53Z</time>
      </trkpt>
      <trkpt lat="46.301300693303347" lon="6.286945547908545">
        <ele>403.39999389648437</ele>
        <time>2014-05-17T09:16:54Z</time>
      </trkpt>
      <trkpt lat="46.301110507920384" lon="6.286192936822772">
        <ele>404.20001220703125</ele>
        <time>2014-05-17T09:17:01Z</time>
      </trkpt>
      <trkpt lat="46.301084021106362" lon="6.28608682192862">
        <ele>404</ele>
        <time>2014-05-17T09:17:02Z</time>
      </trkpt>
      <trkpt lat="46.300860308110714" lon="6.285268580541015">
        <ele>404.79998779296875</ele>
        <time>2014-05-17T09:17:10Z</time>
      </trkpt>
      <trkpt lat="46.300825690850616" lon="6.285166069865227">
        <ele>404.79998779296875</ele>
        <time>2014-05-17T09:17:11Z</time>
      </trkpt>
      <trkpt lat="46.30060113966465" lon="6.284400299191475">
        <ele>404.60000610351562</ele>
        <time>2014-05-17T09:17:18Z</time>
      </trkpt>
      <trkpt lat="46.300527462735772" lon="6.284120930358768">
        <ele>405.20001220703125</ele>
        <time>2014-05-17T09:17:21Z</time>
      </trkpt>
      <trkpt lat="46.300526037812233" lon="6.284080697223544">
        <ele>405.79998779296875</ele>
        <time>2014-05-17T09:17:22Z</time>
      </trkpt>
      <trkpt lat="46.300527295097709" lon="6.284037614241242">
        <ele>406</ele>
        <time>2014-05-17T09:17:24Z</time>
      </trkpt>
      <trkpt lat="46.300521679222584" lon="6.283991010859609">
        <ele>405.79998779296875</ele>
        <time>2014-05-17T09:17:25Z</time>
      </trkpt>
      <trkpt lat="46.30051463842392" lon="6.283855810761452">
        <ele>405.60000610351562</ele>
        <time>2014-05-17T09:17:27Z</time>
      </trkpt>
      <trkpt lat="46.300487481057644" lon="6.283785905689001">
        <ele>405.39999389648437</ele>
        <time>2014-05-17T09:17:28Z</time>
      </trkpt>
      <trkpt lat="46.300354041159153" lon="6.28358063288033">
        <ele>405.39999389648437</ele>
        <time>2014-05-17T09:17:31Z</time>
      </trkpt>
      <trkpt lat="46.30031774751842" lon="6.283488348126411">
        <ele>405.60000610351562</ele>
        <time>2014-05-17T09:17:32Z</time>
      </trkpt>
      <trkpt lat="46.300161927938461" lon="6.283070677891374">
        <ele>405.39999389648437</ele>
        <time>2014-05-17T09:17:36Z</time>
      </trkpt>
      <trkpt lat="46.300056064501405" lon="6.282874876633287">
        <ele>404.79998779296875</ele>
        <time>2014-05-17T09:17:38Z</time>
      </trkpt>
      <trkpt lat="46.29988431930542" lon="6.282582432031632">
        <ele>404.79998779296875</ele>
        <time>2014-05-17T09:17:41Z</time>
      </trkpt>
      <trkpt lat="46.299519287422299" lon="6.282051606103778">
        <ele>404.60000610351562</ele>
        <time>2014-05-17T09:17:47Z</time>
      </trkpt>
      <trkpt lat="46.29921393468976" lon="6.281673079356551">
        <ele>405.79998779296875</ele>
        <time>2014-05-17T09:17:52Z</time>
      </trkpt>
      <trkpt lat="46.299034981057048" lon="6.281443331390619">
        <ele>406</ele>
        <time>2014-05-17T09:17:55Z</time>
      </trkpt>
      <trkpt lat="46.298624686896801" lon="6.280934382230043">
        <ele>406.39999389648437</ele>
        <time>2014-05-17T09:18:02Z</time>
      </trkpt>
      <trkpt lat="46.298329308629036" lon="6.280563315376639">
        <ele>407</ele>
        <time>2014-05-17T09:18:07Z</time>
      </trkpt>
      <trkpt lat="46.298039294779301" lon="6.280196942389011">
        <ele>407</ele>
        <time>2014-05-17T09:18:12Z</time>
      </trkpt>
      <trkpt lat="46.297618271782994" lon="6.279661171138287">
        <ele>406.79998779296875</ele>
        <time>2014-05-17T09:18:19Z</time>
      </trkpt>
      <trkpt lat="46.297498075291514" lon="6.279511889442802">
        <ele>406.39999389648437</ele>
        <time>2014-05-17T09:18:21Z</time>
      </trkpt>
      <trkpt lat="46.297080237418413" lon="6.278997408226132">
        <ele>407.39999389648438</ele>
        <time>2014-05-17T09:18:28Z</time>
      </trkpt>
      <trkpt lat="46.296847136691213" lon="6.278703790158033">
        <ele>406.60000610351562</ele>
        <time>2014-05-17T09:18:32Z</time>
      </trkpt>
      <trkpt lat="46.29638621583581" lon="6.278123343363404">
        <ele>407.60000610351562</ele>
        <time>2014-05-17T09:18:40Z</time>
      </trkpt>
      <trkpt lat="46.296329470351338" lon="6.278053438290954">
        <ele>407.79998779296875</ele>
        <time>2014-05-17T09:18:41Z</time>
      </trkpt>
      <trkpt lat="46.295994864776731" lon="6.277630319818854">
        <ele>408.39999389648437</ele>
        <time>2014-05-17T09:18:47Z</time>
      </trkpt>
      <trkpt lat="46.295940298587084" lon="6.277561169117689">
        <ele>408.79998779296875</ele>
        <time>2014-05-17T09:18:48Z</time>
      </trkpt>
      <trkpt lat="46.295731337741017" lon="6.277299150824547">
        <ele>409.60000610351562</ele>
        <time>2014-05-17T09:18:52Z</time>
      </trkpt>
      <trkpt lat="46.29553503356874" lon="6.277044676244259">
        <ele>410.20001220703125</ele>
        <time>2014-05-17T09:18:56Z</time>
      </trkpt>
      <trkpt lat="46.295379884541035" lon="6.276855580508709">
        <ele>411</ele>
        <time>2014-05-17T09:18:59Z</time>
      </trkpt>
      <trkpt lat="46.295127589255571" lon="6.276538744568825">
        <ele>411.20001220703125</ele>
        <time>2014-05-17T09:19:04Z</time>
      </trkpt>
      <trkpt lat="46.294709499925375" lon="6.276018647477031">
        <ele>411.20001220703125</ele>
        <time>2014-05-17T09:19:12Z</time>
      </trkpt>
      <trkpt lat="46.294657196849585" lon="6.275950251147151">
        <ele>411</ele>
        <time>2014-05-17T09:19:13Z</time>
      </trkpt>
      <trkpt lat="46.294260649010539" lon="6.275461418554187">
        <ele>410.39999389648438</ele>
        <time>2014-05-17T09:19:20Z</time>
      </trkpt>
      <trkpt lat="46.294075911864638" lon="6.275230245664716">
        <ele>410</ele>
        <time>2014-05-17T09:19:23Z</time>
      </trkpt>
      <trkpt lat="46.293823448941112" lon="6.274911565706134">
        <ele>409</ele>
        <time>2014-05-17T09:19:27Z</time>
      </trkpt>
      <trkpt lat="46.293758908286691" lon="6.274829255416989">
        <ele>409</ele>
        <time>2014-05-17T09:19:28Z</time>
      </trkpt>
      <trkpt lat="46.293417932465672" lon="6.274400101974607">
        <ele>407.60000610351562</ele>
        <time>2014-05-17T09:19:33Z</time>
      </trkpt>
      <trkpt lat="46.29334794357419" lon="6.274309242144227">
        <ele>407.60000610351562</ele>
        <time>2014-05-17T09:19:34Z</time>
      </trkpt>
      <trkpt lat="46.293055415153503" lon="6.273945635184646">
        <ele>406.39999389648437</ele>
        <time>2014-05-17T09:19:38Z</time>
      </trkpt>
      <trkpt lat="46.292678900063038" lon="6.273480271920562">
        <ele>405.39999389648437</ele>
        <time>2014-05-17T09:19:43Z</time>
      </trkpt>
      <trkpt lat="46.29260472021997" lon="6.273384466767311">
        <ele>405.20001220703125</ele>
        <time>2014-05-17T09:19:44Z</time>
      </trkpt>
      <trkpt lat="46.292377654463053" lon="6.273096799850464">
        <ele>404.20001220703125</ele>
        <time>2014-05-17T09:19:47Z</time>
      </trkpt>
      <trkpt lat="46.291919415816665" lon="6.272524483501911">
        <ele>404.39999389648438</ele>
        <time>2014-05-17T09:19:53Z</time>
      </trkpt>
      <trkpt lat="46.291845152154565" lon="6.272432282567024">
        <ele>404.60000610351562</ele>
        <time>2014-05-17T09:19:54Z</time>
      </trkpt>
      <trkpt lat="46.29140954464674" lon="6.271878993138671">
        <ele>404.60000610351562</ele>
        <time>2014-05-17T09:20:00Z</time>
      </trkpt>
      <trkpt lat="46.291126906871796" lon="6.271523935720325">
        <ele>404.79998779296875</ele>
        <time>2014-05-17T09:20:04Z</time>
      </trkpt>
      <trkpt lat="46.290920544415712" lon="6.271266024559736">
        <ele>405.39999389648437</ele>
        <time>2014-05-17T09:20:07Z</time>
      </trkpt>
      <trkpt lat="46.290505137294531" lon="6.270744083449245">
        <ele>406</ele>
        <time>2014-05-17T09:20:13Z</time>
      </trkpt>
      <trkpt lat="46.290434394031763" lon="6.270657666027546">
        <ele>405.60000610351562</ele>
        <time>2014-05-17T09:20:14Z</time>
      </trkpt>
      <trkpt lat="46.290003396570683" lon="6.270115273073316">
        <ele>404.39999389648438</ele>
        <time>2014-05-17T09:20:20Z</time>
      </trkpt>
      <trkpt lat="46.2898522708565" lon="6.269927769899368">
        <ele>403.20001220703125</ele>
        <time>2014-05-17T09:20:22Z</time>
      </trkpt>
      <trkpt lat="46.289474498480558" lon="6.269464585930109">
        <ele>402</ele>
        <time>2014-05-17T09:20:27Z</time>
      </trkpt>
      <trkpt lat="46.289095720276237" lon="6.268986314535141">
        <ele>401.39999389648437</ele>
        <time>2014-05-17T09:20:32Z</time>
      </trkpt>
      <trkpt lat="46.288644773885608" lon="6.268428163602948">
        <ele>402</ele>
        <time>2014-05-17T09:20:38Z</time>
      </trkpt>
      <trkpt lat="46.288421312347054" lon="6.268147956579924">
        <ele>402.39999389648437</ele>
        <time>2014-05-17T09:20:41Z</time>
      </trkpt>
      <trkpt lat="46.287968438118696" lon="6.267579831182957">
        <ele>402.20001220703125</ele>
        <time>2014-05-17T09:20:47Z</time>
      </trkpt>
      <trkpt lat="46.287892246618867" lon="6.267485450953245">
        <ele>402</ele>
        <time>2014-05-17T09:20:48Z</time>
      </trkpt>
      <trkpt lat="46.287419507279992" lon="6.266900477930903">
        <ele>401.60000610351562</ele>
        <time>2014-05-17T09:20:54Z</time>
      </trkpt>
      <trkpt lat="46.28725815564394" lon="6.266699144616723">
        <ele>400.39999389648437</ele>
        <time>2014-05-17T09:20:56Z</time>
      </trkpt>
      <trkpt lat="46.287177354097366" lon="6.266596633940935">
        <ele>400</ele>
        <time>2014-05-17T09:20:57Z</time>
      </trkpt>
      <trkpt lat="46.287020780146122" lon="6.266392869874835">
        <ele>399.20001220703125</ele>
        <time>2014-05-17T09:20:59Z</time>
      </trkpt>
      <trkpt lat="46.28659657202661" lon="6.2657505646348">
        <ele>399</ele>
        <time>2014-05-17T09:21:05Z</time>
      </trkpt>
      <trkpt lat="46.286475956439972" lon="6.265526684001088">
        <ele>398.20001220703125</ele>
        <time>2014-05-17T09:21:07Z</time>
      </trkpt>
      <trkpt lat="46.286266995593905" lon="6.265101218596101">
        <ele>398.39999389648437</ele>
        <time>2014-05-17T09:21:11Z</time>
      </trkpt>
      <trkpt lat="46.286117546260357" lon="6.264785639941692">
        <ele>399.39999389648437</ele>
        <time>2014-05-17T09:21:14Z</time>
      </trkpt>
      <trkpt lat="46.28597111441195" lon="6.264467546716332">
        <ele>400.39999389648437</ele>
        <time>2014-05-17T09:21:17Z</time>
      </trkpt>
      <trkpt lat="46.285873213782907" lon="6.264251042157412">
        <ele>400.39999389648437</ele>
        <time>2014-05-17T09:21:19Z</time>
      </trkpt>
      <trkpt lat="46.285528801381588" lon="6.263503795489669">
        <ele>400.20001220703125</ele>
        <time>2014-05-17T09:21:26Z</time>
      </trkpt>
      <trkpt lat="46.285431487485766" lon="6.263292403891683">
        <ele>400</ele>
        <time>2014-05-17T09:21:28Z</time>
      </trkpt>
      <trkpt lat="46.285096462816" lon="6.262563597410917">
        <ele>400.39999389648437</ele>
        <time>2014-05-17T09:21:35Z</time>
      </trkpt>
      <trkpt lat="46.285047177225351" lon="6.262455219402909">
        <ele>400.60000610351562</ele>
        <time>2014-05-17T09:21:36Z</time>
      </trkpt>
      <trkpt lat="46.28480720333755" lon="6.261893715709448">
        <ele>399.20001220703125</ele>
        <time>2014-05-17T09:21:41Z</time>
      </trkpt>
      <trkpt lat="46.284657586365938" lon="6.261564809828997">
        <ele>400</ele>
        <time>2014-05-17T09:21:44Z</time>
      </trkpt>
      <trkpt lat="46.284346198663116" lon="6.260894006118178">
        <ele>399</ele>
        <time>2014-05-17T09:21:50Z</time>
      </trkpt>
      <trkpt lat="46.284295907244086" lon="6.260781856253743">
        <ele>398.79998779296875</ele>
        <time>2014-05-17T09:21:51Z</time>
      </trkpt>
      <trkpt lat="46.283990386873484" lon="6.260119015350938">
        <ele>398.60000610351562</ele>
        <time>2014-05-17T09:21:57Z</time>
      </trkpt>
      <trkpt lat="46.283938335254788" lon="6.260006614029408">
        <ele>398</ele>
        <time>2014-05-17T09:21:58Z</time>
      </trkpt>
      <trkpt lat="46.283886702731252" lon="6.259892536327243">
        <ele>398</ele>
        <time>2014-05-17T09:21:59Z</time>
      </trkpt>
      <trkpt lat="46.283571543172002" lon="6.259199939668179">
        <ele>396.79998779296875</ele>
        <time>2014-05-17T09:22:05Z</time>
      </trkpt>
      <trkpt lat="46.283407593145967" lon="6.25885016284883">
        <ele>396.79998779296875</ele>
        <time>2014-05-17T09:22:08Z</time>
      </trkpt>
      <trkpt lat="46.283092014491558" lon="6.258162679150701">
        <ele>397.20001220703125</ele>
        <time>2014-05-17T09:22:14Z</time>
      </trkpt>
      <trkpt lat="46.283040549606085" lon="6.258052624762058">
        <ele>397.39999389648437</ele>
        <time>2014-05-17T09:22:15Z</time>
      </trkpt>
      <trkpt lat="46.282691191881895" lon="6.257318034768105">
        <ele>398</ele>
        <time>2014-05-17T09:22:22Z</time>
      </trkpt>
      <trkpt lat="46.28264307975769" lon="6.257217535749078">
        <ele>398.20001220703125</ele>
        <time>2014-05-17T09:22:23Z</time>
      </trkpt>
      <trkpt lat="46.282454486936331" lon="6.25681453384459">
        <ele>399.20001220703125</ele>
        <time>2014-05-17T09:22:27Z</time>
      </trkpt>
      <trkpt lat="46.282318364828825" lon="6.256520915776491">
        <ele>398.79998779296875</ele>
        <time>2014-05-17T09:22:30Z</time>
      </trkpt>
      <trkpt lat="46.282007899135351" lon="6.255851201713085">
        <ele>399.20001220703125</ele>
        <time>2014-05-17T09:22:37Z</time>
      </trkpt>
      <trkpt lat="46.281920727342367" lon="6.255661686882377">
        <ele>400.20001220703125</ele>
        <time>2014-05-17T09:22:39Z</time>
      </trkpt>
      <trkpt lat="46.281611938029528" lon="6.25499926507473">
        <ele>400</ele>
        <time>2014-05-17T09:22:46Z</time>
      </trkpt>
      <trkpt lat="46.281525436788797" lon="6.254812348634005">
        <ele>400.39999389648437</ele>
        <time>2014-05-17T09:22:48Z</time>
      </trkpt>
      <trkpt lat="46.281363749876618" lon="6.254444383084774">
        <ele>401.60000610351562</ele>
        <time>2014-05-17T09:22:52Z</time>
      </trkpt>
      <trkpt lat="46.281198039650917" lon="6.254096031188965">
        <ele>402.20001220703125</ele>
        <time>2014-05-17T09:22:56Z</time>
      </trkpt>
      <trkpt lat="46.281116399914026" lon="6.253921687602997">
        <ele>402.60000610351562</ele>
        <time>2014-05-17T09:22:58Z</time>
      </trkpt>
      <trkpt lat="46.280797300860286" lon="6.253209058195353">
        <ele>402.39999389648437</ele>
        <time>2014-05-17T09:23:06Z</time>
      </trkpt>
      <trkpt lat="46.280544921755791" lon="6.252684351056814">
        <ele>403.79998779296875</ele>
        <time>2014-05-17T09:23:12Z</time>
      </trkpt>
      <trkpt lat="46.280405279248953" lon="6.252424512058497">
        <ele>403.60000610351562</ele>
        <time>2014-05-17T09:23:15Z</time>
      </trkpt>
      <trkpt lat="46.280047874897718" lon="6.251834174618125">
        <ele>403</ele>
        <time>2014-05-17T09:23:22Z</time>
      </trkpt>
      <trkpt lat="46.279888115823269" lon="6.251576514914632">
        <ele>403.20001220703125</ele>
        <time>2014-05-17T09:23:25Z</time>
      </trkpt>
      <trkpt lat="46.279506236314774" lon="6.250972431153059">
        <ele>403.20001220703125</ele>
        <time>2014-05-17T09:23:32Z</time>
      </trkpt>
      <trkpt lat="46.279337089508772" lon="6.250707563012838">
        <ele>403.79998779296875</ele>
        <time>2014-05-17T09:23:35Z</time>
      </trkpt>
      <trkpt lat="46.278992928564548" lon="6.250157710164785">
        <ele>402.39999389648437</ele>
        <time>2014-05-17T09:23:41Z</time>
      </trkpt>
      <trkpt lat="46.278877006843686" lon="6.249973978847265">
        <ele>401.60000610351562</ele>
        <time>2014-05-17T09:23:43Z</time>
      </trkpt>
      <trkpt lat="46.278530498966575" lon="6.249421695247293">
        <ele>401.39999389648437</ele>
        <time>2014-05-17T09:23:49Z</time>
      </trkpt>
      <trkpt lat="46.278359340503812" lon="6.249142410233617">
        <ele>401.79998779296875</ele>
        <time>2014-05-17T09:23:52Z</time>
      </trkpt>
      <trkpt lat="46.278243837878108" lon="6.248955829069018">
        <ele>402.60000610351562</ele>
        <time>2014-05-17T09:23:54Z</time>
      </trkpt>
      <trkpt lat="46.278127077966928" lon="6.248772349208593">
        <ele>401.60000610351562</ele>
        <time>2014-05-17T09:23:56Z</time>
      </trkpt>
      <trkpt lat="46.277779564261436" lon="6.248237583786249">
        <ele>401.60000610351562</ele>
        <time>2014-05-17T09:24:02Z</time>
      </trkpt>
      <trkpt lat="46.27753833308816" lon="6.24790633097291">
        <ele>402.60000610351562</ele>
        <time>2014-05-17T09:24:06Z</time>
      </trkpt>
      <trkpt lat="46.277297521010041" lon="6.247599888592959">
        <ele>402.60000610351562</ele>
        <time>2014-05-17T09:24:10Z</time>
      </trkpt>
      <trkpt lat="46.276892004534602" lon="6.247086664661765">
        <ele>403.39999389648437</ele>
        <time>2014-05-17T09:24:17Z</time>
      </trkpt>
      <trkpt lat="46.276788655668497" lon="6.246922044083476">
        <ele>403.79998779296875</ele>
        <time>2014-05-17T09:24:19Z</time>
      </trkpt>
      <trkpt lat="46.27665689215064" lon="6.246821964159608">
        <ele>403.79998779296875</ele>
        <time>2014-05-17T09:24:21Z</time>
      </trkpt>
      <trkpt lat="46.27645899541676" lon="6.246663462370634">
        <ele>404</ele>
        <time>2014-05-17T09:24:24Z</time>
      </trkpt>
      <trkpt lat="46.276395292952657" lon="6.246597999706864">
        <ele>404</ele>
        <time>2014-05-17T09:24:25Z</time>
      </trkpt>
      <trkpt lat="46.275943256914616" lon="6.246103383600712">
        <ele>403.60000610351562</ele>
        <time>2014-05-17T09:24:32Z</time>
      </trkpt>
      <trkpt lat="46.275813421234488" lon="6.245955107733607">
        <ele>403.20001220703125</ele>
        <time>2014-05-17T09:24:34Z</time>
      </trkpt>
      <trkpt lat="46.275339927524328" lon="6.245436687022448">
        <ele>403.39999389648437</ele>
        <time>2014-05-17T09:24:41Z</time>
      </trkpt>
      <trkpt lat="46.275204224511981" lon="6.245288578793407">
        <ele>403.39999389648437</ele>
        <time>2014-05-17T09:24:43Z</time>
      </trkpt>
      <trkpt lat="46.274713380262256" lon="6.244758171960712">
        <ele>403</ele>
        <time>2014-05-17T09:24:50Z</time>
      </trkpt>
      <trkpt lat="46.274504084140062" lon="6.244531944394112">
        <ele>403</ele>
        <time>2014-05-17T09:24:53Z</time>
      </trkpt>
      <trkpt lat="46.274435771629214" lon="6.244458854198456">
        <ele>402.79998779296875</ele>
        <time>2014-05-17T09:24:54Z</time>
      </trkpt>
      <trkpt lat="46.273947693407536" lon="6.243929620832205">
        <ele>403.39999389648437</ele>
        <time>2014-05-17T09:25:01Z</time>
      </trkpt>
      <trkpt lat="46.273739989846945" lon="6.243708757683635">
        <ele>403.79998779296875</ele>
        <time>2014-05-17T09:25:04Z</time>
      </trkpt>
      <trkpt lat="46.273253504186869" lon="6.243180530145764">
        <ele>403.79998779296875</ele>
        <time>2014-05-17T09:25:11Z</time>
      </trkpt>
      <trkpt lat="46.273054098710418" lon="6.242950614541769">
        <ele>404</ele>
        <time>2014-05-17T09:25:14Z</time>
      </trkpt>
      <trkpt lat="46.272924682125449" lon="6.242793621495366">
        <ele>404</ele>
        <time>2014-05-17T09:25:16Z</time>
      </trkpt>
      <trkpt lat="46.272726533934474" lon="6.242586337029934">
        <ele>403.79998779296875</ele>
        <time>2014-05-17T09:25:19Z</time>
      </trkpt>
      <trkpt lat="46.272255722433329" lon="6.242074957117438">
        <ele>404.39999389648438</ele>
        <time>2014-05-17T09:25:26Z</time>
      </trkpt>
      <trkpt lat="46.272054556757212" lon="6.241862392053008">
        <ele>404.20001220703125</ele>
        <time>2014-05-17T09:25:29Z</time>
      </trkpt>
      <trkpt lat="46.271590702235699" lon="6.241362495347858">
        <ele>404.20001220703125</ele>
        <time>2014-05-17T09:25:36Z</time>
      </trkpt>
      <trkpt lat="46.27146027982235" lon="6.241225199773908">
        <ele>403.79998779296875</ele>
        <time>2014-05-17T09:25:38Z</time>
      </trkpt>
      <trkpt lat="46.271020649001002" lon="6.240754472091794">
        <ele>404.39999389648438</ele>
        <time>2014-05-17T09:25:45Z</time>
      </trkpt>
      <trkpt lat="46.270900117233396" lon="6.240624636411667">
        <ele>404.60000610351562</ele>
        <time>2014-05-17T09:25:47Z</time>
      </trkpt>
      <trkpt lat="46.27067263238132" lon="6.240389607846737">
        <ele>405</ele>
        <time>2014-05-17T09:25:51Z</time>
      </trkpt>
      <trkpt lat="46.270519243553281" lon="6.240222556516528">
        <ele>405.39999389648437</ele>
        <time>2014-05-17T09:25:54Z</time>
      </trkpt>
      <trkpt lat="46.270188661292195" lon="6.239859033375979">
        <ele>405.79998779296875</ele>
        <time>2014-05-17T09:26:01Z</time>
      </trkpt>
      <trkpt lat="46.270090257748961" lon="6.239756606519222">
        <ele>406</ele>
        <time>2014-05-17T09:26:03Z</time>
      </trkpt>
      <trkpt lat="46.269820276647806" lon="6.239443710073829">
        <ele>406.20001220703125</ele>
        <time>2014-05-17T09:26:09Z</time>
      </trkpt>
      <trkpt lat="46.269626151770353" lon="6.239212201908231">
        <ele>406.79998779296875</ele>
        <time>2014-05-17T09:26:14Z</time>
      </trkpt>
      <trkpt lat="46.269594300538301" lon="6.239163838326931">
        <ele>407.20001220703125</ele>
        <time>2014-05-17T09:26:15Z</time>
      </trkpt>
      <trkpt lat="46.269562868401408" lon="6.239118576049805">
        <ele>407.39999389648438</ele>
        <time>2014-05-17T09:26:16Z</time>
      </trkpt>
      <trkpt lat="46.269428674131632" lon="6.238928725942969">
        <ele>407.39999389648438</ele>
        <time>2014-05-17T09:26:21Z</time>
      </trkpt>
      <trkpt lat="46.269312920048833" lon="6.238841218873859">
        <ele>408.20001220703125</ele>
        <time>2014-05-17T09:26:25Z</time>
      </trkpt>
      <trkpt lat="46.269285930320621" lon="6.238819342106581">
        <ele>408.39999389648437</ele>
        <time>2014-05-17T09:26:26Z</time>
      </trkpt>
      <trkpt lat="46.269122902303934" lon="6.238729991018772">
        <ele>408.20001220703125</ele>
        <time>2014-05-17T09:26:31Z</time>
      </trkpt>
      <trkpt lat="46.269083088263869" lon="6.238753627985716">
        <ele>408.20001220703125</ele>
        <time>2014-05-17T09:26:41Z</time>
      </trkpt>
      <trkpt lat="46.269099181517959" lon="6.238876422867179">
        <ele>407.60000610351562</ele>
        <time>2014-05-17T09:26:45Z</time>
      </trkpt>
      <trkpt lat="46.269112341105938" lon="6.238910704851151">
        <ele>407.60000610351562</ele>
        <time>2014-05-17T09:26:46Z</time>
      </trkpt>
      <trkpt lat="46.269169840961695" lon="6.239012042060494">
        <ele>407.20001220703125</ele>
        <time>2014-05-17T09:26:49Z</time>
      </trkpt>
      <trkpt lat="46.269223317503929" lon="6.239079767838121">
        <ele>406.60000610351562</ele>
        <time>2014-05-17T09:26:51Z</time>
      </trkpt>
      <trkpt lat="46.269288696348667" lon="6.239210776984692">
        <ele>407.20001220703125</ele>
        <time>2014-05-17T09:26:54Z</time>
      </trkpt>
      <trkpt lat="46.269286265596747" lon="6.239266684278846">
        <ele>407</ele>
        <time>2014-05-17T09:26:55Z</time>
      </trkpt>
      <trkpt lat="46.269238069653511" lon="6.239418564364314">
        <ele>406.79998779296875</ele>
        <time>2014-05-17T09:26:58Z</time>
      </trkpt>
      <trkpt lat="46.269216192886233" lon="6.23947162181139">
        <ele>406.60000610351562</ele>
        <time>2014-05-17T09:26:59Z</time>
      </trkpt>
      <trkpt lat="46.269105887040496" lon="6.239710589870811">
        <ele>406.20001220703125</ele>
        <time>2014-05-17T09:27:03Z</time>
      </trkpt>
      <trkpt lat="46.269081747159362" lon="6.239777728915215">
        <ele>406</ele>
        <time>2014-05-17T09:27:04Z</time>
      </trkpt>
      <trkpt lat="46.269054925069213" lon="6.239834893494844">
        <ele>406</ele>
        <time>2014-05-17T09:27:05Z</time>
      </trkpt>
      <trkpt lat="46.268960041925311" lon="6.240037819370627">
        <ele>406.20001220703125</ele>
        <time>2014-05-17T09:27:08Z</time>
      </trkpt>
      <trkpt lat="46.268725851550698" lon="6.240547355264425">
        <ele>405.39999389648437</ele>
        <time>2014-05-17T09:27:15Z</time>
      </trkpt>
      <trkpt lat="46.268486380577087" lon="6.241061920300126">
        <ele>406.39999389648437</ele>
        <time>2014-05-17T09:27:22Z</time>
      </trkpt>
      <trkpt lat="46.268382025882602" lon="6.241292506456375">
        <ele>407.20001220703125</ele>
        <time>2014-05-17T09:27:25Z</time>
      </trkpt>
      <trkpt lat="46.268227631226182" lon="6.241606241092086">
        <ele>406</ele>
        <time>2014-05-17T09:27:29Z</time>
      </trkpt>
      <trkpt lat="46.268189158290625" lon="6.241689641028643">
        <ele>406</ele>
        <time>2014-05-17T09:27:30Z</time>
      </trkpt>
      <trkpt lat="46.267870562151074" lon="6.242406629025936">
        <ele>406.60000610351562</ele>
        <time>2014-05-17T09:27:39Z</time>
      </trkpt>
      <trkpt lat="46.267636455595493" lon="6.243038540706039">
        <ele>407.20001220703125</ele>
        <time>2014-05-17T09:27:47Z</time>
      </trkpt>
      <trkpt lat="46.267480636015534" lon="6.243598451837897">
        <ele>407.39999389648438</ele>
        <time>2014-05-17T09:27:54Z</time>
      </trkpt>
      <trkpt lat="46.267330516129732" lon="6.244206223636866">
        <ele>407.39999389648438</ele>
        <time>2014-05-17T09:28:01Z</time>
      </trkpt>
      <trkpt lat="46.267305705696344" lon="6.244293060153723">
        <ele>407</ele>
        <time>2014-05-17T09:28:02Z</time>
      </trkpt>
      <trkpt lat="46.267195483669639" lon="6.244735540822148">
        <ele>407</ele>
        <time>2014-05-17T09:28:07Z</time>
      </trkpt>
      <trkpt lat="46.267082411795855" lon="6.245171651244164">
        <ele>406</ele>
        <time>2014-05-17T09:28:12Z</time>
      </trkpt>
      <trkpt lat="46.267037484794855" lon="6.245345659554005">
        <ele>405.60000610351562</ele>
        <time>2014-05-17T09:28:14Z</time>
      </trkpt>
      <trkpt lat="46.266855010762811" lon="6.246058708056808">
        <ele>405.79998779296875</ele>
        <time>2014-05-17T09:28:22Z</time>
      </trkpt>
      <trkpt lat="46.266760630533099" lon="6.246425667777658">
        <ele>404.79998779296875</ele>
        <time>2014-05-17T09:28:26Z</time>
      </trkpt>
      <trkpt lat="46.266581425443292" lon="6.247061267495155">
        <ele>404.39999389648438</ele>
        <time>2014-05-17T09:28:33Z</time>
      </trkpt>
      <trkpt lat="46.266359891742468" lon="6.247761240229011">
        <ele>405.20001220703125</ele>
        <time>2014-05-17T09:28:41Z</time>
      </trkpt>
      <trkpt lat="46.266121510416269" lon="6.248510247096419">
        <ele>405.60000610351562</ele>
        <time>2014-05-17T09:28:50Z</time>
      </trkpt>
      <trkpt lat="46.265943311154842" lon="6.248968821018934">
        <ele>405.79998779296875</ele>
        <time>2014-05-17T09:28:56Z</time>
      </trkpt>
      <trkpt lat="46.265911292284727" lon="6.249040067195892">
        <ele>406</ele>
        <time>2014-05-17T09:28:57Z</time>
      </trkpt>
      <trkpt lat="46.26565296202898" lon="6.24958329834044">
        <ele>407</ele>
        <time>2014-05-17T09:29:05Z</time>
      </trkpt>
      <trkpt lat="46.265622787177563" lon="6.249652951955795">
        <ele>407.20001220703125</ele>
        <time>2014-05-17T09:29:06Z</time>
      </trkpt>
      <trkpt lat="46.265402426943183" lon="6.250108927488327">
        <ele>408</ele>
        <time>2014-05-17T09:29:13Z</time>
      </trkpt>
      <trkpt lat="46.265304526314139" lon="6.250298274680972">
        <ele>408.39999389648437</ele>
        <time>2014-05-17T09:29:16Z</time>
      </trkpt>
      <trkpt lat="46.265216181054711" lon="6.25049751251936">
        <ele>408.20001220703125</ele>
        <time>2014-05-17T09:29:19Z</time>
      </trkpt>
      <trkpt lat="46.264967238530517" lon="6.251000678166747">
        <ele>408</ele>
        <time>2014-05-17T09:29:27Z</time>
      </trkpt>
      <trkpt lat="46.264883251860738" lon="6.251179296523333">
        <ele>409.20001220703125</ele>
        <time>2014-05-17T09:29:30Z</time>
      </trkpt>
      <trkpt lat="46.264743525534868" lon="6.251463443040848">
        <ele>409.60000610351562</ele>
        <time>2014-05-17T09:29:35Z</time>
      </trkpt>
      <trkpt lat="46.264639170840383" lon="6.25170492567122">
        <ele>410.39999389648438</ele>
        <time>2014-05-17T09:29:39Z</time>
      </trkpt>
      <trkpt lat="46.264574630185962" lon="6.251892428845167">
        <ele>409.79998779296875</ele>
        <time>2014-05-17T09:29:42Z</time>
      </trkpt>
      <trkpt lat="46.264558453112841" lon="6.251954957842827">
        <ele>409.60000610351562</ele>
        <time>2014-05-17T09:29:43Z</time>
      </trkpt>
      <trkpt lat="46.264515537768602" lon="6.252079177647829">
        <ele>410.39999389648438</ele>
        <time>2014-05-17T09:29:45Z</time>
      </trkpt>
      <trkpt lat="46.264416547492146" lon="6.252209600061178">
        <ele>411</ele>
        <time>2014-05-17T09:29:48Z</time>
      </trkpt>
      <trkpt lat="46.264328705146909" lon="6.252334490418434">
        <ele>411.60000610351562</ele>
        <time>2014-05-17T09:29:51Z</time>
      </trkpt>
      <trkpt lat="46.264292160049081" lon="6.252445550635457">
        <ele>411.60000610351562</ele>
        <time>2014-05-17T09:29:53Z</time>
      </trkpt>
      <trkpt lat="46.264137178659439" lon="6.252881661057472">
        <ele>411.20001220703125</ele>
        <time>2014-05-17T09:30:00Z</time>
      </trkpt>
      <trkpt lat="46.264088898897171" lon="6.253084754571319">
        <ele>411.60000610351562</ele>
        <time>2014-05-17T09:30:03Z</time>
      </trkpt>
      <trkpt lat="46.264038691297174" lon="6.253350460901856">
        <ele>411.60000610351562</ele>
        <time>2014-05-17T09:30:07Z</time>
      </trkpt>
      <trkpt lat="46.263998877257109" lon="6.253647599369288">
        <ele>410.39999389648438</ele>
        <time>2014-05-17T09:30:11Z</time>
      </trkpt>
      <trkpt lat="46.263973396271467" lon="6.253792438656092">
        <ele>410.39999389648438</ele>
        <time>2014-05-17T09:30:13Z</time>
      </trkpt>
      <trkpt lat="46.263957135379314" lon="6.253943564370275">
        <ele>410.60000610351562</ele>
        <time>2014-05-17T09:30:15Z</time>
      </trkpt>
      <trkpt lat="46.263941964134574" lon="6.254015816375613">
        <ele>410.79998779296875</ele>
        <time>2014-05-17T09:30:16Z</time>
      </trkpt>
      <trkpt lat="46.263901311904192" lon="6.25423357822001">
        <ele>410.39999389648438</ele>
        <time>2014-05-17T09:30:19Z</time>
      </trkpt>
      <trkpt lat="46.263893935829401" lon="6.25430784188211">
        <ele>410.39999389648438</ele>
        <time>2014-05-17T09:30:20Z</time>
      </trkpt>
      <trkpt lat="46.263851691037416" lon="6.254579415544868">
        <ele>410</ele>
        <time>2014-05-17T09:30:24Z</time>
      </trkpt>
      <trkpt lat="46.263841297477484" lon="6.254651332274079">
        <ele>410.60000610351562</ele>
        <time>2014-05-17T09:30:25Z</time>
      </trkpt>
      <trkpt lat="46.263818666338921" lon="6.254789717495441">
        <ele>411.60000610351562</ele>
        <time>2014-05-17T09:30:27Z</time>
      </trkpt>
      <trkpt lat="46.263774242252111" lon="6.254991637542844">
        <ele>412.20001220703125</ele>
        <time>2014-05-17T09:30:30Z</time>
      </trkpt>
      <trkpt lat="46.263730823993683" lon="6.255197245627642">
        <ele>412.79998779296875</ele>
        <time>2014-05-17T09:30:33Z</time>
      </trkpt>
      <trkpt lat="46.263688830658793" lon="6.255447948351502">
        <ele>413.20001220703125</ele>
        <time>2014-05-17T09:30:37Z</time>
      </trkpt>
      <trkpt lat="46.263659158721566" lon="6.255576694384217">
        <ele>414</ele>
        <time>2014-05-17T09:30:39Z</time>
      </trkpt>
      <trkpt lat="46.263641221448779" lon="6.255639139562845">
        <ele>414.20001220703125</ele>
        <time>2014-05-17T09:30:40Z</time>
      </trkpt>
      <trkpt lat="46.263580871745944" lon="6.255834773182869">
        <ele>414.39999389648437</ele>
        <time>2014-05-17T09:30:43Z</time>
      </trkpt>
      <trkpt lat="46.263562766835093" lon="6.255901912227273">
        <ele>414.60000610351562</ele>
        <time>2014-05-17T09:30:44Z</time>
      </trkpt>
      <trkpt lat="46.263522449880838" lon="6.256028562784195">
        <ele>415</ele>
        <time>2014-05-17T09:30:46Z</time>
      </trkpt>
      <trkpt lat="46.263421196490526" lon="6.256349589675665">
        <ele>415.39999389648437</ele>
        <time>2014-05-17T09:30:51Z</time>
      </trkpt>
      <trkpt lat="46.26333829946816" lon="6.256537931039929">
        <ele>415.39999389648437</ele>
        <time>2014-05-17T09:30:54Z</time>
      </trkpt>
      <trkpt lat="46.263259509578347" lon="6.256633065640926">
        <ele>415.39999389648437</ele>
        <time>2014-05-17T09:30:56Z</time>
      </trkpt>
      <trkpt lat="46.26315901055932" lon="6.256700791418552">
        <ele>416.39999389648437</ele>
        <time>2014-05-17T09:30:58Z</time>
      </trkpt>
      <trkpt lat="46.263051303103566" lon="6.256743036210537">
        <ele>416.60000610351562</ele>
        <time>2014-05-17T09:31:00Z</time>
      </trkpt>
      <trkpt lat="46.262996988371015" lon="6.256760638207197">
        <ele>416.60000610351562</ele>
        <time>2014-05-17T09:31:01Z</time>
      </trkpt>
      <trkpt lat="46.262658108025789" lon="6.256878655403853">
        <ele>416.60000610351562</ele>
        <time>2014-05-17T09:31:08Z</time>
      </trkpt>
      <trkpt lat="46.262611001729965" lon="6.256902543827891">
        <ele>417</ele>
        <time>2014-05-17T09:31:09Z</time>
      </trkpt>
      <trkpt lat="46.262471275404096" lon="6.25699432566762">
        <ele>416.60000610351562</ele>
        <time>2014-05-17T09:31:12Z</time>
      </trkpt>
      <trkpt lat="46.262390138581395" lon="6.257077809423208">
        <ele>416.79998779296875</ele>
        <time>2014-05-17T09:31:14Z</time>
      </trkpt>
      <trkpt lat="46.262249322608113" lon="6.257268916815519">
        <ele>416.79998779296875</ele>
        <time>2014-05-17T09:31:18Z</time>
      </trkpt>
      <trkpt lat="46.262196600437164" lon="6.257366985082626">
        <ele>417.20001220703125</ele>
        <time>2014-05-17T09:31:20Z</time>
      </trkpt>
      <trkpt lat="46.261991411447525" lon="6.257730089128017">
        <ele>416.60000610351562</ele>
        <time>2014-05-17T09:31:27Z</time>
      </trkpt>
      <trkpt lat="46.261735260486603" lon="6.258188663050532">
        <ele>417</ele>
        <time>2014-05-17T09:31:35Z</time>
      </trkpt>
      <trkpt lat="46.261701816692948" lon="6.258244402706623">
        <ele>417.39999389648437</ele>
        <time>2014-05-17T09:31:36Z</time>
      </trkpt>
      <trkpt lat="46.261542057618499" lon="6.25852519646287">
        <ele>418.60000610351562</ele>
        <time>2014-05-17T09:31:41Z</time>
      </trkpt>
      <trkpt lat="46.261448012664914" lon="6.258687302470207">
        <ele>419.60000610351562</ele>
        <time>2014-05-17T09:31:44Z</time>
      </trkpt>
      <trkpt lat="46.261415407061577" lon="6.258738180622459">
        <ele>420.20001220703125</ele>
        <time>2014-05-17T09:31:45Z</time>
      </trkpt>
      <trkpt lat="46.261262688785791" lon="6.259012604132295">
        <ele>420</ele>
        <time>2014-05-17T09:31:50Z</time>
      </trkpt>
      <trkpt lat="46.261100331321359" lon="6.259263809770346">
        <ele>420.79998779296875</ele>
        <time>2014-05-17T09:31:55Z</time>
      </trkpt>
      <trkpt lat="46.261040987446904" lon="6.25937445089221">
        <ele>421.39999389648437</ele>
        <time>2014-05-17T09:31:57Z</time>
      </trkpt>
      <trkpt lat="46.260897740721703" lon="6.259642923250794">
        <ele>421.79998779296875</ele>
        <time>2014-05-17T09:32:02Z</time>
      </trkpt>
      <trkpt lat="46.260795397683978" lon="6.25987971201539">
        <ele>422.60000610351562</ele>
        <time>2014-05-17T09:32:06Z</time>
      </trkpt>
      <trkpt lat="46.260743429884315" lon="6.259996639564633">
        <ele>423</ele>
        <time>2014-05-17T09:32:08Z</time>
      </trkpt>
      <trkpt lat="46.260616611689329" lon="6.260296208783984">
        <ele>423</ele>
        <time>2014-05-17T09:32:13Z</time>
      </trkpt>
      <trkpt lat="46.260552993044257" lon="6.260466445237398">
        <ele>424.60000610351562</ele>
        <time>2014-05-17T09:32:16Z</time>
      </trkpt>
      <trkpt lat="46.260425755754113" lon="6.260814378038049">
        <ele>424.79998779296875</ele>
        <time>2014-05-17T09:32:22Z</time>
      </trkpt>
      <trkpt lat="46.260325172916055" lon="6.261104140430689">
        <ele>423.60000610351562</ele>
        <time>2014-05-17T09:32:27Z</time>
      </trkpt>
      <trkpt lat="46.260291058570147" lon="6.261219894513488">
        <ele>424</ele>
        <time>2014-05-17T09:32:29Z</time>
      </trkpt>
      <trkpt lat="46.260221321135759" lon="6.261442601680756">
        <ele>424.79998779296875</ele>
        <time>2014-05-17T09:32:33Z</time>
      </trkpt>
      <trkpt lat="46.26015686430037" lon="6.261679893359542">
        <ele>424.60000610351562</ele>
        <time>2014-05-17T09:32:37Z</time>
      </trkpt>
      <trkpt lat="46.260046642273664" lon="6.262151962146163">
        <ele>425</ele>
        <time>2014-05-17T09:32:44Z</time>
      </trkpt>
      <trkpt lat="46.260024262592196" lon="6.262220190837979">
        <ele>424.79998779296875</ele>
        <time>2014-05-17T09:32:45Z</time>
      </trkpt>
      <trkpt lat="46.259879088029265" lon="6.262604417279363">
        <ele>423.60000610351562</ele>
        <time>2014-05-17T09:32:51Z</time>
      </trkpt>
      <trkpt lat="46.259854612872005" lon="6.262667197734118">
        <ele>423.20001220703125</ele>
        <time>2014-05-17T09:32:52Z</time>
      </trkpt>
      <trkpt lat="46.259753527119756" lon="6.262912368401885">
        <ele>425</ele>
        <time>2014-05-17T09:32:56Z</time>
      </trkpt>
      <trkpt lat="46.259666606783867" lon="6.263093585148454">
        <ele>424.79998779296875</ele>
        <time>2014-05-17T09:32:59Z</time>
      </trkpt>
      <trkpt lat="46.259634755551815" lon="6.26315007917583">
        <ele>424.79998779296875</ele>
        <time>2014-05-17T09:33:00Z</time>
      </trkpt>
      <trkpt lat="46.259452952072024" lon="6.263416623696685">
        <ele>425.79998779296875</ele>
        <time>2014-05-17T09:33:05Z</time>
      </trkpt>
      <trkpt lat="46.25938287936151" lon="6.263530114665628">
        <ele>426</ele>
        <time>2014-05-17T09:33:07Z</time>
      </trkpt>
      <trkpt lat="46.259240806102753" lon="6.263812752440572">
        <ele>426.60000610351562</ele>
        <time>2014-05-17T09:33:12Z</time>
      </trkpt>
      <trkpt lat="46.259125806391239" lon="6.264043003320694">
        <ele>426.39999389648437</ele>
        <time>2014-05-17T09:33:17Z</time>
      </trkpt>
      <trkpt lat="46.259117927402258" lon="6.264086505398154">
        <ele>427.20001220703125</ele>
        <time>2014-05-17T09:33:18Z</time>
      </trkpt>
      <trkpt lat="46.259102420881391" lon="6.264120955020189">
        <ele>427.60000610351562</ele>
        <time>2014-05-17T09:33:19Z</time>
      </trkpt>
      <trkpt lat="46.259046345949173" lon="6.264130426570773">
        <ele>427.79998779296875</ele>
        <time>2014-05-17T09:33:21Z</time>
      </trkpt>
      <trkpt lat="46.258972585201263" lon="6.264103604480624">
        <ele>427.79998779296875</ele>
        <time>2014-05-17T09:33:23Z</time>
      </trkpt>
      <trkpt lat="46.25879262574017" lon="6.264067394658923">
        <ele>427.79998779296875</ele>
        <time>2014-05-17T09:33:27Z</time>
      </trkpt>
      <trkpt lat="46.25874325633049" lon="6.264055827632546">
        <ele>427.60000610351562</ele>
        <time>2014-05-17T09:33:28Z</time>
      </trkpt>
      <trkpt lat="46.25849892385304" lon="6.264013247564435">
        <ele>428.20001220703125</ele>
        <time>2014-05-17T09:33:33Z</time>
      </trkpt>
      <trkpt lat="46.258248137310147" lon="6.263967482373118">
        <ele>428.20001220703125</ele>
        <time>2014-05-17T09:33:38Z</time>
      </trkpt>
      <trkpt lat="46.258142860606313" lon="6.263958932831883">
        <ele>428.39999389648437</ele>
        <time>2014-05-17T09:33:40Z</time>
      </trkpt>
      <trkpt lat="46.257831808179617" lon="6.263901013880968">
        <ele>429.20001220703125</ele>
        <time>2014-05-17T09:33:46Z</time>
      </trkpt>
      <trkpt lat="46.257782438769937" lon="6.263883328065276">
        <ele>429.20001220703125</ele>
        <time>2014-05-17T09:33:47Z</time>
      </trkpt>
      <trkpt lat="46.257505835965276" lon="6.263739243149757">
        <ele>429.20001220703125</ele>
        <time>2014-05-17T09:33:53Z</time>
      </trkpt>
      <trkpt lat="46.257384298369288" lon="6.263646120205522">
        <ele>429.39999389648437</ele>
        <time>2014-05-17T09:33:56Z</time>
      </trkpt>
      <trkpt lat="46.25726955011487" lon="6.263537658378482">
        <ele>429.20001220703125</ele>
        <time>2014-05-17T09:33:59Z</time>
      </trkpt>
      <trkpt lat="46.256989259272814" lon="6.263332553207874">
        <ele>429.39999389648437</ele>
        <time>2014-05-17T09:34:06Z</time>
      </trkpt>
      <trkpt lat="46.256956486031413" lon="6.263297349214554">
        <ele>429.60000610351562</ele>
        <time>2014-05-17T09:34:07Z</time>
      </trkpt>
      <trkpt lat="46.256795972585678" lon="6.26317354850471">
        <ele>430</ele>
        <time>2014-05-17T09:34:11Z</time>
      </trkpt>
      <trkpt lat="46.256544599309564" lon="6.262982608750463">
        <ele>430.20001220703125</ele>
        <time>2014-05-17T09:34:17Z</time>
      </trkpt>
      <trkpt lat="46.256412332877517" lon="6.262881020084024">
        <ele>430.39999389648437</ele>
        <time>2014-05-17T09:34:20Z</time>
      </trkpt>
      <trkpt lat="46.256238743662834" lon="6.262764846906066">
        <ele>431</ele>
        <time>2014-05-17T09:34:24Z</time>
      </trkpt>
      <trkpt lat="46.256147297099233" lon="6.262706005945802">
        <ele>431.39999389648437</ele>
        <time>2014-05-17T09:34:26Z</time>
      </trkpt>
      <trkpt lat="46.256097257137299" lon="6.262677507475019">
        <ele>431.39999389648437</ele>
        <time>2014-05-17T09:34:27Z</time>
      </trkpt>
      <trkpt lat="46.255897348746657" lon="6.26254859380424">
        <ele>431.39999389648437</ele>
        <time>2014-05-17T09:34:31Z</time>
      </trkpt>
      <trkpt lat="46.255746390670538" lon="6.262430241331458">
        <ele>431.39999389648437</ele>
        <time>2014-05-17T09:34:34Z</time>
      </trkpt>
      <trkpt lat="46.255698446184397" lon="6.262387242168188">
        <ele>431.39999389648437</ele>
        <time>2014-05-17T09:34:35Z</time>
      </trkpt>
      <trkpt lat="46.255496609956026" lon="6.262218514457345">
        <ele>431.60000610351562</ele>
        <time>2014-05-17T09:34:39Z</time>
      </trkpt>
      <trkpt lat="46.255184635519981" lon="6.261962363496423">
        <ele>431.79998779296875</ele>
        <time>2014-05-17T09:34:45Z</time>
      </trkpt>
      <trkpt lat="46.254843408241868" lon="6.261721383780241">
        <ele>432.20001220703125</ele>
        <time>2014-05-17T09:34:51Z</time>
      </trkpt>
      <trkpt lat="46.2547174282372" lon="6.261670924723148">
        <ele>432.39999389648437</ele>
        <time>2014-05-17T09:34:53Z</time>
      </trkpt>
      <trkpt lat="46.254487009719014" lon="6.261584758758545">
        <ele>432.20001220703125</ele>
        <time>2014-05-17T09:34:57Z</time>
      </trkpt>
      <trkpt lat="46.25438223592937" lon="6.261543771252036">
        <ele>432.20001220703125</ele>
        <time>2014-05-17T09:34:59Z</time>
      </trkpt>
      <trkpt lat="46.254221303388476" lon="6.261459616944194">
        <ele>433</ele>
        <time>2014-05-17T09:35:02Z</time>
      </trkpt>
      <trkpt lat="46.253890888765454" lon="6.261306228116155">
        <ele>433.60000610351562</ele>
        <time>2014-05-17T09:35:08Z</time>
      </trkpt>
      <trkpt lat="46.253789132460952" lon="6.261260714381933">
        <ele>434.20001220703125</ele>
        <time>2014-05-17T09:35:10Z</time>
      </trkpt>
      <trkpt lat="46.253741439431906" lon="6.26123707741499">
        <ele>434.39999389648437</ele>
        <time>2014-05-17T09:35:11Z</time>
      </trkpt>
      <trkpt lat="46.253692489117384" lon="6.261215787380934">
        <ele>434.60000610351562</ele>
        <time>2014-05-17T09:35:12Z</time>
      </trkpt>
      <trkpt lat="46.253410773351789" lon="6.26108268275857">
        <ele>435.60000610351562</ele>
        <time>2014-05-17T09:35:18Z</time>
      </trkpt>
      <trkpt lat="46.253363247960806" lon="6.261061728000641">
        <ele>435.79998779296875</ele>
        <time>2014-05-17T09:35:19Z</time>
      </trkpt>
      <trkpt lat="46.253123860806227" lon="6.260963073000312">
        <ele>437</ele>
        <time>2014-05-17T09:35:24Z</time>
      </trkpt>
      <trkpt lat="46.253075748682022" lon="6.260944297537208">
        <ele>436.79998779296875</ele>
        <time>2014-05-17T09:35:25Z</time>
      </trkpt>
      <trkpt lat="46.25288556329906" lon="6.260881768539548">
        <ele>436.79998779296875</ele>
        <time>2014-05-17T09:35:29Z</time>
      </trkpt>
      <trkpt lat="46.252788668498397" lon="6.26085301861167">
        <ele>436.60000610351562</ele>
        <time>2014-05-17T09:35:31Z</time>
      </trkpt>
      <trkpt lat="46.252691773697734" lon="6.260811360552907">
        <ele>437.20001220703125</ele>
        <time>2014-05-17T09:35:33Z</time>
      </trkpt>
      <trkpt lat="46.252374351024628" lon="6.260597873479128">
        <ele>437</ele>
        <time>2014-05-17T09:35:40Z</time>
      </trkpt>
      <trkpt lat="46.252137226983905" lon="6.260398048907518">
        <ele>437.60000610351562</ele>
        <time>2014-05-17T09:35:46Z</time>
      </trkpt>
      <trkpt lat="46.251891972497106" lon="6.260179448872805">
        <ele>437.60000610351562</ele>
        <time>2014-05-17T09:35:52Z</time>
      </trkpt>
      <trkpt lat="46.251850984990597" lon="6.26014307141304">
        <ele>437.79998779296875</ele>
        <time>2014-05-17T09:35:53Z</time>
      </trkpt>
      <trkpt lat="46.251711761578918" lon="6.260088169947267">
        <ele>437.79998779296875</ele>
        <time>2014-05-17T09:35:56Z</time>
      </trkpt>
      <trkpt lat="46.251616543158889" lon="6.260081715881825">
        <ele>437.79998779296875</ele>
        <time>2014-05-17T09:35:58Z</time>
      </trkpt>
      <trkpt lat="46.251570610329509" lon="6.260069981217384">
        <ele>437.79998779296875</ele>
        <time>2014-05-17T09:35:59Z</time>
      </trkpt>
      <trkpt lat="46.25152375549078" lon="6.260051121935248">
        <ele>438</ele>
        <time>2014-05-17T09:36:00Z</time>
      </trkpt>
      <trkpt lat="46.251474134624004" lon="6.260029580444098">
        <ele>438.20001220703125</ele>
        <time>2014-05-17T09:36:01Z</time>
      </trkpt>
      <trkpt lat="46.251425268128514" lon="6.259997226297855">
        <ele>438.39999389648437</ele>
        <time>2014-05-17T09:36:02Z</time>
      </trkpt>
      <trkpt lat="46.251215888187289" lon="6.259843166917563">
        <ele>437.79998779296875</ele>
        <time>2014-05-17T09:36:06Z</time>
      </trkpt>
      <trkpt lat="46.250974573194981" lon="6.259660944342613">
        <ele>436.79998779296875</ele>
        <time>2014-05-17T09:36:10Z</time>
      </trkpt>
      <trkpt lat="46.250836607068777" lon="6.259558517485857">
        <ele>436</ele>
        <time>2014-05-17T09:36:12Z</time>
      </trkpt>
      <trkpt lat="46.250765277072787" lon="6.259506968781352">
        <ele>435.60000610351562</ele>
        <time>2014-05-17T09:36:13Z</time>
      </trkpt>
      <trkpt lat="46.250321706756949" lon="6.259181080386043">
        <ele>435.60000610351562</ele>
        <time>2014-05-17T09:36:19Z</time>
      </trkpt>
      <trkpt lat="46.249788701534271" lon="6.258808253332973">
        <ele>435.79998779296875</ele>
        <time>2014-05-17T09:36:26Z</time>
      </trkpt>
      <trkpt lat="46.249712677672505" lon="6.258761985227466">
        <ele>435.39999389648437</ele>
        <time>2014-05-17T09:36:27Z</time>
      </trkpt>
      <trkpt lat="46.249150754883885" lon="6.258418327197433">
        <ele>437.60000610351562</ele>
        <time>2014-05-17T09:36:32Z</time>
      </trkpt>
      <trkpt lat="46.249087555333972" lon="6.258385721594095">
        <ele>438</ele>
        <time>2014-05-17T09:36:36Z</time>
      </trkpt>
      <trkpt lat="46.248852862045169" lon="6.258242139592767">
        <ele>439</ele>
        <time>2014-05-17T09:36:40Z</time>
      </trkpt>
      <trkpt lat="46.248684637248516" lon="6.258142394945025">
        <ele>439.39999389648437</ele>
        <time>2014-05-17T09:36:43Z</time>
      </trkpt>
      <trkpt lat="46.248575672507286" lon="6.258084727451205">
        <ele>440.20001220703125</ele>
        <time>2014-05-17T09:36:45Z</time>
      </trkpt>
      <trkpt lat="46.248302171006799" lon="6.257936451584101">
        <ele>441</ele>
        <time>2014-05-17T09:36:50Z</time>
      </trkpt>
      <trkpt lat="46.248247437179089" lon="6.257904516533017">
        <ele>441.39999389648438</ele>
        <time>2014-05-17T09:36:51Z</time>
      </trkpt>
      <trkpt lat="46.247849632054567" lon="6.257666889578104">
        <ele>442.60000610351562</ele>
        <time>2014-05-17T09:36:58Z</time>
      </trkpt>
      <trkpt lat="46.247500358149409" lon="6.257478967308998">
        <ele>442.60000610351562</ele>
        <time>2014-05-17T09:37:05Z</time>
      </trkpt>
      <trkpt lat="46.247460292652249" lon="6.257439740002155">
        <ele>442.39999389648437</ele>
        <time>2014-05-17T09:37:08Z</time>
      </trkpt>
      <trkpt lat="46.247449899092317" lon="6.257435632869601">
        <ele>442.39999389648437</ele>
        <time>2014-05-17T09:37:12Z</time>
      </trkpt>
      <trkpt lat="46.247434308752418" lon="6.257433369755745">
        <ele>442.39999389648437</ele>
        <time>2014-05-17T09:37:13Z</time>
      </trkpt>
      <trkpt lat="46.247382676228881" lon="6.257516350597143">
        <ele>443.20001220703125</ele>
        <time>2014-05-17T09:37:16Z</time>
      </trkpt>
      <trkpt lat="46.247367085888982" lon="6.257565803825855">
        <ele>443.20001220703125</ele>
        <time>2014-05-17T09:37:17Z</time>
      </trkpt>
      <trkpt lat="46.247320398688316" lon="6.257736291736364">
        <ele>441</ele>
        <time>2014-05-17T09:37:20Z</time>
      </trkpt>
      <trkpt lat="46.24730346724391" lon="6.257797479629517">
        <ele>439.60000610351562</ele>
        <time>2014-05-17T09:37:21Z</time>
      </trkpt>
      <trkpt lat="46.247286703437567" lon="6.257862104102969">
        <ele>439</ele>
        <time>2014-05-17T09:37:22Z</time>
      </trkpt>
      <trkpt lat="46.247269436717033" lon="6.257928488776088">
        <ele>438.39999389648437</ele>
        <time>2014-05-17T09:37:23Z</time>
      </trkpt>
      <trkpt lat="46.247199783101678" lon="6.258202325552702">
        <ele>439.60000610351562</ele>
        <time>2014-05-17T09:37:27Z</time>
      </trkpt>
      <trkpt lat="46.247161561623216" lon="6.258356301113963">
        <ele>439.60000610351562</ele>
        <time>2014-05-17T09:37:29Z</time>
      </trkpt>
      <trkpt lat="46.247000712901354" lon="6.259016459807754">
        <ele>439.39999389648437</ele>
        <time>2014-05-17T09:37:37Z</time>
      </trkpt>
      <trkpt lat="46.246860064566135" lon="6.2595943082124">
        <ele>437.79998779296875</ele>
        <time>2014-05-17T09:37:43Z</time>
      </trkpt>
      <trkpt lat="46.246717656031251" lon="6.260206857696176">
        <ele>439</ele>
        <time>2014-05-17T09:37:49Z</time>
      </trkpt>
      <trkpt lat="46.246669627726078" lon="6.260411459952593">
        <ele>438.79998779296875</ele>
        <time>2014-05-17T09:37:51Z</time>
      </trkpt>
      <trkpt lat="46.246472485363483" lon="6.261235317215323">
        <ele>438.39999389648437</ele>
        <time>2014-05-17T09:37:59Z</time>
      </trkpt>
      <trkpt lat="46.246404591947794" lon="6.261522648856044">
        <ele>438.39999389648437</ele>
        <time>2014-05-17T09:38:02Z</time>
      </trkpt>
      <trkpt lat="46.246222201734781" lon="6.262291939929128">
        <ele>437.79998779296875</ele>
        <time>2014-05-17T09:38:10Z</time>
      </trkpt>
      <trkpt lat="46.246200744062662" lon="6.262384643778205">
        <ele>438</ele>
        <time>2014-05-17T09:38:11Z</time>
      </trkpt>
      <trkpt lat="46.246024640277028" lon="6.263116048648953">
        <ele>437.79998779296875</ele>
        <time>2014-05-17T09:38:19Z</time>
      </trkpt>
      <trkpt lat="46.24582682736218" lon="6.263928003609181">
        <ele>437.60000610351562</ele>
        <time>2014-05-17T09:38:28Z</time>
      </trkpt>
      <trkpt lat="46.245656423270702" lon="6.264672735705972">
        <ele>437</ele>
        <time>2014-05-17T09:38:36Z</time>
      </trkpt>
      <trkpt lat="46.245633875951171" lon="6.264760829508305">
        <ele>436.60000610351562</ele>
        <time>2014-05-17T09:38:37Z</time>
      </trkpt>
      <trkpt lat="46.245492557063699" lon="6.265367595478892">
        <ele>436.79998779296875</ele>
        <time>2014-05-17T09:38:44Z</time>
      </trkpt>
      <trkpt lat="46.24547109939158" lon="6.265446888282895">
        <ele>436.79998779296875</ele>
        <time>2014-05-17T09:38:45Z</time>
      </trkpt>
      <trkpt lat="46.245384346693754" lon="6.265773363411427">
        <ele>437.39999389648437</ele>
        <time>2014-05-17T09:38:49Z</time>
      </trkpt>
      <trkpt lat="46.245293319225311" lon="6.266106124967337">
        <ele>437.79998779296875</ele>
        <time>2014-05-17T09:38:53Z</time>
      </trkpt>
      <trkpt lat="46.245183097198606" lon="6.266406532377005">
        <ele>437.79998779296875</ele>
        <time>2014-05-17T09:38:57Z</time>
      </trkpt>
      <trkpt lat="46.244925353676081" lon="6.266994774341583">
        <ele>438.60000610351562</ele>
        <time>2014-05-17T09:39:05Z</time>
      </trkpt>
      <trkpt lat="46.244890987873077" lon="6.267063170671463">
        <ele>438.79998779296875</ele>
        <time>2014-05-17T09:39:06Z</time>
      </trkpt>
      <trkpt lat="46.244675824418664" lon="6.26748763024807">
        <ele>439</ele>
        <time>2014-05-17T09:39:12Z</time>
      </trkpt>
      <trkpt lat="46.244395030662417" lon="6.268054079264402">
        <ele>439.60000610351562</ele>
        <time>2014-05-17T09:39:20Z</time>
      </trkpt>
      <trkpt lat="46.244326299056411" lon="6.268194727599621">
        <ele>439.79998779296875</ele>
        <time>2014-05-17T09:39:22Z</time>
      </trkpt>
      <trkpt lat="46.24413619749248" lon="6.268488764762878">
        <ele>440.39999389648437</ele>
        <time>2014-05-17T09:39:27Z</time>
      </trkpt>
      <trkpt lat="46.243990520015359" lon="6.268714908510447">
        <ele>441.20001220703125</ele>
        <time>2014-05-17T09:39:31Z</time>
      </trkpt>
      <trkpt lat="46.243950622156262" lon="6.268766457214952">
        <ele>441.60000610351562</ele>
        <time>2014-05-17T09:39:32Z</time>
      </trkpt>
      <trkpt lat="46.243818271905184" lon="6.268910374492407">
        <ele>441.20001220703125</ele>
        <time>2014-05-17T09:39:35Z</time>
      </trkpt>
      <trkpt lat="46.243683071807027" lon="6.269044652581215">
        <ele>442.60000610351562</ele>
        <time>2014-05-17T09:39:38Z</time>
      </trkpt>
      <trkpt lat="46.243357853963971" lon="6.269370876252651">
        <ele>442.79998779296875</ele>
        <time>2014-05-17T09:39:45Z</time>
      </trkpt>
      <trkpt lat="46.243264731019735" lon="6.269469615072012">
        <ele>443.79998779296875</ele>
        <time>2014-05-17T09:39:47Z</time>
      </trkpt>
      <trkpt lat="46.242974549531937" lon="6.269730208441615">
        <ele>444.39999389648438</ele>
        <time>2014-05-17T09:39:53Z</time>
      </trkpt>
      <trkpt lat="46.242882935330272" lon="6.269815033301711">
        <ele>445</ele>
        <time>2014-05-17T09:39:55Z</time>
      </trkpt>
      <trkpt lat="46.242624605074525" lon="6.270042518153787">
        <ele>445.60000610351562</ele>
        <time>2014-05-17T09:40:01Z</time>
      </trkpt>
      <trkpt lat="46.242587137967348" lon="6.270078057423234">
        <ele>446.20001220703125</ele>
        <time>2014-05-17T09:40:02Z</time>
      </trkpt>
      <trkpt lat="46.242396365851164" lon="6.27026254311204">
        <ele>447.20001220703125</ele>
        <time>2014-05-17T09:40:07Z</time>
      </trkpt>
      <trkpt lat="46.242318330332637" lon="6.270329682156444">
        <ele>447.60000610351562</ele>
        <time>2014-05-17T09:40:09Z</time>
      </trkpt>
      <trkpt lat="46.242043823003769" lon="6.270620618015528">
        <ele>448</ele>
        <time>2014-05-17T09:40:17Z</time>
      </trkpt>
      <trkpt lat="46.242006858810782" lon="6.270658588036895">
        <ele>448.20001220703125</ele>
        <time>2014-05-17T09:40:18Z</time>
      </trkpt>
      <trkpt lat="46.241972325369716" lon="6.270703095942736">
        <ele>448.60000610351562</ele>
        <time>2014-05-17T09:40:19Z</time>
      </trkpt>
      <trkpt lat="46.24187626875937" lon="6.270827986299992">
        <ele>449.20001220703125</ele>
        <time>2014-05-17T09:40:22Z</time>
      </trkpt>
      <trkpt lat="46.241842908784747" lon="6.270868554711342">
        <ele>449.20001220703125</ele>
        <time>2014-05-17T09:40:23Z</time>
      </trkpt>
      <trkpt lat="46.241714581847191" lon="6.271048514172435">
        <ele>449.39999389648437</ele>
        <time>2014-05-17T09:40:28Z</time>
      </trkpt>
      <trkpt lat="46.24161777086556" lon="6.271187989041209">
        <ele>450.39999389648437</ele>
        <time>2014-05-17T09:40:31Z</time>
      </trkpt>
      <trkpt lat="46.24150101095438" lon="6.271384209394455">
        <ele>450.20001220703125</ele>
        <time>2014-05-17T09:40:35Z</time>
      </trkpt>
      <trkpt lat="46.241440996527672" lon="6.271483115851879">
        <ele>451</ele>
        <time>2014-05-17T09:40:37Z</time>
      </trkpt>
      <trkpt lat="46.241321470588446" lon="6.271617645397782">
        <ele>451.20001220703125</ele>
        <time>2014-05-17T09:40:40Z</time>
      </trkpt>
      <trkpt lat="46.241285093128681" lon="6.271676905453205">
        <ele>451</ele>
        <time>2014-05-17T09:40:41Z</time>
      </trkpt>
      <trkpt lat="46.24114042147994" lon="6.271911012008786">
        <ele>450.39999389648437</ele>
        <time>2014-05-17T09:40:45Z</time>
      </trkpt>
      <trkpt lat="46.241048136726022" lon="6.272000782191753">
        <ele>450.39999389648437</ele>
        <time>2014-05-17T09:40:47Z</time>
      </trkpt>
      <trkpt lat="46.24090095050633" lon="6.272126343101263">
        <ele>450.39999389648437</ele>
        <time>2014-05-17T09:40:50Z</time>
      </trkpt>
      <trkpt lat="46.240748316049576" lon="6.272247461602092">
        <ele>450</ele>
        <time>2014-05-17T09:40:53Z</time>
      </trkpt>
      <trkpt lat="46.240487303584814" lon="6.272442508488894">
        <ele>450.20001220703125</ele>
        <time>2014-05-17T09:40:59Z</time>
      </trkpt>
      <trkpt lat="46.240300303325057" lon="6.272371346130967">
        <ele>451.20001220703125</ele>
        <time>2014-05-17T09:41:03Z</time>
      </trkpt>
      <trkpt lat="46.240256382152438" lon="6.272329604253173">
        <ele>451.39999389648437</ele>
        <time>2014-05-17T09:41:04Z</time>
      </trkpt>
      <trkpt lat="46.240074578672647" lon="6.272156769409776">
        <ele>450.79998779296875</ele>
        <time>2014-05-17T09:41:08Z</time>
      </trkpt>
      <trkpt lat="46.239968379959464" lon="6.272097509354353">
        <ele>451.60000610351562</ele>
        <time>2014-05-17T09:41:10Z</time>
      </trkpt>
      <trkpt lat="46.239810045808554" lon="6.272032801061869">
        <ele>452.20001220703125</ele>
        <time>2014-05-17T09:41:13Z</time>
      </trkpt>
      <trkpt lat="46.239695884287357" lon="6.272014863789082">
        <ele>452</ele>
        <time>2014-05-17T09:41:15Z</time>
      </trkpt>
      <trkpt lat="46.239530509337783" lon="6.272010840475559">
        <ele>451.39999389648437</ele>
        <time>2014-05-17T09:41:18Z</time>
      </trkpt>
      <trkpt lat="46.239422969520092" lon="6.271997932344675">
        <ele>453</ele>
        <time>2014-05-17T09:41:20Z</time>
      </trkpt>
      <trkpt lat="46.239319033920765" lon="6.27198058180511">
        <ele>452.20001220703125</ele>
        <time>2014-05-17T09:41:22Z</time>
      </trkpt>
      <trkpt lat="46.239172099158168" lon="6.271917633712292">
        <ele>452.79998779296875</ele>
        <time>2014-05-17T09:41:25Z</time>
      </trkpt>
      <trkpt lat="46.239081574603915" lon="6.271856781095266">
        <ele>453</ele>
        <time>2014-05-17T09:41:27Z</time>
      </trkpt>
      <trkpt lat="46.238888036459684" lon="6.271715713664889">
        <ele>454</ele>
        <time>2014-05-17T09:41:31Z</time>
      </trkpt>
      <trkpt lat="46.238556867465377" lon="6.271495604887605">
        <ele>455.20001220703125</ele>
        <time>2014-05-17T09:41:38Z</time>
      </trkpt>
      <trkpt lat="46.238265763968229" lon="6.271330649033189">
        <ele>456.20001220703125</ele>
        <time>2014-05-17T09:41:44Z</time>
      </trkpt>
      <trkpt lat="46.23807817697525" lon="6.271225791424513">
        <ele>457.20001220703125</ele>
        <time>2014-05-17T09:41:48Z</time>
      </trkpt>
      <trkpt lat="46.237946329638362" lon="6.271163765341044">
        <ele>458.20001220703125</ele>
        <time>2014-05-17T09:41:51Z</time>
      </trkpt>
      <trkpt lat="46.237902324646711" lon="6.27114549279213">
        <ele>458.60000610351562</ele>
        <time>2014-05-17T09:41:52Z</time>
      </trkpt>
      <trkpt lat="46.2378631811589" lon="6.27111716195941">
        <ele>459</ele>
        <time>2014-05-17T09:41:53Z</time>
      </trkpt>
      <trkpt lat="46.237789755687118" lon="6.271047927439213">
        <ele>459.39999389648437</ele>
        <time>2014-05-17T09:41:55Z</time>
      </trkpt>
      <trkpt lat="46.237751450389624" lon="6.271018339321017">
        <ele>459.20001220703125</ele>
        <time>2014-05-17T09:41:56Z</time>
      </trkpt>
      <trkpt lat="46.23754165135324" lon="6.270823292434216">
        <ele>458.60000610351562</ele>
        <time>2014-05-17T09:42:02Z</time>
      </trkpt>
      <trkpt lat="46.237463196739554" lon="6.270673591643572">
        <ele>458.20001220703125</ele>
        <time>2014-05-17T09:42:05Z</time>
      </trkpt>
      <trkpt lat="46.237409552559257" lon="6.270549036562443">
        <ele>458</ele>
        <time>2014-05-17T09:42:07Z</time>
      </trkpt>
      <trkpt lat="46.237345766276121" lon="6.270419368520379">
        <ele>457.60000610351562</ele>
        <time>2014-05-17T09:42:09Z</time>
      </trkpt>
      <trkpt lat="46.237200004979968" lon="6.27011644653976">
        <ele>457.60000610351562</ele>
        <time>2014-05-17T09:42:13Z</time>
      </trkpt>
      <trkpt lat="46.23703496530652" lon="6.269766418263316">
        <ele>456.79998779296875</ele>
        <time>2014-05-17T09:42:17Z</time>
      </trkpt>
      <trkpt lat="46.236991630867124" lon="6.269679581746459">
        <ele>456</ele>
        <time>2014-05-17T09:42:18Z</time>
      </trkpt>
      <trkpt lat="46.236947039142251" lon="6.269592912867665">
        <ele>455</ele>
        <time>2014-05-17T09:42:19Z</time>
      </trkpt>
      <trkpt lat="46.236861627548933" lon="6.269416222348809">
        <ele>453.79998779296875</ele>
        <time>2014-05-17T09:42:21Z</time>
      </trkpt>
      <trkpt lat="46.236740089952946" lon="6.269137440249324">
        <ele>454.60000610351562</ele>
        <time>2014-05-17T09:42:24Z</time>
      </trkpt>
      <trkpt lat="46.236700359731913" lon="6.269033756107092">
        <ele>454</ele>
        <time>2014-05-17T09:42:25Z</time>
      </trkpt>
      <trkpt lat="46.236573709174991" lon="6.268716249614954">
        <ele>452.39999389648437</ele>
        <time>2014-05-17T09:42:28Z</time>
      </trkpt>
      <trkpt lat="46.236361982300878" lon="6.268186178058386">
        <ele>451.60000610351562</ele>
        <time>2014-05-17T09:42:33Z</time>
      </trkpt>
      <trkpt lat="46.236312780529261" lon="6.268083499744535">
        <ele>451.20001220703125</ele>
        <time>2014-05-17T09:42:34Z</time>
      </trkpt>
      <trkpt lat="46.236029891297221" lon="6.267601372674108">
        <ele>452</ele>
        <time>2014-05-17T09:42:39Z</time>
      </trkpt>
      <trkpt lat="46.235970379784703" lon="6.267511267215014">
        <ele>452.39999389648437</ele>
        <time>2014-05-17T09:42:40Z</time>
      </trkpt>
      <trkpt lat="46.235675755888224" lon="6.267090747132897">
        <ele>452.20001220703125</ele>
        <time>2014-05-17T09:42:45Z</time>
      </trkpt>
      <trkpt lat="46.235533766448498" lon="6.266811713576317">
        <ele>452.20001220703125</ele>
        <time>2014-05-17T09:42:48Z</time>
      </trkpt>
      <trkpt lat="46.235460173338652" lon="6.266625467687845">
        <ele>452.20001220703125</ele>
        <time>2014-05-17T09:42:50Z</time>
      </trkpt>
      <trkpt lat="46.235315166413784" lon="6.266198409721255">
        <ele>452.20001220703125</ele>
        <time>2014-05-17T09:42:55Z</time>
      </trkpt>
      <trkpt lat="46.235287841409445" lon="6.266120709478855">
        <ele>452.60000610351562</ele>
        <time>2014-05-17T09:42:56Z</time>
      </trkpt>
      <trkpt lat="46.235144510865211" lon="6.265749139711261">
        <ele>452.79998779296875</ele>
        <time>2014-05-17T09:43:01Z</time>
      </trkpt>
      <trkpt lat="46.235059350728989" lon="6.265617376193404">
        <ele>452.20001220703125</ele>
        <time>2014-05-17T09:43:03Z</time>
      </trkpt>
      <trkpt lat="46.234950972720981" lon="6.265506651252508">
        <ele>451.39999389648437</ele>
        <time>2014-05-17T09:43:05Z</time>
      </trkpt>
      <trkpt lat="46.234897496178746" lon="6.26545300707221">
        <ele>451</ele>
        <time>2014-05-17T09:43:06Z</time>
      </trkpt>
      <trkpt lat="46.234763721004128" lon="6.265301629900932">
        <ele>450.60000610351562</ele>
        <time>2014-05-17T09:43:09Z</time>
      </trkpt>
      <trkpt lat="46.234713261947036" lon="6.265276400372386">
        <ele>450.60000610351562</ele>
        <time>2014-05-17T09:43:10Z</time>
      </trkpt>
      <trkpt lat="46.234493069350719" lon="6.265231892466545">
        <ele>450.20001220703125</ele>
        <time>2014-05-17T09:43:14Z</time>
      </trkpt>
      <trkpt lat="46.234376979991794" lon="6.265163412317634">
        <ele>449.79998779296875</ele>
        <time>2014-05-17T09:43:16Z</time>
      </trkpt>
      <trkpt lat="46.234250413253903" lon="6.265077749267221">
        <ele>448.79998779296875</ele>
        <time>2014-05-17T09:43:18Z</time>
      </trkpt>
      <trkpt lat="46.234182687476277" lon="6.265032151713967">
        <ele>448.20001220703125</ele>
        <time>2014-05-17T09:43:19Z</time>
      </trkpt>
      <trkpt lat="46.234046900644898" lon="6.264941627159715">
        <ele>447.60000610351562</ele>
        <time>2014-05-17T09:43:21Z</time>
      </trkpt>
      <trkpt lat="46.233690502122045" lon="6.264719422906637">
        <ele>447</ele>
        <time>2014-05-17T09:43:26Z</time>
      </trkpt>
      <trkpt lat="46.233625626191497" lon="6.264658235013485">
        <ele>447</ele>
        <time>2014-05-17T09:43:27Z</time>
      </trkpt>
      <trkpt lat="46.233463184908032" lon="6.264417171478272">
        <ele>447.39999389648438</ele>
        <time>2014-05-17T09:43:30Z</time>
      </trkpt>
      <trkpt lat="46.233407948166132" lon="6.264099078252912">
        <ele>447.60000610351562</ele>
        <time>2014-05-17T09:43:33Z</time>
      </trkpt>
      <trkpt lat="46.233397889882326" lon="6.263991454616189">
        <ele>447.60000610351562</ele>
        <time>2014-05-17T09:43:34Z</time>
      </trkpt>
      <trkpt lat="46.233340390026569" lon="6.263697585090995">
        <ele>448.39999389648437</ele>
        <time>2014-05-17T09:43:37Z</time>
      </trkpt>
      <trkpt lat="46.233308119699359" lon="6.263614939525724">
        <ele>448.60000610351562</ele>
        <time>2014-05-17T09:43:38Z</time>
      </trkpt>
      <trkpt lat="46.233173925429583" lon="6.263444786891341">
        <ele>450</ele>
        <time>2014-05-17T09:43:41Z</time>
      </trkpt>
      <trkpt lat="46.233024308457971" lon="6.263261223211885">
        <ele>451</ele>
        <time>2014-05-17T09:43:45Z</time>
      </trkpt>
      <trkpt lat="46.232949374243617" lon="6.263186624273658">
        <ele>451.39999389648437</ele>
        <time>2014-05-17T09:43:47Z</time>
      </trkpt>
      <trkpt lat="46.232708897441626" lon="6.262979758903384">
        <ele>450.60000610351562</ele>
        <time>2014-05-17T09:43:52Z</time>
      </trkpt>
      <trkpt lat="46.232602531090379" lon="6.262905327603221">
        <ele>450.20001220703125</ele>
        <time>2014-05-17T09:43:54Z</time>
      </trkpt>
      <trkpt lat="46.232490465044975" lon="6.262839110568166">
        <ele>449.79998779296875</ele>
        <time>2014-05-17T09:43:56Z</time>
      </trkpt>
      <trkpt lat="46.232439670711756" lon="6.262804409489036">
        <ele>449.60000610351562</ele>
        <time>2014-05-17T09:43:57Z</time>
      </trkpt>
      <trkpt lat="46.232172623276711" lon="6.262536775320768">
        <ele>449.39999389648437</ele>
        <time>2014-05-17T09:44:02Z</time>
      </trkpt>
      <trkpt lat="46.232065502554178" lon="6.262372490018606">
        <ele>448.39999389648437</ele>
        <time>2014-05-17T09:44:04Z</time>
      </trkpt>
      <trkpt lat="46.231959890574217" lon="6.262173084542155">
        <ele>447.79998779296875</ele>
        <time>2014-05-17T09:44:06Z</time>
      </trkpt>
      <trkpt lat="46.231908341869712" lon="6.262063449248672">
        <ele>447.39999389648438</ele>
        <time>2014-05-17T09:44:07Z</time>
      </trkpt>
      <trkpt lat="46.231819996610284" lon="6.26182934269309">
        <ele>446</ele>
        <time>2014-05-17T09:44:09Z</time>
      </trkpt>
      <trkpt lat="46.231740117073059" lon="6.261587105691433">
        <ele>445</ele>
        <time>2014-05-17T09:44:11Z</time>
      </trkpt>
      <trkpt lat="46.231702817603946" lon="6.261469507589936">
        <ele>444.79998779296875</ele>
        <time>2014-05-17T09:44:12Z</time>
      </trkpt>
      <trkpt lat="46.231519673019648" lon="6.261028870940208">
        <ele>445.20001220703125</ele>
        <time>2014-05-17T09:44:16Z</time>
      </trkpt>
      <trkpt lat="46.23145722784102" lon="6.260941782966256">
        <ele>445.20001220703125</ele>
        <time>2014-05-17T09:44:17Z</time>
      </trkpt>
      <trkpt lat="46.231228234246373" lon="6.260769031941891">
        <ele>445.20001220703125</ele>
        <time>2014-05-17T09:44:20Z</time>
      </trkpt>
      <trkpt lat="46.231149192899466" lon="6.260726619511843">
        <ele>445.79998779296875</ele>
        <time>2014-05-17T09:44:21Z</time>
      </trkpt>
      <trkpt lat="46.231071492657065" lon="6.260687224566937">
        <ele>446.20001220703125</ele>
        <time>2014-05-17T09:44:22Z</time>
      </trkpt>
      <trkpt lat="46.230925060808659" lon="6.26062385737896">
        <ele>447.39999389648438</ele>
        <time>2014-05-17T09:44:24Z</time>
      </trkpt>
      <trkpt lat="46.230785753577948" lon="6.260572224855423">
        <ele>448.39999389648437</ele>
        <time>2014-05-17T09:44:26Z</time>
      </trkpt>
      <trkpt lat="46.230719536542892" lon="6.260545151308179">
        <ele>448.60000610351562</ele>
        <time>2014-05-17T09:44:27Z</time>
      </trkpt>
      <trkpt lat="46.230472857132554" lon="6.260458314791322">
        <ele>449.79998779296875</ele>
        <time>2014-05-17T09:44:31Z</time>
      </trkpt>
      <trkpt lat="46.230415860190988" lon="6.260435180738568">
        <ele>450.39999389648437</ele>
        <time>2014-05-17T09:44:32Z</time>
      </trkpt>
      <trkpt lat="46.230307566002011" lon="6.260394360870123">
        <ele>451.20001220703125</ele>
        <time>2014-05-17T09:44:34Z</time>
      </trkpt>
      <trkpt lat="46.230204552412033" lon="6.260356893762946">
        <ele>452.39999389648437</ele>
        <time>2014-05-17T09:44:36Z</time>
      </trkpt>
      <trkpt lat="46.230109166353941" lon="6.260330239310861">
        <ele>453.20001220703125</ele>
        <time>2014-05-17T09:44:38Z</time>
      </trkpt>
      <trkpt lat="46.230068430304527" lon="6.260307272896171">
        <ele>453.79998779296875</ele>
        <time>2014-05-17T09:44:39Z</time>
      </trkpt>
      <trkpt lat="46.229989137500525" lon="6.260253628715873">
        <ele>454.39999389648437</ele>
        <time>2014-05-17T09:44:41Z</time>
      </trkpt>
      <trkpt lat="46.229931470006704" lon="6.260162182152271">
        <ele>454.60000610351562</ele>
        <time>2014-05-17T09:44:43Z</time>
      </trkpt>
      <trkpt lat="46.229901546612382" lon="6.259965542703867">
        <ele>453.39999389648437</ele>
        <time>2014-05-17T09:44:46Z</time>
      </trkpt>
      <trkpt lat="46.229894757270813" lon="6.259890692308545">
        <ele>453.20001220703125</ele>
        <time>2014-05-17T09:44:47Z</time>
      </trkpt>
      <trkpt lat="46.229883944615722" lon="6.259724060073495">
        <ele>452.39999389648437</ele>
        <time>2014-05-17T09:44:49Z</time>
      </trkpt>
      <trkpt lat="46.229886543005705" lon="6.259545190259814">
        <ele>451.79998779296875</ele>
        <time>2014-05-17T09:44:51Z</time>
      </trkpt>
      <trkpt lat="46.229954687878489" lon="6.259096087887883">
        <ele>451.79998779296875</ele>
        <time>2014-05-17T09:44:56Z</time>
      </trkpt>
      <trkpt lat="46.229981007054448" lon="6.259013777598739">
        <ele>451.20001220703125</ele>
        <time>2014-05-17T09:44:57Z</time>
      </trkpt>
      <trkpt lat="46.230122745037079" lon="6.258501391857863">
        <ele>451.60000610351562</ele>
        <time>2014-05-17T09:45:03Z</time>
      </trkpt>
      <trkpt lat="46.230137078091502" lon="6.258407095447183">
        <ele>451.79998779296875</ele>
        <time>2014-05-17T09:45:04Z</time>
      </trkpt>
      <trkpt lat="46.230175802484155" lon="6.258210120722652">
        <ele>451.39999389648437</ele>
        <time>2014-05-17T09:45:07Z</time>
      </trkpt>
      <trkpt lat="46.230153338983655" lon="6.258123787119985">
        <ele>451.20001220703125</ele>
        <time>2014-05-17T09:45:42Z</time>
      </trkpt>
      <trkpt lat="46.230019396170974" lon="6.25799604691565">
        <ele>450.39999389648437</ele>
        <time>2014-05-17T09:45:47Z</time>
      </trkpt>
      <trkpt lat="46.229889560490847" lon="6.257852297276259">
        <ele>450.39999389648437</ele>
        <time>2014-05-17T09:45:51Z</time>
      </trkpt>
      <trkpt lat="46.229844465851784" lon="6.257815081626177">
        <ele>450.20001220703125</ele>
        <time>2014-05-17T09:45:52Z</time>
      </trkpt>
      <trkpt lat="46.229689149186015" lon="6.257704105228186">
        <ele>448.79998779296875</ele>
        <time>2014-05-17T09:45:55Z</time>
      </trkpt>
      <trkpt lat="46.229569539427757" lon="6.257644677534699">
        <ele>447.60000610351562</ele>
        <time>2014-05-17T09:45:57Z</time>
      </trkpt>
      <trkpt lat="46.229265779256821" lon="6.257560104131699">
        <ele>446.39999389648437</ele>
        <time>2014-05-17T09:46:02Z</time>
      </trkpt>
      <trkpt lat="46.229202579706907" lon="6.257536970078945">
        <ele>446.39999389648437</ele>
        <time>2014-05-17T09:46:03Z</time>
      </trkpt>
      <trkpt lat="46.228855988010764" lon="6.257410822436214">
        <ele>445.79998779296875</ele>
        <time>2014-05-17T09:46:08Z</time>
      </trkpt>
      <trkpt lat="46.228783987462521" lon="6.257388945668936">
        <ele>445.20001220703125</ele>
        <time>2014-05-17T09:46:09Z</time>
      </trkpt>
      <trkpt lat="46.228643590584397" lon="6.257347539067268">
        <ele>443.20001220703125</ele>
        <time>2014-05-17T09:46:11Z</time>
      </trkpt>
      <trkpt lat="46.228505959734321" lon="6.257330188527703">
        <ele>442.79998779296875</ele>
        <time>2014-05-17T09:46:13Z</time>
      </trkpt>
      <trkpt lat="46.228433288633823" lon="6.257311329245567">
        <ele>443</ele>
        <time>2014-05-17T09:46:14Z</time>
      </trkpt>
      <trkpt lat="46.228223238140345" lon="6.257221223786473">
        <ele>443</ele>
        <time>2014-05-17T09:46:17Z</time>
      </trkpt>
      <trkpt lat="46.228064820170403" lon="6.257038833573461">
        <ele>443.20001220703125</ele>
        <time>2014-05-17T09:46:20Z</time>
      </trkpt>
      <trkpt lat="46.227719821035862" lon="6.256620576605201">
        <ele>443.60000610351562</ele>
        <time>2014-05-17T09:46:27Z</time>
      </trkpt>
      <trkpt lat="46.22753500007093" lon="6.256443550810218">
        <ele>444</ele>
        <time>2014-05-17T09:46:31Z</time>
      </trkpt>
      <trkpt lat="46.227508010342717" lon="6.256375825032592">
        <ele>444</ele>
        <time>2014-05-17T09:46:32Z</time>
      </trkpt>
      <trkpt lat="46.227532820776105" lon="6.256172312423587">
        <ele>443</ele>
        <time>2014-05-17T09:46:35Z</time>
      </trkpt>
      <trkpt lat="46.227579424157739" lon="6.256028646603227">
        <ele>442.39999389648437</ele>
        <time>2014-05-17T09:46:37Z</time>
      </trkpt>
      <trkpt lat="46.227604737505317" lon="6.255946001037955">
        <ele>442</ele>
        <time>2014-05-17T09:46:38Z</time>
      </trkpt>
      <trkpt lat="46.227660980075598" lon="6.255757575854659">
        <ele>441</ele>
        <time>2014-05-17T09:46:40Z</time>
      </trkpt>
      <trkpt lat="46.227686796337366" lon="6.255658585578203">
        <ele>440.60000610351562</ele>
        <time>2014-05-17T09:46:41Z</time>
      </trkpt>
      <trkpt lat="46.227795341983438" lon="6.255256840959191">
        <ele>439.20001220703125</ele>
        <time>2014-05-17T09:46:45Z</time>
      </trkpt>
      <trkpt lat="46.227848483249545" lon="6.255045952275395">
        <ele>438.60000610351562</ele>
        <time>2014-05-17T09:46:47Z</time>
      </trkpt>
      <trkpt lat="46.227901792153716" lon="6.254826346412301">
        <ele>438</ele>
        <time>2014-05-17T09:46:49Z</time>
      </trkpt>
      <trkpt lat="46.228025509044528" lon="6.25439677387476">
        <ele>436.79998779296875</ele>
        <time>2014-05-17T09:46:53Z</time>
      </trkpt>
      <trkpt lat="46.22805836610496" lon="6.254299711436033">
        <ele>436.79998779296875</ele>
        <time>2014-05-17T09:46:54Z</time>
      </trkpt>
      <trkpt lat="46.228099437430501" lon="6.254128385335207">
        <ele>437.20001220703125</ele>
        <time>2014-05-17T09:46:56Z</time>
      </trkpt>
      <trkpt lat="46.228097258135676" lon="6.254046494141221">
        <ele>436.79998779296875</ele>
        <time>2014-05-17T09:46:57Z</time>
      </trkpt>
      <trkpt lat="46.228028023615479" lon="6.253808699548245">
        <ele>437.20001220703125</ele>
        <time>2014-05-17T09:47:00Z</time>
      </trkpt>
      <trkpt lat="46.227866671979427" lon="6.253603175282478">
        <ele>436.79998779296875</ele>
        <time>2014-05-17T09:47:03Z</time>
      </trkpt>
      <trkpt lat="46.227750582620502" lon="6.253457413986325">
        <ele>435.79998779296875</ele>
        <time>2014-05-17T09:47:05Z</time>
      </trkpt>
      <trkpt lat="46.227504322305322" lon="6.253148289397359">
        <ele>435.39999389648437</ele>
        <time>2014-05-17T09:47:09Z</time>
      </trkpt>
      <trkpt lat="46.22738747857511" lon="6.252965144813061">
        <ele>434.39999389648437</ele>
        <time>2014-05-17T09:47:11Z</time>
      </trkpt>
      <trkpt lat="46.22733861207962" lon="6.252861293032765">
        <ele>433.79998779296875</ele>
        <time>2014-05-17T09:47:12Z</time>
      </trkpt>
      <trkpt lat="46.227293517440557" lon="6.252748304978013">
        <ele>433.39999389648437</ele>
        <time>2014-05-17T09:47:13Z</time>
      </trkpt>
      <trkpt lat="46.227185307070613" lon="6.252384530380368">
        <ele>431.79998779296875</ele>
        <time>2014-05-17T09:47:16Z</time>
      </trkpt>
      <trkpt lat="46.22715680859983" lon="6.25225905328989">
        <ele>431.39999389648437</ele>
        <time>2014-05-17T09:47:17Z</time>
      </trkpt>
      <trkpt lat="46.227132920175791" lon="6.252132151275873">
        <ele>430.60000610351562</ele>
        <time>2014-05-17T09:47:18Z</time>
      </trkpt>
      <trkpt lat="46.227047257125378" lon="6.251749349758029">
        <ele>431</ele>
        <time>2014-05-17T09:47:21Z</time>
      </trkpt>
      <trkpt lat="46.22700048610568" lon="6.251628398895264">
        <ele>431.20001220703125</ele>
        <time>2014-05-17T09:47:22Z</time>
      </trkpt>
      <trkpt lat="46.226722626015544" lon="6.25105113722384">
        <ele>431</ele>
        <time>2014-05-17T09:47:27Z</time>
      </trkpt>
      <trkpt lat="46.226468989625573" lon="6.250392654910684">
        <ele>429.20001220703125</ele>
        <time>2014-05-17T09:47:32Z</time>
      </trkpt>
      <trkpt lat="46.226350469514728" lon="6.250113621354103">
        <ele>427.79998779296875</ele>
        <time>2014-05-17T09:47:34Z</time>
      </trkpt>
      <trkpt lat="46.226225411519408" lon="6.249842550605536">
        <ele>426.60000610351562</ele>
        <time>2014-05-17T09:47:36Z</time>
      </trkpt>
      <trkpt lat="46.226165229454637" lon="6.24971623532474">
        <ele>426</ele>
        <time>2014-05-17T09:47:37Z</time>
      </trkpt>
      <trkpt lat="46.225978396832943" lon="6.249301666393876">
        <ele>425.60000610351562</ele>
        <time>2014-05-17T09:47:41Z</time>
      </trkpt>
      <trkpt lat="46.225951574742794" lon="6.249194210395217">
        <ele>425.60000610351562</ele>
        <time>2014-05-17T09:47:42Z</time>
      </trkpt>
      <trkpt lat="46.225936403498054" lon="6.249085161834955">
        <ele>425.60000610351562</ele>
        <time>2014-05-17T09:47:43Z</time>
      </trkpt>
      <trkpt lat="46.22594109736383" lon="6.248982567340136">
        <ele>425.60000610351562</ele>
        <time>2014-05-17T09:47:44Z</time>
      </trkpt>
      <trkpt lat="46.226056013256311" lon="6.248736307024956">
        <ele>424</ele>
        <time>2014-05-17T09:47:47Z</time>
      </trkpt>
      <trkpt lat="46.226167073473334" lon="6.248609572649002">
        <ele>423.20001220703125</ele>
        <time>2014-05-17T09:47:49Z</time>
      </trkpt>
      <trkpt lat="46.226314678788185" lon="6.248385524377227">
        <ele>423.20001220703125</ele>
        <time>2014-05-17T09:47:52Z</time>
      </trkpt>
      <trkpt lat="46.226410567760468" lon="6.248226016759872">
        <ele>422.60000610351562</ele>
        <time>2014-05-17T09:47:54Z</time>
      </trkpt>
      <trkpt lat="46.226573344320059" lon="6.247846568003297">
        <ele>421.79998779296875</ele>
        <time>2014-05-17T09:47:58Z</time>
      </trkpt>
      <trkpt lat="46.226612152531743" lon="6.247743051499128">
        <ele>421.60000610351562</ele>
        <time>2014-05-17T09:47:59Z</time>
      </trkpt>
      <trkpt lat="46.226725894957781" lon="6.247428897768259">
        <ele>420</ele>
        <time>2014-05-17T09:48:02Z</time>
      </trkpt>
      <trkpt lat="46.226845001801848" lon="6.247131172567606">
        <ele>419.60000610351562</ele>
        <time>2014-05-17T09:48:05Z</time>
      </trkpt>
      <trkpt lat="46.226927060633898" lon="6.246945513412356">
        <ele>420.20001220703125</ele>
        <time>2014-05-17T09:48:08Z</time>
      </trkpt>
      <trkpt lat="46.227062428370118" lon="6.246774606406689">
        <ele>419.79998779296875</ele>
        <time>2014-05-17T09:48:13Z</time>
      </trkpt>
      <trkpt lat="46.227094866335392" lon="6.2467360496521">
        <ele>419.20001220703125</ele>
        <time>2014-05-17T09:48:14Z</time>
      </trkpt>
      <trkpt lat="46.227123029530048" lon="6.246616523712874">
        <ele>419.79998779296875</ele>
        <time>2014-05-17T09:48:16Z</time>
      </trkpt>
      <trkpt lat="46.227049687877297" lon="6.246507139876485">
        <ele>421.39999389648437</ele>
        <time>2014-05-17T09:48:18Z</time>
      </trkpt>
      <trkpt lat="46.226874254643917" lon="6.246498255059123">
        <ele>421.60000610351562</ele>
        <time>2014-05-17T09:48:21Z</time>
      </trkpt>
      <trkpt lat="46.226616259664297" lon="6.24636179767549">
        <ele>421.39999389648437</ele>
        <time>2014-05-17T09:48:25Z</time>
      </trkpt>
      <trkpt lat="46.226245360448956" lon="6.246145712211728">
        <ele>420.79998779296875</ele>
        <time>2014-05-17T09:48:30Z</time>
      </trkpt>
      <trkpt lat="46.226073615252972" lon="6.24605099670589">
        <ele>420.20001220703125</ele>
        <time>2014-05-17T09:48:32Z</time>
      </trkpt>
      <trkpt lat="46.22571537271142" lon="6.245875647291541">
        <ele>420</ele>
        <time>2014-05-17T09:48:36Z</time>
      </trkpt>
      <trkpt lat="46.225163759663701" lon="6.245597200468183">
        <ele>419.20001220703125</ele>
        <time>2014-05-17T09:48:42Z</time>
      </trkpt>
      <trkpt lat="46.224890509620309" lon="6.245440375059843">
        <ele>419.20001220703125</ele>
        <time>2014-05-17T09:48:45Z</time>
      </trkpt>
      <trkpt lat="46.224623629823327" lon="6.245242143049836">
        <ele>418</ele>
        <time>2014-05-17T09:48:48Z</time>
      </trkpt>
      <trkpt lat="46.224351972341537" lon="6.245037876069546">
        <ele>418.39999389648437</ele>
        <time>2014-05-17T09:48:51Z</time>
      </trkpt>
      <trkpt lat="46.223778231069446" lon="6.244643172249198">
        <ele>418</ele>
        <time>2014-05-17T09:48:57Z</time>
      </trkpt>
      <trkpt lat="46.223487127572298" lon="6.244427422061563">
        <ele>416.79998779296875</ele>
        <time>2014-05-17T09:49:00Z</time>
      </trkpt>
      <trkpt lat="46.223202897235751" lon="6.244168421253562">
        <ele>415.79998779296875</ele>
        <time>2014-05-17T09:49:03Z</time>
      </trkpt>
      <trkpt lat="46.223109187558293" lon="6.244076890870929">
        <ele>415.39999389648437</ele>
        <time>2014-05-17T09:49:04Z</time>
      </trkpt>
      <trkpt lat="46.222919169813395" lon="6.243895757943392">
        <ele>414.60000610351562</ele>
        <time>2014-05-17T09:49:06Z</time>
      </trkpt>
      <trkpt lat="46.222628150135279" lon="6.243619071319699">
        <ele>413.39999389648437</ele>
        <time>2014-05-17T09:49:09Z</time>
      </trkpt>
      <trkpt lat="46.222433438524604" lon="6.243433579802513">
        <ele>412.20001220703125</ele>
        <time>2014-05-17T09:49:11Z</time>
      </trkpt>
      <trkpt lat="46.221964219585061" lon="6.242949776351452">
        <ele>412.20001220703125</ele>
        <time>2014-05-17T09:49:16Z</time>
      </trkpt>
      <trkpt lat="46.221879227086902" lon="6.24283729121089">
        <ele>411.79998779296875</ele>
        <time>2014-05-17T09:49:17Z</time>
      </trkpt>
      <trkpt lat="46.221579825505614" lon="6.242357511073351">
        <ele>411.60000610351562</ele>
        <time>2014-05-17T09:49:21Z</time>
      </trkpt>
      <trkpt lat="46.221160311251879" lon="6.241662483662367">
        <ele>412.79998779296875</ele>
        <time>2014-05-17T09:49:27Z</time>
      </trkpt>
      <trkpt lat="46.221024859696627" lon="6.241437429562211">
        <ele>412.39999389648437</ele>
        <time>2014-05-17T09:49:29Z</time>
      </trkpt>
      <trkpt lat="46.220755716785789" lon="6.240979610010982">
        <ele>411.20001220703125</ele>
        <time>2014-05-17T09:49:33Z</time>
      </trkpt>
      <trkpt lat="46.220680782571435" lon="6.240861089900136">
        <ele>410.79998779296875</ele>
        <time>2014-05-17T09:49:34Z</time>
      </trkpt>
      <trkpt lat="46.220361599698663" lon="6.240238314494491">
        <ele>410.60000610351562</ele>
        <time>2014-05-17T09:49:39Z</time>
      </trkpt>
      <trkpt lat="46.220290018245578" lon="6.240121219307184">
        <ele>410</ele>
        <time>2014-05-17T09:49:40Z</time>
      </trkpt>
      <trkpt lat="46.220217095687985" lon="6.240005800500512">
        <ele>408.79998779296875</ele>
        <time>2014-05-17T09:49:41Z</time>
      </trkpt>
      <trkpt lat="46.219991203397512" lon="6.23968318104744">
        <ele>409</ele>
        <time>2014-05-17T09:49:44Z</time>
      </trkpt>
      <trkpt lat="46.219592811539769" lon="6.239214381203055">
        <ele>407.79998779296875</ele>
        <time>2014-05-17T09:49:49Z</time>
      </trkpt>
      <trkpt lat="46.219509830698371" lon="6.239131987094879">
        <ele>407.79998779296875</ele>
        <time>2014-05-17T09:49:50Z</time>
      </trkpt>
      <trkpt lat="46.219005575403571" lon="6.23870400711894">
        <ele>408.20001220703125</ele>
        <time>2014-05-17T09:49:56Z</time>
      </trkpt>
      <trkpt lat="46.218919241800904" lon="6.238637454807758">
        <ele>408.39999389648437</ele>
        <time>2014-05-17T09:49:57Z</time>
      </trkpt>
      <trkpt lat="46.21840107254684" lon="6.238269237801433">
        <ele>408.39999389648437</ele>
        <time>2014-05-17T09:50:03Z</time>
      </trkpt>
      <trkpt lat="46.218055570498109" lon="6.238024234771729">
        <ele>408.39999389648437</ele>
        <time>2014-05-17T09:50:07Z</time>
      </trkpt>
      <trkpt lat="46.217538490891457" lon="6.237633470445871">
        <ele>408</ele>
        <time>2014-05-17T09:50:13Z</time>
      </trkpt>
      <trkpt lat="46.21744972653687" lon="6.237568175420165">
        <ele>408</ele>
        <time>2014-05-17T09:50:14Z</time>
      </trkpt>
      <trkpt lat="46.216924600303173" lon="6.237171124666929">
        <ele>408.39999389648437</ele>
        <time>2014-05-17T09:50:20Z</time>
      </trkpt>
      <trkpt lat="46.216839356347919" lon="6.237101722508669">
        <ele>408.20001220703125</ele>
        <time>2014-05-17T09:50:21Z</time>
      </trkpt>
      <trkpt lat="46.216361923143268" lon="6.236651698127389">
        <ele>407.39999389648438</ele>
        <time>2014-05-17T09:50:27Z</time>
      </trkpt>
      <trkpt lat="46.216289168223739" lon="6.236570393666625">
        <ele>407.20001220703125</ele>
        <time>2014-05-17T09:50:28Z</time>
      </trkpt>
      <trkpt lat="46.215874599292874" lon="6.236067982390523">
        <ele>408.20001220703125</ele>
        <time>2014-05-17T09:50:34Z</time>
      </trkpt>
      <trkpt lat="46.21568282134831" lon="6.235797749832273">
        <ele>407.79998779296875</ele>
        <time>2014-05-17T09:50:37Z</time>
      </trkpt>
      <trkpt lat="46.215350311249495" lon="6.235253931954503">
        <ele>407.79998779296875</ele>
        <time>2014-05-17T09:50:43Z</time>
      </trkpt>
      <trkpt lat="46.215102793648839" lon="6.234810864552856">
        <ele>406.60000610351562</ele>
        <time>2014-05-17T09:50:48Z</time>
      </trkpt>
      <trkpt lat="46.21497580781579" lon="6.234547924250364">
        <ele>407</ele>
        <time>2014-05-17T09:50:51Z</time>
      </trkpt>
      <trkpt lat="46.214762656018138" lon="6.234055571258068">
        <ele>407.39999389648438</ele>
        <time>2014-05-17T09:50:57Z</time>
      </trkpt>
      <trkpt lat="46.214545732364058" lon="6.233565397560597">
        <ele>407.39999389648438</ele>
        <time>2014-05-17T09:51:03Z</time>
      </trkpt>
      <trkpt lat="46.214353451505303" lon="6.233139680698514">
        <ele>407.60000610351562</ele>
        <time>2014-05-17T09:51:08Z</time>
      </trkpt>
      <trkpt lat="46.214240798726678" lon="6.23288051225245">
        <ele>407.60000610351562</ele>
        <time>2014-05-17T09:51:11Z</time>
      </trkpt>
      <trkpt lat="46.213934691622853" lon="6.232189005240798">
        <ele>407.60000610351562</ele>
        <time>2014-05-17T09:51:19Z</time>
      </trkpt>
      <trkpt lat="46.213896134868264" lon="6.23210116289556">
        <ele>407.60000610351562</ele>
        <time>2014-05-17T09:51:20Z</time>
      </trkpt>
      <trkpt lat="46.213608300313354" lon="6.231473945081234">
        <ele>406.79998779296875</ele>
        <time>2014-05-17T09:51:27Z</time>
      </trkpt>
      <trkpt lat="46.213564965873957" lon="6.231386102735996">
        <ele>406.60000610351562</ele>
        <time>2014-05-17T09:51:28Z</time>
      </trkpt>
      <trkpt lat="46.21321284212172" lon="6.230719154700637">
        <ele>407.39999389648438</ele>
        <time>2014-05-17T09:51:36Z</time>
      </trkpt>
      <trkpt lat="46.212970688939095" lon="6.230326546356082">
        <ele>407.60000610351562</ele>
        <time>2014-05-17T09:51:41Z</time>
      </trkpt>
      <trkpt lat="46.212873961776495" lon="6.230163769796491">
        <ele>407.79998779296875</ele>
        <time>2014-05-17T09:51:43Z</time>
      </trkpt>
      <trkpt lat="46.212500799447298" lon="6.229621628299356">
        <ele>407.79998779296875</ele>
        <time>2014-05-17T09:51:50Z</time>
      </trkpt>
      <trkpt lat="46.21211095713079" lon="6.22911611571908">
        <ele>408.20001220703125</ele>
        <time>2014-05-17T09:51:57Z</time>
      </trkpt>
      <trkpt lat="46.211848016828299" lon="6.228792322799563">
        <ele>408.60000610351562</ele>
        <time>2014-05-17T09:52:02Z</time>
      </trkpt>
      <trkpt lat="46.211767802014947" lon="6.228701043874025">
        <ele>408.39999389648437</ele>
        <time>2014-05-17T09:52:04Z</time>
      </trkpt>
      <trkpt lat="46.211671326309443" lon="6.22852292843163">
        <ele>408.60000610351562</ele>
        <time>2014-05-17T09:52:07Z</time>
      </trkpt>
      <trkpt lat="46.211644420400262" lon="6.228460483253002">
        <ele>408.60000610351562</ele>
        <time>2014-05-17T09:52:08Z</time>
      </trkpt>
      <trkpt lat="46.211602091789246" lon="6.228423099964857">
        <ele>408.60000610351562</ele>
        <time>2014-05-17T09:52:09Z</time>
      </trkpt>
      <trkpt lat="46.211512237787247" lon="6.228399882093072">
        <ele>408.60000610351562</ele>
        <time>2014-05-17T09:52:11Z</time>
      </trkpt>
      <trkpt lat="46.211351975798607" lon="6.228277087211609">
        <ele>409.20001220703125</ele>
        <time>2014-05-17T09:52:14Z</time>
      </trkpt>
      <trkpt lat="46.211296990513802" lon="6.228229142725468">
        <ele>409</ele>
        <time>2014-05-17T09:52:15Z</time>
      </trkpt>
      <trkpt lat="46.210939669981599" lon="6.227910714223981">
        <ele>408.60000610351562</ele>
        <time>2014-05-17T09:52:21Z</time>
      </trkpt>
      <trkpt lat="46.210400043055415" lon="6.227509556338191">
        <ele>408.39999389648437</ele>
        <time>2014-05-17T09:52:29Z</time>
      </trkpt>
      <trkpt lat="46.209908109158278" lon="6.227186098694801">
        <ele>408.60000610351562</ele>
        <time>2014-05-17T09:52:36Z</time>
      </trkpt>
      <trkpt lat="46.209618011489511" lon="6.227032458409667">
        <ele>409</ele>
        <time>2014-05-17T09:52:40Z</time>
      </trkpt>
      <trkpt lat="46.209114259108901" lon="6.226776978000999">
        <ele>408.60000610351562</ele>
        <time>2014-05-17T09:52:47Z</time>
      </trkpt>
      <trkpt lat="46.208540769293904" lon="6.226527281105518">
        <ele>409</ele>
        <time>2014-05-17T09:52:55Z</time>
      </trkpt>
      <trkpt lat="46.208469355478883" lon="6.22649853117764">
        <ele>409</ele>
        <time>2014-05-17T09:52:56Z</time>
      </trkpt>
      <trkpt lat="46.207909192889929" lon="6.226265178993344">
        <ele>409</ele>
        <time>2014-05-17T09:53:04Z</time>
      </trkpt>
      <trkpt lat="46.207773238420486" lon="6.226203655824065">
        <ele>409</ele>
        <time>2014-05-17T09:53:06Z</time>
      </trkpt>
      <trkpt lat="46.207226905971766" lon="6.22596250846982">
        <ele>409</ele>
        <time>2014-05-17T09:53:14Z</time>
      </trkpt>
      <trkpt lat="46.207157839089632" lon="6.225930657237768">
        <ele>409.20001220703125</ele>
        <time>2014-05-17T09:53:15Z</time>
      </trkpt>
      <trkpt lat="46.206596335396171" lon="6.225669560953975">
        <ele>409.20001220703125</ele>
        <time>2014-05-17T09:53:23Z</time>
      </trkpt>
      <trkpt lat="46.206040950492024" lon="6.225344678387046">
        <ele>409.60000610351562</ele>
        <time>2014-05-17T09:53:31Z</time>
      </trkpt>
      <trkpt lat="46.205828133970499" lon="6.225208304822445">
        <ele>409.60000610351562</ele>
        <time>2014-05-17T09:53:34Z</time>
      </trkpt>
      <trkpt lat="46.205549687147141" lon="6.224996913224459">
        <ele>409.39999389648437</ele>
        <time>2014-05-17T09:53:38Z</time>
      </trkpt>
      <trkpt lat="46.205077953636646" lon="6.224587960168719">
        <ele>409</ele>
        <time>2014-05-17T09:53:45Z</time>
      </trkpt>
      <trkpt lat="46.205014586448669" lon="6.224523838609457">
        <ele>408.60000610351562</ele>
        <time>2014-05-17T09:53:46Z</time>
      </trkpt>
      <trkpt lat="46.204955074936152" lon="6.224459130316973">
        <ele>408.39999389648437</ele>
        <time>2014-05-17T09:53:47Z</time>
      </trkpt>
      <trkpt lat="46.204677047207952" lon="6.224128128960729">
        <ele>408.60000610351562</ele>
        <time>2014-05-17T09:53:52Z</time>
      </trkpt>
      <trkpt lat="46.204349650070071" lon="6.223648767918348">
        <ele>408</ele>
        <time>2014-05-17T09:53:59Z</time>
      </trkpt>
      <trkpt lat="46.204062737524509" lon="6.223081648349762">
        <ele>408.20001220703125</ele>
        <time>2014-05-17T09:54:07Z</time>
      </trkpt>
      <trkpt lat="46.203996855765581" lon="6.222852487117052">
        <ele>408.60000610351562</ele>
        <time>2014-05-17T09:54:10Z</time>
      </trkpt>
      <trkpt lat="46.20397238060832" lon="6.222685184329748">
        <ele>408.20001220703125</ele>
        <time>2014-05-17T09:54:12Z</time>
      </trkpt>
      <trkpt lat="46.203947570174932" lon="6.222600862383843">
        <ele>408</ele>
        <time>2014-05-17T09:54:13Z</time>
      </trkpt>
      <trkpt lat="46.203818153589964" lon="6.222395254299045">
        <ele>407.79998779296875</ele>
        <time>2014-05-17T09:54:16Z</time>
      </trkpt>
      <trkpt lat="46.203780854120851" lon="6.222318978980184">
        <ele>407.79998779296875</ele>
        <time>2014-05-17T09:54:17Z</time>
      </trkpt>
      <trkpt lat="46.203644396737218" lon="6.221996108070016">
        <ele>407.79998779296875</ele>
        <time>2014-05-17T09:54:21Z</time>
      </trkpt>
      <trkpt lat="46.20346519164741" lon="6.221587238833308">
        <ele>407</ele>
        <time>2014-05-17T09:54:26Z</time>
      </trkpt>
      <trkpt lat="46.203397549688816" lon="6.221418511122465">
        <ele>407.20001220703125</ele>
        <time>2014-05-17T09:54:28Z</time>
      </trkpt>
      <trkpt lat="46.203126981854439" lon="6.220729015767574">
        <ele>406.79998779296875</ele>
        <time>2014-05-17T09:54:36Z</time>
      </trkpt>
      <trkpt lat="46.202844427898526" lon="6.220008172094822">
        <ele>406.79998779296875</ele>
        <time>2014-05-17T09:54:44Z</time>
      </trkpt>
      <trkpt lat="46.20259783230722" lon="6.219371315091848">
        <ele>407.20001220703125</ele>
        <time>2014-05-17T09:54:51Z</time>
      </trkpt>
      <trkpt lat="46.202342435717583" lon="6.218721214681864">
        <ele>407.20001220703125</ele>
        <time>2014-05-17T09:54:58Z</time>
      </trkpt>
      <trkpt lat="46.20213414542377" lon="6.218214863911271">
        <ele>406</ele>
        <time>2014-05-17T09:55:03Z</time>
      </trkpt>
      <trkpt lat="46.202007075771689" lon="6.21790406294167">
        <ele>405.60000610351562</ele>
        <time>2014-05-17T09:55:06Z</time>
      </trkpt>
      <trkpt lat="46.201679259538651" lon="6.217208784073591">
        <ele>405.60000610351562</ele>
        <time>2014-05-17T09:55:13Z</time>
      </trkpt>
      <trkpt lat="46.201630560681224" lon="6.217105183750391">
        <ele>405.60000610351562</ele>
        <time>2014-05-17T09:55:14Z</time>
      </trkpt>
      <trkpt lat="46.201413385570049" lon="6.216709222644568">
        <ele>404.79998779296875</ele>
        <time>2014-05-17T09:55:18Z</time>
      </trkpt>
      <trkpt lat="46.201300648972392" lon="6.216508643701673">
        <ele>404.39999389648438</ele>
        <time>2014-05-17T09:55:20Z</time>
      </trkpt>
      <trkpt lat="46.20124189183116" lon="6.216416358947754">
        <ele>404.60000610351562</ele>
        <time>2014-05-17T09:55:21Z</time>
      </trkpt>
      <trkpt lat="46.200822629034519" lon="6.215737760066986">
        <ele>404.39999389648438</ele>
        <time>2014-05-17T09:55:28Z</time>
      </trkpt>
      <trkpt lat="46.200638143345714" lon="6.215444225817919">
        <ele>403.39999389648437</ele>
        <time>2014-05-17T09:55:31Z</time>
      </trkpt>
      <trkpt lat="46.20045424439013" lon="6.215157983824611">
        <ele>403.79998779296875</ele>
        <time>2014-05-17T09:55:34Z</time>
      </trkpt>
      <trkpt lat="46.20032818056643" lon="6.214975593611598">
        <ele>404.20001220703125</ele>
        <time>2014-05-17T09:55:36Z</time>
      </trkpt>
      <trkpt lat="46.200145035982132" lon="6.214680885896087">
        <ele>403.60000610351562</ele>
        <time>2014-05-17T09:55:39Z</time>
      </trkpt>
      <trkpt lat="46.199736250564456" lon="6.214022571220994">
        <ele>402.60000610351562</ele>
        <time>2014-05-17T09:55:46Z</time>
      </trkpt>
      <trkpt lat="46.199680175632238" lon="6.213927771896124">
        <ele>402.79998779296875</ele>
        <time>2014-05-17T09:55:47Z</time>
      </trkpt>
      <trkpt lat="46.199623765423894" lon="6.21383179910481">
        <ele>402.39999389648437</ele>
        <time>2014-05-17T09:55:48Z</time>
      </trkpt>
      <trkpt lat="46.199389826506376" lon="6.213468946516514">
        <ele>402.60000610351562</ele>
        <time>2014-05-17T09:55:52Z</time>
      </trkpt>
      <trkpt lat="46.199063938111067" lon="6.212949100881815">
        <ele>402.20001220703125</ele>
        <time>2014-05-17T09:55:58Z</time>
      </trkpt>
      <trkpt lat="46.198713826015592" lon="6.21242992579937">
        <ele>402.20001220703125</ele>
        <time>2014-05-17T09:56:05Z</time>
      </trkpt>
      <trkpt lat="46.198631348088384" lon="6.212289528921247">
        <ele>403.39999389648437</ele>
        <time>2014-05-17T09:56:07Z</time>
      </trkpt>
      <trkpt lat="46.198549037799239" lon="6.212045531719923">
        <ele>403.79998779296875</ele>
        <time>2014-05-17T09:56:10Z</time>
      </trkpt>
      <trkpt lat="46.198516935110092" lon="6.211984846740961">
        <ele>404</ele>
        <time>2014-05-17T09:56:11Z</time>
      </trkpt>
      <trkpt lat="46.198459602892399" lon="6.211893148720264">
        <ele>404.20001220703125</ele>
        <time>2014-05-17T09:56:13Z</time>
      </trkpt>
      <trkpt lat="46.198430098593235" lon="6.211854591965675">
        <ele>404.20001220703125</ele>
        <time>2014-05-17T09:56:14Z</time>
      </trkpt>
      <trkpt lat="46.198321133852005" lon="6.211695671081543">
        <ele>404</ele>
        <time>2014-05-17T09:56:18Z</time>
      </trkpt>
      <trkpt lat="46.198272267356515" lon="6.211549239233136">
        <ele>404.20001220703125</ele>
        <time>2014-05-17T09:56:23Z</time>
      </trkpt>
      <trkpt lat="46.198262795805931" lon="6.211523590609431">
        <ele>403.79998779296875</ele>
        <time>2014-05-17T09:56:47Z</time>
      </trkpt>
      <trkpt lat="46.198222897946835" lon="6.211414039134979">
        <ele>403.60000610351562</ele>
        <time>2014-05-17T09:56:50Z</time>
      </trkpt>
      <trkpt lat="46.198208145797253" lon="6.211365340277553">
        <ele>403.60000610351562</ele>
        <time>2014-05-17T09:56:51Z</time>
      </trkpt>
      <trkpt lat="46.198148131370544" lon="6.211292752996087">
        <ele>403.20001220703125</ele>
        <time>2014-05-17T09:56:53Z</time>
      </trkpt>
      <trkpt lat="46.19810244999826" lon="6.211292669177055">
        <ele>403</ele>
        <time>2014-05-17T09:56:54Z</time>
      </trkpt>
      <trkpt lat="46.198034472763538" lon="6.211362071335316">
        <ele>402.20001220703125</ele>
        <time>2014-05-17T09:56:56Z</time>
      </trkpt>
      <trkpt lat="46.198024582117796" lon="6.211411189287901">
        <ele>402.20001220703125</ele>
        <time>2014-05-17T09:56:57Z</time>
      </trkpt>
      <trkpt lat="46.198038412258029" lon="6.21155041269958">
        <ele>403</ele>
        <time>2014-05-17T09:57:00Z</time>
      </trkpt>
      <trkpt lat="46.198029862716794" lon="6.211577653884888">
        <ele>403.20001220703125</ele>
        <time>2014-05-17T09:57:01Z</time>
      </trkpt>
      <trkpt lat="46.198009829968214" lon="6.211584527045488">
        <ele>403.20001220703125</ele>
        <time>2014-05-17T09:57:02Z</time>
      </trkpt>
      <trkpt lat="46.197989964857697" lon="6.211583856493235">
        <ele>403.39999389648437</ele>
        <time>2014-05-17T09:57:03Z</time>
      </trkpt>
      <trkpt lat="46.197900865226984" lon="6.211527027189732">
        <ele>403.39999389648437</ele>
        <time>2014-05-17T09:57:06Z</time>
      </trkpt>
      <trkpt lat="46.197862979024649" lon="6.211501797661185">
        <ele>403.39999389648437</ele>
        <time>2014-05-17T09:57:07Z</time>
      </trkpt>
      <trkpt lat="46.197822913527489" lon="6.211482938379049">
        <ele>403.20001220703125</ele>
        <time>2014-05-17T09:57:08Z</time>
      </trkpt>
      <trkpt lat="46.197729790583253" lon="6.21145561337471">
        <ele>402.79998779296875</ele>
        <time>2014-05-17T09:57:10Z</time>
      </trkpt>
      <trkpt lat="46.197677487507463" lon="6.211446896195412">
        <ele>402.79998779296875</ele>
        <time>2014-05-17T09:57:11Z</time>
      </trkpt>
      <trkpt lat="46.197375990450382" lon="6.211402053013444">
        <ele>402.39999389648437</ele>
        <time>2014-05-17T09:57:16Z</time>
      </trkpt>
      <trkpt lat="46.197246825322509" lon="6.211379673331976">
        <ele>402.20001220703125</ele>
        <time>2014-05-17T09:57:18Z</time>
      </trkpt>
      <trkpt lat="46.196905933320522" lon="6.211363831534982">
        <ele>401.39999389648437</ele>
        <time>2014-05-17T09:57:23Z</time>
      </trkpt>
      <trkpt lat="46.196575183421373" lon="6.211372213438153">
        <ele>401</ele>
        <time>2014-05-17T09:57:28Z</time>
      </trkpt>
      <trkpt lat="46.196449119597673" lon="6.211364502087236">
        <ele>400.79998779296875</ele>
        <time>2014-05-17T09:57:30Z</time>
      </trkpt>
      <trkpt lat="46.19596959091723" lon="6.21139157563448">
        <ele>401.20001220703125</ele>
        <time>2014-05-17T09:57:38Z</time>
      </trkpt>
      <trkpt lat="46.195853920653462" lon="6.211397191509605">
        <ele>401.20001220703125</ele>
        <time>2014-05-17T09:57:40Z</time>
      </trkpt>
      <trkpt lat="46.195680415257812" lon="6.211385121569037">
        <ele>401.20001220703125</ele>
        <time>2014-05-17T09:57:43Z</time>
      </trkpt>
      <trkpt lat="46.195235922932625" lon="6.211365340277553">
        <ele>400.39999389648437</ele>
        <time>2014-05-17T09:57:51Z</time>
      </trkpt>
      <trkpt lat="46.19491858407855" lon="6.211387049406767">
        <ele>400</ele>
        <time>2014-05-17T09:57:57Z</time>
      </trkpt>
      <trkpt lat="46.194873824715614" lon="6.211376152932644">
        <ele>400</ele>
        <time>2014-05-17T09:57:58Z</time>
      </trkpt>
      <trkpt lat="46.194675089791417" lon="6.211344385519624">
        <ele>399.79998779296875</ele>
        <time>2014-05-17T09:58:03Z</time>
      </trkpt>
      <trkpt lat="46.194654973223805" lon="6.211331561207771">
        <ele>400.39999389648437</ele>
        <time>2014-05-17T09:58:05Z</time>
      </trkpt>
      <trkpt lat="46.194652542471886" lon="6.211311277002096">
        <ele>400.60000610351562</ele>
        <time>2014-05-17T09:58:06Z</time>
      </trkpt>
      <trkpt lat="46.194566795602441" lon="6.211236426606774">
        <ele>400.60000610351562</ele>
        <time>2014-05-17T09:58:10Z</time>
      </trkpt>
      <trkpt lat="46.194470571354032" lon="6.211199127137661">
        <ele>400.60000610351562</ele>
        <time>2014-05-17T09:58:15Z</time>
      </trkpt>
      <trkpt lat="46.194448862224817" lon="6.211202396079898">
        <ele>400.39999389648437</ele>
        <time>2014-05-17T09:58:16Z</time>
      </trkpt>
      <trkpt lat="46.194350207224488" lon="6.211280850693584">
        <ele>400</ele>
        <time>2014-05-17T09:58:20Z</time>
      </trkpt>
      <trkpt lat="46.194321708753705" lon="6.211273893713951">
        <ele>400</ele>
        <time>2014-05-17T09:58:21Z</time>
      </trkpt>
      <trkpt lat="46.194258173927665" lon="6.211234834045172">
        <ele>399.79998779296875</ele>
        <time>2014-05-17T09:58:23Z</time>
      </trkpt>
      <trkpt lat="46.194082656875253" lon="6.21118051931262">
        <ele>398.79998779296875</ele>
        <time>2014-05-17T09:58:27Z</time>
      </trkpt>
      <trkpt lat="46.194031862542033" lon="6.211163252592087">
        <ele>398.39999389648437</ele>
        <time>2014-05-17T09:58:28Z</time>
      </trkpt>
      <trkpt lat="46.193982996046543" lon="6.211136849597096">
        <ele>398</ele>
        <time>2014-05-17T09:58:29Z</time>
      </trkpt>
      <trkpt lat="46.193929351866245" lon="6.211109524592757">
        <ele>397.79998779296875</ele>
        <time>2014-05-17T09:58:30Z</time>
      </trkpt>
      <trkpt lat="46.193868415430188" lon="6.211089408025146">
        <ele>397.79998779296875</ele>
        <time>2014-05-17T09:58:31Z</time>
      </trkpt>
      <trkpt lat="46.193739837035537" lon="6.211034841835499">
        <ele>397.20001220703125</ele>
        <time>2014-05-17T09:58:33Z</time>
      </trkpt>
      <trkpt lat="46.193677894771099" lon="6.210991255939007">
        <ele>396.79998779296875</ele>
        <time>2014-05-17T09:58:34Z</time>
      </trkpt>
      <trkpt lat="46.193613773211837" lon="6.210952028632164">
        <ele>396.39999389648437</ele>
        <time>2014-05-17T09:58:35Z</time>
      </trkpt>
      <trkpt lat="46.193557698279619" lon="6.210893103852868">
        <ele>395.79998779296875</ele>
        <time>2014-05-17T09:58:36Z</time>
      </trkpt>
      <trkpt lat="46.19349617511034" lon="6.210848847404122">
        <ele>395.60000610351562</ele>
        <time>2014-05-17T09:58:37Z</time>
      </trkpt>
      <trkpt lat="46.193353766575456" lon="6.210638293996453">
        <ele>395.39999389648437</ele>
        <time>2014-05-17T09:58:40Z</time>
      </trkpt>
      <trkpt lat="46.193318478763103" lon="6.21055506169796">
        <ele>395.39999389648437</ele>
        <time>2014-05-17T09:58:41Z</time>
      </trkpt>
      <trkpt lat="46.193259051069617" lon="6.210384657606483">
        <ele>395.20001220703125</ele>
        <time>2014-05-17T09:58:43Z</time>
      </trkpt>
      <trkpt lat="46.193196102976799" lon="6.210208386182785">
        <ele>394.60000610351562</ele>
        <time>2014-05-17T09:58:45Z</time>
      </trkpt>
      <trkpt lat="46.193178500980139" lon="6.210116352885962">
        <ele>394.20001220703125</ele>
        <time>2014-05-17T09:58:46Z</time>
      </trkpt>
      <trkpt lat="46.193127622827888" lon="6.209934633225203">
        <ele>393.79998779296875</ele>
        <time>2014-05-17T09:58:48Z</time>
      </trkpt>
      <trkpt lat="46.193030057474971" lon="6.209495253860951">
        <ele>393.79998779296875</ele>
        <time>2014-05-17T09:58:53Z</time>
      </trkpt>
      <trkpt lat="46.192889576777816" lon="6.208993261680007">
        <ele>393.79998779296875</ele>
        <time>2014-05-17T09:58:59Z</time>
      </trkpt>
      <trkpt lat="46.192849595099688" lon="6.208820762112737">
        <ele>393</ele>
        <time>2014-05-17T09:59:01Z</time>
      </trkpt>
      <trkpt lat="46.192765943706036" lon="6.208504177629948">
        <ele>393</ele>
        <time>2014-05-17T09:59:05Z</time>
      </trkpt>
      <trkpt lat="46.192692350596189" lon="6.208007130771875">
        <ele>392.79998779296875</ele>
        <time>2014-05-17T09:59:11Z</time>
      </trkpt>
      <trkpt lat="46.192678855732083" lon="6.207928592339158">
        <ele>392.79998779296875</ele>
        <time>2014-05-17T09:59:12Z</time>
      </trkpt>
      <trkpt lat="46.192643735557795" lon="6.207614773884416">
        <ele>392.79998779296875</ele>
        <time>2014-05-17T09:59:16Z</time>
      </trkpt>
      <trkpt lat="46.192590007558465" lon="6.207107836380601">
        <ele>392.39999389648437</ele>
        <time>2014-05-17T09:59:23Z</time>
      </trkpt>
      <trkpt lat="46.192583804950118" lon="6.207040529698134">
        <ele>392.60000610351562</ele>
        <time>2014-05-17T09:59:24Z</time>
      </trkpt>
      <trkpt lat="46.192577518522739" lon="6.206878507509828">
        <ele>394</ele>
        <time>2014-05-17T09:59:27Z</time>
      </trkpt>
      <trkpt lat="46.192574501037598" lon="6.206823689863086">
        <ele>394.20001220703125</ele>
        <time>2014-05-17T09:59:29Z</time>
      </trkpt>
      <trkpt lat="46.192569555714726" lon="6.206713551655412">
        <ele>394</ele>
        <time>2014-05-17T09:59:35Z</time>
      </trkpt>
      <trkpt lat="46.192593863233924" lon="6.206513307988644">
        <ele>393.60000610351562</ele>
        <time>2014-05-17T09:59:39Z</time>
      </trkpt>
      <trkpt lat="46.192649519070983" lon="6.20606018230319">
        <ele>394.20001220703125</ele>
        <time>2014-05-17T09:59:46Z</time>
      </trkpt>
      <trkpt lat="46.192643819376826" lon="6.205932693555951">
        <ele>393.79998779296875</ele>
        <time>2014-05-17T09:59:48Z</time>
      </trkpt>
      <trkpt lat="46.192615907639265" lon="6.20577871799469">
        <ele>394.39999389648437</ele>
        <time>2014-05-17T09:59:51Z</time>
      </trkpt>
      <trkpt lat="46.192577518522739" lon="6.205686768516898">
        <ele>394.39999389648437</ele>
        <time>2014-05-17T09:59:55Z</time>
      </trkpt>
      <trkpt lat="46.19252035394311" lon="6.205573948100209">
        <ele>394.20001220703125</ele>
        <time>2014-05-17T10:00:00Z</time>
      </trkpt>
      <trkpt lat="46.192509457468987" lon="6.205533798784018">
        <ele>394.20001220703125</ele>
        <time>2014-05-17T10:00:02Z</time>
      </trkpt>
      <trkpt lat="46.192505434155464" lon="6.205442855134606">
        <ele>394.60000610351562</ele>
        <time>2014-05-17T10:00:08Z</time>
      </trkpt>
      <trkpt lat="46.192509960383177" lon="6.205427600070834">
        <ele>395.20001220703125</ele>
        <time>2014-05-17T10:00:10Z</time>
      </trkpt>
      <trkpt lat="46.192508619278669" lon="6.205421481281519">
        <ele>395.39999389648437</ele>
        <time>2014-05-17T10:00:11Z</time>
      </trkpt>
      <trkpt lat="46.192513145506382" lon="6.205381834879518">
        <ele>396</ele>
        <time>2014-05-17T10:00:13Z</time>
      </trkpt>
      <trkpt lat="46.192533345893025" lon="6.205345708876848">
        <ele>395.39999389648437</ele>
        <time>2014-05-17T10:00:19Z</time>
      </trkpt>
      <trkpt lat="46.192540219053626" lon="6.205327436327934">
        <ele>395.20001220703125</ele>
        <time>2014-05-17T10:00:20Z</time>
      </trkpt>
      <trkpt lat="46.192567041143775" lon="6.205257028341293">
        <ele>395.39999389648437</ele>
        <time>2014-05-17T10:00:25Z</time>
      </trkpt>
      <trkpt lat="46.192573495209217" lon="6.205229535698891">
        <ele>395.60000610351562</ele>
        <time>2014-05-17T10:00:26Z</time>
      </trkpt>
      <trkpt lat="46.192584810778499" lon="6.205179328098893">
        <ele>395.79998779296875</ele>
        <time>2014-05-17T10:00:28Z</time>
      </trkpt>
      <trkpt lat="46.192598724737763" lon="6.2051219958812">
        <ele>396</ele>
        <time>2014-05-17T10:00:30Z</time>
      </trkpt>
      <trkpt lat="46.192611549049616" lon="6.205098861828446">
        <ele>396.20001220703125</ele>
        <time>2014-05-17T10:00:31Z</time>
      </trkpt>
      <trkpt lat="46.192656559869647" lon="6.205020491033793">
        <ele>396.79998779296875</ele>
        <time>2014-05-17T10:00:36Z</time>
      </trkpt>
      <trkpt lat="46.192700229585171" lon="6.204871712252498">
        <ele>396.79998779296875</ele>
        <time>2014-05-17T10:00:41Z</time>
      </trkpt>
      <trkpt lat="46.192743480205536" lon="6.204740116372705">
        <ele>397.39999389648437</ele>
        <time>2014-05-17T10:00:45Z</time>
      </trkpt>
      <trkpt lat="46.192741300910711" lon="6.204683035612106">
        <ele>397.20001220703125</ele>
        <time>2014-05-17T10:00:47Z</time>
      </trkpt>
      <trkpt lat="46.19273685850203" lon="6.204635845497251">
        <ele>397.39999389648437</ele>
        <time>2014-05-17T10:00:48Z</time>
      </trkpt>
      <trkpt lat="46.192753873765469" lon="6.204564683139324">
        <ele>397.39999389648437</ele>
        <time>2014-05-17T10:00:49Z</time>
      </trkpt>
      <trkpt lat="46.192794693633914" lon="6.204360416159034">
        <ele>397.79998779296875</ele>
        <time>2014-05-17T10:00:52Z</time>
      </trkpt>
      <trkpt lat="46.192873567342758" lon="6.20399571955204">
        <ele>398.39999389648437</ele>
        <time>2014-05-17T10:00:59Z</time>
      </trkpt>
      <trkpt lat="46.192885721102357" lon="6.203931430354714">
        <ele>398.60000610351562</ele>
        <time>2014-05-17T10:01:03Z</time>
      </trkpt>
      <trkpt lat="46.192886307835579" lon="6.203918606042862">
        <ele>398.79998779296875</ele>
        <time>2014-05-17T10:01:12Z</time>
      </trkpt>
      <trkpt lat="46.192883038893342" lon="6.203851802274585">
        <ele>398.39999389648437</ele>
        <time>2014-05-17T10:01:14Z</time>
      </trkpt>
      <trkpt lat="46.192898461595178" lon="6.203818609938026">
        <ele>398.39999389648437</ele>
        <time>2014-05-17T10:01:15Z</time>
      </trkpt>
      <trkpt lat="46.192935006693006" lon="6.203696569427848">
        <ele>398.60000610351562</ele>
        <time>2014-05-17T10:01:18Z</time>
      </trkpt>
      <trkpt lat="46.192955290898681" lon="6.20361065492034">
        <ele>398.79998779296875</ele>
        <time>2014-05-17T10:01:20Z</time>
      </trkpt>
      <trkpt lat="46.193004911765456" lon="6.203430611640215">
        <ele>399.60000610351562</ele>
        <time>2014-05-17T10:01:25Z</time>
      </trkpt>
      <trkpt lat="46.193011784926057" lon="6.203246796503663">
        <ele>399.79998779296875</ele>
        <time>2014-05-17T10:01:45Z</time>
      </trkpt>
      <trkpt lat="46.19302804581821" lon="6.203146716579795">
        <ele>399.79998779296875</ele>
        <time>2014-05-17T10:01:47Z</time>
      </trkpt>
      <trkpt lat="46.193071883171797" lon="6.202880255877972">
        <ele>400.20001220703125</ele>
        <time>2014-05-17T10:01:52Z</time>
      </trkpt>
      <trkpt lat="46.19310088455677" lon="6.202738182619214">
        <ele>401</ele>
        <time>2014-05-17T10:01:54Z</time>
      </trkpt>
      <trkpt lat="46.193155199289322" lon="6.202447582036257">
        <ele>400.20001220703125</ele>
        <time>2014-05-17T10:01:58Z</time>
      </trkpt>
      <trkpt lat="46.193170370534062" lon="6.202367702499032">
        <ele>400</ele>
        <time>2014-05-17T10:01:59Z</time>
      </trkpt>
      <trkpt lat="46.193239437416196" lon="6.202049860730767">
        <ele>399</ele>
        <time>2014-05-17T10:02:03Z</time>
      </trkpt>
      <trkpt lat="46.193285705521703" lon="6.201806450262666">
        <ele>399.60000610351562</ele>
        <time>2014-05-17T10:02:06Z</time>
      </trkpt>
      <trkpt lat="46.193316718563437" lon="6.201639147475362">
        <ele>399.39999389648437</ele>
        <time>2014-05-17T10:02:08Z</time>
      </trkpt>
      <trkpt lat="46.193426353856921" lon="6.201034476980567">
        <ele>399.39999389648437</ele>
        <time>2014-05-17T10:02:15Z</time>
      </trkpt>
      <trkpt lat="46.193477315828204" lon="6.200689980760217">
        <ele>400.20001220703125</ele>
        <time>2014-05-17T10:02:19Z</time>
      </trkpt>
      <trkpt lat="46.193504808470607" lon="6.200522342696786">
        <ele>400.39999389648437</ele>
        <time>2014-05-17T10:02:21Z</time>
      </trkpt>
      <trkpt lat="46.193580413237214" lon="6.200072569772601">
        <ele>400.20001220703125</ele>
        <time>2014-05-17T10:02:27Z</time>
      </trkpt>
      <trkpt lat="46.193610671907663" lon="6.199877522885799">
        <ele>400.39999389648437</ele>
        <time>2014-05-17T10:02:31Z</time>
      </trkpt>
      <trkpt lat="46.19360857643187" lon="6.199828907847405">
        <ele>400</ele>
        <time>2014-05-17T10:04:07Z</time>
      </trkpt>
      <trkpt lat="46.193600529804826" lon="6.199734695255756">
        <ele>400</ele>
        <time>2014-05-17T10:04:09Z</time>
      </trkpt>
      <trkpt lat="46.193584939464927" lon="6.199632603675127">
        <ele>399.79998779296875</ele>
        <time>2014-05-17T10:04:11Z</time>
      </trkpt>
      <trkpt lat="46.193523751571774" lon="6.199552975594997">
        <ele>399</ele>
        <time>2014-05-17T10:04:13Z</time>
      </trkpt>
      <trkpt lat="46.193426605314016" lon="6.199492290616036">
        <ele>399</ele>
        <time>2014-05-17T10:04:15Z</time>
      </trkpt>
      <trkpt lat="46.193371368572116" lon="6.199465719982982">
        <ele>399</ele>
        <time>2014-05-17T10:04:16Z</time>
      </trkpt>
      <trkpt lat="46.19302268140018" lon="6.19924427010119">
        <ele>399.20001220703125</ele>
        <time>2014-05-17T10:04:22Z</time>
      </trkpt>
      <trkpt lat="46.19291421957314" lon="6.19917101226747">
        <ele>399.39999389648437</ele>
        <time>2014-05-17T10:04:24Z</time>
      </trkpt>
      <trkpt lat="46.192733086645603" lon="6.199081996455789">
        <ele>398.79998779296875</ele>
        <time>2014-05-17T10:04:27Z</time>
      </trkpt>
      <trkpt lat="46.192670222371817" lon="6.19906741194427">
        <ele>398.39999389648437</ele>
        <time>2014-05-17T10:04:28Z</time>
      </trkpt>
      <trkpt lat="46.192559245973825" lon="6.199009492993355">
        <ele>398.20001220703125</ele>
        <time>2014-05-17T10:04:30Z</time>
      </trkpt>
      <trkpt lat="46.192448269575834" lon="6.198965990915895">
        <ele>398.79998779296875</ele>
        <time>2014-05-17T10:04:32Z</time>
      </trkpt>
      <trkpt lat="46.192084411159158" lon="6.198801537975669">
        <ele>398.39999389648437</ele>
        <time>2014-05-17T10:04:38Z</time>
      </trkpt>
      <trkpt lat="46.191955497488379" lon="6.198749653995037">
        <ele>398</ele>
        <time>2014-05-17T10:04:40Z</time>
      </trkpt>
      <trkpt lat="46.191565403714776" lon="6.198648819699884">
        <ele>397.39999389648437</ele>
        <time>2014-05-17T10:04:46Z</time>
      </trkpt>
      <trkpt lat="46.191239347681403" lon="6.198539938777685">
        <ele>397</ele>
        <time>2014-05-17T10:04:51Z</time>
      </trkpt>
      <trkpt lat="46.190984789282084" lon="6.198463495820761">
        <ele>396.20001220703125</ele>
        <time>2014-05-17T10:04:55Z</time>
      </trkpt>
      <trkpt lat="46.19075495749712" lon="6.198394512757659">
        <ele>396.60000610351562</ele>
        <time>2014-05-17T10:04:59Z</time>
      </trkpt>
      <trkpt lat="46.190716987475753" lon="6.19837892241776">
        <ele>396.20001220703125</ele>
        <time>2014-05-17T10:05:00Z</time>
      </trkpt>
      <trkpt lat="46.190583799034357" lon="6.198274986818433">
        <ele>395.79998779296875</ele>
        <time>2014-05-17T10:05:04Z</time>
      </trkpt>
      <trkpt lat="46.190426805987954" lon="6.198301892727613">
        <ele>395.60000610351562</ele>
        <time>2014-05-17T10:05:08Z</time>
      </trkpt>
      <trkpt lat="46.190380873158574" lon="6.198331648483872">
        <ele>395.60000610351562</ele>
        <time>2014-05-17T10:05:09Z</time>
      </trkpt>
      <trkpt lat="46.190292192623019" lon="6.19835352525115">
        <ele>395.20001220703125</ele>
        <time>2014-05-17T10:05:11Z</time>
      </trkpt>
      <trkpt lat="46.190240643918514" lon="6.198362074792385">
        <ele>395</ele>
        <time>2014-05-17T10:05:12Z</time>
      </trkpt>
      <trkpt lat="46.190187921747565" lon="6.198361404240131">
        <ele>394.60000610351562</ele>
        <time>2014-05-17T10:05:13Z</time>
      </trkpt>
      <trkpt lat="46.189930513501167" lon="6.198385879397392">
        <ele>393.60000610351562</ele>
        <time>2014-05-17T10:05:17Z</time>
      </trkpt>
      <trkpt lat="46.189784836024046" lon="6.198395853862166">
        <ele>392.60000610351562</ele>
        <time>2014-05-17T10:05:19Z</time>
      </trkpt>
      <trkpt lat="46.189482165500522" lon="6.198396440595388">
        <ele>391.20001220703125</ele>
        <time>2014-05-17T10:05:23Z</time>
      </trkpt>
      <trkpt lat="46.18940438143909" lon="6.198396608233452">
        <ele>390.60000610351562</ele>
        <time>2014-05-17T10:05:24Z</time>
      </trkpt>
      <trkpt lat="46.189326262101531" lon="6.198394680395722">
        <ele>389.20001220703125</ele>
        <time>2014-05-17T10:05:25Z</time>
      </trkpt>
      <trkpt lat="46.189162395894527" lon="6.198390405625105">
        <ele>388</ele>
        <time>2014-05-17T10:05:27Z</time>
      </trkpt>
      <trkpt lat="46.188911776989698" lon="6.198389986529946">
        <ele>387</ele>
        <time>2014-05-17T10:05:30Z</time>
      </trkpt>
      <trkpt lat="46.188831394538283" lon="6.198387891054153">
        <ele>386.39999389648437</ele>
        <time>2014-05-17T10:05:31Z</time>
      </trkpt>
      <trkpt lat="46.18865143507719" lon="6.198373725637794">
        <ele>385.79998779296875</ele>
        <time>2014-05-17T10:05:33Z</time>
      </trkpt>
      <trkpt lat="46.18852780200541" lon="6.198385041207075">
        <ele>385.60000610351562</ele>
        <time>2014-05-17T10:05:35Z</time>
      </trkpt>
      <trkpt lat="46.188169224187732" lon="6.198330223560333">
        <ele>385.20001220703125</ele>
        <time>2014-05-17T10:05:40Z</time>
      </trkpt>
      <trkpt lat="46.188092194497585" lon="6.198300383985043">
        <ele>385</ele>
        <time>2014-05-17T10:05:41Z</time>
      </trkpt>
      <trkpt lat="46.188018936663866" lon="6.198258139193058">
        <ele>384.79998779296875</ele>
        <time>2014-05-17T10:05:42Z</time>
      </trkpt>
      <trkpt lat="46.18780511431396" lon="6.198102906346321">
        <ele>383.79998779296875</ele>
        <time>2014-05-17T10:05:45Z</time>
      </trkpt>
      <trkpt lat="46.187735963612795" lon="6.198045741766691">
        <ele>383.60000610351562</ele>
        <time>2014-05-17T10:05:46Z</time>
      </trkpt>
      <trkpt lat="46.187258195132017" lon="6.197659755125642">
        <ele>382.79998779296875</ele>
        <time>2014-05-17T10:05:53Z</time>
      </trkpt>
      <trkpt lat="46.187193151563406" lon="6.197601333260536">
        <ele>382.60000610351562</ele>
        <time>2014-05-17T10:05:54Z</time>
      </trkpt>
      <trkpt lat="46.187058873474598" lon="6.197480130940676">
        <ele>381.60000610351562</ele>
        <time>2014-05-17T10:05:56Z</time>
      </trkpt>
      <trkpt lat="46.186766177415848" lon="6.197106968611479">
        <ele>381.39999389648437</ele>
        <time>2014-05-17T10:06:01Z</time>
      </trkpt>
      <trkpt lat="46.186674479395151" lon="6.196937905624509">
        <ele>381.39999389648437</ele>
        <time>2014-05-17T10:06:03Z</time>
      </trkpt>
      <trkpt lat="46.186583954840899" lon="6.196658285334706">
        <ele>381.60000610351562</ele>
        <time>2014-05-17T10:06:06Z</time>
      </trkpt>
      <trkpt lat="46.186560150235891" lon="6.19655535556376">
        <ele>381.60000610351562</ele>
        <time>2014-05-17T10:06:07Z</time>
      </trkpt>
      <trkpt lat="46.186475325375795" lon="6.196374390274286">
        <ele>381.60000610351562</ele>
        <time>2014-05-17T10:06:09Z</time>
      </trkpt>
      <trkpt lat="46.186411622911692" lon="6.196304066106677">
        <ele>381.20001220703125</ele>
        <time>2014-05-17T10:06:10Z</time>
      </trkpt>
      <trkpt lat="46.186251193284988" lon="6.195915229618549">
        <ele>381.39999389648437</ele>
        <time>2014-05-17T10:06:14Z</time>
      </trkpt>
      <trkpt lat="46.186096128076315" lon="6.195504348725081">
        <ele>380.60000610351562</ele>
        <time>2014-05-17T10:06:18Z</time>
      </trkpt>
      <trkpt lat="46.186016667634249" lon="6.195295220240951">
        <ele>380.39999389648437</ele>
        <time>2014-05-17T10:06:20Z</time>
      </trkpt>
      <trkpt lat="46.185733778402209" lon="6.194554762914777">
        <ele>379.60000610351562</ele>
        <time>2014-05-17T10:06:27Z</time>
      </trkpt>
      <trkpt lat="46.18569522164762" lon="6.194446636363864">
        <ele>379.60000610351562</ele>
        <time>2014-05-17T10:06:28Z</time>
      </trkpt>
      <trkpt lat="46.185653395950794" lon="6.19434186257422">
        <ele>379.39999389648437</ele>
        <time>2014-05-17T10:06:29Z</time>
      </trkpt>
      <trkpt lat="46.185451140627265" lon="6.193815059959889">
        <ele>378.39999389648437</ele>
        <time>2014-05-17T10:06:34Z</time>
      </trkpt>
      <trkpt lat="46.185295404866338" lon="6.193393785506487">
        <ele>378.20001220703125</ele>
        <time>2014-05-17T10:06:38Z</time>
      </trkpt>
      <trkpt lat="46.18507320061326" lon="6.192833036184311">
        <ele>379</ele>
        <time>2014-05-17T10:06:44Z</time>
      </trkpt>
      <trkpt lat="46.184998853132129" lon="6.192625081166625">
        <ele>379.39999389648437</ele>
        <time>2014-05-17T10:06:47Z</time>
      </trkpt>
      <trkpt lat="46.184957195073366" lon="6.192511925473809">
        <ele>379.20001220703125</ele>
        <time>2014-05-17T10:06:49Z</time>
      </trkpt>
      <trkpt lat="46.184908328577876" lon="6.192390555515885">
        <ele>379.39999389648437</ele>
        <time>2014-05-17T10:06:53Z</time>
      </trkpt>
      <trkpt lat="46.184863904491067" lon="6.192255523055792">
        <ele>379.39999389648437</ele>
        <time>2014-05-17T10:07:00Z</time>
      </trkpt>
      <trkpt lat="46.184851918369532" lon="6.192224258556962">
        <ele>379.39999389648437</ele>
        <time>2014-05-17T10:07:56Z</time>
      </trkpt>
      <trkpt lat="46.184816714376211" lon="6.1921411100775">
        <ele>379.39999389648437</ele>
        <time>2014-05-17T10:07:58Z</time>
      </trkpt>
      <trkpt lat="46.184802046045661" lon="6.19207757525146">
        <ele>379.60000610351562</ele>
        <time>2014-05-17T10:07:59Z</time>
      </trkpt>
      <trkpt lat="46.184760890901089" lon="6.191952852532268">
        <ele>379.60000610351562</ele>
        <time>2014-05-17T10:08:01Z</time>
      </trkpt>
      <trkpt lat="46.184590738266706" lon="6.19152688421309">
        <ele>380</ele>
        <time>2014-05-17T10:08:07Z</time>
      </trkpt>
      <trkpt lat="46.184498872607946" lon="6.191192278638482">
        <ele>380.39999389648437</ele>
        <time>2014-05-17T10:08:11Z</time>
      </trkpt>
      <trkpt lat="46.184466602280736" lon="6.191121451556683">
        <ele>380.60000610351562</ele>
        <time>2014-05-17T10:08:12Z</time>
      </trkpt>
      <trkpt lat="46.184438690543175" lon="6.191045176237822">
        <ele>380.79998779296875</ele>
        <time>2014-05-17T10:08:13Z</time>
      </trkpt>
      <trkpt lat="46.184297623112798" lon="6.190676959231496">
        <ele>381.60000610351562</ele>
        <time>2014-05-17T10:08:18Z</time>
      </trkpt>
      <trkpt lat="46.184244649484754" lon="6.190534885972738">
        <ele>381.79998779296875</ele>
        <time>2014-05-17T10:08:20Z</time>
      </trkpt>
      <trkpt lat="46.184025881811976" lon="6.190011855214834">
        <ele>382.60000610351562</ele>
        <time>2014-05-17T10:08:27Z</time>
      </trkpt>
      <trkpt lat="46.183947091922164" lon="6.189876822754741">
        <ele>382.39999389648437</ele>
        <time>2014-05-17T10:08:29Z</time>
      </trkpt>
      <trkpt lat="46.183762270957232" lon="6.189631568267942">
        <ele>382</ele>
        <time>2014-05-17T10:08:33Z</time>
      </trkpt>
      <trkpt lat="46.183458175510168" lon="6.18933049030602">
        <ele>380.20001220703125</ele>
        <time>2014-05-17T10:08:38Z</time>
      </trkpt>
      <trkpt lat="46.183393970131874" lon="6.18926988914609">
        <ele>379.79998779296875</ele>
        <time>2014-05-17T10:08:39Z</time>
      </trkpt>
      <trkpt lat="46.183250304311514" lon="6.189159080386162">
        <ele>378.79998779296875</ele>
        <time>2014-05-17T10:08:41Z</time>
      </trkpt>
      <trkpt lat="46.183020640164614" lon="6.188997142016888">
        <ele>377.60000610351562</ele>
        <time>2014-05-17T10:08:44Z</time>
      </trkpt>
      <trkpt lat="46.182753844186664" lon="6.188835790380836">
        <ele>376.20001220703125</ele>
        <time>2014-05-17T10:08:47Z</time>
      </trkpt>
      <trkpt lat="46.182661894708872" lon="6.188783068209887">
        <ele>375.39999389648437</ele>
        <time>2014-05-17T10:08:48Z</time>
      </trkpt>
      <trkpt lat="46.182570112869143" lon="6.188729172572494">
        <ele>374.60000610351562</ele>
        <time>2014-05-17T10:08:49Z</time>
      </trkpt>
      <trkpt lat="46.182379759848118" lon="6.188630182296038">
        <ele>373.60000610351562</ele>
        <time>2014-05-17T10:08:51Z</time>
      </trkpt>
      <trkpt lat="46.181986564770341" lon="6.188430525362492">
        <ele>372.79998779296875</ele>
        <time>2014-05-17T10:08:55Z</time>
      </trkpt>
      <trkpt lat="46.181688169017434" lon="6.188274454325438">
        <ele>372.20001220703125</ele>
        <time>2014-05-17T10:08:58Z</time>
      </trkpt>
      <trkpt lat="46.181217860430479" lon="6.187979495152831">
        <ele>371.39999389648437</ele>
        <time>2014-05-17T10:09:03Z</time>
      </trkpt>
      <trkpt lat="46.181043013930321" lon="6.187824849039316">
        <ele>371.20001220703125</ele>
        <time>2014-05-17T10:09:05Z</time>
      </trkpt>
      <trkpt lat="46.180888954550028" lon="6.187643883749843">
        <ele>370</ele>
        <time>2014-05-17T10:09:07Z</time>
      </trkpt>
      <trkpt lat="46.18064965121448" lon="6.187215903773904">
        <ele>370.20001220703125</ele>
        <time>2014-05-17T10:09:11Z</time>
      </trkpt>
      <trkpt lat="46.180559461936355" lon="6.186985652893782">
        <ele>369.79998779296875</ele>
        <time>2014-05-17T10:09:13Z</time>
      </trkpt>
      <trkpt lat="46.180467763915658" lon="6.186624811962247">
        <ele>370.39999389648438</ele>
        <time>2014-05-17T10:09:16Z</time>
      </trkpt>
      <trkpt lat="46.180412443354726" lon="6.186009161174297">
        <ele>370.20001220703125</ele>
        <time>2014-05-17T10:09:21Z</time>
      </trkpt>
      <trkpt lat="46.180406827479601" lon="6.185769774019718">
        <ele>371.20001220703125</ele>
        <time>2014-05-17T10:09:23Z</time>
      </trkpt>
      <trkpt lat="46.180411437526345" lon="6.185531644150615">
        <ele>372.20001220703125</ele>
        <time>2014-05-17T10:09:25Z</time>
      </trkpt>
      <trkpt lat="46.18042484857142" lon="6.185064017772675">
        <ele>372</ele>
        <time>2014-05-17T10:09:29Z</time>
      </trkpt>
      <trkpt lat="46.180414957925677" lon="6.184411318972707">
        <ele>372.20001220703125</ele>
        <time>2014-05-17T10:09:35Z</time>
      </trkpt>
      <trkpt lat="46.180374221876264" lon="6.184010831639171">
        <ele>373.20001220703125</ele>
        <time>2014-05-17T10:09:39Z</time>
      </trkpt>
      <trkpt lat="46.180354524403811" lon="6.183917121961713">
        <ele>373.60000610351562</ele>
        <time>2014-05-17T10:09:40Z</time>
      </trkpt>
      <trkpt lat="46.18033055216074" lon="6.183828357607126">
        <ele>373.60000610351562</ele>
        <time>2014-05-17T10:09:41Z</time>
      </trkpt>
      <trkpt lat="46.180233657360077" lon="6.183594083413482">
        <ele>374</ele>
        <time>2014-05-17T10:09:44Z</time>
      </trkpt>
      <trkpt lat="46.180166434496641" lon="6.183438347652555">
        <ele>374.60000610351562</ele>
        <time>2014-05-17T10:09:46Z</time>
      </trkpt>
      <trkpt lat="46.179931154474616" lon="6.182909952476621">
        <ele>375.60000610351562</ele>
        <time>2014-05-17T10:09:53Z</time>
      </trkpt>
      <trkpt lat="46.179853873327374" lon="6.182766705751419">
        <ele>375.79998779296875</ele>
        <time>2014-05-17T10:09:55Z</time>
      </trkpt>
      <trkpt lat="46.179740717634559" lon="6.182652292773128">
        <ele>375.60000610351562</ele>
        <time>2014-05-17T10:09:57Z</time>
      </trkpt>
      <trkpt lat="46.179541815072298" lon="6.182572664692998">
        <ele>375.39999389648437</ele>
        <time>2014-05-17T10:10:00Z</time>
      </trkpt>
      <trkpt lat="46.179471574723721" lon="6.18256252259016">
        <ele>375.39999389648437</ele>
        <time>2014-05-17T10:10:01Z</time>
      </trkpt>
      <trkpt lat="46.179122971370816" lon="6.182496892288327">
        <ele>374.79998779296875</ele>
        <time>2014-05-17T10:10:06Z</time>
      </trkpt>
      <trkpt lat="46.179054910317063" lon="6.182468393817544">
        <ele>374.60000610351562</ele>
        <time>2014-05-17T10:10:07Z</time>
      </trkpt>
      <trkpt lat="46.178864808753133" lon="6.182339815422893">
        <ele>375</ele>
        <time>2014-05-17T10:10:10Z</time>
      </trkpt>
      <trkpt lat="46.178763890638947" lon="6.182210398837924">
        <ele>375.60000610351562</ele>
        <time>2014-05-17T10:10:12Z</time>
      </trkpt>
      <trkpt lat="46.178679903969169" lon="6.182070001959801">
        <ele>375.79998779296875</ele>
        <time>2014-05-17T10:10:14Z</time>
      </trkpt>
      <trkpt lat="46.178570101037621" lon="6.181861963123083">
        <ele>377</ele>
        <time>2014-05-17T10:10:17Z</time>
      </trkpt>
      <trkpt lat="46.178442109376192" lon="6.181604890152812">
        <ele>378.20001220703125</ele>
        <time>2014-05-17T10:10:21Z</time>
      </trkpt>
      <trkpt lat="46.178355272859335" lon="6.18144596926868">
        <ele>379.20001220703125</ele>
        <time>2014-05-17T10:10:24Z</time>
      </trkpt>
      <trkpt lat="46.178299281746149" lon="6.181346140801907">
        <ele>379.79998779296875</ele>
        <time>2014-05-17T10:10:26Z</time>
      </trkpt>
      <trkpt lat="46.178248152136803" lon="6.181247988715768">
        <ele>380.60000610351562</ele>
        <time>2014-05-17T10:10:28Z</time>
      </trkpt>
      <trkpt lat="46.178151676431298" lon="6.181080183014274">
        <ele>381.79998779296875</ele>
        <time>2014-05-17T10:10:32Z</time>
      </trkpt>
      <trkpt lat="46.178104570135474" lon="6.180997453629971">
        <ele>382.20001220703125</ele>
        <time>2014-05-17T10:10:34Z</time>
      </trkpt>
      <trkpt lat="46.178036257624626" lon="6.18087281472981">
        <ele>383</ele>
        <time>2014-05-17T10:10:37Z</time>
      </trkpt>
      <trkpt lat="46.177973560988903" lon="6.180752702057362">
        <ele>383.79998779296875</ele>
        <time>2014-05-17T10:10:40Z</time>
      </trkpt>
      <trkpt lat="46.177952187135816" lon="6.18071305565536">
        <ele>384.20001220703125</ele>
        <time>2014-05-17T10:10:41Z</time>
      </trkpt>
      <trkpt lat="46.177853783592582" lon="6.180545417591929">
        <ele>385.39999389648437</ele>
        <time>2014-05-17T10:10:46Z</time>
      </trkpt>
      <trkpt lat="46.177748003974557" lon="6.18035338819027">
        <ele>386.39999389648437</ele>
        <time>2014-05-17T10:10:51Z</time>
      </trkpt>
      <trkpt lat="46.177647756412625" lon="6.180218607187271">
        <ele>387.39999389648438</ele>
        <time>2014-05-17T10:10:55Z</time>
      </trkpt>
      <trkpt lat="46.177559746429324" lon="6.18010419420898">
        <ele>388</ele>
        <time>2014-05-17T10:10:58Z</time>
      </trkpt>
      <trkpt lat="46.177494954317808" lon="6.180032193660736">
        <ele>388.60000610351562</ele>
        <time>2014-05-17T10:11:00Z</time>
      </trkpt>
      <trkpt lat="46.17731767706573" lon="6.179861957207322">
        <ele>389.79998779296875</ele>
        <time>2014-05-17T10:11:05Z</time>
      </trkpt>
      <trkpt lat="46.177072254940867" lon="6.179730445146561">
        <ele>391</ele>
        <time>2014-05-17T10:11:11Z</time>
      </trkpt>
      <trkpt lat="46.177026908844709" lon="6.179716531187296">
        <ele>391.20001220703125</ele>
        <time>2014-05-17T10:11:12Z</time>
      </trkpt>
      <trkpt lat="46.176817109808326" lon="6.179674537852407">
        <ele>391.79998779296875</ele>
        <time>2014-05-17T10:11:17Z</time>
      </trkpt>
      <trkpt lat="46.176740080118179" lon="6.179613852873445">
        <ele>391.79998779296875</ele>
        <time>2014-05-17T10:11:19Z</time>
      </trkpt>
      <trkpt lat="46.176676293835044" lon="6.179523831233382">
        <ele>392.39999389648437</ele>
        <time>2014-05-17T10:11:21Z</time>
      </trkpt>
      <trkpt lat="46.176595073193312" lon="6.179356947541237">
        <ele>392.60000610351562</ele>
        <time>2014-05-17T10:11:24Z</time>
      </trkpt>
      <trkpt lat="46.176576297730207" lon="6.17928721010685">
        <ele>392.60000610351562</ele>
        <time>2014-05-17T10:11:25Z</time>
      </trkpt>
      <trkpt lat="46.176475631073117" lon="6.178950760513544">
        <ele>393.20001220703125</ele>
        <time>2014-05-17T10:11:30Z</time>
      </trkpt>
      <trkpt lat="46.176358032971621" lon="6.178574580699205">
        <ele>392.39999389648437</ele>
        <time>2014-05-17T10:11:35Z</time>
      </trkpt>
      <trkpt lat="46.176218893378973" lon="6.178100667893887">
        <ele>392.39999389648437</ele>
        <time>2014-05-17T10:11:41Z</time>
      </trkpt>
      <trkpt lat="46.176020409911871" lon="6.17743045091629">
        <ele>392.60000610351562</ele>
        <time>2014-05-17T10:11:49Z</time>
      </trkpt>
      <trkpt lat="46.175853023305535" lon="6.176875652745366">
        <ele>392.79998779296875</ele>
        <time>2014-05-17T10:11:56Z</time>
      </trkpt>
      <trkpt lat="46.175742968916893" lon="6.17650056257844">
        <ele>393.20001220703125</ele>
        <time>2014-05-17T10:12:01Z</time>
      </trkpt>
      <trkpt lat="46.175722852349281" lon="6.176424957811832">
        <ele>393.39999389648438</ele>
        <time>2014-05-17T10:12:02Z</time>
      </trkpt>
      <trkpt lat="46.175594190135598" lon="6.175961941480637">
        <ele>393.60000610351562</ele>
        <time>2014-05-17T10:12:08Z</time>
      </trkpt>
      <trkpt lat="46.175486231222749" lon="6.175577044487">
        <ele>393.20001220703125</ele>
        <time>2014-05-17T10:12:13Z</time>
      </trkpt>
      <trkpt lat="46.17544574663043" lon="6.1754285171628">
        <ele>393.20001220703125</ele>
        <time>2014-05-17T10:12:15Z</time>
      </trkpt>
      <trkpt lat="46.175331249833107" lon="6.174974050372839">
        <ele>393.60000610351562</ele>
        <time>2014-05-17T10:12:21Z</time>
      </trkpt>
      <trkpt lat="46.175270648673177" lon="6.174738183617592">
        <ele>394</ele>
        <time>2014-05-17T10:12:25Z</time>
      </trkpt>
      <trkpt lat="46.175184147432446" lon="6.174373738467693">
        <ele>394</ele>
        <time>2014-05-17T10:12:30Z</time>
      </trkpt>
      <trkpt lat="46.175073254853487" lon="6.173879876732826">
        <ele>393.79998779296875</ele>
        <time>2014-05-17T10:12:36Z</time>
      </trkpt>
      <trkpt lat="46.175022376701236" lon="6.173637807369232">
        <ele>394</ele>
        <time>2014-05-17T10:12:39Z</time>
      </trkpt>
      <trkpt lat="46.174987172707915" lon="6.173467822372913">
        <ele>394</ele>
        <time>2014-05-17T10:12:41Z</time>
      </trkpt>
      <trkpt lat="46.174969738349319" lon="6.173380399122834">
        <ele>394</ele>
        <time>2014-05-17T10:12:42Z</time>
      </trkpt>
      <trkpt lat="46.17492288351059" lon="6.173125673085451">
        <ele>394.39999389648437</ele>
        <time>2014-05-17T10:12:45Z</time>
      </trkpt>
      <trkpt lat="46.174902599304914" lon="6.173050152137876">
        <ele>394.39999389648437</ele>
        <time>2014-05-17T10:12:46Z</time>
      </trkpt>
      <trkpt lat="46.174821881577373" lon="6.172672882676125">
        <ele>395</ele>
        <time>2014-05-17T10:12:51Z</time>
      </trkpt>
      <trkpt lat="46.174787934869528" lon="6.172521924600005">
        <ele>395.60000610351562</ele>
        <time>2014-05-17T10:12:53Z</time>
      </trkpt>
      <trkpt lat="46.174742924049497" lon="6.172295026481152">
        <ele>396.20001220703125</ele>
        <time>2014-05-17T10:12:56Z</time>
      </trkpt>
      <trkpt lat="46.174713252112269" lon="6.172094363719225">
        <ele>396.79998779296875</ele>
        <time>2014-05-17T10:12:59Z</time>
      </trkpt>
      <trkpt lat="46.174684586003423" lon="6.171952374279499">
        <ele>397</ele>
        <time>2014-05-17T10:13:01Z</time>
      </trkpt>
      <trkpt lat="46.174669582396746" lon="6.171884061768651">
        <ele>397.39999389648437</ele>
        <time>2014-05-17T10:13:02Z</time>
      </trkpt>
      <trkpt lat="46.174643766134977" lon="6.171724135056138">
        <ele>398</ele>
        <time>2014-05-17T10:13:04Z</time>
      </trkpt>
      <trkpt lat="46.174631444737315" lon="6.171651715412736">
        <ele>398.20001220703125</ele>
        <time>2014-05-17T10:13:05Z</time>
      </trkpt>
      <trkpt lat="46.174618620425463" lon="6.171587342396379">
        <ele>398.20001220703125</ele>
        <time>2014-05-17T10:13:06Z</time>
      </trkpt>
      <trkpt lat="46.174608310684562" lon="6.171519951894879">
        <ele>398.39999389648437</ele>
        <time>2014-05-17T10:13:07Z</time>
      </trkpt>
      <trkpt lat="46.174585847184062" lon="6.171321887522936">
        <ele>399</ele>
        <time>2014-05-17T10:13:10Z</time>
      </trkpt>
      <trkpt lat="46.174575118348002" lon="6.171246869489551">
        <ele>399.20001220703125</ele>
        <time>2014-05-17T10:13:11Z</time>
      </trkpt>
      <trkpt lat="46.174502363428473" lon="6.170830707997084">
        <ele>399.60000610351562</ele>
        <time>2014-05-17T10:13:16Z</time>
      </trkpt>
      <trkpt lat="46.174474786967039" lon="6.170742027461529">
        <ele>399.39999389648437</ele>
        <time>2014-05-17T10:13:17Z</time>
      </trkpt>
      <trkpt lat="46.174349226057529" lon="6.170170549303293">
        <ele>398.60000610351562</ele>
        <time>2014-05-17T10:13:24Z</time>
      </trkpt>
      <trkpt lat="46.174316704273224" lon="6.169951027259231">
        <ele>399.20001220703125</ele>
        <time>2014-05-17T10:13:28Z</time>
      </trkpt>
      <trkpt lat="46.174265407025814" lon="6.169792609289289">
        <ele>399.79998779296875</ele>
        <time>2014-05-17T10:13:33Z</time>
      </trkpt>
      <trkpt lat="46.174237579107285" lon="6.169738713651896">
        <ele>400.60000610351562</ele>
        <time>2014-05-17T10:14:22Z</time>
      </trkpt>
      <trkpt lat="46.174141438677907" lon="6.16957082413137">
        <ele>399.39999389648437</ele>
        <time>2014-05-17T10:14:26Z</time>
      </trkpt>
      <trkpt lat="46.173988049849868" lon="6.169304195791483">
        <ele>398.20001220703125</ele>
        <time>2014-05-17T10:14:30Z</time>
      </trkpt>
      <trkpt lat="46.173950750380754" lon="6.169236050918698">
        <ele>398.20001220703125</ele>
        <time>2014-05-17T10:14:31Z</time>
      </trkpt>
      <trkpt lat="46.173882270231843" lon="6.169103449210525">
        <ele>398</ele>
        <time>2014-05-17T10:14:33Z</time>
      </trkpt>
      <trkpt lat="46.173776993528008" lon="6.168931871652603">
        <ele>398.79998779296875</ele>
        <time>2014-05-17T10:14:36Z</time>
      </trkpt>
      <trkpt lat="46.173706585541368" lon="6.168817961588502">
        <ele>399.39999389648437</ele>
        <time>2014-05-17T10:14:38Z</time>
      </trkpt>
      <trkpt lat="46.173610864207149" lon="6.168631045147777">
        <ele>399.60000610351562</ele>
        <time>2014-05-17T10:14:41Z</time>
      </trkpt>
      <trkpt lat="46.173514891415834" lon="6.168446559458971">
        <ele>400</ele>
        <time>2014-05-17T10:14:44Z</time>
      </trkpt>
      <trkpt lat="46.173450769856572" lon="6.168312029913068">
        <ele>400.39999389648437</ele>
        <time>2014-05-17T10:14:46Z</time>
      </trkpt>
      <trkpt lat="46.17341841571033" lon="6.16824422031641">
        <ele>400.60000610351562</ele>
        <time>2014-05-17T10:14:47Z</time>
      </trkpt>
      <trkpt lat="46.173222865909338" lon="6.167732002213597">
        <ele>400.20001220703125</ele>
        <time>2014-05-17T10:14:54Z</time>
      </trkpt>
      <trkpt lat="46.173173077404499" lon="6.167578529566526">
        <ele>399.79998779296875</ele>
        <time>2014-05-17T10:14:56Z</time>
      </trkpt>
      <trkpt lat="46.173107195645571" lon="6.16733537055552">
        <ele>399.60000610351562</ele>
        <time>2014-05-17T10:14:59Z</time>
      </trkpt>
      <trkpt lat="46.173085486516356" lon="6.167252389714122">
        <ele>399.39999389648437</ele>
        <time>2014-05-17T10:15:00Z</time>
      </trkpt>
      <trkpt lat="46.17297325283289" lon="6.166732460260391">
        <ele>399.79998779296875</ele>
        <time>2014-05-17T10:15:06Z</time>
      </trkpt>
      <trkpt lat="46.172861438244581" lon="6.166272880509496">
        <ele>398.20001220703125</ele>
        <time>2014-05-17T10:15:11Z</time>
      </trkpt>
      <trkpt lat="46.172803686931729" lon="6.165997115895152">
        <ele>398.20001220703125</ele>
        <time>2014-05-17T10:15:14Z</time>
      </trkpt>
      <trkpt lat="46.172649879008532" lon="6.165386158972979">
        <ele>397.79998779296875</ele>
        <time>2014-05-17T10:15:21Z</time>
      </trkpt>
      <trkpt lat="46.172465896233916" lon="6.164724659174681">
        <ele>398</ele>
        <time>2014-05-17T10:15:29Z</time>
      </trkpt>
      <trkpt lat="46.172323655337095" lon="6.164220655336976">
        <ele>397.60000610351562</ele>
        <time>2014-05-17T10:15:35Z</time>
      </trkpt>
      <trkpt lat="46.172302281484008" lon="6.164135579019785">
        <ele>397.39999389648437</ele>
        <time>2014-05-17T10:15:36Z</time>
      </trkpt>
      <trkpt lat="46.172253498807549" lon="6.163961654528976">
        <ele>397</ele>
        <time>2014-05-17T10:15:38Z</time>
      </trkpt>
      <trkpt lat="46.172156352549791" lon="6.163590420037508">
        <ele>396.20001220703125</ele>
        <time>2014-05-17T10:15:42Z</time>
      </trkpt>
      <trkpt lat="46.172134978696704" lon="6.163497632369399">
        <ele>395.79998779296875</ele>
        <time>2014-05-17T10:15:43Z</time>
      </trkpt>
      <trkpt lat="46.172007322311401" lon="6.163041489198804">
        <ele>395.60000610351562</ele>
        <time>2014-05-17T10:15:48Z</time>
      </trkpt>
      <trkpt lat="46.171955605968833" lon="6.16286194883287">
        <ele>395</ele>
        <time>2014-05-17T10:15:50Z</time>
      </trkpt>
      <trkpt lat="46.171906236559153" lon="6.162682911381126">
        <ele>394.79998779296875</ele>
        <time>2014-05-17T10:15:52Z</time>
      </trkpt>
      <trkpt lat="46.171793751418591" lon="6.16224286146462">
        <ele>395.79998779296875</ele>
        <time>2014-05-17T10:15:57Z</time>
      </trkpt>
      <trkpt lat="46.171611780300736" lon="6.161528304219246">
        <ele>395</ele>
        <time>2014-05-17T10:16:05Z</time>
      </trkpt>
      <trkpt lat="46.171434670686722" lon="6.160760102793574">
        <ele>394.79998779296875</ele>
        <time>2014-05-17T10:16:14Z</time>
      </trkpt>
      <trkpt lat="46.171412458643317" lon="6.160672595724464">
        <ele>394.39999389648437</ele>
        <time>2014-05-17T10:16:15Z</time>
      </trkpt>
      <trkpt lat="46.171366777271032" lon="6.160508142784238">
        <ele>394.20001220703125</ele>
        <time>2014-05-17T10:16:17Z</time>
      </trkpt>
      <trkpt lat="46.171246413141489" lon="6.1601906362921">
        <ele>395.39999389648437</ele>
        <time>2014-05-17T10:16:21Z</time>
      </trkpt>
      <trkpt lat="46.170990094542503" lon="6.159570124000311">
        <ele>395.79998779296875</ele>
        <time>2014-05-17T10:16:29Z</time>
      </trkpt>
      <trkpt lat="46.170959752053022" lon="6.15950214676559">
        <ele>396</ele>
        <time>2014-05-17T10:16:30Z</time>
      </trkpt>
      <trkpt lat="46.170862689614296" lon="6.159284887835383">
        <ele>397.20001220703125</ele>
        <time>2014-05-17T10:16:33Z</time>
      </trkpt>
      <trkpt lat="46.170775517821312" lon="6.159077687188983">
        <ele>397.39999389648437</ele>
        <time>2014-05-17T10:16:36Z</time>
      </trkpt>
      <trkpt lat="46.170685580000281" lon="6.158886160701513">
        <ele>398.20001220703125</ele>
        <time>2014-05-17T10:16:39Z</time>
      </trkpt>
      <trkpt lat="46.170563707128167" lon="6.158630093559623">
        <ele>398.79998779296875</ele>
        <time>2014-05-17T10:16:44Z</time>
      </trkpt>
      <trkpt lat="46.17053646594286" lon="6.158563373610377">
        <ele>399</ele>
        <time>2014-05-17T10:16:45Z</time>
      </trkpt>
      <trkpt lat="46.170454658567905" lon="6.158369416370988">
        <ele>399.39999389648437</ele>
        <time>2014-05-17T10:16:48Z</time>
      </trkpt>
      <trkpt lat="46.170423310250044" lon="6.158302612602711">
        <ele>399.60000610351562</ele>
        <time>2014-05-17T10:16:49Z</time>
      </trkpt>
      <trkpt lat="46.17024234496057" lon="6.157901454716921">
        <ele>400.20001220703125</ele>
        <time>2014-05-17T10:16:55Z</time>
      </trkpt>
      <trkpt lat="46.170086357742548" lon="6.157557964324951">
        <ele>400.60000610351562</ele>
        <time>2014-05-17T10:17:00Z</time>
      </trkpt>
      <trkpt lat="46.1699955817312" lon="6.157350679859519">
        <ele>401.39999389648437</ele>
        <time>2014-05-17T10:17:03Z</time>
      </trkpt>
      <trkpt lat="46.169901704415679" lon="6.15715186111629">
        <ele>401.60000610351562</ele>
        <time>2014-05-17T10:17:06Z</time>
      </trkpt>
      <trkpt lat="46.169819226488471" lon="6.156944828107953">
        <ele>402.20001220703125</ele>
        <time>2014-05-17T10:17:09Z</time>
      </trkpt>
      <trkpt lat="46.169730545952916" lon="6.156748775392771">
        <ele>402.79998779296875</ele>
        <time>2014-05-17T10:17:12Z</time>
      </trkpt>
      <trkpt lat="46.169586544856429" lon="6.156436465680599">
        <ele>403.60000610351562</ele>
        <time>2014-05-17T10:17:17Z</time>
      </trkpt>
      <trkpt lat="46.169360568746924" lon="6.156035726889968">
        <ele>403.39999389648437</ele>
        <time>2014-05-17T10:17:23Z</time>
      </trkpt>
      <trkpt lat="46.169126043096185" lon="6.155864903703332">
        <ele>403.39999389648437</ele>
        <time>2014-05-17T10:17:27Z</time>
      </trkpt>
      <trkpt lat="46.16856973618269" lon="6.155545972287655">
        <ele>403</ele>
        <time>2014-05-17T10:17:36Z</time>
      </trkpt>
      <trkpt lat="46.168052656576037" lon="6.155263334512711">
        <ele>402.60000610351562</ele>
        <time>2014-05-17T10:17:44Z</time>
      </trkpt>
      <trkpt lat="46.167572708800435" lon="6.154952701181173">
        <ele>401.60000610351562</ele>
        <time>2014-05-17T10:17:51Z</time>
      </trkpt>
      <trkpt lat="46.16706526838243" lon="6.154630919918418">
        <ele>400.79998779296875</ele>
        <time>2014-05-17T10:17:58Z</time>
      </trkpt>
      <trkpt lat="46.166993519291282" lon="6.15457727573812">
        <ele>400.60000610351562</ele>
        <time>2014-05-17T10:17:59Z</time>
      </trkpt>
      <trkpt lat="46.166767124086618" lon="6.154416929930449">
        <ele>399.20001220703125</ele>
        <time>2014-05-17T10:18:02Z</time>
      </trkpt>
      <trkpt lat="46.166610047221184" lon="6.154306707903743">
        <ele>398.20001220703125</ele>
        <time>2014-05-17T10:18:04Z</time>
      </trkpt>
      <trkpt lat="46.166454143822193" lon="6.154191792011261">
        <ele>397.79998779296875</ele>
        <time>2014-05-17T10:18:06Z</time>
      </trkpt>
      <trkpt lat="46.165983583778143" lon="6.153908483684063">
        <ele>399.20001220703125</ele>
        <time>2014-05-17T10:18:12Z</time>
      </trkpt>
      <trkpt lat="46.165581755340099" lon="6.153832878917456">
        <ele>398.79998779296875</ele>
        <time>2014-05-17T10:18:17Z</time>
      </trkpt>
      <trkpt lat="46.165169198065996" lon="6.153784263879061">
        <ele>399.79998779296875</ele>
        <time>2014-05-17T10:18:23Z</time>
      </trkpt>
      <trkpt lat="46.16510633379221" lon="6.153760543093085">
        <ele>400.20001220703125</ele>
        <time>2014-05-17T10:18:24Z</time>
      </trkpt>
      <trkpt lat="46.164872394874692" lon="6.153654847294092">
        <ele>401.20001220703125</ele>
        <time>2014-05-17T10:18:28Z</time>
      </trkpt>
      <trkpt lat="46.164818163961172" lon="6.153624504804611">
        <ele>401.39999389648437</ele>
        <time>2014-05-17T10:18:29Z</time>
      </trkpt>
      <trkpt lat="46.164512224495411" lon="6.153405737131834">
        <ele>402.20001220703125</ele>
        <time>2014-05-17T10:18:35Z</time>
      </trkpt>
      <trkpt lat="46.164461597800255" lon="6.153367850929499">
        <ele>402.39999389648437</ele>
        <time>2014-05-17T10:18:36Z</time>
      </trkpt>
      <trkpt lat="46.164202764630318" lon="6.153180934488773">
        <ele>403.60000610351562</ele>
        <time>2014-05-17T10:18:41Z</time>
      </trkpt>
      <trkpt lat="46.164153479039669" lon="6.153143970295787">
        <ele>403.60000610351562</ele>
        <time>2014-05-17T10:18:42Z</time>
      </trkpt>
      <trkpt lat="46.164002856239676" lon="6.15303123369813">
        <ele>404.60000610351562</ele>
        <time>2014-05-17T10:18:45Z</time>
      </trkpt>
      <trkpt lat="46.163807641714811" lon="6.152894105762243">
        <ele>405.20001220703125</ele>
        <time>2014-05-17T10:18:49Z</time>
      </trkpt>
      <trkpt lat="46.163621647283435" lon="6.152764772996306">
        <ele>405.79998779296875</ele>
        <time>2014-05-17T10:18:53Z</time>
      </trkpt>
      <trkpt lat="46.163389636203647" lon="6.152605265378952">
        <ele>406.79998779296875</ele>
        <time>2014-05-17T10:18:58Z</time>
      </trkpt>
      <trkpt lat="46.16334144026041" lon="6.152569726109505">
        <ele>407</ele>
        <time>2014-05-17T10:18:59Z</time>
      </trkpt>
      <trkpt lat="46.163123175501823" lon="6.152421114966273">
        <ele>408.20001220703125</ele>
        <time>2014-05-17T10:19:04Z</time>
      </trkpt>
      <trkpt lat="46.163035416975617" lon="6.152382642030716">
        <ele>408.60000610351562</ele>
        <time>2014-05-17T10:19:06Z</time>
      </trkpt>
      <trkpt lat="46.162810949608684" lon="6.152294045314193">
        <ele>409.39999389648437</ele>
        <time>2014-05-17T10:19:11Z</time>
      </trkpt>
      <trkpt lat="46.162766860798001" lon="6.152273593470454">
        <ele>409.39999389648437</ele>
        <time>2014-05-17T10:19:12Z</time>
      </trkpt>
      <trkpt lat="46.162721179425716" lon="6.152256326749921">
        <ele>409.39999389648437</ele>
        <time>2014-05-17T10:19:13Z</time>
      </trkpt>
      <trkpt lat="46.162538286298513" lon="6.152191702276468">
        <ele>410</ele>
        <time>2014-05-17T10:19:17Z</time>
      </trkpt>
      <trkpt lat="46.162446169182658" lon="6.152144595980644">
        <ele>410.39999389648438</ele>
        <time>2014-05-17T10:19:19Z</time>
      </trkpt>
      <trkpt lat="46.162402834743261" lon="6.152117941528559">
        <ele>410.79998779296875</ele>
        <time>2014-05-17T10:19:20Z</time>
      </trkpt>
      <trkpt lat="46.162001676857471" lon="6.151859862729907">
        <ele>411</ele>
        <time>2014-05-17T10:19:29Z</time>
      </trkpt>
      <trkpt lat="46.161829344928265" lon="6.151742599904537">
        <ele>411.39999389648437</ele>
        <time>2014-05-17T10:19:33Z</time>
      </trkpt>
      <trkpt lat="46.16178659722209" lon="6.151714688166976">
        <ele>411.79998779296875</ele>
        <time>2014-05-17T10:19:34Z</time>
      </trkpt>
      <trkpt lat="46.161700347438455" lon="6.151653667911887">
        <ele>412.39999389648437</ele>
        <time>2014-05-17T10:19:36Z</time>
      </trkpt>
      <trkpt lat="46.161654917523265" lon="6.151626594364643">
        <ele>412.39999389648437</ele>
        <time>2014-05-17T10:19:37Z</time>
      </trkpt>
      <trkpt lat="46.161483759060502" lon="6.151512349024415">
        <ele>413</ele>
        <time>2014-05-17T10:19:41Z</time>
      </trkpt>
      <trkpt lat="46.161390636116266" lon="6.15146373398602">
        <ele>413</ele>
        <time>2014-05-17T10:19:43Z</time>
      </trkpt>
      <trkpt lat="46.16102434694767" lon="6.151279332116246">
        <ele>412.39999389648437</ele>
        <time>2014-05-17T10:19:50Z</time>
      </trkpt>
      <trkpt lat="46.160755706951022" lon="6.151152597740293">
        <ele>412.79998779296875</ele>
        <time>2014-05-17T10:19:55Z</time>
      </trkpt>
      <trkpt lat="46.160535514354706" lon="6.151034999638796">
        <ele>413.20001220703125</ele>
        <time>2014-05-17T10:19:59Z</time>
      </trkpt>
      <trkpt lat="46.160416742786765" lon="6.150962747633457">
        <ele>413</ele>
        <time>2014-05-17T10:20:01Z</time>
      </trkpt>
      <trkpt lat="46.160008376464248" lon="6.150633506476879">
        <ele>412.60000610351562</ele>
        <time>2014-05-17T10:20:08Z</time>
      </trkpt>
      <trkpt lat="46.15971433930099" lon="6.150381546467543">
        <ele>414.39999389648437</ele>
        <time>2014-05-17T10:20:14Z</time>
      </trkpt>
      <trkpt lat="46.159526752308011" lon="6.150248106569052">
        <ele>415.39999389648437</ele>
        <time>2014-05-17T10:20:18Z</time>
      </trkpt>
      <trkpt lat="46.159329442307353" lon="6.150144170969725">
        <ele>416.20001220703125</ele>
        <time>2014-05-17T10:20:22Z</time>
      </trkpt>
      <trkpt lat="46.159127103164792" lon="6.150065632537007">
        <ele>416.60000610351562</ele>
        <time>2014-05-17T10:20:26Z</time>
      </trkpt>
      <trkpt lat="46.158912191167474" lon="6.150015341117978">
        <ele>416.60000610351562</ele>
        <time>2014-05-17T10:20:30Z</time>
      </trkpt>
      <trkpt lat="46.158645311370492" lon="6.150043085217476">
        <ele>416.79998779296875</ele>
        <time>2014-05-17T10:20:35Z</time>
      </trkpt>
      <trkpt lat="46.15859535522759" lon="6.150065464898944">
        <ele>417</ele>
        <time>2014-05-17T10:20:36Z</time>
      </trkpt>
      <trkpt lat="46.158339874818921" lon="6.150189097970724">
        <ele>417.60000610351562</ele>
        <time>2014-05-17T10:20:41Z</time>
      </trkpt>
      <trkpt lat="46.158290756866336" lon="6.150215920060873">
        <ele>417.79998779296875</ele>
        <time>2014-05-17T10:20:42Z</time>
      </trkpt>
      <trkpt lat="46.157982721924782" lon="6.150334859266877">
        <ele>418.79998779296875</ele>
        <time>2014-05-17T10:20:48Z</time>
      </trkpt>
      <trkpt lat="46.157561615109444" lon="6.150406943634152">
        <ele>419.39999389648437</ele>
        <time>2014-05-17T10:20:56Z</time>
      </trkpt>
      <trkpt lat="46.157412668690085" lon="6.150438962504268">
        <ele>420.20001220703125</ele>
        <time>2014-05-17T10:20:59Z</time>
      </trkpt>
      <trkpt lat="46.157176634296775" lon="6.150478022173047">
        <ele>421.20001220703125</ele>
        <time>2014-05-17T10:21:04Z</time>
      </trkpt>
      <trkpt lat="46.157130114734173" lon="6.150484727695584">
        <ele>421.39999389648437</ele>
        <time>2014-05-17T10:21:05Z</time>
      </trkpt>
      <trkpt lat="46.156898522749543" lon="6.150523955002427">
        <ele>422.39999389648437</ele>
        <time>2014-05-17T10:21:10Z</time>
      </trkpt>
      <trkpt lat="46.156754521653056" lon="6.150536024942994">
        <ele>422.79998779296875</ele>
        <time>2014-05-17T10:21:13Z</time>
      </trkpt>
      <trkpt lat="46.156455371528864" lon="6.150548765435815">
        <ele>423.39999389648437</ele>
        <time>2014-05-17T10:21:19Z</time>
      </trkpt>
      <trkpt lat="46.156298713758588" lon="6.150543820112944">
        <ele>423.39999389648437</ele>
        <time>2014-05-17T10:21:22Z</time>
      </trkpt>
      <trkpt lat="46.155786579474807" lon="6.150494450703263">
        <ele>424.39999389648438</ele>
        <time>2014-05-17T10:21:32Z</time>
      </trkpt>
      <trkpt lat="46.155733186751604" lon="6.150483973324299">
        <ele>424.39999389648438</ele>
        <time>2014-05-17T10:21:33Z</time>
      </trkpt>
      <trkpt lat="46.155366227030754" lon="6.150362687185407">
        <ele>424.79998779296875</ele>
        <time>2014-05-17T10:21:40Z</time>
      </trkpt>
      <trkpt lat="46.155086942017078" lon="6.150135202333331">
        <ele>425.60000610351562</ele>
        <time>2014-05-17T10:21:46Z</time>
      </trkpt>
      <trkpt lat="46.154758119955659" lon="6.149860108271241">
        <ele>426.20001220703125</ele>
        <time>2014-05-17T10:21:53Z</time>
      </trkpt>
      <trkpt lat="46.154423849657178" lon="6.149734714999795">
        <ele>426.20001220703125</ele>
        <time>2014-05-17T10:21:59Z</time>
      </trkpt>
      <trkpt lat="46.15420307032764" lon="6.149693559855223">
        <ele>427</ele>
        <time>2014-05-17T10:22:03Z</time>
      </trkpt>
      <trkpt lat="46.154047921299934" lon="6.149677382782102">
        <ele>428.20001220703125</ele>
        <time>2014-05-17T10:22:06Z</time>
      </trkpt>
      <trkpt lat="46.153735611587763" lon="6.149654081091285">
        <ele>429.20001220703125</ele>
        <time>2014-05-17T10:22:12Z</time>
      </trkpt>
      <trkpt lat="46.153567973524332" lon="6.149649890139699">
        <ele>430</ele>
        <time>2014-05-17T10:22:15Z</time>
      </trkpt>
      <trkpt lat="46.153455153107643" lon="6.149636646732688">
        <ele>430.39999389648437</ele>
        <time>2014-05-17T10:22:17Z</time>
      </trkpt>
      <trkpt lat="46.153093976899981" lon="6.149621810764074">
        <ele>430.39999389648437</ele>
        <time>2014-05-17T10:22:23Z</time>
      </trkpt>
      <trkpt lat="46.152651160955429" lon="6.1496118362993">
        <ele>431</ele>
        <time>2014-05-17T10:22:30Z</time>
      </trkpt>
      <trkpt lat="46.152137937024236" lon="6.149627845734358">
        <ele>431.39999389648437</ele>
        <time>2014-05-17T10:22:38Z</time>
      </trkpt>
      <trkpt lat="46.152014471590519" lon="6.149628264829516">
        <ele>432</ele>
        <time>2014-05-17T10:22:40Z</time>
      </trkpt>
      <trkpt lat="46.151772905141115" lon="6.149633293971419">
        <ele>432.60000610351562</ele>
        <time>2014-05-17T10:22:44Z</time>
      </trkpt>
      <trkpt lat="46.151500074192882" lon="6.149648213759065">
        <ele>433.39999389648437</ele>
        <time>2014-05-17T10:22:49Z</time>
      </trkpt>
      <trkpt lat="46.151447352021933" lon="6.149648129940033">
        <ele>433.79998779296875</ele>
        <time>2014-05-17T10:22:50Z</time>
      </trkpt>
      <trkpt lat="46.151245096698403" lon="6.149640083312988">
        <ele>434.60000610351562</ele>
        <time>2014-05-17T10:22:54Z</time>
      </trkpt>
      <trkpt lat="46.151196146383882" lon="6.149637904018164">
        <ele>434.79998779296875</ele>
        <time>2014-05-17T10:22:55Z</time>
      </trkpt>
      <trkpt lat="46.151149543002248" lon="6.149638323113322">
        <ele>435</ele>
        <time>2014-05-17T10:22:56Z</time>
      </trkpt>
      <trkpt lat="46.151014510542154" lon="6.149644693359733">
        <ele>435.79998779296875</ele>
        <time>2014-05-17T10:22:59Z</time>
      </trkpt>
      <trkpt lat="46.150968661531806" lon="6.14964502863586">
        <ele>436</ele>
        <time>2014-05-17T10:23:00Z</time>
      </trkpt>
      <trkpt lat="46.150879897177219" lon="6.149638658389449">
        <ele>436.20001220703125</ele>
        <time>2014-05-17T10:23:02Z</time>
      </trkpt>
      <trkpt lat="46.150792641565204" lon="6.149633210152388">
        <ele>436.39999389648437</ele>
        <time>2014-05-17T10:23:04Z</time>
      </trkpt>
      <trkpt lat="46.150626260787249" lon="6.149638071656227">
        <ele>437.20001220703125</ele>
        <time>2014-05-17T10:23:08Z</time>
      </trkpt>
      <trkpt lat="46.150453928858042" lon="6.149662379175425">
        <ele>438</ele>
        <time>2014-05-17T10:23:12Z</time>
      </trkpt>
      <trkpt lat="46.150383017957211" lon="6.149701355025172">
        <ele>438</ele>
        <time>2014-05-17T10:23:14Z</time>
      </trkpt>
      <trkpt lat="46.150263659656048" lon="6.149824569001794">
        <ele>438.20001220703125</ele>
        <time>2014-05-17T10:23:18Z</time>
      </trkpt>
      <trkpt lat="46.150239435955882" lon="6.149850552901626">
        <ele>438.39999389648437</ele>
        <time>2014-05-17T10:23:19Z</time>
      </trkpt>
      <trkpt lat="46.150152096524835" lon="6.149864718317986">
        <ele>438.79998779296875</ele>
        <time>2014-05-17T10:23:23Z</time>
      </trkpt>
      <trkpt lat="46.150031983852386" lon="6.149747790768743">
        <ele>439</ele>
        <time>2014-05-17T10:23:27Z</time>
      </trkpt>
      <trkpt lat="46.149784801527858" lon="6.149496166035533">
        <ele>439</ele>
        <time>2014-05-17T10:23:33Z</time>
      </trkpt>
      <trkpt lat="46.1494648642838" lon="6.149267088621855">
        <ele>439</ele>
        <time>2014-05-17T10:23:39Z</time>
      </trkpt>
      <trkpt lat="46.149075692519546" lon="6.14911881275475">
        <ele>438.79998779296875</ele>
        <time>2014-05-17T10:23:45Z</time>
      </trkpt>
      <trkpt lat="46.148515362292528" lon="6.148996101692319">
        <ele>438.39999389648437</ele>
        <time>2014-05-17T10:23:53Z</time>
      </trkpt>
      <trkpt lat="46.148446882143617" lon="6.148981852456927">
        <ele>438.79998779296875</ele>
        <time>2014-05-17T10:23:54Z</time>
      </trkpt>
      <trkpt lat="46.148236747831106" lon="6.148939356207848">
        <ele>439.60000610351562</ele>
        <time>2014-05-17T10:23:57Z</time>
      </trkpt>
      <trkpt lat="46.147835925221443" lon="6.148797618225217">
        <ele>439.39999389648437</ele>
        <time>2014-05-17T10:24:03Z</time>
      </trkpt>
      <trkpt lat="46.147525375708938" lon="6.148600978776813">
        <ele>440.39999389648437</ele>
        <time>2014-05-17T10:24:08Z</time>
      </trkpt>
      <trkpt lat="46.14746930077672" lon="6.14854414947331">
        <ele>440.39999389648437</ele>
        <time>2014-05-17T10:24:09Z</time>
      </trkpt>
      <trkpt lat="46.147413644939661" lon="6.148486733436585">
        <ele>440.60000610351562</ele>
        <time>2014-05-17T10:24:10Z</time>
      </trkpt>
      <trkpt lat="46.147144753485918" lon="6.148226307705045">
        <ele>442.20001220703125</ele>
        <time>2014-05-17T10:24:15Z</time>
      </trkpt>
      <trkpt lat="46.147045260295272" lon="6.148120444267988">
        <ele>442.39999389648437</ele>
        <time>2014-05-17T10:24:17Z</time>
      </trkpt>
      <trkpt lat="46.146905198693275" lon="6.147965379059315">
        <ele>443.60000610351562</ele>
        <time>2014-05-17T10:24:20Z</time>
      </trkpt>
      <trkpt lat="46.146772094070911" lon="6.147805117070675">
        <ele>444.79998779296875</ele>
        <time>2014-05-17T10:24:23Z</time>
      </trkpt>
      <trkpt lat="46.14664058201015" lon="6.147632198408246">
        <ele>445.20001220703125</ele>
        <time>2014-05-17T10:24:26Z</time>
      </trkpt>
      <trkpt lat="46.146511500701308" lon="6.147458106279373">
        <ele>445.79998779296875</ele>
        <time>2014-05-17T10:24:29Z</time>
      </trkpt>
      <trkpt lat="46.146170189604163" lon="6.147002549842">
        <ele>446.79998779296875</ele>
        <time>2014-05-17T10:24:37Z</time>
      </trkpt>
      <trkpt lat="46.146129118278623" lon="6.146947648376226">
        <ele>447</ele>
        <time>2014-05-17T10:24:38Z</time>
      </trkpt>
      <trkpt lat="46.145893419161439" lon="6.146621759980917">
        <ele>448.20001220703125</ele>
        <time>2014-05-17T10:24:44Z</time>
      </trkpt>
      <trkpt lat="46.145772719755769" lon="6.146452696993947">
        <ele>448.39999389648437</ele>
        <time>2014-05-17T10:24:47Z</time>
      </trkpt>
      <trkpt lat="46.145354546606541" lon="6.145875602960587">
        <ele>449</ele>
        <time>2014-05-17T10:24:57Z</time>
      </trkpt>
      <trkpt lat="46.145229069516063" lon="6.145693212747574">
        <ele>449.20001220703125</ele>
        <time>2014-05-17T10:25:00Z</time>
      </trkpt>
      <trkpt lat="46.145006362348795" lon="6.145385429263115">
        <ele>449</ele>
        <time>2014-05-17T10:25:05Z</time>
      </trkpt>
      <trkpt lat="46.144592296332121" lon="6.144818812608719">
        <ele>449.79998779296875</ele>
        <time>2014-05-17T10:25:14Z</time>
      </trkpt>
      <trkpt lat="46.144177727401257" lon="6.144195785745978">
        <ele>449.39999389648437</ele>
        <time>2014-05-17T10:25:23Z</time>
      </trkpt>
      <trkpt lat="46.143992403522134" lon="6.14390954375267">
        <ele>450.39999389648437</ele>
        <time>2014-05-17T10:25:27Z</time>
      </trkpt>
      <trkpt lat="46.143754525110126" lon="6.14357041195035">
        <ele>451</ele>
        <time>2014-05-17T10:25:32Z</time>
      </trkpt>
      <trkpt lat="46.143566770479083" lon="6.143307639285922">
        <ele>451.60000610351562</ele>
        <time>2014-05-17T10:25:36Z</time>
      </trkpt>
      <trkpt lat="46.143379854038358" lon="6.143075963482261">
        <ele>452</ele>
        <time>2014-05-17T10:25:40Z</time>
      </trkpt>
      <trkpt lat="46.143244737759233" lon="6.142915533855557">
        <ele>453</ele>
        <time>2014-05-17T10:25:43Z</time>
      </trkpt>
      <trkpt lat="46.143040638417006" lon="6.14264446310699">
        <ele>454</ele>
        <time>2014-05-17T10:25:48Z</time>
      </trkpt>
      <trkpt lat="46.142838802188635" lon="6.14221497438848">
        <ele>455</ele>
        <time>2014-05-17T10:25:55Z</time>
      </trkpt>
      <trkpt lat="46.142798233777285" lon="6.142086479812861">
        <ele>455.20001220703125</ele>
        <time>2014-05-17T10:25:57Z</time>
      </trkpt>
      <trkpt lat="46.142741739749908" lon="6.141901491209865">
        <ele>455.79998779296875</ele>
        <time>2014-05-17T10:26:00Z</time>
      </trkpt>
      <trkpt lat="46.142724975943565" lon="6.141840135678649">
        <ele>456</ele>
        <time>2014-05-17T10:26:01Z</time>
      </trkpt>
      <trkpt lat="46.142622465267777" lon="6.141451047733426">
        <ele>457</ele>
        <time>2014-05-17T10:26:07Z</time>
      </trkpt>
      <trkpt lat="46.142606288194656" lon="6.14138038828969">
        <ele>457</ele>
        <time>2014-05-17T10:26:08Z</time>
      </trkpt>
      <trkpt lat="46.1425004247576" lon="6.140952743589878">
        <ele>456.60000610351562</ele>
        <time>2014-05-17T10:26:14Z</time>
      </trkpt>
      <trkpt lat="46.142417779192328" lon="6.140609085559845">
        <ele>457.20001220703125</ele>
        <time>2014-05-17T10:26:19Z</time>
      </trkpt>
      <trkpt lat="46.14238073118031" lon="6.140484195202589">
        <ele>456.60000610351562</ele>
        <time>2014-05-17T10:26:21Z</time>
      </trkpt>
      <trkpt lat="46.142316441982985" lon="6.140265762805939">
        <ele>458.20001220703125</ele>
        <time>2014-05-17T10:26:25Z</time>
      </trkpt>
      <trkpt lat="46.14231082610786" lon="6.14020817913115">
        <ele>458.39999389648438</ele>
        <time>2014-05-17T10:26:26Z</time>
      </trkpt>
      <trkpt lat="46.142295151948929" lon="6.140026710927486">
        <ele>457.79998779296875</ele>
        <time>2014-05-17T10:26:29Z</time>
      </trkpt>
      <trkpt lat="46.14226003177464" lon="6.13992034457624">
        <ele>458.20001220703125</ele>
        <time>2014-05-17T10:26:31Z</time>
      </trkpt>
      <trkpt lat="46.142226420342922" lon="6.139842895790935">
        <ele>458.79998779296875</ele>
        <time>2014-05-17T10:26:33Z</time>
      </trkpt>
      <trkpt lat="46.142184846103191" lon="6.13972102291882">
        <ele>458.79998779296875</ele>
        <time>2014-05-17T10:26:36Z</time>
      </trkpt>
      <trkpt lat="46.142111252993345" lon="6.139402510598302">
        <ele>458.79998779296875</ele>
        <time>2014-05-17T10:26:43Z</time>
      </trkpt>
      <trkpt lat="46.142066828906536" lon="6.139140743762255">
        <ele>458.39999389648438</ele>
        <time>2014-05-17T10:26:48Z</time>
      </trkpt>
      <trkpt lat="46.1419668328017" lon="6.13861276768148">
        <ele>458.79998779296875</ele>
        <time>2014-05-17T10:26:56Z</time>
      </trkpt>
      <trkpt lat="46.141955349594355" lon="6.138542275875807">
        <ele>459.60000610351562</ele>
        <time>2014-05-17T10:26:57Z</time>
      </trkpt>
      <trkpt lat="46.141885947436094" lon="6.138207921758294">
        <ele>459.39999389648437</ele>
        <time>2014-05-17T10:27:02Z</time>
      </trkpt>
      <trkpt lat="46.141775976866484" lon="6.137741133570671">
        <ele>460.39999389648437</ele>
        <time>2014-05-17T10:27:09Z</time>
      </trkpt>
      <trkpt lat="46.141713112592697" lon="6.137485066428781">
        <ele>461.39999389648438</ele>
        <time>2014-05-17T10:27:13Z</time>
      </trkpt>
      <trkpt lat="46.141681764274836" lon="6.137355314567685">
        <ele>462.60000610351562</ele>
        <time>2014-05-17T10:27:15Z</time>
      </trkpt>
      <trkpt lat="46.141534745693207" lon="6.136727007105947">
        <ele>463</ele>
        <time>2014-05-17T10:27:24Z</time>
      </trkpt>
      <trkpt lat="46.141456039622426" lon="6.136382091790438">
        <ele>463.60000610351562</ele>
        <time>2014-05-17T10:27:29Z</time>
      </trkpt>
      <trkpt lat="46.141425278037786" lon="6.136241191998124">
        <ele>463.60000610351562</ele>
        <time>2014-05-17T10:27:31Z</time>
      </trkpt>
      <trkpt lat="46.141307847574353" lon="6.135622272267938">
        <ele>463</ele>
        <time>2014-05-17T10:27:39Z</time>
      </trkpt>
      <trkpt lat="46.14116401411593" lon="6.134933866560459">
        <ele>463.79998779296875</ele>
        <time>2014-05-17T10:27:47Z</time>
      </trkpt>
      <trkpt lat="46.141002494841814" lon="6.13420195877552">
        <ele>463.20001220703125</ele>
        <time>2014-05-17T10:27:55Z</time>
      </trkpt>
      <trkpt lat="46.140883136540651" lon="6.133612459525466">
        <ele>462.60000610351562</ele>
        <time>2014-05-17T10:28:01Z</time>
      </trkpt>
      <trkpt lat="46.140820439904928" lon="6.13331557251513">
        <ele>462.20001220703125</ele>
        <time>2014-05-17T10:28:04Z</time>
      </trkpt>
      <trkpt lat="46.140679959207773" lon="6.132498336955905">
        <ele>462.79998779296875</ele>
        <time>2014-05-17T10:28:12Z</time>
      </trkpt>
      <trkpt lat="46.140506453812122" lon="6.131674814969301">
        <ele>462.39999389648437</ele>
        <time>2014-05-17T10:28:20Z</time>
      </trkpt>
      <trkpt lat="46.140329595655203" lon="6.131210876628757">
        <ele>463</ele>
        <time>2014-05-17T10:28:25Z</time>
      </trkpt>
      <trkpt lat="46.140237813815475" lon="6.131045501679182">
        <ele>462.79998779296875</ele>
        <time>2014-05-17T10:28:27Z</time>
      </trkpt>
      <trkpt lat="46.140121892094612" lon="6.130906110629439">
        <ele>462.79998779296875</ele>
        <time>2014-05-17T10:28:29Z</time>
      </trkpt>
      <trkpt lat="46.140002366155386" lon="6.130766468122602">
        <ele>462.39999389648437</ele>
        <time>2014-05-17T10:28:31Z</time>
      </trkpt>
      <trkpt lat="46.139907315373421" lon="6.130595561116934">
        <ele>462.39999389648437</ele>
        <time>2014-05-17T10:28:33Z</time>
      </trkpt>
      <trkpt lat="46.13959651440382" lon="6.129959542304277">
        <ele>463.60000610351562</ele>
        <time>2014-05-17T10:28:40Z</time>
      </trkpt>
      <trkpt lat="46.139505822211504" lon="6.129783187061548">
        <ele>464</ele>
        <time>2014-05-17T10:28:42Z</time>
      </trkpt>
      <trkpt lat="46.139469528570771" lon="6.129688555374742">
        <ele>464.20001220703125</ele>
        <time>2014-05-17T10:28:43Z</time>
      </trkpt>
      <trkpt lat="46.139417393133044" lon="6.129492083564401">
        <ele>464.79998779296875</ele>
        <time>2014-05-17T10:28:45Z</time>
      </trkpt>
      <trkpt lat="46.13938445225358" lon="6.129399882629514">
        <ele>465.39999389648437</ele>
        <time>2014-05-17T10:28:46Z</time>
      </trkpt>
      <trkpt lat="46.139297531917691" lon="6.129237441346049">
        <ele>466</ele>
        <time>2014-05-17T10:28:48Z</time>
      </trkpt>
      <trkpt lat="46.139201307669282" lon="6.129088830202818">
        <ele>466.39999389648437</ele>
        <time>2014-05-17T10:28:50Z</time>
      </trkpt>
      <trkpt lat="46.139098377898335" lon="6.128952959552407">
        <ele>467.20001220703125</ele>
        <time>2014-05-17T10:28:52Z</time>
      </trkpt>
      <trkpt lat="46.138892434537411" lon="6.128688845783472">
        <ele>468.20001220703125</ele>
        <time>2014-05-17T10:28:56Z</time>
      </trkpt>
      <trkpt lat="46.138841221109033" lon="6.128622461110354">
        <ele>468.39999389648437</ele>
        <time>2014-05-17T10:28:57Z</time>
      </trkpt>
      <trkpt lat="46.138717588037252" lon="6.128405453637242">
        <ele>469</ele>
        <time>2014-05-17T10:29:00Z</time>
      </trkpt>
      <trkpt lat="46.138696214184165" lon="6.128316270187497">
        <ele>469.39999389648437</ele>
        <time>2014-05-17T10:29:01Z</time>
      </trkpt>
      <trkpt lat="46.138701494783163" lon="6.128037236630917">
        <ele>469.39999389648437</ele>
        <time>2014-05-17T10:29:04Z</time>
      </trkpt>
      <trkpt lat="46.138820601627231" lon="6.127706570550799">
        <ele>470.20001220703125</ele>
        <time>2014-05-17T10:29:08Z</time>
      </trkpt>
      <trkpt lat="46.138863516971469" lon="6.127628702670336">
        <ele>470</ele>
        <time>2014-05-17T10:29:09Z</time>
      </trkpt>
      <trkpt lat="46.139011792838573" lon="6.127393171191216">
        <ele>468</ele>
        <time>2014-05-17T10:29:12Z</time>
      </trkpt>
      <trkpt lat="46.139060240238905" lon="6.127309268340468">
        <ele>467.79998779296875</ele>
        <time>2014-05-17T10:29:13Z</time>
      </trkpt>
      <trkpt lat="46.139212623238564" lon="6.127043813467026">
        <ele>466.79998779296875</ele>
        <time>2014-05-17T10:29:16Z</time>
      </trkpt>
      <trkpt lat="46.139379171654582" lon="6.126756984740496">
        <ele>465</ele>
        <time>2014-05-17T10:29:19Z</time>
      </trkpt>
      <trkpt lat="46.139438599348068" lon="6.126657659187913">
        <ele>464.20001220703125</ele>
        <time>2014-05-17T10:29:20Z</time>
      </trkpt>
      <trkpt lat="46.139500709250569" lon="6.126556573435664">
        <ele>463.60000610351562</ele>
        <time>2014-05-17T10:29:21Z</time>
      </trkpt>
      <trkpt lat="46.139685362577438" lon="6.126247700303793">
        <ele>462.20001220703125</ele>
        <time>2014-05-17T10:29:24Z</time>
      </trkpt>
      <trkpt lat="46.139924582093954" lon="6.125844782218337">
        <ele>460.39999389648437</ele>
        <time>2014-05-17T10:29:28Z</time>
      </trkpt>
      <trkpt lat="46.140299336984754" lon="6.125218905508518">
        <ele>458.79998779296875</ele>
        <time>2014-05-17T10:29:34Z</time>
      </trkpt>
      <trkpt lat="46.140426238998771" lon="6.125011201947928">
        <ele>457.39999389648437</ele>
        <time>2014-05-17T10:29:36Z</time>
      </trkpt>
      <trkpt lat="46.140742907300591" lon="6.124492697417736">
        <ele>456.39999389648437</ele>
        <time>2014-05-17T10:29:41Z</time>
      </trkpt>
      <trkpt lat="46.140928398817778" lon="6.124177789315581">
        <ele>455.20001220703125</ele>
        <time>2014-05-17T10:29:44Z</time>
      </trkpt>
      <trkpt lat="46.140987575054169" lon="6.124076200649142">
        <ele>455</ele>
        <time>2014-05-17T10:29:45Z</time>
      </trkpt>
      <trkpt lat="46.141395103186369" lon="6.123404810205102">
        <ele>454.20001220703125</ele>
        <time>2014-05-17T10:29:52Z</time>
      </trkpt>
      <trkpt lat="46.141450591385365" lon="6.123306071385741">
        <ele>454</ele>
        <time>2014-05-17T10:29:53Z</time>
      </trkpt>
      <trkpt lat="46.141813276335597" lon="6.122571900486946">
        <ele>454</ele>
        <time>2014-05-17T10:30:00Z</time>
      </trkpt>
      <trkpt lat="46.141859460622072" lon="6.122460504993796">
        <ele>453.79998779296875</ele>
        <time>2014-05-17T10:30:01Z</time>
      </trkpt>
      <trkpt lat="46.141982758417726" lon="6.122111734002829">
        <ele>453</ele>
        <time>2014-05-17T10:30:04Z</time>
      </trkpt>
      <trkpt lat="46.142081329599023" lon="6.121737733483315">
        <ele>452.20001220703125</ele>
        <time>2014-05-17T10:30:07Z</time>
      </trkpt>
      <trkpt lat="46.142164561897516" lon="6.121356189250946">
        <ele>451.79998779296875</ele>
        <time>2014-05-17T10:30:10Z</time>
      </trkpt>
      <trkpt lat="46.142223067581654" lon="6.120974561199546">
        <ele>451.60000610351562</ele>
        <time>2014-05-17T10:30:13Z</time>
      </trkpt>
      <trkpt lat="46.142290960997343" lon="6.120191523805261">
        <ele>451.20001220703125</ele>
        <time>2014-05-17T10:30:19Z</time>
      </trkpt>
      <trkpt lat="46.142298672348261" lon="6.120057078078389">
        <ele>450.79998779296875</ele>
        <time>2014-05-17T10:30:20Z</time>
      </trkpt>
      <trkpt lat="46.142306216061115" lon="6.119928248226643">
        <ele>450.79998779296875</ele>
        <time>2014-05-17T10:30:21Z</time>
      </trkpt>
      <trkpt lat="46.142339911311865" lon="6.119151748716831">
        <ele>450.60000610351562</ele>
        <time>2014-05-17T10:30:27Z</time>
      </trkpt>
      <trkpt lat="46.142373690381646" lon="6.118366196751595">
        <ele>450</ele>
        <time>2014-05-17T10:30:33Z</time>
      </trkpt>
      <trkpt lat="46.142379390075803" lon="6.118238624185324">
        <ele>450</ele>
        <time>2014-05-17T10:30:34Z</time>
      </trkpt>
      <trkpt lat="46.142407720908523" lon="6.117608640342951">
        <ele>449.79998779296875</ele>
        <time>2014-05-17T10:30:39Z</time>
      </trkpt>
      <trkpt lat="46.142438314855099" lon="6.116987625136972">
        <ele>450</ele>
        <time>2014-05-17T10:30:44Z</time>
      </trkpt>
      <trkpt lat="46.142478547990322" lon="6.11615102738142">
        <ele>448.39999389648437</ele>
        <time>2014-05-17T10:30:51Z</time>
      </trkpt>
      <trkpt lat="46.142484163865447" lon="6.116032674908638">
        <ele>448.39999389648437</ele>
        <time>2014-05-17T10:30:52Z</time>
      </trkpt>
      <trkpt lat="46.142521966248751" lon="6.115211751312017">
        <ele>449.20001220703125</ele>
        <time>2014-05-17T10:30:59Z</time>
      </trkpt>
      <trkpt lat="46.142536969855428" lon="6.114854095503688">
        <ele>448.60000610351562</ele>
        <time>2014-05-17T10:31:02Z</time>
      </trkpt>
      <trkpt lat="46.142577202990651" lon="6.114012887701392">
        <ele>447.60000610351562</ele>
        <time>2014-05-17T10:31:09Z</time>
      </trkpt>
      <trkpt lat="46.142584998160601" lon="6.11389210447669">
        <ele>447.39999389648438</ele>
        <time>2014-05-17T10:31:10Z</time>
      </trkpt>
      <trkpt lat="46.142591200768948" lon="6.113773081451654">
        <ele>447.39999389648438</ele>
        <time>2014-05-17T10:31:11Z</time>
      </trkpt>
      <trkpt lat="46.1426264885813" lon="6.112920893356204">
        <ele>448.20001220703125</ele>
        <time>2014-05-17T10:31:18Z</time>
      </trkpt>
      <trkpt lat="46.142645180225372" lon="6.112552592530847">
        <ele>448.20001220703125</ele>
        <time>2014-05-17T10:31:21Z</time>
      </trkpt>
      <trkpt lat="46.142685580998659" lon="6.111676683649421">
        <ele>446.20001220703125</ele>
        <time>2014-05-17T10:31:28Z</time>
      </trkpt>
      <trkpt lat="46.142716007307172" lon="6.111074443906546">
        <ele>445.60000610351562</ele>
        <time>2014-05-17T10:31:33Z</time>
      </trkpt>
      <trkpt lat="46.142751127481461" lon="6.110262991860509">
        <ele>446</ele>
        <time>2014-05-17T10:31:40Z</time>
      </trkpt>
      <trkpt lat="46.142768394201994" lon="6.110032992437482">
        <ele>446</ele>
        <time>2014-05-17T10:31:42Z</time>
      </trkpt>
      <trkpt lat="46.142805693671107" lon="6.109241489320993">
        <ele>445.60000610351562</ele>
        <time>2014-05-17T10:31:49Z</time>
      </trkpt>
      <trkpt lat="46.142817847430706" lon="6.109012076631188">
        <ele>445.60000610351562</ele>
        <time>2014-05-17T10:31:51Z</time>
      </trkpt>
      <trkpt lat="46.142861349508166" lon="6.108252089470625">
        <ele>446.39999389648437</ele>
        <time>2014-05-17T10:31:58Z</time>
      </trkpt>
      <trkpt lat="46.142871072515845" lon="6.108042541891336">
        <ele>445.20001220703125</ele>
        <time>2014-05-17T10:32:00Z</time>
      </trkpt>
      <trkpt lat="46.142908707261086" lon="6.107193287461996">
        <ele>445.39999389648437</ele>
        <time>2014-05-17T10:32:08Z</time>
      </trkpt>
      <trkpt lat="46.142930667847395" lon="6.106783747673035">
        <ele>444.20001220703125</ele>
        <time>2014-05-17T10:32:12Z</time>
      </trkpt>
      <trkpt lat="46.142961513251066" lon="6.106373034417629">
        <ele>444.60000610351562</ele>
        <time>2014-05-17T10:32:16Z</time>
      </trkpt>
      <trkpt lat="46.142990011721849" lon="6.106069106608629">
        <ele>442.79998779296875</ele>
        <time>2014-05-17T10:32:19Z</time>
      </trkpt>
      <trkpt lat="46.143018258735538" lon="6.105766352266073">
        <ele>444.39999389648438</ele>
        <time>2014-05-17T10:32:22Z</time>
      </trkpt>
      <trkpt lat="46.143072322010994" lon="6.10534256324172">
        <ele>443.79998779296875</ele>
        <time>2014-05-17T10:32:26Z</time>
      </trkpt>
      <trkpt lat="46.1430858168751" lon="6.105237957090139">
        <ele>443.39999389648437</ele>
        <time>2014-05-17T10:32:27Z</time>
      </trkpt>
      <trkpt lat="46.143195619806647" lon="6.104384427890182">
        <ele>443.60000610351562</ele>
        <time>2014-05-17T10:32:35Z</time>
      </trkpt>
      <trkpt lat="46.14329494535923" lon="6.103613879531622">
        <ele>443.79998779296875</ele>
        <time>2014-05-17T10:32:42Z</time>
      </trkpt>
      <trkpt lat="46.143350685015321" lon="6.103176679462194">
        <ele>443.79998779296875</ele>
        <time>2014-05-17T10:32:46Z</time>
      </trkpt>
      <trkpt lat="46.143407430499792" lon="6.102396994829178">
        <ele>443.79998779296875</ele>
        <time>2014-05-17T10:32:53Z</time>
      </trkpt>
      <trkpt lat="46.14340684376657" lon="6.102287275716662">
        <ele>443.79998779296875</ele>
        <time>2014-05-17T10:32:54Z</time>
      </trkpt>
      <trkpt lat="46.143368119373918" lon="6.101614963263273">
        <ele>444.39999389648438</ele>
        <time>2014-05-17T10:33:00Z</time>
      </trkpt>
      <trkpt lat="46.143352361395955" lon="6.101501891389489">
        <ele>444.20001220703125</ele>
        <time>2014-05-17T10:33:01Z</time>
      </trkpt>
      <trkpt lat="46.143321767449379" lon="6.101279184222221">
        <ele>443.20001220703125</ele>
        <time>2014-05-17T10:33:03Z</time>
      </trkpt>
      <trkpt lat="46.143214730545878" lon="6.100730588659644">
        <ele>444</ele>
        <time>2014-05-17T10:33:08Z</time>
      </trkpt>
      <trkpt lat="46.143046757206321" lon="6.099948640912771">
        <ele>443</ele>
        <time>2014-05-17T10:33:15Z</time>
      </trkpt>
      <trkpt lat="46.142999734729528" lon="6.09972626902163">
        <ele>442.79998779296875</ele>
        <time>2014-05-17T10:33:17Z</time>
      </trkpt>
      <trkpt lat="46.142810052260756" lon="6.098903333768249">
        <ele>443.60000610351562</ele>
        <time>2014-05-17T10:33:24Z</time>
      </trkpt>
      <trkpt lat="46.142651718109846" lon="6.098282905295491">
        <ele>441.60000610351562</ele>
        <time>2014-05-17T10:33:29Z</time>
      </trkpt>
      <trkpt lat="46.142521547153592" lon="6.097793569788337">
        <ele>441.39999389648438</ele>
        <time>2014-05-17T10:33:33Z</time>
      </trkpt>
      <trkpt lat="46.142408726736903" lon="6.097284452989698">
        <ele>442.39999389648437</ele>
        <time>2014-05-17T10:33:37Z</time>
      </trkpt>
      <trkpt lat="46.142381401732564" lon="6.097155120223761">
        <ele>442.60000610351562</ele>
        <time>2014-05-17T10:33:38Z</time>
      </trkpt>
      <trkpt lat="46.142234047874808" lon="6.096516503021121">
        <ele>441.39999389648438</ele>
        <time>2014-05-17T10:33:43Z</time>
      </trkpt>
      <trkpt lat="46.142117539420724" lon="6.096007637679577">
        <ele>440.79998779296875</ele>
        <time>2014-05-17T10:33:47Z</time>
      </trkpt>
      <trkpt lat="46.142090717330575" lon="6.095879143103957">
        <ele>440.20001220703125</ele>
        <time>2014-05-17T10:33:48Z</time>
      </trkpt>
      <trkpt lat="46.14201913587749" lon="6.095379330217838">
        <ele>440.39999389648437</ele>
        <time>2014-05-17T10:33:52Z</time>
      </trkpt>
      <trkpt lat="46.142013100907207" lon="6.09525678679347">
        <ele>440.79998779296875</ele>
        <time>2014-05-17T10:33:53Z</time>
      </trkpt>
      <trkpt lat="46.142008239403367" lon="6.095014717429876">
        <ele>441.20001220703125</ele>
        <time>2014-05-17T10:33:55Z</time>
      </trkpt>
      <trkpt lat="46.142008490860462" lon="6.094658151268959">
        <ele>442.39999389648437</ele>
        <time>2014-05-17T10:33:58Z</time>
      </trkpt>
      <trkpt lat="46.142028942704201" lon="6.094425972551107">
        <ele>442.39999389648437</ele>
        <time>2014-05-17T10:34:00Z</time>
      </trkpt>
      <trkpt lat="46.142171518877149" lon="6.09361887909472">
        <ele>441.60000610351562</ele>
        <time>2014-05-17T10:34:07Z</time>
      </trkpt>
      <trkpt lat="46.142199179157615" lon="6.093508070334792">
        <ele>441.20001220703125</ele>
        <time>2014-05-17T10:34:08Z</time>
      </trkpt>
      <trkpt lat="46.142314178869128" lon="6.093062656000257">
        <ele>440</ele>
        <time>2014-05-17T10:34:12Z</time>
      </trkpt>
      <trkpt lat="46.142429430037737" lon="6.092624198645353">
        <ele>439.60000610351562</ele>
        <time>2014-05-17T10:34:16Z</time>
      </trkpt>
      <trkpt lat="46.142645264044404" lon="6.091800006106496">
        <ele>439</ele>
        <time>2014-05-17T10:34:24Z</time>
      </trkpt>
      <trkpt lat="46.142846094444394" lon="6.091013196855784">
        <ele>439.60000610351562</ele>
        <time>2014-05-17T10:34:32Z</time>
      </trkpt>
      <trkpt lat="46.14287132397294" lon="6.090915631502867">
        <ele>439.60000610351562</ele>
        <time>2014-05-17T10:34:33Z</time>
      </trkpt>
      <trkpt lat="46.142943240702152" lon="6.090626372024417">
        <ele>441.20001220703125</ele>
        <time>2014-05-17T10:34:36Z</time>
      </trkpt>
      <trkpt lat="46.142993699759245" lon="6.090426882728934">
        <ele>442</ele>
        <time>2014-05-17T10:34:38Z</time>
      </trkpt>
      <trkpt lat="46.143126972019672" lon="6.089714672416449">
        <ele>440.39999389648437</ele>
        <time>2014-05-17T10:34:45Z</time>
      </trkpt>
      <trkpt lat="46.143150525167584" lon="6.089507136493921">
        <ele>440.20001220703125</ele>
        <time>2014-05-17T10:34:47Z</time>
      </trkpt>
      <trkpt lat="46.143188159912825" lon="6.089086281135678">
        <ele>440</ele>
        <time>2014-05-17T10:34:51Z</time>
      </trkpt>
      <trkpt lat="46.143158487975597" lon="6.088414471596479">
        <ele>440</ele>
        <time>2014-05-17T10:34:57Z</time>
      </trkpt>
      <trkpt lat="46.143027059733868" lon="6.087666973471642">
        <ele>439.20001220703125</ele>
        <time>2014-05-17T10:35:04Z</time>
      </trkpt>
      <trkpt lat="46.143002416938543" lon="6.087568318471313">
        <ele>439</ele>
        <time>2014-05-17T10:35:05Z</time>
      </trkpt>
      <trkpt lat="46.14286788739264" lon="6.08710840344429">
        <ele>439.39999389648437</ele>
        <time>2014-05-17T10:35:10Z</time>
      </trkpt>
      <trkpt lat="46.142672505229712" lon="6.086545558646321">
        <ele>439.39999389648437</ele>
        <time>2014-05-17T10:35:17Z</time>
      </trkpt>
      <trkpt lat="46.142570748925209" lon="6.086266273632646">
        <ele>440.20001220703125</ele>
        <time>2014-05-17T10:35:22Z</time>
      </trkpt>
      <trkpt lat="46.142474273219705" lon="6.086013223975897">
        <ele>440.20001220703125</ele>
        <time>2014-05-17T10:35:28Z</time>
      </trkpt>
      <trkpt lat="46.14231375977397" lon="6.085592955350876">
        <ele>439.60000610351562</ele>
        <time>2014-05-17T10:35:35Z</time>
      </trkpt>
      <trkpt lat="46.142286015674472" lon="6.085525816306472">
        <ele>439.20001220703125</ele>
        <time>2014-05-17T10:35:36Z</time>
      </trkpt>
      <trkpt lat="46.142152072861791" lon="6.08516950160265">
        <ele>439.60000610351562</ele>
        <time>2014-05-17T10:35:41Z</time>
      </trkpt>
      <trkpt lat="46.141962809488177" lon="6.08468527905643">
        <ele>439</ele>
        <time>2014-05-17T10:35:47Z</time>
      </trkpt>
      <trkpt lat="46.141768516972661" lon="6.084162080660462">
        <ele>438.60000610351562</ele>
        <time>2014-05-17T10:35:53Z</time>
      </trkpt>
      <trkpt lat="46.141731636598706" lon="6.084075244143605">
        <ele>437.60000610351562</ele>
        <time>2014-05-17T10:35:54Z</time>
      </trkpt>
      <trkpt lat="46.141582187265158" lon="6.083758408203721">
        <ele>439.20001220703125</ele>
        <time>2014-05-17T10:35:58Z</time>
      </trkpt>
      <trkpt lat="46.141540696844459" lon="6.083680624142289">
        <ele>439.79998779296875</ele>
        <time>2014-05-17T10:35:59Z</time>
      </trkpt>
      <trkpt lat="46.141208438202739" lon="6.083141500130296">
        <ele>439.20001220703125</ele>
        <time>2014-05-17T10:36:06Z</time>
      </trkpt>
      <trkpt lat="46.140908030793071" lon="6.082605561241508">
        <ele>437.79998779296875</ele>
        <time>2014-05-17T10:36:12Z</time>
      </trkpt>
      <trkpt lat="46.140853213146329" lon="6.082513108849526">
        <ele>437.60000610351562</ele>
        <time>2014-05-17T10:36:13Z</time>
      </trkpt>
      <trkpt lat="46.140635786578059" lon="6.082133240997791">
        <ele>436.60000610351562</ele>
        <time>2014-05-17T10:36:17Z</time>
      </trkpt>
      <trkpt lat="46.14037586376071" lon="6.081659663468599">
        <ele>435.79998779296875</ele>
        <time>2014-05-17T10:36:22Z</time>
      </trkpt>
      <trkpt lat="46.140276454389095" lon="6.081465454772115">
        <ele>435.39999389648437</ele>
        <time>2014-05-17T10:36:24Z</time>
      </trkpt>
      <trkpt lat="46.140137230977416" lon="6.081044431775808">
        <ele>434.60000610351562</ele>
        <time>2014-05-17T10:36:28Z</time>
      </trkpt>
      <trkpt lat="46.140126921236515" lon="6.080705802887678">
        <ele>435.39999389648437</ele>
        <time>2014-05-17T10:36:31Z</time>
      </trkpt>
      <trkpt lat="46.140159023925662" lon="6.080539170652628">
        <ele>435.79998779296875</ele>
        <time>2014-05-17T10:36:34Z</time>
      </trkpt>
      <trkpt lat="46.140168998390436" lon="6.080451579764485">
        <ele>435.79998779296875</ele>
        <time>2014-05-17T10:36:41Z</time>
      </trkpt>
      <trkpt lat="46.140240663662553" lon="6.080331718549132">
        <ele>435.39999389648437</ele>
        <time>2014-05-17T10:36:45Z</time>
      </trkpt>
      <trkpt lat="46.140263462439179" lon="6.080281846225262">
        <ele>435.39999389648437</ele>
        <time>2014-05-17T10:36:46Z</time>
      </trkpt>
      <trkpt lat="46.140340408310294" lon="6.080098450183868">
        <ele>435</ele>
        <time>2014-05-17T10:36:49Z</time>
      </trkpt>
      <trkpt lat="46.140435794368386" lon="6.079880269244313">
        <ele>433.39999389648437</ele>
        <time>2014-05-17T10:36:52Z</time>
      </trkpt>
      <trkpt lat="46.140495808795094" lon="6.079728975892067">
        <ele>432</ele>
        <time>2014-05-17T10:36:54Z</time>
      </trkpt>
      <trkpt lat="46.140520619228482" lon="6.079659322276712">
        <ele>432.20001220703125</ele>
        <time>2014-05-17T10:36:55Z</time>
      </trkpt>
      <trkpt lat="46.140538053587079" lon="6.079590087756515">
        <ele>432.39999389648437</ele>
        <time>2014-05-17T10:36:56Z</time>
      </trkpt>
      <trkpt lat="46.140549033880234" lon="6.079520350322127">
        <ele>433.39999389648437</ele>
        <time>2014-05-17T10:36:57Z</time>
      </trkpt>
      <trkpt lat="46.140563199296594" lon="6.079379366710782">
        <ele>434.79998779296875</ele>
        <time>2014-05-17T10:36:59Z</time>
      </trkpt>
      <trkpt lat="46.140510477125645" lon="6.079113828018308">
        <ele>435</ele>
        <time>2014-05-17T10:37:03Z</time>
      </trkpt>
      <trkpt lat="46.140332696959376" lon="6.07893068343401">
        <ele>435</ele>
        <time>2014-05-17T10:37:07Z</time>
      </trkpt>
      <trkpt lat="46.140049304813147" lon="6.078905202448368">
        <ele>434.79998779296875</ele>
        <time>2014-05-17T10:37:12Z</time>
      </trkpt>
      <trkpt lat="46.139937490224838" lon="6.078903526067734">
        <ele>435</ele>
        <time>2014-05-17T10:37:14Z</time>
      </trkpt>
      <trkpt lat="46.139882672578096" lon="6.078886762261391">
        <ele>435.20001220703125</ele>
        <time>2014-05-17T10:37:15Z</time>
      </trkpt>
      <trkpt lat="46.139779072254896" lon="6.078820964321494">
        <ele>435.39999389648437</ele>
        <time>2014-05-17T10:37:17Z</time>
      </trkpt>
      <trkpt lat="46.139660133048892" lon="6.078633880242705">
        <ele>434.79998779296875</ele>
        <time>2014-05-17T10:37:20Z</time>
      </trkpt>
      <trkpt lat="46.139384536072612" lon="6.078299693763256">
        <ele>436</ele>
        <time>2014-05-17T10:37:26Z</time>
      </trkpt>
      <trkpt lat="46.139293508604169" lon="6.078195506706834">
        <ele>437.20001220703125</ele>
        <time>2014-05-17T10:37:28Z</time>
      </trkpt>
      <trkpt lat="46.139169372618198" lon="6.078057708218694">
        <ele>438.20001220703125</ele>
        <time>2014-05-17T10:37:31Z</time>
      </trkpt>
      <trkpt lat="46.139086559414864" lon="6.077974224463105">
        <ele>439.20001220703125</ele>
        <time>2014-05-17T10:37:33Z</time>
      </trkpt>
      <trkpt lat="46.139048589393497" lon="6.077929884195328">
        <ele>439.60000610351562</ele>
        <time>2014-05-17T10:37:34Z</time>
      </trkpt>
      <trkpt lat="46.138889333233237" lon="6.077777585014701">
        <ele>440.60000610351562</ele>
        <time>2014-05-17T10:37:38Z</time>
      </trkpt>
      <trkpt lat="46.138811549171805" lon="6.077716145664454">
        <ele>441.39999389648438</ele>
        <time>2014-05-17T10:37:40Z</time>
      </trkpt>
      <trkpt lat="46.13877022638917" lon="6.077689994126558">
        <ele>441.60000610351562</ele>
        <time>2014-05-17T10:37:41Z</time>
      </trkpt>
      <trkpt lat="46.138593954965472" lon="6.077634673565626">
        <ele>442.60000610351562</ele>
        <time>2014-05-17T10:37:45Z</time>
      </trkpt>
      <trkpt lat="46.138548608869314" lon="6.077629309147596">
        <ele>443</ele>
        <time>2014-05-17T10:37:46Z</time>
      </trkpt>
      <trkpt lat="46.138456910848618" lon="6.077633751556277">
        <ele>443.60000610351562</ele>
        <time>2014-05-17T10:37:48Z</time>
      </trkpt>
      <trkpt lat="46.138411816209555" lon="6.077641127631068">
        <ele>443.79998779296875</ele>
        <time>2014-05-17T10:37:49Z</time>
      </trkpt>
      <trkpt lat="46.138331685215235" lon="6.077673817053437">
        <ele>444.20001220703125</ele>
        <time>2014-05-17T10:37:51Z</time>
      </trkpt>
      <trkpt lat="46.138292290270329" lon="6.077693346887827">
        <ele>444.39999389648438</ele>
        <time>2014-05-17T10:37:52Z</time>
      </trkpt>
      <trkpt lat="46.138253146782517" lon="6.077721593901515">
        <ele>444.79998779296875</ele>
        <time>2014-05-17T10:37:53Z</time>
      </trkpt>
      <trkpt lat="46.138213584199548" lon="6.077747326344252">
        <ele>445</ele>
        <time>2014-05-17T10:37:54Z</time>
      </trkpt>
      <trkpt lat="46.138058770447969" lon="6.077834246680141">
        <ele>445.39999389648437</ele>
        <time>2014-05-17T10:37:58Z</time>
      </trkpt>
      <trkpt lat="46.138016525655985" lon="6.077839946374297">
        <ele>445.60000610351562</ele>
        <time>2014-05-17T10:37:59Z</time>
      </trkpt>
      <trkpt lat="46.137889707460999" lon="6.07777314260602">
        <ele>445.60000610351562</ele>
        <time>2014-05-17T10:38:02Z</time>
      </trkpt>
      <trkpt lat="46.137844864279032" lon="6.077745817601681">
        <ele>445.60000610351562</ele>
        <time>2014-05-17T10:38:03Z</time>
      </trkpt>
      <trkpt lat="46.137717207893729" lon="6.077611204236746">
        <ele>445.39999389648437</ele>
        <time>2014-05-17T10:38:06Z</time>
      </trkpt>
      <trkpt lat="46.137683680281043" lon="6.077542388811708">
        <ele>445.39999389648437</ele>
        <time>2014-05-17T10:38:07Z</time>
      </trkpt>
      <trkpt lat="46.137626599520445" lon="6.077277017757297">
        <ele>444.39999389648438</ele>
        <time>2014-05-17T10:38:10Z</time>
      </trkpt>
      <trkpt lat="46.137581337243319" lon="6.077082306146622">
        <ele>443.60000610351562</ele>
        <time>2014-05-17T10:38:12Z</time>
      </trkpt>
      <trkpt lat="46.137536829337478" lon="6.076865550130606">
        <ele>442.60000610351562</ele>
        <time>2014-05-17T10:38:14Z</time>
      </trkpt>
      <trkpt lat="46.13751252181828" lon="6.076750298961997">
        <ele>442</ele>
        <time>2014-05-17T10:38:15Z</time>
      </trkpt>
      <trkpt lat="46.137488046661019" lon="6.076630270108581">
        <ele>441</ele>
        <time>2014-05-17T10:38:16Z</time>
      </trkpt>
      <trkpt lat="46.137422919273376" lon="6.076234895735979">
        <ele>439.39999389648437</ele>
        <time>2014-05-17T10:38:19Z</time>
      </trkpt>
      <trkpt lat="46.137406239286065" lon="6.076095337048173">
        <ele>438.60000610351562</ele>
        <time>2014-05-17T10:38:20Z</time>
      </trkpt>
      <trkpt lat="46.137390229851007" lon="6.075953263789415">
        <ele>437.79998779296875</ele>
        <time>2014-05-17T10:38:21Z</time>
      </trkpt>
      <trkpt lat="46.137369694188237" lon="6.075652604922652">
        <ele>436.60000610351562</ele>
        <time>2014-05-17T10:38:23Z</time>
      </trkpt>
      <trkpt lat="46.137361312285066" lon="6.07533979229629">
        <ele>435.60000610351562</ele>
        <time>2014-05-17T10:38:25Z</time>
      </trkpt>
      <trkpt lat="46.137356534600258" lon="6.075182966887951">
        <ele>435.20001220703125</ele>
        <time>2014-05-17T10:38:26Z</time>
      </trkpt>
      <trkpt lat="46.137324934825301" lon="6.074759177863598">
        <ele>435.20001220703125</ele>
        <time>2014-05-17T10:38:29Z</time>
      </trkpt>
      <trkpt lat="46.137287132441998" lon="6.074655158445239">
        <ele>435.39999389648437</ele>
        <time>2014-05-17T10:38:30Z</time>
      </trkpt>
      <trkpt lat="46.137099461629987" lon="6.074497075751424">
        <ele>435.39999389648437</ele>
        <time>2014-05-17T10:38:33Z</time>
      </trkpt>
      <trkpt lat="46.13703416660428" lon="6.074468158185482">
        <ele>435.60000610351562</ele>
        <time>2014-05-17T10:38:34Z</time>
      </trkpt>
      <trkpt lat="46.136976582929492" lon="6.074419459328055">
        <ele>436.20001220703125</ele>
        <time>2014-05-17T10:38:35Z</time>
      </trkpt>
      <trkpt lat="46.136886058375239" lon="6.074291635304689">
        <ele>437</ele>
        <time>2014-05-17T10:38:37Z</time>
      </trkpt>
      <trkpt lat="46.136851524934173" lon="6.074223406612873">
        <ele>437.39999389648437</ele>
        <time>2014-05-17T10:38:38Z</time>
      </trkpt>
      <trkpt lat="46.136785056442022" lon="6.073998184874654">
        <ele>438.60000610351562</ele>
        <time>2014-05-17T10:38:41Z</time>
      </trkpt>
      <trkpt lat="46.136760329827666" lon="6.073849406093359">
        <ele>439.39999389648437</ele>
        <time>2014-05-17T10:38:43Z</time>
      </trkpt>
      <trkpt lat="46.136757815256715" lon="6.073779668658972">
        <ele>440</ele>
        <time>2014-05-17T10:38:44Z</time>
      </trkpt>
      <trkpt lat="46.136754211038351" lon="6.073651006445289">
        <ele>441</ele>
        <time>2014-05-17T10:38:46Z</time>
      </trkpt>
      <trkpt lat="46.136751864105463" lon="6.073586633428931">
        <ele>441.39999389648438</ele>
        <time>2014-05-17T10:38:47Z</time>
      </trkpt>
      <trkpt lat="46.136748092249036" lon="6.073464090004563">
        <ele>442</ele>
        <time>2014-05-17T10:38:49Z</time>
      </trkpt>
      <trkpt lat="46.136741302907467" lon="6.073405500501394">
        <ele>442.39999389648437</ele>
        <time>2014-05-17T10:38:50Z</time>
      </trkpt>
      <trkpt lat="46.136729903519154" lon="6.073286226019263">
        <ele>443.20001220703125</ele>
        <time>2014-05-17T10:38:52Z</time>
      </trkpt>
      <trkpt lat="46.136711798608303" lon="6.073176423087716">
        <ele>443.60000610351562</ele>
        <time>2014-05-17T10:38:54Z</time>
      </trkpt>
      <trkpt lat="46.136673660948873" lon="6.07298799790442">
        <ele>444.60000610351562</ele>
        <time>2014-05-17T10:38:58Z</time>
      </trkpt>
      <trkpt lat="46.136660417541862" lon="6.072943825274706">
        <ele>444.79998779296875</ele>
        <time>2014-05-17T10:38:59Z</time>
      </trkpt>
      <trkpt lat="46.13657534122467" lon="6.072752885520458">
        <ele>446</ele>
        <time>2014-05-17T10:39:04Z</time>
      </trkpt>
      <trkpt lat="46.136447684839368" lon="6.072589103132486">
        <ele>447</ele>
        <time>2014-05-17T10:39:09Z</time>
      </trkpt>
      <trkpt lat="46.136418431997299" lon="6.072556581348181">
        <ele>447</ele>
        <time>2014-05-17T10:39:10Z</time>
      </trkpt>
      <trkpt lat="46.136224726215005" lon="6.072412496432662">
        <ele>448.20001220703125</ele>
        <time>2014-05-17T10:39:16Z</time>
      </trkpt>
      <trkpt lat="46.136190360412002" lon="6.072391122579575">
        <ele>448.39999389648437</ele>
        <time>2014-05-17T10:39:17Z</time>
      </trkpt>
      <trkpt lat="46.136044347658753" lon="6.072350218892098">
        <ele>449.20001220703125</ele>
        <time>2014-05-17T10:39:21Z</time>
      </trkpt>
      <trkpt lat="46.135978382080793" lon="6.072329096496105">
        <ele>449.60000610351562</ele>
        <time>2014-05-17T10:39:23Z</time>
      </trkpt>
      <trkpt lat="46.135844942182302" lon="6.072287354618311">
        <ele>450.39999389648437</ele>
        <time>2014-05-17T10:39:27Z</time>
      </trkpt>
      <trkpt lat="46.135703204199672" lon="6.07225458137691">
        <ele>451.60000610351562</ele>
        <time>2014-05-17T10:39:31Z</time>
      </trkpt>
      <trkpt lat="46.135601531714201" lon="6.072232034057379">
        <ele>452.79998779296875</ele>
        <time>2014-05-17T10:39:34Z</time>
      </trkpt>
      <trkpt lat="46.135369520634413" lon="6.072185514494777">
        <ele>453.79998779296875</ele>
        <time>2014-05-17T10:39:41Z</time>
      </trkpt>
      <trkpt lat="46.135214706882834" lon="6.072150226682425">
        <ele>455</ele>
        <time>2014-05-17T10:39:46Z</time>
      </trkpt>
      <trkpt lat="46.135121081024408" lon="6.07213044539094">
        <ele>455.20001220703125</ele>
        <time>2014-05-17T10:39:49Z</time>
      </trkpt>
      <trkpt lat="46.135024772956967" lon="6.072116447612643">
        <ele>456</ele>
        <time>2014-05-17T10:39:52Z</time>
      </trkpt>
      <trkpt lat="46.134901726618409" lon="6.072098929435015">
        <ele>456.79998779296875</ele>
        <time>2014-05-17T10:39:56Z</time>
      </trkpt>
      <trkpt lat="46.134870881214738" lon="6.072087697684765">
        <ele>457.20001220703125</ele>
        <time>2014-05-17T10:39:57Z</time>
      </trkpt>
      <trkpt lat="46.134642222896218" lon="6.072018295526505">
        <ele>458</ele>
        <time>2014-05-17T10:40:04Z</time>
      </trkpt>
      <trkpt lat="46.134538957849145" lon="6.072004297748208">
        <ele>458.20001220703125</ele>
        <time>2014-05-17T10:40:07Z</time>
      </trkpt>
      <trkpt lat="46.134385066106915" lon="6.07196775265038">
        <ele>458.79998779296875</ele>
        <time>2014-05-17T10:40:11Z</time>
      </trkpt>
      <trkpt lat="46.134170405566692" lon="6.071923831477761">
        <ele>458.79998779296875</ele>
        <time>2014-05-17T10:40:16Z</time>
      </trkpt>
      <trkpt lat="46.134082563221455" lon="6.071897428482771">
        <ele>459.39999389648437</ele>
        <time>2014-05-17T10:40:18Z</time>
      </trkpt>
      <trkpt lat="46.13403688184917" lon="6.071885442361236">
        <ele>459.39999389648437</ele>
        <time>2014-05-17T10:40:19Z</time>
      </trkpt>
      <trkpt lat="46.133659360930324" lon="6.071782177314162">
        <ele>460.39999389648437</ele>
        <time>2014-05-17T10:40:27Z</time>
      </trkpt>
      <trkpt lat="46.133303549140692" lon="6.071706488728523">
        <ele>461</ele>
        <time>2014-05-17T10:40:34Z</time>
      </trkpt>
      <trkpt lat="46.133200954645872" lon="6.071685282513499">
        <ele>461.60000610351562</ele>
        <time>2014-05-17T10:40:36Z</time>
      </trkpt>
      <trkpt lat="46.132774148136377" lon="6.071587884798646">
        <ele>461.79998779296875</ele>
        <time>2014-05-17T10:40:44Z</time>
      </trkpt>
      <trkpt lat="46.132569294422865" lon="6.0715436283499">
        <ele>462.60000610351562</ele>
        <time>2014-05-17T10:40:48Z</time>
      </trkpt>
      <trkpt lat="46.132263690233231" lon="6.071474561467767">
        <ele>463.60000610351562</ele>
        <time>2014-05-17T10:40:54Z</time>
      </trkpt>
      <trkpt lat="46.132164113223553" lon="6.071452768519521">
        <ele>463.79998779296875</ele>
        <time>2014-05-17T10:40:56Z</time>
      </trkpt>
      <trkpt lat="46.131737977266312" lon="6.071372050791979">
        <ele>464.79998779296875</ele>
        <time>2014-05-17T10:41:04Z</time>
      </trkpt>
      <trkpt lat="46.131427930667996" lon="6.071295440196991">
        <ele>465.79998779296875</ele>
        <time>2014-05-17T10:41:10Z</time>
      </trkpt>
      <trkpt lat="46.131378058344126" lon="6.071275910362601">
        <ele>466</ele>
        <time>2014-05-17T10:41:11Z</time>
      </trkpt>
      <trkpt lat="46.131087122485042" lon="6.071140877902508">
        <ele>466.79998779296875</ele>
        <time>2014-05-17T10:41:17Z</time>
      </trkpt>
      <trkpt lat="46.131042949855328" lon="6.071108775213361">
        <ele>467</ele>
        <time>2014-05-17T10:41:18Z</time>
      </trkpt>
      <trkpt lat="46.130884783342481" lon="6.070961756631732">
        <ele>468.20001220703125</ele>
        <time>2014-05-17T10:41:22Z</time>
      </trkpt>
      <trkpt lat="46.130790570750833" lon="6.070836363360286">
        <ele>468.79998779296875</ele>
        <time>2014-05-17T10:41:25Z</time>
      </trkpt>
      <trkpt lat="46.13073474727571" lon="6.07074667699635">
        <ele>469.39999389648437</ele>
        <time>2014-05-17T10:41:27Z</time>
      </trkpt>
      <trkpt lat="46.130641037598252" lon="6.070570321753621">
        <ele>470.60000610351562</ele>
        <time>2014-05-17T10:41:31Z</time>
      </trkpt>
      <trkpt lat="46.130621591582894" lon="6.070526819676161">
        <ele>470.79998779296875</ele>
        <time>2014-05-17T10:41:32Z</time>
      </trkpt>
      <trkpt lat="46.130532408133149" lon="6.070359013974667">
        <ele>471.60000610351562</ele>
        <time>2014-05-17T10:41:36Z</time>
      </trkpt>
      <trkpt lat="46.130450181663036" lon="6.070195650681853">
        <ele>472.39999389648437</ele>
        <time>2014-05-17T10:41:40Z</time>
      </trkpt>
      <trkpt lat="46.130429394543171" lon="6.070154998451471">
        <ele>472.60000610351562</ele>
        <time>2014-05-17T10:41:41Z</time>
      </trkpt>
      <trkpt lat="46.1303018219769" lon="6.069909073412418">
        <ele>473.79998779296875</ele>
        <time>2014-05-17T10:41:47Z</time>
      </trkpt>
      <trkpt lat="46.13025932572782" lon="6.069821147248149">
        <ele>474.20001220703125</ele>
        <time>2014-05-17T10:41:49Z</time>
      </trkpt>
      <trkpt lat="46.130171064287424" lon="6.069652168080211">
        <ele>475</ele>
        <time>2014-05-17T10:41:53Z</time>
      </trkpt>
      <trkpt lat="46.130058243870735" lon="6.069434406235814">
        <ele>476.20001220703125</ele>
        <time>2014-05-17T10:41:58Z</time>
      </trkpt>
      <trkpt lat="46.129901837557554" lon="6.069144057109952">
        <ele>477.20001220703125</ele>
        <time>2014-05-17T10:42:05Z</time>
      </trkpt>
      <trkpt lat="46.129881134256721" lon="6.069102734327316">
        <ele>477.39999389648437</ele>
        <time>2014-05-17T10:42:06Z</time>
      </trkpt>
      <trkpt lat="46.129751885309815" lon="6.068830993026495">
        <ele>478.39999389648438</ele>
        <time>2014-05-17T10:42:12Z</time>
      </trkpt>
      <trkpt lat="46.129645351320505" lon="6.068618847057223">
        <ele>480</ele>
        <time>2014-05-17T10:42:17Z</time>
      </trkpt>
      <trkpt lat="46.129605704918504" lon="6.068534860387445">
        <ele>480.60000610351562</ele>
        <time>2014-05-17T10:42:19Z</time>
      </trkpt>
      <trkpt lat="46.129533788189292" lon="6.068420112133026">
        <ele>481</ele>
        <time>2014-05-17T10:42:22Z</time>
      </trkpt>
      <trkpt lat="46.129444018006325" lon="6.068269908428192">
        <ele>481.60000610351562</ele>
        <time>2014-05-17T10:42:26Z</time>
      </trkpt>
      <trkpt lat="46.12940177321434" lon="6.068201512098312">
        <ele>482</ele>
        <time>2014-05-17T10:42:28Z</time>
      </trkpt>
      <trkpt lat="46.129272105172276" lon="6.06803135946393">
        <ele>482.79998779296875</ele>
        <time>2014-05-17T10:42:33Z</time>
      </trkpt>
      <trkpt lat="46.12924444489181" lon="6.068000597879291">
        <ele>483.20001220703125</ele>
        <time>2014-05-17T10:42:34Z</time>
      </trkpt>
      <trkpt lat="46.12906800583005" lon="6.067830612882972">
        <ele>484</ele>
        <time>2014-05-17T10:42:40Z</time>
      </trkpt>
      <trkpt lat="46.129038836807013" lon="6.067802701145411">
        <ele>484.39999389648437</ele>
        <time>2014-05-17T10:42:41Z</time>
      </trkpt>
      <trkpt lat="46.128876898437738" lon="6.067652078345418">
        <ele>485.20001220703125</ele>
        <time>2014-05-17T10:42:46Z</time>
      </trkpt>
      <trkpt lat="46.128846555948257" lon="6.067620813846588">
        <ele>485.60000610351562</ele>
        <time>2014-05-17T10:42:47Z</time>
      </trkpt>
      <trkpt lat="46.128812441602349" lon="6.067590722814202">
        <ele>485.39999389648437</ele>
        <time>2014-05-17T10:42:48Z</time>
      </trkpt>
      <trkpt lat="46.128563918173313" lon="6.067361645400524">
        <ele>486</ele>
        <time>2014-05-17T10:42:55Z</time>
      </trkpt>
      <trkpt lat="46.128453612327576" lon="6.067253351211548">
        <ele>486.60000610351562</ele>
        <time>2014-05-17T10:42:58Z</time>
      </trkpt>
      <trkpt lat="46.128265941515565" lon="6.067073810845614">
        <ele>487.20001220703125</ele>
        <time>2014-05-17T10:43:03Z</time>
      </trkpt>
      <trkpt lat="46.12819142639637" lon="6.066998206079006">
        <ele>487.60000610351562</ele>
        <time>2014-05-17T10:43:05Z</time>
      </trkpt>
      <trkpt lat="46.127935275435448" lon="6.066750604659319">
        <ele>488.20001220703125</ele>
        <time>2014-05-17T10:43:12Z</time>
      </trkpt>
      <trkpt lat="46.127864783629775" lon="6.066677263006568">
        <ele>488.79998779296875</ele>
        <time>2014-05-17T10:43:14Z</time>
      </trkpt>
      <trkpt lat="46.127680297940969" lon="6.066501159220934">
        <ele>489.39999389648437</ele>
        <time>2014-05-17T10:43:19Z</time>
      </trkpt>
      <trkpt lat="46.127643249928951" lon="6.066468805074692">
        <ele>489.39999389648437</ele>
        <time>2014-05-17T10:43:20Z</time>
      </trkpt>
      <trkpt lat="46.127528166398406" lon="6.066349027678371">
        <ele>489.79998779296875</ele>
        <time>2014-05-17T10:43:23Z</time>
      </trkpt>
      <trkpt lat="46.127438060939312" lon="6.06626839376986">
        <ele>490</ele>
        <time>2014-05-17T10:43:25Z</time>
      </trkpt>
      <trkpt lat="46.127132456749678" lon="6.065982906147838">
        <ele>489.39999389648437</ele>
        <time>2014-05-17T10:43:31Z</time>
      </trkpt>
      <trkpt lat="46.126790223643184" lon="6.065652407705784">
        <ele>489</ele>
        <time>2014-05-17T10:43:37Z</time>
      </trkpt>
      <trkpt lat="46.126731634140015" lon="6.065592644736171">
        <ele>488.79998779296875</ele>
        <time>2014-05-17T10:43:38Z</time>
      </trkpt>
      <trkpt lat="46.12628286704421" lon="6.065154187381268">
        <ele>489</ele>
        <time>2014-05-17T10:43:45Z</time>
      </trkpt>
      <trkpt lat="46.125824209302664" lon="6.064710784703493">
        <ele>488.39999389648437</ele>
        <time>2014-05-17T10:43:52Z</time>
      </trkpt>
      <trkpt lat="46.125701749697328" lon="6.064592096954584">
        <ele>489</ele>
        <time>2014-05-17T10:43:54Z</time>
      </trkpt>
      <trkpt lat="46.125578703358769" lon="6.064480114728212">
        <ele>490</ele>
        <time>2014-05-17T10:43:56Z</time>
      </trkpt>
      <trkpt lat="46.125231022015214" lon="6.064145173877478">
        <ele>490.39999389648437</ele>
        <time>2014-05-17T10:44:02Z</time>
      </trkpt>
      <trkpt lat="46.124839000403881" lon="6.063760276883841">
        <ele>491.20001220703125</ele>
        <time>2014-05-17T10:44:09Z</time>
      </trkpt>
      <trkpt lat="46.124788038432598" lon="6.063707387074828">
        <ele>491.20001220703125</ele>
        <time>2014-05-17T10:44:10Z</time>
      </trkpt>
      <trkpt lat="46.124632637947798" lon="6.063563888892531">
        <ele>492.20001220703125</ele>
        <time>2014-05-17T10:44:13Z</time>
      </trkpt>
      <trkpt lat="46.124426359310746" lon="6.063361968845129">
        <ele>493.39999389648437</ele>
        <time>2014-05-17T10:44:17Z</time>
      </trkpt>
      <trkpt lat="46.124325022101402" lon="6.063272282481194">
        <ele>493.79998779296875</ele>
        <time>2014-05-17T10:44:19Z</time>
      </trkpt>
      <trkpt lat="46.12399066798389" lon="6.062947064638138">
        <ele>494.60000610351562</ele>
        <time>2014-05-17T10:44:26Z</time>
      </trkpt>
      <trkpt lat="46.123943561688066" lon="6.062896689400077">
        <ele>494.60000610351562</ele>
        <time>2014-05-17T10:44:27Z</time>
      </trkpt>
      <trkpt lat="46.123571489006281" lon="6.062526209279895">
        <ele>495.39999389648438</ele>
        <time>2014-05-17T10:44:35Z</time>
      </trkpt>
      <trkpt lat="46.123479790985584" lon="6.062443228438497">
        <ele>495.79998779296875</ele>
        <time>2014-05-17T10:44:37Z</time>
      </trkpt>
      <trkpt lat="46.123262364417315" lon="6.062230411916971">
        <ele>497</ele>
        <time>2014-05-17T10:44:42Z</time>
      </trkpt>
      <trkpt lat="46.12318055704236" lon="6.062140725553036">
        <ele>497.20001220703125</ele>
        <time>2014-05-17T10:44:44Z</time>
      </trkpt>
      <trkpt lat="46.122886352241039" lon="6.061855405569077">
        <ele>498</ele>
        <time>2014-05-17T10:44:51Z</time>
      </trkpt>
      <trkpt lat="46.122769424691796" lon="6.0617402382195">
        <ele>499</ele>
        <time>2014-05-17T10:44:54Z</time>
      </trkpt>
      <trkpt lat="46.122656436637044" lon="6.061632866039872">
        <ele>500</ele>
        <time>2014-05-17T10:44:57Z</time>
      </trkpt>
      <trkpt lat="46.122546633705497" lon="6.061530690640211">
        <ele>501</ele>
        <time>2014-05-17T10:45:00Z</time>
      </trkpt>
      <trkpt lat="46.122511010617018" lon="6.061499090865254">
        <ele>501.20001220703125</ele>
        <time>2014-05-17T10:45:01Z</time>
      </trkpt>
      <trkpt lat="46.122261816635728" lon="6.061247969046235">
        <ele>502.20001220703125</ele>
        <time>2014-05-17T10:45:08Z</time>
      </trkpt>
      <trkpt lat="46.122148241847754" lon="6.061139088124037">
        <ele>502.60000610351562</ele>
        <time>2014-05-17T10:45:11Z</time>
      </trkpt>
      <trkpt lat="46.121819000691175" lon="6.060818647965789">
        <ele>503</ele>
        <time>2014-05-17T10:45:19Z</time>
      </trkpt>
      <trkpt lat="46.121402503922582" lon="6.060406593605876">
        <ele>503</ele>
        <time>2014-05-17T10:45:28Z</time>
      </trkpt>
      <trkpt lat="46.121308961883187" lon="6.06030710041523">
        <ele>503.60000610351562</ele>
        <time>2014-05-17T10:45:30Z</time>
      </trkpt>
      <trkpt lat="46.121029760688543" lon="6.06004131026566">
        <ele>503.60000610351562</ele>
        <time>2014-05-17T10:45:36Z</time>
      </trkpt>
      <trkpt lat="46.120751481503248" lon="6.059761857613921">
        <ele>504.60000610351562</ele>
        <time>2014-05-17T10:45:42Z</time>
      </trkpt>
      <trkpt lat="46.120566660538316" lon="6.059583909809589">
        <ele>505.60000610351562</ele>
        <time>2014-05-17T10:45:46Z</time>
      </trkpt>
      <trkpt lat="46.120521398261189" lon="6.059539150446653">
        <ele>506</ele>
        <time>2014-05-17T10:45:47Z</time>
      </trkpt>
      <trkpt lat="46.120204646140337" lon="6.05922038666904">
        <ele>506.39999389648438</ele>
        <time>2014-05-17T10:45:54Z</time>
      </trkpt>
      <trkpt lat="46.119914967566729" lon="6.058943448588252">
        <ele>507</ele>
        <time>2014-05-17T10:46:00Z</time>
      </trkpt>
      <trkpt lat="46.119770798832178" lon="6.058802297338843">
        <ele>507</ele>
        <time>2014-05-17T10:46:03Z</time>
      </trkpt>
      <trkpt lat="46.119308536872268" lon="6.058356212452054">
        <ele>507</ele>
        <time>2014-05-17T10:46:12Z</time>
      </trkpt>
      <trkpt lat="46.118935290724039" lon="6.057998724281788">
        <ele>508.20001220703125</ele>
        <time>2014-05-17T10:46:19Z</time>
      </trkpt>
      <trkpt lat="46.11856103874743" lon="6.057642996311188">
        <ele>509.39999389648437</ele>
        <time>2014-05-17T10:46:26Z</time>
      </trkpt>
      <trkpt lat="46.118408488109708" lon="6.057495307177305">
        <ele>510.20001220703125</ele>
        <time>2014-05-17T10:46:29Z</time>
      </trkpt>
      <trkpt lat="46.117933234199882" lon="6.05702105909586">
        <ele>510.20001220703125</ele>
        <time>2014-05-17T10:46:38Z</time>
      </trkpt>
      <trkpt lat="46.117820749059319" lon="6.056913351640105">
        <ele>510.39999389648437</ele>
        <time>2014-05-17T10:46:40Z</time>
      </trkpt>
      <trkpt lat="46.117543978616595" lon="6.05664680711925">
        <ele>511.20001220703125</ele>
        <time>2014-05-17T10:46:45Z</time>
      </trkpt>
      <trkpt lat="46.117323534563184" lon="6.056427787989378">
        <ele>511.60000610351562</ele>
        <time>2014-05-17T10:46:49Z</time>
      </trkpt>
      <trkpt lat="46.117044752463698" lon="6.05616157874465">
        <ele>512.20001220703125</ele>
        <time>2014-05-17T10:46:54Z</time>
      </trkpt>
      <trkpt lat="46.116882814094424" lon="6.05600718408823">
        <ele>512.5999755859375</ele>
        <time>2014-05-17T10:46:57Z</time>
      </trkpt>
      <trkpt lat="46.116558518260717" lon="6.0556944552809">
        <ele>513.20001220703125</ele>
        <time>2014-05-17T10:47:03Z</time>
      </trkpt>
      <trkpt lat="46.116402195766568" lon="6.055543329566717">
        <ele>513.79998779296875</ele>
        <time>2014-05-17T10:47:06Z</time>
      </trkpt>
      <trkpt lat="46.116157444193959" lon="6.055309055373073">
        <ele>514.79998779296875</ele>
        <time>2014-05-17T10:47:11Z</time>
      </trkpt>
      <trkpt lat="46.116110756993294" lon="6.055266978219152">
        <ele>515</ele>
        <time>2014-05-17T10:47:12Z</time>
      </trkpt>
      <trkpt lat="46.115779001265764" lon="6.054946454241872">
        <ele>515.79998779296875</ele>
        <time>2014-05-17T10:47:20Z</time>
      </trkpt>
      <trkpt lat="46.115352865308523" lon="6.054526269435883">
        <ele>515.4000244140625</ele>
        <time>2014-05-17T10:47:30Z</time>
      </trkpt>
      <trkpt lat="46.115258736535907" lon="6.05443524196744">
        <ele>514.79998779296875</ele>
        <time>2014-05-17T10:47:32Z</time>
      </trkpt>
      <trkpt lat="46.114968722686172" lon="6.054136762395501">
        <ele>515.5999755859375</ele>
        <time>2014-05-17T10:47:38Z</time>
      </trkpt>
      <trkpt lat="46.114815417677164" lon="6.053993850946426">
        <ele>515</ele>
        <time>2014-05-17T10:47:41Z</time>
      </trkpt>
      <trkpt lat="46.114713745191693" lon="6.053921263664961">
        <ele>515.5999755859375</ele>
        <time>2014-05-17T10:47:43Z</time>
      </trkpt>
      <trkpt lat="46.114672003313899" lon="6.053872983902693">
        <ele>516</ele>
        <time>2014-05-17T10:47:44Z</time>
      </trkpt>
      <trkpt lat="46.114503024145961" lon="6.053705932572484">
        <ele>515.79998779296875</ele>
        <time>2014-05-17T10:47:48Z</time>
      </trkpt>
      <trkpt lat="46.114313257858157" lon="6.053520776331425">
        <ele>517</ele>
        <time>2014-05-17T10:47:53Z</time>
      </trkpt>
      <trkpt lat="46.114200185984373" lon="6.053407788276672">
        <ele>517.20001220703125</ele>
        <time>2014-05-17T10:47:56Z</time>
      </trkpt>
      <trkpt lat="46.11391075886786" lon="6.053138896822929">
        <ele>517.4000244140625</ele>
        <time>2014-05-17T10:48:03Z</time>
      </trkpt>
      <trkpt lat="46.113510858267546" lon="6.052732793614268">
        <ele>516.5999755859375</ele>
        <time>2014-05-17T10:48:12Z</time>
      </trkpt>
      <trkpt lat="46.113193854689598" lon="6.052435152232647">
        <ele>518.20001220703125</ele>
        <time>2014-05-17T10:48:19Z</time>
      </trkpt>
      <trkpt lat="46.112790266051888" lon="6.05204438790679">
        <ele>518.79998779296875</ele>
        <time>2014-05-17T10:48:28Z</time>
      </trkpt>
      <trkpt lat="46.112524643540382" lon="6.051792008802295">
        <ele>519.20001220703125</ele>
        <time>2014-05-17T10:48:34Z</time>
      </trkpt>
      <trkpt lat="46.112444177269936" lon="6.051698969677091">
        <ele>519.4000244140625</ele>
        <time>2014-05-17T10:48:36Z</time>
      </trkpt>
      <trkpt lat="46.112250806763768" lon="6.051495708525181">
        <ele>520.4000244140625</ele>
        <time>2014-05-17T10:48:41Z</time>
      </trkpt>
      <trkpt lat="46.112132873386145" lon="6.051352294161916">
        <ele>519.79998779296875</ele>
        <time>2014-05-17T10:48:44Z</time>
      </trkpt>
      <trkpt lat="46.112095406278968" lon="6.051206113770604">
        <ele>519.20001220703125</ele>
        <time>2014-05-17T10:48:46Z</time>
      </trkpt>
      <trkpt lat="46.112114265561104" lon="6.051016850396991">
        <ele>518.20001220703125</ele>
        <time>2014-05-17T10:48:48Z</time>
      </trkpt>
      <trkpt lat="46.112145697697997" lon="6.05092448182404">
        <ele>517.5999755859375</ele>
        <time>2014-05-17T10:48:49Z</time>
      </trkpt>
      <trkpt lat="46.112176543101668" lon="6.0508350469172">
        <ele>516.79998779296875</ele>
        <time>2014-05-17T10:48:50Z</time>
      </trkpt>
      <trkpt lat="46.112209232524037" lon="6.050739912316203">
        <ele>516.4000244140625</ele>
        <time>2014-05-17T10:48:51Z</time>
      </trkpt>
      <trkpt lat="46.112245945259929" lon="6.050637904554606">
        <ele>515.79998779296875</ele>
        <time>2014-05-17T10:48:52Z</time>
      </trkpt>
      <trkpt lat="46.112323310226202" lon="6.050417711958289">
        <ele>514</ele>
        <time>2014-05-17T10:48:54Z</time>
      </trkpt>
      <trkpt lat="46.112406793981791" lon="6.050174385309219">
        <ele>512</ele>
        <time>2014-05-17T10:48:56Z</time>
      </trkpt>
      <trkpt lat="46.112452726811171" lon="6.050049075856805">
        <ele>510.60000610351562</ele>
        <time>2014-05-17T10:48:57Z</time>
      </trkpt>
      <trkpt lat="46.112497402355075" lon="6.049917563796043">
        <ele>509.20001220703125</ele>
        <time>2014-05-17T10:48:58Z</time>
      </trkpt>
      <trkpt lat="46.11254551447928" lon="6.049785297363997">
        <ele>508.20001220703125</ele>
        <time>2014-05-17T10:48:59Z</time>
      </trkpt>
      <trkpt lat="46.112655904144049" lon="6.049523614346981">
        <ele>506.39999389648438</ele>
        <time>2014-05-17T10:49:01Z</time>
      </trkpt>
      <trkpt lat="46.112795127555728" lon="6.049278192222118">
        <ele>504.79998779296875</ele>
        <time>2014-05-17T10:49:03Z</time>
      </trkpt>
      <trkpt lat="46.112946840003133" lon="6.049009552225471">
        <ele>503.20001220703125</ele>
        <time>2014-05-17T10:49:05Z</time>
      </trkpt>
      <trkpt lat="46.11302881501615" lon="6.048875860869885">
        <ele>500.79998779296875</ele>
        <time>2014-05-17T10:49:06Z</time>
      </trkpt>
      <trkpt lat="46.113112131133676" lon="6.048742001876235">
        <ele>499.60000610351562</ele>
        <time>2014-05-17T10:49:07Z</time>
      </trkpt>
      <trkpt lat="46.113194189965725" lon="6.04860638268292">
        <ele>498.60000610351562</ele>
        <time>2014-05-17T10:49:08Z</time>
      </trkpt>
      <trkpt lat="46.113363588228822" lon="6.048341430723667">
        <ele>496.39999389648437</ele>
        <time>2014-05-17T10:49:10Z</time>
      </trkpt>
      <trkpt lat="46.113440115004778" lon="6.048207404091954">
        <ele>495.20001220703125</ele>
        <time>2014-05-17T10:49:11Z</time>
      </trkpt>
      <trkpt lat="46.113676484674215" lon="6.04781630448997">
        <ele>494.39999389648437</ele>
        <time>2014-05-17T10:49:14Z</time>
      </trkpt>
      <trkpt lat="46.113740941509604" lon="6.047673393040896">
        <ele>494.20001220703125</ele>
        <time>2014-05-17T10:49:15Z</time>
      </trkpt>
      <trkpt lat="46.11381009221077" lon="6.047346079722047">
        <ele>493.20001220703125</ele>
        <time>2014-05-17T10:49:17Z</time>
      </trkpt>
      <trkpt lat="46.113822497427464" lon="6.047170395031571">
        <ele>492</ele>
        <time>2014-05-17T10:49:18Z</time>
      </trkpt>
      <trkpt lat="46.113825514912605" lon="6.046810476109386">
        <ele>490</ele>
        <time>2014-05-17T10:49:20Z</time>
      </trkpt>
      <trkpt lat="46.113834986463189" lon="6.04662305675447">
        <ele>489.60000610351562</ele>
        <time>2014-05-17T10:49:21Z</time>
      </trkpt>
      <trkpt lat="46.113845715299249" lon="6.046438906341791">
        <ele>489</ele>
        <time>2014-05-17T10:49:22Z</time>
      </trkpt>
      <trkpt lat="46.113863233476877" lon="6.04625953361392">
        <ele>487.79998779296875</ele>
        <time>2014-05-17T10:49:23Z</time>
      </trkpt>
      <trkpt lat="46.113879242911935" lon="6.046086112037301">
        <ele>486.79998779296875</ele>
        <time>2014-05-17T10:49:24Z</time>
      </trkpt>
      <trkpt lat="46.113900532945991" lon="6.045921156182885">
        <ele>485.79998779296875</ele>
        <time>2014-05-17T10:49:25Z</time>
      </trkpt>
      <trkpt lat="46.113958116620779" lon="6.045450679957867">
        <ele>487.60000610351562</ele>
        <time>2014-05-17T10:49:28Z</time>
      </trkpt>
      <trkpt lat="46.113965408876538" lon="6.04530667886138">
        <ele>488</ele>
        <time>2014-05-17T10:49:29Z</time>
      </trkpt>
      <trkpt lat="46.11397186294198" lon="6.045041391626">
        <ele>489.20001220703125</ele>
        <time>2014-05-17T10:49:31Z</time>
      </trkpt>
      <trkpt lat="46.113978736102581" lon="6.044795047491789">
        <ele>490.60000610351562</ele>
        <time>2014-05-17T10:49:33Z</time>
      </trkpt>
      <trkpt lat="46.113984603434801" lon="6.044382741674781">
        <ele>491.79998779296875</ele>
        <time>2014-05-17T10:49:37Z</time>
      </trkpt>
      <trkpt lat="46.113986698910594" lon="6.044296994805336">
        <ele>492.20001220703125</ele>
        <time>2014-05-17T10:49:38Z</time>
      </trkpt>
      <trkpt lat="46.11398795619607" lon="6.044141091406345">
        <ele>493</ele>
        <time>2014-05-17T10:49:40Z</time>
      </trkpt>
      <trkpt lat="46.113992063328624" lon="6.043997844681144">
        <ele>494.39999389648437</ele>
        <time>2014-05-17T10:49:42Z</time>
      </trkpt>
      <trkpt lat="46.113994158804417" lon="6.043929532170296">
        <ele>495</ele>
        <time>2014-05-17T10:49:43Z</time>
      </trkpt>
      <trkpt lat="46.113995667546988" lon="6.04386281222105">
        <ele>495.39999389648438</ele>
        <time>2014-05-17T10:49:44Z</time>
      </trkpt>
      <trkpt lat="46.114009413868189" lon="6.04357598349452">
        <ele>496.79998779296875</ele>
        <time>2014-05-17T10:49:49Z</time>
      </trkpt>
      <trkpt lat="46.114009413868189" lon="6.043524350970984">
        <ele>497.20001220703125</ele>
        <time>2014-05-17T10:49:50Z</time>
      </trkpt>
      <trkpt lat="46.114012347534299" lon="6.043424354866147">
        <ele>497.79998779296875</ele>
        <time>2014-05-17T10:49:52Z</time>
      </trkpt>
      <trkpt lat="46.114029781892896" lon="6.043164767324925">
        <ele>499</ele>
        <time>2014-05-17T10:49:57Z</time>
      </trkpt>
      <trkpt lat="46.114030536264181" lon="6.043058317154646">
        <ele>499.39999389648437</ele>
        <time>2014-05-17T10:49:59Z</time>
      </trkpt>
      <trkpt lat="46.114031374454498" lon="6.042821444571018">
        <ele>500.20001220703125</ele>
        <time>2014-05-17T10:50:04Z</time>
      </trkpt>
      <trkpt lat="46.114033972844481" lon="6.042725304141641">
        <ele>500.79998779296875</ele>
        <time>2014-05-17T10:50:06Z</time>
      </trkpt>
      <trkpt lat="46.114042773842812" lon="6.042630169540644">
        <ele>501.20001220703125</ele>
        <time>2014-05-17T10:50:08Z</time>
      </trkpt>
      <trkpt lat="46.114053670316935" lon="6.042309561744332">
        <ele>502.39999389648437</ele>
        <time>2014-05-17T10:50:15Z</time>
      </trkpt>
      <trkpt lat="46.114072110503912" lon="6.042028181254864">
        <ele>503.60000610351562</ele>
        <time>2014-05-17T10:50:21Z</time>
      </trkpt>
      <trkpt lat="46.114078732207417" lon="6.041981494054198">
        <ele>503.60000610351562</ele>
        <time>2014-05-17T10:50:22Z</time>
      </trkpt>
      <trkpt lat="46.114173280075192" lon="6.041660215705633">
        <ele>504.20001220703125</ele>
        <time>2014-05-17T10:50:29Z</time>
      </trkpt>
      <trkpt lat="46.114299176260829" lon="6.041442705318332">
        <ele>504.39999389648437</ele>
        <time>2014-05-17T10:50:34Z</time>
      </trkpt>
      <trkpt lat="46.114359777420759" lon="6.041353521868587">
        <ele>504.39999389648437</ele>
        <time>2014-05-17T10:50:36Z</time>
      </trkpt>
      <trkpt lat="46.11459631472826" lon="6.040977006778121">
        <ele>503.60000610351562</ele>
        <time>2014-05-17T10:50:43Z</time>
      </trkpt>
      <trkpt lat="46.114797312766314" lon="6.040649442002177">
        <ele>503.20001220703125</ele>
        <time>2014-05-17T10:50:49Z</time>
      </trkpt>
      <trkpt lat="46.114993868395686" lon="6.040332019329071">
        <ele>503.60000610351562</ele>
        <time>2014-05-17T10:50:56Z</time>
      </trkpt>
      <trkpt lat="46.115054301917553" lon="6.040229760110378">
        <ele>504.79998779296875</ele>
        <time>2014-05-17T10:50:59Z</time>
      </trkpt>
      <trkpt lat="46.11510400660336" lon="6.040171170607209">
        <ele>505.39999389648438</ele>
        <time>2014-05-17T10:51:01Z</time>
      </trkpt>
      <trkpt lat="46.115157315507531" lon="6.040058853104711">
        <ele>505.79998779296875</ele>
        <time>2014-05-17T10:51:04Z</time>
      </trkpt>
      <trkpt lat="46.115193692967296" lon="6.039986768737435">
        <ele>506.60000610351562</ele>
        <time>2014-05-17T10:51:06Z</time>
      </trkpt>
      <trkpt lat="46.115334844216704" lon="6.039744950830936">
        <ele>505.79998779296875</ele>
        <time>2014-05-17T10:51:12Z</time>
      </trkpt>
      <trkpt lat="46.115399384871125" lon="6.03963858447969">
        <ele>505</ele>
        <time>2014-05-17T10:51:14Z</time>
      </trkpt>
      <trkpt lat="46.115438695997" lon="6.039585024118424">
        <ele>504.60000610351562</ele>
        <time>2014-05-17T10:51:15Z</time>
      </trkpt>
      <trkpt lat="46.115515390411019" lon="6.039453009143472">
        <ele>503.39999389648437</ele>
        <time>2014-05-17T10:51:17Z</time>
      </trkpt>
      <trkpt lat="46.115643801167607" lon="6.039232481271029">
        <ele>502.20001220703125</ele>
        <time>2014-05-17T10:51:20Z</time>
      </trkpt>
      <trkpt lat="46.115776654332876" lon="6.038991585373879">
        <ele>501.60000610351562</ele>
        <time>2014-05-17T10:51:23Z</time>
      </trkpt>
      <trkpt lat="46.115818312391639" lon="6.038918495178223">
        <ele>500.79998779296875</ele>
        <time>2014-05-17T10:51:24Z</time>
      </trkpt>
      <trkpt lat="46.115892576053739" lon="6.038782875984907">
        <ele>499.79998779296875</ele>
        <time>2014-05-17T10:51:26Z</time>
      </trkpt>
      <trkpt lat="46.115956781432033" lon="6.038658069446683">
        <ele>499.60000610351562</ele>
        <time>2014-05-17T10:51:28Z</time>
      </trkpt>
      <trkpt lat="46.11602165736258" lon="6.038551200181246">
        <ele>498.20001220703125</ele>
        <time>2014-05-17T10:51:30Z</time>
      </trkpt>
      <trkpt lat="46.116105141118169" lon="6.038441313430667">
        <ele>498.20001220703125</ele>
        <time>2014-05-17T10:51:33Z</time>
      </trkpt>
      <trkpt lat="46.116177309304476" lon="6.038339138031006">
        <ele>497.79998779296875</ele>
        <time>2014-05-17T10:51:37Z</time>
      </trkpt>
      <trkpt lat="46.116238161921501" lon="6.038286332041025">
        <ele>497.20001220703125</ele>
        <time>2014-05-17T10:51:42Z</time>
      </trkpt>
      <trkpt lat="46.116262469440699" lon="6.038288678973913">
        <ele>496.79998779296875</ele>
        <time>2014-05-17T10:51:43Z</time>
      </trkpt>
      <trkpt lat="46.116286525502801" lon="6.038298485800624">
        <ele>496.20001220703125</ele>
        <time>2014-05-17T10:51:44Z</time>
      </trkpt>
      <trkpt lat="46.116319131106138" lon="6.038319524377585">
        <ele>495.60000610351562</ele>
        <time>2014-05-17T10:51:45Z</time>
      </trkpt>
      <trkpt lat="46.116406638175249" lon="6.038414826616645">
        <ele>494.79998779296875</ele>
        <time>2014-05-17T10:51:48Z</time>
      </trkpt>
      <trkpt lat="46.116438489407301" lon="6.038434356451035">
        <ele>494.60000610351562</ele>
        <time>2014-05-17T10:51:49Z</time>
      </trkpt>
      <trkpt lat="46.116466736420989" lon="6.038456819951534">
        <ele>494.39999389648437</ele>
        <time>2014-05-17T10:51:50Z</time>
      </trkpt>
      <trkpt lat="46.116498252376914" lon="6.038512978702784">
        <ele>494.20001220703125</ele>
        <time>2014-05-17T10:51:53Z</time>
      </trkpt>
      <trkpt lat="46.116518871858716" lon="6.038477020338178">
        <ele>494.60000610351562</ele>
        <time>2014-05-17T10:52:04Z</time>
      </trkpt>
      <trkpt lat="46.116504371166229" lon="6.038450282067061">
        <ele>494.39999389648437</ele>
        <time>2014-05-17T10:52:05Z</time>
      </trkpt>
      <trkpt lat="46.116430358961225" lon="6.038358332589269">
        <ele>494.79998779296875</ele>
        <time>2014-05-17T10:52:09Z</time>
      </trkpt>
      <trkpt lat="46.116410745307803" lon="6.038326816633344">
        <ele>494.79998779296875</ele>
        <time>2014-05-17T10:52:10Z</time>
      </trkpt>
      <trkpt lat="46.116303876042366" lon="6.038169069215655">
        <ele>495.79998779296875</ele>
        <time>2014-05-17T10:52:15Z</time>
      </trkpt>
      <trkpt lat="46.116275545209646" lon="6.038115173578262">
        <ele>495.79998779296875</ele>
        <time>2014-05-17T10:52:17Z</time>
      </trkpt>
      <trkpt lat="46.116283340379596" lon="6.038084328174591">
        <ele>495.20001220703125</ele>
        <time>2014-05-17T10:52:18Z</time>
      </trkpt>
      <trkpt lat="46.116296919062734" lon="6.038062702864409">
        <ele>494.79998779296875</ele>
        <time>2014-05-17T10:52:19Z</time>
      </trkpt>
      <trkpt lat="46.116318376734853" lon="6.038045939058065">
        <ele>494.60000610351562</ele>
        <time>2014-05-17T10:52:20Z</time>
      </trkpt>
      <trkpt lat="46.116360705345869" lon="6.037959102541208">
        <ele>494.20001220703125</ele>
        <time>2014-05-17T10:52:23Z</time>
      </trkpt>
      <trkpt lat="46.116358861327171" lon="6.037874864414334">
        <ele>494.60000610351562</ele>
        <time>2014-05-17T10:52:25Z</time>
      </trkpt>
      <trkpt lat="46.116301445290446" lon="6.037701526656747">
        <ele>494.79998779296875</ele>
        <time>2014-05-17T10:52:30Z</time>
      </trkpt>
      <trkpt lat="46.116256518289447" lon="6.03745099157095">
        <ele>494.79998779296875</ele>
        <time>2014-05-17T10:52:35Z</time>
      </trkpt>
      <trkpt lat="46.116239838302135" lon="6.037332555279136">
        <ele>494</ele>
        <time>2014-05-17T10:52:37Z</time>
      </trkpt>
      <trkpt lat="46.116220224648714" lon="6.03724186308682">
        <ele>493.79998779296875</ele>
        <time>2014-05-17T10:52:40Z</time>
      </trkpt>
      <trkpt lat="46.11621318385005" lon="6.037156200036407">
        <ele>493.39999389648437</ele>
        <time>2014-05-17T10:52:42Z</time>
      </trkpt>
      <trkpt lat="46.11625961959362" lon="6.037076655775309">
        <ele>492.79998779296875</ele>
        <time>2014-05-17T10:52:44Z</time>
      </trkpt>
      <trkpt lat="46.116333045065403" lon="6.037023682147265">
        <ele>492.20001220703125</ele>
        <time>2014-05-17T10:52:46Z</time>
      </trkpt>
      <trkpt lat="46.116419211030006" lon="6.0369907412678">
        <ele>491</ele>
        <time>2014-05-17T10:52:48Z</time>
      </trkpt>
      <trkpt lat="46.11655374057591" lon="6.037045139819384">
        <ele>491.60000610351562</ele>
        <time>2014-05-17T10:52:52Z</time>
      </trkpt>
      <trkpt lat="46.116677960380912" lon="6.037178998813033">
        <ele>490.60000610351562</ele>
        <time>2014-05-17T10:52:57Z</time>
      </trkpt>
      <trkpt lat="46.116706291213632" lon="6.03719936683774">
        <ele>490.20001220703125</ele>
        <time>2014-05-17T10:52:58Z</time>
      </trkpt>
      <trkpt lat="46.116763791069388" lon="6.037240270525217">
        <ele>490.39999389648437</ele>
        <time>2014-05-17T10:53:02Z</time>
      </trkpt>
      <trkpt lat="46.116805197671056" lon="6.037245886400342">
        <ele>489.79998779296875</ele>
        <time>2014-05-17T10:53:04Z</time>
      </trkpt>
      <trkpt lat="46.11684350296855" lon="6.037276731804013">
        <ele>489.39999389648437</ele>
        <time>2014-05-17T10:53:07Z</time>
      </trkpt>
      <trkpt lat="46.116912150755525" lon="6.037360047921538">
        <ele>490.39999389648437</ele>
        <time>2014-05-17T10:53:14Z</time>
      </trkpt>
      <trkpt lat="46.116948444396257" lon="6.037441855296493">
        <ele>490.39999389648437</ele>
        <time>2014-05-17T10:53:34Z</time>
      </trkpt>
      <trkpt lat="46.117011476308107" lon="6.037552580237389">
        <ele>490.39999389648437</ele>
        <time>2014-05-17T10:53:40Z</time>
      </trkpt>
      <trkpt lat="46.117061600089073" lon="6.037647128105164">
        <ele>490.60000610351562</ele>
        <time>2014-05-17T10:53:46Z</time>
      </trkpt>
      <trkpt lat="46.117143491283059" lon="6.037686439231038">
        <ele>489.60000610351562</ele>
        <time>2014-05-17T10:53:51Z</time>
      </trkpt>
      <trkpt lat="46.117149190977216" lon="6.037726337090135">
        <ele>489.79998779296875</ele>
        <time>2014-05-17T10:54:42Z</time>
      </trkpt>
      <trkpt lat="46.117088757455349" lon="6.037676967680454">
        <ele>490.39999389648437</ele>
        <time>2014-05-17T10:54:47Z</time>
      </trkpt>
      <trkpt lat="46.117055732756853" lon="6.037616701796651">
        <ele>490.60000610351562</ele>
        <time>2014-05-17T10:54:50Z</time>
      </trkpt>
      <trkpt lat="46.117008542641997" lon="6.037525925785303">
        <ele>491</ele>
        <time>2014-05-17T10:54:54Z</time>
      </trkpt>
      <trkpt lat="46.116965375840664" lon="6.037485441192985">
        <ele>490.20001220703125</ele>
        <time>2014-05-17T10:55:01Z</time>
      </trkpt>
      <trkpt lat="46.116906031966209" lon="6.03748275898397">
        <ele>490.20001220703125</ele>
        <time>2014-05-17T10:55:05Z</time>
      </trkpt>
      <trkpt lat="46.117521179839969" lon="6.037098951637745">
        <ele>594.4000244140625</ele>
        <time>2014-05-17T11:45:00Z</time>
      </trkpt>
      <trkpt lat="46.117493687197566" lon="6.037088306620717">
        <ele>594.5999755859375</ele>
        <time>2014-05-17T11:45:23Z</time>
      </trkpt>
      <trkpt lat="46.117469128221273" lon="6.03710163384676">
        <ele>594.5999755859375</ele>
        <time>2014-05-17T11:45:25Z</time>
      </trkpt>
      <trkpt lat="46.117407856509089" lon="6.037220070138574">
        <ele>594.79998779296875</ele>
        <time>2014-05-17T11:45:31Z</time>
      </trkpt>
      <trkpt lat="46.117383800446987" lon="6.037271870300174">
        <ele>594.79998779296875</ele>
        <time>2014-05-17T11:45:33Z</time>
      </trkpt>
      <trkpt lat="46.117357816547155" lon="6.037283772602677">
        <ele>595</ele>
        <time>2014-05-17T11:45:34Z</time>
      </trkpt>
      <trkpt lat="46.117305848747492" lon="6.03729659691453">
        <ele>595.4000244140625</ele>
        <time>2014-05-17T11:45:36Z</time>
      </trkpt>
      <trkpt lat="46.117288079112768" lon="6.03730489499867">
        <ele>595.4000244140625</ele>
        <time>2014-05-17T11:45:37Z</time>
      </trkpt>
      <trkpt lat="46.11721339635551" lon="6.037329956889153">
        <ele>596.20001220703125</ele>
        <time>2014-05-17T11:45:42Z</time>
      </trkpt>
      <trkpt lat="46.117198141291738" lon="6.037314785644412">
        <ele>596</ele>
        <time>2014-05-17T11:45:43Z</time>
      </trkpt>
      <trkpt lat="46.117202416062355" lon="6.037240773439407">
        <ele>595.5999755859375</ele>
        <time>2014-05-17T11:45:46Z</time>
      </trkpt>
      <trkpt lat="46.117197973653674" lon="6.037133065983653">
        <ele>595.4000244140625</ele>
        <time>2014-05-17T11:45:50Z</time>
      </trkpt>
      <trkpt lat="46.117146424949169" lon="6.036974731832743">
        <ele>594.79998779296875</ele>
        <time>2014-05-17T11:45:53Z</time>
      </trkpt>
      <trkpt lat="46.117117507383227" lon="6.036917315796018">
        <ele>594.79998779296875</ele>
        <time>2014-05-17T11:45:54Z</time>
      </trkpt>
      <trkpt lat="46.116981385275722" lon="6.03672293946147">
        <ele>594.79998779296875</ele>
        <time>2014-05-17T11:45:58Z</time>
      </trkpt>
      <trkpt lat="46.116856075823307" lon="6.036729728803039">
        <ele>595</ele>
        <time>2014-05-17T11:46:02Z</time>
      </trkpt>
      <trkpt lat="46.116739651188254" lon="6.036834754049778">
        <ele>596.5999755859375</ele>
        <time>2014-05-17T11:46:08Z</time>
      </trkpt>
      <trkpt lat="46.116627333685756" lon="6.03687590919435">
        <ele>597.5999755859375</ele>
        <time>2014-05-17T11:46:12Z</time>
      </trkpt>
      <trkpt lat="46.116551980376244" lon="6.036905832588673">
        <ele>598.4000244140625</ele>
        <time>2014-05-17T11:46:15Z</time>
      </trkpt>
      <trkpt lat="46.116501102223992" lon="6.036939695477486">
        <ele>598.5999755859375</ele>
        <time>2014-05-17T11:46:17Z</time>
      </trkpt>
      <trkpt lat="46.116379145532846" lon="6.037013456225395">
        <ele>599</ele>
        <time>2014-05-17T11:46:22Z</time>
      </trkpt>
      <trkpt lat="46.116342768073082" lon="6.037044301629067">
        <ele>599</ele>
        <time>2014-05-17T11:46:24Z</time>
      </trkpt>
      <trkpt lat="46.116289794445038" lon="6.037080092355609">
        <ele>599.4000244140625</ele>
        <time>2014-05-17T11:46:27Z</time>
      </trkpt>
      <trkpt lat="46.116265403106809" lon="6.037093084305525">
        <ele>599.79998779296875</ele>
        <time>2014-05-17T11:46:28Z</time>
      </trkpt>
      <trkpt lat="46.116214860230684" lon="6.037177154794335">
        <ele>600.20001220703125</ele>
        <time>2014-05-17T11:46:32Z</time>
      </trkpt>
      <trkpt lat="46.116189463064075" lon="6.037247395142913">
        <ele>600.5999755859375</ele>
        <time>2014-05-17T11:49:02Z</time>
      </trkpt>
      <trkpt lat="46.116199437528849" lon="6.037264075130224">
        <ele>600.4000244140625</ele>
        <time>2014-05-17T11:49:03Z</time>
      </trkpt>
      <trkpt lat="46.11624545417726" lon="6.037340266630054">
        <ele>601.5999755859375</ele>
        <time>2014-05-17T11:49:15Z</time>
      </trkpt>
      <trkpt lat="46.116229025647044" lon="6.037300368770957">
        <ele>601.5999755859375</ele>
        <time>2014-05-17T11:49:17Z</time>
      </trkpt>
      <trkpt lat="46.116220895200968" lon="6.037285113707185">
        <ele>600.4000244140625</ele>
        <time>2014-05-17T11:49:42Z</time>
      </trkpt>
      <trkpt lat="46.116250986233354" lon="6.03744562715292">
        <ele>600.5999755859375</ele>
        <time>2014-05-17T11:49:47Z</time>
      </trkpt>
      <trkpt lat="46.116273114457726" lon="6.037537241354585">
        <ele>600.79998779296875</ele>
        <time>2014-05-17T11:49:49Z</time>
      </trkpt>
      <trkpt lat="46.116329608485103" lon="6.037817196920514">
        <ele>601</ele>
        <time>2014-05-17T11:49:55Z</time>
      </trkpt>
      <trkpt lat="46.116335727274418" lon="6.037937980145216">
        <ele>601.79998779296875</ele>
        <time>2014-05-17T11:49:58Z</time>
      </trkpt>
      <trkpt lat="46.116326423361897" lon="6.037965305149555">
        <ele>602</ele>
        <time>2014-05-17T11:49:59Z</time>
      </trkpt>
      <trkpt lat="46.116261715069413" lon="6.038051974028349">
        <ele>602.79998779296875</ele>
        <time>2014-05-17T11:50:04Z</time>
      </trkpt>
      <trkpt lat="46.116217793896794" lon="6.038105953484774">
        <ele>603.4000244140625</ele>
        <time>2014-05-17T11:50:06Z</time>
      </trkpt>
      <trkpt lat="46.116172699257731" lon="6.03818248026073">
        <ele>603.79998779296875</ele>
        <time>2014-05-17T11:50:08Z</time>
      </trkpt>
      <trkpt lat="46.116137327626348" lon="6.038267808035016">
        <ele>604.4000244140625</ele>
        <time>2014-05-17T11:50:10Z</time>
      </trkpt>
      <trkpt lat="46.116042276844382" lon="6.03842044249177">
        <ele>605.20001220703125</ele>
        <time>2014-05-17T11:50:14Z</time>
      </trkpt>
      <trkpt lat="46.115938425064087" lon="6.038651280105114">
        <ele>606</ele>
        <time>2014-05-17T11:50:20Z</time>
      </trkpt>
      <trkpt lat="46.115917135030031" lon="6.038686065003276">
        <ele>606.20001220703125</ele>
        <time>2014-05-17T11:50:21Z</time>
      </trkpt>
      <trkpt lat="46.115874135866761" lon="6.038755970075727">
        <ele>607.4000244140625</ele>
        <time>2014-05-17T11:50:23Z</time>
      </trkpt>
      <trkpt lat="46.11570599488914" lon="6.03903760202229">
        <ele>608.5999755859375</ele>
        <time>2014-05-17T11:50:31Z</time>
      </trkpt>
      <trkpt lat="46.115688057616353" lon="6.039074147120118">
        <ele>608.79998779296875</ele>
        <time>2014-05-17T11:50:32Z</time>
      </trkpt>
      <trkpt lat="46.115551181137562" lon="6.039317473769188">
        <ele>609.79998779296875</ele>
        <time>2014-05-17T11:50:39Z</time>
      </trkpt>
      <trkpt lat="46.115531316027045" lon="6.039350163191557">
        <ele>610.20001220703125</ele>
        <time>2014-05-17T11:50:40Z</time>
      </trkpt>
      <trkpt lat="46.115441042929888" lon="6.039486536756158">
        <ele>611</ele>
        <time>2014-05-17T11:50:44Z</time>
      </trkpt>
      <trkpt lat="46.115370215848088" lon="6.039577564224601">
        <ele>612.20001220703125</ele>
        <time>2014-05-17T11:50:47Z</time>
      </trkpt>
      <trkpt lat="46.115347500890493" lon="6.039607236161828">
        <ele>612.4000244140625</ele>
        <time>2014-05-17T11:50:48Z</time>
      </trkpt>
      <trkpt lat="46.115250689908862" lon="6.039714440703392">
        <ele>613.20001220703125</ele>
        <time>2014-05-17T11:50:52Z</time>
      </trkpt>
      <trkpt lat="46.11514063552022" lon="6.039813263341785">
        <ele>614.20001220703125</ele>
        <time>2014-05-17T11:50:56Z</time>
      </trkpt>
      <trkpt lat="46.115112556144595" lon="6.03983698412776">
        <ele>614.4000244140625</ele>
        <time>2014-05-17T11:50:57Z</time>
      </trkpt>
      <trkpt lat="46.114918179810047" lon="6.039996156468988">
        <ele>615</ele>
        <time>2014-05-17T11:51:04Z</time>
      </trkpt>
      <trkpt lat="46.11479613929987" lon="6.040073437616229">
        <ele>615.4000244140625</ele>
        <time>2014-05-17T11:51:08Z</time>
      </trkpt>
      <trkpt lat="46.114765293896198" lon="6.040091710165143">
        <ele>615.5999755859375</ele>
        <time>2014-05-17T11:51:09Z</time>
      </trkpt>
      <trkpt lat="46.114603020250797" lon="6.040166225284338">
        <ele>616.20001220703125</ele>
        <time>2014-05-17T11:51:14Z</time>
      </trkpt>
      <trkpt lat="46.114569492638111" lon="6.04017804376781">
        <ele>616.5999755859375</ele>
        <time>2014-05-17T11:51:15Z</time>
      </trkpt>
      <trkpt lat="46.114408560097218" lon="6.040213750675321">
        <ele>617.79998779296875</ele>
        <time>2014-05-17T11:51:20Z</time>
      </trkpt>
      <trkpt lat="46.114344103261828" lon="6.040225150063634">
        <ele>618</ele>
        <time>2014-05-17T11:51:22Z</time>
      </trkpt>
      <trkpt lat="46.114051071926951" lon="6.040235459804535">
        <ele>618.5999755859375</ele>
        <time>2014-05-17T11:51:30Z</time>
      </trkpt>
      <trkpt lat="46.11398602835834" lon="6.040234034880996">
        <ele>619</ele>
        <time>2014-05-17T11:51:32Z</time>
      </trkpt>
      <trkpt lat="46.113822581246495" lon="6.040220875293016">
        <ele>619</ele>
        <time>2014-05-17T11:51:37Z</time>
      </trkpt>
      <trkpt lat="46.113758375868201" lon="6.040216935798526">
        <ele>620</ele>
        <time>2014-05-17T11:51:39Z</time>
      </trkpt>
      <trkpt lat="46.113658295944333" lon="6.040213834494352">
        <ele>621.20001220703125</ele>
        <time>2014-05-17T11:51:42Z</time>
      </trkpt>
      <trkpt lat="46.113522509112954" lon="6.040201261639595">
        <ele>621</ele>
        <time>2014-05-17T11:51:46Z</time>
      </trkpt>
      <trkpt lat="46.113352943211794" lon="6.040189359337091">
        <ele>622.4000244140625</ele>
        <time>2014-05-17T11:51:51Z</time>
      </trkpt>
      <trkpt lat="46.113253869116306" lon="6.040177708491683">
        <ele>623.4000244140625</ele>
        <time>2014-05-17T11:51:54Z</time>
      </trkpt>
      <trkpt lat="46.113220090046525" lon="6.040173852816224">
        <ele>623.5999755859375</ele>
        <time>2014-05-17T11:51:55Z</time>
      </trkpt>
      <trkpt lat="46.113054631277919" lon="6.040152059867978">
        <ele>624.5999755859375</ele>
        <time>2014-05-17T11:52:00Z</time>
      </trkpt>
      <trkpt lat="46.112989922985435" lon="6.040151473134756">
        <ele>624.79998779296875</ele>
        <time>2014-05-17T11:52:02Z</time>
      </trkpt>
      <trkpt lat="46.112856734544039" lon="6.040145438164473">
        <ele>625.5999755859375</ele>
        <time>2014-05-17T11:52:06Z</time>
      </trkpt>
      <trkpt lat="46.11278984695673" lon="6.040139487013221">
        <ele>626.20001220703125</ele>
        <time>2014-05-17T11:52:08Z</time>
      </trkpt>
      <trkpt lat="46.112692030146718" lon="6.040134206414223">
        <ele>626.5999755859375</ele>
        <time>2014-05-17T11:52:11Z</time>
      </trkpt>
      <trkpt lat="46.112535037100315" lon="6.040101014077663">
        <ele>627.79998779296875</ele>
        <time>2014-05-17T11:52:16Z</time>
      </trkpt>
      <trkpt lat="46.112327501177788" lon="6.039987523108721">
        <ele>628.79998779296875</ele>
        <time>2014-05-17T11:52:23Z</time>
      </trkpt>
      <trkpt lat="46.112214764580131" lon="6.039897250011563">
        <ele>630</ele>
        <time>2014-05-17T11:52:27Z</time>
      </trkpt>
      <trkpt lat="46.112127508968115" lon="6.039831787347794">
        <ele>630.5999755859375</ele>
        <time>2014-05-17T11:52:30Z</time>
      </trkpt>
      <trkpt lat="46.112017370760441" lon="6.039739670231938">
        <ele>631</ele>
        <time>2014-05-17T11:52:34Z</time>
      </trkpt>
      <trkpt lat="46.111903879791498" lon="6.039646966382861">
        <ele>631.4000244140625</ele>
        <time>2014-05-17T11:52:38Z</time>
      </trkpt>
      <trkpt lat="46.111846379935741" lon="6.039597094058991">
        <ele>632.4000244140625</ele>
        <time>2014-05-17T11:52:40Z</time>
      </trkpt>
      <trkpt lat="46.111649572849274" lon="6.039424175396562">
        <ele>633.5999755859375</ele>
        <time>2014-05-17T11:52:47Z</time>
      </trkpt>
      <trkpt lat="46.111535411328077" lon="6.039320155978203">
        <ele>634.5999755859375</ele>
        <time>2014-05-17T11:52:51Z</time>
      </trkpt>
      <trkpt lat="46.111449161544442" lon="6.03924036026001">
        <ele>635</ele>
        <time>2014-05-17T11:52:54Z</time>
      </trkpt>
      <trkpt lat="46.111302897334099" lon="6.039119241759181">
        <ele>635.79998779296875</ele>
        <time>2014-05-17T11:52:59Z</time>
      </trkpt>
      <trkpt lat="46.111215809360147" lon="6.039037769660354">
        <ele>636.4000244140625</ele>
        <time>2014-05-17T11:53:02Z</time>
      </trkpt>
      <trkpt lat="46.11112218350172" lon="6.038946071639657">
        <ele>637</ele>
        <time>2014-05-17T11:53:05Z</time>
      </trkpt>
      <trkpt lat="46.11096921376884" lon="6.038812547922134">
        <ele>638</ele>
        <time>2014-05-17T11:53:10Z</time>
      </trkpt>
      <trkpt lat="46.110938033089042" lon="6.038786731660366">
        <ele>638.20001220703125</ele>
        <time>2014-05-17T11:53:11Z</time>
      </trkpt>
      <trkpt lat="46.110823955386877" lon="6.0386779345572">
        <ele>639.20001220703125</ele>
        <time>2014-05-17T11:53:15Z</time>
      </trkpt>
      <trkpt lat="46.110686408355832" lon="6.038559749722481">
        <ele>640</ele>
        <time>2014-05-17T11:53:20Z</time>
      </trkpt>
      <trkpt lat="46.110635362565517" lon="6.038518762215972">
        <ele>640.4000244140625</ele>
        <time>2014-05-17T11:53:22Z</time>
      </trkpt>
      <trkpt lat="46.110498821362853" lon="6.038391860201955">
        <ele>641</ele>
        <time>2014-05-17T11:53:27Z</time>
      </trkpt>
      <trkpt lat="46.110413074493408" lon="6.038313070312142">
        <ele>641.4000244140625</ele>
        <time>2014-05-17T11:53:30Z</time>
      </trkpt>
      <trkpt lat="46.110217273235321" lon="6.038137134164572">
        <ele>642.4000244140625</ele>
        <time>2014-05-17T11:53:37Z</time>
      </trkpt>
      <trkpt lat="46.110189696773887" lon="6.03811165317893">
        <ele>642.5999755859375</ele>
        <time>2014-05-17T11:53:38Z</time>
      </trkpt>
      <trkpt lat="46.110106213018298" lon="6.038039149716497">
        <ele>643.5999755859375</ele>
        <time>2014-05-17T11:53:41Z</time>
      </trkpt>
      <trkpt lat="46.110000098124146" lon="6.037948792800307">
        <ele>644.5999755859375</ele>
        <time>2014-05-17T11:53:45Z</time>
      </trkpt>
      <trkpt lat="46.109923152253032" lon="6.037877043709159">
        <ele>644.79998779296875</ele>
        <time>2014-05-17T11:53:48Z</time>
      </trkpt>
      <trkpt lat="46.109846625477076" lon="6.037810072302818">
        <ele>645.79998779296875</ele>
        <time>2014-05-17T11:53:51Z</time>
      </trkpt>
      <trkpt lat="46.109745455905795" lon="6.037732372060418">
        <ele>646.5999755859375</ele>
        <time>2014-05-17T11:53:55Z</time>
      </trkpt>
      <trkpt lat="46.10969633795321" lon="6.037692641839385">
        <ele>646.79998779296875</ele>
        <time>2014-05-17T11:53:57Z</time>
      </trkpt>
      <trkpt lat="46.109598772600293" lon="6.037611924111843">
        <ele>647.79998779296875</ele>
        <time>2014-05-17T11:54:01Z</time>
      </trkpt>
      <trkpt lat="46.109575890004635" lon="6.037592142820358">
        <ele>648</ele>
        <time>2014-05-17T11:54:02Z</time>
      </trkpt>
      <trkpt lat="46.109396852552891" lon="6.037439256906509">
        <ele>649.20001220703125</ele>
        <time>2014-05-17T11:54:09Z</time>
      </trkpt>
      <trkpt lat="46.109317895025015" lon="6.037356778979302">
        <ele>650.4000244140625</ele>
        <time>2014-05-17T11:54:12Z</time>
      </trkpt>
      <trkpt lat="46.109212953597307" lon="6.037253933027387">
        <ele>650.79998779296875</ele>
        <time>2014-05-17T11:54:16Z</time>
      </trkpt>
      <trkpt lat="46.109103066846728" lon="6.037160642445087">
        <ele>651.4000244140625</ele>
        <time>2014-05-17T11:54:20Z</time>
      </trkpt>
      <trkpt lat="46.108995778486133" lon="6.03705913759768">
        <ele>652.4000244140625</ele>
        <time>2014-05-17T11:54:24Z</time>
      </trkpt>
      <trkpt lat="46.108968202024698" lon="6.037034159526229">
        <ele>652.5999755859375</ele>
        <time>2014-05-17T11:54:25Z</time>
      </trkpt>
      <trkpt lat="46.10879679210484" lon="6.036886051297188">
        <ele>653.5999755859375</ele>
        <time>2014-05-17T11:54:31Z</time>
      </trkpt>
      <trkpt lat="46.108769550919533" lon="6.036859564483166">
        <ele>654</ele>
        <time>2014-05-17T11:54:32Z</time>
      </trkpt>
      <trkpt lat="46.108636781573296" lon="6.036734422668815">
        <ele>654.79998779296875</ele>
        <time>2014-05-17T11:54:37Z</time>
      </trkpt>
      <trkpt lat="46.108528655022383" lon="6.03663987480104">
        <ele>655.20001220703125</ele>
        <time>2014-05-17T11:54:41Z</time>
      </trkpt>
      <trkpt lat="46.108399825170636" lon="6.036514481529594">
        <ele>655.79998779296875</ele>
        <time>2014-05-17T11:54:46Z</time>
      </trkpt>
      <trkpt lat="46.10828960314393" lon="6.036421190947294">
        <ele>656.5999755859375</ele>
        <time>2014-05-17T11:54:50Z</time>
      </trkpt>
      <trkpt lat="46.108207376673818" lon="6.036346843466163">
        <ele>657.5999755859375</ele>
        <time>2014-05-17T11:54:53Z</time>
      </trkpt>
      <trkpt lat="46.108095729723573" lon="6.03624508716166">
        <ele>657.5999755859375</ele>
        <time>2014-05-17T11:54:57Z</time>
      </trkpt>
      <trkpt lat="46.10791627317667" lon="6.036097230389714">
        <ele>658.5999755859375</ele>
        <time>2014-05-17T11:55:03Z</time>
      </trkpt>
      <trkpt lat="46.107856091111898" lon="6.036041993647814">
        <ele>658.79998779296875</ele>
        <time>2014-05-17T11:55:05Z</time>
      </trkpt>
      <trkpt lat="46.107735140249133" lon="6.035934537649155">
        <ele>660</ele>
        <time>2014-05-17T11:55:09Z</time>
      </trkpt>
      <trkpt lat="46.107599688693881" lon="6.035859938710928">
        <ele>660.20001220703125</ele>
        <time>2014-05-17T11:55:13Z</time>
      </trkpt>
      <trkpt lat="46.10753565095365" lon="6.035792464390397">
        <ele>660.20001220703125</ele>
        <time>2014-05-17T11:55:15Z</time>
      </trkpt>
      <trkpt lat="46.107475804165006" lon="6.03570512495935">
        <ele>660.5999755859375</ele>
        <time>2014-05-17T11:55:17Z</time>
      </trkpt>
      <trkpt lat="46.107409587129951" lon="6.035629520192742">
        <ele>660.79998779296875</ele>
        <time>2014-05-17T11:55:19Z</time>
      </trkpt>
      <trkpt lat="46.107374802231789" lon="6.035597836598754">
        <ele>661</ele>
        <time>2014-05-17T11:55:20Z</time>
      </trkpt>
      <trkpt lat="46.107188304886222" lon="6.035437155514956">
        <ele>661.79998779296875</ele>
        <time>2014-05-17T11:55:25Z</time>
      </trkpt>
      <trkpt lat="46.106945732608438" lon="6.035224003717303">
        <ele>662.20001220703125</ele>
        <time>2014-05-17T11:55:31Z</time>
      </trkpt>
      <trkpt lat="46.1068647634238" lon="6.035153679549694">
        <ele>662.79998779296875</ele>
        <time>2014-05-17T11:55:33Z</time>
      </trkpt>
      <trkpt lat="46.106660244986415" lon="6.034973049536347">
        <ele>663.20001220703125</ele>
        <time>2014-05-17T11:55:38Z</time>
      </trkpt>
      <trkpt lat="46.106497384607792" lon="6.034818654879928">
        <ele>664</ele>
        <time>2014-05-17T11:55:42Z</time>
      </trkpt>
      <trkpt lat="46.106458241119981" lon="6.034781355410814">
        <ele>664.4000244140625</ele>
        <time>2014-05-17T11:55:43Z</time>
      </trkpt>
      <trkpt lat="46.106263613328338" lon="6.0346111189574">
        <ele>665.20001220703125</ele>
        <time>2014-05-17T11:55:48Z</time>
      </trkpt>
      <trkpt lat="46.106220865622163" lon="6.034578597173095">
        <ele>665.5999755859375</ele>
        <time>2014-05-17T11:55:49Z</time>
      </trkpt>
      <trkpt lat="46.106139309704304" lon="6.03451238013804">
        <ele>666</ele>
        <time>2014-05-17T11:55:51Z</time>
      </trkpt>
      <trkpt lat="46.106099663302302" lon="6.034472147002816">
        <ele>666</ele>
        <time>2014-05-17T11:55:52Z</time>
      </trkpt>
      <trkpt lat="46.105939233675599" lon="6.034328313544393">
        <ele>666.79998779296875</ele>
        <time>2014-05-17T11:55:56Z</time>
      </trkpt>
      <trkpt lat="46.105734966695309" lon="6.034143576398492">
        <ele>666.4000244140625</ele>
        <time>2014-05-17T11:56:01Z</time>
      </trkpt>
      <trkpt lat="46.105489209294319" lon="6.033917432650924">
        <ele>667.79998779296875</ele>
        <time>2014-05-17T11:56:07Z</time>
      </trkpt>
      <trkpt lat="46.105405138805509" lon="6.033851047977805">
        <ele>667.79998779296875</ele>
        <time>2014-05-17T11:56:09Z</time>
      </trkpt>
      <trkpt lat="46.105247139930725" lon="6.033708220347762">
        <ele>668.79998779296875</ele>
        <time>2014-05-17T11:56:13Z</time>
      </trkpt>
      <trkpt lat="46.105085536837578" lon="6.033559776842594">
        <ele>669.20001220703125</ele>
        <time>2014-05-17T11:56:17Z</time>
      </trkpt>
      <trkpt lat="46.104848831892014" lon="6.03335190564394">
        <ele>670</ele>
        <time>2014-05-17T11:56:23Z</time>
      </trkpt>
      <trkpt lat="46.104735257104039" lon="6.033243695273995">
        <ele>670.79998779296875</ele>
        <time>2014-05-17T11:56:26Z</time>
      </trkpt>
      <trkpt lat="46.104657975956798" lon="6.033170018345118">
        <ele>671</ele>
        <time>2014-05-17T11:56:28Z</time>
      </trkpt>
      <trkpt lat="46.104378858581185" lon="6.032919902354479">
        <ele>671.4000244140625</ele>
        <time>2014-05-17T11:56:35Z</time>
      </trkpt>
      <trkpt lat="46.104216501116753" lon="6.032766178250313">
        <ele>672.20001220703125</ele>
        <time>2014-05-17T11:56:39Z</time>
      </trkpt>
      <trkpt lat="46.104048695415258" lon="6.032617399469018">
        <ele>672.5999755859375</ele>
        <time>2014-05-17T11:56:43Z</time>
      </trkpt>
      <trkpt lat="46.103663044050336" lon="6.032263012602925">
        <ele>673.5999755859375</ele>
        <time>2014-05-17T11:56:52Z</time>
      </trkpt>
      <trkpt lat="46.103281667456031" lon="6.03191533125937">
        <ele>674.79998779296875</ele>
        <time>2014-05-17T11:57:01Z</time>
      </trkpt>
      <trkpt lat="46.102947564795613" lon="6.031610732898116">
        <ele>675.79998779296875</ele>
        <time>2014-05-17T11:57:09Z</time>
      </trkpt>
      <trkpt lat="46.102864164859056" lon="6.031534876674414">
        <ele>676</ele>
        <time>2014-05-17T11:57:11Z</time>
      </trkpt>
      <trkpt lat="46.102699711918831" lon="6.031387103721499">
        <ele>677</ele>
        <time>2014-05-17T11:57:15Z</time>
      </trkpt>
      <trkpt lat="46.102462923154235" lon="6.031174454838038">
        <ele>677.5999755859375</ele>
        <time>2014-05-17T11:57:21Z</time>
      </trkpt>
      <trkpt lat="46.1023835465312" lon="6.031097676604986">
        <ele>678</ele>
        <time>2014-05-17T11:57:23Z</time>
      </trkpt>
      <trkpt lat="46.102217752486467" lon="6.030952418223023">
        <ele>678.5999755859375</ele>
        <time>2014-05-17T11:57:27Z</time>
      </trkpt>
      <trkpt lat="46.102101495489478" lon="6.030847392976284">
        <ele>679</ele>
        <time>2014-05-17T11:57:30Z</time>
      </trkpt>
      <trkpt lat="46.10186168923974" lon="6.030627284198999">
        <ele>680</ele>
        <time>2014-05-17T11:57:36Z</time>
      </trkpt>
      <trkpt lat="46.101781222969294" lon="6.030554110184312">
        <ele>680.20001220703125</ele>
        <time>2014-05-17T11:57:38Z</time>
      </trkpt>
      <trkpt lat="46.101549630984664" lon="6.030342718586326">
        <ele>681.20001220703125</ele>
        <time>2014-05-17T11:57:44Z</time>
      </trkpt>
      <trkpt lat="46.101472685113549" lon="6.030273986980319">
        <ele>681.4000244140625</ele>
        <time>2014-05-17T11:57:46Z</time>
      </trkpt>
      <trkpt lat="46.101089715957642" lon="6.029924713075161">
        <ele>681.79998779296875</ele>
        <time>2014-05-17T11:57:55Z</time>
      </trkpt>
      <trkpt lat="46.100950157269835" lon="6.029795464128256">
        <ele>682.20001220703125</ele>
        <time>2014-05-17T11:57:58Z</time>
      </trkpt>
      <trkpt lat="46.100709177553654" lon="6.029570829123259">
        <ele>682.5999755859375</ele>
        <time>2014-05-17T11:58:03Z</time>
      </trkpt>
      <trkpt lat="46.100504323840141" lon="6.029388941824436">
        <ele>683.4000244140625</ele>
        <time>2014-05-17T11:58:07Z</time>
      </trkpt>
      <trkpt lat="46.100247083231807" lon="6.029146956279874">
        <ele>683.5999755859375</ele>
        <time>2014-05-17T11:58:12Z</time>
      </trkpt>
      <trkpt lat="46.099982298910618" lon="6.028907485306263">
        <ele>684.4000244140625</ele>
        <time>2014-05-17T11:58:17Z</time>
      </trkpt>
      <trkpt lat="46.099824048578739" lon="6.02876172401011">
        <ele>684.5999755859375</ele>
        <time>2014-05-17T11:58:20Z</time>
      </trkpt>
      <trkpt lat="46.099336305633187" lon="6.028318405151367">
        <ele>685.20001220703125</ele>
        <time>2014-05-17T11:58:29Z</time>
      </trkpt>
      <trkpt lat="46.099280985072255" lon="6.028268029913306">
        <ele>685.4000244140625</ele>
        <time>2014-05-17T11:58:30Z</time>
      </trkpt>
      <trkpt lat="46.098830290138721" lon="6.027854131534696">
        <ele>686</ele>
        <time>2014-05-17T11:58:38Z</time>
      </trkpt>
      <trkpt lat="46.098374649882317" lon="6.027428498491645">
        <ele>686</ele>
        <time>2014-05-17T11:58:46Z</time>
      </trkpt>
      <trkpt lat="46.098317317664623" lon="6.027381559833884">
        <ele>686.20001220703125</ele>
        <time>2014-05-17T11:58:47Z</time>
      </trkpt>
      <trkpt lat="46.098205922171474" lon="6.027282821014524">
        <ele>686.4000244140625</ele>
        <time>2014-05-17T11:58:49Z</time>
      </trkpt>
      <trkpt lat="46.097997967153788" lon="6.0270906239748">
        <ele>687.5999755859375</ele>
        <time>2014-05-17T11:58:53Z</time>
      </trkpt>
      <trkpt lat="46.097949435934424" lon="6.027043350040913">
        <ele>688</ele>
        <time>2014-05-17T11:58:54Z</time>
      </trkpt>
      <trkpt lat="46.097853714600205" lon="6.026956094428897">
        <ele>688.5999755859375</ele>
        <time>2014-05-17T11:58:56Z</time>
      </trkpt>
      <trkpt lat="46.09757979400456" lon="6.026717880740762">
        <ele>689.5999755859375</ele>
        <time>2014-05-17T11:59:02Z</time>
      </trkpt>
      <trkpt lat="46.097231023013592" lon="6.026395177468658">
        <ele>690.79998779296875</ele>
        <time>2014-05-17T11:59:10Z</time>
      </trkpt>
      <trkpt lat="46.097100600600243" lon="6.026270538568497">
        <ele>691.4000244140625</ele>
        <time>2014-05-17T11:59:13Z</time>
      </trkpt>
      <trkpt lat="46.096934303641319" lon="6.026136847212911">
        <ele>692.20001220703125</ele>
        <time>2014-05-17T11:59:17Z</time>
      </trkpt>
      <trkpt lat="46.096897758543491" lon="6.026098290458322">
        <ele>692.20001220703125</ele>
        <time>2014-05-17T11:59:18Z</time>
      </trkpt>
      <trkpt lat="46.096859369426966" lon="6.026060739532113">
        <ele>692.4000244140625</ele>
        <time>2014-05-17T11:59:19Z</time>
      </trkpt>
      <trkpt lat="46.096697431057692" lon="6.025915397331119">
        <ele>693.20001220703125</ele>
        <time>2014-05-17T11:59:23Z</time>
      </trkpt>
      <trkpt lat="46.096581760793924" lon="6.025799307972193">
        <ele>693.20001220703125</ele>
        <time>2014-05-17T11:59:26Z</time>
      </trkpt>
      <trkpt lat="46.09639291651547" lon="6.025620689615607">
        <ele>694.4000244140625</ele>
        <time>2014-05-17T11:59:31Z</time>
      </trkpt>
      <trkpt lat="46.096237516030669" lon="6.025480292737484">
        <ele>695</ele>
        <time>2014-05-17T11:59:35Z</time>
      </trkpt>
      <trkpt lat="46.096122432500124" lon="6.025375770404935">
        <ele>695.4000244140625</ele>
        <time>2014-05-17T11:59:38Z</time>
      </trkpt>
      <trkpt lat="46.095905844122171" lon="6.025181226432324">
        <ele>696.4000244140625</ele>
        <time>2014-05-17T11:59:44Z</time>
      </trkpt>
      <trkpt lat="46.095869215205312" lon="6.025148872286081">
        <ele>696.5999755859375</ele>
        <time>2014-05-17T11:59:45Z</time>
      </trkpt>
      <trkpt lat="46.095687747001648" lon="6.024982575327158">
        <ele>697.5999755859375</ele>
        <time>2014-05-17T11:59:50Z</time>
      </trkpt>
      <trkpt lat="46.095546009019017" lon="6.024861289188266">
        <ele>698.20001220703125</ele>
        <time>2014-05-17T11:59:54Z</time>
      </trkpt>
      <trkpt lat="46.095439894124866" lon="6.024764813482761">
        <ele>698.79998779296875</ele>
        <time>2014-05-17T11:59:57Z</time>
      </trkpt>
      <trkpt lat="46.095223724842072" lon="6.024550488218665">
        <ele>699.4000244140625</ele>
        <time>2014-05-17T12:00:03Z</time>
      </trkpt>
      <trkpt lat="46.095151472836733" lon="6.024482594802976">
        <ele>699.79998779296875</ele>
        <time>2014-05-17T12:00:05Z</time>
      </trkpt>
      <trkpt lat="46.094922814518213" lon="6.024270197376609">
        <ele>701</ele>
        <time>2014-05-17T12:00:11Z</time>
      </trkpt>
      <trkpt lat="46.094884425401688" lon="6.024238178506494">
        <ele>701.20001220703125</ele>
        <time>2014-05-17T12:00:12Z</time>
      </trkpt>
      <trkpt lat="46.094707818701863" lon="6.024066852405667">
        <ele>702</ele>
        <time>2014-05-17T12:00:17Z</time>
      </trkpt>
      <trkpt lat="46.094633471220732" lon="6.024003569036722">
        <ele>702.20001220703125</ele>
        <time>2014-05-17T12:00:19Z</time>
      </trkpt>
      <trkpt lat="46.09449072740972" lon="6.023874403908849">
        <ele>703</ele>
        <time>2014-05-17T12:00:23Z</time>
      </trkpt>
      <trkpt lat="46.094347145408392" lon="6.023753704503179">
        <ele>703.79998779296875</ele>
        <time>2014-05-17T12:00:27Z</time>
      </trkpt>
      <trkpt lat="46.094276402145624" lon="6.023694276809692">
        <ele>704</ele>
        <time>2014-05-17T12:00:29Z</time>
      </trkpt>
      <trkpt lat="46.094056125730276" lon="6.023505181074143">
        <ele>705.20001220703125</ele>
        <time>2014-05-17T12:00:35Z</time>
      </trkpt>
      <trkpt lat="46.093846661970019" lon="6.023328406736255">
        <ele>705.79998779296875</ele>
        <time>2014-05-17T12:00:41Z</time>
      </trkpt>
      <trkpt lat="46.093810200691223" lon="6.023300494998694">
        <ele>706</ele>
        <time>2014-05-17T12:00:42Z</time>
      </trkpt>
      <trkpt lat="46.093739122152328" lon="6.023243581876159">
        <ele>706.20001220703125</ele>
        <time>2014-05-17T12:00:44Z</time>
      </trkpt>
      <trkpt lat="46.093703415244818" lon="6.023212317377329">
        <ele>706.4000244140625</ele>
        <time>2014-05-17T12:00:45Z</time>
      </trkpt>
      <trkpt lat="46.093594869598746" lon="6.023122211918235">
        <ele>706.79998779296875</ele>
        <time>2014-05-17T12:00:48Z</time>
      </trkpt>
      <trkpt lat="46.093419352546334" lon="6.022971672937274">
        <ele>707.5999755859375</ele>
        <time>2014-05-17T12:00:53Z</time>
      </trkpt>
      <trkpt lat="46.093352381139994" lon="6.022905874997377">
        <ele>708</ele>
        <time>2014-05-17T12:00:55Z</time>
      </trkpt>
      <trkpt lat="46.093220785260201" lon="6.022784002125263">
        <ele>708.79998779296875</ele>
        <time>2014-05-17T12:00:59Z</time>
      </trkpt>
      <trkpt lat="46.093151802197099" lon="6.022736392915249">
        <ele>709.4000244140625</ele>
        <time>2014-05-17T12:01:01Z</time>
      </trkpt>
      <trkpt lat="46.093090698122978" lon="6.022678641602397">
        <ele>709.79998779296875</ele>
        <time>2014-05-17T12:01:03Z</time>
      </trkpt>
      <trkpt lat="46.09295004978776" lon="6.02253807708621">
        <ele>710.79998779296875</ele>
        <time>2014-05-17T12:01:08Z</time>
      </trkpt>
      <trkpt lat="46.092920126393437" lon="6.022511757910252">
        <ele>711</ele>
        <time>2014-05-17T12:01:09Z</time>
      </trkpt>
      <trkpt lat="46.092746118083596" lon="6.022349987179041">
        <ele>712.20001220703125</ele>
        <time>2014-05-17T12:01:15Z</time>
      </trkpt>
      <trkpt lat="46.092658527195454" lon="6.022275052964687">
        <ele>712.79998779296875</ele>
        <time>2014-05-17T12:01:18Z</time>
      </trkpt>
      <trkpt lat="46.092597087845206" lon="6.022225935012102">
        <ele>713.20001220703125</ele>
        <time>2014-05-17T12:01:20Z</time>
      </trkpt>
      <trkpt lat="46.092414781451225" lon="6.022058380767703">
        <ele>714.20001220703125</ele>
        <time>2014-05-17T12:01:26Z</time>
      </trkpt>
      <trkpt lat="46.092355437576771" lon="6.022006580606103">
        <ele>714.79998779296875</ele>
        <time>2014-05-17T12:01:28Z</time>
      </trkpt>
      <trkpt lat="46.092296848073602" lon="6.021956373006105">
        <ele>715.20001220703125</ele>
        <time>2014-05-17T12:01:30Z</time>
      </trkpt>
      <trkpt lat="46.092128371819854" lon="6.021799547597766">
        <ele>716.4000244140625</ele>
        <time>2014-05-17T12:01:36Z</time>
      </trkpt>
      <trkpt lat="46.091987639665604" lon="6.021686056628823">
        <ele>717.5999755859375</ele>
        <time>2014-05-17T12:01:41Z</time>
      </trkpt>
      <trkpt lat="46.091888649389148" lon="6.021601818501949">
        <ele>718.4000244140625</ele>
        <time>2014-05-17T12:01:45Z</time>
      </trkpt>
      <trkpt lat="46.091865599155426" lon="6.021578600630164">
        <ele>718.5999755859375</ele>
        <time>2014-05-17T12:01:46Z</time>
      </trkpt>
      <trkpt lat="46.091842884197831" lon="6.021556723862886">
        <ele>718.79998779296875</ele>
        <time>2014-05-17T12:01:47Z</time>
      </trkpt>
      <trkpt lat="46.091733751818538" lon="6.021449938416481">
        <ele>719.20001220703125</ele>
        <time>2014-05-17T12:01:52Z</time>
      </trkpt>
      <trkpt lat="46.091685555875301" lon="6.021414399147034">
        <ele>719.5999755859375</ele>
        <time>2014-05-17T12:01:54Z</time>
      </trkpt>
      <trkpt lat="46.091592600569129" lon="6.021321611478925">
        <ele>720.79998779296875</ele>
        <time>2014-05-17T12:01:58Z</time>
      </trkpt>
      <trkpt lat="46.091542895883322" lon="6.021271990612149">
        <ele>721</ele>
        <time>2014-05-17T12:02:00Z</time>
      </trkpt>
      <trkpt lat="46.091394536197186" lon="6.021143579855561">
        <ele>721.79998779296875</ele>
        <time>2014-05-17T12:02:06Z</time>
      </trkpt>
      <trkpt lat="46.09137081541121" lon="6.021122625097632">
        <ele>722.20001220703125</ele>
        <time>2014-05-17T12:02:07Z</time>
      </trkpt>
      <trkpt lat="46.091241901740432" lon="6.021007373929024">
        <ele>723</ele>
        <time>2014-05-17T12:02:12Z</time>
      </trkpt>
      <trkpt lat="46.09110351651907" lon="6.020882483571768">
        <ele>723.5999755859375</ele>
        <time>2014-05-17T12:02:18Z</time>
      </trkpt>
      <trkpt lat="46.091057248413563" lon="6.020841998979449">
        <ele>724.4000244140625</ele>
        <time>2014-05-17T12:02:20Z</time>
      </trkpt>
      <trkpt lat="46.090960940346122" lon="6.020761867985129">
        <ele>725.4000244140625</ele>
        <time>2014-05-17T12:02:24Z</time>
      </trkpt>
      <trkpt lat="46.090872259810567" lon="6.020690789446235">
        <ele>726</ele>
        <time>2014-05-17T12:02:28Z</time>
      </trkpt>
      <trkpt lat="46.090831020846963" lon="6.020647035911679">
        <ele>726.5999755859375</ele>
        <time>2014-05-17T12:02:30Z</time>
      </trkpt>
      <trkpt lat="46.090736221522093" lon="6.020555840805173">
        <ele>727.5999755859375</ele>
        <time>2014-05-17T12:02:34Z</time>
      </trkpt>
      <trkpt lat="46.09068769030273" lon="6.02051317691803">
        <ele>728</ele>
        <time>2014-05-17T12:02:36Z</time>
      </trkpt>
      <trkpt lat="46.090544695034623" lon="6.020381161943078">
        <ele>729</ele>
        <time>2014-05-17T12:02:42Z</time>
      </trkpt>
      <trkpt lat="46.090472443029284" lon="6.020311005413532">
        <ele>729.5999755859375</ele>
        <time>2014-05-17T12:02:45Z</time>
      </trkpt>
      <trkpt lat="46.090424498543143" lon="6.020262306556106">
        <ele>730</ele>
        <time>2014-05-17T12:02:47Z</time>
      </trkpt>
      <trkpt lat="46.090284772217274" lon="6.020132387056947">
        <ele>731</ele>
        <time>2014-05-17T12:02:53Z</time>
      </trkpt>
      <trkpt lat="46.090260129421949" lon="6.020112102851272">
        <ele>731.20001220703125</ele>
        <time>2014-05-17T12:02:54Z</time>
      </trkpt>
      <trkpt lat="46.090107578784227" lon="6.019975729286671">
        <ele>732</ele>
        <time>2014-05-17T12:03:00Z</time>
      </trkpt>
      <trkpt lat="46.090060556307435" lon="6.019933316856623">
        <ele>732.5999755859375</ele>
        <time>2014-05-17T12:03:02Z</time>
      </trkpt>
      <trkpt lat="46.08991127461195" lon="6.019799876958132">
        <ele>733.5999755859375</ele>
        <time>2014-05-17T12:03:08Z</time>
      </trkpt>
      <trkpt lat="46.089793844148517" lon="6.01970155723393">
        <ele>734.79998779296875</ele>
        <time>2014-05-17T12:03:13Z</time>
      </trkpt>
      <trkpt lat="46.0897256154567" lon="6.019633831456304">
        <ele>736</ele>
        <time>2014-05-17T12:03:16Z</time>
      </trkpt>
      <trkpt lat="46.08970214612782" lon="6.019611787050962">
        <ele>736</ele>
        <time>2014-05-17T12:03:17Z</time>
      </trkpt>
      <trkpt lat="46.089580524712801" lon="6.019502403214574">
        <ele>737.20001220703125</ele>
        <time>2014-05-17T12:03:22Z</time>
      </trkpt>
      <trkpt lat="46.089509027078748" lon="6.019438449293375">
        <ele>737.79998779296875</ele>
        <time>2014-05-17T12:03:25Z</time>
      </trkpt>
      <trkpt lat="46.089485138654709" lon="6.019418081268668">
        <ele>738.4000244140625</ele>
        <time>2014-05-17T12:03:26Z</time>
      </trkpt>
      <trkpt lat="46.089316159486771" lon="6.019264943897724">
        <ele>739.5999755859375</ele>
        <time>2014-05-17T12:03:33Z</time>
      </trkpt>
      <trkpt lat="46.089266873896122" lon="6.019223872572184">
        <ele>739.5999755859375</ele>
        <time>2014-05-17T12:03:35Z</time>
      </trkpt>
      <trkpt lat="46.089152963832021" lon="6.019120272248983">
        <ele>740.79998779296875</ele>
        <time>2014-05-17T12:03:40Z</time>
      </trkpt>
      <trkpt lat="46.089079203084111" lon="6.019058246165514">
        <ele>741.79998779296875</ele>
        <time>2014-05-17T12:03:43Z</time>
      </trkpt>
      <trkpt lat="46.089055398479104" lon="6.019034525379539">
        <ele>742</ele>
        <time>2014-05-17T12:03:44Z</time>
      </trkpt>
      <trkpt lat="46.088879462331533" lon="6.018858337774873">
        <ele>742.5999755859375</ele>
        <time>2014-05-17T12:03:51Z</time>
      </trkpt>
      <trkpt lat="46.088799415156245" lon="6.018788935616612">
        <ele>743</ele>
        <time>2014-05-17T12:03:54Z</time>
      </trkpt>
      <trkpt lat="46.088691456243396" lon="6.018696147948504">
        <ele>743.79998779296875</ele>
        <time>2014-05-17T12:03:58Z</time>
      </trkpt>
      <trkpt lat="46.088639907538891" lon="6.018648287281394">
        <ele>744.20001220703125</ele>
        <time>2014-05-17T12:04:00Z</time>
      </trkpt>
      <trkpt lat="46.08850453980267" lon="6.018528258427978">
        <ele>745.20001220703125</ele>
        <time>2014-05-17T12:04:05Z</time>
      </trkpt>
      <trkpt lat="46.088420553132892" lon="6.018455754965544">
        <ele>745.5999755859375</ele>
        <time>2014-05-17T12:04:08Z</time>
      </trkpt>
      <trkpt lat="46.088286191225052" lon="6.018323572352529">
        <ele>746.4000244140625</ele>
        <time>2014-05-17T12:04:13Z</time>
      </trkpt>
      <trkpt lat="46.088147135451436" lon="6.018205890432">
        <ele>747.20001220703125</ele>
        <time>2014-05-17T12:04:18Z</time>
      </trkpt>
      <trkpt lat="46.088119894266129" lon="6.018179403617978">
        <ele>747.4000244140625</ele>
        <time>2014-05-17T12:04:19Z</time>
      </trkpt>
      <trkpt lat="46.088014617562294" lon="6.018076976761222">
        <ele>748.5999755859375</ele>
        <time>2014-05-17T12:04:23Z</time>
      </trkpt>
      <trkpt lat="46.087941359728575" lon="6.018006065860391">
        <ele>749.4000244140625</ele>
        <time>2014-05-17T12:04:26Z</time>
      </trkpt>
      <trkpt lat="46.087890733033419" lon="6.017964072525501">
        <ele>749.5999755859375</ele>
        <time>2014-05-17T12:04:28Z</time>
      </trkpt>
      <trkpt lat="46.087794592604041" lon="6.017873296514154">
        <ele>750.4000244140625</ele>
        <time>2014-05-17T12:04:32Z</time>
      </trkpt>
      <trkpt lat="46.087769949808717" lon="6.017853347584605">
        <ele>750.5999755859375</ele>
        <time>2014-05-17T12:04:33Z</time>
      </trkpt>
      <trkpt lat="46.087642796337605" lon="6.017745053395629">
        <ele>751.5999755859375</ele>
        <time>2014-05-17T12:04:38Z</time>
      </trkpt>
      <trkpt lat="46.08755805529654" lon="6.01766592822969">
        <ele>752.4000244140625</ele>
        <time>2014-05-17T12:04:41Z</time>
      </trkpt>
      <trkpt lat="46.087497286498547" lon="6.017611362040043">
        <ele>752.5999755859375</ele>
        <time>2014-05-17T12:04:43Z</time>
      </trkpt>
      <trkpt lat="46.087307771667838" lon="6.017438862472773">
        <ele>753.79998779296875</ele>
        <time>2014-05-17T12:04:49Z</time>
      </trkpt>
      <trkpt lat="46.087032593786716" lon="6.01719687692821">
        <ele>754.20001220703125</ele>
        <time>2014-05-17T12:04:57Z</time>
      </trkpt>
      <trkpt lat="46.086967550218105" lon="6.017136024311185">
        <ele>755</ele>
        <time>2014-05-17T12:04:59Z</time>
      </trkpt>
      <trkpt lat="46.086803348734975" lon="6.016980791464448">
        <ele>756.20001220703125</ele>
        <time>2014-05-17T12:05:04Z</time>
      </trkpt>
      <trkpt lat="46.086735036224127" lon="6.016917508095503">
        <ele>756</ele>
        <time>2014-05-17T12:05:06Z</time>
      </trkpt>
      <trkpt lat="46.086405543610454" lon="6.01664082147181">
        <ele>756.79998779296875</ele>
        <time>2014-05-17T12:05:15Z</time>
      </trkpt>
      <trkpt lat="46.086291717365384" lon="6.016535712406039">
        <ele>757.20001220703125</ele>
        <time>2014-05-17T12:05:18Z</time>
      </trkpt>
      <trkpt lat="46.086105555295944" lon="6.016363715752959">
        <ele>757.79998779296875</ele>
        <time>2014-05-17T12:05:23Z</time>
      </trkpt>
      <trkpt lat="46.08606724999845" lon="6.016332199797034">
        <ele>758.4000244140625</ele>
        <time>2014-05-17T12:05:24Z</time>
      </trkpt>
      <trkpt lat="46.085836663842201" lon="6.01611795835197">
        <ele>760</ele>
        <time>2014-05-17T12:05:30Z</time>
      </trkpt>
      <trkpt lat="46.085796933621168" lon="6.016086442396045">
        <ele>760.20001220703125</ele>
        <time>2014-05-17T12:05:31Z</time>
      </trkpt>
      <trkpt lat="46.085719149559736" lon="6.016013687476516">
        <ele>759.5999755859375</ele>
        <time>2014-05-17T12:05:33Z</time>
      </trkpt>
      <trkpt lat="46.085383119061589" lon="6.015695091336966">
        <ele>760.5999755859375</ele>
        <time>2014-05-17T12:05:41Z</time>
      </trkpt>
      <trkpt lat="46.085013644769788" lon="6.015368113294244">
        <ele>760.4000244140625</ele>
        <time>2014-05-17T12:05:49Z</time>
      </trkpt>
      <trkpt lat="46.084527662023902" lon="6.014925967901945">
        <ele>760.5999755859375</ele>
        <time>2014-05-17T12:05:59Z</time>
      </trkpt>
      <trkpt lat="46.084083756431937" lon="6.014518775045872">
        <ele>760</ele>
        <time>2014-05-17T12:06:07Z</time>
      </trkpt>
      <trkpt lat="46.083614286035299" lon="6.014100015163422">
        <ele>760.5999755859375</ele>
        <time>2014-05-17T12:06:15Z</time>
      </trkpt>
      <trkpt lat="46.083554103970528" lon="6.014047125354409">
        <ele>760.79998779296875</ele>
        <time>2014-05-17T12:06:16Z</time>
      </trkpt>
      <trkpt lat="46.083493418991566" lon="6.013992810621858">
        <ele>761</ele>
        <time>2014-05-17T12:06:17Z</time>
      </trkpt>
      <trkpt lat="46.083035347983241" lon="6.013574721291661">
        <ele>762</ele>
        <time>2014-05-17T12:06:25Z</time>
      </trkpt>
      <trkpt lat="46.082983044907451" lon="6.013527950271964">
        <ele>762.4000244140625</ele>
        <time>2014-05-17T12:06:26Z</time>
      </trkpt>
      <trkpt lat="46.082779029384255" lon="6.013342710211873">
        <ele>763.20001220703125</ele>
        <time>2014-05-17T12:06:30Z</time>
      </trkpt>
      <trkpt lat="46.08258037827909" lon="6.013160403817892">
        <ele>764</ele>
        <time>2014-05-17T12:06:34Z</time>
      </trkpt>
      <trkpt lat="46.082480885088444" lon="6.013070130720735">
        <ele>764.4000244140625</ele>
        <time>2014-05-17T12:06:36Z</time>
      </trkpt>
      <trkpt lat="46.082103196531534" lon="6.012726472690702">
        <ele>764.20001220703125</ele>
        <time>2014-05-17T12:06:43Z</time>
      </trkpt>
      <trkpt lat="46.081728106364608" lon="6.012393040582538">
        <ele>763.5999755859375</ele>
        <time>2014-05-17T12:06:49Z</time>
      </trkpt>
      <trkpt lat="46.081658285111189" lon="6.012328919023275">
        <ele>763</ele>
        <time>2014-05-17T12:06:50Z</time>
      </trkpt>
      <trkpt lat="46.081353267654777" lon="6.012046532705426">
        <ele>761.79998779296875</ele>
        <time>2014-05-17T12:06:54Z</time>
      </trkpt>
      <trkpt lat="46.081271376460791" lon="6.011974280700088">
        <ele>761</ele>
        <time>2014-05-17T12:06:55Z</time>
      </trkpt>
      <trkpt lat="46.081188647076488" lon="6.011900017037988">
        <ele>760.4000244140625</ele>
        <time>2014-05-17T12:06:56Z</time>
      </trkpt>
      <trkpt lat="46.080658240243793" lon="6.011422835290432">
        <ele>758.79998779296875</ele>
        <time>2014-05-17T12:07:02Z</time>
      </trkpt>
      <trkpt lat="46.080197738483548" lon="6.011004745960236">
        <ele>758.79998779296875</ele>
        <time>2014-05-17T12:07:07Z</time>
      </trkpt>
      <trkpt lat="46.079918872565031" lon="6.010758401826024">
        <ele>758.5999755859375</ele>
        <time>2014-05-17T12:07:10Z</time>
      </trkpt>
      <trkpt lat="46.07938620261848" lon="6.010268563404679">
        <ele>758.79998779296875</ele>
        <time>2014-05-17T12:07:16Z</time>
      </trkpt>
      <trkpt lat="46.07930070720613" lon="6.010190024971962">
        <ele>759.20001220703125</ele>
        <time>2014-05-17T12:07:17Z</time>
      </trkpt>
      <trkpt lat="46.078807432204485" lon="6.00970127619803">
        <ele>759.20001220703125</ele>
        <time>2014-05-17T12:07:23Z</time>
      </trkpt>
      <trkpt lat="46.078724786639214" lon="6.009628940373659">
        <ele>759.20001220703125</ele>
        <time>2014-05-17T12:07:24Z</time>
      </trkpt>
      <trkpt lat="46.078482130542397" lon="6.009428277611733">
        <ele>760</ele>
        <time>2014-05-17T12:07:27Z</time>
      </trkpt>
      <trkpt lat="46.078254897147417" lon="6.009244294837117">
        <ele>760.79998779296875</ele>
        <time>2014-05-17T12:07:30Z</time>
      </trkpt>
      <trkpt lat="46.07808155938983" lon="6.009084535762668">
        <ele>761.4000244140625</ele>
        <time>2014-05-17T12:07:33Z</time>
      </trkpt>
      <trkpt lat="46.078039314597845" lon="6.009038100019097">
        <ele>762</ele>
        <time>2014-05-17T12:07:34Z</time>
      </trkpt>
      <trkpt lat="46.077998075634241" lon="6.008995771408081">
        <ele>762.4000244140625</ele>
        <time>2014-05-17T12:07:35Z</time>
      </trkpt>
      <trkpt lat="46.077918615192175" lon="6.008922345936298">
        <ele>763</ele>
        <time>2014-05-17T12:07:38Z</time>
      </trkpt>
      <trkpt lat="46.077895984053612" lon="6.008916394785047">
        <ele>763.20001220703125</ele>
        <time>2014-05-17T12:08:39Z</time>
      </trkpt>
      <trkpt lat="46.077876789495349" lon="6.008909856900573">
        <ele>763</ele>
        <time>2014-05-17T12:08:40Z</time>
      </trkpt>
      <trkpt lat="46.077745445072651" lon="6.008796449750662">
        <ele>762.4000244140625</ele>
        <time>2014-05-17T12:08:45Z</time>
      </trkpt>
      <trkpt lat="46.077530030161142" lon="6.008605090901256">
        <ele>761.5999755859375</ele>
        <time>2014-05-17T12:08:50Z</time>
      </trkpt>
      <trkpt lat="46.077226437628269" lon="6.00832924246788">
        <ele>761.79998779296875</ele>
        <time>2014-05-17T12:08:55Z</time>
      </trkpt>
      <trkpt lat="46.077155275270343" lon="6.008261432871223">
        <ele>761.20001220703125</ele>
        <time>2014-05-17T12:08:56Z</time>
      </trkpt>
      <trkpt lat="46.077001467347145" lon="6.008116006851196">
        <ele>759.4000244140625</ele>
        <time>2014-05-17T12:08:58Z</time>
      </trkpt>
      <trkpt lat="46.076834583655" lon="6.007955744862557">
        <ele>757.5999755859375</ele>
        <time>2014-05-17T12:09:00Z</time>
      </trkpt>
      <trkpt lat="46.076659904792905" lon="6.007784754037857">
        <ele>755.79998779296875</ele>
        <time>2014-05-17T12:09:02Z</time>
      </trkpt>
      <trkpt lat="46.076479610055685" lon="6.00758844986558">
        <ele>754.5999755859375</ele>
        <time>2014-05-17T12:09:04Z</time>
      </trkpt>
      <trkpt lat="46.076385313645005" lon="6.007485687732697">
        <ele>754.20001220703125</ele>
        <time>2014-05-17T12:09:05Z</time>
      </trkpt>
      <trkpt lat="46.076193870976567" lon="6.007275553420186">
        <ele>753</ele>
        <time>2014-05-17T12:09:07Z</time>
      </trkpt>
      <trkpt lat="46.075996980071068" lon="6.007051002234221">
        <ele>751.5999755859375</ele>
        <time>2014-05-17T12:09:09Z</time>
      </trkpt>
      <trkpt lat="46.075895391404629" lon="6.006935751065612">
        <ele>750.4000244140625</ele>
        <time>2014-05-17T12:09:10Z</time>
      </trkpt>
      <trkpt lat="46.075792461633682" lon="6.006821505725384">
        <ele>749.20001220703125</ele>
        <time>2014-05-17T12:09:11Z</time>
      </trkpt>
      <trkpt lat="46.07568877749145" lon="6.006708098575473">
        <ele>748</ele>
        <time>2014-05-17T12:09:12Z</time>
      </trkpt>
      <trkpt lat="46.075481493026018" lon="6.006475249305368">
        <ele>746.79998779296875</ele>
        <time>2014-05-17T12:09:14Z</time>
      </trkpt>
      <trkpt lat="46.075273118913174" lon="6.006242819130421">
        <ele>745.4000244140625</ele>
        <time>2014-05-17T12:09:16Z</time>
      </trkpt>
      <trkpt lat="46.075064577162266" lon="6.006009550765157">
        <ele>743.4000244140625</ele>
        <time>2014-05-17T12:09:18Z</time>
      </trkpt>
      <trkpt lat="46.074854526668787" lon="6.005774019286037">
        <ele>742.4000244140625</ele>
        <time>2014-05-17T12:09:20Z</time>
      </trkpt>
      <trkpt lat="46.074748998507857" lon="6.00565399043262">
        <ele>742.4000244140625</ele>
        <time>2014-05-17T12:09:21Z</time>
      </trkpt>
      <trkpt lat="46.074532661587" lon="6.005412088707089">
        <ele>741.20001220703125</ele>
        <time>2014-05-17T12:09:23Z</time>
      </trkpt>
      <trkpt lat="46.074318084865808" lon="6.005165409296751">
        <ele>739.5999755859375</ele>
        <time>2014-05-17T12:09:25Z</time>
      </trkpt>
      <trkpt lat="46.074103005230427" lon="6.004923591390252">
        <ele>737.79998779296875</ele>
        <time>2014-05-17T12:09:27Z</time>
      </trkpt>
      <trkpt lat="46.073996555060148" lon="6.004801299422979">
        <ele>737.20001220703125</ele>
        <time>2014-05-17T12:09:28Z</time>
      </trkpt>
      <trkpt lat="46.073892200365663" lon="6.004683030769229">
        <ele>736.20001220703125</ele>
        <time>2014-05-17T12:09:29Z</time>
      </trkpt>
      <trkpt lat="46.073790192604065" lon="6.004565265029669">
        <ele>734.79998779296875</ele>
        <time>2014-05-17T12:09:30Z</time>
      </trkpt>
      <trkpt lat="46.073688687756658" lon="6.004448756575584">
        <ele>733.5999755859375</ele>
        <time>2014-05-17T12:09:31Z</time>
      </trkpt>
      <trkpt lat="46.073172362521291" lon="6.003873841837049">
        <ele>734.20001220703125</ele>
        <time>2014-05-17T12:09:36Z</time>
      </trkpt>
      <trkpt lat="46.073070438578725" lon="6.003758171573281">
        <ele>733.79998779296875</ele>
        <time>2014-05-17T12:09:37Z</time>
      </trkpt>
      <trkpt lat="46.072866758331656" lon="6.003531105816364">
        <ele>732.5999755859375</ele>
        <time>2014-05-17T12:09:39Z</time>
      </trkpt>
      <trkpt lat="46.072352947667241" lon="6.002971362322569">
        <ele>731.5999755859375</ele>
        <time>2014-05-17T12:09:44Z</time>
      </trkpt>
      <trkpt lat="46.072255214676261" lon="6.002862732857466">
        <ele>731.4000244140625</ele>
        <time>2014-05-17T12:09:45Z</time>
      </trkpt>
      <trkpt lat="46.072153709828854" lon="6.002750918269157">
        <ele>732</ele>
        <time>2014-05-17T12:09:46Z</time>
      </trkpt>
      <trkpt lat="46.071951286867261" lon="6.002526702359319">
        <ele>732.79998779296875</ele>
        <time>2014-05-17T12:09:48Z</time>
      </trkpt>
      <trkpt lat="46.071752132847905" lon="6.002306593582034">
        <ele>731.20001220703125</ele>
        <time>2014-05-17T12:09:50Z</time>
      </trkpt>
      <trkpt lat="46.071558259427547" lon="6.002084808424115">
        <ele>730.20001220703125</ele>
        <time>2014-05-17T12:09:52Z</time>
      </trkpt>
      <trkpt lat="46.071462873369455" lon="6.001972826197743">
        <ele>730</ele>
        <time>2014-05-17T12:09:53Z</time>
      </trkpt>
      <trkpt lat="46.071044448763132" lon="6.001326246187091">
        <ele>730.20001220703125</ele>
        <time>2014-05-17T12:09:58Z</time>
      </trkpt>
      <trkpt lat="46.070911176502705" lon="6.00103204138577">
        <ele>728.79998779296875</ele>
        <time>2014-05-17T12:10:00Z</time>
      </trkpt>
      <trkpt lat="46.07078293338418" lon="6.000740937888622">
        <ele>727.79998779296875</ele>
        <time>2014-05-17T12:10:02Z</time>
      </trkpt>
      <trkpt lat="46.070720152929425" lon="6.00059911608696">
        <ele>727.5999755859375</ele>
        <time>2014-05-17T12:10:03Z</time>
      </trkpt>
      <trkpt lat="46.070599034428596" lon="6.000324692577124">
        <ele>726.5999755859375</ele>
        <time>2014-05-17T12:10:05Z</time>
      </trkpt>
      <trkpt lat="46.070316396653652" lon="5.999629162251949">
        <ele>727.79998779296875</ele>
        <time>2014-05-17T12:10:10Z</time>
      </trkpt>
      <trkpt lat="46.070268955081701" lon="5.999480970203877">
        <ele>727.79998779296875</ele>
        <time>2014-05-17T12:10:11Z</time>
      </trkpt>
      <trkpt lat="46.070234086364508" lon="5.999323558062315">
        <ele>727.5999755859375</ele>
        <time>2014-05-17T12:10:12Z</time>
      </trkpt>
      <trkpt lat="46.070202738046646" lon="5.998994736000896">
        <ele>726.4000244140625</ele>
        <time>2014-05-17T12:10:14Z</time>
      </trkpt>
      <trkpt lat="46.070259483531117" lon="5.998514788225293">
        <ele>725.4000244140625</ele>
        <time>2014-05-17T12:10:17Z</time>
      </trkpt>
      <trkpt lat="46.07028990983963" lon="5.998361399397254">
        <ele>724</ele>
        <time>2014-05-17T12:10:18Z</time>
      </trkpt>
      <trkpt lat="46.070320084691048" lon="5.998210944235325">
        <ele>722.79998779296875</ele>
        <time>2014-05-17T12:10:19Z</time>
      </trkpt>
      <trkpt lat="46.070464085787535" lon="5.997485825791955">
        <ele>723</ele>
        <time>2014-05-17T12:10:24Z</time>
      </trkpt>
      <trkpt lat="46.070538265630603" lon="5.997222466394305">
        <ele>721.4000244140625</ele>
        <time>2014-05-17T12:10:26Z</time>
      </trkpt>
      <trkpt lat="46.070680674165487" lon="5.996859362348914">
        <ele>721.20001220703125</ele>
        <time>2014-05-17T12:10:29Z</time>
      </trkpt>
      <trkpt lat="46.070991139858961" lon="5.996209932491183">
        <ele>722.4000244140625</ele>
        <time>2014-05-17T12:10:35Z</time>
      </trkpt>
      <trkpt lat="46.071042688563466" lon="5.996106080710888">
        <ele>722.4000244140625</ele>
        <time>2014-05-17T12:10:36Z</time>
      </trkpt>
      <trkpt lat="46.071092057973146" lon="5.996002396568656">
        <ele>722.4000244140625</ele>
        <time>2014-05-17T12:10:37Z</time>
      </trkpt>
      <trkpt lat="46.071242345497012" lon="5.995693104341626">
        <ele>722</ele>
        <time>2014-05-17T12:10:40Z</time>
      </trkpt>
      <trkpt lat="46.071425322443247" lon="5.995274763554335">
        <ele>722</ele>
        <time>2014-05-17T12:10:44Z</time>
      </trkpt>
      <trkpt lat="46.071633026003838" lon="5.994730442762375">
        <ele>721.20001220703125</ele>
        <time>2014-05-17T12:10:49Z</time>
      </trkpt>
      <trkpt lat="46.071717096492648" lon="5.994507987052202">
        <ele>719.79998779296875</ele>
        <time>2014-05-17T12:10:51Z</time>
      </trkpt>
      <trkpt lat="46.071795048192143" lon="5.99428410641849">
        <ele>718.4000244140625</ele>
        <time>2014-05-17T12:10:53Z</time>
      </trkpt>
      <trkpt lat="46.072001494467258" lon="5.993727799504995">
        <ele>717.4000244140625</ele>
        <time>2014-05-17T12:10:58Z</time>
      </trkpt>
      <trkpt lat="46.072040721774101" lon="5.993613973259926">
        <ele>717.20001220703125</ele>
        <time>2014-05-17T12:10:59Z</time>
      </trkpt>
      <trkpt lat="46.072103837504983" lon="5.99337668158114">
        <ele>716.20001220703125</ele>
        <time>2014-05-17T12:11:01Z</time>
      </trkpt>
      <trkpt lat="46.072134515270591" lon="5.993126146495342">
        <ele>715.79998779296875</ele>
        <time>2014-05-17T12:11:03Z</time>
      </trkpt>
      <trkpt lat="46.072141136974096" lon="5.993002094328404">
        <ele>715.79998779296875</ele>
        <time>2014-05-17T12:11:04Z</time>
      </trkpt>
      <trkpt lat="46.072174832224846" lon="5.992677295580506">
        <ele>716</ele>
        <time>2014-05-17T12:11:07Z</time>
      </trkpt>
      <trkpt lat="46.072310954332352" lon="5.992490462958813">
        <ele>716.20001220703125</ele>
        <time>2014-05-17T12:11:10Z</time>
      </trkpt>
      <trkpt lat="46.072307098656893" lon="5.992332883179188">
        <ele>715.79998779296875</ele>
        <time>2014-05-17T12:11:12Z</time>
      </trkpt>
      <trkpt lat="46.072210120037198" lon="5.992220565676689">
        <ele>715.5999755859375</ele>
        <time>2014-05-17T12:11:14Z</time>
      </trkpt>
      <trkpt lat="46.072086151689291" lon="5.991998529061675">
        <ele>715.4000244140625</ele>
        <time>2014-05-17T12:11:17Z</time>
      </trkpt>
      <trkpt lat="46.072056731209159" lon="5.991906998679042">
        <ele>715</ele>
        <time>2014-05-17T12:11:18Z</time>
      </trkpt>
      <trkpt lat="46.071918848901987" lon="5.991505924612284">
        <ele>714</ele>
        <time>2014-05-17T12:11:22Z</time>
      </trkpt>
      <trkpt lat="46.071765711531043" lon="5.991225382313132">
        <ele>712.4000244140625</ele>
        <time>2014-05-17T12:11:25Z</time>
      </trkpt>
      <trkpt lat="46.071645263582468" lon="5.99105715751648">
        <ele>711.5999755859375</ele>
        <time>2014-05-17T12:11:27Z</time>
      </trkpt>
      <trkpt lat="46.071583572775126" lon="5.990975853055716">
        <ele>711.4000244140625</ele>
        <time>2014-05-17T12:11:28Z</time>
      </trkpt>
      <trkpt lat="46.071515763178468" lon="5.99090569652617">
        <ele>711.20001220703125</ele>
        <time>2014-05-17T12:11:29Z</time>
      </trkpt>
      <trkpt lat="46.071374276652932" lon="5.990770328789949">
        <ele>710.20001220703125</ele>
        <time>2014-05-17T12:11:31Z</time>
      </trkpt>
      <trkpt lat="46.07130135409534" lon="5.990701429545879">
        <ele>709.5999755859375</ele>
        <time>2014-05-17T12:11:32Z</time>
      </trkpt>
      <trkpt lat="46.071225916966796" lon="5.990635212510824">
        <ele>708.79998779296875</ele>
        <time>2014-05-17T12:11:33Z</time>
      </trkpt>
      <trkpt lat="46.070839762687683" lon="5.990308066830039">
        <ele>708.5999755859375</ele>
        <time>2014-05-17T12:11:38Z</time>
      </trkpt>
      <trkpt lat="46.070676231756806" lon="5.990189127624035">
        <ele>707.4000244140625</ele>
        <time>2014-05-17T12:11:40Z</time>
      </trkpt>
      <trkpt lat="46.070514880120754" lon="5.990056274458766">
        <ele>706.4000244140625</ele>
        <time>2014-05-17T12:11:42Z</time>
      </trkpt>
      <trkpt lat="46.070359060540795" lon="5.989906573668122">
        <ele>705.20001220703125</ele>
        <time>2014-05-17T12:11:44Z</time>
      </trkpt>
      <trkpt lat="46.06999771669507" lon="5.989497704431415">
        <ele>705.4000244140625</ele>
        <time>2014-05-17T12:11:49Z</time>
      </trkpt>
      <trkpt lat="46.069623548537493" lon="5.989125045016408">
        <ele>704.79998779296875</ele>
        <time>2014-05-17T12:11:54Z</time>
      </trkpt>
      <trkpt lat="46.069545680657029" lon="5.989069808274508">
        <ele>704.4000244140625</ele>
        <time>2014-05-17T12:11:55Z</time>
      </trkpt>
      <trkpt lat="46.069008903577924" lon="5.988712655380368">
        <ele>704.79998779296875</ele>
        <time>2014-05-17T12:12:02Z</time>
      </trkpt>
      <trkpt lat="46.068602297455072" lon="5.988467652350664">
        <ele>703.79998779296875</ele>
        <time>2014-05-17T12:12:07Z</time>
      </trkpt>
      <trkpt lat="46.068508755415678" lon="5.988456504419446">
        <ele>703.4000244140625</ele>
        <time>2014-05-17T12:12:08Z</time>
      </trkpt>
      <trkpt lat="46.068319408223033" lon="5.98850361071527">
        <ele>702.4000244140625</ele>
        <time>2014-05-17T12:12:10Z</time>
      </trkpt>
      <trkpt lat="46.068229302763939" lon="5.988570414483547">
        <ele>701.79998779296875</ele>
        <time>2014-05-17T12:12:11Z</time>
      </trkpt>
      <trkpt lat="46.068069543689489" lon="5.988762443885207">
        <ele>700.79998779296875</ele>
        <time>2014-05-17T12:12:13Z</time>
      </trkpt>
      <trkpt lat="46.067994693294168" lon="5.988873336464167">
        <ele>700</ele>
        <time>2014-05-17T12:12:14Z</time>
      </trkpt>
      <trkpt lat="46.06791271828115" lon="5.988977272063494">
        <ele>698.79998779296875</ele>
        <time>2014-05-17T12:12:15Z</time>
      </trkpt>
      <trkpt lat="46.067819343879819" lon="5.98905966617167">
        <ele>697.5999755859375</ele>
        <time>2014-05-17T12:12:16Z</time>
      </trkpt>
      <trkpt lat="46.067716246470809" lon="5.989115322008729">
        <ele>696.20001220703125</ele>
        <time>2014-05-17T12:12:17Z</time>
      </trkpt>
      <trkpt lat="46.067613651975989" lon="5.989149520173669">
        <ele>695</ele>
        <time>2014-05-17T12:12:18Z</time>
      </trkpt>
      <trkpt lat="46.067397566512227" lon="5.989128984510899">
        <ele>693.79998779296875</ele>
        <time>2014-05-17T12:12:20Z</time>
      </trkpt>
      <trkpt lat="46.067285584285855" lon="5.989103671163321">
        <ele>693.5999755859375</ele>
        <time>2014-05-17T12:12:21Z</time>
      </trkpt>
      <trkpt lat="46.066705221310258" lon="5.988947851583362">
        <ele>692.5999755859375</ele>
        <time>2014-05-17T12:12:26Z</time>
      </trkpt>
      <trkpt lat="46.066461391746998" lon="5.988891441375017">
        <ele>690.79998779296875</ele>
        <time>2014-05-17T12:12:28Z</time>
      </trkpt>
      <trkpt lat="46.066338513046503" lon="5.988866798579693">
        <ele>689.5999755859375</ele>
        <time>2014-05-17T12:12:29Z</time>
      </trkpt>
      <trkpt lat="46.066214377060533" lon="5.988834695890546">
        <ele>688</ele>
        <time>2014-05-17T12:12:30Z</time>
      </trkpt>
      <trkpt lat="46.065964428707957" lon="5.988776190206409">
        <ele>686.4000244140625</ele>
        <time>2014-05-17T12:12:32Z</time>
      </trkpt>
      <trkpt lat="46.065583471208811" lon="5.988692538812757">
        <ele>685.20001220703125</ele>
        <time>2014-05-17T12:12:35Z</time>
      </trkpt>
      <trkpt lat="46.065323129296303" lon="5.988641157746315">
        <ele>684</ele>
        <time>2014-05-17T12:12:37Z</time>
      </trkpt>
      <trkpt lat="46.065061865374446" lon="5.98855440504849">
        <ele>682.5999755859375</ele>
        <time>2014-05-17T12:12:39Z</time>
      </trkpt>
      <trkpt lat="46.064933454617858" lon="5.988486427813768">
        <ele>681.20001220703125</ele>
        <time>2014-05-17T12:12:40Z</time>
      </trkpt>
      <trkpt lat="46.064811749383807" lon="5.988392550498247">
        <ele>680.4000244140625</ele>
        <time>2014-05-17T12:12:41Z</time>
      </trkpt>
      <trkpt lat="46.064698593690991" lon="5.988280484452844">
        <ele>680</ele>
        <time>2014-05-17T12:12:42Z</time>
      </trkpt>
      <trkpt lat="46.064416877925396" lon="5.98782735876739">
        <ele>678.5999755859375</ele>
        <time>2014-05-17T12:12:46Z</time>
      </trkpt>
      <trkpt lat="46.064274050295353" lon="5.987477833405137">
        <ele>676.5999755859375</ele>
        <time>2014-05-17T12:12:48Z</time>
      </trkpt>
      <trkpt lat="46.064205402508378" lon="5.987303908914328">
        <ele>675.20001220703125</ele>
        <time>2014-05-17T12:12:49Z</time>
      </trkpt>
      <trkpt lat="46.064135329797864" lon="5.98712956532836">
        <ele>674.4000244140625</ele>
        <time>2014-05-17T12:12:50Z</time>
      </trkpt>
      <trkpt lat="46.064068023115396" lon="5.986957401037216">
        <ele>673.4000244140625</ele>
        <time>2014-05-17T12:12:51Z</time>
      </trkpt>
      <trkpt lat="46.063935421407223" lon="5.986612904816866">
        <ele>670.79998779296875</ele>
        <time>2014-05-17T12:12:53Z</time>
      </trkpt>
      <trkpt lat="46.063869120553136" lon="5.986446021124721">
        <ele>669.20001220703125</ele>
        <time>2014-05-17T12:12:54Z</time>
      </trkpt>
      <trkpt lat="46.063705338165164" lon="5.986139830201864">
        <ele>668.79998779296875</ele>
        <time>2014-05-17T12:12:56Z</time>
      </trkpt>
      <trkpt lat="46.063490007072687" lon="5.985908573493362">
        <ele>667.79998779296875</ele>
        <time>2014-05-17T12:12:58Z</time>
      </trkpt>
      <trkpt lat="46.063364949077368" lon="5.985827352851629">
        <ele>667.79998779296875</ele>
        <time>2014-05-17T12:12:59Z</time>
      </trkpt>
      <trkpt lat="46.063098404556513" lon="5.985753843560815">
        <ele>667.4000244140625</ele>
        <time>2014-05-17T12:13:01Z</time>
      </trkpt>
      <trkpt lat="46.062829932197928" lon="5.985788879916072">
        <ele>666.79998779296875</ele>
        <time>2014-05-17T12:13:03Z</time>
      </trkpt>
      <trkpt lat="46.062699509784579" lon="5.985842440277338">
        <ele>666.4000244140625</ele>
        <time>2014-05-17T12:13:04Z</time>
      </trkpt>
      <trkpt lat="46.062573529779911" lon="5.985912680625916">
        <ele>665.5999755859375</ele>
        <time>2014-05-17T12:13:05Z</time>
      </trkpt>
      <trkpt lat="46.062445621937513" lon="5.985988704487681">
        <ele>665</ele>
        <time>2014-05-17T12:13:06Z</time>
      </trkpt>
      <trkpt lat="46.062320312485099" lon="5.986067662015557">
        <ele>664.4000244140625</ele>
        <time>2014-05-17T12:13:07Z</time>
      </trkpt>
      <trkpt lat="46.062191817909479" lon="5.986145781353116">
        <ele>664</ele>
        <time>2014-05-17T12:13:08Z</time>
      </trkpt>
      <trkpt lat="46.062063490971923" lon="5.986223481595516">
        <ele>663.20001220703125</ele>
        <time>2014-05-17T12:13:09Z</time>
      </trkpt>
      <trkpt lat="46.06180633418262" lon="5.986382989212871">
        <ele>661.4000244140625</ele>
        <time>2014-05-17T12:13:11Z</time>
      </trkpt>
      <trkpt lat="46.061546411365271" lon="5.98653394728899">
        <ele>659.5999755859375</ele>
        <time>2014-05-17T12:13:13Z</time>
      </trkpt>
      <trkpt lat="46.061275927349925" lon="5.986649785190821">
        <ele>658</ele>
        <time>2014-05-17T12:13:15Z</time>
      </trkpt>
      <trkpt lat="46.061137458309531" lon="5.986683061346412">
        <ele>657.4000244140625</ele>
        <time>2014-05-17T12:13:16Z</time>
      </trkpt>
      <trkpt lat="46.060853898525238" lon="5.986684150993824">
        <ele>656.79998779296875</ele>
        <time>2014-05-17T12:13:18Z</time>
      </trkpt>
      <trkpt lat="46.060712160542607" lon="5.986660681664944">
        <ele>655.4000244140625</ele>
        <time>2014-05-17T12:13:19Z</time>
      </trkpt>
      <trkpt lat="46.060434551909566" lon="5.986570660024881">
        <ele>653.79998779296875</ele>
        <time>2014-05-17T12:13:21Z</time>
      </trkpt>
      <trkpt lat="46.060297843068838" lon="5.986510226503015">
        <ele>653.5999755859375</ele>
        <time>2014-05-17T12:13:22Z</time>
      </trkpt>
      <trkpt lat="46.060162810608745" lon="5.986440572887659">
        <ele>653.20001220703125</ele>
        <time>2014-05-17T12:13:23Z</time>
      </trkpt>
      <trkpt lat="46.060028364881873" lon="5.986362285912037">
        <ele>652.79998779296875</ele>
        <time>2014-05-17T12:13:24Z</time>
      </trkpt>
      <trkpt lat="46.059763161465526" lon="5.986192552372813">
        <ele>651.5999755859375</ele>
        <time>2014-05-17T12:13:26Z</time>
      </trkpt>
      <trkpt lat="46.059632571414113" lon="5.986099345609546">
        <ele>650.4000244140625</ele>
        <time>2014-05-17T12:13:27Z</time>
      </trkpt>
      <trkpt lat="46.059503993019462" lon="5.98599842749536">
        <ele>650.20001220703125</ele>
        <time>2014-05-17T12:13:28Z</time>
      </trkpt>
      <trkpt lat="46.059376923367381" lon="5.985889295116067">
        <ele>649</ele>
        <time>2014-05-17T12:13:29Z</time>
      </trkpt>
      <trkpt lat="46.059253960847855" lon="5.985772367566824">
        <ele>648</ele>
        <time>2014-05-17T12:13:30Z</time>
      </trkpt>
      <trkpt lat="46.059132423251867" lon="5.985653512179852">
        <ele>646.20001220703125</ele>
        <time>2014-05-17T12:13:31Z</time>
      </trkpt>
      <trkpt lat="46.059014154598117" lon="5.985531806945801">
        <ele>645</ele>
        <time>2014-05-17T12:13:32Z</time>
      </trkpt>
      <trkpt lat="46.058900831267238" lon="5.985402725636959">
        <ele>644.20001220703125</ele>
        <time>2014-05-17T12:13:33Z</time>
      </trkpt>
      <trkpt lat="46.058795219287276" lon="5.985260233283043">
        <ele>644</ele>
        <time>2014-05-17T12:13:34Z</time>
      </trkpt>
      <trkpt lat="46.058702599257231" lon="5.985097959637642">
        <ele>643.5999755859375</ele>
        <time>2014-05-17T12:13:35Z</time>
      </trkpt>
      <trkpt lat="46.058628167957067" lon="5.9849170781672">
        <ele>643.20001220703125</ele>
        <time>2014-05-17T12:13:36Z</time>
      </trkpt>
      <trkpt lat="46.058574356138706" lon="5.984719851985574">
        <ele>642.4000244140625</ele>
        <time>2014-05-17T12:13:37Z</time>
      </trkpt>
      <trkpt lat="46.058540660887957" lon="5.984513321891427">
        <ele>642.20001220703125</ele>
        <time>2014-05-17T12:13:38Z</time>
      </trkpt>
      <trkpt lat="46.058520711958408" lon="5.984304444864392">
        <ele>641.20001220703125</ele>
        <time>2014-05-17T12:13:39Z</time>
      </trkpt>
      <trkpt lat="46.058503445237875" lon="5.984098082408309">
        <ele>640</ele>
        <time>2014-05-17T12:13:40Z</time>
      </trkpt>
      <trkpt lat="46.058483999222517" lon="5.983890546485782">
        <ele>638.4000244140625</ele>
        <time>2014-05-17T12:13:41Z</time>
      </trkpt>
      <trkpt lat="46.058461535722017" lon="5.98368477076292">
        <ele>636.79998779296875</ele>
        <time>2014-05-17T12:13:42Z</time>
      </trkpt>
      <trkpt lat="46.058437982574105" lon="5.983482096344233">
        <ele>634.5999755859375</ele>
        <time>2014-05-17T12:13:43Z</time>
      </trkpt>
      <trkpt lat="46.058318791911006" lon="5.9826635196805">
        <ele>634</ele>
        <time>2014-05-17T12:13:47Z</time>
      </trkpt>
      <trkpt lat="46.05823933146894" lon="5.98225548863411">
        <ele>633.20001220703125</ele>
        <time>2014-05-17T12:13:49Z</time>
      </trkpt>
      <trkpt lat="46.058194655925035" lon="5.982052395120263">
        <ele>631.79998779296875</ele>
        <time>2014-05-17T12:13:50Z</time>
      </trkpt>
      <trkpt lat="46.058145873248577" lon="5.981854163110256">
        <ele>630</ele>
        <time>2014-05-17T12:13:51Z</time>
      </trkpt>
      <trkpt lat="46.058094659820199" lon="5.981659200042486">
        <ele>628.5999755859375</ele>
        <time>2014-05-17T12:13:52Z</time>
      </trkpt>
      <trkpt lat="46.057984856888652" lon="5.981270531192422">
        <ele>627.5999755859375</ele>
        <time>2014-05-17T12:13:54Z</time>
      </trkpt>
      <trkpt lat="46.057861391454935" lon="5.980890830978751">
        <ele>625</ele>
        <time>2014-05-17T12:13:56Z</time>
      </trkpt>
      <trkpt lat="46.057796431705356" lon="5.980705842375755">
        <ele>623.20001220703125</ele>
        <time>2014-05-17T12:13:57Z</time>
      </trkpt>
      <trkpt lat="46.057730047032237" lon="5.980524960905314">
        <ele>622</ele>
        <time>2014-05-17T12:13:58Z</time>
      </trkpt>
      <trkpt lat="46.057661399245262" lon="5.980349527671933">
        <ele>621.20001220703125</ele>
        <time>2014-05-17T12:13:59Z</time>
      </trkpt>
      <trkpt lat="46.057504490017891" lon="5.980046773329377">
        <ele>621.20001220703125</ele>
        <time>2014-05-17T12:14:01Z</time>
      </trkpt>
      <trkpt lat="46.057402733713388" lon="5.979936718940735">
        <ele>621.20001220703125</ele>
        <time>2014-05-17T12:14:02Z</time>
      </trkpt>
      <trkpt lat="46.05715605430305" lon="5.979846613481641">
        <ele>621</ele>
        <time>2014-05-17T12:14:04Z</time>
      </trkpt>
      <trkpt lat="46.056908201426268" lon="5.979964379221201">
        <ele>620.4000244140625</ele>
        <time>2014-05-17T12:14:06Z</time>
      </trkpt>
      <trkpt lat="46.056800410151482" lon="5.980075104162097">
        <ele>619.4000244140625</ele>
        <time>2014-05-17T12:14:07Z</time>
      </trkpt>
      <trkpt lat="46.056688679382205" lon="5.98017979413271">
        <ele>618.20001220703125</ele>
        <time>2014-05-17T12:14:08Z</time>
      </trkpt>
      <trkpt lat="46.056568147614598" lon="5.980269396677613">
        <ele>617</ele>
        <time>2014-05-17T12:14:09Z</time>
      </trkpt>
      <trkpt lat="46.056307218968868" lon="5.980369057506323">
        <ele>615.4000244140625</ele>
        <time>2014-05-17T12:14:11Z</time>
      </trkpt>
      <trkpt lat="46.056170426309109" lon="5.980372074991465">
        <ele>614.5999755859375</ele>
        <time>2014-05-17T12:14:12Z</time>
      </trkpt>
      <trkpt lat="46.056036315858364" lon="5.980345420539379">
        <ele>613.5999755859375</ele>
        <time>2014-05-17T12:14:13Z</time>
      </trkpt>
      <trkpt lat="46.055775471031666" lon="5.980240982025862">
        <ele>613</ele>
        <time>2014-05-17T12:14:15Z</time>
      </trkpt>
      <trkpt lat="46.055644210427999" lon="5.980176273733378">
        <ele>612.20001220703125</ele>
        <time>2014-05-17T12:14:16Z</time>
      </trkpt>
      <trkpt lat="46.055510938167572" lon="5.980114750564098">
        <ele>611</ele>
        <time>2014-05-17T12:14:17Z</time>
      </trkpt>
      <trkpt lat="46.055376660078764" lon="5.980056412518024">
        <ele>609.79998779296875</ele>
        <time>2014-05-17T12:14:18Z</time>
      </trkpt>
      <trkpt lat="46.055240035057068" lon="5.980016766116023">
        <ele>608.79998779296875</ele>
        <time>2014-05-17T12:14:19Z</time>
      </trkpt>
      <trkpt lat="46.055100560188293" lon="5.980004360899329">
        <ele>608</ele>
        <time>2014-05-17T12:14:20Z</time>
      </trkpt>
      <trkpt lat="46.05483015999198" lon="5.980061693117023">
        <ele>606.4000244140625</ele>
        <time>2014-05-17T12:14:22Z</time>
      </trkpt>
      <trkpt lat="46.054701749235392" lon="5.980110475793481">
        <ele>605.20001220703125</ele>
        <time>2014-05-17T12:14:23Z</time>
      </trkpt>
      <trkpt lat="46.054574847221375" lon="5.980171663686633">
        <ele>604</ele>
        <time>2014-05-17T12:14:24Z</time>
      </trkpt>
      <trkpt lat="46.054448112845421" lon="5.980238802731037">
        <ele>604.20001220703125</ele>
        <time>2014-05-17T12:14:25Z</time>
      </trkpt>
      <trkpt lat="46.054195482283831" lon="5.980371236801148">
        <ele>602.4000244140625</ele>
        <time>2014-05-17T12:14:27Z</time>
      </trkpt>
      <trkpt lat="46.054064473137259" lon="5.980423204600811">
        <ele>601.5999755859375</ele>
        <time>2014-05-17T12:14:28Z</time>
      </trkpt>
      <trkpt lat="46.053931787610054" lon="5.980440136045218">
        <ele>601.5999755859375</ele>
        <time>2014-05-17T12:14:29Z</time>
      </trkpt>
      <trkpt lat="46.053797760978341" lon="5.980418594554067">
        <ele>600.79998779296875</ele>
        <time>2014-05-17T12:14:30Z</time>
      </trkpt>
      <trkpt lat="46.053665913641453" lon="5.980368806049228">
        <ele>598.4000244140625</ele>
        <time>2014-05-17T12:14:31Z</time>
      </trkpt>
      <trkpt lat="46.053410097956657" lon="5.980251207947731">
        <ele>597.20001220703125</ele>
        <time>2014-05-17T12:14:33Z</time>
      </trkpt>
      <trkpt lat="46.052958900108933" lon="5.980036966502667">
        <ele>596.79998779296875</ele>
        <time>2014-05-17T12:14:37Z</time>
      </trkpt>
      <trkpt lat="46.052731163799763" lon="5.980064710602164">
        <ele>595.79998779296875</ele>
        <time>2014-05-17T12:14:39Z</time>
      </trkpt>
      <trkpt lat="46.052626557648182" lon="5.9801353700459">
        <ele>594.79998779296875</ele>
        <time>2014-05-17T12:14:40Z</time>
      </trkpt>
      <trkpt lat="46.052535362541676" lon="5.980238886550069">
        <ele>593.79998779296875</ele>
        <time>2014-05-17T12:14:41Z</time>
      </trkpt>
      <trkpt lat="46.052457159385085" lon="5.980362184345722">
        <ele>593.4000244140625</ele>
        <time>2014-05-17T12:14:42Z</time>
      </trkpt>
      <trkpt lat="46.052385494112968" lon="5.980496713891625">
        <ele>592.5999755859375</ele>
        <time>2014-05-17T12:14:43Z</time>
      </trkpt>
      <trkpt lat="46.0523113142699" lon="5.980634512379766">
        <ele>591.79998779296875</ele>
        <time>2014-05-17T12:14:44Z</time>
      </trkpt>
      <trkpt lat="46.052234200760722" lon="5.980768203735352">
        <ele>590.79998779296875</ele>
        <time>2014-05-17T12:14:45Z</time>
      </trkpt>
      <trkpt lat="46.052147280424833" lon="5.980889489874244">
        <ele>590.4000244140625</ele>
        <time>2014-05-17T12:14:46Z</time>
      </trkpt>
      <trkpt lat="46.051836647093296" lon="5.981162823736668">
        <ele>589.79998779296875</ele>
        <time>2014-05-17T12:14:49Z</time>
      </trkpt>
      <trkpt lat="46.051718797534704" lon="5.981233986094594">
        <ele>589.79998779296875</ele>
        <time>2014-05-17T12:14:50Z</time>
      </trkpt>
      <trkpt lat="46.051461892202497" lon="5.981319481506944">
        <ele>587.79998779296875</ele>
        <time>2014-05-17T12:14:52Z</time>
      </trkpt>
      <trkpt lat="46.051327111199498" lon="5.981316631659865">
        <ele>586.79998779296875</ele>
        <time>2014-05-17T12:14:53Z</time>
      </trkpt>
      <trkpt lat="46.051054950803518" lon="5.981258461251855">
        <ele>582.79998779296875</ele>
        <time>2014-05-17T12:14:55Z</time>
      </trkpt>
      <trkpt lat="46.050920756533742" lon="5.981224849820137">
        <ele>581</ele>
        <time>2014-05-17T12:14:56Z</time>
      </trkpt>
      <trkpt lat="46.050785640254617" lon="5.981191741302609">
        <ele>579.79998779296875</ele>
        <time>2014-05-17T12:14:57Z</time>
      </trkpt>
      <trkpt lat="46.050518257543445" lon="5.981124099344015">
        <ele>578.20001220703125</ele>
        <time>2014-05-17T12:14:59Z</time>
      </trkpt>
      <trkpt lat="46.050251293927431" lon="5.981062408536673">
        <ele>577</ele>
        <time>2014-05-17T12:15:01Z</time>
      </trkpt>
      <trkpt lat="46.049980306997895" lon="5.980997029691935">
        <ele>575.4000244140625</ele>
        <time>2014-05-17T12:15:03Z</time>
      </trkpt>
      <trkpt lat="46.049843933433294" lon="5.980962999165058">
        <ele>574.4000244140625</ele>
        <time>2014-05-17T12:15:04Z</time>
      </trkpt>
      <trkpt lat="46.049706134945154" lon="5.980927543714643">
        <ele>573.79998779296875</ele>
        <time>2014-05-17T12:15:05Z</time>
      </trkpt>
      <trkpt lat="46.049568504095078" lon="5.980890411883593">
        <ele>573.20001220703125</ele>
        <time>2014-05-17T12:15:06Z</time>
      </trkpt>
      <trkpt lat="46.049001719802618" lon="5.980743812397122">
        <ele>572.4000244140625</ele>
        <time>2014-05-17T12:15:10Z</time>
      </trkpt>
      <trkpt lat="46.048860400915146" lon="5.980705674737692">
        <ele>571</ele>
        <time>2014-05-17T12:15:11Z</time>
      </trkpt>
      <trkpt lat="46.048718830570579" lon="5.980668878182769">
        <ele>569.4000244140625</ele>
        <time>2014-05-17T12:15:12Z</time>
      </trkpt>
      <trkpt lat="46.048577511683106" lon="5.980630572885275">
        <ele>568.20001220703125</ele>
        <time>2014-05-17T12:15:13Z</time>
      </trkpt>
      <trkpt lat="46.048292526975274" lon="5.980543065816164">
        <ele>567</ele>
        <time>2014-05-17T12:15:15Z</time>
      </trkpt>
      <trkpt lat="46.048150369897485" lon="5.980496378615499">
        <ele>566</ele>
        <time>2014-05-17T12:15:16Z</time>
      </trkpt>
      <trkpt lat="46.048008212819695" lon="5.980451283976436">
        <ele>565</ele>
        <time>2014-05-17T12:15:17Z</time>
      </trkpt>
      <trkpt lat="46.047719456255436" lon="5.980370733886957">
        <ele>562.79998779296875</ele>
        <time>2014-05-17T12:15:19Z</time>
      </trkpt>
      <trkpt lat="46.047574868425727" lon="5.980339217931032">
        <ele>562.20001220703125</ele>
        <time>2014-05-17T12:15:20Z</time>
      </trkpt>
      <trkpt lat="46.047142781317234" lon="5.980256237089634">
        <ele>561.5999755859375</ele>
        <time>2014-05-17T12:15:23Z</time>
      </trkpt>
      <trkpt lat="46.04686014354229" lon="5.980216087773442">
        <ele>559.5999755859375</ele>
        <time>2014-05-17T12:15:25Z</time>
      </trkpt>
      <trkpt lat="46.046579517424107" lon="5.980173507705331">
        <ele>558</ele>
        <time>2014-05-17T12:15:27Z</time>
      </trkpt>
      <trkpt lat="46.046036118641496" lon="5.980048701167107">
        <ele>556.20001220703125</ele>
        <time>2014-05-17T12:15:31Z</time>
      </trkpt>
      <trkpt lat="46.045778626576066" lon="5.979961948469281">
        <ele>555.5999755859375</ele>
        <time>2014-05-17T12:15:33Z</time>
      </trkpt>
      <trkpt lat="46.045176303014159" lon="5.979803279042244">
        <ele>555.4000244140625</ele>
        <time>2014-05-17T12:15:38Z</time>
      </trkpt>
      <trkpt lat="46.044653942808509" lon="5.979681070894003">
        <ele>555.79998779296875</ele>
        <time>2014-05-17T12:15:43Z</time>
      </trkpt>
      <trkpt lat="46.044370131567121" lon="5.979610830545425">
        <ele>557.79998779296875</ele>
        <time>2014-05-17T12:15:46Z</time>
      </trkpt>
      <trkpt lat="46.044196123257279" lon="5.979526676237583">
        <ele>558.79998779296875</ele>
        <time>2014-05-17T12:15:48Z</time>
      </trkpt>
      <trkpt lat="46.044120602309704" lon="5.979462722316384">
        <ele>559</ele>
        <time>2014-05-17T12:15:49Z</time>
      </trkpt>
      <trkpt lat="46.043993532657623" lon="5.979310506954789">
        <ele>559.5999755859375</ele>
        <time>2014-05-17T12:15:51Z</time>
      </trkpt>
      <trkpt lat="46.043938044458628" lon="5.979232136160135">
        <ele>560</ele>
        <time>2014-05-17T12:15:52Z</time>
      </trkpt>
      <trkpt lat="46.043795635923743" lon="5.978989144787192">
        <ele>561.5999755859375</ele>
        <time>2014-05-17T12:15:55Z</time>
      </trkpt>
      <trkpt lat="46.0437564086169" lon="5.978912198916078">
        <ele>562.20001220703125</ele>
        <time>2014-05-17T12:15:56Z</time>
      </trkpt>
      <trkpt lat="46.04371877387166" lon="5.97883366048336">
        <ele>563</ele>
        <time>2014-05-17T12:15:57Z</time>
      </trkpt>
      <trkpt lat="46.04361173696816" lon="5.978628052398562">
        <ele>564.20001220703125</ele>
        <time>2014-05-17T12:16:00Z</time>
      </trkpt>
      <trkpt lat="46.043548118323088" lon="5.978501653298736">
        <ele>565.20001220703125</ele>
        <time>2014-05-17T12:16:02Z</time>
      </trkpt>
      <trkpt lat="46.043517189100385" lon="5.978442057967186">
        <ele>565.5999755859375</ele>
        <time>2014-05-17T12:16:03Z</time>
      </trkpt>
      <trkpt lat="46.043395483866334" lon="5.978211723268032">
        <ele>567</ele>
        <time>2014-05-17T12:16:07Z</time>
      </trkpt>
      <trkpt lat="46.043283334001899" lon="5.97799320705235">
        <ele>567.4000244140625</ele>
        <time>2014-05-17T12:16:11Z</time>
      </trkpt>
      <trkpt lat="46.043230695649981" lon="5.977891534566879">
        <ele>568</ele>
        <time>2014-05-17T12:16:13Z</time>
      </trkpt>
      <trkpt lat="46.04312994517386" lon="5.977690201252699">
        <ele>569.20001220703125</ele>
        <time>2014-05-17T12:16:17Z</time>
      </trkpt>
      <trkpt lat="46.043106727302074" lon="5.977639155462384">
        <ele>569.4000244140625</ele>
        <time>2014-05-17T12:16:18Z</time>
      </trkpt>
      <trkpt lat="46.043005641549826" lon="5.977451233193278">
        <ele>570.20001220703125</ele>
        <time>2014-05-17T12:16:22Z</time>
      </trkpt>
      <trkpt lat="46.042896509170532" lon="5.977237243205309">
        <ele>570.79998779296875</ele>
        <time>2014-05-17T12:16:27Z</time>
      </trkpt>
      <trkpt lat="46.04284998960793" lon="5.977155016735196">
        <ele>571.4000244140625</ele>
        <time>2014-05-17T12:16:29Z</time>
      </trkpt>
      <trkpt lat="46.04276055470109" lon="5.976990312337875">
        <ele>572.20001220703125</ele>
        <time>2014-05-17T12:16:33Z</time>
      </trkpt>
      <trkpt lat="46.04273515753448" lon="5.976955778896809">
        <ele>572.4000244140625</ele>
        <time>2014-05-17T12:16:34Z</time>
      </trkpt>
      <trkpt lat="46.042623426765203" lon="5.976761821657419">
        <ele>573.5999755859375</ele>
        <time>2014-05-17T12:16:39Z</time>
      </trkpt>
      <trkpt lat="46.04234422557056" lon="5.976348426192999">
        <ele>574.4000244140625</ele>
        <time>2014-05-17T12:16:49Z</time>
      </trkpt>
      <trkpt lat="46.042084218934178" lon="5.975962355732918">
        <ele>573.79998779296875</ele>
        <time>2014-05-17T12:16:56Z</time>
      </trkpt>
      <trkpt lat="46.041833097115159" lon="5.975599754601717">
        <ele>572.20001220703125</ele>
        <time>2014-05-17T12:17:01Z</time>
      </trkpt>
      <trkpt lat="46.041777189821005" lon="5.975518701598048">
        <ele>572</ele>
        <time>2014-05-17T12:17:02Z</time>
      </trkpt>
      <trkpt lat="46.041598655283451" lon="5.975267244502902">
        <ele>571</ele>
        <time>2014-05-17T12:17:05Z</time>
      </trkpt>
      <trkpt lat="46.041296990588307" lon="5.974837755784392">
        <ele>570.20001220703125</ele>
        <time>2014-05-17T12:17:10Z</time>
      </trkpt>
      <trkpt lat="46.040885271504521" lon="5.974253369495273">
        <ele>570.20001220703125</ele>
        <time>2014-05-17T12:17:17Z</time>
      </trkpt>
      <trkpt lat="46.040766416117549" lon="5.974084306508303">
        <ele>570.4000244140625</ele>
        <time>2014-05-17T12:17:19Z</time>
      </trkpt>
      <trkpt lat="46.040431223809719" lon="5.973614081740379">
        <ele>571.79998779296875</ele>
        <time>2014-05-17T12:17:25Z</time>
      </trkpt>
      <trkpt lat="46.040382608771324" lon="5.973542248830199">
        <ele>572.20001220703125</ele>
        <time>2014-05-17T12:17:26Z</time>
      </trkpt>
      <trkpt lat="46.04019183665514" lon="5.973270172253251">
        <ele>573.4000244140625</ele>
        <time>2014-05-17T12:17:30Z</time>
      </trkpt>
      <trkpt lat="46.040103575214744" lon="5.973141510039568">
        <ele>574.5999755859375</ele>
        <time>2014-05-17T12:17:32Z</time>
      </trkpt>
      <trkpt lat="46.039936691522598" lon="5.972897512838244">
        <ele>575.79998779296875</ele>
        <time>2014-05-17T12:17:36Z</time>
      </trkpt>
      <trkpt lat="46.039720941334963" lon="5.972590567544103">
        <ele>575.5999755859375</ele>
        <time>2014-05-17T12:17:41Z</time>
      </trkpt>
      <trkpt lat="46.039310563355684" lon="5.971982292830944">
        <ele>575.4000244140625</ele>
        <time>2014-05-17T12:17:50Z</time>
      </trkpt>
      <trkpt lat="46.038996577262878" lon="5.971541488543153">
        <ele>574.79998779296875</ele>
        <time>2014-05-17T12:17:56Z</time>
      </trkpt>
      <trkpt lat="46.038844864815474" lon="5.971321379765868">
        <ele>574.4000244140625</ele>
        <time>2014-05-17T12:17:59Z</time>
      </trkpt>
      <trkpt lat="46.03847673162818" lon="5.97084210254252">
        <ele>574.79998779296875</ele>
        <time>2014-05-17T12:18:06Z</time>
      </trkpt>
      <trkpt lat="46.03841227479279" lon="5.970791894942522">
        <ele>574.4000244140625</ele>
        <time>2014-05-17T12:18:07Z</time>
      </trkpt>
      <trkpt lat="46.038269782438874" lon="5.970733975991607">
        <ele>573.79998779296875</ele>
        <time>2014-05-17T12:18:09Z</time>
      </trkpt>
      <trkpt lat="46.038191579282284" lon="5.97072240896523">
        <ele>574.20001220703125</ele>
        <time>2014-05-17T12:18:10Z</time>
      </trkpt>
      <trkpt lat="46.03811371140182" lon="5.970707656815648">
        <ele>574</ele>
        <time>2014-05-17T12:18:11Z</time>
      </trkpt>
      <trkpt lat="46.037879940122366" lon="5.970681589096785">
        <ele>572.5999755859375</ele>
        <time>2014-05-17T12:18:14Z</time>
      </trkpt>
      <trkpt lat="46.037597050890326" lon="5.970661137253046">
        <ele>573.5999755859375</ele>
        <time>2014-05-17T12:18:18Z</time>
      </trkpt>
      <trkpt lat="46.037093130871654" lon="5.970622496679425">
        <ele>572.4000244140625</ele>
        <time>2014-05-17T12:18:25Z</time>
      </trkpt>
      <trkpt lat="46.036929851397872" lon="5.970610259100795">
        <ele>571.5999755859375</ele>
        <time>2014-05-17T12:18:27Z</time>
      </trkpt>
      <trkpt lat="46.036761375144124" lon="5.970597518607974">
        <ele>570.5999755859375</ele>
        <time>2014-05-17T12:18:29Z</time>
      </trkpt>
      <trkpt lat="46.036588288843632" lon="5.970582347363234">
        <ele>569.4000244140625</ele>
        <time>2014-05-17T12:18:31Z</time>
      </trkpt>
      <trkpt lat="46.036500446498394" lon="5.970576899126172">
        <ele>569.20001220703125</ele>
        <time>2014-05-17T12:18:32Z</time>
      </trkpt>
      <trkpt lat="46.03622468188405" lon="5.97055284306407">
        <ele>568.20001220703125</ele>
        <time>2014-05-17T12:18:35Z</time>
      </trkpt>
      <trkpt lat="46.035944558680058" lon="5.970527613535523">
        <ele>567</ele>
        <time>2014-05-17T12:18:38Z</time>
      </trkpt>
      <trkpt lat="46.035764096304774" lon="5.970504228025675">
        <ele>567.20001220703125</ele>
        <time>2014-05-17T12:18:40Z</time>
      </trkpt>
      <trkpt lat="46.035503083840013" lon="5.970470616593957">
        <ele>568.20001220703125</ele>
        <time>2014-05-17T12:18:43Z</time>
      </trkpt>
      <trkpt lat="46.035256320610642" lon="5.970434322953224">
        <ele>568.4000244140625</ele>
        <time>2014-05-17T12:18:46Z</time>
      </trkpt>
      <trkpt lat="46.03510276414454" lon="5.970379086211324">
        <ele>569.20001220703125</ele>
        <time>2014-05-17T12:18:48Z</time>
      </trkpt>
      <trkpt lat="46.034969240427017" lon="5.970256291329861">
        <ele>569.4000244140625</ele>
        <time>2014-05-17T12:18:50Z</time>
      </trkpt>
      <trkpt lat="46.034828508272767" lon="5.96996015869081">
        <ele>569.20001220703125</ele>
        <time>2014-05-17T12:18:53Z</time>
      </trkpt>
      <trkpt lat="46.034785090014338" lon="5.969589594751597">
        <ele>567.4000244140625</ele>
        <time>2014-05-17T12:18:56Z</time>
      </trkpt>
      <trkpt lat="46.034779641777277" lon="5.969458920881152">
        <ele>566.4000244140625</ele>
        <time>2014-05-17T12:18:57Z</time>
      </trkpt>
      <trkpt lat="46.034766566008329" lon="5.969198746606708">
        <ele>565.4000244140625</ele>
        <time>2014-05-17T12:18:59Z</time>
      </trkpt>
      <trkpt lat="46.034745443612337" lon="5.968697844073176">
        <ele>564.79998779296875</ele>
        <time>2014-05-17T12:19:03Z</time>
      </trkpt>
      <trkpt lat="46.034712251275778" lon="5.967906089499593">
        <ele>566.20001220703125</ele>
        <time>2014-05-17T12:19:10Z</time>
      </trkpt>
      <trkpt lat="46.034690123051405" lon="5.967702241614461">
        <ele>566.4000244140625</ele>
        <time>2014-05-17T12:19:12Z</time>
      </trkpt>
      <trkpt lat="46.034670090302825" lon="5.96760543063283">
        <ele>566.5999755859375</ele>
        <time>2014-05-17T12:19:13Z</time>
      </trkpt>
      <trkpt lat="46.034614769741893" lon="5.967426728457212">
        <ele>567</ele>
        <time>2014-05-17T12:19:15Z</time>
      </trkpt>
      <trkpt lat="46.034526592120528" lon="5.967287588864565">
        <ele>567.79998779296875</ele>
        <time>2014-05-17T12:19:17Z</time>
      </trkpt>
      <trkpt lat="46.034475546330214" lon="5.967229837551713">
        <ele>568.20001220703125</ele>
        <time>2014-05-17T12:19:18Z</time>
      </trkpt>
      <trkpt lat="46.034424500539899" lon="5.967178959399462">
        <ele>568.79998779296875</ele>
        <time>2014-05-17T12:19:19Z</time>
      </trkpt>
      <trkpt lat="46.034323079511523" lon="5.967097571119666">
        <ele>569.4000244140625</ele>
        <time>2014-05-17T12:19:21Z</time>
      </trkpt>
      <trkpt lat="46.034226603806019" lon="5.967033030465245">
        <ele>570</ele>
        <time>2014-05-17T12:19:23Z</time>
      </trkpt>
      <trkpt lat="46.034049410372972" lon="5.966946613043547">
        <ele>570.4000244140625</ele>
        <time>2014-05-17T12:19:27Z</time>
      </trkpt>
      <trkpt lat="46.034012278541923" lon="5.96692381426692">
        <ele>570.5999755859375</ele>
        <time>2014-05-17T12:19:28Z</time>
      </trkpt>
      <trkpt lat="46.033901469781995" lon="5.966857178136706">
        <ele>571</ele>
        <time>2014-05-17T12:19:32Z</time>
      </trkpt>
      <trkpt lat="46.033881353214383" lon="5.966841923072934">
        <ele>571</ele>
        <time>2014-05-17T12:19:33Z</time>
      </trkpt>
      <trkpt lat="46.033777501434088" lon="5.966771934181452">
        <ele>571.4000244140625</ele>
        <time>2014-05-17T12:19:40Z</time>
      </trkpt>
      <trkpt lat="46.033676499500871" lon="5.966698592528701">
        <ele>571.20001220703125</ele>
        <time>2014-05-17T12:19:49Z</time>
      </trkpt>
      <trkpt lat="46.033597709611058" lon="5.966650312766433">
        <ele>571.79998779296875</ele>
        <time>2014-05-17T12:20:11Z</time>
      </trkpt>
      <trkpt lat="46.033551106229424" lon="5.966627933084965">
        <ele>572</ele>
        <time>2014-05-17T12:20:14Z</time>
      </trkpt>
      <trkpt lat="46.033454798161983" lon="5.966575797647238">
        <ele>572.20001220703125</ele>
        <time>2014-05-17T12:20:18Z</time>
      </trkpt>
      <trkpt lat="46.033290680497885" lon="5.966474041342735">
        <ele>572</ele>
        <time>2014-05-17T12:20:22Z</time>
      </trkpt>
      <trkpt lat="46.032914835959673" lon="5.966242030262947">
        <ele>571.79998779296875</ele>
        <time>2014-05-17T12:20:30Z</time>
      </trkpt>
      <trkpt lat="46.032823473215103" lon="5.966192493215203">
        <ele>571.20001220703125</ele>
        <time>2014-05-17T12:20:32Z</time>
      </trkpt>
      <trkpt lat="46.032670587301254" lon="5.966125354170799">
        <ele>571.5999755859375</ele>
        <time>2014-05-17T12:20:35Z</time>
      </trkpt>
      <trkpt lat="46.03226674720645" lon="5.965858642011881">
        <ele>571.20001220703125</ele>
        <time>2014-05-17T12:20:42Z</time>
      </trkpt>
      <trkpt lat="46.032204469665885" lon="5.965810948982835">
        <ele>570.79998779296875</ele>
        <time>2014-05-17T12:20:43Z</time>
      </trkpt>
      <trkpt lat="46.03193549439311" lon="5.965573824942112">
        <ele>569.4000244140625</ele>
        <time>2014-05-17T12:20:47Z</time>
      </trkpt>
      <trkpt lat="46.031771628186107" lon="5.965463519096375">
        <ele>568.20001220703125</ele>
        <time>2014-05-17T12:20:49Z</time>
      </trkpt>
      <trkpt lat="46.031513046473265" lon="5.965293198823929">
        <ele>567.4000244140625</ele>
        <time>2014-05-17T12:20:52Z</time>
      </trkpt>
      <trkpt lat="46.031425958499312" lon="5.965239387005568">
        <ele>566.79998779296875</ele>
        <time>2014-05-17T12:20:53Z</time>
      </trkpt>
      <trkpt lat="46.031259745359421" lon="5.965120028704405">
        <ele>564.5999755859375</ele>
        <time>2014-05-17T12:20:55Z</time>
      </trkpt>
      <trkpt lat="46.030847188085318" lon="5.964819453656673">
        <ele>565</ele>
        <time>2014-05-17T12:21:00Z</time>
      </trkpt>
      <trkpt lat="46.030313847586513" lon="5.96446355804801">
        <ele>563.79998779296875</ele>
        <time>2014-05-17T12:21:06Z</time>
      </trkpt>
      <trkpt lat="46.030228100717068" lon="5.964405220001936">
        <ele>563.79998779296875</ele>
        <time>2014-05-17T12:21:07Z</time>
      </trkpt>
      <trkpt lat="46.03014076128602" lon="5.964349564164877">
        <ele>563.20001220703125</ele>
        <time>2014-05-17T12:21:08Z</time>
      </trkpt>
      <trkpt lat="46.029645223170519" lon="5.964024513959885">
        <ele>564.20001220703125</ele>
        <time>2014-05-17T12:21:14Z</time>
      </trkpt>
      <trkpt lat="46.029493929818273" lon="5.963936420157552">
        <ele>565.5999755859375</ele>
        <time>2014-05-17T12:21:16Z</time>
      </trkpt>
      <trkpt lat="46.029361076653004" lon="5.963832568377256">
        <ele>566.79998779296875</ele>
        <time>2014-05-17T12:21:18Z</time>
      </trkpt>
      <trkpt lat="46.029302403330803" lon="5.963774481788278">
        <ele>567.79998779296875</ele>
        <time>2014-05-17T12:21:19Z</time>
      </trkpt>
      <trkpt lat="46.029252279549837" lon="5.963701894506812">
        <ele>568.4000244140625</ele>
        <time>2014-05-17T12:21:20Z</time>
      </trkpt>
      <trkpt lat="46.029212130233645" lon="5.963624864816666">
        <ele>569</ele>
        <time>2014-05-17T12:21:21Z</time>
      </trkpt>
      <trkpt lat="46.02918790653348" lon="5.963545655831695">
        <ele>569.5999755859375</ele>
        <time>2014-05-17T12:21:22Z</time>
      </trkpt>
      <trkpt lat="46.029169801622629" lon="5.963465943932533">
        <ele>570.4000244140625</ele>
        <time>2014-05-17T12:21:23Z</time>
      </trkpt>
      <trkpt lat="46.029150104150176" lon="5.963392853736877">
        <ele>571.20001220703125</ele>
        <time>2014-05-17T12:21:24Z</time>
      </trkpt>
      <trkpt lat="46.029132083058357" lon="5.963321942836046">
        <ele>571.79998779296875</ele>
        <time>2014-05-17T12:21:25Z</time>
      </trkpt>
      <trkpt lat="46.02909654378891" lon="5.963176600635052">
        <ele>573</ele>
        <time>2014-05-17T12:21:27Z</time>
      </trkpt>
      <trkpt lat="46.029068548232317" lon="5.963046597316861">
        <ele>574.20001220703125</ele>
        <time>2014-05-17T12:21:29Z</time>
      </trkpt>
      <trkpt lat="46.0290452465415" lon="5.9629185218364">
        <ele>575.20001220703125</ele>
        <time>2014-05-17T12:21:31Z</time>
      </trkpt>
      <trkpt lat="46.029032757505774" lon="5.962853394448757">
        <ele>575.4000244140625</ele>
        <time>2014-05-17T12:21:32Z</time>
      </trkpt>
      <trkpt lat="46.02894114330411" lon="5.962342768907547">
        <ele>574.5999755859375</ele>
        <time>2014-05-17T12:21:39Z</time>
      </trkpt>
      <trkpt lat="46.028828909620643" lon="5.961731057614088">
        <ele>575</ele>
        <time>2014-05-17T12:21:46Z</time>
      </trkpt>
      <trkpt lat="46.028825221583247" lon="5.961642879992724">
        <ele>575.20001220703125</ele>
        <time>2014-05-17T12:21:47Z</time>
      </trkpt>
      <trkpt lat="46.028850451111794" lon="5.961401648819447">
        <ele>576.4000244140625</ele>
        <time>2014-05-17T12:21:50Z</time>
      </trkpt>
      <trkpt lat="46.028865538537502" lon="5.961328558623791">
        <ele>576.20001220703125</ele>
        <time>2014-05-17T12:21:51Z</time>
      </trkpt>
      <trkpt lat="46.028983471915126" lon="5.960891861468554">
        <ele>576.79998779296875</ele>
        <time>2014-05-17T12:21:57Z</time>
      </trkpt>
      <trkpt lat="46.029012892395258" lon="5.96082572825253">
        <ele>576.79998779296875</ele>
        <time>2014-05-17T12:21:58Z</time>
      </trkpt>
      <trkpt lat="46.029105009511113" lon="5.96064199693501">
        <ele>577.20001220703125</ele>
        <time>2014-05-17T12:22:01Z</time>
      </trkpt>
      <trkpt lat="46.029141554608941" lon="5.96058969385922">
        <ele>577.5999755859375</ele>
        <time>2014-05-17T12:22:02Z</time>
      </trkpt>
      <trkpt lat="46.029307013377547" lon="5.960408225655556">
        <ele>578.79998779296875</ele>
        <time>2014-05-17T12:22:06Z</time>
      </trkpt>
      <trkpt lat="46.029399801045656" lon="5.960321053862572">
        <ele>578.20001220703125</ele>
        <time>2014-05-17T12:22:08Z</time>
      </trkpt>
      <trkpt lat="46.029709512367845" lon="5.959988292306662">
        <ele>578.20001220703125</ele>
        <time>2014-05-17T12:22:15Z</time>
      </trkpt>
      <trkpt lat="46.029881676658988" lon="5.959654608741403">
        <ele>578.20001220703125</ele>
        <time>2014-05-17T12:22:20Z</time>
      </trkpt>
      <trkpt lat="46.030009249225259" lon="5.959162507206202">
        <ele>578.5999755859375</ele>
        <time>2014-05-17T12:22:26Z</time>
      </trkpt>
      <trkpt lat="46.030171774327755" lon="5.95881843008101">
        <ele>578.20001220703125</ele>
        <time>2014-05-17T12:22:31Z</time>
      </trkpt>
      <trkpt lat="46.030226005241275" lon="5.95867476426065">
        <ele>578.5999755859375</ele>
        <time>2014-05-17T12:22:33Z</time>
      </trkpt>
      <trkpt lat="46.030267579481006" lon="5.958430683240295">
        <ele>578.79998779296875</ele>
        <time>2014-05-17T12:22:36Z</time>
      </trkpt>
      <trkpt lat="46.030251318588853" lon="5.958097921684384">
        <ele>578.5999755859375</ele>
        <time>2014-05-17T12:22:40Z</time>
      </trkpt>
      <trkpt lat="46.03016565553844" lon="5.957438433542848">
        <ele>578</ele>
        <time>2014-05-17T12:22:48Z</time>
      </trkpt>
      <trkpt lat="46.030165906995535" lon="5.956972818821669">
        <ele>578.4000244140625</ele>
        <time>2014-05-17T12:22:54Z</time>
      </trkpt>
      <trkpt lat="46.030166912823915" lon="5.956901824101806">
        <ele>578.4000244140625</ele>
        <time>2014-05-17T12:22:55Z</time>
      </trkpt>
      <trkpt lat="46.03015685454011" lon="5.956427827477455">
        <ele>578.4000244140625</ele>
        <time>2014-05-17T12:23:01Z</time>
      </trkpt>
      <trkpt lat="46.030152076855302" lon="5.956182572990656">
        <ele>577.79998779296875</ele>
        <time>2014-05-17T12:23:04Z</time>
      </trkpt>
      <trkpt lat="46.03014319203794" lon="5.955945868045092">
        <ele>577.79998779296875</ele>
        <time>2014-05-17T12:23:07Z</time>
      </trkpt>
      <trkpt lat="46.030130535364151" lon="5.955423843115568">
        <ele>577.4000244140625</ele>
        <time>2014-05-17T12:23:13Z</time>
      </trkpt>
      <trkpt lat="46.030128188431263" lon="5.955144474282861">
        <ele>576.79998779296875</ele>
        <time>2014-05-17T12:23:16Z</time>
      </trkpt>
      <trkpt lat="46.030122991651297" lon="5.954839792102575">
        <ele>575.5999755859375</ele>
        <time>2014-05-17T12:23:19Z</time>
      </trkpt>
      <trkpt lat="46.030119219794869" lon="5.954634435474873">
        <ele>574.4000244140625</ele>
        <time>2014-05-17T12:23:21Z</time>
      </trkpt>
      <trkpt lat="46.030074711889029" lon="5.953973857685924">
        <ele>573.5999755859375</ele>
        <time>2014-05-17T12:23:27Z</time>
      </trkpt>
      <trkpt lat="46.030063815414906" lon="5.953848212957382">
        <ele>573.20001220703125</ele>
        <time>2014-05-17T12:23:28Z</time>
      </trkpt>
      <trkpt lat="46.030053254216909" lon="5.953716030344367">
        <ele>572.20001220703125</ele>
        <time>2014-05-17T12:23:29Z</time>
      </trkpt>
      <trkpt lat="46.030042273923755" lon="5.953584183007479">
        <ele>571.20001220703125</ele>
        <time>2014-05-17T12:23:30Z</time>
      </trkpt>
      <trkpt lat="46.030029281973839" lon="5.95344889909029">
        <ele>569.79998779296875</ele>
        <time>2014-05-17T12:23:31Z</time>
      </trkpt>
      <trkpt lat="46.030009165406227" lon="5.953172547742724">
        <ele>569.4000244140625</ele>
        <time>2014-05-17T12:23:33Z</time>
      </trkpt>
      <trkpt lat="46.029975218698382" lon="5.952725037932396">
        <ele>568.4000244140625</ele>
        <time>2014-05-17T12:23:36Z</time>
      </trkpt>
      <trkpt lat="46.029963735491037" lon="5.95257667824626">
        <ele>567</ele>
        <time>2014-05-17T12:23:37Z</time>
      </trkpt>
      <trkpt lat="46.029958454892039" lon="5.952427312731743">
        <ele>566</ele>
        <time>2014-05-17T12:23:38Z</time>
      </trkpt>
      <trkpt lat="46.029953677207232" lon="5.952277109026909">
        <ele>565.20001220703125</ele>
        <time>2014-05-17T12:23:39Z</time>
      </trkpt>
      <trkpt lat="46.029920987784863" lon="5.951981814578176">
        <ele>564.5999755859375</ele>
        <time>2014-05-17T12:23:41Z</time>
      </trkpt>
      <trkpt lat="46.029861979186535" lon="5.951681574806571">
        <ele>562</ele>
        <time>2014-05-17T12:23:43Z</time>
      </trkpt>
      <trkpt lat="46.029795007780194" lon="5.951375300064683">
        <ele>559.79998779296875</ele>
        <time>2014-05-17T12:23:45Z</time>
      </trkpt>
      <trkpt lat="46.029696017503738" lon="5.950918653979898">
        <ele>558.79998779296875</ele>
        <time>2014-05-17T12:23:48Z</time>
      </trkpt>
      <trkpt lat="46.029641451314092" lon="5.95061581581831">
        <ele>558.5999755859375</ele>
        <time>2014-05-17T12:23:50Z</time>
      </trkpt>
      <trkpt lat="46.029559476301074" lon="5.950336949899793">
        <ele>558.5999755859375</ele>
        <time>2014-05-17T12:23:52Z</time>
      </trkpt>
      <trkpt lat="46.029494935646653" lon="5.950226224958897">
        <ele>558.5999755859375</ele>
        <time>2014-05-17T12:23:53Z</time>
      </trkpt>
      <trkpt lat="46.029308354482055" lon="5.950078619644046">
        <ele>558.20001220703125</ele>
        <time>2014-05-17T12:23:55Z</time>
      </trkpt>
      <trkpt lat="46.029198886826634" lon="5.95005045644939">
        <ele>557.4000244140625</ele>
        <time>2014-05-17T12:23:56Z</time>
      </trkpt>
      <trkpt lat="46.029086569324136" lon="5.950037967413664">
        <ele>556</ele>
        <time>2014-05-17T12:23:57Z</time>
      </trkpt>
      <trkpt lat="46.028971066698432" lon="5.950033273547888">
        <ele>555</ele>
        <time>2014-05-17T12:23:58Z</time>
      </trkpt>
      <trkpt lat="46.028382992371917" lon="5.949991028755903">
        <ele>554</ele>
        <time>2014-05-17T12:24:03Z</time>
      </trkpt>
      <trkpt lat="46.028263801708817" lon="5.949978874996305">
        <ele>553.20001220703125</ele>
        <time>2014-05-17T12:24:04Z</time>
      </trkpt>
      <trkpt lat="46.02789793163538" lon="5.949889356270433">
        <ele>551.4000244140625</ele>
        <time>2014-05-17T12:24:07Z</time>
      </trkpt>
      <trkpt lat="46.027775136753917" lon="5.949841747060418">
        <ele>550.79998779296875</ele>
        <time>2014-05-17T12:24:08Z</time>
      </trkpt>
      <trkpt lat="46.027651000767946" lon="5.949788941070437">
        <ele>550.20001220703125</ele>
        <time>2014-05-17T12:24:09Z</time>
      </trkpt>
      <trkpt lat="46.027395185083151" lon="5.949695901945233">
        <ele>549.20001220703125</ele>
        <time>2014-05-17T12:24:11Z</time>
      </trkpt>
      <trkpt lat="46.027001487091184" lon="5.949547709897161">
        <ele>548.4000244140625</ele>
        <time>2014-05-17T12:24:14Z</time>
      </trkpt>
      <trkpt lat="46.02686888538301" lon="5.949493898078799">
        <ele>547.79998779296875</ele>
        <time>2014-05-17T12:24:15Z</time>
      </trkpt>
      <trkpt lat="46.026598569005728" lon="5.949392728507519">
        <ele>546.5999755859375</ele>
        <time>2014-05-17T12:24:17Z</time>
      </trkpt>
      <trkpt lat="46.026461524888873" lon="5.949336905032396">
        <ele>545</ele>
        <time>2014-05-17T12:24:18Z</time>
      </trkpt>
      <trkpt lat="46.026324145495892" lon="5.949279572814703">
        <ele>543.20001220703125</ele>
        <time>2014-05-17T12:24:19Z</time>
      </trkpt>
      <trkpt lat="46.026190035045147" lon="5.94922567717731">
        <ele>541.79998779296875</ele>
        <time>2014-05-17T12:24:20Z</time>
      </trkpt>
      <trkpt lat="46.026062965393066" lon="5.94917387701571">
        <ele>541.4000244140625</ele>
        <time>2014-05-17T12:24:21Z</time>
      </trkpt>
      <trkpt lat="46.025946205481887" lon="5.949118891730905">
        <ele>540.79998779296875</ele>
        <time>2014-05-17T12:24:22Z</time>
      </trkpt>
      <trkpt lat="46.025838749483228" lon="5.949034737423062">
        <ele>540.5999755859375</ele>
        <time>2014-05-17T12:24:23Z</time>
      </trkpt>
      <trkpt lat="46.025748895481229" lon="5.948918648064137">
        <ele>540.5999755859375</ele>
        <time>2014-05-17T12:24:24Z</time>
      </trkpt>
      <trkpt lat="46.025635739788413" lon="5.948605248704553">
        <ele>539.4000244140625</ele>
        <time>2014-05-17T12:24:26Z</time>
      </trkpt>
      <trkpt lat="46.025608498603106" lon="5.948441298678517">
        <ele>538.20001220703125</ele>
        <time>2014-05-17T12:24:27Z</time>
      </trkpt>
      <trkpt lat="46.025580335408449" lon="5.948279444128275">
        <ele>537.20001220703125</ele>
        <time>2014-05-17T12:24:28Z</time>
      </trkpt>
      <trkpt lat="46.025555776432157" lon="5.948119685053825">
        <ele>536.79998779296875</ele>
        <time>2014-05-17T12:24:29Z</time>
      </trkpt>
      <trkpt lat="46.025508921593428" lon="5.94779740087688">
        <ele>535.5999755859375</ele>
        <time>2014-05-17T12:24:31Z</time>
      </trkpt>
      <trkpt lat="46.025426276028156" lon="5.947311418130994">
        <ele>534.4000244140625</ele>
        <time>2014-05-17T12:24:34Z</time>
      </trkpt>
      <trkpt lat="46.025349497795105" lon="5.946824513375759">
        <ele>532.4000244140625</ele>
        <time>2014-05-17T12:24:37Z</time>
      </trkpt>
      <trkpt lat="46.025324603542686" lon="5.946668861433864">
        <ele>531.20001220703125</ele>
        <time>2014-05-17T12:24:38Z</time>
      </trkpt>
      <trkpt lat="46.025195941329002" lon="5.94606863334775">
        <ele>531.20001220703125</ele>
        <time>2014-05-17T12:24:42Z</time>
      </trkpt>
      <trkpt lat="46.025126958265901" lon="5.945942318066955">
        <ele>530.79998779296875</ele>
        <time>2014-05-17T12:24:43Z</time>
      </trkpt>
      <trkpt lat="46.024922439828515" lon="5.945796389132738">
        <ele>531.20001220703125</ele>
        <time>2014-05-17T12:24:45Z</time>
      </trkpt>
      <trkpt lat="46.024693781509995" lon="5.945769818499684">
        <ele>532</ele>
        <time>2014-05-17T12:24:47Z</time>
      </trkpt>
      <trkpt lat="46.024576434865594" lon="5.945761855691671">
        <ele>531.79998779296875</ele>
        <time>2014-05-17T12:24:48Z</time>
      </trkpt>
      <trkpt lat="46.024339646100998" lon="5.945751797407866">
        <ele>530.20001220703125</ele>
        <time>2014-05-17T12:24:50Z</time>
      </trkpt>
      <trkpt lat="46.02421760559082" lon="5.94575590454042">
        <ele>529.20001220703125</ele>
        <time>2014-05-17T12:24:51Z</time>
      </trkpt>
      <trkpt lat="46.024093050509691" lon="5.945759257301688">
        <ele>528</ele>
        <time>2014-05-17T12:24:52Z</time>
      </trkpt>
      <trkpt lat="46.023967992514372" lon="5.945767220109701">
        <ele>527</ele>
        <time>2014-05-17T12:24:53Z</time>
      </trkpt>
      <trkpt lat="46.023843605071306" lon="5.945781385526061">
        <ele>525.79998779296875</ele>
        <time>2014-05-17T12:24:54Z</time>
      </trkpt>
      <trkpt lat="46.023719301447272" lon="5.945795131847262">
        <ele>524.5999755859375</ele>
        <time>2014-05-17T12:24:55Z</time>
      </trkpt>
      <trkpt lat="46.023593237623572" lon="5.945807537063956">
        <ele>523</ele>
        <time>2014-05-17T12:24:56Z</time>
      </trkpt>
      <trkpt lat="46.023342283442616" lon="5.945818517357111">
        <ele>522</ele>
        <time>2014-05-17T12:24:58Z</time>
      </trkpt>
      <trkpt lat="46.023230636492372" lon="5.945795634761453">
        <ele>521.4000244140625</ele>
        <time>2014-05-17T12:24:59Z</time>
      </trkpt>
      <trkpt lat="46.02311572059989" lon="5.945738637819886">
        <ele>520.5999755859375</ele>
        <time>2014-05-17T12:25:00Z</time>
      </trkpt>
      <trkpt lat="46.023014970123768" lon="5.9456533100456">
        <ele>520.20001220703125</ele>
        <time>2014-05-17T12:25:01Z</time>
      </trkpt>
      <trkpt lat="46.022931737825274" lon="5.945534454658628">
        <ele>519.20001220703125</ele>
        <time>2014-05-17T12:25:02Z</time>
      </trkpt>
      <trkpt lat="46.022866191342473" lon="5.945398332551122">
        <ele>518.5999755859375</ele>
        <time>2014-05-17T12:25:03Z</time>
      </trkpt>
      <trkpt lat="46.02281179279089" lon="5.945248212665319">
        <ele>518.20001220703125</ele>
        <time>2014-05-17T12:25:04Z</time>
      </trkpt>
      <trkpt lat="46.022721603512764" lon="5.944923916831613">
        <ele>516.79998779296875</ele>
        <time>2014-05-17T12:25:06Z</time>
      </trkpt>
      <trkpt lat="46.02265689522028" lon="5.944578079506755">
        <ele>515.4000244140625</ele>
        <time>2014-05-17T12:25:08Z</time>
      </trkpt>
      <trkpt lat="46.022591516375542" lon="5.944233415648341">
        <ele>513.79998779296875</ele>
        <time>2014-05-17T12:25:10Z</time>
      </trkpt>
      <trkpt lat="46.022550193592906" lon="5.944079020991921">
        <ele>512.79998779296875</ele>
        <time>2014-05-17T12:25:11Z</time>
      </trkpt>
      <trkpt lat="46.022401498630643" lon="5.943883638828993">
        <ele>512.79998779296875</ele>
        <time>2014-05-17T12:25:13Z</time>
      </trkpt>
      <trkpt lat="46.022306783124804" lon="5.943859750404954">
        <ele>512.5999755859375</ele>
        <time>2014-05-17T12:25:14Z</time>
      </trkpt>
      <trkpt lat="46.022208379581571" lon="5.943878190591931">
        <ele>512.5999755859375</ele>
        <time>2014-05-17T12:25:15Z</time>
      </trkpt>
      <trkpt lat="46.022049207240343" lon="5.944052534177899">
        <ele>512.4000244140625</ele>
        <time>2014-05-17T12:25:17Z</time>
      </trkpt>
      <trkpt lat="46.021987348794937" lon="5.944338943809271">
        <ele>511</ele>
        <time>2014-05-17T12:25:19Z</time>
      </trkpt>
      <trkpt lat="46.02199430577457" lon="5.944489566609263">
        <ele>508.39999389648437</ele>
        <time>2014-05-17T12:25:20Z</time>
      </trkpt>
      <trkpt lat="46.022028001025319" lon="5.944641781970859">
        <ele>507.39999389648437</ele>
        <time>2014-05-17T12:25:21Z</time>
      </trkpt>
      <trkpt lat="46.022057086229324" lon="5.94477966427803">
        <ele>506.79998779296875</ele>
        <time>2014-05-17T12:25:22Z</time>
      </trkpt>
      <trkpt lat="46.022064462304115" lon="5.944919809699059">
        <ele>506.20001220703125</ele>
        <time>2014-05-17T12:25:23Z</time>
      </trkpt>
      <trkpt lat="46.022038059309125" lon="5.945031540468335">
        <ele>505.39999389648438</ele>
        <time>2014-05-17T12:25:24Z</time>
      </trkpt>
      <trkpt lat="46.022001011297107" lon="5.945134302601218">
        <ele>505</ele>
        <time>2014-05-17T12:25:25Z</time>
      </trkpt>
      <trkpt lat="46.02188928052783" lon="5.94522817991674">
        <ele>504.60000610351562</ele>
        <time>2014-05-17T12:25:27Z</time>
      </trkpt>
      <trkpt lat="46.021816693246365" lon="5.945195071399212">
        <ele>503.79998779296875</ele>
        <time>2014-05-17T12:25:28Z</time>
      </trkpt>
      <trkpt lat="46.021744860336185" lon="5.945100439712405">
        <ele>502.79998779296875</ele>
        <time>2014-05-17T12:25:29Z</time>
      </trkpt>
      <trkpt lat="46.021687109023333" lon="5.94498485326767">
        <ele>502</ele>
        <time>2014-05-17T12:25:30Z</time>
      </trkpt>
      <trkpt lat="46.021626926958561" lon="5.944869602099061">
        <ele>500.79998779296875</ele>
        <time>2014-05-17T12:25:31Z</time>
      </trkpt>
      <trkpt lat="46.021561464294791" lon="5.944754686206579">
        <ele>500.20001220703125</ele>
        <time>2014-05-17T12:25:32Z</time>
      </trkpt>
      <trkpt lat="46.021492313593626" lon="5.944642871618271">
        <ele>499.39999389648437</ele>
        <time>2014-05-17T12:25:33Z</time>
      </trkpt>
      <trkpt lat="46.021342864260077" lon="5.944427289068699">
        <ele>498.39999389648438</ele>
        <time>2014-05-17T12:25:35Z</time>
      </trkpt>
      <trkpt lat="46.021167682483792" lon="5.944238612428308">
        <ele>497</ele>
        <time>2014-05-17T12:25:37Z</time>
      </trkpt>
      <trkpt lat="46.020965846255422" lon="5.944070303812623">
        <ele>495.39999389648438</ele>
        <time>2014-05-17T12:25:39Z</time>
      </trkpt>
      <trkpt lat="46.020745234563947" lon="5.943927560001612">
        <ele>494</ele>
        <time>2014-05-17T12:25:41Z</time>
      </trkpt>
      <trkpt lat="46.020630486309528" lon="5.943858912214637">
        <ele>492.79998779296875</ele>
        <time>2014-05-17T12:25:42Z</time>
      </trkpt>
      <trkpt lat="46.020399229601026" lon="5.943691693246365">
        <ele>489.79998779296875</ele>
        <time>2014-05-17T12:25:44Z</time>
      </trkpt>
      <trkpt lat="46.02028900757432" lon="5.943581303581595">
        <ele>488.39999389648437</ele>
        <time>2014-05-17T12:25:45Z</time>
      </trkpt>
      <trkpt lat="46.020183730870485" lon="5.943455658853054">
        <ele>487.20001220703125</ele>
        <time>2014-05-17T12:25:46Z</time>
      </trkpt>
      <trkpt lat="46.020085494965315" lon="5.943325739353895">
        <ele>485.60000610351562</ele>
        <time>2014-05-17T12:25:47Z</time>
      </trkpt>
      <trkpt lat="46.019995305687189" lon="5.943183330819011">
        <ele>484.60000610351562</ele>
        <time>2014-05-17T12:25:48Z</time>
      </trkpt>
      <trkpt lat="46.019864296540618" lon="5.942839337512851">
        <ele>483.79998779296875</ele>
        <time>2014-05-17T12:25:50Z</time>
      </trkpt>
      <trkpt lat="46.019832445308566" lon="5.94264286570251">
        <ele>483.39999389648437</ele>
        <time>2014-05-17T12:25:51Z</time>
      </trkpt>
      <trkpt lat="46.019820040091872" lon="5.942436503246427">
        <ele>482</ele>
        <time>2014-05-17T12:25:52Z</time>
      </trkpt>
      <trkpt lat="46.019817944616079" lon="5.942230224609375">
        <ele>480.60000610351562</ele>
        <time>2014-05-17T12:25:53Z</time>
      </trkpt>
      <trkpt lat="46.019817525520921" lon="5.94202620908618">
        <ele>478.60000610351562</ele>
        <time>2014-05-17T12:25:54Z</time>
      </trkpt>
      <trkpt lat="46.019811742007732" lon="5.941818170249462">
        <ele>477.39999389648437</ele>
        <time>2014-05-17T12:25:55Z</time>
      </trkpt>
      <trkpt lat="46.019805790856481" lon="5.941608287394047">
        <ele>475.39999389648437</ele>
        <time>2014-05-17T12:25:56Z</time>
      </trkpt>
      <trkpt lat="46.019801516085863" lon="5.941398572176695">
        <ele>474</ele>
        <time>2014-05-17T12:25:57Z</time>
      </trkpt>
      <trkpt lat="46.019797828048468" lon="5.941190617159009">
        <ele>472.79998779296875</ele>
        <time>2014-05-17T12:25:58Z</time>
      </trkpt>
      <trkpt lat="46.019790451973677" lon="5.940566500648856">
        <ele>470.60000610351562</ele>
        <time>2014-05-17T12:26:01Z</time>
      </trkpt>
      <trkpt lat="46.019789529964328" lon="5.940358629450202">
        <ele>469.20001220703125</ele>
        <time>2014-05-17T12:26:02Z</time>
      </trkpt>
      <trkpt lat="46.019789278507233" lon="5.940153943374753">
        <ele>468</ele>
        <time>2014-05-17T12:26:03Z</time>
      </trkpt>
      <trkpt lat="46.019784333184361" lon="5.939738284796476">
        <ele>466.60000610351562</ele>
        <time>2014-05-17T12:26:05Z</time>
      </trkpt>
      <trkpt lat="46.019781148061156" lon="5.939524881541729">
        <ele>466.20001220703125</ele>
        <time>2014-05-17T12:26:06Z</time>
      </trkpt>
      <trkpt lat="46.019774945452809" lon="5.939091118052602">
        <ele>462.60000610351562</ele>
        <time>2014-05-17T12:26:08Z</time>
      </trkpt>
      <trkpt lat="46.019758516922593" lon="5.938869332894683">
        <ele>461.20001220703125</ele>
        <time>2014-05-17T12:26:09Z</time>
      </trkpt>
      <trkpt lat="46.019738735631108" lon="5.938641261309385">
        <ele>459.79998779296875</ele>
        <time>2014-05-17T12:26:10Z</time>
      </trkpt>
      <trkpt lat="46.019717613235116" lon="5.938409585505724">
        <ele>457.60000610351562</ele>
        <time>2014-05-17T12:26:11Z</time>
      </trkpt>
      <trkpt lat="46.019695233553648" lon="5.938181933015585">
        <ele>455.60000610351562</ele>
        <time>2014-05-17T12:26:12Z</time>
      </trkpt>
      <trkpt lat="46.019678302109241" lon="5.937958555296063">
        <ele>454.20001220703125</ele>
        <time>2014-05-17T12:26:13Z</time>
      </trkpt>
      <trkpt lat="46.019665729254484" lon="5.937738697975874">
        <ele>452.79998779296875</ele>
        <time>2014-05-17T12:26:14Z</time>
      </trkpt>
      <trkpt lat="46.019667657092214" lon="5.937316501513124">
        <ele>451.60000610351562</ele>
        <time>2014-05-17T12:26:16Z</time>
      </trkpt>
      <trkpt lat="46.019672686234117" lon="5.93688684515655">
        <ele>449.39999389648437</ele>
        <time>2014-05-17T12:26:18Z</time>
      </trkpt>
      <trkpt lat="46.019677883014083" lon="5.936673190444708">
        <ele>448.39999389648437</ele>
        <time>2014-05-17T12:26:19Z</time>
      </trkpt>
      <trkpt lat="46.019709650427103" lon="5.936242192983627">
        <ele>447.20001220703125</ele>
        <time>2014-05-17T12:26:21Z</time>
      </trkpt>
      <trkpt lat="46.019727503880858" lon="5.936029041185975">
        <ele>446</ele>
        <time>2014-05-17T12:26:22Z</time>
      </trkpt>
      <trkpt lat="46.01974468678236" lon="5.935814464464784">
        <ele>444.20001220703125</ele>
        <time>2014-05-17T12:26:23Z</time>
      </trkpt>
      <trkpt lat="46.019760444760323" lon="5.935601312667131">
        <ele>442.79998779296875</ele>
        <time>2014-05-17T12:26:24Z</time>
      </trkpt>
      <trkpt lat="46.019772933796048" lon="5.935385730117559">
        <ele>441.60000610351562</ele>
        <time>2014-05-17T12:26:25Z</time>
      </trkpt>
      <trkpt lat="46.019793804734945" lon="5.93493964523077">
        <ele>440.20001220703125</ele>
        <time>2014-05-17T12:26:27Z</time>
      </trkpt>
      <trkpt lat="46.019811406731606" lon="5.934478556737304">
        <ele>437.39999389648437</ele>
        <time>2014-05-17T12:26:29Z</time>
      </trkpt>
      <trkpt lat="46.019812077283859" lon="5.934262219816446">
        <ele>435.20001220703125</ele>
        <time>2014-05-17T12:26:30Z</time>
      </trkpt>
      <trkpt lat="46.019804198294878" lon="5.934056108817458">
        <ele>434</ele>
        <time>2014-05-17T12:26:31Z</time>
      </trkpt>
      <trkpt lat="46.0197788849473" lon="5.933659309521318">
        <ele>432.60000610351562</ele>
        <time>2014-05-17T12:26:33Z</time>
      </trkpt>
      <trkpt lat="46.019764468073845" lon="5.93347474001348">
        <ele>430.79998779296875</ele>
        <time>2014-05-17T12:26:34Z</time>
      </trkpt>
      <trkpt lat="46.019751895219088" lon="5.933300228789449">
        <ele>429.39999389648437</ele>
        <time>2014-05-17T12:26:35Z</time>
      </trkpt>
      <trkpt lat="46.019738735631108" lon="5.933137033134699">
        <ele>427.79998779296875</ele>
        <time>2014-05-17T12:26:36Z</time>
      </trkpt>
      <trkpt lat="46.019727922976017" lon="5.932981465011835">
        <ele>427</ele>
        <time>2014-05-17T12:26:37Z</time>
      </trkpt>
      <trkpt lat="46.019716691225767" lon="5.932830842211843">
        <ele>426.60000610351562</ele>
        <time>2014-05-17T12:26:38Z</time>
      </trkpt>
      <trkpt lat="46.01966162212193" lon="5.932114021852613">
        <ele>426</ele>
        <time>2014-05-17T12:26:43Z</time>
      </trkpt>
      <trkpt lat="46.0196528211236" lon="5.931981503963471">
        <ele>425.39999389648437</ele>
        <time>2014-05-17T12:26:44Z</time>
      </trkpt>
      <trkpt lat="46.019634548574686" lon="5.931748654693365">
        <ele>424.20001220703125</ele>
        <time>2014-05-17T12:26:46Z</time>
      </trkpt>
      <trkpt lat="46.019618706777692" lon="5.931557379662991">
        <ele>424</ele>
        <time>2014-05-17T12:26:48Z</time>
      </trkpt>
      <trkpt lat="46.019537653774023" lon="5.931316819041967">
        <ele>423.39999389648437</ele>
        <time>2014-05-17T12:26:51Z</time>
      </trkpt>
      <trkpt lat="46.019510831683874" lon="5.931233251467347">
        <ele>423</ele>
        <time>2014-05-17T12:26:52Z</time>
      </trkpt>
      <trkpt lat="46.019460540264845" lon="5.931080784648657">
        <ele>421.79998779296875</ele>
        <time>2014-05-17T12:26:54Z</time>
      </trkpt>
      <trkpt lat="46.019420642405748" lon="5.930961342528462">
        <ele>420.79998779296875</ele>
        <time>2014-05-17T12:26:56Z</time>
      </trkpt>
      <trkpt lat="46.019412092864513" lon="5.930893700569868">
        <ele>421</ele>
        <time>2014-05-17T12:26:57Z</time>
      </trkpt>
      <trkpt lat="46.019402369856834" lon="5.93067635782063">
        <ele>420.60000610351562</ele>
        <time>2014-05-17T12:27:00Z</time>
      </trkpt>
      <trkpt lat="46.01940019056201" lon="5.93052975833416">
        <ele>420.39999389648437</ele>
        <time>2014-05-17T12:27:02Z</time>
      </trkpt>
      <trkpt lat="46.01939189247787" lon="5.930456668138504">
        <ele>420.60000610351562</ele>
        <time>2014-05-17T12:27:03Z</time>
      </trkpt>
      <trkpt lat="46.01932936348021" lon="5.930251479148865">
        <ele>420.60000610351562</ele>
        <time>2014-05-17T12:27:06Z</time>
      </trkpt>
      <trkpt lat="46.019302373751998" lon="5.93018626794219">
        <ele>420.39999389648437</ele>
        <time>2014-05-17T12:27:07Z</time>
      </trkpt>
      <trkpt lat="46.019155271351337" lon="5.929893823340535">
        <ele>419.79998779296875</ele>
        <time>2014-05-17T12:27:12Z</time>
      </trkpt>
      <trkpt lat="46.019122498109937" lon="5.929834228008986">
        <ele>419.39999389648437</ele>
        <time>2014-05-17T12:27:13Z</time>
      </trkpt>
      <trkpt lat="46.01897120475769" lon="5.929437344893813">
        <ele>418.60000610351562</ele>
        <time>2014-05-17T12:27:19Z</time>
      </trkpt>
      <trkpt lat="46.018920242786407" lon="5.929146744310856">
        <ele>418.79998779296875</ele>
        <time>2014-05-17T12:27:23Z</time>
      </trkpt>
      <trkpt lat="46.018918482586741" lon="5.929026966914535">
        <ele>419.20001220703125</ele>
        <time>2014-05-17T12:27:25Z</time>
      </trkpt>
      <trkpt lat="46.01891596801579" lon="5.928970472887158">
        <ele>419</ele>
        <time>2014-05-17T12:27:27Z</time>
      </trkpt>
      <trkpt lat="46.018916890025139" lon="5.928962007164955">
        <ele>419</ele>
        <time>2014-05-17T12:27:28Z</time>
      </trkpt>
      <trkpt lat="46.018907418474555" lon="5.928916828706861">
        <ele>419.79998779296875</ele>
        <time>2014-05-17T12:27:55Z</time>
      </trkpt>
      <trkpt lat="46.01889886893332" lon="5.928888833150268">
        <ele>419.79998779296875</ele>
        <time>2014-05-17T12:27:56Z</time>
      </trkpt>
      <trkpt lat="46.018865676596761" lon="5.928671574220061">
        <ele>419.79998779296875</ele>
        <time>2014-05-17T12:28:01Z</time>
      </trkpt>
      <trkpt lat="46.018826784566045" lon="5.928463870659471">
        <ele>418.20001220703125</ele>
        <time>2014-05-17T12:28:05Z</time>
      </trkpt>
      <trkpt lat="46.0188153013587" lon="5.92834752984345">
        <ele>418.79998779296875</ele>
        <time>2014-05-17T12:28:07Z</time>
      </trkpt>
      <trkpt lat="46.018808595836163" lon="5.928217358887196">
        <ele>419</ele>
        <time>2014-05-17T12:28:09Z</time>
      </trkpt>
      <trkpt lat="46.018784623593092" lon="5.927930697798729">
        <ele>418.60000610351562</ele>
        <time>2014-05-17T12:28:13Z</time>
      </trkpt>
      <trkpt lat="46.018712287768722" lon="5.927318818867207">
        <ele>418.60000610351562</ele>
        <time>2014-05-17T12:28:21Z</time>
      </trkpt>
      <trkpt lat="46.018710862845182" lon="5.927248327061534">
        <ele>418.39999389648437</ele>
        <time>2014-05-17T12:28:22Z</time>
      </trkpt>
      <trkpt lat="46.018682951107621" lon="5.92693836428225">
        <ele>418.20001220703125</ele>
        <time>2014-05-17T12:28:26Z</time>
      </trkpt>
      <trkpt lat="46.018622266128659" lon="5.926432767882943">
        <ele>418</ele>
        <time>2014-05-17T12:28:33Z</time>
      </trkpt>
      <trkpt lat="46.018551103770733" lon="5.92583647929132">
        <ele>417</ele>
        <time>2014-05-17T12:28:41Z</time>
      </trkpt>
      <trkpt lat="46.018488155677915" lon="5.925321411341429">
        <ele>417</ele>
        <time>2014-05-17T12:28:48Z</time>
      </trkpt>
      <trkpt lat="46.018441803753376" lon="5.924737611785531">
        <ele>416.79998779296875</ele>
        <time>2014-05-17T12:28:56Z</time>
      </trkpt>
      <trkpt lat="46.018415316939354" lon="5.924506355077028">
        <ele>415.79998779296875</ele>
        <time>2014-05-17T12:28:59Z</time>
      </trkpt>
      <trkpt lat="46.018398636952043" lon="5.924274679273367">
        <ele>415.79998779296875</ele>
        <time>2014-05-17T12:29:02Z</time>
      </trkpt>
      <trkpt lat="46.018360918387771" lon="5.923793558031321">
        <ele>415</ele>
        <time>2014-05-17T12:29:08Z</time>
      </trkpt>
      <trkpt lat="46.018313141539693" lon="5.9232990257442">
        <ele>415</ele>
        <time>2014-05-17T12:29:14Z</time>
      </trkpt>
      <trkpt lat="46.018303753808141" lon="5.923213195055723">
        <ele>414.60000610351562</ele>
        <time>2014-05-17T12:29:15Z</time>
      </trkpt>
      <trkpt lat="46.01832864806056" lon="5.922693349421024">
        <ele>414</ele>
        <time>2014-05-17T12:29:21Z</time>
      </trkpt>
      <trkpt lat="46.018441719934344" lon="5.922212395817041">
        <ele>414.39999389648437</ele>
        <time>2014-05-17T12:29:27Z</time>
      </trkpt>
      <trkpt lat="46.018589325249195" lon="5.921660950407386">
        <ele>413.79998779296875</ele>
        <time>2014-05-17T12:29:34Z</time>
      </trkpt>
      <trkpt lat="46.018741456791759" lon="5.921450396999717">
        <ele>414.20001220703125</ele>
        <time>2014-05-17T12:29:38Z</time>
      </trkpt>
      <trkpt lat="46.01876987144351" lon="5.921393483877182">
        <ele>414.39999389648437</ele>
        <time>2014-05-17T12:29:39Z</time>
      </trkpt>
      <trkpt lat="46.018790323287249" lon="5.921256272122264">
        <ele>414.79998779296875</ele>
        <time>2014-05-17T12:29:41Z</time>
      </trkpt>
      <trkpt lat="46.018700217828155" lon="5.921060219407082">
        <ele>414.20001220703125</ele>
        <time>2014-05-17T12:29:44Z</time>
      </trkpt>
      <trkpt lat="46.018522018566728" lon="5.921068601310253">
        <ele>413.79998779296875</ele>
        <time>2014-05-17T12:29:47Z</time>
      </trkpt>
      <trkpt lat="46.018460327759385" lon="5.921084946021438">
        <ele>413.79998779296875</ele>
        <time>2014-05-17T12:29:48Z</time>
      </trkpt>
      <trkpt lat="46.018398050218821" lon="5.921080000698566">
        <ele>413.60000610351562</ele>
        <time>2014-05-17T12:29:49Z</time>
      </trkpt>
      <trkpt lat="46.018285816535354" lon="5.921011520549655">
        <ele>413.60000610351562</ele>
        <time>2014-05-17T12:29:51Z</time>
      </trkpt>
      <trkpt lat="46.017945008352399" lon="5.920780096203089">
        <ele>414.20001220703125</ele>
        <time>2014-05-17T12:29:58Z</time>
      </trkpt>
      <trkpt lat="46.017888933420181" lon="5.920605584979057">
        <ele>414.20001220703125</ele>
        <time>2014-05-17T12:30:01Z</time>
      </trkpt>
      <trkpt lat="46.017871499061584" lon="5.920539619401097">
        <ele>414.39999389648437</ele>
        <time>2014-05-17T12:30:02Z</time>
      </trkpt>
      <trkpt lat="46.017834367230535" lon="5.920413974672556">
        <ele>414.60000610351562</ele>
        <time>2014-05-17T12:30:04Z</time>
      </trkpt>
      <trkpt lat="46.01782388985157" lon="5.920347673818469">
        <ele>414.60000610351562</ele>
        <time>2014-05-17T12:30:05Z</time>
      </trkpt>
      <trkpt lat="46.017808131873608" lon="5.920152962207794">
        <ele>415</ele>
        <time>2014-05-17T12:30:08Z</time>
      </trkpt>
      <trkpt lat="46.017787847667933" lon="5.919947102665901">
        <ele>415.60000610351562</ele>
        <time>2014-05-17T12:30:13Z</time>
      </trkpt>
      <trkpt lat="46.017778543755412" lon="5.91991282068193">
        <ele>415.60000610351562</ele>
        <time>2014-05-17T12:30:51Z</time>
      </trkpt>
      <trkpt lat="46.017771419137716" lon="5.919896308332682">
        <ele>415.60000610351562</ele>
        <time>2014-05-17T12:30:52Z</time>
      </trkpt>
      <trkpt lat="46.017776448279619" lon="5.919775189831853">
        <ele>416</ele>
        <time>2014-05-17T12:30:57Z</time>
      </trkpt>
      <trkpt lat="46.01777158677578" lon="5.919702602550387">
        <ele>416.20001220703125</ele>
        <time>2014-05-17T12:33:45Z</time>
      </trkpt>
      <trkpt lat="46.017709979787469" lon="5.919630099087954">
        <ele>416.79998779296875</ele>
        <time>2014-05-17T12:33:50Z</time>
      </trkpt>
      <trkpt lat="46.017679050564766" lon="5.919467993080616">
        <ele>417</ele>
        <time>2014-05-17T12:33:55Z</time>
      </trkpt>
      <trkpt lat="46.017643846571445" lon="5.919356010854244">
        <ele>418</ele>
        <time>2014-05-17T12:33:58Z</time>
      </trkpt>
      <trkpt lat="46.017596824094653" lon="5.919172028079629">
        <ele>419</ele>
        <time>2014-05-17T12:34:03Z</time>
      </trkpt>
      <trkpt lat="46.017592130228877" lon="5.919133555144072">
        <ele>419.20001220703125</ele>
        <time>2014-05-17T12:34:04Z</time>
      </trkpt>
      <trkpt lat="46.01757662370801" lon="5.918990476056933">
        <ele>420.20001220703125</ele>
        <time>2014-05-17T12:34:08Z</time>
      </trkpt>
      <trkpt lat="46.01756933145225" lon="5.918856533244252">
        <ele>421.39999389648437</ele>
        <time>2014-05-17T12:34:12Z</time>
      </trkpt>
      <trkpt lat="46.017556758597493" lon="5.91870054602623">
        <ele>422.60000610351562</ele>
        <time>2014-05-17T12:34:17Z</time>
      </trkpt>
      <trkpt lat="46.017558854073286" lon="5.918635670095682">
        <ele>423.20001220703125</ele>
        <time>2014-05-17T12:34:19Z</time>
      </trkpt>
      <trkpt lat="46.017555836588144" lon="5.918569201603532">
        <ele>423.79998779296875</ele>
        <time>2014-05-17T12:34:21Z</time>
      </trkpt>
      <trkpt lat="46.017554998397827" lon="5.918374489992857">
        <ele>425</ele>
        <time>2014-05-17T12:34:27Z</time>
      </trkpt>
      <trkpt lat="46.017558854073286" lon="5.918217329308391">
        <ele>426.20001220703125</ele>
        <time>2014-05-17T12:34:32Z</time>
      </trkpt>
      <trkpt lat="46.01755172945559" lon="5.918097551912069">
        <ele>427</ele>
        <time>2014-05-17T12:34:36Z</time>
      </trkpt>
      <trkpt lat="46.017549550160766" lon="5.918041644617915">
        <ele>427.39999389648438</ele>
        <time>2014-05-17T12:34:38Z</time>
      </trkpt>
      <trkpt lat="46.017528930678964" lon="5.917890183627605">
        <ele>428.39999389648437</ele>
        <time>2014-05-17T12:34:43Z</time>
      </trkpt>
      <trkpt lat="46.017517112195492" lon="5.91784106567502">
        <ele>428.79998779296875</ele>
        <time>2014-05-17T12:34:45Z</time>
      </trkpt>
      <trkpt lat="46.017503030598164" lon="5.917746014893055">
        <ele>429.60000610351562</ele>
        <time>2014-05-17T12:34:48Z</time>
      </trkpt>
      <trkpt lat="46.017486350610852" lon="5.917653981596232">
        <ele>430.20001220703125</ele>
        <time>2014-05-17T12:34:51Z</time>
      </trkpt>
      <trkpt lat="46.017468832433224" lon="5.917590195313096">
        <ele>430.79998779296875</ele>
        <time>2014-05-17T12:34:53Z</time>
      </trkpt>
      <trkpt lat="46.017422564327717" lon="5.917446194216609">
        <ele>431.79998779296875</ele>
        <time>2014-05-17T12:34:58Z</time>
      </trkpt>
      <trkpt lat="46.017410410568118" lon="5.917420964688063">
        <ele>432</ele>
        <time>2014-05-17T12:34:59Z</time>
      </trkpt>
      <trkpt lat="46.017377050593495" lon="5.917306803166866">
        <ele>432.79998779296875</ele>
        <time>2014-05-17T12:35:03Z</time>
      </trkpt>
      <trkpt lat="46.017338242381811" lon="5.917201191186905">
        <ele>433.60000610351562</ele>
        <time>2014-05-17T12:35:07Z</time>
      </trkpt>
      <trkpt lat="46.017326004803181" lon="5.91717311181128">
        <ele>434</ele>
        <time>2014-05-17T12:35:08Z</time>
      </trkpt>
      <trkpt lat="46.017264230176806" lon="5.916967000812292">
        <ele>435.20001220703125</ele>
        <time>2014-05-17T12:35:15Z</time>
      </trkpt>
      <trkpt lat="46.017249058932066" lon="5.916939759626985">
        <ele>435.20001220703125</ele>
        <time>2014-05-17T12:35:16Z</time>
      </trkpt>
      <trkpt lat="46.017210921272635" lon="5.916784191504121">
        <ele>436.60000610351562</ele>
        <time>2014-05-17T12:35:21Z</time>
      </trkpt>
      <trkpt lat="46.017191894352436" lon="5.91673674993217">
        <ele>437</ele>
        <time>2014-05-17T12:35:23Z</time>
      </trkpt>
      <trkpt lat="46.017159959301353" lon="5.916655696928501">
        <ele>437.79998779296875</ele>
        <time>2014-05-17T12:35:26Z</time>
      </trkpt>
      <trkpt lat="46.017089886590838" lon="5.916488310322166">
        <ele>439</ele>
        <time>2014-05-17T12:35:32Z</time>
      </trkpt>
      <trkpt lat="46.016978155821562" lon="5.916305668652058">
        <ele>440.20001220703125</ele>
        <time>2014-05-17T12:35:39Z</time>
      </trkpt>
      <trkpt lat="46.016963236033916" lon="5.916286054998636">
        <ele>440.20001220703125</ele>
        <time>2014-05-17T12:35:40Z</time>
      </trkpt>
      <trkpt lat="46.01689693517983" lon="5.9162085223943">
        <ele>441.39999389648438</ele>
        <time>2014-05-17T12:35:45Z</time>
      </trkpt>
      <trkpt lat="46.016869945451617" lon="5.916175162419677">
        <ele>441.79998779296875</ele>
        <time>2014-05-17T12:35:47Z</time>
      </trkpt>
      <trkpt lat="46.016814624890685" lon="5.916109113022685">
        <ele>442.60000610351562</ele>
        <time>2014-05-17T12:35:51Z</time>
      </trkpt>
      <trkpt lat="46.016749832779169" lon="5.916075836867094">
        <ele>443.39999389648437</ele>
        <time>2014-05-17T12:35:55Z</time>
      </trkpt>
      <trkpt lat="46.016734493896365" lon="5.916060246527195">
        <ele>443.60000610351562</ele>
        <time>2014-05-17T12:35:56Z</time>
      </trkpt>
      <trkpt lat="46.016638604924083" lon="5.915994951501489">
        <ele>444.79998779296875</ele>
        <time>2014-05-17T12:36:01Z</time>
      </trkpt>
      <trkpt lat="46.016617901623249" lon="5.915987407788634">
        <ele>444.79998779296875</ele>
        <time>2014-05-17T12:36:02Z</time>
      </trkpt>
      <trkpt lat="46.016517151147127" lon="5.915927058085799">
        <ele>446</ele>
        <time>2014-05-17T12:36:08Z</time>
      </trkpt>
      <trkpt lat="46.016420088708401" lon="5.915897134691477">
        <ele>447</ele>
        <time>2014-05-17T12:36:13Z</time>
      </trkpt>
      <trkpt lat="46.016384046524763" lon="5.91589973308146">
        <ele>447.39999389648438</ele>
        <time>2014-05-17T12:36:15Z</time>
      </trkpt>
      <trkpt lat="46.01633308455348" lon="5.915910629555583">
        <ele>448.20001220703125</ele>
        <time>2014-05-17T12:36:18Z</time>
      </trkpt>
      <trkpt lat="46.016268543899059" lon="5.915940469130874">
        <ele>448.79998779296875</ele>
        <time>2014-05-17T12:36:22Z</time>
      </trkpt>
      <trkpt lat="46.016251277178526" lon="5.915950192138553">
        <ele>449</ele>
        <time>2014-05-17T12:36:23Z</time>
      </trkpt>
      <trkpt lat="46.016221856698394" lon="5.915969470515847">
        <ele>449.20001220703125</ele>
        <time>2014-05-17T12:36:25Z</time>
      </trkpt>
      <trkpt lat="46.01618304848671" lon="5.916006686165929">
        <ele>450.60000610351562</ele>
        <time>2014-05-17T12:36:28Z</time>
      </trkpt>
      <trkpt lat="46.016168380156159" lon="5.916045242920518">
        <ele>451</ele>
        <time>2014-05-17T12:36:30Z</time>
      </trkpt>
      <trkpt lat="46.016143821179867" lon="5.916105676442385">
        <ele>451.79998779296875</ele>
        <time>2014-05-17T12:36:33Z</time>
      </trkpt>
      <trkpt lat="46.016126638278365" lon="5.916230147704482">
        <ele>452.79998779296875</ele>
        <time>2014-05-17T12:36:38Z</time>
      </trkpt>
      <trkpt lat="46.016130913048983" lon="5.916346991434693">
        <ele>453.79998779296875</ele>
        <time>2014-05-17T12:36:42Z</time>
      </trkpt>
      <trkpt lat="46.016129739582539" lon="5.916379932314158">
        <ele>454</ele>
        <time>2014-05-17T12:36:43Z</time>
      </trkpt>
      <trkpt lat="46.016150945797563" lon="5.916590737178922">
        <ele>454.39999389648437</ele>
        <time>2014-05-17T12:36:49Z</time>
      </trkpt>
      <trkpt lat="46.016159076243639" lon="5.91670741327107">
        <ele>455</ele>
        <time>2014-05-17T12:36:52Z</time>
      </trkpt>
      <trkpt lat="46.016176426783204" lon="5.916875135153532">
        <ele>455.60000610351562</ele>
        <time>2014-05-17T12:36:57Z</time>
      </trkpt>
      <trkpt lat="46.016186317428946" lon="5.916939172893763">
        <ele>456</ele>
        <time>2014-05-17T12:36:59Z</time>
      </trkpt>
      <trkpt lat="46.016213558614254" lon="5.917119802907109">
        <ele>457.39999389648437</ele>
        <time>2014-05-17T12:37:05Z</time>
      </trkpt>
      <trkpt lat="46.016225963830948" lon="5.917213764041662">
        <ele>457.79998779296875</ele>
        <time>2014-05-17T12:37:08Z</time>
      </trkpt>
      <trkpt lat="46.016228226944804" lon="5.917381066828966">
        <ele>458.60000610351562</ele>
        <time>2014-05-17T12:37:13Z</time>
      </trkpt>
      <trkpt lat="46.016227388754487" lon="5.917414845898747">
        <ele>458.60000610351562</ele>
        <time>2014-05-17T12:37:14Z</time>
      </trkpt>
      <trkpt lat="46.016220431774855" lon="5.917669991031289">
        <ele>460</ele>
        <time>2014-05-17T12:37:21Z</time>
      </trkpt>
      <trkpt lat="46.016217833384871" lon="5.9177091345191">
        <ele>460</ele>
        <time>2014-05-17T12:37:22Z</time>
      </trkpt>
      <trkpt lat="46.016202410683036" lon="5.917830839753151">
        <ele>461</ele>
        <time>2014-05-17T12:37:25Z</time>
      </trkpt>
      <trkpt lat="46.01617768406868" lon="5.918044410645962">
        <ele>461.20001220703125</ele>
        <time>2014-05-17T12:37:30Z</time>
      </trkpt>
      <trkpt lat="46.016104007139802" lon="5.918281199410558">
        <ele>462.20001220703125</ele>
        <time>2014-05-17T12:37:36Z</time>
      </trkpt>
      <trkpt lat="46.015985403209925" lon="5.918510863557458">
        <ele>462.79998779296875</ele>
        <time>2014-05-17T12:37:43Z</time>
      </trkpt>
      <trkpt lat="46.015947265550494" lon="5.918566938489676">
        <ele>463.60000610351562</ele>
        <time>2014-05-17T12:37:45Z</time>
      </trkpt>
      <trkpt lat="46.015851963311434" lon="5.91868931427598">
        <ele>464.79998779296875</ele>
        <time>2014-05-17T12:37:50Z</time>
      </trkpt>
      <trkpt lat="46.015812149271369" lon="5.91872937977314">
        <ele>465.20001220703125</ele>
        <time>2014-05-17T12:37:52Z</time>
      </trkpt>
      <trkpt lat="46.015749536454678" lon="5.918787382543087">
        <ele>466</ele>
        <time>2014-05-17T12:37:55Z</time>
      </trkpt>
      <trkpt lat="46.015663370490074" lon="5.918886037543416">
        <ele>466.79998779296875</ele>
        <time>2014-05-17T12:38:00Z</time>
      </trkpt>
      <trkpt lat="46.015649456530809" lon="5.91891068033874">
        <ele>467</ele>
        <time>2014-05-17T12:38:01Z</time>
      </trkpt>
      <trkpt lat="46.015561614185572" lon="5.919008245691657">
        <ele>468</ele>
        <time>2014-05-17T12:38:06Z</time>
      </trkpt>
      <trkpt lat="46.015543760731816" lon="5.919024758040905">
        <ele>468.20001220703125</ele>
        <time>2014-05-17T12:38:07Z</time>
      </trkpt>
      <trkpt lat="46.015456672757864" lon="5.919123329222202">
        <ele>469.20001220703125</ele>
        <time>2014-05-17T12:38:12Z</time>
      </trkpt>
      <trkpt lat="46.015437478199601" lon="5.919142356142402">
        <ele>469.39999389648437</ele>
        <time>2014-05-17T12:38:13Z</time>
      </trkpt>
      <trkpt lat="46.015339661389589" lon="5.919236820191145">
        <ele>470.39999389648437</ele>
        <time>2014-05-17T12:38:18Z</time>
      </trkpt>
      <trkpt lat="46.015276210382581" lon="5.919257523491979">
        <ele>471</ele>
        <time>2014-05-17T12:38:21Z</time>
      </trkpt>
      <trkpt lat="46.015257854014635" lon="5.919250650331378">
        <ele>471.39999389648437</ele>
        <time>2014-05-17T12:38:22Z</time>
      </trkpt>
      <trkpt lat="46.015206640586257" lon="5.919181499630213">
        <ele>472.20001220703125</ele>
        <time>2014-05-17T12:38:26Z</time>
      </trkpt>
      <trkpt lat="46.015199767425656" lon="5.919156689196825">
        <ele>472.39999389648437</ele>
        <time>2014-05-17T12:38:27Z</time>
      </trkpt>
      <trkpt lat="46.015196666121483" lon="5.919108996167779">
        <ele>473</ele>
        <time>2014-05-17T12:38:29Z</time>
      </trkpt>
      <trkpt lat="46.015204209834337" lon="5.91901620849967">
        <ele>473.60000610351562</ele>
        <time>2014-05-17T12:38:32Z</time>
      </trkpt>
      <trkpt lat="46.01525123231113" lon="5.918834237381816">
        <ele>474.20001220703125</ele>
        <time>2014-05-17T12:38:38Z</time>
      </trkpt>
      <trkpt lat="46.015267912298441" lon="5.918772043660283">
        <ele>474.60000610351562</ele>
        <time>2014-05-17T12:38:40Z</time>
      </trkpt>
      <trkpt lat="46.015319628641009" lon="5.918626869097352">
        <ele>475.60000610351562</ele>
        <time>2014-05-17T12:38:45Z</time>
      </trkpt>
      <trkpt lat="46.015395149588585" lon="5.918380441144109">
        <ele>476</ele>
        <time>2014-05-17T12:38:52Z</time>
      </trkpt>
      <trkpt lat="46.015457510948181" lon="5.91817575506866">
        <ele>476.79998779296875</ele>
        <time>2014-05-17T12:38:58Z</time>
      </trkpt>
      <trkpt lat="46.015464467927814" lon="5.91814499348402">
        <ele>477.20001220703125</ele>
        <time>2014-05-17T12:38:59Z</time>
      </trkpt>
      <trkpt lat="46.015475867316127" lon="5.91802379116416">
        <ele>477.79998779296875</ele>
        <time>2014-05-17T12:39:03Z</time>
      </trkpt>
      <trkpt lat="46.015473436564207" lon="5.917939469218254">
        <ele>478.39999389648438</ele>
        <time>2014-05-17T12:39:06Z</time>
      </trkpt>
      <trkpt lat="46.015465138480067" lon="5.917910132557154">
        <ele>478.60000610351562</ele>
        <time>2014-05-17T12:39:07Z</time>
      </trkpt>
      <trkpt lat="46.015419121831656" lon="5.917833521962166">
        <ele>479</ele>
        <time>2014-05-17T12:39:10Z</time>
      </trkpt>
      <trkpt lat="46.015381067991257" lon="5.917793707922101">
        <ele>479.60000610351562</ele>
        <time>2014-05-17T12:39:12Z</time>
      </trkpt>
      <trkpt lat="46.015308815985918" lon="5.91777459718287">
        <ele>480.20001220703125</ele>
        <time>2014-05-17T12:39:15Z</time>
      </trkpt>
      <trkpt lat="46.015238156542182" lon="5.917796725407243">
        <ele>480.79998779296875</ele>
        <time>2014-05-17T12:39:18Z</time>
      </trkpt>
      <trkpt lat="46.015166072174907" lon="5.917794210836291">
        <ele>481.60000610351562</ele>
        <time>2014-05-17T12:39:21Z</time>
      </trkpt>
      <trkpt lat="46.015044953674078" lon="5.917810890823603">
        <ele>482.60000610351562</ele>
        <time>2014-05-17T12:39:26Z</time>
      </trkpt>
      <trkpt lat="46.014892570674419" lon="5.917896721512079">
        <ele>483</ele>
        <time>2014-05-17T12:39:33Z</time>
      </trkpt>
      <trkpt lat="46.014815540984273" lon="5.917978109791875">
        <ele>483.60000610351562</ele>
        <time>2014-05-17T12:39:37Z</time>
      </trkpt>
      <trkpt lat="46.014760723337531" lon="5.918035190552473">
        <ele>484.20001220703125</ele>
        <time>2014-05-17T12:39:40Z</time>
      </trkpt>
      <trkpt lat="46.014723088592291" lon="5.918067963793874">
        <ele>484.79998779296875</ele>
        <time>2014-05-17T12:39:42Z</time>
      </trkpt>
      <trkpt lat="46.014658631756902" lon="5.918113058432937">
        <ele>486</ele>
        <time>2014-05-17T12:39:45Z</time>
      </trkpt>
      <trkpt lat="46.014551175758243" lon="5.918163601309061">
        <ele>487</ele>
        <time>2014-05-17T12:39:50Z</time>
      </trkpt>
      <trkpt lat="46.014528628438711" lon="5.918163349851966">
        <ele>487</ele>
        <time>2014-05-17T12:39:51Z</time>
      </trkpt>
      <trkpt lat="46.014440031722188" lon="5.918127978220582">
        <ele>488.20001220703125</ele>
        <time>2014-05-17T12:39:55Z</time>
      </trkpt>
      <trkpt lat="46.014393512159586" lon="5.918106436729431">
        <ele>488.60000610351562</ele>
        <time>2014-05-17T12:39:57Z</time>
      </trkpt>
      <trkpt lat="46.01431748829782" lon="5.917975176125765">
        <ele>489.20001220703125</ele>
        <time>2014-05-17T12:40:02Z</time>
      </trkpt>
      <trkpt lat="46.014287564903498" lon="5.917915580794215">
        <ele>489.39999389648437</ele>
        <time>2014-05-17T12:40:04Z</time>
      </trkpt>
      <trkpt lat="46.014220844954252" lon="5.917761772871018">
        <ele>490.39999389648437</ele>
        <time>2014-05-17T12:40:09Z</time>
      </trkpt>
      <trkpt lat="46.014206763356924" lon="5.917731849476695">
        <ele>490.60000610351562</ele>
        <time>2014-05-17T12:40:10Z</time>
      </trkpt>
      <trkpt lat="46.014140378683805" lon="5.917550213634968">
        <ele>491.60000610351562</ele>
        <time>2014-05-17T12:40:16Z</time>
      </trkpt>
      <trkpt lat="46.014061756432056" lon="5.917385509237647">
        <ele>492.60000610351562</ele>
        <time>2014-05-17T12:40:22Z</time>
      </trkpt>
      <trkpt lat="46.014050524681807" lon="5.917357765138149">
        <ele>492.79998779296875</ele>
        <time>2014-05-17T12:40:23Z</time>
      </trkpt>
      <trkpt lat="46.014003669843078" lon="5.917289117351174">
        <ele>493.60000610351562</ele>
        <time>2014-05-17T12:40:26Z</time>
      </trkpt>
      <trkpt lat="46.013948600739241" lon="5.917241424322128">
        <ele>494.20001220703125</ele>
        <time>2014-05-17T12:40:29Z</time>
      </trkpt>
      <trkpt lat="46.013909038156271" lon="5.91722340323031">
        <ele>494.79998779296875</ele>
        <time>2014-05-17T12:40:31Z</time>
      </trkpt>
      <trkpt lat="46.013846844434738" lon="5.91718970797956">
        <ele>495.79998779296875</ele>
        <time>2014-05-17T12:40:35Z</time>
      </trkpt>
      <trkpt lat="46.013750117272139" lon="5.917175710201263">
        <ele>496.79998779296875</ele>
        <time>2014-05-17T12:40:40Z</time>
      </trkpt>
      <trkpt lat="46.013730671256781" lon="5.91717503964901">
        <ele>497</ele>
        <time>2014-05-17T12:40:41Z</time>
      </trkpt>
      <trkpt lat="46.013618186116219" lon="5.917235808447003">
        <ele>498.20001220703125</ele>
        <time>2014-05-17T12:40:47Z</time>
      </trkpt>
      <trkpt lat="46.013596393167973" lon="5.917247626930475">
        <ele>498.20001220703125</ele>
        <time>2014-05-17T12:40:48Z</time>
      </trkpt>
      <trkpt lat="46.013487847521901" lon="5.917336978018284">
        <ele>499.20001220703125</ele>
        <time>2014-05-17T12:40:54Z</time>
      </trkpt>
      <trkpt lat="46.013470496982336" lon="5.917353322729468">
        <ele>499.20001220703125</ele>
        <time>2014-05-17T12:40:55Z</time>
      </trkpt>
      <trkpt lat="46.013367986306548" lon="5.917445356026292">
        <ele>500.39999389648438</ele>
        <time>2014-05-17T12:41:01Z</time>
      </trkpt>
      <trkpt lat="46.013325657695532" lon="5.917492127045989">
        <ele>500.79998779296875</ele>
        <time>2014-05-17T12:41:04Z</time>
      </trkpt>
      <trkpt lat="46.013295566663146" lon="5.917520960792899">
        <ele>501.20001220703125</ele>
        <time>2014-05-17T12:41:06Z</time>
      </trkpt>
      <trkpt lat="46.013281652703881" lon="5.91753956861794">
        <ele>501.39999389648438</ele>
        <time>2014-05-17T12:41:07Z</time>
      </trkpt>
      <trkpt lat="46.013253908604383" lon="5.917568821460009">
        <ele>501.79998779296875</ele>
        <time>2014-05-17T12:41:09Z</time>
      </trkpt>
      <trkpt lat="46.01319364272058" lon="5.917617352679372">
        <ele>502.60000610351562</ele>
        <time>2014-05-17T12:41:13Z</time>
      </trkpt>
      <trkpt lat="46.013143518939614" lon="5.917656160891056">
        <ele>503.20001220703125</ele>
        <time>2014-05-17T12:41:16Z</time>
      </trkpt>
      <trkpt lat="46.013093898072839" lon="5.917703015729785">
        <ele>503.60000610351562</ele>
        <time>2014-05-17T12:41:19Z</time>
      </trkpt>
      <trkpt lat="46.012999936938286" lon="5.917797312140465">
        <ele>504.60000610351562</ele>
        <time>2014-05-17T12:41:25Z</time>
      </trkpt>
      <trkpt lat="46.01290631107986" lon="5.917888004332781">
        <ele>505.79998779296875</ele>
        <time>2014-05-17T12:41:31Z</time>
      </trkpt>
      <trkpt lat="46.012856941670179" lon="5.917929075658321">
        <ele>506.39999389648438</ele>
        <time>2014-05-17T12:41:34Z</time>
      </trkpt>
      <trkpt lat="46.012806734070182" lon="5.917976601049304">
        <ele>507</ele>
        <time>2014-05-17T12:41:37Z</time>
      </trkpt>
      <trkpt lat="46.012707408517599" lon="5.918078105896711">
        <ele>508</ele>
        <time>2014-05-17T12:41:43Z</time>
      </trkpt>
      <trkpt lat="46.012639934197068" lon="5.918141975998879">
        <ele>509.20001220703125</ele>
        <time>2014-05-17T12:41:47Z</time>
      </trkpt>
      <trkpt lat="46.012553852051497" lon="5.91821288689971">
        <ele>510</ele>
        <time>2014-05-17T12:41:52Z</time>
      </trkpt>
      <trkpt lat="46.012535495683551" lon="5.918225459754467">
        <ele>510.20001220703125</ele>
        <time>2014-05-17T12:41:53Z</time>
      </trkpt>
      <trkpt lat="46.012426028028131" lon="5.918299723416567">
        <ele>511.39999389648438</ele>
        <time>2014-05-17T12:41:59Z</time>
      </trkpt>
      <trkpt lat="46.012385375797749" lon="5.918312380090356">
        <ele>511.79998779296875</ele>
        <time>2014-05-17T12:42:01Z</time>
      </trkpt>
      <trkpt lat="46.012323098257184" lon="5.918337358161807">
        <ele>512.4000244140625</ele>
        <time>2014-05-17T12:42:04Z</time>
      </trkpt>
      <trkpt lat="46.012246068567038" lon="5.91836828738451">
        <ele>513.20001220703125</ele>
        <time>2014-05-17T12:42:08Z</time>
      </trkpt>
      <trkpt lat="46.012226287275553" lon="5.918373232707381">
        <ele>513.5999755859375</ele>
        <time>2014-05-17T12:42:09Z</time>
      </trkpt>
      <trkpt lat="46.012085890397429" lon="5.918413884937763">
        <ele>514.4000244140625</ele>
        <time>2014-05-17T12:42:16Z</time>
      </trkpt>
      <trkpt lat="46.01206736639142" lon="5.918419919908047">
        <ele>514.5999755859375</ele>
        <time>2014-05-17T12:42:17Z</time>
      </trkpt>
      <trkpt lat="46.011924287304282" lon="5.918461410328746">
        <ele>515.20001220703125</ele>
        <time>2014-05-17T12:42:24Z</time>
      </trkpt>
      <trkpt lat="46.011888580396771" lon="5.918469708412886">
        <ele>515.79998779296875</ele>
        <time>2014-05-17T12:42:26Z</time>
      </trkpt>
      <trkpt lat="46.011779028922319" lon="5.918494183570147">
        <ele>516.79998779296875</ele>
        <time>2014-05-17T12:42:32Z</time>
      </trkpt>
      <trkpt lat="46.011689510196447" lon="5.91851488687098">
        <ele>518</ele>
        <time>2014-05-17T12:42:37Z</time>
      </trkpt>
      <trkpt lat="46.011629579588771" lon="5.918528717011213">
        <ele>518.5999755859375</ele>
        <time>2014-05-17T12:42:40Z</time>
      </trkpt>
      <trkpt lat="46.011545760557055" lon="5.918554030358791">
        <ele>519.20001220703125</ele>
        <time>2014-05-17T12:42:44Z</time>
      </trkpt>
      <trkpt lat="46.011504018679261" lon="5.918567106127739">
        <ele>519.4000244140625</ele>
        <time>2014-05-17T12:42:46Z</time>
      </trkpt>
      <trkpt lat="46.011352641507983" lon="5.918620247393847">
        <ele>520.4000244140625</ele>
        <time>2014-05-17T12:42:53Z</time>
      </trkpt>
      <trkpt lat="46.011330848559737" lon="5.918629886582494">
        <ele>520.4000244140625</ele>
        <time>2014-05-17T12:42:54Z</time>
      </trkpt>
      <trkpt lat="46.011218531057239" lon="5.91865804977715">
        <ele>521.4000244140625</ele>
        <time>2014-05-17T12:42:59Z</time>
      </trkpt>
      <trkpt lat="46.011196402832866" lon="5.918666683137417">
        <ele>521.5999755859375</ele>
        <time>2014-05-17T12:43:00Z</time>
      </trkpt>
      <trkpt lat="46.011069416999817" lon="5.918706329539418">
        <ele>522.5999755859375</ele>
        <time>2014-05-17T12:43:06Z</time>
      </trkpt>
      <trkpt lat="46.01102658547461" lon="5.918720494955778">
        <ele>522.79998779296875</ele>
        <time>2014-05-17T12:43:08Z</time>
      </trkpt>
      <trkpt lat="46.010939832776785" lon="5.918728038668633">
        <ele>523.5999755859375</ele>
        <time>2014-05-17T12:43:12Z</time>
      </trkpt>
      <trkpt lat="46.010854756459594" lon="5.918745389208198">
        <ele>524.4000244140625</ele>
        <time>2014-05-17T12:43:16Z</time>
      </trkpt>
      <trkpt lat="46.010812930762768" lon="5.918748071417213">
        <ele>524.79998779296875</ele>
        <time>2014-05-17T12:43:18Z</time>
      </trkpt>
      <trkpt lat="46.010702457278967" lon="5.918734408915043">
        <ele>525.79998779296875</ele>
        <time>2014-05-17T12:43:23Z</time>
      </trkpt>
      <trkpt lat="46.010639676824212" lon="5.918720243498683">
        <ele>526.4000244140625</ele>
        <time>2014-05-17T12:43:26Z</time>
      </trkpt>
      <trkpt lat="46.010534316301346" lon="5.918680345639586">
        <ele>527</ele>
        <time>2014-05-17T12:43:31Z</time>
      </trkpt>
      <trkpt lat="46.010472793132067" lon="5.918659307062626">
        <ele>527.4000244140625</ele>
        <time>2014-05-17T12:43:34Z</time>
      </trkpt>
      <trkpt lat="46.010382855311036" lon="5.918627539649606">
        <ele>528.20001220703125</ele>
        <time>2014-05-17T12:43:38Z</time>
      </trkpt>
      <trkpt lat="46.010280260816216" lon="5.918604740872979">
        <ele>528.79998779296875</ele>
        <time>2014-05-17T12:43:43Z</time>
      </trkpt>
      <trkpt lat="46.010239273309708" lon="5.918587725609541">
        <ele>529.20001220703125</ele>
        <time>2014-05-17T12:43:45Z</time>
      </trkpt>
      <trkpt lat="46.010079849511385" lon="5.918543804436922">
        <ele>530.20001220703125</ele>
        <time>2014-05-17T12:43:53Z</time>
      </trkpt>
      <trkpt lat="46.010017488151789" lon="5.918529639020562">
        <ele>530.79998779296875</ele>
        <time>2014-05-17T12:43:56Z</time>
      </trkpt>
      <trkpt lat="46.009953785687685" lon="5.918512959033251">
        <ele>531.4000244140625</ele>
        <time>2014-05-17T12:43:59Z</time>
      </trkpt>
      <trkpt lat="46.009893352165818" lon="5.918493261560798">
        <ele>531.79998779296875</ele>
        <time>2014-05-17T12:44:02Z</time>
      </trkpt>
      <trkpt lat="46.009809197857976" lon="5.918461242690682">
        <ele>532.5999755859375</ele>
        <time>2014-05-17T12:44:06Z</time>
      </trkpt>
      <trkpt lat="46.009709620848298" lon="5.918433917686343">
        <ele>533.4000244140625</ele>
        <time>2014-05-17T12:44:11Z</time>
      </trkpt>
      <trkpt lat="46.009690258651972" lon="5.918427631258965">
        <ele>533.5999755859375</ele>
        <time>2014-05-17T12:44:12Z</time>
      </trkpt>
      <trkpt lat="46.009598476812243" lon="5.918395947664976">
        <ele>534.5999755859375</ele>
        <time>2014-05-17T12:44:17Z</time>
      </trkpt>
      <trkpt lat="46.009543994441628" lon="5.918385721743107">
        <ele>535.20001220703125</ele>
        <time>2014-05-17T12:44:20Z</time>
      </trkpt>
      <trkpt lat="46.009476520121098" lon="5.918361833319068">
        <ele>535.79998779296875</ele>
        <time>2014-05-17T12:44:24Z</time>
      </trkpt>
      <trkpt lat="46.009439639747143" lon="5.918350350111723">
        <ele>536.20001220703125</ele>
        <time>2014-05-17T12:44:26Z</time>
      </trkpt>
      <trkpt lat="46.009331345558167" lon="5.91832185164094">
        <ele>537</ele>
        <time>2014-05-17T12:44:32Z</time>
      </trkpt>
      <trkpt lat="46.009255573153496" lon="5.918298130854964">
        <ele>537.79998779296875</ele>
        <time>2014-05-17T12:44:36Z</time>
      </trkpt>
      <trkpt lat="46.009200420230627" lon="5.918279271572828">
        <ele>538</ele>
        <time>2014-05-17T12:44:39Z</time>
      </trkpt>
      <trkpt lat="46.009093467146158" lon="5.918241888284683">
        <ele>539</ele>
        <time>2014-05-17T12:44:45Z</time>
      </trkpt>
      <trkpt lat="46.009076368063688" lon="5.918234176933765">
        <ele>539.20001220703125</ele>
        <time>2014-05-17T12:44:46Z</time>
      </trkpt>
      <trkpt lat="46.008969414979219" lon="5.918226968497038">
        <ele>540.20001220703125</ele>
        <time>2014-05-17T12:44:52Z</time>
      </trkpt>
      <trkpt lat="46.008954411372542" lon="5.918220598250628">
        <ele>540.4000244140625</ele>
        <time>2014-05-17T12:44:53Z</time>
      </trkpt>
      <trkpt lat="46.008871262893081" lon="5.918195536360145">
        <ele>541.4000244140625</ele>
        <time>2014-05-17T12:44:58Z</time>
      </trkpt>
      <trkpt lat="46.008772440254688" lon="5.918185897171497">
        <ele>542.5999755859375</ele>
        <time>2014-05-17T12:45:04Z</time>
      </trkpt>
      <trkpt lat="46.008721562102437" lon="5.918173408135772">
        <ele>543.20001220703125</ele>
        <time>2014-05-17T12:45:07Z</time>
      </trkpt>
      <trkpt lat="46.008669175207615" lon="5.918170642107725">
        <ele>543.5999755859375</ele>
        <time>2014-05-17T12:45:10Z</time>
      </trkpt>
      <trkpt lat="46.008599437773228" lon="5.918167540803552">
        <ele>544.20001220703125</ele>
        <time>2014-05-17T12:45:14Z</time>
      </trkpt>
      <trkpt lat="46.008550236001611" lon="5.918163852766156">
        <ele>544.5999755859375</ele>
        <time>2014-05-17T12:45:17Z</time>
      </trkpt>
      <trkpt lat="46.008480163291097" lon="5.918166032060981">
        <ele>545.79998779296875</ele>
        <time>2014-05-17T12:45:21Z</time>
      </trkpt>
      <trkpt lat="46.008353345096111" lon="5.918167624622583">
        <ele>547</ele>
        <time>2014-05-17T12:45:28Z</time>
      </trkpt>
      <trkpt lat="46.008333815261722" lon="5.918175084516406">
        <ele>547.20001220703125</ele>
        <time>2014-05-17T12:45:29Z</time>
      </trkpt>
      <trkpt lat="46.008255779743195" lon="5.918208528310061">
        <ele>548</ele>
        <time>2014-05-17T12:45:33Z</time>
      </trkpt>
      <trkpt lat="46.0082106012851" lon="5.918251276016235">
        <ele>548.5999755859375</ele>
        <time>2014-05-17T12:45:36Z</time>
      </trkpt>
      <trkpt lat="46.008162572979927" lon="5.918300310149789">
        <ele>549</ele>
        <time>2014-05-17T12:45:39Z</time>
      </trkpt>
      <trkpt lat="46.008131559938192" lon="5.918343057855964">
        <ele>549.4000244140625</ele>
        <time>2014-05-17T12:45:41Z</time>
      </trkpt>
      <trkpt lat="46.008093422278762" lon="5.918426876887679">
        <ele>550.20001220703125</ele>
        <time>2014-05-17T12:46:27Z</time>
      </trkpt>
      <trkpt lat="46.008071377873421" lon="5.918518658727408">
        <ele>550.20001220703125</ele>
        <time>2014-05-17T12:46:31Z</time>
      </trkpt>
      <trkpt lat="46.008001388981938" lon="5.918756788596511">
        <ele>550.79998779296875</ele>
        <time>2014-05-17T12:46:39Z</time>
      </trkpt>
      <trkpt lat="46.00798336789012" lon="5.918848654255271">
        <ele>551.20001220703125</ele>
        <time>2014-05-17T12:46:42Z</time>
      </trkpt>
      <trkpt lat="46.007935842499137" lon="5.919000450521708">
        <ele>552.20001220703125</ele>
        <time>2014-05-17T12:46:47Z</time>
      </trkpt>
      <trkpt lat="46.007928717881441" lon="5.919033475220203">
        <ele>552.4000244140625</ele>
        <time>2014-05-17T12:46:48Z</time>
      </trkpt>
      <trkpt lat="46.007885886356235" lon="5.919169848784804">
        <ele>553.4000244140625</ele>
        <time>2014-05-17T12:46:52Z</time>
      </trkpt>
      <trkpt lat="46.007852107286453" lon="5.919257272034884">
        <ele>553.79998779296875</ele>
        <time>2014-05-17T12:46:54Z</time>
      </trkpt>
      <trkpt lat="46.007739957422018" lon="5.919483415782452">
        <ele>554.4000244140625</ele>
        <time>2014-05-17T12:47:00Z</time>
      </trkpt>
      <trkpt lat="46.007644655182958" lon="5.919595062732697">
        <ele>555.4000244140625</ele>
        <time>2014-05-17T12:47:04Z</time>
      </trkpt>
      <trkpt lat="46.007625376805663" lon="5.919615682214499">
        <ele>555.5999755859375</ele>
        <time>2014-05-17T12:47:05Z</time>
      </trkpt>
      <trkpt lat="46.007532421499491" lon="5.919654238969088">
        <ele>556.5999755859375</ele>
        <time>2014-05-17T12:47:09Z</time>
      </trkpt>
      <trkpt lat="46.007463270798326" lon="5.919686676934362">
        <ele>557</ele>
        <time>2014-05-17T12:47:12Z</time>
      </trkpt>
      <trkpt lat="46.007385905832052" lon="5.919733364135027">
        <ele>557.5999755859375</ele>
        <time>2014-05-17T12:47:16Z</time>
      </trkpt>
      <trkpt lat="46.007287837564945" lon="5.919794635847211">
        <ele>558.4000244140625</ele>
        <time>2014-05-17T12:47:21Z</time>
      </trkpt>
      <trkpt lat="46.007251376286149" lon="5.919827576726675">
        <ele>558.79998779296875</ele>
        <time>2014-05-17T12:47:23Z</time>
      </trkpt>
      <trkpt lat="46.007192367687821" lon="5.919876862317324">
        <ele>560</ele>
        <time>2014-05-17T12:47:26Z</time>
      </trkpt>
      <trkpt lat="46.007150374352932" lon="5.91990795917809">
        <ele>560.20001220703125</ele>
        <time>2014-05-17T12:47:28Z</time>
      </trkpt>
      <trkpt lat="46.007049791514874" lon="5.92004475183785">
        <ele>561</ele>
        <time>2014-05-17T12:47:34Z</time>
      </trkpt>
      <trkpt lat="46.007035207003355" lon="5.92006872408092">
        <ele>561.20001220703125</ele>
        <time>2014-05-17T12:47:35Z</time>
      </trkpt>
      <trkpt lat="46.00694359280169" lon="5.920268632471561">
        <ele>562.20001220703125</ele>
        <time>2014-05-17T12:47:42Z</time>
      </trkpt>
      <trkpt lat="46.006919620558619" lon="5.920331832021475">
        <ele>562.79998779296875</ele>
        <time>2014-05-17T12:47:44Z</time>
      </trkpt>
      <trkpt lat="46.006894139572978" lon="5.920391594991088">
        <ele>563.4000244140625</ele>
        <time>2014-05-17T12:47:46Z</time>
      </trkpt>
      <trkpt lat="46.006834460422397" lon="5.920535931363702">
        <ele>564.5999755859375</ele>
        <time>2014-05-17T12:47:51Z</time>
      </trkpt>
      <trkpt lat="46.006756843999028" lon="5.920721422880888">
        <ele>565.79998779296875</ele>
        <time>2014-05-17T12:47:57Z</time>
      </trkpt>
      <trkpt lat="46.006698841229081" lon="5.920842373743653">
        <ele>566.4000244140625</ele>
        <time>2014-05-17T12:48:01Z</time>
      </trkpt>
      <trkpt lat="46.006633965298533" lon="5.921021578833461">
        <ele>566.5999755859375</ele>
        <time>2014-05-17T12:48:07Z</time>
      </trkpt>
      <trkpt lat="46.006626170128584" lon="5.921050496399403">
        <ele>566.79998779296875</ele>
        <time>2014-05-17T12:48:08Z</time>
      </trkpt>
      <trkpt lat="46.006537824869156" lon="5.921236742287874">
        <ele>567.79998779296875</ele>
        <time>2014-05-17T12:48:15Z</time>
      </trkpt>
      <trkpt lat="46.00647060200572" lon="5.92137336730957">
        <ele>568.79998779296875</ele>
        <time>2014-05-17T12:48:20Z</time>
      </trkpt>
      <trkpt lat="46.006456185132265" lon="5.921397004276514">
        <ele>569</ele>
        <time>2014-05-17T12:48:21Z</time>
      </trkpt>
      <trkpt lat="46.006369516253471" lon="5.921585178002715">
        <ele>570.20001220703125</ele>
        <time>2014-05-17T12:48:28Z</time>
      </trkpt>
      <trkpt lat="46.0063162073493" lon="5.921692801639438">
        <ele>571</ele>
        <time>2014-05-17T12:48:32Z</time>
      </trkpt>
      <trkpt lat="46.00630346685648" lon="5.921718953177333">
        <ele>571.20001220703125</ele>
        <time>2014-05-17T12:48:33Z</time>
      </trkpt>
      <trkpt lat="46.006247056648135" lon="5.921827415004373">
        <ele>571.79998779296875</ele>
        <time>2014-05-17T12:48:37Z</time>
      </trkpt>
      <trkpt lat="46.006199698895216" lon="5.921903690323234">
        <ele>572.4000244140625</ele>
        <time>2014-05-17T12:48:40Z</time>
      </trkpt>
      <trkpt lat="46.006156364455819" lon="5.921976277604699">
        <ele>573</ele>
        <time>2014-05-17T12:48:43Z</time>
      </trkpt>
      <trkpt lat="46.006126021966338" lon="5.92201734893024">
        <ele>573.4000244140625</ele>
        <time>2014-05-17T12:48:45Z</time>
      </trkpt>
      <trkpt lat="46.00604647770524" lon="5.922147938981652">
        <ele>574.4000244140625</ele>
        <time>2014-05-17T12:48:51Z</time>
      </trkpt>
      <trkpt lat="46.006019823253155" lon="5.922192614525557">
        <ele>575</ele>
        <time>2014-05-17T12:48:53Z</time>
      </trkpt>
      <trkpt lat="46.005989480763674" lon="5.922239134088159">
        <ele>575.5999755859375</ele>
        <time>2014-05-17T12:48:55Z</time>
      </trkpt>
      <trkpt lat="46.005901973694563" lon="5.922329239547253">
        <ele>576.5999755859375</ele>
        <time>2014-05-17T12:49:00Z</time>
      </trkpt>
      <trkpt lat="46.005882946774364" lon="5.922348350286484">
        <ele>576.79998779296875</ele>
        <time>2014-05-17T12:49:01Z</time>
      </trkpt>
      <trkpt lat="46.005788063630462" lon="5.922411130741239">
        <ele>577.5999755859375</ele>
        <time>2014-05-17T12:49:06Z</time>
      </trkpt>
      <trkpt lat="46.005734754726291" lon="5.922417836263776">
        <ele>578.20001220703125</ele>
        <time>2014-05-17T12:49:09Z</time>
      </trkpt>
      <trkpt lat="46.00569904781878" lon="5.922423535957933">
        <ele>579</ele>
        <time>2014-05-17T12:49:11Z</time>
      </trkpt>
      <trkpt lat="46.005598800256848" lon="5.922405263409019">
        <ele>580</ele>
        <time>2014-05-17T12:49:17Z</time>
      </trkpt>
      <trkpt lat="46.005495032295585" lon="5.922371987253428">
        <ele>581.20001220703125</ele>
        <time>2014-05-17T12:49:23Z</time>
      </trkpt>
      <trkpt lat="46.005465360358357" lon="5.922357738018036">
        <ele>581.4000244140625</ele>
        <time>2014-05-17T12:49:25Z</time>
      </trkpt>
      <trkpt lat="46.005359077826142" lon="5.922326222062111">
        <ele>582.4000244140625</ele>
        <time>2014-05-17T12:49:31Z</time>
      </trkpt>
      <trkpt lat="46.005342314019799" lon="5.922317001968622">
        <ele>582.79998779296875</ele>
        <time>2014-05-17T12:49:32Z</time>
      </trkpt>
      <trkpt lat="46.005272911861539" lon="5.922291185706854">
        <ele>583.20001220703125</ele>
        <time>2014-05-17T12:49:36Z</time>
      </trkpt>
      <trkpt lat="46.005238378420472" lon="5.922279367223382">
        <ele>583.5999755859375</ele>
        <time>2014-05-17T12:49:38Z</time>
      </trkpt>
      <trkpt lat="46.005183309316635" lon="5.922266375273466">
        <ele>584.20001220703125</ele>
        <time>2014-05-17T12:49:41Z</time>
      </trkpt>
      <trkpt lat="46.005123127251863" lon="5.922254305332899">
        <ele>584.5999755859375</ele>
        <time>2014-05-17T12:49:44Z</time>
      </trkpt>
      <trkpt lat="46.005061687901616" lon="5.922249862924218">
        <ele>585.20001220703125</ele>
        <time>2014-05-17T12:49:47Z</time>
      </trkpt>
      <trkpt lat="46.00497979670763" lon="5.922258663922548">
        <ele>585.79998779296875</ele>
        <time>2014-05-17T12:49:51Z</time>
      </trkpt>
      <trkpt lat="46.004919027909636" lon="5.922270063310862">
        <ele>586</ele>
        <time>2014-05-17T12:49:54Z</time>
      </trkpt>
      <trkpt lat="46.004815679043531" lon="5.922285486012697">
        <ele>586.79998779296875</ele>
        <time>2014-05-17T12:49:59Z</time>
      </trkpt>
      <trkpt lat="46.004775865003467" lon="5.922290934249759">
        <ele>587</ele>
        <time>2014-05-17T12:50:01Z</time>
      </trkpt>
      <trkpt lat="46.004698919132352" lon="5.922307362779975">
        <ele>587.79998779296875</ele>
        <time>2014-05-17T12:50:05Z</time>
      </trkpt>
      <trkpt lat="46.004641000181437" lon="5.922319684177637">
        <ele>588.4000244140625</ele>
        <time>2014-05-17T12:50:08Z</time>
      </trkpt>
      <trkpt lat="46.00460110232234" lon="5.92233301140368">
        <ele>589</ele>
        <time>2014-05-17T12:50:10Z</time>
      </trkpt>
      <trkpt lat="46.004510996863246" lon="5.922395456582308">
        <ele>589.5999755859375</ele>
        <time>2014-05-17T12:50:15Z</time>
      </trkpt>
      <trkpt lat="46.004484090954065" lon="5.922425463795662">
        <ele>590</ele>
        <time>2014-05-17T12:50:17Z</time>
      </trkpt>
      <trkpt lat="46.004400523379445" lon="5.922505762428045">
        <ele>590.79998779296875</ele>
        <time>2014-05-17T12:50:23Z</time>
      </trkpt>
      <trkpt lat="46.004385938867927" lon="5.922521268948913">
        <ele>591</ele>
        <time>2014-05-17T12:50:24Z</time>
      </trkpt>
      <trkpt lat="46.004325924441218" lon="5.922619756311178">
        <ele>592</ele>
        <time>2014-05-17T12:50:29Z</time>
      </trkpt>
      <trkpt lat="46.004277057945728" lon="5.922693265601993">
        <ele>592</ele>
        <time>2014-05-17T12:50:33Z</time>
      </trkpt>
      <trkpt lat="46.00423950701952" lon="5.922754034399986">
        <ele>593</ele>
        <time>2014-05-17T12:50:36Z</time>
      </trkpt>
      <trkpt lat="46.004217965528369" lon="5.92279770411551">
        <ele>593.5999755859375</ele>
        <time>2014-05-17T12:50:38Z</time>
      </trkpt>
      <trkpt lat="46.004144120961428" lon="5.922922594472766">
        <ele>594.20001220703125</ele>
        <time>2014-05-17T12:50:44Z</time>
      </trkpt>
      <trkpt lat="46.004120400175452" lon="5.922964084893465">
        <ele>594.5999755859375</ele>
        <time>2014-05-17T12:50:46Z</time>
      </trkpt>
      <trkpt lat="46.004091650247574" lon="5.923024266958237">
        <ele>595.4000244140625</ele>
        <time>2014-05-17T12:50:49Z</time>
      </trkpt>
      <trkpt lat="46.004036581143737" lon="5.923125771805644">
        <ele>596</ele>
        <time>2014-05-17T12:50:54Z</time>
      </trkpt>
      <trkpt lat="46.004009088501334" lon="5.923165753483772">
        <ele>596.5999755859375</ele>
        <time>2014-05-17T12:50:56Z</time>
      </trkpt>
      <trkpt lat="46.003973381593823" lon="5.923226187005639">
        <ele>597.20001220703125</ele>
        <time>2014-05-17T12:50:59Z</time>
      </trkpt>
      <trkpt lat="46.003961814567447" lon="5.923246806487441">
        <ele>597.20001220703125</ele>
        <time>2014-05-17T12:51:00Z</time>
      </trkpt>
      <trkpt lat="46.003933483734727" lon="5.923284944146872">
        <ele>597.79998779296875</ele>
        <time>2014-05-17T12:51:02Z</time>
      </trkpt>
      <trkpt lat="46.003876654431224" lon="5.923366751521826">
        <ele>598.20001220703125</ele>
        <time>2014-05-17T12:51:06Z</time>
      </trkpt>
      <trkpt lat="46.003846144303679" lon="5.92340748757124">
        <ele>598.79998779296875</ele>
        <time>2014-05-17T12:51:08Z</time>
      </trkpt>
      <trkpt lat="46.00378654897213" lon="5.923481415957212">
        <ele>599.5999755859375</ele>
        <time>2014-05-17T12:51:12Z</time>
      </trkpt>
      <trkpt lat="46.00375285372138" lon="5.92351796105504">
        <ele>599.79998779296875</ele>
        <time>2014-05-17T12:51:14Z</time>
      </trkpt>
      <trkpt lat="46.003736760467291" lon="5.92353455722332">
        <ele>599.79998779296875</ele>
        <time>2014-05-17T12:51:15Z</time>
      </trkpt>
      <trkpt lat="46.003658473491669" lon="5.923602199181914">
        <ele>600.4000244140625</ele>
        <time>2014-05-17T12:51:20Z</time>
      </trkpt>
      <trkpt lat="46.003590999171138" lon="5.923647796735168">
        <ele>600.79998779296875</ele>
        <time>2014-05-17T12:51:24Z</time>
      </trkpt>
      <trkpt lat="46.003533164039254" lon="5.923680318519473">
        <ele>601.5999755859375</ele>
        <time>2014-05-17T12:51:27Z</time>
      </trkpt>
      <trkpt lat="46.003475328907371" lon="5.923731112852693">
        <ele>601.79998779296875</ele>
        <time>2014-05-17T12:51:31Z</time>
      </trkpt>
      <trkpt lat="46.003421433269978" lon="5.923749972134829">
        <ele>602.20001220703125</ele>
        <time>2014-05-17T12:51:34Z</time>
      </trkpt>
      <trkpt lat="46.003365525975823" lon="5.923781991004944">
        <ele>602.79998779296875</ele>
        <time>2014-05-17T12:51:37Z</time>
      </trkpt>
      <trkpt lat="46.003285646438599" lon="5.923836473375559">
        <ele>603.5999755859375</ele>
        <time>2014-05-17T12:51:42Z</time>
      </trkpt>
      <trkpt lat="46.003247844055295" lon="5.923851812258363">
        <ele>604</ele>
        <time>2014-05-17T12:51:44Z</time>
      </trkpt>
      <trkpt lat="46.003112392500043" lon="5.923914257436991">
        <ele>604.4000244140625</ele>
        <time>2014-05-17T12:51:51Z</time>
      </trkpt>
      <trkpt lat="46.002939892932773" lon="5.924021378159523">
        <ele>605</ele>
        <time>2014-05-17T12:51:59Z</time>
      </trkpt>
      <trkpt lat="46.00291483104229" lon="5.924032777547836">
        <ele>605</ele>
        <time>2014-05-17T12:52:00Z</time>
      </trkpt>
      <trkpt lat="46.002800250425935" lon="5.92410528101027">
        <ele>606.20001220703125</ele>
        <time>2014-05-17T12:52:05Z</time>
      </trkpt>
      <trkpt lat="46.002702852711082" lon="5.924152135848999">
        <ele>606.5999755859375</ele>
        <time>2014-05-17T12:52:09Z</time>
      </trkpt>
      <trkpt lat="46.002633534371853" lon="5.924195973202586">
        <ele>607.20001220703125</ele>
        <time>2014-05-17T12:52:12Z</time>
      </trkpt>
      <trkpt lat="46.002511577680707" lon="5.92427434399724">
        <ele>608.4000244140625</ele>
        <time>2014-05-17T12:52:17Z</time>
      </trkpt>
      <trkpt lat="46.002485677599907" lon="5.924290521070361">
        <ele>608.5999755859375</ele>
        <time>2014-05-17T12:52:18Z</time>
      </trkpt>
      <trkpt lat="46.00235047750175" lon="5.924381967633963">
        <ele>609.5999755859375</ele>
        <time>2014-05-17T12:52:24Z</time>
      </trkpt>
      <trkpt lat="46.002258192747831" lon="5.924432929605246">
        <ele>610.20001220703125</ele>
        <time>2014-05-17T12:52:28Z</time>
      </trkpt>
      <trkpt lat="46.002212846651673" lon="5.924461763352156">
        <ele>610.5999755859375</ele>
        <time>2014-05-17T12:52:30Z</time>
      </trkpt>
      <trkpt lat="46.002107067033648" lon="5.924536362290382">
        <ele>611.4000244140625</ele>
        <time>2014-05-17T12:52:35Z</time>
      </trkpt>
      <trkpt lat="46.002059876918793" lon="5.924555389210582">
        <ele>611.5999755859375</ele>
        <time>2014-05-17T12:52:37Z</time>
      </trkpt>
      <trkpt lat="46.001976560801268" lon="5.924609703943133">
        <ele>612.4000244140625</ele>
        <time>2014-05-17T12:52:41Z</time>
      </trkpt>
      <trkpt lat="46.001896429806948" lon="5.924654128029943">
        <ele>612.79998779296875</ele>
        <time>2014-05-17T12:52:45Z</time>
      </trkpt>
      <trkpt lat="46.001801295205951" lon="5.924717579036951">
        <ele>613.5999755859375</ele>
        <time>2014-05-17T12:52:50Z</time>
      </trkpt>
      <trkpt lat="46.001782603561878" lon="5.924731409177184">
        <ele>613.79998779296875</ele>
        <time>2014-05-17T12:52:51Z</time>
      </trkpt>
      <trkpt lat="46.001693587750196" lon="5.92481036670506">
        <ele>614.5999755859375</ele>
        <time>2014-05-17T12:52:56Z</time>
      </trkpt>
      <trkpt lat="46.00167715921998" lon="5.924829058349133">
        <ele>614.79998779296875</ele>
        <time>2014-05-17T12:52:57Z</time>
      </trkpt>
      <trkpt lat="46.001626700162888" lon="5.924882451072335">
        <ele>615.79998779296875</ele>
        <time>2014-05-17T12:53:00Z</time>
      </trkpt>
      <trkpt lat="46.001585964113474" lon="5.924942968413234">
        <ele>616.20001220703125</ele>
        <time>2014-05-17T12:53:03Z</time>
      </trkpt>
      <trkpt lat="46.001533409580588" lon="5.925030978396535">
        <ele>616.79998779296875</ele>
        <time>2014-05-17T12:53:07Z</time>
      </trkpt>
      <trkpt lat="46.001509688794613" lon="5.925073307007551">
        <ele>617</ele>
        <time>2014-05-17T12:53:09Z</time>
      </trkpt>
      <trkpt lat="46.001426205039024" lon="5.925237843766809">
        <ele>618</ele>
        <time>2014-05-17T12:53:17Z</time>
      </trkpt>
      <trkpt lat="46.0013756621629" lon="5.925326021388173">
        <ele>618.79998779296875</ele>
        <time>2014-05-17T12:53:21Z</time>
      </trkpt>
      <trkpt lat="46.00136149674654" lon="5.9253488201648">
        <ele>619.20001220703125</ele>
        <time>2014-05-17T12:53:22Z</time>
      </trkpt>
      <trkpt lat="46.001242473721504" lon="5.92554135248065">
        <ele>620.4000244140625</ele>
        <time>2014-05-17T12:53:30Z</time>
      </trkpt>
      <trkpt lat="46.001146752387285" lon="5.925614191219211">
        <ele>621.5999755859375</ele>
        <time>2014-05-17T12:53:35Z</time>
      </trkpt>
      <trkpt lat="46.001085061579943" lon="5.925651490688324">
        <ele>622.20001220703125</ele>
        <time>2014-05-17T12:53:38Z</time>
      </trkpt>
      <trkpt lat="46.001041643321514" lon="5.925667835399509">
        <ele>622.79998779296875</ele>
        <time>2014-05-17T12:53:40Z</time>
      </trkpt>
      <trkpt lat="46.000948855653405" lon="5.925685856491327">
        <ele>623.5999755859375</ele>
        <time>2014-05-17T12:53:45Z</time>
      </trkpt>
      <trkpt lat="46.000929828733206" lon="5.925692142918706">
        <ele>624</ele>
        <time>2014-05-17T12:53:46Z</time>
      </trkpt>
      <trkpt lat="46.000848356634378" lon="5.925716953352094">
        <ele>625.20001220703125</ele>
        <time>2014-05-17T12:53:50Z</time>
      </trkpt>
      <trkpt lat="46.000828742980957" lon="5.92571921646595">
        <ele>625.4000244140625</ele>
        <time>2014-05-17T12:53:51Z</time>
      </trkpt>
      <trkpt lat="46.000699158757925" lon="5.925745284184814">
        <ele>626.20001220703125</ele>
        <time>2014-05-17T12:53:58Z</time>
      </trkpt>
      <trkpt lat="46.000662529841065" lon="5.925758359953761">
        <ele>626.5999755859375</ele>
        <time>2014-05-17T12:54:00Z</time>
      </trkpt>
      <trkpt lat="46.000587344169617" lon="5.92579054646194">
        <ele>627.20001220703125</ele>
        <time>2014-05-17T12:54:04Z</time>
      </trkpt>
      <trkpt lat="46.000528000295162" lon="5.92581300996244">
        <ele>627.79998779296875</ele>
        <time>2014-05-17T12:54:07Z</time>
      </trkpt>
      <trkpt lat="46.000470919534564" lon="5.925845447927713">
        <ele>628.4000244140625</ele>
        <time>2014-05-17T12:54:10Z</time>
      </trkpt>
      <trkpt lat="46.000376120209694" lon="5.925909820944071">
        <ele>629.4000244140625</ele>
        <time>2014-05-17T12:54:15Z</time>
      </trkpt>
      <trkpt lat="46.000322392210364" lon="5.925936475396156">
        <ele>630</ele>
        <time>2014-05-17T12:54:18Z</time>
      </trkpt>
      <trkpt lat="46.000263299793005" lon="5.925966734066606">
        <ele>630.4000244140625</ele>
        <time>2014-05-17T12:54:21Z</time>
      </trkpt>
      <trkpt lat="46.000164560973644" lon="5.926000848412514">
        <ele>631.20001220703125</ele>
        <time>2014-05-17T12:54:26Z</time>
      </trkpt>
      <trkpt lat="46.000123824924231" lon="5.926009733229876">
        <ele>631.5999755859375</ele>
        <time>2014-05-17T12:54:28Z</time>
      </trkpt>
      <trkpt lat="46.000009663403034" lon="5.925995903089643">
        <ele>632.79998779296875</ele>
        <time>2014-05-17T12:54:34Z</time>
      </trkpt>
      <trkpt lat="45.999933052808046" lon="5.925935721024871">
        <ele>633.79998779296875</ele>
        <time>2014-05-17T12:54:39Z</time>
      </trkpt>
      <trkpt lat="45.99990732036531" lon="5.925901774317026">
        <ele>634</ele>
        <time>2014-05-17T12:54:41Z</time>
      </trkpt>
      <trkpt lat="45.99986138753593" lon="5.925779482349753">
        <ele>634.79998779296875</ele>
        <time>2014-05-17T12:54:46Z</time>
      </trkpt>
      <trkpt lat="45.99984772503376" lon="5.925703039392829">
        <ele>635.20001220703125</ele>
        <time>2014-05-17T12:54:49Z</time>
      </trkpt>
      <trkpt lat="45.999814113602042" lon="5.925592482089996">
        <ele>635.79998779296875</ele>
        <time>2014-05-17T12:54:53Z</time>
      </trkpt>
      <trkpt lat="45.999796260148287" lon="5.925531461834908">
        <ele>636.20001220703125</ele>
        <time>2014-05-17T12:54:55Z</time>
      </trkpt>
      <trkpt lat="45.999764408916235" lon="5.925381425768137">
        <ele>637</ele>
        <time>2014-05-17T12:55:01Z</time>
      </trkpt>
      <trkpt lat="45.999760217964649" lon="5.925355525687337">
        <ele>637.20001220703125</ele>
        <time>2014-05-17T12:55:02Z</time>
      </trkpt>
      <trkpt lat="45.999726187437773" lon="5.92522032558918">
        <ele>638.20001220703125</ele>
        <time>2014-05-17T12:55:07Z</time>
      </trkpt>
      <trkpt lat="45.999723924323916" lon="5.925194341689348">
        <ele>638.4000244140625</ele>
        <time>2014-05-17T12:55:08Z</time>
      </trkpt>
      <trkpt lat="45.999710764735937" lon="5.925072301179171">
        <ele>639.20001220703125</ele>
        <time>2014-05-17T12:55:13Z</time>
      </trkpt>
      <trkpt lat="45.999701963737607" lon="5.925026955083013">
        <ele>639.5999755859375</ele>
        <time>2014-05-17T12:55:15Z</time>
      </trkpt>
      <trkpt lat="45.99967866204679" lon="5.924904830753803">
        <ele>640.4000244140625</ele>
        <time>2014-05-17T12:55:20Z</time>
      </trkpt>
      <trkpt lat="45.999678745865822" lon="5.924856550991535">
        <ele>640.5999755859375</ele>
        <time>2014-05-17T12:55:22Z</time>
      </trkpt>
      <trkpt lat="45.999660473316908" lon="5.924733923748136">
        <ele>641.4000244140625</ele>
        <time>2014-05-17T12:55:27Z</time>
      </trkpt>
      <trkpt lat="45.999652091413736" lon="5.92465253546834">
        <ele>641.5999755859375</ele>
        <time>2014-05-17T12:55:30Z</time>
      </trkpt>
      <trkpt lat="45.99963515996933" lon="5.924522867426276">
        <ele>642.20001220703125</ele>
        <time>2014-05-17T12:55:35Z</time>
      </trkpt>
      <trkpt lat="45.999627951532602" lon="5.924500823020935">
        <ele>642.5999755859375</ele>
        <time>2014-05-17T12:55:36Z</time>
      </trkpt>
      <trkpt lat="45.999616803601384" lon="5.924428151920438">
        <ele>643.5999755859375</ele>
        <time>2014-05-17T12:55:39Z</time>
      </trkpt>
      <trkpt lat="45.99960632622242" lon="5.924352379515767">
        <ele>644.5999755859375</ele>
        <time>2014-05-17T12:55:42Z</time>
      </trkpt>
      <trkpt lat="45.999600877985358" lon="5.924326814711094">
        <ele>645</ele>
        <time>2014-05-17T12:55:43Z</time>
      </trkpt>
      <trkpt lat="45.999582605436444" lon="5.924257831647992">
        <ele>646</ele>
        <time>2014-05-17T12:55:46Z</time>
      </trkpt>
      <trkpt lat="45.9995261952281" lon="5.92411307618022">
        <ele>646.20001220703125</ele>
        <time>2014-05-17T12:55:52Z</time>
      </trkpt>
      <trkpt lat="45.999444723129272" lon="5.9239811450243">
        <ele>646.5999755859375</ele>
        <time>2014-05-17T12:55:59Z</time>
      </trkpt>
      <trkpt lat="45.999406166374683" lon="5.923929512500763">
        <ele>647</ele>
        <time>2014-05-17T12:56:02Z</time>
      </trkpt>
      <trkpt lat="45.999356461688876" lon="5.923879388719797">
        <ele>648.20001220703125</ele>
        <time>2014-05-17T12:56:05Z</time>
      </trkpt>
      <trkpt lat="45.999340703710914" lon="5.923861619085074">
        <ele>648.4000244140625</ele>
        <time>2014-05-17T12:56:06Z</time>
      </trkpt>
      <trkpt lat="45.999275492504239" lon="5.923811327666044">
        <ele>649.20001220703125</ele>
        <time>2014-05-17T12:56:10Z</time>
      </trkpt>
      <trkpt lat="45.999220255762339" lon="5.923767657950521">
        <ele>649.5999755859375</ele>
        <time>2014-05-17T12:56:13Z</time>
      </trkpt>
      <trkpt lat="45.999095449224114" lon="5.923687107861042">
        <ele>650.4000244140625</ele>
        <time>2014-05-17T12:56:20Z</time>
      </trkpt>
      <trkpt lat="45.999015318229795" lon="5.923666404560208">
        <ele>651.4000244140625</ele>
        <time>2014-05-17T12:56:24Z</time>
      </trkpt>
      <trkpt lat="45.998935773968697" lon="5.923653831705451">
        <ele>652.20001220703125</ele>
        <time>2014-05-17T12:56:28Z</time>
      </trkpt>
      <trkpt lat="45.99889880977571" lon="5.923655424267054">
        <ele>652.4000244140625</ele>
        <time>2014-05-17T12:56:30Z</time>
      </trkpt>
      <trkpt lat="45.998801495879889" lon="5.923675205558538">
        <ele>653.20001220703125</ele>
        <time>2014-05-17T12:56:35Z</time>
      </trkpt>
      <trkpt lat="45.998678868636489" lon="5.923695489764214">
        <ele>653.5999755859375</ele>
        <time>2014-05-17T12:56:41Z</time>
      </trkpt>
      <trkpt lat="45.998601587489247" lon="5.923709152266383">
        <ele>654</ele>
        <time>2014-05-17T12:56:45Z</time>
      </trkpt>
      <trkpt lat="45.998503603041172" lon="5.923719126731157">
        <ele>654.5999755859375</ele>
        <time>2014-05-17T12:56:50Z</time>
      </trkpt>
      <trkpt lat="45.998464124277234" lon="5.923719294369221">
        <ele>654.79998779296875</ele>
        <time>2014-05-17T12:56:52Z</time>
      </trkpt>
      <trkpt lat="45.998342921957374" lon="5.923709068447352">
        <ele>656</ele>
        <time>2014-05-17T12:56:58Z</time>
      </trkpt>
      <trkpt lat="45.998307131230831" lon="5.923701776191592">
        <ele>656.20001220703125</ele>
        <time>2014-05-17T12:57:00Z</time>
      </trkpt>
      <trkpt lat="45.99823328666389" lon="5.923678809776902">
        <ele>657</ele>
        <time>2014-05-17T12:57:04Z</time>
      </trkpt>
      <trkpt lat="45.99817905575037" lon="5.92366305179894">
        <ele>657.4000244140625</ele>
        <time>2014-05-17T12:57:07Z</time>
      </trkpt>
      <trkpt lat="45.998055841773748" lon="5.923600858077407">
        <ele>658</ele>
        <time>2014-05-17T12:57:14Z</time>
      </trkpt>
      <trkpt lat="45.998036982491612" lon="5.923595996573567">
        <ele>658.20001220703125</ele>
        <time>2014-05-17T12:57:15Z</time>
      </trkpt>
      <trkpt lat="45.997940674424171" lon="5.923547213897109">
        <ele>659</ele>
        <time>2014-05-17T12:57:20Z</time>
      </trkpt>
      <trkpt lat="45.99790588952601" lon="5.923520475625992">
        <ele>659.4000244140625</ele>
        <time>2014-05-17T12:57:22Z</time>
      </trkpt>
      <trkpt lat="45.997806815430522" lon="5.923461047932506">
        <ele>660.20001220703125</ele>
        <time>2014-05-17T12:57:27Z</time>
      </trkpt>
      <trkpt lat="45.997771946713328" lon="5.923436740413308">
        <ele>660.5999755859375</ele>
        <time>2014-05-17T12:57:29Z</time>
      </trkpt>
      <trkpt lat="45.997690726071596" lon="5.923373037949204">
        <ele>661.20001220703125</ele>
        <time>2014-05-17T12:57:34Z</time>
      </trkpt>
      <trkpt lat="45.997659210115671" lon="5.923342695459724">
        <ele>661.5999755859375</ele>
        <time>2014-05-17T12:57:36Z</time>
      </trkpt>
      <trkpt lat="45.997567092999816" lon="5.923279998824">
        <ele>662.4000244140625</ele>
        <time>2014-05-17T12:57:41Z</time>
      </trkpt>
      <trkpt lat="45.997549491003156" lon="5.923268599435687">
        <ele>662.79998779296875</ele>
        <time>2014-05-17T12:57:42Z</time>
      </trkpt>
      <trkpt lat="45.997478580102324" lon="5.923208920285106">
        <ele>664</ele>
        <time>2014-05-17T12:57:46Z</time>
      </trkpt>
      <trkpt lat="45.997420242056251" lon="5.923170447349548">
        <ele>664.79998779296875</ele>
        <time>2014-05-17T12:57:49Z</time>
      </trkpt>
      <trkpt lat="45.997368777170777" lon="5.923126274719834">
        <ele>665</ele>
        <time>2014-05-17T12:57:52Z</time>
      </trkpt>
      <trkpt lat="45.997260315343738" lon="5.923045808449388">
        <ele>666.20001220703125</ele>
        <time>2014-05-17T12:57:58Z</time>
      </trkpt>
      <trkpt lat="45.997242797166109" lon="5.923032145947218">
        <ele>666.5999755859375</ele>
        <time>2014-05-17T12:57:59Z</time>
      </trkpt>
      <trkpt lat="45.997208096086979" lon="5.923002641648054">
        <ele>666.79998779296875</ele>
        <time>2014-05-17T12:58:01Z</time>
      </trkpt>
      <trkpt lat="45.997121594846249" lon="5.922923013567925">
        <ele>667.4000244140625</ele>
        <time>2014-05-17T12:58:06Z</time>
      </trkpt>
      <trkpt lat="45.996992094442248" lon="5.922838356345892">
        <ele>668.4000244140625</ele>
        <time>2014-05-17T12:58:13Z</time>
      </trkpt>
      <trkpt lat="45.996973821893334" lon="5.92282553203404">
        <ele>668.5999755859375</ele>
        <time>2014-05-17T12:58:14Z</time>
      </trkpt>
      <trkpt lat="45.996876424178481" lon="5.92276057228446">
        <ele>669.5999755859375</ele>
        <time>2014-05-17T12:58:19Z</time>
      </trkpt>
      <trkpt lat="45.996830323711038" lon="5.922738276422024">
        <ele>669.79998779296875</ele>
        <time>2014-05-17T12:58:21Z</time>
      </trkpt>
      <trkpt lat="45.99669118411839" lon="5.922637609764934">
        <ele>670.5999755859375</ele>
        <time>2014-05-17T12:58:27Z</time>
      </trkpt>
      <trkpt lat="45.996638713404536" lon="5.922613721340895">
        <ele>671</ele>
        <time>2014-05-17T12:58:29Z</time>
      </trkpt>
      <trkpt lat="45.996451294049621" lon="5.922504672780633">
        <ele>671.5999755859375</ele>
        <time>2014-05-17T12:58:36Z</time>
      </trkpt>
      <trkpt lat="45.996421203017235" lon="5.922486316412687">
        <ele>671.79998779296875</ele>
        <time>2014-05-17T12:58:37Z</time>
      </trkpt>
      <trkpt lat="45.996156418696046" lon="5.922343404963613">
        <ele>672.4000244140625</ele>
        <time>2014-05-17T12:58:45Z</time>
      </trkpt>
      <trkpt lat="45.99597729742527" lon="5.92222111299634">
        <ele>672.5999755859375</ele>
        <time>2014-05-17T12:58:50Z</time>
      </trkpt>
      <trkpt lat="45.995892891660333" lon="5.922169899567962">
        <ele>672.79998779296875</ele>
        <time>2014-05-17T12:58:52Z</time>
      </trkpt>
      <trkpt lat="45.995565997436643" lon="5.921968733891845">
        <ele>673.4000244140625</ele>
        <time>2014-05-17T12:58:59Z</time>
      </trkpt>
      <trkpt lat="45.99545887671411" lon="5.921914670616388">
        <ele>673.5999755859375</ele>
        <time>2014-05-17T12:59:01Z</time>
      </trkpt>
      <trkpt lat="45.995145225897431" lon="5.92172909528017">
        <ele>674</ele>
        <time>2014-05-17T12:59:07Z</time>
      </trkpt>
      <trkpt lat="45.994950011372566" lon="5.921613341197372">
        <ele>674.79998779296875</ele>
        <time>2014-05-17T12:59:11Z</time>
      </trkpt>
      <trkpt lat="45.994809027761221" lon="5.921534216031432">
        <ele>675.4000244140625</ele>
        <time>2014-05-17T12:59:14Z</time>
      </trkpt>
      <trkpt lat="45.994693860411644" lon="5.921457353979349">
        <ele>676</ele>
        <time>2014-05-17T12:59:17Z</time>
      </trkpt>
      <trkpt lat="45.994581542909145" lon="5.921388035640121">
        <ele>676.5999755859375</ele>
        <time>2014-05-17T12:59:20Z</time>
      </trkpt>
      <trkpt lat="45.994505770504475" lon="5.921347551047802">
        <ele>677.4000244140625</ele>
        <time>2014-05-17T12:59:22Z</time>
      </trkpt>
      <trkpt lat="45.994368139654398" lon="5.921264067292213">
        <ele>678.5999755859375</ele>
        <time>2014-05-17T12:59:26Z</time>
      </trkpt>
      <trkpt lat="45.994306867942214" lon="5.92122383415699">
        <ele>678.79998779296875</ele>
        <time>2014-05-17T12:59:28Z</time>
      </trkpt>
      <trkpt lat="45.994180552661419" lon="5.921153677627444">
        <ele>679.79998779296875</ele>
        <time>2014-05-17T12:59:32Z</time>
      </trkpt>
      <trkpt lat="45.994089357554913" lon="5.921092825010419">
        <ele>680</ele>
        <time>2014-05-17T12:59:35Z</time>
      </trkpt>
      <trkpt lat="45.993895316496491" lon="5.920967683196068">
        <ele>680.79998779296875</ele>
        <time>2014-05-17T12:59:42Z</time>
      </trkpt>
      <trkpt lat="45.99384100176394" lon="5.920932730659843">
        <ele>681.20001220703125</ele>
        <time>2014-05-17T12:59:44Z</time>
      </trkpt>
      <trkpt lat="45.993734719231725" lon="5.920864166691899">
        <ele>681.79998779296875</ele>
        <time>2014-05-17T12:59:48Z</time>
      </trkpt>
      <trkpt lat="45.993666741997004" lon="5.920804822817445">
        <ele>682.4000244140625</ele>
        <time>2014-05-17T12:59:51Z</time>
      </trkpt>
      <trkpt lat="45.993549395352602" lon="5.92075863853097">
        <ele>683</ele>
        <time>2014-05-17T13:01:12Z</time>
      </trkpt>
      <trkpt lat="45.993483429774642" lon="5.920740701258183">
        <ele>683.20001220703125</ele>
        <time>2014-05-17T13:01:15Z</time>
      </trkpt>
      <trkpt lat="45.993376644328237" lon="5.920686637982726">
        <ele>683.4000244140625</ele>
        <time>2014-05-17T13:01:19Z</time>
      </trkpt>
      <trkpt lat="45.993297602981329" lon="5.920637100934982">
        <ele>684.20001220703125</ele>
        <time>2014-05-17T13:01:22Z</time>
      </trkpt>
      <trkpt lat="45.993212359026074" lon="5.920588066801429">
        <ele>684.79998779296875</ele>
        <time>2014-05-17T13:01:25Z</time>
      </trkpt>
      <trkpt lat="45.993073303252459" lon="5.920503074303269">
        <ele>685.20001220703125</ele>
        <time>2014-05-17T13:01:30Z</time>
      </trkpt>
      <trkpt lat="45.992983365431428" lon="5.920448424294591">
        <ele>685.5999755859375</ele>
        <time>2014-05-17T13:01:33Z</time>
      </trkpt>
      <trkpt lat="45.992787145078182" lon="5.920336106792092">
        <ele>686.4000244140625</ele>
        <time>2014-05-17T13:01:40Z</time>
      </trkpt>
      <trkpt lat="45.992634845897555" lon="5.9202148206532">
        <ele>687.4000244140625</ele>
        <time>2014-05-17T13:01:46Z</time>
      </trkpt>
      <trkpt lat="45.9925876557827" lon="5.920174419879913">
        <ele>687.5999755859375</ele>
        <time>2014-05-17T13:01:48Z</time>
      </trkpt>
      <trkpt lat="45.992320943623781" lon="5.920010050758719">
        <ele>688.4000244140625</ele>
        <time>2014-05-17T13:01:58Z</time>
      </trkpt>
      <trkpt lat="45.992291187867522" lon="5.91999446041882">
        <ele>688.5999755859375</ele>
        <time>2014-05-17T13:01:59Z</time>
      </trkpt>
      <trkpt lat="45.992063451558352" lon="5.919870072975755">
        <ele>689.5999755859375</ele>
        <time>2014-05-17T13:02:07Z</time>
      </trkpt>
      <trkpt lat="45.992007628083229" lon="5.919839479029179">
        <ele>689.79998779296875</ele>
        <time>2014-05-17T13:02:09Z</time>
      </trkpt>
      <trkpt lat="45.991871422156692" lon="5.919761192053556">
        <ele>690.5999755859375</ele>
        <time>2014-05-17T13:02:14Z</time>
      </trkpt>
      <trkpt lat="45.991732785478234" lon="5.919678211212158">
        <ele>691.5999755859375</ele>
        <time>2014-05-17T13:02:19Z</time>
      </trkpt>
      <trkpt lat="45.991704538464546" lon="5.919657340273261">
        <ele>691.79998779296875</ele>
        <time>2014-05-17T13:02:20Z</time>
      </trkpt>
      <trkpt lat="45.991577133536339" lon="5.919590536504984">
        <ele>692.79998779296875</ele>
        <time>2014-05-17T13:02:25Z</time>
      </trkpt>
      <trkpt lat="45.991525752469897" lon="5.919560948386788">
        <ele>693</ele>
        <time>2014-05-17T13:02:27Z</time>
      </trkpt>
      <trkpt lat="45.99137781187892" lon="5.919472938403487">
        <ele>693.79998779296875</ele>
        <time>2014-05-17T13:02:33Z</time>
      </trkpt>
      <trkpt lat="45.991329867392778" lon="5.919443098828197">
        <ele>694.4000244140625</ele>
        <time>2014-05-17T13:02:35Z</time>
      </trkpt>
      <trkpt lat="45.99128108471632" lon="5.919413594529033">
        <ele>695</ele>
        <time>2014-05-17T13:02:37Z</time>
      </trkpt>
      <trkpt lat="45.991155859082937" lon="5.919352322816849">
        <ele>695.79998779296875</ele>
        <time>2014-05-17T13:02:42Z</time>
      </trkpt>
      <trkpt lat="45.991109339520335" lon="5.919319298118353">
        <ele>696</ele>
        <time>2014-05-17T13:02:44Z</time>
      </trkpt>
      <trkpt lat="45.990933822467923" lon="5.91919013299048">
        <ele>696.79998779296875</ele>
        <time>2014-05-17T13:02:51Z</time>
      </trkpt>
      <trkpt lat="45.990889901295304" lon="5.919139254838228">
        <ele>697</ele>
        <time>2014-05-17T13:02:53Z</time>
      </trkpt>
      <trkpt lat="45.990762915462255" lon="5.91900447383523">
        <ele>697.79998779296875</ele>
        <time>2014-05-17T13:02:59Z</time>
      </trkpt>
      <trkpt lat="45.990737602114677" lon="5.918975723907352">
        <ele>698.20001220703125</ele>
        <time>2014-05-17T13:03:00Z</time>
      </trkpt>
      <trkpt lat="45.990618914365768" lon="5.918764416128397">
        <ele>698.79998779296875</ele>
        <time>2014-05-17T13:03:06Z</time>
      </trkpt>
      <trkpt lat="45.990548171103001" lon="5.918601807206869">
        <ele>699.20001220703125</ele>
        <time>2014-05-17T13:03:10Z</time>
      </trkpt>
      <trkpt lat="45.99049050360918" lon="5.918471300974488">
        <ele>699.20001220703125</ele>
        <time>2014-05-17T13:03:13Z</time>
      </trkpt>
      <trkpt lat="45.990385478362441" lon="5.918175922706723">
        <ele>700</ele>
        <time>2014-05-17T13:03:19Z</time>
      </trkpt>
      <trkpt lat="45.990348597988486" lon="5.918068550527096">
        <ele>700.20001220703125</ele>
        <time>2014-05-17T13:03:21Z</time>
      </trkpt>
      <trkpt lat="45.990280956029892" lon="5.917910803109407">
        <ele>701.4000244140625</ele>
        <time>2014-05-17T13:03:24Z</time>
      </trkpt>
      <trkpt lat="45.990207530558109" lon="5.917706871405244">
        <ele>701.4000244140625</ele>
        <time>2014-05-17T13:03:28Z</time>
      </trkpt>
      <trkpt lat="45.990088591352105" lon="5.917421383783221">
        <ele>702.5999755859375</ele>
        <time>2014-05-17T13:03:34Z</time>
      </trkpt>
      <trkpt lat="45.990043915808201" lon="5.917340833693743">
        <ele>703.20001220703125</ele>
        <time>2014-05-17T13:03:36Z</time>
      </trkpt>
      <trkpt lat="45.990004269406199" lon="5.917263636365533">
        <ele>703.5999755859375</ele>
        <time>2014-05-17T13:03:38Z</time>
      </trkpt>
      <trkpt lat="45.989906955510378" lon="5.91710421256721">
        <ele>704.79998779296875</ele>
        <time>2014-05-17T13:03:43Z</time>
      </trkpt>
      <trkpt lat="45.989804696291685" lon="5.916962558403611">
        <ele>705.79998779296875</ele>
        <time>2014-05-17T13:03:48Z</time>
      </trkpt>
      <trkpt lat="45.989762116223574" lon="5.916906734928489">
        <ele>706.5999755859375</ele>
        <time>2014-05-17T13:03:50Z</time>
      </trkpt>
      <trkpt lat="45.989743424579501" lon="5.916877146810293">
        <ele>706.79998779296875</ele>
        <time>2014-05-17T13:03:51Z</time>
      </trkpt>
      <trkpt lat="45.989654241129756" lon="5.916772624477744">
        <ele>708</ele>
        <time>2014-05-17T13:03:55Z</time>
      </trkpt>
      <trkpt lat="45.989560531452298" lon="5.916684279218316">
        <ele>708.79998779296875</ele>
        <time>2014-05-17T13:03:59Z</time>
      </trkpt>
      <trkpt lat="45.989477634429932" lon="5.916609931737185">
        <ele>709</ele>
        <time>2014-05-17T13:04:02Z</time>
      </trkpt>
      <trkpt lat="45.989445196464658" lon="5.916596269235015">
        <ele>709</ele>
        <time>2014-05-17T13:04:03Z</time>
      </trkpt>
      <trkpt lat="45.989186530932784" lon="5.91651882044971">
        <ele>708.5999755859375</ele>
        <time>2014-05-17T13:04:09Z</time>
      </trkpt>
      <trkpt lat="45.989065999165177" lon="5.916524603962898">
        <ele>708</ele>
        <time>2014-05-17T13:04:11Z</time>
      </trkpt>
      <trkpt lat="45.988795682787895" lon="5.916548995301127">
        <ele>707.20001220703125</ele>
        <time>2014-05-17T13:04:15Z</time>
      </trkpt>
      <trkpt lat="45.988725693896413" lon="5.916556874290109">
        <ele>706.79998779296875</ele>
        <time>2014-05-17T13:04:16Z</time>
      </trkpt>
      <trkpt lat="45.988352028653026" lon="5.916579589247704">
        <ele>706.5999755859375</ele>
        <time>2014-05-17T13:04:21Z</time>
      </trkpt>
      <trkpt lat="45.987967383116484" lon="5.916605908423662">
        <ele>705.4000244140625</ele>
        <time>2014-05-17T13:04:26Z</time>
      </trkpt>
      <trkpt lat="45.987659515812993" lon="5.916610434651375">
        <ele>705.20001220703125</ele>
        <time>2014-05-17T13:04:30Z</time>
      </trkpt>
      <trkpt lat="45.987503444775939" lon="5.916587384417653">
        <ele>704.20001220703125</ele>
        <time>2014-05-17T13:04:32Z</time>
      </trkpt>
      <trkpt lat="45.987276379019022" lon="5.916505912318826">
        <ele>704.5999755859375</ele>
        <time>2014-05-17T13:04:35Z</time>
      </trkpt>
      <trkpt lat="45.986760808154941" lon="5.916275661438704">
        <ele>704.79998779296875</ele>
        <time>2014-05-17T13:04:42Z</time>
      </trkpt>
      <trkpt lat="45.986689897254109" lon="5.916241798549891">
        <ele>704.79998779296875</ele>
        <time>2014-05-17T13:04:43Z</time>
      </trkpt>
      <trkpt lat="45.986281195655465" lon="5.916061252355576">
        <ele>705.4000244140625</ele>
        <time>2014-05-17T13:04:49Z</time>
      </trkpt>
      <trkpt lat="45.986093021929264" lon="5.915973074734211">
        <ele>705.5999755859375</ele>
        <time>2014-05-17T13:04:52Z</time>
      </trkpt>
      <trkpt lat="45.985806528478861" lon="5.915824212133884">
        <ele>706.5999755859375</ele>
        <time>2014-05-17T13:04:57Z</time>
      </trkpt>
      <trkpt lat="45.985704101622105" lon="5.915778363123536">
        <ele>707.20001220703125</ele>
        <time>2014-05-17T13:04:59Z</time>
      </trkpt>
      <trkpt lat="45.985655570402741" lon="5.915755312889814">
        <ele>707.79998779296875</ele>
        <time>2014-05-17T13:05:00Z</time>
      </trkpt>
      <trkpt lat="45.985518107190728" lon="5.915683647617698">
        <ele>708.79998779296875</ele>
        <time>2014-05-17T13:05:03Z</time>
      </trkpt>
      <trkpt lat="45.985332950949669" lon="5.915592787787318">
        <ele>709.4000244140625</ele>
        <time>2014-05-17T13:05:07Z</time>
      </trkpt>
      <trkpt lat="45.985212083905935" lon="5.915515422821045">
        <ele>710</ele>
        <time>2014-05-17T13:05:10Z</time>
      </trkpt>
      <trkpt lat="45.985132455825806" lon="5.91546923853457">
        <ele>710.20001220703125</ele>
        <time>2014-05-17T13:05:12Z</time>
      </trkpt>
      <trkpt lat="45.984856020659208" lon="5.915338648483157">
        <ele>711</ele>
        <time>2014-05-17T13:05:19Z</time>
      </trkpt>
      <trkpt lat="45.984649658203125" lon="5.915221134200692">
        <ele>712.20001220703125</ele>
        <time>2014-05-17T13:05:25Z</time>
      </trkpt>
      <trkpt lat="45.984611604362726" lon="5.915203196927905">
        <ele>712.20001220703125</ele>
        <time>2014-05-17T13:05:26Z</time>
      </trkpt>
      <trkpt lat="45.984311113134027" lon="5.915060034021735">
        <ele>713.20001220703125</ele>
        <time>2014-05-17T13:05:34Z</time>
      </trkpt>
      <trkpt lat="45.983969382941723" lon="5.914885522797704">
        <ele>714</ele>
        <time>2014-05-17T13:05:43Z</time>
      </trkpt>
      <trkpt lat="45.98392772488296" lon="5.914867501705885">
        <ele>714.4000244140625</ele>
        <time>2014-05-17T13:05:44Z</time>
      </trkpt>
      <trkpt lat="45.983647853136063" lon="5.914737330749631">
        <ele>715.4000244140625</ele>
        <time>2014-05-17T13:05:51Z</time>
      </trkpt>
      <trkpt lat="45.9836061950773" lon="5.914724674075842">
        <ele>715.4000244140625</ele>
        <time>2014-05-17T13:05:52Z</time>
      </trkpt>
      <trkpt lat="45.983287431299686" lon="5.914583522826433">
        <ele>716.20001220703125</ele>
        <time>2014-05-17T13:06:00Z</time>
      </trkpt>
      <trkpt lat="45.983201013877988" lon="5.914548486471176">
        <ele>716.5999755859375</ele>
        <time>2014-05-17T13:06:02Z</time>
      </trkpt>
      <trkpt lat="45.982956346124411" lon="5.914457039907575">
        <ele>716.4000244140625</ele>
        <time>2014-05-17T13:06:07Z</time>
      </trkpt>
      <trkpt lat="45.982520822435617" lon="5.914216646924615">
        <ele>715.79998779296875</ele>
        <time>2014-05-17T13:06:15Z</time>
      </trkpt>
      <trkpt lat="45.982363158836961" lon="5.914095528423786">
        <ele>715.4000244140625</ele>
        <time>2014-05-17T13:06:18Z</time>
      </trkpt>
      <trkpt lat="45.982215888798237" lon="5.913965357467532">
        <ele>715.5999755859375</ele>
        <time>2014-05-17T13:06:21Z</time>
      </trkpt>
      <trkpt lat="45.981997372582555" lon="5.913785398006439">
        <ele>716.4000244140625</ele>
        <time>2014-05-17T13:06:26Z</time>
      </trkpt>
      <trkpt lat="45.981913805007935" lon="5.913734268397093">
        <ele>716.5999755859375</ele>
        <time>2014-05-17T13:06:28Z</time>
      </trkpt>
      <trkpt lat="45.981869716197252" lon="5.913715995848179">
        <ele>716.79998779296875</ele>
        <time>2014-05-17T13:06:29Z</time>
      </trkpt>
      <trkpt lat="45.981705682352185" lon="5.913687832653523">
        <ele>717.5999755859375</ele>
        <time>2014-05-17T13:06:33Z</time>
      </trkpt>
      <trkpt lat="45.981523040682077" lon="5.913799814879894">
        <ele>718.5999755859375</ele>
        <time>2014-05-17T13:06:38Z</time>
      </trkpt>
      <trkpt lat="45.981491776183248" lon="5.913832588121295">
        <ele>718.5999755859375</ele>
        <time>2014-05-17T13:06:39Z</time>
      </trkpt>
      <trkpt lat="45.981393707916141" lon="5.914017492905259">
        <ele>718.20001220703125</ele>
        <time>2014-05-17T13:06:44Z</time>
      </trkpt>
      <trkpt lat="45.981310307979584" lon="5.914254952222109">
        <ele>718.20001220703125</ele>
        <time>2014-05-17T13:06:50Z</time>
      </trkpt>
      <trkpt lat="45.981269823387265" lon="5.91452568769455">
        <ele>716.5999755859375</ele>
        <time>2014-05-17T13:06:55Z</time>
      </trkpt>
      <trkpt lat="45.981262195855379" lon="5.91459165327251">
        <ele>716.5999755859375</ele>
        <time>2014-05-17T13:06:56Z</time>
      </trkpt>
      <trkpt lat="45.981243252754211" lon="5.914736744016409">
        <ele>715.79998779296875</ele>
        <time>2014-05-17T13:06:58Z</time>
      </trkpt>
      <trkpt lat="45.981223052367568" lon="5.914811091497541">
        <ele>715.4000244140625</ele>
        <time>2014-05-17T13:06:59Z</time>
      </trkpt>
      <trkpt lat="45.981194134801626" lon="5.914886025711894">
        <ele>714.20001220703125</ele>
        <time>2014-05-17T13:07:00Z</time>
      </trkpt>
      <trkpt lat="45.981158344075084" lon="5.914967497810721">
        <ele>713.5999755859375</ele>
        <time>2014-05-17T13:07:01Z</time>
      </trkpt>
      <trkpt lat="45.981112997978926" lon="5.915047377347946">
        <ele>713</ele>
        <time>2014-05-17T13:07:02Z</time>
      </trkpt>
      <trkpt lat="45.981068657711148" lon="5.915131783112884">
        <ele>712.4000244140625</ele>
        <time>2014-05-17T13:07:03Z</time>
      </trkpt>
      <trkpt lat="45.980974361300468" lon="5.91533487662673">
        <ele>711.5999755859375</ele>
        <time>2014-05-17T13:07:05Z</time>
      </trkpt>
      <trkpt lat="45.980854080989957" lon="5.915557751432061">
        <ele>710.20001220703125</ele>
        <time>2014-05-17T13:07:07Z</time>
      </trkpt>
      <trkpt lat="45.980769004672766" lon="5.915651125833392">
        <ele>709.20001220703125</ele>
        <time>2014-05-17T13:07:08Z</time>
      </trkpt>
      <trkpt lat="45.980664063245058" lon="5.915713822469115">
        <ele>707.5999755859375</ele>
        <time>2014-05-17T13:07:09Z</time>
      </trkpt>
      <trkpt lat="45.980551494285464" lon="5.915750954300165">
        <ele>705.4000244140625</ele>
        <time>2014-05-17T13:07:10Z</time>
      </trkpt>
      <trkpt lat="45.980437248945236" lon="5.915772914886475">
        <ele>703.4000244140625</ele>
        <time>2014-05-17T13:07:11Z</time>
      </trkpt>
      <trkpt lat="45.980319147929549" lon="5.915789343416691">
        <ele>702.20001220703125</ele>
        <time>2014-05-17T13:07:12Z</time>
      </trkpt>
      <trkpt lat="45.980078084394336" lon="5.915844663977623">
        <ele>701</ele>
        <time>2014-05-17T13:07:14Z</time>
      </trkpt>
      <trkpt lat="45.979829058051109" lon="5.915905768051744">
        <ele>699.4000244140625</ele>
        <time>2014-05-17T13:07:16Z</time>
      </trkpt>
      <trkpt lat="45.979703748598695" lon="5.915934853255749">
        <ele>698.4000244140625</ele>
        <time>2014-05-17T13:07:17Z</time>
      </trkpt>
      <trkpt lat="45.979579947888851" lon="5.91596276499331">
        <ele>697.20001220703125</ele>
        <time>2014-05-17T13:07:18Z</time>
      </trkpt>
      <trkpt lat="45.97933117300272" lon="5.916026216000319">
        <ele>696.20001220703125</ele>
        <time>2014-05-17T13:07:20Z</time>
      </trkpt>
      <trkpt lat="45.978962872177362" lon="5.916127469390631">
        <ele>695.20001220703125</ele>
        <time>2014-05-17T13:07:23Z</time>
      </trkpt>
      <trkpt lat="45.978592140600085" lon="5.91623542830348">
        <ele>694</ele>
        <time>2014-05-17T13:07:26Z</time>
      </trkpt>
      <trkpt lat="45.978341605514288" lon="5.916310865432024">
        <ele>693.20001220703125</ele>
        <time>2014-05-17T13:07:28Z</time>
      </trkpt>
      <trkpt lat="45.978091657161713" lon="5.916382782161236">
        <ele>692.5999755859375</ele>
        <time>2014-05-17T13:07:30Z</time>
      </trkpt>
      <trkpt lat="45.977604249492288" lon="5.916527537629008">
        <ele>691.5999755859375</ele>
        <time>2014-05-17T13:07:34Z</time>
      </trkpt>
      <trkpt lat="45.977358324453235" lon="5.916583277285099">
        <ele>690</ele>
        <time>2014-05-17T13:07:36Z</time>
      </trkpt>
      <trkpt lat="45.97723544575274" lon="5.916584115475416">
        <ele>689.4000244140625</ele>
        <time>2014-05-17T13:07:37Z</time>
      </trkpt>
      <trkpt lat="45.976780895143747" lon="5.916506079956889">
        <ele>689.4000244140625</ele>
        <time>2014-05-17T13:07:41Z</time>
      </trkpt>
      <trkpt lat="45.976467579603195" lon="5.916416477411985">
        <ele>690.4000244140625</ele>
        <time>2014-05-17T13:07:44Z</time>
      </trkpt>
      <trkpt lat="45.976063990965486" lon="5.916308267042041">
        <ele>690</ele>
        <time>2014-05-17T13:07:48Z</time>
      </trkpt>
      <trkpt lat="45.975561328232288" lon="5.916159907355905">
        <ele>689</ele>
        <time>2014-05-17T13:07:53Z</time>
      </trkpt>
      <trkpt lat="45.975058665499091" lon="5.915984893217683">
        <ele>688.20001220703125</ele>
        <time>2014-05-17T13:07:58Z</time>
      </trkpt>
      <trkpt lat="45.974953304976225" lon="5.915950778871775">
        <ele>687.79998779296875</ele>
        <time>2014-05-17T13:07:59Z</time>
      </trkpt>
      <trkpt lat="45.974739314988256" lon="5.915878526866436">
        <ele>686.5999755859375</ele>
        <time>2014-05-17T13:08:01Z</time>
      </trkpt>
      <trkpt lat="45.974524402990937" lon="5.915802167728543">
        <ele>685.5999755859375</ele>
        <time>2014-05-17T13:08:03Z</time>
      </trkpt>
      <trkpt lat="45.974095752462745" lon="5.915639139711857">
        <ele>684</ele>
        <time>2014-05-17T13:08:07Z</time>
      </trkpt>
      <trkpt lat="45.973879583179951" lon="5.915563032031059">
        <ele>682.4000244140625</ele>
        <time>2014-05-17T13:08:09Z</time>
      </trkpt>
      <trkpt lat="45.973564172163606" lon="5.915461611002684">
        <ele>681.4000244140625</ele>
        <time>2014-05-17T13:08:12Z</time>
      </trkpt>
      <trkpt lat="45.973272984847426" lon="5.915360525250435">
        <ele>681.79998779296875</ele>
        <time>2014-05-17T13:08:15Z</time>
      </trkpt>
      <trkpt lat="45.972994118928909" lon="5.915271257981658">
        <ele>682.4000244140625</ele>
        <time>2014-05-17T13:08:18Z</time>
      </trkpt>
      <trkpt lat="45.972650041803718" lon="5.915151229128242">
        <ele>683.5999755859375</ele>
        <time>2014-05-17T13:08:22Z</time>
      </trkpt>
      <trkpt lat="45.972410989925265" lon="5.915075540542603">
        <ele>684.79998779296875</ele>
        <time>2014-05-17T13:08:25Z</time>
      </trkpt>
      <trkpt lat="45.972263803705573" lon="5.915025500580668">
        <ele>685.4000244140625</ele>
        <time>2014-05-17T13:08:27Z</time>
      </trkpt>
      <trkpt lat="45.972190881147981" lon="5.91500161215663">
        <ele>685.5999755859375</ele>
        <time>2014-05-17T13:08:28Z</time>
      </trkpt>
      <trkpt lat="45.972051322460175" lon="5.914953500032425">
        <ele>685.79998779296875</ele>
        <time>2014-05-17T13:08:30Z</time>
      </trkpt>
      <trkpt lat="45.971780670806766" lon="5.91487554833293">
        <ele>687</ele>
        <time>2014-05-17T13:08:34Z</time>
      </trkpt>
      <trkpt lat="45.971714537590742" lon="5.914853336289525">
        <ele>687.20001220703125</ele>
        <time>2014-05-17T13:08:35Z</time>
      </trkpt>
      <trkpt lat="45.971181783825159" lon="5.914689134806395">
        <ele>687.79998779296875</ele>
        <time>2014-05-17T13:08:43Z</time>
      </trkpt>
      <trkpt lat="45.971115902066231" lon="5.914670946076512">
        <ele>687.79998779296875</ele>
        <time>2014-05-17T13:08:44Z</time>
      </trkpt>
      <trkpt lat="45.970709212124348" lon="5.91454672627151">
        <ele>688.20001220703125</ele>
        <time>2014-05-17T13:08:50Z</time>
      </trkpt>
      <trkpt lat="45.970500251278281" lon="5.914470199495554">
        <ele>688</ele>
        <time>2014-05-17T13:08:53Z</time>
      </trkpt>
      <trkpt lat="45.969975627958775" lon="5.914279008284211">
        <ele>687.20001220703125</ele>
        <time>2014-05-17T13:09:00Z</time>
      </trkpt>
      <trkpt lat="45.969895916059613" lon="5.914250509813428">
        <ele>686.79998779296875</ele>
        <time>2014-05-17T13:09:01Z</time>
      </trkpt>
      <trkpt lat="45.96940373070538" lon="5.914079016074538">
        <ele>685.4000244140625</ele>
        <time>2014-05-17T13:09:07Z</time>
      </trkpt>
      <trkpt lat="45.969156045466661" lon="5.913998130708933">
        <ele>685.20001220703125</ele>
        <time>2014-05-17T13:09:10Z</time>
      </trkpt>
      <trkpt lat="45.968780787661672" lon="5.913763269782066">
        <ele>685.79998779296875</ele>
        <time>2014-05-17T13:09:15Z</time>
      </trkpt>
      <trkpt lat="45.968552967533469" lon="5.913496892899275">
        <ele>686.5999755859375</ele>
        <time>2014-05-17T13:09:19Z</time>
      </trkpt>
      <trkpt lat="45.968502759933472" lon="5.913425898179412">
        <ele>686.79998779296875</ele>
        <time>2014-05-17T13:09:20Z</time>
      </trkpt>
      <trkpt lat="45.96829891204834" lon="5.913065727800131">
        <ele>687.79998779296875</ele>
        <time>2014-05-17T13:09:25Z</time>
      </trkpt>
      <trkpt lat="45.968269659206271" lon="5.91298894956708">
        <ele>687.79998779296875</ele>
        <time>2014-05-17T13:09:26Z</time>
      </trkpt>
      <trkpt lat="45.968221127986908" lon="5.912840170785785">
        <ele>688.4000244140625</ele>
        <time>2014-05-17T13:09:28Z</time>
      </trkpt>
      <trkpt lat="45.968203609809279" lon="5.912765823304653">
        <ele>688.79998779296875</ele>
        <time>2014-05-17T13:09:29Z</time>
      </trkpt>
      <trkpt lat="45.968185421079397" lon="5.912618804723024">
        <ele>689.4000244140625</ele>
        <time>2014-05-17T13:09:31Z</time>
      </trkpt>
      <trkpt lat="45.968187013641" lon="5.912425769492984">
        <ele>689.79998779296875</ele>
        <time>2014-05-17T13:09:34Z</time>
      </trkpt>
      <trkpt lat="45.968188690021634" lon="5.912367766723037">
        <ele>690</ele>
        <time>2014-05-17T13:09:35Z</time>
      </trkpt>
      <trkpt lat="45.968191958963871" lon="5.912311105057597">
        <ele>690.20001220703125</ele>
        <time>2014-05-17T13:09:36Z</time>
      </trkpt>
      <trkpt lat="45.968202017247677" lon="5.912204990163446">
        <ele>691</ele>
        <time>2014-05-17T13:09:38Z</time>
      </trkpt>
      <trkpt lat="45.968209309503436" lon="5.912047829478979">
        <ele>692.20001220703125</ele>
        <time>2014-05-17T13:09:41Z</time>
      </trkpt>
      <trkpt lat="45.968220708891749" lon="5.91190567240119">
        <ele>692.5999755859375</ele>
        <time>2014-05-17T13:09:44Z</time>
      </trkpt>
      <trkpt lat="45.968238646164536" lon="5.911754127591848">
        <ele>693.4000244140625</ele>
        <time>2014-05-17T13:09:47Z</time>
      </trkpt>
      <trkpt lat="45.968244932591915" lon="5.911649605259299">
        <ele>694.5999755859375</ele>
        <time>2014-05-17T13:09:49Z</time>
      </trkpt>
      <trkpt lat="45.968252308666706" lon="5.911491354927421">
        <ele>695.5999755859375</ele>
        <time>2014-05-17T13:09:52Z</time>
      </trkpt>
      <trkpt lat="45.968258008360863" lon="5.911440560594201">
        <ele>695.79998779296875</ele>
        <time>2014-05-17T13:09:53Z</time>
      </trkpt>
      <trkpt lat="45.968289524316788" lon="5.911131016910076">
        <ele>697</ele>
        <time>2014-05-17T13:09:59Z</time>
      </trkpt>
      <trkpt lat="45.968292960897088" lon="5.911072595044971">
        <ele>696.79998779296875</ele>
        <time>2014-05-17T13:10:00Z</time>
      </trkpt>
      <trkpt lat="45.968335876241326" lon="5.910568423569202">
        <ele>696.79998779296875</ele>
        <time>2014-05-17T13:10:08Z</time>
      </trkpt>
      <trkpt lat="45.968366554006934" lon="5.910200625658035">
        <ele>695.79998779296875</ele>
        <time>2014-05-17T13:10:13Z</time>
      </trkpt>
      <trkpt lat="45.968383317813277" lon="5.909994011744857">
        <ele>696.20001220703125</ele>
        <time>2014-05-17T13:10:16Z</time>
      </trkpt>
      <trkpt lat="45.968414163216949" lon="5.909604085609317">
        <ele>696.79998779296875</ele>
        <time>2014-05-17T13:10:22Z</time>
      </trkpt>
      <trkpt lat="45.968422964215279" lon="5.909485900774598">
        <ele>697.5999755859375</ele>
        <time>2014-05-17T13:10:24Z</time>
      </trkpt>
      <trkpt lat="45.968433860689402" lon="5.909377271309495">
        <ele>698</ele>
        <time>2014-05-17T13:10:26Z</time>
      </trkpt>
      <trkpt lat="45.968457749113441" lon="5.909105530008674">
        <ele>699.20001220703125</ele>
        <time>2014-05-17T13:10:31Z</time>
      </trkpt>
      <trkpt lat="45.96846311353147" lon="5.909054568037391">
        <ele>699.4000244140625</ele>
        <time>2014-05-17T13:10:32Z</time>
      </trkpt>
      <trkpt lat="45.968471327796578" lon="5.908855497837067">
        <ele>700.20001220703125</ele>
        <time>2014-05-17T13:10:36Z</time>
      </trkpt>
      <trkpt lat="45.968458754941821" lon="5.908671012148261">
        <ele>700.79998779296875</ele>
        <time>2014-05-17T13:10:40Z</time>
      </trkpt>
      <trkpt lat="45.968439057469368" lon="5.908525167033076">
        <ele>701.20001220703125</ele>
        <time>2014-05-17T13:10:43Z</time>
      </trkpt>
      <trkpt lat="45.968371499329805" lon="5.908263484016061">
        <ele>701.5999755859375</ele>
        <time>2014-05-17T13:10:48Z</time>
      </trkpt>
      <trkpt lat="45.968284662812948" lon="5.907957796007395">
        <ele>702.20001220703125</ele>
        <time>2014-05-17T13:10:54Z</time>
      </trkpt>
      <trkpt lat="45.968266725540161" lon="5.907909600064158">
        <ele>702.4000244140625</ele>
        <time>2014-05-17T13:10:55Z</time>
      </trkpt>
      <trkpt lat="45.968215679749846" lon="5.907720336690545">
        <ele>703.4000244140625</ele>
        <time>2014-05-17T13:10:59Z</time>
      </trkpt>
      <trkpt lat="45.968188354745507" lon="5.907623441889882">
        <ele>704.20001220703125</ele>
        <time>2014-05-17T13:11:01Z</time>
      </trkpt>
      <trkpt lat="45.968044772744179" lon="5.907175177708268">
        <ele>703.5999755859375</ele>
        <time>2014-05-17T13:11:10Z</time>
      </trkpt>
      <trkpt lat="45.96792122349143" lon="5.90677066706121">
        <ele>702.5999755859375</ele>
        <time>2014-05-17T13:11:16Z</time>
      </trkpt>
      <trkpt lat="45.967896161600947" lon="5.9066969063133">
        <ele>702.4000244140625</ele>
        <time>2014-05-17T13:11:17Z</time>
      </trkpt>
      <trkpt lat="45.967757860198617" lon="5.906311087310314">
        <ele>701.20001220703125</ele>
        <time>2014-05-17T13:11:22Z</time>
      </trkpt>
      <trkpt lat="45.967718632891774" lon="5.906238164752722">
        <ele>701.20001220703125</ele>
        <time>2014-05-17T13:11:23Z</time>
      </trkpt>
      <trkpt lat="45.967625509947538" lon="5.906103383749723">
        <ele>700.20001220703125</ele>
        <time>2014-05-17T13:11:25Z</time>
      </trkpt>
      <trkpt lat="45.967506403103471" lon="5.905982097610831">
        <ele>699.20001220703125</ele>
        <time>2014-05-17T13:11:27Z</time>
      </trkpt>
      <trkpt lat="45.96728939563036" lon="5.905893333256245">
        <ele>698.5999755859375</ele>
        <time>2014-05-17T13:11:30Z</time>
      </trkpt>
      <trkpt lat="45.967080937698483" lon="5.905962232500315">
        <ele>699.5999755859375</ele>
        <time>2014-05-17T13:11:33Z</time>
      </trkpt>
      <trkpt lat="45.966945737600327" lon="5.906136576086283">
        <ele>700.4000244140625</ele>
        <time>2014-05-17T13:11:36Z</time>
      </trkpt>
      <trkpt lat="45.966888489201665" lon="5.906283678486943">
        <ele>700.5999755859375</ele>
        <time>2014-05-17T13:11:38Z</time>
      </trkpt>
      <trkpt lat="45.966868540272117" lon="5.906370766460896">
        <ele>700.5999755859375</ele>
        <time>2014-05-17T13:11:39Z</time>
      </trkpt>
      <trkpt lat="45.966846495866776" lon="5.906463637948036">
        <ele>700.4000244140625</ele>
        <time>2014-05-17T13:11:40Z</time>
      </trkpt>
      <trkpt lat="45.966792348772287" lon="5.90675750747323">
        <ele>698.79998779296875</ele>
        <time>2014-05-17T13:11:43Z</time>
      </trkpt>
      <trkpt lat="45.966753792017698" lon="5.906955488026142">
        <ele>697.79998779296875</ele>
        <time>2014-05-17T13:11:45Z</time>
      </trkpt>
      <trkpt lat="45.966717079281807" lon="5.907159755006433">
        <ele>697.4000244140625</ele>
        <time>2014-05-17T13:11:47Z</time>
      </trkpt>
      <trkpt lat="45.96669620834291" lon="5.907259834930301">
        <ele>696</ele>
        <time>2014-05-17T13:11:48Z</time>
      </trkpt>
      <trkpt lat="45.966581543907523" lon="5.907875066623092">
        <ele>695.5999755859375</ele>
        <time>2014-05-17T13:11:54Z</time>
      </trkpt>
      <trkpt lat="45.966396722942591" lon="5.908416705206037">
        <ele>696.5999755859375</ele>
        <time>2014-05-17T13:12:00Z</time>
      </trkpt>
      <trkpt lat="45.96630678512156" lon="5.908570848405361">
        <ele>697.5999755859375</ele>
        <time>2014-05-17T13:12:02Z</time>
      </trkpt>
      <trkpt lat="45.966183738783002" lon="5.908795231953263">
        <ele>698.4000244140625</ele>
        <time>2014-05-17T13:12:05Z</time>
      </trkpt>
      <trkpt lat="45.966143421828747" lon="5.908865304663777">
        <ele>698.5999755859375</ele>
        <time>2014-05-17T13:12:06Z</time>
      </trkpt>
      <trkpt lat="45.96611768938601" lon="5.908934455364943">
        <ele>699</ele>
        <time>2014-05-17T13:12:07Z</time>
      </trkpt>
      <trkpt lat="45.966079300269485" lon="5.909074433147907">
        <ele>699.79998779296875</ele>
        <time>2014-05-17T13:12:09Z</time>
      </trkpt>
      <trkpt lat="45.966067733243108" lon="5.909220445901156">
        <ele>699.4000244140625</ele>
        <time>2014-05-17T13:12:11Z</time>
      </trkpt>
      <trkpt lat="45.966068571433425" lon="5.909294961020351">
        <ele>699</ele>
        <time>2014-05-17T13:12:12Z</time>
      </trkpt>
      <trkpt lat="45.966070247814059" lon="5.909370817244053">
        <ele>699</ele>
        <time>2014-05-17T13:12:13Z</time>
      </trkpt>
      <trkpt lat="45.966076701879501" lon="5.909523032605648">
        <ele>698.79998779296875</ele>
        <time>2014-05-17T13:12:15Z</time>
      </trkpt>
      <trkpt lat="45.966081731021404" lon="5.909595871344209">
        <ele>698.4000244140625</ele>
        <time>2014-05-17T13:12:16Z</time>
      </trkpt>
      <trkpt lat="45.96609472297132" lon="5.909888232126832">
        <ele>698.4000244140625</ele>
        <time>2014-05-17T13:12:20Z</time>
      </trkpt>
      <trkpt lat="45.966138811782002" lon="5.910387625917792">
        <ele>697.79998779296875</ele>
        <time>2014-05-17T13:12:27Z</time>
      </trkpt>
      <trkpt lat="45.966187762096524" lon="5.911004450172186">
        <ele>697</ele>
        <time>2014-05-17T13:12:35Z</time>
      </trkpt>
      <trkpt lat="45.966166723519564" lon="5.911474423483014">
        <ele>696.5999755859375</ele>
        <time>2014-05-17T13:12:40Z</time>
      </trkpt>
      <trkpt lat="45.966145014390349" lon="5.911566959694028">
        <ele>696.4000244140625</ele>
        <time>2014-05-17T13:12:41Z</time>
      </trkpt>
      <trkpt lat="45.966119114309549" lon="5.911663435399532">
        <ele>696</ele>
        <time>2014-05-17T13:12:42Z</time>
      </trkpt>
      <trkpt lat="45.966046275570989" lon="5.911847585812211">
        <ele>695.20001220703125</ele>
        <time>2014-05-17T13:12:44Z</time>
      </trkpt>
      <trkpt lat="45.966007886454463" lon="5.911939535290003">
        <ele>695</ele>
        <time>2014-05-17T13:12:45Z</time>
      </trkpt>
      <trkpt lat="45.965919876471162" lon="5.912126284092665">
        <ele>694.79998779296875</ele>
        <time>2014-05-17T13:12:47Z</time>
      </trkpt>
      <trkpt lat="45.965783167630434" lon="5.912414118647575">
        <ele>694</ele>
        <time>2014-05-17T13:12:50Z</time>
      </trkpt>
      <trkpt lat="45.965738911181688" lon="5.912507744506002">
        <ele>693.5999755859375</ele>
        <time>2014-05-17T13:12:51Z</time>
      </trkpt>
      <trkpt lat="45.965610416606069" lon="5.912809409201145">
        <ele>692.20001220703125</ele>
        <time>2014-05-17T13:12:54Z</time>
      </trkpt>
      <trkpt lat="45.965469852089882" lon="5.913127670064569">
        <ele>691.4000244140625</ele>
        <time>2014-05-17T13:12:57Z</time>
      </trkpt>
      <trkpt lat="45.965422410517931" lon="5.913238311186433">
        <ele>690.79998779296875</ele>
        <time>2014-05-17T13:12:58Z</time>
      </trkpt>
      <trkpt lat="45.965324258431792" lon="5.913459593430162">
        <ele>689.5999755859375</ele>
        <time>2014-05-17T13:13:00Z</time>
      </trkpt>
      <trkpt lat="45.96517950296402" lon="5.913793947547674">
        <ele>688.20001220703125</ele>
        <time>2014-05-17T13:13:03Z</time>
      </trkpt>
      <trkpt lat="45.964877670630813" lon="5.914475312456489">
        <ele>687.20001220703125</ele>
        <time>2014-05-17T13:13:09Z</time>
      </trkpt>
      <trkpt lat="45.96482377499342" lon="5.914589976891875">
        <ele>686.5999755859375</ele>
        <time>2014-05-17T13:13:10Z</time>
      </trkpt>
      <trkpt lat="45.964715732261539" lon="5.914827352389693">
        <ele>686.20001220703125</ele>
        <time>2014-05-17T13:13:12Z</time>
      </trkpt>
      <trkpt lat="45.964551363140345" lon="5.915185427293181">
        <ele>685</ele>
        <time>2014-05-17T13:13:15Z</time>
      </trkpt>
      <trkpt lat="45.964367548003793" lon="5.915529252961278">
        <ele>684.20001220703125</ele>
        <time>2014-05-17T13:13:18Z</time>
      </trkpt>
      <trkpt lat="45.963991116732359" lon="5.915951281785965">
        <ele>684.20001220703125</ele>
        <time>2014-05-17T13:13:23Z</time>
      </trkpt>
      <trkpt lat="45.9639061242342" lon="5.916004339233041">
        <ele>684.4000244140625</ele>
        <time>2014-05-17T13:13:24Z</time>
      </trkpt>
      <trkpt lat="45.963562466204166" lon="5.916249761357904">
        <ele>683.79998779296875</ele>
        <time>2014-05-17T13:13:28Z</time>
      </trkpt>
      <trkpt lat="45.963042117655277" lon="5.916594173759222">
        <ele>683</ele>
        <time>2014-05-17T13:13:34Z</time>
      </trkpt>
      <trkpt lat="45.962608773261309" lon="5.916862897574902">
        <ele>683</ele>
        <time>2014-05-17T13:13:39Z</time>
      </trkpt>
      <trkpt lat="45.962151037529111" lon="5.91709834523499">
        <ele>682.4000244140625</ele>
        <time>2014-05-17T13:13:44Z</time>
      </trkpt>
      <trkpt lat="45.961957415565848" lon="5.917154839262366">
        <ele>681.79998779296875</ele>
        <time>2014-05-17T13:13:46Z</time>
      </trkpt>
      <trkpt lat="45.961762117221951" lon="5.917200017720461">
        <ele>681</ele>
        <time>2014-05-17T13:13:48Z</time>
      </trkpt>
      <trkpt lat="45.961362887173891" lon="5.917271012440324">
        <ele>680</ele>
        <time>2014-05-17T13:13:52Z</time>
      </trkpt>
      <trkpt lat="45.9611551836133" lon="5.917303869500756">
        <ele>679</ele>
        <time>2014-05-17T13:13:54Z</time>
      </trkpt>
      <trkpt lat="45.961050326004624" lon="5.917324824258685">
        <ele>678.4000244140625</ele>
        <time>2014-05-17T13:13:55Z</time>
      </trkpt>
      <trkpt lat="45.960725108161569" lon="5.917380563914776">
        <ele>676.79998779296875</ele>
        <time>2014-05-17T13:13:58Z</time>
      </trkpt>
      <trkpt lat="45.96050089225173" lon="5.917420294135809">
        <ele>675</ele>
        <time>2014-05-17T13:14:00Z</time>
      </trkpt>
      <trkpt lat="45.960386646911502" lon="5.917440662160516">
        <ele>674.79998779296875</ele>
        <time>2014-05-17T13:14:01Z</time>
      </trkpt>
      <trkpt lat="45.960154887288809" lon="5.917483242228627">
        <ele>674</ele>
        <time>2014-05-17T13:14:03Z</time>
      </trkpt>
      <trkpt lat="45.959922121837735" lon="5.917526995763183">
        <ele>672.20001220703125</ele>
        <time>2014-05-17T13:14:05Z</time>
      </trkpt>
      <trkpt lat="45.959564046934247" lon="5.917594972997904">
        <ele>670.79998779296875</ele>
        <time>2014-05-17T13:14:08Z</time>
      </trkpt>
      <trkpt lat="45.959313595667481" lon="5.917640905827284">
        <ele>669.4000244140625</ele>
        <time>2014-05-17T13:14:10Z</time>
      </trkpt>
      <trkpt lat="45.959053253754973" lon="5.917684072628617">
        <ele>666.79998779296875</ele>
        <time>2014-05-17T13:14:12Z</time>
      </trkpt>
      <trkpt lat="45.958922998979688" lon="5.917705614119768">
        <ele>665.20001220703125</ele>
        <time>2014-05-17T13:14:13Z</time>
      </trkpt>
      <trkpt lat="45.958664081990719" lon="5.917753558605909">
        <ele>664.20001220703125</ele>
        <time>2014-05-17T13:14:15Z</time>
      </trkpt>
      <trkpt lat="45.958400806412101" lon="5.917797312140465">
        <ele>663</ele>
        <time>2014-05-17T13:14:17Z</time>
      </trkpt>
      <trkpt lat="45.958136273548007" lon="5.917840898036957">
        <ele>661.79998779296875</ele>
        <time>2014-05-17T13:14:19Z</time>
      </trkpt>
      <trkpt lat="45.957868304103613" lon="5.917886579409242">
        <ele>660.5999755859375</ele>
        <time>2014-05-17T13:14:21Z</time>
      </trkpt>
      <trkpt lat="45.957592874765396" lon="5.917931674048305">
        <ele>659</ele>
        <time>2014-05-17T13:14:23Z</time>
      </trkpt>
      <trkpt lat="45.957311578094959" lon="5.917980540543795">
        <ele>657.20001220703125</ele>
        <time>2014-05-17T13:14:25Z</time>
      </trkpt>
      <trkpt lat="45.957171432673931" lon="5.91800476424396">
        <ele>656</ele>
        <time>2014-05-17T13:14:26Z</time>
      </trkpt>
      <trkpt lat="45.95702868886292" lon="5.918030999600887">
        <ele>655</ele>
        <time>2014-05-17T13:14:27Z</time>
      </trkpt>
      <trkpt lat="45.956886364147067" lon="5.918056229129434">
        <ele>653.20001220703125</ele>
        <time>2014-05-17T13:14:28Z</time>
      </trkpt>
      <trkpt lat="45.956743871793151" lon="5.918081626296043">
        <ele>651.79998779296875</ele>
        <time>2014-05-17T13:14:29Z</time>
      </trkpt>
      <trkpt lat="45.956602385267615" lon="5.918102832511067">
        <ele>650.4000244140625</ele>
        <time>2014-05-17T13:14:30Z</time>
      </trkpt>
      <trkpt lat="45.956325363367796" lon="5.918149687349796">
        <ele>649.4000244140625</ele>
        <time>2014-05-17T13:14:32Z</time>
      </trkpt>
      <trkpt lat="45.956054208800197" lon="5.91819385997951">
        <ele>649.20001220703125</ele>
        <time>2014-05-17T13:14:34Z</time>
      </trkpt>
      <trkpt lat="45.955791184678674" lon="5.918237194418907">
        <ele>648.4000244140625</ele>
        <time>2014-05-17T13:14:36Z</time>
      </trkpt>
      <trkpt lat="45.955287013202906" lon="5.918325958773494">
        <ele>647</ele>
        <time>2014-05-17T13:14:40Z</time>
      </trkpt>
      <trkpt lat="45.955043518915772" lon="5.918369628489018">
        <ele>646</ele>
        <time>2014-05-17T13:14:42Z</time>
      </trkpt>
      <trkpt lat="45.954461395740509" lon="5.91848068870604">
        <ele>646.20001220703125</ele>
        <time>2014-05-17T13:14:47Z</time>
      </trkpt>
      <trkpt lat="45.954111367464066" lon="5.91854958795011">
        <ele>645</ele>
        <time>2014-05-17T13:14:50Z</time>
      </trkpt>
      <trkpt lat="45.953873572871089" lon="5.91859258711338">
        <ele>643.4000244140625</ele>
        <time>2014-05-17T13:14:52Z</time>
      </trkpt>
      <trkpt lat="45.953636867925525" lon="5.918637095019221">
        <ele>642</ele>
        <time>2014-05-17T13:14:54Z</time>
      </trkpt>
      <trkpt lat="45.95327845774591" lon="5.91869417577982">
        <ele>640.79998779296875</ele>
        <time>2014-05-17T13:14:57Z</time>
      </trkpt>
      <trkpt lat="45.953039908781648" lon="5.918739438056946">
        <ele>640.20001220703125</ele>
        <time>2014-05-17T13:14:59Z</time>
      </trkpt>
      <trkpt lat="45.952920466661453" lon="5.918758632615209">
        <ele>638.4000244140625</ele>
        <time>2014-05-17T13:15:00Z</time>
      </trkpt>
      <trkpt lat="45.95256214030087" lon="5.918826861307025">
        <ele>637.20001220703125</ele>
        <time>2014-05-17T13:15:03Z</time>
      </trkpt>
      <trkpt lat="45.952327447012067" lon="5.918869776651263">
        <ele>635.79998779296875</ele>
        <time>2014-05-17T13:15:05Z</time>
      </trkpt>
      <trkpt lat="45.952120162546635" lon="5.918892826884985">
        <ele>634.5999755859375</ele>
        <time>2014-05-17T13:15:07Z</time>
      </trkpt>
      <trkpt lat="45.951902652159333" lon="5.918929539620876">
        <ele>632.20001220703125</ele>
        <time>2014-05-17T13:15:09Z</time>
      </trkpt>
      <trkpt lat="45.951790837571025" lon="5.918942866846919">
        <ele>631</ele>
        <time>2014-05-17T13:15:10Z</time>
      </trkpt>
      <trkpt lat="45.951679861173034" lon="5.918963821604848">
        <ele>630</ele>
        <time>2014-05-17T13:15:11Z</time>
      </trkpt>
      <trkpt lat="45.951567627489567" lon="5.918988548219204">
        <ele>629</ele>
        <time>2014-05-17T13:15:12Z</time>
      </trkpt>
      <trkpt lat="45.951454807072878" lon="5.919034061953425">
        <ele>628</ele>
        <time>2014-05-17T13:15:13Z</time>
      </trkpt>
      <trkpt lat="45.951241990551353" lon="5.919207818806171">
        <ele>626</ele>
        <time>2014-05-17T13:15:15Z</time>
      </trkpt>
      <trkpt lat="45.951159261167049" lon="5.91933430172503">
        <ele>624.5999755859375</ele>
        <time>2014-05-17T13:15:16Z</time>
      </trkpt>
      <trkpt lat="45.951087512075901" lon="5.91946036554873">
        <ele>623.20001220703125</ele>
        <time>2014-05-17T13:15:17Z</time>
      </trkpt>
      <trkpt lat="45.951024396345019" lon="5.919573940336704">
        <ele>622</ele>
        <time>2014-05-17T13:15:18Z</time>
      </trkpt>
      <trkpt lat="45.950909061357379" lon="5.919789439067245">
        <ele>620.5999755859375</ele>
        <time>2014-05-17T13:15:20Z</time>
      </trkpt>
      <trkpt lat="45.950850807130337" lon="5.919889267534018">
        <ele>619.4000244140625</ele>
        <time>2014-05-17T13:15:21Z</time>
      </trkpt>
      <trkpt lat="45.950736561790109" lon="5.920080710202456">
        <ele>618.4000244140625</ele>
        <time>2014-05-17T13:15:23Z</time>
      </trkpt>
      <trkpt lat="45.950629860162735" lon="5.920265698805451">
        <ele>616.79998779296875</ele>
        <time>2014-05-17T13:15:25Z</time>
      </trkpt>
      <trkpt lat="45.950533719733357" lon="5.920438785105944">
        <ele>615.5999755859375</ele>
        <time>2014-05-17T13:15:27Z</time>
      </trkpt>
      <trkpt lat="45.950432466343045" lon="5.920603238046169">
        <ele>614.20001220703125</ele>
        <time>2014-05-17T13:15:29Z</time>
      </trkpt>
      <trkpt lat="45.950380247086287" lon="5.920687643811107">
        <ele>613.20001220703125</ele>
        <time>2014-05-17T13:15:30Z</time>
      </trkpt>
      <trkpt lat="45.950285447761416" lon="5.920860730111599">
        <ele>611.5999755859375</ele>
        <time>2014-05-17T13:15:32Z</time>
      </trkpt>
      <trkpt lat="45.950195007026196" lon="5.921030044555664">
        <ele>610.20001220703125</ele>
        <time>2014-05-17T13:15:34Z</time>
      </trkpt>
      <trkpt lat="45.95015368424356" lon="5.921099279075861">
        <ele>609.5999755859375</ele>
        <time>2014-05-17T13:15:35Z</time>
      </trkpt>
      <trkpt lat="45.950113702565432" lon="5.921166753396392">
        <ele>609</ele>
        <time>2014-05-17T13:15:36Z</time>
      </trkpt>
      <trkpt lat="45.949998199939728" lon="5.921357274055481">
        <ele>608</ele>
        <time>2014-05-17T13:15:39Z</time>
      </trkpt>
      <trkpt lat="45.949852103367448" lon="5.921626249328256">
        <ele>606.79998779296875</ele>
        <time>2014-05-17T13:15:43Z</time>
      </trkpt>
      <trkpt lat="45.949727213010192" lon="5.921857170760632">
        <ele>605.79998779296875</ele>
        <time>2014-05-17T13:15:48Z</time>
      </trkpt>
      <trkpt lat="45.949688656255603" lon="5.921928081661463">
        <ele>605.5999755859375</ele>
        <time>2014-05-17T13:15:50Z</time>
      </trkpt>
      <trkpt lat="45.949620846658945" lon="5.922022964805365">
        <ele>605.5999755859375</ele>
        <time>2014-05-17T13:15:54Z</time>
      </trkpt>
      <trkpt lat="45.949577512219548" lon="5.92209161259234">
        <ele>605.5999755859375</ele>
        <time>2014-05-17T13:15:59Z</time>
      </trkpt>
      <trkpt lat="45.949553037062287" lon="5.922135869041085">
        <ele>605.5999755859375</ele>
        <time>2014-05-17T13:16:57Z</time>
      </trkpt>
      <trkpt lat="45.949539542198181" lon="5.922161182388663">
        <ele>605.4000244140625</ele>
        <time>2014-05-17T13:16:58Z</time>
      </trkpt>
      <trkpt lat="45.949484808370471" lon="5.922339884564281">
        <ele>604.5999755859375</ele>
        <time>2014-05-17T13:17:03Z</time>
      </trkpt>
      <trkpt lat="45.949456812813878" lon="5.922380788251758">
        <ele>604.5999755859375</ele>
        <time>2014-05-17T13:17:04Z</time>
      </trkpt>
      <trkpt lat="45.949353044852614" lon="5.922535685822368">
        <ele>603.5999755859375</ele>
        <time>2014-05-17T13:17:07Z</time>
      </trkpt>
      <trkpt lat="45.949288001284003" lon="5.92264230363071">
        <ele>603.4000244140625</ele>
        <time>2014-05-17T13:17:09Z</time>
      </trkpt>
      <trkpt lat="45.949188340455294" lon="5.92281186953187">
        <ele>603</ele>
        <time>2014-05-17T13:17:13Z</time>
      </trkpt>
      <trkpt lat="45.949093038216233" lon="5.922971041873097">
        <ele>602.4000244140625</ele>
        <time>2014-05-17T13:17:16Z</time>
      </trkpt>
      <trkpt lat="45.949009386822581" lon="5.923123257234693">
        <ele>602.20001220703125</ele>
        <time>2014-05-17T13:17:19Z</time>
      </trkpt>
      <trkpt lat="45.948826661333442" lon="5.923436488956213">
        <ele>601.20001220703125</ele>
        <time>2014-05-17T13:17:25Z</time>
      </trkpt>
      <trkpt lat="45.9487943071872" lon="5.923485858365893">
        <ele>601</ele>
        <time>2014-05-17T13:17:26Z</time>
      </trkpt>
      <trkpt lat="45.948620131239295" lon="5.923770926892757">
        <ele>600.20001220703125</ele>
        <time>2014-05-17T13:17:32Z</time>
      </trkpt>
      <trkpt lat="45.948455091565847" lon="5.924045853316784">
        <ele>599</ele>
        <time>2014-05-17T13:17:37Z</time>
      </trkpt>
      <trkpt lat="45.948415864259005" lon="5.924114333465695">
        <ele>598.79998779296875</ele>
        <time>2014-05-17T13:17:38Z</time>
      </trkpt>
      <trkpt lat="45.948287453502417" lon="5.924329496920109">
        <ele>598</ele>
        <time>2014-05-17T13:17:41Z</time>
      </trkpt>
      <trkpt lat="45.948147140443325" lon="5.924573158845305">
        <ele>597.20001220703125</ele>
        <time>2014-05-17T13:17:44Z</time>
      </trkpt>
      <trkpt lat="45.948098106309772" lon="5.924660079181194">
        <ele>596.79998779296875</ele>
        <time>2014-05-17T13:17:45Z</time>
      </trkpt>
      <trkpt lat="45.947751849889755" lon="5.925265001133084">
        <ele>596.20001220703125</ele>
        <time>2014-05-17T13:17:52Z</time>
      </trkpt>
      <trkpt lat="45.947472900152206" lon="5.925653418526053">
        <ele>596</ele>
        <time>2014-05-17T13:17:57Z</time>
      </trkpt>
      <trkpt lat="45.947414813563228" lon="5.925744362175465">
        <ele>595.5999755859375</ele>
        <time>2014-05-17T13:17:58Z</time>
      </trkpt>
      <trkpt lat="45.947190849110484" lon="5.926136635243893">
        <ele>595</ele>
        <time>2014-05-17T13:18:02Z</time>
      </trkpt>
      <trkpt lat="45.947134187445045" lon="5.926237134262919">
        <ele>594.4000244140625</ele>
        <time>2014-05-17T13:18:03Z</time>
      </trkpt>
      <trkpt lat="45.946804527193308" lon="5.926682548597455">
        <ele>593.20001220703125</ele>
        <time>2014-05-17T13:18:08Z</time>
      </trkpt>
      <trkpt lat="45.946474028751254" lon="5.926918080076575">
        <ele>593.4000244140625</ele>
        <time>2014-05-17T13:18:12Z</time>
      </trkpt>
      <trkpt lat="45.946016209200025" lon="5.927146570757031">
        <ele>591.5999755859375</ele>
        <time>2014-05-17T13:18:17Z</time>
      </trkpt>
      <trkpt lat="45.945916213095188" lon="5.927186636254191">
        <ele>590.5999755859375</ele>
        <time>2014-05-17T13:18:18Z</time>
      </trkpt>
      <trkpt lat="45.945817809551954" lon="5.927231311798096">
        <ele>589.4000244140625</ele>
        <time>2014-05-17T13:18:19Z</time>
      </trkpt>
      <trkpt lat="45.945621924474835" lon="5.927320411428809">
        <ele>588.20001220703125</ele>
        <time>2014-05-17T13:18:21Z</time>
      </trkpt>
      <trkpt lat="45.945334928110242" lon="5.927456868812442">
        <ele>587.4000244140625</ele>
        <time>2014-05-17T13:18:24Z</time>
      </trkpt>
      <trkpt lat="45.945035945624113" lon="5.927603468298912">
        <ele>586.5999755859375</ele>
        <time>2014-05-17T13:18:27Z</time>
      </trkpt>
      <trkpt lat="45.944937206804752" lon="5.927651831880212">
        <ele>585.4000244140625</ele>
        <time>2014-05-17T13:18:28Z</time>
      </trkpt>
      <trkpt lat="45.944739310070872" lon="5.927752498537302">
        <ele>584.20001220703125</ele>
        <time>2014-05-17T13:18:30Z</time>
      </trkpt>
      <trkpt lat="45.944538982585073" lon="5.927857859060168">
        <ele>584</ele>
        <time>2014-05-17T13:18:32Z</time>
      </trkpt>
      <trkpt lat="45.944339158013463" lon="5.927959783002734">
        <ele>583</ele>
        <time>2014-05-17T13:18:34Z</time>
      </trkpt>
      <trkpt lat="45.944133717566729" lon="5.928058186545968">
        <ele>582.4000244140625</ele>
        <time>2014-05-17T13:18:36Z</time>
      </trkpt>
      <trkpt lat="45.943921655416489" lon="5.928163127973676">
        <ele>581.5999755859375</ele>
        <time>2014-05-17T13:18:38Z</time>
      </trkpt>
      <trkpt lat="45.943810259923339" lon="5.928196404129267">
        <ele>580.20001220703125</ele>
        <time>2014-05-17T13:18:39Z</time>
      </trkpt>
      <trkpt lat="45.943691991269588" lon="5.928200092166662">
        <ele>579.79998779296875</ele>
        <time>2014-05-17T13:18:40Z</time>
      </trkpt>
      <trkpt lat="45.943575566634536" lon="5.928180227056146">
        <ele>579.20001220703125</ele>
        <time>2014-05-17T13:18:41Z</time>
      </trkpt>
      <trkpt lat="45.943349506705999" lon="5.928133456036449">
        <ele>578.20001220703125</ele>
        <time>2014-05-17T13:18:43Z</time>
      </trkpt>
      <trkpt lat="45.943011464551091" lon="5.928109148517251">
        <ele>576.5999755859375</ele>
        <time>2014-05-17T13:18:46Z</time>
      </trkpt>
      <trkpt lat="45.942781046032906" lon="5.928148711100221">
        <ele>575</ele>
        <time>2014-05-17T13:18:48Z</time>
      </trkpt>
      <trkpt lat="45.942418025806546" lon="5.928221214562655">
        <ele>573.4000244140625</ele>
        <time>2014-05-17T13:18:51Z</time>
      </trkpt>
      <trkpt lat="45.942170172929764" lon="5.928269829601049">
        <ele>571.5999755859375</ele>
        <time>2014-05-17T13:18:53Z</time>
      </trkpt>
      <trkpt lat="45.94192030839622" lon="5.92831576243043">
        <ele>571</ele>
        <time>2014-05-17T13:18:55Z</time>
      </trkpt>
      <trkpt lat="45.941794579848647" lon="5.928339315578342">
        <ele>570.20001220703125</ele>
        <time>2014-05-17T13:18:56Z</time>
      </trkpt>
      <trkpt lat="45.941420746967196" lon="5.928414920344949">
        <ele>569.20001220703125</ele>
        <time>2014-05-17T13:18:59Z</time>
      </trkpt>
      <trkpt lat="45.941172810271382" lon="5.928464708849788">
        <ele>568</ele>
        <time>2014-05-17T13:19:01Z</time>
      </trkpt>
      <trkpt lat="45.940683642402291" lon="5.928560011088848">
        <ele>567</ele>
        <time>2014-05-17T13:19:05Z</time>
      </trkpt>
      <trkpt lat="45.940562607720494" lon="5.928583396598697">
        <ele>566.20001220703125</ele>
        <time>2014-05-17T13:19:06Z</time>
      </trkpt>
      <trkpt lat="45.940441656857729" lon="5.92860946431756">
        <ele>565.4000244140625</ele>
        <time>2014-05-17T13:19:07Z</time>
      </trkpt>
      <trkpt lat="45.940200425684452" lon="5.928657911717892">
        <ele>563.79998779296875</ele>
        <time>2014-05-17T13:19:09Z</time>
      </trkpt>
      <trkpt lat="45.939589887857437" lon="5.928781880065799">
        <ele>563</ele>
        <time>2014-05-17T13:19:14Z</time>
      </trkpt>
      <trkpt lat="45.939464746043086" lon="5.928804595023394">
        <ele>562.20001220703125</ele>
        <time>2014-05-17T13:19:15Z</time>
      </trkpt>
      <trkpt lat="45.939339520409703" lon="5.928828651085496">
        <ele>561.20001220703125</ele>
        <time>2014-05-17T13:19:16Z</time>
      </trkpt>
      <trkpt lat="45.93921429477632" lon="5.928854048252106">
        <ele>559.79998779296875</ele>
        <time>2014-05-17T13:19:17Z</time>
      </trkpt>
      <trkpt lat="45.938962167128921" lon="5.92890408821404">
        <ele>558</ele>
        <time>2014-05-17T13:19:19Z</time>
      </trkpt>
      <trkpt lat="45.938580874353647" lon="5.928977597504854">
        <ele>557</ele>
        <time>2014-05-17T13:19:22Z</time>
      </trkpt>
      <trkpt lat="45.938457241281867" lon="5.929002910852432">
        <ele>555.79998779296875</ele>
        <time>2014-05-17T13:19:23Z</time>
      </trkpt>
      <trkpt lat="45.938217602670193" lon="5.929053872823715">
        <ele>554.79998779296875</ele>
        <time>2014-05-17T13:19:25Z</time>
      </trkpt>
      <trkpt lat="45.937663894146681" lon="5.929192928597331">
        <ele>555.20001220703125</ele>
        <time>2014-05-17T13:19:30Z</time>
      </trkpt>
      <trkpt lat="45.937561802566051" lon="5.929232239723206">
        <ele>555.79998779296875</ele>
        <time>2014-05-17T13:19:31Z</time>
      </trkpt>
      <trkpt lat="45.936980601400137" lon="5.929467771202326">
        <ele>556.20001220703125</ele>
        <time>2014-05-17T13:19:37Z</time>
      </trkpt>
      <trkpt lat="45.936891417950392" lon="5.929513536393642">
        <ele>556.20001220703125</ele>
        <time>2014-05-17T13:19:38Z</time>
      </trkpt>
      <trkpt lat="45.936304600909352" lon="5.92978460714221">
        <ele>554.20001220703125</ele>
        <time>2014-05-17T13:19:44Z</time>
      </trkpt>
      <trkpt lat="45.936195887625217" lon="5.929830959066749">
        <ele>553.20001220703125</ele>
        <time>2014-05-17T13:19:45Z</time>
      </trkpt>
      <trkpt lat="45.936087593436241" lon="5.929881082847714">
        <ele>552</ele>
        <time>2014-05-17T13:19:46Z</time>
      </trkpt>
      <trkpt lat="45.935975192114711" lon="5.929925423115492">
        <ele>551</ele>
        <time>2014-05-17T13:19:47Z</time>
      </trkpt>
      <trkpt lat="45.935861533507705" lon="5.929970517754555">
        <ele>549</ele>
        <time>2014-05-17T13:19:48Z</time>
      </trkpt>
      <trkpt lat="45.935632539913058" lon="5.930061209946871">
        <ele>548</ele>
        <time>2014-05-17T13:19:50Z</time>
      </trkpt>
      <trkpt lat="45.935398014262319" lon="5.930147292092443">
        <ele>546.4000244140625</ele>
        <time>2014-05-17T13:19:52Z</time>
      </trkpt>
      <trkpt lat="45.935164242982864" lon="5.930233960971236">
        <ele>545</ele>
        <time>2014-05-17T13:19:54Z</time>
      </trkpt>
      <trkpt lat="45.934596117585897" lon="5.930454824119806">
        <ele>543.5999755859375</ele>
        <time>2014-05-17T13:19:59Z</time>
      </trkpt>
      <trkpt lat="45.934370057657361" lon="5.930535038933158">
        <ele>542.5999755859375</ele>
        <time>2014-05-17T13:20:01Z</time>
      </trkpt>
      <trkpt lat="45.93382716178894" lon="5.930737210437655">
        <ele>542.5999755859375</ele>
        <time>2014-05-17T13:20:06Z</time>
      </trkpt>
      <trkpt lat="45.933613339439034" lon="5.930816419422627">
        <ele>541.4000244140625</ele>
        <time>2014-05-17T13:20:08Z</time>
      </trkpt>
      <trkpt lat="45.933508649468422" lon="5.930858412757516">
        <ele>541</ele>
        <time>2014-05-17T13:20:09Z</time>
      </trkpt>
      <trkpt lat="45.933401612564921" lon="5.930896298959851">
        <ele>540.4000244140625</ele>
        <time>2014-05-17T13:20:10Z</time>
      </trkpt>
      <trkpt lat="45.933193741366267" lon="5.930972825735807">
        <ele>539.20001220703125</ele>
        <time>2014-05-17T13:20:12Z</time>
      </trkpt>
      <trkpt lat="45.93269350938499" lon="5.931156808510423">
        <ele>538.5999755859375</ele>
        <time>2014-05-17T13:20:17Z</time>
      </trkpt>
      <trkpt lat="45.932120019569993" lon="5.931366104632616">
        <ele>539.5999755859375</ele>
        <time>2014-05-17T13:20:23Z</time>
      </trkpt>
      <trkpt lat="45.931839980185032" lon="5.931477500125766">
        <ele>539.20001220703125</ele>
        <time>2014-05-17T13:20:26Z</time>
      </trkpt>
      <trkpt lat="45.931291384622455" lon="5.931685036048293">
        <ele>538.4000244140625</ele>
        <time>2014-05-17T13:20:32Z</time>
      </trkpt>
      <trkpt lat="45.931111592799425" lon="5.931754019111395">
        <ele>538.20001220703125</ele>
        <time>2014-05-17T13:20:34Z</time>
      </trkpt>
      <trkpt lat="45.931020984426141" lon="5.931786624714732">
        <ele>537.79998779296875</ele>
        <time>2014-05-17T13:20:35Z</time>
      </trkpt>
      <trkpt lat="45.930742705240846" lon="5.931895086541772">
        <ele>536.5999755859375</ele>
        <time>2014-05-17T13:20:38Z</time>
      </trkpt>
      <trkpt lat="45.930549250915647" lon="5.93197412788868">
        <ele>535.5999755859375</ele>
        <time>2014-05-17T13:20:40Z</time>
      </trkpt>
      <trkpt lat="45.930342637002468" lon="5.932054845616221">
        <ele>534.20001220703125</ele>
        <time>2014-05-17T13:20:42Z</time>
      </trkpt>
      <trkpt lat="45.930125461891294" lon="5.932131707668304">
        <ele>533</ele>
        <time>2014-05-17T13:20:44Z</time>
      </trkpt>
      <trkpt lat="45.92978909611702" lon="5.932253580540419">
        <ele>531.79998779296875</ele>
        <time>2014-05-17T13:20:47Z</time>
      </trkpt>
      <trkpt lat="45.929562784731388" lon="5.932337231934071">
        <ele>530.5999755859375</ele>
        <time>2014-05-17T13:20:49Z</time>
      </trkpt>
      <trkpt lat="45.928956354036927" lon="5.932567734271288">
        <ele>529.4000244140625</ele>
        <time>2014-05-17T13:20:54Z</time>
      </trkpt>
      <trkpt lat="45.928832469508052" lon="5.932612325996161">
        <ele>528</ele>
        <time>2014-05-17T13:20:55Z</time>
      </trkpt>
      <trkpt lat="45.928707746788859" lon="5.932658258825541">
        <ele>526.79998779296875</ele>
        <time>2014-05-17T13:20:56Z</time>
      </trkpt>
      <trkpt lat="45.928461067378521" lon="5.932748699560762">
        <ele>525.5999755859375</ele>
        <time>2014-05-17T13:20:58Z</time>
      </trkpt>
      <trkpt lat="45.928094778209925" lon="5.932887168601155">
        <ele>524.5999755859375</ele>
        <time>2014-05-17T13:21:01Z</time>
      </trkpt>
      <trkpt lat="45.927729746326804" lon="5.933027397841215">
        <ele>523.4000244140625</ele>
        <time>2014-05-17T13:21:04Z</time>
      </trkpt>
      <trkpt lat="45.927367731928825" lon="5.933161256834865">
        <ele>522.79998779296875</ele>
        <time>2014-05-17T13:21:07Z</time>
      </trkpt>
      <trkpt lat="45.927133541554213" lon="5.933252200484276">
        <ele>522.4000244140625</ele>
        <time>2014-05-17T13:21:09Z</time>
      </trkpt>
      <trkpt lat="45.926685528829694" lon="5.933417994529009">
        <ele>521.4000244140625</ele>
        <time>2014-05-17T13:21:13Z</time>
      </trkpt>
      <trkpt lat="45.926579246297479" lon="5.933457473292947">
        <ele>521.5999755859375</ele>
        <time>2014-05-17T13:21:14Z</time>
      </trkpt>
      <trkpt lat="45.925982790067792" lon="5.933685461059213">
        <ele>522.5999755859375</ele>
        <time>2014-05-17T13:21:20Z</time>
      </trkpt>
      <trkpt lat="45.9258874040097" lon="5.933725526556373">
        <ele>522.5999755859375</ele>
        <time>2014-05-17T13:21:21Z</time>
      </trkpt>
      <trkpt lat="45.925615495070815" lon="5.933831389993429">
        <ele>521.4000244140625</ele>
        <time>2014-05-17T13:21:24Z</time>
      </trkpt>
      <trkpt lat="45.925363032147288" lon="5.933928200975061">
        <ele>520.79998779296875</ele>
        <time>2014-05-17T13:21:27Z</time>
      </trkpt>
      <trkpt lat="45.925103109329939" lon="5.934023335576057">
        <ele>519.79998779296875</ele>
        <time>2014-05-17T13:21:30Z</time>
      </trkpt>
      <trkpt lat="45.924917031079531" lon="5.934090558439493">
        <ele>518.20001220703125</ele>
        <time>2014-05-17T13:21:32Z</time>
      </trkpt>
      <trkpt lat="45.924824830144644" lon="5.934123583137989">
        <ele>517.4000244140625</ele>
        <time>2014-05-17T13:21:33Z</time>
      </trkpt>
      <trkpt lat="45.924730701372027" lon="5.934157026931644">
        <ele>517</ele>
        <time>2014-05-17T13:21:34Z</time>
      </trkpt>
      <trkpt lat="45.924527188763022" lon="5.93422181904316">
        <ele>515.79998779296875</ele>
        <time>2014-05-17T13:21:36Z</time>
      </trkpt>
      <trkpt lat="45.924319066107273" lon="5.934290885925293">
        <ele>514.5999755859375</ele>
        <time>2014-05-17T13:21:38Z</time>
      </trkpt>
      <trkpt lat="45.924210185185075" lon="5.934333382174373">
        <ele>513.79998779296875</ele>
        <time>2014-05-17T13:21:39Z</time>
      </trkpt>
      <trkpt lat="45.924100549891591" lon="5.93437428586185">
        <ele>513</ele>
        <time>2014-05-17T13:21:40Z</time>
      </trkpt>
      <trkpt lat="45.923871053382754" lon="5.934453578665853">
        <ele>511.20001220703125</ele>
        <time>2014-05-17T13:21:42Z</time>
      </trkpt>
      <trkpt lat="45.923635857179761" lon="5.93452868051827">
        <ele>509.20001220703125</ele>
        <time>2014-05-17T13:21:44Z</time>
      </trkpt>
      <trkpt lat="45.923516666516662" lon="5.934569835662842">
        <ele>508.20001220703125</ele>
        <time>2014-05-17T13:21:45Z</time>
      </trkpt>
      <trkpt lat="45.923398230224848" lon="5.934608979150653">
        <ele>507.20001220703125</ele>
        <time>2014-05-17T13:21:46Z</time>
      </trkpt>
      <trkpt lat="45.923274597153068" lon="5.934650637209415">
        <ele>507</ele>
        <time>2014-05-17T13:21:47Z</time>
      </trkpt>
      <trkpt lat="45.923033198341727" lon="5.934737641364336">
        <ele>503.60000610351562</ele>
        <time>2014-05-17T13:21:49Z</time>
      </trkpt>
      <trkpt lat="45.922419307753444" lon="5.934984823688865">
        <ele>501.79998779296875</ele>
        <time>2014-05-17T13:21:54Z</time>
      </trkpt>
      <trkpt lat="45.922039523720741" lon="5.93513754196465">
        <ele>500.39999389648438</ele>
        <time>2014-05-17T13:21:57Z</time>
      </trkpt>
      <trkpt lat="45.921907760202885" lon="5.935159921646118">
        <ele>499.39999389648437</ele>
        <time>2014-05-17T13:21:58Z</time>
      </trkpt>
      <trkpt lat="45.921775242313743" lon="5.935162184759975">
        <ele>498.60000610351562</ele>
        <time>2014-05-17T13:21:59Z</time>
      </trkpt>
      <trkpt lat="45.921385148540139" lon="5.935042575001717">
        <ele>498.79998779296875</ele>
        <time>2014-05-17T13:22:02Z</time>
      </trkpt>
      <trkpt lat="45.921257324516773" lon="5.934995971620083">
        <ele>498.39999389648438</ele>
        <time>2014-05-17T13:22:03Z</time>
      </trkpt>
      <trkpt lat="45.92100745998323" lon="5.934946183115244">
        <ele>496.79998779296875</ele>
        <time>2014-05-17T13:22:05Z</time>
      </trkpt>
      <trkpt lat="45.920888688415289" lon="5.934958504512906">
        <ele>496.60000610351562</ele>
        <time>2014-05-17T13:22:06Z</time>
      </trkpt>
      <trkpt lat="45.920677715912461" lon="5.935146510601044">
        <ele>496.39999389648437</ele>
        <time>2014-05-17T13:22:08Z</time>
      </trkpt>
      <trkpt lat="45.920587610453367" lon="5.935270646587014">
        <ele>495.60000610351562</ele>
        <time>2014-05-17T13:22:09Z</time>
      </trkpt>
      <trkpt lat="45.920499684289098" lon="5.93539017252624">
        <ele>494.39999389648437</ele>
        <time>2014-05-17T13:22:10Z</time>
      </trkpt>
      <trkpt lat="45.920408740639687" lon="5.935504753142595">
        <ele>493</ele>
        <time>2014-05-17T13:22:11Z</time>
      </trkpt>
      <trkpt lat="45.920313857495785" lon="5.935621345415711">
        <ele>491.79998779296875</ele>
        <time>2014-05-17T13:22:12Z</time>
      </trkpt>
      <trkpt lat="45.920215034857392" lon="5.935728130862117">
        <ele>490.60000610351562</ele>
        <time>2014-05-17T13:22:13Z</time>
      </trkpt>
      <trkpt lat="45.920004146173596" lon="5.935901300981641">
        <ele>490</ele>
        <time>2014-05-17T13:22:15Z</time>
      </trkpt>
      <trkpt lat="45.919895516708493" lon="5.935969864949584">
        <ele>490.20001220703125</ele>
        <time>2014-05-17T13:22:16Z</time>
      </trkpt>
      <trkpt lat="45.919559905305505" lon="5.93613289296627">
        <ele>489</ele>
        <time>2014-05-17T13:22:19Z</time>
      </trkpt>
      <trkpt lat="45.919335773214698" lon="5.936239510774612">
        <ele>488</ele>
        <time>2014-05-17T13:22:21Z</time>
      </trkpt>
      <trkpt lat="45.919107031077147" lon="5.936330370604992">
        <ele>486.60000610351562</ele>
        <time>2014-05-17T13:22:23Z</time>
      </trkpt>
      <trkpt lat="45.918861273676157" lon="5.936426091939211">
        <ele>485.20001220703125</ele>
        <time>2014-05-17T13:22:25Z</time>
      </trkpt>
      <trkpt lat="45.918731018900871" lon="5.93644511885941">
        <ele>484.39999389648437</ele>
        <time>2014-05-17T13:22:26Z</time>
      </trkpt>
      <trkpt lat="45.918595818802714" lon="5.936424415558577">
        <ele>483.79998779296875</ele>
        <time>2014-05-17T13:22:27Z</time>
      </trkpt>
      <trkpt lat="45.918462630361319" lon="5.936361299827695">
        <ele>482.60000610351562</ele>
        <time>2014-05-17T13:22:28Z</time>
      </trkpt>
      <trkpt lat="45.918332962319255" lon="5.936288628727198">
        <ele>481</ele>
        <time>2014-05-17T13:22:29Z</time>
      </trkpt>
      <trkpt lat="45.91820128262043" lon="5.936222411692143">
        <ele>479.39999389648437</ele>
        <time>2014-05-17T13:22:30Z</time>
      </trkpt>
      <trkpt lat="45.918069100007415" lon="5.936152255162597">
        <ele>477.79998779296875</ele>
        <time>2014-05-17T13:22:31Z</time>
      </trkpt>
      <trkpt lat="45.917943539097905" lon="5.936077237129211">
        <ele>476.60000610351562</ele>
        <time>2014-05-17T13:22:32Z</time>
      </trkpt>
      <trkpt lat="45.917555373162031" lon="5.93586509115994">
        <ele>475.20001220703125</ele>
        <time>2014-05-17T13:22:35Z</time>
      </trkpt>
      <trkpt lat="45.917425118386745" lon="5.935789486393333">
        <ele>473.60000610351562</ele>
        <time>2014-05-17T13:22:36Z</time>
      </trkpt>
      <trkpt lat="45.917291259393096" lon="5.935715306550264">
        <ele>471.39999389648437</ele>
        <time>2014-05-17T13:22:37Z</time>
      </trkpt>
      <trkpt lat="45.916890017688274" lon="5.93549519777298">
        <ele>469.60000610351562</ele>
        <time>2014-05-17T13:22:40Z</time>
      </trkpt>
      <trkpt lat="45.916757332161069" lon="5.935413893312216">
        <ele>468.60000610351562</ele>
        <time>2014-05-17T13:22:41Z</time>
      </trkpt>
      <trkpt lat="45.916626993566751" lon="5.935331918299198">
        <ele>467.60000610351562</ele>
        <time>2014-05-17T13:22:42Z</time>
      </trkpt>
      <trkpt lat="45.916366316378117" lon="5.93515707179904">
        <ele>465.60000610351562</ele>
        <time>2014-05-17T13:22:44Z</time>
      </trkpt>
      <trkpt lat="45.91623798944056" lon="5.935061434283853">
        <ele>464.20001220703125</ele>
        <time>2014-05-17T13:22:45Z</time>
      </trkpt>
      <trkpt lat="45.916112009435892" lon="5.934954565018416">
        <ele>462.79998779296875</ele>
        <time>2014-05-17T13:22:46Z</time>
      </trkpt>
      <trkpt lat="45.915987119078636" lon="5.93483897857368">
        <ele>461.39999389648438</ele>
        <time>2014-05-17T13:22:47Z</time>
      </trkpt>
      <trkpt lat="45.915863653644919" lon="5.934720877557993">
        <ele>460.20001220703125</ele>
        <time>2014-05-17T13:22:48Z</time>
      </trkpt>
      <trkpt lat="45.915608257055283" lon="5.934482244774699">
        <ele>458.60000610351562</ele>
        <time>2014-05-17T13:22:50Z</time>
      </trkpt>
      <trkpt lat="45.91548110358417" lon="5.934359198436141">
        <ele>457.39999389648437</ele>
        <time>2014-05-17T13:22:51Z</time>
      </trkpt>
      <trkpt lat="45.915352189913392" lon="5.934237828478217">
        <ele>456.20001220703125</ele>
        <time>2014-05-17T13:22:52Z</time>
      </trkpt>
      <trkpt lat="45.915221935138106" lon="5.934116877615452">
        <ele>454.60000610351562</ele>
        <time>2014-05-17T13:22:53Z</time>
      </trkpt>
      <trkpt lat="45.91508774086833" lon="5.934000033885241">
        <ele>453.20001220703125</ele>
        <time>2014-05-17T13:22:54Z</time>
      </trkpt>
      <trkpt lat="45.914946673437953" lon="5.933899115771055">
        <ele>452</ele>
        <time>2014-05-17T13:22:55Z</time>
      </trkpt>
      <trkpt lat="45.914647271856666" lon="5.933744553476572">
        <ele>450.20001220703125</ele>
        <time>2014-05-17T13:22:57Z</time>
      </trkpt>
      <trkpt lat="45.914493799209595" lon="5.933691412210465">
        <ele>448.79998779296875</ele>
        <time>2014-05-17T13:22:58Z</time>
      </trkpt>
      <trkpt lat="45.914342422038317" lon="5.93364430591464">
        <ele>447</ele>
        <time>2014-05-17T13:22:59Z</time>
      </trkpt>
      <trkpt lat="45.914050480350852" lon="5.933542381972075">
        <ele>446</ele>
        <time>2014-05-17T13:23:01Z</time>
      </trkpt>
      <trkpt lat="45.913502052426338" lon="5.933362422510982">
        <ele>448.20001220703125</ele>
        <time>2014-05-17T13:23:05Z</time>
      </trkpt>
      <trkpt lat="45.913247410207987" lon="5.93327977694571">
        <ele>449</ele>
        <time>2014-05-17T13:23:07Z</time>
      </trkpt>
      <trkpt lat="45.912799900397658" lon="5.933130662888289">
        <ele>449.60000610351562</ele>
        <time>2014-05-17T13:23:11Z</time>
      </trkpt>
      <trkpt lat="45.912700742483139" lon="5.933096380904317">
        <ele>450.60000610351562</ele>
        <time>2014-05-17T13:23:12Z</time>
      </trkpt>
      <trkpt lat="45.912513826042414" lon="5.933033097535372">
        <ele>452</ele>
        <time>2014-05-17T13:23:14Z</time>
      </trkpt>
      <trkpt lat="45.91226052492857" lon="5.932951457798481">
        <ele>452.79998779296875</ele>
        <time>2014-05-17T13:23:17Z</time>
      </trkpt>
      <trkpt lat="45.912180645391345" lon="5.93292941339314">
        <ele>453.20001220703125</ele>
        <time>2014-05-17T13:23:18Z</time>
      </trkpt>
      <trkpt lat="45.911786612123251" lon="5.932811396196485">
        <ele>454.20001220703125</ele>
        <time>2014-05-17T13:23:23Z</time>
      </trkpt>
      <trkpt lat="45.911567341536283" lon="5.932792872190476">
        <ele>455.39999389648437</ele>
        <time>2014-05-17T13:23:26Z</time>
      </trkpt>
      <trkpt lat="45.911353351548314" lon="5.932779209688306">
        <ele>455.60000610351562</ele>
        <time>2014-05-17T13:23:29Z</time>
      </trkpt>
      <trkpt lat="45.910869548097253" lon="5.932792956009507">
        <ele>455.60000610351562</ele>
        <time>2014-05-17T13:23:36Z</time>
      </trkpt>
      <trkpt lat="45.91031089425087" lon="5.932820113375783">
        <ele>456</ele>
        <time>2014-05-17T13:23:44Z</time>
      </trkpt>
      <trkpt lat="45.910233529284596" lon="5.932819778099656">
        <ele>456</ele>
        <time>2014-05-17T13:23:45Z</time>
      </trkpt>
      <trkpt lat="45.909643024206161" lon="5.932833608239889">
        <ele>454.79998779296875</ele>
        <time>2014-05-17T13:23:52Z</time>
      </trkpt>
      <trkpt lat="45.909052267670631" lon="5.932857412844896">
        <ele>454.60000610351562</ele>
        <time>2014-05-17T13:23:59Z</time>
      </trkpt>
      <trkpt lat="45.908970711752772" lon="5.932857329025865">
        <ele>454.60000610351562</ele>
        <time>2014-05-17T13:24:00Z</time>
      </trkpt>
      <trkpt lat="45.908889658749104" lon="5.932866632938385">
        <ele>454.20001220703125</ele>
        <time>2014-05-17T13:24:01Z</time>
      </trkpt>
      <trkpt lat="45.908507611602545" lon="5.932879205793142">
        <ele>454.79998779296875</ele>
        <time>2014-05-17T13:24:06Z</time>
      </trkpt>
      <trkpt lat="45.90828993357718" lon="5.932890856638551">
        <ele>455.60000610351562</ele>
        <time>2014-05-17T13:24:09Z</time>
      </trkpt>
      <trkpt lat="45.907931439578533" lon="5.932907704263926">
        <ele>456.60000610351562</ele>
        <time>2014-05-17T13:24:14Z</time>
      </trkpt>
      <trkpt lat="45.90756724588573" lon="5.933040222153068">
        <ele>455.39999389648437</ele>
        <time>2014-05-17T13:24:19Z</time>
      </trkpt>
      <trkpt lat="45.907498933374882" lon="5.933098644018173">
        <ele>454.79998779296875</ele>
        <time>2014-05-17T13:24:20Z</time>
      </trkpt>
      <trkpt lat="45.907317716628313" lon="5.933306263759732">
        <ele>454.39999389648437</ele>
        <time>2014-05-17T13:24:23Z</time>
      </trkpt>
      <trkpt lat="45.907023008912802" lon="5.933636091649532">
        <ele>455.39999389648437</ele>
        <time>2014-05-17T13:24:28Z</time>
      </trkpt>
      <trkpt lat="45.906739281490445" lon="5.93397606164217">
        <ele>455.60000610351562</ele>
        <time>2014-05-17T13:24:33Z</time>
      </trkpt>
      <trkpt lat="45.906378524377942" lon="5.934318713843823">
        <ele>455.39999389648437</ele>
        <time>2014-05-17T13:24:39Z</time>
      </trkpt>
      <trkpt lat="45.906307781115174" lon="5.934349475428462">
        <ele>455.20001220703125</ele>
        <time>2014-05-17T13:24:40Z</time>
      </trkpt>
      <trkpt lat="45.906082224100828" lon="5.934394905343652">
        <ele>455</ele>
        <time>2014-05-17T13:24:43Z</time>
      </trkpt>
      <trkpt lat="45.905596828088164" lon="5.934397839009762">
        <ele>454.60000610351562</ele>
        <time>2014-05-17T13:24:49Z</time>
      </trkpt>
      <trkpt lat="45.905511667951941" lon="5.934404795989394">
        <ele>454.20001220703125</ele>
        <time>2014-05-17T13:24:50Z</time>
      </trkpt>
      <trkpt lat="45.904907416552305" lon="5.934450812637806">
        <ele>454.20001220703125</ele>
        <time>2014-05-17T13:24:57Z</time>
      </trkpt>
      <trkpt lat="45.904291598126292" lon="5.934497080743313">
        <ele>453.60000610351562</ele>
        <time>2014-05-17T13:25:04Z</time>
      </trkpt>
      <trkpt lat="45.903940564021468" lon="5.93452331610024">
        <ele>453.39999389648437</ele>
        <time>2014-05-17T13:25:08Z</time>
      </trkpt>
      <trkpt lat="45.90385221876204" lon="5.934529015794396">
        <ele>453</ele>
        <time>2014-05-17T13:25:09Z</time>
      </trkpt>
      <trkpt lat="45.903250481933355" lon="5.934569332748652">
        <ele>453</ele>
        <time>2014-05-17T13:25:16Z</time>
      </trkpt>
      <trkpt lat="45.903166327625513" lon="5.93457754701376">
        <ele>453</ele>
        <time>2014-05-17T13:25:17Z</time>
      </trkpt>
      <trkpt lat="45.902691325172782" lon="5.934604369103909">
        <ele>453.39999389648437</ele>
        <time>2014-05-17T13:25:23Z</time>
      </trkpt>
      <trkpt lat="45.902170976623893" lon="5.934640411287546">
        <ele>453.20001220703125</ele>
        <time>2014-05-17T13:25:30Z</time>
      </trkpt>
      <trkpt lat="45.901668565347791" lon="5.934679722413421">
        <ele>452.60000610351562</ele>
        <time>2014-05-17T13:25:37Z</time>
      </trkpt>
      <trkpt lat="45.901306886225939" lon="5.934644434601069">
        <ele>454</ele>
        <time>2014-05-17T13:25:43Z</time>
      </trkpt>
      <trkpt lat="45.901116533204913" lon="5.934631191194058">
        <ele>453.79998779296875</ele>
        <time>2014-05-17T13:25:47Z</time>
      </trkpt>
      <trkpt lat="45.900903632864356" lon="5.934686930850148">
        <ele>454</ele>
        <time>2014-05-17T13:25:51Z</time>
      </trkpt>
      <trkpt lat="45.900789638981223" lon="5.934706125408411">
        <ele>454.20001220703125</ele>
        <time>2014-05-17T13:25:53Z</time>
      </trkpt>
      <trkpt lat="45.900296866893768" lon="5.934737892821431">
        <ele>453.79998779296875</ele>
        <time>2014-05-17T13:26:01Z</time>
      </trkpt>
      <trkpt lat="45.90010492131114" lon="5.934748873114586">
        <ele>453.39999389648437</ele>
        <time>2014-05-17T13:26:04Z</time>
      </trkpt>
      <trkpt lat="45.899977935478091" lon="5.934765301644802">
        <ele>452.79998779296875</ele>
        <time>2014-05-17T13:26:06Z</time>
      </trkpt>
      <trkpt lat="45.899860505014658" lon="5.934775108471513">
        <ele>452.60000610351562</ele>
        <time>2014-05-17T13:26:08Z</time>
      </trkpt>
      <trkpt lat="45.899464460089803" lon="5.934799080714583">
        <ele>453</ele>
        <time>2014-05-17T13:26:15Z</time>
      </trkpt>
      <trkpt lat="45.898944865912199" lon="5.934848114848137">
        <ele>453.60000610351562</ele>
        <time>2014-05-17T13:26:24Z</time>
      </trkpt>
      <trkpt lat="45.898387720808387" lon="5.934857586398721">
        <ele>452.79998779296875</ele>
        <time>2014-05-17T13:26:33Z</time>
      </trkpt>
      <trkpt lat="45.897817835211754" lon="5.934888599440455">
        <ele>453.20001220703125</ele>
        <time>2014-05-17T13:26:42Z</time>
      </trkpt>
      <trkpt lat="45.897755473852158" lon="5.934894131496549">
        <ele>453</ele>
        <time>2014-05-17T13:26:43Z</time>
      </trkpt>
      <trkpt lat="45.897311735898256" lon="5.934925060719252">
        <ele>453.79998779296875</ele>
        <time>2014-05-17T13:26:50Z</time>
      </trkpt>
      <trkpt lat="45.897186761721969" lon="5.934933610260487">
        <ele>453.79998779296875</ele>
        <time>2014-05-17T13:26:52Z</time>
      </trkpt>
      <trkpt lat="45.896622240543365" lon="5.934968143701553">
        <ele>454</ele>
        <time>2014-05-17T13:27:01Z</time>
      </trkpt>
      <trkpt lat="45.896558370441198" lon="5.934969903901219">
        <ele>454</ele>
        <time>2014-05-17T13:27:02Z</time>
      </trkpt>
      <trkpt lat="45.896097533404827" lon="5.934992618858814">
        <ele>455</ele>
        <time>2014-05-17T13:27:09Z</time>
      </trkpt>
      <trkpt lat="45.895604090765119" lon="5.93502321280539">
        <ele>454.20001220703125</ele>
        <time>2014-05-17T13:27:16Z</time>
      </trkpt>
      <trkpt lat="45.895307958126068" lon="5.935038886964321">
        <ele>453.79998779296875</ele>
        <time>2014-05-17T13:27:20Z</time>
      </trkpt>
      <trkpt lat="45.895074605941772" lon="5.935040647163987">
        <ele>452.20001220703125</ele>
        <time>2014-05-17T13:27:23Z</time>
      </trkpt>
      <trkpt lat="45.894829938188195" lon="5.935018183663487">
        <ele>451</ele>
        <time>2014-05-17T13:27:26Z</time>
      </trkpt>
      <trkpt lat="45.894584264606237" lon="5.935006616637111">
        <ele>450.60000610351562</ele>
        <time>2014-05-17T13:27:29Z</time>
      </trkpt>
      <trkpt lat="45.894501954317093" lon="5.935021955519915">
        <ele>450</ele>
        <time>2014-05-17T13:27:30Z</time>
      </trkpt>
      <trkpt lat="45.894342279061675" lon="5.935082389041781">
        <ele>448.60000610351562</ele>
        <time>2014-05-17T13:27:32Z</time>
      </trkpt>
      <trkpt lat="45.894267847761512" lon="5.935128489509225">
        <ele>448.39999389648437</ele>
        <time>2014-05-17T13:27:33Z</time>
      </trkpt>
      <trkpt lat="45.894114626571536" lon="5.935243405401707">
        <ele>448</ele>
        <time>2014-05-17T13:27:35Z</time>
      </trkpt>
      <trkpt lat="45.89403516612947" lon="5.935304760932922">
        <ele>447.60000610351562</ele>
        <time>2014-05-17T13:27:36Z</time>
      </trkpt>
      <trkpt lat="45.893883034586906" lon="5.935428477823734">
        <ele>446.60000610351562</ele>
        <time>2014-05-17T13:27:38Z</time>
      </trkpt>
      <trkpt lat="45.893801394850016" lon="5.935485726222396">
        <ele>446.20001220703125</ele>
        <time>2014-05-17T13:27:39Z</time>
      </trkpt>
      <trkpt lat="45.893529150635004" lon="5.935603743419051">
        <ele>445.39999389648437</ele>
        <time>2014-05-17T13:27:42Z</time>
      </trkpt>
      <trkpt lat="45.893437284976244" lon="5.9356340020895">
        <ele>444.79998779296875</ele>
        <time>2014-05-17T13:27:43Z</time>
      </trkpt>
      <trkpt lat="45.89314735494554" lon="5.935736428946257">
        <ele>443.79998779296875</ele>
        <time>2014-05-17T13:27:46Z</time>
      </trkpt>
      <trkpt lat="45.893050879240036" lon="5.935785630717874">
        <ele>443.39999389648437</ele>
        <time>2014-05-17T13:27:47Z</time>
      </trkpt>
      <trkpt lat="45.892853569239378" lon="5.935901720076799">
        <ele>442.20001220703125</ele>
        <time>2014-05-17T13:27:49Z</time>
      </trkpt>
      <trkpt lat="45.89275642298162" lon="5.935963410884142">
        <ele>441</ele>
        <time>2014-05-17T13:27:50Z</time>
      </trkpt>
      <trkpt lat="45.892455261200666" lon="5.936147812753916">
        <ele>441</ele>
        <time>2014-05-17T13:27:53Z</time>
      </trkpt>
      <trkpt lat="45.892139431089163" lon="5.936332968994975">
        <ele>439.79998779296875</ele>
        <time>2014-05-17T13:27:56Z</time>
      </trkpt>
      <trkpt lat="45.891820751130581" lon="5.936514856293798">
        <ele>438.39999389648437</ele>
        <time>2014-05-17T13:27:59Z</time>
      </trkpt>
      <trkpt lat="45.891715306788683" lon="5.93657897785306">
        <ele>437.79998779296875</ele>
        <time>2014-05-17T13:28:00Z</time>
      </trkpt>
      <trkpt lat="45.89161011390388" lon="5.93664301559329">
        <ele>437</ele>
        <time>2014-05-17T13:28:01Z</time>
      </trkpt>
      <trkpt lat="45.89150458574295" lon="5.936704706400633">
        <ele>436</ele>
        <time>2014-05-17T13:28:02Z</time>
      </trkpt>
      <trkpt lat="45.890965880826116" lon="5.937001928687096">
        <ele>435.20001220703125</ele>
        <time>2014-05-17T13:28:07Z</time>
      </trkpt>
      <trkpt lat="45.890857838094234" lon="5.937063284218311">
        <ele>434.60000610351562</ele>
        <time>2014-05-17T13:28:08Z</time>
      </trkpt>
      <trkpt lat="45.890535805374384" lon="5.937241734936833">
        <ele>434.20001220703125</ele>
        <time>2014-05-17T13:28:11Z</time>
      </trkpt>
      <trkpt lat="45.890006152912974" lon="5.937539963051677">
        <ele>433.79998779296875</ele>
        <time>2014-05-17T13:28:16Z</time>
      </trkpt>
      <trkpt lat="45.889607425779104" lon="5.937824277207255">
        <ele>433.60000610351562</ele>
        <time>2014-05-17T13:28:20Z</time>
      </trkpt>
      <trkpt lat="45.889517404139042" lon="5.937914382666349">
        <ele>433.39999389648437</ele>
        <time>2014-05-17T13:28:21Z</time>
      </trkpt>
      <trkpt lat="45.889286315068603" lon="5.938195679336786">
        <ele>432.60000610351562</ele>
        <time>2014-05-17T13:28:24Z</time>
      </trkpt>
      <trkpt lat="45.888877864927053" lon="5.93879490159452">
        <ele>433.60000610351562</ele>
        <time>2014-05-17T13:28:30Z</time>
      </trkpt>
      <trkpt lat="45.888438737019897" lon="5.939294043928385">
        <ele>433</ele>
        <time>2014-05-17T13:28:36Z</time>
      </trkpt>
      <trkpt lat="45.888099605217576" lon="5.939459670335054">
        <ele>432.39999389648437</ele>
        <time>2014-05-17T13:28:40Z</time>
      </trkpt>
      <trkpt lat="45.887842532247305" lon="5.939559331163764">
        <ele>432.20001220703125</ele>
        <time>2014-05-17T13:28:43Z</time>
      </trkpt>
      <trkpt lat="45.887491665780544" lon="5.939705679193139">
        <ele>431.79998779296875</ele>
        <time>2014-05-17T13:28:47Z</time>
      </trkpt>
      <trkpt lat="45.887317238375545" lon="5.939784720540047">
        <ele>431</ele>
        <time>2014-05-17T13:28:49Z</time>
      </trkpt>
      <trkpt lat="45.886719021946192" lon="5.940036345273256">
        <ele>431</ele>
        <time>2014-05-17T13:28:56Z</time>
      </trkpt>
      <trkpt lat="45.886446107178926" lon="5.940100131556392">
        <ele>430.60000610351562</ele>
        <time>2014-05-17T13:28:59Z</time>
      </trkpt>
      <trkpt lat="45.88626841083169" lon="5.940100299194455">
        <ele>430.20001220703125</ele>
        <time>2014-05-17T13:29:01Z</time>
      </trkpt>
      <trkpt lat="45.886182161048055" lon="5.940069202333689">
        <ele>430</ele>
        <time>2014-05-17T13:29:02Z</time>
      </trkpt>
      <trkpt lat="45.886016702279449" lon="5.939999213442206">
        <ele>429.60000610351562</ele>
        <time>2014-05-17T13:29:04Z</time>
      </trkpt>
      <trkpt lat="45.8857446257025" lon="5.939740212634206">
        <ele>428.79998779296875</ele>
        <time>2014-05-17T13:29:08Z</time>
      </trkpt>
      <trkpt lat="45.88556089438498" lon="5.939380880445242">
        <ele>428.20001220703125</ele>
        <time>2014-05-17T13:29:12Z</time>
      </trkpt>
      <trkpt lat="45.885471794754267" lon="5.939075695350766">
        <ele>428.79998779296875</ele>
        <time>2014-05-17T13:29:15Z</time>
      </trkpt>
      <trkpt lat="45.885434914380312" lon="5.938864722847939">
        <ele>428.79998779296875</ele>
        <time>2014-05-17T13:29:17Z</time>
      </trkpt>
      <trkpt lat="45.885432148352265" lon="5.93875483609736">
        <ele>428.79998779296875</ele>
        <time>2014-05-17T13:29:18Z</time>
      </trkpt>
      <trkpt lat="45.885461904108524" lon="5.938429618254304">
        <ele>428.60000610351562</ele>
        <time>2014-05-17T13:29:21Z</time>
      </trkpt>
      <trkpt lat="45.885474812239408" lon="5.938325766474009">
        <ele>428.60000610351562</ele>
        <time>2014-05-17T13:29:22Z</time>
      </trkpt>
      <trkpt lat="45.88551546446979" lon="5.938016222789884">
        <ele>427.60000610351562</ele>
        <time>2014-05-17T13:29:25Z</time>
      </trkpt>
      <trkpt lat="45.885516805574298" lon="5.937816230580211">
        <ele>428</ele>
        <time>2014-05-17T13:29:27Z</time>
      </trkpt>
      <trkpt lat="45.885511776432395" lon="5.937718329951167">
        <ele>428</ele>
        <time>2014-05-17T13:29:28Z</time>
      </trkpt>
      <trkpt lat="45.885497778654099" lon="5.937621183693409">
        <ele>428.39999389648437</ele>
        <time>2014-05-17T13:29:29Z</time>
      </trkpt>
      <trkpt lat="45.885441955178976" lon="5.937449773773551">
        <ele>428.60000610351562</ele>
        <time>2014-05-17T13:29:31Z</time>
      </trkpt>
      <trkpt lat="45.885361237451434" lon="5.937297726050019">
        <ele>428.79998779296875</ele>
        <time>2014-05-17T13:29:33Z</time>
      </trkpt>
      <trkpt lat="45.885212458670139" lon="5.937103852629662">
        <ele>427.60000610351562</ele>
        <time>2014-05-17T13:29:36Z</time>
      </trkpt>
      <trkpt lat="45.884828148409724" lon="5.936661204323173">
        <ele>428.60000610351562</ele>
        <time>2014-05-17T13:29:44Z</time>
      </trkpt>
      <trkpt lat="45.884781628847122" lon="5.936608985066414">
        <ele>429</ele>
        <time>2014-05-17T13:29:45Z</time>
      </trkpt>
      <trkpt lat="45.884655816480517" lon="5.936423242092133">
        <ele>429.39999389648437</ele>
        <time>2014-05-17T13:29:48Z</time>
      </trkpt>
      <trkpt lat="45.884621869772673" lon="5.936353169381619">
        <ele>429.39999389648437</ele>
        <time>2014-05-17T13:29:49Z</time>
      </trkpt>
      <trkpt lat="45.884550539776683" lon="5.936118559911847">
        <ele>429</ele>
        <time>2014-05-17T13:29:52Z</time>
      </trkpt>
      <trkpt lat="45.884525310248137" lon="5.93595159240067">
        <ele>429.20001220703125</ele>
        <time>2014-05-17T13:29:54Z</time>
      </trkpt>
      <trkpt lat="45.884509636089206" lon="5.935614388436079">
        <ele>430</ele>
        <time>2014-05-17T13:29:58Z</time>
      </trkpt>
      <trkpt lat="45.884484741836786" lon="5.935273161157966">
        <ele>429.20001220703125</ele>
        <time>2014-05-17T13:30:02Z</time>
      </trkpt>
      <trkpt lat="45.884437551721931" lon="5.93503980897367">
        <ele>429</ele>
        <time>2014-05-17T13:30:05Z</time>
      </trkpt>
      <trkpt lat="45.884383153170347" lon="5.934901926666498">
        <ele>429.39999389648437</ele>
        <time>2014-05-17T13:30:07Z</time>
      </trkpt>
      <trkpt lat="45.884307883679867" lon="5.934782484546304">
        <ele>430</ele>
        <time>2014-05-17T13:30:09Z</time>
      </trkpt>
      <trkpt lat="45.884257592260838" lon="5.934740407392383">
        <ele>430</ele>
        <time>2014-05-17T13:30:10Z</time>
      </trkpt>
      <trkpt lat="45.884151225909591" lon="5.93466991558671">
        <ele>430.20001220703125</ele>
        <time>2014-05-17T13:30:12Z</time>
      </trkpt>
      <trkpt lat="45.884038573130965" lon="5.934633202850819">
        <ele>430.20001220703125</ele>
        <time>2014-05-17T13:30:14Z</time>
      </trkpt>
      <trkpt lat="45.883979564532638" lon="5.934630101546645">
        <ele>430.39999389648437</ele>
        <time>2014-05-17T13:30:15Z</time>
      </trkpt>
      <trkpt lat="45.883919466286898" lon="5.934638986364007">
        <ele>430.39999389648437</ele>
        <time>2014-05-17T13:30:16Z</time>
      </trkpt>
      <trkpt lat="45.883735902607441" lon="5.934676621109247">
        <ele>430.39999389648437</ele>
        <time>2014-05-17T13:30:19Z</time>
      </trkpt>
      <trkpt lat="45.8836136944592" lon="5.934711657464504">
        <ele>430.39999389648437</ele>
        <time>2014-05-17T13:30:21Z</time>
      </trkpt>
      <trkpt lat="45.883067697286606" lon="5.934866135939956">
        <ele>430.79998779296875</ele>
        <time>2014-05-17T13:30:30Z</time>
      </trkpt>
      <trkpt lat="45.882535027340055" lon="5.935012483969331">
        <ele>431</ele>
        <time>2014-05-17T13:30:39Z</time>
      </trkpt>
      <trkpt lat="45.882471408694983" lon="5.935029918327928">
        <ele>431</ele>
        <time>2014-05-17T13:30:40Z</time>
      </trkpt>
      <trkpt lat="45.881955502554774" lon="5.935174338519573">
        <ele>431</ele>
        <time>2014-05-17T13:30:48Z</time>
      </trkpt>
      <trkpt lat="45.881642354652286" lon="5.935316244140267">
        <ele>431</ele>
        <time>2014-05-17T13:30:53Z</time>
      </trkpt>
      <trkpt lat="45.881144804880023" lon="5.935652358457446">
        <ele>430.60000610351562</ele>
        <time>2014-05-17T13:31:01Z</time>
      </trkpt>
      <trkpt lat="45.880814893171191" lon="5.935999117791653">
        <ele>431</ele>
        <time>2014-05-17T13:31:07Z</time>
      </trkpt>
      <trkpt lat="45.880554467439651" lon="5.936319641768932">
        <ele>430</ele>
        <time>2014-05-17T13:31:12Z</time>
      </trkpt>
      <trkpt lat="45.880456482991576" lon="5.936439000070095">
        <ele>430.20001220703125</ele>
        <time>2014-05-17T13:31:14Z</time>
      </trkpt>
      <trkpt lat="45.880310218781233" lon="5.936617534607649">
        <ele>431.39999389648437</ele>
        <time>2014-05-17T13:31:17Z</time>
      </trkpt>
      <trkpt lat="45.879991957917809" lon="5.936989774927497">
        <ele>432.20001220703125</ele>
        <time>2014-05-17T13:31:23Z</time>
      </trkpt>
      <trkpt lat="45.879619130864739" lon="5.93737400136888">
        <ele>431</ele>
        <time>2014-05-17T13:31:30Z</time>
      </trkpt>
      <trkpt lat="45.879372954368591" lon="5.937556475400925">
        <ele>431.39999389648437</ele>
        <time>2014-05-17T13:31:35Z</time>
      </trkpt>
      <trkpt lat="45.879320651292801" lon="5.937585141509771">
        <ele>431.20001220703125</ele>
        <time>2014-05-17T13:31:36Z</time>
      </trkpt>
      <trkpt lat="45.879000127315521" lon="5.937789492309094">
        <ele>430.79998779296875</ele>
        <time>2014-05-17T13:31:42Z</time>
      </trkpt>
      <trkpt lat="45.878943046554923" lon="5.937817906960845">
        <ele>431</ele>
        <time>2014-05-17T13:31:43Z</time>
      </trkpt>
      <trkpt lat="45.878700893372297" lon="5.937936846166849">
        <ele>430.39999389648437</ele>
        <time>2014-05-17T13:31:47Z</time>
      </trkpt>
      <trkpt lat="45.878197392448783" lon="5.93820221722126">
        <ele>431</ele>
        <time>2014-05-17T13:31:55Z</time>
      </trkpt>
      <trkpt lat="45.877747032791376" lon="5.938430121168494">
        <ele>431.39999389648437</ele>
        <time>2014-05-17T13:32:02Z</time>
      </trkpt>
      <trkpt lat="45.877618789672852" lon="5.938495667651296">
        <ele>431.79998779296875</ele>
        <time>2014-05-17T13:32:04Z</time>
      </trkpt>
      <trkpt lat="45.877103051170707" lon="5.938756596297026">
        <ele>432</ele>
        <time>2014-05-17T13:32:12Z</time>
      </trkpt>
      <trkpt lat="45.876971539109945" lon="5.938819628208876">
        <ele>432.60000610351562</ele>
        <time>2014-05-17T13:32:14Z</time>
      </trkpt>
      <trkpt lat="45.876453034579754" lon="5.939079718664289">
        <ele>433.39999389648437</ele>
        <time>2014-05-17T13:32:22Z</time>
      </trkpt>
      <trkpt lat="45.876196213066578" lon="5.939208464697003">
        <ele>433.20001220703125</ele>
        <time>2014-05-17T13:32:26Z</time>
      </trkpt>
      <trkpt lat="45.875704698264599" lon="5.939452545717359">
        <ele>433</ele>
        <time>2014-05-17T13:32:34Z</time>
      </trkpt>
      <trkpt lat="45.87553421035409" lon="5.9395298268646">
        <ele>433.79998779296875</ele>
        <time>2014-05-17T13:32:37Z</time>
      </trkpt>
      <trkpt lat="45.87525668554008" lon="5.939655136317015">
        <ele>433.79998779296875</ele>
        <time>2014-05-17T13:32:42Z</time>
      </trkpt>
      <trkpt lat="45.875057950615883" lon="5.939751612022519">
        <ele>434.60000610351562</ele>
        <time>2014-05-17T13:32:46Z</time>
      </trkpt>
      <trkpt lat="45.87496692314744" lon="5.939786145463586">
        <ele>434.20001220703125</ele>
        <time>2014-05-17T13:32:48Z</time>
      </trkpt>
      <trkpt lat="45.874921409413218" lon="5.939794192090631">
        <ele>434.20001220703125</ele>
        <time>2014-05-17T13:32:49Z</time>
      </trkpt>
      <trkpt lat="45.874845720827579" lon="5.939809363335371">
        <ele>434.60000610351562</ele>
        <time>2014-05-17T13:32:51Z</time>
      </trkpt>
      <trkpt lat="45.874782018363476" lon="5.939780361950398">
        <ele>434.39999389648437</ele>
        <time>2014-05-17T13:33:08Z</time>
      </trkpt>
      <trkpt lat="45.874716388061643" lon="5.939777679741383">
        <ele>434.20001220703125</ele>
        <time>2014-05-17T13:33:11Z</time>
      </trkpt>
      <trkpt lat="45.874538775533438" lon="5.939805507659912">
        <ele>433.60000610351562</ele>
        <time>2014-05-17T13:33:18Z</time>
      </trkpt>
      <trkpt lat="45.874477922916412" lon="5.93975655734539">
        <ele>433.39999389648437</ele>
        <time>2014-05-17T13:33:21Z</time>
      </trkpt>
      <trkpt lat="45.874468116089702" lon="5.939731160178781">
        <ele>433.20001220703125</ele>
        <time>2014-05-17T13:33:22Z</time>
      </trkpt>
      <trkpt lat="45.874458309262991" lon="5.939640551805496">
        <ele>433.79998779296875</ele>
        <time>2014-05-17T13:33:26Z</time>
      </trkpt>
      <trkpt lat="45.874464847147465" lon="5.939625212922692">
        <ele>433.79998779296875</ele>
        <time>2014-05-17T13:33:27Z</time>
      </trkpt>
      <trkpt lat="45.87445680052042" lon="5.939561678096652">
        <ele>433.39999389648437</ele>
        <time>2014-05-17T13:35:37Z</time>
      </trkpt>
      <trkpt lat="45.874458560720086" lon="5.939528485760093">
        <ele>434</ele>
        <time>2014-05-17T13:41:33Z</time>
      </trkpt>
      <trkpt lat="45.874515054747462" lon="5.939536783844233">
        <ele>434</ele>
        <time>2014-05-17T13:41:36Z</time>
      </trkpt>
      <trkpt lat="45.874561071395874" lon="5.939525132998824">
        <ele>434</ele>
        <time>2014-05-17T13:41:38Z</time>
      </trkpt>
      <trkpt lat="45.8746287971735" lon="5.93947266228497">
        <ele>433.60000610351562</ele>
        <time>2014-05-17T13:41:41Z</time>
      </trkpt>
      <trkpt lat="45.874713538214564" lon="5.939472327008843">
        <ele>433.60000610351562</ele>
        <time>2014-05-17T13:41:44Z</time>
      </trkpt>
      <trkpt lat="45.874733738601208" lon="5.939501998946071">
        <ele>433.60000610351562</ele>
        <time>2014-05-17T13:41:45Z</time>
      </trkpt>
      <trkpt lat="45.874742455780506" lon="5.939656561240554">
        <ele>433.79998779296875</ele>
        <time>2014-05-17T13:41:49Z</time>
      </trkpt>
      <trkpt lat="45.874742371961474" lon="5.939858397468925">
        <ele>434.39999389648437</ele>
        <time>2014-05-17T13:41:54Z</time>
      </trkpt>
      <trkpt lat="45.874711694195867" lon="5.939911957830191">
        <ele>434.60000610351562</ele>
        <time>2014-05-17T13:41:56Z</time>
      </trkpt>
      <trkpt lat="45.874667018651962" lon="5.939960656687617">
        <ele>434.60000610351562</ele>
        <time>2014-05-17T13:41:58Z</time>
      </trkpt>
      <trkpt lat="45.874480940401554" lon="5.9400824457407">
        <ele>434.60000610351562</ele>
        <time>2014-05-17T13:42:04Z</time>
      </trkpt>
      <trkpt lat="45.87439083494246" lon="5.940144304186106">
        <ele>434.60000610351562</ele>
        <time>2014-05-17T13:42:06Z</time>
      </trkpt>
      <trkpt lat="45.874310452491045" lon="5.940217142924666">
        <ele>434.79998779296875</ele>
        <time>2014-05-17T13:42:08Z</time>
      </trkpt>
      <trkpt lat="45.874271811917424" lon="5.940254190936685">
        <ele>435</ele>
        <time>2014-05-17T13:42:09Z</time>
      </trkpt>
      <trkpt lat="45.873964782804251" lon="5.94054956920445">
        <ele>434.60000610351562</ele>
        <time>2014-05-17T13:42:16Z</time>
      </trkpt>
      <trkpt lat="45.873693125322461" lon="5.940937735140324">
        <ele>435</ele>
        <time>2014-05-17T13:42:23Z</time>
      </trkpt>
      <trkpt lat="45.873453738167882" lon="5.941272927448154">
        <ele>434.60000610351562</ele>
        <time>2014-05-17T13:42:29Z</time>
      </trkpt>
      <trkpt lat="45.872972114011645" lon="5.941720018163323">
        <ele>434.60000610351562</ele>
        <time>2014-05-17T13:42:38Z</time>
      </trkpt>
      <trkpt lat="45.872601885348558" lon="5.941945239901543">
        <ele>433.20001220703125</ele>
        <time>2014-05-17T13:42:44Z</time>
      </trkpt>
      <trkpt lat="45.872483784332871" lon="5.942008187994361">
        <ele>435.20001220703125</ele>
        <time>2014-05-17T13:42:46Z</time>
      </trkpt>
      <trkpt lat="45.872122524306178" lon="5.942211030051112">
        <ele>435</ele>
        <time>2014-05-17T13:42:52Z</time>
      </trkpt>
      <trkpt lat="45.871735364198685" lon="5.942404149100184">
        <ele>435.79998779296875</ele>
        <time>2014-05-17T13:42:59Z</time>
      </trkpt>
      <trkpt lat="45.871582478284836" lon="5.942462151870132">
        <ele>436.20001220703125</ele>
        <time>2014-05-17T13:43:02Z</time>
      </trkpt>
      <trkpt lat="45.871447864919901" lon="5.942500792443752">
        <ele>436.60000610351562</ele>
        <time>2014-05-17T13:43:05Z</time>
      </trkpt>
      <trkpt lat="45.871370499953628" lon="5.942530129104853">
        <ele>437.20001220703125</ele>
        <time>2014-05-17T13:43:20Z</time>
      </trkpt>
      <trkpt lat="45.871274275705218" lon="5.942610427737236">
        <ele>437</ele>
        <time>2014-05-17T13:43:24Z</time>
      </trkpt>
      <trkpt lat="45.871242675930262" lon="5.942629957571626">
        <ele>437</ele>
        <time>2014-05-17T13:43:25Z</time>
      </trkpt>
      <trkpt lat="45.871113259345293" lon="5.942735904827714">
        <ele>437.39999389648437</ele>
        <time>2014-05-17T13:43:29Z</time>
      </trkpt>
      <trkpt lat="45.871081324294209" lon="5.942770857363939">
        <ele>437.60000610351562</ele>
        <time>2014-05-17T13:43:30Z</time>
      </trkpt>
      <trkpt lat="45.870818886905909" lon="5.943120718002319">
        <ele>437.39999389648437</ele>
        <time>2014-05-17T13:43:38Z</time>
      </trkpt>
      <trkpt lat="45.870724590495229" lon="5.943295313045383">
        <ele>437.20001220703125</ele>
        <time>2014-05-17T13:43:41Z</time>
      </trkpt>
      <trkpt lat="45.870642866939306" lon="5.943479128181934">
        <ele>436.39999389648437</ele>
        <time>2014-05-17T13:43:44Z</time>
      </trkpt>
      <trkpt lat="45.870617050677538" lon="5.943538639694452">
        <ele>436.20001220703125</ele>
        <time>2014-05-17T13:43:45Z</time>
      </trkpt>
      <trkpt lat="45.870569357648492" lon="5.9436587523669">
        <ele>437</ele>
        <time>2014-05-17T13:43:47Z</time>
      </trkpt>
      <trkpt lat="45.870548151433468" lon="5.94371541403234">
        <ele>437.39999389648437</ele>
        <time>2014-05-17T13:43:48Z</time>
      </trkpt>
      <trkpt lat="45.870481012389064" lon="5.943876849487424">
        <ele>437.79998779296875</ele>
        <time>2014-05-17T13:43:51Z</time>
      </trkpt>
      <trkpt lat="45.870383027940989" lon="5.944052366539836">
        <ele>437.39999389648437</ele>
        <time>2014-05-17T13:43:55Z</time>
      </trkpt>
      <trkpt lat="45.870340028777719" lon="5.944064436480403">
        <ele>437.20001220703125</ele>
        <time>2014-05-17T13:43:56Z</time>
      </trkpt>
      <trkpt lat="45.870145484805107" lon="5.944078098982573">
        <ele>436.39999389648437</ele>
        <time>2014-05-17T13:44:00Z</time>
      </trkpt>
      <trkpt lat="45.870091002434492" lon="5.944072064012289">
        <ele>436.20001220703125</ele>
        <time>2014-05-17T13:44:01Z</time>
      </trkpt>
      <trkpt lat="45.869846334680915" lon="5.944037782028318">
        <ele>434.79998779296875</ele>
        <time>2014-05-17T13:44:05Z</time>
      </trkpt>
      <trkpt lat="45.869788583368063" lon="5.944036860018969">
        <ele>434.39999389648437</ele>
        <time>2014-05-17T13:44:06Z</time>
      </trkpt>
      <trkpt lat="45.869604349136353" lon="5.944018587470055">
        <ele>433.79998779296875</ele>
        <time>2014-05-17T13:44:09Z</time>
      </trkpt>
      <trkpt lat="45.869478620588779" lon="5.943988747894764">
        <ele>433.20001220703125</ele>
        <time>2014-05-17T13:44:11Z</time>
      </trkpt>
      <trkpt lat="45.869424305856228" lon="5.943968631327152">
        <ele>433</ele>
        <time>2014-05-17T13:44:12Z</time>
      </trkpt>
      <trkpt lat="45.869113756343722" lon="5.943872407078743">
        <ele>433</ele>
        <time>2014-05-17T13:44:18Z</time>
      </trkpt>
      <trkpt lat="45.869011664763093" lon="5.9438556432724">
        <ele>433</ele>
        <time>2014-05-17T13:44:20Z</time>
      </trkpt>
      <trkpt lat="45.868921726942062" lon="5.94391624443233">
        <ele>432.79998779296875</ele>
        <time>2014-05-17T13:44:22Z</time>
      </trkpt>
      <trkpt lat="45.868836315348744" lon="5.944087151437998">
        <ele>434.39999389648437</ele>
        <time>2014-05-17T13:44:25Z</time>
      </trkpt>
      <trkpt lat="45.868806056678295" lon="5.94419720582664">
        <ele>434.60000610351562</ele>
        <time>2014-05-17T13:44:27Z</time>
      </trkpt>
      <trkpt lat="45.868779988959432" lon="5.94429200515151">
        <ele>435.39999389648437</ele>
        <time>2014-05-17T13:44:29Z</time>
      </trkpt>
      <trkpt lat="45.868754759430885" lon="5.944381691515446">
        <ele>436</ele>
        <time>2014-05-17T13:44:31Z</time>
      </trkpt>
      <trkpt lat="45.868702875450253" lon="5.944595849141479">
        <ele>436.39999389648437</ele>
        <time>2014-05-17T13:44:36Z</time>
      </trkpt>
      <trkpt lat="45.868678819388151" lon="5.944689391180873">
        <ele>436.60000610351562</ele>
        <time>2014-05-17T13:44:38Z</time>
      </trkpt>
      <trkpt lat="45.868592150509357" lon="5.944988373667002">
        <ele>437</ele>
        <time>2014-05-17T13:44:44Z</time>
      </trkpt>
      <trkpt lat="45.868527526035905" lon="5.945204375311732">
        <ele>436.60000610351562</ele>
        <time>2014-05-17T13:44:48Z</time>
      </trkpt>
      <trkpt lat="45.868471451103687" lon="5.945365056395531">
        <ele>437</ele>
        <time>2014-05-17T13:44:51Z</time>
      </trkpt>
      <trkpt lat="45.868406156077981" lon="5.945519702509046">
        <ele>437</ele>
        <time>2014-05-17T13:44:54Z</time>
      </trkpt>
      <trkpt lat="45.868336418643594" lon="5.94564157538116">
        <ele>436.79998779296875</ele>
        <time>2014-05-17T13:44:57Z</time>
      </trkpt>
      <trkpt lat="45.86825025267899" lon="5.94573880545795">
        <ele>437.39999389648437</ele>
        <time>2014-05-17T13:45:00Z</time>
      </trkpt>
      <trkpt lat="45.868126535788178" lon="5.945781636983156">
        <ele>437.60000610351562</ele>
        <time>2014-05-17T13:45:02Z</time>
      </trkpt>
      <trkpt lat="45.867826882749796" lon="5.945853972807527">
        <ele>438.39999389648437</ele>
        <time>2014-05-17T13:45:06Z</time>
      </trkpt>
      <trkpt lat="45.867765108123422" lon="5.945878447964788">
        <ele>438.60000610351562</ele>
        <time>2014-05-17T13:45:07Z</time>
      </trkpt>
      <trkpt lat="45.867585567757487" lon="5.945956902578473">
        <ele>438.79998779296875</ele>
        <time>2014-05-17T13:45:10Z</time>
      </trkpt>
      <trkpt lat="45.867178542539477" lon="5.946130240336061">
        <ele>438.39999389648437</ele>
        <time>2014-05-17T13:45:17Z</time>
      </trkpt>
      <trkpt lat="45.86666758172214" lon="5.946360658854246">
        <ele>438.79998779296875</ele>
        <time>2014-05-17T13:45:26Z</time>
      </trkpt>
      <trkpt lat="45.866325348615646" lon="5.946508515626192">
        <ele>439.60000610351562</ele>
        <time>2014-05-17T13:45:33Z</time>
      </trkpt>
      <trkpt lat="45.865964088588953" lon="5.94668042846024">
        <ele>440.60000610351562</ele>
        <time>2014-05-17T13:45:41Z</time>
      </trkpt>
      <trkpt lat="45.865915222093463" lon="5.946702975779772">
        <ele>440.79998779296875</ele>
        <time>2014-05-17T13:45:42Z</time>
      </trkpt>
      <trkpt lat="45.865483218804002" lon="5.946883941069245">
        <ele>441.39999389648438</ele>
        <time>2014-05-17T13:45:51Z</time>
      </trkpt>
      <trkpt lat="45.865347012877464" lon="5.94695451669395">
        <ele>441.79998779296875</ele>
        <time>2014-05-17T13:45:54Z</time>
      </trkpt>
      <trkpt lat="45.865262690931559" lon="5.94699801877141">
        <ele>442.79998779296875</ele>
        <time>2014-05-17T13:45:56Z</time>
      </trkpt>
      <trkpt lat="45.865180883556604" lon="5.947034731507301">
        <ele>443.20001220703125</ele>
        <time>2014-05-17T13:45:58Z</time>
      </trkpt>
      <trkpt lat="45.864971922710538" lon="5.94712165184319">
        <ele>443.20001220703125</ele>
        <time>2014-05-17T13:46:03Z</time>
      </trkpt>
      <trkpt lat="45.864894557744265" lon="5.947125926613808">
        <ele>443.39999389648437</ele>
        <time>2014-05-17T13:46:05Z</time>
      </trkpt>
      <trkpt lat="45.864776959642768" lon="5.947003131732345">
        <ele>443.39999389648437</ele>
        <time>2014-05-17T13:46:09Z</time>
      </trkpt>
      <trkpt lat="45.864657098427415" lon="5.94680305570364">
        <ele>442.60000610351562</ele>
        <time>2014-05-17T13:46:13Z</time>
      </trkpt>
      <trkpt lat="45.864591551944613" lon="5.946700377389789">
        <ele>442</ele>
        <time>2014-05-17T13:46:15Z</time>
      </trkpt>
      <trkpt lat="45.864516701549292" lon="5.9465391933918">
        <ele>442</ele>
        <time>2014-05-17T13:46:18Z</time>
      </trkpt>
      <trkpt lat="45.864462554454803" lon="5.946368621662259">
        <ele>443</ele>
        <time>2014-05-17T13:46:21Z</time>
      </trkpt>
      <trkpt lat="45.86441645398736" lon="5.946211293339729">
        <ele>442.79998779296875</ele>
        <time>2014-05-17T13:46:24Z</time>
      </trkpt>
      <trkpt lat="45.864339675754309" lon="5.945956232026219">
        <ele>443</ele>
        <time>2014-05-17T13:46:29Z</time>
      </trkpt>
      <trkpt lat="45.864190142601728" lon="5.945614334195852">
        <ele>443.39999389648437</ele>
        <time>2014-05-17T13:46:37Z</time>
      </trkpt>
      <trkpt lat="45.864133145660162" lon="5.945568401366472">
        <ele>444.20001220703125</ele>
        <time>2014-05-17T13:46:39Z</time>
      </trkpt>
      <trkpt lat="45.864013954997063" lon="5.945526072755456">
        <ele>444.20001220703125</ele>
        <time>2014-05-17T13:46:43Z</time>
      </trkpt>
      <trkpt lat="45.86384229362011" lon="5.945588182657957">
        <ele>444.20001220703125</ele>
        <time>2014-05-17T13:46:48Z</time>
      </trkpt>
      <trkpt lat="45.863680187612772" lon="5.945784067735076">
        <ele>443.60000610351562</ele>
        <time>2014-05-17T13:46:54Z</time>
      </trkpt>
      <trkpt lat="45.863498132675886" lon="5.946027897298336">
        <ele>444</ele>
        <time>2014-05-17T13:47:01Z</time>
      </trkpt>
      <trkpt lat="45.863352287560701" lon="5.946239875629544">
        <ele>444.20001220703125</ele>
        <time>2014-05-17T13:47:07Z</time>
      </trkpt>
      <trkpt lat="45.863190097734332" lon="5.946433916687965">
        <ele>445</ele>
        <time>2014-05-17T13:47:12Z</time>
      </trkpt>
      <trkpt lat="45.863154223188758" lon="5.946473563089967">
        <ele>445.20001220703125</ele>
        <time>2014-05-17T13:47:13Z</time>
      </trkpt>
      <trkpt lat="45.862943921238184" lon="5.946710854768753">
        <ele>445.39999389648437</ele>
        <time>2014-05-17T13:47:19Z</time>
      </trkpt>
      <trkpt lat="45.862843254581094" lon="5.946824261918664">
        <ele>445.60000610351562</ele>
        <time>2014-05-17T13:47:22Z</time>
      </trkpt>
      <trkpt lat="45.862758429720998" lon="5.946886288002133">
        <ele>445.39999389648437</ele>
        <time>2014-05-17T13:47:24Z</time>
      </trkpt>
      <trkpt lat="45.862476965412498" lon="5.947064235806465">
        <ele>445</ele>
        <time>2014-05-17T13:47:30Z</time>
      </trkpt>
      <trkpt lat="45.862416615709662" lon="5.947083765640855">
        <ele>445.20001220703125</ele>
        <time>2014-05-17T13:47:31Z</time>
      </trkpt>
      <trkpt lat="45.862152837216854" lon="5.947222067043185">
        <ele>445.79998779296875</ele>
        <time>2014-05-17T13:47:37Z</time>
      </trkpt>
      <trkpt lat="45.861841114237905" lon="5.947392052039504">
        <ele>446</ele>
        <time>2014-05-17T13:47:44Z</time>
      </trkpt>
      <trkpt lat="45.861798701807857" lon="5.947416946291924">
        <ele>446.20001220703125</ele>
        <time>2014-05-17T13:47:45Z</time>
      </trkpt>
      <trkpt lat="45.861525954678655" lon="5.94756580889225">
        <ele>445.39999389648437</ele>
        <time>2014-05-17T13:47:51Z</time>
      </trkpt>
      <trkpt lat="45.861436352133751" lon="5.947611909359694">
        <ele>445.60000610351562</ele>
        <time>2014-05-17T13:47:53Z</time>
      </trkpt>
      <trkpt lat="45.861245328560472" lon="5.947716599330306">
        <ele>446</ele>
        <time>2014-05-17T13:47:57Z</time>
      </trkpt>
      <trkpt lat="45.861100237816572" lon="5.947798909619451">
        <ele>446.20001220703125</ele>
        <time>2014-05-17T13:48:00Z</time>
      </trkpt>
      <trkpt lat="45.860901921987534" lon="5.947899911552668">
        <ele>446.60000610351562</ele>
        <time>2014-05-17T13:48:04Z</time>
      </trkpt>
      <trkpt lat="45.860708300024271" lon="5.947989597916603">
        <ele>446.79998779296875</ele>
        <time>2014-05-17T13:48:08Z</time>
      </trkpt>
      <trkpt lat="45.860619368031621" lon="5.948045589029789">
        <ele>447</ele>
        <time>2014-05-17T13:48:10Z</time>
      </trkpt>
      <trkpt lat="45.860286187380552" lon="5.948243318125606">
        <ele>447</ele>
        <time>2014-05-17T13:48:18Z</time>
      </trkpt>
      <trkpt lat="45.860048392787576" lon="5.948371812701225">
        <ele>447.20001220703125</ele>
        <time>2014-05-17T13:48:24Z</time>
      </trkpt>
      <trkpt lat="45.859830882400274" lon="5.948487063869834">
        <ele>448</ele>
        <time>2014-05-17T13:48:31Z</time>
      </trkpt>
      <trkpt lat="45.859778579324484" lon="5.948513215407729">
        <ele>448.39999389648437</ele>
        <time>2014-05-17T13:48:33Z</time>
      </trkpt>
      <trkpt lat="45.859716469421983" lon="5.948546407744288">
        <ele>448.60000610351562</ele>
        <time>2014-05-17T13:48:36Z</time>
      </trkpt>
      <trkpt lat="45.859680343419313" lon="5.948563003912568">
        <ele>449</ele>
        <time>2014-05-17T13:48:41Z</time>
      </trkpt>
      <trkpt lat="45.859668608754873" lon="5.948556968942285">
        <ele>448.79998779296875</ele>
        <time>2014-05-17T13:48:45Z</time>
      </trkpt>
      <trkpt lat="45.859656454995275" lon="5.948537522926927">
        <ele>448.79998779296875</ele>
        <time>2014-05-17T13:48:46Z</time>
      </trkpt>
      <trkpt lat="45.859570624306798" lon="5.948472730815411">
        <ele>448.79998779296875</ele>
        <time>2014-05-17T13:48:51Z</time>
      </trkpt>
      <trkpt lat="45.859538186341524" lon="5.94837692566216">
        <ele>448.39999389648437</ele>
        <time>2014-05-17T13:48:54Z</time>
      </trkpt>
      <trkpt lat="45.859505664557219" lon="5.948316240683198">
        <ele>448.60000610351562</ele>
        <time>2014-05-17T13:48:56Z</time>
      </trkpt>
      <trkpt lat="45.859420420601964" lon="5.948363514617086">
        <ele>448.20001220703125</ele>
        <time>2014-05-17T13:48:59Z</time>
      </trkpt>
      <trkpt lat="45.859375828877091" lon="5.948581360280514">
        <ele>448</ele>
        <time>2014-05-17T13:49:03Z</time>
      </trkpt>
      <trkpt lat="45.859313132241368" lon="5.948688061907888">
        <ele>448.20001220703125</ele>
        <time>2014-05-17T13:49:05Z</time>
      </trkpt>
      <trkpt lat="45.859242891892791" lon="5.94878738746047">
        <ele>448.60000610351562</ele>
        <time>2014-05-17T13:49:07Z</time>
      </trkpt>
      <trkpt lat="45.859202407300472" lon="5.948823429644108">
        <ele>448.79998779296875</ele>
        <time>2014-05-17T13:49:08Z</time>
      </trkpt>
      <trkpt lat="45.858909292146564" lon="5.948968688026071">
        <ele>449</ele>
        <time>2014-05-17T13:49:14Z</time>
      </trkpt>
      <trkpt lat="45.858596479520202" lon="5.949090560898185">
        <ele>448.79998779296875</ele>
        <time>2014-05-17T13:49:20Z</time>
      </trkpt>
      <trkpt lat="45.858546020463109" lon="5.94911428168416">
        <ele>448.79998779296875</ele>
        <time>2014-05-17T13:49:21Z</time>
      </trkpt>
      <trkpt lat="45.858112089335918" lon="5.949342101812363">
        <ele>448.79998779296875</ele>
        <time>2014-05-17T13:49:30Z</time>
      </trkpt>
      <trkpt lat="45.85783607326448" lon="5.94949490390718">
        <ele>449.39999389648437</ele>
        <time>2014-05-17T13:49:36Z</time>
      </trkpt>
      <trkpt lat="45.857788547873497" lon="5.949518121778965">
        <ele>449.60000610351562</ele>
        <time>2014-05-17T13:49:37Z</time>
      </trkpt>
      <trkpt lat="45.857405662536621" lon="5.949717778712511">
        <ele>449</ele>
        <time>2014-05-17T13:49:45Z</time>
      </trkpt>
      <trkpt lat="45.857033841311932" lon="5.949892289936543">
        <ele>450</ele>
        <time>2014-05-17T13:49:53Z</time>
      </trkpt>
      <trkpt lat="45.856709461659193" lon="5.950052635744214">
        <ele>450</ele>
        <time>2014-05-17T13:50:00Z</time>
      </trkpt>
      <trkpt lat="45.856505529955029" lon="5.950135448947549">
        <ele>450.39999389648437</ele>
        <time>2014-05-17T13:50:05Z</time>
      </trkpt>
      <trkpt lat="45.856436714529991" lon="5.950181381776929">
        <ele>450.60000610351562</ele>
        <time>2014-05-17T13:50:07Z</time>
      </trkpt>
      <trkpt lat="45.856291707605124" lon="5.950263189151883">
        <ele>450.79998779296875</ele>
        <time>2014-05-17T13:50:11Z</time>
      </trkpt>
      <trkpt lat="45.856182742863894" lon="5.950321108102799">
        <ele>451</ele>
        <time>2014-05-17T13:50:14Z</time>
      </trkpt>
      <trkpt lat="45.856088111177087" lon="5.950376931577921">
        <ele>451</ele>
        <time>2014-05-17T13:50:16Z</time>
      </trkpt>
      <trkpt lat="45.856032622978091" lon="5.950401239097118">
        <ele>450.79998779296875</ele>
        <time>2014-05-17T13:50:17Z</time>
      </trkpt>
      <trkpt lat="45.855789547786117" lon="5.95052151940763">
        <ele>450.60000610351562</ele>
        <time>2014-05-17T13:50:21Z</time>
      </trkpt>
      <trkpt lat="45.855307085439563" lon="5.950775323435664">
        <ele>451.20001220703125</ele>
        <time>2014-05-17T13:50:29Z</time>
      </trkpt>
      <trkpt lat="45.855080941691995" lon="5.950927957892418">
        <ele>451.60000610351562</ele>
        <time>2014-05-17T13:50:33Z</time>
      </trkpt>
      <trkpt lat="45.854847086593509" lon="5.951074054464698">
        <ele>451.60000610351562</ele>
        <time>2014-05-17T13:50:37Z</time>
      </trkpt>
      <trkpt lat="45.854378454387188" lon="5.951331295073032">
        <ele>451.79998779296875</ele>
        <time>2014-05-17T13:50:45Z</time>
      </trkpt>
      <trkpt lat="45.853843772783875" lon="5.951611083000898">
        <ele>451.79998779296875</ele>
        <time>2014-05-17T13:50:54Z</time>
      </trkpt>
      <trkpt lat="45.853445967659354" lon="5.951838064938784">
        <ele>453</ele>
        <time>2014-05-17T13:51:01Z</time>
      </trkpt>
      <trkpt lat="45.853388886898756" lon="5.951865222305059">
        <ele>453.39999389648437</ele>
        <time>2014-05-17T13:51:02Z</time>
      </trkpt>
      <trkpt lat="45.853049336001277" lon="5.952036967501044">
        <ele>453</ele>
        <time>2014-05-17T13:51:08Z</time>
      </trkpt>
      <trkpt lat="45.852530160918832" lon="5.952288340777159">
        <ele>453.60000610351562</ele>
        <time>2014-05-17T13:51:17Z</time>
      </trkpt>
      <trkpt lat="45.852048620581627" lon="5.952408788725734">
        <ele>453.20001220703125</ele>
        <time>2014-05-17T13:51:25Z</time>
      </trkpt>
      <trkpt lat="45.851923059672117" lon="5.952423540875316">
        <ele>454.20001220703125</ele>
        <time>2014-05-17T13:51:27Z</time>
      </trkpt>
      <trkpt lat="45.851542437449098" lon="5.952402586117387">
        <ele>454</ele>
        <time>2014-05-17T13:51:33Z</time>
      </trkpt>
      <trkpt lat="45.851163240149617" lon="5.952362101525068">
        <ele>453.60000610351562</ele>
        <time>2014-05-17T13:51:39Z</time>
      </trkpt>
      <trkpt lat="45.850613806396723" lon="5.952332764863968">
        <ele>453.60000610351562</ele>
        <time>2014-05-17T13:51:48Z</time>
      </trkpt>
      <trkpt lat="45.850553121417761" lon="5.952334860339761">
        <ele>453.60000610351562</ele>
        <time>2014-05-17T13:51:49Z</time>
      </trkpt>
      <trkpt lat="45.849989270791411" lon="5.952323796227574">
        <ele>455.20001220703125</ele>
        <time>2014-05-17T13:51:58Z</time>
      </trkpt>
      <trkpt lat="45.849926993250847" lon="5.952324215322733">
        <ele>455.20001220703125</ele>
        <time>2014-05-17T13:51:59Z</time>
      </trkpt>
      <trkpt lat="45.849509993568063" lon="5.952318515628576">
        <ele>455.39999389648437</ele>
        <time>2014-05-17T13:52:06Z</time>
      </trkpt>
      <trkpt lat="45.849051084369421" lon="5.952293621376157">
        <ele>455.60000610351562</ele>
        <time>2014-05-17T13:52:14Z</time>
      </trkpt>
      <trkpt lat="45.848702313378453" lon="5.952274678274989">
        <ele>456.20001220703125</ele>
        <time>2014-05-17T13:52:20Z</time>
      </trkpt>
      <trkpt lat="45.848481114953756" lon="5.952256321907044">
        <ele>456.60000610351562</ele>
        <time>2014-05-17T13:52:24Z</time>
      </trkpt>
      <trkpt lat="45.848096050322056" lon="5.952245760709047">
        <ele>457.39999389648437</ele>
        <time>2014-05-17T13:52:31Z</time>
      </trkpt>
      <trkpt lat="45.848038299009204" lon="5.952244671061635">
        <ele>457.60000610351562</ele>
        <time>2014-05-17T13:52:32Z</time>
      </trkpt>
      <trkpt lat="45.847447458654642" lon="5.952222710475326">
        <ele>457.60000610351562</ele>
        <time>2014-05-17T13:52:42Z</time>
      </trkpt>
      <trkpt lat="45.847095167264342" lon="5.952217262238264">
        <ele>457.79998779296875</ele>
        <time>2014-05-17T13:52:48Z</time>
      </trkpt>
      <trkpt lat="45.846976228058338" lon="5.952217429876328">
        <ele>458</ele>
        <time>2014-05-17T13:52:50Z</time>
      </trkpt>
      <trkpt lat="45.846669534221292" lon="5.952214160934091">
        <ele>457.79998779296875</ele>
        <time>2014-05-17T13:52:55Z</time>
      </trkpt>
      <trkpt lat="45.846427381038666" lon="5.952218184247613">
        <ele>457.39999389648437</ele>
        <time>2014-05-17T13:52:59Z</time>
      </trkpt>
      <trkpt lat="45.84623602218926" lon="5.952203935012221">
        <ele>457.79998779296875</ele>
        <time>2014-05-17T13:53:02Z</time>
      </trkpt>
      <trkpt lat="45.845733610913157" lon="5.952193457633257">
        <ele>457.79998779296875</ele>
        <time>2014-05-17T13:53:10Z</time>
      </trkpt>
      <trkpt lat="45.845177723094821" lon="5.952178286388516">
        <ele>457.60000610351562</ele>
        <time>2014-05-17T13:53:19Z</time>
      </trkpt>
      <trkpt lat="45.844674557447433" lon="5.952149201184511">
        <ele>458</ele>
        <time>2014-05-17T13:53:28Z</time>
      </trkpt>
      <trkpt lat="45.844092266634107" lon="5.952121037989855">
        <ele>457.20001220703125</ele>
        <time>2014-05-17T13:53:37Z</time>
      </trkpt>
      <trkpt lat="45.844026552513242" lon="5.952122714370489">
        <ele>457.20001220703125</ele>
        <time>2014-05-17T13:53:38Z</time>
      </trkpt>
      <trkpt lat="45.843553561717272" lon="5.952104358002543">
        <ele>457.39999389648437</ele>
        <time>2014-05-17T13:53:45Z</time>
      </trkpt>
      <trkpt lat="45.843002619221807" lon="5.952091366052628">
        <ele>456.20001220703125</ele>
        <time>2014-05-17T13:53:53Z</time>
      </trkpt>
      <trkpt lat="45.842933049425483" lon="5.9520875941962">
        <ele>456.20001220703125</ele>
        <time>2014-05-17T13:53:54Z</time>
      </trkpt>
      <trkpt lat="45.842343047261238" lon="5.952092036604881">
        <ele>456.39999389648437</ele>
        <time>2014-05-17T13:54:03Z</time>
      </trkpt>
      <trkpt lat="45.841816244646907" lon="5.952116427943111">
        <ele>456.20001220703125</ele>
        <time>2014-05-17T13:54:11Z</time>
      </trkpt>
      <trkpt lat="45.841669142246246" lon="5.952122295275331">
        <ele>456.20001220703125</ele>
        <time>2014-05-17T13:54:13Z</time>
      </trkpt>
      <trkpt lat="45.841529918834567" lon="5.952059682458639">
        <ele>456</ele>
        <time>2014-05-17T13:54:15Z</time>
      </trkpt>
      <trkpt lat="45.841358508914709" lon="5.952119864523411">
        <ele>457.20001220703125</ele>
        <time>2014-05-17T13:54:18Z</time>
      </trkpt>
      <trkpt lat="45.841325484216213" lon="5.952343242242932">
        <ele>456.60000610351562</ele>
        <time>2014-05-17T13:54:21Z</time>
      </trkpt>
      <trkpt lat="45.841328669339418" lon="5.952406777068973">
        <ele>456.79998779296875</ele>
        <time>2014-05-17T13:54:22Z</time>
      </trkpt>
      <trkpt lat="45.841321712359786" lon="5.952523704618216">
        <ele>456.60000610351562</ele>
        <time>2014-05-17T13:54:25Z</time>
      </trkpt>
      <trkpt lat="45.841318108141422" lon="5.952552789822221">
        <ele>456.79998779296875</ele>
        <time>2014-05-17T13:54:30Z</time>
      </trkpt>
      <trkpt lat="45.841313498094678" lon="5.95257667824626">
        <ele>456.60000610351562</ele>
        <time>2014-05-17T13:54:31Z</time>
      </trkpt>
      <trkpt lat="45.841244934126735" lon="5.952727887779474">
        <ele>456</ele>
        <time>2014-05-17T13:54:35Z</time>
      </trkpt>
      <trkpt lat="45.841099256649613" lon="5.952753201127052">
        <ele>455</ele>
        <time>2014-05-17T13:54:38Z</time>
      </trkpt>
      <trkpt lat="45.841052066534758" lon="5.952735599130392">
        <ele>454.79998779296875</ele>
        <time>2014-05-17T13:54:39Z</time>
      </trkpt>
      <trkpt lat="45.84097252227366" lon="5.952699892222881">
        <ele>454.39999389648437</ele>
        <time>2014-05-17T13:54:41Z</time>
      </trkpt>
      <trkpt lat="45.840941173955798" lon="5.952689750120044">
        <ele>455.39999389648437</ele>
        <time>2014-05-17T13:54:42Z</time>
      </trkpt>
      <trkpt lat="45.840916112065315" lon="5.95268027856946">
        <ele>456</ele>
        <time>2014-05-17T13:54:43Z</time>
      </trkpt>
      <trkpt lat="45.84087043069303" lon="5.952612636610866">
        <ele>456.39999389648437</ele>
        <time>2014-05-17T13:54:46Z</time>
      </trkpt>
      <trkpt lat="45.840839333832264" lon="5.952476179227233">
        <ele>456.20001220703125</ele>
        <time>2014-05-17T13:54:52Z</time>
      </trkpt>
      <trkpt lat="45.840828521177173" lon="5.952420439571142">
        <ele>456.60000610351562</ele>
        <time>2014-05-17T13:54:55Z</time>
      </trkpt>
      <trkpt lat="45.842816876247525" lon="5.952409459277988">
        <ele>310.60000610351562</ele>
        <time>2014-05-17T17:15:17Z</time>
      </trkpt>
      <trkpt lat="45.843151649460196" lon="5.952414153143764">
        <ele>312</ele>
        <time>2014-05-17T17:15:23Z</time>
      </trkpt>
      <trkpt lat="45.843263966962695" lon="5.952422451227903">
        <ele>311.79998779296875</ele>
        <time>2014-05-17T17:15:25Z</time>
      </trkpt>
      <trkpt lat="45.843642745167017" lon="5.952236708253622">
        <ele>312.39999389648437</ele>
        <time>2014-05-17T17:15:32Z</time>
      </trkpt>
      <trkpt lat="45.843712231144309" lon="5.952237797901034">
        <ele>313.20001220703125</ele>
        <time>2014-05-17T17:15:35Z</time>
      </trkpt>
      <trkpt lat="45.843703094869852" lon="5.95222095027566">
        <ele>313.60000610351562</ele>
        <time>2014-05-17T17:17:37Z</time>
      </trkpt>
      <trkpt lat="45.843722792342305" lon="5.952214077115059">
        <ele>313.79998779296875</ele>
        <time>2014-05-17T17:17:38Z</time>
      </trkpt>
      <trkpt lat="45.843888837844133" lon="5.952220866456628">
        <ele>312.79998779296875</ele>
        <time>2014-05-17T17:17:43Z</time>
      </trkpt>
      <trkpt lat="45.843938626348972" lon="5.952223297208548">
        <ele>312.20001220703125</ele>
        <time>2014-05-17T17:17:44Z</time>
      </trkpt>
      <trkpt lat="45.844162171706557" lon="5.952227739617229">
        <ele>312</ele>
        <time>2014-05-17T17:17:48Z</time>
      </trkpt>
      <trkpt lat="45.844725016504526" lon="5.952242659404874">
        <ele>312</ele>
        <time>2014-05-17T17:17:57Z</time>
      </trkpt>
      <trkpt lat="45.84524754434824" lon="5.952261770144105">
        <ele>311.60000610351562</ele>
        <time>2014-05-17T17:18:05Z</time>
      </trkpt>
      <trkpt lat="45.845376290380955" lon="5.952267553657293">
        <ele>311</ele>
        <time>2014-05-17T17:18:07Z</time>
      </trkpt>
      <trkpt lat="45.845504198223352" lon="5.952270738780499">
        <ele>312</ele>
        <time>2014-05-17T17:18:09Z</time>
      </trkpt>
      <trkpt lat="45.845698909834027" lon="5.952278953045607">
        <ele>312.60000610351562</ele>
        <time>2014-05-17T17:18:12Z</time>
      </trkpt>
      <trkpt lat="45.846162931993604" lon="5.952291609719396">
        <ele>312</ele>
        <time>2014-05-17T17:18:19Z</time>
      </trkpt>
      <trkpt lat="45.846627792343497" lon="5.952303679659963">
        <ele>312</ele>
        <time>2014-05-17T17:18:26Z</time>
      </trkpt>
      <trkpt lat="45.847157193347812" lon="5.952307786792517">
        <ele>313</ele>
        <time>2014-05-17T17:18:34Z</time>
      </trkpt>
      <trkpt lat="45.847551226615906" lon="5.952343661338091">
        <ele>312</ele>
        <time>2014-05-17T17:18:40Z</time>
      </trkpt>
      <trkpt lat="45.847687181085348" lon="5.95235682092607">
        <ele>311</ele>
        <time>2014-05-17T17:18:42Z</time>
      </trkpt>
      <trkpt lat="45.848170565441251" lon="5.952379368245602">
        <ele>311.20001220703125</ele>
        <time>2014-05-17T17:18:49Z</time>
      </trkpt>
      <trkpt lat="45.848733074963093" lon="5.95240761525929">
        <ele>311</ele>
        <time>2014-05-17T17:18:57Z</time>
      </trkpt>
      <trkpt lat="45.848806835711002" lon="5.952407363802195">
        <ele>311</ele>
        <time>2014-05-17T17:18:58Z</time>
      </trkpt>
      <trkpt lat="45.849172789603472" lon="5.952419433742762">
        <ele>309.79998779296875</ele>
        <time>2014-05-17T17:19:03Z</time>
      </trkpt>
      <trkpt lat="45.849320143461227" lon="5.952423792332411">
        <ele>310</ele>
        <time>2014-05-17T17:19:05Z</time>
      </trkpt>
      <trkpt lat="45.84990075789392" lon="5.952458828687668">
        <ele>309.39999389648437</ele>
        <time>2014-05-17T17:19:13Z</time>
      </trkpt>
      <trkpt lat="45.850479193031788" lon="5.952479364350438">
        <ele>309.39999389648437</ele>
        <time>2014-05-17T17:19:21Z</time>
      </trkpt>
      <trkpt lat="45.850627971813083" lon="5.952485399320722">
        <ele>308.79998779296875</ele>
        <time>2014-05-17T17:19:23Z</time>
      </trkpt>
      <trkpt lat="45.850845817476511" lon="5.952497469261289">
        <ele>307.79998779296875</ele>
        <time>2014-05-17T17:19:26Z</time>
      </trkpt>
      <trkpt lat="45.851117055863142" lon="5.952499061822891">
        <ele>308</ele>
        <time>2014-05-17T17:19:30Z</time>
      </trkpt>
      <trkpt lat="45.851320903748274" lon="5.952508868649602">
        <ele>309</ele>
        <time>2014-05-17T17:19:33Z</time>
      </trkpt>
      <trkpt lat="45.851677218452096" lon="5.952516412362456">
        <ele>308.39999389648437</ele>
        <time>2014-05-17T17:19:38Z</time>
      </trkpt>
      <trkpt lat="45.852232938632369" lon="5.952468803152442">
        <ele>308.39999389648437</ele>
        <time>2014-05-17T17:19:46Z</time>
      </trkpt>
      <trkpt lat="45.852781198918819" lon="5.952265039086342">
        <ele>309</ele>
        <time>2014-05-17T17:19:54Z</time>
      </trkpt>
      <trkpt lat="45.852922853082418" lon="5.952191529795528">
        <ele>308.39999389648437</ele>
        <time>2014-05-17T17:19:56Z</time>
      </trkpt>
      <trkpt lat="45.853280508890748" lon="5.951998913660646">
        <ele>307.60000610351562</ele>
        <time>2014-05-17T17:20:01Z</time>
      </trkpt>
      <trkpt lat="45.853422833606601" lon="5.951916435733438">
        <ele>307.39999389648437</ele>
        <time>2014-05-17T17:20:03Z</time>
      </trkpt>
      <trkpt lat="45.853927256539464" lon="5.951664643362165">
        <ele>306.60000610351562</ele>
        <time>2014-05-17T17:20:10Z</time>
      </trkpt>
      <trkpt lat="45.8544020075351" lon="5.951403547078371">
        <ele>306.79998779296875</ele>
        <time>2014-05-17T17:20:17Z</time>
      </trkpt>
      <trkpt lat="45.854866532608867" lon="5.951154856011272">
        <ele>306.39999389648437</ele>
        <time>2014-05-17T17:20:24Z</time>
      </trkpt>
      <trkpt lat="45.855390066280961" lon="5.95087087713182">
        <ele>306.60000610351562</ele>
        <time>2014-05-17T17:20:32Z</time>
      </trkpt>
      <trkpt lat="45.855836989358068" lon="5.950637608766556">
        <ele>306.39999389648437</ele>
        <time>2014-05-17T17:20:39Z</time>
      </trkpt>
      <trkpt lat="45.855968333780766" lon="5.950569715350866">
        <ele>305.20001220703125</ele>
        <time>2014-05-17T17:20:41Z</time>
      </trkpt>
      <trkpt lat="45.856289193034172" lon="5.950397551059723">
        <ele>305.39999389648437</ele>
        <time>2014-05-17T17:20:46Z</time>
      </trkpt>
      <trkpt lat="45.856854384765029" lon="5.950104268267751">
        <ele>304.20001220703125</ele>
        <time>2014-05-17T17:20:54Z</time>
      </trkpt>
      <trkpt lat="45.856928732246161" lon="5.950070237740874">
        <ele>304</ele>
        <time>2014-05-17T17:20:55Z</time>
      </trkpt>
      <trkpt lat="45.857276329770684" lon="5.949888518080115">
        <ele>302.79998779296875</ele>
        <time>2014-05-17T17:21:00Z</time>
      </trkpt>
      <trkpt lat="45.857345396652818" lon="5.949852894991636">
        <ele>302.79998779296875</ele>
        <time>2014-05-17T17:21:01Z</time>
      </trkpt>
      <trkpt lat="45.857858788222075" lon="5.949585344642401">
        <ele>303</ele>
        <time>2014-05-17T17:21:09Z</time>
      </trkpt>
      <trkpt lat="45.858287690207362" lon="5.949356015771627">
        <ele>302.79998779296875</ele>
        <time>2014-05-17T17:21:16Z</time>
      </trkpt>
      <trkpt lat="45.858664708212018" lon="5.949149904772639">
        <ele>304</ele>
        <time>2014-05-17T17:21:22Z</time>
      </trkpt>
      <trkpt lat="45.858859000727534" lon="5.949064828455448">
        <ele>304.39999389648437</ele>
        <time>2014-05-17T17:21:25Z</time>
      </trkpt>
      <trkpt lat="45.858919518068433" lon="5.94904781319201">
        <ele>304.20001220703125</ele>
        <time>2014-05-17T17:21:26Z</time>
      </trkpt>
      <trkpt lat="45.859092772006989" lon="5.94907714985311">
        <ele>304.60000610351562</ele>
        <time>2014-05-17T17:21:29Z</time>
      </trkpt>
      <trkpt lat="45.859139207750559" lon="5.949089722707868">
        <ele>305</ele>
        <time>2014-05-17T17:21:30Z</time>
      </trkpt>
      <trkpt lat="45.859261499717832" lon="5.949007328599691">
        <ele>305.79998779296875</ele>
        <time>2014-05-17T17:21:33Z</time>
      </trkpt>
      <trkpt lat="45.859334003180265" lon="5.948885623365641">
        <ele>305.20001220703125</ele>
        <time>2014-05-17T17:21:35Z</time>
      </trkpt>
      <trkpt lat="45.859380858018994" lon="5.94882401637733">
        <ele>304.79998779296875</ele>
        <time>2014-05-17T17:21:36Z</time>
      </trkpt>
      <trkpt lat="45.859433831647038" lon="5.948770539835095">
        <ele>304.79998779296875</ele>
        <time>2014-05-17T17:21:37Z</time>
      </trkpt>
      <trkpt lat="45.859612366184592" lon="5.948663502931595">
        <ele>304</ele>
        <time>2014-05-17T17:21:40Z</time>
      </trkpt>
      <trkpt lat="45.8596723806113" lon="5.948630310595036">
        <ele>303.60000610351562</ele>
        <time>2014-05-17T17:21:41Z</time>
      </trkpt>
      <trkpt lat="45.86010186932981" lon="5.948398467153311">
        <ele>303.39999389648437</ele>
        <time>2014-05-17T17:21:48Z</time>
      </trkpt>
      <trkpt lat="45.860348213464022" lon="5.948252957314253">
        <ele>302.60000610351562</ele>
        <time>2014-05-17T17:21:53Z</time>
      </trkpt>
      <trkpt lat="45.860403031110764" lon="5.948221273720264">
        <ele>302.20001220703125</ele>
        <time>2014-05-17T17:21:54Z</time>
      </trkpt>
      <trkpt lat="45.860794885084033" lon="5.947995046153665">
        <ele>303.20001220703125</ele>
        <time>2014-05-17T17:22:01Z</time>
      </trkpt>
      <trkpt lat="45.861181626096368" lon="5.94778667204082">
        <ele>302.60000610351562</ele>
        <time>2014-05-17T17:22:08Z</time>
      </trkpt>
      <trkpt lat="45.861691497266293" lon="5.947505878284574">
        <ele>301.79998779296875</ele>
        <time>2014-05-17T17:22:17Z</time>
      </trkpt>
      <trkpt lat="45.861748326569796" lon="5.947482325136662">
        <ele>301.79998779296875</ele>
        <time>2014-05-17T17:22:18Z</time>
      </trkpt>
      <trkpt lat="45.861863913014531" lon="5.947425998747349">
        <ele>302</ele>
        <time>2014-05-17T17:22:20Z</time>
      </trkpt>
      <trkpt lat="45.861922167241573" lon="5.947394566610456">
        <ele>301.79998779296875</ele>
        <time>2014-05-17T17:22:21Z</time>
      </trkpt>
      <trkpt lat="45.861979583278298" lon="5.947364224120975">
        <ele>301.60000610351562</ele>
        <time>2014-05-17T17:22:22Z</time>
      </trkpt>
      <trkpt lat="45.862316703423858" lon="5.94715635292232">
        <ele>301.60000610351562</ele>
        <time>2014-05-17T17:22:28Z</time>
      </trkpt>
      <trkpt lat="45.862421980127692" lon="5.947094075381756">
        <ele>301.60000610351562</ele>
        <time>2014-05-17T17:22:30Z</time>
      </trkpt>
      <trkpt lat="45.862583164125681" lon="5.947023751214147">
        <ele>300.60000610351562</ele>
        <time>2014-05-17T17:22:33Z</time>
      </trkpt>
      <trkpt lat="45.862633539363742" lon="5.947007406502962">
        <ele>300.39999389648437</ele>
        <time>2014-05-17T17:22:34Z</time>
      </trkpt>
      <trkpt lat="45.862681064754725" lon="5.94697555527091">
        <ele>300.60000610351562</ele>
        <time>2014-05-17T17:22:35Z</time>
      </trkpt>
      <trkpt lat="45.862848032265902" lon="5.946759134531021">
        <ele>301.20001220703125</ele>
        <time>2014-05-17T17:22:39Z</time>
      </trkpt>
      <trkpt lat="45.863153384998441" lon="5.946467109024525">
        <ele>300</ele>
        <time>2014-05-17T17:22:45Z</time>
      </trkpt>
      <trkpt lat="45.863402411341667" lon="5.946157313883305">
        <ele>300.20001220703125</ele>
        <time>2014-05-17T17:22:51Z</time>
      </trkpt>
      <trkpt lat="45.86367130279541" lon="5.945746600627899">
        <ele>299.60000610351562</ele>
        <time>2014-05-17T17:22:58Z</time>
      </trkpt>
      <trkpt lat="45.863708769902587" lon="5.945701338350773">
        <ele>299.39999389648438</ele>
        <time>2014-05-17T17:22:59Z</time>
      </trkpt>
      <trkpt lat="45.863870875909925" lon="5.945637887343764">
        <ele>300.20001220703125</ele>
        <time>2014-05-17T17:23:02Z</time>
      </trkpt>
      <trkpt lat="45.864119902253151" lon="5.945726986974478">
        <ele>299.39999389648438</ele>
        <time>2014-05-17T17:23:06Z</time>
      </trkpt>
      <trkpt lat="45.864247810095549" lon="5.945911724120379">
        <ele>298.79998779296875</ele>
        <time>2014-05-17T17:23:09Z</time>
      </trkpt>
      <trkpt lat="45.86428158916533" lon="5.945988669991493">
        <ele>298.79998779296875</ele>
        <time>2014-05-17T17:23:10Z</time>
      </trkpt>
      <trkpt lat="45.864339172840118" lon="5.946147004142404">
        <ele>298.20001220703125</ele>
        <time>2014-05-17T17:23:12Z</time>
      </trkpt>
      <trkpt lat="45.864406647160649" lon="5.946366526186466">
        <ele>299.79998779296875</ele>
        <time>2014-05-17T17:23:15Z</time>
      </trkpt>
      <trkpt lat="45.864440342411399" lon="5.946513628587127">
        <ele>299.39999389648438</ele>
        <time>2014-05-17T17:23:17Z</time>
      </trkpt>
      <trkpt lat="45.864494992420077" lon="5.94673709012568">
        <ele>299</ele>
        <time>2014-05-17T17:23:20Z</time>
      </trkpt>
      <trkpt lat="45.864545870572329" lon="5.946958623826504">
        <ele>299.39999389648438</ele>
        <time>2014-05-17T17:23:23Z</time>
      </trkpt>
      <trkpt lat="45.864612506702542" lon="5.947086866945028">
        <ele>299.79998779296875</ele>
        <time>2014-05-17T17:23:25Z</time>
      </trkpt>
      <trkpt lat="45.864826496690512" lon="5.947207231074572">
        <ele>299.60000610351562</ele>
        <time>2014-05-17T17:23:29Z</time>
      </trkpt>
      <trkpt lat="45.865019448101521" lon="5.947160627692938">
        <ele>298.60000610351562</ele>
        <time>2014-05-17T17:23:32Z</time>
      </trkpt>
      <trkpt lat="45.86508491076529" lon="5.947132799774408">
        <ele>298.60000610351562</ele>
        <time>2014-05-17T17:23:33Z</time>
      </trkpt>
      <trkpt lat="45.865351036190987" lon="5.947008077055216">
        <ele>297.39999389648437</ele>
        <time>2014-05-17T17:23:37Z</time>
      </trkpt>
      <trkpt lat="45.865498725324869" lon="5.946938758715987">
        <ele>297.39999389648437</ele>
        <time>2014-05-17T17:23:39Z</time>
      </trkpt>
      <trkpt lat="45.865815142169595" lon="5.946794589981437">
        <ele>296.39999389648438</ele>
        <time>2014-05-17T17:23:43Z</time>
      </trkpt>
      <trkpt lat="45.865977751091123" lon="5.946723846718669">
        <ele>296.20001220703125</ele>
        <time>2014-05-17T17:23:45Z</time>
      </trkpt>
      <trkpt lat="45.866131894290447" lon="5.946654360741377">
        <ele>295.20001220703125</ele>
        <time>2014-05-17T17:23:47Z</time>
      </trkpt>
      <trkpt lat="45.866418136283755" lon="5.94652553088963">
        <ele>294.39999389648437</ele>
        <time>2014-05-17T17:23:51Z</time>
      </trkpt>
      <trkpt lat="45.866958936676383" lon="5.946285054087639">
        <ele>294.79998779296875</ele>
        <time>2014-05-17T17:23:59Z</time>
      </trkpt>
      <trkpt lat="45.867096148431301" lon="5.946223866194487">
        <ele>294.20001220703125</ele>
        <time>2014-05-17T17:24:01Z</time>
      </trkpt>
      <trkpt lat="45.867570899426937" lon="5.94600023701787">
        <ele>294.60000610351562</ele>
        <time>2014-05-17T17:24:08Z</time>
      </trkpt>
      <trkpt lat="45.868055960163474" lon="5.945782642811537">
        <ele>293</ele>
        <time>2014-05-17T17:24:15Z</time>
      </trkpt>
      <trkpt lat="45.868124524131417" lon="5.945750875398517">
        <ele>292.79998779296875</ele>
        <time>2014-05-17T17:24:16Z</time>
      </trkpt>
      <trkpt lat="45.868386710062623" lon="5.945609053596854">
        <ele>292.60000610351562</ele>
        <time>2014-05-17T17:24:20Z</time>
      </trkpt>
      <trkpt lat="45.868434906005859" lon="5.945550380274653">
        <ele>292.79998779296875</ele>
        <time>2014-05-17T17:24:21Z</time>
      </trkpt>
      <trkpt lat="45.868513779714704" lon="5.945317195728421">
        <ele>292.60000610351562</ele>
        <time>2014-05-17T17:24:24Z</time>
      </trkpt>
      <trkpt lat="45.868615871295333" lon="5.944875972345471">
        <ele>292.39999389648437</ele>
        <time>2014-05-17T17:24:29Z</time>
      </trkpt>
      <trkpt lat="45.868643531575799" lon="5.944790476933122">
        <ele>292</ele>
        <time>2014-05-17T17:24:30Z</time>
      </trkpt>
      <trkpt lat="45.86869440972805" lon="5.944618312641978">
        <ele>291.60000610351562</ele>
        <time>2014-05-17T17:24:32Z</time>
      </trkpt>
      <trkpt lat="45.868749562650919" lon="5.944437514990568">
        <ele>291.79998779296875</ele>
        <time>2014-05-17T17:24:34Z</time>
      </trkpt>
      <trkpt lat="45.868851821869612" lon="5.944164516404271">
        <ele>291</ele>
        <time>2014-05-17T17:24:37Z</time>
      </trkpt>
      <trkpt lat="45.868887696415186" lon="5.944093940779567">
        <ele>290.39999389648437</ele>
        <time>2014-05-17T17:24:38Z</time>
      </trkpt>
      <trkpt lat="45.868924660608172" lon="5.944025125354528">
        <ele>290.20001220703125</ele>
        <time>2014-05-17T17:24:39Z</time>
      </trkpt>
      <trkpt lat="45.868960451334715" lon="5.943954046815634">
        <ele>289.79998779296875</ele>
        <time>2014-05-17T17:24:40Z</time>
      </trkpt>
      <trkpt lat="45.869004121050239" lon="5.943898390978575">
        <ele>289</ele>
        <time>2014-05-17T17:24:41Z</time>
      </trkpt>
      <trkpt lat="45.869065728038549" lon="5.943878442049027">
        <ele>288.79998779296875</ele>
        <time>2014-05-17T17:24:42Z</time>
      </trkpt>
      <trkpt lat="45.869127251207829" lon="5.943893194198608">
        <ele>288.60000610351562</ele>
        <time>2014-05-17T17:24:43Z</time>
      </trkpt>
      <trkpt lat="45.869360519573092" lon="5.944002075120807">
        <ele>289.20001220703125</ele>
        <time>2014-05-17T17:24:47Z</time>
      </trkpt>
      <trkpt lat="45.869768215343356" lon="5.944113554432988">
        <ele>289.20001220703125</ele>
        <time>2014-05-17T17:24:54Z</time>
      </trkpt>
      <trkpt lat="45.869941469281912" lon="5.944137610495091">
        <ele>289.79998779296875</ele>
        <time>2014-05-17T17:24:57Z</time>
      </trkpt>
      <trkpt lat="45.870099803432822" lon="5.944160157814622">
        <ele>290.79998779296875</ele>
        <time>2014-05-17T17:25:00Z</time>
      </trkpt>
      <trkpt lat="45.870145233348012" lon="5.944160744547844">
        <ele>291.39999389648437</ele>
        <time>2014-05-17T17:25:01Z</time>
      </trkpt>
      <trkpt lat="45.870186723768711" lon="5.944157224148512">
        <ele>292</ele>
        <time>2014-05-17T17:25:02Z</time>
      </trkpt>
      <trkpt lat="45.870383530855179" lon="5.944094695150852">
        <ele>292.79998779296875</ele>
        <time>2014-05-17T17:25:07Z</time>
      </trkpt>
      <trkpt lat="45.870415633544326" lon="5.944064687937498">
        <ele>292.39999389648437</ele>
        <time>2014-05-17T17:25:08Z</time>
      </trkpt>
      <trkpt lat="45.870441868901253" lon="5.944017246365547">
        <ele>292.60000610351562</ele>
        <time>2014-05-17T17:25:09Z</time>
      </trkpt>
      <trkpt lat="45.870447149500251" lon="5.943962931632996">
        <ele>292.79998779296875</ele>
        <time>2014-05-17T17:25:10Z</time>
      </trkpt>
      <trkpt lat="45.870452933013439" lon="5.943801077082753">
        <ele>292.39999389648437</ele>
        <time>2014-05-17T17:25:13Z</time>
      </trkpt>
      <trkpt lat="45.870469026267529" lon="5.943685490638018">
        <ele>292.79998779296875</ele>
        <time>2014-05-17T17:25:15Z</time>
      </trkpt>
      <trkpt lat="45.870577655732632" lon="5.943434620276094">
        <ele>292.60000610351562</ele>
        <time>2014-05-17T17:25:19Z</time>
      </trkpt>
      <trkpt lat="45.87061763741076" lon="5.943373683840036">
        <ele>292.39999389648437</ele>
        <time>2014-05-17T17:25:20Z</time>
      </trkpt>
      <trkpt lat="45.870769266039133" lon="5.943146366626024">
        <ele>292.39999389648437</ele>
        <time>2014-05-17T17:25:24Z</time>
      </trkpt>
      <trkpt lat="45.870853587985039" lon="5.943079814314842">
        <ele>292.79998779296875</ele>
        <time>2014-05-17T17:25:26Z</time>
      </trkpt>
      <trkpt lat="45.870926594361663" lon="5.943037150427699">
        <ele>293.60000610351562</ele>
        <time>2014-05-17T17:25:28Z</time>
      </trkpt>
      <trkpt lat="45.870956433936954" lon="5.943014267832041">
        <ele>294.60000610351562</ele>
        <time>2014-05-17T17:25:29Z</time>
      </trkpt>
      <trkpt lat="45.870993733406067" lon="5.942988535389304">
        <ele>295</ele>
        <time>2014-05-17T17:25:31Z</time>
      </trkpt>
      <trkpt lat="45.871030613780022" lon="5.942955929785967">
        <ele>294.60000610351562</ele>
        <time>2014-05-17T17:26:14Z</time>
      </trkpt>
      <trkpt lat="45.871085515245795" lon="5.942919887602329">
        <ele>294.60000610351562</ele>
        <time>2014-05-17T17:26:15Z</time>
      </trkpt>
      <trkpt lat="45.871216105297208" lon="5.942809665575624">
        <ele>293.60000610351562</ele>
        <time>2014-05-17T17:26:18Z</time>
      </trkpt>
      <trkpt lat="45.871263546869159" lon="5.942769600078464">
        <ele>293.20001220703125</ele>
        <time>2014-05-17T17:26:19Z</time>
      </trkpt>
      <trkpt lat="45.871312748640776" lon="5.942716458812356">
        <ele>292.60000610351562</ele>
        <time>2014-05-17T17:26:20Z</time>
      </trkpt>
      <trkpt lat="45.871367398649454" lon="5.94265946187079">
        <ele>291.60000610351562</ele>
        <time>2014-05-17T17:26:21Z</time>
      </trkpt>
      <trkpt lat="45.871495474129915" lon="5.94256860204041">
        <ele>290.20001220703125</ele>
        <time>2014-05-17T17:26:23Z</time>
      </trkpt>
      <trkpt lat="45.871715666726232" lon="5.942464834079146">
        <ele>290.20001220703125</ele>
        <time>2014-05-17T17:26:26Z</time>
      </trkpt>
      <trkpt lat="45.872180107980967" lon="5.942226452752948">
        <ele>291.39999389648437</ele>
        <time>2014-05-17T17:26:33Z</time>
      </trkpt>
      <trkpt lat="45.872731050476432" lon="5.941923027858138">
        <ele>290.79998779296875</ele>
        <time>2014-05-17T17:26:41Z</time>
      </trkpt>
      <trkpt lat="45.872798608615994" lon="5.941876592114568">
        <ele>291</ele>
        <time>2014-05-17T17:26:42Z</time>
      </trkpt>
      <trkpt lat="45.873268246650696" lon="5.941473003476858">
        <ele>291.20001220703125</ele>
        <time>2014-05-17T17:26:49Z</time>
      </trkpt>
      <trkpt lat="45.873703770339489" lon="5.940943518653512">
        <ele>290.39999389648437</ele>
        <time>2014-05-17T17:26:56Z</time>
      </trkpt>
      <trkpt lat="45.873762527480721" lon="5.940863220021129">
        <ele>290.20001220703125</ele>
        <time>2014-05-17T17:26:57Z</time>
      </trkpt>
      <trkpt lat="45.874205678701401" lon="5.940336333587766">
        <ele>289.60000610351562</ele>
        <time>2014-05-17T17:27:04Z</time>
      </trkpt>
      <trkpt lat="45.874278265982866" lon="5.940278917551041">
        <ele>289.60000610351562</ele>
        <time>2014-05-17T17:27:05Z</time>
      </trkpt>
      <trkpt lat="45.874425368383527" lon="5.940169282257557">
        <ele>289</ele>
        <time>2014-05-17T17:27:07Z</time>
      </trkpt>
      <trkpt lat="45.874806577339768" lon="5.939953364431858">
        <ele>288</ele>
        <time>2014-05-17T17:27:12Z</time>
      </trkpt>
      <trkpt lat="45.874881595373154" lon="5.939915226772428">
        <ele>287.60000610351562</ele>
        <time>2014-05-17T17:27:13Z</time>
      </trkpt>
      <trkpt lat="45.875388700515032" lon="5.939666535705328">
        <ele>287.39999389648437</ele>
        <time>2014-05-17T17:27:20Z</time>
      </trkpt>
      <trkpt lat="45.875922292470932" lon="5.939409881830216">
        <ele>287.39999389648437</ele>
        <time>2014-05-17T17:27:27Z</time>
      </trkpt>
      <trkpt lat="45.875998735427856" lon="5.939372163265944">
        <ele>287.60000610351562</ele>
        <time>2014-05-17T17:27:28Z</time>
      </trkpt>
      <trkpt lat="45.876523945480585" lon="5.939116682857275">
        <ele>287.20001220703125</ele>
        <time>2014-05-17T17:27:35Z</time>
      </trkpt>
      <trkpt lat="45.876744892448187" lon="5.939006041735411">
        <ele>286.20001220703125</ele>
        <time>2014-05-17T17:27:38Z</time>
      </trkpt>
      <trkpt lat="45.876816976815462" lon="5.938972095027566">
        <ele>286</ele>
        <time>2014-05-17T17:27:39Z</time>
      </trkpt>
      <trkpt lat="45.87730354629457" lon="5.938724912703037">
        <ele>287.39999389648437</ele>
        <time>2014-05-17T17:27:46Z</time>
      </trkpt>
      <trkpt lat="45.877515524625778" lon="5.938622150570154">
        <ele>287.60000610351562</ele>
        <time>2014-05-17T17:27:49Z</time>
      </trkpt>
      <trkpt lat="45.877869157120585" lon="5.938447555527091">
        <ele>286.39999389648437</ele>
        <time>2014-05-17T17:27:54Z</time>
      </trkpt>
      <trkpt lat="45.878016678616405" lon="5.938375303521752">
        <ele>286.60000610351562</ele>
        <time>2014-05-17T17:27:56Z</time>
      </trkpt>
      <trkpt lat="45.878531578928232" lon="5.938126109540463">
        <ele>286.60000610351562</ele>
        <time>2014-05-17T17:28:03Z</time>
      </trkpt>
      <trkpt lat="45.878606177866459" lon="5.938088893890381">
        <ele>286.60000610351562</ele>
        <time>2014-05-17T17:28:04Z</time>
      </trkpt>
      <trkpt lat="45.879116887226701" lon="5.937819248065352">
        <ele>286.39999389648437</ele>
        <time>2014-05-17T17:28:11Z</time>
      </trkpt>
      <trkpt lat="45.879257787019014" lon="5.937736937776208">
        <ele>286.39999389648437</ele>
        <time>2014-05-17T17:28:13Z</time>
      </trkpt>
      <trkpt lat="45.879713846370578" lon="5.937364948913455">
        <ele>286.20001220703125</ele>
        <time>2014-05-17T17:28:20Z</time>
      </trkpt>
      <trkpt lat="45.880188010632992" lon="5.936846192926168">
        <ele>285.60000610351562</ele>
        <time>2014-05-17T17:28:28Z</time>
      </trkpt>
      <trkpt lat="45.880625797435641" lon="5.936279743909836">
        <ele>286</ele>
        <time>2014-05-17T17:28:36Z</time>
      </trkpt>
      <trkpt lat="45.880679106339812" lon="5.936213778331876">
        <ele>285.60000610351562</ele>
        <time>2014-05-17T17:28:37Z</time>
      </trkpt>
      <trkpt lat="45.880841966718435" lon="5.93602099455893">
        <ele>285.39999389648438</ele>
        <time>2014-05-17T17:28:40Z</time>
      </trkpt>
      <trkpt lat="45.881121922284365" lon="5.935719246044755">
        <ele>284.79998779296875</ele>
        <time>2014-05-17T17:28:45Z</time>
      </trkpt>
      <trkpt lat="45.881483936682343" lon="5.935435350984335">
        <ele>284.20001220703125</ele>
        <time>2014-05-17T17:28:51Z</time>
      </trkpt>
      <trkpt lat="45.881546214222908" lon="5.935401152819395">
        <ele>284.39999389648437</ele>
        <time>2014-05-17T17:28:52Z</time>
      </trkpt>
      <trkpt lat="45.881734052672982" lon="5.935298139229417">
        <ele>285.20001220703125</ele>
        <time>2014-05-17T17:28:55Z</time>
      </trkpt>
      <trkpt lat="45.88206228800118" lon="5.935171656310558">
        <ele>285.79998779296875</ele>
        <time>2014-05-17T17:29:00Z</time>
      </trkpt>
      <trkpt lat="45.882449951022863" lon="5.935072666034102">
        <ele>286.20001220703125</ele>
        <time>2014-05-17T17:29:06Z</time>
      </trkpt>
      <trkpt lat="45.882577188313007" lon="5.935034193098545">
        <ele>285.20001220703125</ele>
        <time>2014-05-17T17:29:08Z</time>
      </trkpt>
      <trkpt lat="45.882641058415174" lon="5.935015752911568">
        <ele>285</ele>
        <time>2014-05-17T17:29:09Z</time>
      </trkpt>
      <trkpt lat="45.883151683956385" lon="5.934890946373344">
        <ele>284.79998779296875</ele>
        <time>2014-05-17T17:29:17Z</time>
      </trkpt>
      <trkpt lat="45.883722323924303" lon="5.93475348316133">
        <ele>284.79998779296875</ele>
        <time>2014-05-17T17:29:26Z</time>
      </trkpt>
      <trkpt lat="45.884124906733632" lon="5.934731438755989">
        <ele>284.60000610351562</ele>
        <time>2014-05-17T17:29:32Z</time>
      </trkpt>
      <trkpt lat="45.884188525378704" lon="5.934762787073851">
        <ele>284.60000610351562</ele>
        <time>2014-05-17T17:29:33Z</time>
      </trkpt>
      <trkpt lat="45.884349038824439" lon="5.934938136488199">
        <ele>285</ele>
        <time>2014-05-17T17:29:36Z</time>
      </trkpt>
      <trkpt lat="45.884436629712582" lon="5.935203423723579">
        <ele>285.39999389648438</ele>
        <time>2014-05-17T17:29:39Z</time>
      </trkpt>
      <trkpt lat="45.884462781250477" lon="5.935501484200358">
        <ele>285.60000610351562</ele>
        <time>2014-05-17T17:29:42Z</time>
      </trkpt>
      <trkpt lat="45.884475186467171" lon="5.935702063143253">
        <ele>285.60000610351562</ele>
        <time>2014-05-17T17:29:44Z</time>
      </trkpt>
      <trkpt lat="45.88451424613595" lon="5.936183771118522">
        <ele>285</ele>
        <time>2014-05-17T17:29:49Z</time>
      </trkpt>
      <trkpt lat="45.884562442079186" lon="5.936365742236376">
        <ele>285.60000610351562</ele>
        <time>2014-05-17T17:29:51Z</time>
      </trkpt>
      <trkpt lat="45.884739467874169" lon="5.936679393053055">
        <ele>285.60000610351562</ele>
        <time>2014-05-17T17:29:55Z</time>
      </trkpt>
      <trkpt lat="45.884796045720577" lon="5.936744604259729">
        <ele>285.79998779296875</ele>
        <time>2014-05-17T17:29:56Z</time>
      </trkpt>
      <trkpt lat="45.885208854451776" lon="5.937214912846685">
        <ele>284.79998779296875</ele>
        <time>2014-05-17T17:30:03Z</time>
      </trkpt>
      <trkpt lat="45.885375570505857" lon="5.937443906441331">
        <ele>284.60000610351562</ele>
        <time>2014-05-17T17:30:06Z</time>
      </trkpt>
      <trkpt lat="45.885448157787323" lon="5.937642557546496">
        <ele>284.79998779296875</ele>
        <time>2014-05-17T17:30:08Z</time>
      </trkpt>
      <trkpt lat="45.885491576045752" lon="5.938093587756157">
        <ele>284.60000610351562</ele>
        <time>2014-05-17T17:30:12Z</time>
      </trkpt>
      <trkpt lat="45.885469447821379" lon="5.938312606886029">
        <ele>284.79998779296875</ele>
        <time>2014-05-17T17:30:14Z</time>
      </trkpt>
      <trkpt lat="45.885443966835737" lon="5.938525926321745">
        <ele>285</ele>
        <time>2014-05-17T17:30:16Z</time>
      </trkpt>
      <trkpt lat="45.885438183322549" lon="5.939058093354106">
        <ele>285.20001220703125</ele>
        <time>2014-05-17T17:30:21Z</time>
      </trkpt>
      <trkpt lat="45.885455952957273" lon="5.939161358401179">
        <ele>285.39999389648438</ele>
        <time>2014-05-17T17:30:22Z</time>
      </trkpt>
      <trkpt lat="45.88552376255393" lon="5.939449528232217">
        <ele>286</ele>
        <time>2014-05-17T17:30:25Z</time>
      </trkpt>
      <trkpt lat="45.885560056194663" lon="5.939536867663264">
        <ele>286.20001220703125</ele>
        <time>2014-05-17T17:30:26Z</time>
      </trkpt>
      <trkpt lat="45.885595427826047" lon="5.939623117446899">
        <ele>286.39999389648437</ele>
        <time>2014-05-17T17:30:27Z</time>
      </trkpt>
      <trkpt lat="45.885676899924874" lon="5.939785055816174">
        <ele>286.20001220703125</ele>
        <time>2014-05-17T17:30:29Z</time>
      </trkpt>
      <trkpt lat="45.885726436972618" lon="5.939855128526688">
        <ele>285.79998779296875</ele>
        <time>2014-05-17T17:30:30Z</time>
      </trkpt>
      <trkpt lat="45.88601041585207" lon="5.940132485702634">
        <ele>285.60000610351562</ele>
        <time>2014-05-17T17:30:35Z</time>
      </trkpt>
      <trkpt lat="45.886070430278778" lon="5.940167102962732">
        <ele>285.39999389648438</ele>
        <time>2014-05-17T17:30:36Z</time>
      </trkpt>
      <trkpt lat="45.886257849633694" lon="5.94022854231298">
        <ele>286</ele>
        <time>2014-05-17T17:30:39Z</time>
      </trkpt>
      <trkpt lat="45.886569656431675" lon="5.940223094075918">
        <ele>286.20001220703125</ele>
        <time>2014-05-17T17:30:44Z</time>
      </trkpt>
      <trkpt lat="45.886861514300108" lon="5.940090240910649">
        <ele>286.60000610351562</ele>
        <time>2014-05-17T17:30:49Z</time>
      </trkpt>
      <trkpt lat="45.887259403243661" lon="5.939899384975433">
        <ele>287.39999389648437</ele>
        <time>2014-05-17T17:30:56Z</time>
      </trkpt>
      <trkpt lat="45.887662656605244" lon="5.939709367230535">
        <ele>287.79998779296875</ele>
        <time>2014-05-17T17:31:03Z</time>
      </trkpt>
      <trkpt lat="45.887894248589873" lon="5.939599061384797">
        <ele>288.39999389648437</ele>
        <time>2014-05-17T17:31:07Z</time>
      </trkpt>
      <trkpt lat="45.888067251071334" lon="5.939517756924033">
        <ele>289.39999389648437</ele>
        <time>2014-05-17T17:31:10Z</time>
      </trkpt>
      <trkpt lat="45.888123326003551" lon="5.939487330615521">
        <ele>289.60000610351562</ele>
        <time>2014-05-17T17:31:11Z</time>
      </trkpt>
      <trkpt lat="45.888479640707374" lon="5.939303012564778">
        <ele>289</ele>
        <time>2014-05-17T17:31:18Z</time>
      </trkpt>
      <trkpt lat="45.888555329293013" lon="5.939236711710692">
        <ele>289.60000610351562</ele>
        <time>2014-05-17T17:31:20Z</time>
      </trkpt>
      <trkpt lat="45.888608889654279" lon="5.939162531867623">
        <ele>290</ele>
        <time>2014-05-17T17:31:22Z</time>
      </trkpt>
      <trkpt lat="45.888700755313039" lon="5.939023392274976">
        <ele>290.60000610351562</ele>
        <time>2014-05-17T17:31:25Z</time>
      </trkpt>
      <trkpt lat="45.888794381171465" lon="5.938901687040925">
        <ele>290.79998779296875</ele>
        <time>2014-05-17T17:31:27Z</time>
      </trkpt>
      <trkpt lat="45.88912638835609" lon="5.938530452549458">
        <ele>289.79998779296875</ele>
        <time>2014-05-17T17:31:33Z</time>
      </trkpt>
      <trkpt lat="45.889463759958744" lon="5.938128456473351">
        <ele>291.20001220703125</ele>
        <time>2014-05-17T17:31:40Z</time>
      </trkpt>
      <trkpt lat="45.889846393838525" lon="5.937784211710095">
        <ele>291.39999389648437</ele>
        <time>2014-05-17T17:31:47Z</time>
      </trkpt>
      <trkpt lat="45.890183765441179" lon="5.937563767656684">
        <ele>291.79998779296875</ele>
        <time>2014-05-17T17:31:53Z</time>
      </trkpt>
      <trkpt lat="45.890293819829822" lon="5.937500568106771">
        <ele>291.79998779296875</ele>
        <time>2014-05-17T17:31:55Z</time>
      </trkpt>
      <trkpt lat="45.890678213909268" lon="5.937305605039001">
        <ele>292.20001220703125</ele>
        <time>2014-05-17T17:32:03Z</time>
      </trkpt>
      <trkpt lat="45.890850042924285" lon="5.937173673883081">
        <ele>292.20001220703125</ele>
        <time>2014-05-17T17:32:08Z</time>
      </trkpt>
      <trkpt lat="45.890932437032461" lon="5.937130842357874">
        <ele>292.39999389648437</ele>
        <time>2014-05-17T17:32:10Z</time>
      </trkpt>
      <trkpt lat="45.891057075932622" lon="5.937051549553871">
        <ele>292.39999389648437</ele>
        <time>2014-05-17T17:32:13Z</time>
      </trkpt>
      <trkpt lat="45.891099739819765" lon="5.937027996405959">
        <ele>292.39999389648437</ele>
        <time>2014-05-17T17:32:14Z</time>
      </trkpt>
      <trkpt lat="45.891451947391033" lon="5.93684384599328">
        <ele>292.39999389648437</ele>
        <time>2014-05-17T17:32:22Z</time>
      </trkpt>
      <trkpt lat="45.891493521630764" lon="5.9368238132447">
        <ele>292.79998779296875</ele>
        <time>2014-05-17T17:32:23Z</time>
      </trkpt>
      <trkpt lat="45.891536269336939" lon="5.936812413856387">
        <ele>293</ele>
        <time>2014-05-17T17:32:24Z</time>
      </trkpt>
      <trkpt lat="45.8916643448174" lon="5.936757177114487">
        <ele>293.79998779296875</ele>
        <time>2014-05-17T17:32:28Z</time>
      </trkpt>
      <trkpt lat="45.89168781414628" lon="5.936741335317493">
        <ele>294.20001220703125</ele>
        <time>2014-05-17T17:32:29Z</time>
      </trkpt>
      <trkpt lat="45.891775656491518" lon="5.936691295355558">
        <ele>296</ele>
        <time>2014-05-17T17:33:06Z</time>
      </trkpt>
      <trkpt lat="45.891825947910547" lon="5.936649553477764">
        <ele>296.20001220703125</ele>
        <time>2014-05-17T17:33:09Z</time>
      </trkpt>
      <trkpt lat="45.891891494393349" lon="5.936609152704477">
        <ele>296</ele>
        <time>2014-05-17T17:33:12Z</time>
      </trkpt>
      <trkpt lat="45.89198880828917" lon="5.936547126621008">
        <ele>296.20001220703125</ele>
        <time>2014-05-17T17:33:16Z</time>
      </trkpt>
      <trkpt lat="45.892160469666123" lon="5.936442939564586">
        <ele>297</ele>
        <time>2014-05-17T17:33:23Z</time>
      </trkpt>
      <trkpt lat="45.892255185171962" lon="5.936384350061417">
        <ele>297.39999389648437</ele>
        <time>2014-05-17T17:33:26Z</time>
      </trkpt>
      <trkpt lat="45.892414776608348" lon="5.936287119984627">
        <ele>298</ele>
        <time>2014-05-17T17:33:30Z</time>
      </trkpt>
      <trkpt lat="45.892458111047745" lon="5.936254262924194">
        <ele>298.60000610351562</ele>
        <time>2014-05-17T17:33:31Z</time>
      </trkpt>
      <trkpt lat="45.892721135169268" lon="5.936068939045072">
        <ele>299</ele>
        <time>2014-05-17T17:33:36Z</time>
      </trkpt>
      <trkpt lat="45.89282046072185" lon="5.936002135276794">
        <ele>299.60000610351562</ele>
        <time>2014-05-17T17:33:38Z</time>
      </trkpt>
      <trkpt lat="45.89310678653419" lon="5.935806669294834">
        <ele>300.60000610351562</ele>
        <time>2014-05-17T17:33:44Z</time>
      </trkpt>
      <trkpt lat="45.893146265298128" lon="5.935786804184318">
        <ele>301.20001220703125</ele>
        <time>2014-05-17T17:33:45Z</time>
      </trkpt>
      <trkpt lat="45.893232431262732" lon="5.935751516371965">
        <ele>301.79998779296875</ele>
        <time>2014-05-17T17:33:47Z</time>
      </trkpt>
      <trkpt lat="45.893416414037347" lon="5.935685215517879">
        <ele>302.20001220703125</ele>
        <time>2014-05-17T17:33:51Z</time>
      </trkpt>
      <trkpt lat="45.893606264144182" lon="5.935615058988333">
        <ele>302.79998779296875</ele>
        <time>2014-05-17T17:33:56Z</time>
      </trkpt>
      <trkpt lat="45.89364867657423" lon="5.935594607144594">
        <ele>303</ele>
        <time>2014-05-17T17:33:57Z</time>
      </trkpt>
      <trkpt lat="45.893846908584237" lon="5.935477931052446">
        <ele>304</ele>
        <time>2014-05-17T17:34:02Z</time>
      </trkpt>
      <trkpt lat="45.893961153924465" lon="5.935396123677492">
        <ele>304</ele>
        <time>2014-05-17T17:34:05Z</time>
      </trkpt>
      <trkpt lat="45.894002728164196" lon="5.935363853350282">
        <ele>304</ele>
        <time>2014-05-17T17:34:06Z</time>
      </trkpt>
      <trkpt lat="45.894077913835645" lon="5.935310628265142">
        <ele>304.20001220703125</ele>
        <time>2014-05-17T17:34:08Z</time>
      </trkpt>
      <trkpt lat="45.894195763394237" lon="5.935249272733927">
        <ele>304.39999389648437</ele>
        <time>2014-05-17T17:34:11Z</time>
      </trkpt>
      <trkpt lat="45.894416039809585" lon="5.935156904160976">
        <ele>305.20001220703125</ele>
        <time>2014-05-17T17:34:16Z</time>
      </trkpt>
      <trkpt lat="45.894512599334121" lon="5.935131926089525">
        <ele>306</ele>
        <time>2014-05-17T17:34:18Z</time>
      </trkpt>
      <trkpt lat="45.89455995708704" lon="5.93512874096632">
        <ele>306.20001220703125</ele>
        <time>2014-05-17T17:34:19Z</time>
      </trkpt>
      <trkpt lat="45.894753746688366" lon="5.935143744572997">
        <ele>307.39999389648437</ele>
        <time>2014-05-17T17:34:23Z</time>
      </trkpt>
      <trkpt lat="45.894844857975841" lon="5.935158329084516">
        <ele>307.60000610351562</ele>
        <time>2014-05-17T17:34:25Z</time>
      </trkpt>
      <trkpt lat="45.895134285092354" lon="5.935193784534931">
        <ele>307</ele>
        <time>2014-05-17T17:34:31Z</time>
      </trkpt>
      <trkpt lat="45.895222797989845" lon="5.935177272185683">
        <ele>308</ele>
        <time>2014-05-17T17:34:33Z</time>
      </trkpt>
      <trkpt lat="45.895306533202529" lon="5.935149695724249">
        <ele>308.60000610351562</ele>
        <time>2014-05-17T17:34:35Z</time>
      </trkpt>
      <trkpt lat="45.895478529855609" lon="5.935091860592365">
        <ele>309.79998779296875</ele>
        <time>2014-05-17T17:34:39Z</time>
      </trkpt>
      <trkpt lat="45.895568551495671" lon="5.935075851157308">
        <ele>310.20001220703125</ele>
        <time>2014-05-17T17:34:41Z</time>
      </trkpt>
      <trkpt lat="45.895938193425536" lon="5.935065122321248">
        <ele>310.39999389648437</ele>
        <time>2014-05-17T17:34:49Z</time>
      </trkpt>
      <trkpt lat="45.896248407661915" lon="5.935057327151299">
        <ele>310.39999389648437</ele>
        <time>2014-05-17T17:34:56Z</time>
      </trkpt>
      <trkpt lat="45.896348236128688" lon="5.935055902227759">
        <ele>310.79998779296875</ele>
        <time>2014-05-17T17:34:58Z</time>
      </trkpt>
      <trkpt lat="45.896573206409812" lon="5.935033857822418">
        <ele>310.60000610351562</ele>
        <time>2014-05-17T17:35:02Z</time>
      </trkpt>
      <trkpt lat="45.896798511967063" lon="5.935025811195374">
        <ele>309.79998779296875</ele>
        <time>2014-05-17T17:35:06Z</time>
      </trkpt>
      <trkpt lat="45.897074276581407" lon="5.935012316331267">
        <ele>310</ele>
        <time>2014-05-17T17:35:11Z</time>
      </trkpt>
      <trkpt lat="45.897583728656173" lon="5.934984153136611">
        <ele>309</ele>
        <time>2014-05-17T17:35:20Z</time>
      </trkpt>
      <trkpt lat="45.897821187973022" lon="5.934964120388031">
        <ele>308.60000610351562</ele>
        <time>2014-05-17T17:35:24Z</time>
      </trkpt>
      <trkpt lat="45.898088235408068" lon="5.934957331046462">
        <ele>308.60000610351562</ele>
        <time>2014-05-17T17:35:29Z</time>
      </trkpt>
      <trkpt lat="45.89837959036231" lon="5.934930173680186">
        <ele>309.39999389648437</ele>
        <time>2014-05-17T17:35:34Z</time>
      </trkpt>
      <trkpt lat="45.898859119042754" lon="5.93490444123745">
        <ele>309</ele>
        <time>2014-05-17T17:35:42Z</time>
      </trkpt>
      <trkpt lat="45.899362117052078" lon="5.934883737936616">
        <ele>309.39999389648437</ele>
        <time>2014-05-17T17:35:51Z</time>
      </trkpt>
      <trkpt lat="45.899671157822013" lon="5.934891449287534">
        <ele>308.79998779296875</ele>
        <time>2014-05-17T17:35:57Z</time>
      </trkpt>
      <trkpt lat="45.899875089526176" lon="5.934892203658819">
        <ele>309</ele>
        <time>2014-05-17T17:36:01Z</time>
      </trkpt>
      <trkpt lat="45.900009116157889" lon="5.934875942766666">
        <ele>309</ele>
        <time>2014-05-17T17:36:03Z</time>
      </trkpt>
      <trkpt lat="45.900505241006613" lon="5.934830512851477">
        <ele>309.39999389648437</ele>
        <time>2014-05-17T17:36:11Z</time>
      </trkpt>
      <trkpt lat="45.900626024231315" lon="5.934816934168339">
        <ele>309.79998779296875</ele>
        <time>2014-05-17T17:36:13Z</time>
      </trkpt>
      <trkpt lat="45.900993654504418" lon="5.934763289988041">
        <ele>309.39999389648437</ele>
        <time>2014-05-17T17:36:19Z</time>
      </trkpt>
      <trkpt lat="45.901110749691725" lon="5.934712244197726">
        <ele>309.39999389648437</ele>
        <time>2014-05-17T17:36:21Z</time>
      </trkpt>
      <trkpt lat="45.901276795193553" lon="5.934597747400403">
        <ele>309.39999389648437</ele>
        <time>2014-05-17T17:36:24Z</time>
      </trkpt>
      <trkpt lat="45.901666386052966" lon="5.934249060228467">
        <ele>310</ele>
        <time>2014-05-17T17:36:31Z</time>
      </trkpt>
      <trkpt lat="45.902088582515717" lon="5.933885034173727">
        <ele>308.60000610351562</ele>
        <time>2014-05-17T17:36:38Z</time>
      </trkpt>
      <trkpt lat="45.902215735986829" lon="5.933780344203115">
        <ele>307.60000610351562</ele>
        <time>2014-05-17T17:36:40Z</time>
      </trkpt>
      <trkpt lat="45.902405166998506" lon="5.933616142719984">
        <ele>306.20001220703125</ele>
        <time>2014-05-17T17:36:43Z</time>
      </trkpt>
      <trkpt lat="45.902591831982136" lon="5.933435009792447">
        <ele>305</ele>
        <time>2014-05-17T17:36:46Z</time>
      </trkpt>
      <trkpt lat="45.9027542732656" lon="5.933203501626849">
        <ele>304.39999389648437</ele>
        <time>2014-05-17T17:36:49Z</time>
      </trkpt>
      <trkpt lat="45.902793584391475" lon="5.933108869940043">
        <ele>304.20001220703125</ele>
        <time>2014-05-17T17:36:50Z</time>
      </trkpt>
      <trkpt lat="45.902819484472275" lon="5.933004850521684">
        <ele>304</ele>
        <time>2014-05-17T17:36:51Z</time>
      </trkpt>
      <trkpt lat="45.902846641838551" lon="5.932783400639892">
        <ele>304.39999389648437</ele>
        <time>2014-05-17T17:36:53Z</time>
      </trkpt>
      <trkpt lat="45.902854185551405" lon="5.93255365267396">
        <ele>304.39999389648437</ele>
        <time>2014-05-17T17:36:55Z</time>
      </trkpt>
      <trkpt lat="45.902812192216516" lon="5.932458769530058">
        <ele>304</ele>
        <time>2014-05-17T17:36:56Z</time>
      </trkpt>
      <trkpt lat="45.90277480892837" lon="5.932361539453268">
        <ele>303.60000610351562</ele>
        <time>2014-05-17T17:36:57Z</time>
      </trkpt>
      <trkpt lat="45.902597531676292" lon="5.932113183662295">
        <ele>303</ele>
        <time>2014-05-17T17:37:00Z</time>
      </trkpt>
      <trkpt lat="45.902461828663945" lon="5.931970942765474">
        <ele>302</ele>
        <time>2014-05-17T17:37:02Z</time>
      </trkpt>
      <trkpt lat="45.902392594143748" lon="5.931900618597865">
        <ele>301.39999389648437</ele>
        <time>2014-05-17T17:37:03Z</time>
      </trkpt>
      <trkpt lat="45.902168629691005" lon="5.931689226999879">
        <ele>300.60000610351562</ele>
        <time>2014-05-17T17:37:06Z</time>
      </trkpt>
      <trkpt lat="45.902094282209873" lon="5.931613370776177">
        <ele>300.20001220703125</ele>
        <time>2014-05-17T17:37:07Z</time>
      </trkpt>
      <trkpt lat="45.901959585025907" lon="5.931434920057654">
        <ele>299.60000610351562</ele>
        <time>2014-05-17T17:37:09Z</time>
      </trkpt>
      <trkpt lat="45.901901079341769" lon="5.931332241743803">
        <ele>299.20001220703125</ele>
        <time>2014-05-17T17:37:10Z</time>
      </trkpt>
      <trkpt lat="45.901848105713725" lon="5.931221935898066">
        <ele>298.60000610351562</ele>
        <time>2014-05-17T17:37:11Z</time>
      </trkpt>
      <trkpt lat="45.901734447106719" lon="5.93084835447371">
        <ele>297.60000610351562</ele>
        <time>2014-05-17T17:37:14Z</time>
      </trkpt>
      <trkpt lat="45.901707960292697" lon="5.930438647046685">
        <ele>296.39999389648438</ele>
        <time>2014-05-17T17:37:17Z</time>
      </trkpt>
      <trkpt lat="45.901710307225585" lon="5.930305123329163">
        <ele>296</ele>
        <time>2014-05-17T17:37:18Z</time>
      </trkpt>
      <trkpt lat="45.901720449328423" lon="5.930175287649036">
        <ele>295.20001220703125</ele>
        <time>2014-05-17T17:37:19Z</time>
      </trkpt>
      <trkpt lat="45.901745762676001" lon="5.930044865235686">
        <ele>294.60000610351562</ele>
        <time>2014-05-17T17:37:20Z</time>
      </trkpt>
      <trkpt lat="45.901776943355799" lon="5.929922657087445">
        <ele>294.20001220703125</ele>
        <time>2014-05-17T17:37:21Z</time>
      </trkpt>
      <trkpt lat="45.90192605741322" lon="5.929590566083789">
        <ele>293.20001220703125</ele>
        <time>2014-05-17T17:37:24Z</time>
      </trkpt>
      <trkpt lat="45.901988502591848" lon="5.929491575807333">
        <ele>292.79998779296875</ele>
        <time>2014-05-17T17:37:25Z</time>
      </trkpt>
      <trkpt lat="45.902117248624563" lon="5.929314717650414">
        <ele>291.60000610351562</ele>
        <time>2014-05-17T17:37:27Z</time>
      </trkpt>
      <trkpt lat="45.902181621640921" lon="5.929238358512521">
        <ele>291</ele>
        <time>2014-05-17T17:37:28Z</time>
      </trkpt>
      <trkpt lat="45.902442717924714" lon="5.928936861455441">
        <ele>292.20001220703125</ele>
        <time>2014-05-17T17:37:33Z</time>
      </trkpt>
      <trkpt lat="45.902488902211189" lon="5.928888581693173">
        <ele>292.79998779296875</ele>
        <time>2014-05-17T17:37:34Z</time>
      </trkpt>
      <trkpt lat="45.902545899152756" lon="5.928790848702192">
        <ele>293.20001220703125</ele>
        <time>2014-05-17T17:37:36Z</time>
      </trkpt>
      <trkpt lat="45.902552688494325" lon="5.928735276684165">
        <ele>293.20001220703125</ele>
        <time>2014-05-17T17:37:37Z</time>
      </trkpt>
      <trkpt lat="45.902523100376129" lon="5.928643243387342">
        <ele>293.79998779296875</ele>
        <time>2014-05-17T17:37:39Z</time>
      </trkpt>
      <trkpt lat="45.90249820612371" lon="5.928612984716892">
        <ele>294</ele>
        <time>2014-05-17T17:37:40Z</time>
      </trkpt>
      <trkpt lat="45.902393683791161" lon="5.928588677197695">
        <ele>294.20001220703125</ele>
        <time>2014-05-17T17:37:43Z</time>
      </trkpt>
      <trkpt lat="45.902360742911696" lon="5.928571410477161">
        <ele>294</ele>
        <time>2014-05-17T17:37:44Z</time>
      </trkpt>
      <trkpt lat="45.902291340753436" lon="5.92847166582942">
        <ele>294.39999389648437</ele>
        <time>2014-05-17T17:37:48Z</time>
      </trkpt>
      <trkpt lat="45.902252616360784" lon="5.928352391347289">
        <ele>294.39999389648437</ele>
        <time>2014-05-17T17:37:53Z</time>
      </trkpt>
      <trkpt lat="45.90225244872272" lon="5.928333448246121">
        <ele>294.39999389648437</ele>
        <time>2014-05-17T17:37:54Z</time>
      </trkpt>
      <trkpt lat="45.902316318824887" lon="5.928301177918911">
        <ele>294.79998779296875</ele>
        <time>2014-05-17T17:41:40Z</time>
      </trkpt>
      <trkpt lat="45.902296705171466" lon="5.92830260284245">
        <ele>294.79998779296875</ele>
        <time>2014-05-17T17:41:41Z</time>
      </trkpt>
      <trkpt lat="45.902280528098345" lon="5.928288605064154">
        <ele>294.79998779296875</ele>
        <time>2014-05-17T17:41:47Z</time>
      </trkpt>
      <trkpt lat="45.902259321883321" lon="5.928266393020749">
        <ele>294.60000610351562</ele>
        <time>2014-05-17T17:41:48Z</time>
      </trkpt>
      <trkpt lat="45.902186818420887" lon="5.928080063313246">
        <ele>294.20001220703125</ele>
        <time>2014-05-17T17:41:54Z</time>
      </trkpt>
      <trkpt lat="45.902170473709702" lon="5.92805340886116">
        <ele>294</ele>
        <time>2014-05-17T17:41:55Z</time>
      </trkpt>
      <trkpt lat="45.902109118178487" lon="5.927955089136958">
        <ele>293.79998779296875</ele>
        <time>2014-05-17T17:41:58Z</time>
      </trkpt>
      <trkpt lat="45.902080871164799" lon="5.9277284424752">
        <ele>293.39999389648437</ele>
        <time>2014-05-17T17:42:03Z</time>
      </trkpt>
      <trkpt lat="45.902124121785164" lon="5.927662225440145">
        <ele>293.20001220703125</ele>
        <time>2014-05-17T17:42:05Z</time>
      </trkpt>
      <trkpt lat="45.902182795107365" lon="5.927609670907259">
        <ele>293</ele>
        <time>2014-05-17T17:42:07Z</time>
      </trkpt>
      <trkpt lat="45.902364682406187" lon="5.927479499951005">
        <ele>293</ele>
        <time>2014-05-17T17:42:13Z</time>
      </trkpt>
      <trkpt lat="45.902551431208849" lon="5.927374390885234">
        <ele>293</ele>
        <time>2014-05-17T17:42:19Z</time>
      </trkpt>
      <trkpt lat="45.902584288269281" lon="5.927362237125635">
        <ele>292.60000610351562</ele>
        <time>2014-05-17T17:42:20Z</time>
      </trkpt>
      <trkpt lat="45.902734827250242" lon="5.927275400608778">
        <ele>292.39999389648437</ele>
        <time>2014-05-17T17:42:25Z</time>
      </trkpt>
      <trkpt lat="45.902859130874276" lon="5.927115138620138">
        <ele>292.39999389648437</ele>
        <time>2014-05-17T17:42:30Z</time>
      </trkpt>
      <trkpt lat="45.902858292683959" lon="5.927072810009122">
        <ele>292.39999389648437</ele>
        <time>2014-05-17T17:42:31Z</time>
      </trkpt>
      <trkpt lat="45.902839433401823" lon="5.926978010684252">
        <ele>292.39999389648437</ele>
        <time>2014-05-17T17:42:33Z</time>
      </trkpt>
      <trkpt lat="45.902801966294646" lon="5.926856808364391">
        <ele>292.79998779296875</ele>
        <time>2014-05-17T17:42:36Z</time>
      </trkpt>
      <trkpt lat="45.902775898575783" lon="5.926758488640189">
        <ele>292.60000610351562</ele>
        <time>2014-05-17T17:42:39Z</time>
      </trkpt>
      <trkpt lat="45.902713034301996" lon="5.926537457853556">
        <ele>292.39999389648437</ele>
        <time>2014-05-17T17:42:46Z</time>
      </trkpt>
      <trkpt lat="45.902700377628207" lon="5.926596214994788">
        <ele>286.79998779296875</ele>
        <time>2014-05-18T05:53:49Z</time>
      </trkpt>
      <trkpt lat="45.902707586064935" lon="5.926642566919327">
        <ele>286.20001220703125</ele>
        <time>2014-05-18T05:53:54Z</time>
      </trkpt>
      <trkpt lat="45.902717309072614" lon="5.926681542769074">
        <ele>286.39999389648437</ele>
        <time>2014-05-18T05:53:56Z</time>
      </trkpt>
      <trkpt lat="45.902760475873947" lon="5.926893688738346">
        <ele>286.60000610351562</ele>
        <time>2014-05-18T05:54:03Z</time>
      </trkpt>
      <trkpt lat="45.902807079255581" lon="5.927152773365378">
        <ele>287</ele>
        <time>2014-05-18T05:54:09Z</time>
      </trkpt>
      <trkpt lat="45.902729881927371" lon="5.927299791947007">
        <ele>287.39999389648437</ele>
        <time>2014-05-18T05:54:13Z</time>
      </trkpt>
      <trkpt lat="45.902592586353421" lon="5.927375061437488">
        <ele>287.39999389648437</ele>
        <time>2014-05-18T05:54:17Z</time>
      </trkpt>
      <trkpt lat="45.902348505333066" lon="5.927483858540654">
        <ele>287.60000610351562</ele>
        <time>2014-05-18T05:54:24Z</time>
      </trkpt>
      <trkpt lat="45.90218011289835" lon="5.927576227113605">
        <ele>287.39999389648437</ele>
        <time>2014-05-18T05:54:29Z</time>
      </trkpt>
      <trkpt lat="45.902048433199525" lon="5.927666584029794">
        <ele>288</ele>
        <time>2014-05-18T05:54:33Z</time>
      </trkpt>
      <trkpt lat="45.90201398357749" lon="5.927827935665846">
        <ele>287.79998779296875</ele>
        <time>2014-05-18T05:54:37Z</time>
      </trkpt>
      <trkpt lat="45.902092857286334" lon="5.928004710003734">
        <ele>287.60000610351562</ele>
        <time>2014-05-18T05:54:41Z</time>
      </trkpt>
      <trkpt lat="45.90213811956346" lon="5.928122727200389">
        <ele>288</ele>
        <time>2014-05-18T05:54:45Z</time>
      </trkpt>
      <trkpt lat="45.902142645791173" lon="5.928151058033109">
        <ele>288.20001220703125</ele>
        <time>2014-05-18T05:54:46Z</time>
      </trkpt>
      <trkpt lat="45.902177765965462" lon="5.928214257583022">
        <ele>288.39999389648437</ele>
        <time>2014-05-18T05:54:49Z</time>
      </trkpt>
      <trkpt lat="45.902219843119383" lon="5.928199589252472">
        <ele>288.39999389648437</ele>
        <time>2014-05-18T05:54:51Z</time>
      </trkpt>
      <trkpt lat="45.90226854197681" lon="5.928193386644125">
        <ele>288.79998779296875</ele>
        <time>2014-05-18T05:55:32Z</time>
      </trkpt>
      <trkpt lat="45.902246162295341" lon="5.928220124915242">
        <ele>288.60000610351562</ele>
        <time>2014-05-18T05:55:39Z</time>
      </trkpt>
      <trkpt lat="45.902233002707362" lon="5.928238146007061">
        <ele>288.79998779296875</ele>
        <time>2014-05-18T05:55:40Z</time>
      </trkpt>
      <trkpt lat="45.902202241122723" lon="5.928355576470494">
        <ele>288.60000610351562</ele>
        <time>2014-05-18T05:55:44Z</time>
      </trkpt>
      <trkpt lat="45.902279606088996" lon="5.928512569516897">
        <ele>288.79998779296875</ele>
        <time>2014-05-18T05:55:49Z</time>
      </trkpt>
      <trkpt lat="45.902420170605183" lon="5.928609715774655">
        <ele>288.60000610351562</ele>
        <time>2014-05-18T05:55:54Z</time>
      </trkpt>
      <trkpt lat="45.902516562491655" lon="5.928770396858454">
        <ele>288.60000610351562</ele>
        <time>2014-05-18T05:55:59Z</time>
      </trkpt>
      <trkpt lat="45.902465851977468" lon="5.928883971646428">
        <ele>288.79998779296875</ele>
        <time>2014-05-18T05:56:02Z</time>
      </trkpt>
      <trkpt lat="45.902326041832566" lon="5.929009281098843">
        <ele>288.79998779296875</ele>
        <time>2014-05-18T05:56:06Z</time>
      </trkpt>
      <trkpt lat="45.902289496734738" lon="5.929044401273131">
        <ele>288.79998779296875</ele>
        <time>2014-05-18T05:56:07Z</time>
      </trkpt>
      <trkpt lat="45.90225295163691" lon="5.929086394608021">
        <ele>288.60000610351562</ele>
        <time>2014-05-18T05:56:08Z</time>
      </trkpt>
      <trkpt lat="45.90202865190804" lon="5.929337432608008">
        <ele>289</ele>
        <time>2014-05-18T05:56:14Z</time>
      </trkpt>
      <trkpt lat="45.901957238093019" lon="5.929429046809673">
        <ele>289.20001220703125</ele>
        <time>2014-05-18T05:56:16Z</time>
      </trkpt>
      <trkpt lat="45.901803430169821" lon="5.929678911343217">
        <ele>289.79998779296875</ele>
        <time>2014-05-18T05:56:21Z</time>
      </trkpt>
      <trkpt lat="45.901756659150124" lon="5.929797179996967">
        <ele>290.20001220703125</ele>
        <time>2014-05-18T05:56:23Z</time>
      </trkpt>
      <trkpt lat="45.901737464591861" lon="5.929858535528183">
        <ele>290.39999389648437</ele>
        <time>2014-05-18T05:56:24Z</time>
      </trkpt>
      <trkpt lat="45.901685748249292" lon="5.930043272674084">
        <ele>291</ele>
        <time>2014-05-18T05:56:27Z</time>
      </trkpt>
      <trkpt lat="45.901654651388526" lon="5.930163636803627">
        <ele>291.39999389648437</ele>
        <time>2014-05-18T05:56:29Z</time>
      </trkpt>
      <trkpt lat="45.901647275313735" lon="5.93022633343935">
        <ele>291.60000610351562</ele>
        <time>2014-05-18T05:56:30Z</time>
      </trkpt>
      <trkpt lat="45.901635373011231" lon="5.930421464145184">
        <ele>292</ele>
        <time>2014-05-18T05:56:33Z</time>
      </trkpt>
      <trkpt lat="45.901646437123418" lon="5.930694211274386">
        <ele>292.60000610351562</ele>
        <time>2014-05-18T05:56:37Z</time>
      </trkpt>
      <trkpt lat="45.901678539812565" lon="5.930952290073037">
        <ele>293</ele>
        <time>2014-05-18T05:56:41Z</time>
      </trkpt>
      <trkpt lat="45.90172816067934" lon="5.931132417172194">
        <ele>293.60000610351562</ele>
        <time>2014-05-18T05:56:44Z</time>
      </trkpt>
      <trkpt lat="45.901748277246952" lon="5.931190922856331">
        <ele>293.79998779296875</ele>
        <time>2014-05-18T05:56:45Z</time>
      </trkpt>
      <trkpt lat="45.901793371886015" lon="5.931302905082703">
        <ele>294.20001220703125</ele>
        <time>2014-05-18T05:56:47Z</time>
      </trkpt>
      <trkpt lat="45.901929326355457" lon="5.931552853435278">
        <ele>295</ele>
        <time>2014-05-18T05:56:52Z</time>
      </trkpt>
      <trkpt lat="45.901962099596858" lon="5.931596187874675">
        <ele>295</ele>
        <time>2014-05-18T05:56:53Z</time>
      </trkpt>
      <trkpt lat="45.902029657736421" lon="5.931678162887693">
        <ele>295.60000610351562</ele>
        <time>2014-05-18T05:56:55Z</time>
      </trkpt>
      <trkpt lat="45.902173658832908" lon="5.931835239753127">
        <ele>296</ele>
        <time>2014-05-18T05:56:59Z</time>
      </trkpt>
      <trkpt lat="45.902330651879311" lon="5.931960213929415">
        <ele>296.79998779296875</ele>
        <time>2014-05-18T05:57:03Z</time>
      </trkpt>
      <trkpt lat="45.902410782873631" lon="5.932032214477658">
        <ele>297</ele>
        <time>2014-05-18T05:57:05Z</time>
      </trkpt>
      <trkpt lat="45.902599710971117" lon="5.93222776427865">
        <ele>297.60000610351562</ele>
        <time>2014-05-18T05:57:10Z</time>
      </trkpt>
      <trkpt lat="45.902628628537059" lon="5.932277971878648">
        <ele>297.79998779296875</ele>
        <time>2014-05-18T05:57:11Z</time>
      </trkpt>
      <trkpt lat="45.902682859450579" lon="5.932376123964787">
        <ele>298</ele>
        <time>2014-05-18T05:57:13Z</time>
      </trkpt>
      <trkpt lat="45.902747986838222" lon="5.932542588561773">
        <ele>298.79998779296875</ele>
        <time>2014-05-18T05:57:16Z</time>
      </trkpt>
      <trkpt lat="45.902774389833212" lon="5.932668149471283">
        <ele>299.20001220703125</ele>
        <time>2014-05-18T05:57:18Z</time>
      </trkpt>
      <trkpt lat="45.902775814756751" lon="5.932863866910338">
        <ele>299.60000610351562</ele>
        <time>2014-05-18T05:57:21Z</time>
      </trkpt>
      <trkpt lat="45.902755865827203" lon="5.932990768924356">
        <ele>299.79998779296875</ele>
        <time>2014-05-18T05:57:23Z</time>
      </trkpt>
      <trkpt lat="45.902741784229875" lon="5.933050950989127">
        <ele>300</ele>
        <time>2014-05-18T05:57:24Z</time>
      </trkpt>
      <trkpt lat="45.902696354314685" lon="5.933163268491626">
        <ele>300.39999389648437</ele>
        <time>2014-05-18T05:57:26Z</time>
      </trkpt>
      <trkpt lat="45.902645559981465" lon="5.933263348415494">
        <ele>300.60000610351562</ele>
        <time>2014-05-18T05:57:28Z</time>
      </trkpt>
      <trkpt lat="45.902616223320365" lon="5.933305928483605">
        <ele>300.79998779296875</ele>
        <time>2014-05-18T05:57:29Z</time>
      </trkpt>
      <trkpt lat="45.9025211725384" lon="5.933416737243533">
        <ele>301.60000610351562</ele>
        <time>2014-05-18T05:57:32Z</time>
      </trkpt>
      <trkpt lat="45.902354121208191" lon="5.933576999232173">
        <ele>302.39999389648438</ele>
        <time>2014-05-18T05:57:37Z</time>
      </trkpt>
      <trkpt lat="45.902320593595505" lon="5.933603486046195">
        <ele>302.79998779296875</ele>
        <time>2014-05-18T05:57:38Z</time>
      </trkpt>
      <trkpt lat="45.902291340753436" lon="5.933632152155042">
        <ele>303</ele>
        <time>2014-05-18T05:57:39Z</time>
      </trkpt>
      <trkpt lat="45.90210098773241" lon="5.93378352932632">
        <ele>303.79998779296875</ele>
        <time>2014-05-18T05:57:45Z</time>
      </trkpt>
      <trkpt lat="45.901998057961464" lon="5.933868102729321">
        <ele>304.20001220703125</ele>
        <time>2014-05-18T05:57:48Z</time>
      </trkpt>
      <trkpt lat="45.901836873963475" lon="5.934016043320298">
        <ele>305</ele>
        <time>2014-05-18T05:57:53Z</time>
      </trkpt>
      <trkpt lat="45.901666469871998" lon="5.93416809104383">
        <ele>305.39999389648437</ele>
        <time>2014-05-18T05:57:58Z</time>
      </trkpt>
      <trkpt lat="45.901402356103063" lon="5.934381242841482">
        <ele>305.60000610351562</ele>
        <time>2014-05-18T05:58:05Z</time>
      </trkpt>
      <trkpt lat="45.901140253990889" lon="5.934582911431789">
        <ele>306</ele>
        <time>2014-05-18T05:58:11Z</time>
      </trkpt>
      <trkpt lat="45.901090297847986" lon="5.934608140960336">
        <ele>306</ele>
        <time>2014-05-18T05:58:12Z</time>
      </trkpt>
      <trkpt lat="45.901038078591228" lon="5.93462155200541">
        <ele>305.79998779296875</ele>
        <time>2014-05-18T05:58:13Z</time>
      </trkpt>
      <trkpt lat="45.90088427066803" lon="5.934625659137964">
        <ele>305.79998779296875</ele>
        <time>2014-05-18T05:58:16Z</time>
      </trkpt>
      <trkpt lat="45.900827357545495" lon="5.934638483449817">
        <ele>305.79998779296875</ele>
        <time>2014-05-18T05:58:17Z</time>
      </trkpt>
      <trkpt lat="45.90040591545403" lon="5.934671759605408">
        <ele>305</ele>
        <time>2014-05-18T05:58:24Z</time>
      </trkpt>
      <trkpt lat="45.900345565751195" lon="5.934668658301234">
        <ele>305</ele>
        <time>2014-05-18T05:58:25Z</time>
      </trkpt>
      <trkpt lat="45.899970894679427" lon="5.934700258076191">
        <ele>304.79998779296875</ele>
        <time>2014-05-18T05:58:31Z</time>
      </trkpt>
      <trkpt lat="45.899909706786275" lon="5.934677124023438">
        <ele>304.79998779296875</ele>
        <time>2014-05-18T05:58:32Z</time>
      </trkpt>
      <trkpt lat="45.899783642962575" lon="5.934675866737962">
        <ele>304.60000610351562</ele>
        <time>2014-05-18T05:58:34Z</time>
      </trkpt>
      <trkpt lat="45.899719269946218" lon="5.93468357808888">
        <ele>304.60000610351562</ele>
        <time>2014-05-18T05:58:35Z</time>
      </trkpt>
      <trkpt lat="45.89938567019999" lon="5.934713752940297">
        <ele>304.79998779296875</ele>
        <time>2014-05-18T05:58:40Z</time>
      </trkpt>
      <trkpt lat="45.898899352177978" lon="5.93476228415966">
        <ele>305</ele>
        <time>2014-05-18T05:58:47Z</time>
      </trkpt>
      <trkpt lat="45.89832971803844" lon="5.934796566143632">
        <ele>304</ele>
        <time>2014-05-18T05:58:55Z</time>
      </trkpt>
      <trkpt lat="45.898257046937943" lon="5.934802601113915">
        <ele>304</ele>
        <time>2014-05-18T05:58:56Z</time>
      </trkpt>
      <trkpt lat="45.897841807454824" lon="5.934828082099557">
        <ele>304</ele>
        <time>2014-05-18T05:59:02Z</time>
      </trkpt>
      <trkpt lat="45.897295977920294" lon="5.934863872826099">
        <ele>304.60000610351562</ele>
        <time>2014-05-18T05:59:10Z</time>
      </trkpt>
      <trkpt lat="45.89716287329793" lon="5.934877702966332">
        <ele>304.60000610351562</ele>
        <time>2014-05-18T05:59:12Z</time>
      </trkpt>
      <trkpt lat="45.897098500281572" lon="5.934884492307901">
        <ele>304.79998779296875</ele>
        <time>2014-05-18T05:59:13Z</time>
      </trkpt>
      <trkpt lat="45.89662685059011" lon="5.934909889474511">
        <ele>305.79998779296875</ele>
        <time>2014-05-18T05:59:20Z</time>
      </trkpt>
      <trkpt lat="45.896091079339385" lon="5.934949871152639">
        <ele>305.79998779296875</ele>
        <time>2014-05-18T05:59:28Z</time>
      </trkpt>
      <trkpt lat="45.895515410229564" lon="5.93497727997601">
        <ele>305</ele>
        <time>2014-05-18T05:59:36Z</time>
      </trkpt>
      <trkpt lat="45.8952078782022" lon="5.934988176450133">
        <ele>303.60000610351562</ele>
        <time>2014-05-18T05:59:40Z</time>
      </trkpt>
      <trkpt lat="45.894961701706052" lon="5.934982057660818">
        <ele>302.60000610351562</ele>
        <time>2014-05-18T05:59:43Z</time>
      </trkpt>
      <trkpt lat="45.89461955241859" lon="5.934949368238449">
        <ele>301.79998779296875</ele>
        <time>2014-05-18T05:59:47Z</time>
      </trkpt>
      <trkpt lat="45.894535146653652" lon="5.934966383501887">
        <ele>301.60000610351562</ele>
        <time>2014-05-18T05:59:48Z</time>
      </trkpt>
      <trkpt lat="45.894367173314095" lon="5.935023045167327">
        <ele>300.79998779296875</ele>
        <time>2014-05-18T05:59:50Z</time>
      </trkpt>
      <trkpt lat="45.894284779205918" lon="5.935065038502216">
        <ele>300.20001220703125</ele>
        <time>2014-05-18T05:59:51Z</time>
      </trkpt>
      <trkpt lat="45.894202133640647" lon="5.935114240273833">
        <ele>299.79998779296875</ele>
        <time>2014-05-18T05:59:52Z</time>
      </trkpt>
      <trkpt lat="45.894033657386899" lon="5.93523770570755">
        <ele>299</ele>
        <time>2014-05-18T05:59:54Z</time>
      </trkpt>
      <trkpt lat="45.893862331286073" lon="5.935386652126908">
        <ele>298</ele>
        <time>2014-05-18T05:59:56Z</time>
      </trkpt>
      <trkpt lat="45.893671223893762" lon="5.935508273541927">
        <ele>296.60000610351562</ele>
        <time>2014-05-18T05:59:58Z</time>
      </trkpt>
      <trkpt lat="45.893472572788596" lon="5.935586728155613">
        <ele>295.79998779296875</ele>
        <time>2014-05-18T06:00:00Z</time>
      </trkpt>
      <trkpt lat="45.893372995778918" lon="5.935611790046096">
        <ele>295.60000610351562</ele>
        <time>2014-05-18T06:00:01Z</time>
      </trkpt>
      <trkpt lat="45.893275765702128" lon="5.935645150020719">
        <ele>294.60000610351562</ele>
        <time>2014-05-18T06:00:02Z</time>
      </trkpt>
      <trkpt lat="45.89298952370882" lon="5.935784541070461">
        <ele>293.39999389648437</ele>
        <time>2014-05-18T06:00:05Z</time>
      </trkpt>
      <trkpt lat="45.892699426040053" lon="5.935953017324209">
        <ele>292.20001220703125</ele>
        <time>2014-05-18T06:00:08Z</time>
      </trkpt>
      <trkpt lat="45.892503457143903" lon="5.936067430302501">
        <ele>291.20001220703125</ele>
        <time>2014-05-18T06:00:10Z</time>
      </trkpt>
      <trkpt lat="45.892308996990323" lon="5.9361866209656">
        <ele>290.20001220703125</ele>
        <time>2014-05-18T06:00:12Z</time>
      </trkpt>
      <trkpt lat="45.892208497971296" lon="5.936251161620021">
        <ele>289.79998779296875</ele>
        <time>2014-05-18T06:00:13Z</time>
      </trkpt>
      <trkpt lat="45.891904653981328" lon="5.936426846310496">
        <ele>288.39999389648437</ele>
        <time>2014-05-18T06:00:16Z</time>
      </trkpt>
      <trkpt lat="45.891595529392362" lon="5.936605799943209">
        <ele>287.20001220703125</ele>
        <time>2014-05-18T06:00:19Z</time>
      </trkpt>
      <trkpt lat="45.891493186354637" lon="5.936665898188949">
        <ele>286.60000610351562</ele>
        <time>2014-05-18T06:00:20Z</time>
      </trkpt>
      <trkpt lat="45.891390927135944" lon="5.936721889302135">
        <ele>286</ele>
        <time>2014-05-18T06:00:21Z</time>
      </trkpt>
      <trkpt lat="45.890898825600743" lon="5.936995474621654">
        <ele>284.79998779296875</ele>
        <time>2014-05-18T06:00:26Z</time>
      </trkpt>
      <trkpt lat="45.890704616904259" lon="5.937105361372232">
        <ele>284.39999389648437</ele>
        <time>2014-05-18T06:00:28Z</time>
      </trkpt>
      <trkpt lat="45.890151159837842" lon="5.937405852600932">
        <ele>284.39999389648437</ele>
        <time>2014-05-18T06:00:34Z</time>
      </trkpt>
      <trkpt lat="45.889976480975747" lon="5.937505094334483">
        <ele>284.39999389648437</ele>
        <time>2014-05-18T06:00:36Z</time>
      </trkpt>
      <trkpt lat="45.889575071632862" lon="5.937817906960845">
        <ele>284.39999389648437</ele>
        <time>2014-05-18T06:00:41Z</time>
      </trkpt>
      <trkpt lat="45.889240046963096" lon="5.938226189464331">
        <ele>284.20001220703125</ele>
        <time>2014-05-18T06:00:46Z</time>
      </trkpt>
      <trkpt lat="45.889119179919362" lon="5.938397515565157">
        <ele>283.79998779296875</ele>
        <time>2014-05-18T06:00:48Z</time>
      </trkpt>
      <trkpt lat="45.888930922374129" lon="5.938665987923741">
        <ele>283.60000610351562</ele>
        <time>2014-05-18T06:00:51Z</time>
      </trkpt>
      <trkpt lat="45.888479137793183" lon="5.939209889620543">
        <ele>283</ele>
        <time>2014-05-18T06:00:58Z</time>
      </trkpt>
      <trkpt lat="45.888405879959464" lon="5.939257834106684">
        <ele>282.79998779296875</ele>
        <time>2014-05-18T06:00:59Z</time>
      </trkpt>
      <trkpt lat="45.888326838612556" lon="5.939299575984478">
        <ele>282.60000610351562</ele>
        <time>2014-05-18T06:01:00Z</time>
      </trkpt>
      <trkpt lat="45.888168755918741" lon="5.939374677836895">
        <ele>282.79998779296875</ele>
        <time>2014-05-18T06:01:02Z</time>
      </trkpt>
      <trkpt lat="45.887617729604244" lon="5.939639043062925">
        <ele>282</ele>
        <time>2014-05-18T06:01:09Z</time>
      </trkpt>
      <trkpt lat="45.887541705742478" lon="5.9396749176085">
        <ele>282</ele>
        <time>2014-05-18T06:01:10Z</time>
      </trkpt>
      <trkpt lat="45.887237694114447" lon="5.939807938411832">
        <ele>281.60000610351562</ele>
        <time>2014-05-18T06:01:14Z</time>
      </trkpt>
      <trkpt lat="45.886932173743844" lon="5.939948670566082">
        <ele>281.60000610351562</ele>
        <time>2014-05-18T06:01:18Z</time>
      </trkpt>
      <trkpt lat="45.886456584557891" lon="5.94011228531599">
        <ele>280.79998779296875</ele>
        <time>2014-05-18T06:01:24Z</time>
      </trkpt>
      <trkpt lat="45.886374190449715" lon="5.940113039687276">
        <ele>280.79998779296875</ele>
        <time>2014-05-18T06:01:25Z</time>
      </trkpt>
      <trkpt lat="45.886129941791296" lon="5.94007071107626">
        <ele>280.60000610351562</ele>
        <time>2014-05-18T06:01:28Z</time>
      </trkpt>
      <trkpt lat="45.885975128039718" lon="5.939983120188117">
        <ele>280.39999389648437</ele>
        <time>2014-05-18T06:01:30Z</time>
      </trkpt>
      <trkpt lat="45.885710092261434" lon="5.939704002812505">
        <ele>280</ele>
        <time>2014-05-18T06:01:34Z</time>
      </trkpt>
      <trkpt lat="45.885562654584646" lon="5.939435278996825">
        <ele>279.79998779296875</ele>
        <time>2014-05-18T06:01:37Z</time>
      </trkpt>
      <trkpt lat="45.885526947677135" lon="5.939334444701672">
        <ele>279.79998779296875</ele>
        <time>2014-05-18T06:01:38Z</time>
      </trkpt>
      <trkpt lat="45.885442374274135" lon="5.938914846628904">
        <ele>279.60000610351562</ele>
        <time>2014-05-18T06:01:42Z</time>
      </trkpt>
      <trkpt lat="45.885445978492498" lon="5.93848217278719">
        <ele>279.20001220703125</ele>
        <time>2014-05-18T06:01:46Z</time>
      </trkpt>
      <trkpt lat="45.885470369830728" lon="5.938271954655647">
        <ele>279</ele>
        <time>2014-05-18T06:01:48Z</time>
      </trkpt>
      <trkpt lat="45.885509010404348" lon="5.937859984114766">
        <ele>279.39999389648438</ele>
        <time>2014-05-18T06:01:52Z</time>
      </trkpt>
      <trkpt lat="45.885490402579308" lon="5.937661752104759">
        <ele>279.60000610351562</ele>
        <time>2014-05-18T06:01:54Z</time>
      </trkpt>
      <trkpt lat="45.885439105331898" lon="5.937472824007273">
        <ele>279.60000610351562</ele>
        <time>2014-05-18T06:01:56Z</time>
      </trkpt>
      <trkpt lat="45.885261911898851" lon="5.937154814600945">
        <ele>279.20001220703125</ele>
        <time>2014-05-18T06:02:00Z</time>
      </trkpt>
      <trkpt lat="45.885153533890843" lon="5.937027158215642">
        <ele>279.60000610351562</ele>
        <time>2014-05-18T06:02:02Z</time>
      </trkpt>
      <trkpt lat="45.884936107322574" lon="5.936771929264069">
        <ele>279.79998779296875</ele>
        <time>2014-05-18T06:02:06Z</time>
      </trkpt>
      <trkpt lat="45.884629664942622" lon="5.936392731964588">
        <ele>280</ele>
        <time>2014-05-18T06:02:12Z</time>
      </trkpt>
      <trkpt lat="45.884595634415746" lon="5.936316791921854">
        <ele>280</ele>
        <time>2014-05-18T06:02:13Z</time>
      </trkpt>
      <trkpt lat="45.884522208943963" lon="5.936053348705173">
        <ele>280.60000610351562</ele>
        <time>2014-05-18T06:02:16Z</time>
      </trkpt>
      <trkpt lat="45.884507540613413" lon="5.93595796264708">
        <ele>280.60000610351562</ele>
        <time>2014-05-18T06:02:17Z</time>
      </trkpt>
      <trkpt lat="45.884487759321928" lon="5.935762580484152">
        <ele>280.39999389648437</ele>
        <time>2014-05-18T06:02:19Z</time>
      </trkpt>
      <trkpt lat="45.884469654411077" lon="5.935377851128578">
        <ele>280.20001220703125</ele>
        <time>2014-05-18T06:02:23Z</time>
      </trkpt>
      <trkpt lat="45.884420871734619" lon="5.935001084581018">
        <ele>280.39999389648437</ele>
        <time>2014-05-18T06:02:27Z</time>
      </trkpt>
      <trkpt lat="45.884351637214422" lon="5.93483554199338">
        <ele>280.60000610351562</ele>
        <time>2014-05-18T06:02:29Z</time>
      </trkpt>
      <trkpt lat="45.88412968441844" lon="5.934617863968015">
        <ele>280.60000610351562</ele>
        <time>2014-05-18T06:02:33Z</time>
      </trkpt>
      <trkpt lat="45.883850483223796" lon="5.934596825391054">
        <ele>280.20001220703125</ele>
        <time>2014-05-18T06:02:37Z</time>
      </trkpt>
      <trkpt lat="45.88371193036437" lon="5.934630688279867">
        <ele>280</ele>
        <time>2014-05-18T06:02:39Z</time>
      </trkpt>
      <trkpt lat="45.883430382236838" lon="5.934705957770348">
        <ele>280.20001220703125</ele>
        <time>2014-05-18T06:02:43Z</time>
      </trkpt>
      <trkpt lat="45.883005587384105" lon="5.934818694368005">
        <ele>280.20001220703125</ele>
        <time>2014-05-18T06:02:49Z</time>
      </trkpt>
      <trkpt lat="45.882448861375451" lon="5.934968730434775">
        <ele>280.39999389648437</ele>
        <time>2014-05-18T06:02:57Z</time>
      </trkpt>
      <trkpt lat="45.882238559424877" lon="5.935024470090866">
        <ele>280.39999389648437</ele>
        <time>2014-05-18T06:03:00Z</time>
      </trkpt>
      <trkpt lat="45.881686108186841" lon="5.935207949951291">
        <ele>280.79998779296875</ele>
        <time>2014-05-18T06:03:08Z</time>
      </trkpt>
      <trkpt lat="45.881619807332754" lon="5.935238460078836">
        <ele>280.60000610351562</ele>
        <time>2014-05-18T06:03:09Z</time>
      </trkpt>
      <trkpt lat="45.881238011643291" lon="5.935498718172312">
        <ele>280.79998779296875</ele>
        <time>2014-05-18T06:03:15Z</time>
      </trkpt>
      <trkpt lat="45.8808265440166" lon="5.935899540781975">
        <ele>280.79998779296875</ele>
        <time>2014-05-18T06:03:22Z</time>
      </trkpt>
      <trkpt lat="45.880396971479058" lon="5.936434390023351">
        <ele>280.79998779296875</ele>
        <time>2014-05-18T06:03:30Z</time>
      </trkpt>
      <trkpt lat="45.880023473873734" lon="5.936909979209304">
        <ele>281</ele>
        <time>2014-05-18T06:03:37Z</time>
      </trkpt>
      <trkpt lat="45.879562301561236" lon="5.937385903671384">
        <ele>281.20001220703125</ele>
        <time>2014-05-18T06:03:45Z</time>
      </trkpt>
      <trkpt lat="45.879499269649386" lon="5.937435440719128">
        <ele>281.39999389648437</ele>
        <time>2014-05-18T06:03:46Z</time>
      </trkpt>
      <trkpt lat="45.87898688390851" lon="5.937792174518108">
        <ele>281.60000610351562</ele>
        <time>2014-05-18T06:03:54Z</time>
      </trkpt>
      <trkpt lat="45.878919158130884" lon="5.937828887254">
        <ele>281.39999389648437</ele>
        <time>2014-05-18T06:03:55Z</time>
      </trkpt>
      <trkpt lat="45.878853527829051" lon="5.937862750142813">
        <ele>281.39999389648437</ele>
        <time>2014-05-18T06:03:56Z</time>
      </trkpt>
      <trkpt lat="45.878327395766973" lon="5.938123092055321">
        <ele>281.60000610351562</ele>
        <time>2014-05-18T06:04:04Z</time>
      </trkpt>
      <trkpt lat="45.878262771293521" lon="5.938151590526104">
        <ele>281.39999389648437</ele>
        <time>2014-05-18T06:04:05Z</time>
      </trkpt>
      <trkpt lat="45.877758599817753" lon="5.938395084813237">
        <ele>281.60000610351562</ele>
        <time>2014-05-18T06:04:13Z</time>
      </trkpt>
      <trkpt lat="45.877701602876186" lon="5.938427019864321">
        <ele>281.60000610351562</ele>
        <time>2014-05-18T06:04:14Z</time>
      </trkpt>
      <trkpt lat="45.877214279025793" lon="5.938663724809885">
        <ele>282.39999389648438</ele>
        <time>2014-05-18T06:04:22Z</time>
      </trkpt>
      <trkpt lat="45.876726452261209" lon="5.938908727839589">
        <ele>282.39999389648438</ele>
        <time>2014-05-18T06:04:30Z</time>
      </trkpt>
      <trkpt lat="45.876537021249533" lon="5.93900260515511">
        <ele>282.60000610351562</ele>
        <time>2014-05-18T06:04:33Z</time>
      </trkpt>
      <trkpt lat="45.876167798414826" lon="5.939182983711362">
        <ele>282.60000610351562</ele>
        <time>2014-05-18T06:04:39Z</time>
      </trkpt>
      <trkpt lat="45.875619789585471" lon="5.939461933448911">
        <ele>283.20001220703125</ele>
        <time>2014-05-18T06:04:48Z</time>
      </trkpt>
      <trkpt lat="45.875561451539397" lon="5.93948682770133">
        <ele>283.20001220703125</ele>
        <time>2014-05-18T06:04:49Z</time>
      </trkpt>
      <trkpt lat="45.875085862353444" lon="5.939714564010501">
        <ele>283.60000610351562</ele>
        <time>2014-05-18T06:04:57Z</time>
      </trkpt>
      <trkpt lat="45.875026853755116" lon="5.939745996147394">
        <ele>283.79998779296875</ele>
        <time>2014-05-18T06:04:58Z</time>
      </trkpt>
      <trkpt lat="45.874970527365804" lon="5.939761586487293">
        <ele>283.79998779296875</ele>
        <time>2014-05-18T06:04:59Z</time>
      </trkpt>
      <trkpt lat="45.874794339761138" lon="5.939845405519009">
        <ele>284</ele>
        <time>2014-05-18T06:05:02Z</time>
      </trkpt>
      <trkpt lat="45.874678753316402" lon="5.939909275621176">
        <ele>283.79998779296875</ele>
        <time>2014-05-18T06:05:04Z</time>
      </trkpt>
      <trkpt lat="45.874444311484694" lon="5.940022515133023">
        <ele>284.20001220703125</ele>
        <time>2014-05-18T06:05:08Z</time>
      </trkpt>
      <trkpt lat="45.874111130833626" lon="5.940284784883261">
        <ele>284.39999389648437</ele>
        <time>2014-05-18T06:05:14Z</time>
      </trkpt>
      <trkpt lat="45.873953886330128" lon="5.94045334495604">
        <ele>284.79998779296875</ele>
        <time>2014-05-18T06:05:17Z</time>
      </trkpt>
      <trkpt lat="45.873852632939816" lon="5.940585695207119">
        <ele>285</ele>
        <time>2014-05-18T06:05:19Z</time>
      </trkpt>
      <trkpt lat="45.873450050130486" lon="5.941150048747659">
        <ele>285.20001220703125</ele>
        <time>2014-05-18T06:05:27Z</time>
      </trkpt>
      <trkpt lat="45.87300798855722" lon="5.941618429496884">
        <ele>285.20001220703125</ele>
        <time>2014-05-18T06:05:35Z</time>
      </trkpt>
      <trkpt lat="45.872951494529843" lon="5.941664278507233">
        <ele>285.39999389648438</ele>
        <time>2014-05-18T06:05:36Z</time>
      </trkpt>
      <trkpt lat="45.87254237383604" lon="5.941948927938938">
        <ele>285.79998779296875</ele>
        <time>2014-05-18T06:05:43Z</time>
      </trkpt>
      <trkpt lat="45.872483365237713" lon="5.941985556855798">
        <ele>286</ele>
        <time>2014-05-18T06:05:44Z</time>
      </trkpt>
      <trkpt lat="45.872312542051077" lon="5.942091168835759">
        <ele>285.79998779296875</ele>
        <time>2014-05-18T06:05:47Z</time>
      </trkpt>
      <trkpt lat="45.87212948128581" lon="5.942172640934587">
        <ele>285.79998779296875</ele>
        <time>2014-05-18T06:05:50Z</time>
      </trkpt>
      <trkpt lat="45.871773082762957" lon="5.94234187155962">
        <ele>286.39999389648437</ele>
        <time>2014-05-18T06:05:56Z</time>
      </trkpt>
      <trkpt lat="45.871483236551285" lon="5.942452261224389">
        <ele>286.60000610351562</ele>
        <time>2014-05-18T06:06:02Z</time>
      </trkpt>
      <trkpt lat="45.871444847434759" lon="5.942465672269464">
        <ele>286.79998779296875</ele>
        <time>2014-05-18T06:06:03Z</time>
      </trkpt>
      <trkpt lat="45.871383994817734" lon="5.942498613148928">
        <ele>287.39999389648437</ele>
        <time>2014-05-18T06:06:06Z</time>
      </trkpt>
      <trkpt lat="45.87136865593493" lon="5.942508755251765">
        <ele>287.60000610351562</ele>
        <time>2014-05-18T06:06:17Z</time>
      </trkpt>
      <trkpt lat="45.871354909613729" lon="5.942515293136239">
        <ele>287.60000610351562</ele>
        <time>2014-05-18T06:06:18Z</time>
      </trkpt>
      <trkpt lat="45.871215853840113" lon="5.942606823518872">
        <ele>287.60000610351562</ele>
        <time>2014-05-18T06:06:23Z</time>
      </trkpt>
      <trkpt lat="45.870992979034781" lon="5.942828692495823">
        <ele>287.79998779296875</ele>
        <time>2014-05-18T06:06:29Z</time>
      </trkpt>
      <trkpt lat="45.87078477256" lon="5.943128680810332">
        <ele>287.60000610351562</ele>
        <time>2014-05-18T06:06:35Z</time>
      </trkpt>
      <trkpt lat="45.870727356523275" lon="5.943255750462413">
        <ele>287.60000610351562</ele>
        <time>2014-05-18T06:06:37Z</time>
      </trkpt>
      <trkpt lat="45.870502972975373" lon="5.943747265264392">
        <ele>287.39999389648437</ele>
        <time>2014-05-18T06:06:45Z</time>
      </trkpt>
      <trkpt lat="45.870384788140655" lon="5.944040631875396">
        <ele>287.39999389648437</ele>
        <time>2014-05-18T06:06:50Z</time>
      </trkpt>
      <trkpt lat="45.87034254334867" lon="5.944073237478733">
        <ele>287.39999389648437</ele>
        <time>2014-05-18T06:06:51Z</time>
      </trkpt>
      <trkpt lat="45.870185298845172" lon="5.944086061790586">
        <ele>287.20001220703125</ele>
        <time>2014-05-18T06:06:54Z</time>
      </trkpt>
      <trkpt lat="45.870128804817796" lon="5.944089163094759">
        <ele>286.79998779296875</ele>
        <time>2014-05-18T06:06:55Z</time>
      </trkpt>
      <trkpt lat="45.870009614154696" lon="5.944072147831321">
        <ele>286</ele>
        <time>2014-05-18T06:06:57Z</time>
      </trkpt>
      <trkpt lat="45.869946330785751" lon="5.944062760099769">
        <ele>285.20001220703125</ele>
        <time>2014-05-18T06:06:58Z</time>
      </trkpt>
      <trkpt lat="45.869880616664886" lon="5.944047505035996">
        <ele>284.79998779296875</ele>
        <time>2014-05-18T06:06:59Z</time>
      </trkpt>
      <trkpt lat="45.869741560891271" lon="5.944037111476064">
        <ele>284.20001220703125</ele>
        <time>2014-05-18T06:07:01Z</time>
      </trkpt>
      <trkpt lat="45.869593704119325" lon="5.944010121747851">
        <ele>283</ele>
        <time>2014-05-18T06:07:03Z</time>
      </trkpt>
      <trkpt lat="45.8694429975003" lon="5.943969720974565">
        <ele>282.39999389648438</ele>
        <time>2014-05-18T06:07:05Z</time>
      </trkpt>
      <trkpt lat="45.86912146769464" lon="5.943860588595271">
        <ele>282.79998779296875</ele>
        <time>2014-05-18T06:07:10Z</time>
      </trkpt>
      <trkpt lat="45.868939831852913" lon="5.943823540583253">
        <ele>283</ele>
        <time>2014-05-18T06:07:13Z</time>
      </trkpt>
      <trkpt lat="45.868887780234218" lon="5.943866958841682">
        <ele>283</ele>
        <time>2014-05-18T06:07:14Z</time>
      </trkpt>
      <trkpt lat="45.868797758594155" lon="5.944043816998601">
        <ele>283.60000610351562</ele>
        <time>2014-05-18T06:07:17Z</time>
      </trkpt>
      <trkpt lat="45.868785521015525" lon="5.944105004891753">
        <ele>284.20001220703125</ele>
        <time>2014-05-18T06:07:18Z</time>
      </trkpt>
      <trkpt lat="45.868762051686645" lon="5.944223189726472">
        <ele>285.20001220703125</ele>
        <time>2014-05-18T06:07:20Z</time>
      </trkpt>
      <trkpt lat="45.868749814108014" lon="5.944279935210943">
        <ele>285.60000610351562</ele>
        <time>2014-05-18T06:07:21Z</time>
      </trkpt>
      <trkpt lat="45.868737576529384" lon="5.944335423409939">
        <ele>286</ele>
        <time>2014-05-18T06:07:22Z</time>
      </trkpt>
      <trkpt lat="45.868685273453593" lon="5.944504989311099">
        <ele>286.79998779296875</ele>
        <time>2014-05-18T06:07:25Z</time>
      </trkpt>
      <trkpt lat="45.868604052811861" lon="5.944729540497065">
        <ele>287.20001220703125</ele>
        <time>2014-05-18T06:07:29Z</time>
      </trkpt>
      <trkpt lat="45.868546804413199" lon="5.944970268756151">
        <ele>287.79998779296875</ele>
        <time>2014-05-18T06:07:33Z</time>
      </trkpt>
      <trkpt lat="45.868516461923718" lon="5.945162549614906">
        <ele>287.60000610351562</ele>
        <time>2014-05-18T06:07:36Z</time>
      </trkpt>
      <trkpt lat="45.868497435003519" lon="5.945226168259978">
        <ele>287.60000610351562</ele>
        <time>2014-05-18T06:07:37Z</time>
      </trkpt>
      <trkpt lat="45.868372963741422" lon="5.945521462708712">
        <ele>287.39999389648437</ele>
        <time>2014-05-18T06:07:42Z</time>
      </trkpt>
      <trkpt lat="45.868177497759461" lon="5.945656076073647">
        <ele>287.20001220703125</ele>
        <time>2014-05-18T06:07:46Z</time>
      </trkpt>
      <trkpt lat="45.868123602122068" lon="5.945672085508704">
        <ele>287.39999389648437</ele>
        <time>2014-05-18T06:07:47Z</time>
      </trkpt>
      <trkpt lat="45.86786862462759" lon="5.945793874561787">
        <ele>288.20001220703125</ele>
        <time>2014-05-18T06:07:52Z</time>
      </trkpt>
      <trkpt lat="45.867687072604895" lon="5.945874340832233">
        <ele>288.79998779296875</ele>
        <time>2014-05-18T06:07:56Z</time>
      </trkpt>
      <trkpt lat="45.867437375709414" lon="5.945974504575133">
        <ele>288.79998779296875</ele>
        <time>2014-05-18T06:08:01Z</time>
      </trkpt>
      <trkpt lat="45.867030769586563" lon="5.946165192872286">
        <ele>289</ele>
        <time>2014-05-18T06:08:09Z</time>
      </trkpt>
      <trkpt lat="45.866624917834997" lon="5.946347918361425">
        <ele>289.20001220703125</ele>
        <time>2014-05-18T06:08:17Z</time>
      </trkpt>
      <trkpt lat="45.866382597014308" lon="5.946459230035543">
        <ele>289.79998779296875</ele>
        <time>2014-05-18T06:08:22Z</time>
      </trkpt>
      <trkpt lat="45.866332054138184" lon="5.946472389623523">
        <ele>289.79998779296875</ele>
        <time>2014-05-18T06:08:23Z</time>
      </trkpt>
      <trkpt lat="45.866188891232014" lon="5.946516310796142">
        <ele>289.79998779296875</ele>
        <time>2014-05-18T06:08:26Z</time>
      </trkpt>
      <trkpt lat="45.865815561264753" lon="5.946697695180774">
        <ele>291</ele>
        <time>2014-05-18T06:08:34Z</time>
      </trkpt>
      <trkpt lat="45.865431670099497" lon="5.946871200576425">
        <ele>292</ele>
        <time>2014-05-18T06:08:42Z</time>
      </trkpt>
      <trkpt lat="45.865383977070451" lon="5.946887712925673">
        <ele>292.20001220703125</ele>
        <time>2014-05-18T06:08:43Z</time>
      </trkpt>
      <trkpt lat="45.865103770047426" lon="5.947028277441859">
        <ele>293.20001220703125</ele>
        <time>2014-05-18T06:08:49Z</time>
      </trkpt>
      <trkpt lat="45.864864801988006" lon="5.947097260504961">
        <ele>293.60000610351562</ele>
        <time>2014-05-18T06:08:54Z</time>
      </trkpt>
      <trkpt lat="45.864816941320896" lon="5.94708695076406">
        <ele>294</ele>
        <time>2014-05-18T06:08:55Z</time>
      </trkpt>
      <trkpt lat="45.864721136167645" lon="5.946974717080593">
        <ele>294.39999389648437</ele>
        <time>2014-05-18T06:08:58Z</time>
      </trkpt>
      <trkpt lat="45.864696744829416" lon="5.946945967152715">
        <ele>294.39999389648437</ele>
        <time>2014-05-18T06:08:59Z</time>
      </trkpt>
      <trkpt lat="45.864568082615733" lon="5.946708675473929">
        <ele>294.20001220703125</ele>
        <time>2014-05-18T06:09:04Z</time>
      </trkpt>
      <trkpt lat="45.86443011648953" lon="5.946364346891642">
        <ele>293.60000610351562</ele>
        <time>2014-05-18T06:09:10Z</time>
      </trkpt>
      <trkpt lat="45.864413939416409" lon="5.946305254474282">
        <ele>293.60000610351562</ele>
        <time>2014-05-18T06:09:11Z</time>
      </trkpt>
      <trkpt lat="45.864324755966663" lon="5.946002164855599">
        <ele>294</ele>
        <time>2014-05-18T06:09:17Z</time>
      </trkpt>
      <trkpt lat="45.864209420979023" lon="5.945690106600523">
        <ele>294</ele>
        <time>2014-05-18T06:09:23Z</time>
      </trkpt>
      <trkpt lat="45.864182515069842" lon="5.945644676685333">
        <ele>294</ele>
        <time>2014-05-18T06:09:24Z</time>
      </trkpt>
      <trkpt lat="45.8641501609236" lon="5.945605533197522">
        <ele>294.20001220703125</ele>
        <time>2014-05-18T06:09:25Z</time>
      </trkpt>
      <trkpt lat="45.864037005230784" lon="5.945538813248277">
        <ele>294.39999389648437</ele>
        <time>2014-05-18T06:09:28Z</time>
      </trkpt>
      <trkpt lat="45.863953521475196" lon="5.945519534870982">
        <ele>294.60000610351562</ele>
        <time>2014-05-18T06:09:30Z</time>
      </trkpt>
      <trkpt lat="45.863909013569355" lon="5.945517690852284">
        <ele>294.60000610351562</ele>
        <time>2014-05-18T06:09:31Z</time>
      </trkpt>
      <trkpt lat="45.863823853433132" lon="5.945552727207542">
        <ele>294.39999389648437</ele>
        <time>2014-05-18T06:09:33Z</time>
      </trkpt>
      <trkpt lat="45.863688737154007" lon="5.94569630920887">
        <ele>294.60000610351562</ele>
        <time>2014-05-18T06:09:37Z</time>
      </trkpt>
      <trkpt lat="45.863464437425137" lon="5.946031166240573">
        <ele>294.60000610351562</ele>
        <time>2014-05-18T06:09:44Z</time>
      </trkpt>
      <trkpt lat="45.863268468528986" lon="5.94628119841218">
        <ele>295.60000610351562</ele>
        <time>2014-05-18T06:09:50Z</time>
      </trkpt>
      <trkpt lat="45.863239634782076" lon="5.94631195999682">
        <ele>295.60000610351562</ele>
        <time>2014-05-18T06:09:51Z</time>
      </trkpt>
      <trkpt lat="45.86302681826055" lon="5.94651966355741">
        <ele>295.60000610351562</ele>
        <time>2014-05-18T06:09:57Z</time>
      </trkpt>
      <trkpt lat="45.862743426114321" lon="5.946840606629849">
        <ele>295.60000610351562</ele>
        <time>2014-05-18T06:10:04Z</time>
      </trkpt>
      <trkpt lat="45.862617110833526" lon="5.946940267458558">
        <ele>295.39999389648437</ele>
        <time>2014-05-18T06:10:07Z</time>
      </trkpt>
      <trkpt lat="45.862438241019845" lon="5.947069432586432">
        <ele>295.60000610351562</ele>
        <time>2014-05-18T06:10:11Z</time>
      </trkpt>
      <trkpt lat="45.862254593521357" lon="5.947179151698947">
        <ele>296.20001220703125</ele>
        <time>2014-05-18T06:10:15Z</time>
      </trkpt>
      <trkpt lat="45.862208744511008" lon="5.947199435904622">
        <ele>296.39999389648438</ele>
        <time>2014-05-18T06:10:16Z</time>
      </trkpt>
      <trkpt lat="45.861967094242573" lon="5.947324074804783">
        <ele>296.39999389648438</ele>
        <time>2014-05-18T06:10:21Z</time>
      </trkpt>
      <trkpt lat="45.861918311566114" lon="5.947338324040175">
        <ele>296.60000610351562</ele>
        <time>2014-05-18T06:10:22Z</time>
      </trkpt>
      <trkpt lat="45.861823596060276" lon="5.947373611852527">
        <ele>296.60000610351562</ele>
        <time>2014-05-18T06:10:24Z</time>
      </trkpt>
      <trkpt lat="45.86162050254643" lon="5.947483582422137">
        <ele>296.20001220703125</ele>
        <time>2014-05-18T06:10:28Z</time>
      </trkpt>
      <trkpt lat="45.861200904473662" lon="5.947715006768704">
        <ele>296.60000610351562</ele>
        <time>2014-05-18T06:10:36Z</time>
      </trkpt>
      <trkpt lat="45.8606515545398" lon="5.94800652936101">
        <ele>296.39999389648438</ele>
        <time>2014-05-18T06:10:46Z</time>
      </trkpt>
      <trkpt lat="45.860597407445312" lon="5.948035949841142">
        <ele>296.60000610351562</ele>
        <time>2014-05-18T06:10:47Z</time>
      </trkpt>
      <trkpt lat="45.860266992822289" lon="5.948188165202737">
        <ele>297</ele>
        <time>2014-05-18T06:10:53Z</time>
      </trkpt>
      <trkpt lat="45.859966669231653" lon="5.948348846286535">
        <ele>297.60000610351562</ele>
        <time>2014-05-18T06:10:59Z</time>
      </trkpt>
      <trkpt lat="45.859821829944849" lon="5.948425121605396">
        <ele>298</ele>
        <time>2014-05-18T06:11:02Z</time>
      </trkpt>
      <trkpt lat="45.859693670645356" lon="5.948499133810401">
        <ele>298.60000610351562</ele>
        <time>2014-05-18T06:11:05Z</time>
      </trkpt>
      <trkpt lat="45.859629800543189" lon="5.948516149073839">
        <ele>298.79998779296875</ele>
        <time>2014-05-18T06:11:07Z</time>
      </trkpt>
      <trkpt lat="45.859578838571906" lon="5.948508018627763">
        <ele>299.20001220703125</ele>
        <time>2014-05-18T06:11:11Z</time>
      </trkpt>
      <trkpt lat="45.859513292089105" lon="5.948394611477852">
        <ele>299.20001220703125</ele>
        <time>2014-05-18T06:11:15Z</time>
      </trkpt>
      <trkpt lat="45.859442045912147" lon="5.94827726483345">
        <ele>299.20001220703125</ele>
        <time>2014-05-18T06:11:19Z</time>
      </trkpt>
      <trkpt lat="45.859410781413317" lon="5.948279779404402">
        <ele>299</ele>
        <time>2014-05-18T06:11:20Z</time>
      </trkpt>
      <trkpt lat="45.859363758936524" lon="5.948385475203395">
        <ele>299</ele>
        <time>2014-05-18T06:11:23Z</time>
      </trkpt>
      <trkpt lat="45.859358897432685" lon="5.948433754965663">
        <ele>299.20001220703125</ele>
        <time>2014-05-18T06:11:24Z</time>
      </trkpt>
      <trkpt lat="45.859348839148879" lon="5.9484853874892">
        <ele>299.20001220703125</ele>
        <time>2014-05-18T06:11:25Z</time>
      </trkpt>
      <trkpt lat="45.859302738681436" lon="5.948587479069829">
        <ele>299.20001220703125</ele>
        <time>2014-05-18T06:11:27Z</time>
      </trkpt>
      <trkpt lat="45.859249010682106" lon="5.948690325021744">
        <ele>299.20001220703125</ele>
        <time>2014-05-18T06:11:29Z</time>
      </trkpt>
      <trkpt lat="45.859134932979941" lon="5.948802810162306">
        <ele>299</ele>
        <time>2014-05-18T06:11:32Z</time>
      </trkpt>
      <trkpt lat="45.85894969291985" lon="5.948912110179663">
        <ele>299.20001220703125</ele>
        <time>2014-05-18T06:11:36Z</time>
      </trkpt>
      <trkpt lat="45.858800746500492" lon="5.94895645044744">
        <ele>299</ele>
        <time>2014-05-18T06:11:39Z</time>
      </trkpt>
      <trkpt lat="45.858596060425043" lon="5.949042281135917">
        <ele>298.79998779296875</ele>
        <time>2014-05-18T06:11:43Z</time>
      </trkpt>
      <trkpt lat="45.858440743759274" lon="5.949126686900854">
        <ele>299.20001220703125</ele>
        <time>2014-05-18T06:11:46Z</time>
      </trkpt>
      <trkpt lat="45.857957862317562" lon="5.949378563091159">
        <ele>299</ele>
        <time>2014-05-18T06:11:55Z</time>
      </trkpt>
      <trkpt lat="45.857471879571676" lon="5.949627254158258">
        <ele>299.39999389648438</ele>
        <time>2014-05-18T06:12:04Z</time>
      </trkpt>
      <trkpt lat="45.857304241508245" lon="5.949716353788972">
        <ele>299.79998779296875</ele>
        <time>2014-05-18T06:12:07Z</time>
      </trkpt>
      <trkpt lat="45.856973994523287" lon="5.949879549443722">
        <ele>299.79998779296875</ele>
        <time>2014-05-18T06:12:13Z</time>
      </trkpt>
      <trkpt lat="45.85653143003583" lon="5.950121618807316">
        <ele>300.39999389648437</ele>
        <time>2014-05-18T06:12:21Z</time>
      </trkpt>
      <trkpt lat="45.856015020981431" lon="5.950381457805634">
        <ele>301</ele>
        <time>2014-05-18T06:12:30Z</time>
      </trkpt>
      <trkpt lat="45.855548148974776" lon="5.950606260448694">
        <ele>301.39999389648437</ele>
        <time>2014-05-18T06:12:38Z</time>
      </trkpt>
      <trkpt lat="45.855025285854936" lon="5.950915049761534">
        <ele>301.60000610351562</ele>
        <time>2014-05-18T06:12:47Z</time>
      </trkpt>
      <trkpt lat="45.854788161814213" lon="5.951071539893746">
        <ele>302</ele>
        <time>2014-05-18T06:12:51Z</time>
      </trkpt>
      <trkpt lat="45.854604346677661" lon="5.951168686151505">
        <ele>302</ele>
        <time>2014-05-18T06:12:54Z</time>
      </trkpt>
      <trkpt lat="45.854164296761155" lon="5.951419556513429">
        <ele>302.20001220703125</ele>
        <time>2014-05-18T06:13:01Z</time>
      </trkpt>
      <trkpt lat="45.853624837473035" lon="5.951693980023265">
        <ele>302.20001220703125</ele>
        <time>2014-05-18T06:13:09Z</time>
      </trkpt>
      <trkpt lat="45.853100465610623" lon="5.951976785436273">
        <ele>303</ele>
        <time>2014-05-18T06:13:17Z</time>
      </trkpt>
      <trkpt lat="45.852971216663718" lon="5.952042415738106">
        <ele>303.39999389648437</ele>
        <time>2014-05-18T06:13:19Z</time>
      </trkpt>
      <trkpt lat="45.852440139278769" lon="5.95227962359786">
        <ele>303.39999389648437</ele>
        <time>2014-05-18T06:13:27Z</time>
      </trkpt>
      <trkpt lat="45.852373000234365" lon="5.952298985794187">
        <ele>303.39999389648437</ele>
        <time>2014-05-18T06:13:28Z</time>
      </trkpt>
      <trkpt lat="45.851827338337898" lon="5.95239101909101">
        <ele>303.39999389648437</ele>
        <time>2014-05-18T06:13:36Z</time>
      </trkpt>
      <trkpt lat="45.851615527644753" lon="5.952389677986503">
        <ele>303.20001220703125</ele>
        <time>2014-05-18T06:13:39Z</time>
      </trkpt>
      <trkpt lat="45.851405896246433" lon="5.952346595004201">
        <ele>303.60000610351562</ele>
        <time>2014-05-18T06:13:42Z</time>
      </trkpt>
      <trkpt lat="45.850918153300881" lon="5.952328573912382">
        <ele>303.60000610351562</ele>
        <time>2014-05-18T06:13:49Z</time>
      </trkpt>
      <trkpt lat="45.850502327084541" lon="5.95230988226831">
        <ele>304.20001220703125</ele>
        <time>2014-05-18T06:13:55Z</time>
      </trkpt>
      <trkpt lat="45.850299317389727" lon="5.952302170917392">
        <ele>304.60000610351562</ele>
        <time>2014-05-18T06:13:58Z</time>
      </trkpt>
      <trkpt lat="45.849694982171059" lon="5.952282138168812">
        <ele>305</ele>
        <time>2014-05-18T06:14:07Z</time>
      </trkpt>
      <trkpt lat="45.849561626091599" lon="5.952287837862968">
        <ele>305</ele>
        <time>2014-05-18T06:14:09Z</time>
      </trkpt>
      <trkpt lat="45.849494570866227" lon="5.952289262786508">
        <ele>305</ele>
        <time>2014-05-18T06:14:10Z</time>
      </trkpt>
      <trkpt lat="45.849146554246545" lon="5.952272582799196">
        <ele>305</ele>
        <time>2014-05-18T06:14:15Z</time>
      </trkpt>
      <trkpt lat="45.849009091034532" lon="5.952258501201868">
        <ele>305.20001220703125</ele>
        <time>2014-05-18T06:14:17Z</time>
      </trkpt>
      <trkpt lat="45.848605921491981" lon="5.952239977195859">
        <ele>305.39999389648437</ele>
        <time>2014-05-18T06:14:23Z</time>
      </trkpt>
      <trkpt lat="45.848414143547416" lon="5.952223800122738">
        <ele>305.79998779296875</ele>
        <time>2014-05-18T06:14:26Z</time>
      </trkpt>
      <trkpt lat="45.848225383087993" lon="5.95220728777349">
        <ele>306.20001220703125</ele>
        <time>2014-05-18T06:14:29Z</time>
      </trkpt>
      <trkpt lat="45.848098648712039" lon="5.95220485702157">
        <ele>306.20001220703125</ele>
        <time>2014-05-18T06:14:31Z</time>
      </trkpt>
      <trkpt lat="45.847515016794205" lon="5.952187841758132">
        <ele>306.60000610351562</ele>
        <time>2014-05-18T06:14:40Z</time>
      </trkpt>
      <trkpt lat="45.847452487796545" lon="5.952184405177832">
        <ele>306.79998779296875</ele>
        <time>2014-05-18T06:14:41Z</time>
      </trkpt>
      <trkpt lat="45.847196839749813" lon="5.952174765989184">
        <ele>307.39999389648437</ele>
        <time>2014-05-18T06:14:45Z</time>
      </trkpt>
      <trkpt lat="45.846938341856003" lon="5.952172921970487">
        <ele>307.20001220703125</ele>
        <time>2014-05-18T06:14:49Z</time>
      </trkpt>
      <trkpt lat="45.846478175371885" lon="5.952154733240604">
        <ele>306.79998779296875</ele>
        <time>2014-05-18T06:14:56Z</time>
      </trkpt>
      <trkpt lat="45.845890939235687" lon="5.952145094051957">
        <ele>306.79998779296875</ele>
        <time>2014-05-18T06:15:05Z</time>
      </trkpt>
      <trkpt lat="45.845510233193636" lon="5.952134784311056">
        <ele>307</ele>
        <time>2014-05-18T06:15:11Z</time>
      </trkpt>
      <trkpt lat="45.844907825812697" lon="5.95212422311306">
        <ele>307</ele>
        <time>2014-05-18T06:15:20Z</time>
      </trkpt>
      <trkpt lat="45.84435386583209" lon="5.952106704935432">
        <ele>306.79998779296875</ele>
        <time>2014-05-18T06:15:28Z</time>
      </trkpt>
      <trkpt lat="45.844212798401713" lon="5.952098993584514">
        <ele>306.60000610351562</ele>
        <time>2014-05-18T06:15:30Z</time>
      </trkpt>
      <trkpt lat="45.843935692682862" lon="5.952082062140107">
        <ele>306.20001220703125</ele>
        <time>2014-05-18T06:15:34Z</time>
      </trkpt>
      <trkpt lat="45.843729581683874" lon="5.95207485370338">
        <ele>306.60000610351562</ele>
        <time>2014-05-18T06:15:37Z</time>
      </trkpt>
      <trkpt lat="45.843191128224134" lon="5.952055659145117">
        <ele>306.39999389648437</ele>
        <time>2014-05-18T06:15:45Z</time>
      </trkpt>
      <trkpt lat="45.842601712793112" lon="5.95204652287066">
        <ele>306.79998779296875</ele>
        <time>2014-05-18T06:15:54Z</time>
      </trkpt>
      <trkpt lat="45.842536501586437" lon="5.952046774327755">
        <ele>306.60000610351562</ele>
        <time>2014-05-18T06:15:55Z</time>
      </trkpt>
      <trkpt lat="45.841989079490304" lon="5.952069740742445">
        <ele>306</ele>
        <time>2014-05-18T06:16:03Z</time>
      </trkpt>
      <trkpt lat="45.841918755322695" lon="5.952073344960809">
        <ele>305.79998779296875</ele>
        <time>2014-05-18T06:16:04Z</time>
      </trkpt>
      <trkpt lat="45.841648774221539" lon="5.952087342739105">
        <ele>305.60000610351562</ele>
        <time>2014-05-18T06:16:08Z</time>
      </trkpt>
      <trkpt lat="45.84158674813807" lon="5.952060436829925">
        <ele>305.60000610351562</ele>
        <time>2014-05-18T06:16:09Z</time>
      </trkpt>
      <trkpt lat="45.841366890817881" lon="5.952053228393197">
        <ele>306.39999389648437</ele>
        <time>2014-05-18T06:16:13Z</time>
      </trkpt>
      <trkpt lat="45.841314252465963" lon="5.952191948890686">
        <ele>306.60000610351562</ele>
        <time>2014-05-18T06:16:15Z</time>
      </trkpt>
      <trkpt lat="45.841310564428568" lon="5.952460253611207">
        <ele>305.79998779296875</ele>
        <time>2014-05-18T06:16:18Z</time>
      </trkpt>
      <trkpt lat="45.841267565265298" lon="5.952630741521716">
        <ele>305.20001220703125</ele>
        <time>2014-05-18T06:16:20Z</time>
      </trkpt>
      <trkpt lat="45.841217525303364" lon="5.95269494690001">
        <ele>305</ele>
        <time>2014-05-18T06:16:21Z</time>
      </trkpt>
      <trkpt lat="45.841083917766809" lon="5.952725959941745">
        <ele>304.20001220703125</ele>
        <time>2014-05-18T06:16:23Z</time>
      </trkpt>
      <trkpt lat="45.840958189219236" lon="5.952669298276305">
        <ele>303.79998779296875</ele>
        <time>2014-05-18T06:16:25Z</time>
      </trkpt>
      <trkpt lat="45.840905299410224" lon="5.952651193365455">
        <ele>303.79998779296875</ele>
        <time>2014-05-18T06:16:26Z</time>
      </trkpt>
      <trkpt lat="45.84086406044662" lon="5.952623533084989">
        <ele>304.79998779296875</ele>
        <time>2014-05-18T06:16:27Z</time>
      </trkpt>
      <trkpt lat="45.840832376852632" lon="5.952588245272636">
        <ele>305.39999389648437</ele>
        <time>2014-05-18T06:16:28Z</time>
      </trkpt>
      <trkpt lat="45.84081175737083" lon="5.952547760680318">
        <ele>305.79998779296875</ele>
        <time>2014-05-18T06:16:29Z</time>
      </trkpt>
      <trkpt lat="45.840796921402216" lon="5.952458158135414">
        <ele>306.39999389648437</ele>
        <time>2014-05-18T06:16:31Z</time>
      </trkpt>
      <trkpt lat="45.840771021321416" lon="5.952361263334751">
        <ele>306.79998779296875</ele>
        <time>2014-05-18T06:16:34Z</time>
      </trkpt>
      <trkpt lat="45.840731877833605" lon="5.952370567247272">
        <ele>308.20001220703125</ele>
        <time>2014-05-18T06:37:00Z</time>
      </trkpt>
      <trkpt lat="45.840735146775842" lon="5.952362939715385">
        <ele>308.20001220703125</ele>
        <time>2014-05-18T06:37:01Z</time>
      </trkpt>
      <trkpt lat="45.840775715187192" lon="5.952383056282997">
        <ele>308.20001220703125</ele>
        <time>2014-05-18T06:39:34Z</time>
      </trkpt>
      <trkpt lat="45.84079566411674" lon="5.952407363802195">
        <ele>308.20001220703125</ele>
        <time>2014-05-18T06:39:35Z</time>
      </trkpt>
      <trkpt lat="45.840806979686022" lon="5.952437371015549">
        <ele>308.20001220703125</ele>
        <time>2014-05-18T06:39:36Z</time>
      </trkpt>
      <trkpt lat="45.840857438743114" lon="5.952567625790834">
        <ele>308</ele>
        <time>2014-05-18T06:39:40Z</time>
      </trkpt>
      <trkpt lat="45.840897504240274" lon="5.952659323811531">
        <ele>307.79998779296875</ele>
        <time>2014-05-18T06:39:43Z</time>
      </trkpt>
      <trkpt lat="45.840929355472326" lon="5.952678518369794">
        <ele>307.39999389648437</ele>
        <time>2014-05-18T06:39:44Z</time>
      </trkpt>
      <trkpt lat="45.840966738760471" lon="5.95269444398582">
        <ele>307</ele>
        <time>2014-05-18T06:39:45Z</time>
      </trkpt>
      <trkpt lat="45.841080145910382" lon="5.952798128128052">
        <ele>306</ele>
        <time>2014-05-18T06:39:48Z</time>
      </trkpt>
      <trkpt lat="45.841088779270649" lon="5.952939949929714">
        <ele>305.60000610351562</ele>
        <time>2014-05-18T06:39:51Z</time>
      </trkpt>
      <trkpt lat="45.841065058484674" lon="5.953027959913015">
        <ele>304.79998779296875</ele>
        <time>2014-05-18T06:39:53Z</time>
      </trkpt>
      <trkpt lat="45.841091796755791" lon="5.953069534152746">
        <ele>304.60000610351562</ele>
        <time>2014-05-18T06:39:55Z</time>
      </trkpt>
      <trkpt lat="45.84113328717649" lon="5.953005580231547">
        <ele>305.39999389648437</ele>
        <time>2014-05-18T06:39:58Z</time>
      </trkpt>
      <trkpt lat="45.841143429279327" lon="5.952978255227208">
        <ele>305.60000610351562</ele>
        <time>2014-05-18T06:39:59Z</time>
      </trkpt>
      <trkpt lat="45.841213669627905" lon="5.952835846692324">
        <ele>306</ele>
        <time>2014-05-18T06:40:03Z</time>
      </trkpt>
      <trkpt lat="45.841232864186168" lon="5.952798631042242">
        <ele>306.20001220703125</ele>
        <time>2014-05-18T06:40:04Z</time>
      </trkpt>
      <trkpt lat="45.841301511973143" lon="5.95270617865026">
        <ele>307.20001220703125</ele>
        <time>2014-05-18T06:40:07Z</time>
      </trkpt>
      <trkpt lat="45.841398742049932" lon="5.952532505616546">
        <ele>308</ele>
        <time>2014-05-18T06:40:12Z</time>
      </trkpt>
      <trkpt lat="45.841493038460612" lon="5.95236411318183">
        <ele>308.20001220703125</ele>
        <time>2014-05-18T06:40:16Z</time>
      </trkpt>
      <trkpt lat="45.84154617972672" lon="5.952275181189179">
        <ele>308.20001220703125</ele>
        <time>2014-05-18T06:40:18Z</time>
      </trkpt>
      <trkpt lat="45.841527907177806" lon="5.952081307768822">
        <ele>308.20001220703125</ele>
        <time>2014-05-18T06:40:21Z</time>
      </trkpt>
      <trkpt lat="45.841372925788164" lon="5.952018778771162">
        <ele>308.20001220703125</ele>
        <time>2014-05-18T06:40:24Z</time>
      </trkpt>
      <trkpt lat="45.84113135933876" lon="5.95205582678318">
        <ele>308.20001220703125</ele>
        <time>2014-05-18T06:40:28Z</time>
      </trkpt>
      <trkpt lat="45.841067153960466" lon="5.952057000249624">
        <ele>308.20001220703125</ele>
        <time>2014-05-18T06:40:29Z</time>
      </trkpt>
      <trkpt lat="45.840557282790542" lon="5.952014839276671">
        <ele>308</ele>
        <time>2014-05-18T06:40:37Z</time>
      </trkpt>
      <trkpt lat="45.839981446042657" lon="5.951960356906056">
        <ele>307.79998779296875</ele>
        <time>2014-05-18T06:40:46Z</time>
      </trkpt>
      <trkpt lat="45.839461851865053" lon="5.95194929279387">
        <ele>308</ele>
        <time>2014-05-18T06:40:54Z</time>
      </trkpt>
      <trkpt lat="45.83885969594121" lon="5.951920375227928">
        <ele>308</ele>
        <time>2014-05-18T06:41:03Z</time>
      </trkpt>
      <trkpt lat="45.83879129961133" lon="5.951919201761484">
        <ele>307.79998779296875</ele>
        <time>2014-05-18T06:41:04Z</time>
      </trkpt>
      <trkpt lat="45.838185623288155" lon="5.951900593936443">
        <ele>307.79998779296875</ele>
        <time>2014-05-18T06:41:13Z</time>
      </trkpt>
      <trkpt lat="45.838117729872465" lon="5.951897157356143">
        <ele>307.79998779296875</ele>
        <time>2014-05-18T06:41:14Z</time>
      </trkpt>
      <trkpt lat="45.837576594203711" lon="5.951876370236278">
        <ele>307.39999389648437</ele>
        <time>2014-05-18T06:41:22Z</time>
      </trkpt>
      <trkpt lat="45.837510293349624" lon="5.951875615864992">
        <ele>307.39999389648437</ele>
        <time>2014-05-18T06:41:23Z</time>
      </trkpt>
      <trkpt lat="45.836924565955997" lon="5.951851727440953">
        <ele>308</ele>
        <time>2014-05-18T06:41:32Z</time>
      </trkpt>
      <trkpt lat="45.83686170168221" lon="5.95184912905097">
        <ele>308.20001220703125</ele>
        <time>2014-05-18T06:41:33Z</time>
      </trkpt>
      <trkpt lat="45.836263904348016" lon="5.951828844845295">
        <ele>308.20001220703125</ele>
        <time>2014-05-18T06:41:42Z</time>
      </trkpt>
      <trkpt lat="45.835996689274907" lon="5.951819373294711">
        <ele>308.20001220703125</ele>
        <time>2014-05-18T06:41:46Z</time>
      </trkpt>
      <trkpt lat="45.835661329329014" lon="5.951805543154478">
        <ele>308.20001220703125</ele>
        <time>2014-05-18T06:41:51Z</time>
      </trkpt>
      <trkpt lat="45.835126815363765" lon="5.951780313625932">
        <ele>308</ele>
        <time>2014-05-18T06:41:59Z</time>
      </trkpt>
      <trkpt lat="45.834584338590503" lon="5.951763046905398">
        <ele>308</ele>
        <time>2014-05-18T06:42:07Z</time>
      </trkpt>
      <trkpt lat="45.834055440500379" lon="5.951739326119423">
        <ele>308</ele>
        <time>2014-05-18T06:42:15Z</time>
      </trkpt>
      <trkpt lat="45.833547748625278" lon="5.951673360541463">
        <ele>308.20001220703125</ele>
        <time>2014-05-18T06:42:23Z</time>
      </trkpt>
      <trkpt lat="45.832975599914789" lon="5.951647711917758">
        <ele>308.39999389648437</ele>
        <time>2014-05-18T06:42:32Z</time>
      </trkpt>
      <trkpt lat="45.832382831722498" lon="5.951628517359495">
        <ele>308.60000610351562</ele>
        <time>2014-05-18T06:42:41Z</time>
      </trkpt>
      <trkpt lat="45.831860890612006" lon="5.951588954776526">
        <ele>308.60000610351562</ele>
        <time>2014-05-18T06:42:49Z</time>
      </trkpt>
      <trkpt lat="45.831274492666125" lon="5.951580489054322">
        <ele>308.79998779296875</ele>
        <time>2014-05-18T06:42:58Z</time>
      </trkpt>
      <trkpt lat="45.830832179635763" lon="5.951578477397561">
        <ele>308.79998779296875</ele>
        <time>2014-05-18T06:43:05Z</time>
      </trkpt>
      <trkpt lat="45.830770069733262" lon="5.951576130464673">
        <ele>308.79998779296875</ele>
        <time>2014-05-18T06:43:06Z</time>
      </trkpt>
      <trkpt lat="45.830577202141285" lon="5.951567413285375">
        <ele>309.20001220703125</ele>
        <time>2014-05-18T06:43:09Z</time>
      </trkpt>
      <trkpt lat="45.830255756154656" lon="5.951568251475692">
        <ele>309</ele>
        <time>2014-05-18T06:43:14Z</time>
      </trkpt>
      <trkpt lat="45.829685619100928" lon="5.951552158221602">
        <ele>309</ele>
        <time>2014-05-18T06:43:23Z</time>
      </trkpt>
      <trkpt lat="45.829124199226499" lon="5.95153983682394">
        <ele>309.39999389648437</ele>
        <time>2014-05-18T06:43:32Z</time>
      </trkpt>
      <trkpt lat="45.828640898689628" lon="5.951515613123775">
        <ele>310</ele>
        <time>2014-05-18T06:43:40Z</time>
      </trkpt>
      <trkpt lat="45.828461106866598" lon="5.951511338353157">
        <ele>310.39999389648437</ele>
        <time>2014-05-18T06:43:43Z</time>
      </trkpt>
      <trkpt lat="45.828096158802509" lon="5.95150756649673">
        <ele>310.39999389648437</ele>
        <time>2014-05-18T06:43:49Z</time>
      </trkpt>
      <trkpt lat="45.827544881030917" lon="5.951484683901072">
        <ele>310.79998779296875</ele>
        <time>2014-05-18T06:43:58Z</time>
      </trkpt>
      <trkpt lat="45.826994525268674" lon="5.951456101611257">
        <ele>311</ele>
        <time>2014-05-18T06:44:07Z</time>
      </trkpt>
      <trkpt lat="45.826637959107757" lon="5.951444283127785">
        <ele>311.39999389648437</ele>
        <time>2014-05-18T06:44:13Z</time>
      </trkpt>
      <trkpt lat="45.826457412913442" lon="5.951437326148152">
        <ele>311.60000610351562</ele>
        <time>2014-05-18T06:44:16Z</time>
      </trkpt>
      <trkpt lat="45.825908230617642" lon="5.951419472694397">
        <ele>312</ele>
        <time>2014-05-18T06:44:25Z</time>
      </trkpt>
      <trkpt lat="45.825365083292127" lon="5.951400864869356">
        <ele>312.60000610351562</ele>
        <time>2014-05-18T06:44:34Z</time>
      </trkpt>
      <trkpt lat="45.825306326150894" lon="5.951400026679039">
        <ele>312.60000610351562</ele>
        <time>2014-05-18T06:44:35Z</time>
      </trkpt>
      <trkpt lat="45.824832329526544" lon="5.951382759958506">
        <ele>313</ele>
        <time>2014-05-18T06:44:43Z</time>
      </trkpt>
      <trkpt lat="45.824310891330242" lon="5.951361218467355">
        <ele>313.60000610351562</ele>
        <time>2014-05-18T06:44:52Z</time>
      </trkpt>
      <trkpt lat="45.824255906045437" lon="5.951356776058674">
        <ele>313.79998779296875</ele>
        <time>2014-05-18T06:44:53Z</time>
      </trkpt>
      <trkpt lat="45.823851646855474" lon="5.951338252052665">
        <ele>314.60000610351562</ele>
        <time>2014-05-18T06:45:00Z</time>
      </trkpt>
      <trkpt lat="45.823296178132296" lon="5.951308915391564">
        <ele>314.60000610351562</ele>
        <time>2014-05-18T06:45:09Z</time>
      </trkpt>
      <trkpt lat="45.823232056573033" lon="5.95130774192512">
        <ele>314.39999389648437</ele>
        <time>2014-05-18T06:45:10Z</time>
      </trkpt>
      <trkpt lat="45.822776751592755" lon="5.951289217919111">
        <ele>314.39999389648437</ele>
        <time>2014-05-18T06:45:17Z</time>
      </trkpt>
      <trkpt lat="45.822391184046865" lon="5.951275555416942">
        <ele>314.60000610351562</ele>
        <time>2014-05-18T06:45:23Z</time>
      </trkpt>
      <trkpt lat="45.822200747206807" lon="5.951263820752502">
        <ele>314.39999389648437</ele>
        <time>2014-05-18T06:45:26Z</time>
      </trkpt>
      <trkpt lat="45.82162382081151" lon="5.951242363080382">
        <ele>314.39999389648437</ele>
        <time>2014-05-18T06:45:35Z</time>
      </trkpt>
      <trkpt lat="45.821494068950415" lon="5.951239932328463">
        <ele>314.60000610351562</ele>
        <time>2014-05-18T06:45:37Z</time>
      </trkpt>
      <trkpt lat="45.820949748158455" lon="5.951219480484724">
        <ele>313.79998779296875</ele>
        <time>2014-05-18T06:45:45Z</time>
      </trkpt>
      <trkpt lat="45.820810608565807" lon="5.951216211542487">
        <ele>313.60000610351562</ele>
        <time>2014-05-18T06:45:47Z</time>
      </trkpt>
      <trkpt lat="45.820250697433949" lon="5.951194418594241">
        <ele>313.60000610351562</ele>
        <time>2014-05-18T06:45:55Z</time>
      </trkpt>
      <trkpt lat="45.820111054927111" lon="5.951190562918782">
        <ele>313.39999389648438</ele>
        <time>2014-05-18T06:45:57Z</time>
      </trkpt>
      <trkpt lat="45.819537481293082" lon="5.951166171580553">
        <ele>312.60000610351562</ele>
        <time>2014-05-18T06:46:05Z</time>
      </trkpt>
      <trkpt lat="45.819463972002268" lon="5.95116650685668">
        <ele>312.39999389648437</ele>
        <time>2014-05-18T06:46:06Z</time>
      </trkpt>
      <trkpt lat="45.81896374002099" lon="5.95115284435451">
        <ele>312.20001220703125</ele>
        <time>2014-05-18T06:46:13Z</time>
      </trkpt>
      <trkpt lat="45.818536849692464" lon="5.951142618432641">
        <ele>311.79998779296875</ele>
        <time>2014-05-18T06:46:19Z</time>
      </trkpt>
      <trkpt lat="45.817944584414363" lon="5.951102217659354">
        <ele>311.79998779296875</ele>
        <time>2014-05-18T06:46:27Z</time>
      </trkpt>
      <trkpt lat="45.817799912765622" lon="5.951099283993244">
        <ele>311.60000610351562</ele>
        <time>2014-05-18T06:46:29Z</time>
      </trkpt>
      <trkpt lat="45.817296830937266" lon="5.951083023101091">
        <ele>311.39999389648437</ele>
        <time>2014-05-18T06:46:36Z</time>
      </trkpt>
      <trkpt lat="45.817154925316572" lon="5.951078580692411">
        <ele>311.20001220703125</ele>
        <time>2014-05-18T06:46:38Z</time>
      </trkpt>
      <trkpt lat="45.816586213186383" lon="5.951056787744165">
        <ele>311.20001220703125</ele>
        <time>2014-05-18T06:46:46Z</time>
      </trkpt>
      <trkpt lat="45.816443050280213" lon="5.95105217769742">
        <ele>311.20001220703125</ele>
        <time>2014-05-18T06:46:48Z</time>
      </trkpt>
      <trkpt lat="45.816020602360368" lon="5.951042706146836">
        <ele>311</ele>
        <time>2014-05-18T06:46:54Z</time>
      </trkpt>
      <trkpt lat="45.815745927393436" lon="5.9510238468647">
        <ele>311.20001220703125</ele>
        <time>2014-05-18T06:46:58Z</time>
      </trkpt>
      <trkpt lat="45.815205546095967" lon="5.950991157442331">
        <ele>311</ele>
        <time>2014-05-18T06:47:06Z</time>
      </trkpt>
      <trkpt lat="45.815136479213834" lon="5.950987217947841">
        <ele>311</ele>
        <time>2014-05-18T06:47:07Z</time>
      </trkpt>
      <trkpt lat="45.814590398222208" lon="5.950942542403936">
        <ele>311</ele>
        <time>2014-05-18T06:47:15Z</time>
      </trkpt>
      <trkpt lat="45.814041718840599" lon="5.950915049761534">
        <ele>311.39999389648437</ele>
        <time>2014-05-18T06:47:23Z</time>
      </trkpt>
      <trkpt lat="45.81383116543293" lon="5.95091437920928">
        <ele>311.39999389648437</ele>
        <time>2014-05-18T06:47:26Z</time>
      </trkpt>
      <trkpt lat="45.813276367262006" lon="5.950913038104773">
        <ele>311.39999389648437</ele>
        <time>2014-05-18T06:47:34Z</time>
      </trkpt>
      <trkpt lat="45.812880489975214" lon="5.950897028669715">
        <ele>311.39999389648437</ele>
        <time>2014-05-18T06:47:40Z</time>
      </trkpt>
      <trkpt lat="45.812275735661387" lon="5.950882444158196">
        <ele>311.39999389648437</ele>
        <time>2014-05-18T06:47:49Z</time>
      </trkpt>
      <trkpt lat="45.811704257503152" lon="5.950858891010284">
        <ele>310.39999389648437</ele>
        <time>2014-05-18T06:47:57Z</time>
      </trkpt>
      <trkpt lat="45.811484064906836" lon="5.950856627896428">
        <ele>310.39999389648437</ele>
        <time>2014-05-18T06:48:00Z</time>
      </trkpt>
      <trkpt lat="45.811057593673468" lon="5.950847072526813">
        <ele>309.79998779296875</ele>
        <time>2014-05-18T06:48:06Z</time>
      </trkpt>
      <trkpt lat="45.810557110235095" lon="5.950820585712791">
        <ele>310.39999389648437</ele>
        <time>2014-05-18T06:48:13Z</time>
      </trkpt>
      <trkpt lat="45.810022931545973" lon="5.950799630954862">
        <ele>311.20001220703125</ele>
        <time>2014-05-18T06:48:21Z</time>
      </trkpt>
      <trkpt lat="45.809960821643472" lon="5.950795440003276">
        <ele>311.60000610351562</ele>
        <time>2014-05-18T06:48:22Z</time>
      </trkpt>
      <trkpt lat="45.80966460518539" lon="5.95080298371613">
        <ele>312.20001220703125</ele>
        <time>2014-05-18T06:48:27Z</time>
      </trkpt>
      <trkpt lat="45.809556227177382" lon="5.950791416689754">
        <ele>312.60000610351562</ele>
        <time>2014-05-18T06:48:29Z</time>
      </trkpt>
      <trkpt lat="45.809400239959359" lon="5.950790159404278">
        <ele>313.79998779296875</ele>
        <time>2014-05-18T06:48:32Z</time>
      </trkpt>
      <trkpt lat="45.809304937720299" lon="5.950788147747517">
        <ele>314.20001220703125</ele>
        <time>2014-05-18T06:48:34Z</time>
      </trkpt>
      <trkpt lat="45.809168228879571" lon="5.95078194513917">
        <ele>315</ele>
        <time>2014-05-18T06:48:37Z</time>
      </trkpt>
      <trkpt lat="45.808897241950035" lon="5.950771886855364">
        <ele>315.79998779296875</ele>
        <time>2014-05-18T06:48:43Z</time>
      </trkpt>
      <trkpt lat="45.808853656053543" lon="5.95077021047473">
        <ele>316</ele>
        <time>2014-05-18T06:48:44Z</time>
      </trkpt>
      <trkpt lat="45.808500023558736" lon="5.95075361430645">
        <ele>317</ele>
        <time>2014-05-18T06:48:52Z</time>
      </trkpt>
      <trkpt lat="45.808455012738705" lon="5.950751267373562">
        <ele>317.20001220703125</ele>
        <time>2014-05-18T06:48:53Z</time>
      </trkpt>
      <trkpt lat="45.808273963630199" lon="5.950749255716801">
        <ele>317.60000610351562</ele>
        <time>2014-05-18T06:48:57Z</time>
      </trkpt>
      <trkpt lat="45.808090819045901" lon="5.950741795822978">
        <ele>318</ele>
        <time>2014-05-18T06:49:01Z</time>
      </trkpt>
      <trkpt lat="45.80804823897779" lon="5.950741712003946">
        <ele>318.20001220703125</ele>
        <time>2014-05-18T06:49:02Z</time>
      </trkpt>
      <trkpt lat="45.80773894675076" lon="5.950736096128821">
        <ele>319</ele>
        <time>2014-05-18T06:49:09Z</time>
      </trkpt>
      <trkpt lat="45.807550186291337" lon="5.950728468596935">
        <ele>319.20001220703125</ele>
        <time>2014-05-18T06:49:13Z</time>
      </trkpt>
      <trkpt lat="45.807317588478327" lon="5.950720254331827">
        <ele>319.79998779296875</ele>
        <time>2014-05-18T06:49:18Z</time>
      </trkpt>
      <trkpt lat="45.806885920464993" lon="5.950668789446354">
        <ele>318.79998779296875</ele>
        <time>2014-05-18T06:49:26Z</time>
      </trkpt>
      <trkpt lat="45.806630859151483" lon="5.950613301247358">
        <ele>318</ele>
        <time>2014-05-18T06:49:30Z</time>
      </trkpt>
      <trkpt lat="45.806415611878037" lon="5.950566446408629">
        <ele>317</ele>
        <time>2014-05-18T06:49:33Z</time>
      </trkpt>
      <trkpt lat="45.806339923292398" lon="5.950545826926827">
        <ele>316.60000610351562</ele>
        <time>2014-05-18T06:49:34Z</time>
      </trkpt>
      <trkpt lat="45.806100452318788" lon="5.950484219938517">
        <ele>315.20001220703125</ele>
        <time>2014-05-18T06:49:37Z</time>
      </trkpt>
      <trkpt lat="45.805934574455023" lon="5.950441639870405">
        <ele>314.60000610351562</ele>
        <time>2014-05-18T06:49:39Z</time>
      </trkpt>
      <trkpt lat="45.805596197023988" lon="5.950354970991612">
        <ele>313.79998779296875</ele>
        <time>2014-05-18T06:49:43Z</time>
      </trkpt>
      <trkpt lat="45.805241307243705" lon="5.950280707329512">
        <ele>312.79998779296875</ele>
        <time>2014-05-18T06:49:47Z</time>
      </trkpt>
      <trkpt lat="45.804981216788292" lon="5.950223291292787">
        <ele>312.60000610351562</ele>
        <time>2014-05-18T06:49:50Z</time>
      </trkpt>
      <trkpt lat="45.804486600682139" lon="5.950097478926182">
        <ele>312.60000610351562</ele>
        <time>2014-05-18T06:49:56Z</time>
      </trkpt>
      <trkpt lat="45.803938843309879" lon="5.949957584962249">
        <ele>313.39999389648438</ele>
        <time>2014-05-18T06:50:03Z</time>
      </trkpt>
      <trkpt lat="45.803561322391033" lon="5.949859181419015">
        <ele>313.79998779296875</ele>
        <time>2014-05-18T06:50:08Z</time>
      </trkpt>
      <trkpt lat="45.80333735793829" lon="5.9498081356287">
        <ele>313.60000610351562</ele>
        <time>2014-05-18T06:50:11Z</time>
      </trkpt>
      <trkpt lat="45.802726820111275" lon="5.949651058763266">
        <ele>312.60000610351562</ele>
        <time>2014-05-18T06:50:19Z</time>
      </trkpt>
      <trkpt lat="45.802322141826153" lon="5.949546117335558">
        <ele>311.39999389648437</ele>
        <time>2014-05-18T06:50:24Z</time>
      </trkpt>
      <trkpt lat="45.80191939137876" lon="5.949446959421039">
        <ele>311</ele>
        <time>2014-05-18T06:50:29Z</time>
      </trkpt>
      <trkpt lat="45.801668269559741" lon="5.949391974136233">
        <ele>310.39999389648437</ele>
        <time>2014-05-18T06:50:32Z</time>
      </trkpt>
      <trkpt lat="45.801262836903334" lon="5.949287032708526">
        <ele>310.39999389648437</ele>
        <time>2014-05-18T06:50:37Z</time>
      </trkpt>
      <trkpt lat="45.800728155300021" lon="5.94916608184576">
        <ele>311</ele>
        <time>2014-05-18T06:50:44Z</time>
      </trkpt>
      <trkpt lat="45.800580885261297" lon="5.949130291119218">
        <ele>311.60000610351562</ele>
        <time>2014-05-18T06:50:46Z</time>
      </trkpt>
      <trkpt lat="45.800249464809895" lon="5.949031300842762">
        <ele>312.79998779296875</ele>
        <time>2014-05-18T06:50:51Z</time>
      </trkpt>
      <trkpt lat="45.800117030739784" lon="5.949002634733915">
        <ele>313</ele>
        <time>2014-05-18T06:50:53Z</time>
      </trkpt>
      <trkpt lat="45.799927515909076" lon="5.948949409648776">
        <ele>314</ele>
        <time>2014-05-18T06:50:56Z</time>
      </trkpt>
      <trkpt lat="45.799691984429955" lon="5.948881767690182">
        <ele>314.60000610351562</ele>
        <time>2014-05-18T06:51:00Z</time>
      </trkpt>
      <trkpt lat="45.799272805452347" lon="5.948780765756965">
        <ele>315</ele>
        <time>2014-05-18T06:51:07Z</time>
      </trkpt>
      <trkpt lat="45.799150178208947" lon="5.948750590905547">
        <ele>315</ele>
        <time>2014-05-18T06:51:09Z</time>
      </trkpt>
      <trkpt lat="45.798652796074748" lon="5.948624527081847">
        <ele>314.60000610351562</ele>
        <time>2014-05-18T06:51:17Z</time>
      </trkpt>
      <trkpt lat="45.798246189951897" lon="5.94852939248085">
        <ele>314</ele>
        <time>2014-05-18T06:51:23Z</time>
      </trkpt>
      <trkpt lat="45.798033960163593" lon="5.94847172498703">
        <ele>313.39999389648438</ele>
        <time>2014-05-18T06:51:26Z</time>
      </trkpt>
      <trkpt lat="45.797463320195675" lon="5.94832562841475">
        <ele>313.39999389648438</ele>
        <time>2014-05-18T06:51:34Z</time>
      </trkpt>
      <trkpt lat="45.796998208388686" lon="5.948204174637795">
        <ele>313.79998779296875</ele>
        <time>2014-05-18T06:51:41Z</time>
      </trkpt>
      <trkpt lat="45.796499149873853" lon="5.948086911812425">
        <ele>315</ele>
        <time>2014-05-18T06:51:49Z</time>
      </trkpt>
      <trkpt lat="45.796441733837128" lon="5.94807056710124">
        <ele>315.20001220703125</ele>
        <time>2014-05-18T06:51:50Z</time>
      </trkpt>
      <trkpt lat="45.795918367803097" lon="5.947939557954669">
        <ele>316.20001220703125</ele>
        <time>2014-05-18T06:51:59Z</time>
      </trkpt>
      <trkpt lat="45.795340435579419" lon="5.947798239067197">
        <ele>315.60000610351562</ele>
        <time>2014-05-18T06:52:08Z</time>
      </trkpt>
      <trkpt lat="45.795193500816822" lon="5.947762196883559">
        <ele>315</ele>
        <time>2014-05-18T06:52:10Z</time>
      </trkpt>
      <trkpt lat="45.794961405918002" lon="5.947697404772043">
        <ele>313.79998779296875</ele>
        <time>2014-05-18T06:52:13Z</time>
      </trkpt>
      <trkpt lat="45.794879933819175" lon="5.947676869109273">
        <ele>313.60000610351562</ele>
        <time>2014-05-18T06:52:14Z</time>
      </trkpt>
      <trkpt lat="45.79462219029665" lon="5.947612496092916">
        <ele>312.60000610351562</ele>
        <time>2014-05-18T06:52:17Z</time>
      </trkpt>
      <trkpt lat="45.794349946081638" lon="5.947544351220131">
        <ele>311.20001220703125</ele>
        <time>2014-05-18T06:52:20Z</time>
      </trkpt>
      <trkpt lat="45.794257493689656" lon="5.947521971538663">
        <ele>310.60000610351562</ele>
        <time>2014-05-18T06:52:21Z</time>
      </trkpt>
      <trkpt lat="45.794072840362787" lon="5.947474949061871">
        <ele>310</ele>
        <time>2014-05-18T06:52:23Z</time>
      </trkpt>
      <trkpt lat="45.793508235365152" lon="5.947336480021477">
        <ele>309</ele>
        <time>2014-05-18T06:52:29Z</time>
      </trkpt>
      <trkpt lat="45.793411424383521" lon="5.947314267978072">
        <ele>308.79998779296875</ele>
        <time>2014-05-18T06:52:30Z</time>
      </trkpt>
      <trkpt lat="45.793220400810242" lon="5.947271771728993">
        <ele>308</ele>
        <time>2014-05-18T06:52:32Z</time>
      </trkpt>
      <trkpt lat="45.79284111969173" lon="5.947181330993772">
        <ele>306.79998779296875</ele>
        <time>2014-05-18T06:52:36Z</time>
      </trkpt>
      <trkpt lat="45.79256166703999" lon="5.947093488648534">
        <ele>306.20001220703125</ele>
        <time>2014-05-18T06:52:39Z</time>
      </trkpt>
      <trkpt lat="45.792373074218631" lon="5.947049567475915">
        <ele>305.79998779296875</ele>
        <time>2014-05-18T06:52:41Z</time>
      </trkpt>
      <trkpt lat="45.792001336812973" lon="5.946953427046537">
        <ele>305.39999389648437</ele>
        <time>2014-05-18T06:52:45Z</time>
      </trkpt>
      <trkpt lat="45.791715430095792" lon="5.946886204183102">
        <ele>304.60000610351562</ele>
        <time>2014-05-18T06:52:48Z</time>
      </trkpt>
      <trkpt lat="45.791259706020355" lon="5.94678645953536">
        <ele>304.20001220703125</ele>
        <time>2014-05-18T06:52:53Z</time>
      </trkpt>
      <trkpt lat="45.790760396048427" lon="5.946663245558739">
        <ele>304.39999389648437</ele>
        <time>2014-05-18T06:52:59Z</time>
      </trkpt>
      <trkpt lat="45.790163017809391" lon="5.946516394615173">
        <ele>305.39999389648437</ele>
        <time>2014-05-18T06:53:07Z</time>
      </trkpt>
      <trkpt lat="45.790019100531936" lon="5.946481693536043">
        <ele>305.60000610351562</ele>
        <time>2014-05-18T06:53:09Z</time>
      </trkpt>
      <trkpt lat="45.78961081802845" lon="5.946393935009837">
        <ele>306</ele>
        <time>2014-05-18T06:53:15Z</time>
      </trkpt>
      <trkpt lat="45.789291467517614" lon="5.946309948340058">
        <ele>306.60000610351562</ele>
        <time>2014-05-18T06:53:20Z</time>
      </trkpt>
      <trkpt lat="45.789105640724301" lon="5.946262339130044">
        <ele>307</ele>
        <time>2014-05-18T06:53:23Z</time>
      </trkpt>
      <trkpt lat="45.788833983242512" lon="5.946191679686308">
        <ele>307.60000610351562</ele>
        <time>2014-05-18T06:53:28Z</time>
      </trkpt>
      <trkpt lat="45.78845277428627" lon="5.946086319163442">
        <ele>307.39999389648437</ele>
        <time>2014-05-18T06:53:35Z</time>
      </trkpt>
      <trkpt lat="45.78801155090332" lon="5.945981629192829">
        <ele>306.39999389648437</ele>
        <time>2014-05-18T06:53:42Z</time>
      </trkpt>
      <trkpt lat="45.787577200680971" lon="5.945876268669963">
        <ele>305.79998779296875</ele>
        <time>2014-05-18T06:53:49Z</time>
      </trkpt>
      <trkpt lat="45.787161374464631" lon="5.945785492658615">
        <ele>306.39999389648437</ele>
        <time>2014-05-18T06:53:56Z</time>
      </trkpt>
      <trkpt lat="45.786931710317731" lon="5.945702427998185">
        <ele>306</ele>
        <time>2014-05-18T06:54:00Z</time>
      </trkpt>
      <trkpt lat="45.786754600703716" lon="5.945661524310708">
        <ele>306.20001220703125</ele>
        <time>2014-05-18T06:54:03Z</time>
      </trkpt>
      <trkpt lat="45.786695927381516" lon="5.945659261196852">
        <ele>306.20001220703125</ele>
        <time>2014-05-18T06:54:04Z</time>
      </trkpt>
      <trkpt lat="45.786415971815586" lon="5.945606203749776">
        <ele>307.20001220703125</ele>
        <time>2014-05-18T06:54:09Z</time>
      </trkpt>
      <trkpt lat="45.786174992099404" lon="5.945524731650949">
        <ele>307.39999389648437</ele>
        <time>2014-05-18T06:54:14Z</time>
      </trkpt>
      <trkpt lat="45.786140374839306" lon="5.945512996986508">
        <ele>307.60000610351562</ele>
        <time>2014-05-18T06:54:15Z</time>
      </trkpt>
      <trkpt lat="45.786111792549491" lon="5.945504531264305">
        <ele>307.79998779296875</ele>
        <time>2014-05-18T06:54:16Z</time>
      </trkpt>
      <trkpt lat="45.786076253280044" lon="5.945479385554791">
        <ele>307.79998779296875</ele>
        <time>2014-05-18T06:54:18Z</time>
      </trkpt>
      <trkpt lat="45.786057729274035" lon="5.945472428575158">
        <ele>308</ele>
        <time>2014-05-18T06:54:19Z</time>
      </trkpt>
      <trkpt lat="45.7859817892313" lon="5.945481732487679">
        <ele>308</ele>
        <time>2014-05-18T06:55:01Z</time>
      </trkpt>
      <trkpt lat="45.785900987684727" lon="5.945471925660968">
        <ele>307.60000610351562</ele>
        <time>2014-05-18T06:55:03Z</time>
      </trkpt>
      <trkpt lat="45.785847762599587" lon="5.945470668375492">
        <ele>307.39999389648437</ele>
        <time>2014-05-18T06:55:04Z</time>
      </trkpt>
      <trkpt lat="45.785681800916791" lon="5.94544468447566">
        <ele>307.20001220703125</ele>
        <time>2014-05-18T06:55:07Z</time>
      </trkpt>
      <trkpt lat="45.785348201170564" lon="5.945347202941775">
        <ele>307.39999389648437</ele>
        <time>2014-05-18T06:55:13Z</time>
      </trkpt>
      <trkpt lat="45.784908067435026" lon="5.94525751657784">
        <ele>308</ele>
        <time>2014-05-18T06:55:21Z</time>
      </trkpt>
      <trkpt lat="45.784592572599649" lon="5.945160621777177">
        <ele>308.79998779296875</ele>
        <time>2014-05-18T06:55:27Z</time>
      </trkpt>
      <trkpt lat="45.784440105780959" lon="5.945101696997881">
        <ele>309.20001220703125</ele>
        <time>2014-05-18T06:55:30Z</time>
      </trkpt>
      <trkpt lat="45.784119581803679" lon="5.945031708106399">
        <ele>309.79998779296875</ele>
        <time>2014-05-18T06:55:36Z</time>
      </trkpt>
      <trkpt lat="45.78402285464108" lon="5.945004802197218">
        <ele>309.79998779296875</ele>
        <time>2014-05-18T06:55:38Z</time>
      </trkpt>
      <trkpt lat="45.783932497724891" lon="5.944963982328773">
        <ele>310</ele>
        <time>2014-05-18T06:55:40Z</time>
      </trkpt>
      <trkpt lat="45.783778103068471" lon="5.944932801648974">
        <ele>310.39999389648437</ele>
        <time>2014-05-18T06:55:43Z</time>
      </trkpt>
      <trkpt lat="45.783527903258801" lon="5.944859627634287">
        <ele>311</ele>
        <time>2014-05-18T06:55:48Z</time>
      </trkpt>
      <trkpt lat="45.783388009294868" lon="5.944813191890717">
        <ele>311.20001220703125</ele>
        <time>2014-05-18T06:55:51Z</time>
      </trkpt>
      <trkpt lat="45.78324350528419" lon="5.944755021482706">
        <ele>312</ele>
        <time>2014-05-18T06:55:54Z</time>
      </trkpt>
      <trkpt lat="45.782995987683535" lon="5.944680254906416">
        <ele>312.20001220703125</ele>
        <time>2014-05-18T06:55:59Z</time>
      </trkpt>
      <trkpt lat="45.782688539475203" lon="5.944637591019273">
        <ele>313.20001220703125</ele>
        <time>2014-05-18T06:56:05Z</time>
      </trkpt>
      <trkpt lat="45.782582508400083" lon="5.944617139175534">
        <ele>313.79998779296875</ele>
        <time>2014-05-18T06:56:07Z</time>
      </trkpt>
      <trkpt lat="45.782395340502262" lon="5.944563914090395">
        <ele>314.39999389648437</ele>
        <time>2014-05-18T06:56:11Z</time>
      </trkpt>
      <trkpt lat="45.782265588641167" lon="5.944514963775873">
        <ele>314.79998779296875</ele>
        <time>2014-05-18T06:56:14Z</time>
      </trkpt>
      <trkpt lat="45.782129969447851" lon="5.944479508325458">
        <ele>315.60000610351562</ele>
        <time>2014-05-18T06:56:17Z</time>
      </trkpt>
      <trkpt lat="45.781996697187424" lon="5.944445142522454">
        <ele>315.79998779296875</ele>
        <time>2014-05-18T06:56:20Z</time>
      </trkpt>
      <trkpt lat="45.781782874837518" lon="5.944376578554511">
        <ele>316.60000610351562</ele>
        <time>2014-05-18T06:56:25Z</time>
      </trkpt>
      <trkpt lat="45.781735852360725" lon="5.944369789212942">
        <ele>316.60000610351562</ele>
        <time>2014-05-18T06:56:26Z</time>
      </trkpt>
      <trkpt lat="45.781688494607806" lon="5.944356126710773">
        <ele>316.60000610351562</ele>
        <time>2014-05-18T06:56:27Z</time>
      </trkpt>
      <trkpt lat="45.781352464109659" lon="5.944274989888072">
        <ele>317.39999389648437</ele>
        <time>2014-05-18T06:56:34Z</time>
      </trkpt>
      <trkpt lat="45.78125623986125" lon="5.944248083978891">
        <ele>317.60000610351562</ele>
        <time>2014-05-18T06:56:36Z</time>
      </trkpt>
      <trkpt lat="45.780966728925705" lon="5.944185052067041">
        <ele>318.20001220703125</ele>
        <time>2014-05-18T06:56:42Z</time>
      </trkpt>
      <trkpt lat="45.780732790008187" lon="5.944137442857027">
        <ele>318.79998779296875</ele>
        <time>2014-05-18T06:56:47Z</time>
      </trkpt>
      <trkpt lat="45.780640840530396" lon="5.944112045690417">
        <ele>318.79998779296875</ele>
        <time>2014-05-18T06:56:49Z</time>
      </trkpt>
      <trkpt lat="45.780297769233584" lon="5.944034764543176">
        <ele>319.39999389648438</ele>
        <time>2014-05-18T06:56:56Z</time>
      </trkpt>
      <trkpt lat="45.780200203880668" lon="5.944010624662042">
        <ele>319.79998779296875</ele>
        <time>2014-05-18T06:56:58Z</time>
      </trkpt>
      <trkpt lat="45.779906753450632" lon="5.943942479789257">
        <ele>320</ele>
        <time>2014-05-18T06:57:04Z</time>
      </trkpt>
      <trkpt lat="45.779518587514758" lon="5.943847009912133">
        <ele>320.79998779296875</ele>
        <time>2014-05-18T06:57:12Z</time>
      </trkpt>
      <trkpt lat="45.779470726847649" lon="5.943832844495773">
        <ele>320.79998779296875</ele>
        <time>2014-05-18T06:57:13Z</time>
      </trkpt>
      <trkpt lat="45.779130589216948" lon="5.943748941645026">
        <ele>322</ele>
        <time>2014-05-18T06:57:20Z</time>
      </trkpt>
      <trkpt lat="45.77908624894917" lon="5.943736452609301">
        <ele>322.20001220703125</ele>
        <time>2014-05-18T06:57:21Z</time>
      </trkpt>
      <trkpt lat="45.778741417452693" lon="5.94364995136857">
        <ele>322.79998779296875</ele>
        <time>2014-05-18T06:57:28Z</time>
      </trkpt>
      <trkpt lat="45.77859322540462" lon="5.943612651899457">
        <ele>323.20001220703125</ele>
        <time>2014-05-18T06:57:31Z</time>
      </trkpt>
      <trkpt lat="45.778360208496451" lon="5.94353998079896">
        <ele>324</ele>
        <time>2014-05-18T06:57:36Z</time>
      </trkpt>
      <trkpt lat="45.778262810781598" lon="5.943517098203301">
        <ele>324.39999389648437</ele>
        <time>2014-05-18T06:57:38Z</time>
      </trkpt>
      <trkpt lat="45.778035493567586" lon="5.943458089604974">
        <ele>325.60000610351562</ele>
        <time>2014-05-18T06:57:43Z</time>
      </trkpt>
      <trkpt lat="45.777990482747555" lon="5.94345398247242">
        <ele>325.79998779296875</ele>
        <time>2014-05-18T06:57:44Z</time>
      </trkpt>
      <trkpt lat="45.77773567289114" lon="5.943401008844376">
        <ele>326.79998779296875</ele>
        <time>2014-05-18T06:57:50Z</time>
      </trkpt>
      <trkpt lat="45.777696194127202" lon="5.943391537293792">
        <ele>326.79998779296875</ele>
        <time>2014-05-18T06:57:51Z</time>
      </trkpt>
      <trkpt lat="45.777543811127543" lon="5.943360691890121">
        <ele>328</ele>
        <time>2014-05-18T06:57:55Z</time>
      </trkpt>
      <trkpt lat="45.77743710950017" lon="5.9433289244771">
        <ele>328.39999389648437</ele>
        <time>2014-05-18T06:57:58Z</time>
      </trkpt>
      <trkpt lat="45.777289336547256" lon="5.943298414349556">
        <ele>329.39999389648437</ele>
        <time>2014-05-18T06:58:02Z</time>
      </trkpt>
      <trkpt lat="45.777180371806026" lon="5.943277794867754">
        <ele>329.60000610351562</ele>
        <time>2014-05-18T06:58:05Z</time>
      </trkpt>
      <trkpt lat="45.777080878615379" lon="5.943254325538874">
        <ele>330.60000610351562</ele>
        <time>2014-05-18T06:58:08Z</time>
      </trkpt>
      <trkpt lat="45.776972752064466" lon="5.943230353295803">
        <ele>331</ele>
        <time>2014-05-18T06:58:11Z</time>
      </trkpt>
      <trkpt lat="45.776870995759964" lon="5.943208057433367">
        <ele>331.60000610351562</ele>
        <time>2014-05-18T06:58:14Z</time>
      </trkpt>
      <trkpt lat="45.776734706014395" lon="5.943165393546224">
        <ele>332.60000610351562</ele>
        <time>2014-05-18T06:58:18Z</time>
      </trkpt>
      <trkpt lat="45.776524320244789" lon="5.943123819306493">
        <ele>333.79998779296875</ele>
        <time>2014-05-18T06:58:24Z</time>
      </trkpt>
      <trkpt lat="45.77638803049922" lon="5.943091046065092">
        <ele>335</ele>
        <time>2014-05-18T06:58:28Z</time>
      </trkpt>
      <trkpt lat="45.776257775723934" lon="5.943053914234042">
        <ele>336</ele>
        <time>2014-05-18T06:58:32Z</time>
      </trkpt>
      <trkpt lat="45.776225253939629" lon="5.943045951426029">
        <ele>336.20001220703125</ele>
        <time>2014-05-18T06:58:33Z</time>
      </trkpt>
      <trkpt lat="45.77606457285583" lon="5.942982081323862">
        <ele>337.20001220703125</ele>
        <time>2014-05-18T06:58:38Z</time>
      </trkpt>
      <trkpt lat="45.775996427983046" lon="5.942948888987303">
        <ele>337.60000610351562</ele>
        <time>2014-05-18T06:58:40Z</time>
      </trkpt>
      <trkpt lat="45.775825856253505" lon="5.942875295877457">
        <ele>338.20001220703125</ele>
        <time>2014-05-18T06:58:45Z</time>
      </trkpt>
      <trkpt lat="45.775688728317618" lon="5.942822322249413">
        <ele>339</ele>
        <time>2014-05-18T06:58:49Z</time>
      </trkpt>
      <trkpt lat="45.775623936206102" lon="5.942790219560266">
        <ele>339.39999389648438</ele>
        <time>2014-05-18T06:58:51Z</time>
      </trkpt>
      <trkpt lat="45.77546015381813" lon="5.942713860422373">
        <ele>340.20001220703125</ele>
        <time>2014-05-18T06:58:56Z</time>
      </trkpt>
      <trkpt lat="45.775426710024476" lon="5.942701287567616">
        <ele>340.39999389648437</ele>
        <time>2014-05-18T06:58:57Z</time>
      </trkpt>
      <trkpt lat="45.775189502164721" lon="5.942595172673464">
        <ele>341.39999389648437</ele>
        <time>2014-05-18T06:59:04Z</time>
      </trkpt>
      <trkpt lat="45.775124877691269" lon="5.942567680031061">
        <ele>341.60000610351562</ele>
        <time>2014-05-18T06:59:06Z</time>
      </trkpt>
      <trkpt lat="45.774968052282929" lon="5.942489728331566">
        <ele>342.39999389648437</ele>
        <time>2014-05-18T06:59:11Z</time>
      </trkpt>
      <trkpt lat="45.774804940447211" lon="5.94241077080369">
        <ele>343.39999389648437</ele>
        <time>2014-05-18T06:59:16Z</time>
      </trkpt>
      <trkpt lat="45.774774178862572" lon="5.942397946491838">
        <ele>343.39999389648437</ele>
        <time>2014-05-18T06:59:17Z</time>
      </trkpt>
      <trkpt lat="45.774613665416837" lon="5.942332232370973">
        <ele>344.60000610351562</ele>
        <time>2014-05-18T06:59:22Z</time>
      </trkpt>
      <trkpt lat="45.77458206564188" lon="5.942314295098186">
        <ele>344.79998779296875</ele>
        <time>2014-05-18T06:59:23Z</time>
      </trkpt>
      <trkpt lat="45.774381570518017" lon="5.942231314256787">
        <ele>345.79998779296875</ele>
        <time>2014-05-18T06:59:29Z</time>
      </trkpt>
      <trkpt lat="45.774351228028536" lon="5.942214550450444">
        <ele>345.79998779296875</ele>
        <time>2014-05-18T06:59:30Z</time>
      </trkpt>
      <trkpt lat="45.774152157828212" lon="5.942114889621735">
        <ele>347</ele>
        <time>2014-05-18T06:59:36Z</time>
      </trkpt>
      <trkpt lat="45.774082504212856" lon="5.942087396979332">
        <ele>347.39999389648437</ele>
        <time>2014-05-18T06:59:38Z</time>
      </trkpt>
      <trkpt lat="45.773860719054937" lon="5.941970804706216">
        <ele>348</ele>
        <time>2014-05-18T06:59:44Z</time>
      </trkpt>
      <trkpt lat="45.773783773183823" lon="5.941936019808054">
        <ele>348.39999389648437</ele>
        <time>2014-05-18T06:59:46Z</time>
      </trkpt>
      <trkpt lat="45.773508679121733" lon="5.941808447241783">
        <ele>349</ele>
        <time>2014-05-18T06:59:53Z</time>
      </trkpt>
      <trkpt lat="45.773470709100366" lon="5.941791767254472">
        <ele>349.20001220703125</ele>
        <time>2014-05-18T06:59:54Z</time>
      </trkpt>
      <trkpt lat="45.77318656258285" lon="5.941680958494544">
        <ele>350.20001220703125</ele>
        <time>2014-05-18T07:00:01Z</time>
      </trkpt>
      <trkpt lat="45.773069802671671" lon="5.941621363162994">
        <ele>350.39999389648438</ele>
        <time>2014-05-18T07:00:04Z</time>
      </trkpt>
      <trkpt lat="45.772991012781858" lon="5.941592864692211">
        <ele>350.60000610351562</ele>
        <time>2014-05-18T07:00:06Z</time>
      </trkpt>
      <trkpt lat="45.772871319204569" lon="5.941542657092214">
        <ele>351.20001220703125</ele>
        <time>2014-05-18T07:00:09Z</time>
      </trkpt>
      <trkpt lat="45.772556914016604" lon="5.941398991271853">
        <ele>352</ele>
        <time>2014-05-18T07:00:17Z</time>
      </trkpt>
      <trkpt lat="45.772522045299411" lon="5.94138122163713">
        <ele>352.20001220703125</ele>
        <time>2014-05-18T07:00:18Z</time>
      </trkpt>
      <trkpt lat="45.772292213514447" lon="5.941278375685215">
        <ele>353</ele>
        <time>2014-05-18T07:00:24Z</time>
      </trkpt>
      <trkpt lat="45.772167574614286" lon="5.941234203055501">
        <ele>353.39999389648438</ele>
        <time>2014-05-18T07:00:27Z</time>
      </trkpt>
      <trkpt lat="45.771908992901444" lon="5.941119035705924">
        <ele>354</ele>
        <time>2014-05-18T07:00:33Z</time>
      </trkpt>
      <trkpt lat="45.771617889404297" lon="5.940981488674879">
        <ele>354.39999389648437</ele>
        <time>2014-05-18T07:00:39Z</time>
      </trkpt>
      <trkpt lat="45.771518647670746" lon="5.940927257761359">
        <ele>354.60000610351562</ele>
        <time>2014-05-18T07:00:41Z</time>
      </trkpt>
      <trkpt lat="45.77114506624639" lon="5.940679740160704">
        <ele>354.39999389648437</ele>
        <time>2014-05-18T07:00:48Z</time>
      </trkpt>
      <trkpt lat="45.770898889750242" lon="5.940493661910296">
        <ele>355.60000610351562</ele>
        <time>2014-05-18T07:00:53Z</time>
      </trkpt>
      <trkpt lat="45.770761594176292" lon="5.940388720482588">
        <ele>356.60000610351562</ele>
        <time>2014-05-18T07:00:56Z</time>
      </trkpt>
      <trkpt lat="45.770719600841403" lon="5.940353516489267">
        <ele>356.79998779296875</ele>
        <time>2014-05-18T07:00:57Z</time>
      </trkpt>
      <trkpt lat="45.77051910571754" lon="5.940184704959393">
        <ele>358</ele>
        <time>2014-05-18T07:01:02Z</time>
      </trkpt>
      <trkpt lat="45.770256500691175" lon="5.939963841810823">
        <ele>359</ele>
        <time>2014-05-18T07:01:09Z</time>
      </trkpt>
      <trkpt lat="45.770220626145601" lon="5.939935008063912">
        <ele>359.39999389648437</ele>
        <time>2014-05-18T07:01:10Z</time>
      </trkpt>
      <trkpt lat="45.770084923133254" lon="5.939818918704987">
        <ele>360</ele>
        <time>2014-05-18T07:01:14Z</time>
      </trkpt>
      <trkpt lat="45.770053071901202" lon="5.939787989482284">
        <ele>360.20001220703125</ele>
        <time>2014-05-18T07:01:15Z</time>
      </trkpt>
      <trkpt lat="45.769814942032099" lon="5.939577184617519">
        <ele>361.20001220703125</ele>
        <time>2014-05-18T07:01:22Z</time>
      </trkpt>
      <trkpt lat="45.769708910956979" lon="5.939486157149077">
        <ele>361.20001220703125</ele>
        <time>2014-05-18T07:01:25Z</time>
      </trkpt>
      <trkpt lat="45.769494837149978" lon="5.939310388639569">
        <ele>362.20001220703125</ele>
        <time>2014-05-18T07:01:31Z</time>
      </trkpt>
      <trkpt lat="45.769418310374022" lon="5.939251380041242">
        <ele>362.20001220703125</ele>
        <time>2014-05-18T07:01:33Z</time>
      </trkpt>
      <trkpt lat="45.769126787781715" lon="5.939032360911369">
        <ele>362.60000610351562</ele>
        <time>2014-05-18T07:01:40Z</time>
      </trkpt>
      <trkpt lat="45.768758738413453" lon="5.938760116696358">
        <ele>362.20001220703125</ele>
        <time>2014-05-18T07:01:48Z</time>
      </trkpt>
      <trkpt lat="45.768378954380751" lon="5.93845191411674">
        <ele>361.20001220703125</ele>
        <time>2014-05-18T07:01:55Z</time>
      </trkpt>
      <trkpt lat="45.768317682668567" lon="5.938404724001885">
        <ele>360.79998779296875</ele>
        <time>2014-05-18T07:01:56Z</time>
      </trkpt>
      <trkpt lat="45.768128084018826" lon="5.93825058080256">
        <ele>359.79998779296875</ele>
        <time>2014-05-18T07:01:59Z</time>
      </trkpt>
      <trkpt lat="45.767866317182779" lon="5.938036674633622">
        <ele>359.60000610351562</ele>
        <time>2014-05-18T07:02:03Z</time>
      </trkpt>
      <trkpt lat="45.767384860664606" lon="5.937650017440319">
        <ele>358.60000610351562</ele>
        <time>2014-05-18T07:02:10Z</time>
      </trkpt>
      <trkpt lat="45.767164835706353" lon="5.937469722703099">
        <ele>357.60000610351562</ele>
        <time>2014-05-18T07:02:13Z</time>
      </trkpt>
      <trkpt lat="45.767088644206524" lon="5.937410965561867">
        <ele>357.39999389648437</ele>
        <time>2014-05-18T07:02:14Z</time>
      </trkpt>
      <trkpt lat="45.766849676147103" lon="5.937230670824647">
        <ele>356.20001220703125</ele>
        <time>2014-05-18T07:02:17Z</time>
      </trkpt>
      <trkpt lat="45.766682624816895" lon="5.937096560373902">
        <ele>355</ele>
        <time>2014-05-18T07:02:19Z</time>
      </trkpt>
      <trkpt lat="45.766596626490355" lon="5.937026906758547">
        <ele>354.20001220703125</ele>
        <time>2014-05-18T07:02:20Z</time>
      </trkpt>
      <trkpt lat="45.7665079459548" lon="5.936955157667399">
        <ele>353.60000610351562</ele>
        <time>2014-05-18T07:02:21Z</time>
      </trkpt>
      <trkpt lat="45.766321532428265" lon="5.936808222904801">
        <ele>352.20001220703125</ele>
        <time>2014-05-18T07:02:23Z</time>
      </trkpt>
      <trkpt lat="45.766129419207573" lon="5.936657683923841">
        <ele>350.60000610351562</ele>
        <time>2014-05-18T07:02:25Z</time>
      </trkpt>
      <trkpt lat="45.765933869406581" lon="5.936505468562245">
        <ele>349</ele>
        <time>2014-05-18T07:02:27Z</time>
      </trkpt>
      <trkpt lat="45.765739995986223" lon="5.936352331191301">
        <ele>347.79998779296875</ele>
        <time>2014-05-18T07:02:29Z</time>
      </trkpt>
      <trkpt lat="45.765551319345832" lon="5.936192823573947">
        <ele>346.60000610351562</ele>
        <time>2014-05-18T07:02:31Z</time>
      </trkpt>
      <trkpt lat="45.765457777306437" lon="5.936112692579627">
        <ele>345.60000610351562</ele>
        <time>2014-05-18T07:02:32Z</time>
      </trkpt>
      <trkpt lat="45.765267675742507" lon="5.935963662341237">
        <ele>344.39999389648437</ele>
        <time>2014-05-18T07:02:34Z</time>
      </trkpt>
      <trkpt lat="45.764690414071083" lon="5.9356495924294">
        <ele>344</ele>
        <time>2014-05-18T07:02:40Z</time>
      </trkpt>
      <trkpt lat="45.764140812680125" lon="5.935385478660464">
        <ele>345.79998779296875</ele>
        <time>2014-05-18T07:02:46Z</time>
      </trkpt>
      <trkpt lat="45.764054311439395" lon="5.935342898592353">
        <ele>345.79998779296875</ele>
        <time>2014-05-18T07:02:47Z</time>
      </trkpt>
      <trkpt lat="45.763721382245421" lon="5.935178529471159">
        <ele>346.79998779296875</ele>
        <time>2014-05-18T07:02:51Z</time>
      </trkpt>
      <trkpt lat="45.763488700613379" lon="5.9350710734725">
        <ele>347.39999389648437</ele>
        <time>2014-05-18T07:02:54Z</time>
      </trkpt>
      <trkpt lat="45.763417119160295" lon="5.935035450384021">
        <ele>347.79998779296875</ele>
        <time>2014-05-18T07:02:55Z</time>
      </trkpt>
      <trkpt lat="45.763281332328916" lon="5.934962276369333">
        <ele>349</ele>
        <time>2014-05-18T07:02:57Z</time>
      </trkpt>
      <trkpt lat="45.763080669566989" lon="5.934862364083529">
        <ele>349.60000610351562</ele>
        <time>2014-05-18T07:03:00Z</time>
      </trkpt>
      <trkpt lat="45.762956198304892" lon="5.934796314686537">
        <ele>350</ele>
        <time>2014-05-18T07:03:02Z</time>
      </trkpt>
      <trkpt lat="45.762647073715925" lon="5.934639489278197">
        <ele>350.79998779296875</ele>
        <time>2014-05-18T07:03:07Z</time>
      </trkpt>
      <trkpt lat="45.762463342398405" lon="5.934540666639805">
        <ele>351</ele>
        <time>2014-05-18T07:03:10Z</time>
      </trkpt>
      <trkpt lat="45.762211717665195" lon="5.934413094073534">
        <ele>351</ele>
        <time>2014-05-18T07:03:14Z</time>
      </trkpt>
      <trkpt lat="45.761777451261878" lon="5.934194996953011">
        <ele>351.79998779296875</ele>
        <time>2014-05-18T07:03:21Z</time>
      </trkpt>
      <trkpt lat="45.761224161833525" lon="5.933910347521305">
        <ele>351.79998779296875</ele>
        <time>2014-05-18T07:03:30Z</time>
      </trkpt>
      <trkpt lat="45.761163560673594" lon="5.933879418298602">
        <ele>352</ele>
        <time>2014-05-18T07:03:31Z</time>
      </trkpt>
      <trkpt lat="45.760871702805161" lon="5.933725945651531">
        <ele>352.20001220703125</ele>
        <time>2014-05-18T07:03:36Z</time>
      </trkpt>
      <trkpt lat="45.760758714750409" lon="5.933665595948696">
        <ele>352.20001220703125</ele>
        <time>2014-05-18T07:03:38Z</time>
      </trkpt>
      <trkpt lat="45.760221686214209" lon="5.93336041085422">
        <ele>351.60000610351562</ele>
        <time>2014-05-18T07:03:47Z</time>
      </trkpt>
      <trkpt lat="45.75991147197783" lon="5.933191934600473">
        <ele>351</ele>
        <time>2014-05-18T07:03:52Z</time>
      </trkpt>
      <trkpt lat="45.759718772023916" lon="5.933095458894968">
        <ele>350.60000610351562</ele>
        <time>2014-05-18T07:03:55Z</time>
      </trkpt>
      <trkpt lat="45.759449293836951" lon="5.932947099208832">
        <ele>349.79998779296875</ele>
        <time>2014-05-18T07:03:59Z</time>
      </trkpt>
      <trkpt lat="45.759305795654655" lon="5.9328727517277">
        <ele>349.20001220703125</ele>
        <time>2014-05-18T07:04:01Z</time>
      </trkpt>
      <trkpt lat="45.759080154821277" lon="5.932768899947405">
        <ele>348.60000610351562</ele>
        <time>2014-05-18T07:04:04Z</time>
      </trkpt>
      <trkpt lat="45.75875585898757" lon="5.932620372623205">
        <ele>347.60000610351562</ele>
        <time>2014-05-18T07:04:08Z</time>
      </trkpt>
      <trkpt lat="45.758411278948188" lon="5.932456171140075">
        <ele>346.39999389648437</ele>
        <time>2014-05-18T07:04:12Z</time>
      </trkpt>
      <trkpt lat="45.758140375837684" lon="5.932319546118379">
        <ele>345.20001220703125</ele>
        <time>2014-05-18T07:04:15Z</time>
      </trkpt>
      <trkpt lat="45.757855139672756" lon="5.932163894176483">
        <ele>344.20001220703125</ele>
        <time>2014-05-18T07:04:18Z</time>
      </trkpt>
      <trkpt lat="45.757662691175938" lon="5.932046631351113">
        <ele>342.79998779296875</ele>
        <time>2014-05-18T07:04:20Z</time>
      </trkpt>
      <trkpt lat="45.757474265992641" lon="5.93191109597683">
        <ele>341.60000610351562</ele>
        <time>2014-05-18T07:04:22Z</time>
      </trkpt>
      <trkpt lat="45.756912343204021" lon="5.931502226740122">
        <ele>340.20001220703125</ele>
        <time>2014-05-18T07:04:28Z</time>
      </trkpt>
      <trkpt lat="45.756550328806043" lon="5.931239370256662">
        <ele>339.39999389648438</ele>
        <time>2014-05-18T07:04:32Z</time>
      </trkpt>
      <trkpt lat="45.756040038540959" lon="5.930865369737148">
        <ele>339.39999389648438</ele>
        <time>2014-05-18T07:04:38Z</time>
      </trkpt>
      <trkpt lat="45.755695793777704" lon="5.93062212690711">
        <ele>339.39999389648438</ele>
        <time>2014-05-18T07:04:42Z</time>
      </trkpt>
      <trkpt lat="45.755174774676561" lon="5.930225914344192">
        <ele>338.60000610351562</ele>
        <time>2014-05-18T07:04:48Z</time>
      </trkpt>
      <trkpt lat="45.754914600402117" lon="5.93002256937325">
        <ele>337.60000610351562</ele>
        <time>2014-05-18T07:04:51Z</time>
      </trkpt>
      <trkpt lat="45.754392072558403" lon="5.929627697914839">
        <ele>336.60000610351562</ele>
        <time>2014-05-18T07:04:57Z</time>
      </trkpt>
      <trkpt lat="45.754215717315674" lon="5.929505741223693">
        <ele>336.39999389648438</ele>
        <time>2014-05-18T07:04:59Z</time>
      </trkpt>
      <trkpt lat="45.754040200263262" lon="5.929387640208006">
        <ele>336</ele>
        <time>2014-05-18T07:05:01Z</time>
      </trkpt>
      <trkpt lat="45.753688747063279" lon="5.929153952747583">
        <ele>335.20001220703125</ele>
        <time>2014-05-18T07:05:05Z</time>
      </trkpt>
      <trkpt lat="45.753334192559123" lon="5.92889872379601">
        <ele>334.39999389648437</ele>
        <time>2014-05-18T07:05:09Z</time>
      </trkpt>
      <trkpt lat="45.753243751823902" lon="5.928836613893509">
        <ele>334.20001220703125</ele>
        <time>2014-05-18T07:05:10Z</time>
      </trkpt>
      <trkpt lat="45.752977542579174" lon="5.928643997758627">
        <ele>332.60000610351562</ele>
        <time>2014-05-18T07:05:13Z</time>
      </trkpt>
      <trkpt lat="45.752696162089705" lon="5.928446939215064">
        <ele>331.60000610351562</ele>
        <time>2014-05-18T07:05:16Z</time>
      </trkpt>
      <trkpt lat="45.752596668899059" lon="5.928375357761979">
        <ele>330.60000610351562</ele>
        <time>2014-05-18T07:05:17Z</time>
      </trkpt>
      <trkpt lat="45.752492733299732" lon="5.928300507366657">
        <ele>329.39999389648437</ele>
        <time>2014-05-18T07:05:18Z</time>
      </trkpt>
      <trkpt lat="45.7523856125772" lon="5.928223393857479">
        <ele>328.20001220703125</ele>
        <time>2014-05-18T07:05:19Z</time>
      </trkpt>
      <trkpt lat="45.75227321125567" lon="5.928143933415413">
        <ele>325.79998779296875</ele>
        <time>2014-05-18T07:05:20Z</time>
      </trkpt>
      <trkpt lat="45.752157038077712" lon="5.928063215687871">
        <ele>324.20001220703125</ele>
        <time>2014-05-18T07:05:21Z</time>
      </trkpt>
      <trkpt lat="45.752038350328803" lon="5.927979480475187">
        <ele>322.39999389648438</ele>
        <time>2014-05-18T07:05:22Z</time>
      </trkpt>
      <trkpt lat="45.751917399466038" lon="5.92789163812995">
        <ele>320.79998779296875</ele>
        <time>2014-05-18T07:05:23Z</time>
      </trkpt>
      <trkpt lat="45.751793934032321" lon="5.927803041413426">
        <ele>319.39999389648438</ele>
        <time>2014-05-18T07:05:24Z</time>
      </trkpt>
      <trkpt lat="45.751672396436334" lon="5.92771134339273">
        <ele>317.79998779296875</ele>
        <time>2014-05-18T07:05:25Z</time>
      </trkpt>
      <trkpt lat="45.751548260450363" lon="5.927618388086557">
        <ele>316.39999389648438</ele>
        <time>2014-05-18T07:05:26Z</time>
      </trkpt>
      <trkpt lat="45.751421190798283" lon="5.927524929866195">
        <ele>314.79998779296875</ele>
        <time>2014-05-18T07:05:27Z</time>
      </trkpt>
      <trkpt lat="45.75129060074687" lon="5.927430633455515">
        <ele>313.20001220703125</ele>
        <time>2014-05-18T07:05:28Z</time>
      </trkpt>
      <trkpt lat="45.751157747581601" lon="5.92733658850193">
        <ele>311.39999389648437</ele>
        <time>2014-05-18T07:05:29Z</time>
      </trkpt>
      <trkpt lat="45.751022715121508" lon="5.927240448072553">
        <ele>310</ele>
        <time>2014-05-18T07:05:30Z</time>
      </trkpt>
      <trkpt lat="45.750887179747224" lon="5.927141793072224">
        <ele>308.60000610351562</ele>
        <time>2014-05-18T07:05:31Z</time>
      </trkpt>
      <trkpt lat="45.750750387087464" lon="5.927042216062546">
        <ele>307.39999389648437</ele>
        <time>2014-05-18T07:05:32Z</time>
      </trkpt>
      <trkpt lat="45.750613175332546" lon="5.926941465586424">
        <ele>305.39999389648437</ele>
        <time>2014-05-18T07:05:33Z</time>
      </trkpt>
      <trkpt lat="45.750476801767945" lon="5.926841888576746">
        <ele>303.79998779296875</ele>
        <time>2014-05-18T07:05:34Z</time>
      </trkpt>
      <trkpt lat="45.750340679660439" lon="5.9267423953861">
        <ele>302</ele>
        <time>2014-05-18T07:05:35Z</time>
      </trkpt>
      <trkpt lat="45.750204222276807" lon="5.926643656566739">
        <ele>301</ele>
        <time>2014-05-18T07:05:36Z</time>
      </trkpt>
      <trkpt lat="45.749929714947939" lon="5.926442155614495">
        <ele>299</ele>
        <time>2014-05-18T07:05:38Z</time>
      </trkpt>
      <trkpt lat="45.74979099445045" lon="5.926342578604817">
        <ele>298</ele>
        <time>2014-05-18T07:05:39Z</time>
      </trkpt>
      <trkpt lat="45.749653279781342" lon="5.926243923604488">
        <ele>297</ele>
        <time>2014-05-18T07:05:40Z</time>
      </trkpt>
      <trkpt lat="45.749514475464821" lon="5.926144262775779">
        <ele>295.60000610351562</ele>
        <time>2014-05-18T07:05:41Z</time>
      </trkpt>
      <trkpt lat="45.74937617406249" lon="5.92604367993772">
        <ele>294.39999389648437</ele>
        <time>2014-05-18T07:05:42Z</time>
      </trkpt>
      <trkpt lat="45.749238794669509" lon="5.925942845642567">
        <ele>293.20001220703125</ele>
        <time>2014-05-18T07:05:43Z</time>
      </trkpt>
      <trkpt lat="45.749101331457496" lon="5.925842095166445">
        <ele>292.20001220703125</ele>
        <time>2014-05-18T07:05:44Z</time>
      </trkpt>
      <trkpt lat="45.748966550454497" lon="5.925741596147418">
        <ele>290</ele>
        <time>2014-05-18T07:05:45Z</time>
      </trkpt>
      <trkpt lat="45.74870235286653" lon="5.925545711070299">
        <ele>288.39999389648437</ele>
        <time>2014-05-18T07:05:47Z</time>
      </trkpt>
      <trkpt lat="45.748440334573388" lon="5.925348065793514">
        <ele>287.20001220703125</ele>
        <time>2014-05-18T07:05:49Z</time>
      </trkpt>
      <trkpt lat="45.748175466433167" lon="5.925156539306045">
        <ele>285.39999389648438</ele>
        <time>2014-05-18T07:05:51Z</time>
      </trkpt>
      <trkpt lat="45.748044457286596" lon="5.925061823800206">
        <ele>284.79998779296875</ele>
        <time>2014-05-18T07:05:52Z</time>
      </trkpt>
      <trkpt lat="45.74791613034904" lon="5.924967275932431">
        <ele>284</ele>
        <time>2014-05-18T07:05:53Z</time>
      </trkpt>
      <trkpt lat="45.747662745416164" lon="5.924789244309068">
        <ele>282.39999389648438</ele>
        <time>2014-05-18T07:05:55Z</time>
      </trkpt>
      <trkpt lat="45.747421765699983" lon="5.924610542133451">
        <ele>281.20001220703125</ele>
        <time>2014-05-18T07:05:57Z</time>
      </trkpt>
      <trkpt lat="45.747302826493979" lon="5.924524459987879">
        <ele>281</ele>
        <time>2014-05-18T07:05:58Z</time>
      </trkpt>
      <trkpt lat="45.746952462941408" lon="5.92426897957921">
        <ele>280</ele>
        <time>2014-05-18T07:06:01Z</time>
      </trkpt>
      <trkpt lat="45.746498415246606" lon="5.923941833898425">
        <ele>278.79998779296875</ele>
        <time>2014-05-18T07:06:05Z</time>
      </trkpt>
      <trkpt lat="45.746390288695693" lon="5.923861786723137">
        <ele>278.20001220703125</ele>
        <time>2014-05-18T07:06:06Z</time>
      </trkpt>
      <trkpt lat="45.746069513261318" lon="5.923632709309459">
        <ele>277.39999389648437</ele>
        <time>2014-05-18T07:06:09Z</time>
      </trkpt>
      <trkpt lat="45.745760556310415" lon="5.923409499228001">
        <ele>275.79998779296875</ele>
        <time>2014-05-18T07:06:12Z</time>
      </trkpt>
      <trkpt lat="45.745269879698753" lon="5.923016052693129">
        <ele>274.79998779296875</ele>
        <time>2014-05-18T07:06:17Z</time>
      </trkpt>
      <trkpt lat="45.745077598839998" lon="5.922854198142886">
        <ele>273.60000610351562</ele>
        <time>2014-05-18T07:06:19Z</time>
      </trkpt>
      <trkpt lat="45.744878947734833" lon="5.922693181782961">
        <ele>272.39999389648437</ele>
        <time>2014-05-18T07:06:21Z</time>
      </trkpt>
      <trkpt lat="45.744674261659384" lon="5.922543900087476">
        <ele>271.39999389648437</ele>
        <time>2014-05-18T07:06:23Z</time>
      </trkpt>
      <trkpt lat="45.744352815672755" lon="5.922342147678137">
        <ele>269.79998779296875</ele>
        <time>2014-05-18T07:06:26Z</time>
      </trkpt>
      <trkpt lat="45.744134299457073" lon="5.922231758013368">
        <ele>268.60000610351562</ele>
        <time>2014-05-18T07:06:28Z</time>
      </trkpt>
      <trkpt lat="45.743909329175949" lon="5.922146262601018">
        <ele>266.79998779296875</ele>
        <time>2014-05-18T07:06:30Z</time>
      </trkpt>
      <trkpt lat="45.743793994188309" lon="5.922116506844759">
        <ele>266.60000610351562</ele>
        <time>2014-05-18T07:06:31Z</time>
      </trkpt>
      <trkpt lat="45.743556786328554" lon="5.922081051394343">
        <ele>265.60000610351562</ele>
        <time>2014-05-18T07:06:33Z</time>
      </trkpt>
      <trkpt lat="45.743309436365962" lon="5.922078620642424">
        <ele>264.79998779296875</ele>
        <time>2014-05-18T07:06:35Z</time>
      </trkpt>
      <trkpt lat="45.74318228289485" lon="5.922093708068132">
        <ele>264</ele>
        <time>2014-05-18T07:06:36Z</time>
      </trkpt>
      <trkpt lat="45.742931077256799" lon="5.922157829627395">
        <ele>262.60000610351562</ele>
        <time>2014-05-18T07:06:38Z</time>
      </trkpt>
      <trkpt lat="45.742808030918241" lon="5.922209294512868">
        <ele>261.79998779296875</ele>
        <time>2014-05-18T07:06:39Z</time>
      </trkpt>
      <trkpt lat="45.742687163874507" lon="5.922266207635403">
        <ele>261</ele>
        <time>2014-05-18T07:06:40Z</time>
      </trkpt>
      <trkpt lat="45.742450291290879" lon="5.922384057193995">
        <ele>259.79998779296875</ele>
        <time>2014-05-18T07:06:42Z</time>
      </trkpt>
      <trkpt lat="45.74210193939507" lon="5.922553455457091">
        <ele>258.39999389648437</ele>
        <time>2014-05-18T07:06:45Z</time>
      </trkpt>
      <trkpt lat="45.74153951369226" lon="5.922762667760253">
        <ele>257.60000610351562</ele>
        <time>2014-05-18T07:06:50Z</time>
      </trkpt>
      <trkpt lat="45.741428704932332" lon="5.92278840020299">
        <ele>257.39999389648437</ele>
        <time>2014-05-18T07:06:51Z</time>
      </trkpt>
      <trkpt lat="45.740994270890951" lon="5.922836177051067">
        <ele>256.60000610351562</ele>
        <time>2014-05-18T07:06:55Z</time>
      </trkpt>
      <trkpt lat="45.740779861807823" lon="5.922839278355241">
        <ele>255.80000305175781</ele>
        <time>2014-05-18T07:06:57Z</time>
      </trkpt>
      <trkpt lat="45.740265632048249" lon="5.922789070755243">
        <ele>255.80000305175781</ele>
        <time>2014-05-18T07:07:02Z</time>
      </trkpt>
      <trkpt lat="45.739668505266309" lon="5.922717740759254">
        <ele>255.39999389648437</ele>
        <time>2014-05-18T07:07:08Z</time>
      </trkpt>
      <trkpt lat="45.739478906616569" lon="5.922693684697151">
        <ele>255.60000610351562</ele>
        <time>2014-05-18T07:07:10Z</time>
      </trkpt>
      <trkpt lat="45.738925533369184" lon="5.922626126557589">
        <ele>255</ele>
        <time>2014-05-18T07:07:16Z</time>
      </trkpt>
      <trkpt lat="45.738653121516109" lon="5.922591341659427">
        <ele>255.39999389648437</ele>
        <time>2014-05-18T07:07:19Z</time>
      </trkpt>
      <trkpt lat="45.738475425168872" lon="5.922573739662767">
        <ele>254.80000305175781</ele>
        <time>2014-05-18T07:07:21Z</time>
      </trkpt>
      <trkpt lat="45.737972678616643" lon="5.922510959208012">
        <ele>255.39999389648437</ele>
        <time>2014-05-18T07:07:27Z</time>
      </trkpt>
      <trkpt lat="45.737404972314835" lon="5.92244440689683">
        <ele>255.80000305175781</ele>
        <time>2014-05-18T07:07:34Z</time>
      </trkpt>
      <trkpt lat="45.737323919311166" lon="5.922433761879802">
        <ele>255.80000305175781</ele>
        <time>2014-05-18T07:07:35Z</time>
      </trkpt>
      <trkpt lat="45.73716139420867" lon="5.922412723302841">
        <ele>255.39999389648437</ele>
        <time>2014-05-18T07:07:37Z</time>
      </trkpt>
      <trkpt lat="45.736748417839408" lon="5.922364443540573">
        <ele>254.60000610351562</ele>
        <time>2014-05-18T07:07:42Z</time>
      </trkpt>
      <trkpt lat="45.736340889707208" lon="5.922313313931227">
        <ele>253.80000305175781</ele>
        <time>2014-05-18T07:07:47Z</time>
      </trkpt>
      <trkpt lat="45.735918190330267" lon="5.922268889844418">
        <ele>253.39999389648437</ele>
        <time>2014-05-18T07:07:52Z</time>
      </trkpt>
      <trkpt lat="45.735580734908581" lon="5.922227315604687">
        <ele>252.80000305175781</ele>
        <time>2014-05-18T07:07:56Z</time>
      </trkpt>
      <trkpt lat="45.735003892332315" lon="5.922164954245091">
        <ele>253</ele>
        <time>2014-05-18T07:08:03Z</time>
      </trkpt>
      <trkpt lat="45.734922923147678" lon="5.922156907618046">
        <ele>253</ele>
        <time>2014-05-18T07:08:04Z</time>
      </trkpt>
      <trkpt lat="45.734345493838191" lon="5.922084823250771">
        <ele>252.39999389648437</ele>
        <time>2014-05-18T07:08:11Z</time>
      </trkpt>
      <trkpt lat="45.734261171892285" lon="5.922074345871806">
        <ele>252.39999389648437</ele>
        <time>2014-05-18T07:08:12Z</time>
      </trkpt>
      <trkpt lat="45.73367653414607" lon="5.921998741105199">
        <ele>251.39999389648438</ele>
        <time>2014-05-18T07:08:19Z</time>
      </trkpt>
      <trkpt lat="45.73343513533473" lon="5.921972338110209">
        <ele>251.39999389648438</ele>
        <time>2014-05-18T07:08:22Z</time>
      </trkpt>
      <trkpt lat="45.732867596670985" lon="5.921899247914553">
        <ele>251</ele>
        <time>2014-05-18T07:08:29Z</time>
      </trkpt>
      <trkpt lat="45.732710771262646" lon="5.921879215165973">
        <ele>250.60000610351562</ele>
        <time>2014-05-18T07:08:31Z</time>
      </trkpt>
      <trkpt lat="45.732631897553802" lon="5.921870833262801">
        <ele>250.39999389648437</ele>
        <time>2014-05-18T07:08:32Z</time>
      </trkpt>
      <trkpt lat="45.732051618397236" lon="5.921809142455459">
        <ele>249.80000305175781</ele>
        <time>2014-05-18T07:08:39Z</time>
      </trkpt>
      <trkpt lat="45.731470920145512" lon="5.921737896278501">
        <ele>249.80000305175781</ele>
        <time>2014-05-18T07:08:46Z</time>
      </trkpt>
      <trkpt lat="45.731216529384255" lon="5.921704452484846">
        <ele>249.39999389648437</ele>
        <time>2014-05-18T07:08:49Z</time>
      </trkpt>
      <trkpt lat="45.731131369248033" lon="5.921691292896867">
        <ele>249</ele>
        <time>2014-05-18T07:08:50Z</time>
      </trkpt>
      <trkpt lat="45.730796176940203" lon="5.921649634838104">
        <ele>248</ele>
        <time>2014-05-18T07:08:54Z</time>
      </trkpt>
      <trkpt lat="45.730380099266768" lon="5.92160202562809">
        <ele>247.19999694824219</ele>
        <time>2014-05-18T07:08:59Z</time>
      </trkpt>
      <trkpt lat="45.730294855311513" lon="5.921592554077506">
        <ele>247</ele>
        <time>2014-05-18T07:09:00Z</time>
      </trkpt>
      <trkpt lat="45.729711391031742" lon="5.921526001766324">
        <ele>246.60000610351562</ele>
        <time>2014-05-18T07:09:07Z</time>
      </trkpt>
      <trkpt lat="45.729624470695853" lon="5.921515021473169">
        <ele>246.19999694824219</ele>
        <time>2014-05-18T07:09:08Z</time>
      </trkpt>
      <trkpt lat="45.729451971128583" lon="5.921488283202052">
        <ele>245.60000610351562</ele>
        <time>2014-05-18T07:09:10Z</time>
      </trkpt>
      <trkpt lat="45.728846630081534" lon="5.921407481655479">
        <ele>245.39999389648437</ele>
        <time>2014-05-18T07:09:17Z</time>
      </trkpt>
      <trkpt lat="45.728673711419106" lon="5.921387700363994">
        <ele>245</ele>
        <time>2014-05-18T07:09:19Z</time>
      </trkpt>
      <trkpt lat="45.728158392012119" lon="5.921319555491209">
        <ele>244.60000610351562</ele>
        <time>2014-05-18T07:09:25Z</time>
      </trkpt>
      <trkpt lat="45.727987987920642" lon="5.921294577419758">
        <ele>244.19999694824219</ele>
        <time>2014-05-18T07:09:27Z</time>
      </trkpt>
      <trkpt lat="45.72782076895237" lon="5.921250656247139">
        <ele>244.19999694824219</ele>
        <time>2014-05-18T07:09:29Z</time>
      </trkpt>
      <trkpt lat="45.727653717622161" lon="5.921186367049813">
        <ele>243.80000305175781</ele>
        <time>2014-05-18T07:09:31Z</time>
      </trkpt>
      <trkpt lat="45.727568306028843" lon="5.921150911599398">
        <ele>243.60000610351562</ele>
        <time>2014-05-18T07:09:32Z</time>
      </trkpt>
      <trkpt lat="45.727237639948726" lon="5.920981094241142">
        <ele>242.60000610351562</ele>
        <time>2014-05-18T07:09:36Z</time>
      </trkpt>
      <trkpt lat="45.727079473435879" lon="5.920874057337642">
        <ele>242.39999389648437</ele>
        <time>2014-05-18T07:09:38Z</time>
      </trkpt>
      <trkpt lat="45.726624503731728" lon="5.920564429834485">
        <ele>242.39999389648437</ele>
        <time>2014-05-18T07:09:44Z</time>
      </trkpt>
      <trkpt lat="45.726562142372131" lon="5.920496536418796">
        <ele>242.39999389648437</ele>
        <time>2014-05-18T07:09:45Z</time>
      </trkpt>
      <trkpt lat="45.72643649764359" lon="5.920359576120973">
        <ele>242.19999694824219</ele>
        <time>2014-05-18T07:09:47Z</time>
      </trkpt>
      <trkpt lat="45.726286293938756" lon="5.920291263610125">
        <ele>242</ele>
        <time>2014-05-18T07:09:49Z</time>
      </trkpt>
      <trkpt lat="45.726071884855628" lon="5.920143993571401">
        <ele>241.80000305175781</ele>
        <time>2014-05-18T07:09:52Z</time>
      </trkpt>
      <trkpt lat="45.726007595658302" lon="5.920080291107297">
        <ele>241.80000305175781</ele>
        <time>2014-05-18T07:09:53Z</time>
      </trkpt>
      <trkpt lat="45.725602498278022" lon="5.919781140983105">
        <ele>242</ele>
        <time>2014-05-18T07:09:59Z</time>
      </trkpt>
      <trkpt lat="45.725060775876045" lon="5.919393310323358">
        <ele>242</ele>
        <time>2014-05-18T07:10:07Z</time>
      </trkpt>
      <trkpt lat="45.724996319040656" lon="5.919347377493978">
        <ele>241.80000305175781</ele>
        <time>2014-05-18T07:10:08Z</time>
      </trkpt>
      <trkpt lat="45.724508827552199" lon="5.918980753049254">
        <ele>243</ele>
        <time>2014-05-18T07:10:16Z</time>
      </trkpt>
      <trkpt lat="45.724451160058379" lon="5.918939681723714">
        <ele>243.19999694824219</ele>
        <time>2014-05-18T07:10:17Z</time>
      </trkpt>
      <trkpt lat="45.724340938031673" lon="5.918863238766789">
        <ele>243.80000305175781</ele>
        <time>2014-05-18T07:10:19Z</time>
      </trkpt>
      <trkpt lat="45.724134240299463" lon="5.918720159679651">
        <ele>245.19999694824219</ele>
        <time>2014-05-18T07:10:23Z</time>
      </trkpt>
      <trkpt lat="45.724084535613656" lon="5.918685039505363">
        <ele>245.39999389648437</ele>
        <time>2014-05-18T07:10:24Z</time>
      </trkpt>
      <trkpt lat="45.723852273076773" lon="5.918540535494685">
        <ele>246.39999389648437</ele>
        <time>2014-05-18T07:10:29Z</time>
      </trkpt>
      <trkpt lat="45.723759066313505" lon="5.918502481654286">
        <ele>246.80000305175781</ele>
        <time>2014-05-18T07:10:31Z</time>
      </trkpt>
      <trkpt lat="45.72362445294857" lon="5.918455459177494">
        <ele>247.60000610351562</ele>
        <time>2014-05-18T07:10:34Z</time>
      </trkpt>
      <trkpt lat="45.723438207060099" lon="5.91842201538384">
        <ele>248.39999389648437</ele>
        <time>2014-05-18T07:10:38Z</time>
      </trkpt>
      <trkpt lat="45.723391016945243" lon="5.918418494984508">
        <ele>248.60000610351562</ele>
        <time>2014-05-18T07:10:39Z</time>
      </trkpt>
      <trkpt lat="45.723015507683158" lon="5.918374573811889">
        <ele>249.39999389648437</ele>
        <time>2014-05-18T07:10:47Z</time>
      </trkpt>
      <trkpt lat="45.722965467721224" lon="5.918370969593525">
        <ele>249.60000610351562</ele>
        <time>2014-05-18T07:10:48Z</time>
      </trkpt>
      <trkpt lat="45.722725410014391" lon="5.918335514143109">
        <ele>250.19999694824219</ele>
        <time>2014-05-18T07:10:53Z</time>
      </trkpt>
      <trkpt lat="45.722422990947962" lon="5.918288910761476">
        <ele>250.39999389648437</ele>
        <time>2014-05-18T07:10:59Z</time>
      </trkpt>
      <trkpt lat="45.721952766180038" lon="5.918234847486019">
        <ele>249.39999389648437</ele>
        <time>2014-05-18T07:11:07Z</time>
      </trkpt>
      <trkpt lat="45.721688568592072" lon="5.91819385997951">
        <ele>248.60000610351562</ele>
        <time>2014-05-18T07:11:11Z</time>
      </trkpt>
      <trkpt lat="45.721477093175054" lon="5.918177934363484">
        <ele>248</ele>
        <time>2014-05-18T07:11:14Z</time>
      </trkpt>
      <trkpt lat="45.721405679360032" lon="5.918168630450964">
        <ele>247.80000305175781</ele>
        <time>2014-05-18T07:11:15Z</time>
      </trkpt>
      <trkpt lat="45.721332086250186" lon="5.918160248547792">
        <ele>247.39999389648437</ele>
        <time>2014-05-18T07:11:16Z</time>
      </trkpt>
      <trkpt lat="45.721095884218812" lon="5.918128145858645">
        <ele>246.60000610351562</ele>
        <time>2014-05-18T07:11:19Z</time>
      </trkpt>
      <trkpt lat="45.720926402136683" lon="5.918106352910399">
        <ele>245.60000610351562</ele>
        <time>2014-05-18T07:11:21Z</time>
      </trkpt>
      <trkpt lat="45.720658851787448" lon="5.91807366348803">
        <ele>244.39999389648437</ele>
        <time>2014-05-18T07:11:24Z</time>
      </trkpt>
      <trkpt lat="45.720473444089293" lon="5.918058408424258">
        <ele>243.39999389648437</ele>
        <time>2014-05-18T07:11:26Z</time>
      </trkpt>
      <trkpt lat="45.720380740240216" lon="5.918050361797214">
        <ele>243</ele>
        <time>2014-05-18T07:11:27Z</time>
      </trkpt>
      <trkpt lat="45.720193404704332" lon="5.918030831962824">
        <ele>241.80000305175781</ele>
        <time>2014-05-18T07:11:29Z</time>
      </trkpt>
      <trkpt lat="45.719906492158771" lon="5.917986994609237">
        <ele>240.60000610351562</ele>
        <time>2014-05-18T07:11:32Z</time>
      </trkpt>
      <trkpt lat="45.719611113891006" lon="5.917954640462995">
        <ele>240.19999694824219</ele>
        <time>2014-05-18T07:11:35Z</time>
      </trkpt>
      <trkpt lat="45.719313891604543" lon="5.917925136163831">
        <ele>239.19999694824219</ele>
        <time>2014-05-18T07:11:38Z</time>
      </trkpt>
      <trkpt lat="45.718914661556482" lon="5.917885825037956">
        <ele>238</ele>
        <time>2014-05-18T07:11:42Z</time>
      </trkpt>
      <trkpt lat="45.718708382919431" lon="5.917864199727774">
        <ele>237.39999389648437</ele>
        <time>2014-05-18T07:11:44Z</time>
      </trkpt>
      <trkpt lat="45.71860327385366" lon="5.91785472817719">
        <ele>236.19999694824219</ele>
        <time>2014-05-18T07:11:45Z</time>
      </trkpt>
      <trkpt lat="45.718198847025633" lon="5.917807035148144">
        <ele>234.80000305175781</ele>
        <time>2014-05-18T07:11:49Z</time>
      </trkpt>
      <trkpt lat="45.718006147071719" lon="5.917781135067344">
        <ele>234.80000305175781</ele>
        <time>2014-05-18T07:11:51Z</time>
      </trkpt>
      <trkpt lat="45.717438692227006" lon="5.917722042649984">
        <ele>234.19999694824219</ele>
        <time>2014-05-18T07:11:57Z</time>
      </trkpt>
      <trkpt lat="45.717346742749214" lon="5.917711732909083">
        <ele>234</ele>
        <time>2014-05-18T07:11:58Z</time>
      </trkpt>
      <trkpt lat="45.717071481049061" lon="5.917690526694059">
        <ele>233.80000305175781</ele>
        <time>2014-05-18T07:12:01Z</time>
      </trkpt>
      <trkpt lat="45.716698905453086" lon="5.917650880292058">
        <ele>232.39999389648437</ele>
        <time>2014-05-18T07:12:05Z</time>
      </trkpt>
      <trkpt lat="45.716603854671121" lon="5.917636211961508">
        <ele>232</ele>
        <time>2014-05-18T07:12:06Z</time>
      </trkpt>
      <trkpt lat="45.716413417831063" lon="5.917606875300407">
        <ele>231.19999694824219</ele>
        <time>2014-05-18T07:12:08Z</time>
      </trkpt>
      <trkpt lat="45.716317109763622" lon="5.917590949684382">
        <ele>230.19999694824219</ele>
        <time>2014-05-18T07:12:09Z</time>
      </trkpt>
      <trkpt lat="45.715927099809051" lon="5.917519116774201">
        <ele>228.80000305175781</ele>
        <time>2014-05-18T07:12:13Z</time>
      </trkpt>
      <trkpt lat="45.715833390131593" lon="5.917501766234636">
        <ele>228.80000305175781</ele>
        <time>2014-05-18T07:12:14Z</time>
      </trkpt>
      <trkpt lat="45.715545555576682" lon="5.917446445673704">
        <ele>228.80000305175781</ele>
        <time>2014-05-18T07:12:18Z</time>
      </trkpt>
      <trkpt lat="45.715199382975698" lon="5.917363800108433">
        <ele>228.19999694824219</ele>
        <time>2014-05-18T07:12:24Z</time>
      </trkpt>
      <trkpt lat="45.714799566194415" lon="5.917265312746167">
        <ele>227.60000610351562</ele>
        <time>2014-05-18T07:12:30Z</time>
      </trkpt>
      <trkpt lat="45.714267399162054" lon="5.917037995532155">
        <ele>226.80000305175781</ele>
        <time>2014-05-18T07:12:37Z</time>
      </trkpt>
      <trkpt lat="45.714194057509303" lon="5.916999187320471">
        <ele>226.60000610351562</ele>
        <time>2014-05-18T07:12:38Z</time>
      </trkpt>
      <trkpt lat="45.713684856891632" lon="5.916669862344861">
        <ele>226.19999694824219</ele>
        <time>2014-05-18T07:12:45Z</time>
      </trkpt>
      <trkpt lat="45.713322926312685" lon="5.916385883465409">
        <ele>225.60000610351562</ele>
        <time>2014-05-18T07:12:50Z</time>
      </trkpt>
      <trkpt lat="45.713043808937073" lon="5.916125290095806">
        <ele>225.60000610351562</ele>
        <time>2014-05-18T07:12:54Z</time>
      </trkpt>
      <trkpt lat="45.712567381560802" lon="5.915626985952258">
        <ele>225</ele>
        <time>2014-05-18T07:13:01Z</time>
      </trkpt>
      <trkpt lat="45.71242849342525" lon="5.915475860238075">
        <ele>224.39999389648437</ele>
        <time>2014-05-18T07:13:03Z</time>
      </trkpt>
      <trkpt lat="45.712137138471007" lon="5.915162125602365">
        <ele>223</ele>
        <time>2014-05-18T07:13:07Z</time>
      </trkpt>
      <trkpt lat="45.712060611695051" lon="5.915081240236759">
        <ele>222.80000305175781</ele>
        <time>2014-05-18T07:13:08Z</time>
      </trkpt>
      <trkpt lat="45.711906468495727" lon="5.914914608001709">
        <ele>221.39999389648437</ele>
        <time>2014-05-18T07:13:10Z</time>
      </trkpt>
      <trkpt lat="45.711746541783214" lon="5.914744790643454">
        <ele>220.39999389648437</ele>
        <time>2014-05-18T07:13:12Z</time>
      </trkpt>
      <trkpt lat="45.71150254458189" lon="5.914481850340962">
        <ele>219</ele>
        <time>2014-05-18T07:13:15Z</time>
      </trkpt>
      <trkpt lat="45.711249159649014" lon="5.914206923916936">
        <ele>217.39999389648437</ele>
        <time>2014-05-18T07:13:18Z</time>
      </trkpt>
      <trkpt lat="45.711075570434332" lon="5.914024785161018">
        <ele>216.19999694824219</ele>
        <time>2014-05-18T07:13:20Z</time>
      </trkpt>
      <trkpt lat="45.710988817736506" lon="5.913931159302592">
        <ele>215</ele>
        <time>2014-05-18T07:13:21Z</time>
      </trkpt>
      <trkpt lat="45.7108164858073" lon="5.913742063567042">
        <ele>214.19999694824219</ele>
        <time>2014-05-18T07:13:23Z</time>
      </trkpt>
      <trkpt lat="45.710728978738189" lon="5.913651203736663">
        <ele>214</ele>
        <time>2014-05-18T07:13:24Z</time>
      </trkpt>
      <trkpt lat="45.710470397025347" lon="5.913377702236176">
        <ele>212.60000610351562</ele>
        <time>2014-05-18T07:13:27Z</time>
      </trkpt>
      <trkpt lat="45.710209719836712" lon="5.913107972592115">
        <ele>211.39999389648437</ele>
        <time>2014-05-18T07:13:30Z</time>
      </trkpt>
      <trkpt lat="45.709953233599663" lon="5.912846038118005">
        <ele>211.19999694824219</ele>
        <time>2014-05-18T07:13:33Z</time>
      </trkpt>
      <trkpt lat="45.709702363237739" lon="5.912587037310004">
        <ele>210.39999389648437</ele>
        <time>2014-05-18T07:13:36Z</time>
      </trkpt>
      <trkpt lat="45.709217470139265" lon="5.912115555256605">
        <ele>209.60000610351562</ele>
        <time>2014-05-18T07:13:42Z</time>
      </trkpt>
      <trkpt lat="45.708961151540279" lon="5.911920256912708">
        <ele>209.19999694824219</ele>
        <time>2014-05-18T07:13:45Z</time>
      </trkpt>
      <trkpt lat="45.708692176267505" lon="5.911779440939426">
        <ele>209.60000610351562</ele>
        <time>2014-05-18T07:13:48Z</time>
      </trkpt>
      <trkpt lat="45.708185406401753" lon="5.911575509235263">
        <ele>209</ele>
        <time>2014-05-18T07:13:54Z</time>
      </trkpt>
      <trkpt lat="45.707692550495267" lon="5.911387838423252">
        <ele>208.80000305175781</ele>
        <time>2014-05-18T07:14:01Z</time>
      </trkpt>
      <trkpt lat="45.707265241071582" lon="5.911216931417584">
        <ele>208.19999694824219</ele>
        <time>2014-05-18T07:14:07Z</time>
      </trkpt>
      <trkpt lat="45.707194665446877" lon="5.911185247823596">
        <ele>208.19999694824219</ele>
        <time>2014-05-18T07:14:08Z</time>
      </trkpt>
      <trkpt lat="45.706683872267604" lon="5.910992464050651">
        <ele>207.80000305175781</ele>
        <time>2014-05-18T07:14:15Z</time>
      </trkpt>
      <trkpt lat="45.706336526200175" lon="5.910868998616934">
        <ele>207.19999694824219</ele>
        <time>2014-05-18T07:14:20Z</time>
      </trkpt>
      <trkpt lat="45.706143490970135" lon="5.91081652790308">
        <ele>207.80000305175781</ele>
        <time>2014-05-18T07:14:24Z</time>
      </trkpt>
      <trkpt lat="45.706002339720726" lon="5.910751232877374">
        <ele>208.19999694824219</ele>
        <time>2014-05-18T07:14:29Z</time>
      </trkpt>
      <trkpt lat="45.705845095217228" lon="5.910692140460014">
        <ele>208</ele>
        <time>2014-05-18T07:14:33Z</time>
      </trkpt>
      <trkpt lat="45.705566816031933" lon="5.910601280629635">
        <ele>206.80000305175781</ele>
        <time>2014-05-18T07:14:38Z</time>
      </trkpt>
      <trkpt lat="45.705504370853305" lon="5.910579236224294">
        <ele>206.80000305175781</ele>
        <time>2014-05-18T07:14:39Z</time>
      </trkpt>
      <trkpt lat="45.705184517428279" lon="5.910465912893415">
        <ele>205.80000305175781</ele>
        <time>2014-05-18T07:14:44Z</time>
      </trkpt>
      <trkpt lat="45.705047473311424" lon="5.910422243177891">
        <ele>205.60000610351562</ele>
        <time>2014-05-18T07:14:46Z</time>
      </trkpt>
      <trkpt lat="45.704760644584894" lon="5.910316044464707">
        <ele>204.60000610351562</ele>
        <time>2014-05-18T07:14:50Z</time>
      </trkpt>
      <trkpt lat="45.704495022073388" lon="5.910199200734496">
        <ele>204.19999694824219</ele>
        <time>2014-05-18T07:14:54Z</time>
      </trkpt>
      <trkpt lat="45.704395612701774" lon="5.910152178257704">
        <ele>205.39999389648437</ele>
        <time>2014-05-18T07:14:57Z</time>
      </trkpt>
      <trkpt lat="45.704194782301784" lon="5.910085123032332">
        <ele>205</ele>
        <time>2014-05-18T07:15:03Z</time>
      </trkpt>
      <trkpt lat="45.703921029344201" lon="5.909990994259715">
        <ele>204</ele>
        <time>2014-05-18T07:15:08Z</time>
      </trkpt>
      <trkpt lat="45.703394981101155" lon="5.909819416701794">
        <ele>203.39999389648437</ele>
        <time>2014-05-18T07:15:16Z</time>
      </trkpt>
      <trkpt lat="45.703031709417701" lon="5.909680277109146">
        <ele>202.39999389648437</ele>
        <time>2014-05-18T07:15:21Z</time>
      </trkpt>
      <trkpt lat="45.702886031940579" lon="5.909621603786945">
        <ele>202</ele>
        <time>2014-05-18T07:15:23Z</time>
      </trkpt>
      <trkpt lat="45.702378675341606" lon="5.909429406747222">
        <ele>201.39999389648437</ele>
        <time>2014-05-18T07:15:30Z</time>
      </trkpt>
      <trkpt lat="45.702305249869823" lon="5.909404009580612">
        <ele>201.19999694824219</ele>
        <time>2014-05-18T07:15:31Z</time>
      </trkpt>
      <trkpt lat="45.701972069218755" lon="5.90928859077394">
        <ele>200.39999389648437</ele>
        <time>2014-05-18T07:15:36Z</time>
      </trkpt>
      <trkpt lat="45.701911048963666" lon="5.909252464771271">
        <ele>200.39999389648437</ele>
        <time>2014-05-18T07:15:37Z</time>
      </trkpt>
      <trkpt lat="45.701733520254493" lon="5.909113828092814">
        <ele>200.39999389648437</ele>
        <time>2014-05-18T07:15:40Z</time>
      </trkpt>
      <trkpt lat="45.701601589098573" lon="5.909110391512513">
        <ele>200.19999694824219</ele>
        <time>2014-05-18T07:15:42Z</time>
      </trkpt>
      <trkpt lat="45.701542664319277" lon="5.909125981852412">
        <ele>200</ele>
        <time>2014-05-18T07:15:43Z</time>
      </trkpt>
      <trkpt lat="45.701477201655507" lon="5.909135537222028">
        <ele>199.80000305175781</ele>
        <time>2014-05-18T07:15:44Z</time>
      </trkpt>
      <trkpt lat="45.701338984072208" lon="5.909092873334885">
        <ele>199.39999389648437</ele>
        <time>2014-05-18T07:15:46Z</time>
      </trkpt>
      <trkpt lat="45.701046623289585" lon="5.908971671015024">
        <ele>199</ele>
        <time>2014-05-18T07:15:50Z</time>
      </trkpt>
      <trkpt lat="45.700817964971066" lon="5.908889444544911">
        <ele>199</ele>
        <time>2014-05-18T07:15:53Z</time>
      </trkpt>
      <trkpt lat="45.700268195942044" lon="5.9086949005723">
        <ele>198.39999389648437</ele>
        <time>2014-05-18T07:16:00Z</time>
      </trkpt>
      <trkpt lat="45.700024282559752" lon="5.908606303855777">
        <ele>198</ele>
        <time>2014-05-18T07:16:03Z</time>
      </trkpt>
      <trkpt lat="45.699540143832564" lon="5.908428523689508">
        <ele>197.39999389648437</ele>
        <time>2014-05-18T07:16:09Z</time>
      </trkpt>
      <trkpt lat="45.699208891019225" lon="5.908312350511551">
        <ele>196.60000610351562</ele>
        <time>2014-05-18T07:16:13Z</time>
      </trkpt>
      <trkpt lat="45.69887881167233" lon="5.90819550678134">
        <ele>196.39999389648437</ele>
        <time>2014-05-18T07:16:17Z</time>
      </trkpt>
      <trkpt lat="45.698407664895058" lon="5.907994341105223">
        <ele>196</ele>
        <time>2014-05-18T07:16:23Z</time>
      </trkpt>
      <trkpt lat="45.697967782616615" lon="5.907820668071508">
        <ele>196.19999694824219</ele>
        <time>2014-05-18T07:16:29Z</time>
      </trkpt>
      <trkpt lat="45.697396723553538" lon="5.907628638669848">
        <ele>196.19999694824219</ele>
        <time>2014-05-18T07:16:37Z</time>
      </trkpt>
      <trkpt lat="45.696995733305812" lon="5.907467370852828">
        <ele>196.60000610351562</ele>
        <time>2014-05-18T07:16:43Z</time>
      </trkpt>
      <trkpt lat="45.696831531822681" lon="5.90730375610292">
        <ele>196.39999389648437</ele>
        <time>2014-05-18T07:16:46Z</time>
      </trkpt>
      <trkpt lat="45.696765733882785" lon="5.907282968983054">
        <ele>196.60000610351562</ele>
        <time>2014-05-18T07:16:47Z</time>
      </trkpt>
      <trkpt lat="45.696557527408004" lon="5.907340720295906">
        <ele>196.19999694824219</ele>
        <time>2014-05-18T07:16:50Z</time>
      </trkpt>
      <trkpt lat="45.696331886574626" lon="5.907326051965356">
        <ele>196.19999694824219</ele>
        <time>2014-05-18T07:16:53Z</time>
      </trkpt>
      <trkpt lat="45.696258209645748" lon="5.907308617606759">
        <ele>196</ele>
        <time>2014-05-18T07:16:54Z</time>
      </trkpt>
      <trkpt lat="45.696110855787992" lon="5.907282466068864">
        <ele>195.60000610351562</ele>
        <time>2014-05-18T07:16:56Z</time>
      </trkpt>
      <trkpt lat="45.695959310978651" lon="5.90725195594132">
        <ele>194.60000610351562</ele>
        <time>2014-05-18T07:16:58Z</time>
      </trkpt>
      <trkpt lat="45.695806760340929" lon="5.907206358388066">
        <ele>194.60000610351562</ele>
        <time>2014-05-18T07:17:00Z</time>
      </trkpt>
      <trkpt lat="45.695655131712556" lon="5.907150451093912">
        <ele>194.39999389648437</ele>
        <time>2014-05-18T07:17:02Z</time>
      </trkpt>
      <trkpt lat="45.695580029860139" lon="5.907103512436152">
        <ele>194.19999694824219</ele>
        <time>2014-05-18T07:17:03Z</time>
      </trkpt>
      <trkpt lat="45.6954559776932" lon="5.906956493854523">
        <ele>193.80000305175781</ele>
        <time>2014-05-18T07:17:05Z</time>
      </trkpt>
      <trkpt lat="45.695367632433772" lon="5.906765386462212">
        <ele>193.19999694824219</ele>
        <time>2014-05-18T07:17:07Z</time>
      </trkpt>
      <trkpt lat="45.69528590887785" lon="5.906569417566061">
        <ele>192.80000305175781</ele>
        <time>2014-05-18T07:17:09Z</time>
      </trkpt>
      <trkpt lat="45.695217931643128" lon="5.906363390386105">
        <ele>192.60000610351562</ele>
        <time>2014-05-18T07:17:11Z</time>
      </trkpt>
      <trkpt lat="45.695176189765334" lon="5.906135989353061">
        <ele>192.39999389648437</ele>
        <time>2014-05-18T07:17:13Z</time>
      </trkpt>
      <trkpt lat="45.695159928873181" lon="5.906018223613501">
        <ele>192</ele>
        <time>2014-05-18T07:17:14Z</time>
      </trkpt>
      <trkpt lat="45.695081390440464" lon="5.905400393530726">
        <ele>190.80000305175781</ele>
        <time>2014-05-18T07:17:19Z</time>
      </trkpt>
      <trkpt lat="45.69500788114965" lon="5.904783066362143">
        <ele>191</ele>
        <time>2014-05-18T07:17:24Z</time>
      </trkpt>
      <trkpt lat="45.694910148158669" lon="5.903965160250664">
        <ele>190.80000305175781</ele>
        <time>2014-05-18T07:17:31Z</time>
      </trkpt>
      <trkpt lat="45.69480705074966" lon="5.903194192796946">
        <ele>191.19999694824219</ele>
        <time>2014-05-18T07:17:38Z</time>
      </trkpt>
      <trkpt lat="45.694795986637473" lon="5.903096292167902">
        <ele>191.39999389648437</ele>
        <time>2014-05-18T07:17:39Z</time>
      </trkpt>
      <trkpt lat="45.694705378264189" lon="5.902333958074451">
        <ele>191.39999389648437</ele>
        <time>2014-05-18T07:17:46Z</time>
      </trkpt>
      <trkpt lat="45.694600269198418" lon="5.901562068611383">
        <ele>191.39999389648437</ele>
        <time>2014-05-18T07:17:53Z</time>
      </trkpt>
      <trkpt lat="45.694585265591741" lon="5.901449834927917">
        <ele>191.60000610351562</ele>
        <time>2014-05-18T07:17:54Z</time>
      </trkpt>
      <trkpt lat="45.69451536051929" lon="5.900902412831783">
        <ele>191.80000305175781</ele>
        <time>2014-05-18T07:17:59Z</time>
      </trkpt>
      <trkpt lat="45.69448996335268" lon="5.900706611573696">
        <ele>192</ele>
        <time>2014-05-18T07:18:01Z</time>
      </trkpt>
      <trkpt lat="45.694460039958358" lon="5.900458674877882">
        <ele>192.19999694824219</ele>
        <time>2014-05-18T07:18:04Z</time>
      </trkpt>
      <trkpt lat="45.694471942260861" lon="5.900378627702594">
        <ele>192.39999389648437</ele>
        <time>2014-05-18T07:18:05Z</time>
      </trkpt>
      <trkpt lat="45.694530615583062" lon="5.900127002969384">
        <ele>192</ele>
        <time>2014-05-18T07:18:08Z</time>
      </trkpt>
      <trkpt lat="45.694447970017791" lon="5.899885939434171">
        <ele>192.39999389648437</ele>
        <time>2014-05-18T07:18:11Z</time>
      </trkpt>
      <trkpt lat="45.694402875378728" lon="5.89982139877975">
        <ele>192.19999694824219</ele>
        <time>2014-05-18T07:18:12Z</time>
      </trkpt>
      <trkpt lat="45.694373538717628" lon="5.899755014106631">
        <ele>191.80000305175781</ele>
        <time>2014-05-18T07:18:13Z</time>
      </trkpt>
      <trkpt lat="45.694368928670883" lon="5.899636829271913">
        <ele>192</ele>
        <time>2014-05-18T07:18:15Z</time>
      </trkpt>
      <trkpt lat="45.694355517625809" lon="5.899505149573088">
        <ele>192.19999694824219</ele>
        <time>2014-05-18T07:18:17Z</time>
      </trkpt>
      <trkpt lat="45.694338921457529" lon="5.899367183446884">
        <ele>192.19999694824219</ele>
        <time>2014-05-18T07:18:19Z</time>
      </trkpt>
      <trkpt lat="45.694263065233827" lon="5.898813894018531">
        <ele>192.39999389648437</ele>
        <time>2014-05-18T07:18:26Z</time>
      </trkpt>
      <trkpt lat="45.69424512796104" lon="5.898729739710689">
        <ele>192.39999389648437</ele>
        <time>2014-05-18T07:18:27Z</time>
      </trkpt>
      <trkpt lat="45.694222329184413" lon="5.89845615439117">
        <ele>192.60000610351562</ele>
        <time>2014-05-18T07:18:30Z</time>
      </trkpt>
      <trkpt lat="45.694133900105953" lon="5.897903619334102">
        <ele>192.19999694824219</ele>
        <time>2014-05-18T07:18:36Z</time>
      </trkpt>
      <trkpt lat="45.693980846554041" lon="5.897382013499737">
        <ele>192</ele>
        <time>2014-05-18T07:18:42Z</time>
      </trkpt>
      <trkpt lat="45.693937093019485" lon="5.897314539179206">
        <ele>192</ele>
        <time>2014-05-18T07:18:43Z</time>
      </trkpt>
      <trkpt lat="45.69384983740747" lon="5.897188391536474">
        <ele>192</ele>
        <time>2014-05-18T07:18:45Z</time>
      </trkpt>
      <trkpt lat="45.69374774582684" lon="5.896964259445667">
        <ele>191.60000610351562</ele>
        <time>2014-05-18T07:18:48Z</time>
      </trkpt>
      <trkpt lat="45.693593518808484" lon="5.896496968343854">
        <ele>191.19999694824219</ele>
        <time>2014-05-18T07:18:54Z</time>
      </trkpt>
      <trkpt lat="45.693548256531358" lon="5.89640392921865">
        <ele>192</ele>
        <time>2014-05-18T07:18:57Z</time>
      </trkpt>
      <trkpt lat="45.693506430834532" lon="5.896307788789272">
        <ele>192</ele>
        <time>2014-05-18T07:19:01Z</time>
      </trkpt>
      <trkpt lat="45.693549681454897" lon="5.896057924255729">
        <ele>191.39999389648437</ele>
        <time>2014-05-18T07:19:05Z</time>
      </trkpt>
      <trkpt lat="45.693482542410493" lon="5.895860530436039">
        <ele>191.60000610351562</ele>
        <time>2014-05-18T07:19:08Z</time>
      </trkpt>
      <trkpt lat="45.693313395604491" lon="5.89581317268312">
        <ele>191.60000610351562</ele>
        <time>2014-05-18T07:19:11Z</time>
      </trkpt>
      <trkpt lat="45.693156570196152" lon="5.895937224850059">
        <ele>191.60000610351562</ele>
        <time>2014-05-18T07:19:14Z</time>
      </trkpt>
      <trkpt lat="45.693097226321697" lon="5.895963795483112">
        <ele>191.39999389648437</ele>
        <time>2014-05-18T07:19:15Z</time>
      </trkpt>
      <trkpt lat="45.692966049537063" lon="5.895977457985282">
        <ele>191.19999694824219</ele>
        <time>2014-05-18T07:19:17Z</time>
      </trkpt>
      <trkpt lat="45.692563466727734" lon="5.895949797704816">
        <ele>190.80000305175781</ele>
        <time>2014-05-18T07:19:23Z</time>
      </trkpt>
      <trkpt lat="45.692427009344101" lon="5.895938649773598">
        <ele>190.80000305175781</ele>
        <time>2014-05-18T07:19:25Z</time>
      </trkpt>
      <trkpt lat="45.691871289163828" lon="5.895829014480114">
        <ele>191</ele>
        <time>2014-05-18T07:19:33Z</time>
      </trkpt>
      <trkpt lat="45.69164757616818" lon="5.895800767466426">
        <ele>189.80000305175781</ele>
        <time>2014-05-18T07:19:36Z</time>
      </trkpt>
      <trkpt lat="45.691273156553507" lon="5.895740166306496">
        <ele>189.80000305175781</ele>
        <time>2014-05-18T07:19:41Z</time>
      </trkpt>
      <trkpt lat="45.690677454695106" lon="5.895649390295148">
        <ele>189</ele>
        <time>2014-05-18T07:19:49Z</time>
      </trkpt>
      <trkpt lat="45.690114106982946" lon="5.895613012835383">
        <ele>189.80000305175781</ele>
        <time>2014-05-18T07:19:57Z</time>
      </trkpt>
      <trkpt lat="45.68955478258431" lon="5.895602367818356">
        <ele>189.80000305175781</ele>
        <time>2014-05-18T07:20:05Z</time>
      </trkpt>
      <trkpt lat="45.688982047140598" lon="5.895582586526871">
        <ele>189.19999694824219</ele>
        <time>2014-05-18T07:20:13Z</time>
      </trkpt>
      <trkpt lat="45.688911639153957" lon="5.895577557384968">
        <ele>189.19999694824219</ele>
        <time>2014-05-18T07:20:14Z</time>
      </trkpt>
      <trkpt lat="45.688344687223434" lon="5.895500024780631">
        <ele>189</ele>
        <time>2014-05-18T07:20:22Z</time>
      </trkpt>
      <trkpt lat="45.688275201246142" lon="5.895488457754254">
        <ele>189</ele>
        <time>2014-05-18T07:20:23Z</time>
      </trkpt>
      <trkpt lat="45.687710428610444" lon="5.895398603752255">
        <ele>189</ele>
        <time>2014-05-18T07:20:31Z</time>
      </trkpt>
      <trkpt lat="45.687163509428501" lon="5.89531528763473">
        <ele>188.80000305175781</ele>
        <time>2014-05-18T07:20:39Z</time>
      </trkpt>
      <trkpt lat="45.68661080673337" lon="5.895214872434735">
        <ele>188.80000305175781</ele>
        <time>2014-05-18T07:20:47Z</time>
      </trkpt>
      <trkpt lat="45.686540901660919" lon="5.895200790837407">
        <ele>188.80000305175781</ele>
        <time>2014-05-18T07:20:48Z</time>
      </trkpt>
      <trkpt lat="45.686332108452916" lon="5.895164664834738">
        <ele>188.80000305175781</ele>
        <time>2014-05-18T07:20:51Z</time>
      </trkpt>
      <trkpt lat="45.685768676921725" lon="5.895059052854776">
        <ele>188.80000305175781</ele>
        <time>2014-05-18T07:20:59Z</time>
      </trkpt>
      <trkpt lat="45.685697849839926" lon="5.895048575475812">
        <ele>188.60000610351562</ele>
        <time>2014-05-18T07:21:00Z</time>
      </trkpt>
      <trkpt lat="45.685139950364828" lon="5.89495662599802">
        <ele>188.60000610351562</ele>
        <time>2014-05-18T07:21:08Z</time>
      </trkpt>
      <trkpt lat="45.684577357023954" lon="5.894897282123566">
        <ele>188.39999389648437</ele>
        <time>2014-05-18T07:21:16Z</time>
      </trkpt>
      <trkpt lat="45.684507619589567" lon="5.894893510267139">
        <ele>188.39999389648437</ele>
        <time>2014-05-18T07:21:17Z</time>
      </trkpt>
      <trkpt lat="45.68407922051847" lon="5.894807763397694">
        <ele>188.60000610351562</ele>
        <time>2014-05-18T07:21:24Z</time>
      </trkpt>
      <trkpt lat="45.683855758979917" lon="5.894759735092521">
        <ele>189.19999694824219</ele>
        <time>2014-05-18T07:21:29Z</time>
      </trkpt>
      <trkpt lat="45.683807311579585" lon="5.894717993214726">
        <ele>189.39999389648437</ele>
        <time>2014-05-18T07:21:31Z</time>
      </trkpt>
      <trkpt lat="45.683801276609302" lon="5.894638700410724">
        <ele>189.60000610351562</ele>
        <time>2014-05-18T07:21:33Z</time>
      </trkpt>
      <trkpt lat="45.683696670457721" lon="5.89448950253427">
        <ele>189</ele>
        <time>2014-05-18T07:21:37Z</time>
      </trkpt>
      <trkpt lat="45.683545125648379" lon="5.894479025155306">
        <ele>188.19999694824219</ele>
        <time>2014-05-18T07:21:40Z</time>
      </trkpt>
      <trkpt lat="45.683431467041373" lon="5.89452319778502">
        <ele>187.60000610351562</ele>
        <time>2014-05-18T07:21:42Z</time>
      </trkpt>
      <trkpt lat="45.683369943872094" lon="5.894528897479177">
        <ele>187.19999694824219</ele>
        <time>2014-05-18T07:21:43Z</time>
      </trkpt>
      <trkpt lat="45.683305570855737" lon="5.8945207670331">
        <ele>186.60000610351562</ele>
        <time>2014-05-18T07:21:44Z</time>
      </trkpt>
      <trkpt lat="45.68318210542202" lon="5.89447676204145">
        <ele>185.39999389648437</ele>
        <time>2014-05-18T07:21:46Z</time>
      </trkpt>
      <trkpt lat="45.682997452095151" lon="5.894440552219749">
        <ele>185.39999389648437</ele>
        <time>2014-05-18T07:21:49Z</time>
      </trkpt>
      <trkpt lat="45.682525634765625" lon="5.894357236102223">
        <ele>185.60000610351562</ele>
        <time>2014-05-18T07:21:57Z</time>
      </trkpt>
      <trkpt lat="45.682186000049114" lon="5.89427450671792">
        <ele>185.80000305175781</ele>
        <time>2014-05-18T07:22:03Z</time>
      </trkpt>
      <trkpt lat="45.682131769135594" lon="5.894248774275184">
        <ele>185.80000305175781</ele>
        <time>2014-05-18T07:22:04Z</time>
      </trkpt>
      <trkpt lat="45.681719463318586" lon="5.8941616024822">
        <ele>185.80000305175781</ele>
        <time>2014-05-18T07:22:11Z</time>
      </trkpt>
      <trkpt lat="45.681235995143652" lon="5.894125979393721">
        <ele>186.19999694824219</ele>
        <time>2014-05-18T07:22:19Z</time>
      </trkpt>
      <trkpt lat="45.680686812847853" lon="5.893999245017767">
        <ele>186.19999694824219</ele>
        <time>2014-05-18T07:22:28Z</time>
      </trkpt>
      <trkpt lat="45.680626044049859" lon="5.893986504524946">
        <ele>186.19999694824219</ele>
        <time>2014-05-18T07:22:29Z</time>
      </trkpt>
      <trkpt lat="45.680205691605806" lon="5.893881563097239">
        <ele>186.39999389648437</ele>
        <time>2014-05-18T07:22:36Z</time>
      </trkpt>
      <trkpt lat="45.680154226720333" lon="5.893854824826121">
        <ele>186.60000610351562</ele>
        <time>2014-05-18T07:22:37Z</time>
      </trkpt>
      <trkpt lat="45.680003268644214" lon="5.893783830106258">
        <ele>187.19999694824219</ele>
        <time>2014-05-18T07:22:40Z</time>
      </trkpt>
      <trkpt lat="45.679901596158743" lon="5.893798666074872">
        <ele>187.80000305175781</ele>
        <time>2014-05-18T07:22:42Z</time>
      </trkpt>
      <trkpt lat="45.679850885644555" lon="5.893817860633135">
        <ele>187.80000305175781</ele>
        <time>2014-05-18T07:22:43Z</time>
      </trkpt>
      <trkpt lat="45.679666567593813" lon="5.8939094748348">
        <ele>188.80000305175781</ele>
        <time>2014-05-18T07:22:47Z</time>
      </trkpt>
      <trkpt lat="45.679539581760764" lon="5.893943337723613">
        <ele>189.39999389648437</ele>
        <time>2014-05-18T07:22:50Z</time>
      </trkpt>
      <trkpt lat="45.679454002529383" lon="5.893939398229122">
        <ele>189.60000610351562</ele>
        <time>2014-05-18T07:22:52Z</time>
      </trkpt>
      <trkpt lat="45.679408991709352" lon="5.893940320238471">
        <ele>189.80000305175781</ele>
        <time>2014-05-18T07:22:53Z</time>
      </trkpt>
      <trkpt lat="45.679064998403192" lon="5.893943840637803">
        <ele>189.39999389648437</ele>
        <time>2014-05-18T07:23:00Z</time>
      </trkpt>
      <trkpt lat="45.678759980946779" lon="5.8939319383353">
        <ele>189.19999694824219</ele>
        <time>2014-05-18T07:23:06Z</time>
      </trkpt>
      <trkpt lat="45.678706588223577" lon="5.893929842859507">
        <ele>189.19999694824219</ele>
        <time>2014-05-18T07:23:07Z</time>
      </trkpt>
      <trkpt lat="45.678287073969841" lon="5.893932357430458">
        <ele>189.60000610351562</ele>
        <time>2014-05-18T07:23:15Z</time>
      </trkpt>
      <trkpt lat="45.678107030689716" lon="5.893953898921609">
        <ele>189.39999389648437</ele>
        <time>2014-05-18T07:23:19Z</time>
      </trkpt>
      <trkpt lat="45.678008543327451" lon="5.893966723233461">
        <ele>189.19999694824219</ele>
        <time>2014-05-18T07:23:21Z</time>
      </trkpt>
      <trkpt lat="45.677780555561185" lon="5.89391777291894">
        <ele>188.80000305175781</ele>
        <time>2014-05-18T07:23:25Z</time>
      </trkpt>
      <trkpt lat="45.677718529477715" lon="5.893899081274867">
        <ele>188.60000610351562</ele>
        <time>2014-05-18T07:23:26Z</time>
      </trkpt>
      <trkpt lat="45.677587185055017" lon="5.89386697858572">
        <ele>187.60000610351562</ele>
        <time>2014-05-18T07:23:28Z</time>
      </trkpt>
      <trkpt lat="45.677515100687742" lon="5.893856417387724">
        <ele>187.19999694824219</ele>
        <time>2014-05-18T07:23:30Z</time>
      </trkpt>
      <trkpt lat="45.677363807335496" lon="5.893838061019778">
        <ele>186.39999389648437</ele>
        <time>2014-05-18T07:23:32Z</time>
      </trkpt>
      <trkpt lat="45.677285101264715" lon="5.893832193687558">
        <ele>186</ele>
        <time>2014-05-18T07:23:33Z</time>
      </trkpt>
      <trkpt lat="45.676822839304805" lon="5.893806712701917">
        <ele>184.80000305175781</ele>
        <time>2014-05-18T07:23:39Z</time>
      </trkpt>
      <trkpt lat="45.676675820723176" lon="5.893802437931299">
        <ele>184.80000305175781</ele>
        <time>2014-05-18T07:23:41Z</time>
      </trkpt>
      <trkpt lat="45.676112892106175" lon="5.893757259473205">
        <ele>185</ele>
        <time>2014-05-18T07:23:49Z</time>
      </trkpt>
      <trkpt lat="45.676044747233391" lon="5.893751559779048">
        <ele>185</ele>
        <time>2014-05-18T07:23:50Z</time>
      </trkpt>
      <trkpt lat="45.6754554156214" lon="5.893691964447498">
        <ele>185</ele>
        <time>2014-05-18T07:23:59Z</time>
      </trkpt>
      <trkpt lat="45.675000697374344" lon="5.893659107387066">
        <ele>185.60000610351562</ele>
        <time>2014-05-18T07:24:06Z</time>
      </trkpt>
      <trkpt lat="45.674551008269191" lon="5.893582832068205">
        <ele>185.60000610351562</ele>
        <time>2014-05-18T07:24:13Z</time>
      </trkpt>
      <trkpt lat="45.674049854278564" lon="5.893536480143666">
        <ele>185.80000305175781</ele>
        <time>2014-05-18T07:24:21Z</time>
      </trkpt>
      <trkpt lat="45.673989336937666" lon="5.893529606983066">
        <ele>185.80000305175781</ele>
        <time>2014-05-18T07:24:22Z</time>
      </trkpt>
      <trkpt lat="45.673604272305965" lon="5.893497839570046">
        <ele>187</ele>
        <time>2014-05-18T07:24:29Z</time>
      </trkpt>
      <trkpt lat="45.673558004200459" lon="5.893504042178392">
        <ele>187.19999694824219</ele>
        <time>2014-05-18T07:24:30Z</time>
      </trkpt>
      <trkpt lat="45.67346915602684" lon="5.893518207594752">
        <ele>187.80000305175781</ele>
        <time>2014-05-18T07:24:32Z</time>
      </trkpt>
      <trkpt lat="45.673425737768412" lon="5.893527343869209">
        <ele>188.19999694824219</ele>
        <time>2014-05-18T07:24:33Z</time>
      </trkpt>
      <trkpt lat="45.673383492976427" lon="5.893530361354351">
        <ele>188.60000610351562</ele>
        <time>2014-05-18T07:24:34Z</time>
      </trkpt>
      <trkpt lat="45.673343259841204" lon="5.893533127382398">
        <ele>189</ele>
        <time>2014-05-18T07:24:35Z</time>
      </trkpt>
      <trkpt lat="45.673307301476598" lon="5.893531870096922">
        <ele>189.19999694824219</ele>
        <time>2014-05-18T07:24:36Z</time>
      </trkpt>
      <trkpt lat="45.673172436654568" lon="5.893540419638157">
        <ele>189.60000610351562</ele>
        <time>2014-05-18T07:24:40Z</time>
      </trkpt>
      <trkpt lat="45.67304746247828" lon="5.893512759357691">
        <ele>189.60000610351562</ele>
        <time>2014-05-18T07:24:43Z</time>
      </trkpt>
      <trkpt lat="45.673000775277615" lon="5.893505634739995">
        <ele>189.60000610351562</ele>
        <time>2014-05-18T07:24:44Z</time>
      </trkpt>
      <trkpt lat="45.67289499565959" lon="5.893513346090913">
        <ele>189.60000610351562</ele>
        <time>2014-05-18T07:24:46Z</time>
      </trkpt>
      <trkpt lat="45.672776810824871" lon="5.893506305292249">
        <ele>189.19999694824219</ele>
        <time>2014-05-18T07:24:48Z</time>
      </trkpt>
      <trkpt lat="45.67265996709466" lon="5.893475962802768">
        <ele>189</ele>
        <time>2014-05-18T07:24:50Z</time>
      </trkpt>
      <trkpt lat="45.672417813912034" lon="5.893446123227477">
        <ele>188.80000305175781</ele>
        <time>2014-05-18T07:24:54Z</time>
      </trkpt>
      <trkpt lat="45.671865781769156" lon="5.89339449070394">
        <ele>188.60000610351562</ele>
        <time>2014-05-18T07:25:03Z</time>
      </trkpt>
      <trkpt lat="45.671805599704385" lon="5.893388958647847">
        <ele>188.60000610351562</ele>
        <time>2014-05-18T07:25:04Z</time>
      </trkpt>
      <trkpt lat="45.671207215636969" lon="5.893344869837165">
        <ele>188.60000610351562</ele>
        <time>2014-05-18T07:25:14Z</time>
      </trkpt>
      <trkpt lat="45.670851655304432" lon="5.893314443528652">
        <ele>188.60000610351562</ele>
        <time>2014-05-18T07:25:20Z</time>
      </trkpt>
      <trkpt lat="45.670736823230982" lon="5.893299523741007">
        <ele>188.60000610351562</ele>
        <time>2014-05-18T07:25:22Z</time>
      </trkpt>
      <trkpt lat="45.670556193217635" lon="5.89329675771296">
        <ele>188.19999694824219</ele>
        <time>2014-05-18T07:25:25Z</time>
      </trkpt>
      <trkpt lat="45.67031211219728" lon="5.893339589238167">
        <ele>188</ele>
        <time>2014-05-18T07:25:29Z</time>
      </trkpt>
      <trkpt lat="45.669910199940205" lon="5.893475208431482">
        <ele>188.19999694824219</ele>
        <time>2014-05-18T07:25:36Z</time>
      </trkpt>
      <trkpt lat="45.669801235198975" lon="5.893510244786739">
        <ele>188.60000610351562</ele>
        <time>2014-05-18T07:25:38Z</time>
      </trkpt>
      <trkpt lat="45.669625801965594" lon="5.893519800156355">
        <ele>188.60000610351562</ele>
        <time>2014-05-18T07:25:41Z</time>
      </trkpt>
      <trkpt lat="45.669337967410684" lon="5.893619377166033">
        <ele>188.19999694824219</ele>
        <time>2014-05-18T07:25:46Z</time>
      </trkpt>
      <trkpt lat="45.668975617736578" lon="5.893706884235144">
        <ele>188.39999389648437</ele>
        <time>2014-05-18T07:25:52Z</time>
      </trkpt>
      <trkpt lat="45.668731285259128" lon="5.893792044371367">
        <ele>187.39999389648437</ele>
        <time>2014-05-18T07:25:56Z</time>
      </trkpt>
      <trkpt lat="45.668627936393023" lon="5.89386890642345">
        <ele>188</ele>
        <time>2014-05-18T07:25:58Z</time>
      </trkpt>
      <trkpt lat="45.668343706056476" lon="5.894168056547642">
        <ele>188.39999389648437</ele>
        <time>2014-05-18T07:26:04Z</time>
      </trkpt>
      <trkpt lat="45.66829651594162" lon="5.894214492291212">
        <ele>188.39999389648437</ele>
        <time>2014-05-18T07:26:05Z</time>
      </trkpt>
      <trkpt lat="45.668129799887538" lon="5.894292443990707">
        <ele>189</ele>
        <time>2014-05-18T07:26:08Z</time>
      </trkpt>
      <trkpt lat="45.668076993897557" lon="5.894313985481858">
        <ele>189</ele>
        <time>2014-05-18T07:26:09Z</time>
      </trkpt>
      <trkpt lat="45.667983200401068" lon="5.894356817007065">
        <ele>189.39999389648437</ele>
        <time>2014-05-18T07:26:11Z</time>
      </trkpt>
      <trkpt lat="45.667847581207752" lon="5.894425380975008">
        <ele>189.60000610351562</ele>
        <time>2014-05-18T07:26:14Z</time>
      </trkpt>
      <trkpt lat="45.667607272043824" lon="5.894545326009393">
        <ele>189.60000610351562</ele>
        <time>2014-05-18T07:26:20Z</time>
      </trkpt>
      <trkpt lat="45.667572319507599" lon="5.894573824480176">
        <ele>189.60000610351562</ele>
        <time>2014-05-18T07:26:21Z</time>
      </trkpt>
      <trkpt lat="45.667424127459526" lon="5.894700894132257">
        <ele>189.60000610351562</ele>
        <time>2014-05-18T07:26:25Z</time>
      </trkpt>
      <trkpt lat="45.667382385581732" lon="5.894735595211387">
        <ele>189.60000610351562</ele>
        <time>2014-05-18T07:26:26Z</time>
      </trkpt>
      <trkpt lat="45.667025400325656" lon="5.894981771707535">
        <ele>189.60000610351562</ele>
        <time>2014-05-18T07:26:34Z</time>
      </trkpt>
      <trkpt lat="45.666681490838528" lon="5.895172879099846">
        <ele>189.19999694824219</ele>
        <time>2014-05-18T07:26:41Z</time>
      </trkpt>
      <trkpt lat="45.666280332952738" lon="5.895416121929884">
        <ele>189</ele>
        <time>2014-05-18T07:26:49Z</time>
      </trkpt>
      <trkpt lat="45.666024852544069" lon="5.895554926246405">
        <ele>188.80000305175781</ele>
        <time>2014-05-18T07:26:54Z</time>
      </trkpt>
      <trkpt lat="45.665869954973459" lon="5.895622484385967">
        <ele>189</ele>
        <time>2014-05-18T07:26:57Z</time>
      </trkpt>
      <trkpt lat="45.665560578927398" lon="5.895744441077113">
        <ele>188.80000305175781</ele>
        <time>2014-05-18T07:27:03Z</time>
      </trkpt>
      <trkpt lat="45.665223626419902" lon="5.895858267322183">
        <ele>188.80000305175781</ele>
        <time>2014-05-18T07:27:09Z</time>
      </trkpt>
      <trkpt lat="45.664765806868672" lon="5.895945439115167">
        <ele>188.80000305175781</ele>
        <time>2014-05-18T07:27:17Z</time>
      </trkpt>
      <trkpt lat="45.664349729195237" lon="5.895992210134864">
        <ele>188.80000305175781</ele>
        <time>2014-05-18T07:27:24Z</time>
      </trkpt>
      <trkpt lat="45.663997521623969" lon="5.895967902615666">
        <ele>189</ele>
        <time>2014-05-18T07:27:30Z</time>
      </trkpt>
      <trkpt lat="45.66375520080328" lon="5.895938565954566">
        <ele>188.39999389648437</ele>
        <time>2014-05-18T07:27:34Z</time>
      </trkpt>
      <trkpt lat="45.663692923262715" lon="5.89593630284071">
        <ele>188.39999389648437</ele>
        <time>2014-05-18T07:27:35Z</time>
      </trkpt>
      <trkpt lat="45.663630897179246" lon="5.895931776612997">
        <ele>188.19999694824219</ele>
        <time>2014-05-18T07:27:36Z</time>
      </trkpt>
      <trkpt lat="45.663247425109148" lon="5.895880395546556">
        <ele>187</ele>
        <time>2014-05-18T07:27:42Z</time>
      </trkpt>
      <trkpt lat="45.662868982180953" lon="5.895756594836712">
        <ele>186.39999389648437</ele>
        <time>2014-05-18T07:27:48Z</time>
      </trkpt>
      <trkpt lat="45.662419209256768" lon="5.895633213222027">
        <ele>186</ele>
        <time>2014-05-18T07:27:55Z</time>
      </trkpt>
      <trkpt lat="45.662046717479825" lon="5.895492313429713">
        <ele>186.19999694824219</ele>
        <time>2014-05-18T07:28:01Z</time>
      </trkpt>
      <trkpt lat="45.661669196560979" lon="5.895320065319538">
        <ele>186.19999694824219</ele>
        <time>2014-05-18T07:28:07Z</time>
      </trkpt>
      <trkpt lat="45.661598704755306" lon="5.89530254714191">
        <ele>186.39999389648437</ele>
        <time>2014-05-18T07:28:08Z</time>
      </trkpt>
      <trkpt lat="45.661177346482873" lon="5.895128790289164">
        <ele>185.19999694824219</ele>
        <time>2014-05-18T07:28:14Z</time>
      </trkpt>
      <trkpt lat="45.660717934370041" lon="5.894928630441427">
        <ele>185.80000305175781</ele>
        <time>2014-05-18T07:28:21Z</time>
      </trkpt>
      <trkpt lat="45.660273022949696" lon="5.894742636010051">
        <ele>186.19999694824219</ele>
        <time>2014-05-18T07:28:28Z</time>
      </trkpt>
      <trkpt lat="45.660151904448867" lon="5.894691087305546">
        <ele>186.19999694824219</ele>
        <time>2014-05-18T07:28:30Z</time>
      </trkpt>
      <trkpt lat="45.659914026036859" lon="5.894573740661144">
        <ele>186.39999389648437</ele>
        <time>2014-05-18T07:28:34Z</time>
      </trkpt>
      <trkpt lat="45.659657120704651" lon="5.894546415656805">
        <ele>186.19999694824219</ele>
        <time>2014-05-18T07:28:38Z</time>
      </trkpt>
      <trkpt lat="45.659592328593135" lon="5.894547505304217">
        <ele>186.39999389648437</ele>
        <time>2014-05-18T07:28:39Z</time>
      </trkpt>
      <trkpt lat="45.65919335000217" lon="5.894474750384688">
        <ele>185.80000305175781</ele>
        <time>2014-05-18T07:28:45Z</time>
      </trkpt>
      <trkpt lat="45.658730752766132" lon="5.894416160881519">
        <ele>185.80000305175781</ele>
        <time>2014-05-18T07:28:52Z</time>
      </trkpt>
      <trkpt lat="45.658395979553461" lon="5.894368886947632">
        <ele>186.19999694824219</ele>
        <time>2014-05-18T07:28:57Z</time>
      </trkpt>
      <trkpt lat="45.658202273771167" lon="5.894317841157317">
        <ele>186.19999694824219</ele>
        <time>2014-05-18T07:29:00Z</time>
      </trkpt>
      <trkpt lat="45.65789750777185" lon="5.894219353795052">
        <ele>187</ele>
        <time>2014-05-18T07:29:05Z</time>
      </trkpt>
      <trkpt lat="45.657670022919774" lon="5.894138049334288">
        <ele>187.60000610351562</ele>
        <time>2014-05-18T07:29:09Z</time>
      </trkpt>
      <trkpt lat="45.657617887482047" lon="5.894106952473521">
        <ele>187.80000305175781</ele>
        <time>2014-05-18T07:29:10Z</time>
      </trkpt>
      <trkpt lat="45.657526357099414" lon="5.894012153148651">
        <ele>188</ele>
        <time>2014-05-18T07:29:12Z</time>
      </trkpt>
      <trkpt lat="45.657488889992237" lon="5.893953228369355">
        <ele>188</ele>
        <time>2014-05-18T07:29:13Z</time>
      </trkpt>
      <trkpt lat="45.657336758449674" lon="5.893859351053834">
        <ele>188</ele>
        <time>2014-05-18T07:29:16Z</time>
      </trkpt>
      <trkpt lat="45.657195523381233" lon="5.893980637192726">
        <ele>188</ele>
        <time>2014-05-18T07:29:19Z</time>
      </trkpt>
      <trkpt lat="45.657108770683408" lon="5.894177360460162">
        <ele>188.60000610351562</ele>
        <time>2014-05-18T07:29:22Z</time>
      </trkpt>
      <trkpt lat="45.657077338546515" lon="5.894232848659158">
        <ele>189.19999694824219</ele>
        <time>2014-05-18T07:29:23Z</time>
      </trkpt>
      <trkpt lat="45.65691246651113" lon="5.894376849755645">
        <ele>189.39999389648437</ele>
        <time>2014-05-18T07:29:27Z</time>
      </trkpt>
      <trkpt lat="45.656807357445359" lon="5.894427224993706">
        <ele>189</ele>
        <time>2014-05-18T07:29:29Z</time>
      </trkpt>
      <trkpt lat="45.656748600304127" lon="5.894446754828095">
        <ele>189</ele>
        <time>2014-05-18T07:29:30Z</time>
      </trkpt>
      <trkpt lat="45.656622117385268" lon="5.894459243863821">
        <ele>188.39999389648437</ele>
        <time>2014-05-18T07:29:32Z</time>
      </trkpt>
      <trkpt lat="45.656555984169245" lon="5.894457148388028">
        <ele>188</ele>
        <time>2014-05-18T07:29:33Z</time>
      </trkpt>
      <trkpt lat="45.656415587291121" lon="5.894448179751635">
        <ele>187.60000610351562</ele>
        <time>2014-05-18T07:29:35Z</time>
      </trkpt>
      <trkpt lat="45.656267646700144" lon="5.894423369318247">
        <ele>187</ele>
        <time>2014-05-18T07:29:37Z</time>
      </trkpt>
      <trkpt lat="45.656194807961583" lon="5.8944137301296">
        <ele>186.39999389648437</ele>
        <time>2014-05-18T07:29:38Z</time>
      </trkpt>
      <trkpt lat="45.656053405255079" lon="5.894383639097214">
        <ele>186</ele>
        <time>2014-05-18T07:29:40Z</time>
      </trkpt>
      <trkpt lat="45.655853664502501" lon="5.894318595528603">
        <ele>186.19999694824219</ele>
        <time>2014-05-18T07:29:43Z</time>
      </trkpt>
      <trkpt lat="45.65579297952354" lon="5.894280876964331">
        <ele>186</ele>
        <time>2014-05-18T07:29:44Z</time>
      </trkpt>
      <trkpt lat="45.655623581260443" lon="5.894161853939295">
        <ele>186.39999389648437</ele>
        <time>2014-05-18T07:29:47Z</time>
      </trkpt>
      <trkpt lat="45.655573876574636" lon="5.894114160910249">
        <ele>186.39999389648437</ele>
        <time>2014-05-18T07:29:48Z</time>
      </trkpt>
      <trkpt lat="45.655295932665467" lon="5.893784081563354">
        <ele>186.60000610351562</ele>
        <time>2014-05-18T07:29:54Z</time>
      </trkpt>
      <trkpt lat="45.654948921874166" lon="5.89348241686821">
        <ele>186.60000610351562</ele>
        <time>2014-05-18T07:30:01Z</time>
      </trkpt>
      <trkpt lat="45.654740715399384" lon="5.893418714404106">
        <ele>187</ele>
        <time>2014-05-18T07:30:05Z</time>
      </trkpt>
      <trkpt lat="45.654693357646465" lon="5.893392562866211">
        <ele>187</ele>
        <time>2014-05-18T07:30:06Z</time>
      </trkpt>
      <trkpt lat="45.654459502547979" lon="5.893291309475899">
        <ele>187.60000610351562</ele>
        <time>2014-05-18T07:30:11Z</time>
      </trkpt>
      <trkpt lat="45.654374342411757" lon="5.893221907317638">
        <ele>187.60000610351562</ele>
        <time>2014-05-18T07:30:13Z</time>
      </trkpt>
      <trkpt lat="45.654333774000406" lon="5.893182763829827">
        <ele>187.60000610351562</ele>
        <time>2014-05-18T07:30:14Z</time>
      </trkpt>
      <trkpt lat="45.654219863936305" lon="5.893083605915308">
        <ele>188</ele>
        <time>2014-05-18T07:30:17Z</time>
      </trkpt>
      <trkpt lat="45.654017189517617" lon="5.892952932044864">
        <ele>188</ele>
        <time>2014-05-18T07:30:22Z</time>
      </trkpt>
      <trkpt lat="45.653834296390414" lon="5.892833238467574">
        <ele>188</ele>
        <time>2014-05-18T07:30:26Z</time>
      </trkpt>
      <trkpt lat="45.653722314164042" lon="5.892750425264239">
        <ele>188.39999389648437</ele>
        <time>2014-05-18T07:30:29Z</time>
      </trkpt>
      <trkpt lat="45.653622234240174" lon="5.892686303704977">
        <ele>189.19999694824219</ele>
        <time>2014-05-18T07:30:32Z</time>
      </trkpt>
      <trkpt lat="45.653559286147356" lon="5.892665684223175">
        <ele>189.60000610351562</ele>
        <time>2014-05-18T07:30:34Z</time>
      </trkpt>
      <trkpt lat="45.653533637523651" lon="5.892697283998132">
        <ele>189.60000610351562</ele>
        <time>2014-05-18T07:30:35Z</time>
      </trkpt>
      <trkpt lat="45.65350036136806" lon="5.892820497974753">
        <ele>190.19999694824219</ele>
        <time>2014-05-18T07:30:38Z</time>
      </trkpt>
      <trkpt lat="45.653489297255874" lon="5.892867436632514">
        <ele>190.39999389648437</ele>
        <time>2014-05-18T07:30:39Z</time>
      </trkpt>
      <trkpt lat="45.653432803228498" lon="5.89303188957274">
        <ele>191</ele>
        <time>2014-05-18T07:30:43Z</time>
      </trkpt>
      <trkpt lat="45.653375387191772" lon="5.893059046939015">
        <ele>191.39999389648437</ele>
        <time>2014-05-18T07:30:45Z</time>
      </trkpt>
      <trkpt lat="45.653345212340355" lon="5.893047396093607">
        <ele>191.60000610351562</ele>
        <time>2014-05-18T07:30:46Z</time>
      </trkpt>
      <trkpt lat="45.653235744684935" lon="5.893014706671238">
        <ele>192.39999389648437</ele>
        <time>2014-05-18T07:30:51Z</time>
      </trkpt>
      <trkpt lat="45.653200875967741" lon="5.893131634220481">
        <ele>192.60000610351562</ele>
        <time>2014-05-18T07:30:55Z</time>
      </trkpt>
      <trkpt lat="45.653160726651549" lon="5.8932273555547">
        <ele>192.60000610351562</ele>
        <time>2014-05-18T07:30:59Z</time>
      </trkpt>
      <trkpt lat="45.652997950091958" lon="5.893243281170726">
        <ele>192.19999694824219</ele>
        <time>2014-05-18T07:31:03Z</time>
      </trkpt>
      <trkpt lat="45.65276007167995" lon="5.893237749114633">
        <ele>191.39999389648437</ele>
        <time>2014-05-18T07:31:07Z</time>
      </trkpt>
      <trkpt lat="45.65263350494206" lon="5.893228948116303">
        <ele>191</ele>
        <time>2014-05-18T07:31:09Z</time>
      </trkpt>
      <trkpt lat="45.652152467519045" lon="5.893217632547021">
        <ele>190.39999389648437</ele>
        <time>2014-05-18T07:31:16Z</time>
      </trkpt>
      <trkpt lat="45.651659024879336" lon="5.893175220116973">
        <ele>190</ele>
        <time>2014-05-18T07:31:23Z</time>
      </trkpt>
      <trkpt lat="45.651253340765834" lon="5.893126940354705">
        <ele>190.19999694824219</ele>
        <time>2014-05-18T07:31:29Z</time>
      </trkpt>
      <trkpt lat="45.651195337995887" lon="5.893080169335008">
        <ele>190</ele>
        <time>2014-05-18T07:31:30Z</time>
      </trkpt>
      <trkpt lat="45.651075141504407" lon="5.893010431900621">
        <ele>189.39999389648437</ele>
        <time>2014-05-18T07:31:32Z</time>
      </trkpt>
      <trkpt lat="45.651011019945145" lon="5.893020322546363">
        <ele>189.39999389648437</ele>
        <time>2014-05-18T07:31:33Z</time>
      </trkpt>
      <trkpt lat="45.650950754061341" lon="5.893046222627163">
        <ele>189.39999389648437</ele>
        <time>2014-05-18T07:31:34Z</time>
      </trkpt>
      <trkpt lat="45.650685466825962" lon="5.893108583986759">
        <ele>189.19999694824219</ele>
        <time>2014-05-18T07:31:38Z</time>
      </trkpt>
      <trkpt lat="45.650611119344831" lon="5.893105482682586">
        <ele>188.80000305175781</ele>
        <time>2014-05-18T07:31:39Z</time>
      </trkpt>
      <trkpt lat="45.650182887911797" lon="5.893084444105625">
        <ele>189</ele>
        <time>2014-05-18T07:31:45Z</time>
      </trkpt>
      <trkpt lat="45.649626748636365" lon="5.893062902614474">
        <ele>188.80000305175781</ele>
        <time>2014-05-18T07:31:53Z</time>
      </trkpt>
      <trkpt lat="45.649309828877449" lon="5.893010599538684">
        <ele>189.80000305175781</ele>
        <time>2014-05-18T07:31:59Z</time>
      </trkpt>
      <trkpt lat="45.64930647611618" lon="5.89289702475071">
        <ele>189.80000305175781</ele>
        <time>2014-05-18T07:32:02Z</time>
      </trkpt>
      <trkpt lat="45.649309577420354" lon="5.892857797443867">
        <ele>189.80000305175781</ele>
        <time>2014-05-18T07:32:03Z</time>
      </trkpt>
      <trkpt lat="45.649298932403326" lon="5.892717065289617">
        <ele>190.19999694824219</ele>
        <time>2014-05-18T07:32:07Z</time>
      </trkpt>
      <trkpt lat="45.649272026494145" lon="5.892666773870587">
        <ele>190</ele>
        <time>2014-05-18T07:32:09Z</time>
      </trkpt>
      <trkpt lat="45.649147303774953" lon="5.892694434151053">
        <ele>189.60000610351562</ele>
        <time>2014-05-18T07:32:13Z</time>
      </trkpt>
      <trkpt lat="45.64896734431386" lon="5.892709773033857">
        <ele>189</ele>
        <time>2014-05-18T07:32:17Z</time>
      </trkpt>
      <trkpt lat="45.64869225025177" lon="5.892685381695628">
        <ele>188.80000305175781</ele>
        <time>2014-05-18T07:32:22Z</time>
      </trkpt>
      <trkpt lat="45.648641875013709" lon="5.892662247642875">
        <ele>188.80000305175781</ele>
        <time>2014-05-18T07:32:23Z</time>
      </trkpt>
      <trkpt lat="45.648515559732914" lon="5.892547583207488">
        <ele>189</ele>
        <time>2014-05-18T07:32:26Z</time>
      </trkpt>
      <trkpt lat="45.648446157574654" lon="5.892453202977777">
        <ele>189.19999694824219</ele>
        <time>2014-05-18T07:32:28Z</time>
      </trkpt>
      <trkpt lat="45.648406678810716" lon="5.89241967536509">
        <ele>189.19999694824219</ele>
        <time>2014-05-18T07:32:29Z</time>
      </trkpt>
      <trkpt lat="45.648339288309216" lon="5.89233560487628">
        <ele>189.39999389648437</ele>
        <time>2014-05-18T07:32:31Z</time>
      </trkpt>
      <trkpt lat="45.648314226418734" lon="5.892283385619521">
        <ele>189.39999389648437</ele>
        <time>2014-05-18T07:32:32Z</time>
      </trkpt>
      <trkpt lat="45.648261839523911" lon="5.892019607126713">
        <ele>189.19999694824219</ele>
        <time>2014-05-18T07:32:36Z</time>
      </trkpt>
      <trkpt lat="45.648258235305548" lon="5.891866553574801">
        <ele>188.80000305175781</ele>
        <time>2014-05-18T07:32:38Z</time>
      </trkpt>
      <trkpt lat="45.648273071274161" lon="5.891563966870308">
        <ele>188.80000305175781</ele>
        <time>2014-05-18T07:32:42Z</time>
      </trkpt>
      <trkpt lat="45.648270891979337" lon="5.891488362103701">
        <ele>188.80000305175781</ele>
        <time>2014-05-18T07:32:43Z</time>
      </trkpt>
      <trkpt lat="45.648256558924913" lon="5.891415439546108">
        <ele>188.80000305175781</ele>
        <time>2014-05-18T07:32:44Z</time>
      </trkpt>
      <trkpt lat="45.648227725178003" lon="5.891181416809559">
        <ele>189</ele>
        <time>2014-05-18T07:32:47Z</time>
      </trkpt>
      <trkpt lat="45.648229820653796" lon="5.891023585572839">
        <ele>189</ele>
        <time>2014-05-18T07:32:49Z</time>
      </trkpt>
      <trkpt lat="45.648243986070156" lon="5.890696020796895">
        <ele>189</ele>
        <time>2014-05-18T07:32:53Z</time>
      </trkpt>
      <trkpt lat="45.64824272878468" lon="5.890040388330817">
        <ele>188.80000305175781</ele>
        <time>2014-05-18T07:33:01Z</time>
      </trkpt>
      <trkpt lat="45.648229066282511" lon="5.889802174642682">
        <ele>188.39999389648437</ele>
        <time>2014-05-18T07:33:04Z</time>
      </trkpt>
      <trkpt lat="45.648232167586684" lon="5.889656245708466">
        <ele>188.39999389648437</ele>
        <time>2014-05-18T07:33:06Z</time>
      </trkpt>
      <trkpt lat="45.648233676329255" lon="5.88950352743268">
        <ele>188.19999694824219</ele>
        <time>2014-05-18T07:33:08Z</time>
      </trkpt>
      <trkpt lat="45.648241303861141" lon="5.889087868854404">
        <ele>188</ele>
        <time>2014-05-18T07:33:13Z</time>
      </trkpt>
      <trkpt lat="45.648250440135598" lon="5.888393763452768">
        <ele>187.80000305175781</ele>
        <time>2014-05-18T07:33:21Z</time>
      </trkpt>
      <trkpt lat="45.648255385458469" lon="5.887574348598719">
        <ele>188.19999694824219</ele>
        <time>2014-05-18T07:33:30Z</time>
      </trkpt>
      <trkpt lat="45.648256978020072" lon="5.887482315301895">
        <ele>188.19999694824219</ele>
        <time>2014-05-18T07:33:31Z</time>
      </trkpt>
      <trkpt lat="45.648241136223078" lon="5.88692793622613">
        <ele>188.39999389648437</ele>
        <time>2014-05-18T07:33:37Z</time>
      </trkpt>
      <trkpt lat="45.648223701864481" lon="5.886846380308271">
        <ele>188.60000610351562</ele>
        <time>2014-05-18T07:33:38Z</time>
      </trkpt>
      <trkpt lat="45.648222360759974" lon="5.886616129428148">
        <ele>189.19999694824219</ele>
        <time>2014-05-18T07:33:41Z</time>
      </trkpt>
      <trkpt lat="45.648225378245115" lon="5.886572627350688">
        <ele>189.39999389648437</ele>
        <time>2014-05-18T07:33:42Z</time>
      </trkpt>
      <trkpt lat="45.648211631923914" lon="5.886303232982755">
        <ele>189.19999694824219</ele>
        <time>2014-05-18T07:33:47Z</time>
      </trkpt>
      <trkpt lat="45.648217750713229" lon="5.886157136410475">
        <ele>188.80000305175781</ele>
        <time>2014-05-18T07:33:49Z</time>
      </trkpt>
      <trkpt lat="45.648221857845783" lon="5.886003663763404">
        <ele>188.60000610351562</ele>
        <time>2014-05-18T07:33:51Z</time>
      </trkpt>
      <trkpt lat="45.648226048797369" lon="5.885921688750386">
        <ele>188.19999694824219</ele>
        <time>2014-05-18T07:33:52Z</time>
      </trkpt>
      <trkpt lat="45.648233173415065" lon="5.885502677410841">
        <ele>188</ele>
        <time>2014-05-18T07:33:57Z</time>
      </trkpt>
      <trkpt lat="45.648224959149957" lon="5.884966738522053">
        <ele>188.19999694824219</ele>
        <time>2014-05-18T07:34:03Z</time>
      </trkpt>
      <trkpt lat="45.64822705462575" lon="5.884206332266331">
        <ele>188</ele>
        <time>2014-05-18T07:34:11Z</time>
      </trkpt>
      <trkpt lat="45.648220684379339" lon="5.883435700088739">
        <ele>188.39999389648437</ele>
        <time>2014-05-18T07:34:19Z</time>
      </trkpt>
      <trkpt lat="45.648231245577335" lon="5.882650064304471">
        <ele>188</ele>
        <time>2014-05-18T07:34:27Z</time>
      </trkpt>
      <trkpt lat="45.648227641358972" lon="5.882363989949226">
        <ele>188</ele>
        <time>2014-05-18T07:34:30Z</time>
      </trkpt>
      <trkpt lat="45.648245913907886" lon="5.881514064967632">
        <ele>187.80000305175781</ele>
        <time>2014-05-18T07:34:39Z</time>
      </trkpt>
      <trkpt lat="45.648264605551958" lon="5.880785174667835">
        <ele>188</ele>
        <time>2014-05-18T07:34:47Z</time>
      </trkpt>
      <trkpt lat="45.648269047960639" lon="5.879961317405105">
        <ele>188.19999694824219</ele>
        <time>2014-05-18T07:34:56Z</time>
      </trkpt>
      <trkpt lat="45.648289918899536" lon="5.879305182024837">
        <ele>188</ele>
        <time>2014-05-18T07:35:03Z</time>
      </trkpt>
      <trkpt lat="45.648296708241105" lon="5.878451988101006">
        <ele>188.19999694824219</ele>
        <time>2014-05-18T07:35:12Z</time>
      </trkpt>
      <trkpt lat="45.648312801495194" lon="5.877598877996206">
        <ele>187.80000305175781</ele>
        <time>2014-05-18T07:35:21Z</time>
      </trkpt>
      <trkpt lat="45.648311963304877" lon="5.877507263794541">
        <ele>187.80000305175781</ele>
        <time>2014-05-18T07:35:22Z</time>
      </trkpt>
      <trkpt lat="45.648309784010053" lon="5.876961098983884">
        <ele>187.60000610351562</ele>
        <time>2014-05-18T07:35:28Z</time>
      </trkpt>
      <trkpt lat="45.64831162802875" lon="5.876781139522791">
        <ele>187.80000305175781</ele>
        <time>2014-05-18T07:35:30Z</time>
      </trkpt>
      <trkpt lat="45.648323865607381" lon="5.876074209809303">
        <ele>187.80000305175781</ele>
        <time>2014-05-18T07:35:38Z</time>
      </trkpt>
      <trkpt lat="45.648338701575994" lon="5.875354204326868">
        <ele>187.80000305175781</ele>
        <time>2014-05-18T07:35:46Z</time>
      </trkpt>
      <trkpt lat="45.648332247510552" lon="5.874635120853782">
        <ele>188</ele>
        <time>2014-05-18T07:35:54Z</time>
      </trkpt>
      <trkpt lat="45.648306850343943" lon="5.874112844467163">
        <ele>188.19999694824219</ele>
        <time>2014-05-18T07:36:00Z</time>
      </trkpt>
      <trkpt lat="45.648314645513892" lon="5.874025840312243">
        <ele>188.19999694824219</ele>
        <time>2014-05-18T07:36:01Z</time>
      </trkpt>
      <trkpt lat="45.648351944983006" lon="5.873673213645816">
        <ele>188.19999694824219</ele>
        <time>2014-05-18T07:36:05Z</time>
      </trkpt>
      <trkpt lat="45.648344317451119" lon="5.873584365472198">
        <ele>188.19999694824219</ele>
        <time>2014-05-18T07:36:06Z</time>
      </trkpt>
      <trkpt lat="45.648281285539269" lon="5.873153116554022">
        <ele>188.19999694824219</ele>
        <time>2014-05-18T07:36:11Z</time>
      </trkpt>
      <trkpt lat="45.648279106244445" lon="5.873069297522306">
        <ele>188.19999694824219</ele>
        <time>2014-05-18T07:36:12Z</time>
      </trkpt>
      <trkpt lat="45.64828815869987" lon="5.872576106339693">
        <ele>188</ele>
        <time>2014-05-18T07:36:18Z</time>
      </trkpt>
      <trkpt lat="45.648256139829755" lon="5.871869260445237">
        <ele>187.80000305175781</ele>
        <time>2014-05-18T07:36:26Z</time>
      </trkpt>
      <trkpt lat="45.648227138444781" lon="5.871144393458962">
        <ele>187.80000305175781</ele>
        <time>2014-05-18T07:36:34Z</time>
      </trkpt>
      <trkpt lat="45.648210877552629" lon="5.87053444236517">
        <ele>188</ele>
        <time>2014-05-18T07:36:41Z</time>
      </trkpt>
      <trkpt lat="45.64819386228919" lon="5.870025744661689">
        <ele>188.19999694824219</ele>
        <time>2014-05-18T07:36:47Z</time>
      </trkpt>
      <trkpt lat="45.648171314969659" lon="5.869668927043676">
        <ele>188.19999694824219</ele>
        <time>2014-05-18T07:36:51Z</time>
      </trkpt>
      <trkpt lat="45.64816108904779" lon="5.869493996724486">
        <ele>188.39999389648437</ele>
        <time>2014-05-18T07:36:53Z</time>
      </trkpt>
      <trkpt lat="45.648151701316237" lon="5.869088564068079">
        <ele>188.19999694824219</ele>
        <time>2014-05-18T07:36:58Z</time>
      </trkpt>
      <trkpt lat="45.648147510364652" lon="5.868884129449725">
        <ele>189.39999389648437</ele>
        <time>2014-05-18T07:37:02Z</time>
      </trkpt>
      <trkpt lat="45.648121777921915" lon="5.868651699274778">
        <ele>189</ele>
        <time>2014-05-18T07:37:06Z</time>
      </trkpt>
      <trkpt lat="45.64810493029654" lon="5.868206452578306">
        <ele>188.60000610351562</ele>
        <time>2014-05-18T07:37:12Z</time>
      </trkpt>
      <trkpt lat="45.648103756830096" lon="5.86803856305778">
        <ele>188.39999389648437</ele>
        <time>2014-05-18T07:37:14Z</time>
      </trkpt>
      <trkpt lat="45.648099984973669" lon="5.867694150656462">
        <ele>188.39999389648437</ele>
        <time>2014-05-18T07:37:18Z</time>
      </trkpt>
      <trkpt lat="45.648052543401718" lon="5.867068693041802">
        <ele>188.80000305175781</ele>
        <time>2014-05-18T07:37:25Z</time>
      </trkpt>
      <trkpt lat="45.648004347458482" lon="5.866711288690567">
        <ele>189</ele>
        <time>2014-05-18T07:37:29Z</time>
      </trkpt>
      <trkpt lat="45.6479861587286" lon="5.866540214046836">
        <ele>189</ele>
        <time>2014-05-18T07:37:31Z</time>
      </trkpt>
      <trkpt lat="45.64796763472259" lon="5.866055404767394">
        <ele>189.39999389648437</ele>
        <time>2014-05-18T07:37:37Z</time>
      </trkpt>
      <trkpt lat="45.647973166778684" lon="5.86598533205688">
        <ele>189.60000610351562</ele>
        <time>2014-05-18T07:37:38Z</time>
      </trkpt>
      <trkpt lat="45.647983308881521" lon="5.865673273801804">
        <ele>189.80000305175781</ele>
        <time>2014-05-18T07:37:43Z</time>
      </trkpt>
      <trkpt lat="45.647997725754976" lon="5.865547377616167">
        <ele>190</ele>
        <time>2014-05-18T07:37:45Z</time>
      </trkpt>
      <trkpt lat="45.648072408512235" lon="5.865374626591802">
        <ele>189.39999389648437</ele>
        <time>2014-05-18T07:37:48Z</time>
      </trkpt>
      <trkpt lat="45.648108618333936" lon="5.865266248583794">
        <ele>189.19999694824219</ele>
        <time>2014-05-18T07:37:50Z</time>
      </trkpt>
      <trkpt lat="45.64809612929821" lon="5.865224506705999">
        <ele>189.39999389648437</ele>
        <time>2014-05-18T07:37:51Z</time>
      </trkpt>
      <trkpt lat="45.647989679127932" lon="5.865173796191812">
        <ele>188.60000610351562</ele>
        <time>2014-05-18T07:37:54Z</time>
      </trkpt>
      <trkpt lat="45.647953385487199" lon="5.865150662139058">
        <ele>188.39999389648437</ele>
        <time>2014-05-18T07:37:55Z</time>
      </trkpt>
      <trkpt lat="45.647912649437785" lon="5.865127025172114">
        <ele>188</ele>
        <time>2014-05-18T07:37:56Z</time>
      </trkpt>
      <trkpt lat="45.647775437682867" lon="5.865060472860932">
        <ele>187.60000610351562</ele>
        <time>2014-05-18T07:37:59Z</time>
      </trkpt>
      <trkpt lat="45.647742161527276" lon="5.865014791488648">
        <ele>187.60000610351562</ele>
        <time>2014-05-18T07:38:00Z</time>
      </trkpt>
      <trkpt lat="45.647678375244141" lon="5.864871125668287">
        <ele>188.80000305175781</ele>
        <time>2014-05-18T07:38:03Z</time>
      </trkpt>
      <trkpt lat="45.647636549547315" lon="5.864821588620544">
        <ele>189.60000610351562</ele>
        <time>2014-05-18T07:38:05Z</time>
      </trkpt>
      <trkpt lat="45.647592460736632" lon="5.864806836470962">
        <ele>189.80000305175781</ele>
        <time>2014-05-18T07:38:07Z</time>
      </trkpt>
      <trkpt lat="45.647506462410092" lon="5.864786468446255">
        <ele>190</ele>
        <time>2014-05-18T07:38:10Z</time>
      </trkpt>
      <trkpt lat="45.647451058030128" lon="5.864795185625553">
        <ele>190.19999694824219</ele>
        <time>2014-05-18T07:38:12Z</time>
      </trkpt>
      <trkpt lat="45.647366652265191" lon="5.864777667447925">
        <ele>190.60000610351562</ele>
        <time>2014-05-18T07:38:15Z</time>
      </trkpt>
      <trkpt lat="45.647291047498584" lon="5.864751180633903">
        <ele>190.80000305175781</ele>
        <time>2014-05-18T07:38:17Z</time>
      </trkpt>
      <trkpt lat="45.64710471779108" lon="5.864813290536404">
        <ele>191</ele>
        <time>2014-05-18T07:38:22Z</time>
      </trkpt>
      <trkpt lat="45.64706951379776" lon="5.864857463166118">
        <ele>190.60000610351562</ele>
        <time>2014-05-18T07:38:23Z</time>
      </trkpt>
      <trkpt lat="45.646952083334327" lon="5.864980677142739">
        <ele>189.60000610351562</ele>
        <time>2014-05-18T07:38:26Z</time>
      </trkpt>
      <trkpt lat="45.646907994523644" lon="5.865018563345075">
        <ele>189.39999389648437</ele>
        <time>2014-05-18T07:38:27Z</time>
      </trkpt>
      <trkpt lat="45.646686041727662" lon="5.865257363766432">
        <ele>189.80000305175781</ele>
        <time>2014-05-18T07:38:33Z</time>
      </trkpt>
      <trkpt lat="45.646606832742691" lon="5.865314863622189">
        <ele>190.19999694824219</ele>
        <time>2014-05-18T07:38:35Z</time>
      </trkpt>
      <trkpt lat="45.646567437797785" lon="5.865336153656244">
        <ele>190.80000305175781</ele>
        <time>2014-05-18T07:38:36Z</time>
      </trkpt>
      <trkpt lat="45.646474314853549" lon="5.865422822535038">
        <ele>191.39999389648437</ele>
        <time>2014-05-18T07:38:39Z</time>
      </trkpt>
      <trkpt lat="45.646431650966406" lon="5.865527261048555">
        <ele>192</ele>
        <time>2014-05-18T07:38:42Z</time>
      </trkpt>
      <trkpt lat="45.646405080333352" lon="5.865529859438539">
        <ele>192.19999694824219</ele>
        <time>2014-05-18T07:38:43Z</time>
      </trkpt>
      <trkpt lat="45.646361159160733" lon="5.865463055670261">
        <ele>192.80000305175781</ele>
        <time>2014-05-18T07:38:46Z</time>
      </trkpt>
      <trkpt lat="45.64634632319212" lon="5.865432042628527">
        <ele>192.80000305175781</ele>
        <time>2014-05-18T07:38:47Z</time>
      </trkpt>
      <trkpt lat="45.646330146118999" lon="5.865394826978445">
        <ele>193</ele>
        <time>2014-05-18T07:38:48Z</time>
      </trkpt>
      <trkpt lat="45.646242136135697" lon="5.865199947729707">
        <ele>193.19999694824219</ele>
        <time>2014-05-18T07:38:53Z</time>
      </trkpt>
      <trkpt lat="45.646203998476267" lon="5.865121157839894">
        <ele>193</ele>
        <time>2014-05-18T07:38:57Z</time>
      </trkpt>
      <trkpt lat="45.646182540804148" lon="5.865111853927374">
        <ele>193</ele>
        <time>2014-05-18T07:38:59Z</time>
      </trkpt>
      <trkpt lat="45.646152533590794" lon="5.865138676017523">
        <ele>193</ele>
        <time>2014-05-18T07:39:01Z</time>
      </trkpt>
      <trkpt lat="45.646104337647557" lon="5.865198187530041">
        <ele>192.80000305175781</ele>
        <time>2014-05-18T07:39:03Z</time>
      </trkpt>
      <trkpt lat="45.64604046754539" lon="5.865271529182792">
        <ele>192.60000610351562</ele>
        <time>2014-05-18T07:39:05Z</time>
      </trkpt>
      <trkpt lat="45.64590317197144" lon="5.8654092438519">
        <ele>192.19999694824219</ele>
        <time>2014-05-18T07:39:09Z</time>
      </trkpt>
      <trkpt lat="45.645759841427207" lon="5.865580989047885">
        <ele>192.39999389648437</ele>
        <time>2014-05-18T07:39:13Z</time>
      </trkpt>
      <trkpt lat="45.645716087892652" lon="5.865621054545045">
        <ele>192.39999389648437</ele>
        <time>2014-05-18T07:39:14Z</time>
      </trkpt>
      <trkpt lat="45.645440742373466" lon="5.865849629044533">
        <ele>192</ele>
        <time>2014-05-18T07:39:20Z</time>
      </trkpt>
      <trkpt lat="45.645071351900697" lon="5.86602296680212">
        <ele>192.39999389648437</ele>
        <time>2014-05-18T07:39:27Z</time>
      </trkpt>
      <trkpt lat="45.644906898960471" lon="5.866065379232168">
        <ele>192.19999694824219</ele>
        <time>2014-05-18T07:39:30Z</time>
      </trkpt>
      <trkpt lat="45.644848980009556" lon="5.866065295413137">
        <ele>192.19999694824219</ele>
        <time>2014-05-18T07:39:31Z</time>
      </trkpt>
      <trkpt lat="45.644451091066003" lon="5.866109132766724">
        <ele>192.39999389648437</ele>
        <time>2014-05-18T07:39:38Z</time>
      </trkpt>
      <trkpt lat="45.644097123295069" lon="5.866143247112632">
        <ele>193</ele>
        <time>2014-05-18T07:39:45Z</time>
      </trkpt>
      <trkpt lat="45.644058315083385" lon="5.866246428340673">
        <ele>194.39999389648437</ele>
        <time>2014-05-18T07:39:48Z</time>
      </trkpt>
      <trkpt lat="45.644090417772532" lon="5.866394536569715">
        <ele>194.39999389648437</ele>
        <time>2014-05-18T07:39:51Z</time>
      </trkpt>
      <trkpt lat="45.644100643694401" lon="5.866444492712617">
        <ele>194.39999389648437</ele>
        <time>2014-05-18T07:39:52Z</time>
      </trkpt>
      <trkpt lat="45.644137188792229" lon="5.866655297577381">
        <ele>194.80000305175781</ele>
        <time>2014-05-18T07:39:57Z</time>
      </trkpt>
      <trkpt lat="45.644060829654336" lon="5.866687903180718">
        <ele>194.80000305175781</ele>
        <time>2014-05-18T07:40:00Z</time>
      </trkpt>
      <trkpt lat="45.643908614292741" lon="5.866727298125625">
        <ele>194</ele>
        <time>2014-05-18T07:40:04Z</time>
      </trkpt>
      <trkpt lat="45.643800739198923" lon="5.86676225066185">
        <ele>193</ele>
        <time>2014-05-18T07:40:06Z</time>
      </trkpt>
      <trkpt lat="45.643689930438995" lon="5.866795191541314">
        <ele>192.60000610351562</ele>
        <time>2014-05-18T07:40:08Z</time>
      </trkpt>
      <trkpt lat="45.643354989588261" lon="5.866938522085547">
        <ele>192.39999389648437</ele>
        <time>2014-05-18T07:40:14Z</time>
      </trkpt>
      <trkpt lat="45.643026251345873" lon="5.867088306695223">
        <ele>192.60000610351562</ele>
        <time>2014-05-18T07:40:20Z</time>
      </trkpt>
      <trkpt lat="45.642757192254066" lon="5.867213699966669">
        <ele>193</ele>
        <time>2014-05-18T07:40:25Z</time>
      </trkpt>
      <trkpt lat="45.642707152292132" lon="5.867244377732277">
        <ele>193</ele>
        <time>2014-05-18T07:40:26Z</time>
      </trkpt>
      <trkpt lat="45.642416048794985" lon="5.867425259202719">
        <ele>193.19999694824219</ele>
        <time>2014-05-18T07:40:32Z</time>
      </trkpt>
      <trkpt lat="45.642340863123536" lon="5.867468845099211">
        <ele>194.19999694824219</ele>
        <time>2014-05-18T07:40:35Z</time>
      </trkpt>
      <trkpt lat="45.642315549775958" lon="5.867471694946289">
        <ele>194.80000305175781</ele>
        <time>2014-05-18T07:40:36Z</time>
      </trkpt>
      <trkpt lat="45.642260145395994" lon="5.8675108384341">
        <ele>194.60000610351562</ele>
        <time>2014-05-18T07:40:38Z</time>
      </trkpt>
      <trkpt lat="45.642161574214697" lon="5.867564985528588">
        <ele>194.39999389648437</ele>
        <time>2014-05-18T07:40:41Z</time>
      </trkpt>
      <trkpt lat="45.641944902017713" lon="5.867656599730253">
        <ele>194.19999694824219</ele>
        <time>2014-05-18T07:40:46Z</time>
      </trkpt>
      <trkpt lat="45.641689086332917" lon="5.867818119004369">
        <ele>193.39999389648437</ele>
        <time>2014-05-18T07:40:51Z</time>
      </trkpt>
      <trkpt lat="45.641634939238429" lon="5.867860615253449">
        <ele>193</ele>
        <time>2014-05-18T07:40:52Z</time>
      </trkpt>
      <trkpt lat="45.641318606212735" lon="5.868061278015375">
        <ele>193.80000305175781</ele>
        <time>2014-05-18T07:40:58Z</time>
      </trkpt>
      <trkpt lat="45.640899511054158" lon="5.868310388177633">
        <ele>193.60000610351562</ele>
        <time>2014-05-18T07:41:06Z</time>
      </trkpt>
      <trkpt lat="45.640533892437816" lon="5.868503591045737">
        <ele>193.60000610351562</ele>
        <time>2014-05-18T07:41:13Z</time>
      </trkpt>
      <trkpt lat="45.640215799212456" lon="5.868692519143224">
        <ele>193.80000305175781</ele>
        <time>2014-05-18T07:41:19Z</time>
      </trkpt>
      <trkpt lat="45.640158802270889" lon="5.868722107261419">
        <ele>193.80000305175781</ele>
        <time>2014-05-18T07:41:20Z</time>
      </trkpt>
      <trkpt lat="45.639992756769061" lon="5.868758736178279">
        <ele>193.80000305175781</ele>
        <time>2014-05-18T07:41:23Z</time>
      </trkpt>
      <trkpt lat="45.639788154512644" lon="5.868839956820011">
        <ele>192</ele>
        <time>2014-05-18T07:41:26Z</time>
      </trkpt>
      <trkpt lat="45.639722188934684" lon="5.868861246854067">
        <ele>191.80000305175781</ele>
        <time>2014-05-18T07:41:27Z</time>
      </trkpt>
      <trkpt lat="45.639656390994787" lon="5.86886870674789">
        <ele>191.60000610351562</ele>
        <time>2014-05-18T07:41:28Z</time>
      </trkpt>
      <trkpt lat="45.639528566971421" lon="5.868847332894802">
        <ele>191.60000610351562</ele>
        <time>2014-05-18T07:41:30Z</time>
      </trkpt>
      <trkpt lat="45.639470480382442" lon="5.868853535503149">
        <ele>191.80000305175781</ele>
        <time>2014-05-18T07:41:31Z</time>
      </trkpt>
      <trkpt lat="45.639355229213834" lon="5.868886979296804">
        <ele>192.19999694824219</ele>
        <time>2014-05-18T07:41:33Z</time>
      </trkpt>
      <trkpt lat="45.639297561720014" lon="5.868922434747219">
        <ele>192.19999694824219</ele>
        <time>2014-05-18T07:41:34Z</time>
      </trkpt>
      <trkpt lat="45.639171581715345" lon="5.869102226570249">
        <ele>192.19999694824219</ele>
        <time>2014-05-18T07:41:37Z</time>
      </trkpt>
      <trkpt lat="45.639134449884295" lon="5.869174310937524">
        <ele>192</ele>
        <time>2014-05-18T07:41:38Z</time>
      </trkpt>
      <trkpt lat="45.639055743813515" lon="5.869278917089105">
        <ele>192.19999694824219</ele>
        <time>2014-05-18T07:41:40Z</time>
      </trkpt>
      <trkpt lat="45.638965973630548" lon="5.869329292327166">
        <ele>193.19999694824219</ele>
        <time>2014-05-18T07:41:42Z</time>
      </trkpt>
      <trkpt lat="45.638879975304008" lon="5.869373716413975">
        <ele>194.19999694824219</ele>
        <time>2014-05-18T07:41:44Z</time>
      </trkpt>
      <trkpt lat="45.638835551217198" lon="5.869399029761553">
        <ele>194.39999389648437</ele>
        <time>2014-05-18T07:41:45Z</time>
      </trkpt>
      <trkpt lat="45.638718204572797" lon="5.869476310908794">
        <ele>195</ele>
        <time>2014-05-18T07:41:48Z</time>
      </trkpt>
      <trkpt lat="45.638386532664299" lon="5.869615534320474">
        <ele>195</ele>
        <time>2014-05-18T07:41:55Z</time>
      </trkpt>
      <trkpt lat="45.638068942353129" lon="5.869663897901774">
        <ele>194.60000610351562</ele>
        <time>2014-05-18T07:42:01Z</time>
      </trkpt>
      <trkpt lat="45.637667030096054" lon="5.869698766618967">
        <ele>194.80000305175781</ele>
        <time>2014-05-18T07:42:08Z</time>
      </trkpt>
      <trkpt lat="45.637159673497081" lon="5.869735898450017">
        <ele>194.39999389648437</ele>
        <time>2014-05-18T07:42:17Z</time>
      </trkpt>
      <trkpt lat="45.636723982170224" lon="5.869843689724803">
        <ele>194.60000610351562</ele>
        <time>2014-05-18T07:42:25Z</time>
      </trkpt>
      <trkpt lat="45.636237077414989" lon="5.869972351938486">
        <ele>195</ele>
        <time>2014-05-18T07:42:34Z</time>
      </trkpt>
      <trkpt lat="45.635849246755242" lon="5.870044017210603">
        <ele>195.39999389648437</ele>
        <time>2014-05-18T07:42:41Z</time>
      </trkpt>
      <trkpt lat="45.635679513216019" lon="5.870086094364524">
        <ele>195.60000610351562</ele>
        <time>2014-05-18T07:42:44Z</time>
      </trkpt>
      <trkpt lat="45.635504582896829" lon="5.870129847899079">
        <ele>195.39999389648437</ele>
        <time>2014-05-18T07:42:47Z</time>
      </trkpt>
      <trkpt lat="45.63517777249217" lon="5.870276279747486">
        <ele>195.39999389648437</ele>
        <time>2014-05-18T07:42:53Z</time>
      </trkpt>
      <trkpt lat="45.634819865226746" lon="5.870529748499394">
        <ele>195.60000610351562</ele>
        <time>2014-05-18T07:43:00Z</time>
      </trkpt>
      <trkpt lat="45.63467494212091" lon="5.870637875050306">
        <ele>195.19999694824219</ele>
        <time>2014-05-18T07:43:03Z</time>
      </trkpt>
      <trkpt lat="45.634524319320917" lon="5.870721694082022">
        <ele>195.39999389648437</ele>
        <time>2014-05-18T07:43:06Z</time>
      </trkpt>
      <trkpt lat="45.634472519159317" lon="5.870736949145794">
        <ele>195.60000610351562</ele>
        <time>2014-05-18T07:43:07Z</time>
      </trkpt>
      <trkpt lat="45.634253667667508" lon="5.870785983279347">
        <ele>195.80000305175781</ele>
        <time>2014-05-18T07:43:11Z</time>
      </trkpt>
      <trkpt lat="45.634198682382703" lon="5.870790760964155">
        <ele>196</ele>
        <time>2014-05-18T07:43:12Z</time>
      </trkpt>
      <trkpt lat="45.633732564747334" lon="5.870840884745121">
        <ele>195.60000610351562</ele>
        <time>2014-05-18T07:43:20Z</time>
      </trkpt>
      <trkpt lat="45.633326293900609" lon="5.870935600250959">
        <ele>195.19999694824219</ele>
        <time>2014-05-18T07:43:27Z</time>
      </trkpt>
      <trkpt lat="45.632970314472914" lon="5.8709248714149">
        <ele>195.39999389648437</ele>
        <time>2014-05-18T07:43:33Z</time>
      </trkpt>
      <trkpt lat="45.63285288400948" lon="5.870925541967154">
        <ele>195.60000610351562</ele>
        <time>2014-05-18T07:43:35Z</time>
      </trkpt>
      <trkpt lat="45.632735872641206" lon="5.870956806465983">
        <ele>195.60000610351562</ele>
        <time>2014-05-18T07:43:37Z</time>
      </trkpt>
      <trkpt lat="45.632678791880608" lon="5.870978683233261">
        <ele>195.60000610351562</ele>
        <time>2014-05-18T07:43:38Z</time>
      </trkpt>
      <trkpt lat="45.632234383374453" lon="5.871195523068309">
        <ele>195.60000610351562</ele>
        <time>2014-05-18T07:43:46Z</time>
      </trkpt>
      <trkpt lat="45.631921235471964" lon="5.871403897181153">
        <ele>195.39999389648437</ele>
        <time>2014-05-18T07:43:52Z</time>
      </trkpt>
      <trkpt lat="45.63181352801621" lon="5.871481262147427">
        <ele>195.39999389648437</ele>
        <time>2014-05-18T07:43:54Z</time>
      </trkpt>
      <trkpt lat="45.631380518898368" lon="5.871773790568113">
        <ele>195.80000305175781</ele>
        <time>2014-05-18T07:44:02Z</time>
      </trkpt>
      <trkpt lat="45.631026886403561" lon="5.871916115283966">
        <ele>196</ele>
        <time>2014-05-18T07:44:08Z</time>
      </trkpt>
      <trkpt lat="45.630670823156834" lon="5.871970513835549">
        <ele>195.80000305175781</ele>
        <time>2014-05-18T07:44:14Z</time>
      </trkpt>
      <trkpt lat="45.63061005435884" lon="5.871960120275617">
        <ele>195.80000305175781</ele>
        <time>2014-05-18T07:44:15Z</time>
      </trkpt>
      <trkpt lat="45.630264971405268" lon="5.871966993436217">
        <ele>196</ele>
        <time>2014-05-18T07:44:21Z</time>
      </trkpt>
      <trkpt lat="45.630047796294093" lon="5.872070258483291">
        <ele>196</ele>
        <time>2014-05-18T07:44:25Z</time>
      </trkpt>
      <trkpt lat="45.630001025274396" lon="5.872110659256578">
        <ele>196</ele>
        <time>2014-05-18T07:44:26Z</time>
      </trkpt>
      <trkpt lat="45.629867836833" lon="5.872256588190794">
        <ele>196.19999694824219</ele>
        <time>2014-05-18T07:44:29Z</time>
      </trkpt>
      <trkpt lat="45.629627695307136" lon="5.872478121891618">
        <ele>196</ele>
        <time>2014-05-18T07:44:34Z</time>
      </trkpt>
      <trkpt lat="45.629580086097121" lon="5.8725222107023">
        <ele>196</ele>
        <time>2014-05-18T07:44:35Z</time>
      </trkpt>
      <trkpt lat="45.629272637888789" lon="5.872857151553035">
        <ele>196</ele>
        <time>2014-05-18T07:44:42Z</time>
      </trkpt>
      <trkpt lat="45.629177838563919" lon="5.87294633500278">
        <ele>196.19999694824219</ele>
        <time>2014-05-18T07:44:44Z</time>
      </trkpt>
      <trkpt lat="45.629111537709832" lon="5.873015653342009">
        <ele>196.80000305175781</ele>
        <time>2014-05-18T07:44:46Z</time>
      </trkpt>
      <trkpt lat="45.629081949591637" lon="5.873055886477232">
        <ele>197.19999694824219</ele>
        <time>2014-05-18T07:44:47Z</time>
      </trkpt>
      <trkpt lat="45.628994693979621" lon="5.87316426448524">
        <ele>198</ele>
        <time>2014-05-18T07:44:50Z</time>
      </trkpt>
      <trkpt lat="45.628859661519527" lon="5.873311031609774">
        <ele>197.80000305175781</ele>
        <time>2014-05-18T07:44:54Z</time>
      </trkpt>
      <trkpt lat="45.628564031794667" lon="5.873571038246155">
        <ele>197</ele>
        <time>2014-05-18T07:45:01Z</time>
      </trkpt>
      <trkpt lat="45.628504855558276" lon="5.873587215319276">
        <ele>196.60000610351562</ele>
        <time>2014-05-18T07:45:02Z</time>
      </trkpt>
      <trkpt lat="45.628340486437082" lon="5.87360791862011">
        <ele>196.19999694824219</ele>
        <time>2014-05-18T07:45:05Z</time>
      </trkpt>
      <trkpt lat="45.628279214724898" lon="5.873591490089893">
        <ele>196.80000305175781</ele>
        <time>2014-05-18T07:45:08Z</time>
      </trkpt>
      <trkpt lat="45.628272593021393" lon="5.873588556423783">
        <ele>197</ele>
        <time>2014-05-18T07:45:09Z</time>
      </trkpt>
      <trkpt lat="45.628238813951612" lon="5.873634656891227">
        <ele>198.39999389648437</ele>
        <time>2014-05-18T07:52:06Z</time>
      </trkpt>
      <trkpt lat="45.628222888335586" lon="5.873650750145316">
        <ele>198.39999389648437</ele>
        <time>2014-05-18T07:52:07Z</time>
      </trkpt>
      <trkpt lat="45.628113085404038" lon="5.873686540871859">
        <ele>198.19999694824219</ele>
        <time>2014-05-18T07:52:12Z</time>
      </trkpt>
      <trkpt lat="45.627893730998039" lon="5.873680924996734">
        <ele>198.60000610351562</ele>
        <time>2014-05-18T07:52:19Z</time>
      </trkpt>
      <trkpt lat="45.62765141017735" lon="5.873542120680213">
        <ele>198.60000610351562</ele>
        <time>2014-05-18T07:52:25Z</time>
      </trkpt>
      <trkpt lat="45.627469019964337" lon="5.873443549498916">
        <ele>198.60000610351562</ele>
        <time>2014-05-18T07:52:29Z</time>
      </trkpt>
      <trkpt lat="45.627373047173023" lon="5.873386804014444">
        <ele>198.39999389648437</ele>
        <time>2014-05-18T07:52:31Z</time>
      </trkpt>
      <trkpt lat="45.627050427719951" lon="5.873244982212782">
        <ele>198.60000610351562</ele>
        <time>2014-05-18T07:52:37Z</time>
      </trkpt>
      <trkpt lat="45.626836437731981" lon="5.873194104060531">
        <ele>199.39999389648437</ele>
        <time>2014-05-18T07:52:41Z</time>
      </trkpt>
      <trkpt lat="45.62673132866621" lon="5.873188069090247">
        <ele>199.60000610351562</ele>
        <time>2014-05-18T07:52:43Z</time>
      </trkpt>
      <trkpt lat="45.626239562407136" lon="5.873208856210113">
        <ele>199.80000305175781</ele>
        <time>2014-05-18T07:52:52Z</time>
      </trkpt>
      <trkpt lat="45.625865729525685" lon="5.873311702162027">
        <ele>200</ele>
        <time>2014-05-18T07:52:59Z</time>
      </trkpt>
      <trkpt lat="45.62559868209064" lon="5.873421421274543">
        <ele>199.80000305175781</ele>
        <time>2014-05-18T07:53:04Z</time>
      </trkpt>
      <trkpt lat="45.625546127557755" lon="5.873452937230468">
        <ele>200</ele>
        <time>2014-05-18T07:53:05Z</time>
      </trkpt>
      <trkpt lat="45.625211521983147" lon="5.873724929988384">
        <ele>200</ele>
        <time>2014-05-18T07:53:12Z</time>
      </trkpt>
      <trkpt lat="45.625167852267623" lon="5.873771701008081">
        <ele>200</ele>
        <time>2014-05-18T07:53:13Z</time>
      </trkpt>
      <trkpt lat="45.625069197267294" lon="5.873881252482534">
        <ele>199.80000305175781</ele>
        <time>2014-05-18T07:53:15Z</time>
      </trkpt>
      <trkpt lat="45.624959226697683" lon="5.873974794521928">
        <ele>199.60000610351562</ele>
        <time>2014-05-18T07:53:17Z</time>
      </trkpt>
      <trkpt lat="45.62450266443193" lon="5.874315435066819">
        <ele>200.19999694824219</ele>
        <time>2014-05-18T07:53:25Z</time>
      </trkpt>
      <trkpt lat="45.624056244269013" lon="5.874673090875149">
        <ele>199.60000610351562</ele>
        <time>2014-05-18T07:53:33Z</time>
      </trkpt>
      <trkpt lat="45.62359088100493" lon="5.875138873234391">
        <ele>200</ele>
        <time>2014-05-18T07:53:42Z</time>
      </trkpt>
      <trkpt lat="45.623232806101441" lon="5.875498289242387">
        <ele>200.19999694824219</ele>
        <time>2014-05-18T07:53:49Z</time>
      </trkpt>
      <trkpt lat="45.622958550229669" lon="5.875851754099131">
        <ele>200.39999389648437</ele>
        <time>2014-05-18T07:53:55Z</time>
      </trkpt>
      <trkpt lat="45.62285796739161" lon="5.875947643071413">
        <ele>200.60000610351562</ele>
        <time>2014-05-18T07:53:57Z</time>
      </trkpt>
      <trkpt lat="45.622661663219333" lon="5.876164399087429">
        <ele>201.60000610351562</ele>
        <time>2014-05-18T07:54:01Z</time>
      </trkpt>
      <trkpt lat="45.622223038226366" lon="5.876587266102433">
        <ele>201</ele>
        <time>2014-05-18T07:54:09Z</time>
      </trkpt>
      <trkpt lat="45.622167633846402" lon="5.876643843948841">
        <ele>201.19999694824219</ele>
        <time>2014-05-18T07:54:10Z</time>
      </trkpt>
      <trkpt lat="45.622022375464439" lon="5.876855235546827">
        <ele>200.80000305175781</ele>
        <time>2014-05-18T07:54:13Z</time>
      </trkpt>
      <trkpt lat="45.621709059923887" lon="5.877231163904071">
        <ele>201</ele>
        <time>2014-05-18T07:54:19Z</time>
      </trkpt>
      <trkpt lat="45.621327264234424" lon="5.877615725621581">
        <ele>201.60000610351562</ele>
        <time>2014-05-18T07:54:26Z</time>
      </trkpt>
      <trkpt lat="45.621272278949618" lon="5.877669118344784">
        <ele>201.80000305175781</ele>
        <time>2014-05-18T07:54:27Z</time>
      </trkpt>
      <trkpt lat="45.620990395545959" lon="5.877925185486674">
        <ele>201.39999389648437</ele>
        <time>2014-05-18T07:54:32Z</time>
      </trkpt>
      <trkpt lat="45.620660651475191" lon="5.878226598724723">
        <ele>201.19999694824219</ele>
        <time>2014-05-18T07:54:38Z</time>
      </trkpt>
      <trkpt lat="45.620280783623457" lon="5.87857780046761">
        <ele>201.80000305175781</ele>
        <time>2014-05-18T07:54:45Z</time>
      </trkpt>
      <trkpt lat="45.620124209672213" lon="5.878736805170775">
        <ele>201.60000610351562</ele>
        <time>2014-05-18T07:54:48Z</time>
      </trkpt>
      <trkpt lat="45.619917679578066" lon="5.878946436569095">
        <ele>202</ele>
        <time>2014-05-18T07:54:52Z</time>
      </trkpt>
      <trkpt lat="45.619464386254549" lon="5.879409285262227">
        <ele>202.19999694824219</ele>
        <time>2014-05-18T07:55:01Z</time>
      </trkpt>
      <trkpt lat="45.619413675740361" lon="5.879460917785764">
        <ele>202.19999694824219</ele>
        <time>2014-05-18T07:55:02Z</time>
      </trkpt>
      <trkpt lat="45.619119219481945" lon="5.879748836159706">
        <ele>202.39999389648437</ele>
        <time>2014-05-18T07:55:08Z</time>
      </trkpt>
      <trkpt lat="45.618772460147738" lon="5.880085034295917">
        <ele>202.39999389648437</ele>
        <time>2014-05-18T07:55:15Z</time>
      </trkpt>
      <trkpt lat="45.618625860661268" lon="5.880240434780717">
        <ele>202.19999694824219</ele>
        <time>2014-05-18T07:55:18Z</time>
      </trkpt>
      <trkpt lat="45.618525026366115" lon="5.880336323752999">
        <ele>202.39999389648437</ele>
        <time>2014-05-18T07:55:20Z</time>
      </trkpt>
      <trkpt lat="45.618160916492343" lon="5.88068081997335">
        <ele>202.60000610351562</ele>
        <time>2014-05-18T07:55:27Z</time>
      </trkpt>
      <trkpt lat="45.618111463263631" lon="5.880728848278523">
        <ele>203</ele>
        <time>2014-05-18T07:55:28Z</time>
      </trkpt>
      <trkpt lat="45.617836369201541" lon="5.881033698096871">
        <ele>203.19999694824219</ele>
        <time>2014-05-18T07:55:34Z</time>
      </trkpt>
      <trkpt lat="45.617546187713742" lon="5.88146704249084">
        <ele>203</ele>
        <time>2014-05-18T07:55:41Z</time>
      </trkpt>
      <trkpt lat="45.617269417271018" lon="5.881985714659095">
        <ele>202.19999694824219</ele>
        <time>2014-05-18T07:55:48Z</time>
      </trkpt>
      <trkpt lat="45.61715324409306" lon="5.882179839536548">
        <ele>202.39999389648437</ele>
        <time>2014-05-18T07:55:51Z</time>
      </trkpt>
      <trkpt lat="45.616940343752503" lon="5.882522407919169">
        <ele>202.60000610351562</ele>
        <time>2014-05-18T07:55:56Z</time>
      </trkpt>
      <trkpt lat="45.616648234426975" lon="5.882854415103793">
        <ele>202.80000305175781</ele>
        <time>2014-05-18T07:56:02Z</time>
      </trkpt>
      <trkpt lat="45.616274317726493" lon="5.883149961009622">
        <ele>202.80000305175781</ele>
        <time>2014-05-18T07:56:09Z</time>
      </trkpt>
      <trkpt lat="45.616038953885436" lon="5.883239647373557">
        <ele>203.39999389648437</ele>
        <time>2014-05-18T07:56:13Z</time>
      </trkpt>
      <trkpt lat="45.615982627496123" lon="5.883250292390585">
        <ele>203.60000610351562</ele>
        <time>2014-05-18T07:56:14Z</time>
      </trkpt>
      <trkpt lat="45.615861508995295" lon="5.883276527747512">
        <ele>204</ele>
        <time>2014-05-18T07:56:16Z</time>
      </trkpt>
      <trkpt lat="45.615671239793301" lon="5.883316677063704">
        <ele>204.19999694824219</ele>
        <time>2014-05-18T07:56:19Z</time>
      </trkpt>
      <trkpt lat="45.615318026393652" lon="5.883340397849679">
        <ele>203.60000610351562</ele>
        <time>2014-05-18T07:56:24Z</time>
      </trkpt>
      <trkpt lat="45.614897506311536" lon="5.88331650942564">
        <ele>203.39999389648437</ele>
        <time>2014-05-18T07:56:30Z</time>
      </trkpt>
      <trkpt lat="45.61445695348084" lon="5.883336374536157">
        <ele>203</ele>
        <time>2014-05-18T07:56:36Z</time>
      </trkpt>
      <trkpt lat="45.614021765068173" lon="5.88335121050477">
        <ele>203.39999389648437</ele>
        <time>2014-05-18T07:56:42Z</time>
      </trkpt>
      <trkpt lat="45.613608285784721" lon="5.883349450305104">
        <ele>203.39999389648437</ele>
        <time>2014-05-18T07:56:48Z</time>
      </trkpt>
      <trkpt lat="45.61306488700211" lon="5.883346935734153">
        <ele>203.80000305175781</ele>
        <time>2014-05-18T07:56:56Z</time>
      </trkpt>
      <trkpt lat="45.612994646653533" lon="5.88334727101028">
        <ele>203.80000305175781</ele>
        <time>2014-05-18T07:56:57Z</time>
      </trkpt>
      <trkpt lat="45.612925328314304" lon="5.883348444476724">
        <ele>204</ele>
        <time>2014-05-18T07:56:58Z</time>
      </trkpt>
      <trkpt lat="45.612460970878601" lon="5.883380882441998">
        <ele>204.19999694824219</ele>
        <time>2014-05-18T07:57:05Z</time>
      </trkpt>
      <trkpt lat="45.611880524083972" lon="5.883466210216284">
        <ele>205</ele>
        <time>2014-05-18T07:57:14Z</time>
      </trkpt>
      <trkpt lat="45.611373502761126" lon="5.883571822196245">
        <ele>204.80000305175781</ele>
        <time>2014-05-18T07:57:22Z</time>
      </trkpt>
      <trkpt lat="45.611005201935768" lon="5.883663771674037">
        <ele>204.80000305175781</ele>
        <time>2014-05-18T07:57:28Z</time>
      </trkpt>
      <trkpt lat="45.610715858638287" lon="5.883734514936805">
        <ele>205</ele>
        <time>2014-05-18T07:57:33Z</time>
      </trkpt>
      <trkpt lat="45.6105493940413" lon="5.883784722536802">
        <ele>205</ele>
        <time>2014-05-18T07:57:36Z</time>
      </trkpt>
      <trkpt lat="45.610440010204911" lon="5.883827637881041">
        <ele>205.39999389648437</ele>
        <time>2014-05-18T07:57:38Z</time>
      </trkpt>
      <trkpt lat="45.610204646363854" lon="5.883925035595894">
        <ele>205.19999694824219</ele>
        <time>2014-05-18T07:57:42Z</time>
      </trkpt>
      <trkpt lat="45.609869202598929" lon="5.884087141603231">
        <ele>205.39999389648437</ele>
        <time>2014-05-18T07:57:48Z</time>
      </trkpt>
      <trkpt lat="45.609527137130499" lon="5.884265676140785">
        <ele>205.60000610351562</ele>
        <time>2014-05-18T07:57:54Z</time>
      </trkpt>
      <trkpt lat="45.609432002529502" lon="5.884306831285358">
        <ele>206.19999694824219</ele>
        <time>2014-05-18T07:57:56Z</time>
      </trkpt>
      <trkpt lat="45.609345752745867" lon="5.884356116876006">
        <ele>206.60000610351562</ele>
        <time>2014-05-18T07:57:58Z</time>
      </trkpt>
      <trkpt lat="45.609300909563899" lon="5.884383022785187">
        <ele>206.39999389648437</ele>
        <time>2014-05-18T07:57:59Z</time>
      </trkpt>
      <trkpt lat="45.609022881835699" lon="5.884487126022577">
        <ele>205.80000305175781</ele>
        <time>2014-05-18T07:58:04Z</time>
      </trkpt>
      <trkpt lat="45.608588196337223" lon="5.884674042463303">
        <ele>205.80000305175781</ele>
        <time>2014-05-18T07:58:11Z</time>
      </trkpt>
      <trkpt lat="45.608197515830398" lon="5.884852325543761">
        <ele>206.19999694824219</ele>
        <time>2014-05-18T07:58:18Z</time>
      </trkpt>
      <trkpt lat="45.607777247205377" lon="5.885055335238576">
        <ele>205.60000610351562</ele>
        <time>2014-05-18T07:58:25Z</time>
      </trkpt>
      <trkpt lat="45.607425626367331" lon="5.885220458731055">
        <ele>206</ele>
        <time>2014-05-18T07:58:31Z</time>
      </trkpt>
      <trkpt lat="45.607091439887881" lon="5.885361274704337">
        <ele>206.60000610351562</ele>
        <time>2014-05-18T07:58:37Z</time>
      </trkpt>
      <trkpt lat="45.606860853731632" lon="5.88546697050333">
        <ele>206.60000610351562</ele>
        <time>2014-05-18T07:58:41Z</time>
      </trkpt>
      <trkpt lat="45.606747446581721" lon="5.885518603026867">
        <ele>206.60000610351562</ele>
        <time>2014-05-18T07:58:43Z</time>
      </trkpt>
      <trkpt lat="45.60630370862782" lon="5.885738292708993">
        <ele>206.80000305175781</ele>
        <time>2014-05-18T07:58:51Z</time>
      </trkpt>
      <trkpt lat="45.606201365590096" lon="5.885807275772095">
        <ele>207</ele>
        <time>2014-05-18T07:58:53Z</time>
      </trkpt>
      <trkpt lat="45.606158450245857" lon="5.885841893032193">
        <ele>207.19999694824219</ele>
        <time>2014-05-18T07:58:54Z</time>
      </trkpt>
      <trkpt lat="45.606120815500617" lon="5.885868966579437">
        <ele>207.60000610351562</ele>
        <time>2014-05-18T07:58:55Z</time>
      </trkpt>
      <trkpt lat="45.606059208512306" lon="5.885906182229519">
        <ele>208.60000610351562</ele>
        <time>2014-05-18T07:58:57Z</time>
      </trkpt>
      <trkpt lat="45.605921829119325" lon="5.885959658771753">
        <ele>208.80000305175781</ele>
        <time>2014-05-18T07:59:01Z</time>
      </trkpt>
      <trkpt lat="45.605874639004469" lon="5.885977931320667">
        <ele>208.39999389648437</ele>
        <time>2014-05-18T07:59:02Z</time>
      </trkpt>
      <trkpt lat="45.605733152478933" lon="5.886097708716989">
        <ele>207.60000610351562</ele>
        <time>2014-05-18T07:59:05Z</time>
      </trkpt>
      <trkpt lat="45.605676071718335" lon="5.886114137247205">
        <ele>207.19999694824219</ele>
        <time>2014-05-18T07:59:06Z</time>
      </trkpt>
      <trkpt lat="45.60561865568161" lon="5.886120088398457">
        <ele>207</ele>
        <time>2014-05-18T07:59:07Z</time>
      </trkpt>
      <trkpt lat="45.605563083663583" lon="5.886135092005134">
        <ele>206.60000610351562</ele>
        <time>2014-05-18T07:59:08Z</time>
      </trkpt>
      <trkpt lat="45.60546426102519" lon="5.886175408959389">
        <ele>206.19999694824219</ele>
        <time>2014-05-18T07:59:10Z</time>
      </trkpt>
      <trkpt lat="45.605359151959419" lon="5.886222682893276">
        <ele>206.19999694824219</ele>
        <time>2014-05-18T07:59:12Z</time>
      </trkpt>
      <trkpt lat="45.605016332119703" lon="5.88638705201447">
        <ele>207.19999694824219</ele>
        <time>2014-05-18T07:59:19Z</time>
      </trkpt>
      <trkpt lat="45.604930417612195" lon="5.886443462222815">
        <ele>207.60000610351562</ele>
        <time>2014-05-18T07:59:21Z</time>
      </trkpt>
      <trkpt lat="45.604729168117046" lon="5.886575393378735">
        <ele>207.60000610351562</ele>
        <time>2014-05-18T07:59:25Z</time>
      </trkpt>
      <trkpt lat="45.604552058503032" lon="5.886724172160029">
        <ele>207.19999694824219</ele>
        <time>2014-05-18T07:59:28Z</time>
      </trkpt>
      <trkpt lat="45.604434041306376" lon="5.886836824938655">
        <ele>207.19999694824219</ele>
        <time>2014-05-18T07:59:30Z</time>
      </trkpt>
      <trkpt lat="45.604085102677345" lon="5.887179477140307">
        <ele>207.60000610351562</ele>
        <time>2014-05-18T07:59:36Z</time>
      </trkpt>
      <trkpt lat="45.603747563436627" lon="5.887557584792376">
        <ele>207.19999694824219</ele>
        <time>2014-05-18T07:59:42Z</time>
      </trkpt>
      <trkpt lat="45.603532651439309" lon="5.887794625014067">
        <ele>207.80000305175781</ele>
        <time>2014-05-18T07:59:46Z</time>
      </trkpt>
      <trkpt lat="45.603427123278379" lon="5.887906858697534">
        <ele>207.80000305175781</ele>
        <time>2014-05-18T07:59:48Z</time>
      </trkpt>
      <trkpt lat="45.603126380592585" lon="5.888254204764962">
        <ele>207.60000610351562</ele>
        <time>2014-05-18T07:59:54Z</time>
      </trkpt>
      <trkpt lat="45.602871989831328" lon="5.888525443151593">
        <ele>207.60000610351562</ele>
        <time>2014-05-18T07:59:59Z</time>
      </trkpt>
      <trkpt lat="45.602780375629663" lon="5.888632647693157">
        <ele>207.80000305175781</ele>
        <time>2014-05-18T08:00:01Z</time>
      </trkpt>
      <trkpt lat="45.602585999295115" lon="5.888834483921528">
        <ele>208.19999694824219</ele>
        <time>2014-05-18T08:00:05Z</time>
      </trkpt>
      <trkpt lat="45.602540904656053" lon="5.888877734541893">
        <ele>208.19999694824219</ele>
        <time>2014-05-18T08:00:06Z</time>
      </trkpt>
      <trkpt lat="45.602505197748542" lon="5.888919979333878">
        <ele>208.19999694824219</ele>
        <time>2014-05-18T08:00:07Z</time>
      </trkpt>
      <trkpt lat="45.602450547739863" lon="5.888983262702823">
        <ele>209.19999694824219</ele>
        <time>2014-05-18T08:00:09Z</time>
      </trkpt>
      <trkpt lat="45.602426491677761" lon="5.889013772830367">
        <ele>209.80000305175781</ele>
        <time>2014-05-18T08:00:10Z</time>
      </trkpt>
      <trkpt lat="45.602385504171252" lon="5.889000110328198">
        <ele>210.19999694824219</ele>
        <time>2014-05-18T08:00:12Z</time>
      </trkpt>
      <trkpt lat="45.602365555241704" lon="5.888978149741888">
        <ele>210.19999694824219</ele>
        <time>2014-05-18T08:00:13Z</time>
      </trkpt>
      <trkpt lat="45.602253824472427" lon="5.888847811147571">
        <ele>210.60000610351562</ele>
        <time>2014-05-18T08:00:18Z</time>
      </trkpt>
      <trkpt lat="45.602194899693131" lon="5.888822078704834">
        <ele>210.39999389648437</ele>
        <time>2014-05-18T08:00:21Z</time>
      </trkpt>
      <trkpt lat="45.602178554981947" lon="5.888840854167938">
        <ele>210.19999694824219</ele>
        <time>2014-05-18T08:00:22Z</time>
      </trkpt>
      <trkpt lat="45.602124072611332" lon="5.88891914114356">
        <ele>209</ele>
        <time>2014-05-18T08:00:24Z</time>
      </trkpt>
      <trkpt lat="45.602084510028362" lon="5.888973455876112">
        <ele>208.39999389648437</ele>
        <time>2014-05-18T08:00:25Z</time>
      </trkpt>
      <trkpt lat="45.602034805342555" lon="5.889035062864423">
        <ele>207.60000610351562</ele>
        <time>2014-05-18T08:00:26Z</time>
      </trkpt>
      <trkpt lat="45.601980490610003" lon="5.889097088947892">
        <ele>207.19999694824219</ele>
        <time>2014-05-18T08:00:27Z</time>
      </trkpt>
      <trkpt lat="45.601811176165938" lon="5.889294734224677">
        <ele>206.39999389648437</ele>
        <time>2014-05-18T08:00:30Z</time>
      </trkpt>
      <trkpt lat="45.601746970787644" lon="5.889359191060066">
        <ele>206.39999389648437</ele>
        <time>2014-05-18T08:00:31Z</time>
      </trkpt>
      <trkpt lat="45.601572459563613" lon="5.889517609030008">
        <ele>207.60000610351562</ele>
        <time>2014-05-18T08:00:34Z</time>
      </trkpt>
      <trkpt lat="45.601526694372296" lon="5.889567229896784">
        <ele>208.60000610351562</ele>
        <time>2014-05-18T08:00:35Z</time>
      </trkpt>
      <trkpt lat="45.60148386284709" lon="5.889617186039686">
        <ele>209.60000610351562</ele>
        <time>2014-05-18T08:00:36Z</time>
      </trkpt>
      <trkpt lat="45.601444467902184" lon="5.889669237658382">
        <ele>210.39999389648437</ele>
        <time>2014-05-18T08:00:37Z</time>
      </trkpt>
      <trkpt lat="45.601405240595341" lon="5.889726150780916">
        <ele>211</ele>
        <time>2014-05-18T08:00:38Z</time>
      </trkpt>
      <trkpt lat="45.601359810680151" lon="5.889786081388593">
        <ele>211</ele>
        <time>2014-05-18T08:00:39Z</time>
      </trkpt>
      <trkpt lat="45.60101087205112" lon="5.890232753008604">
        <ele>210</ele>
        <time>2014-05-18T08:00:46Z</time>
      </trkpt>
      <trkpt lat="45.600701160728931" lon="5.890507511794567">
        <ele>211.80000305175781</ele>
        <time>2014-05-18T08:00:52Z</time>
      </trkpt>
      <trkpt lat="45.600604433566332" lon="5.890586217865348">
        <ele>212</ele>
        <time>2014-05-18T08:00:54Z</time>
      </trkpt>
      <trkpt lat="45.600405782461166" lon="5.890711108222604">
        <ele>212.19999694824219</ele>
        <time>2014-05-18T08:00:58Z</time>
      </trkpt>
      <trkpt lat="45.60013085603714" lon="5.890826275572181">
        <ele>210.39999389648437</ele>
        <time>2014-05-18T08:01:02Z</time>
      </trkpt>
      <trkpt lat="45.599977802485228" lon="5.890898695215583">
        <ele>209.60000610351562</ele>
        <time>2014-05-18T08:01:04Z</time>
      </trkpt>
      <trkpt lat="45.599899431690574" lon="5.890938760712743">
        <ele>209.39999389648437</ele>
        <time>2014-05-18T08:01:05Z</time>
      </trkpt>
      <trkpt lat="45.599746126681566" lon="5.891014197841287">
        <ele>209.19999694824219</ele>
        <time>2014-05-18T08:01:07Z</time>
      </trkpt>
      <trkpt lat="45.599225023761392" lon="5.891217794269323">
        <ele>209.19999694824219</ele>
        <time>2014-05-18T08:01:14Z</time>
      </trkpt>
      <trkpt lat="45.59915360994637" lon="5.891239335760474">
        <ele>209.39999389648437</ele>
        <time>2014-05-18T08:01:15Z</time>
      </trkpt>
      <trkpt lat="45.598744824528694" lon="5.89139012619853">
        <ele>209.80000305175781</ele>
        <time>2014-05-18T08:01:21Z</time>
      </trkpt>
      <trkpt lat="45.598188098520041" lon="5.891665555536747">
        <ele>209.60000610351562</ele>
        <time>2014-05-18T08:01:29Z</time>
      </trkpt>
      <trkpt lat="45.597867574542761" lon="5.891819866374135">
        <ele>210.80000305175781</ele>
        <time>2014-05-18T08:01:34Z</time>
      </trkpt>
      <trkpt lat="45.59775223955512" lon="5.89189195074141">
        <ele>210.80000305175781</ele>
        <time>2014-05-18T08:01:36Z</time>
      </trkpt>
      <trkpt lat="45.597291486337781" lon="5.892114825546742">
        <ele>210.80000305175781</ele>
        <time>2014-05-18T08:01:44Z</time>
      </trkpt>
      <trkpt lat="45.597235914319754" lon="5.892133349552751">
        <ele>210.80000305175781</ele>
        <time>2014-05-18T08:01:45Z</time>
      </trkpt>
      <trkpt lat="45.597133403643966" lon="5.892172660678625">
        <ele>210.80000305175781</ele>
        <time>2014-05-18T08:01:47Z</time>
      </trkpt>
      <trkpt lat="45.597035000100732" lon="5.892239883542061">
        <ele>210.80000305175781</ele>
        <time>2014-05-18T08:01:49Z</time>
      </trkpt>
      <trkpt lat="45.596983199939132" lon="5.892267460003495">
        <ele>210.80000305175781</ele>
        <time>2014-05-18T08:01:50Z</time>
      </trkpt>
      <trkpt lat="45.59675588272512" lon="5.8923380356282">
        <ele>210.39999389648437</ele>
        <time>2014-05-18T08:01:54Z</time>
      </trkpt>
      <trkpt lat="45.596475088968873" lon="5.892416490241885">
        <ele>210.39999389648437</ele>
        <time>2014-05-18T08:01:59Z</time>
      </trkpt>
      <trkpt lat="45.596367632970214" lon="5.892446162179112">
        <ele>210.60000610351562</ele>
        <time>2014-05-18T08:02:01Z</time>
      </trkpt>
      <trkpt lat="45.596313402056694" lon="5.892450520768762">
        <ele>210.60000610351562</ele>
        <time>2014-05-18T08:02:02Z</time>
      </trkpt>
      <trkpt lat="45.596096394583583" lon="5.892463261261582">
        <ele>211</ele>
        <time>2014-05-18T08:02:06Z</time>
      </trkpt>
      <trkpt lat="45.595984412357211" lon="5.892494358122349">
        <ele>211.19999694824219</ele>
        <time>2014-05-18T08:02:08Z</time>
      </trkpt>
      <trkpt lat="45.595528017729521" lon="5.892618829384446">
        <ele>210.39999389648437</ele>
        <time>2014-05-18T08:02:15Z</time>
      </trkpt>
      <trkpt lat="45.595078831538558" lon="5.892757968977094">
        <ele>210.39999389648437</ele>
        <time>2014-05-18T08:02:22Z</time>
      </trkpt>
      <trkpt lat="45.595023427158594" lon="5.892792418599129">
        <ele>210.60000610351562</ele>
        <time>2014-05-18T08:02:23Z</time>
      </trkpt>
      <trkpt lat="45.594923179596663" lon="5.892862910404801">
        <ele>210.80000305175781</ele>
        <time>2014-05-18T08:02:25Z</time>
      </trkpt>
      <trkpt lat="45.594826536253095" lon="5.892944969236851">
        <ele>210.80000305175781</ele>
        <time>2014-05-18T08:02:27Z</time>
      </trkpt>
      <trkpt lat="45.594777502119541" lon="5.892973551526666">
        <ele>210.80000305175781</ele>
        <time>2014-05-18T08:02:28Z</time>
      </trkpt>
      <trkpt lat="45.59467876330018" lon="5.893018310889602">
        <ele>211</ele>
        <time>2014-05-18T08:02:30Z</time>
      </trkpt>
      <trkpt lat="45.594621933996677" lon="5.893047479912639">
        <ele>210.80000305175781</ele>
        <time>2014-05-18T08:02:31Z</time>
      </trkpt>
      <trkpt lat="45.594463683664799" lon="5.893188379704952">
        <ele>210.60000610351562</ele>
        <time>2014-05-18T08:02:34Z</time>
      </trkpt>
      <trkpt lat="45.594411883503199" lon="5.893232468515635">
        <ele>210.80000305175781</ele>
        <time>2014-05-18T08:02:35Z</time>
      </trkpt>
      <trkpt lat="45.594212897121906" lon="5.893432041630149">
        <ele>211.39999389648437</ele>
        <time>2014-05-18T08:02:39Z</time>
      </trkpt>
      <trkpt lat="45.594109548255801" lon="5.893541844561696">
        <ele>211.19999694824219</ele>
        <time>2014-05-18T08:02:41Z</time>
      </trkpt>
      <trkpt lat="45.593713168054819" lon="5.894003268331289">
        <ele>211</ele>
        <time>2014-05-18T08:02:49Z</time>
      </trkpt>
      <trkpt lat="45.593389710411429" lon="5.894424039870501">
        <ele>211</ele>
        <time>2014-05-18T08:02:56Z</time>
      </trkpt>
      <trkpt lat="45.593135738745332" lon="5.894778426736593">
        <ele>212.19999694824219</ele>
        <time>2014-05-18T08:03:02Z</time>
      </trkpt>
      <trkpt lat="45.593056697398424" lon="5.894894599914551">
        <ele>212.39999389648437</ele>
        <time>2014-05-18T08:03:04Z</time>
      </trkpt>
      <trkpt lat="45.592727456241846" lon="5.895337918773294">
        <ele>212.39999389648437</ele>
        <time>2014-05-18T08:03:12Z</time>
      </trkpt>
      <trkpt lat="45.592439454048872" lon="5.895747458562255">
        <ele>212.19999694824219</ele>
        <time>2014-05-18T08:03:19Z</time>
      </trkpt>
      <trkpt lat="45.592098394408822" lon="5.896186167374253">
        <ele>212.39999389648437</ele>
        <time>2014-05-18T08:03:27Z</time>
      </trkpt>
      <trkpt lat="45.591692291200161" lon="5.896791173145175">
        <ele>212.60000610351562</ele>
        <time>2014-05-18T08:03:37Z</time>
      </trkpt>
      <trkpt lat="45.591657171025872" lon="5.896854205057025">
        <ele>212.60000610351562</ele>
        <time>2014-05-18T08:03:38Z</time>
      </trkpt>
      <trkpt lat="45.591443600133061" lon="5.89713592082262">
        <ele>212.39999389648437</ele>
        <time>2014-05-18T08:03:43Z</time>
      </trkpt>
      <trkpt lat="45.591113353148103" lon="5.897475136443973">
        <ele>213</ele>
        <time>2014-05-18T08:03:50Z</time>
      </trkpt>
      <trkpt lat="45.591026684269309" lon="5.897579826414585">
        <ele>213.19999694824219</ele>
        <time>2014-05-18T08:03:52Z</time>
      </trkpt>
      <trkpt lat="45.590763408690691" lon="5.897904876619577">
        <ele>213.60000610351562</ele>
        <time>2014-05-18T08:03:58Z</time>
      </trkpt>
      <trkpt lat="45.590415727347136" lon="5.898396810516715">
        <ele>213.39999389648437</ele>
        <time>2014-05-18T08:04:06Z</time>
      </trkpt>
      <trkpt lat="45.590071147307754" lon="5.898815570399165">
        <ele>213.39999389648437</ele>
        <time>2014-05-18T08:04:13Z</time>
      </trkpt>
      <trkpt lat="45.589854391291738" lon="5.899112457409501">
        <ele>213.80000305175781</ele>
        <time>2014-05-18T08:04:18Z</time>
      </trkpt>
      <trkpt lat="45.589777361601591" lon="5.899225613102317">
        <ele>214.60000610351562</ele>
        <time>2014-05-18T08:04:20Z</time>
      </trkpt>
      <trkpt lat="45.589657668024302" lon="5.899390988051891">
        <ele>214.80000305175781</ele>
        <time>2014-05-18T08:04:23Z</time>
      </trkpt>
      <trkpt lat="45.589616093784571" lon="5.899448990821838">
        <ele>214.80000305175781</ele>
        <time>2014-05-18T08:04:24Z</time>
      </trkpt>
      <trkpt lat="45.589412413537502" lon="5.899748140946031">
        <ele>214.80000305175781</ele>
        <time>2014-05-18T08:04:29Z</time>
      </trkpt>
      <trkpt lat="45.589332785457373" lon="5.899868672713637">
        <ele>214.80000305175781</ele>
        <time>2014-05-18T08:04:31Z</time>
      </trkpt>
      <trkpt lat="45.589140839874744" lon="5.900186765938997">
        <ele>214.60000610351562</ele>
        <time>2014-05-18T08:04:36Z</time>
      </trkpt>
      <trkpt lat="45.589073533192277" lon="5.900337975472212">
        <ele>214.19999694824219</ele>
        <time>2014-05-18T08:04:38Z</time>
      </trkpt>
      <trkpt lat="45.588993905112147" lon="5.900527909398079">
        <ele>212.80000305175781</ele>
        <time>2014-05-18T08:04:40Z</time>
      </trkpt>
      <trkpt lat="45.588941602036357" lon="5.900619691237807">
        <ele>212.19999694824219</ele>
        <time>2014-05-18T08:04:41Z</time>
      </trkpt>
      <trkpt lat="45.588885610923171" lon="5.900697894394398">
        <ele>211.60000610351562</ele>
        <time>2014-05-18T08:04:42Z</time>
      </trkpt>
      <trkpt lat="45.588712356984615" lon="5.90085874311626">
        <ele>212</ele>
        <time>2014-05-18T08:04:45Z</time>
      </trkpt>
      <trkpt lat="45.588658377528191" lon="5.900893528014422">
        <ele>212.39999389648437</ele>
        <time>2014-05-18T08:04:46Z</time>
      </trkpt>
      <trkpt lat="45.588612025603652" lon="5.900926720350981">
        <ele>213.19999694824219</ele>
        <time>2014-05-18T08:04:47Z</time>
      </trkpt>
      <trkpt lat="45.588533990085125" lon="5.901000816375017">
        <ele>215</ele>
        <time>2014-05-18T08:04:49Z</time>
      </trkpt>
      <trkpt lat="45.588463079184294" lon="5.901096202433109">
        <ele>215.80000305175781</ele>
        <time>2014-05-18T08:04:51Z</time>
      </trkpt>
      <trkpt lat="45.58842577971518" lon="5.901147080585361">
        <ele>216</ele>
        <time>2014-05-18T08:04:52Z</time>
      </trkpt>
      <trkpt lat="45.588307930156589" lon="5.90130633674562">
        <ele>215.39999389648437</ele>
        <time>2014-05-18T08:04:55Z</time>
      </trkpt>
      <trkpt lat="45.588136687874794" lon="5.901531642302871">
        <ele>215</ele>
        <time>2014-05-18T08:04:59Z</time>
      </trkpt>
      <trkpt lat="45.58795278891921" lon="5.901763066649437">
        <ele>214.80000305175781</ele>
        <time>2014-05-18T08:05:03Z</time>
      </trkpt>
      <trkpt lat="45.587523970752954" lon="5.902311746031046">
        <ele>214.19999694824219</ele>
        <time>2014-05-18T08:05:12Z</time>
      </trkpt>
      <trkpt lat="45.587475271895528" lon="5.902377795428038">
        <ele>214.60000610351562</ele>
        <time>2014-05-18T08:05:13Z</time>
      </trkpt>
      <trkpt lat="45.58711820282042" lon="5.902871740981937">
        <ele>215.39999389648437</ele>
        <time>2014-05-18T08:05:21Z</time>
      </trkpt>
      <trkpt lat="45.5867531709373" lon="5.903358813375235">
        <ele>215.80000305175781</ele>
        <time>2014-05-18T08:05:29Z</time>
      </trkpt>
      <trkpt lat="45.586593998596072" lon="5.903613958507776">
        <ele>216</ele>
        <time>2014-05-18T08:05:33Z</time>
      </trkpt>
      <trkpt lat="45.586394676938653" lon="5.903912605717778">
        <ele>216.60000610351562</ele>
        <time>2014-05-18T08:05:38Z</time>
      </trkpt>
      <trkpt lat="45.586313791573048" lon="5.904032550752163">
        <ele>216.60000610351562</ele>
        <time>2014-05-18T08:05:40Z</time>
      </trkpt>
      <trkpt lat="45.586131820455194" lon="5.904249222949147">
        <ele>216.19999694824219</ele>
        <time>2014-05-18T08:05:44Z</time>
      </trkpt>
      <trkpt lat="45.585896959528327" lon="5.904491879045963">
        <ele>216.60000610351562</ele>
        <time>2014-05-18T08:05:49Z</time>
      </trkpt>
      <trkpt lat="45.58554919436574" lon="5.904779462143779">
        <ele>217</ele>
        <time>2014-05-18T08:05:56Z</time>
      </trkpt>
      <trkpt lat="45.585500411689281" lon="5.904822880402207">
        <ele>217</ele>
        <time>2014-05-18T08:05:57Z</time>
      </trkpt>
      <trkpt lat="45.585116688162088" lon="5.905185816809535">
        <ele>217.19999694824219</ele>
        <time>2014-05-18T08:06:05Z</time>
      </trkpt>
      <trkpt lat="45.584847964346409" lon="5.905580688267946">
        <ele>217.60000610351562</ele>
        <time>2014-05-18T08:06:12Z</time>
      </trkpt>
      <trkpt lat="45.584700694307685" lon="5.905813621357083">
        <ele>218</ele>
        <time>2014-05-18T08:06:16Z</time>
      </trkpt>
      <trkpt lat="45.58466867543757" lon="5.905874390155077">
        <ele>218.19999694824219</ele>
        <time>2014-05-18T08:06:17Z</time>
      </trkpt>
      <trkpt lat="45.584633890539408" lon="5.90593121945858">
        <ele>218</ele>
        <time>2014-05-18T08:06:18Z</time>
      </trkpt>
      <trkpt lat="45.584596255794168" lon="5.905985869467259">
        <ele>217.80000305175781</ele>
        <time>2014-05-18T08:06:19Z</time>
      </trkpt>
      <trkpt lat="45.584468599408865" lon="5.906151244416833">
        <ele>217.80000305175781</ele>
        <time>2014-05-18T08:06:22Z</time>
      </trkpt>
      <trkpt lat="45.584373632445931" lon="5.906254760921001">
        <ele>217.80000305175781</ele>
        <time>2014-05-18T08:06:24Z</time>
      </trkpt>
      <trkpt lat="45.584288639947772" lon="5.906360372900963">
        <ele>217.80000305175781</ele>
        <time>2014-05-18T08:06:26Z</time>
      </trkpt>
      <trkpt lat="45.584149165078998" lon="5.906462129205465">
        <ele>218</ele>
        <time>2014-05-18T08:06:29Z</time>
      </trkpt>
      <trkpt lat="45.583983873948455" lon="5.906461291015148">
        <ele>217.80000305175781</ele>
        <time>2014-05-18T08:06:32Z</time>
      </trkpt>
      <trkpt lat="45.583869880065322" lon="5.906470511108637">
        <ele>217.80000305175781</ele>
        <time>2014-05-18T08:06:34Z</time>
      </trkpt>
      <trkpt lat="45.58364256285131" lon="5.906590288504958">
        <ele>218</ele>
        <time>2014-05-18T08:06:38Z</time>
      </trkpt>
      <trkpt lat="45.583234447985888" lon="5.906716017052531">
        <ele>218.19999694824219</ele>
        <time>2014-05-18T08:06:45Z</time>
      </trkpt>
      <trkpt lat="45.582760786637664" lon="5.906818779185414">
        <ele>218.60000610351562</ele>
        <time>2014-05-18T08:06:53Z</time>
      </trkpt>
      <trkpt lat="45.582426516339183" lon="5.906959511339665">
        <ele>216.80000305175781</ele>
        <time>2014-05-18T08:06:58Z</time>
      </trkpt>
      <trkpt lat="45.582355856895447" lon="5.906985076144338">
        <ele>216.19999694824219</ele>
        <time>2014-05-18T08:06:59Z</time>
      </trkpt>
      <trkpt lat="45.582190481945872" lon="5.907050371170044">
        <ele>217.80000305175781</ele>
        <time>2014-05-18T08:07:02Z</time>
      </trkpt>
      <trkpt lat="45.582116050645709" lon="5.907126897946">
        <ele>218.80000305175781</ele>
        <time>2014-05-18T08:07:04Z</time>
      </trkpt>
      <trkpt lat="45.582045391201973" lon="5.907217087224126">
        <ele>219.19999694824219</ele>
        <time>2014-05-18T08:07:06Z</time>
      </trkpt>
      <trkpt lat="45.58200323022902" lon="5.90725053101778">
        <ele>219.19999694824219</ele>
        <time>2014-05-18T08:07:07Z</time>
      </trkpt>
      <trkpt lat="45.581862581893802" lon="5.907309707254171">
        <ele>219.19999694824219</ele>
        <time>2014-05-18T08:07:10Z</time>
      </trkpt>
      <trkpt lat="45.581496125087142" lon="5.907474160194397">
        <ele>219.19999694824219</ele>
        <time>2014-05-18T08:07:17Z</time>
      </trkpt>
      <trkpt lat="45.581087004393339" lon="5.907631572335959">
        <ele>219</ele>
        <time>2014-05-18T08:07:24Z</time>
      </trkpt>
      <trkpt lat="45.580752231180668" lon="5.907747074961662">
        <ele>219.80000305175781</ele>
        <time>2014-05-18T08:07:30Z</time>
      </trkpt>
      <trkpt lat="45.58069808408618" lon="5.907764509320259">
        <ele>220.19999694824219</ele>
        <time>2014-05-18T08:07:31Z</time>
      </trkpt>
      <trkpt lat="45.580266499891877" lon="5.907940613105893">
        <ele>220.60000610351562</ele>
        <time>2014-05-18T08:07:39Z</time>
      </trkpt>
      <trkpt lat="45.579990819096565" lon="5.908042034134269">
        <ele>221</ele>
        <time>2014-05-18T08:07:44Z</time>
      </trkpt>
      <trkpt lat="45.579768028110266" lon="5.908117638900876">
        <ele>221.19999694824219</ele>
        <time>2014-05-18T08:07:48Z</time>
      </trkpt>
      <trkpt lat="45.579711450263858" lon="5.908126775175333">
        <ele>221</ele>
        <time>2014-05-18T08:07:49Z</time>
      </trkpt>
      <trkpt lat="45.579497292637825" lon="5.908111771568656">
        <ele>221.39999389648437</ele>
        <time>2014-05-18T08:07:53Z</time>
      </trkpt>
      <trkpt lat="45.57901231572032" lon="5.908064497634769">
        <ele>221.80000305175781</ele>
        <time>2014-05-18T08:08:02Z</time>
      </trkpt>
      <trkpt lat="45.578799666836858" lon="5.908038094639778">
        <ele>222</ele>
        <time>2014-05-18T08:08:06Z</time>
      </trkpt>
      <trkpt lat="45.578632615506649" lon="5.90801521204412">
        <ele>222.19999694824219</ele>
        <time>2014-05-18T08:08:09Z</time>
      </trkpt>
      <trkpt lat="45.578313935548067" lon="5.907911779358983">
        <ele>222.39999389648437</ele>
        <time>2014-05-18T08:08:15Z</time>
      </trkpt>
      <trkpt lat="45.577955860644579" lon="5.907708685845137">
        <ele>223.19999694824219</ele>
        <time>2014-05-18T08:08:22Z</time>
      </trkpt>
      <trkpt lat="45.577749749645591" lon="5.90759695507586">
        <ele>223.19999694824219</ele>
        <time>2014-05-18T08:08:26Z</time>
      </trkpt>
      <trkpt lat="45.57764170691371" lon="5.907539539039135">
        <ele>223.39999389648437</ele>
        <time>2014-05-18T08:08:28Z</time>
      </trkpt>
      <trkpt lat="45.577136110514402" lon="5.907252626493573">
        <ele>224.19999694824219</ele>
        <time>2014-05-18T08:08:38Z</time>
      </trkpt>
      <trkpt lat="45.577086070552468" lon="5.907220020890236">
        <ele>224.39999389648437</ele>
        <time>2014-05-18T08:08:39Z</time>
      </trkpt>
      <trkpt lat="45.576703939586878" lon="5.907002259045839">
        <ele>224.80000305175781</ele>
        <time>2014-05-18T08:08:47Z</time>
      </trkpt>
      <trkpt lat="45.576565135270357" lon="5.906921876594424">
        <ele>225.39999389648437</ele>
        <time>2014-05-18T08:08:50Z</time>
      </trkpt>
      <trkpt lat="45.576517693698406" lon="5.906901424750686">
        <ele>225.60000610351562</ele>
        <time>2014-05-18T08:08:51Z</time>
      </trkpt>
      <trkpt lat="45.576395317912102" lon="5.906837889924645">
        <ele>226</ele>
        <time>2014-05-18T08:08:54Z</time>
      </trkpt>
      <trkpt lat="45.576254753395915" lon="5.906758680939674">
        <ele>226.60000610351562</ele>
        <time>2014-05-18T08:08:58Z</time>
      </trkpt>
      <trkpt lat="45.576194822788239" lon="5.906722974032164">
        <ele>226.80000305175781</ele>
        <time>2014-05-18T08:09:00Z</time>
      </trkpt>
      <trkpt lat="45.576110919937491" lon="5.906662456691265">
        <ele>227.60000610351562</ele>
        <time>2014-05-18T08:09:04Z</time>
      </trkpt>
      <trkpt lat="45.576101029291749" lon="5.906641250476241">
        <ele>227.60000610351562</ele>
        <time>2014-05-18T08:09:05Z</time>
      </trkpt>
      <trkpt lat="45.576047301292419" lon="5.906567070633173">
        <ele>227.80000305175781</ele>
        <time>2014-05-18T08:09:49Z</time>
      </trkpt>
      <trkpt lat="45.57602877728641" lon="5.906563298776746">
        <ele>227.80000305175781</ele>
        <time>2014-05-18T08:09:50Z</time>
      </trkpt>
      <trkpt lat="45.575981251895428" lon="5.906586851924658">
        <ele>228</ele>
        <time>2014-05-18T08:09:53Z</time>
      </trkpt>
      <trkpt lat="45.575968930497766" lon="5.906614931300283">
        <ele>228</ele>
        <time>2014-05-18T08:10:12Z</time>
      </trkpt>
      <trkpt lat="45.575947389006615" lon="5.906757842749357">
        <ele>228</ele>
        <time>2014-05-18T08:10:17Z</time>
      </trkpt>
      <trkpt lat="45.575921991840005" lon="5.906850462779403">
        <ele>228.19999694824219</ele>
        <time>2014-05-18T08:10:26Z</time>
      </trkpt>
      <trkpt lat="45.575865246355534" lon="5.907022459432483">
        <ele>227.60000610351562</ele>
        <time>2014-05-18T08:10:30Z</time>
      </trkpt>
      <trkpt lat="45.575762819498777" lon="5.907346168532968">
        <ele>226.60000610351562</ele>
        <time>2014-05-18T08:10:35Z</time>
      </trkpt>
      <trkpt lat="45.575746474787593" lon="5.907419761642814">
        <ele>226.39999389648437</ele>
        <time>2014-05-18T08:10:36Z</time>
      </trkpt>
      <trkpt lat="45.575690232217312" lon="5.907731233164668">
        <ele>225.39999389648437</ele>
        <time>2014-05-18T08:10:40Z</time>
      </trkpt>
      <trkpt lat="45.575676485896111" lon="5.907808933407068">
        <ele>225.19999694824219</ele>
        <time>2014-05-18T08:10:41Z</time>
      </trkpt>
      <trkpt lat="45.575595935806632" lon="5.908254431560636">
        <ele>225</ele>
        <time>2014-05-18T08:10:47Z</time>
      </trkpt>
      <trkpt lat="45.575458221137524" lon="5.90904233045876">
        <ele>224.39999389648437</ele>
        <time>2014-05-18T08:10:57Z</time>
      </trkpt>
      <trkpt lat="45.575344730168581" lon="5.909688575193286">
        <ele>224.60000610351562</ele>
        <time>2014-05-18T08:11:05Z</time>
      </trkpt>
      <trkpt lat="45.575337689369917" lon="5.909762419760227">
        <ele>224.60000610351562</ele>
        <time>2014-05-18T08:11:06Z</time>
      </trkpt>
      <trkpt lat="45.575328720733523" lon="5.909856129437685">
        <ele>225</ele>
        <time>2014-05-18T08:11:08Z</time>
      </trkpt>
      <trkpt lat="45.575316734611988" lon="5.909974062815309">
        <ele>225.39999389648437</ele>
        <time>2014-05-18T08:11:15Z</time>
      </trkpt>
      <trkpt lat="45.575263760983944" lon="5.910184448584914">
        <ele>224.80000305175781</ele>
        <time>2014-05-18T08:11:20Z</time>
      </trkpt>
      <trkpt lat="45.575235178694129" lon="5.910224933177233">
        <ele>224.80000305175781</ele>
        <time>2014-05-18T08:11:21Z</time>
      </trkpt>
      <trkpt lat="45.575155802071095" lon="5.910273883491755">
        <ele>224.60000610351562</ele>
        <time>2014-05-18T08:11:23Z</time>
      </trkpt>
      <trkpt lat="45.575066618621349" lon="5.910289473831654">
        <ele>224.60000610351562</ele>
        <time>2014-05-18T08:11:25Z</time>
      </trkpt>
      <trkpt lat="45.574922868981957" lon="5.910315038636327">
        <ele>224.80000305175781</ele>
        <time>2014-05-18T08:11:28Z</time>
      </trkpt>
      <trkpt lat="45.574621958658099" lon="5.910352673381567">
        <ele>224.39999389648437</ele>
        <time>2014-05-18T08:11:34Z</time>
      </trkpt>
      <trkpt lat="45.574463624507189" lon="5.910342950373888">
        <ele>224</ele>
        <time>2014-05-18T08:11:37Z</time>
      </trkpt>
      <trkpt lat="45.573990549892187" lon="5.910311350598931">
        <ele>224</ele>
        <time>2014-05-18T08:11:46Z</time>
      </trkpt>
      <trkpt lat="45.573564749211073" lon="5.910360300913453">
        <ele>224.19999694824219</ele>
        <time>2014-05-18T08:11:54Z</time>
      </trkpt>
      <trkpt lat="45.573071055114269" lon="5.91040849685669">
        <ele>224.80000305175781</ele>
        <time>2014-05-18T08:12:03Z</time>
      </trkpt>
      <trkpt lat="45.572575014084578" lon="5.910398522391915">
        <ele>224.80000305175781</ele>
        <time>2014-05-18T08:12:12Z</time>
      </trkpt>
      <trkpt lat="45.572475269436836" lon="5.910353427752852">
        <ele>225.39999389648437</ele>
        <time>2014-05-18T08:12:14Z</time>
      </trkpt>
      <trkpt lat="45.572389019653201" lon="5.910271788015962">
        <ele>225.19999694824219</ele>
        <time>2014-05-18T08:12:16Z</time>
      </trkpt>
      <trkpt lat="45.572343422099948" lon="5.910239182412624">
        <ele>225.19999694824219</ele>
        <time>2014-05-18T08:12:17Z</time>
      </trkpt>
      <trkpt lat="45.572245605289936" lon="5.910226022824645">
        <ele>224.80000305175781</ele>
        <time>2014-05-18T08:12:19Z</time>
      </trkpt>
      <trkpt lat="45.572155751287937" lon="5.910275727510452">
        <ele>225.80000305175781</ele>
        <time>2014-05-18T08:12:21Z</time>
      </trkpt>
      <trkpt lat="45.572129264473915" lon="5.910313026979566">
        <ele>226</ele>
        <time>2014-05-18T08:12:22Z</time>
      </trkpt>
      <trkpt lat="45.572114093229175" lon="5.910450993105769">
        <ele>226</ele>
        <time>2014-05-18T08:12:25Z</time>
      </trkpt>
      <trkpt lat="45.572118703275919" lon="5.910500781610608">
        <ele>226</ele>
        <time>2014-05-18T08:12:26Z</time>
      </trkpt>
      <trkpt lat="45.572124486789107" lon="5.910545457154512">
        <ele>225.80000305175781</ele>
        <time>2014-05-18T08:12:27Z</time>
      </trkpt>
      <trkpt lat="45.57210847735405" lon="5.910700270906091">
        <ele>225.80000305175781</ele>
        <time>2014-05-18T08:12:31Z</time>
      </trkpt>
      <trkpt lat="45.572068076580763" lon="5.910869836807251">
        <ele>226.19999694824219</ele>
        <time>2014-05-18T08:12:37Z</time>
      </trkpt>
      <trkpt lat="45.572044942528009" lon="5.910976622253656">
        <ele>226.19999694824219</ele>
        <time>2014-05-18T08:12:43Z</time>
      </trkpt>
      <trkpt lat="45.572032034397125" lon="5.910906381905079">
        <ele>226</ele>
        <time>2014-05-18T08:12:46Z</time>
      </trkpt>
      <trkpt lat="45.57201661169529" lon="5.910879392176867">
        <ele>226</ele>
        <time>2014-05-18T08:12:47Z</time>
      </trkpt>
      <trkpt lat="45.572009151801467" lon="5.910828597843647">
        <ele>225.60000610351562</ele>
        <time>2014-05-18T08:12:49Z</time>
      </trkpt>
      <trkpt lat="45.572004625573754" lon="5.910803368315101">
        <ele>225.60000610351562</ele>
        <time>2014-05-18T08:12:50Z</time>
      </trkpt>
      <trkpt lat="45.571968080475926" lon="5.910692727193236">
        <ele>225.80000305175781</ele>
        <time>2014-05-18T08:12:54Z</time>
      </trkpt>
      <trkpt lat="45.571899265050888" lon="5.91067579574883">
        <ele>226</ele>
        <time>2014-05-18T08:12:57Z</time>
      </trkpt>
      <trkpt lat="45.5718416813761" lon="5.910679651424289">
        <ele>226.19999694824219</ele>
        <time>2014-05-18T08:12:59Z</time>
      </trkpt>
      <trkpt lat="45.571710672229528" lon="5.910758525133133">
        <ele>226</ele>
        <time>2014-05-18T08:13:03Z</time>
      </trkpt>
      <trkpt lat="45.571668846532702" lon="5.910775372758508">
        <ele>225.80000305175781</ele>
        <time>2014-05-18T08:13:04Z</time>
      </trkpt>
      <trkpt lat="45.571548147127032" lon="5.910816695541143">
        <ele>225.80000305175781</ele>
        <time>2014-05-18T08:13:07Z</time>
      </trkpt>
      <trkpt lat="45.5714669264853" lon="5.910848714411259">
        <ele>225.80000305175781</ele>
        <time>2014-05-18T08:13:09Z</time>
      </trkpt>
      <trkpt lat="45.571347987279296" lon="5.910928761586547">
        <ele>225.60000610351562</ele>
        <time>2014-05-18T08:13:12Z</time>
      </trkpt>
      <trkpt lat="45.571093261241913" lon="5.911076031625271">
        <ele>225.60000610351562</ele>
        <time>2014-05-18T08:13:18Z</time>
      </trkpt>
      <trkpt lat="45.570812383666635" lon="5.911345593631268">
        <ele>225.80000305175781</ele>
        <time>2014-05-18T08:13:24Z</time>
      </trkpt>
      <trkpt lat="45.57076427154243" lon="5.911387167870998">
        <ele>225.80000305175781</ele>
        <time>2014-05-18T08:13:25Z</time>
      </trkpt>
      <trkpt lat="45.570627562701702" lon="5.911498479545116">
        <ele>225.60000610351562</ele>
        <time>2014-05-18T08:13:28Z</time>
      </trkpt>
      <trkpt lat="45.5705810431391" lon="5.911529576405883">
        <ele>225.60000610351562</ele>
        <time>2014-05-18T08:13:29Z</time>
      </trkpt>
      <trkpt lat="45.570286251604557" lon="5.911727892234922">
        <ele>225.60000610351562</ele>
        <time>2014-05-18T08:13:35Z</time>
      </trkpt>
      <trkpt lat="45.569983832538128" lon="5.911969626322389">
        <ele>225.80000305175781</ele>
        <time>2014-05-18T08:13:42Z</time>
      </trkpt>
      <trkpt lat="45.569840669631958" lon="5.912130977958441">
        <ele>226.60000610351562</ele>
        <time>2014-05-18T08:13:47Z</time>
      </trkpt>
      <trkpt lat="45.569727346301079" lon="5.912260478362441">
        <ele>226.80000305175781</ele>
        <time>2014-05-18T08:13:52Z</time>
      </trkpt>
      <trkpt lat="45.569697003811598" lon="5.912270871922374">
        <ele>226.80000305175781</ele>
        <time>2014-05-18T08:13:53Z</time>
      </trkpt>
      <trkpt lat="45.56951436214149" lon="5.912443371489644">
        <ele>226.60000610351562</ele>
        <time>2014-05-18T08:13:59Z</time>
      </trkpt>
      <trkpt lat="45.569302635267377" lon="5.912608494982123">
        <ele>226.39999389648437</ele>
        <time>2014-05-18T08:14:05Z</time>
      </trkpt>
      <trkpt lat="45.569083364680409" lon="5.912819718942046">
        <ele>226.60000610351562</ele>
        <time>2014-05-18T08:14:11Z</time>
      </trkpt>
      <trkpt lat="45.568882031366229" lon="5.913034128025174">
        <ele>226.60000610351562</ele>
        <time>2014-05-18T08:14:18Z</time>
      </trkpt>
      <trkpt lat="45.568686565384269" lon="5.913196066394448">
        <ele>227</ele>
        <time>2014-05-18T08:14:23Z</time>
      </trkpt>
      <trkpt lat="45.568433767184615" lon="5.913387089967728">
        <ele>226.80000305175781</ele>
        <time>2014-05-18T08:14:29Z</time>
      </trkpt>
      <trkpt lat="45.568151799961925" lon="5.913616921752691">
        <ele>226.60000610351562</ele>
        <time>2014-05-18T08:14:35Z</time>
      </trkpt>
      <trkpt lat="45.567964632064104" lon="5.913791852071881">
        <ele>226.19999694824219</ele>
        <time>2014-05-18T08:14:39Z</time>
      </trkpt>
      <trkpt lat="45.567875197157264" lon="5.913878018036485">
        <ele>226</ele>
        <time>2014-05-18T08:14:41Z</time>
      </trkpt>
      <trkpt lat="45.567829264327884" lon="5.913922106847167">
        <ele>225.80000305175781</ele>
        <time>2014-05-18T08:14:42Z</time>
      </trkpt>
      <trkpt lat="45.567641677334905" lon="5.914080105721951">
        <ele>226.39999389648437</ele>
        <time>2014-05-18T08:14:46Z</time>
      </trkpt>
      <trkpt lat="45.567592978477478" lon="5.914114890620112">
        <ele>226.39999389648437</ele>
        <time>2014-05-18T08:14:47Z</time>
      </trkpt>
      <trkpt lat="45.567275639623404" lon="5.914383949711919">
        <ele>226.39999389648437</ele>
        <time>2014-05-18T08:14:54Z</time>
      </trkpt>
      <trkpt lat="45.56705754250288" lon="5.914614871144295">
        <ele>226.60000610351562</ele>
        <time>2014-05-18T08:14:59Z</time>
      </trkpt>
      <trkpt lat="45.567005909979343" lon="5.914653511717916">
        <ele>226.60000610351562</ele>
        <time>2014-05-18T08:15:00Z</time>
      </trkpt>
      <trkpt lat="45.566956708207726" lon="5.914674466475844">
        <ele>226.80000305175781</ele>
        <time>2014-05-18T08:15:01Z</time>
      </trkpt>
      <trkpt lat="45.566864591091871" lon="5.914720902219415">
        <ele>227</ele>
        <time>2014-05-18T08:15:03Z</time>
      </trkpt>
      <trkpt lat="45.566658647730947" lon="5.914844954386354">
        <ele>227</ele>
        <time>2014-05-18T08:15:08Z</time>
      </trkpt>
      <trkpt lat="45.566570973023772" lon="5.914909662678838">
        <ele>226.39999389648437</ele>
        <time>2014-05-18T08:15:10Z</time>
      </trkpt>
      <trkpt lat="45.566347846761346" lon="5.91512474231422">
        <ele>226</ele>
        <time>2014-05-18T08:15:15Z</time>
      </trkpt>
      <trkpt lat="45.566303003579378" lon="5.915167657658458">
        <ele>225.80000305175781</ele>
        <time>2014-05-18T08:15:16Z</time>
      </trkpt>
      <trkpt lat="45.566072501242161" lon="5.915333200246096">
        <ele>226.19999694824219</ele>
        <time>2014-05-18T08:15:21Z</time>
      </trkpt>
      <trkpt lat="45.56567276827991" lon="5.915644839406014">
        <ele>227.19999694824219</ele>
        <time>2014-05-18T08:15:30Z</time>
      </trkpt>
      <trkpt lat="45.565633708611131" lon="5.915663866326213">
        <ele>227.19999694824219</ele>
        <time>2014-05-18T08:15:31Z</time>
      </trkpt>
      <trkpt lat="45.565527761355042" lon="5.915654394775629">
        <ele>228.19999694824219</ele>
        <time>2014-05-18T08:15:34Z</time>
      </trkpt>
      <trkpt lat="45.565496329218149" lon="5.915642660111189">
        <ele>228.39999389648437</ele>
        <time>2014-05-18T08:15:35Z</time>
      </trkpt>
      <trkpt lat="45.565404044464231" lon="5.915559763088822">
        <ele>229.39999389648437</ele>
        <time>2014-05-18T08:15:38Z</time>
      </trkpt>
      <trkpt lat="45.565355513244867" lon="5.915488684549928">
        <ele>229.80000305175781</ele>
        <time>2014-05-18T08:15:40Z</time>
      </trkpt>
      <trkpt lat="45.565239507704973" lon="5.91529531404376">
        <ele>230.39999389648437</ele>
        <time>2014-05-18T08:15:45Z</time>
      </trkpt>
      <trkpt lat="45.565191060304642" lon="5.915225744247437">
        <ele>230.80000305175781</ele>
        <time>2014-05-18T08:15:47Z</time>
      </trkpt>
      <trkpt lat="45.565126100555062" lon="5.915109822526574">
        <ele>231.80000305175781</ele>
        <time>2014-05-18T08:15:50Z</time>
      </trkpt>
      <trkpt lat="45.565085867419839" lon="5.915039917454124">
        <ele>233</ele>
        <time>2014-05-18T08:15:52Z</time>
      </trkpt>
      <trkpt lat="45.565056949853897" lon="5.914987698197365">
        <ele>233.60000610351562</ele>
        <time>2014-05-18T08:15:54Z</time>
      </trkpt>
      <trkpt lat="45.565033396705985" lon="5.914955511689186">
        <ele>234</ele>
        <time>2014-05-18T08:15:56Z</time>
      </trkpt>
      <trkpt lat="45.564999030902982" lon="5.914900358766317">
        <ele>234.80000305175781</ele>
        <time>2014-05-18T08:16:00Z</time>
      </trkpt>
      <trkpt lat="45.564975142478943" lon="5.914858700707555">
        <ele>235</ele>
        <time>2014-05-18T08:16:07Z</time>
      </trkpt>
      <trkpt lat="45.564967347308993" lon="5.914839003235102">
        <ele>235</ele>
        <time>2014-05-18T08:16:08Z</time>
      </trkpt>
      <trkpt lat="45.564957205206156" lon="5.914820227771998">
        <ele>235.19999694824219</ele>
        <time>2014-05-18T08:16:09Z</time>
      </trkpt>
      <trkpt lat="45.564913535490632" lon="5.914701456204057">
        <ele>235.80000305175781</ele>
        <time>2014-05-18T08:16:14Z</time>
      </trkpt>
      <trkpt lat="45.564896520227194" lon="5.914669185876846">
        <ele>235.80000305175781</ele>
        <time>2014-05-18T08:16:15Z</time>
      </trkpt>
      <trkpt lat="45.564777497202158" lon="5.914629036560655">
        <ele>236.19999694824219</ele>
        <time>2014-05-18T08:16:19Z</time>
      </trkpt>
      <trkpt lat="45.564659480005503" lon="5.914658289402723">
        <ele>237.19999694824219</ele>
        <time>2014-05-18T08:16:23Z</time>
      </trkpt>
      <trkpt lat="45.5646354239434" lon="5.914676813408732">
        <ele>237.39999389648437</ele>
        <time>2014-05-18T08:16:24Z</time>
      </trkpt>
      <trkpt lat="45.564517825841904" lon="5.914713861420751">
        <ele>237.19999694824219</ele>
        <time>2014-05-18T08:16:28Z</time>
      </trkpt>
      <trkpt lat="45.564269302412868" lon="5.914796004071832">
        <ele>236.80000305175781</ele>
        <time>2014-05-18T08:16:35Z</time>
      </trkpt>
      <trkpt lat="45.564058246091008" lon="5.914808744564652">
        <ele>237.39999389648437</ele>
        <time>2014-05-18T08:16:41Z</time>
      </trkpt>
      <trkpt lat="45.563937127590179" lon="5.914707910269499">
        <ele>237.60000610351562</ele>
        <time>2014-05-18T08:16:45Z</time>
      </trkpt>
      <trkpt lat="45.563808884471655" lon="5.914501044899225">
        <ele>238</ele>
        <time>2014-05-18T08:16:50Z</time>
      </trkpt>
      <trkpt lat="45.563781475648284" lon="5.914456369355321">
        <ele>238</ele>
        <time>2014-05-18T08:16:51Z</time>
      </trkpt>
      <trkpt lat="45.56368357501924" lon="5.914343129843473">
        <ele>238</ele>
        <time>2014-05-18T08:16:54Z</time>
      </trkpt>
      <trkpt lat="45.563651891425252" lon="5.914301639422774">
        <ele>238.19999694824219</ele>
        <time>2014-05-18T08:16:55Z</time>
      </trkpt>
      <trkpt lat="45.563440667465329" lon="5.913988575339317">
        <ele>238.80000305175781</ele>
        <time>2014-05-18T08:17:02Z</time>
      </trkpt>
      <trkpt lat="45.563409151509404" lon="5.91394767165184">
        <ele>238.80000305175781</ele>
        <time>2014-05-18T08:17:03Z</time>
      </trkpt>
      <trkpt lat="45.563338743522763" lon="5.913867708295584">
        <ele>238.80000305175781</ele>
        <time>2014-05-18T08:17:05Z</time>
      </trkpt>
      <trkpt lat="45.563267078250647" lon="5.913790091872215">
        <ele>238.80000305175781</ele>
        <time>2014-05-18T08:17:07Z</time>
      </trkpt>
      <trkpt lat="45.563194490969181" lon="5.913724461570382">
        <ele>239</ele>
        <time>2014-05-18T08:17:09Z</time>
      </trkpt>
      <trkpt lat="45.563148306682706" lon="5.91372337192297">
        <ele>239.19999694824219</ele>
        <time>2014-05-18T08:17:10Z</time>
      </trkpt>
      <trkpt lat="45.563066080212593" lon="5.913757737725973">
        <ele>239.39999389648437</ele>
        <time>2014-05-18T08:17:12Z</time>
      </trkpt>
      <trkpt lat="45.562900956720114" lon="5.913741644471884">
        <ele>239.60000610351562</ele>
        <time>2014-05-18T08:17:16Z</time>
      </trkpt>
      <trkpt lat="45.562857538461685" lon="5.913728065788746">
        <ele>239.60000610351562</ele>
        <time>2014-05-18T08:17:17Z</time>
      </trkpt>
      <trkpt lat="45.562608512118459" lon="5.913626477122307">
        <ele>239.60000610351562</ele>
        <time>2014-05-18T08:17:23Z</time>
      </trkpt>
      <trkpt lat="45.562304332852364" lon="5.913505861535668">
        <ele>239.60000610351562</ele>
        <time>2014-05-18T08:17:30Z</time>
      </trkpt>
      <trkpt lat="45.561992945149541" lon="5.913359429687262">
        <ele>239.80000305175781</ele>
        <time>2014-05-18T08:17:37Z</time>
      </trkpt>
      <trkpt lat="45.561869563534856" lon="5.913282232359052">
        <ele>239.80000305175781</ele>
        <time>2014-05-18T08:17:40Z</time>
      </trkpt>
      <trkpt lat="45.561789348721504" lon="5.913238059729338">
        <ele>240</ele>
        <time>2014-05-18T08:17:42Z</time>
      </trkpt>
      <trkpt lat="45.561707457527518" lon="5.913205454126">
        <ele>240.39999389648437</ele>
        <time>2014-05-18T08:17:44Z</time>
      </trkpt>
      <trkpt lat="45.561589859426022" lon="5.913168909028173">
        <ele>240.39999389648437</ele>
        <time>2014-05-18T08:17:47Z</time>
      </trkpt>
      <trkpt lat="45.561404619365931" lon="5.913102775812149">
        <ele>241.60000610351562</ele>
        <time>2014-05-18T08:17:52Z</time>
      </trkpt>
      <trkpt lat="45.56131174787879" lon="5.913065392524004">
        <ele>242.39999389648437</ele>
        <time>2014-05-18T08:17:55Z</time>
      </trkpt>
      <trkpt lat="45.561286602169275" lon="5.913062626495957">
        <ele>242.80000305175781</ele>
        <time>2014-05-18T08:17:56Z</time>
      </trkpt>
      <trkpt lat="45.561223654076457" lon="5.913089113309979">
        <ele>243.39999389648437</ele>
        <time>2014-05-18T08:17:59Z</time>
      </trkpt>
      <trkpt lat="45.561217283830047" lon="5.913122808560729">
        <ele>243.60000610351562</ele>
        <time>2014-05-18T08:18:00Z</time>
      </trkpt>
      <trkpt lat="45.561216613277793" lon="5.913157844915986">
        <ele>243.80000305175781</ele>
        <time>2014-05-18T08:18:01Z</time>
      </trkpt>
      <trkpt lat="45.561231449246407" lon="5.913234287872911">
        <ele>244</ele>
        <time>2014-05-18T08:18:03Z</time>
      </trkpt>
      <trkpt lat="45.561239495873451" lon="5.913269408047199">
        <ele>244.19999694824219</ele>
        <time>2014-05-18T08:18:04Z</time>
      </trkpt>
      <trkpt lat="45.56125801987946" lon="5.913388598710299">
        <ele>245</ele>
        <time>2014-05-18T08:18:07Z</time>
      </trkpt>
      <trkpt lat="45.561292972415686" lon="5.913531929254532">
        <ele>246.19999694824219</ele>
        <time>2014-05-18T08:18:11Z</time>
      </trkpt>
      <trkpt lat="45.561310490593314" lon="5.913638295605779">
        <ele>247.39999389648437</ele>
        <time>2014-05-18T08:18:14Z</time>
      </trkpt>
      <trkpt lat="45.561327924951911" lon="5.913739213719964">
        <ele>248.19999694824219</ele>
        <time>2014-05-18T08:18:17Z</time>
      </trkpt>
      <trkpt lat="45.561334379017353" lon="5.913770729675889">
        <ele>248.60000610351562</ele>
        <time>2014-05-18T08:18:18Z</time>
      </trkpt>
      <trkpt lat="45.56136061437428" lon="5.913900146260858">
        <ele>249.60000610351562</ele>
        <time>2014-05-18T08:18:22Z</time>
      </trkpt>
      <trkpt lat="45.561381066218019" lon="5.913966028019786">
        <ele>250</ele>
        <time>2014-05-18T08:18:24Z</time>
      </trkpt>
      <trkpt lat="45.561415432021022" lon="5.914044147357345">
        <ele>250.60000610351562</ele>
        <time>2014-05-18T08:18:27Z</time>
      </trkpt>
      <trkpt lat="45.561495060101151" lon="5.914143724367023">
        <ele>251.19999694824219</ele>
        <time>2014-05-18T08:18:31Z</time>
      </trkpt>
      <trkpt lat="45.561534119769931" lon="5.914179347455502">
        <ele>251.60000610351562</ele>
        <time>2014-05-18T08:18:33Z</time>
      </trkpt>
      <trkpt lat="45.561598828062415" lon="5.914233326911926">
        <ele>252</ele>
        <time>2014-05-18T08:18:36Z</time>
      </trkpt>
      <trkpt lat="45.561717851087451" lon="5.914297951385379">
        <ele>253</ele>
        <time>2014-05-18T08:18:40Z</time>
      </trkpt>
      <trkpt lat="45.561737297102809" lon="5.914316894486547">
        <ele>253.19999694824219</ele>
        <time>2014-05-18T08:18:41Z</time>
      </trkpt>
      <trkpt lat="45.561841065064073" lon="5.914419488981366">
        <ele>253.80000305175781</ele>
        <time>2014-05-18T08:18:46Z</time>
      </trkpt>
      <trkpt lat="45.561895715072751" lon="5.914480844512582">
        <ele>254.19999694824219</ele>
        <time>2014-05-18T08:18:49Z</time>
      </trkpt>
      <trkpt lat="45.561980875208974" lon="5.914608500897884">
        <ele>255</ele>
        <time>2014-05-18T08:18:54Z</time>
      </trkpt>
      <trkpt lat="45.562000656500459" lon="5.91463565826416">
        <ele>255.19999694824219</ele>
        <time>2014-05-18T08:18:55Z</time>
      </trkpt>
      <trkpt lat="45.562065783888102" lon="5.9147734567523">
        <ele>256</ele>
        <time>2014-05-18T08:19:00Z</time>
      </trkpt>
      <trkpt lat="45.562113141641021" lon="5.914813941344619">
        <ele>256.39999389648437</ele>
        <time>2014-05-18T08:19:02Z</time>
      </trkpt>
      <trkpt lat="45.562169132754207" lon="5.91491125524044">
        <ele>257.20001220703125</ele>
        <time>2014-05-18T08:19:06Z</time>
      </trkpt>
      <trkpt lat="45.562194278463721" lon="5.914950566366315">
        <ele>257.60000610351562</ele>
        <time>2014-05-18T08:19:08Z</time>
      </trkpt>
      <trkpt lat="45.562248006463051" lon="5.915052406489849">
        <ele>258.79998779296875</ele>
        <time>2014-05-18T08:19:13Z</time>
      </trkpt>
      <trkpt lat="45.562308272346854" lon="5.915139075368643">
        <ele>259.79998779296875</ele>
        <time>2014-05-18T08:19:18Z</time>
      </trkpt>
      <trkpt lat="45.562320174649358" lon="5.915153492242098">
        <ele>260</ele>
        <time>2014-05-18T08:19:19Z</time>
      </trkpt>
      <trkpt lat="45.562380272895098" lon="5.915247704833746">
        <ele>261</ele>
        <time>2014-05-18T08:19:24Z</time>
      </trkpt>
      <trkpt lat="45.5624008923769" lon="5.915288692340255">
        <ele>261.60000610351562</ele>
        <time>2014-05-18T08:19:26Z</time>
      </trkpt>
      <trkpt lat="45.562411872670054" lon="5.915335798636079">
        <ele>262.20001220703125</ele>
        <time>2014-05-18T08:19:28Z</time>
      </trkpt>
      <trkpt lat="45.562408184632659" lon="5.915356585755944">
        <ele>262.39999389648438</ele>
        <time>2014-05-18T08:19:29Z</time>
      </trkpt>
      <trkpt lat="45.562391672283411" lon="5.915384329855442">
        <ele>262.79998779296875</ele>
        <time>2014-05-18T08:19:31Z</time>
      </trkpt>
      <trkpt lat="45.562360323965549" lon="5.915409727022052">
        <ele>263.20001220703125</ele>
        <time>2014-05-18T08:19:34Z</time>
      </trkpt>
      <trkpt lat="45.562319839373231" lon="5.915424395352602">
        <ele>264</ele>
        <time>2014-05-18T08:19:37Z</time>
      </trkpt>
      <trkpt lat="45.562302153557539" lon="5.915431100875139">
        <ele>264.39999389648437</ele>
        <time>2014-05-18T08:19:38Z</time>
      </trkpt>
      <trkpt lat="45.562251945957541" lon="5.915435459464788">
        <ele>265</ele>
        <time>2014-05-18T08:19:40Z</time>
      </trkpt>
      <trkpt lat="45.562205845490098" lon="5.915444763377309">
        <ele>265.20001220703125</ele>
        <time>2014-05-18T08:19:42Z</time>
      </trkpt>
      <trkpt lat="45.562185812741518" lon="5.915451133623719">
        <ele>265.39999389648438</ele>
        <time>2014-05-18T08:19:43Z</time>
      </trkpt>
      <trkpt lat="45.562167456373572" lon="5.915461191907525">
        <ele>265.60000610351562</ele>
        <time>2014-05-18T08:19:44Z</time>
      </trkpt>
      <trkpt lat="45.562125127762556" lon="5.915471334010363">
        <ele>266</ele>
        <time>2014-05-18T08:19:46Z</time>
      </trkpt>
      <trkpt lat="45.562065783888102" lon="5.915488097816706">
        <ele>266.60000610351562</ele>
        <time>2014-05-18T08:19:49Z</time>
      </trkpt>
      <trkpt lat="45.562047930434346" lon="5.915498659014702">
        <ele>266.79998779296875</ele>
        <time>2014-05-18T08:19:50Z</time>
      </trkpt>
      <trkpt lat="45.561994789168239" lon="5.915522379800677">
        <ele>267.60000610351562</ele>
        <time>2014-05-18T08:19:53Z</time>
      </trkpt>
      <trkpt lat="45.5619191005826" lon="5.915548028424382">
        <ele>268.60000610351562</ele>
        <time>2014-05-18T08:19:57Z</time>
      </trkpt>
      <trkpt lat="45.561898397281766" lon="5.915548615157604">
        <ele>268.79998779296875</ele>
        <time>2014-05-18T08:19:58Z</time>
      </trkpt>
      <trkpt lat="45.561784571036696" lon="5.915585663169622">
        <ele>270</ele>
        <time>2014-05-18T08:20:04Z</time>
      </trkpt>
      <trkpt lat="45.561667308211327" lon="5.915614999830723">
        <ele>271</ele>
        <time>2014-05-18T08:20:10Z</time>
      </trkpt>
      <trkpt lat="45.561632020398974" lon="5.915621956810355">
        <ele>271.39999389648437</ele>
        <time>2014-05-18T08:20:12Z</time>
      </trkpt>
      <trkpt lat="45.561552476137877" lon="5.915624974295497">
        <ele>272.20001220703125</ele>
        <time>2014-05-18T08:20:16Z</time>
      </trkpt>
      <trkpt lat="45.561533700674772" lon="5.91563050635159">
        <ele>272.39999389648437</ele>
        <time>2014-05-18T08:20:17Z</time>
      </trkpt>
      <trkpt lat="45.561515092849731" lon="5.915634613484144">
        <ele>272.60000610351562</ele>
        <time>2014-05-18T08:20:18Z</time>
      </trkpt>
      <trkpt lat="45.561463292688131" lon="5.915642827749252">
        <ele>273.39999389648437</ele>
        <time>2014-05-18T08:20:21Z</time>
      </trkpt>
      <trkpt lat="45.561409145593643" lon="5.915644420310855">
        <ele>273.79998779296875</ele>
        <time>2014-05-18T08:20:24Z</time>
      </trkpt>
      <trkpt lat="45.561342928558588" lon="5.915643749758601">
        <ele>274.39999389648437</ele>
        <time>2014-05-18T08:20:28Z</time>
      </trkpt>
      <trkpt lat="45.561274196952581" lon="5.915636876598001">
        <ele>275.39999389648437</ele>
        <time>2014-05-18T08:20:32Z</time>
      </trkpt>
      <trkpt lat="45.561255253851414" lon="5.915638720616698">
        <ele>275.60000610351562</ele>
        <time>2014-05-18T08:20:33Z</time>
      </trkpt>
      <trkpt lat="45.561200184747577" lon="5.915628913789988">
        <ele>276.39999389648438</ele>
        <time>2014-05-18T08:20:36Z</time>
      </trkpt>
      <trkpt lat="45.561162885278463" lon="5.915614999830723">
        <ele>276.60000610351562</ele>
        <time>2014-05-18T08:20:38Z</time>
      </trkpt>
      <trkpt lat="45.56114218197763" lon="5.91561047360301">
        <ele>276.79998779296875</ele>
        <time>2014-05-18T08:20:39Z</time>
      </trkpt>
      <trkpt lat="45.561072528362274" lon="5.915577281266451">
        <ele>277.79998779296875</ele>
        <time>2014-05-18T08:20:43Z</time>
      </trkpt>
      <trkpt lat="45.561038833111525" lon="5.915566384792328">
        <ele>278.20001220703125</ele>
        <time>2014-05-18T08:20:45Z</time>
      </trkpt>
      <trkpt lat="45.560977142304182" lon="5.915542496368289">
        <ele>279</ele>
        <time>2014-05-18T08:20:49Z</time>
      </trkpt>
      <trkpt lat="45.560923498123884" lon="5.915521625429392">
        <ele>279.79998779296875</ele>
        <time>2014-05-18T08:20:52Z</time>
      </trkpt>
      <trkpt lat="45.56087052449584" lon="5.915518943220377">
        <ele>280.20001220703125</ele>
        <time>2014-05-18T08:20:55Z</time>
      </trkpt>
      <trkpt lat="45.560826938599348" lon="5.91552053578198">
        <ele>281</ele>
        <time>2014-05-18T08:20:58Z</time>
      </trkpt>
      <trkpt lat="45.560788717120886" lon="5.915507376194">
        <ele>281.20001220703125</ele>
        <time>2014-05-18T08:21:00Z</time>
      </trkpt>
      <trkpt lat="45.560713950544596" lon="5.915485080331564">
        <ele>282.39999389648438</ele>
        <time>2014-05-18T08:21:04Z</time>
      </trkpt>
      <trkpt lat="45.560672795400023" lon="5.91548047028482">
        <ele>282.60000610351562</ele>
        <time>2014-05-18T08:21:06Z</time>
      </trkpt>
      <trkpt lat="45.560609847307205" lon="5.915467981249094">
        <ele>283.39999389648437</ele>
        <time>2014-05-18T08:21:09Z</time>
      </trkpt>
      <trkpt lat="45.560521585866809" lon="5.915470328181982">
        <ele>284.39999389648437</ele>
        <time>2014-05-18T08:21:14Z</time>
      </trkpt>
      <trkpt lat="45.560451010242105" lon="5.915472256019712">
        <ele>285.60000610351562</ele>
        <time>2014-05-18T08:21:19Z</time>
      </trkpt>
      <trkpt lat="45.560406753793359" lon="5.915470831096172">
        <ele>286.39999389648437</ele>
        <time>2014-05-18T08:21:22Z</time>
      </trkpt>
      <trkpt lat="45.560378925874829" lon="5.915476195514202">
        <ele>286.60000610351562</ele>
        <time>2014-05-18T08:21:24Z</time>
      </trkpt>
      <trkpt lat="45.560303572565317" lon="5.915476279333234">
        <ele>287.60000610351562</ele>
        <time>2014-05-18T08:21:29Z</time>
      </trkpt>
      <trkpt lat="45.560289239510894" lon="5.91547854244709">
        <ele>287.79998779296875</ele>
        <time>2014-05-18T08:21:30Z</time>
      </trkpt>
      <trkpt lat="45.560170551761985" lon="5.915518775582314">
        <ele>289.39999389648437</ele>
        <time>2014-05-18T08:21:39Z</time>
      </trkpt>
      <trkpt lat="45.560111459344625" lon="5.915507124736905">
        <ele>290</ele>
        <time>2014-05-18T08:21:42Z</time>
      </trkpt>
      <trkpt lat="45.560049433261156" lon="5.915531516075134">
        <ele>290.79998779296875</ele>
        <time>2014-05-18T08:21:46Z</time>
      </trkpt>
      <trkpt lat="45.560024036094546" lon="5.915565881878138">
        <ele>291.20001220703125</ele>
        <time>2014-05-18T08:21:48Z</time>
      </trkpt>
      <trkpt lat="45.559987742453814" lon="5.915651628747582">
        <ele>291.79998779296875</ele>
        <time>2014-05-18T08:21:52Z</time>
      </trkpt>
      <trkpt lat="45.559971397742629" lon="5.915701165795326">
        <ele>292.60000610351562</ele>
        <time>2014-05-18T08:21:54Z</time>
      </trkpt>
      <trkpt lat="45.559927308931947" lon="5.915779704228044">
        <ele>293.20001220703125</ele>
        <time>2014-05-18T08:21:58Z</time>
      </trkpt>
      <trkpt lat="45.559907276183367" lon="5.915815243497491">
        <ele>293.60000610351562</ele>
        <time>2014-05-18T08:22:00Z</time>
      </trkpt>
      <trkpt lat="45.559880370274186" lon="5.915877521038055">
        <ele>294.39999389648437</ele>
        <time>2014-05-18T08:22:03Z</time>
      </trkpt>
      <trkpt lat="45.559872156009078" lon="5.915904510766268">
        <ele>294.60000610351562</ele>
        <time>2014-05-18T08:22:04Z</time>
      </trkpt>
      <trkpt lat="45.559867294505239" lon="5.915930075570941">
        <ele>294.79998779296875</ele>
        <time>2014-05-18T08:22:05Z</time>
      </trkpt>
      <trkpt lat="45.559818847104907" lon="5.916026970371604">
        <ele>295.79998779296875</ele>
        <time>2014-05-18T08:22:10Z</time>
      </trkpt>
      <trkpt lat="45.559807196259499" lon="5.916043566539884">
        <ele>296</ele>
        <time>2014-05-18T08:22:11Z</time>
      </trkpt>
      <trkpt lat="45.559770651161671" lon="5.916123362258077">
        <ele>296.79998779296875</ele>
        <time>2014-05-18T08:22:15Z</time>
      </trkpt>
      <trkpt lat="45.559739721938968" lon="5.916167870163918">
        <ele>297.79998779296875</ele>
        <time>2014-05-18T08:22:18Z</time>
      </trkpt>
      <trkpt lat="45.559731004759669" lon="5.91618656180799">
        <ele>298</ele>
        <time>2014-05-18T08:22:19Z</time>
      </trkpt>
      <trkpt lat="45.559691693633795" lon="5.916272308677435">
        <ele>299.39999389648438</ele>
        <time>2014-05-18T08:22:24Z</time>
      </trkpt>
      <trkpt lat="45.559676438570023" lon="5.91630726121366">
        <ele>299.79998779296875</ele>
        <time>2014-05-18T08:22:26Z</time>
      </trkpt>
      <trkpt lat="45.55966361425817" lon="5.916316397488117">
        <ele>300</ele>
        <time>2014-05-18T08:22:27Z</time>
      </trkpt>
      <trkpt lat="45.55962841026485" lon="5.916365096345544">
        <ele>300.60000610351562</ele>
        <time>2014-05-18T08:22:30Z</time>
      </trkpt>
      <trkpt lat="45.559607958421111" lon="5.916405916213989">
        <ele>301</ele>
        <time>2014-05-18T08:22:32Z</time>
      </trkpt>
      <trkpt lat="45.559578957036138" lon="5.916430726647377">
        <ele>301.39999389648437</ele>
        <time>2014-05-18T08:22:34Z</time>
      </trkpt>
      <trkpt lat="45.559563785791397" lon="5.916450340300798">
        <ele>301.79998779296875</ele>
        <time>2014-05-18T08:22:35Z</time>
      </trkpt>
      <trkpt lat="45.559539729729295" lon="5.916516808792949">
        <ele>302.39999389648438</ele>
        <time>2014-05-18T08:22:38Z</time>
      </trkpt>
      <trkpt lat="45.559515589848161" lon="5.916542625054717">
        <ele>303</ele>
        <time>2014-05-18T08:22:40Z</time>
      </trkpt>
      <trkpt lat="45.559466304257512" lon="5.916599202901125">
        <ele>303.79998779296875</ele>
        <time>2014-05-18T08:22:44Z</time>
      </trkpt>
      <trkpt lat="45.559444008395076" lon="5.916631892323494">
        <ele>304.20001220703125</ele>
        <time>2014-05-18T08:22:46Z</time>
      </trkpt>
      <trkpt lat="45.55937385186553" lon="5.916718058288097">
        <ele>305.20001220703125</ele>
        <time>2014-05-18T08:22:52Z</time>
      </trkpt>
      <trkpt lat="45.559297325089574" lon="5.916822329163551">
        <ele>306.20001220703125</ele>
        <time>2014-05-18T08:22:58Z</time>
      </trkpt>
      <trkpt lat="45.559287518262863" lon="5.916839009150863">
        <ele>306.39999389648437</ele>
        <time>2014-05-18T08:22:59Z</time>
      </trkpt>
      <trkpt lat="45.55920478887856" lon="5.916949063539505">
        <ele>307.60000610351562</ele>
        <time>2014-05-18T08:23:05Z</time>
      </trkpt>
      <trkpt lat="45.559133710339665" lon="5.917089292779565">
        <ele>308.79998779296875</ele>
        <time>2014-05-18T08:23:12Z</time>
      </trkpt>
      <trkpt lat="45.559102445840836" lon="5.917264726012945">
        <ele>309.60000610351562</ele>
        <time>2014-05-18T08:23:19Z</time>
      </trkpt>
      <trkpt lat="45.55909926071763" lon="5.917291129007936">
        <ele>309.79998779296875</ele>
        <time>2014-05-18T08:23:20Z</time>
      </trkpt>
      <trkpt lat="45.559076461941004" lon="5.917439740151167">
        <ele>311</ele>
        <time>2014-05-18T08:23:26Z</time>
      </trkpt>
      <trkpt lat="45.559080569073558" lon="5.917495060712099">
        <ele>311.20001220703125</ele>
        <time>2014-05-18T08:23:28Z</time>
      </trkpt>
      <trkpt lat="45.559072438627481" lon="5.917612239718437">
        <ele>311.79998779296875</ele>
        <time>2014-05-18T08:23:32Z</time>
      </trkpt>
      <trkpt lat="45.5590645596385" lon="5.917671080678701">
        <ele>312</ele>
        <time>2014-05-18T08:23:34Z</time>
      </trkpt>
      <trkpt lat="45.559026757255197" lon="5.917852716520429">
        <ele>313</ele>
        <time>2014-05-18T08:23:40Z</time>
      </trkpt>
      <trkpt lat="45.559011921286583" lon="5.91803845949471">
        <ele>314</ele>
        <time>2014-05-18T08:23:46Z</time>
      </trkpt>
      <trkpt lat="45.559008568525314" lon="5.918064611032605">
        <ele>314.20001220703125</ele>
        <time>2014-05-18T08:23:47Z</time>
      </trkpt>
      <trkpt lat="45.558983003720641" lon="5.918250437825918">
        <ele>315</ele>
        <time>2014-05-18T08:23:53Z</time>
      </trkpt>
      <trkpt lat="45.558983087539673" lon="5.918284887447953">
        <ele>315.20001220703125</ele>
        <time>2014-05-18T08:23:54Z</time>
      </trkpt>
      <trkpt lat="45.558964563533664" lon="5.918489992618561">
        <ele>315.79998779296875</ele>
        <time>2014-05-18T08:24:00Z</time>
      </trkpt>
      <trkpt lat="45.558967832475901" lon="5.918653020635247">
        <ele>316.39999389648438</ele>
        <time>2014-05-18T08:24:05Z</time>
      </trkpt>
      <trkpt lat="45.558971520513296" lon="5.91875771060586">
        <ele>316.39999389648438</ele>
        <time>2014-05-18T08:24:08Z</time>
      </trkpt>
      <trkpt lat="45.55900052189827" lon="5.919011849910021">
        <ele>317.39999389648437</ele>
        <time>2014-05-18T08:24:15Z</time>
      </trkpt>
      <trkpt lat="45.559009155258536" lon="5.919049819931388">
        <ele>317.39999389648437</ele>
        <time>2014-05-18T08:24:16Z</time>
      </trkpt>
      <trkpt lat="45.55904938839376" lon="5.919263223186135">
        <ele>318.39999389648437</ele>
        <time>2014-05-18T08:24:22Z</time>
      </trkpt>
      <trkpt lat="45.559126501902938" lon="5.91954393312335">
        <ele>319.20001220703125</ele>
        <time>2014-05-18T08:24:30Z</time>
      </trkpt>
      <trkpt lat="45.559146283194423" lon="5.919614592567086">
        <ele>319.39999389648438</ele>
        <time>2014-05-18T08:24:32Z</time>
      </trkpt>
      <trkpt lat="45.559179307892919" lon="5.919736213982105">
        <ele>320.20001220703125</ele>
        <time>2014-05-18T08:24:36Z</time>
      </trkpt>
      <trkpt lat="45.55919548496604" lon="5.919796815142036">
        <ele>320.60000610351562</ele>
        <time>2014-05-18T08:24:38Z</time>
      </trkpt>
      <trkpt lat="45.559227671474218" lon="5.919904690235853">
        <ele>321.60000610351562</ele>
        <time>2014-05-18T08:24:42Z</time>
      </trkpt>
      <trkpt lat="45.559241585433483" lon="5.91995146125555">
        <ele>322</ele>
        <time>2014-05-18T08:24:44Z</time>
      </trkpt>
      <trkpt lat="45.559320794418454" lon="5.920146256685257">
        <ele>322.60000610351562</ele>
        <time>2014-05-18T08:24:52Z</time>
      </trkpt>
      <trkpt lat="45.55933378636837" lon="5.920168468728662">
        <ele>322.60000610351562</ele>
        <time>2014-05-18T08:24:53Z</time>
      </trkpt>
      <trkpt lat="45.55936605669558" lon="5.92031255364418">
        <ele>323.60000610351562</ele>
        <time>2014-05-18T08:24:58Z</time>
      </trkpt>
      <trkpt lat="45.559367733076215" lon="5.920341471210122">
        <ele>323.79998779296875</ele>
        <time>2014-05-18T08:24:59Z</time>
      </trkpt>
      <trkpt lat="45.559389609843493" lon="5.920490166172385">
        <ele>324.79998779296875</ele>
        <time>2014-05-18T08:25:04Z</time>
      </trkpt>
      <trkpt lat="45.559376953169703" lon="5.92060960829258">
        <ele>325.60000610351562</ele>
        <time>2014-05-18T08:25:08Z</time>
      </trkpt>
      <trkpt lat="45.559369074180722" lon="5.920635759830475">
        <ele>325.79998779296875</ele>
        <time>2014-05-18T08:25:09Z</time>
      </trkpt>
      <trkpt lat="45.559317022562027" lon="5.920755788683891">
        <ele>326.60000610351562</ele>
        <time>2014-05-18T08:25:14Z</time>
      </trkpt>
      <trkpt lat="45.559304533526301" lon="5.920775067061186">
        <ele>326.79998779296875</ele>
        <time>2014-05-18T08:25:15Z</time>
      </trkpt>
      <trkpt lat="45.55928441695869" lon="5.920783616602421">
        <ele>327.20001220703125</ele>
        <time>2014-05-18T08:25:16Z</time>
      </trkpt>
      <trkpt lat="45.559223061427474" lon="5.920834159478545">
        <ele>327.79998779296875</ele>
        <time>2014-05-18T08:25:20Z</time>
      </trkpt>
      <trkpt lat="45.559206297621131" lon="5.920841116458178">
        <ele>328</ele>
        <time>2014-05-18T08:25:21Z</time>
      </trkpt>
      <trkpt lat="45.559121975675225" lon="5.920877493917942">
        <ele>329</ele>
        <time>2014-05-18T08:25:26Z</time>
      </trkpt>
      <trkpt lat="45.559106133878231" lon="5.920881265774369">
        <ele>329.20001220703125</ele>
        <time>2014-05-18T08:25:27Z</time>
      </trkpt>
      <trkpt lat="45.559054249897599" lon="5.920912027359009">
        <ele>330.20001220703125</ele>
        <time>2014-05-18T08:25:30Z</time>
      </trkpt>
      <trkpt lat="45.559020470827818" lon="5.920926108956337">
        <ele>330.79998779296875</ele>
        <time>2014-05-18T08:25:32Z</time>
      </trkpt>
      <trkpt lat="45.558969508856535" lon="5.920976987108588">
        <ele>331.39999389648437</ele>
        <time>2014-05-18T08:25:36Z</time>
      </trkpt>
      <trkpt lat="45.558924246579409" lon="5.921000624075532">
        <ele>332.20001220703125</ele>
        <time>2014-05-18T08:25:39Z</time>
      </trkpt>
      <trkpt lat="45.558905974030495" lon="5.92100347392261">
        <ele>332.60000610351562</ele>
        <time>2014-05-18T08:25:40Z</time>
      </trkpt>
      <trkpt lat="45.558830117806792" lon="5.921018309891224">
        <ele>333.60000610351562</ele>
        <time>2014-05-18T08:25:44Z</time>
      </trkpt>
      <trkpt lat="45.558763146400452" lon="5.921043120324612">
        <ele>334.60000610351562</ele>
        <time>2014-05-18T08:25:48Z</time>
      </trkpt>
      <trkpt lat="45.558746298775077" lon="5.921042365953326">
        <ele>335</ele>
        <time>2014-05-18T08:25:49Z</time>
      </trkpt>
      <trkpt lat="45.558734647929668" lon="5.92104253359139">
        <ele>335.20001220703125</ele>
        <time>2014-05-18T08:25:50Z</time>
      </trkpt>
      <trkpt lat="45.558698689565063" lon="5.921038175001741">
        <ele>335.79998779296875</ele>
        <time>2014-05-18T08:25:53Z</time>
      </trkpt>
      <trkpt lat="45.55867413058877" lon="5.921039683744311">
        <ele>336.20001220703125</ele>
        <time>2014-05-18T08:25:55Z</time>
      </trkpt>
      <trkpt lat="45.558638423681259" lon="5.921052843332291">
        <ele>336.79998779296875</ele>
        <time>2014-05-18T08:25:58Z</time>
      </trkpt>
      <trkpt lat="45.558625012636185" lon="5.921057537198067">
        <ele>337</ele>
        <time>2014-05-18T08:25:59Z</time>
      </trkpt>
      <trkpt lat="45.558516047894955" lon="5.9210489038378">
        <ele>338</ele>
        <time>2014-05-18T08:26:06Z</time>
      </trkpt>
      <trkpt lat="45.558481011539698" lon="5.921041611582041">
        <ele>338.20001220703125</ele>
        <time>2014-05-18T08:26:08Z</time>
      </trkpt>
      <trkpt lat="45.55836240760982" lon="5.921062063425779">
        <ele>338.79998779296875</ele>
        <time>2014-05-18T08:26:13Z</time>
      </trkpt>
      <trkpt lat="45.558197954669595" lon="5.921044377610087">
        <ele>339</ele>
        <time>2014-05-18T08:26:19Z</time>
      </trkpt>
      <trkpt lat="45.558170126751065" lon="5.921039348468185">
        <ele>339.20001220703125</ele>
        <time>2014-05-18T08:26:20Z</time>
      </trkpt>
      <trkpt lat="45.557987652719021" lon="5.921056028455496">
        <ele>339.39999389648438</ele>
        <time>2014-05-18T08:26:26Z</time>
      </trkpt>
      <trkpt lat="45.557706775143743" lon="5.921112941578031">
        <ele>338.79998779296875</ele>
        <time>2014-05-18T08:26:33Z</time>
      </trkpt>
      <trkpt lat="45.557371331378818" lon="5.921215871348977">
        <ele>339.79998779296875</ele>
        <time>2014-05-18T08:26:41Z</time>
      </trkpt>
      <trkpt lat="45.557250715792179" lon="5.921230455860496">
        <ele>340.20001220703125</ele>
        <time>2014-05-18T08:26:44Z</time>
      </trkpt>
      <trkpt lat="45.5571408290416" lon="5.921269096434116">
        <ele>340</ele>
        <time>2014-05-18T08:26:47Z</time>
      </trkpt>
      <trkpt lat="45.556878643110394" lon="5.921355346217752">
        <ele>340.60000610351562</ele>
        <time>2014-05-18T08:26:54Z</time>
      </trkpt>
      <trkpt lat="45.556694157421589" lon="5.921415109187365">
        <ele>340.79998779296875</ele>
        <time>2014-05-18T08:26:59Z</time>
      </trkpt>
      <trkpt lat="45.556470863521099" lon="5.921497335657477">
        <ele>340.79998779296875</ele>
        <time>2014-05-18T08:27:05Z</time>
      </trkpt>
      <trkpt lat="45.556177077814937" lon="5.921555254608393">
        <ele>340.79998779296875</ele>
        <time>2014-05-18T08:27:13Z</time>
      </trkpt>
      <trkpt lat="45.556066855788231" lon="5.921569503843784">
        <ele>341.20001220703125</ele>
        <time>2014-05-18T08:27:16Z</time>
      </trkpt>
      <trkpt lat="45.555954538285732" lon="5.92158492654562">
        <ele>341.60000610351562</ele>
        <time>2014-05-18T08:27:19Z</time>
      </trkpt>
      <trkpt lat="45.555779943242669" lon="5.921610407531261">
        <ele>342</ele>
        <time>2014-05-18T08:27:24Z</time>
      </trkpt>
      <trkpt lat="45.555648598819971" lon="5.921644354239106">
        <ele>342.39999389648437</ele>
        <time>2014-05-18T08:27:28Z</time>
      </trkpt>
      <trkpt lat="45.555559331551194" lon="5.921662207692862">
        <ele>343</ele>
        <time>2014-05-18T08:27:31Z</time>
      </trkpt>
      <trkpt lat="45.55550292134285" lon="5.921683749184012">
        <ele>343.39999389648437</ele>
        <time>2014-05-18T08:27:33Z</time>
      </trkpt>
      <trkpt lat="45.555406445637345" lon="5.921766897663474">
        <ele>344</ele>
        <time>2014-05-18T08:27:37Z</time>
      </trkpt>
      <trkpt lat="45.555349364876747" lon="5.921771423891187">
        <ele>344.60000610351562</ele>
        <time>2014-05-18T08:27:39Z</time>
      </trkpt>
      <trkpt lat="45.555289853364229" lon="5.921766897663474">
        <ele>345</ele>
        <time>2014-05-18T08:27:41Z</time>
      </trkpt>
      <trkpt lat="45.555168064311147" lon="5.92174275778234">
        <ele>345.60000610351562</ele>
        <time>2014-05-18T08:27:45Z</time>
      </trkpt>
      <trkpt lat="45.555075611919165" lon="5.921728257089853">
        <ele>346.20001220703125</ele>
        <time>2014-05-18T08:27:48Z</time>
      </trkpt>
      <trkpt lat="45.554958265274763" lon="5.921712247654796">
        <ele>346.60000610351562</ele>
        <time>2014-05-18T08:27:52Z</time>
      </trkpt>
      <trkpt lat="45.554929850623012" lon="5.921705961227417">
        <ele>347.20001220703125</ele>
        <time>2014-05-18T08:27:53Z</time>
      </trkpt>
      <trkpt lat="45.5548095703125" lon="5.9216826595366">
        <ele>347.79998779296875</ele>
        <time>2014-05-18T08:27:57Z</time>
      </trkpt>
      <trkpt lat="45.554750477895141" lon="5.921678887680173">
        <ele>348.20001220703125</ele>
        <time>2014-05-18T08:27:59Z</time>
      </trkpt>
      <trkpt lat="45.554659869521856" lon="5.921672014519572">
        <ele>348.79998779296875</ele>
        <time>2014-05-18T08:28:02Z</time>
      </trkpt>
      <trkpt lat="45.554629191756248" lon="5.921666314825416">
        <ele>349.20001220703125</ele>
        <time>2014-05-18T08:28:03Z</time>
      </trkpt>
      <trkpt lat="45.554533805698156" lon="5.921650724485517">
        <ele>349.79998779296875</ele>
        <time>2014-05-18T08:28:06Z</time>
      </trkpt>
      <trkpt lat="45.554442275315523" lon="5.921650808304548">
        <ele>350.20001220703125</ele>
        <time>2014-05-18T08:28:09Z</time>
      </trkpt>
      <trkpt lat="45.554348649457097" lon="5.921653909608722">
        <ele>351</ele>
        <time>2014-05-18T08:28:12Z</time>
      </trkpt>
      <trkpt lat="45.55419685319066" lon="5.921652317047119">
        <ele>352</ele>
        <time>2014-05-18T08:28:17Z</time>
      </trkpt>
      <trkpt lat="45.554139437153935" lon="5.921663716435432">
        <ele>352.39999389648437</ele>
        <time>2014-05-18T08:28:19Z</time>
      </trkpt>
      <trkpt lat="45.554021336138248" lon="5.921677462756634">
        <ele>353</ele>
        <time>2014-05-18T08:28:23Z</time>
      </trkpt>
      <trkpt lat="45.553924273699522" lon="5.921685341745615">
        <ele>353.79998779296875</ele>
        <time>2014-05-18T08:28:26Z</time>
      </trkpt>
      <trkpt lat="45.553894015029073" lon="5.921684252098203">
        <ele>354</ele>
        <time>2014-05-18T08:28:27Z</time>
      </trkpt>
      <trkpt lat="45.553715731948614" lon="5.921675367280841">
        <ele>355.20001220703125</ele>
        <time>2014-05-18T08:28:33Z</time>
      </trkpt>
      <trkpt lat="45.55368572473526" lon="5.921665141358972">
        <ele>355.20001220703125</ele>
        <time>2014-05-18T08:28:34Z</time>
      </trkpt>
      <trkpt lat="45.553546082228422" lon="5.921599930152297">
        <ele>356.20001220703125</ele>
        <time>2014-05-18T08:28:39Z</time>
      </trkpt>
      <trkpt lat="45.553497383370996" lon="5.921555673703551">
        <ele>357</ele>
        <time>2014-05-18T08:28:41Z</time>
      </trkpt>
      <trkpt lat="45.553457234054804" lon="5.921501778066158">
        <ele>357.39999389648437</ele>
        <time>2014-05-18T08:28:43Z</time>
      </trkpt>
      <trkpt lat="45.553380036726594" lon="5.921380743384361">
        <ele>358</ele>
        <time>2014-05-18T08:28:47Z</time>
      </trkpt>
      <trkpt lat="45.553329326212406" lon="5.921353083103895">
        <ele>358.60000610351562</ele>
        <time>2014-05-18T08:28:49Z</time>
      </trkpt>
      <trkpt lat="45.553276687860489" lon="5.92134989798069">
        <ele>359</ele>
        <time>2014-05-18T08:28:51Z</time>
      </trkpt>
      <trkpt lat="45.553091363981366" lon="5.921427682042122">
        <ele>359.20001220703125</ele>
        <time>2014-05-18T08:28:57Z</time>
      </trkpt>
      <trkpt lat="45.552796153351665" lon="5.921457102522254">
        <ele>359.79998779296875</ele>
        <time>2014-05-18T08:29:05Z</time>
      </trkpt>
      <trkpt lat="45.552614852786064" lon="5.921453665941954">
        <ele>360.79998779296875</ele>
        <time>2014-05-18T08:29:10Z</time>
      </trkpt>
      <trkpt lat="45.552485687658191" lon="5.921445367857814">
        <ele>361.39999389648437</ele>
        <time>2014-05-18T08:29:14Z</time>
      </trkpt>
      <trkpt lat="45.552388625219464" lon="5.921431956812739">
        <ele>362</ele>
        <time>2014-05-18T08:29:17Z</time>
      </trkpt>
      <trkpt lat="45.552177149802446" lon="5.921400943771005">
        <ele>363.20001220703125</ele>
        <time>2014-05-18T08:29:23Z</time>
      </trkpt>
      <trkpt lat="45.552014289423823" lon="5.921385604888201">
        <ele>364.20001220703125</ele>
        <time>2014-05-18T08:29:28Z</time>
      </trkpt>
      <trkpt lat="45.551910772919655" lon="5.921379318460822">
        <ele>364.79998779296875</ele>
        <time>2014-05-18T08:29:31Z</time>
      </trkpt>
      <trkpt lat="45.55180985480547" lon="5.921373702585697">
        <ele>365.39999389648437</ele>
        <time>2014-05-18T08:29:34Z</time>
      </trkpt>
      <trkpt lat="45.551621513441205" lon="5.921343108639121">
        <ele>366.39999389648437</ele>
        <time>2014-05-18T08:29:40Z</time>
      </trkpt>
      <trkpt lat="45.551593936979771" lon="5.921337241306901">
        <ele>366.39999389648437</ele>
        <time>2014-05-18T08:29:41Z</time>
      </trkpt>
      <trkpt lat="45.55143753066659" lon="5.921322405338287">
        <ele>367.60000610351562</ele>
        <time>2014-05-18T08:29:46Z</time>
      </trkpt>
      <trkpt lat="45.5513403005898" lon="5.921312011778355">
        <ele>368</ele>
        <time>2014-05-18T08:29:49Z</time>
      </trkpt>
      <trkpt lat="45.551252290606499" lon="5.921293655410409">
        <ele>368.79998779296875</ele>
        <time>2014-05-18T08:29:52Z</time>
      </trkpt>
      <trkpt lat="45.551133686676621" lon="5.921286446973681">
        <ele>369.39999389648437</ele>
        <time>2014-05-18T08:29:56Z</time>
      </trkpt>
      <trkpt lat="45.551076605916023" lon="5.9212785679847">
        <ele>369.79998779296875</ele>
        <time>2014-05-18T08:29:58Z</time>
      </trkpt>
      <trkpt lat="45.5509362090379" lon="5.921256607398391">
        <ele>370.79998779296875</ele>
        <time>2014-05-18T08:30:03Z</time>
      </trkpt>
      <trkpt lat="45.550908716395497" lon="5.921255350112915">
        <ele>370.79998779296875</ele>
        <time>2014-05-18T08:30:04Z</time>
      </trkpt>
      <trkpt lat="45.550727667286992" lon="5.921260546892881">
        <ele>372</ele>
        <time>2014-05-18T08:30:10Z</time>
      </trkpt>
      <trkpt lat="45.550523987039924" lon="5.921263480558991">
        <ele>373.20001220703125</ele>
        <time>2014-05-18T08:30:17Z</time>
      </trkpt>
      <trkpt lat="45.550466822460294" lon="5.921266665682197">
        <ele>373.60000610351562</ele>
        <time>2014-05-18T08:30:19Z</time>
      </trkpt>
      <trkpt lat="45.550324581563473" lon="5.921287117525935">
        <ele>374.39999389648437</ele>
        <time>2014-05-18T08:30:24Z</time>
      </trkpt>
      <trkpt lat="45.55029708892107" lon="5.921291895210743">
        <ele>374.60000610351562</ele>
        <time>2014-05-18T08:30:25Z</time>
      </trkpt>
      <trkpt lat="45.550241265445948" lon="5.921297343447805">
        <ele>375</ele>
        <time>2014-05-18T08:30:27Z</time>
      </trkpt>
      <trkpt lat="45.550158116966486" lon="5.921292901039124">
        <ele>375.60000610351562</ele>
        <time>2014-05-18T08:30:30Z</time>
      </trkpt>
      <trkpt lat="45.550053426995873" lon="5.921315364539623">
        <ele>376.20001220703125</ele>
        <time>2014-05-18T08:30:34Z</time>
      </trkpt>
      <trkpt lat="45.54997798986733" lon="5.921319471672177">
        <ele>376.60000610351562</ele>
        <time>2014-05-18T08:30:37Z</time>
      </trkpt>
      <trkpt lat="45.549885286018252" lon="5.921329278498888">
        <ele>377.79998779296875</ele>
        <time>2014-05-18T08:30:41Z</time>
      </trkpt>
      <trkpt lat="45.549747738987207" lon="5.9213493950665">
        <ele>378.79998779296875</ele>
        <time>2014-05-18T08:30:47Z</time>
      </trkpt>
      <trkpt lat="45.549704739823937" lon="5.921356854960322">
        <ele>378.79998779296875</ele>
        <time>2014-05-18T08:30:49Z</time>
      </trkpt>
      <trkpt lat="45.549607928842306" lon="5.921360710635781">
        <ele>380</ele>
        <time>2014-05-18T08:30:53Z</time>
      </trkpt>
      <trkpt lat="45.549533329904079" lon="5.921359620988369">
        <ele>380.60000610351562</ele>
        <time>2014-05-18T08:30:56Z</time>
      </trkpt>
      <trkpt lat="45.549509692937136" lon="5.921358363702893">
        <ele>381</ele>
        <time>2014-05-18T08:30:57Z</time>
      </trkpt>
      <trkpt lat="45.549398045986891" lon="5.921317879110575">
        <ele>382</ele>
        <time>2014-05-18T08:31:02Z</time>
      </trkpt>
      <trkpt lat="45.549376253038645" lon="5.921295080333948">
        <ele>382.39999389648437</ele>
        <time>2014-05-18T08:31:03Z</time>
      </trkpt>
      <trkpt lat="45.549283465370536" lon="5.921224420890212">
        <ele>383.20001220703125</ele>
        <time>2014-05-18T08:31:07Z</time>
      </trkpt>
      <trkpt lat="45.54920258000493" lon="5.921216290444136">
        <ele>383.39999389648437</ele>
        <time>2014-05-18T08:31:10Z</time>
      </trkpt>
      <trkpt lat="45.549098895862699" lon="5.921273371204734">
        <ele>384.20001220703125</ele>
        <time>2014-05-18T08:31:14Z</time>
      </trkpt>
      <trkpt lat="45.549072409048676" lon="5.921280831098557">
        <ele>384.39999389648437</ele>
        <time>2014-05-18T08:31:15Z</time>
      </trkpt>
      <trkpt lat="45.548966797068715" lon="5.921285608783364">
        <ele>385.39999389648437</ele>
        <time>2014-05-18T08:31:19Z</time>
      </trkpt>
      <trkpt lat="45.548918265849352" lon="5.92128150165081">
        <ele>385.79998779296875</ele>
        <time>2014-05-18T08:31:21Z</time>
      </trkpt>
      <trkpt lat="45.548869986087084" lon="5.921264989301562">
        <ele>386.39999389648437</ele>
        <time>2014-05-18T08:31:23Z</time>
      </trkpt>
      <trkpt lat="45.548754315823317" lon="5.921257026493549">
        <ele>387.39999389648438</ele>
        <time>2014-05-18T08:31:28Z</time>
      </trkpt>
      <trkpt lat="45.548638813197613" lon="5.921254679560661">
        <ele>388.60000610351562</ele>
        <time>2014-05-18T08:31:33Z</time>
      </trkpt>
      <trkpt lat="45.548593802377582" lon="5.921258451417089">
        <ele>389</ele>
        <time>2014-05-18T08:31:35Z</time>
      </trkpt>
      <trkpt lat="45.548501936718822" lon="5.921265408396721">
        <ele>389.79998779296875</ele>
        <time>2014-05-18T08:31:39Z</time>
      </trkpt>
      <trkpt lat="45.54839825257659" lon="5.921263145282865">
        <ele>390.39999389648438</ele>
        <time>2014-05-18T08:31:43Z</time>
      </trkpt>
      <trkpt lat="45.548324659466743" lon="5.921266162768006">
        <ele>391</ele>
        <time>2014-05-18T08:31:46Z</time>
      </trkpt>
      <trkpt lat="45.548252323642373" lon="5.921253254637122">
        <ele>391.39999389648437</ele>
        <time>2014-05-18T08:31:49Z</time>
      </trkpt>
      <trkpt lat="45.548151237890124" lon="5.921249901875854">
        <ele>392.39999389648437</ele>
        <time>2014-05-18T08:31:53Z</time>
      </trkpt>
      <trkpt lat="45.548037746921182" lon="5.921207321807742">
        <ele>393.39999389648438</ele>
        <time>2014-05-18T08:31:58Z</time>
      </trkpt>
      <trkpt lat="45.547927189618349" lon="5.921146385371685">
        <ele>394.60000610351562</ele>
        <time>2014-05-18T08:32:03Z</time>
      </trkpt>
      <trkpt lat="45.547904139384627" lon="5.92113733291626">
        <ele>394.60000610351562</ele>
        <time>2014-05-18T08:32:04Z</time>
      </trkpt>
      <trkpt lat="45.547722587361932" lon="5.921029038727284">
        <ele>395.79998779296875</ele>
        <time>2014-05-18T08:32:12Z</time>
      </trkpt>
      <trkpt lat="45.547608844935894" lon="5.920963492244482">
        <ele>396.79998779296875</ele>
        <time>2014-05-18T08:32:17Z</time>
      </trkpt>
      <trkpt lat="45.547563079744577" lon="5.920931976288557">
        <ele>397.20001220703125</ele>
        <time>2014-05-18T08:32:19Z</time>
      </trkpt>
      <trkpt lat="45.54745084606111" lon="5.920885959640145">
        <ele>397.79998779296875</ele>
        <time>2014-05-18T08:32:24Z</time>
      </trkpt>
      <trkpt lat="45.547429556027055" lon="5.920881936326623">
        <ele>398</ele>
        <time>2014-05-18T08:32:25Z</time>
      </trkpt>
      <trkpt lat="45.547322435304523" lon="5.920833069831133">
        <ele>399</ele>
        <time>2014-05-18T08:32:30Z</time>
      </trkpt>
      <trkpt lat="45.547203663736582" lon="5.920798955485225">
        <ele>399.39999389648437</ele>
        <time>2014-05-18T08:32:35Z</time>
      </trkpt>
      <trkpt lat="45.546993194147944" lon="5.920772049576044">
        <ele>399.60000610351562</ele>
        <time>2014-05-18T08:32:42Z</time>
      </trkpt>
      <trkpt lat="45.54675598628819" lon="5.920708263292909">
        <ele>399.60000610351562</ele>
        <time>2014-05-18T08:32:48Z</time>
      </trkpt>
      <trkpt lat="45.546672586351633" lon="5.920678926631808">
        <ele>399.79998779296875</ele>
        <time>2014-05-18T08:32:50Z</time>
      </trkpt>
      <trkpt lat="45.546632185578346" lon="5.920676998794079">
        <ele>400</ele>
        <time>2014-05-18T08:32:51Z</time>
      </trkpt>
      <trkpt lat="45.546508301049471" lon="5.920639950782061">
        <ele>400.20001220703125</ele>
        <time>2014-05-18T08:32:54Z</time>
      </trkpt>
      <trkpt lat="45.546379303559661" lon="5.920614302158356">
        <ele>400</ele>
        <time>2014-05-18T08:32:57Z</time>
      </trkpt>
      <trkpt lat="45.546239409595728" lon="5.92058127745986">
        <ele>399.79998779296875</ele>
        <time>2014-05-18T08:33:00Z</time>
      </trkpt>
      <trkpt lat="45.546184591948986" lon="5.920578762888908">
        <ele>399.60000610351562</ele>
        <time>2014-05-18T08:33:01Z</time>
      </trkpt>
      <trkpt lat="45.546009996905923" lon="5.920561831444502">
        <ele>398.79998779296875</ele>
        <time>2014-05-18T08:33:04Z</time>
      </trkpt>
      <trkpt lat="45.545946294441819" lon="5.920570883899927">
        <ele>398.39999389648437</ele>
        <time>2014-05-18T08:33:05Z</time>
      </trkpt>
      <trkpt lat="45.545883681625128" lon="5.920590497553349">
        <ele>398.39999389648437</ele>
        <time>2014-05-18T08:33:06Z</time>
      </trkpt>
      <trkpt lat="45.545754181221128" lon="5.920618828386068">
        <ele>397.79998779296875</ele>
        <time>2014-05-18T08:33:08Z</time>
      </trkpt>
      <trkpt lat="45.545624177902937" lon="5.920651769265533">
        <ele>397.20001220703125</ele>
        <time>2014-05-18T08:33:10Z</time>
      </trkpt>
      <trkpt lat="45.545355537906289" lon="5.920736342668533">
        <ele>396.39999389648437</ele>
        <time>2014-05-18T08:33:14Z</time>
      </trkpt>
      <trkpt lat="45.545146660879254" lon="5.920804403722286">
        <ele>395.60000610351562</ele>
        <time>2014-05-18T08:33:17Z</time>
      </trkpt>
      <trkpt lat="45.545075247064233" lon="5.920823849737644">
        <ele>395.39999389648437</ele>
        <time>2014-05-18T08:33:18Z</time>
      </trkpt>
      <trkpt lat="45.544856898486614" lon="5.920843379572034">
        <ele>395.20001220703125</ele>
        <time>2014-05-18T08:33:21Z</time>
      </trkpt>
      <trkpt lat="45.544780706986785" lon="5.920831058174372">
        <ele>395.20001220703125</ele>
        <time>2014-05-18T08:33:22Z</time>
      </trkpt>
      <trkpt lat="45.544444844126701" lon="5.920711113139987">
        <ele>394.79998779296875</ele>
        <time>2014-05-18T08:33:27Z</time>
      </trkpt>
      <trkpt lat="45.544391116127372" lon="5.920654786750674">
        <ele>394.79998779296875</ele>
        <time>2014-05-18T08:33:28Z</time>
      </trkpt>
      <trkpt lat="45.544332526624203" lon="5.920494608581066">
        <ele>395.39999389648437</ele>
        <time>2014-05-18T08:33:30Z</time>
      </trkpt>
      <trkpt lat="45.544339148327708" lon="5.920352367684245">
        <ele>396.79998779296875</ele>
        <time>2014-05-18T08:33:32Z</time>
      </trkpt>
      <trkpt lat="45.544356163591146" lon="5.920296208932996">
        <ele>397.39999389648437</ele>
        <time>2014-05-18T08:33:33Z</time>
      </trkpt>
      <trkpt lat="45.544375274330378" lon="5.92024558223784">
        <ele>398</ele>
        <time>2014-05-18T08:33:34Z</time>
      </trkpt>
      <trkpt lat="45.544414082542062" lon="5.920163104310632">
        <ele>398.60000610351562</ele>
        <time>2014-05-18T08:33:36Z</time>
      </trkpt>
      <trkpt lat="45.544448867440224" lon="5.920081548392773">
        <ele>399</ele>
        <time>2014-05-18T08:33:38Z</time>
      </trkpt>
      <trkpt lat="45.544469654560089" lon="5.920052798464894">
        <ele>399.20001220703125</ele>
        <time>2014-05-18T08:33:39Z</time>
      </trkpt>
      <trkpt lat="45.544554982334375" lon="5.919920699670911">
        <ele>400.20001220703125</ele>
        <time>2014-05-18T08:33:43Z</time>
      </trkpt>
      <trkpt lat="45.544644752517343" lon="5.919775106012821">
        <ele>401.39999389648437</ele>
        <time>2014-05-18T08:33:48Z</time>
      </trkpt>
      <trkpt lat="45.544663779437542" lon="5.919747110456228">
        <ele>401.79998779296875</ele>
        <time>2014-05-18T08:33:49Z</time>
      </trkpt>
      <trkpt lat="45.544741898775101" lon="5.919646611437202">
        <ele>402.39999389648437</ele>
        <time>2014-05-18T08:33:53Z</time>
      </trkpt>
      <trkpt lat="45.544807948172092" lon="5.919584417715669">
        <ele>403.20001220703125</ele>
        <time>2014-05-18T08:33:56Z</time>
      </trkpt>
      <trkpt lat="45.544824711978436" lon="5.919566731899977">
        <ele>403.39999389648437</ele>
        <time>2014-05-18T08:33:57Z</time>
      </trkpt>
      <trkpt lat="45.544933173805475" lon="5.919455420225859">
        <ele>404.60000610351562</ele>
        <time>2014-05-18T08:34:02Z</time>
      </trkpt>
      <trkpt lat="45.545069463551044" lon="5.919273868203163">
        <ele>405.60000610351562</ele>
        <time>2014-05-18T08:34:09Z</time>
      </trkpt>
      <trkpt lat="45.545135596767068" lon="5.919143026694655">
        <ele>406.79998779296875</ele>
        <time>2014-05-18T08:34:14Z</time>
      </trkpt>
      <trkpt lat="45.545154204592109" lon="5.919116707518697">
        <ele>407</ele>
        <time>2014-05-18T08:34:15Z</time>
      </trkpt>
      <trkpt lat="45.54521388374269" lon="5.919026434421539">
        <ele>407.79998779296875</ele>
        <time>2014-05-18T08:34:18Z</time>
      </trkpt>
      <trkpt lat="45.545272221788764" lon="5.918901124969125">
        <ele>408.60000610351562</ele>
        <time>2014-05-18T08:34:22Z</time>
      </trkpt>
      <trkpt lat="45.545301474630833" lon="5.91884077526629">
        <ele>409</ele>
        <time>2014-05-18T08:34:24Z</time>
      </trkpt>
      <trkpt lat="45.545356040820479" lon="5.918688643723726">
        <ele>410</ele>
        <time>2014-05-18T08:34:29Z</time>
      </trkpt>
      <trkpt lat="45.545368697494268" lon="5.918654277920723">
        <ele>410.20001220703125</ele>
        <time>2014-05-18T08:34:30Z</time>
      </trkpt>
      <trkpt lat="45.545425359159708" lon="5.918487226590514">
        <ele>411.20001220703125</ele>
        <time>2014-05-18T08:34:35Z</time>
      </trkpt>
      <trkpt lat="45.54543524980545" lon="5.918455375358462">
        <ele>411.20001220703125</ele>
        <time>2014-05-18T08:34:36Z</time>
      </trkpt>
      <trkpt lat="45.545481098815799" lon="5.918254964053631">
        <ele>412.39999389648437</ele>
        <time>2014-05-18T08:34:42Z</time>
      </trkpt>
      <trkpt lat="45.545490486547351" lon="5.918185813352466">
        <ele>412.79998779296875</ele>
        <time>2014-05-18T08:34:44Z</time>
      </trkpt>
      <trkpt lat="45.545490989461541" lon="5.917993197217584">
        <ele>413.60000610351562</ele>
        <time>2014-05-18T08:34:50Z</time>
      </trkpt>
      <trkpt lat="45.545484954491258" lon="5.917929159477353">
        <ele>414</ele>
        <time>2014-05-18T08:34:52Z</time>
      </trkpt>
      <trkpt lat="45.545483864843845" lon="5.917843831703067">
        <ele>414</ele>
        <time>2014-05-18T08:34:55Z</time>
      </trkpt>
      <trkpt lat="45.545469028875232" lon="5.917778871953487">
        <ele>414.60000610351562</ele>
        <time>2014-05-18T08:34:57Z</time>
      </trkpt>
      <trkpt lat="45.545452432706952" lon="5.917679378762841">
        <ele>415.60000610351562</ele>
        <time>2014-05-18T08:35:00Z</time>
      </trkpt>
      <trkpt lat="45.545438351109624" lon="5.917598744854331">
        <ele>416</ele>
        <time>2014-05-18T08:35:03Z</time>
      </trkpt>
      <trkpt lat="45.545419072732329" lon="5.917511489242315">
        <ele>416.79998779296875</ele>
        <time>2014-05-18T08:35:06Z</time>
      </trkpt>
      <trkpt lat="45.545402560383081" lon="5.917415348812938">
        <ele>417</ele>
        <time>2014-05-18T08:35:09Z</time>
      </trkpt>
      <trkpt lat="45.545377330854535" lon="5.91729037463665">
        <ele>417.79998779296875</ele>
        <time>2014-05-18T08:35:13Z</time>
      </trkpt>
      <trkpt lat="45.545345982536674" lon="5.917198173701763">
        <ele>418.39999389648437</ele>
        <time>2014-05-18T08:35:16Z</time>
      </trkpt>
      <trkpt lat="45.545311365276575" lon="5.917110498994589">
        <ele>419</ele>
        <time>2014-05-18T08:35:19Z</time>
      </trkpt>
      <trkpt lat="45.545278340578079" lon="5.917001701891422">
        <ele>419.39999389648437</ele>
        <time>2014-05-18T08:35:23Z</time>
      </trkpt>
      <trkpt lat="45.545238861814141" lon="5.91691704466939">
        <ele>420</ele>
        <time>2014-05-18T08:35:26Z</time>
      </trkpt>
      <trkpt lat="45.545184044167399" lon="5.916799949482083">
        <ele>421</ele>
        <time>2014-05-18T08:35:30Z</time>
      </trkpt>
      <trkpt lat="45.545171555131674" lon="5.916770193725824">
        <ele>421</ele>
        <time>2014-05-18T08:35:31Z</time>
      </trkpt>
      <trkpt lat="45.545082874596119" lon="5.916592916473746">
        <ele>422.20001220703125</ele>
        <time>2014-05-18T08:35:37Z</time>
      </trkpt>
      <trkpt lat="45.545067032799125" lon="5.916563076898456">
        <ele>422.20001220703125</ele>
        <time>2014-05-18T08:35:38Z</time>
      </trkpt>
      <trkpt lat="45.545004671439528" lon="5.916464924812317">
        <ele>423.20001220703125</ele>
        <time>2014-05-18T08:35:42Z</time>
      </trkpt>
      <trkpt lat="45.544956894591451" lon="5.916398456320167">
        <ele>423.60000610351562</ele>
        <time>2014-05-18T08:35:45Z</time>
      </trkpt>
      <trkpt lat="45.544880786910653" lon="5.916319163516164">
        <ele>424.20001220703125</ele>
        <time>2014-05-18T08:35:49Z</time>
      </trkpt>
      <trkpt lat="45.544841643422842" lon="5.916279349476099">
        <ele>424.60000610351562</ele>
        <time>2014-05-18T08:35:51Z</time>
      </trkpt>
      <trkpt lat="45.544782551005483" lon="5.916235176846385">
        <ele>425.39999389648437</ele>
        <time>2014-05-18T08:35:54Z</time>
      </trkpt>
      <trkpt lat="45.544663863256574" lon="5.916187316179276">
        <ele>426</ele>
        <time>2014-05-18T08:35:59Z</time>
      </trkpt>
      <trkpt lat="45.54459236562252" lon="5.91617533005774">
        <ele>426.60000610351562</ele>
        <time>2014-05-18T08:36:02Z</time>
      </trkpt>
      <trkpt lat="45.544497985392809" lon="5.916158817708492">
        <ele>427</ele>
        <time>2014-05-18T08:36:06Z</time>
      </trkpt>
      <trkpt lat="45.54439446888864" lon="5.91616652905941">
        <ele>427.60000610351562</ele>
        <time>2014-05-18T08:36:10Z</time>
      </trkpt>
      <trkpt lat="45.544326910749078" lon="5.916167283430696">
        <ele>428.20001220703125</ele>
        <time>2014-05-18T08:36:13Z</time>
      </trkpt>
      <trkpt lat="45.544256502762437" lon="5.916162841022015">
        <ele>428.60000610351562</ele>
        <time>2014-05-18T08:36:16Z</time>
      </trkpt>
      <trkpt lat="45.544118452817202" lon="5.916149513795972">
        <ele>429.79998779296875</ele>
        <time>2014-05-18T08:36:22Z</time>
      </trkpt>
      <trkpt lat="45.544005129486322" lon="5.916149010881782">
        <ele>430.79998779296875</ele>
        <time>2014-05-18T08:36:27Z</time>
      </trkpt>
      <trkpt lat="45.543981995433569" lon="5.91616116464138">
        <ele>430.79998779296875</ele>
        <time>2014-05-18T08:36:28Z</time>
      </trkpt>
      <trkpt lat="45.543856518343091" lon="5.916199972853065">
        <ele>431.79998779296875</ele>
        <time>2014-05-18T08:36:33Z</time>
      </trkpt>
      <trkpt lat="45.543803460896015" lon="5.916218664497137">
        <ele>432.20001220703125</ele>
        <time>2014-05-18T08:36:35Z</time>
      </trkpt>
      <trkpt lat="45.543630290776491" lon="5.916293850168586">
        <ele>433</ele>
        <time>2014-05-18T08:36:41Z</time>
      </trkpt>
      <trkpt lat="45.543549992144108" lon="5.916325198486447">
        <ele>433.60000610351562</ele>
        <time>2014-05-18T08:36:44Z</time>
      </trkpt>
      <trkpt lat="45.543474806472659" lon="5.916341710835695">
        <ele>434.20001220703125</ele>
        <time>2014-05-18T08:36:47Z</time>
      </trkpt>
      <trkpt lat="45.54339375346899" lon="5.916365431621671">
        <ele>434.79998779296875</ele>
        <time>2014-05-18T08:36:50Z</time>
      </trkpt>
      <trkpt lat="45.543340528383851" lon="5.916381860151887">
        <ele>435.20001220703125</ele>
        <time>2014-05-18T08:36:52Z</time>
      </trkpt>
      <trkpt lat="45.543216057121754" lon="5.916421674191952">
        <ele>436.39999389648437</ele>
        <time>2014-05-18T08:36:57Z</time>
      </trkpt>
      <trkpt lat="45.5430599860847" lon="5.916480766609311">
        <ele>437</ele>
        <time>2014-05-18T08:37:03Z</time>
      </trkpt>
      <trkpt lat="45.542985387146473" lon="5.916498200967908">
        <ele>437.79998779296875</ele>
        <time>2014-05-18T08:37:06Z</time>
      </trkpt>
      <trkpt lat="45.542903747409582" lon="5.916520329192281">
        <ele>438.20001220703125</ele>
        <time>2014-05-18T08:37:09Z</time>
      </trkpt>
      <trkpt lat="45.542801907286048" lon="5.916567854583263">
        <ele>438.79998779296875</ele>
        <time>2014-05-18T08:37:13Z</time>
      </trkpt>
      <trkpt lat="45.5426852311939" lon="5.916646644473076">
        <ele>439.60000610351562</ele>
        <time>2014-05-18T08:37:18Z</time>
      </trkpt>
      <trkpt lat="45.542600741609931" lon="5.916683524847031">
        <ele>440</ele>
        <time>2014-05-18T08:37:21Z</time>
      </trkpt>
      <trkpt lat="45.54252203553915" lon="5.916740102693439">
        <ele>440.20001220703125</ele>
        <time>2014-05-18T08:37:24Z</time>
      </trkpt>
      <trkpt lat="45.542401755228639" lon="5.916821993887425">
        <ele>441.20001220703125</ele>
        <time>2014-05-18T08:37:29Z</time>
      </trkpt>
      <trkpt lat="45.542325228452682" lon="5.916856527328491">
        <ele>441.60000610351562</ele>
        <time>2014-05-18T08:37:32Z</time>
      </trkpt>
      <trkpt lat="45.542185502126813" lon="5.916926097124815">
        <ele>442.39999389648437</ele>
        <time>2014-05-18T08:37:38Z</time>
      </trkpt>
      <trkpt lat="45.542138060554862" lon="5.916948979720473">
        <ele>442.60000610351562</ele>
        <time>2014-05-18T08:37:40Z</time>
      </trkpt>
      <trkpt lat="45.541989784687757" lon="5.917017124593258">
        <ele>443.39999389648437</ele>
        <time>2014-05-18T08:37:46Z</time>
      </trkpt>
      <trkpt lat="45.541968662291765" lon="5.917028691619635">
        <ele>443.60000610351562</ele>
        <time>2014-05-18T08:37:47Z</time>
      </trkpt>
      <trkpt lat="45.541823487728834" lon="5.917088622227311">
        <ele>444.39999389648438</ele>
        <time>2014-05-18T08:37:53Z</time>
      </trkpt>
      <trkpt lat="45.541796330362558" lon="5.917091555893421">
        <ele>444.79998779296875</ele>
        <time>2014-05-18T08:37:54Z</time>
      </trkpt>
      <trkpt lat="45.541634056717157" lon="5.917125334963203">
        <ele>445.60000610351562</ele>
        <time>2014-05-18T08:38:00Z</time>
      </trkpt>
      <trkpt lat="45.541549231857061" lon="5.917137488722801">
        <ele>445.79998779296875</ele>
        <time>2014-05-18T08:38:03Z</time>
      </trkpt>
      <trkpt lat="45.541462479159236" lon="5.917148720473051">
        <ele>446.60000610351562</ele>
        <time>2014-05-18T08:38:06Z</time>
      </trkpt>
      <trkpt lat="45.541316634044051" lon="5.917166154831648">
        <ele>447.20001220703125</ele>
        <time>2014-05-18T08:38:11Z</time>
      </trkpt>
      <trkpt lat="45.54125695489347" lon="5.9171721059829">
        <ele>447.60000610351562</ele>
        <time>2014-05-18T08:38:13Z</time>
      </trkpt>
      <trkpt lat="45.541126867756248" lon="5.917197251692414">
        <ele>448.79998779296875</ele>
        <time>2014-05-18T08:38:18Z</time>
      </trkpt>
      <trkpt lat="45.541071128100157" lon="5.917199430987239">
        <ele>449</ele>
        <time>2014-05-18T08:38:20Z</time>
      </trkpt>
      <trkpt lat="45.540972305461764" lon="5.91721267439425">
        <ele>449.79998779296875</ele>
        <time>2014-05-18T08:38:24Z</time>
      </trkpt>
      <trkpt lat="45.540876835584641" lon="5.917215440422297">
        <ele>450.60000610351562</ele>
        <time>2014-05-18T08:38:28Z</time>
      </trkpt>
      <trkpt lat="45.540851522237062" lon="5.917213764041662">
        <ele>450.79998779296875</ele>
        <time>2014-05-18T08:38:29Z</time>
      </trkpt>
      <trkpt lat="45.540679357945919" lon="5.917227426543832">
        <ele>451.79998779296875</ele>
        <time>2014-05-18T08:38:36Z</time>
      </trkpt>
      <trkpt lat="45.540533931925893" lon="5.917244357988238">
        <ele>453</ele>
        <time>2014-05-18T08:38:42Z</time>
      </trkpt>
      <trkpt lat="45.540460757911205" lon="5.917253661900759">
        <ele>453.39999389648437</ele>
        <time>2014-05-18T08:38:45Z</time>
      </trkpt>
      <trkpt lat="45.540360929444432" lon="5.917248046025634">
        <ele>454</ele>
        <time>2014-05-18T08:38:49Z</time>
      </trkpt>
      <trkpt lat="45.540283229202032" lon="5.917262798175216">
        <ele>454.60000610351562</ele>
        <time>2014-05-18T08:38:52Z</time>
      </trkpt>
      <trkpt lat="45.540181640535593" lon="5.917266570031643">
        <ele>455.20001220703125</ele>
        <time>2014-05-18T08:38:56Z</time>
      </trkpt>
      <trkpt lat="45.540082231163979" lon="5.917256344109774">
        <ele>455.79998779296875</ele>
        <time>2014-05-18T08:39:00Z</time>
      </trkpt>
      <trkpt lat="45.540015175938606" lon="5.917229186743498">
        <ele>456.39999389648437</ele>
        <time>2014-05-18T08:39:03Z</time>
      </trkpt>
      <trkpt lat="45.539922723546624" lon="5.917182834818959">
        <ele>457.20001220703125</ele>
        <time>2014-05-18T08:39:07Z</time>
      </trkpt>
      <trkpt lat="45.539902104064822" lon="5.917168334126473">
        <ele>457.39999389648437</ele>
        <time>2014-05-18T08:39:08Z</time>
      </trkpt>
      <trkpt lat="45.539750307798386" lon="5.917045539245009">
        <ele>458.39999389648438</ele>
        <time>2014-05-18T08:39:15Z</time>
      </trkpt>
      <trkpt lat="45.539604295045137" lon="5.916881924495101">
        <ele>459.20001220703125</ele>
        <time>2014-05-18T08:39:22Z</time>
      </trkpt>
      <trkpt lat="45.539535311982036" lon="5.916824173182249">
        <ele>459.60000610351562</ele>
        <time>2014-05-18T08:39:25Z</time>
      </trkpt>
      <trkpt lat="45.539436656981707" lon="5.916718058288097">
        <ele>460.79998779296875</ele>
        <time>2014-05-18T08:39:30Z</time>
      </trkpt>
      <trkpt lat="45.539319645613432" lon="5.916630132123828">
        <ele>461.79998779296875</ele>
        <time>2014-05-18T08:39:35Z</time>
      </trkpt>
      <trkpt lat="45.539291733875871" lon="5.916614206507802">
        <ele>462.20001220703125</ele>
        <time>2014-05-18T08:39:36Z</time>
      </trkpt>
      <trkpt lat="45.539178578183055" lon="5.916539188474417">
        <ele>463</ele>
        <time>2014-05-18T08:39:41Z</time>
      </trkpt>
      <trkpt lat="45.539136081933975" lon="5.91651638969779">
        <ele>463.39999389648437</ele>
        <time>2014-05-18T08:39:43Z</time>
      </trkpt>
      <trkpt lat="45.539073972031474" lon="5.916492668911815">
        <ele>464.20001220703125</ele>
        <time>2014-05-18T08:39:46Z</time>
      </trkpt>
      <trkpt lat="45.538959056138992" lon="5.916444640606642">
        <ele>465.20001220703125</ele>
        <time>2014-05-18T08:39:52Z</time>
      </trkpt>
      <trkpt lat="45.538939861580729" lon="5.916431145742536">
        <ele>465.39999389648437</ele>
        <time>2014-05-18T08:39:53Z</time>
      </trkpt>
      <trkpt lat="45.538844978436828" lon="5.916393678635359">
        <ele>466.60000610351562</ele>
        <time>2014-05-18T08:39:58Z</time>
      </trkpt>
      <trkpt lat="45.538700725883245" lon="5.916371718049049">
        <ele>467.60000610351562</ele>
        <time>2014-05-18T08:40:05Z</time>
      </trkpt>
      <trkpt lat="45.538568710908294" lon="5.916348583996296">
        <ele>468.39999389648437</ele>
        <time>2014-05-18T08:40:11Z</time>
      </trkpt>
      <trkpt lat="45.53852504119277" lon="5.9163414593786">
        <ele>468.79998779296875</ele>
        <time>2014-05-18T08:40:13Z</time>
      </trkpt>
      <trkpt lat="45.538422279059887" lon="5.916326036676765">
        <ele>469.60000610351562</ele>
        <time>2014-05-18T08:40:18Z</time>
      </trkpt>
      <trkpt lat="45.538402078673244" lon="5.916321007534862">
        <ele>470</ele>
        <time>2014-05-18T08:40:19Z</time>
      </trkpt>
      <trkpt lat="45.538282049819827" lon="5.91629259288311">
        <ele>471</ele>
        <time>2014-05-18T08:40:25Z</time>
      </trkpt>
      <trkpt lat="45.538183562457561" lon="5.916279181838036">
        <ele>472</ele>
        <time>2014-05-18T08:40:30Z</time>
      </trkpt>
      <trkpt lat="45.538144083693624" lon="5.91627792455256">
        <ele>472.39999389648437</ele>
        <time>2014-05-18T08:40:32Z</time>
      </trkpt>
      <trkpt lat="45.538037465885282" lon="5.916256383061409">
        <ele>473.39999389648437</ele>
        <time>2014-05-18T08:40:37Z</time>
      </trkpt>
      <trkpt lat="45.537998741492629" lon="5.916258143261075">
        <ele>473.79998779296875</ele>
        <time>2014-05-18T08:40:39Z</time>
      </trkpt>
      <trkpt lat="45.537926238030195" lon="5.916240038350225">
        <ele>474.39999389648437</ele>
        <time>2014-05-18T08:40:43Z</time>
      </trkpt>
      <trkpt lat="45.537865972146392" lon="5.916232913732529">
        <ele>475</ele>
        <time>2014-05-18T08:40:46Z</time>
      </trkpt>
      <trkpt lat="45.537807634100318" lon="5.91622612439096">
        <ele>475.60000610351562</ele>
        <time>2014-05-18T08:40:49Z</time>
      </trkpt>
      <trkpt lat="45.537709733471274" lon="5.916203828528523">
        <ele>476.39999389648437</ele>
        <time>2014-05-18T08:40:54Z</time>
      </trkpt>
      <trkpt lat="45.537688191980124" lon="5.91620366089046">
        <ele>476.60000610351562</ele>
        <time>2014-05-18T08:40:55Z</time>
      </trkpt>
      <trkpt lat="45.537554584443569" lon="5.916177425533533">
        <ele>477.60000610351562</ele>
        <time>2014-05-18T08:41:02Z</time>
      </trkpt>
      <trkpt lat="45.537465317174792" lon="5.916157895699143">
        <ele>478.60000610351562</ele>
        <time>2014-05-18T08:41:07Z</time>
      </trkpt>
      <trkpt lat="45.537408823147416" lon="5.916149094700813">
        <ele>479.20001220703125</ele>
        <time>2014-05-18T08:41:10Z</time>
      </trkpt>
      <trkpt lat="45.537332128733397" lon="5.916124954819679">
        <ele>479.79998779296875</ele>
        <time>2014-05-18T08:41:14Z</time>
      </trkpt>
      <trkpt lat="45.537253171205521" lon="5.916108023375273">
        <ele>480.20001220703125</ele>
        <time>2014-05-18T08:41:18Z</time>
      </trkpt>
      <trkpt lat="45.53717982955277" lon="5.916095701977611">
        <ele>481</ele>
        <time>2014-05-18T08:41:22Z</time>
      </trkpt>
      <trkpt lat="45.537153175100684" lon="5.91609762981534">
        <ele>481.20001220703125</ele>
        <time>2014-05-18T08:41:24Z</time>
      </trkpt>
      <trkpt lat="45.537138506770134" lon="5.91609519906342">
        <ele>481.20001220703125</ele>
        <time>2014-05-18T08:41:25Z</time>
      </trkpt>
      <trkpt lat="45.537076396867633" lon="5.916091678664088">
        <ele>482</ele>
        <time>2014-05-18T08:41:29Z</time>
      </trkpt>
      <trkpt lat="45.537059381604195" lon="5.916088158264756">
        <ele>482.20001220703125</ele>
        <time>2014-05-18T08:41:30Z</time>
      </trkpt>
      <trkpt lat="45.536972545087337" lon="5.916050188243389">
        <ele>483.20001220703125</ele>
        <time>2014-05-18T08:41:35Z</time>
      </trkpt>
      <trkpt lat="45.536954943090677" lon="5.916046584025025">
        <ele>483.20001220703125</ele>
        <time>2014-05-18T08:41:36Z</time>
      </trkpt>
      <trkpt lat="45.536821251735091" lon="5.916016157716513">
        <ele>484</ele>
        <time>2014-05-18T08:41:42Z</time>
      </trkpt>
      <trkpt lat="45.536777162924409" lon="5.91600232757628">
        <ele>484.39999389648437</ele>
        <time>2014-05-18T08:41:44Z</time>
      </trkpt>
      <trkpt lat="45.536678424105048" lon="5.915982546284795">
        <ele>485</ele>
        <time>2014-05-18T08:41:49Z</time>
      </trkpt>
      <trkpt lat="45.536615056917071" lon="5.915968716144562">
        <ele>485.39999389648437</ele>
        <time>2014-05-18T08:41:52Z</time>
      </trkpt>
      <trkpt lat="45.536542134359479" lon="5.915963016450405">
        <ele>486</ele>
        <time>2014-05-18T08:41:56Z</time>
      </trkpt>
      <trkpt lat="45.536488238722086" lon="5.915946336463094">
        <ele>486.60000610351562</ele>
        <time>2014-05-18T08:41:59Z</time>
      </trkpt>
      <trkpt lat="45.536361169070005" lon="5.915925214067102">
        <ele>487.60000610351562</ele>
        <time>2014-05-18T08:42:06Z</time>
      </trkpt>
      <trkpt lat="45.536247091367841" lon="5.915898391976953">
        <ele>488.60000610351562</ele>
        <time>2014-05-18T08:42:13Z</time>
      </trkpt>
      <trkpt lat="45.536146927624941" lon="5.915876515209675">
        <ele>489.79998779296875</ele>
        <time>2014-05-18T08:42:19Z</time>
      </trkpt>
      <trkpt lat="45.536117004230618" lon="5.915871569886804">
        <ele>490</ele>
        <time>2014-05-18T08:42:21Z</time>
      </trkpt>
      <trkpt lat="45.536055816337466" lon="5.915854889899492">
        <ele>490.79998779296875</ele>
        <time>2014-05-18T08:42:25Z</time>
      </trkpt>
      <trkpt lat="45.536007452756166" lon="5.915847346186638">
        <ele>491.20001220703125</ele>
        <time>2014-05-18T08:42:28Z</time>
      </trkpt>
      <trkpt lat="45.535939056426287" lon="5.915837455540896">
        <ele>491.79998779296875</ele>
        <time>2014-05-18T08:42:32Z</time>
      </trkpt>
      <trkpt lat="45.535865714773536" lon="5.915828235447407">
        <ele>492.60000610351562</ele>
        <time>2014-05-18T08:42:36Z</time>
      </trkpt>
      <trkpt lat="45.535819530487061" lon="5.915823373943567">
        <ele>493</ele>
        <time>2014-05-18T08:42:38Z</time>
      </trkpt>
      <trkpt lat="45.535736382007599" lon="5.915817925706506">
        <ele>493.79998779296875</ele>
        <time>2014-05-18T08:42:42Z</time>
      </trkpt>
      <trkpt lat="45.535695478320122" lon="5.915811806917191">
        <ele>494.20001220703125</ele>
        <time>2014-05-18T08:42:44Z</time>
      </trkpt>
      <trkpt lat="45.535601433366537" lon="5.915802670642734">
        <ele>495</ele>
        <time>2014-05-18T08:42:49Z</time>
      </trkpt>
      <trkpt lat="45.535586262121797" lon="5.915803425014019">
        <ele>495.39999389648438</ele>
        <time>2014-05-18T08:42:50Z</time>
      </trkpt>
      <trkpt lat="45.535488948225975" lon="5.915812728926539">
        <ele>496.20001220703125</ele>
        <time>2014-05-18T08:42:56Z</time>
      </trkpt>
      <trkpt lat="45.535473022609949" lon="5.915812226012349">
        <ele>496.39999389648437</ele>
        <time>2014-05-18T08:42:57Z</time>
      </trkpt>
      <trkpt lat="45.535410661250353" lon="5.915812645107508">
        <ele>497.39999389648437</ele>
        <time>2014-05-18T08:43:01Z</time>
      </trkpt>
      <trkpt lat="45.535396076738834" lon="5.915816249325872">
        <ele>497.60000610351562</ele>
        <time>2014-05-18T08:43:02Z</time>
      </trkpt>
      <trkpt lat="45.53538266569376" lon="5.915815997868776">
        <ele>497.79998779296875</ele>
        <time>2014-05-18T08:43:03Z</time>
      </trkpt>
      <trkpt lat="45.535320555791259" lon="5.915814656764269">
        <ele>498.60000610351562</ele>
        <time>2014-05-18T08:43:07Z</time>
      </trkpt>
      <trkpt lat="45.535301193594933" lon="5.915812226012349">
        <ele>498.79998779296875</ele>
        <time>2014-05-18T08:43:08Z</time>
      </trkpt>
      <trkpt lat="45.535196587443352" lon="5.915806777775288">
        <ele>500</ele>
        <time>2014-05-18T08:43:14Z</time>
      </trkpt>
      <trkpt lat="45.53509340621531" lon="5.915808957070112">
        <ele>501.20001220703125</ele>
        <time>2014-05-18T08:43:20Z</time>
      </trkpt>
      <trkpt lat="45.535061806440353" lon="5.915808035060763">
        <ele>501.60000610351562</ele>
        <time>2014-05-18T08:43:22Z</time>
      </trkpt>
      <trkpt lat="45.534975975751877" lon="5.915794372558594">
        <ele>502.39999389648437</ele>
        <time>2014-05-18T08:43:27Z</time>
      </trkpt>
      <trkpt lat="45.534942615777254" lon="5.915793534368277">
        <ele>503</ele>
        <time>2014-05-18T08:43:29Z</time>
      </trkpt>
      <trkpt lat="45.534888301044703" lon="5.915783643722534">
        <ele>503.79998779296875</ele>
        <time>2014-05-18T08:43:32Z</time>
      </trkpt>
      <trkpt lat="45.534808170050383" lon="5.915770484134555">
        <ele>504.60000610351562</ele>
        <time>2014-05-18T08:43:36Z</time>
      </trkpt>
      <trkpt lat="45.534769529476762" lon="5.915757743641734">
        <ele>505</ele>
        <time>2014-05-18T08:43:38Z</time>
      </trkpt>
      <trkpt lat="45.534672634676099" lon="5.915735699236393">
        <ele>506</ele>
        <time>2014-05-18T08:43:43Z</time>
      </trkpt>
      <trkpt lat="45.534591162577271" lon="5.915719689801335">
        <ele>507.20001220703125</ele>
        <time>2014-05-18T08:43:48Z</time>
      </trkpt>
      <trkpt lat="45.534537099301815" lon="5.915698148310185">
        <ele>507.60000610351562</ele>
        <time>2014-05-18T08:43:51Z</time>
      </trkpt>
      <trkpt lat="45.534485466778278" lon="5.915665961802006">
        <ele>508.39999389648437</ele>
        <time>2014-05-18T08:43:54Z</time>
      </trkpt>
      <trkpt lat="45.534398881718516" lon="5.91562757268548">
        <ele>509.60000610351563</ele>
        <time>2014-05-18T08:43:59Z</time>
      </trkpt>
      <trkpt lat="45.534363174811006" lon="5.915616760030389">
        <ele>510</ele>
        <time>2014-05-18T08:44:01Z</time>
      </trkpt>
      <trkpt lat="45.534320762380958" lon="5.915594045072794">
        <ele>510.79998779296875</ele>
        <time>2014-05-18T08:44:04Z</time>
      </trkpt>
      <trkpt lat="45.534273236989975" lon="5.915579712018371">
        <ele>511.39999389648438</ele>
        <time>2014-05-18T08:44:07Z</time>
      </trkpt>
      <trkpt lat="45.534255802631378" lon="5.915575101971626">
        <ele>511.79998779296875</ele>
        <time>2014-05-18T08:44:08Z</time>
      </trkpt>
      <trkpt lat="45.534187406301498" lon="5.915529504418373">
        <ele>513</ele>
        <time>2014-05-18T08:44:13Z</time>
      </trkpt>
      <trkpt lat="45.534117920324206" lon="5.915484912693501">
        <ele>514.20001220703125</ele>
        <time>2014-05-18T08:44:18Z</time>
      </trkpt>
      <trkpt lat="45.534069556742907" lon="5.915469909086824">
        <ele>515</ele>
        <time>2014-05-18T08:44:21Z</time>
      </trkpt>
      <trkpt lat="45.534037202596664" lon="5.915456246584654">
        <ele>515.4000244140625</ele>
        <time>2014-05-18T08:44:23Z</time>
      </trkpt>
      <trkpt lat="45.533970315009356" lon="5.915423557162285">
        <ele>516.4000244140625</ele>
        <time>2014-05-18T08:44:28Z</time>
      </trkpt>
      <trkpt lat="45.533901583403349" lon="5.915379049256444">
        <ele>517</ele>
        <time>2014-05-18T08:44:32Z</time>
      </trkpt>
      <trkpt lat="45.533862942829728" lon="5.915368320420384">
        <ele>517.4000244140625</ele>
        <time>2014-05-18T08:44:34Z</time>
      </trkpt>
      <trkpt lat="45.533771077170968" lon="5.915329260751605">
        <ele>518.20001220703125</ele>
        <time>2014-05-18T08:44:39Z</time>
      </trkpt>
      <trkpt lat="45.533752804622054" lon="5.915318783372641">
        <ele>518.5999755859375</ele>
        <time>2014-05-18T08:44:40Z</time>
      </trkpt>
      <trkpt lat="45.533638475462794" lon="5.915271006524563">
        <ele>519.5999755859375</ele>
        <time>2014-05-18T08:44:46Z</time>
      </trkpt>
      <trkpt lat="45.53361969999969" lon="5.915261954069138">
        <ele>519.79998779296875</ele>
        <time>2014-05-18T08:44:47Z</time>
      </trkpt>
      <trkpt lat="45.53351316601038" lon="5.915232952684164">
        <ele>520.79998779296875</ele>
        <time>2014-05-18T08:44:53Z</time>
      </trkpt>
      <trkpt lat="45.533477291464806" lon="5.915218535810709">
        <ele>521</ele>
        <time>2014-05-18T08:44:55Z</time>
      </trkpt>
      <trkpt lat="45.533422138541937" lon="5.915201688185334">
        <ele>521.79998779296875</ele>
        <time>2014-05-18T08:44:58Z</time>
      </trkpt>
      <trkpt lat="45.533354412764311" lon="5.91518777422607">
        <ele>522.5999755859375</ele>
        <time>2014-05-18T08:45:02Z</time>
      </trkpt>
      <trkpt lat="45.533299511298537" lon="5.915174782276154">
        <ele>523</ele>
        <time>2014-05-18T08:45:05Z</time>
      </trkpt>
      <trkpt lat="45.533245112746954" lon="5.915150977671146">
        <ele>523.5999755859375</ele>
        <time>2014-05-18T08:45:08Z</time>
      </trkpt>
      <trkpt lat="45.533227929845452" lon="5.915142511948943">
        <ele>524</ele>
        <time>2014-05-18T08:45:09Z</time>
      </trkpt>
      <trkpt lat="45.533126508817077" lon="5.915113762021065">
        <ele>525</ele>
        <time>2014-05-18T08:45:15Z</time>
      </trkpt>
      <trkpt lat="45.53310714662075" lon="5.915109654888511">
        <ele>525.20001220703125</ele>
        <time>2014-05-18T08:45:16Z</time>
      </trkpt>
      <trkpt lat="45.532965492457151" lon="5.915068667382002">
        <ele>526</ele>
        <time>2014-05-18T08:45:23Z</time>
      </trkpt>
      <trkpt lat="45.532944286242127" lon="5.915055675432086">
        <ele>526.20001220703125</ele>
        <time>2014-05-18T08:45:24Z</time>
      </trkpt>
      <trkpt lat="45.532777234911919" lon="5.914909578859806">
        <ele>526.5999755859375</ele>
        <time>2014-05-18T08:45:32Z</time>
      </trkpt>
      <trkpt lat="45.532696601003408" lon="5.914766248315573">
        <ele>527.20001220703125</ele>
        <time>2014-05-18T08:45:37Z</time>
      </trkpt>
      <trkpt lat="45.532664330676198" lon="5.914702629670501">
        <ele>527.4000244140625</ele>
        <time>2014-05-18T08:45:39Z</time>
      </trkpt>
      <trkpt lat="45.532574141398072" lon="5.914509175345302">
        <ele>527.4000244140625</ele>
        <time>2014-05-18T08:45:45Z</time>
      </trkpt>
      <trkpt lat="45.532446736469865" lon="5.914331143721938">
        <ele>528.20001220703125</ele>
        <time>2014-05-18T08:45:51Z</time>
      </trkpt>
      <trkpt lat="45.532215815037489" lon="5.91421882621944">
        <ele>529.20001220703125</ele>
        <time>2014-05-18T08:45:59Z</time>
      </trkpt>
      <trkpt lat="45.53196863271296" lon="5.914123943075538">
        <ele>529.79998779296875</ele>
        <time>2014-05-18T08:46:07Z</time>
      </trkpt>
      <trkpt lat="45.53175556473434" lon="5.914004584774375">
        <ele>530.20001220703125</ele>
        <time>2014-05-18T08:46:14Z</time>
      </trkpt>
      <trkpt lat="45.531726898625493" lon="5.913983881473541">
        <ele>530.4000244140625</ele>
        <time>2014-05-18T08:46:15Z</time>
      </trkpt>
      <trkpt lat="45.531565630808473" lon="5.913841808214784">
        <ele>530.79998779296875</ele>
        <time>2014-05-18T08:46:21Z</time>
      </trkpt>
      <trkpt lat="45.53140914067626" lon="5.913673751056194">
        <ele>531.20001220703125</ele>
        <time>2014-05-18T08:46:27Z</time>
      </trkpt>
      <trkpt lat="45.531338732689619" lon="5.913569144904614">
        <ele>531.4000244140625</ele>
        <time>2014-05-18T08:46:30Z</time>
      </trkpt>
      <trkpt lat="45.531277041882277" lon="5.913443667814136">
        <ele>531.20001220703125</ele>
        <time>2014-05-18T08:46:33Z</time>
      </trkpt>
      <trkpt lat="45.531187187880278" lon="5.913184583187103">
        <ele>531.5999755859375</ele>
        <time>2014-05-18T08:46:39Z</time>
      </trkpt>
      <trkpt lat="45.531072355806828" lon="5.912942513823509">
        <ele>532.20001220703125</ele>
        <time>2014-05-18T08:46:45Z</time>
      </trkpt>
      <trkpt lat="45.530980825424194" lon="5.912798848003149">
        <ele>532.5999755859375</ele>
        <time>2014-05-18T08:46:49Z</time>
      </trkpt>
      <trkpt lat="45.530930534005165" lon="5.912738665938377">
        <ele>532.5999755859375</ele>
        <time>2014-05-18T08:46:51Z</time>
      </trkpt>
      <trkpt lat="45.530826011672616" lon="5.912657277658582">
        <ele>533.20001220703125</ele>
        <time>2014-05-18T08:46:55Z</time>
      </trkpt>
      <trkpt lat="45.530805392190814" lon="5.91263716109097">
        <ele>533.5999755859375</ele>
        <time>2014-05-18T08:46:56Z</time>
      </trkpt>
      <trkpt lat="45.530790220946074" lon="5.912620397284627">
        <ele>533.79998779296875</ele>
        <time>2014-05-18T08:46:57Z</time>
      </trkpt>
      <trkpt lat="45.530768763273954" lon="5.912606148049235">
        <ele>534.5999755859375</ele>
        <time>2014-05-18T08:48:44Z</time>
      </trkpt>
      <trkpt lat="45.530752753838897" lon="5.912608914077282">
        <ele>534.5999755859375</ele>
        <time>2014-05-18T08:48:45Z</time>
      </trkpt>
      <trkpt lat="45.530734900385141" lon="5.912614027038217">
        <ele>534.5999755859375</ele>
        <time>2014-05-18T08:48:46Z</time>
      </trkpt>
      <trkpt lat="45.530634569004178" lon="5.912595419213176">
        <ele>535</ele>
        <time>2014-05-18T08:48:51Z</time>
      </trkpt>
      <trkpt lat="45.530570698902011" lon="5.912575218826532">
        <ele>535.5999755859375</ele>
        <time>2014-05-18T08:48:54Z</time>
      </trkpt>
      <trkpt lat="45.530463578179479" lon="5.912562059238553">
        <ele>536.4000244140625</ele>
        <time>2014-05-18T08:48:58Z</time>
      </trkpt>
      <trkpt lat="45.5304089281708" lon="5.912557868286967">
        <ele>536.5999755859375</ele>
        <time>2014-05-18T08:49:00Z</time>
      </trkpt>
      <trkpt lat="45.530283870175481" lon="5.912534650415182">
        <ele>538</ele>
        <time>2014-05-18T08:49:05Z</time>
      </trkpt>
      <trkpt lat="45.530205331742764" lon="5.912520401179791">
        <ele>538.5999755859375</ele>
        <time>2014-05-18T08:49:08Z</time>
      </trkpt>
      <trkpt lat="45.530152777209878" lon="5.912512019276619">
        <ele>539</ele>
        <time>2014-05-18T08:49:10Z</time>
      </trkpt>
      <trkpt lat="45.530000478029251" lon="5.912478324025869">
        <ele>540</ele>
        <time>2014-05-18T08:49:16Z</time>
      </trkpt>
      <trkpt lat="45.529842395335436" lon="5.912447897717357">
        <ele>541</ele>
        <time>2014-05-18T08:49:22Z</time>
      </trkpt>
      <trkpt lat="45.529769388958812" lon="5.912429457530379">
        <ele>541.5999755859375</ele>
        <time>2014-05-18T08:49:25Z</time>
      </trkpt>
      <trkpt lat="45.529662687331438" lon="5.912411604076624">
        <ele>542.20001220703125</ele>
        <time>2014-05-18T08:49:29Z</time>
      </trkpt>
      <trkpt lat="45.529536958783865" lon="5.912383692339063">
        <ele>543.4000244140625</ele>
        <time>2014-05-18T08:49:34Z</time>
      </trkpt>
      <trkpt lat="45.529415924102068" lon="5.912371035665274">
        <ele>544.4000244140625</ele>
        <time>2014-05-18T08:49:39Z</time>
      </trkpt>
      <trkpt lat="45.529241999611259" lon="5.912331640720367">
        <ele>545.5999755859375</ele>
        <time>2014-05-18T08:49:46Z</time>
      </trkpt>
      <trkpt lat="45.529102189466357" lon="5.91229316778481">
        <ele>546.5999755859375</ele>
        <time>2014-05-18T08:49:52Z</time>
      </trkpt>
      <trkpt lat="45.529043599963188" lon="5.912280008196831">
        <ele>547.4000244140625</ele>
        <time>2014-05-18T08:49:55Z</time>
      </trkpt>
      <trkpt lat="45.529023064300418" lon="5.912273889407516">
        <ele>547.5999755859375</ele>
        <time>2014-05-18T08:49:56Z</time>
      </trkpt>
      <trkpt lat="45.528889456763864" lon="5.912222089245915">
        <ele>548.79998779296875</ele>
        <time>2014-05-18T08:50:02Z</time>
      </trkpt>
      <trkpt lat="45.528867999091744" lon="5.912213791161776">
        <ele>549.20001220703125</ele>
        <time>2014-05-18T08:50:03Z</time>
      </trkpt>
      <trkpt lat="45.528734643012285" lon="5.912163080647588">
        <ele>550</ele>
        <time>2014-05-18T08:50:09Z</time>
      </trkpt>
      <trkpt lat="45.52854529581964" lon="5.912155034020543">
        <ele>551.20001220703125</ele>
        <time>2014-05-18T08:50:17Z</time>
      </trkpt>
      <trkpt lat="45.528521742671728" lon="5.912158386781812">
        <ele>551.20001220703125</ele>
        <time>2014-05-18T08:50:18Z</time>
      </trkpt>
      <trkpt lat="45.528388889506459" lon="5.912238014861941">
        <ele>552.20001220703125</ele>
        <time>2014-05-18T08:50:24Z</time>
      </trkpt>
      <trkpt lat="45.528370533138514" lon="5.91226140037179">
        <ele>552.4000244140625</ele>
        <time>2014-05-18T08:50:25Z</time>
      </trkpt>
      <trkpt lat="45.528307668864727" lon="5.912367347627878">
        <ele>553.4000244140625</ele>
        <time>2014-05-18T08:50:29Z</time>
      </trkpt>
      <trkpt lat="45.528259137645364" lon="5.912483353167772">
        <ele>554</ele>
        <time>2014-05-18T08:50:33Z</time>
      </trkpt>
      <trkpt lat="45.528205577284098" lon="5.912596005946398">
        <ele>554.79998779296875</ele>
        <time>2014-05-18T08:50:37Z</time>
      </trkpt>
      <trkpt lat="45.528165260329843" lon="5.91268552467227">
        <ele>555</ele>
        <time>2014-05-18T08:50:40Z</time>
      </trkpt>
      <trkpt lat="45.528127960860729" lon="5.912767751142383">
        <ele>555.79998779296875</ele>
        <time>2014-05-18T08:50:43Z</time>
      </trkpt>
      <trkpt lat="45.528075573965907" lon="5.912874033674598">
        <ele>556.20001220703125</ele>
        <time>2014-05-18T08:50:47Z</time>
      </trkpt>
      <trkpt lat="45.528020421043038" lon="5.912981489673257">
        <ele>557</ele>
        <time>2014-05-18T08:50:51Z</time>
      </trkpt>
      <trkpt lat="45.527977421879768" lon="5.913073187693954">
        <ele>557.4000244140625</ele>
        <time>2014-05-18T08:50:54Z</time>
      </trkpt>
      <trkpt lat="45.527943223714828" lon="5.913152731955051">
        <ele>558</ele>
        <time>2014-05-18T08:50:57Z</time>
      </trkpt>
      <trkpt lat="45.527919419109821" lon="5.913238311186433">
        <ele>558.5999755859375</ele>
        <time>2014-05-18T08:51:00Z</time>
      </trkpt>
      <trkpt lat="45.527884466573596" lon="5.913315759971738">
        <ele>559.20001220703125</ele>
        <time>2014-05-18T08:51:03Z</time>
      </trkpt>
      <trkpt lat="45.527843059971929" lon="5.913388263434172">
        <ele>559.5999755859375</ele>
        <time>2014-05-18T08:51:06Z</time>
      </trkpt>
      <trkpt lat="45.52782017737627" lon="5.913430256769061">
        <ele>560.20001220703125</ele>
        <time>2014-05-18T08:51:08Z</time>
      </trkpt>
      <trkpt lat="45.527773909270763" lon="5.913503933697939">
        <ele>560.5999755859375</ele>
        <time>2014-05-18T08:51:11Z</time>
      </trkpt>
      <trkpt lat="45.527703166007996" lon="5.913605857640505">
        <ele>561.20001220703125</ele>
        <time>2014-05-18T08:51:15Z</time>
      </trkpt>
      <trkpt lat="45.527669973671436" lon="5.913646928966045">
        <ele>561.5999755859375</ele>
        <time>2014-05-18T08:51:17Z</time>
      </trkpt>
      <trkpt lat="45.527582131326199" lon="5.913758743554354">
        <ele>562.5999755859375</ele>
        <time>2014-05-18T08:51:22Z</time>
      </trkpt>
      <trkpt lat="45.527499737218022" lon="5.913851195946336">
        <ele>563.20001220703125</ele>
        <time>2014-05-18T08:51:26Z</time>
      </trkpt>
      <trkpt lat="45.52744491957128" lon="5.913913976401091">
        <ele>563.5999755859375</ele>
        <time>2014-05-18T08:51:29Z</time>
      </trkpt>
      <trkpt lat="45.527369566261768" lon="5.913986647501588">
        <ele>564.4000244140625</ele>
        <time>2014-05-18T08:51:33Z</time>
      </trkpt>
      <trkpt lat="45.527349701151252" lon="5.914002154022455">
        <ele>564.5999755859375</ele>
        <time>2014-05-18T08:51:34Z</time>
      </trkpt>
      <trkpt lat="45.527242999523878" lon="5.91408153064549">
        <ele>565.5999755859375</ele>
        <time>2014-05-18T08:51:39Z</time>
      </trkpt>
      <trkpt lat="45.527201760560274" lon="5.914109526202083">
        <ele>566.20001220703125</ele>
        <time>2014-05-18T08:51:41Z</time>
      </trkpt>
      <trkpt lat="45.527107799425721" lon="5.91416459530592">
        <ele>566.79998779296875</ele>
        <time>2014-05-18T08:51:45Z</time>
      </trkpt>
      <trkpt lat="45.527024315670133" lon="5.914214719086886">
        <ele>567.5999755859375</ele>
        <time>2014-05-18T08:51:49Z</time>
      </trkpt>
      <trkpt lat="45.526983495801687" lon="5.914231818169355">
        <ele>568</ele>
        <time>2014-05-18T08:51:51Z</time>
      </trkpt>
      <trkpt lat="45.526887439191341" lon="5.914298873394728">
        <ele>569</ele>
        <time>2014-05-18T08:51:56Z</time>
      </trkpt>
      <trkpt lat="45.526872267946601" lon="5.914316894486547">
        <ele>569.20001220703125</ele>
        <time>2014-05-18T08:51:57Z</time>
      </trkpt>
      <trkpt lat="45.526733715087175" lon="5.914479671046138">
        <ele>570</ele>
        <time>2014-05-18T08:52:05Z</time>
      </trkpt>
      <trkpt lat="45.526717789471149" lon="5.914501883089542">
        <ele>570</ele>
        <time>2014-05-18T08:52:06Z</time>
      </trkpt>
      <trkpt lat="45.526618883013725" lon="5.914675807580352">
        <ele>571</ele>
        <time>2014-05-18T08:52:13Z</time>
      </trkpt>
      <trkpt lat="45.526608657091856" lon="5.914694918319583">
        <ele>571.20001220703125</ele>
        <time>2014-05-18T08:52:14Z</time>
      </trkpt>
      <trkpt lat="45.526563646271825" lon="5.91483305208385">
        <ele>572.20001220703125</ele>
        <time>2014-05-18T08:52:20Z</time>
      </trkpt>
      <trkpt lat="45.526494411751628" lon="5.914963474497199">
        <ele>573.20001220703125</ele>
        <time>2014-05-18T08:52:26Z</time>
      </trkpt>
      <trkpt lat="45.526481671258807" lon="5.914985351264477">
        <ele>573.4000244140625</ele>
        <time>2014-05-18T08:52:27Z</time>
      </trkpt>
      <trkpt lat="45.526378992944956" lon="5.915100267156959">
        <ele>574.20001220703125</ele>
        <time>2014-05-18T08:52:33Z</time>
      </trkpt>
      <trkpt lat="45.526357619091868" lon="5.915117701515555">
        <ele>574.20001220703125</ele>
        <time>2014-05-18T08:52:34Z</time>
      </trkpt>
      <trkpt lat="45.526243960484862" lon="5.915236305445433">
        <ele>575.4000244140625</ele>
        <time>2014-05-18T08:52:40Z</time>
      </trkpt>
      <trkpt lat="45.526203727349639" lon="5.915279807522893">
        <ele>576</ele>
        <time>2014-05-18T08:52:42Z</time>
      </trkpt>
      <trkpt lat="45.526144299656153" lon="5.915338983759284">
        <ele>576.4000244140625</ele>
        <time>2014-05-18T08:52:45Z</time>
      </trkpt>
      <trkpt lat="45.526039358228445" lon="5.915424479171634">
        <ele>577.20001220703125</ele>
        <time>2014-05-18T08:52:50Z</time>
      </trkpt>
      <trkpt lat="45.525999125093222" lon="5.915452726185322">
        <ele>577.5999755859375</ele>
        <time>2014-05-18T08:52:52Z</time>
      </trkpt>
      <trkpt lat="45.525895105674863" lon="5.915532438084483">
        <ele>578.20001220703125</ele>
        <time>2014-05-18T08:52:57Z</time>
      </trkpt>
      <trkpt lat="45.525840204209089" lon="5.915578035637736">
        <ele>578.79998779296875</ele>
        <time>2014-05-18T08:53:00Z</time>
      </trkpt>
      <trkpt lat="45.52574397996068" lon="5.915662106126547">
        <ele>579.5999755859375</ele>
        <time>2014-05-18T08:53:05Z</time>
      </trkpt>
      <trkpt lat="45.525706093758345" lon="5.915691526606679">
        <ele>580</ele>
        <time>2014-05-18T08:53:07Z</time>
      </trkpt>
      <trkpt lat="45.525608528405428" lon="5.915770484134555">
        <ele>581</ele>
        <time>2014-05-18T08:53:12Z</time>
      </trkpt>
      <trkpt lat="45.525568965822458" lon="5.915787080302835">
        <ele>581.20001220703125</ele>
        <time>2014-05-18T08:53:14Z</time>
      </trkpt>
      <trkpt lat="45.525436699390411" lon="5.915846340358257">
        <ele>582.20001220703125</ele>
        <time>2014-05-18T08:53:21Z</time>
      </trkpt>
      <trkpt lat="45.52541708573699" lon="5.915854722261429">
        <ele>582.5999755859375</ele>
        <time>2014-05-18T08:53:22Z</time>
      </trkpt>
      <trkpt lat="45.525283562019467" lon="5.915878694504499">
        <ele>583.20001220703125</ele>
        <time>2014-05-18T08:53:28Z</time>
      </trkpt>
      <trkpt lat="45.525239389389753" lon="5.915884813293815">
        <ele>583.5999755859375</ele>
        <time>2014-05-18T08:53:30Z</time>
      </trkpt>
      <trkpt lat="45.525127490982413" lon="5.915896128863096">
        <ele>584.4000244140625</ele>
        <time>2014-05-18T08:53:35Z</time>
      </trkpt>
      <trkpt lat="45.525079211220145" lon="5.915906857699156">
        <ele>584.79998779296875</ele>
        <time>2014-05-18T08:53:37Z</time>
      </trkpt>
      <trkpt lat="45.524991285055876" lon="5.915904678404331">
        <ele>585.4000244140625</ele>
        <time>2014-05-18T08:53:41Z</time>
      </trkpt>
      <trkpt lat="45.524897407740355" lon="5.915912557393313">
        <ele>586</ele>
        <time>2014-05-18T08:53:45Z</time>
      </trkpt>
      <trkpt lat="45.524829346686602" lon="5.915916748344898">
        <ele>586.5999755859375</ele>
        <time>2014-05-18T08:53:48Z</time>
      </trkpt>
      <trkpt lat="45.524740079417825" lon="5.915926219895482">
        <ele>587.20001220703125</ele>
        <time>2014-05-18T08:53:52Z</time>
      </trkpt>
      <trkpt lat="45.52466950379312" lon="5.915929907932878">
        <ele>587.79998779296875</ele>
        <time>2014-05-18T08:53:55Z</time>
      </trkpt>
      <trkpt lat="45.524545786902308" lon="5.915940385311842">
        <ele>588.4000244140625</ele>
        <time>2014-05-18T08:54:00Z</time>
      </trkpt>
      <trkpt lat="45.524478983134031" lon="5.915943905711174">
        <ele>588.79998779296875</ele>
        <time>2014-05-18T08:54:03Z</time>
      </trkpt>
      <trkpt lat="45.524383597075939" lon="5.915958825498819">
        <ele>589.4000244140625</ele>
        <time>2014-05-18T08:54:07Z</time>
      </trkpt>
      <trkpt lat="45.524314446374774" lon="5.915959496051073">
        <ele>590</ele>
        <time>2014-05-18T08:54:10Z</time>
      </trkpt>
      <trkpt lat="45.52417790517211" lon="5.915962597355247">
        <ele>590.79998779296875</ele>
        <time>2014-05-18T08:54:16Z</time>
      </trkpt>
      <trkpt lat="45.524155190214515" lon="5.915960753336549">
        <ele>591</ele>
        <time>2014-05-18T08:54:17Z</time>
      </trkpt>
      <trkpt lat="45.524017727002501" lon="5.915947426110506">
        <ele>592</ele>
        <time>2014-05-18T08:54:23Z</time>
      </trkpt>
      <trkpt lat="45.523995850235224" lon="5.915944827720523">
        <ele>592.20001220703125</ele>
        <time>2014-05-18T08:54:24Z</time>
      </trkpt>
      <trkpt lat="45.523801138624549" lon="5.915891686454415">
        <ele>593.20001220703125</ele>
        <time>2014-05-18T08:54:32Z</time>
      </trkpt>
      <trkpt lat="45.52363995462656" lon="5.915828067809343">
        <ele>594.20001220703125</ele>
        <time>2014-05-18T08:54:39Z</time>
      </trkpt>
      <trkpt lat="45.523567534983158" lon="5.915789008140564">
        <ele>594.5999755859375</ele>
        <time>2014-05-18T08:54:42Z</time>
      </trkpt>
      <trkpt lat="45.523471729829907" lon="5.915740476921201">
        <ele>595.4000244140625</ele>
        <time>2014-05-18T08:54:46Z</time>
      </trkpt>
      <trkpt lat="45.523266876116395" lon="5.915617598220706">
        <ele>596.20001220703125</ele>
        <time>2014-05-18T08:54:54Z</time>
      </trkpt>
      <trkpt lat="45.523241395130754" lon="5.915601504966617">
        <ele>596.4000244140625</ele>
        <time>2014-05-18T08:54:55Z</time>
      </trkpt>
      <trkpt lat="45.523123377934098" lon="5.915516931563616">
        <ele>597.4000244140625</ele>
        <time>2014-05-18T08:55:00Z</time>
      </trkpt>
      <trkpt lat="45.523098902776837" lon="5.915500251576304">
        <ele>597.4000244140625</ele>
        <time>2014-05-18T08:55:01Z</time>
      </trkpt>
      <trkpt lat="45.522938640788198" lon="5.915385084226728">
        <ele>598.5999755859375</ele>
        <time>2014-05-18T08:55:08Z</time>
      </trkpt>
      <trkpt lat="45.52280779927969" lon="5.915274862200022">
        <ele>599.4000244140625</ele>
        <time>2014-05-18T08:55:14Z</time>
      </trkpt>
      <trkpt lat="45.522784916684031" lon="5.915257260203362">
        <ele>599.5999755859375</ele>
        <time>2014-05-18T08:55:15Z</time>
      </trkpt>
      <trkpt lat="45.52262750454247" lon="5.915144607424736">
        <ele>600.5999755859375</ele>
        <time>2014-05-18T08:55:22Z</time>
      </trkpt>
      <trkpt lat="45.522602694109082" lon="5.915129100903869">
        <ele>600.79998779296875</ele>
        <time>2014-05-18T08:55:23Z</time>
      </trkpt>
      <trkpt lat="45.522462800145149" lon="5.915038408711553">
        <ele>601.5999755859375</ele>
        <time>2014-05-18T08:55:29Z</time>
      </trkpt>
      <trkpt lat="45.522414185106754" lon="5.915011838078499">
        <ele>602</ele>
        <time>2014-05-18T08:55:31Z</time>
      </trkpt>
      <trkpt lat="45.522257527336478" lon="5.914971688762307">
        <ele>602.79998779296875</ele>
        <time>2014-05-18T08:55:37Z</time>
      </trkpt>
      <trkpt lat="45.52209977991879" lon="5.914993649348617">
        <ele>604</ele>
        <time>2014-05-18T08:55:43Z</time>
      </trkpt>
      <trkpt lat="45.522048817947507" lon="5.915006222203374">
        <ele>604.20001220703125</ele>
        <time>2014-05-18T08:55:45Z</time>
      </trkpt>
      <trkpt lat="45.521851256489754" lon="5.915019549429417">
        <ele>604.79998779296875</ele>
        <time>2014-05-18T08:55:52Z</time>
      </trkpt>
      <trkpt lat="45.521821668371558" lon="5.915009994059801">
        <ele>605</ele>
        <time>2014-05-18T08:55:53Z</time>
      </trkpt>
      <trkpt lat="45.521653527393937" lon="5.914987195283175">
        <ele>606.20001220703125</ele>
        <time>2014-05-18T08:55:59Z</time>
      </trkpt>
      <trkpt lat="45.521498126909137" lon="5.914977975189686">
        <ele>606.79998779296875</ele>
        <time>2014-05-18T08:56:05Z</time>
      </trkpt>
      <trkpt lat="45.521473735570908" lon="5.914975879713893">
        <ele>607.20001220703125</ele>
        <time>2014-05-18T08:56:06Z</time>
      </trkpt>
      <trkpt lat="45.521276509389281" lon="5.914934892207384">
        <ele>608.20001220703125</ele>
        <time>2014-05-18T08:56:13Z</time>
      </trkpt>
      <trkpt lat="45.521248430013657" lon="5.914931120350957">
        <ele>608.4000244140625</ele>
        <time>2014-05-18T08:56:14Z</time>
      </trkpt>
      <trkpt lat="45.521070063114166" lon="5.914921229705215">
        <ele>609.4000244140625</ele>
        <time>2014-05-18T08:56:21Z</time>
      </trkpt>
      <trkpt lat="45.520925559103489" lon="5.914938077330589">
        <ele>610.5999755859375</ele>
        <time>2014-05-18T08:56:27Z</time>
      </trkpt>
      <trkpt lat="45.520898653194308" lon="5.914941430091858">
        <ele>610.79998779296875</ele>
        <time>2014-05-18T08:56:28Z</time>
      </trkpt>
      <trkpt lat="45.520750544965267" lon="5.914964396506548">
        <ele>611.5999755859375</ele>
        <time>2014-05-18T08:56:34Z</time>
      </trkpt>
      <trkpt lat="45.520677622407675" lon="5.914972610771656">
        <ele>612</ele>
        <time>2014-05-18T08:56:37Z</time>
      </trkpt>
      <trkpt lat="45.520651889964938" lon="5.914973532781005">
        <ele>612.20001220703125</ele>
        <time>2014-05-18T08:56:38Z</time>
      </trkpt>
      <trkpt lat="45.520570082589984" lon="5.914978561922908">
        <ele>612.5999755859375</ele>
        <time>2014-05-18T08:56:41Z</time>
      </trkpt>
      <trkpt lat="45.520384591072798" lon="5.914991805329919">
        <ele>613.5999755859375</ele>
        <time>2014-05-18T08:56:48Z</time>
      </trkpt>
      <trkpt lat="45.520232878625393" lon="5.915002953261137">
        <ele>614.79998779296875</ele>
        <time>2014-05-18T08:56:54Z</time>
      </trkpt>
      <trkpt lat="45.520154591649771" lon="5.915002785623074">
        <ele>615.20001220703125</ele>
        <time>2014-05-18T08:56:57Z</time>
      </trkpt>
      <trkpt lat="45.520051913335919" lon="5.914999013766646">
        <ele>615.79998779296875</ele>
        <time>2014-05-18T08:57:01Z</time>
      </trkpt>
      <trkpt lat="45.519925178959966" lon="5.915017202496529">
        <ele>616.5999755859375</ele>
        <time>2014-05-18T08:57:06Z</time>
      </trkpt>
      <trkpt lat="45.519899949431419" lon="5.915026841685176">
        <ele>617</ele>
        <time>2014-05-18T08:57:07Z</time>
      </trkpt>
      <trkpt lat="45.519714038819075" lon="5.915049724280834">
        <ele>617.5999755859375</ele>
        <time>2014-05-18T08:57:14Z</time>
      </trkpt>
      <trkpt lat="45.519633824005723" lon="5.915070176124573">
        <ele>618.20001220703125</ele>
        <time>2014-05-18T08:57:17Z</time>
      </trkpt>
      <trkpt lat="45.519528882578015" lon="5.915078306570649">
        <ele>618.20001220703125</ele>
        <time>2014-05-18T08:57:21Z</time>
      </trkpt>
      <trkpt lat="45.519346827641129" lon="5.915116360411048">
        <ele>619.20001220703125</ele>
        <time>2014-05-18T08:57:28Z</time>
      </trkpt>
      <trkpt lat="45.519142644479871" lon="5.915146116167307">
        <ele>619.79998779296875</ele>
        <time>2014-05-18T08:57:35Z</time>
      </trkpt>
      <trkpt lat="45.519048096612096" lon="5.915157683193684">
        <ele>620.4000244140625</ele>
        <time>2014-05-18T08:57:38Z</time>
      </trkpt>
      <trkpt lat="45.518866293132305" lon="5.91519414447248">
        <ele>621</ele>
        <time>2014-05-18T08:57:44Z</time>
      </trkpt>
      <trkpt lat="45.518810050562024" lon="5.91520051471889">
        <ele>621.4000244140625</ele>
        <time>2014-05-18T08:57:46Z</time>
      </trkpt>
      <trkpt lat="45.518634617328644" lon="5.915241921320558">
        <ele>622.20001220703125</ele>
        <time>2014-05-18T08:57:52Z</time>
      </trkpt>
      <trkpt lat="45.518605951219797" lon="5.915249045938253">
        <ele>622.4000244140625</ele>
        <time>2014-05-18T08:57:53Z</time>
      </trkpt>
      <trkpt lat="45.518358936533332" lon="5.915316352620721">
        <ele>623.20001220703125</ele>
        <time>2014-05-18T08:58:01Z</time>
      </trkpt>
      <trkpt lat="45.518261203542352" lon="5.915353316813707">
        <ele>623.5999755859375</ele>
        <time>2014-05-18T08:58:04Z</time>
      </trkpt>
      <trkpt lat="45.518086943775415" lon="5.915438644587994">
        <ele>624.20001220703125</ele>
        <time>2014-05-18T08:58:10Z</time>
      </trkpt>
      <trkpt lat="45.51797186024487" lon="5.915528833866119">
        <ele>624.5999755859375</ele>
        <time>2014-05-18T08:58:14Z</time>
      </trkpt>
      <trkpt lat="45.517915785312653" lon="5.915575688704848">
        <ele>624.79998779296875</ele>
        <time>2014-05-18T08:58:16Z</time>
      </trkpt>
      <trkpt lat="45.517710261046886" lon="5.915733519941568">
        <ele>625.79998779296875</ele>
        <time>2014-05-18T08:58:23Z</time>
      </trkpt>
      <trkpt lat="45.517598278820515" lon="5.915814656764269">
        <ele>626.20001220703125</ele>
        <time>2014-05-18T08:58:27Z</time>
      </trkpt>
      <trkpt lat="45.517453271895647" lon="5.915891183540225">
        <ele>626.79998779296875</ele>
        <time>2014-05-18T08:58:32Z</time>
      </trkpt>
      <trkpt lat="45.517365429550409" lon="5.91592269949615">
        <ele>627.20001220703125</ele>
        <time>2014-05-18T08:58:35Z</time>
      </trkpt>
      <trkpt lat="45.517250178381801" lon="5.915956562384963">
        <ele>628</ele>
        <time>2014-05-18T08:58:39Z</time>
      </trkpt>
      <trkpt lat="45.517114140093327" lon="5.916004255414009">
        <ele>629</ele>
        <time>2014-05-18T08:58:44Z</time>
      </trkpt>
      <trkpt lat="45.517088994383812" lon="5.91601213440299">
        <ele>629</ele>
        <time>2014-05-18T08:58:45Z</time>
      </trkpt>
      <trkpt lat="45.516904927790165" lon="5.91605362482369">
        <ele>630.20001220703125</ele>
        <time>2014-05-18T08:58:52Z</time>
      </trkpt>
      <trkpt lat="45.516753466799855" lon="5.916083715856075">
        <ele>631.20001220703125</ele>
        <time>2014-05-18T08:58:58Z</time>
      </trkpt>
      <trkpt lat="45.516650788486004" lon="5.91610886156559">
        <ele>631.5999755859375</ele>
        <time>2014-05-18T08:59:02Z</time>
      </trkpt>
      <trkpt lat="45.516550121828914" lon="5.91612696647644">
        <ele>632.20001220703125</ele>
        <time>2014-05-18T08:59:06Z</time>
      </trkpt>
      <trkpt lat="45.5164800491184" lon="5.9161376953125">
        <ele>632.79998779296875</ele>
        <time>2014-05-18T08:59:09Z</time>
      </trkpt>
      <trkpt lat="45.516387932002544" lon="5.916155716404319">
        <ele>633.4000244140625</ele>
        <time>2014-05-18T08:59:13Z</time>
      </trkpt>
      <trkpt lat="45.516294138506055" lon="5.916164517402649">
        <ele>634</ele>
        <time>2014-05-18T08:59:17Z</time>
      </trkpt>
      <trkpt lat="45.51624602638185" lon="5.916163176298142">
        <ele>634.4000244140625</ele>
        <time>2014-05-18T08:59:19Z</time>
      </trkpt>
      <trkpt lat="45.516072856262326" lon="5.91614549048245">
        <ele>635.5999755859375</ele>
        <time>2014-05-18T08:59:26Z</time>
      </trkpt>
      <trkpt lat="45.515908738598228" lon="5.916123948991299">
        <ele>636.4000244140625</ele>
        <time>2014-05-18T08:59:32Z</time>
      </trkpt>
      <trkpt lat="45.515851071104407" lon="5.916118584573269">
        <ele>636.5999755859375</ele>
        <time>2014-05-18T08:59:34Z</time>
      </trkpt>
      <trkpt lat="45.515692653134465" lon="5.916090086102486">
        <ele>637.20001220703125</ele>
        <time>2014-05-18T08:59:40Z</time>
      </trkpt>
      <trkpt lat="45.515618976205587" lon="5.916073909029365">
        <ele>637.5999755859375</ele>
        <time>2014-05-18T08:59:43Z</time>
      </trkpt>
      <trkpt lat="45.51556876860559" lon="5.916095953434706">
        <ele>638</ele>
        <time>2014-05-18T09:02:18Z</time>
      </trkpt>
      <trkpt lat="45.515464749187231" lon="5.916109448298812">
        <ele>638.20001220703125</ele>
        <time>2014-05-18T09:02:23Z</time>
      </trkpt>
      <trkpt lat="45.515354191884398" lon="5.916117830201984">
        <ele>638.5999755859375</ele>
        <time>2014-05-18T09:02:27Z</time>
      </trkpt>
      <trkpt lat="45.515296356752515" lon="5.916127469390631">
        <ele>639.20001220703125</ele>
        <time>2014-05-18T09:02:29Z</time>
      </trkpt>
      <trkpt lat="45.51512704230845" lon="5.916191842406988">
        <ele>639.79998779296875</ele>
        <time>2014-05-18T09:02:35Z</time>
      </trkpt>
      <trkpt lat="45.515062585473061" lon="5.916224112734199">
        <ele>640</ele>
        <time>2014-05-18T09:02:37Z</time>
      </trkpt>
      <trkpt lat="45.514882877469063" lon="5.916400635614991">
        <ele>640.79998779296875</ele>
        <time>2014-05-18T09:02:43Z</time>
      </trkpt>
      <trkpt lat="45.514682466164231" lon="5.916540613397956">
        <ele>641.5999755859375</ele>
        <time>2014-05-18T09:02:49Z</time>
      </trkpt>
      <trkpt lat="45.514611303806305" lon="5.9165642503649">
        <ele>642</ele>
        <time>2014-05-18T09:02:51Z</time>
      </trkpt>
      <trkpt lat="45.514468308538198" lon="5.916534075513482">
        <ele>642.79998779296875</ele>
        <time>2014-05-18T09:02:55Z</time>
      </trkpt>
      <trkpt lat="45.514398654922843" lon="5.916499206796289">
        <ele>643</ele>
        <time>2014-05-18T09:02:57Z</time>
      </trkpt>
      <trkpt lat="45.514235375449061" lon="5.916385632008314">
        <ele>644</ele>
        <time>2014-05-18T09:03:02Z</time>
      </trkpt>
      <trkpt lat="45.514034293591976" lon="5.916241798549891">
        <ele>644.79998779296875</ele>
        <time>2014-05-18T09:03:08Z</time>
      </trkpt>
      <trkpt lat="45.513968076556921" lon="5.916202152147889">
        <ele>645.4000244140625</ele>
        <time>2014-05-18T09:03:10Z</time>
      </trkpt>
      <trkpt lat="45.513841845095158" lon="5.916120931506157">
        <ele>646.20001220703125</ele>
        <time>2014-05-18T09:03:14Z</time>
      </trkpt>
      <trkpt lat="45.513807814568281" lon="5.916104167699814">
        <ele>646.4000244140625</ele>
        <time>2014-05-18T09:03:15Z</time>
      </trkpt>
      <trkpt lat="45.513527356088161" lon="5.915977768599987">
        <ele>647.4000244140625</ele>
        <time>2014-05-18T09:03:23Z</time>
      </trkpt>
      <trkpt lat="45.513274054974318" lon="5.915880622342229">
        <ele>648.4000244140625</ele>
        <time>2014-05-18T09:03:30Z</time>
      </trkpt>
      <trkpt lat="45.513052940368652" lon="5.915830666199327">
        <ele>649.5999755859375</ele>
        <time>2014-05-18T09:03:36Z</time>
      </trkpt>
      <trkpt lat="45.512775583192706" lon="5.915782302618027">
        <ele>650.5999755859375</ele>
        <time>2014-05-18T09:03:44Z</time>
      </trkpt>
      <trkpt lat="45.512619679793715" lon="5.915834689512849">
        <ele>651.4000244140625</ele>
        <time>2014-05-18T09:03:49Z</time>
      </trkpt>
      <trkpt lat="45.512594617903233" lon="5.915864109992981">
        <ele>651.5999755859375</ele>
        <time>2014-05-18T09:03:50Z</time>
      </trkpt>
      <trkpt lat="45.512535525485873" lon="5.915975421667099">
        <ele>651.5999755859375</ele>
        <time>2014-05-18T09:03:53Z</time>
      </trkpt>
      <trkpt lat="45.512506188824773" lon="5.916209695860744">
        <ele>651.79998779296875</ele>
        <time>2014-05-18T09:03:58Z</time>
      </trkpt>
      <trkpt lat="45.51254415884614" lon="5.916460230946541">
        <ele>652.5999755859375</ele>
        <time>2014-05-18T09:04:03Z</time>
      </trkpt>
      <trkpt lat="45.512681873515248" lon="5.916705569252372">
        <ele>653.20001220703125</ele>
        <time>2014-05-18T09:04:09Z</time>
      </trkpt>
      <trkpt lat="45.51275571808219" lon="5.91690631583333">
        <ele>653.79998779296875</ele>
        <time>2014-05-18T09:04:13Z</time>
      </trkpt>
      <trkpt lat="45.512774912640452" lon="5.91695518232882">
        <ele>654</ele>
        <time>2014-05-18T09:04:14Z</time>
      </trkpt>
      <trkpt lat="45.512883625924587" lon="5.917253158986569">
        <ele>654.79998779296875</ele>
        <time>2014-05-18T09:04:20Z</time>
      </trkpt>
      <trkpt lat="45.512927630916238" lon="5.917342007160187">
        <ele>655.20001220703125</ele>
        <time>2014-05-18T09:04:22Z</time>
      </trkpt>
      <trkpt lat="45.513005750253797" lon="5.917511992156506">
        <ele>656</ele>
        <time>2014-05-18T09:04:26Z</time>
      </trkpt>
      <trkpt lat="45.513046570122242" lon="5.917599918320775">
        <ele>656.4000244140625</ele>
        <time>2014-05-18T09:04:28Z</time>
      </trkpt>
      <trkpt lat="45.513125360012054" lon="5.917804352939129">
        <ele>656.20001220703125</ele>
        <time>2014-05-18T09:04:32Z</time>
      </trkpt>
      <trkpt lat="45.513137597590685" lon="5.917857913300395">
        <ele>656.4000244140625</ele>
        <time>2014-05-18T09:04:33Z</time>
      </trkpt>
      <trkpt lat="45.513163665309548" lon="5.918083973228931">
        <ele>657.20001220703125</ele>
        <time>2014-05-18T09:04:37Z</time>
      </trkpt>
      <trkpt lat="45.513179590925574" lon="5.918183634057641">
        <ele>658</ele>
        <time>2014-05-18T09:04:39Z</time>
      </trkpt>
      <trkpt lat="45.513202222064137" lon="5.918405335396528">
        <ele>658.4000244140625</ele>
        <time>2014-05-18T09:04:43Z</time>
      </trkpt>
      <trkpt lat="45.513213369995356" lon="5.918461913242936">
        <ele>658.20001220703125</ele>
        <time>2014-05-18T09:04:44Z</time>
      </trkpt>
      <trkpt lat="45.513237174600363" lon="5.918576745316386">
        <ele>658.4000244140625</ele>
        <time>2014-05-18T09:04:46Z</time>
      </trkpt>
      <trkpt lat="45.513281850144267" lon="5.918779503554106">
        <ele>659.4000244140625</ele>
        <time>2014-05-18T09:04:50Z</time>
      </trkpt>
      <trkpt lat="45.513300709426403" lon="5.918903136625886">
        <ele>660.20001220703125</ele>
        <time>2014-05-18T09:04:53Z</time>
      </trkpt>
      <trkpt lat="45.513305654749274" lon="5.918941861018539">
        <ele>660.5999755859375</ele>
        <time>2014-05-18T09:04:54Z</time>
      </trkpt>
      <trkpt lat="45.513342702761292" lon="5.91909684240818">
        <ele>661.5999755859375</ele>
        <time>2014-05-18T09:04:59Z</time>
      </trkpt>
      <trkpt lat="45.513381427153945" lon="5.919214189052582">
        <ele>662</ele>
        <time>2014-05-18T09:05:02Z</time>
      </trkpt>
      <trkpt lat="45.513409841805696" lon="5.91929373331368">
        <ele>662.4000244140625</ele>
        <time>2014-05-18T09:05:04Z</time>
      </trkpt>
      <trkpt lat="45.513445800170302" lon="5.919370427727699">
        <ele>662.79998779296875</ele>
        <time>2014-05-18T09:05:06Z</time>
      </trkpt>
      <trkpt lat="45.513475807383657" lon="5.919445361942053">
        <ele>663.20001220703125</ele>
        <time>2014-05-18T09:05:08Z</time>
      </trkpt>
      <trkpt lat="45.513518135994673" lon="5.919548543170095">
        <ele>663.79998779296875</ele>
        <time>2014-05-18T09:05:11Z</time>
      </trkpt>
      <trkpt lat="45.513559123501182" lon="5.919642336666584">
        <ele>664.20001220703125</ele>
        <time>2014-05-18T09:05:14Z</time>
      </trkpt>
      <trkpt lat="45.513604218140244" lon="5.919753815978766">
        <ele>665</ele>
        <time>2014-05-18T09:05:18Z</time>
      </trkpt>
      <trkpt lat="45.513628860935569" lon="5.919812321662903">
        <ele>665.20001220703125</ele>
        <time>2014-05-18T09:05:20Z</time>
      </trkpt>
      <trkpt lat="45.513688875362277" lon="5.919956155121326">
        <ele>666.20001220703125</ele>
        <time>2014-05-18T09:05:25Z</time>
      </trkpt>
      <trkpt lat="45.51374277099967" lon="5.920063527300954">
        <ele>666.4000244140625</ele>
        <time>2014-05-18T09:05:29Z</time>
      </trkpt>
      <trkpt lat="45.513846036046743" lon="5.920222532004118">
        <ele>667.20001220703125</ele>
        <time>2014-05-18T09:05:35Z</time>
      </trkpt>
      <trkpt lat="45.51388249732554" lon="5.920265782624483">
        <ele>667.5999755859375</ele>
        <time>2014-05-18T09:05:37Z</time>
      </trkpt>
      <trkpt lat="45.513980146497488" lon="5.920382039621472">
        <ele>668.20001220703125</ele>
        <time>2014-05-18T09:05:42Z</time>
      </trkpt>
      <trkpt lat="45.514037227258086" lon="5.920453369617462">
        <ele>668.5999755859375</ele>
        <time>2014-05-18T09:05:45Z</time>
      </trkpt>
      <trkpt lat="45.514076370745897" lon="5.920497877523303">
        <ele>668.79998779296875</ele>
        <time>2014-05-18T09:05:47Z</time>
      </trkpt>
      <trkpt lat="45.514131607487798" lon="5.920560993254185">
        <ele>669.20001220703125</ele>
        <time>2014-05-18T09:05:50Z</time>
      </trkpt>
      <trkpt lat="45.514188185334206" lon="5.920639364048839">
        <ele>669.5999755859375</ele>
        <time>2014-05-18T09:05:53Z</time>
      </trkpt>
      <trkpt lat="45.514270830899477" lon="5.920784454792738">
        <ele>670.4000244140625</ele>
        <time>2014-05-18T09:05:57Z</time>
      </trkpt>
      <trkpt lat="45.514317182824016" lon="5.920898448675871">
        <ele>670.5999755859375</ele>
        <time>2014-05-18T09:06:00Z</time>
      </trkpt>
      <trkpt lat="45.514369988813996" lon="5.921108834445477">
        <ele>671.4000244140625</ele>
        <time>2014-05-18T09:06:05Z</time>
      </trkpt>
      <trkpt lat="45.514388093724847" lon="5.921191899105907">
        <ele>671.79998779296875</ele>
        <time>2014-05-18T09:06:07Z</time>
      </trkpt>
      <trkpt lat="45.514435786753893" lon="5.921388370916247">
        <ele>672.4000244140625</ele>
        <time>2014-05-18T09:06:12Z</time>
      </trkpt>
      <trkpt lat="45.514447018504143" lon="5.921587944030762">
        <ele>673.4000244140625</ele>
        <time>2014-05-18T09:06:17Z</time>
      </trkpt>
      <trkpt lat="45.514449113979936" lon="5.921624740585685">
        <ele>673.5999755859375</ele>
        <time>2014-05-18T09:06:18Z</time>
      </trkpt>
      <trkpt lat="45.514485742896795" lon="5.921815428882837">
        <ele>674.5999755859375</ele>
        <time>2014-05-18T09:06:23Z</time>
      </trkpt>
      <trkpt lat="45.514498399570584" lon="5.921854823827744">
        <ele>674.79998779296875</ele>
        <time>2014-05-18T09:06:24Z</time>
      </trkpt>
      <trkpt lat="45.514539554715157" lon="5.922015253454447">
        <ele>675.4000244140625</ele>
        <time>2014-05-18T09:06:28Z</time>
      </trkpt>
      <trkpt lat="45.514566628262401" lon="5.922095300629735">
        <ele>675.79998779296875</ele>
        <time>2014-05-18T09:06:30Z</time>
      </trkpt>
      <trkpt lat="45.514653632417321" lon="5.922313984483481">
        <ele>676.5999755859375</ele>
        <time>2014-05-18T09:06:36Z</time>
      </trkpt>
      <trkpt lat="45.514670731499791" lon="5.922347260639072">
        <ele>676.79998779296875</ele>
        <time>2014-05-18T09:06:37Z</time>
      </trkpt>
      <trkpt lat="45.514742564409971" lon="5.922499559819698">
        <ele>677.79998779296875</ele>
        <time>2014-05-18T09:06:42Z</time>
      </trkpt>
      <trkpt lat="45.514762848615646" lon="5.922527136281133">
        <ele>678</ele>
        <time>2014-05-18T09:06:43Z</time>
      </trkpt>
      <trkpt lat="45.514861084520817" lon="5.922672310844064">
        <ele>678.79998779296875</ele>
        <time>2014-05-18T09:06:48Z</time>
      </trkpt>
      <trkpt lat="45.51490182057023" lon="5.922729559242725">
        <ele>679.20001220703125</ele>
        <time>2014-05-18T09:06:50Z</time>
      </trkpt>
      <trkpt lat="45.515004582703114" lon="5.922862244769931">
        <ele>680</ele>
        <time>2014-05-18T09:06:55Z</time>
      </trkpt>
      <trkpt lat="45.515019753947854" lon="5.922889737412334">
        <ele>680.20001220703125</ele>
        <time>2014-05-18T09:06:56Z</time>
      </trkpt>
      <trkpt lat="45.515121929347515" lon="5.922997109591961">
        <ele>681</ele>
        <time>2014-05-18T09:07:01Z</time>
      </trkpt>
      <trkpt lat="45.515157552435994" lon="5.923043126240373">
        <ele>681.20001220703125</ele>
        <time>2014-05-18T09:07:03Z</time>
      </trkpt>
      <trkpt lat="45.51525360904634" lon="5.923181092366576">
        <ele>682</ele>
        <time>2014-05-18T09:07:08Z</time>
      </trkpt>
      <trkpt lat="45.51527414470911" lon="5.923203974962235">
        <ele>682.20001220703125</ele>
        <time>2014-05-18T09:07:09Z</time>
      </trkpt>
      <trkpt lat="45.515297697857022" lon="5.923230294138193">
        <ele>682.4000244140625</ele>
        <time>2014-05-18T09:07:10Z</time>
      </trkpt>
      <trkpt lat="45.515395347028971" lon="5.923353675752878">
        <ele>683.20001220703125</ele>
        <time>2014-05-18T09:07:15Z</time>
      </trkpt>
      <trkpt lat="45.51543490961194" lon="5.92340312898159">
        <ele>683.5999755859375</ele>
        <time>2014-05-18T09:07:17Z</time>
      </trkpt>
      <trkpt lat="45.515522081404924" lon="5.923518883064389">
        <ele>684.5999755859375</ele>
        <time>2014-05-18T09:07:22Z</time>
      </trkpt>
      <trkpt lat="45.515614785254002" lon="5.923632709309459">
        <ele>685.4000244140625</ele>
        <time>2014-05-18T09:07:28Z</time>
      </trkpt>
      <trkpt lat="45.515630291774869" lon="5.923650646582246">
        <ele>685.5999755859375</ele>
        <time>2014-05-18T09:07:29Z</time>
      </trkpt>
      <trkpt lat="45.515718972310424" lon="5.923735136166215">
        <ele>686.5999755859375</ele>
        <time>2014-05-18T09:07:34Z</time>
      </trkpt>
      <trkpt lat="45.515731712803245" lon="5.923757012933493">
        <ele>686.5999755859375</ele>
        <time>2014-05-18T09:07:35Z</time>
      </trkpt>
      <trkpt lat="45.51581796258688" lon="5.923875868320465">
        <ele>687.20001220703125</ele>
        <time>2014-05-18T09:07:40Z</time>
      </trkpt>
      <trkpt lat="45.515860207378864" lon="5.923939486965537">
        <ele>687.79998779296875</ele>
        <time>2014-05-18T09:07:43Z</time>
      </trkpt>
      <trkpt lat="45.515916114673018" lon="5.923996986821294">
        <ele>688.20001220703125</ele>
        <time>2014-05-18T09:07:46Z</time>
      </trkpt>
      <trkpt lat="45.515981744974852" lon="5.924081476405263">
        <ele>688.79998779296875</ele>
        <time>2014-05-18T09:07:50Z</time>
      </trkpt>
      <trkpt lat="45.516031114384532" lon="5.924143753945828">
        <ele>689.20001220703125</ele>
        <time>2014-05-18T09:07:53Z</time>
      </trkpt>
      <trkpt lat="45.516047207638621" lon="5.924163116142154">
        <ele>689.20001220703125</ele>
        <time>2014-05-18T09:07:54Z</time>
      </trkpt>
      <trkpt lat="45.516102444380522" lon="5.924221202731133">
        <ele>689.79998779296875</ele>
        <time>2014-05-18T09:07:57Z</time>
      </trkpt>
      <trkpt lat="45.516146281734109" lon="5.924285156652331">
        <ele>690.20001220703125</ele>
        <time>2014-05-18T09:08:00Z</time>
      </trkpt>
      <trkpt lat="45.516219539567828" lon="5.924371490254998">
        <ele>690.79998779296875</ele>
        <time>2014-05-18T09:08:04Z</time>
      </trkpt>
      <trkpt lat="45.516258934512734" lon="5.924413818866015">
        <ele>691</ele>
        <time>2014-05-18T09:08:06Z</time>
      </trkpt>
      <trkpt lat="45.516349207609892" lon="5.924527980387211">
        <ele>691.79998779296875</ele>
        <time>2014-05-18T09:08:11Z</time>
      </trkpt>
      <trkpt lat="45.51638918928802" lon="5.924567626789212">
        <ele>692.20001220703125</ele>
        <time>2014-05-18T09:08:13Z</time>
      </trkpt>
      <trkpt lat="45.51648155786097" lon="5.924670808017254">
        <ele>693</ele>
        <time>2014-05-18T09:08:18Z</time>
      </trkpt>
      <trkpt lat="45.516600413247943" lon="5.92484263703227">
        <ele>694.20001220703125</ele>
        <time>2014-05-18T09:08:25Z</time>
      </trkpt>
      <trkpt lat="45.516731338575482" lon="5.925009436905384">
        <ele>695.20001220703125</ele>
        <time>2014-05-18T09:08:32Z</time>
      </trkpt>
      <trkpt lat="45.51675028167665" lon="5.925030140206218">
        <ele>695.20001220703125</ele>
        <time>2014-05-18T09:08:33Z</time>
      </trkpt>
      <trkpt lat="45.516881039366126" lon="5.925150085240603">
        <ele>696</ele>
        <time>2014-05-18T09:08:39Z</time>
      </trkpt>
      <trkpt lat="45.516920685768127" lon="5.92518956400454">
        <ele>696.4000244140625</ele>
        <time>2014-05-18T09:08:41Z</time>
      </trkpt>
      <trkpt lat="45.516980197280645" lon="5.925258547067642">
        <ele>697</ele>
        <time>2014-05-18T09:08:44Z</time>
      </trkpt>
      <trkpt lat="45.517018921673298" lon="5.925302635878325">
        <ele>697.20001220703125</ele>
        <time>2014-05-18T09:08:46Z</time>
      </trkpt>
      <trkpt lat="45.517039289698005" lon="5.925327865406871">
        <ele>697.4000244140625</ele>
        <time>2014-05-18T09:08:47Z</time>
      </trkpt>
      <trkpt lat="45.517158731818199" lon="5.925460215657949">
        <ele>698.4000244140625</ele>
        <time>2014-05-18T09:08:53Z</time>
      </trkpt>
      <trkpt lat="45.517181027680635" lon="5.92547781765461">
        <ele>698.4000244140625</ele>
        <time>2014-05-18T09:08:54Z</time>
      </trkpt>
      <trkpt lat="45.517305079847574" lon="5.92555359005928">
        <ele>699.5999755859375</ele>
        <time>2014-05-18T09:09:00Z</time>
      </trkpt>
      <trkpt lat="45.517443716526031" lon="5.925632966682315">
        <ele>700.20001220703125</ele>
        <time>2014-05-18T09:09:06Z</time>
      </trkpt>
      <trkpt lat="45.517517812550068" lon="5.925652496516705">
        <ele>700.79998779296875</ele>
        <time>2014-05-18T09:09:09Z</time>
      </trkpt>
      <trkpt lat="45.517591154202819" lon="5.925659369677305">
        <ele>701.20001220703125</ele>
        <time>2014-05-18T09:09:12Z</time>
      </trkpt>
      <trkpt lat="45.517676481977105" lon="5.925670014694333">
        <ele>701.79998779296875</ele>
        <time>2014-05-18T09:09:16Z</time>
      </trkpt>
      <trkpt lat="45.51773875951767" lon="5.925669930875301">
        <ele>702.20001220703125</ele>
        <time>2014-05-18T09:09:19Z</time>
      </trkpt>
      <trkpt lat="45.517815873026848" lon="5.925686527043581">
        <ele>702.79998779296875</ele>
        <time>2014-05-18T09:09:23Z</time>
      </trkpt>
      <trkpt lat="45.517837079241872" lon="5.925694489851594">
        <ele>703</ele>
        <time>2014-05-18T09:09:24Z</time>
      </trkpt>
      <trkpt lat="45.517986947670579" lon="5.92573287896812">
        <ele>704</ele>
        <time>2014-05-18T09:09:30Z</time>
      </trkpt>
      <trkpt lat="45.518013769760728" lon="5.925741763785482">
        <ele>704.20001220703125</ele>
        <time>2014-05-18T09:09:31Z</time>
      </trkpt>
      <trkpt lat="45.518135977908969" lon="5.925770932808518">
        <ele>705.20001220703125</ele>
        <time>2014-05-18T09:09:36Z</time>
      </trkpt>
      <trkpt lat="45.518158273771405" lon="5.925773279741406">
        <ele>705.4000244140625</ele>
        <time>2014-05-18T09:09:37Z</time>
      </trkpt>
      <trkpt lat="45.518181659281254" lon="5.925771100446582">
        <ele>705.4000244140625</ele>
        <time>2014-05-18T09:09:38Z</time>
      </trkpt>
      <trkpt lat="45.518305376172066" lon="5.925768837332726">
        <ele>706.20001220703125</ele>
        <time>2014-05-18T09:09:43Z</time>
      </trkpt>
      <trkpt lat="45.518326163291931" lon="5.925768669694662">
        <ele>706.4000244140625</ele>
        <time>2014-05-18T09:09:44Z</time>
      </trkpt>
      <trkpt lat="45.518438816070557" lon="5.925774537026882">
        <ele>707</ele>
        <time>2014-05-18T09:09:49Z</time>
      </trkpt>
      <trkpt lat="45.518463961780071" lon="5.925773698836565">
        <ele>707.20001220703125</ele>
        <time>2014-05-18T09:09:50Z</time>
      </trkpt>
      <trkpt lat="45.518592372536659" lon="5.925780488178134">
        <ele>708.20001220703125</ele>
        <time>2014-05-18T09:09:56Z</time>
      </trkpt>
      <trkpt lat="45.518609639257193" lon="5.925791384652257">
        <ele>708.4000244140625</ele>
        <time>2014-05-18T09:09:57Z</time>
      </trkpt>
      <trkpt lat="45.518755652010441" lon="5.925843352451921">
        <ele>709.20001220703125</ele>
        <time>2014-05-18T09:10:03Z</time>
      </trkpt>
      <trkpt lat="45.518783731386065" lon="5.925849974155426">
        <ele>709.4000244140625</ele>
        <time>2014-05-18T09:10:04Z</time>
      </trkpt>
      <trkpt lat="45.518942819908261" lon="5.925913089886308">
        <ele>710.5999755859375</ele>
        <time>2014-05-18T09:10:11Z</time>
      </trkpt>
      <trkpt lat="45.51905564032495" lon="5.925917029380798">
        <ele>711.5999755859375</ele>
        <time>2014-05-18T09:10:16Z</time>
      </trkpt>
      <trkpt lat="45.519079528748989" lon="5.925920633599162">
        <ele>711.5999755859375</ele>
        <time>2014-05-18T09:10:17Z</time>
      </trkpt>
      <trkpt lat="45.519207436591387" lon="5.925901606678963">
        <ele>712.20001220703125</ele>
        <time>2014-05-18T09:10:23Z</time>
      </trkpt>
      <trkpt lat="45.519311958923936" lon="5.92589314095676">
        <ele>712.79998779296875</ele>
        <time>2014-05-18T09:10:27Z</time>
      </trkpt>
      <trkpt lat="45.51938789896667" lon="5.925891045480967">
        <ele>713.20001220703125</ele>
        <time>2014-05-18T09:10:30Z</time>
      </trkpt>
      <trkpt lat="45.519482949748635" lon="5.925865396857262">
        <ele>714.20001220703125</ele>
        <time>2014-05-18T09:10:34Z</time>
      </trkpt>
      <trkpt lat="45.519561823457479" lon="5.925855003297329">
        <ele>714.5999755859375</ele>
        <time>2014-05-18T09:10:37Z</time>
      </trkpt>
      <trkpt lat="45.5196712911129" lon="5.92585701495409">
        <ele>715.20001220703125</ele>
        <time>2014-05-18T09:10:41Z</time>
      </trkpt>
      <trkpt lat="45.519743710756302" lon="5.925869084894657">
        <ele>716</ele>
        <time>2014-05-18T09:10:44Z</time>
      </trkpt>
      <trkpt lat="45.519768688827753" lon="5.925873443484306">
        <ele>716.20001220703125</ele>
        <time>2014-05-18T09:10:45Z</time>
      </trkpt>
      <trkpt lat="45.519884862005711" lon="5.925890039652586">
        <ele>717.20001220703125</ele>
        <time>2014-05-18T09:10:50Z</time>
      </trkpt>
      <trkpt lat="45.519906571134925" lon="5.925900265574455">
        <ele>717.20001220703125</ele>
        <time>2014-05-18T09:10:51Z</time>
      </trkpt>
      <trkpt lat="45.520045626908541" lon="5.925936726853252">
        <ele>718.4000244140625</ele>
        <time>2014-05-18T09:10:57Z</time>
      </trkpt>
      <trkpt lat="45.520180072635412" lon="5.925988359376788">
        <ele>719.20001220703125</ele>
        <time>2014-05-18T09:11:03Z</time>
      </trkpt>
      <trkpt lat="45.520201362669468" lon="5.925995064899325">
        <ele>719.4000244140625</ele>
        <time>2014-05-18T09:11:04Z</time>
      </trkpt>
      <trkpt lat="45.520337400957942" lon="5.926024904474616">
        <ele>720.4000244140625</ele>
        <time>2014-05-18T09:11:10Z</time>
      </trkpt>
      <trkpt lat="45.520360702648759" lon="5.9260378126055">
        <ele>720.5999755859375</ele>
        <time>2014-05-18T09:11:11Z</time>
      </trkpt>
      <trkpt lat="45.520490705966949" lon="5.9261155128479">
        <ele>721.20001220703125</ele>
        <time>2014-05-18T09:11:16Z</time>
      </trkpt>
      <trkpt lat="45.520537225529552" lon="5.92614920809865">
        <ele>721.5999755859375</ele>
        <time>2014-05-18T09:11:18Z</time>
      </trkpt>
      <trkpt lat="45.520633868873119" lon="5.926207127049565">
        <ele>722.20001220703125</ele>
        <time>2014-05-18T09:11:22Z</time>
      </trkpt>
      <trkpt lat="45.520702265202999" lon="5.926263453438878">
        <ele>722.79998779296875</ele>
        <time>2014-05-18T09:11:25Z</time>
      </trkpt>
      <trkpt lat="45.520789017900825" lon="5.926325479522348">
        <ele>723.20001220703125</ele>
        <time>2014-05-18T09:11:29Z</time>
      </trkpt>
      <trkpt lat="45.520895468071103" lon="5.926404856145382">
        <ele>724</ele>
        <time>2014-05-18T09:11:34Z</time>
      </trkpt>
      <trkpt lat="45.520938131958246" lon="5.926483562216163">
        <ele>724.4000244140625</ele>
        <time>2014-05-18T09:11:37Z</time>
      </trkpt>
      <trkpt lat="45.520918015390635" lon="5.926549611613154">
        <ele>725</ele>
        <time>2014-05-18T09:11:40Z</time>
      </trkpt>
      <trkpt lat="45.520907789468765" lon="5.92653863132">
        <ele>725.4000244140625</ele>
        <time>2014-05-18T09:11:41Z</time>
      </trkpt>
      <trkpt lat="45.520857917144895" lon="5.926513485610485">
        <ele>726.20001220703125</ele>
        <time>2014-05-18T09:11:44Z</time>
      </trkpt>
      <trkpt lat="45.520834531635046" lon="5.926501080393791">
        <ele>726.4000244140625</ele>
        <time>2014-05-18T09:11:45Z</time>
      </trkpt>
      <trkpt lat="45.520681729540229" lon="5.926392786204815">
        <ele>727.4000244140625</ele>
        <time>2014-05-18T09:11:52Z</time>
      </trkpt>
      <trkpt lat="45.520518198609352" lon="5.926251718774438">
        <ele>728</ele>
        <time>2014-05-18T09:11:59Z</time>
      </trkpt>
      <trkpt lat="45.520473439246416" lon="5.926216095685959">
        <ele>728.4000244140625</ele>
        <time>2014-05-18T09:12:01Z</time>
      </trkpt>
      <trkpt lat="45.520385848358274" lon="5.926168402656913">
        <ele>729</ele>
        <time>2014-05-18T09:12:05Z</time>
      </trkpt>
      <trkpt lat="45.520284846425056" lon="5.926141999661923">
        <ele>729.5999755859375</ele>
        <time>2014-05-18T09:12:09Z</time>
      </trkpt>
      <trkpt lat="45.520186694338918" lon="5.926133031025529">
        <ele>730.20001220703125</ele>
        <time>2014-05-18T09:12:13Z</time>
      </trkpt>
      <trkpt lat="45.520111927762628" lon="5.926135126501322">
        <ele>730.79998779296875</ele>
        <time>2014-05-18T09:12:16Z</time>
      </trkpt>
      <trkpt lat="45.520015535876155" lon="5.92612280510366">
        <ele>731.4000244140625</ele>
        <time>2014-05-18T09:12:20Z</time>
      </trkpt>
      <trkpt lat="45.519967675209045" lon="5.926127415150404">
        <ele>731.79998779296875</ele>
        <time>2014-05-18T09:12:22Z</time>
      </trkpt>
      <trkpt lat="45.519836330786347" lon="5.926156500354409">
        <ele>732.79998779296875</ele>
        <time>2014-05-18T09:12:28Z</time>
      </trkpt>
      <trkpt lat="45.519813783466816" lon="5.926156081259251">
        <ele>733</ele>
        <time>2014-05-18T09:12:29Z</time>
      </trkpt>
      <trkpt lat="45.519672129303217" lon="5.926185920834541">
        <ele>734</ele>
        <time>2014-05-18T09:12:36Z</time>
      </trkpt>
      <trkpt lat="45.519652431830764" lon="5.926193380728364">
        <ele>734.20001220703125</ele>
        <time>2014-05-18T09:12:37Z</time>
      </trkpt>
      <trkpt lat="45.519530894234776" lon="5.926234954968095">
        <ele>735.4000244140625</ele>
        <time>2014-05-18T09:12:43Z</time>
      </trkpt>
      <trkpt lat="45.519367111846805" lon="5.926330257207155">
        <ele>736.4000244140625</ele>
        <time>2014-05-18T09:12:50Z</time>
      </trkpt>
      <trkpt lat="45.519232330843806" lon="5.926358588039875">
        <ele>737.5999755859375</ele>
        <time>2014-05-18T09:12:56Z</time>
      </trkpt>
      <trkpt lat="45.519193019717932" lon="5.926363784819841">
        <ele>738</ele>
        <time>2014-05-18T09:12:58Z</time>
      </trkpt>
      <trkpt lat="45.519133592024446" lon="5.92638373374939">
        <ele>738.79998779296875</ele>
        <time>2014-05-18T09:13:01Z</time>
      </trkpt>
      <trkpt lat="45.519057987257838" lon="5.926393875852227">
        <ele>739.4000244140625</ele>
        <time>2014-05-18T09:13:05Z</time>
      </trkpt>
      <trkpt lat="45.518998643383384" lon="5.926391026005149">
        <ele>739.79998779296875</ele>
        <time>2014-05-18T09:13:08Z</time>
      </trkpt>
      <trkpt lat="45.518902754411101" lon="5.926385410130024">
        <ele>740.79998779296875</ele>
        <time>2014-05-18T09:13:12Z</time>
      </trkpt>
      <trkpt lat="45.518878614529967" lon="5.926378620788455">
        <ele>740.79998779296875</ele>
        <time>2014-05-18T09:13:13Z</time>
      </trkpt>
      <trkpt lat="45.518776858225465" lon="5.926356911659241">
        <ele>741.79998779296875</ele>
        <time>2014-05-18T09:13:18Z</time>
      </trkpt>
      <trkpt lat="45.518644424155354" lon="5.926349116489291">
        <ele>743</ele>
        <time>2014-05-18T09:13:24Z</time>
      </trkpt>
      <trkpt lat="45.518621038645506" lon="5.926352888345718">
        <ele>743.20001220703125</ele>
        <time>2014-05-18T09:13:25Z</time>
      </trkpt>
      <trkpt lat="45.518538393080235" lon="5.926378704607487">
        <ele>743.5999755859375</ele>
        <time>2014-05-18T09:13:29Z</time>
      </trkpt>
      <trkpt lat="45.518476702272892" lon="5.926414076238871">
        <ele>744</ele>
        <time>2014-05-18T09:13:32Z</time>
      </trkpt>
      <trkpt lat="45.518405791372061" lon="5.926448609679937">
        <ele>744.79998779296875</ele>
        <time>2014-05-18T09:13:36Z</time>
      </trkpt>
      <trkpt lat="45.518372012302279" lon="5.92646973207593">
        <ele>745.20001220703125</ele>
        <time>2014-05-18T09:13:38Z</time>
      </trkpt>
      <trkpt lat="45.518282745033503" lon="5.926517508924007">
        <ele>746</ele>
        <time>2014-05-18T09:13:43Z</time>
      </trkpt>
      <trkpt lat="45.51826598122716" lon="5.926516922190785">
        <ele>746.20001220703125</ele>
        <time>2014-05-18T09:13:44Z</time>
      </trkpt>
      <trkpt lat="45.518223233520985" lon="5.926519352942705">
        <ele>746.79998779296875</ele>
        <time>2014-05-18T09:13:46Z</time>
      </trkpt>
      <trkpt lat="45.518208900466561" lon="5.926506947726011">
        <ele>747</ele>
        <time>2014-05-18T09:13:47Z</time>
      </trkpt>
      <trkpt lat="45.518135810270905" lon="5.926506277173758">
        <ele>747.4000244140625</ele>
        <time>2014-05-18T09:13:50Z</time>
      </trkpt>
      <trkpt lat="45.518081411719322" lon="5.926498649641872">
        <ele>747.79998779296875</ele>
        <time>2014-05-18T09:13:52Z</time>
      </trkpt>
      <trkpt lat="45.517983175814152" lon="5.926498649641872">
        <ele>748.4000244140625</ele>
        <time>2014-05-18T09:13:56Z</time>
      </trkpt>
      <trkpt lat="45.517937997356057" lon="5.926504852250218">
        <ele>749</ele>
        <time>2014-05-18T09:13:58Z</time>
      </trkpt>
      <trkpt lat="45.517875887453556" lon="5.926487920805812">
        <ele>749.5999755859375</ele>
        <time>2014-05-18T09:14:01Z</time>
      </trkpt>
      <trkpt lat="45.517837246879935" lon="5.926483226940036">
        <ele>750.20001220703125</ele>
        <time>2014-05-18T09:14:03Z</time>
      </trkpt>
      <trkpt lat="45.517743621021509" lon="5.926479874178767">
        <ele>750.79998779296875</ele>
        <time>2014-05-18T09:14:07Z</time>
      </trkpt>
      <trkpt lat="45.517697604373097" lon="5.926490435376763">
        <ele>750.79998779296875</ele>
        <time>2014-05-18T09:14:09Z</time>
      </trkpt>
      <trkpt lat="45.517590818926692" lon="5.926516586914659">
        <ele>752</ele>
        <time>2014-05-18T09:14:14Z</time>
      </trkpt>
      <trkpt lat="45.517551088705659" lon="5.926531674340367">
        <ele>752.20001220703125</ele>
        <time>2014-05-18T09:14:16Z</time>
      </trkpt>
      <trkpt lat="45.517457714304328" lon="5.926575846970081">
        <ele>752.79998779296875</ele>
        <time>2014-05-18T09:14:21Z</time>
      </trkpt>
      <trkpt lat="45.517437178641558" lon="5.926580624654889">
        <ele>753</ele>
        <time>2014-05-18T09:14:22Z</time>
      </trkpt>
      <trkpt lat="45.517346654087305" lon="5.926610799506307">
        <ele>754</ele>
        <time>2014-05-18T09:14:27Z</time>
      </trkpt>
      <trkpt lat="45.517298709601164" lon="5.926638543605804">
        <ele>754.20001220703125</ele>
        <time>2014-05-18T09:14:29Z</time>
      </trkpt>
      <trkpt lat="45.517223188653588" lon="5.926662599667907">
        <ele>754.79998779296875</ele>
        <time>2014-05-18T09:14:32Z</time>
      </trkpt>
      <trkpt lat="45.517178345471621" lon="5.926657821983099">
        <ele>755.20001220703125</ele>
        <time>2014-05-18T09:14:34Z</time>
      </trkpt>
      <trkpt lat="45.51708497107029" lon="5.926640722900629">
        <ele>756</ele>
        <time>2014-05-18T09:14:38Z</time>
      </trkpt>
      <trkpt lat="45.51706351339817" lon="5.926629742607474">
        <ele>756</ele>
        <time>2014-05-18T09:14:39Z</time>
      </trkpt>
      <trkpt lat="45.517041385173798" lon="5.926618846133351">
        <ele>756.20001220703125</ele>
        <time>2014-05-18T09:14:40Z</time>
      </trkpt>
      <trkpt lat="45.516952788457274" lon="5.926533099263907">
        <ele>757.4000244140625</ele>
        <time>2014-05-18T09:14:45Z</time>
      </trkpt>
      <trkpt lat="45.516870645806193" lon="5.926438132300973">
        <ele>758.4000244140625</ele>
        <time>2014-05-18T09:14:50Z</time>
      </trkpt>
      <trkpt lat="45.516818929463625" lon="5.926381554454565">
        <ele>758.79998779296875</ele>
        <time>2014-05-18T09:14:53Z</time>
      </trkpt>
      <trkpt lat="45.516746258363128" lon="5.926318941637874">
        <ele>759.5999755859375</ele>
        <time>2014-05-18T09:14:57Z</time>
      </trkpt>
      <trkpt lat="45.516644166782498" lon="5.926252976059914">
        <ele>760.4000244140625</ele>
        <time>2014-05-18T09:15:02Z</time>
      </trkpt>
      <trkpt lat="45.51660468801856" lon="5.926220705732703">
        <ele>760.79998779296875</ele>
        <time>2014-05-18T09:15:04Z</time>
      </trkpt>
      <trkpt lat="45.516539560630918" lon="5.926170833408833">
        <ele>761.20001220703125</ele>
        <time>2014-05-18T09:15:07Z</time>
      </trkpt>
      <trkpt lat="45.516458004713058" lon="5.92610671184957">
        <ele>761.79998779296875</ele>
        <time>2014-05-18T09:15:11Z</time>
      </trkpt>
      <trkpt lat="45.516441995278001" lon="5.926102017983794">
        <ele>762.20001220703125</ele>
        <time>2014-05-18T09:15:12Z</time>
      </trkpt>
      <trkpt lat="45.516424141824245" lon="5.926080644130707">
        <ele>762.4000244140625</ele>
        <time>2014-05-18T09:15:13Z</time>
      </trkpt>
      <trkpt lat="45.516378292813897" lon="5.926062539219856">
        <ele>763</ele>
        <time>2014-05-18T09:15:16Z</time>
      </trkpt>
      <trkpt lat="45.516307298094034" lon="5.926065053790808">
        <ele>763.5999755859375</ele>
        <time>2014-05-18T09:15:20Z</time>
      </trkpt>
      <trkpt lat="45.516289696097374" lon="5.926073184236884">
        <ele>763.79998779296875</ele>
        <time>2014-05-18T09:15:21Z</time>
      </trkpt>
      <trkpt lat="45.516255246475339" lon="5.926065137609839">
        <ele>764.20001220703125</ele>
        <time>2014-05-18T09:15:23Z</time>
      </trkpt>
      <trkpt lat="45.516234459355474" lon="5.926053570583463">
        <ele>764.4000244140625</ele>
        <time>2014-05-18T09:15:24Z</time>
      </trkpt>
      <trkpt lat="45.516181318089366" lon="5.926034124568105">
        <ele>764.79998779296875</ele>
        <time>2014-05-18T09:15:27Z</time>
      </trkpt>
      <trkpt lat="45.516145108267665" lon="5.926013588905335">
        <ele>765.20001220703125</ele>
        <time>2014-05-18T09:15:29Z</time>
      </trkpt>
      <trkpt lat="45.516032706946135" lon="5.925947120413184">
        <ele>766.4000244140625</ele>
        <time>2014-05-18T09:15:35Z</time>
      </trkpt>
      <trkpt lat="45.516016110777855" lon="5.925937062129378">
        <ele>766.5999755859375</ele>
        <time>2014-05-18T09:15:36Z</time>
      </trkpt>
      <trkpt lat="45.515910750254989" lon="5.925879143178463">
        <ele>767.4000244140625</ele>
        <time>2014-05-18T09:15:42Z</time>
      </trkpt>
      <trkpt lat="45.515879485756159" lon="5.925860870629549">
        <ele>767.5999755859375</ele>
        <time>2014-05-18T09:15:44Z</time>
      </trkpt>
      <trkpt lat="45.515784937888384" lon="5.9257788117975">
        <ele>768.5999755859375</ele>
        <time>2014-05-18T09:15:50Z</time>
      </trkpt>
      <trkpt lat="45.515754511579871" lon="5.92574411071837">
        <ele>768.79998779296875</ele>
        <time>2014-05-18T09:15:52Z</time>
      </trkpt>
      <trkpt lat="45.515665411949158" lon="5.925637325271964">
        <ele>769.5999755859375</ele>
        <time>2014-05-18T09:15:58Z</time>
      </trkpt>
      <trkpt lat="45.515627609565854" lon="5.925605054944754">
        <ele>769.5999755859375</ele>
        <time>2014-05-18T09:16:00Z</time>
      </trkpt>
      <trkpt lat="45.515477154403925" lon="5.925529282540083">
        <ele>770.5999755859375</ele>
        <time>2014-05-18T09:16:07Z</time>
      </trkpt>
      <trkpt lat="45.515374392271042" lon="5.925489133223891">
        <ele>771.79998779296875</ele>
        <time>2014-05-18T09:16:13Z</time>
      </trkpt>
      <trkpt lat="45.515340277925134" lon="5.925478488206863">
        <ele>772</ele>
        <time>2014-05-18T09:16:15Z</time>
      </trkpt>
      <trkpt lat="45.515245730057359" lon="5.925478236749768">
        <ele>772.79998779296875</ele>
        <time>2014-05-18T09:16:20Z</time>
      </trkpt>
      <trkpt lat="45.515222428366542" lon="5.925485948100686">
        <ele>773</ele>
        <time>2014-05-18T09:16:21Z</time>
      </trkpt>
      <trkpt lat="45.515144309028983" lon="5.925471112132072">
        <ele>773.79998779296875</ele>
        <time>2014-05-18T09:16:25Z</time>
      </trkpt>
      <trkpt lat="45.515126790851355" lon="5.925456443801522">
        <ele>773.79998779296875</ele>
        <time>2014-05-18T09:16:26Z</time>
      </trkpt>
      <trkpt lat="45.515078846365213" lon="5.92542165890336">
        <ele>774.4000244140625</ele>
        <time>2014-05-18T09:16:29Z</time>
      </trkpt>
      <trkpt lat="45.515036769211292" lon="5.92538109049201">
        <ele>775</ele>
        <time>2014-05-18T09:16:32Z</time>
      </trkpt>
      <trkpt lat="45.514934845268726" lon="5.925295259803534">
        <ele>776</ele>
        <time>2014-05-18T09:16:38Z</time>
      </trkpt>
      <trkpt lat="45.514919506385922" lon="5.925286626443267">
        <ele>776</ele>
        <time>2014-05-18T09:16:39Z</time>
      </trkpt>
      <trkpt lat="45.514838704839349" lon="5.925283608958125">
        <ele>776.5999755859375</ele>
        <time>2014-05-18T09:16:43Z</time>
      </trkpt>
      <trkpt lat="45.514772906899452" lon="5.925298444926739">
        <ele>777.20001220703125</ele>
        <time>2014-05-18T09:16:46Z</time>
      </trkpt>
      <trkpt lat="45.514689506962895" lon="5.925292745232582">
        <ele>777.79998779296875</ele>
        <time>2014-05-18T09:16:50Z</time>
      </trkpt>
      <trkpt lat="45.514636700972915" lon="5.925272041931748">
        <ele>778.20001220703125</ele>
        <time>2014-05-18T09:16:53Z</time>
      </trkpt>
      <trkpt lat="45.514564365148544" lon="5.925231138244271">
        <ele>778.5999755859375</ele>
        <time>2014-05-18T09:16:57Z</time>
      </trkpt>
      <trkpt lat="45.514491694048047" lon="5.925186881795526">
        <ele>779.4000244140625</ele>
        <time>2014-05-18T09:17:01Z</time>
      </trkpt>
      <trkpt lat="45.514403767883778" lon="5.925129130482674">
        <ele>780.20001220703125</ele>
        <time>2014-05-18T09:17:06Z</time>
      </trkpt>
      <trkpt lat="45.514341993257403" lon="5.925086298957467">
        <ele>780.5999755859375</ele>
        <time>2014-05-18T09:17:09Z</time>
      </trkpt>
      <trkpt lat="45.514246858656406" lon="5.925029888749123">
        <ele>781.5999755859375</ele>
        <time>2014-05-18T09:17:14Z</time>
      </trkpt>
      <trkpt lat="45.514201009646058" lon="5.925007425248623">
        <ele>781.5999755859375</ele>
        <time>2014-05-18T09:17:16Z</time>
      </trkpt>
      <trkpt lat="45.514099169522524" lon="5.924988398328424">
        <ele>782.20001220703125</ele>
        <time>2014-05-18T09:17:20Z</time>
      </trkpt>
      <trkpt lat="45.514032617211342" lon="5.924985129386187">
        <ele>782.5999755859375</ele>
        <time>2014-05-18T09:17:23Z</time>
      </trkpt>
      <trkpt lat="45.513943014666438" lon="5.924949673935771">
        <ele>783.20001220703125</ele>
        <time>2014-05-18T09:17:27Z</time>
      </trkpt>
      <trkpt lat="45.513875791803002" lon="5.924905752763152">
        <ele>783.79998779296875</ele>
        <time>2014-05-18T09:17:30Z</time>
      </trkpt>
      <trkpt lat="45.51378820091486" lon="5.924848923459649">
        <ele>784.4000244140625</ele>
        <time>2014-05-18T09:17:34Z</time>
      </trkpt>
      <trkpt lat="45.513683091849089" lon="5.924757393077016">
        <ele>784.79998779296875</ele>
        <time>2014-05-18T09:17:39Z</time>
      </trkpt>
      <trkpt lat="45.513662388548255" lon="5.924743311479688">
        <ele>785</ele>
        <time>2014-05-18T09:17:40Z</time>
      </trkpt>
      <trkpt lat="45.513535402715206" lon="5.924678267911077">
        <ele>785.79998779296875</ele>
        <time>2014-05-18T09:17:46Z</time>
      </trkpt>
      <trkpt lat="45.513518806546926" lon="5.924684638157487">
        <ele>786</ele>
        <time>2014-05-18T09:17:47Z</time>
      </trkpt>
      <trkpt lat="45.513501456007361" lon="5.924695869907737">
        <ele>786</ele>
        <time>2014-05-18T09:17:48Z</time>
      </trkpt>
      <trkpt lat="45.513468934223056" lon="5.924777258187532">
        <ele>786.20001220703125</ele>
        <time>2014-05-18T09:17:51Z</time>
      </trkpt>
      <trkpt lat="45.513456864282489" lon="5.924809193238616">
        <ele>786.4000244140625</ele>
        <time>2014-05-18T09:17:52Z</time>
      </trkpt>
      <trkpt lat="45.513422582298517" lon="5.92490516602993">
        <ele>787</ele>
        <time>2014-05-18T09:17:55Z</time>
      </trkpt>
      <trkpt lat="45.512967277318239" lon="5.925654759630561">
        <ele>791.5999755859375</ele>
        <time>2014-05-18T09:18:19Z</time>
      </trkpt>
      <trkpt lat="45.512903071939945" lon="5.925700692459941">
        <ele>791.79998779296875</ele>
        <time>2014-05-18T09:18:22Z</time>
      </trkpt>
      <trkpt lat="45.51278555765748" lon="5.925840921700001">
        <ele>792.4000244140625</ele>
        <time>2014-05-18T09:18:27Z</time>
      </trkpt>
      <trkpt lat="45.512676341459155" lon="5.92601727694273">
        <ele>793.4000244140625</ele>
        <time>2014-05-18T09:18:33Z</time>
      </trkpt>
      <trkpt lat="45.512657146900892" lon="5.926043260842562">
        <ele>793.79998779296875</ele>
        <time>2014-05-18T09:18:34Z</time>
      </trkpt>
      <trkpt lat="45.512539632618427" lon="5.92614283785224">
        <ele>794.5999755859375</ele>
        <time>2014-05-18T09:18:39Z</time>
      </trkpt>
      <trkpt lat="45.512483054772019" lon="5.92614920809865">
        <ele>795.20001220703125</ele>
        <time>2014-05-18T09:18:41Z</time>
      </trkpt>
      <trkpt lat="45.512376436963677" lon="5.92617410235107">
        <ele>795.79998779296875</ele>
        <time>2014-05-18T09:18:45Z</time>
      </trkpt>
      <trkpt lat="45.512274513021111" lon="5.926208719611168">
        <ele>796.4000244140625</ele>
        <time>2014-05-18T09:18:49Z</time>
      </trkpt>
      <trkpt lat="45.512170074507594" lon="5.926225315779448">
        <ele>796.79998779296875</ele>
        <time>2014-05-18T09:18:53Z</time>
      </trkpt>
      <trkpt lat="45.512095894664526" lon="5.926239565014839">
        <ele>797.4000244140625</ele>
        <time>2014-05-18T09:18:56Z</time>
      </trkpt>
      <trkpt lat="45.512022720649838" lon="5.926255406811833">
        <ele>798</ele>
        <time>2014-05-18T09:18:59Z</time>
      </trkpt>
      <trkpt lat="45.511881653219461" lon="5.926270158961415">
        <ele>799</ele>
        <time>2014-05-18T09:19:05Z</time>
      </trkpt>
      <trkpt lat="45.511859022080898" lon="5.926267895847559">
        <ele>799</ele>
        <time>2014-05-18T09:19:06Z</time>
      </trkpt>
      <trkpt lat="45.511748632416129" lon="5.926278373226523">
        <ele>800</ele>
        <time>2014-05-18T09:19:11Z</time>
      </trkpt>
      <trkpt lat="45.511680403724313" lon="5.926277032122016">
        <ele>800.5999755859375</ele>
        <time>2014-05-18T09:19:14Z</time>
      </trkpt>
      <trkpt lat="45.511605469509959" lon="5.926263872534037">
        <ele>801</ele>
        <time>2014-05-18T09:19:17Z</time>
      </trkpt>
      <trkpt lat="45.511480076238513" lon="5.926250964403153">
        <ele>801.79998779296875</ele>
        <time>2014-05-18T09:19:22Z</time>
      </trkpt>
      <trkpt lat="45.511450907215476" lon="5.926250293850899">
        <ele>802</ele>
        <time>2014-05-18T09:19:23Z</time>
      </trkpt>
      <trkpt lat="45.51127958111465" lon="5.926215760409832">
        <ele>803.20001220703125</ele>
        <time>2014-05-18T09:19:29Z</time>
      </trkpt>
      <trkpt lat="45.511252507567406" lon="5.92621173709631">
        <ele>803.4000244140625</ele>
        <time>2014-05-18T09:19:30Z</time>
      </trkpt>
      <trkpt lat="45.511084869503975" lon="5.92617703601718">
        <ele>804.4000244140625</ele>
        <time>2014-05-18T09:19:36Z</time>
      </trkpt>
      <trkpt lat="45.511058215051889" lon="5.926165971904993">
        <ele>804.5999755859375</ele>
        <time>2014-05-18T09:19:37Z</time>
      </trkpt>
      <trkpt lat="45.510914968326688" lon="5.926102017983794">
        <ele>805.5999755859375</ele>
        <time>2014-05-18T09:19:42Z</time>
      </trkpt>
      <trkpt lat="45.510885547846556" lon="5.9260861761868">
        <ele>805.5999755859375</ele>
        <time>2014-05-18T09:19:43Z</time>
      </trkpt>
      <trkpt lat="45.510726626962423" lon="5.925969332456589">
        <ele>806.79998779296875</ele>
        <time>2014-05-18T09:19:49Z</time>
      </trkpt>
      <trkpt lat="45.510610705241561" lon="5.92584771104157">
        <ele>807.5999755859375</ele>
        <time>2014-05-18T09:19:54Z</time>
      </trkpt>
      <trkpt lat="45.510561335831881" lon="5.925797587260604">
        <ele>808</ele>
        <time>2014-05-18T09:19:56Z</time>
      </trkpt>
      <trkpt lat="45.510447844862938" lon="5.925715863704681">
        <ele>808.79998779296875</ele>
        <time>2014-05-18T09:20:00Z</time>
      </trkpt>
      <trkpt lat="45.510422196239233" lon="5.925701363012195">
        <ele>809</ele>
        <time>2014-05-18T09:20:01Z</time>
      </trkpt>
      <trkpt lat="45.510241817682981" lon="5.925626764073968">
        <ele>809.79998779296875</ele>
        <time>2014-05-18T09:20:08Z</time>
      </trkpt>
      <trkpt lat="45.510216923430562" lon="5.925617711618543">
        <ele>810</ele>
        <time>2014-05-18T09:20:09Z</time>
      </trkpt>
      <trkpt lat="45.510045681148767" lon="5.92554378323257">
        <ele>811.20001220703125</ele>
        <time>2014-05-18T09:20:16Z</time>
      </trkpt>
      <trkpt lat="45.509937470778823" lon="5.925461305305362">
        <ele>811.79998779296875</ele>
        <time>2014-05-18T09:20:21Z</time>
      </trkpt>
      <trkpt lat="45.509896902367473" lon="5.925433225929737">
        <ele>812.20001220703125</ele>
        <time>2014-05-18T09:20:23Z</time>
      </trkpt>
      <trkpt lat="45.509779136627913" lon="5.92530976049602">
        <ele>812.79998779296875</ele>
        <time>2014-05-18T09:20:29Z</time>
      </trkpt>
      <trkpt lat="45.509729012846947" lon="5.925247147679329">
        <ele>813.20001220703125</ele>
        <time>2014-05-18T09:20:32Z</time>
      </trkpt>
      <trkpt lat="45.509665980935097" lon="5.925161568447948">
        <ele>813.79998779296875</ele>
        <time>2014-05-18T09:20:36Z</time>
      </trkpt>
      <trkpt lat="45.509604709222913" lon="5.925061153247953">
        <ele>814.20001220703125</ele>
        <time>2014-05-18T09:20:40Z</time>
      </trkpt>
      <trkpt lat="45.50954008474946" lon="5.924963587895036">
        <ele>814.79998779296875</ele>
        <time>2014-05-18T09:20:44Z</time>
      </trkpt>
      <trkpt lat="45.509484596550465" lon="5.924858478829265">
        <ele>815.4000244140625</ele>
        <time>2014-05-18T09:20:48Z</time>
      </trkpt>
      <trkpt lat="45.509439082816243" lon="5.924772480502725">
        <ele>815.5999755859375</ele>
        <time>2014-05-18T09:20:51Z</time>
      </trkpt>
      <trkpt lat="45.509346462786198" lon="5.924625713378191">
        <ele>816.4000244140625</ele>
        <time>2014-05-18T09:20:57Z</time>
      </trkpt>
      <trkpt lat="45.509320227429271" lon="5.92456117272377">
        <ele>816.79998779296875</ele>
        <time>2014-05-18T09:20:59Z</time>
      </trkpt>
      <trkpt lat="45.509262811392546" lon="5.924414154142141">
        <ele>817</ele>
        <time>2014-05-18T09:21:03Z</time>
      </trkpt>
      <trkpt lat="45.50923322327435" lon="5.924343410879374">
        <ele>817.4000244140625</ele>
        <time>2014-05-18T09:21:05Z</time>
      </trkpt>
      <trkpt lat="45.509207490831614" lon="5.924277110025287">
        <ele>817.4000244140625</ele>
        <time>2014-05-18T09:21:07Z</time>
      </trkpt>
      <trkpt lat="45.509150745347142" lon="5.92411944642663">
        <ele>818.20001220703125</ele>
        <time>2014-05-18T09:21:11Z</time>
      </trkpt>
      <trkpt lat="45.509101627394557" lon="5.923983994871378">
        <ele>818.5999755859375</ele>
        <time>2014-05-18T09:21:14Z</time>
      </trkpt>
      <trkpt lat="45.509044798091054" lon="5.923831276595593">
        <ele>818.79998779296875</ele>
        <time>2014-05-18T09:21:18Z</time>
      </trkpt>
      <trkpt lat="45.508999871090055" lon="5.923704206943512">
        <ele>819.5999755859375</ele>
        <time>2014-05-18T09:21:21Z</time>
      </trkpt>
      <trkpt lat="45.508924350142479" lon="5.92350228689611">
        <ele>820</ele>
        <time>2014-05-18T09:21:26Z</time>
      </trkpt>
      <trkpt lat="45.508825527504086" lon="5.923306569457054">
        <ele>820.5999755859375</ele>
        <time>2014-05-18T09:21:32Z</time>
      </trkpt>
      <trkpt lat="45.508810020983219" lon="5.923270527273417">
        <ele>820.79998779296875</ele>
        <time>2014-05-18T09:21:33Z</time>
      </trkpt>
      <trkpt lat="45.508646909147501" lon="5.923092914745212">
        <ele>820.5999755859375</ele>
        <time>2014-05-18T09:21:40Z</time>
      </trkpt>
      <trkpt lat="45.508451694622636" lon="5.923061314970255">
        <ele>820.5999755859375</ele>
        <time>2014-05-18T09:21:44Z</time>
      </trkpt>
      <trkpt lat="45.508226724341512" lon="5.92305519618094">
        <ele>821.79998779296875</ele>
        <time>2014-05-18T09:21:49Z</time>
      </trkpt>
      <trkpt lat="45.508186658844352" lon="5.923054441809654">
        <ele>821.79998779296875</ele>
        <time>2014-05-18T09:21:50Z</time>
      </trkpt>
      <trkpt lat="45.507914330810308" lon="5.923129208385944">
        <ele>821.79998779296875</ele>
        <time>2014-05-18T09:21:57Z</time>
      </trkpt>
      <trkpt lat="45.507796816527843" lon="5.923302797600627">
        <ele>822</ele>
        <time>2014-05-18T09:22:01Z</time>
      </trkpt>
      <trkpt lat="45.507771167904139" lon="5.923364656046033">
        <ele>822.20001220703125</ele>
        <time>2014-05-18T09:22:02Z</time>
      </trkpt>
      <trkpt lat="45.50761048682034" lon="5.923700015991926">
        <ele>822.4000244140625</ele>
        <time>2014-05-18T09:22:08Z</time>
      </trkpt>
      <trkpt lat="45.507575366646051" lon="5.923745362088084">
        <ele>822.4000244140625</ele>
        <time>2014-05-18T09:22:09Z</time>
      </trkpt>
      <trkpt lat="45.5074761249125" lon="5.923876035958529">
        <ele>822.5999755859375</ele>
        <time>2014-05-18T09:22:12Z</time>
      </trkpt>
      <trkpt lat="45.507351150736213" lon="5.923977037891746">
        <ele>822.20001220703125</ele>
        <time>2014-05-18T09:22:15Z</time>
      </trkpt>
      <trkpt lat="45.507306475192308" lon="5.923999669030309">
        <ele>822.5999755859375</ele>
        <time>2014-05-18T09:22:16Z</time>
      </trkpt>
      <trkpt lat="45.507205640897155" lon="5.92401877976954">
        <ele>823</ele>
        <time>2014-05-18T09:22:18Z</time>
      </trkpt>
      <trkpt lat="45.507104722782969" lon="5.923990532755852">
        <ele>823</ele>
        <time>2014-05-18T09:22:20Z</time>
      </trkpt>
      <trkpt lat="45.506961727514863" lon="5.923906462267041">
        <ele>823.5999755859375</ele>
        <time>2014-05-18T09:22:23Z</time>
      </trkpt>
      <trkpt lat="45.506918057799339" lon="5.923870336264372">
        <ele>823.5999755859375</ele>
        <time>2014-05-18T09:22:24Z</time>
      </trkpt>
      <trkpt lat="45.50687120296061" lon="5.92383504845202">
        <ele>823.5999755859375</ele>
        <time>2014-05-18T09:22:25Z</time>
      </trkpt>
      <trkpt lat="45.506545314565301" lon="5.923515195026994">
        <ele>823.79998779296875</ele>
        <time>2014-05-18T09:22:32Z</time>
      </trkpt>
      <trkpt lat="45.506314812228084" lon="5.923118563368917">
        <ele>823.5999755859375</ele>
        <time>2014-05-18T09:22:38Z</time>
      </trkpt>
      <trkpt lat="45.506192771717906" lon="5.92283776961267">
        <ele>824</ele>
        <time>2014-05-18T09:22:42Z</time>
      </trkpt>
      <trkpt lat="45.506114065647125" lon="5.922609530389309">
        <ele>824.20001220703125</ele>
        <time>2014-05-18T09:22:45Z</time>
      </trkpt>
      <trkpt lat="45.506079783663154" lon="5.922448933124542">
        <ele>824.20001220703125</ele>
        <time>2014-05-18T09:22:47Z</time>
      </trkpt>
      <trkpt lat="45.506032425910234" lon="5.92222161591053">
        <ele>824.20001220703125</ele>
        <time>2014-05-18T09:22:50Z</time>
      </trkpt>
      <trkpt lat="45.50587585195899" lon="5.921497838571668">
        <ele>824.4000244140625</ele>
        <time>2014-05-18T09:22:59Z</time>
      </trkpt>
      <trkpt lat="45.505777699872851" lon="5.92119500041008">
        <ele>824.5999755859375</ele>
        <time>2014-05-18T09:23:03Z</time>
      </trkpt>
      <trkpt lat="45.505712740123272" lon="5.921063991263509">
        <ele>825</ele>
        <time>2014-05-18T09:23:05Z</time>
      </trkpt>
      <trkpt lat="45.505657000467181" lon="5.920920157805085">
        <ele>825</ele>
        <time>2014-05-18T09:23:07Z</time>
      </trkpt>
      <trkpt lat="45.505623389035463" lon="5.920862825587392">
        <ele>825.20001220703125</ele>
        <time>2014-05-18T09:23:08Z</time>
      </trkpt>
      <trkpt lat="45.505586927756667" lon="5.920804738998413">
        <ele>825.4000244140625</ele>
        <time>2014-05-18T09:23:09Z</time>
      </trkpt>
      <trkpt lat="45.505493050441146" lon="5.920630395412445">
        <ele>826.20001220703125</ele>
        <time>2014-05-18T09:23:12Z</time>
      </trkpt>
      <trkpt lat="45.505443932488561" lon="5.920518999919295">
        <ele>827</ele>
        <time>2014-05-18T09:23:14Z</time>
      </trkpt>
      <trkpt lat="45.505412248894572" lon="5.920466613024473">
        <ele>827</ele>
        <time>2014-05-18T09:23:15Z</time>
      </trkpt>
      <trkpt lat="45.505322897806764" lon="5.920301908627152">
        <ele>827.4000244140625</ele>
        <time>2014-05-18T09:23:18Z</time>
      </trkpt>
      <trkpt lat="45.505162635818124" lon="5.920023964717984">
        <ele>827.5999755859375</ele>
        <time>2014-05-18T09:23:23Z</time>
      </trkpt>
      <trkpt lat="45.505126090720296" lon="5.919982139021158">
        <ele>827.79998779296875</ele>
        <time>2014-05-18T09:23:24Z</time>
      </trkpt>
      <trkpt lat="45.505054090172052" lon="5.919905444607139">
        <ele>828.20001220703125</ele>
        <time>2014-05-18T09:23:26Z</time>
      </trkpt>
      <trkpt lat="45.504985610023141" lon="5.919836377725005">
        <ele>828.4000244140625</ele>
        <time>2014-05-18T09:23:28Z</time>
      </trkpt>
      <trkpt lat="45.504767261445522" lon="5.919716600328684">
        <ele>829.5999755859375</ele>
        <time>2014-05-18T09:23:34Z</time>
      </trkpt>
      <trkpt lat="45.504618231207132" lon="5.919730849564076">
        <ele>830</ele>
        <time>2014-05-18T09:23:38Z</time>
      </trkpt>
      <trkpt lat="45.504577495157719" lon="5.919753983616829">
        <ele>830</ele>
        <time>2014-05-18T09:23:39Z</time>
      </trkpt>
      <trkpt lat="45.50446568056941" lon="5.919822799041867">
        <ele>830.4000244140625</ele>
        <time>2014-05-18T09:23:42Z</time>
      </trkpt>
      <trkpt lat="45.50439678132534" lon="5.919856913387775">
        <ele>830.79998779296875</ele>
        <time>2014-05-18T09:23:44Z</time>
      </trkpt>
      <trkpt lat="45.504360068589449" lon="5.919863535091281">
        <ele>831.20001220703125</ele>
        <time>2014-05-18T09:23:45Z</time>
      </trkpt>
      <trkpt lat="45.504241297021508" lon="5.919817518442869">
        <ele>831.79998779296875</ele>
        <time>2014-05-18T09:23:49Z</time>
      </trkpt>
      <trkpt lat="45.504215732216835" lon="5.919799413532019">
        <ele>832.20001220703125</ele>
        <time>2014-05-18T09:23:50Z</time>
      </trkpt>
      <trkpt lat="45.504127973690629" lon="5.91967049986124">
        <ele>833</ele>
        <time>2014-05-18T09:23:54Z</time>
      </trkpt>
      <trkpt lat="45.504104504361749" lon="5.919639235362411">
        <ele>833</ele>
        <time>2014-05-18T09:23:55Z</time>
      </trkpt>
      <trkpt lat="45.504034347832203" lon="5.919531947001815">
        <ele>834</ele>
        <time>2014-05-18T09:23:58Z</time>
      </trkpt>
      <trkpt lat="45.503975339233875" lon="5.919426083564758">
        <ele>834.5999755859375</ele>
        <time>2014-05-18T09:24:01Z</time>
      </trkpt>
      <trkpt lat="45.503915743902326" lon="5.919328266754746">
        <ele>835</ele>
        <time>2014-05-18T09:24:04Z</time>
      </trkpt>
      <trkpt lat="45.503788506612182" lon="5.919132214039564">
        <ele>835.79998779296875</ele>
        <time>2014-05-18T09:24:10Z</time>
      </trkpt>
      <trkpt lat="45.503746764734387" lon="5.919070607051253">
        <ele>836.20001220703125</ele>
        <time>2014-05-18T09:24:12Z</time>
      </trkpt>
      <trkpt lat="45.503638470545411" lon="5.918925013393164">
        <ele>837</ele>
        <time>2014-05-18T09:24:17Z</time>
      </trkpt>
      <trkpt lat="45.503628998994827" lon="5.918897856026888">
        <ele>837.20001220703125</ele>
        <time>2014-05-18T09:24:18Z</time>
      </trkpt>
      <trkpt lat="45.503545431420207" lon="5.918791154399514">
        <ele>837.79998779296875</ele>
        <time>2014-05-18T09:24:22Z</time>
      </trkpt>
      <trkpt lat="45.503492876887321" lon="5.918704653158784">
        <ele>838.20001220703125</ele>
        <time>2014-05-18T09:24:25Z</time>
      </trkpt>
      <trkpt lat="45.503454320132732" lon="5.918622007593513">
        <ele>838.79998779296875</ele>
        <time>2014-05-18T09:24:28Z</time>
      </trkpt>
      <trkpt lat="45.50338139757514" lon="5.918467026203871">
        <ele>839.4000244140625</ele>
        <time>2014-05-18T09:24:33Z</time>
      </trkpt>
      <trkpt lat="45.503314593806863" lon="5.91838588938117">
        <ele>840</ele>
        <time>2014-05-18T09:24:36Z</time>
      </trkpt>
      <trkpt lat="45.503166569396853" lon="5.918319085612893">
        <ele>840.4000244140625</ele>
        <time>2014-05-18T09:24:41Z</time>
      </trkpt>
      <trkpt lat="45.503132957965136" lon="5.918305674567819">
        <ele>840.5999755859375</ele>
        <time>2014-05-18T09:24:42Z</time>
      </trkpt>
      <trkpt lat="45.502978730946779" lon="5.918251611292362">
        <ele>841.5999755859375</ele>
        <time>2014-05-18T09:24:47Z</time>
      </trkpt>
      <trkpt lat="45.50292307510972" lon="5.918244570493698">
        <ele>841.79998779296875</ele>
        <time>2014-05-18T09:24:49Z</time>
      </trkpt>
      <trkpt lat="45.502894995734096" lon="5.918234009295702">
        <ele>842</ele>
        <time>2014-05-18T09:24:50Z</time>
      </trkpt>
      <trkpt lat="45.502821318805218" lon="5.918191093951464">
        <ele>842.5999755859375</ele>
        <time>2014-05-18T09:24:53Z</time>
      </trkpt>
      <trkpt lat="45.502757616341114" lon="5.918114567175508">
        <ele>843</ele>
        <time>2014-05-18T09:24:56Z</time>
      </trkpt>
      <trkpt lat="45.502717718482018" lon="5.918022282421589">
        <ele>843.5999755859375</ele>
        <time>2014-05-18T09:24:59Z</time>
      </trkpt>
      <trkpt lat="45.502680921927094" lon="5.917928153648973">
        <ele>844</ele>
        <time>2014-05-18T09:25:02Z</time>
      </trkpt>
      <trkpt lat="45.502645131200552" lon="5.917810052633286">
        <ele>844.5999755859375</ele>
        <time>2014-05-18T09:25:05Z</time>
      </trkpt>
      <trkpt lat="45.502599952742457" lon="5.91768809594214">
        <ele>845</ele>
        <time>2014-05-18T09:25:08Z</time>
      </trkpt>
      <trkpt lat="45.502512864768505" lon="5.917523307725787">
        <ele>845.5999755859375</ele>
        <time>2014-05-18T09:25:13Z</time>
      </trkpt>
      <trkpt lat="45.502489479258657" lon="5.917498664930463">
        <ele>845.79998779296875</ele>
        <time>2014-05-18T09:25:14Z</time>
      </trkpt>
      <trkpt lat="45.502354865893722" lon="5.91739053837955">
        <ele>846.79998779296875</ele>
        <time>2014-05-18T09:25:19Z</time>
      </trkpt>
      <trkpt lat="45.502303401008248" lon="5.917361788451672">
        <ele>847</ele>
        <time>2014-05-18T09:25:21Z</time>
      </trkpt>
      <trkpt lat="45.502163339406252" lon="5.9172532428056">
        <ele>848</ele>
        <time>2014-05-18T09:25:27Z</time>
      </trkpt>
      <trkpt lat="45.50214565359056" lon="5.91722633689642">
        <ele>848</ele>
        <time>2014-05-18T09:25:28Z</time>
      </trkpt>
      <trkpt lat="45.502081448212266" lon="5.917063727974892">
        <ele>848.79998779296875</ele>
        <time>2014-05-18T09:25:33Z</time>
      </trkpt>
      <trkpt lat="45.502062002196908" lon="5.91700010932982">
        <ele>849.4000244140625</ele>
        <time>2014-05-18T09:25:35Z</time>
      </trkpt>
      <trkpt lat="45.502008022740483" lon="5.916869351640344">
        <ele>850.20001220703125</ele>
        <time>2014-05-18T09:25:39Z</time>
      </trkpt>
      <trkpt lat="45.501960581168532" lon="5.916773797944188">
        <ele>850.4000244140625</ele>
        <time>2014-05-18T09:25:42Z</time>
      </trkpt>
      <trkpt lat="45.501918001100421" lon="5.916673885658383">
        <ele>851</ele>
        <time>2014-05-18T09:25:45Z</time>
      </trkpt>
      <trkpt lat="45.501871732994914" lon="5.91657355427742">
        <ele>851.4000244140625</ele>
        <time>2014-05-18T09:25:48Z</time>
      </trkpt>
      <trkpt lat="45.50175815820694" lon="5.916346991434693">
        <ele>852.20001220703125</ele>
        <time>2014-05-18T09:25:55Z</time>
      </trkpt>
      <trkpt lat="45.501741142943501" lon="5.916309859603643">
        <ele>852.4000244140625</ele>
        <time>2014-05-18T09:25:56Z</time>
      </trkpt>
      <trkpt lat="45.50164919346571" lon="5.916141718626022">
        <ele>853</ele>
        <time>2014-05-18T09:26:01Z</time>
      </trkpt>
      <trkpt lat="45.501596052199602" lon="5.91605949215591">
        <ele>853.5999755859375</ele>
        <time>2014-05-18T09:26:04Z</time>
      </trkpt>
      <trkpt lat="45.501511227339506" lon="5.915928902104497">
        <ele>854.4000244140625</ele>
        <time>2014-05-18T09:26:09Z</time>
      </trkpt>
      <trkpt lat="45.501491446048021" lon="5.915904259309173">
        <ele>854.5999755859375</ele>
        <time>2014-05-18T09:26:10Z</time>
      </trkpt>
      <trkpt lat="45.501373009756207" lon="5.915736705064774">
        <ele>855.5999755859375</ele>
        <time>2014-05-18T09:26:17Z</time>
      </trkpt>
      <trkpt lat="45.501341661438346" lon="5.915685910731554">
        <ele>855.79998779296875</ele>
        <time>2014-05-18T09:26:19Z</time>
      </trkpt>
      <trkpt lat="45.50126270391047" lon="5.915553141385317">
        <ele>856.79998779296875</ele>
        <time>2014-05-18T09:26:24Z</time>
      </trkpt>
      <trkpt lat="45.501247616484761" lon="5.915528414770961">
        <ele>856.79998779296875</ele>
        <time>2014-05-18T09:26:25Z</time>
      </trkpt>
      <trkpt lat="45.5011679045856" lon="5.91538961045444">
        <ele>857.20001220703125</ele>
        <time>2014-05-18T09:26:30Z</time>
      </trkpt>
      <trkpt lat="45.501111745834351" lon="5.915215937420726">
        <ele>858</ele>
        <time>2014-05-18T09:26:36Z</time>
      </trkpt>
      <trkpt lat="45.501092383638024" lon="5.915194479748607">
        <ele>858</ele>
        <time>2014-05-18T09:26:37Z</time>
      </trkpt>
      <trkpt lat="45.501067657023668" lon="5.915103452280164">
        <ele>858.4000244140625</ele>
        <time>2014-05-18T09:26:40Z</time>
      </trkpt>
      <trkpt lat="45.501063214614987" lon="5.915074115619063">
        <ele>858.5999755859375</ele>
        <time>2014-05-18T09:26:41Z</time>
      </trkpt>
      <trkpt lat="45.50104133784771" lon="5.914910081773996">
        <ele>859</ele>
        <time>2014-05-18T09:26:46Z</time>
      </trkpt>
      <trkpt lat="45.501034716144204" lon="5.914874458685517">
        <ele>859.20001220703125</ele>
        <time>2014-05-18T09:26:47Z</time>
      </trkpt>
      <trkpt lat="45.501000601798296" lon="5.914865070953965">
        <ele>859.4000244140625</ele>
        <time>2014-05-18T09:26:48Z</time>
      </trkpt>
      <trkpt lat="45.500949220731854" lon="5.914784437045455">
        <ele>859.20001220703125</ele>
        <time>2014-05-18T09:26:51Z</time>
      </trkpt>
      <trkpt lat="45.500882249325514" lon="5.914641944691539">
        <ele>860</ele>
        <time>2014-05-18T09:26:55Z</time>
      </trkpt>
      <trkpt lat="45.500868167728186" lon="5.914606153964996">
        <ele>860</ele>
        <time>2014-05-18T09:26:56Z</time>
      </trkpt>
      <trkpt lat="45.500855008140206" lon="5.914570111781359">
        <ele>860</ele>
        <time>2014-05-18T09:26:57Z</time>
      </trkpt>
      <trkpt lat="45.500766495242715" lon="5.914277750998735">
        <ele>860.79998779296875</ele>
        <time>2014-05-18T09:27:04Z</time>
      </trkpt>
      <trkpt lat="45.50074327737093" lon="5.91419049538672">
        <ele>861</ele>
        <time>2014-05-18T09:27:06Z</time>
      </trkpt>
      <trkpt lat="45.500660631805658" lon="5.914029646664858">
        <ele>861.4000244140625</ele>
        <time>2014-05-18T09:27:10Z</time>
      </trkpt>
      <trkpt lat="45.500558037310839" lon="5.913950018584728">
        <ele>861.5999755859375</ele>
        <time>2014-05-18T09:27:13Z</time>
      </trkpt>
      <trkpt lat="45.500474218279123" lon="5.913936775177717">
        <ele>861.79998779296875</ele>
        <time>2014-05-18T09:27:15Z</time>
      </trkpt>
      <trkpt lat="45.500392410904169" lon="5.913960076868534">
        <ele>862.20001220703125</ele>
        <time>2014-05-18T09:27:17Z</time>
      </trkpt>
      <trkpt lat="45.500326696783304" lon="5.914020678028464">
        <ele>862.4000244140625</ele>
        <time>2014-05-18T09:27:19Z</time>
      </trkpt>
      <trkpt lat="45.50027078948915" lon="5.914191417396069">
        <ele>862.79998779296875</ele>
        <time>2014-05-18T09:27:23Z</time>
      </trkpt>
      <trkpt lat="45.500247236341238" lon="5.914336759597063">
        <ele>863.20001220703125</ele>
        <time>2014-05-18T09:27:26Z</time>
      </trkpt>
      <trkpt lat="45.500224521383643" lon="5.91448025777936">
        <ele>864</ele>
        <time>2014-05-18T09:27:29Z</time>
      </trkpt>
      <trkpt lat="45.500196609646082" lon="5.914557119831443">
        <ele>864.4000244140625</ele>
        <time>2014-05-18T09:27:31Z</time>
      </trkpt>
      <trkpt lat="45.500161992385983" lon="5.914672706276178">
        <ele>865.20001220703125</ele>
        <time>2014-05-18T09:27:34Z</time>
      </trkpt>
      <trkpt lat="45.500148748978972" lon="5.914708580821753">
        <ele>865.5999755859375</ele>
        <time>2014-05-18T09:27:35Z</time>
      </trkpt>
      <trkpt lat="45.500080855563283" lon="5.914846882224083">
        <ele>866.5999755859375</ele>
        <time>2014-05-18T09:27:40Z</time>
      </trkpt>
      <trkpt lat="45.500026205554605" lon="5.915058860555291">
        <ele>867.4000244140625</ele>
        <time>2014-05-18T09:27:46Z</time>
      </trkpt>
      <trkpt lat="45.500013800337911" lon="5.91517360880971">
        <ele>867.79998779296875</ele>
        <time>2014-05-18T09:27:49Z</time>
      </trkpt>
      <trkpt lat="45.499990582466125" lon="5.915283411741257">
        <ele>868.4000244140625</ele>
        <time>2014-05-18T09:27:52Z</time>
      </trkpt>
      <trkpt lat="45.499964011833072" lon="5.915426155552268">
        <ele>869</ele>
        <time>2014-05-18T09:27:56Z</time>
      </trkpt>
      <trkpt lat="45.499958982691169" lon="5.915462700650096">
        <ele>869.20001220703125</ele>
        <time>2014-05-18T09:27:57Z</time>
      </trkpt>
      <trkpt lat="45.499948337674141" lon="5.915635535493493">
        <ele>870.20001220703125</ele>
        <time>2014-05-18T09:28:02Z</time>
      </trkpt>
      <trkpt lat="45.499944565817714" lon="5.915709296241403">
        <ele>870.5999755859375</ele>
        <time>2014-05-18T09:28:04Z</time>
      </trkpt>
      <trkpt lat="45.499944481998682" lon="5.915851453319192">
        <ele>871.20001220703125</ele>
        <time>2014-05-18T09:28:08Z</time>
      </trkpt>
      <trkpt lat="45.49993853084743" lon="5.916030323132873">
        <ele>872</ele>
        <time>2014-05-18T09:28:13Z</time>
      </trkpt>
      <trkpt lat="45.499927550554276" lon="5.916129061952233">
        <ele>872.20001220703125</ele>
        <time>2014-05-18T09:28:16Z</time>
      </trkpt>
      <trkpt lat="45.499925035983324" lon="5.916232913732529">
        <ele>872.79998779296875</ele>
        <time>2014-05-18T09:28:19Z</time>
      </trkpt>
      <trkpt lat="45.499914726242423" lon="5.916374064981937">
        <ele>873.4000244140625</ele>
        <time>2014-05-18T09:28:23Z</time>
      </trkpt>
      <trkpt lat="45.499913552775979" lon="5.916482275351882">
        <ele>873.79998779296875</ele>
        <time>2014-05-18T09:28:26Z</time>
      </trkpt>
      <trkpt lat="45.499904584139585" lon="5.916586127132177">
        <ele>874.5999755859375</ele>
        <time>2014-05-18T09:28:29Z</time>
      </trkpt>
      <trkpt lat="45.499896118417382" lon="5.91675192117691">
        <ele>875.20001220703125</ele>
        <time>2014-05-18T09:28:34Z</time>
      </trkpt>
      <trkpt lat="45.499899554997683" lon="5.916851414367557">
        <ele>875.5999755859375</ele>
        <time>2014-05-18T09:28:37Z</time>
      </trkpt>
      <trkpt lat="45.499885221943259" lon="5.916973622515798">
        <ele>876.20001220703125</ele>
        <time>2014-05-18T09:28:41Z</time>
      </trkpt>
      <trkpt lat="45.499879103153944" lon="5.91702944599092">
        <ele>876.5999755859375</ele>
        <time>2014-05-18T09:28:43Z</time>
      </trkpt>
      <trkpt lat="45.49985446035862" lon="5.917171686887741">
        <ele>877.20001220703125</ele>
        <time>2014-05-18T09:28:48Z</time>
      </trkpt>
      <trkpt lat="45.499841803684831" lon="5.917255925014615">
        <ele>877.79998779296875</ele>
        <time>2014-05-18T09:28:51Z</time>
      </trkpt>
      <trkpt lat="45.499821351841092" lon="5.917395064607263">
        <ele>878.5999755859375</ele>
        <time>2014-05-18T09:28:56Z</time>
      </trkpt>
      <trkpt lat="45.499814813956618" lon="5.91745943762362">
        <ele>879</ele>
        <time>2014-05-18T09:28:58Z</time>
      </trkpt>
      <trkpt lat="45.499800313264132" lon="5.917606623843312">
        <ele>880</ele>
        <time>2014-05-18T09:29:03Z</time>
      </trkpt>
      <trkpt lat="45.499780531972647" lon="5.917805526405573">
        <ele>881</ele>
        <time>2014-05-18T09:29:10Z</time>
      </trkpt>
      <trkpt lat="45.499777011573315" lon="5.917864451184869">
        <ele>881.5999755859375</ele>
        <time>2014-05-18T09:29:12Z</time>
      </trkpt>
      <trkpt lat="45.499772485345602" lon="5.917948186397553">
        <ele>882</ele>
        <time>2014-05-18T09:29:15Z</time>
      </trkpt>
      <trkpt lat="45.499759577214718" lon="5.918069640174508">
        <ele>882.5999755859375</ele>
        <time>2014-05-18T09:29:19Z</time>
      </trkpt>
      <trkpt lat="45.499762510880828" lon="5.918158907443285">
        <ele>883.20001220703125</ele>
        <time>2014-05-18T09:29:22Z</time>
      </trkpt>
      <trkpt lat="45.499764857813716" lon="5.918291592970491">
        <ele>883.79998779296875</ele>
        <time>2014-05-18T09:29:26Z</time>
      </trkpt>
      <trkpt lat="45.499773239716887" lon="5.918393097817898">
        <ele>884.20001220703125</ele>
        <time>2014-05-18T09:29:29Z</time>
      </trkpt>
      <trkpt lat="45.499786734580994" lon="5.918521173298359">
        <ele>885</ele>
        <time>2014-05-18T09:29:33Z</time>
      </trkpt>
      <trkpt lat="45.499788746237755" lon="5.918585462495685">
        <ele>885.4000244140625</ele>
        <time>2014-05-18T09:29:35Z</time>
      </trkpt>
      <trkpt lat="45.499813975766301" lon="5.91868101619184">
        <ele>885.79998779296875</ele>
        <time>2014-05-18T09:29:38Z</time>
      </trkpt>
      <trkpt lat="45.499844821169972" lon="5.918763745576143">
        <ele>886.4000244140625</ele>
        <time>2014-05-18T09:29:41Z</time>
      </trkpt>
      <trkpt lat="45.499851861968637" lon="5.918822502717376">
        <ele>886.79998779296875</ele>
        <time>2014-05-18T09:29:43Z</time>
      </trkpt>
      <trkpt lat="45.49987206235528" lon="5.91893951408565">
        <ele>887.5999755859375</ele>
        <time>2014-05-18T09:29:47Z</time>
      </trkpt>
      <trkpt lat="45.499870972707868" lon="5.919027691707015">
        <ele>888</ele>
        <time>2014-05-18T09:29:50Z</time>
      </trkpt>
      <trkpt lat="45.499889329075813" lon="5.919204130768776">
        <ele>888.79998779296875</ele>
        <time>2014-05-18T09:29:56Z</time>
      </trkpt>
      <trkpt lat="45.499893603846431" lon="5.919262552633882">
        <ele>889.20001220703125</ele>
        <time>2014-05-18T09:29:58Z</time>
      </trkpt>
      <trkpt lat="45.499903075397015" lon="5.919351987540722">
        <ele>889.79998779296875</ele>
        <time>2014-05-18T09:30:01Z</time>
      </trkpt>
      <trkpt lat="45.499924784526229" lon="5.919516189023852">
        <ele>890.4000244140625</ele>
        <time>2014-05-18T09:30:07Z</time>
      </trkpt>
      <trkpt lat="45.499929981306195" lon="5.919577293097973">
        <ele>890.79998779296875</ele>
        <time>2014-05-18T09:30:09Z</time>
      </trkpt>
      <trkpt lat="45.499936519190669" lon="5.919745098799467">
        <ele>891.5999755859375</ele>
        <time>2014-05-18T09:30:15Z</time>
      </trkpt>
      <trkpt lat="45.499933082610369" lon="5.919769573956728">
        <ele>891.79998779296875</ele>
        <time>2014-05-18T09:30:16Z</time>
      </trkpt>
      <trkpt lat="45.499936770647764" lon="5.919906785711646">
        <ele>892.5999755859375</ele>
        <time>2014-05-18T09:30:21Z</time>
      </trkpt>
      <trkpt lat="45.499940877780318" lon="5.919963866472244">
        <ele>893</ele>
        <time>2014-05-18T09:30:23Z</time>
      </trkpt>
      <trkpt lat="45.499977841973305" lon="5.920145837590098">
        <ele>894</ele>
        <time>2014-05-18T09:30:30Z</time>
      </trkpt>
      <trkpt lat="45.499987984076142" lon="5.92017768882215">
        <ele>894.20001220703125</ele>
        <time>2014-05-18T09:30:31Z</time>
      </trkpt>
      <trkpt lat="45.500032659620047" lon="5.920357564464212">
        <ele>895.20001220703125</ele>
        <time>2014-05-18T09:30:37Z</time>
      </trkpt>
      <trkpt lat="45.500021930783987" lon="5.920454878360033">
        <ele>895.79998779296875</ele>
        <time>2014-05-18T09:30:40Z</time>
      </trkpt>
      <trkpt lat="45.500004915520549" lon="5.920510869473219">
        <ele>896.4000244140625</ele>
        <time>2014-05-18T09:30:42Z</time>
      </trkpt>
      <trkpt lat="45.499937273561954" lon="5.920614050701261">
        <ele>897.79998779296875</ele>
        <time>2014-05-18T09:30:47Z</time>
      </trkpt>
      <trkpt lat="45.499837696552277" lon="5.920691583305597">
        <ele>898.79998779296875</ele>
        <time>2014-05-18T09:30:53Z</time>
      </trkpt>
      <trkpt lat="45.499818585813046" lon="5.920705916360021">
        <ele>899</ele>
        <time>2014-05-18T09:30:54Z</time>
      </trkpt>
      <trkpt lat="45.499702664092183" lon="5.920753693208098">
        <ele>899.79998779296875</ele>
        <time>2014-05-18T09:31:00Z</time>
      </trkpt>
      <trkpt lat="45.499681960791349" lon="5.920761404559016">
        <ele>900.20001220703125</ele>
        <time>2014-05-18T09:31:01Z</time>
      </trkpt>
      <trkpt lat="45.499594621360302" lon="5.920768612995744">
        <ele>900.79998779296875</ele>
        <time>2014-05-18T09:31:05Z</time>
      </trkpt>
      <trkpt lat="45.49951147288084" lon="5.92074790969491">
        <ele>901.5999755859375</ele>
        <time>2014-05-18T09:31:09Z</time>
      </trkpt>
      <trkpt lat="45.499444333836436" lon="5.920735839754343">
        <ele>901.79998779296875</ele>
        <time>2014-05-18T09:31:12Z</time>
      </trkpt>
      <trkpt lat="45.499357581138611" lon="5.920716812834144">
        <ele>902.20001220703125</ele>
        <time>2014-05-18T09:31:16Z</time>
      </trkpt>
      <trkpt lat="45.499247526749969" lon="5.92066677287221">
        <ele>903</ele>
        <time>2014-05-18T09:31:21Z</time>
      </trkpt>
      <trkpt lat="45.499209389090538" lon="5.920639699324966">
        <ele>903.4000244140625</ele>
        <time>2014-05-18T09:31:23Z</time>
      </trkpt>
      <trkpt lat="45.499103358015418" lon="5.92057004570961">
        <ele>904.20001220703125</ele>
        <time>2014-05-18T09:31:28Z</time>
      </trkpt>
      <trkpt lat="45.499085336923599" lon="5.920547498390079">
        <ele>904.20001220703125</ele>
        <time>2014-05-18T09:31:29Z</time>
      </trkpt>
      <trkpt lat="45.499020712450147" lon="5.92039461247623">
        <ele>905.4000244140625</ele>
        <time>2014-05-18T09:31:35Z</time>
      </trkpt>
      <trkpt lat="45.499010318890214" lon="5.920367538928986">
        <ele>905.5999755859375</ele>
        <time>2014-05-18T09:31:36Z</time>
      </trkpt>
      <trkpt lat="45.498957009986043" lon="5.920242313295603">
        <ele>906.4000244140625</ele>
        <time>2014-05-18T09:31:41Z</time>
      </trkpt>
      <trkpt lat="45.498933708295226" lon="5.920159248635173">
        <ele>906.79998779296875</ele>
        <time>2014-05-18T09:31:44Z</time>
      </trkpt>
      <trkpt lat="45.498934043571353" lon="5.920126726850867">
        <ele>907.20001220703125</ele>
        <time>2014-05-18T09:31:48Z</time>
      </trkpt>
      <trkpt lat="45.498919542878866" lon="5.920073082670569">
        <ele>907.79998779296875</ele>
        <time>2014-05-18T09:34:56Z</time>
      </trkpt>
      <trkpt lat="45.49889724701643" lon="5.920032178983092">
        <ele>907.79998779296875</ele>
        <time>2014-05-18T09:34:58Z</time>
      </trkpt>
      <trkpt lat="45.498865731060505" lon="5.91993092559278">
        <ele>908.4000244140625</ele>
        <time>2014-05-18T09:35:02Z</time>
      </trkpt>
      <trkpt lat="45.498848715797067" lon="5.919874683022499">
        <ele>908.79998779296875</ele>
        <time>2014-05-18T09:35:04Z</time>
      </trkpt>
      <trkpt lat="45.498786857351661" lon="5.919685084372759">
        <ele>910.20001220703125</ele>
        <time>2014-05-18T09:35:11Z</time>
      </trkpt>
      <trkpt lat="45.498738577589393" lon="5.919556254521012">
        <ele>911</ele>
        <time>2014-05-18T09:35:16Z</time>
      </trkpt>
      <trkpt lat="45.498724160715938" lon="5.919495150446892">
        <ele>911.4000244140625</ele>
        <time>2014-05-18T09:35:18Z</time>
      </trkpt>
      <trkpt lat="45.498682837933302" lon="5.919389706104994">
        <ele>912</ele>
        <time>2014-05-18T09:35:22Z</time>
      </trkpt>
      <trkpt lat="45.498656602576375" lon="5.919320974498987">
        <ele>912.4000244140625</ele>
        <time>2014-05-18T09:35:25Z</time>
      </trkpt>
      <trkpt lat="45.49862852320075" lon="5.919232964515686">
        <ele>912.79998779296875</ele>
        <time>2014-05-18T09:35:28Z</time>
      </trkpt>
      <trkpt lat="45.498610502108932" lon="5.919175716117024">
        <ele>913.4000244140625</ele>
        <time>2014-05-18T09:35:30Z</time>
      </trkpt>
      <trkpt lat="45.498565742745996" lon="5.91904504224658">
        <ele>914.4000244140625</ele>
        <time>2014-05-18T09:35:35Z</time>
      </trkpt>
      <trkpt lat="45.498514445498586" lon="5.918904980644584">
        <ele>915.20001220703125</ele>
        <time>2014-05-18T09:35:40Z</time>
      </trkpt>
      <trkpt lat="45.498496424406767" lon="5.918877655640245">
        <ele>915.4000244140625</ele>
        <time>2014-05-18T09:35:41Z</time>
      </trkpt>
      <trkpt lat="45.498479576781392" lon="5.918855862691999">
        <ele>915.5999755859375</ele>
        <time>2014-05-18T09:35:42Z</time>
      </trkpt>
      <trkpt lat="45.498431213200092" lon="5.918800123035908">
        <ele>916.20001220703125</ele>
        <time>2014-05-18T09:35:45Z</time>
      </trkpt>
      <trkpt lat="45.49837538972497" lon="5.918743796646595">
        <ele>916.5999755859375</ele>
        <time>2014-05-18T09:35:48Z</time>
      </trkpt>
      <trkpt lat="45.498355608433485" lon="5.91872158460319">
        <ele>916.5999755859375</ele>
        <time>2014-05-18T09:35:49Z</time>
      </trkpt>
      <trkpt lat="45.498265838250518" lon="5.918583618476987">
        <ele>917.5999755859375</ele>
        <time>2014-05-18T09:35:55Z</time>
      </trkpt>
      <trkpt lat="45.498251924291253" lon="5.91856031678617">
        <ele>917.79998779296875</ele>
        <time>2014-05-18T09:35:56Z</time>
      </trkpt>
      <trkpt lat="45.49820045940578" lon="5.918417237699032">
        <ele>918.5999755859375</ele>
        <time>2014-05-18T09:36:01Z</time>
      </trkpt>
      <trkpt lat="45.498191826045513" lon="5.918388487771154">
        <ele>918.79998779296875</ele>
        <time>2014-05-18T09:36:02Z</time>
      </trkpt>
      <trkpt lat="45.498149078339338" lon="5.918268039822578">
        <ele>919.5999755859375</ele>
        <time>2014-05-18T09:36:07Z</time>
      </trkpt>
      <trkpt lat="45.498135751113296" lon="5.918215904384852">
        <ele>920</ele>
        <time>2014-05-18T09:36:09Z</time>
      </trkpt>
      <trkpt lat="45.4981027264148" lon="5.918113226071">
        <ele>920.79998779296875</ele>
        <time>2014-05-18T09:36:13Z</time>
      </trkpt>
      <trkpt lat="45.4980836994946" lon="5.918036866933107">
        <ele>921.20001220703125</ele>
        <time>2014-05-18T09:36:16Z</time>
      </trkpt>
      <trkpt lat="45.498075736686587" lon="5.917895883321762">
        <ele>922</ele>
        <time>2014-05-18T09:36:21Z</time>
      </trkpt>
      <trkpt lat="45.498071210458875" lon="5.917873168364167">
        <ele>922.20001220703125</ele>
        <time>2014-05-18T09:36:22Z</time>
      </trkpt>
      <trkpt lat="45.498066935688257" lon="5.917768897488713">
        <ele>923</ele>
        <time>2014-05-18T09:36:26Z</time>
      </trkpt>
      <trkpt lat="45.498055284842849" lon="5.917697232216597">
        <ele>923.4000244140625</ele>
        <time>2014-05-18T09:36:29Z</time>
      </trkpt>
      <trkpt lat="45.498021086677909" lon="5.917577287182212">
        <ele>924</ele>
        <time>2014-05-18T09:36:33Z</time>
      </trkpt>
      <trkpt lat="45.498002814128995" lon="5.917503107339144">
        <ele>924.20001220703125</ele>
        <time>2014-05-18T09:36:35Z</time>
      </trkpt>
      <trkpt lat="45.497936094179749" lon="5.917418617755175">
        <ele>925</ele>
        <time>2014-05-18T09:36:40Z</time>
      </trkpt>
      <trkpt lat="45.49791949801147" lon="5.917404955253005">
        <ele>925.4000244140625</ele>
        <time>2014-05-18T09:36:41Z</time>
      </trkpt>
      <trkpt lat="45.497875493019819" lon="5.917370757088065">
        <ele>926.20001220703125</ele>
        <time>2014-05-18T09:36:43Z</time>
      </trkpt>
      <trkpt lat="45.497768791392446" lon="5.917363716289401">
        <ele>927.5999755859375</ele>
        <time>2014-05-18T09:36:47Z</time>
      </trkpt>
      <trkpt lat="45.49764784052968" lon="5.917407888919115">
        <ele>928.4000244140625</ele>
        <time>2014-05-18T09:36:53Z</time>
      </trkpt>
      <trkpt lat="45.497628981247544" lon="5.917419958859682">
        <ele>928.5999755859375</ele>
        <time>2014-05-18T09:36:54Z</time>
      </trkpt>
      <trkpt lat="45.497534768655896" lon="5.917478464543819">
        <ele>929.79998779296875</ele>
        <time>2014-05-18T09:36:59Z</time>
      </trkpt>
      <trkpt lat="45.497479531913996" lon="5.917521296069026">
        <ele>930.20001220703125</ele>
        <time>2014-05-18T09:37:02Z</time>
      </trkpt>
      <trkpt lat="45.497403843328357" lon="5.917597906664014">
        <ele>930.79998779296875</ele>
        <time>2014-05-18T09:37:07Z</time>
      </trkpt>
      <trkpt lat="45.497391186654568" lon="5.917612574994564">
        <ele>931</ele>
        <time>2014-05-18T09:37:08Z</time>
      </trkpt>
      <trkpt lat="45.497309546917677" lon="5.917687928304076">
        <ele>932</ele>
        <time>2014-05-18T09:37:13Z</time>
      </trkpt>
      <trkpt lat="45.497270822525024" lon="5.917716594412923">
        <ele>932.20001220703125</ele>
        <time>2014-05-18T09:37:15Z</time>
      </trkpt>
      <trkpt lat="45.497165462002158" lon="5.917788343504071">
        <ele>933</ele>
        <time>2014-05-18T09:37:20Z</time>
      </trkpt>
      <trkpt lat="45.49714551307261" lon="5.917801419273019">
        <ele>933.20001220703125</ele>
        <time>2014-05-18T09:37:21Z</time>
      </trkpt>
      <trkpt lat="45.497047696262598" lon="5.917861349880695">
        <ele>934</ele>
        <time>2014-05-18T09:37:26Z</time>
      </trkpt>
      <trkpt lat="45.496988520026207" lon="5.917877862229943">
        <ele>934.4000244140625</ele>
        <time>2014-05-18T09:37:29Z</time>
      </trkpt>
      <trkpt lat="45.496897660195827" lon="5.917896386235952">
        <ele>935</ele>
        <time>2014-05-18T09:37:34Z</time>
      </trkpt>
      <trkpt lat="45.496778720989823" lon="5.917905103415251">
        <ele>936</ele>
        <time>2014-05-18T09:37:41Z</time>
      </trkpt>
      <trkpt lat="45.496763717383146" lon="5.917904768139124">
        <ele>936.20001220703125</ele>
        <time>2014-05-18T09:37:42Z</time>
      </trkpt>
      <trkpt lat="45.496672773733735" lon="5.917890015989542">
        <ele>937</ele>
        <time>2014-05-18T09:37:47Z</time>
      </trkpt>
      <trkpt lat="45.496625164523721" lon="5.917873168364167">
        <ele>937.20001220703125</ele>
        <time>2014-05-18T09:37:50Z</time>
      </trkpt>
      <trkpt lat="45.49657772295177" lon="5.917854979634285">
        <ele>937.79998779296875</ele>
        <time>2014-05-18T09:37:53Z</time>
      </trkpt>
      <trkpt lat="45.496561713516712" lon="5.917850034311414">
        <ele>938</ele>
        <time>2014-05-18T09:37:54Z</time>
      </trkpt>
      <trkpt lat="45.496526844799519" lon="5.917849028483033">
        <ele>938.20001220703125</ele>
        <time>2014-05-18T09:37:56Z</time>
      </trkpt>
      <trkpt lat="45.49645752646029" lon="5.917845508083701">
        <ele>939</ele>
        <time>2014-05-18T09:38:00Z</time>
      </trkpt>
      <trkpt lat="45.496393740177155" lon="5.917856404557824">
        <ele>939.5999755859375</ele>
        <time>2014-05-18T09:38:03Z</time>
      </trkpt>
      <trkpt lat="45.496324170380831" lon="5.917870150879026">
        <ele>940.20001220703125</ele>
        <time>2014-05-18T09:38:07Z</time>
      </trkpt>
      <trkpt lat="45.496252840384841" lon="5.917871575802565">
        <ele>940.5999755859375</ele>
        <time>2014-05-18T09:38:11Z</time>
      </trkpt>
      <trkpt lat="45.496179750189185" lon="5.917872246354818">
        <ele>941.4000244140625</ele>
        <time>2014-05-18T09:38:15Z</time>
      </trkpt>
      <trkpt lat="45.496161729097366" lon="5.917868474498391">
        <ele>941.5999755859375</ele>
        <time>2014-05-18T09:38:16Z</time>
      </trkpt>
      <trkpt lat="45.496071791276336" lon="5.917856739833951">
        <ele>942.4000244140625</ele>
        <time>2014-05-18T09:38:21Z</time>
      </trkpt>
      <trkpt lat="45.496009178459644" lon="5.917842909693718">
        <ele>942.5999755859375</ele>
        <time>2014-05-18T09:38:24Z</time>
      </trkpt>
      <trkpt lat="45.495899375528097" lon="5.917845424264669">
        <ele>943.79998779296875</ele>
        <time>2014-05-18T09:38:29Z</time>
      </trkpt>
      <trkpt lat="45.495776832103729" lon="5.917859422042966">
        <ele>944.5999755859375</ele>
        <time>2014-05-18T09:38:35Z</time>
      </trkpt>
      <trkpt lat="45.49575830809772" lon="5.917861517518759">
        <ele>944.79998779296875</ele>
        <time>2014-05-18T09:38:36Z</time>
      </trkpt>
      <trkpt lat="45.49568840302527" lon="5.917879203334451">
        <ele>945.4000244140625</ele>
        <time>2014-05-18T09:38:40Z</time>
      </trkpt>
      <trkpt lat="45.495609864592552" lon="5.917906779795885">
        <ele>946</ele>
        <time>2014-05-18T09:38:44Z</time>
      </trkpt>
      <trkpt lat="45.495569380000234" lon="5.917923375964165">
        <ele>946.20001220703125</ele>
        <time>2014-05-18T09:38:46Z</time>
      </trkpt>
      <trkpt lat="45.495462091639638" lon="5.917936284095049">
        <ele>947</ele>
        <time>2014-05-18T09:38:51Z</time>
      </trkpt>
      <trkpt lat="45.495398975908756" lon="5.917930752038956">
        <ele>947.5999755859375</ele>
        <time>2014-05-18T09:38:54Z</time>
      </trkpt>
      <trkpt lat="45.49530585296452" lon="5.917882388457656">
        <ele>948.20001220703125</ele>
        <time>2014-05-18T09:38:59Z</time>
      </trkpt>
      <trkpt lat="45.49527307972312" lon="5.917854057624936">
        <ele>948.5999755859375</ele>
        <time>2014-05-18T09:39:01Z</time>
      </trkpt>
      <trkpt lat="45.495254807174206" lon="5.917845172807574">
        <ele>948.79998779296875</ele>
        <time>2014-05-18T09:39:02Z</time>
      </trkpt>
      <trkpt lat="45.495221447199583" lon="5.917822038754821">
        <ele>949.20001220703125</ele>
        <time>2014-05-18T09:39:04Z</time>
      </trkpt>
      <trkpt lat="45.495150787755847" lon="5.917767556384206">
        <ele>950</ele>
        <time>2014-05-18T09:39:08Z</time>
      </trkpt>
      <trkpt lat="45.495096137747169" lon="5.917722964659333">
        <ele>950.5999755859375</ele>
        <time>2014-05-18T09:39:11Z</time>
      </trkpt>
      <trkpt lat="45.495025394484401" lon="5.917681474238634">
        <ele>951.20001220703125</ele>
        <time>2014-05-18T09:39:15Z</time>
      </trkpt>
      <trkpt lat="45.494992788881063" lon="5.917651047930121">
        <ele>951.5999755859375</ele>
        <time>2014-05-18T09:39:17Z</time>
      </trkpt>
      <trkpt lat="45.494934031739831" lon="5.917585249990225">
        <ele>952.20001220703125</ele>
        <time>2014-05-18T09:39:21Z</time>
      </trkpt>
      <trkpt lat="45.494848284870386" lon="5.917512159794569">
        <ele>952.5999755859375</ele>
        <time>2014-05-18T09:39:26Z</time>
      </trkpt>
      <trkpt lat="45.494746277108788" lon="5.91741543263197">
        <ele>953.5999755859375</ele>
        <time>2014-05-18T09:39:32Z</time>
      </trkpt>
      <trkpt lat="45.494731357321143" lon="5.917399004101753">
        <ele>953.79998779296875</ele>
        <time>2014-05-18T09:39:33Z</time>
      </trkpt>
      <trkpt lat="45.494655668735504" lon="5.917340498417616">
        <ele>954.79998779296875</ele>
        <time>2014-05-18T09:39:38Z</time>
      </trkpt>
      <trkpt lat="45.494623063132167" lon="5.91731627471745">
        <ele>955</ele>
        <time>2014-05-18T09:39:40Z</time>
      </trkpt>
      <trkpt lat="45.494608310982585" lon="5.917298253625631">
        <ele>955</ele>
        <time>2014-05-18T09:39:41Z</time>
      </trkpt>
      <trkpt lat="45.494544273242354" lon="5.917217368260026">
        <ele>955.79998779296875</ele>
        <time>2014-05-18T09:39:46Z</time>
      </trkpt>
      <trkpt lat="45.494467411190271" lon="5.917163137346506">
        <ele>956.79998779296875</ele>
        <time>2014-05-18T09:39:51Z</time>
      </trkpt>
      <trkpt lat="45.494449809193611" lon="5.917154336348176">
        <ele>956.79998779296875</ele>
        <time>2014-05-18T09:39:52Z</time>
      </trkpt>
      <trkpt lat="45.49437252804637" lon="5.917143188416958">
        <ele>957.20001220703125</ele>
        <time>2014-05-18T09:39:56Z</time>
      </trkpt>
      <trkpt lat="45.494291558861732" lon="5.917175207287073">
        <ele>957.79998779296875</ele>
        <time>2014-05-18T09:40:00Z</time>
      </trkpt>
      <trkpt lat="45.494232047349215" lon="5.917211333289743">
        <ele>958.4000244140625</ele>
        <time>2014-05-18T09:40:03Z</time>
      </trkpt>
      <trkpt lat="45.494174379855394" lon="5.917235556989908">
        <ele>959</ele>
        <time>2014-05-18T09:40:06Z</time>
      </trkpt>
      <trkpt lat="45.494115371257067" lon="5.917246788740158">
        <ele>959.20001220703125</ele>
        <time>2014-05-18T09:40:09Z</time>
      </trkpt>
      <trkpt lat="45.494033480063081" lon="5.917252488434315">
        <ele>960</ele>
        <time>2014-05-18T09:40:13Z</time>
      </trkpt>
      <trkpt lat="45.493952594697475" lon="5.917220050469041">
        <ele>960.79998779296875</ele>
        <time>2014-05-18T09:40:17Z</time>
      </trkpt>
      <trkpt lat="45.493932478129864" lon="5.917213680222631">
        <ele>961</ele>
        <time>2014-05-18T09:40:18Z</time>
      </trkpt>
      <trkpt lat="45.493849078193307" lon="5.917191468179226">
        <ele>961.5999755859375</ele>
        <time>2014-05-18T09:40:22Z</time>
      </trkpt>
      <trkpt lat="45.493808928877115" lon="5.91717311181128">
        <ele>962.20001220703125</ele>
        <time>2014-05-18T09:40:24Z</time>
      </trkpt>
      <trkpt lat="45.493731647729874" lon="5.917132794857025">
        <ele>963</ele>
        <time>2014-05-18T09:40:28Z</time>
      </trkpt>
      <trkpt lat="45.493667274713516" lon="5.917076719924808">
        <ele>963.5999755859375</ele>
        <time>2014-05-18T09:40:32Z</time>
      </trkpt>
      <trkpt lat="45.493651684373617" lon="5.917061883956194">
        <ele>963.79998779296875</ele>
        <time>2014-05-18T09:40:33Z</time>
      </trkpt>
      <trkpt lat="45.493640368804336" lon="5.917041264474392">
        <ele>964</ele>
        <time>2014-05-18T09:40:34Z</time>
      </trkpt>
      <trkpt lat="45.493581779301167" lon="5.916968006640673">
        <ele>964.5999755859375</ele>
        <time>2014-05-18T09:40:38Z</time>
      </trkpt>
      <trkpt lat="45.493564428761601" lon="5.916950739920139">
        <ele>964.79998779296875</ele>
        <time>2014-05-18T09:40:39Z</time>
      </trkpt>
      <trkpt lat="45.493487901985645" lon="5.916855940595269">
        <ele>965.5999755859375</ele>
        <time>2014-05-18T09:40:44Z</time>
      </trkpt>
      <trkpt lat="45.493455799296498" lon="5.916813779622316">
        <ele>966</ele>
        <time>2014-05-18T09:40:46Z</time>
      </trkpt>
      <trkpt lat="45.493428558111191" lon="5.916788885369897">
        <ele>966.5999755859375</ele>
        <time>2014-05-18T09:40:48Z</time>
      </trkpt>
      <trkpt lat="45.493388073518872" lon="5.916742449626327">
        <ele>967</ele>
        <time>2014-05-18T09:40:51Z</time>
      </trkpt>
      <trkpt lat="45.493350774049759" lon="5.91664002276957">
        <ele>967.5999755859375</ele>
        <time>2014-05-18T09:40:55Z</time>
      </trkpt>
      <trkpt lat="45.493321772664785" lon="5.916566681116819">
        <ele>968</ele>
        <time>2014-05-18T09:40:58Z</time>
      </trkpt>
      <trkpt lat="45.493313893675804" lon="5.916543463245034">
        <ele>968.20001220703125</ele>
        <time>2014-05-18T09:40:59Z</time>
      </trkpt>
      <trkpt lat="45.493273241445422" lon="5.916427206248045">
        <ele>969</ele>
        <time>2014-05-18T09:41:04Z</time>
      </trkpt>
      <trkpt lat="45.493266368284822" lon="5.916402731090784">
        <ele>969.20001220703125</ele>
        <time>2014-05-18T09:41:05Z</time>
      </trkpt>
      <trkpt lat="45.493257148191333" lon="5.916378842666745">
        <ele>969.4000244140625</ele>
        <time>2014-05-18T09:41:06Z</time>
      </trkpt>
      <trkpt lat="45.493197804316878" lon="5.916222687810659">
        <ele>970.4000244140625</ele>
        <time>2014-05-18T09:41:13Z</time>
      </trkpt>
      <trkpt lat="45.493116835132241" lon="5.916060078889132">
        <ele>971.4000244140625</ele>
        <time>2014-05-18T09:41:20Z</time>
      </trkpt>
      <trkpt lat="45.493102334439754" lon="5.91603510081768">
        <ele>971.5999755859375</ele>
        <time>2014-05-18T09:41:21Z</time>
      </trkpt>
      <trkpt lat="45.493018263950944" lon="5.915899900719523">
        <ele>972.20001220703125</ele>
        <time>2014-05-18T09:41:26Z</time>
      </trkpt>
      <trkpt lat="45.492912149056792" lon="5.91584743000567">
        <ele>972.79998779296875</ele>
        <time>2014-05-18T09:41:30Z</time>
      </trkpt>
      <trkpt lat="45.492860097438097" lon="5.91584743000567">
        <ele>973</ele>
        <time>2014-05-18T09:41:32Z</time>
      </trkpt>
      <trkpt lat="45.492741912603378" lon="5.915932673960924">
        <ele>973.4000244140625</ele>
        <time>2014-05-18T09:41:37Z</time>
      </trkpt>
      <trkpt lat="45.492571843788028" lon="5.916107939556241">
        <ele>973.4000244140625</ele>
        <time>2014-05-18T09:41:43Z</time>
      </trkpt>
      <trkpt lat="45.49240630120039" lon="5.916152531281114">
        <ele>973.79998779296875</ele>
        <time>2014-05-18T09:41:48Z</time>
      </trkpt>
      <trkpt lat="45.492245452478528" lon="5.916042812168598">
        <ele>974.20001220703125</ele>
        <time>2014-05-18T09:41:53Z</time>
      </trkpt>
      <trkpt lat="45.492051746696234" lon="5.915858913213015">
        <ele>974.79998779296875</ele>
        <time>2014-05-18T09:41:59Z</time>
      </trkpt>
      <trkpt lat="45.492023583501577" lon="5.915826810523868">
        <ele>975</ele>
        <time>2014-05-18T09:42:00Z</time>
      </trkpt>
      <trkpt lat="45.491872541606426" lon="5.915734190493822">
        <ele>975.20001220703125</ele>
        <time>2014-05-18T09:42:04Z</time>
      </trkpt>
      <trkpt lat="45.491554029285908" lon="5.915622627362609">
        <ele>975.79998779296875</ele>
        <time>2014-05-18T09:42:12Z</time>
      </trkpt>
      <trkpt lat="45.491395276039839" lon="5.91566520743072">
        <ele>975.79998779296875</ele>
        <time>2014-05-18T09:42:16Z</time>
      </trkpt>
      <trkpt lat="45.491281533613801" lon="5.915716337040067">
        <ele>976</ele>
        <time>2014-05-18T09:42:19Z</time>
      </trkpt>
      <trkpt lat="45.491246161982417" lon="5.915740644559264">
        <ele>976.20001220703125</ele>
        <time>2014-05-18T09:42:20Z</time>
      </trkpt>
      <trkpt lat="45.491103418171406" lon="5.915852291509509">
        <ele>977.4000244140625</ele>
        <time>2014-05-18T09:42:24Z</time>
      </trkpt>
      <trkpt lat="45.49106159247458" lon="5.915949437767267">
        <ele>977.4000244140625</ele>
        <time>2014-05-18T09:42:26Z</time>
      </trkpt>
      <trkpt lat="45.491060502827168" lon="5.916185807436705">
        <ele>977.5999755859375</ele>
        <time>2014-05-18T09:42:30Z</time>
      </trkpt>
      <trkpt lat="45.491089168936014" lon="5.916285384446383">
        <ele>977.79998779296875</ele>
        <time>2014-05-18T09:42:32Z</time>
      </trkpt>
      <trkpt lat="45.491108279675245" lon="5.916375825181603">
        <ele>978.4000244140625</ele>
        <time>2014-05-18T09:42:34Z</time>
      </trkpt>
      <trkpt lat="45.491115320473909" lon="5.916417567059398">
        <ele>978.79998779296875</ele>
        <time>2014-05-18T09:42:35Z</time>
      </trkpt>
      <trkpt lat="45.491131581366062" lon="5.916539607569575">
        <ele>979.5999755859375</ele>
        <time>2014-05-18T09:42:38Z</time>
      </trkpt>
      <trkpt lat="45.491133593022823" lon="5.916642704978585">
        <ele>980.4000244140625</ele>
        <time>2014-05-18T09:42:41Z</time>
      </trkpt>
      <trkpt lat="45.491134598851204" lon="5.916709760203958">
        <ele>980.79998779296875</ele>
        <time>2014-05-18T09:42:43Z</time>
      </trkpt>
      <trkpt lat="45.491159241646528" lon="5.916916709393263">
        <ele>981.5999755859375</ele>
        <time>2014-05-18T09:42:49Z</time>
      </trkpt>
      <trkpt lat="45.491161840036511" lon="5.916951159015298">
        <ele>981.79998779296875</ele>
        <time>2014-05-18T09:42:50Z</time>
      </trkpt>
      <trkpt lat="45.491191260516644" lon="5.917154923081398">
        <ele>982.5999755859375</ele>
        <time>2014-05-18T09:42:56Z</time>
      </trkpt>
      <trkpt lat="45.491196708753705" lon="5.917190294712782">
        <ele>982.79998779296875</ele>
        <time>2014-05-18T09:42:57Z</time>
      </trkpt>
      <trkpt lat="45.491198133677244" lon="5.917353322729468">
        <ele>984</ele>
        <time>2014-05-18T09:43:02Z</time>
      </trkpt>
      <trkpt lat="45.491190170869231" lon="5.917414845898747">
        <ele>984.4000244140625</ele>
        <time>2014-05-18T09:43:04Z</time>
      </trkpt>
      <trkpt lat="45.491158151999116" lon="5.917534455657005">
        <ele>985</ele>
        <time>2014-05-18T09:43:08Z</time>
      </trkpt>
      <trkpt lat="45.4911158233881" lon="5.917652472853661">
        <ele>985.79998779296875</ele>
        <time>2014-05-18T09:43:12Z</time>
      </trkpt>
      <trkpt lat="45.49108849838376" lon="5.917709050700069">
        <ele>986.20001220703125</ele>
        <time>2014-05-18T09:43:14Z</time>
      </trkpt>
      <trkpt lat="45.491013480350375" lon="5.917849531397224">
        <ele>986.79998779296875</ele>
        <time>2014-05-18T09:43:19Z</time>
      </trkpt>
      <trkpt lat="45.490971487015486" lon="5.917931590229273">
        <ele>987.4000244140625</ele>
        <time>2014-05-18T09:43:22Z</time>
      </trkpt>
      <trkpt lat="45.490941479802132" lon="5.917985318228602">
        <ele>987.79998779296875</ele>
        <time>2014-05-18T09:43:24Z</time>
      </trkpt>
      <trkpt lat="45.490903258323669" lon="5.918061677366495">
        <ele>988.20001220703125</ele>
        <time>2014-05-18T09:43:27Z</time>
      </trkpt>
      <trkpt lat="45.490876268595457" lon="5.918117836117744">
        <ele>988.4000244140625</ele>
        <time>2014-05-18T09:43:29Z</time>
      </trkpt>
      <trkpt lat="45.490857325494289" lon="5.918172234669328">
        <ele>988.79998779296875</ele>
        <time>2014-05-18T09:43:31Z</time>
      </trkpt>
      <trkpt lat="45.490815918892622" lon="5.918273236602545">
        <ele>989.5999755859375</ele>
        <time>2014-05-18T09:43:35Z</time>
      </trkpt>
      <trkpt lat="45.490788258612156" lon="5.918355882167816">
        <ele>990</ele>
        <time>2014-05-18T09:43:38Z</time>
      </trkpt>
      <trkpt lat="45.490759676322341" lon="5.918471217155457">
        <ele>990.5999755859375</ele>
        <time>2014-05-18T09:43:42Z</time>
      </trkpt>
      <trkpt lat="45.490725561976433" lon="5.918581103906035">
        <ele>991</ele>
        <time>2014-05-18T09:43:46Z</time>
      </trkpt>
      <trkpt lat="45.490686669945717" lon="5.918738348409534">
        <ele>991.5999755859375</ele>
        <time>2014-05-18T09:43:51Z</time>
      </trkpt>
      <trkpt lat="45.490675941109657" lon="5.918814456090331">
        <ele>992</ele>
        <time>2014-05-18T09:43:53Z</time>
      </trkpt>
      <trkpt lat="45.490625230595469" lon="5.918993158265948">
        <ele>992.79998779296875</ele>
        <time>2014-05-18T09:43:59Z</time>
      </trkpt>
      <trkpt lat="45.490573011338711" lon="5.919144786894321">
        <ele>994</ele>
        <time>2014-05-18T09:44:05Z</time>
      </trkpt>
      <trkpt lat="45.490510649979115" lon="5.919286943972111">
        <ele>995</ele>
        <time>2014-05-18T09:44:12Z</time>
      </trkpt>
      <trkpt lat="45.490460526198149" lon="5.919406218454242">
        <ele>995.79998779296875</ele>
        <time>2014-05-18T09:44:18Z</time>
      </trkpt>
      <trkpt lat="45.490454826503992" lon="5.919427592307329">
        <ele>996</ele>
        <time>2014-05-18T09:44:19Z</time>
      </trkpt>
      <trkpt lat="45.490437224507332" lon="5.919506968930364">
        <ele>996.4000244140625</ele>
        <time>2014-05-18T09:44:22Z</time>
      </trkpt>
      <trkpt lat="45.490425992757082" lon="5.919563295319676">
        <ele>996.79998779296875</ele>
        <time>2014-05-18T09:44:24Z</time>
      </trkpt>
      <trkpt lat="45.490413084626198" lon="5.919617442414165">
        <ele>997.20001220703125</ele>
        <time>2014-05-18T09:44:26Z</time>
      </trkpt>
      <trkpt lat="45.490395063534379" lon="5.919771837070584">
        <ele>997.79998779296875</ele>
        <time>2014-05-18T09:44:31Z</time>
      </trkpt>
      <trkpt lat="45.490393051877618" lon="5.919878203421831">
        <ele>998.20001220703125</ele>
        <time>2014-05-18T09:44:34Z</time>
      </trkpt>
      <trkpt lat="45.49039414152503" lon="5.919981803745031">
        <ele>998.5999755859375</ele>
        <time>2014-05-18T09:44:37Z</time>
      </trkpt>
      <trkpt lat="45.490382742136717" lon="5.920144077390432">
        <ele>999.4000244140625</ele>
        <time>2014-05-18T09:44:42Z</time>
      </trkpt>
      <trkpt lat="45.490366397425532" lon="5.9202079474926">
        <ele>999.5999755859375</ele>
        <time>2014-05-18T09:44:44Z</time>
      </trkpt>
      <trkpt lat="45.490322057157755" lon="5.920324539765716">
        <ele>1000.5999755859375</ele>
        <time>2014-05-18T09:44:48Z</time>
      </trkpt>
      <trkpt lat="45.490287020802498" lon="5.920406933873892">
        <ele>1001.2000122070312</ele>
        <time>2014-05-18T09:44:51Z</time>
      </trkpt>
      <trkpt lat="45.490239998325706" lon="5.920470049604774">
        <ele>1001.5999755859375</ele>
        <time>2014-05-18T09:44:54Z</time>
      </trkpt>
      <trkpt lat="45.490186605602503" lon="5.920522687956691">
        <ele>1002</ele>
        <time>2014-05-18T09:44:57Z</time>
      </trkpt>
      <trkpt lat="45.490118293091655" lon="5.920596867799759">
        <ele>1002.7999877929687</ele>
        <time>2014-05-18T09:45:01Z</time>
      </trkpt>
      <trkpt lat="45.490079568699002" lon="5.920665683224797">
        <ele>1003.2000122070312</ele>
        <time>2014-05-18T09:45:04Z</time>
      </trkpt>
      <trkpt lat="45.490048220381141" lon="5.920753022655845">
        <ele>1003.7999877929687</ele>
        <time>2014-05-18T09:45:07Z</time>
      </trkpt>
      <trkpt lat="45.490020643919706" lon="5.920874895527959">
        <ele>1004.2000122070312</ele>
        <time>2014-05-18T09:45:11Z</time>
      </trkpt>
      <trkpt lat="45.490002287551761" lon="5.920971957966685">
        <ele>1004.7999877929687</ele>
        <time>2014-05-18T09:45:14Z</time>
      </trkpt>
      <trkpt lat="45.489957109093666" lon="5.921108582988381">
        <ele>1005.5999755859375</ele>
        <time>2014-05-18T09:45:19Z</time>
      </trkpt>
      <trkpt lat="45.489933555945754" lon="5.921180415898562">
        <ele>1006</ele>
        <time>2014-05-18T09:45:22Z</time>
      </trkpt>
      <trkpt lat="45.489897262305021" lon="5.921265995129943">
        <ele>1007</ele>
        <time>2014-05-18T09:45:26Z</time>
      </trkpt>
      <trkpt lat="45.489884940907359" lon="5.921286446973681">
        <ele>1007</ele>
        <time>2014-05-18T09:45:27Z</time>
      </trkpt>
      <trkpt lat="45.489824004471302" lon="5.921398010104895">
        <ele>1007.4000244140625</ele>
        <time>2014-05-18T09:45:32Z</time>
      </trkpt>
      <trkpt lat="45.48981268890202" lon="5.92142122797668">
        <ele>1007.5999755859375</ele>
        <time>2014-05-18T09:45:33Z</time>
      </trkpt>
      <trkpt lat="45.489779664203525" lon="5.92149255797267">
        <ele>1008.4000244140625</ele>
        <time>2014-05-18T09:45:36Z</time>
      </trkpt>
      <trkpt lat="45.489715710282326" lon="5.921598924323916">
        <ele>1009.2000122070312</ele>
        <time>2014-05-18T09:45:41Z</time>
      </trkpt>
      <trkpt lat="45.489692576229572" lon="5.92163572087884">
        <ele>1009.4000244140625</ele>
        <time>2014-05-18T09:45:43Z</time>
      </trkpt>
      <trkpt lat="45.489599034190178" lon="5.921738231554627">
        <ele>1010</ele>
        <time>2014-05-18T09:45:49Z</time>
      </trkpt>
      <trkpt lat="45.489565590396523" lon="5.921776201575995">
        <ele>1010.4000244140625</ele>
        <time>2014-05-18T09:45:51Z</time>
      </trkpt>
      <trkpt lat="45.489501217380166" lon="5.921873180195689">
        <ele>1011</ele>
        <time>2014-05-18T09:45:56Z</time>
      </trkpt>
      <trkpt lat="45.489476909860969" lon="5.921909138560295">
        <ele>1011.5999755859375</ele>
        <time>2014-05-18T09:45:58Z</time>
      </trkpt>
      <trkpt lat="45.489426702260971" lon="5.921975607052445">
        <ele>1012.5999755859375</ele>
        <time>2014-05-18T09:49:56Z</time>
      </trkpt>
      <trkpt lat="45.489402143284678" lon="5.921898912638426">
        <ele>1012.5999755859375</ele>
        <time>2014-05-18T09:49:59Z</time>
      </trkpt>
      <trkpt lat="45.489341542124748" lon="5.921782739460468">
        <ele>1013</ele>
        <time>2014-05-18T09:50:03Z</time>
      </trkpt>
      <trkpt lat="45.489303404465318" lon="5.921722138300538">
        <ele>1013.2000122070312</ele>
        <time>2014-05-18T09:50:05Z</time>
      </trkpt>
      <trkpt lat="45.489245066419244" lon="5.921644270420075">
        <ele>1013.7999877929687</ele>
        <time>2014-05-18T09:50:08Z</time>
      </trkpt>
      <trkpt lat="45.489163510501385" lon="5.92155265621841">
        <ele>1014.4000244140625</ele>
        <time>2014-05-18T09:50:12Z</time>
      </trkpt>
      <trkpt lat="45.489101400598884" lon="5.921477302908897">
        <ele>1014.7999877929687</ele>
        <time>2014-05-18T09:50:15Z</time>
      </trkpt>
      <trkpt lat="45.489050606265664" lon="5.9214236587286">
        <ele>1015.2000122070312</ele>
        <time>2014-05-18T09:50:17Z</time>
      </trkpt>
      <trkpt lat="45.488917417824268" lon="5.921388538554311">
        <ele>1015.7999877929687</ele>
        <time>2014-05-18T09:50:22Z</time>
      </trkpt>
      <trkpt lat="45.488856146112084" lon="5.921412091702223">
        <ele>1016</ele>
        <time>2014-05-18T09:50:24Z</time>
      </trkpt>
      <trkpt lat="45.48871667124331" lon="5.921424999833107">
        <ele>1017</ele>
        <time>2014-05-18T09:50:29Z</time>
      </trkpt>
      <trkpt lat="45.488690016791224" lon="5.921421060338616">
        <ele>1017.2000122070312</ele>
        <time>2014-05-18T09:50:30Z</time>
      </trkpt>
      <trkpt lat="45.488594546914101" lon="5.921374959871173">
        <ele>1018</ele>
        <time>2014-05-18T09:50:34Z</time>
      </trkpt>
      <trkpt lat="45.488576358184218" lon="5.921357190236449">
        <ele>1018.4000244140625</ele>
        <time>2014-05-18T09:50:35Z</time>
      </trkpt>
      <trkpt lat="45.488509219139814" lon="5.921273455023766">
        <ele>1019.2000122070312</ele>
        <time>2014-05-18T09:50:39Z</time>
      </trkpt>
      <trkpt lat="45.488470159471035" lon="5.921212937682867">
        <ele>1019.7999877929687</ele>
        <time>2014-05-18T09:50:42Z</time>
      </trkpt>
      <trkpt lat="45.488449204713106" lon="5.921164322644472">
        <ele>1020.4000244140625</ele>
        <time>2014-05-18T09:50:44Z</time>
      </trkpt>
      <trkpt lat="45.488414922729135" lon="5.921044712886214">
        <ele>1021.4000244140625</ele>
        <time>2014-05-18T09:50:48Z</time>
      </trkpt>
      <trkpt lat="45.488406792283058" lon="5.921018645167351">
        <ele>1021.5999755859375</ele>
        <time>2014-05-18T09:50:49Z</time>
      </trkpt>
      <trkpt lat="45.488357422873378" lon="5.920847738161683">
        <ele>1022.5999755859375</ele>
        <time>2014-05-18T09:50:55Z</time>
      </trkpt>
      <trkpt lat="45.488325404003263" lon="5.920695438981056">
        <ele>1023.5999755859375</ele>
        <time>2014-05-18T09:51:00Z</time>
      </trkpt>
      <trkpt lat="45.488311825320125" lon="5.920597119256854">
        <ele>1024</ele>
        <time>2014-05-18T09:51:03Z</time>
      </trkpt>
      <trkpt lat="45.48829740844667" lon="5.920513300225139">
        <ele>1024.800048828125</ele>
        <time>2014-05-18T09:51:06Z</time>
      </trkpt>
      <trkpt lat="45.488268239423633" lon="5.920373992994428">
        <ele>1025.4000244140625</ele>
        <time>2014-05-18T09:51:11Z</time>
      </trkpt>
      <trkpt lat="45.488250888884068" lon="5.920312302187085">
        <ele>1025.800048828125</ele>
        <time>2014-05-18T09:51:13Z</time>
      </trkpt>
      <trkpt lat="45.488227000460029" lon="5.920234769582748">
        <ele>1026.199951171875</ele>
        <time>2014-05-18T09:51:16Z</time>
      </trkpt>
      <trkpt lat="45.488182492554188" lon="5.920142568647862">
        <ele>1027</ele>
        <time>2014-05-18T09:51:20Z</time>
      </trkpt>
      <trkpt lat="45.488136308267713" lon="5.920053217560053">
        <ele>1027.800048828125</ele>
        <time>2014-05-18T09:51:24Z</time>
      </trkpt>
      <trkpt lat="45.488126669079065" lon="5.92003452591598">
        <ele>1028</ele>
        <time>2014-05-18T09:51:25Z</time>
      </trkpt>
      <trkpt lat="45.488069672137499" lon="5.919932937249541">
        <ele>1029</ele>
        <time>2014-05-18T09:51:30Z</time>
      </trkpt>
      <trkpt lat="45.488059362396598" lon="5.919910306110978">
        <ele>1029</ele>
        <time>2014-05-18T09:51:31Z</time>
      </trkpt>
      <trkpt lat="45.488016530871391" lon="5.919776698574424">
        <ele>1030</ele>
        <time>2014-05-18T09:51:36Z</time>
      </trkpt>
      <trkpt lat="45.488007226958871" lon="5.919750295579433">
        <ele>1030.199951171875</ele>
        <time>2014-05-18T09:51:37Z</time>
      </trkpt>
      <trkpt lat="45.487954672425985" lon="5.919619873166084">
        <ele>1030.800048828125</ele>
        <time>2014-05-18T09:51:43Z</time>
      </trkpt>
      <trkpt lat="45.487938160076737" lon="5.919562708586454">
        <ele>1031.199951171875</ele>
        <time>2014-05-18T09:51:45Z</time>
      </trkpt>
      <trkpt lat="45.487912259995937" lon="5.919501269236207">
        <ele>1031.800048828125</ele>
        <time>2014-05-18T09:51:48Z</time>
      </trkpt>
      <trkpt lat="45.487871859222651" lon="5.919421389698982">
        <ele>1032.4000244140625</ele>
        <time>2014-05-18T09:51:53Z</time>
      </trkpt>
      <trkpt lat="45.487855682149529" lon="5.919381324201822">
        <ele>1032.800048828125</ele>
        <time>2014-05-18T09:51:55Z</time>
      </trkpt>
      <trkpt lat="45.487824250012636" lon="5.919278478249908">
        <ele>1033.5999755859375</ele>
        <time>2014-05-18T09:52:00Z</time>
      </trkpt>
      <trkpt lat="45.487813353538513" lon="5.919262384995818">
        <ele>1033.800048828125</ele>
        <time>2014-05-18T09:52:01Z</time>
      </trkpt>
      <trkpt lat="45.487779909744859" lon="5.919212093576789">
        <ele>1034.4000244140625</ele>
        <time>2014-05-18T09:52:04Z</time>
      </trkpt>
      <trkpt lat="45.487752081826329" lon="5.919180829077959">
        <ele>1034.5999755859375</ele>
        <time>2014-05-18T09:52:06Z</time>
      </trkpt>
      <trkpt lat="45.487737497314811" lon="5.919161383062601">
        <ele>1034.800048828125</ele>
        <time>2014-05-18T09:52:07Z</time>
      </trkpt>
      <trkpt lat="45.487676812335849" lon="5.919069936499">
        <ele>1035.4000244140625</ele>
        <time>2014-05-18T09:52:11Z</time>
      </trkpt>
      <trkpt lat="45.487660132348537" lon="5.919027188792825">
        <ele>1035.5999755859375</ele>
        <time>2014-05-18T09:52:12Z</time>
      </trkpt>
      <trkpt lat="45.487639345228672" lon="5.918982932344079">
        <ele>1035.800048828125</ele>
        <time>2014-05-18T09:52:13Z</time>
      </trkpt>
      <trkpt lat="45.487606236711144" lon="5.918904058635235">
        <ele>1036</ele>
        <time>2014-05-18T09:52:15Z</time>
      </trkpt>
      <trkpt lat="45.487545635551214" lon="5.918796602636576">
        <ele>1036.4000244140625</ele>
        <time>2014-05-18T09:52:18Z</time>
      </trkpt>
      <trkpt lat="45.487503474578261" lon="5.918687805533409">
        <ele>1037</ele>
        <time>2014-05-18T09:52:21Z</time>
      </trkpt>
      <trkpt lat="45.487482771277428" lon="5.918663078919053">
        <ele>1037.4000244140625</ele>
        <time>2014-05-18T09:52:22Z</time>
      </trkpt>
      <trkpt lat="45.487406915053725" lon="5.918570877984166">
        <ele>1038.199951171875</ele>
        <time>2014-05-18T09:52:26Z</time>
      </trkpt>
      <trkpt lat="45.487348157912493" lon="5.918454704806209">
        <ele>1038.800048828125</ele>
        <time>2014-05-18T09:52:30Z</time>
      </trkpt>
      <trkpt lat="45.487320246174932" lon="5.91839904896915">
        <ele>1039.199951171875</ele>
        <time>2014-05-18T09:52:32Z</time>
      </trkpt>
      <trkpt lat="45.487236175686121" lon="5.918244402855635">
        <ele>1040.199951171875</ele>
        <time>2014-05-18T09:52:38Z</time>
      </trkpt>
      <trkpt lat="45.48715160228312" lon="5.918097300454974">
        <ele>1041.199951171875</ele>
        <time>2014-05-18T09:52:44Z</time>
      </trkpt>
      <trkpt lat="45.48713643103838" lon="5.918082213029265">
        <ele>1041.4000244140625</ele>
        <time>2014-05-18T09:52:45Z</time>
      </trkpt>
      <trkpt lat="45.487008355557919" lon="5.917988084256649">
        <ele>1042.4000244140625</ele>
        <time>2014-05-18T09:52:51Z</time>
      </trkpt>
      <trkpt lat="45.486969882622361" lon="5.917972913011909">
        <ele>1042.800048828125</ele>
        <time>2014-05-18T09:52:53Z</time>
      </trkpt>
      <trkpt lat="45.486907688900828" lon="5.917950198054314">
        <ele>1043.5999755859375</ele>
        <time>2014-05-18T09:52:56Z</time>
      </trkpt>
      <trkpt lat="45.486831497400999" lon="5.917921448126435">
        <ele>1044.4000244140625</ele>
        <time>2014-05-18T09:53:00Z</time>
      </trkpt>
      <trkpt lat="45.486817248165607" lon="5.917905187234283">
        <ele>1044.5999755859375</ele>
        <time>2014-05-18T09:53:01Z</time>
      </trkpt>
      <trkpt lat="45.486752036958933" lon="5.91780879534781">
        <ele>1045.4000244140625</ele>
        <time>2014-05-18T09:53:06Z</time>
      </trkpt>
      <trkpt lat="45.486736698076129" lon="5.917791025713086">
        <ele>1045.5999755859375</ele>
        <time>2014-05-18T09:53:07Z</time>
      </trkpt>
      <trkpt lat="45.4866605065763" lon="5.917691364884377">
        <ele>1046.199951171875</ele>
        <time>2014-05-18T09:53:12Z</time>
      </trkpt>
      <trkpt lat="45.486625973135233" lon="5.91765490360558">
        <ele>1046.800048828125</ele>
        <time>2014-05-18T09:53:14Z</time>
      </trkpt>
      <trkpt lat="45.486538717523217" lon="5.91753420419991">
        <ele>1047.4000244140625</ele>
        <time>2014-05-18T09:53:19Z</time>
      </trkpt>
      <trkpt lat="45.486513152718544" lon="5.917485421523452">
        <ele>1047.800048828125</ele>
        <time>2014-05-18T09:53:21Z</time>
      </trkpt>
      <trkpt lat="45.486444002017379" lon="5.917411576956511">
        <ele>1048.4000244140625</ele>
        <time>2014-05-18T09:53:25Z</time>
      </trkpt>
      <trkpt lat="45.486416090279818" lon="5.917361620813608">
        <ele>1049</ele>
        <time>2014-05-18T09:53:27Z</time>
      </trkpt>
      <trkpt lat="45.486356662586331" lon="5.917317615821958">
        <ele>1049.199951171875</ele>
        <time>2014-05-18T09:53:30Z</time>
      </trkpt>
      <trkpt lat="45.486282482743263" lon="5.917260702699423">
        <ele>1050</ele>
        <time>2014-05-18T09:53:34Z</time>
      </trkpt>
      <trkpt lat="45.486206710338593" lon="5.917229438200593">
        <ele>1050.5999755859375</ele>
        <time>2014-05-18T09:53:38Z</time>
      </trkpt>
      <trkpt lat="45.486150467768312" lon="5.917219882830977">
        <ele>1051</ele>
        <time>2014-05-18T09:53:41Z</time>
      </trkpt>
      <trkpt lat="45.486054327338934" lon="5.917211920022965">
        <ele>1051.5999755859375</ele>
        <time>2014-05-18T09:53:45Z</time>
      </trkpt>
      <trkpt lat="45.485985679551959" lon="5.917210830375552">
        <ele>1052.199951171875</ele>
        <time>2014-05-18T09:53:48Z</time>
      </trkpt>
      <trkpt lat="45.485920049250126" lon="5.917211165651679">
        <ele>1052.4000244140625</ele>
        <time>2014-05-18T09:53:51Z</time>
      </trkpt>
      <trkpt lat="45.485788956284523" lon="5.917229605838656">
        <ele>1053.199951171875</ele>
        <time>2014-05-18T09:53:57Z</time>
      </trkpt>
      <trkpt lat="45.485768672078848" lon="5.917233629152179">
        <ele>1053.199951171875</ele>
        <time>2014-05-18T09:53:58Z</time>
      </trkpt>
      <trkpt lat="45.485630119219422" lon="5.917286183685064">
        <ele>1054.199951171875</ele>
        <time>2014-05-18T09:54:05Z</time>
      </trkpt>
      <trkpt lat="45.485617127269506" lon="5.917287608608604">
        <ele>1054.5999755859375</ele>
        <time>2014-05-18T09:54:06Z</time>
      </trkpt>
      <trkpt lat="45.485552502796054" lon="5.917300852015615">
        <ele>1055.199951171875</ele>
        <time>2014-05-18T09:54:10Z</time>
      </trkpt>
      <trkpt lat="45.485522160306573" lon="5.91729280538857">
        <ele>1055.4000244140625</ele>
        <time>2014-05-18T09:54:12Z</time>
      </trkpt>
      <trkpt lat="45.485500786453485" lon="5.91730210930109">
        <ele>1055.5999755859375</ele>
        <time>2014-05-18T09:54:13Z</time>
      </trkpt>
      <trkpt lat="45.48547949641943" lon="5.917314346879721">
        <ele>1055.800048828125</ele>
        <time>2014-05-18T09:54:14Z</time>
      </trkpt>
      <trkpt lat="45.485355779528618" lon="5.917295487597585">
        <ele>1057</ele>
        <time>2014-05-18T09:54:20Z</time>
      </trkpt>
      <trkpt lat="45.485239522531629" lon="5.917252656072378">
        <ele>1058</ele>
        <time>2014-05-18T09:54:26Z</time>
      </trkpt>
      <trkpt lat="45.485086301341653" lon="5.917176548391581">
        <ele>1059</ele>
        <time>2014-05-18T09:54:34Z</time>
      </trkpt>
      <trkpt lat="45.484942635521293" lon="5.91710664331913">
        <ele>1060.199951171875</ele>
        <time>2014-05-18T09:54:41Z</time>
      </trkpt>
      <trkpt lat="45.484922183677554" lon="5.917094238102436">
        <ele>1060.199951171875</ele>
        <time>2014-05-18T09:54:42Z</time>
      </trkpt>
      <trkpt lat="45.484803915023804" lon="5.91703531332314">
        <ele>1061.199951171875</ele>
        <time>2014-05-18T09:54:48Z</time>
      </trkpt>
      <trkpt lat="45.484786396846175" lon="5.917023411020637">
        <ele>1061.5999755859375</ele>
        <time>2014-05-18T09:54:49Z</time>
      </trkpt>
      <trkpt lat="45.484711714088917" lon="5.916992146521807">
        <ele>1062.4000244140625</ele>
        <time>2014-05-18T09:54:53Z</time>
      </trkpt>
      <trkpt lat="45.484653878957033" lon="5.916967922821641">
        <ele>1062.800048828125</ele>
        <time>2014-05-18T09:54:56Z</time>
      </trkpt>
      <trkpt lat="45.48457458615303" lon="5.916935736313462">
        <ele>1063.4000244140625</ele>
        <time>2014-05-18T09:55:00Z</time>
      </trkpt>
      <trkpt lat="45.484523540362716" lon="5.916887875646353">
        <ele>1064</ele>
        <time>2014-05-18T09:55:03Z</time>
      </trkpt>
      <trkpt lat="45.484434524551034" lon="5.916816461831331">
        <ele>1064.800048828125</ele>
        <time>2014-05-18T09:55:08Z</time>
      </trkpt>
      <trkpt lat="45.484306365251541" lon="5.916701294481754">
        <ele>1066</ele>
        <time>2014-05-18T09:55:15Z</time>
      </trkpt>
      <trkpt lat="45.484207710251212" lon="5.916601214557886">
        <ele>1066.800048828125</ele>
        <time>2014-05-18T09:55:21Z</time>
      </trkpt>
      <trkpt lat="45.484190862625837" lon="5.916585205122829">
        <ele>1067</ele>
        <time>2014-05-18T09:55:22Z</time>
      </trkpt>
      <trkpt lat="45.484087346121669" lon="5.91649099253118">
        <ele>1068</ele>
        <time>2014-05-18T09:55:28Z</time>
      </trkpt>
      <trkpt lat="45.484069157391787" lon="5.916475150734186">
        <ele>1068</ele>
        <time>2014-05-18T09:55:30Z</time>
      </trkpt>
      <trkpt lat="45.483975950628519" lon="5.916385715827346">
        <ele>1069.199951171875</ele>
        <time>2014-05-18T09:55:35Z</time>
      </trkpt>
      <trkpt lat="45.483947619795799" lon="5.916350847110152">
        <ele>1069.5999755859375</ele>
        <time>2014-05-18T09:55:37Z</time>
      </trkpt>
      <trkpt lat="45.483923479914665" lon="5.916316732764244">
        <ele>1070.199951171875</ele>
        <time>2014-05-18T09:55:39Z</time>
      </trkpt>
      <trkpt lat="45.483886515721679" lon="5.916267530992627">
        <ele>1070.5999755859375</ele>
        <time>2014-05-18T09:55:42Z</time>
      </trkpt>
      <trkpt lat="45.483849132433534" lon="5.91622713021934">
        <ele>1071</ele>
        <time>2014-05-18T09:55:45Z</time>
      </trkpt>
      <trkpt lat="45.483834128826857" lon="5.916209863498807">
        <ele>1071.4000244140625</ele>
        <time>2014-05-18T09:55:46Z</time>
      </trkpt>
      <trkpt lat="45.483820969238877" lon="5.916189160197973">
        <ele>1071.4000244140625</ele>
        <time>2014-05-18T09:55:47Z</time>
      </trkpt>
      <trkpt lat="45.483759865164757" lon="5.916128642857075">
        <ele>1072</ele>
        <time>2014-05-18T09:55:51Z</time>
      </trkpt>
      <trkpt lat="45.483720554038882" lon="5.916112214326859">
        <ele>1072.4000244140625</ele>
        <time>2014-05-18T09:55:53Z</time>
      </trkpt>
      <trkpt lat="45.4836246650666" lon="5.916082877665758">
        <ele>1073.4000244140625</ele>
        <time>2014-05-18T09:55:58Z</time>
      </trkpt>
      <trkpt lat="45.483583929017186" lon="5.91608053073287">
        <ele>1073.5999755859375</ele>
        <time>2014-05-18T09:56:00Z</time>
      </trkpt>
      <trkpt lat="45.48343213275075" lon="5.916079776361585">
        <ele>1074.4000244140625</ele>
        <time>2014-05-18T09:56:07Z</time>
      </trkpt>
      <trkpt lat="45.483409920707345" lon="5.916082290932536">
        <ele>1074.5999755859375</ele>
        <time>2014-05-18T09:56:08Z</time>
      </trkpt>
      <trkpt lat="45.483261561021209" lon="5.916073909029365">
        <ele>1075.800048828125</ele>
        <time>2014-05-18T09:56:15Z</time>
      </trkpt>
      <trkpt lat="45.483084870502353" lon="5.916009619832039">
        <ele>1076.800048828125</ele>
        <time>2014-05-18T09:56:23Z</time>
      </trkpt>
      <trkpt lat="45.482995016500354" lon="5.915936278179288">
        <ele>1077.800048828125</ele>
        <time>2014-05-18T09:56:28Z</time>
      </trkpt>
      <trkpt lat="45.482972972095013" lon="5.915926974266768">
        <ele>1078</ele>
        <time>2014-05-18T09:56:29Z</time>
      </trkpt>
      <trkpt lat="45.482830060645938" lon="5.915868217125535">
        <ele>1079</ele>
        <time>2014-05-18T09:56:36Z</time>
      </trkpt>
      <trkpt lat="45.48281111754477" lon="5.915857655927539">
        <ele>1079.199951171875</ele>
        <time>2014-05-18T09:56:37Z</time>
      </trkpt>
      <trkpt lat="45.482684131711721" lon="5.91581323184073">
        <ele>1080.199951171875</ele>
        <time>2014-05-18T09:56:43Z</time>
      </trkpt>
      <trkpt lat="45.482518337666988" lon="5.915764532983303">
        <ele>1080.800048828125</ele>
        <time>2014-05-18T09:56:50Z</time>
      </trkpt>
      <trkpt lat="45.482355309650302" lon="5.915718683972955">
        <ele>1081.4000244140625</ele>
        <time>2014-05-18T09:56:56Z</time>
      </trkpt>
      <trkpt lat="45.482325972989202" lon="5.91570720076561">
        <ele>1081.4000244140625</ele>
        <time>2014-05-18T09:56:57Z</time>
      </trkpt>
      <trkpt lat="45.482150623574853" lon="5.915601756423712">
        <ele>1081.4000244140625</ele>
        <time>2014-05-18T09:57:03Z</time>
      </trkpt>
      <trkpt lat="45.482073007151484" lon="5.915531935170293">
        <ele>1082.5999755859375</ele>
        <time>2014-05-18T09:57:06Z</time>
      </trkpt>
      <trkpt lat="45.481993043795228" lon="5.915419198572636">
        <ele>1083.199951171875</ele>
        <time>2014-05-18T09:57:10Z</time>
      </trkpt>
      <trkpt lat="45.481931185349822" lon="5.915353065356612">
        <ele>1083.5999755859375</ele>
        <time>2014-05-18T09:57:13Z</time>
      </trkpt>
      <trkpt lat="45.481867901980877" lon="5.915302773937583">
        <ele>1084</ele>
        <time>2014-05-18T09:57:16Z</time>
      </trkpt>
      <trkpt lat="45.481800092384219" lon="5.915238065645099">
        <ele>1084.800048828125</ele>
        <time>2014-05-18T09:57:19Z</time>
      </trkpt>
      <trkpt lat="45.481697581708431" lon="5.91513404622674">
        <ele>1085.199951171875</ele>
        <time>2014-05-18T09:57:24Z</time>
      </trkpt>
      <trkpt lat="45.481542935594916" lon="5.915020052343607">
        <ele>1085.5999755859375</ele>
        <time>2014-05-18T09:57:30Z</time>
      </trkpt>
      <trkpt lat="45.481462553143501" lon="5.914987698197365">
        <ele>1085.800048828125</ele>
        <time>2014-05-18T09:57:33Z</time>
      </trkpt>
      <trkpt lat="45.481322156265378" lon="5.914967581629753">
        <ele>1086.5999755859375</ele>
        <time>2014-05-18T09:57:38Z</time>
      </trkpt>
      <trkpt lat="45.481153512373567" lon="5.915026841685176">
        <ele>1086.800048828125</ele>
        <time>2014-05-18T09:57:44Z</time>
      </trkpt>
      <trkpt lat="45.48112434335053" lon="5.915037235245109">
        <ele>1087</ele>
        <time>2014-05-18T09:57:45Z</time>
      </trkpt>
      <trkpt lat="45.480971289798617" lon="5.915067326277494">
        <ele>1087.800048828125</ele>
        <time>2014-05-18T09:57:50Z</time>
      </trkpt>
      <trkpt lat="45.480948910117149" lon="5.915057770907879">
        <ele>1088</ele>
        <time>2014-05-18T09:57:51Z</time>
      </trkpt>
      <trkpt lat="45.480870790779591" lon="5.915044192224741">
        <ele>1088.5999755859375</ele>
        <time>2014-05-18T09:57:54Z</time>
      </trkpt>
      <trkpt lat="45.480773225426674" lon="5.915000690147281">
        <ele>1089.199951171875</ele>
        <time>2014-05-18T09:57:58Z</time>
      </trkpt>
      <trkpt lat="45.480748666450381" lon="5.914990045130253">
        <ele>1089.4000244140625</ele>
        <time>2014-05-18T09:57:59Z</time>
      </trkpt>
      <trkpt lat="45.480545908212662" lon="5.914900442585349">
        <ele>1090.199951171875</ele>
        <time>2014-05-18T09:58:07Z</time>
      </trkpt>
      <trkpt lat="45.480521349236369" lon="5.914892060682178">
        <ele>1090.199951171875</ele>
        <time>2014-05-18T09:58:08Z</time>
      </trkpt>
      <trkpt lat="45.480331666767597" lon="5.914744706824422">
        <ele>1090</ele>
        <time>2014-05-18T09:58:15Z</time>
      </trkpt>
      <trkpt lat="45.48023602925241" lon="5.914636664092541">
        <ele>1089.4000244140625</ele>
        <time>2014-05-18T09:58:18Z</time>
      </trkpt>
      <trkpt lat="45.480180624872446" lon="5.914550581946969">
        <ele>1089.199951171875</ele>
        <time>2014-05-18T09:58:20Z</time>
      </trkpt>
      <trkpt lat="45.480156736448407" lon="5.914514791220427">
        <ele>1089</ele>
        <time>2014-05-18T09:58:21Z</time>
      </trkpt>
      <trkpt lat="45.48012119717896" lon="5.914429295808077">
        <ele>1088.800048828125</ele>
        <time>2014-05-18T09:58:24Z</time>
      </trkpt>
      <trkpt lat="45.480123208835721" lon="5.914408843964338">
        <ele>1088.800048828125</ele>
        <time>2014-05-18T09:58:25Z</time>
      </trkpt>
      <trkpt lat="45.480061853304505" lon="5.914380177855492">
        <ele>1088</ele>
        <time>2014-05-18T10:02:50Z</time>
      </trkpt>
      <trkpt lat="45.480039892718196" lon="5.914362743496895">
        <ele>1087.800048828125</ele>
        <time>2014-05-18T10:02:51Z</time>
      </trkpt>
      <trkpt lat="45.479973256587982" lon="5.914290742948651">
        <ele>1087.4000244140625</ele>
        <time>2014-05-18T10:02:54Z</time>
      </trkpt>
      <trkpt lat="45.479932688176632" lon="5.914216814562678">
        <ele>1087.199951171875</ele>
        <time>2014-05-18T10:02:56Z</time>
      </trkpt>
      <trkpt lat="45.479877786710858" lon="5.914133246988058">
        <ele>1086.800048828125</ele>
        <time>2014-05-18T10:02:58Z</time>
      </trkpt>
      <trkpt lat="45.479810396209359" lon="5.914033418521285">
        <ele>1086.4000244140625</ele>
        <time>2014-05-18T10:03:00Z</time>
      </trkpt>
      <trkpt lat="45.479734791442752" lon="5.913920430466533">
        <ele>1085.800048828125</ele>
        <time>2014-05-18T10:03:02Z</time>
      </trkpt>
      <trkpt lat="45.479611493647099" lon="5.913720354437828">
        <ele>1085.199951171875</ele>
        <time>2014-05-18T10:03:05Z</time>
      </trkpt>
      <trkpt lat="45.479566482827067" lon="5.913647348061204">
        <ele>1084.5999755859375</ele>
        <time>2014-05-18T10:03:06Z</time>
      </trkpt>
      <trkpt lat="45.479366909712553" lon="5.913337636739016">
        <ele>1083.4000244140625</ele>
        <time>2014-05-18T10:03:10Z</time>
      </trkpt>
      <trkpt lat="45.479307733476162" lon="5.913257170468569">
        <ele>1083</ele>
        <time>2014-05-18T10:03:11Z</time>
      </trkpt>
      <trkpt lat="45.479195835068822" lon="5.913088191300631">
        <ele>1082.199951171875</ele>
        <time>2014-05-18T10:03:13Z</time>
      </trkpt>
      <trkpt lat="45.479081841185689" lon="5.912921391427517">
        <ele>1081</ele>
        <time>2014-05-18T10:03:15Z</time>
      </trkpt>
      <trkpt lat="45.479043116793036" lon="5.912863137200475">
        <ele>1081</ele>
        <time>2014-05-18T10:03:16Z</time>
      </trkpt>
      <trkpt lat="45.478983940556645" lon="5.912780491635203">
        <ele>1081.4000244140625</ele>
        <time>2014-05-18T10:03:19Z</time>
      </trkpt>
      <trkpt lat="45.478954184800386" lon="5.912751825526357">
        <ele>1081.5999755859375</ele>
        <time>2014-05-18T10:03:32Z</time>
      </trkpt>
      <trkpt lat="45.478932810947299" lon="5.91273095458746">
        <ele>1081.4000244140625</ele>
        <time>2014-05-18T10:03:33Z</time>
      </trkpt>
      <trkpt lat="45.47880582511425" lon="5.912570860236883">
        <ele>1080</ele>
        <time>2014-05-18T10:03:37Z</time>
      </trkpt>
      <trkpt lat="45.478764502331614" lon="5.912513695657253">
        <ele>1078.800048828125</ele>
        <time>2014-05-18T10:03:38Z</time>
      </trkpt>
      <trkpt lat="45.478675402700901" lon="5.912368269637227">
        <ele>1077.4000244140625</ele>
        <time>2014-05-18T10:03:40Z</time>
      </trkpt>
      <trkpt lat="45.478625781834126" lon="5.912285288795829">
        <ele>1076.4000244140625</ele>
        <time>2014-05-18T10:03:41Z</time>
      </trkpt>
      <trkpt lat="45.47857616096735" lon="5.912194177508354">
        <ele>1075.5999755859375</ele>
        <time>2014-05-18T10:03:42Z</time>
      </trkpt>
      <trkpt lat="45.478478344157338" lon="5.911990748718381">
        <ele>1073.800048828125</ele>
        <time>2014-05-18T10:03:44Z</time>
      </trkpt>
      <trkpt lat="45.478375414386392" lon="5.911763515323401">
        <ele>1072.199951171875</ele>
        <time>2014-05-18T10:03:46Z</time>
      </trkpt>
      <trkpt lat="45.478321015834808" lon="5.911639798432589">
        <ele>1071</ele>
        <time>2014-05-18T10:03:47Z</time>
      </trkpt>
      <trkpt lat="45.478263096883893" lon="5.911512561142445">
        <ele>1069.800048828125</ele>
        <time>2014-05-18T10:03:48Z</time>
      </trkpt>
      <trkpt lat="45.478202411904931" lon="5.911384569481015">
        <ele>1068.4000244140625</ele>
        <time>2014-05-18T10:03:49Z</time>
      </trkpt>
      <trkpt lat="45.478143654763699" lon="5.911246770992875">
        <ele>1067.4000244140625</ele>
        <time>2014-05-18T10:03:50Z</time>
      </trkpt>
      <trkpt lat="45.47808607108891" lon="5.911102266982198">
        <ele>1066.199951171875</ele>
        <time>2014-05-18T10:03:51Z</time>
      </trkpt>
      <trkpt lat="45.478031504899263" lon="5.91095088981092">
        <ele>1065</ele>
        <time>2014-05-18T10:03:52Z</time>
      </trkpt>
      <trkpt lat="45.477980459108949" lon="5.910793226212263">
        <ele>1063.5999755859375</ele>
        <time>2014-05-18T10:03:53Z</time>
      </trkpt>
      <trkpt lat="45.477930419147015" lon="5.910629695281386">
        <ele>1062.4000244140625</ele>
        <time>2014-05-18T10:03:54Z</time>
      </trkpt>
      <trkpt lat="45.477820783853531" lon="5.910302046686411">
        <ele>1060.800048828125</ele>
        <time>2014-05-18T10:03:56Z</time>
      </trkpt>
      <trkpt lat="45.477668484672904" lon="5.910011697560549">
        <ele>1059</ele>
        <time>2014-05-18T10:03:58Z</time>
      </trkpt>
      <trkpt lat="45.477563291788101" lon="5.909905582666397">
        <ele>1058.4000244140625</ele>
        <time>2014-05-18T10:03:59Z</time>
      </trkpt>
      <trkpt lat="45.477446867153049" lon="5.909829055890441">
        <ele>1057.5999755859375</ele>
        <time>2014-05-18T10:04:00Z</time>
      </trkpt>
      <trkpt lat="45.477233128622174" lon="5.909671140834689">
        <ele>1055.4000244140625</ele>
        <time>2014-05-18T10:04:02Z</time>
      </trkpt>
      <trkpt lat="45.47714008949697" lon="5.909578856080771">
        <ele>1054.4000244140625</ele>
        <time>2014-05-18T10:04:03Z</time>
      </trkpt>
      <trkpt lat="45.477062975987792" lon="5.9094581566751">
        <ele>1053.199951171875</ele>
        <time>2014-05-18T10:04:04Z</time>
      </trkpt>
      <trkpt lat="45.477005392313004" lon="5.909314574673772">
        <ele>1051.800048828125</ele>
        <time>2014-05-18T10:04:05Z</time>
      </trkpt>
      <trkpt lat="45.476943450048566" lon="5.909171579405665">
        <ele>1050</ele>
        <time>2014-05-18T10:04:06Z</time>
      </trkpt>
      <trkpt lat="45.476867007091641" lon="5.909032942727208">
        <ele>1048.5999755859375</ele>
        <time>2014-05-18T10:04:07Z</time>
      </trkpt>
      <trkpt lat="45.476781260222197" lon="5.908900173380971">
        <ele>1047</ele>
        <time>2014-05-18T10:04:08Z</time>
      </trkpt>
      <trkpt lat="45.476678917184472" lon="5.908776456490159">
        <ele>1045.800048828125</ele>
        <time>2014-05-18T10:04:09Z</time>
      </trkpt>
      <trkpt lat="45.476570874452591" lon="5.908654667437077">
        <ele>1043.5999755859375</ele>
        <time>2014-05-18T10:04:10Z</time>
      </trkpt>
      <trkpt lat="45.476460820063949" lon="5.908535979688168">
        <ele>1042.4000244140625</ele>
        <time>2014-05-18T10:04:11Z</time>
      </trkpt>
      <trkpt lat="45.476354118436575" lon="5.908415280282497">
        <ele>1041.199951171875</ele>
        <time>2014-05-18T10:04:12Z</time>
      </trkpt>
      <trkpt lat="45.476149516180158" lon="5.908141359686852">
        <ele>1039.4000244140625</ele>
        <time>2014-05-18T10:04:14Z</time>
      </trkpt>
      <trkpt lat="45.476051699370146" lon="5.908000292256475">
        <ele>1038.4000244140625</ele>
        <time>2014-05-18T10:04:15Z</time>
      </trkpt>
      <trkpt lat="45.475948266685009" lon="5.907867271453142">
        <ele>1037</ele>
        <time>2014-05-18T10:04:16Z</time>
      </trkpt>
      <trkpt lat="45.47584131360054" lon="5.907744728028774">
        <ele>1035.800048828125</ele>
        <time>2014-05-18T10:04:17Z</time>
      </trkpt>
      <trkpt lat="45.475650876760483" lon="5.907516488805413">
        <ele>1034.5999755859375</ele>
        <time>2014-05-18T10:04:19Z</time>
      </trkpt>
      <trkpt lat="45.475575188174844" lon="5.907368045300245">
        <ele>1033.800048828125</ele>
        <time>2014-05-18T10:04:20Z</time>
      </trkpt>
      <trkpt lat="45.47550218179822" lon="5.907214069738984">
        <ele>1032.5999755859375</ele>
        <time>2014-05-18T10:04:21Z</time>
      </trkpt>
      <trkpt lat="45.475452896207571" lon="5.907043581828475">
        <ele>1031.5999755859375</ele>
        <time>2014-05-18T10:04:22Z</time>
      </trkpt>
      <trkpt lat="45.475407717749476" lon="5.906871082261205">
        <ele>1030.199951171875</ele>
        <time>2014-05-18T10:04:23Z</time>
      </trkpt>
      <trkpt lat="45.475354744121432" lon="5.906718447804451">
        <ele>1028.5999755859375</ele>
        <time>2014-05-18T10:04:24Z</time>
      </trkpt>
      <trkpt lat="45.47529305331409" lon="5.906580984592438">
        <ele>1027.199951171875</ele>
        <time>2014-05-18T10:04:25Z</time>
      </trkpt>
      <trkpt lat="45.475227339193225" lon="5.906460788100958">
        <ele>1025.800048828125</ele>
        <time>2014-05-18T10:04:26Z</time>
      </trkpt>
      <trkpt lat="45.475156344473362" lon="5.906361378729343">
        <ele>1025.4000244140625</ele>
        <time>2014-05-18T10:04:27Z</time>
      </trkpt>
      <trkpt lat="45.474910167977214" lon="5.90616968460381">
        <ele>1024.4000244140625</ele>
        <time>2014-05-18T10:04:30Z</time>
      </trkpt>
      <trkpt lat="45.474781421944499" lon="5.906222993507981">
        <ele>1024</ele>
        <time>2014-05-18T10:04:32Z</time>
      </trkpt>
      <trkpt lat="45.474679749459028" lon="5.9063929785043">
        <ele>1023.5999755859375</ele>
        <time>2014-05-18T10:04:34Z</time>
      </trkpt>
      <trkpt lat="45.474621327593923" lon="5.906473947688937">
        <ele>1023.2000122070312</ele>
        <time>2014-05-18T10:04:35Z</time>
      </trkpt>
      <trkpt lat="45.47455326654017" lon="5.906546367332339">
        <ele>1022.7999877929687</ele>
        <time>2014-05-18T10:04:36Z</time>
      </trkpt>
      <trkpt lat="45.47439543530345" lon="5.906658098101616">
        <ele>1022.4000244140625</ele>
        <time>2014-05-18T10:04:38Z</time>
      </trkpt>
      <trkpt lat="45.474306587129831" lon="5.906694559380412">
        <ele>1022</ele>
        <time>2014-05-18T10:04:39Z</time>
      </trkpt>
      <trkpt lat="45.4742132127285" lon="5.906725991517305">
        <ele>1021.4000244140625</ele>
        <time>2014-05-18T10:04:40Z</time>
      </trkpt>
      <trkpt lat="45.474116066470742" lon="5.906753903254867">
        <ele>1020.5999755859375</ele>
        <time>2014-05-18T10:04:41Z</time>
      </trkpt>
      <trkpt lat="45.474016573280096" lon="5.906781647354364">
        <ele>1020.4000244140625</ele>
        <time>2014-05-18T10:04:42Z</time>
      </trkpt>
      <trkpt lat="45.473915571346879" lon="5.906790615990758">
        <ele>1020.2000122070312</ele>
        <time>2014-05-18T10:04:43Z</time>
      </trkpt>
      <trkpt lat="45.473715914413333" lon="5.906732780858874">
        <ele>1019.7999877929687</ele>
        <time>2014-05-18T10:04:45Z</time>
      </trkpt>
      <trkpt lat="45.473628491163254" lon="5.906678717583418">
        <ele>1019.4000244140625</ele>
        <time>2014-05-18T10:04:46Z</time>
      </trkpt>
      <trkpt lat="45.473459511995316" lon="5.906553911045194">
        <ele>1018.7999877929687</ele>
        <time>2014-05-18T10:04:48Z</time>
      </trkpt>
      <trkpt lat="45.47337762080133" lon="5.906495321542025">
        <ele>1018.5999755859375</ele>
        <time>2014-05-18T10:04:49Z</time>
      </trkpt>
      <trkpt lat="45.473067909479141" lon="5.906267585232854">
        <ele>1018.2000122070312</ele>
        <time>2014-05-18T10:04:53Z</time>
      </trkpt>
      <trkpt lat="45.472930446267128" lon="5.906136492267251">
        <ele>1017.7999877929687</ele>
        <time>2014-05-18T10:04:55Z</time>
      </trkpt>
      <trkpt lat="45.472450414672494" lon="5.905687557533383">
        <ele>1018.2000122070312</ele>
        <time>2014-05-18T10:05:02Z</time>
      </trkpt>
      <trkpt lat="45.472100302577019" lon="5.905553111806512">
        <ele>1017.4000244140625</ele>
        <time>2014-05-18T10:05:06Z</time>
      </trkpt>
      <trkpt lat="45.472013298422098" lon="5.905505334958434">
        <ele>1017</ele>
        <time>2014-05-18T10:05:07Z</time>
      </trkpt>
      <trkpt lat="45.471774246543646" lon="5.905277514830232">
        <ele>1016</ele>
        <time>2014-05-18T10:05:10Z</time>
      </trkpt>
      <trkpt lat="45.471699396148324" lon="5.90518263168633">
        <ele>1015.4000244140625</ele>
        <time>2014-05-18T10:05:11Z</time>
      </trkpt>
      <trkpt lat="45.471538715064526" lon="5.90499110519886">
        <ele>1014</ele>
        <time>2014-05-18T10:05:13Z</time>
      </trkpt>
      <trkpt lat="45.471361521631479" lon="5.904817013069987">
        <ele>1012.7999877929687</ele>
        <time>2014-05-18T10:05:15Z</time>
      </trkpt>
      <trkpt lat="45.471178879961371" lon="5.904638059437275">
        <ele>1011.5999755859375</ele>
        <time>2014-05-18T10:05:17Z</time>
      </trkpt>
      <trkpt lat="45.471091708168387" lon="5.904539320617914">
        <ele>1010.5999755859375</ele>
        <time>2014-05-18T10:05:18Z</time>
      </trkpt>
      <trkpt lat="45.470919124782085" lon="5.904344022274017">
        <ele>1009.4000244140625</ele>
        <time>2014-05-18T10:05:20Z</time>
      </trkpt>
      <trkpt lat="45.470839831978083" lon="5.904229860752821">
        <ele>1009</ele>
        <time>2014-05-18T10:05:21Z</time>
      </trkpt>
      <trkpt lat="45.470767579972744" lon="5.904105305671692">
        <ele>1008.2000122070312</ele>
        <time>2014-05-18T10:05:22Z</time>
      </trkpt>
      <trkpt lat="45.470705637708306" lon="5.903968261554837">
        <ele>1007</ele>
        <time>2014-05-18T10:05:23Z</time>
      </trkpt>
      <trkpt lat="45.470660123974085" lon="5.903816632926464">
        <ele>1005.7999877929687</ele>
        <time>2014-05-18T10:05:24Z</time>
      </trkpt>
      <trkpt lat="45.470614777877927" lon="5.903506502509117">
        <ele>1004.7999877929687</ele>
        <time>2014-05-18T10:05:26Z</time>
      </trkpt>
      <trkpt lat="45.470580831170082" lon="5.903354119509459">
        <ele>1004.5999755859375</ele>
        <time>2014-05-18T10:05:27Z</time>
      </trkpt>
      <trkpt lat="45.470392322167754" lon="5.902973581105471">
        <ele>1003.2000122070312</ele>
        <time>2014-05-18T10:05:30Z</time>
      </trkpt>
      <trkpt lat="45.470210602506995" lon="5.902882469817996">
        <ele>1002</ele>
        <time>2014-05-18T10:05:32Z</time>
      </trkpt>
      <trkpt lat="45.470003066584468" lon="5.902847768738866">
        <ele>1000.2000122070312</ele>
        <time>2014-05-18T10:05:34Z</time>
      </trkpt>
      <trkpt lat="45.469894018024206" lon="5.902812397107482">
        <ele>999.20001220703125</ele>
        <time>2014-05-18T10:05:35Z</time>
      </trkpt>
      <trkpt lat="45.469786310568452" lon="5.902776690199971">
        <ele>998.20001220703125</ele>
        <time>2014-05-18T10:05:36Z</time>
      </trkpt>
      <trkpt lat="45.469676759094" lon="5.902736959978938">
        <ele>997.4000244140625</ele>
        <time>2014-05-18T10:05:37Z</time>
      </trkpt>
      <trkpt lat="45.46956586651504" lon="5.902690440416336">
        <ele>995.79998779296875</ele>
        <time>2014-05-18T10:05:38Z</time>
      </trkpt>
      <trkpt lat="45.469453884288669" lon="5.902635790407658">
        <ele>994.20001220703125</ele>
        <time>2014-05-18T10:05:39Z</time>
      </trkpt>
      <trkpt lat="45.469343410804868" lon="5.902566974982619">
        <ele>993</ele>
        <time>2014-05-18T10:05:40Z</time>
      </trkpt>
      <trkpt lat="45.469237379729748" lon="5.9024712536484">
        <ele>991.5999755859375</ele>
        <time>2014-05-18T10:05:41Z</time>
      </trkpt>
      <trkpt lat="45.469051552936435" lon="5.902222143486142">
        <ele>989.5999755859375</ele>
        <time>2014-05-18T10:05:43Z</time>
      </trkpt>
      <trkpt lat="45.468953568488359" lon="5.902099180966616">
        <ele>988.79998779296875</ele>
        <time>2014-05-18T10:05:44Z</time>
      </trkpt>
      <trkpt lat="45.468844855204225" lon="5.901993317529559">
        <ele>987.79998779296875</ele>
        <time>2014-05-18T10:05:45Z</time>
      </trkpt>
      <trkpt lat="45.468609742820263" lon="5.901813441887498">
        <ele>986.20001220703125</ele>
        <time>2014-05-18T10:05:47Z</time>
      </trkpt>
      <trkpt lat="45.468491306528449" lon="5.901745548471808">
        <ele>985.4000244140625</ele>
        <time>2014-05-18T10:05:48Z</time>
      </trkpt>
      <trkpt lat="45.468374965712428" lon="5.901658544316888">
        <ele>984.5999755859375</ele>
        <time>2014-05-18T10:05:49Z</time>
      </trkpt>
      <trkpt lat="45.468272119760513" lon="5.901532480493188">
        <ele>983.4000244140625</ele>
        <time>2014-05-18T10:05:50Z</time>
      </trkpt>
      <trkpt lat="45.468174051493406" lon="5.901398370042443">
        <ele>982</ele>
        <time>2014-05-18T10:05:51Z</time>
      </trkpt>
      <trkpt lat="45.468067349866033" lon="5.901274150237441">
        <ele>980.79998779296875</ele>
        <time>2014-05-18T10:05:52Z</time>
      </trkpt>
      <trkpt lat="45.46794899739325" lon="5.901164095848799">
        <ele>979.5999755859375</ele>
        <time>2014-05-18T10:05:53Z</time>
      </trkpt>
      <trkpt lat="45.467833913862705" lon="5.901045240461826">
        <ele>978.5999755859375</ele>
        <time>2014-05-18T10:05:54Z</time>
      </trkpt>
      <trkpt lat="45.467729307711124" lon="5.900903334841132">
        <ele>977.4000244140625</ele>
        <time>2014-05-18T10:05:55Z</time>
      </trkpt>
      <trkpt lat="45.467641968280077" lon="5.900743408128619">
        <ele>976.4000244140625</ele>
        <time>2014-05-18T10:05:56Z</time>
      </trkpt>
      <trkpt lat="45.467554712668061" lon="5.900591025128961">
        <ele>975.20001220703125</ele>
        <time>2014-05-18T10:05:57Z</time>
      </trkpt>
      <trkpt lat="45.467455554753542" lon="5.900464961305261">
        <ele>974.4000244140625</ele>
        <time>2014-05-18T10:05:58Z</time>
      </trkpt>
      <trkpt lat="45.467342231422663" lon="5.900364881381393">
        <ele>973.79998779296875</ele>
        <time>2014-05-18T10:05:59Z</time>
      </trkpt>
      <trkpt lat="45.467081554234028" lon="5.900237895548344">
        <ele>972.20001220703125</ele>
        <time>2014-05-18T10:06:01Z</time>
      </trkpt>
      <trkpt lat="45.466948030516505" lon="5.900179892778397">
        <ele>970</ele>
        <time>2014-05-18T10:06:02Z</time>
      </trkpt>
      <trkpt lat="45.466814925894141" lon="5.900108143687248">
        <ele>968.4000244140625</ele>
        <time>2014-05-18T10:06:03Z</time>
      </trkpt>
      <trkpt lat="45.466573778539896" lon="5.899943523108959">
        <ele>966.4000244140625</ele>
        <time>2014-05-18T10:06:05Z</time>
      </trkpt>
      <trkpt lat="45.466464646160603" lon="5.899870432913303">
        <ele>966.20001220703125</ele>
        <time>2014-05-18T10:06:06Z</time>
      </trkpt>
      <trkpt lat="45.466362722218037" lon="5.899832127615809">
        <ele>965.79998779296875</ele>
        <time>2014-05-18T10:06:07Z</time>
      </trkpt>
      <trkpt lat="45.466261636465788" lon="5.899830451235175">
        <ele>965.20001220703125</ele>
        <time>2014-05-18T10:06:08Z</time>
      </trkpt>
      <trkpt lat="45.466058710590005" lon="5.899925921112299">
        <ele>963.4000244140625</ele>
        <time>2014-05-18T10:06:10Z</time>
      </trkpt>
      <trkpt lat="45.465882103890181" lon="5.900108478963375">
        <ele>961.79998779296875</ele>
        <time>2014-05-18T10:06:12Z</time>
      </trkpt>
      <trkpt lat="45.465789902955294" lon="5.900161620229483">
        <ele>961.20001220703125</ele>
        <time>2014-05-18T10:06:13Z</time>
      </trkpt>
      <trkpt lat="45.465687308460474" lon="5.900177797302604">
        <ele>960.4000244140625</ele>
        <time>2014-05-18T10:06:14Z</time>
      </trkpt>
      <trkpt lat="45.465581864118576" lon="5.900144940242171">
        <ele>959.5999755859375</ele>
        <time>2014-05-18T10:06:15Z</time>
      </trkpt>
      <trkpt lat="45.465486394241452" lon="5.900061205029488">
        <ele>958.5999755859375</ele>
        <time>2014-05-18T10:06:16Z</time>
      </trkpt>
      <trkpt lat="45.465400815010071" lon="5.899956347420812">
        <ele>957.20001220703125</ele>
        <time>2014-05-18T10:06:17Z</time>
      </trkpt>
      <trkpt lat="45.465308194980025" lon="5.899851238355041">
        <ele>956.20001220703125</ele>
        <time>2014-05-18T10:06:18Z</time>
      </trkpt>
      <trkpt lat="45.465203085914254" lon="5.899773370474577">
        <ele>955</ele>
        <time>2014-05-18T10:06:19Z</time>
      </trkpt>
      <trkpt lat="45.465111555531621" lon="5.899704303592444">
        <ele>954</ele>
        <time>2014-05-18T10:06:20Z</time>
      </trkpt>
      <trkpt lat="45.465018516406417" lon="5.899651749059558">
        <ele>952.79998779296875</ele>
        <time>2014-05-18T10:06:21Z</time>
      </trkpt>
      <trkpt lat="45.464881891384721" lon="5.899648061022162">
        <ele>951.79998779296875</ele>
        <time>2014-05-18T10:06:22Z</time>
      </trkpt>
      <trkpt lat="45.464747529476881" lon="5.899633560329676">
        <ele>950.5999755859375</ele>
        <time>2014-05-18T10:06:23Z</time>
      </trkpt>
      <trkpt lat="45.464614424854517" lon="5.899605061858892">
        <ele>949.5999755859375</ele>
        <time>2014-05-18T10:06:24Z</time>
      </trkpt>
      <trkpt lat="45.464342180639505" lon="5.899552255868912">
        <ele>946.79998779296875</ele>
        <time>2014-05-18T10:06:26Z</time>
      </trkpt>
      <trkpt lat="45.464208405464888" lon="5.899499617516995">
        <ele>945.4000244140625</ele>
        <time>2014-05-18T10:06:27Z</time>
      </trkpt>
      <trkpt lat="45.463975723832846" lon="5.899408422410488">
        <ele>944</ele>
        <time>2014-05-18T10:06:29Z</time>
      </trkpt>
      <trkpt lat="45.463872123509645" lon="5.899356370791793">
        <ele>943.5999755859375</ele>
        <time>2014-05-18T10:06:30Z</time>
      </trkpt>
      <trkpt lat="45.46376877464354" lon="5.899287471547723">
        <ele>942.4000244140625</ele>
        <time>2014-05-18T10:06:31Z</time>
      </trkpt>
      <trkpt lat="45.46360700391233" lon="5.899067865684629">
        <ele>940.4000244140625</ele>
        <time>2014-05-18T10:06:33Z</time>
      </trkpt>
      <trkpt lat="45.463483957573771" lon="5.898810876533389">
        <ele>939.79998779296875</ele>
        <time>2014-05-18T10:06:35Z</time>
      </trkpt>
      <trkpt lat="45.463364096358418" lon="5.898548439145088">
        <ele>938.5999755859375</ele>
        <time>2014-05-18T10:06:37Z</time>
      </trkpt>
      <trkpt lat="45.463317157700658" lon="5.898401588201523">
        <ele>938.4000244140625</ele>
        <time>2014-05-18T10:06:38Z</time>
      </trkpt>
      <trkpt lat="45.463273823261261" lon="5.898254401981831">
        <ele>937.5999755859375</ele>
        <time>2014-05-18T10:06:39Z</time>
      </trkpt>
      <trkpt lat="45.463178521022201" lon="5.8979831635952">
        <ele>937.20001220703125</ele>
        <time>2014-05-18T10:06:41Z</time>
      </trkpt>
      <trkpt lat="45.463121607899666" lon="5.897877383977175">
        <ele>937</ele>
        <time>2014-05-18T10:06:42Z</time>
      </trkpt>
      <trkpt lat="45.463030580431223" lon="5.897706644609571">
        <ele>936.79998779296875</ele>
        <time>2014-05-18T10:06:44Z</time>
      </trkpt>
      <trkpt lat="45.46301138587296" lon="5.897627854719758">
        <ele>937</ele>
        <time>2014-05-18T10:06:45Z</time>
      </trkpt>
      <trkpt lat="45.463060420006514" lon="5.897515369579196">
        <ele>937.20001220703125</ele>
        <time>2014-05-18T10:06:47Z</time>
      </trkpt>
      <trkpt lat="45.463159326463938" lon="5.897551160305738">
        <ele>936.5999755859375</ele>
        <time>2014-05-18T10:06:49Z</time>
      </trkpt>
      <trkpt lat="45.463219005614519" lon="5.897628776729107">
        <ele>935.20001220703125</ele>
        <time>2014-05-18T10:06:50Z</time>
      </trkpt>
      <trkpt lat="45.463283210992813" lon="5.897703627124429">
        <ele>934.4000244140625</ele>
        <time>2014-05-18T10:06:51Z</time>
      </trkpt>
      <trkpt lat="45.463347164914012" lon="5.897771688178182">
        <ele>933.5999755859375</ele>
        <time>2014-05-18T10:06:52Z</time>
      </trkpt>
      <trkpt lat="45.463470881804824" lon="5.897918539121747">
        <ele>932.20001220703125</ele>
        <time>2014-05-18T10:06:54Z</time>
      </trkpt>
      <trkpt lat="45.463619660586119" lon="5.898066563531756">
        <ele>930.79998779296875</ele>
        <time>2014-05-18T10:06:56Z</time>
      </trkpt>
      <trkpt lat="45.463703898712993" lon="5.898125236853957">
        <ele>930</ele>
        <time>2014-05-18T10:06:57Z</time>
      </trkpt>
      <trkpt lat="45.463795429095626" lon="5.89816739782691">
        <ele>929.20001220703125</ele>
        <time>2014-05-18T10:06:58Z</time>
      </trkpt>
      <trkpt lat="45.463967258110642" lon="5.898263454437256">
        <ele>928</ele>
        <time>2014-05-18T10:07:00Z</time>
      </trkpt>
      <trkpt lat="45.464041773229837" lon="5.898307291790843">
        <ele>927.79998779296875</ele>
        <time>2014-05-18T10:07:01Z</time>
      </trkpt>
      <trkpt lat="45.464114863425493" lon="5.898312907665968">
        <ele>927.79998779296875</ele>
        <time>2014-05-18T10:07:02Z</time>
      </trkpt>
      <trkpt lat="45.464170519262552" lon="5.898278709501028">
        <ele>927.79998779296875</ele>
        <time>2014-05-18T10:07:03Z</time>
      </trkpt>
      <trkpt lat="45.464213518425822" lon="5.898211570456624">
        <ele>927.5999755859375</ele>
        <time>2014-05-18T10:07:04Z</time>
      </trkpt>
      <trkpt lat="45.464227180927992" lon="5.898125991225243">
        <ele>927.20001220703125</ele>
        <time>2014-05-18T10:07:05Z</time>
      </trkpt>
      <trkpt lat="45.464190971106291" lon="5.898029850795865">
        <ele>926.79998779296875</ele>
        <time>2014-05-18T10:07:06Z</time>
      </trkpt>
      <trkpt lat="45.464124167338014" lon="5.897947791963816">
        <ele>926.20001220703125</ele>
        <time>2014-05-18T10:07:07Z</time>
      </trkpt>
      <trkpt lat="45.464056860655546" lon="5.897869924083352">
        <ele>925.5999755859375</ele>
        <time>2014-05-18T10:07:08Z</time>
      </trkpt>
      <trkpt lat="45.463985865935683" lon="5.89779113419354">
        <ele>924.79998779296875</ele>
        <time>2014-05-18T10:07:09Z</time>
      </trkpt>
      <trkpt lat="45.463919397443533" lon="5.897697592154145">
        <ele>924</ele>
        <time>2014-05-18T10:07:10Z</time>
      </trkpt>
      <trkpt lat="45.463854856789112" lon="5.897602373734117">
        <ele>922.79998779296875</ele>
        <time>2014-05-18T10:07:11Z</time>
      </trkpt>
      <trkpt lat="45.463782856240869" lon="5.897508328780532">
        <ele>921.4000244140625</ele>
        <time>2014-05-18T10:07:12Z</time>
      </trkpt>
      <trkpt lat="45.463612703606486" lon="5.897347899153829">
        <ele>919.20001220703125</ele>
        <time>2014-05-18T10:07:14Z</time>
      </trkpt>
      <trkpt lat="45.463514300063252" lon="5.897279670462012">
        <ele>918.20001220703125</ele>
        <time>2014-05-18T10:07:15Z</time>
      </trkpt>
      <trkpt lat="45.463417824357748" lon="5.897206412628293">
        <ele>916.79998779296875</ele>
        <time>2014-05-18T10:07:16Z</time>
      </trkpt>
      <trkpt lat="45.463226297870278" lon="5.897024190053344">
        <ele>914.79998779296875</ele>
        <time>2014-05-18T10:07:18Z</time>
      </trkpt>
      <trkpt lat="45.463047344237566" lon="5.896792095154524">
        <ele>913</ele>
        <time>2014-05-18T10:07:20Z</time>
      </trkpt>
      <trkpt lat="45.462881717830896" lon="5.896534351631999">
        <ele>911.20001220703125</ele>
        <time>2014-05-18T10:07:22Z</time>
      </trkpt>
      <trkpt lat="45.462802927941084" lon="5.896413400769234">
        <ele>910.20001220703125</ele>
        <time>2014-05-18T10:07:23Z</time>
      </trkpt>
      <trkpt lat="45.462725562974811" lon="5.896322121843696">
        <ele>909.5999755859375</ele>
        <time>2014-05-18T10:07:24Z</time>
      </trkpt>
      <trkpt lat="45.4626380559057" lon="5.896249953657389">
        <ele>909.20001220703125</ele>
        <time>2014-05-18T10:07:25Z</time>
      </trkpt>
      <trkpt lat="45.462536131963134" lon="5.896211564540863">
        <ele>909</ele>
        <time>2014-05-18T10:07:26Z</time>
      </trkpt>
      <trkpt lat="45.462426580488682" lon="5.896218186244369">
        <ele>907.79998779296875</ele>
        <time>2014-05-18T10:07:27Z</time>
      </trkpt>
      <trkpt lat="45.462319208309054" lon="5.896242158487439">
        <ele>906.5999755859375</ele>
        <time>2014-05-18T10:07:28Z</time>
      </trkpt>
      <trkpt lat="45.462209405377507" lon="5.896264789626002">
        <ele>905.4000244140625</ele>
        <time>2014-05-18T10:07:29Z</time>
      </trkpt>
      <trkpt lat="45.461980076506734" lon="5.896285073831677">
        <ele>903.4000244140625</ele>
        <time>2014-05-18T10:07:31Z</time>
      </trkpt>
      <trkpt lat="45.461864909157157" lon="5.896275686100125">
        <ele>902.20001220703125</ele>
        <time>2014-05-18T10:07:32Z</time>
      </trkpt>
      <trkpt lat="45.461631556972861" lon="5.896258251741529">
        <ele>900.5999755859375</ele>
        <time>2014-05-18T10:07:34Z</time>
      </trkpt>
      <trkpt lat="45.461388733237982" lon="5.8962148334831">
        <ele>898.4000244140625</ele>
        <time>2014-05-18T10:07:36Z</time>
      </trkpt>
      <trkpt lat="45.461158314719796" lon="5.896079046651721">
        <ele>895.79998779296875</ele>
        <time>2014-05-18T10:07:38Z</time>
      </trkpt>
      <trkpt lat="45.461054630577564" lon="5.895971339195967">
        <ele>895.20001220703125</ele>
        <time>2014-05-18T10:07:39Z</time>
      </trkpt>
      <trkpt lat="45.460954466834664" lon="5.89585717767477">
        <ele>894.5999755859375</ele>
        <time>2014-05-18T10:07:40Z</time>
      </trkpt>
      <trkpt lat="45.460858326405287" lon="5.895730191841722">
        <ele>893.5999755859375</ele>
        <time>2014-05-18T10:07:41Z</time>
      </trkpt>
      <trkpt lat="45.460764532908797" lon="5.895597171038389">
        <ele>892.20001220703125</ele>
        <time>2014-05-18T10:07:42Z</time>
      </trkpt>
      <trkpt lat="45.460670655593276" lon="5.89546381495893">
        <ele>890.79998779296875</ele>
        <time>2014-05-18T10:07:43Z</time>
      </trkpt>
      <trkpt lat="45.460490277037024" lon="5.895182183012366">
        <ele>888.79998779296875</ele>
        <time>2014-05-18T10:07:45Z</time>
      </trkpt>
      <trkpt lat="45.460320040583611" lon="5.894906669855118">
        <ele>887</ele>
        <time>2014-05-18T10:07:47Z</time>
      </trkpt>
      <trkpt lat="45.460239658132195" lon="5.894785383716226">
        <ele>886.5999755859375</ele>
        <time>2014-05-18T10:07:48Z</time>
      </trkpt>
      <trkpt lat="45.460082748904824" lon="5.894565861672163">
        <ele>885.79998779296875</ele>
        <time>2014-05-18T10:07:50Z</time>
      </trkpt>
      <trkpt lat="45.459996834397316" lon="5.894479947164655">
        <ele>885.20001220703125</ele>
        <time>2014-05-18T10:07:51Z</time>
      </trkpt>
      <trkpt lat="45.45990371145308" lon="5.894419932737947">
        <ele>884.79998779296875</ele>
        <time>2014-05-18T10:07:52Z</time>
      </trkpt>
      <trkpt lat="45.459803715348244" lon="5.894388165324926">
        <ele>884.4000244140625</ele>
        <time>2014-05-18T10:07:53Z</time>
      </trkpt>
      <trkpt lat="45.459609422832727" lon="5.89437173679471">
        <ele>882.79998779296875</ele>
        <time>2014-05-18T10:07:55Z</time>
      </trkpt>
      <trkpt lat="45.459526861086488" lon="5.894334940239787">
        <ele>882</ele>
        <time>2014-05-18T10:07:56Z</time>
      </trkpt>
      <trkpt lat="45.459378333762288" lon="5.894216168671846">
        <ele>881.79998779296875</ele>
        <time>2014-05-18T10:07:58Z</time>
      </trkpt>
      <trkpt lat="45.459320582449436" lon="5.894145760685206">
        <ele>881.5999755859375</ele>
        <time>2014-05-18T10:07:59Z</time>
      </trkpt>
      <trkpt lat="45.459264004603028" lon="5.89406093582511">
        <ele>880.5999755859375</ele>
        <time>2014-05-18T10:08:00Z</time>
      </trkpt>
      <trkpt lat="45.459204409271479" lon="5.893969153985381">
        <ele>880.20001220703125</ele>
        <time>2014-05-18T10:08:01Z</time>
      </trkpt>
      <trkpt lat="45.459144897758961" lon="5.893869157880545">
        <ele>878.79998779296875</ele>
        <time>2014-05-18T10:08:02Z</time>
      </trkpt>
      <trkpt lat="45.459029730409384" lon="5.893660448491573">
        <ele>877.5999755859375</ele>
        <time>2014-05-18T10:08:04Z</time>
      </trkpt>
      <trkpt lat="45.458898553624749" lon="5.893458193168044">
        <ele>876.20001220703125</ele>
        <time>2014-05-18T10:08:06Z</time>
      </trkpt>
      <trkpt lat="45.458755642175674" lon="5.893265409395099">
        <ele>874.79998779296875</ele>
        <time>2014-05-18T10:08:08Z</time>
      </trkpt>
      <trkpt lat="45.458604097366333" lon="5.893070362508297">
        <ele>873.5999755859375</ele>
        <time>2014-05-18T10:08:10Z</time>
      </trkpt>
      <trkpt lat="45.458446182310581" lon="5.892875986173749">
        <ele>872.79998779296875</ele>
        <time>2014-05-18T10:08:12Z</time>
      </trkpt>
      <trkpt lat="45.458365129306912" lon="5.89277682825923">
        <ele>872</ele>
        <time>2014-05-18T10:08:13Z</time>
      </trkpt>
      <trkpt lat="45.458203358575702" lon="5.892572477459908">
        <ele>870.4000244140625</ele>
        <time>2014-05-18T10:08:15Z</time>
      </trkpt>
      <trkpt lat="45.458045778796077" lon="5.892353123053908">
        <ele>869.20001220703125</ele>
        <time>2014-05-18T10:08:17Z</time>
      </trkpt>
      <trkpt lat="45.457965983077884" lon="5.89224373921752">
        <ele>868.20001220703125</ele>
        <time>2014-05-18T10:08:18Z</time>
      </trkpt>
      <trkpt lat="45.457885097712278" lon="5.892132259905338">
        <ele>867.20001220703125</ele>
        <time>2014-05-18T10:08:19Z</time>
      </trkpt>
      <trkpt lat="45.457803122699261" lon="5.892022037878633">
        <ele>866.79998779296875</ele>
        <time>2014-05-18T10:08:20Z</time>
      </trkpt>
      <trkpt lat="45.457636825740337" lon="5.891798324882984">
        <ele>865.5999755859375</ele>
        <time>2014-05-18T10:08:22Z</time>
      </trkpt>
      <trkpt lat="45.457470864057541" lon="5.891574444249272">
        <ele>863.79998779296875</ele>
        <time>2014-05-18T10:08:24Z</time>
      </trkpt>
      <trkpt lat="45.457307081669569" lon="5.891360118985176">
        <ele>862.20001220703125</ele>
        <time>2014-05-18T10:08:26Z</time>
      </trkpt>
      <trkpt lat="45.457216138020158" lon="5.891258530318737">
        <ele>861.5999755859375</ele>
        <time>2014-05-18T10:08:27Z</time>
      </trkpt>
      <trkpt lat="45.457022348418832" lon="5.891061471775174">
        <ele>860</ele>
        <time>2014-05-18T10:08:29Z</time>
      </trkpt>
      <trkpt lat="45.456924112513661" lon="5.890952087938786">
        <ele>858.79998779296875</ele>
        <time>2014-05-18T10:08:30Z</time>
      </trkpt>
      <trkpt lat="45.456829648464918" lon="5.890832394361496">
        <ele>857.4000244140625</ele>
        <time>2014-05-18T10:08:31Z</time>
      </trkpt>
      <trkpt lat="45.456738453358412" lon="5.890709180384874">
        <ele>856</ele>
        <time>2014-05-18T10:08:32Z</time>
      </trkpt>
      <trkpt lat="45.456649772822857" lon="5.890574064105749">
        <ele>855</ele>
        <time>2014-05-18T10:08:33Z</time>
      </trkpt>
      <trkpt lat="45.456573329865932" lon="5.890421262010932">
        <ele>854.20001220703125</ele>
        <time>2014-05-18T10:08:34Z</time>
      </trkpt>
      <trkpt lat="45.456501580774784" lon="5.890259072184563">
        <ele>853.20001220703125</ele>
        <time>2014-05-18T10:08:35Z</time>
      </trkpt>
      <trkpt lat="45.456437207758427" lon="5.890091685578227">
        <ele>852.20001220703125</ele>
        <time>2014-05-18T10:08:36Z</time>
      </trkpt>
      <trkpt lat="45.456374175846577" lon="5.889925472438335">
        <ele>850.79998779296875</ele>
        <time>2014-05-18T10:08:37Z</time>
      </trkpt>
      <trkpt lat="45.456311563029885" lon="5.889774514362216">
        <ele>849.5999755859375</ele>
        <time>2014-05-18T10:08:38Z</time>
      </trkpt>
      <trkpt lat="45.456254230812192" lon="5.889628250151873">
        <ele>848.5999755859375</ele>
        <time>2014-05-18T10:08:39Z</time>
      </trkpt>
      <trkpt lat="45.456200838088989" lon="5.889470921829343">
        <ele>848</ele>
        <time>2014-05-18T10:08:40Z</time>
      </trkpt>
      <trkpt lat="45.456153312698007" lon="5.889306049793959">
        <ele>847.4000244140625</ele>
        <time>2014-05-18T10:08:41Z</time>
      </trkpt>
      <trkpt lat="45.45607334934175" lon="5.888973288238049">
        <ele>845.5999755859375</ele>
        <time>2014-05-18T10:08:43Z</time>
      </trkpt>
      <trkpt lat="45.456044767051935" lon="5.888797687366605">
        <ele>844.4000244140625</ele>
        <time>2014-05-18T10:08:44Z</time>
      </trkpt>
      <trkpt lat="45.456026159226894" lon="5.888617057353258">
        <ele>843.20001220703125</ele>
        <time>2014-05-18T10:08:45Z</time>
      </trkpt>
      <trkpt lat="45.456006629392505" lon="5.888254623860121">
        <ele>841.5999755859375</ele>
        <time>2014-05-18T10:08:47Z</time>
      </trkpt>
      <trkpt lat="45.455997325479984" lon="5.888076424598694">
        <ele>841</ele>
        <time>2014-05-18T10:08:48Z</time>
      </trkpt>
      <trkpt lat="45.45597855001688" lon="5.887898979708552">
        <ele>840</ele>
        <time>2014-05-18T10:08:49Z</time>
      </trkpt>
      <trkpt lat="45.455953823402524" lon="5.887724803760648">
        <ele>838.4000244140625</ele>
        <time>2014-05-18T10:08:50Z</time>
      </trkpt>
      <trkpt lat="45.455915601924062" lon="5.88755683042109">
        <ele>837.79998779296875</ele>
        <time>2014-05-18T10:08:51Z</time>
      </trkpt>
      <trkpt lat="45.455860449001193" lon="5.887394389137626">
        <ele>836.79998779296875</ele>
        <time>2014-05-18T10:08:52Z</time>
      </trkpt>
      <trkpt lat="45.455789621919394" lon="5.887243850156665">
        <ele>835.5999755859375</ele>
        <time>2014-05-18T10:08:53Z</time>
      </trkpt>
      <trkpt lat="45.455652410164475" lon="5.88694310747087">
        <ele>834.20001220703125</ele>
        <time>2014-05-18T10:08:55Z</time>
      </trkpt>
      <trkpt lat="45.455574542284012" lon="5.886599533259869">
        <ele>833</ele>
        <time>2014-05-18T10:08:57Z</time>
      </trkpt>
      <trkpt lat="45.455571776255965" lon="5.886419657617807">
        <ele>832.5999755859375</ele>
        <time>2014-05-18T10:08:58Z</time>
      </trkpt>
      <trkpt lat="45.455610752105713" lon="5.885951276868582">
        <ele>831.5999755859375</ele>
        <time>2014-05-18T10:09:01Z</time>
      </trkpt>
      <trkpt lat="45.455536739900708" lon="5.88560082949698">
        <ele>831.20001220703125</ele>
        <time>2014-05-18T10:09:04Z</time>
      </trkpt>
      <trkpt lat="45.455468008294702" lon="5.885502006858587">
        <ele>830.4000244140625</ele>
        <time>2014-05-18T10:09:05Z</time>
      </trkpt>
      <trkpt lat="45.455307494848967" lon="5.885323639959097">
        <ele>828.20001220703125</ele>
        <time>2014-05-18T10:09:07Z</time>
      </trkpt>
      <trkpt lat="45.455133570358157" lon="5.885141752660275">
        <ele>826.5999755859375</ele>
        <time>2014-05-18T10:09:09Z</time>
      </trkpt>
      <trkpt lat="45.454949336126447" lon="5.884959613904357">
        <ele>825</ele>
        <time>2014-05-18T10:09:11Z</time>
      </trkpt>
      <trkpt lat="45.454761330038309" lon="5.884764399379492">
        <ele>823</ele>
        <time>2014-05-18T10:09:13Z</time>
      </trkpt>
      <trkpt lat="45.454666698351502" lon="5.884665492922068">
        <ele>821.20001220703125</ele>
        <time>2014-05-18T10:09:14Z</time>
      </trkpt>
      <trkpt lat="45.45447114855051" lon="5.884470781311393">
        <ele>819.20001220703125</ele>
        <time>2014-05-18T10:09:16Z</time>
      </trkpt>
      <trkpt lat="45.454373499378562" lon="5.8843685220927">
        <ele>818.20001220703125</ele>
        <time>2014-05-18T10:09:17Z</time>
      </trkpt>
      <trkpt lat="45.454198904335499" lon="5.88419116102159">
        <ele>816.79998779296875</ele>
        <time>2014-05-18T10:09:19Z</time>
      </trkpt>
      <trkpt lat="45.454030511900783" lon="5.884083872660995">
        <ele>816.20001220703125</ele>
        <time>2014-05-18T10:09:21Z</time>
      </trkpt>
      <trkpt lat="45.453939819708467" lon="5.884070293977857">
        <ele>815.5999755859375</ele>
        <time>2014-05-18T10:09:22Z</time>
      </trkpt>
      <trkpt lat="45.453843427821994" lon="5.884084040299058">
        <ele>814.5999755859375</ele>
        <time>2014-05-18T10:09:23Z</time>
      </trkpt>
      <trkpt lat="45.453748041763902" lon="5.884119495749474">
        <ele>813.4000244140625</ele>
        <time>2014-05-18T10:09:24Z</time>
      </trkpt>
      <trkpt lat="45.453653074800968" lon="5.884166434407234">
        <ele>812.20001220703125</ele>
        <time>2014-05-18T10:09:25Z</time>
      </trkpt>
      <trkpt lat="45.453554671257734" lon="5.884209685027599">
        <ele>811.4000244140625</ele>
        <time>2014-05-18T10:09:26Z</time>
      </trkpt>
      <trkpt lat="45.453454675152898" lon="5.884241368621588">
        <ele>810.5999755859375</ele>
        <time>2014-05-18T10:09:27Z</time>
      </trkpt>
      <trkpt lat="45.453187962993979" lon="5.884290067479014">
        <ele>809.4000244140625</ele>
        <time>2014-05-18T10:09:30Z</time>
      </trkpt>
      <trkpt lat="45.453030383214355" lon="5.884258383885026">
        <ele>809</ele>
        <time>2014-05-18T10:09:32Z</time>
      </trkpt>
      <trkpt lat="45.452951425686479" lon="5.884213959798217">
        <ele>808.79998779296875</ele>
        <time>2014-05-18T10:09:33Z</time>
      </trkpt>
      <trkpt lat="45.452869618311524" lon="5.884160650894046">
        <ele>808</ele>
        <time>2014-05-18T10:09:34Z</time>
      </trkpt>
      <trkpt lat="45.452708434313536" lon="5.884042885154486">
        <ele>806.20001220703125</ele>
        <time>2014-05-18T10:09:36Z</time>
      </trkpt>
      <trkpt lat="45.452552028000355" lon="5.883955294266343">
        <ele>805</ele>
        <time>2014-05-18T10:09:38Z</time>
      </trkpt>
      <trkpt lat="45.452294955030084" lon="5.88389259763062">
        <ele>803.79998779296875</ele>
        <time>2014-05-18T10:09:41Z</time>
      </trkpt>
      <trkpt lat="45.45220484957099" lon="5.883887819945812">
        <ele>802.79998779296875</ele>
        <time>2014-05-18T10:09:42Z</time>
      </trkpt>
      <trkpt lat="45.452014412730932" lon="5.883893352001905">
        <ele>801.4000244140625</ele>
        <time>2014-05-18T10:09:44Z</time>
      </trkpt>
      <trkpt lat="45.451824394986033" lon="5.883890418335795">
        <ele>800</ele>
        <time>2014-05-18T10:09:46Z</time>
      </trkpt>
      <trkpt lat="45.451731104403734" lon="5.883876420557499">
        <ele>799.79998779296875</ele>
        <time>2014-05-18T10:09:47Z</time>
      </trkpt>
      <trkpt lat="45.451643010601401" lon="5.883846329525113">
        <ele>800.20001220703125</ele>
        <time>2014-05-18T10:09:48Z</time>
      </trkpt>
      <trkpt lat="45.451388452202082" lon="5.883745411410928">
        <ele>800.4000244140625</ele>
        <time>2014-05-18T10:09:51Z</time>
      </trkpt>
      <trkpt lat="45.451231123879552" lon="5.883658407256007">
        <ele>800.79998779296875</ele>
        <time>2014-05-18T10:09:53Z</time>
      </trkpt>
      <trkpt lat="45.451000621542335" lon="5.883532594889402">
        <ele>800.5999755859375</ele>
        <time>2014-05-18T10:09:56Z</time>
      </trkpt>
      <trkpt lat="45.450560236349702" lon="5.883319526910782">
        <ele>798.5999755859375</ele>
        <time>2014-05-18T10:10:02Z</time>
      </trkpt>
      <trkpt lat="45.450485721230507" lon="5.88328180834651">
        <ele>798.5999755859375</ele>
        <time>2014-05-18T10:10:03Z</time>
      </trkpt>
      <trkpt lat="45.450197719037533" lon="5.883095227181912">
        <ele>798.79998779296875</ele>
        <time>2014-05-18T10:10:07Z</time>
      </trkpt>
      <trkpt lat="45.450095208361745" lon="5.882941335439682">
        <ele>798.5999755859375</ele>
        <time>2014-05-18T10:10:09Z</time>
      </trkpt>
      <trkpt lat="45.449996720999479" lon="5.882798759266734">
        <ele>798.4000244140625</ele>
        <time>2014-05-18T10:10:11Z</time>
      </trkpt>
      <trkpt lat="45.44983989559114" lon="5.882668672129512">
        <ele>799.4000244140625</ele>
        <time>2014-05-18T10:10:14Z</time>
      </trkpt>
      <trkpt lat="45.449792537838221" lon="5.882627265527844">
        <ele>799.5999755859375</ele>
        <time>2014-05-18T10:10:15Z</time>
      </trkpt>
      <trkpt lat="45.449662283062935" lon="5.882520228624344">
        <ele>800.20001220703125</ele>
        <time>2014-05-18T10:10:18Z</time>
      </trkpt>
      <trkpt lat="45.449583828449249" lon="5.882448395714164">
        <ele>800.4000244140625</ele>
        <time>2014-05-18T10:10:20Z</time>
      </trkpt>
      <trkpt lat="45.449546696618199" lon="5.882413778454065">
        <ele>800.79998779296875</ele>
        <time>2014-05-18T10:10:21Z</time>
      </trkpt>
      <trkpt lat="45.449308566749096" lon="5.882231555879116">
        <ele>801</ele>
        <time>2014-05-18T10:10:27Z</time>
      </trkpt>
      <trkpt lat="45.449004471302032" lon="5.881947660818696">
        <ele>800.20001220703125</ele>
        <time>2014-05-18T10:10:34Z</time>
      </trkpt>
      <trkpt lat="45.448964573442936" lon="5.881885886192322">
        <ele>800.20001220703125</ele>
        <time>2014-05-18T10:10:35Z</time>
      </trkpt>
      <trkpt lat="45.448845969513059" lon="5.881697880104184">
        <ele>799.5999755859375</ele>
        <time>2014-05-18T10:10:38Z</time>
      </trkpt>
      <trkpt lat="45.448804814368486" lon="5.881636859849095">
        <ele>799.5999755859375</ele>
        <time>2014-05-18T10:10:39Z</time>
      </trkpt>
      <trkpt lat="45.448757875710726" lon="5.88158237747848">
        <ele>799.5999755859375</ele>
        <time>2014-05-18T10:10:40Z</time>
      </trkpt>
      <trkpt lat="45.448546232655644" lon="5.881370734423399">
        <ele>799</ele>
        <time>2014-05-18T10:10:44Z</time>
      </trkpt>
      <trkpt lat="45.448428131639957" lon="5.881266295909882">
        <ele>798.4000244140625</ele>
        <time>2014-05-18T10:10:46Z</time>
      </trkpt>
      <trkpt lat="45.448189917951822" lon="5.881048869341612">
        <ele>797.4000244140625</ele>
        <time>2014-05-18T10:10:50Z</time>
      </trkpt>
      <trkpt lat="45.448064357042313" lon="5.880936468020082">
        <ele>796.79998779296875</ele>
        <time>2014-05-18T10:10:52Z</time>
      </trkpt>
      <trkpt lat="45.447943909093738" lon="5.880811661481857">
        <ele>796.20001220703125</ele>
        <time>2014-05-18T10:10:54Z</time>
      </trkpt>
      <trkpt lat="45.447680717334151" lon="5.880565736442804">
        <ele>795.5999755859375</ele>
        <time>2014-05-18T10:10:58Z</time>
      </trkpt>
      <trkpt lat="45.447539146989584" lon="5.880451155826449">
        <ele>795.20001220703125</ele>
        <time>2014-05-18T10:11:00Z</time>
      </trkpt>
      <trkpt lat="45.447326246649027" lon="5.880296928808093">
        <ele>794.20001220703125</ele>
        <time>2014-05-18T10:11:03Z</time>
      </trkpt>
      <trkpt lat="45.447175623849034" lon="5.880220737308264">
        <ele>793.5999755859375</ele>
        <time>2014-05-18T10:11:05Z</time>
      </trkpt>
      <trkpt lat="45.447020810097456" lon="5.880175139755011">
        <ele>793.20001220703125</ele>
        <time>2014-05-18T10:11:07Z</time>
      </trkpt>
      <trkpt lat="45.446940260007977" lon="5.880166003480554">
        <ele>793.20001220703125</ele>
        <time>2014-05-18T10:11:08Z</time>
      </trkpt>
      <trkpt lat="45.446789637207985" lon="5.88016340509057">
        <ele>792.5999755859375</ele>
        <time>2014-05-18T10:11:10Z</time>
      </trkpt>
      <trkpt lat="45.446644630283117" lon="5.88017413392663">
        <ele>791.79998779296875</ele>
        <time>2014-05-18T10:11:12Z</time>
      </trkpt>
      <trkpt lat="45.446354113519192" lon="5.880206739529967">
        <ele>791.4000244140625</ele>
        <time>2014-05-18T10:11:16Z</time>
      </trkpt>
      <trkpt lat="45.446141296997666" lon="5.88023129850626">
        <ele>790.79998779296875</ele>
        <time>2014-05-18T10:11:19Z</time>
      </trkpt>
      <trkpt lat="45.445867544040084" lon="5.88019953109324">
        <ele>791</ele>
        <time>2014-05-18T10:11:23Z</time>
      </trkpt>
      <trkpt lat="45.445529920980334" lon="5.880016889423132">
        <ele>789.79998779296875</ele>
        <time>2014-05-18T10:11:28Z</time>
      </trkpt>
      <trkpt lat="45.445460854098201" lon="5.879981517791748">
        <ele>789.5999755859375</ele>
        <time>2014-05-18T10:11:29Z</time>
      </trkpt>
      <trkpt lat="45.445166984573007" lon="5.87988780811429">
        <ele>788.4000244140625</ele>
        <time>2014-05-18T10:11:33Z</time>
      </trkpt>
      <trkpt lat="45.445086183026433" lon="5.87987951003015">
        <ele>787.79998779296875</ele>
        <time>2014-05-18T10:11:34Z</time>
      </trkpt>
      <trkpt lat="45.445002028718591" lon="5.879876157268882">
        <ele>787.20001220703125</ele>
        <time>2014-05-18T10:11:35Z</time>
      </trkpt>
      <trkpt lat="45.444824248552322" lon="5.87986433878541">
        <ele>786</ele>
        <time>2014-05-18T10:11:37Z</time>
      </trkpt>
      <trkpt lat="45.444633476436138" lon="5.879854029044509">
        <ele>783.20001220703125</ele>
        <time>2014-05-18T10:11:39Z</time>
      </trkpt>
      <trkpt lat="45.444540521129966" lon="5.879873558878899">
        <ele>782.5999755859375</ele>
        <time>2014-05-18T10:11:40Z</time>
      </trkpt>
      <trkpt lat="45.444456366822124" lon="5.87992686778307">
        <ele>781.79998779296875</ele>
        <time>2014-05-18T10:11:41Z</time>
      </trkpt>
      <trkpt lat="45.444297781214118" lon="5.88010523468256">
        <ele>780.20001220703125</ele>
        <time>2014-05-18T10:11:43Z</time>
      </trkpt>
      <trkpt lat="45.444136345759034" lon="5.88033246807754">
        <ele>779.20001220703125</ele>
        <time>2014-05-18T10:11:45Z</time>
      </trkpt>
      <trkpt lat="45.444051017984748" lon="5.880416119471192">
        <ele>778.4000244140625</ele>
        <time>2014-05-18T10:11:46Z</time>
      </trkpt>
      <trkpt lat="45.443960493430495" lon="5.880471272394061">
        <ele>777.5999755859375</ele>
        <time>2014-05-18T10:11:47Z</time>
      </trkpt>
      <trkpt lat="45.443752203136683" lon="5.880479235202074">
        <ele>776.20001220703125</ele>
        <time>2014-05-18T10:11:49Z</time>
      </trkpt>
      <trkpt lat="45.443656733259559" lon="5.880411174148321">
        <ele>775.4000244140625</ele>
        <time>2014-05-18T10:11:50Z</time>
      </trkpt>
      <trkpt lat="45.443559838458896" lon="5.880347639322281">
        <ele>774.20001220703125</ele>
        <time>2014-05-18T10:11:51Z</time>
      </trkpt>
      <trkpt lat="45.443462356925011" lon="5.880271531641483">
        <ele>773</ele>
        <time>2014-05-18T10:11:52Z</time>
      </trkpt>
      <trkpt lat="45.443359846249223" lon="5.880197351798415">
        <ele>771.79998779296875</ele>
        <time>2014-05-18T10:11:53Z</time>
      </trkpt>
      <trkpt lat="45.443245768547058" lon="5.880163321271539">
        <ele>770.4000244140625</ele>
        <time>2014-05-18T10:11:54Z</time>
      </trkpt>
      <trkpt lat="45.443131104111671" lon="5.88012577034533">
        <ele>769.20001220703125</ele>
        <time>2014-05-18T10:11:55Z</time>
      </trkpt>
      <trkpt lat="45.443010572344065" lon="5.880109006538987">
        <ele>768.4000244140625</ele>
        <time>2014-05-18T10:11:56Z</time>
      </trkpt>
      <trkpt lat="45.442888867110014" lon="5.880085453391075">
        <ele>767.20001220703125</ele>
        <time>2014-05-18T10:11:57Z</time>
      </trkpt>
      <trkpt lat="45.442765401676297" lon="5.880053769797087">
        <ele>766</ele>
        <time>2014-05-18T10:11:58Z</time>
      </trkpt>
      <trkpt lat="45.44264386408031" lon="5.880007585510612">
        <ele>764.79998779296875</ele>
        <time>2014-05-18T10:11:59Z</time>
      </trkpt>
      <trkpt lat="45.442521739751101" lon="5.879959557205439">
        <ele>763.79998779296875</ele>
        <time>2014-05-18T10:12:00Z</time>
      </trkpt>
      <trkpt lat="45.44228226877749" lon="5.879850927740336">
        <ele>761.79998779296875</ele>
        <time>2014-05-18T10:12:02Z</time>
      </trkpt>
      <trkpt lat="45.442155869677663" lon="5.879787057638168">
        <ele>759.4000244140625</ele>
        <time>2014-05-18T10:12:03Z</time>
      </trkpt>
      <trkpt lat="45.44202720746398" lon="5.879725115373731">
        <ele>758.20001220703125</ele>
        <time>2014-05-18T10:12:04Z</time>
      </trkpt>
      <trkpt lat="45.441900389268994" lon="5.879661245271564">
        <ele>757</ele>
        <time>2014-05-18T10:12:05Z</time>
      </trkpt>
      <trkpt lat="45.441765943542123" lon="5.879596369341016">
        <ele>756</ele>
        <time>2014-05-18T10:12:06Z</time>
      </trkpt>
      <trkpt lat="45.441627893596888" lon="5.879539372399449">
        <ele>754.5999755859375</ele>
        <time>2014-05-18T10:12:07Z</time>
      </trkpt>
      <trkpt lat="45.441486071795225" lon="5.879495367407799">
        <ele>753.4000244140625</ele>
        <time>2014-05-18T10:12:08Z</time>
      </trkpt>
      <trkpt lat="45.441338969394565" lon="5.879460414871573">
        <ele>752.20001220703125</ele>
        <time>2014-05-18T10:12:09Z</time>
      </trkpt>
      <trkpt lat="45.441196644678712" lon="5.87942311540246">
        <ele>750.79998779296875</ele>
        <time>2014-05-18T10:12:10Z</time>
      </trkpt>
      <trkpt lat="45.441047614440322" lon="5.879380032420158">
        <ele>749.4000244140625</ele>
        <time>2014-05-18T10:12:11Z</time>
      </trkpt>
      <trkpt lat="45.440900512039661" lon="5.879327896982431">
        <ele>748</ele>
        <time>2014-05-18T10:12:12Z</time>
      </trkpt>
      <trkpt lat="45.440759025514126" lon="5.879259668290615">
        <ele>746.79998779296875</ele>
        <time>2014-05-18T10:12:13Z</time>
      </trkpt>
      <trkpt lat="45.440617790445685" lon="5.8791568223387">
        <ele>745.4000244140625</ele>
        <time>2014-05-18T10:12:14Z</time>
      </trkpt>
      <trkpt lat="45.440483847633004" lon="5.879039308056235">
        <ele>744</ele>
        <time>2014-05-18T10:12:15Z</time>
      </trkpt>
      <trkpt lat="45.440359208732843" lon="5.878898072987795">
        <ele>742.79998779296875</ele>
        <time>2014-05-18T10:12:16Z</time>
      </trkpt>
      <trkpt lat="45.440237922593951" lon="5.87875809520483">
        <ele>741.5999755859375</ele>
        <time>2014-05-18T10:12:17Z</time>
      </trkpt>
      <trkpt lat="45.439972886815667" lon="5.87853480130434">
        <ele>740</ele>
        <time>2014-05-18T10:12:19Z</time>
      </trkpt>
      <trkpt lat="45.439834669232368" lon="5.878441091626883">
        <ele>739.4000244140625</ele>
        <time>2014-05-18T10:12:20Z</time>
      </trkpt>
      <trkpt lat="45.439697206020355" lon="5.878351321443915">
        <ele>738.5999755859375</ele>
        <time>2014-05-18T10:12:21Z</time>
      </trkpt>
      <trkpt lat="45.439427476376295" lon="5.878177732229233">
        <ele>736.79998779296875</ele>
        <time>2014-05-18T10:12:23Z</time>
      </trkpt>
      <trkpt lat="45.439151795580983" lon="5.878044627606869">
        <ele>735.20001220703125</ele>
        <time>2014-05-18T10:12:25Z</time>
      </trkpt>
      <trkpt lat="45.438887178897858" lon="5.877888724207878">
        <ele>733</ele>
        <time>2014-05-18T10:12:27Z</time>
      </trkpt>
      <trkpt lat="45.438635973259807" lon="5.877701137214899">
        <ele>731.79998779296875</ele>
        <time>2014-05-18T10:12:29Z</time>
      </trkpt>
      <trkpt lat="45.43851250782609" lon="5.877603320404887">
        <ele>730.79998779296875</ele>
        <time>2014-05-18T10:12:30Z</time>
      </trkpt>
      <trkpt lat="45.438393736258149" lon="5.877484632655978">
        <ele>729.79998779296875</ele>
        <time>2014-05-18T10:12:31Z</time>
      </trkpt>
      <trkpt lat="45.438160384073853" lon="5.877254884690046">
        <ele>728.4000244140625</ele>
        <time>2014-05-18T10:12:33Z</time>
      </trkpt>
      <trkpt lat="45.438036918640137" lon="5.877155559137464">
        <ele>727.79998779296875</ele>
        <time>2014-05-18T10:12:34Z</time>
      </trkpt>
      <trkpt lat="45.437909597530961" lon="5.877066627144814">
        <ele>727.20001220703125</ele>
        <time>2014-05-18T10:12:35Z</time>
      </trkpt>
      <trkpt lat="45.437777414917946" lon="5.877002673223615">
        <ele>726.4000244140625</ele>
        <time>2014-05-18T10:12:36Z</time>
      </trkpt>
      <trkpt lat="45.437637353315949" lon="5.876971241086721">
        <ele>725.4000244140625</ele>
        <time>2014-05-18T10:12:37Z</time>
      </trkpt>
      <trkpt lat="45.437363600358367" lon="5.876965541392565">
        <ele>723.79998779296875</ele>
        <time>2014-05-18T10:12:39Z</time>
      </trkpt>
      <trkpt lat="45.43722496367991" lon="5.87698532268405">
        <ele>723.20001220703125</ele>
        <time>2014-05-18T10:12:40Z</time>
      </trkpt>
      <trkpt lat="45.437095798552036" lon="5.87700535543263">
        <ele>722.79998779296875</ele>
        <time>2014-05-18T10:12:41Z</time>
      </trkpt>
      <trkpt lat="45.436785919591784" lon="5.877153128385544">
        <ele>722.5999755859375</ele>
        <time>2014-05-18T10:12:44Z</time>
      </trkpt>
      <trkpt lat="45.436513591557741" lon="5.877224374562502">
        <ele>722.20001220703125</ele>
        <time>2014-05-18T10:12:47Z</time>
      </trkpt>
      <trkpt lat="45.436431029811502" lon="5.877185482531786">
        <ele>722</ele>
        <time>2014-05-18T10:12:48Z</time>
      </trkpt>
      <trkpt lat="45.436384342610836" lon="5.877070985734463">
        <ele>721.5999755859375</ele>
        <time>2014-05-18T10:12:49Z</time>
      </trkpt>
      <trkpt lat="45.436336984857917" lon="5.876949867233634">
        <ele>721.5999755859375</ele>
        <time>2014-05-18T10:12:50Z</time>
      </trkpt>
      <trkpt lat="45.436120061203837" lon="5.876706372946501">
        <ele>720.20001220703125</ele>
        <time>2014-05-18T10:12:53Z</time>
      </trkpt>
      <trkpt lat="45.435958039015532" lon="5.87659053504467">
        <ele>718.79998779296875</ele>
        <time>2014-05-18T10:12:55Z</time>
      </trkpt>
      <trkpt lat="45.435773050412536" lon="5.876549296081066">
        <ele>717.5999755859375</ele>
        <time>2014-05-18T10:12:57Z</time>
      </trkpt>
      <trkpt lat="45.435571800917387" lon="5.876572513952851">
        <ele>716</ele>
        <time>2014-05-18T10:12:59Z</time>
      </trkpt>
      <trkpt lat="45.435354290530086" lon="5.876597156748176">
        <ele>714.4000244140625</ele>
        <time>2014-05-18T10:13:01Z</time>
      </trkpt>
      <trkpt lat="45.435240380465984" lon="5.876599587500095">
        <ele>713.79998779296875</ele>
        <time>2014-05-18T10:13:02Z</time>
      </trkpt>
      <trkpt lat="45.435133259743452" lon="5.876590702682734">
        <ele>713</ele>
        <time>2014-05-18T10:13:03Z</time>
      </trkpt>
      <trkpt lat="45.434915330260992" lon="5.876555582508445">
        <ele>711.79998779296875</ele>
        <time>2014-05-18T10:13:05Z</time>
      </trkpt>
      <trkpt lat="45.434699663892388" lon="5.876507721841335">
        <ele>711</ele>
        <time>2014-05-18T10:13:07Z</time>
      </trkpt>
      <trkpt lat="45.434594806283712" lon="5.876453574746847">
        <ele>710.5999755859375</ele>
        <time>2014-05-18T10:13:08Z</time>
      </trkpt>
      <trkpt lat="45.434376541525126" lon="5.876320134848356">
        <ele>709.5999755859375</ele>
        <time>2014-05-18T10:13:10Z</time>
      </trkpt>
      <trkpt lat="45.434163473546505" lon="5.876179905608296">
        <ele>708.5999755859375</ele>
        <time>2014-05-18T10:13:12Z</time>
      </trkpt>
      <trkpt lat="45.434073284268379" lon="5.876086531206965">
        <ele>708.20001220703125</ele>
        <time>2014-05-18T10:13:13Z</time>
      </trkpt>
      <trkpt lat="45.433912687003613" lon="5.87588201276958">
        <ele>706.4000244140625</ele>
        <time>2014-05-18T10:13:15Z</time>
      </trkpt>
      <trkpt lat="45.433815121650696" lon="5.875634411349893">
        <ele>704.5999755859375</ele>
        <time>2014-05-18T10:13:17Z</time>
      </trkpt>
      <trkpt lat="45.433771032840014" lon="5.875490577891469">
        <ele>703.79998779296875</ele>
        <time>2014-05-18T10:13:18Z</time>
      </trkpt>
      <trkpt lat="45.433735325932503" lon="5.875334003940225">
        <ele>702.79998779296875</ele>
        <time>2014-05-18T10:13:19Z</time>
      </trkpt>
      <trkpt lat="45.433717556297779" lon="5.875177094712853">
        <ele>701.79998779296875</ele>
        <time>2014-05-18T10:13:20Z</time>
      </trkpt>
      <trkpt lat="45.433694254606962" lon="5.874851625412703">
        <ele>700.4000244140625</ele>
        <time>2014-05-18T10:13:22Z</time>
      </trkpt>
      <trkpt lat="45.433785282075405" lon="5.874651717022061">
        <ele>700</ele>
        <time>2014-05-18T10:13:23Z</time>
      </trkpt>
      <trkpt lat="45.433826018124819" lon="5.874473936855793">
        <ele>699.5999755859375</ele>
        <time>2014-05-18T10:13:24Z</time>
      </trkpt>
      <trkpt lat="45.433812104165554" lon="5.874331025406718">
        <ele>699</ele>
        <time>2014-05-18T10:13:25Z</time>
      </trkpt>
      <trkpt lat="45.433695679530501" lon="5.874245027080178">
        <ele>698.79998779296875</ele>
        <time>2014-05-18T10:13:26Z</time>
      </trkpt>
      <trkpt lat="45.433561652898788" lon="5.873937495052815">
        <ele>697.5999755859375</ele>
        <time>2014-05-18T10:13:28Z</time>
      </trkpt>
      <trkpt lat="45.433547738939524" lon="5.873734736815095">
        <ele>696.5999755859375</ele>
        <time>2014-05-18T10:13:29Z</time>
      </trkpt>
      <trkpt lat="45.433534495532513" lon="5.87355368770659">
        <ele>695.4000244140625</ele>
        <time>2014-05-18T10:13:30Z</time>
      </trkpt>
      <trkpt lat="45.433632479980588" lon="5.873293597251177">
        <ele>694.79998779296875</ele>
        <time>2014-05-18T10:13:31Z</time>
      </trkpt>
      <trkpt lat="45.433622002601624" lon="5.873081870377064">
        <ele>694.4000244140625</ele>
        <time>2014-05-18T10:13:32Z</time>
      </trkpt>
      <trkpt lat="45.433585541322827" lon="5.872930577024818">
        <ele>694.4000244140625</ele>
        <time>2014-05-18T10:13:33Z</time>
      </trkpt>
      <trkpt lat="45.433466685935855" lon="5.872464375570417">
        <ele>694</ele>
        <time>2014-05-18T10:13:37Z</time>
      </trkpt>
      <trkpt lat="45.433384710922837" lon="5.872268993407488">
        <ele>694.20001220703125</ele>
        <time>2014-05-18T10:13:39Z</time>
      </trkpt>
      <trkpt lat="45.43327197432518" lon="5.872102696448565">
        <ele>694.4000244140625</ele>
        <time>2014-05-18T10:13:41Z</time>
      </trkpt>
      <trkpt lat="45.433084052056074" lon="5.871979566290975">
        <ele>694.4000244140625</ele>
        <time>2014-05-18T10:13:44Z</time>
      </trkpt>
      <trkpt lat="45.432860925793648" lon="5.871945284307003">
        <ele>694.79998779296875</ele>
        <time>2014-05-18T10:13:48Z</time>
      </trkpt>
      <trkpt lat="45.432680463418365" lon="5.871936902403832">
        <ele>694</ele>
        <time>2014-05-18T10:13:51Z</time>
      </trkpt>
      <trkpt lat="45.432557081803679" lon="5.871843947097659">
        <ele>693.4000244140625</ele>
        <time>2014-05-18T10:13:53Z</time>
      </trkpt>
      <trkpt lat="45.432500168681145" lon="5.871775718405843">
        <ele>692.79998779296875</ele>
        <time>2014-05-18T10:13:54Z</time>
      </trkpt>
      <trkpt lat="45.43243981897831" lon="5.871700113639236">
        <ele>692.20001220703125</ele>
        <time>2014-05-18T10:13:55Z</time>
      </trkpt>
      <trkpt lat="45.432381061837077" lon="5.871614282950759">
        <ele>691.5999755859375</ele>
        <time>2014-05-18T10:13:56Z</time>
      </trkpt>
      <trkpt lat="45.43232205323875" lon="5.871515795588493">
        <ele>691</ele>
        <time>2014-05-18T10:13:57Z</time>
      </trkpt>
      <trkpt lat="45.432257764041424" lon="5.871416050940752">
        <ele>690.4000244140625</ele>
        <time>2014-05-18T10:13:58Z</time>
      </trkpt>
      <trkpt lat="45.432195067405701" lon="5.871303649619222">
        <ele>689.20001220703125</ele>
        <time>2014-05-18T10:13:59Z</time>
      </trkpt>
      <trkpt lat="45.432139579206705" lon="5.871184878051281">
        <ele>687.79998779296875</ele>
        <time>2014-05-18T10:14:00Z</time>
      </trkpt>
      <trkpt lat="45.432076882570982" lon="5.871062418445945">
        <ele>686.5999755859375</ele>
        <time>2014-05-18T10:14:01Z</time>
      </trkpt>
      <trkpt lat="45.432016365230083" lon="5.870940377935767">
        <ele>685.5999755859375</ele>
        <time>2014-05-18T10:14:02Z</time>
      </trkpt>
      <trkpt lat="45.431955512613058" lon="5.870822696015239">
        <ele>684</ele>
        <time>2014-05-18T10:14:03Z</time>
      </trkpt>
      <trkpt lat="45.431898850947618" lon="5.870713060721755">
        <ele>682.79998779296875</ele>
        <time>2014-05-18T10:14:04Z</time>
      </trkpt>
      <trkpt lat="45.431848810985684" lon="5.870617004111409">
        <ele>681.4000244140625</ele>
        <time>2014-05-18T10:14:05Z</time>
      </trkpt>
      <trkpt lat="45.431773122400045" lon="5.870547350496054">
        <ele>679.79998779296875</ele>
        <time>2014-05-18T10:14:06Z</time>
      </trkpt>
      <trkpt lat="45.431679664179683" lon="5.870472164824605">
        <ele>678.20001220703125</ele>
        <time>2014-05-18T10:14:07Z</time>
      </trkpt>
      <trkpt lat="45.43156567029655" lon="5.870396140962839">
        <ele>676.79998779296875</ele>
        <time>2014-05-18T10:14:08Z</time>
      </trkpt>
      <trkpt lat="45.431433320045471" lon="5.870332438498735">
        <ele>675.79998779296875</ele>
        <time>2014-05-18T10:14:09Z</time>
      </trkpt>
      <trkpt lat="45.431339275091887" lon="5.870271753519774">
        <ele>674.79998779296875</ele>
        <time>2014-05-18T10:14:10Z</time>
      </trkpt>
      <trkpt lat="45.43124564923346" lon="5.870211319997907">
        <ele>673.4000244140625</ele>
        <time>2014-05-18T10:14:11Z</time>
      </trkpt>
      <trkpt lat="45.431147329509258" lon="5.870133703574538">
        <ele>671.5999755859375</ele>
        <time>2014-05-18T10:14:12Z</time>
      </trkpt>
      <trkpt lat="45.431047333404422" lon="5.870047369971871">
        <ele>670.20001220703125</ele>
        <time>2014-05-18T10:14:13Z</time>
      </trkpt>
      <trkpt lat="45.430945912376046" lon="5.869967322796583">
        <ele>669.20001220703125</ele>
        <time>2014-05-18T10:14:14Z</time>
      </trkpt>
      <trkpt lat="45.430771233513951" lon="5.869942009449005">
        <ele>668.4000244140625</ele>
        <time>2014-05-18T10:14:15Z</time>
      </trkpt>
      <trkpt lat="45.430560177192092" lon="5.869934214279056">
        <ele>667.79998779296875</ele>
        <time>2014-05-18T10:14:16Z</time>
      </trkpt>
      <trkpt lat="45.430388348177075" lon="5.869892975315452">
        <ele>667.5999755859375</ele>
        <time>2014-05-18T10:14:17Z</time>
      </trkpt>
      <trkpt lat="45.430161198601127" lon="5.869694659486413">
        <ele>667</ele>
        <time>2014-05-18T10:14:19Z</time>
      </trkpt>
      <trkpt lat="45.430084588006139" lon="5.869576893746853">
        <ele>666.5999755859375</ele>
        <time>2014-05-18T10:14:20Z</time>
      </trkpt>
      <trkpt lat="45.429999595507979" lon="5.869457870721817">
        <ele>666</ele>
        <time>2014-05-18T10:14:21Z</time>
      </trkpt>
      <trkpt lat="45.429908651858568" lon="5.869346978142858">
        <ele>664.79998779296875</ele>
        <time>2014-05-18T10:14:22Z</time>
      </trkpt>
      <trkpt lat="45.429814858362079" lon="5.86925620213151">
        <ele>663.79998779296875</ele>
        <time>2014-05-18T10:14:23Z</time>
      </trkpt>
      <trkpt lat="45.429723495617509" lon="5.869188560172916">
        <ele>662.5999755859375</ele>
        <time>2014-05-18T10:14:24Z</time>
      </trkpt>
      <trkpt lat="45.429537836462259" lon="5.869140615686774">
        <ele>661.4000244140625</ele>
        <time>2014-05-18T10:14:26Z</time>
      </trkpt>
      <trkpt lat="45.429429290816188" lon="5.869150254875422">
        <ele>660</ele>
        <time>2014-05-18T10:14:27Z</time>
      </trkpt>
      <trkpt lat="45.429201303049922" lon="5.869137179106474">
        <ele>658.20001220703125</ele>
        <time>2014-05-18T10:14:29Z</time>
      </trkpt>
      <trkpt lat="45.429085716605186" lon="5.869139777496457">
        <ele>657.4000244140625</ele>
        <time>2014-05-18T10:14:30Z</time>
      </trkpt>
      <trkpt lat="45.428972980007529" lon="5.869151763617992">
        <ele>656.5999755859375</ele>
        <time>2014-05-18T10:14:31Z</time>
      </trkpt>
      <trkpt lat="45.428748512640595" lon="5.86917313747108">
        <ele>655.20001220703125</ele>
        <time>2014-05-18T10:14:33Z</time>
      </trkpt>
      <trkpt lat="45.428629908710718" lon="5.869178250432015">
        <ele>654.5999755859375</ele>
        <time>2014-05-18T10:14:34Z</time>
      </trkpt>
      <trkpt lat="45.428510550409555" lon="5.869169114157558">
        <ele>653.4000244140625</ele>
        <time>2014-05-18T10:14:35Z</time>
      </trkpt>
      <trkpt lat="45.42839446105063" lon="5.869123851880431">
        <ele>653.20001220703125</ele>
        <time>2014-05-18T10:14:36Z</time>
      </trkpt>
      <trkpt lat="45.428290441632271" lon="5.869052354246378">
        <ele>652.5999755859375</ele>
        <time>2014-05-18T10:14:37Z</time>
      </trkpt>
      <trkpt lat="45.42820000089705" lon="5.868988148868084">
        <ele>652.4000244140625</ele>
        <time>2014-05-18T10:14:38Z</time>
      </trkpt>
      <trkpt lat="45.428151302039623" lon="5.86885554715991">
        <ele>651.79998779296875</ele>
        <time>2014-05-18T10:14:39Z</time>
      </trkpt>
      <trkpt lat="45.428137052804232" lon="5.868667205795646">
        <ele>651.4000244140625</ele>
        <time>2014-05-18T10:14:40Z</time>
      </trkpt>
      <trkpt lat="45.428119786083698" lon="5.868483306840062">
        <ele>650.79998779296875</ele>
        <time>2014-05-18T10:14:41Z</time>
      </trkpt>
      <trkpt lat="45.428103692829609" lon="5.868122046813369">
        <ele>649.20001220703125</ele>
        <time>2014-05-18T10:14:43Z</time>
      </trkpt>
      <trkpt lat="45.428094891831279" lon="5.867970753461123">
        <ele>648.4000244140625</ele>
        <time>2014-05-18T10:14:44Z</time>
      </trkpt>
      <trkpt lat="45.428054071962833" lon="5.867714770138264">
        <ele>648.4000244140625</ele>
        <time>2014-05-18T10:14:46Z</time>
      </trkpt>
      <trkpt lat="45.428010486066341" lon="5.867491308599711">
        <ele>649.79998779296875</ele>
        <time>2014-05-18T10:14:48Z</time>
      </trkpt>
      <trkpt lat="45.427963212132454" lon="5.86743900552392">
        <ele>650</ele>
        <time>2014-05-18T10:14:50Z</time>
      </trkpt>
      <trkpt lat="45.427921386435628" lon="5.867432970553637">
        <ele>650.4000244140625</ele>
        <time>2014-05-18T10:14:51Z</time>
      </trkpt>
      <trkpt lat="45.42783941142261" lon="5.867304727435112">
        <ele>649.5999755859375</ele>
        <time>2014-05-18T10:14:53Z</time>
      </trkpt>
      <trkpt lat="45.427808817476034" lon="5.867232894524932">
        <ele>649.4000244140625</ele>
        <time>2014-05-18T10:14:54Z</time>
      </trkpt>
      <trkpt lat="45.427758526057005" lon="5.867165252566338">
        <ele>649.20001220703125</ele>
        <time>2014-05-18T10:14:55Z</time>
      </trkpt>
      <trkpt lat="45.427690967917442" lon="5.867117056623101">
        <ele>649.4000244140625</ele>
        <time>2014-05-18T10:14:56Z</time>
      </trkpt>
      <trkpt lat="45.427621984854341" lon="5.867079589515925">
        <ele>649</ele>
        <time>2014-05-18T10:14:57Z</time>
      </trkpt>
      <trkpt lat="45.427468847483397" lon="5.867050336673856">
        <ele>648</ele>
        <time>2014-05-18T10:14:59Z</time>
      </trkpt>
      <trkpt lat="45.427382597699761" lon="5.867026532068849">
        <ele>647.4000244140625</ele>
        <time>2014-05-18T10:15:00Z</time>
      </trkpt>
      <trkpt lat="45.427295509725809" lon="5.866984706372023">
        <ele>646.79998779296875</ele>
        <time>2014-05-18T10:15:01Z</time>
      </trkpt>
      <trkpt lat="45.427108341827989" lon="5.866886051371694">
        <ele>644.79998779296875</ele>
        <time>2014-05-18T10:15:03Z</time>
      </trkpt>
      <trkpt lat="45.42700826190412" lon="5.86683651432395">
        <ele>643.79998779296875</ele>
        <time>2014-05-18T10:15:04Z</time>
      </trkpt>
      <trkpt lat="45.42680055834353" lon="5.866763927042484">
        <ele>642</ele>
        <time>2014-05-18T10:15:06Z</time>
      </trkpt>
      <trkpt lat="45.426695616915822" lon="5.866736937314272">
        <ele>640.5999755859375</ele>
        <time>2014-05-18T10:15:07Z</time>
      </trkpt>
      <trkpt lat="45.426587993279099" lon="5.866719000041485">
        <ele>639.4000244140625</ele>
        <time>2014-05-18T10:15:08Z</time>
      </trkpt>
      <trkpt lat="45.426479447633028" lon="5.866681449115276">
        <ele>638.5999755859375</ele>
        <time>2014-05-18T10:15:09Z</time>
      </trkpt>
      <trkpt lat="45.426372746005654" lon="5.866640377789736">
        <ele>638</ele>
        <time>2014-05-18T10:15:10Z</time>
      </trkpt>
      <trkpt lat="45.425826832652092" lon="5.866477265954018">
        <ele>635.5999755859375</ele>
        <time>2014-05-18T10:15:15Z</time>
      </trkpt>
      <trkpt lat="45.425519216805696" lon="5.866571981459856">
        <ele>634.5999755859375</ele>
        <time>2014-05-18T10:15:18Z</time>
      </trkpt>
      <trkpt lat="45.425413269549608" lon="5.866573993116617">
        <ele>634.20001220703125</ele>
        <time>2014-05-18T10:15:19Z</time>
      </trkpt>
      <trkpt lat="45.425228700041771" lon="5.866461927071214">
        <ele>634.4000244140625</ele>
        <time>2014-05-18T10:15:21Z</time>
      </trkpt>
      <trkpt lat="45.425100959837437" lon="5.866236621513963">
        <ele>634.79998779296875</ele>
        <time>2014-05-18T10:15:23Z</time>
      </trkpt>
      <trkpt lat="45.425054524093866" lon="5.865939818322659">
        <ele>634.4000244140625</ele>
        <time>2014-05-18T10:15:25Z</time>
      </trkpt>
      <trkpt lat="45.425055110827088" lon="5.865628598257899">
        <ele>633</ele>
        <time>2014-05-18T10:15:27Z</time>
      </trkpt>
      <trkpt lat="45.425051925703883" lon="5.865468252450228">
        <ele>632</ele>
        <time>2014-05-18T10:15:28Z</time>
      </trkpt>
      <trkpt lat="45.425044801086187" lon="5.865146974101663">
        <ele>630.4000244140625</ele>
        <time>2014-05-18T10:15:30Z</time>
      </trkpt>
      <trkpt lat="45.425009094178677" lon="5.864844219759107">
        <ele>629.20001220703125</ele>
        <time>2014-05-18T10:15:32Z</time>
      </trkpt>
      <trkpt lat="45.424976740032434" lon="5.864692507311702">
        <ele>628.79998779296875</ele>
        <time>2014-05-18T10:15:33Z</time>
      </trkpt>
      <trkpt lat="45.424890071153641" lon="5.864405510947108">
        <ele>628</ele>
        <time>2014-05-18T10:15:35Z</time>
      </trkpt>
      <trkpt lat="45.424751099199057" lon="5.864167213439941">
        <ele>627.5999755859375</ele>
        <time>2014-05-18T10:15:37Z</time>
      </trkpt>
      <trkpt lat="45.424470640718937" lon="5.863959928974509">
        <ele>627.4000244140625</ele>
        <time>2014-05-18T10:15:40Z</time>
      </trkpt>
      <trkpt lat="45.42437550611794" lon="5.863902261480689">
        <ele>626.79998779296875</ele>
        <time>2014-05-18T10:15:41Z</time>
      </trkpt>
      <trkpt lat="45.424213064834476" lon="5.863773347809911">
        <ele>626.20001220703125</ele>
        <time>2014-05-18T10:15:43Z</time>
      </trkpt>
      <trkpt lat="45.424130838364363" lon="5.86368290707469">
        <ele>626</ele>
        <time>2014-05-18T10:15:44Z</time>
      </trkpt>
      <trkpt lat="45.424090772867203" lon="5.863565308973193">
        <ele>626</ele>
        <time>2014-05-18T10:15:45Z</time>
      </trkpt>
      <trkpt lat="45.424052132293582" lon="5.863440837711096">
        <ele>626</ele>
        <time>2014-05-18T10:15:46Z</time>
      </trkpt>
      <trkpt lat="45.423914333805442" lon="5.862965248525143">
        <ele>626.20001220703125</ele>
        <time>2014-05-18T10:15:50Z</time>
      </trkpt>
      <trkpt lat="45.423863790929317" lon="5.862866006791592">
        <ele>625.79998779296875</ele>
        <time>2014-05-18T10:15:51Z</time>
      </trkpt>
      <trkpt lat="45.423706462606788" lon="5.862588565796614">
        <ele>626.20001220703125</ele>
        <time>2014-05-18T10:15:54Z</time>
      </trkpt>
      <trkpt lat="45.423539830371737" lon="5.86236217059195">
        <ele>626.20001220703125</ele>
        <time>2014-05-18T10:15:57Z</time>
      </trkpt>
      <trkpt lat="45.423421310260892" lon="5.862235352396965">
        <ele>626.5999755859375</ele>
        <time>2014-05-18T10:15:59Z</time>
      </trkpt>
      <trkpt lat="45.423106402158737" lon="5.861893454566598">
        <ele>625.79998779296875</ele>
        <time>2014-05-18T10:16:05Z</time>
      </trkpt>
      <trkpt lat="45.423055188730359" lon="5.861827908083797">
        <ele>625.4000244140625</ele>
        <time>2014-05-18T10:16:06Z</time>
      </trkpt>
      <trkpt lat="45.422881012782454" lon="5.861616265028715">
        <ele>624.20001220703125</ele>
        <time>2014-05-18T10:16:09Z</time>
      </trkpt>
      <trkpt lat="45.42281337082386" lon="5.861560944467783">
        <ele>624</ele>
        <time>2014-05-18T10:16:10Z</time>
      </trkpt>
      <trkpt lat="45.422741286456585" lon="5.86151191033423">
        <ele>623.4000244140625</ele>
        <time>2014-05-18T10:16:11Z</time>
      </trkpt>
      <trkpt lat="45.42266484349966" lon="5.861476706340909">
        <ele>623</ele>
        <time>2014-05-18T10:16:12Z</time>
      </trkpt>
      <trkpt lat="45.422516232356429" lon="5.861402526497841">
        <ele>620.79998779296875</ele>
        <time>2014-05-18T10:16:14Z</time>
      </trkpt>
      <trkpt lat="45.422371309250593" lon="5.861366651952267">
        <ele>620.4000244140625</ele>
        <time>2014-05-18T10:16:16Z</time>
      </trkpt>
      <trkpt lat="45.421966295689344" lon="5.861332537606359">
        <ele>619.4000244140625</ele>
        <time>2014-05-18T10:16:22Z</time>
      </trkpt>
      <trkpt lat="45.421899491921067" lon="5.86132574826479">
        <ele>619.20001220703125</ele>
        <time>2014-05-18T10:16:23Z</time>
      </trkpt>
      <trkpt lat="45.421448880806565" lon="5.861237989738584">
        <ele>618.20001220703125</ele>
        <time>2014-05-18T10:16:30Z</time>
      </trkpt>
      <trkpt lat="45.421332456171513" lon="5.861183004453778">
        <ele>618.4000244140625</ele>
        <time>2014-05-18T10:16:32Z</time>
      </trkpt>
      <trkpt lat="45.421278728172183" lon="5.861144363880158">
        <ele>618.20001220703125</ele>
        <time>2014-05-18T10:16:33Z</time>
      </trkpt>
      <trkpt lat="45.421137828379869" lon="5.860944036394358">
        <ele>617.79998779296875</ele>
        <time>2014-05-18T10:16:36Z</time>
      </trkpt>
      <trkpt lat="45.421089716255665" lon="5.860649663954973">
        <ele>617.5999755859375</ele>
        <time>2014-05-18T10:16:39Z</time>
      </trkpt>
      <trkpt lat="45.421093236654997" lon="5.860452018678188">
        <ele>616.79998779296875</ele>
        <time>2014-05-18T10:16:41Z</time>
      </trkpt>
      <trkpt lat="45.421103294938803" lon="5.860264180228114">
        <ele>616</ele>
        <time>2014-05-18T10:16:43Z</time>
      </trkpt>
      <trkpt lat="45.421116203069687" lon="5.860090591013432">
        <ele>615.5999755859375</ele>
        <time>2014-05-18T10:16:45Z</time>
      </trkpt>
      <trkpt lat="45.421147383749485" lon="5.859754057601094">
        <ele>616.20001220703125</ele>
        <time>2014-05-18T10:16:49Z</time>
      </trkpt>
      <trkpt lat="45.421200105920434" lon="5.859206719323993">
        <ele>616.4000244140625</ele>
        <time>2014-05-18T10:16:56Z</time>
      </trkpt>
      <trkpt lat="45.421203793957829" lon="5.859130779281259">
        <ele>616.79998779296875</ele>
        <time>2014-05-18T10:16:57Z</time>
      </trkpt>
      <trkpt lat="45.421191640198231" lon="5.858901618048549">
        <ele>616.5999755859375</ele>
        <time>2014-05-18T10:17:00Z</time>
      </trkpt>
      <trkpt lat="45.421169847249985" lon="5.858827522024512">
        <ele>615.79998779296875</ele>
        <time>2014-05-18T10:17:01Z</time>
      </trkpt>
      <trkpt lat="45.421148808673024" lon="5.858754348009825">
        <ele>615.20001220703125</ele>
        <time>2014-05-18T10:17:02Z</time>
      </trkpt>
      <trkpt lat="45.421031629666686" lon="5.858589308336377">
        <ele>614.20001220703125</ele>
        <time>2014-05-18T10:17:05Z</time>
      </trkpt>
      <trkpt lat="45.420987205579877" lon="5.858547650277615">
        <ele>613.5999755859375</ele>
        <time>2014-05-18T10:17:06Z</time>
      </trkpt>
      <trkpt lat="45.420894669368863" lon="5.858474560081959">
        <ele>613.20001220703125</ele>
        <time>2014-05-18T10:17:08Z</time>
      </trkpt>
      <trkpt lat="45.4207459744066" lon="5.858389483764768">
        <ele>614.20001220703125</ele>
        <time>2014-05-18T10:17:11Z</time>
      </trkpt>
      <trkpt lat="45.420437101274729" lon="5.858226623386145">
        <ele>612.5999755859375</ele>
        <time>2014-05-18T10:17:17Z</time>
      </trkpt>
      <trkpt lat="45.420382115989923" lon="5.858198795467615">
        <ele>612</ele>
        <time>2014-05-18T10:17:18Z</time>
      </trkpt>
      <trkpt lat="45.420173490419984" lon="5.858062673360109">
        <ele>611.5999755859375</ele>
        <time>2014-05-18T10:17:22Z</time>
      </trkpt>
      <trkpt lat="45.420075673609972" lon="5.858006849884987">
        <ele>610.4000244140625</ele>
        <time>2014-05-18T10:17:24Z</time>
      </trkpt>
      <trkpt lat="45.419977940618992" lon="5.85794247686863">
        <ele>610.20001220703125</ele>
        <time>2014-05-18T10:17:26Z</time>
      </trkpt>
      <trkpt lat="45.419642413035035" lon="5.857711471617222">
        <ele>609.4000244140625</ele>
        <time>2014-05-18T10:17:33Z</time>
      </trkpt>
      <trkpt lat="45.419558761641383" lon="5.857622120529413">
        <ele>609.5999755859375</ele>
        <time>2014-05-18T10:17:35Z</time>
      </trkpt>
      <trkpt lat="45.41941300034523" lon="5.8573810569942">
        <ele>610.20001220703125</ele>
        <time>2014-05-18T10:17:39Z</time>
      </trkpt>
      <trkpt lat="45.419100355356932" lon="5.856818463653326">
        <ele>608.4000244140625</ele>
        <time>2014-05-18T10:17:48Z</time>
      </trkpt>
      <trkpt lat="45.418900279328227" lon="5.856487881392241">
        <ele>608.20001220703125</ele>
        <time>2014-05-18T10:17:54Z</time>
      </trkpt>
      <trkpt lat="45.418689725920558" lon="5.856257127597928">
        <ele>608.5999755859375</ele>
        <time>2014-05-18T10:18:00Z</time>
      </trkpt>
      <trkpt lat="45.418559554964304" lon="5.856085969135165">
        <ele>607.79998779296875</ele>
        <time>2014-05-18T10:18:04Z</time>
      </trkpt>
      <trkpt lat="45.418503731489182" lon="5.855987230315805">
        <ele>607.5999755859375</ele>
        <time>2014-05-18T10:18:06Z</time>
      </trkpt>
      <trkpt lat="45.418471544981003" lon="5.855938447639346">
        <ele>607.20001220703125</ele>
        <time>2014-05-18T10:18:07Z</time>
      </trkpt>
      <trkpt lat="45.418329471722245" lon="5.855680536478758">
        <ele>608.20001220703125</ele>
        <time>2014-05-18T10:18:12Z</time>
      </trkpt>
      <trkpt lat="45.418153535574675" lon="5.855385074391961">
        <ele>607.79998779296875</ele>
        <time>2014-05-18T10:18:18Z</time>
      </trkpt>
      <trkpt lat="45.418106680735946" lon="5.855283234268427">
        <ele>608.20001220703125</ele>
        <time>2014-05-18T10:18:20Z</time>
      </trkpt>
      <trkpt lat="45.418010959401727" lon="5.855108974501491">
        <ele>608.20001220703125</ele>
        <time>2014-05-18T10:18:24Z</time>
      </trkpt>
      <trkpt lat="45.417874250560999" lon="5.854958016425371">
        <ele>607.4000244140625</ele>
        <time>2014-05-18T10:18:28Z</time>
      </trkpt>
      <trkpt lat="45.417805770412087" lon="5.854892134666443">
        <ele>607</ele>
        <time>2014-05-18T10:18:30Z</time>
      </trkpt>
      <trkpt lat="45.417617429047823" lon="5.854756264016032">
        <ele>606.79998779296875</ele>
        <time>2014-05-18T10:18:35Z</time>
      </trkpt>
      <trkpt lat="45.417337976396084" lon="5.854661716148257">
        <ele>607.4000244140625</ele>
        <time>2014-05-18T10:18:42Z</time>
      </trkpt>
      <trkpt lat="45.417029187083244" lon="5.85462131537497">
        <ele>607.79998779296875</ele>
        <time>2014-05-18T10:18:50Z</time>
      </trkpt>
      <trkpt lat="45.416852412745357" lon="5.854579405859113">
        <ele>607.20001220703125</ele>
        <time>2014-05-18T10:18:55Z</time>
      </trkpt>
      <trkpt lat="45.416705729439855" lon="5.854504723101854">
        <ele>608.5999755859375</ele>
        <time>2014-05-18T10:19:00Z</time>
      </trkpt>
      <trkpt lat="45.416690558195114" lon="5.854484690353274">
        <ele>608.4000244140625</ele>
        <time>2014-05-18T10:19:01Z</time>
      </trkpt>
      <trkpt lat="45.416587041690946" lon="5.854362733662128">
        <ele>609.4000244140625</ele>
        <time>2014-05-18T10:19:07Z</time>
      </trkpt>
      <trkpt lat="45.416492829099298" lon="5.854276986792684">
        <ele>609.79998779296875</ele>
        <time>2014-05-18T10:19:11Z</time>
      </trkpt>
      <trkpt lat="45.41639132425189" lon="5.854275897145271">
        <ele>608.4000244140625</ele>
        <time>2014-05-18T10:19:14Z</time>
      </trkpt>
      <trkpt lat="45.416321754455566" lon="5.85431638173759">
        <ele>609.5999755859375</ele>
        <time>2014-05-18T10:19:17Z</time>
      </trkpt>
      <trkpt lat="45.416276073083282" lon="5.854355189949274">
        <ele>609.5999755859375</ele>
        <time>2014-05-18T10:19:18Z</time>
      </trkpt>
      <trkpt lat="45.416229637339711" lon="5.854392154142261">
        <ele>609.4000244140625</ele>
        <time>2014-05-18T10:19:19Z</time>
      </trkpt>
      <trkpt lat="45.416038781404495" lon="5.854484355077148">
        <ele>609.20001220703125</ele>
        <time>2014-05-18T10:19:24Z</time>
      </trkpt>
      <trkpt lat="45.415764190256596" lon="5.854577897116542">
        <ele>609.79998779296875</ele>
        <time>2014-05-18T10:19:31Z</time>
      </trkpt>
      <trkpt lat="45.415554223582149" lon="5.8546457067132">
        <ele>610.79998779296875</ele>
        <time>2014-05-18T10:19:37Z</time>
      </trkpt>
      <trkpt lat="45.415340065956116" lon="5.854671606794">
        <ele>611.5999755859375</ele>
        <time>2014-05-18T10:19:43Z</time>
      </trkpt>
      <trkpt lat="45.415275609120727" lon="5.854648221284151">
        <ele>611.79998779296875</ele>
        <time>2014-05-18T10:19:45Z</time>
      </trkpt>
      <trkpt lat="45.415254989638925" lon="5.854598265141249">
        <ele>612.20001220703125</ele>
        <time>2014-05-18T10:19:47Z</time>
      </trkpt>
      <trkpt lat="45.415227161720395" lon="5.854605389758945">
        <ele>612.20001220703125</ele>
        <time>2014-05-18T10:19:48Z</time>
      </trkpt>
      <trkpt lat="45.415171338245273" lon="5.854626344516873">
        <ele>612.20001220703125</ele>
        <time>2014-05-18T10:19:50Z</time>
      </trkpt>
      <trkpt lat="45.415106629952788" lon="5.854644449427724">
        <ele>612.4000244140625</ele>
        <time>2014-05-18T10:19:52Z</time>
      </trkpt>
      <trkpt lat="45.415029684081674" lon="5.85464277304709">
        <ele>612.5999755859375</ele>
        <time>2014-05-18T10:19:54Z</time>
      </trkpt>
      <trkpt lat="45.414894064888358" lon="5.854622572660446">
        <ele>613</ele>
        <time>2014-05-18T10:19:58Z</time>
      </trkpt>
      <trkpt lat="45.41478618979454" lon="5.854618716984987">
        <ele>613.20001220703125</ele>
        <time>2014-05-18T10:20:01Z</time>
      </trkpt>
      <trkpt lat="45.414676051586866" lon="5.854622488841415">
        <ele>614.20001220703125</ele>
        <time>2014-05-18T10:20:04Z</time>
      </trkpt>
      <trkpt lat="45.414612852036953" lon="5.8546198066324">
        <ele>614.20001220703125</ele>
        <time>2014-05-18T10:20:06Z</time>
      </trkpt>
      <trkpt lat="45.414432473480701" lon="5.854628942906857">
        <ele>614.20001220703125</ele>
        <time>2014-05-18T10:20:11Z</time>
      </trkpt>
      <trkpt lat="45.414145309478045" lon="5.85460564121604">
        <ele>614.5999755859375</ele>
        <time>2014-05-18T10:20:18Z</time>
      </trkpt>
      <trkpt lat="45.413963757455349" lon="5.854575298726559">
        <ele>615.20001220703125</ele>
        <time>2014-05-18T10:20:23Z</time>
      </trkpt>
      <trkpt lat="45.413859570398927" lon="5.854514865204692">
        <ele>615.4000244140625</ele>
        <time>2014-05-18T10:20:26Z</time>
      </trkpt>
      <trkpt lat="45.413732584565878" lon="5.854417886584997">
        <ele>616.4000244140625</ele>
        <time>2014-05-18T10:20:30Z</time>
      </trkpt>
      <trkpt lat="45.413645496591926" lon="5.854324009269476">
        <ele>616.79998779296875</ele>
        <time>2014-05-18T10:20:33Z</time>
      </trkpt>
      <trkpt lat="45.413568718358874" lon="5.854235244914889">
        <ele>617.4000244140625</ele>
        <time>2014-05-18T10:20:36Z</time>
      </trkpt>
      <trkpt lat="45.413476601243019" lon="5.854127705097199">
        <ele>617.5999755859375</ele>
        <time>2014-05-18T10:20:40Z</time>
      </trkpt>
      <trkpt lat="45.41339848190546" lon="5.854091495275497">
        <ele>618.5999755859375</ele>
        <time>2014-05-18T10:20:44Z</time>
      </trkpt>
      <trkpt lat="45.413385489955544" lon="5.854101218283176">
        <ele>618.79998779296875</ele>
        <time>2014-05-18T10:20:45Z</time>
      </trkpt>
      <trkpt lat="45.413321368396282" lon="5.854080514982343">
        <ele>619</ele>
        <time>2014-05-18T10:24:15Z</time>
      </trkpt>
      <trkpt lat="45.413268897682428" lon="5.853980267420411">
        <ele>619.5999755859375</ele>
        <time>2014-05-18T10:24:19Z</time>
      </trkpt>
      <trkpt lat="45.413249284029007" lon="5.853958977386355">
        <ele>619.5999755859375</ele>
        <time>2014-05-18T10:24:20Z</time>
      </trkpt>
      <trkpt lat="45.413229921832681" lon="5.853939112275839">
        <ele>619.5999755859375</ele>
        <time>2014-05-18T10:24:21Z</time>
      </trkpt>
      <trkpt lat="45.413075694814324" lon="5.853813551366329">
        <ele>620.4000244140625</ele>
        <time>2014-05-18T10:24:27Z</time>
      </trkpt>
      <trkpt lat="45.413048034533858" lon="5.853794272989035">
        <ele>620.79998779296875</ele>
        <time>2014-05-18T10:24:28Z</time>
      </trkpt>
      <trkpt lat="45.412889281287789" lon="5.853695785626769">
        <ele>622</ele>
        <time>2014-05-18T10:24:34Z</time>
      </trkpt>
      <trkpt lat="45.412723403424025" lon="5.853607775643468">
        <ele>623</ele>
        <time>2014-05-18T10:24:40Z</time>
      </trkpt>
      <trkpt lat="45.412633884698153" lon="5.853570979088545">
        <ele>623.5999755859375</ele>
        <time>2014-05-18T10:24:43Z</time>
      </trkpt>
      <trkpt lat="45.412557944655418" lon="5.853532589972019">
        <ele>624</ele>
        <time>2014-05-18T10:24:46Z</time>
      </trkpt>
      <trkpt lat="45.412504132837057" lon="5.853496715426445">
        <ele>624.4000244140625</ele>
        <time>2014-05-18T10:24:48Z</time>
      </trkpt>
      <trkpt lat="45.412416290491819" lon="5.853449106216431">
        <ele>624.79998779296875</ele>
        <time>2014-05-18T10:24:51Z</time>
      </trkpt>
      <trkpt lat="45.41238603182137" lon="5.853436700999737">
        <ele>625.20001220703125</ele>
        <time>2014-05-18T10:24:52Z</time>
      </trkpt>
      <trkpt lat="45.412300787866116" lon="5.853403760120273">
        <ele>625.5999755859375</ele>
        <time>2014-05-18T10:24:55Z</time>
      </trkpt>
      <trkpt lat="45.412122588604689" lon="5.853360760957003">
        <ele>626.20001220703125</ele>
        <time>2014-05-18T10:25:01Z</time>
      </trkpt>
      <trkpt lat="45.412094090133905" lon="5.853364700451493">
        <ele>626.4000244140625</ele>
        <time>2014-05-18T10:25:02Z</time>
      </trkpt>
      <trkpt lat="45.411965344101191" lon="5.853475676849484">
        <ele>626.20001220703125</ele>
        <time>2014-05-18T10:25:07Z</time>
      </trkpt>
      <trkpt lat="45.41187004186213" lon="5.853700982406735">
        <ele>627</ele>
        <time>2014-05-18T10:25:13Z</time>
      </trkpt>
      <trkpt lat="45.411871299147606" lon="5.853787483647466">
        <ele>627.4000244140625</ele>
        <time>2014-05-18T10:25:15Z</time>
      </trkpt>
      <trkpt lat="45.411883033812046" lon="5.853863591328263">
        <ele>628.5999755859375</ele>
        <time>2014-05-18T10:25:17Z</time>
      </trkpt>
      <trkpt lat="45.41188764385879" lon="5.853897370398045">
        <ele>628.79998779296875</ele>
        <time>2014-05-18T10:25:18Z</time>
      </trkpt>
      <trkpt lat="45.411914549767971" lon="5.853984542191029">
        <ele>629.5999755859375</ele>
        <time>2014-05-18T10:25:21Z</time>
      </trkpt>
      <trkpt lat="45.411966685205698" lon="5.854018907994032">
        <ele>630.20001220703125</ele>
        <time>2014-05-18T10:25:24Z</time>
      </trkpt>
      <trkpt lat="45.412048911675811" lon="5.854061488062143">
        <ele>630.79998779296875</ele>
        <time>2014-05-18T10:25:28Z</time>
      </trkpt>
      <trkpt lat="45.412154356017709" lon="5.854118065908551">
        <ele>631.5999755859375</ele>
        <time>2014-05-18T10:25:33Z</time>
      </trkpt>
      <trkpt lat="45.412220070138574" lon="5.854148576036096">
        <ele>631.79998779296875</ele>
        <time>2014-05-18T10:25:36Z</time>
      </trkpt>
      <trkpt lat="45.412287712097168" lon="5.854203728958964">
        <ele>632</ele>
        <time>2014-05-18T10:25:40Z</time>
      </trkpt>
      <trkpt lat="45.412348313257098" lon="5.85428268648684">
        <ele>633</ele>
        <time>2014-05-18T10:25:43Z</time>
      </trkpt>
      <trkpt lat="45.412393407896161" lon="5.854367259889841">
        <ele>633.79998779296875</ele>
        <time>2014-05-18T10:25:46Z</time>
      </trkpt>
      <trkpt lat="45.412425259128213" lon="5.854459796100855">
        <ele>634</ele>
        <time>2014-05-18T10:25:49Z</time>
      </trkpt>
      <trkpt lat="45.412445878610015" lon="5.854595080018044">
        <ele>635</ele>
        <time>2014-05-18T10:25:53Z</time>
      </trkpt>
      <trkpt lat="45.412484686821699" lon="5.854746708646417">
        <ele>636.20001220703125</ele>
        <time>2014-05-18T10:25:58Z</time>
      </trkpt>
      <trkpt lat="45.412519387900829" lon="5.854788366705179">
        <ele>636.79998779296875</ele>
        <time>2014-05-18T10:26:00Z</time>
      </trkpt>
      <trkpt lat="45.412595830857754" lon="5.854865480214357">
        <ele>637.4000244140625</ele>
        <time>2014-05-18T10:26:04Z</time>
      </trkpt>
      <trkpt lat="45.412644613534212" lon="5.854923399165273">
        <ele>637.5999755859375</ele>
        <time>2014-05-18T10:26:07Z</time>
      </trkpt>
      <trkpt lat="45.412691803649068" lon="5.855020377784967">
        <ele>638.5999755859375</ele>
        <time>2014-05-18T10:26:11Z</time>
      </trkpt>
      <trkpt lat="45.412700604647398" lon="5.855079051107168">
        <ele>639</ele>
        <time>2014-05-18T10:26:13Z</time>
      </trkpt>
      <trkpt lat="45.412700939923525" lon="5.855134287849069">
        <ele>640</ele>
        <time>2014-05-18T10:26:15Z</time>
      </trkpt>
      <trkpt lat="45.412694066762924" lon="5.855189608410001">
        <ele>641.4000244140625</ele>
        <time>2014-05-18T10:26:17Z</time>
      </trkpt>
      <trkpt lat="45.412680152803659" lon="5.855245348066092">
        <ele>642.4000244140625</ele>
        <time>2014-05-18T10:26:19Z</time>
      </trkpt>
      <trkpt lat="45.412672441452742" lon="5.855272505432367">
        <ele>642.20001220703125</ele>
        <time>2014-05-18T10:26:20Z</time>
      </trkpt>
      <trkpt lat="45.41263522580266" lon="5.855338638648391">
        <ele>641.5999755859375</ele>
        <time>2014-05-18T10:26:23Z</time>
      </trkpt>
      <trkpt lat="45.412587784230709" lon="5.855390354990959">
        <ele>642.5999755859375</ele>
        <time>2014-05-18T10:26:26Z</time>
      </trkpt>
      <trkpt lat="45.412469515576959" lon="5.855478029698134">
        <ele>643.4000244140625</ele>
        <time>2014-05-18T10:26:33Z</time>
      </trkpt>
      <trkpt lat="45.41236013174057" lon="5.855541564524174">
        <ele>644.5999755859375</ele>
        <time>2014-05-18T10:26:39Z</time>
      </trkpt>
      <trkpt lat="45.41234252974391" lon="5.855553969740868">
        <ele>644.79998779296875</ele>
        <time>2014-05-18T10:26:40Z</time>
      </trkpt>
      <trkpt lat="45.412270948290825" lon="5.855616331100464">
        <ele>645.79998779296875</ele>
        <time>2014-05-18T10:26:45Z</time>
      </trkpt>
      <trkpt lat="45.412258710712194" lon="5.855624880641699">
        <ele>646</ele>
        <time>2014-05-18T10:26:46Z</time>
      </trkpt>
      <trkpt lat="45.412248065695167" lon="5.855636447668076">
        <ele>646.20001220703125</ele>
        <time>2014-05-18T10:26:47Z</time>
      </trkpt>
      <trkpt lat="45.412201881408691" lon="5.855668466538191">
        <ele>646.79998779296875</ele>
        <time>2014-05-18T10:26:50Z</time>
      </trkpt>
      <trkpt lat="45.412183441221714" lon="5.855681207031012">
        <ele>647</ele>
        <time>2014-05-18T10:26:51Z</time>
      </trkpt>
      <trkpt lat="45.412142453715205" lon="5.855708867311478">
        <ele>648</ele>
        <time>2014-05-18T10:26:54Z</time>
      </trkpt>
      <trkpt lat="45.412122840061784" lon="5.855724373832345">
        <ele>648.4000244140625</ele>
        <time>2014-05-18T10:26:56Z</time>
      </trkpt>
      <trkpt lat="45.412111273035407" lon="5.855735605582595">
        <ele>648.5999755859375</ele>
        <time>2014-05-18T10:26:57Z</time>
      </trkpt>
      <trkpt lat="45.412053354084492" lon="5.85577005520463">
        <ele>649.20001220703125</ele>
        <time>2014-05-18T10:27:01Z</time>
      </trkpt>
      <trkpt lat="45.411997362971306" lon="5.855812802910805">
        <ele>649.79998779296875</ele>
        <time>2014-05-18T10:27:04Z</time>
      </trkpt>
      <trkpt lat="45.411968193948269" lon="5.8558389544487">
        <ele>650.20001220703125</ele>
        <time>2014-05-18T10:27:06Z</time>
      </trkpt>
      <trkpt lat="45.411899043247104" lon="5.855885306373239">
        <ele>650.79998779296875</ele>
        <time>2014-05-18T10:27:10Z</time>
      </trkpt>
      <trkpt lat="45.411873729899526" lon="5.85591028444469">
        <ele>651.20001220703125</ele>
        <time>2014-05-18T10:27:12Z</time>
      </trkpt>
      <trkpt lat="45.411818996071815" lon="5.855975411832333">
        <ele>652.20001220703125</ele>
        <time>2014-05-18T10:27:16Z</time>
      </trkpt>
      <trkpt lat="45.411800472065806" lon="5.8559909183532">
        <ele>652.4000244140625</ele>
        <time>2014-05-18T10:27:17Z</time>
      </trkpt>
      <trkpt lat="45.411725034937263" lon="5.856033246964216">
        <ele>653.5999755859375</ele>
        <time>2014-05-18T10:27:22Z</time>
      </trkpt>
      <trkpt lat="45.411697961390018" lon="5.856044478714466">
        <ele>654</ele>
        <time>2014-05-18T10:27:24Z</time>
      </trkpt>
      <trkpt lat="45.41165454313159" lon="5.856072809547186">
        <ele>654.5999755859375</ele>
        <time>2014-05-18T10:27:27Z</time>
      </trkpt>
      <trkpt lat="45.411607269197702" lon="5.856093093752861">
        <ele>655</ele>
        <time>2014-05-18T10:27:30Z</time>
      </trkpt>
      <trkpt lat="45.411552703008056" lon="5.856117820367217">
        <ele>655.79998779296875</ele>
        <time>2014-05-18T10:27:33Z</time>
      </trkpt>
      <trkpt lat="45.411492940038443" lon="5.856137685477734">
        <ele>656</ele>
        <time>2014-05-18T10:27:36Z</time>
      </trkpt>
      <trkpt lat="45.411457568407059" lon="5.856158304959536">
        <ele>656.4000244140625</ele>
        <time>2014-05-18T10:27:38Z</time>
      </trkpt>
      <trkpt lat="45.411429321393371" lon="5.856187222525477">
        <ele>657</ele>
        <time>2014-05-18T10:27:40Z</time>
      </trkpt>
      <trkpt lat="45.411415575072169" lon="5.856198621913791">
        <ele>657.20001220703125</ele>
        <time>2014-05-18T10:27:41Z</time>
      </trkpt>
      <trkpt lat="45.411374336108565" lon="5.85622888058424">
        <ele>657.5999755859375</ele>
        <time>2014-05-18T10:27:44Z</time>
      </trkpt>
      <trkpt lat="45.411343658342957" lon="5.856247236952186">
        <ele>658</ele>
        <time>2014-05-18T10:27:46Z</time>
      </trkpt>
      <trkpt lat="45.411310885101557" lon="5.856267521157861">
        <ele>658.5999755859375</ele>
        <time>2014-05-18T10:27:48Z</time>
      </trkpt>
      <trkpt lat="45.411299904808402" lon="5.856280848383904">
        <ele>658.79998779296875</ele>
        <time>2014-05-18T10:27:49Z</time>
      </trkpt>
      <trkpt lat="45.411275429651141" lon="5.856310520321131">
        <ele>659</ele>
        <time>2014-05-18T10:27:51Z</time>
      </trkpt>
      <trkpt lat="45.41126411408186" lon="5.856322003528476">
        <ele>659.20001220703125</ele>
        <time>2014-05-18T10:27:52Z</time>
      </trkpt>
      <trkpt lat="45.411193370819092" lon="5.856407582759857">
        <ele>660.20001220703125</ele>
        <time>2014-05-18T10:27:57Z</time>
      </trkpt>
      <trkpt lat="45.411120783537626" lon="5.856501292437315">
        <ele>661</ele>
        <time>2014-05-18T10:28:02Z</time>
      </trkpt>
      <trkpt lat="45.411093207076192" lon="5.856543704867363">
        <ele>661.4000244140625</ele>
        <time>2014-05-18T10:28:04Z</time>
      </trkpt>
      <trkpt lat="45.411078538745642" lon="5.856562480330467">
        <ele>661.5999755859375</ele>
        <time>2014-05-18T10:28:05Z</time>
      </trkpt>
      <trkpt lat="45.410985248163342" lon="5.856697931885719">
        <ele>662.5999755859375</ele>
        <time>2014-05-18T10:28:11Z</time>
      </trkpt>
      <trkpt lat="45.410970160737634" lon="5.856714695692062">
        <ele>662.79998779296875</ele>
        <time>2014-05-18T10:28:12Z</time>
      </trkpt>
      <trkpt lat="45.410927496850491" lon="5.856784684583545">
        <ele>663.4000244140625</ele>
        <time>2014-05-18T10:28:15Z</time>
      </trkpt>
      <trkpt lat="45.410916181281209" lon="5.856809495016933">
        <ele>663.79998779296875</ele>
        <time>2014-05-18T10:28:16Z</time>
      </trkpt>
      <trkpt lat="45.410893466323614" lon="5.856839837506414">
        <ele>664.20001220703125</ele>
        <time>2014-05-18T10:28:18Z</time>
      </trkpt>
      <trkpt lat="45.410858932882547" lon="5.856889206916094">
        <ele>664.79998779296875</ele>
        <time>2014-05-18T10:28:21Z</time>
      </trkpt>
      <trkpt lat="45.410825908184052" lon="5.856919130310416">
        <ele>665.20001220703125</ele>
        <time>2014-05-18T10:28:23Z</time>
      </trkpt>
      <trkpt lat="45.410809395834804" lon="5.856937654316425">
        <ele>665.4000244140625</ele>
        <time>2014-05-18T10:28:24Z</time>
      </trkpt>
      <trkpt lat="45.41076379828155" lon="5.856970092281699">
        <ele>666</ele>
        <time>2014-05-18T10:28:27Z</time>
      </trkpt>
      <trkpt lat="45.410717194899917" lon="5.856995237991214">
        <ele>666.5999755859375</ele>
        <time>2014-05-18T10:28:29Z</time>
      </trkpt>
      <trkpt lat="45.410658521577716" lon="5.857014348730445">
        <ele>667</ele>
        <time>2014-05-18T10:28:32Z</time>
      </trkpt>
      <trkpt lat="45.410614684224129" lon="5.85703463293612">
        <ele>667.20001220703125</ele>
        <time>2014-05-18T10:28:34Z</time>
      </trkpt>
      <trkpt lat="45.410548383370042" lon="5.857062209397554">
        <ele>667.79998779296875</ele>
        <time>2014-05-18T10:28:37Z</time>
      </trkpt>
      <trkpt lat="45.410506557673216" lon="5.857077296823263">
        <ele>668.20001220703125</ele>
        <time>2014-05-18T10:28:39Z</time>
      </trkpt>
      <trkpt lat="45.410396922379732" lon="5.857093557715416">
        <ele>669.4000244140625</ele>
        <time>2014-05-18T10:28:45Z</time>
      </trkpt>
      <trkpt lat="45.410276306793094" lon="5.857063885778189">
        <ele>670.5999755859375</ele>
        <time>2014-05-18T10:28:52Z</time>
      </trkpt>
      <trkpt lat="45.410261554643512" lon="5.857050055637956">
        <ele>670.5999755859375</ele>
        <time>2014-05-18T10:28:53Z</time>
      </trkpt>
      <trkpt lat="45.410222578793764" lon="5.856997752562165">
        <ele>671.79998779296875</ele>
        <time>2014-05-18T10:28:56Z</time>
      </trkpt>
      <trkpt lat="45.410214615985751" lon="5.856957267969847">
        <ele>672.4000244140625</ele>
        <time>2014-05-18T10:28:58Z</time>
      </trkpt>
      <trkpt lat="45.410216879099607" lon="5.856933714821935">
        <ele>672.79998779296875</ele>
        <time>2014-05-18T10:28:59Z</time>
      </trkpt>
      <trkpt lat="45.410220148041844" lon="5.856906808912754">
        <ele>673</ele>
        <time>2014-05-18T10:29:00Z</time>
      </trkpt>
      <trkpt lat="45.410258872434497" lon="5.856795497238636">
        <ele>673.4000244140625</ele>
        <time>2014-05-18T10:29:05Z</time>
      </trkpt>
      <trkpt lat="45.410290891304612" lon="5.856765657663345">
        <ele>673.5999755859375</ele>
        <time>2014-05-18T10:29:07Z</time>
      </trkpt>
      <trkpt lat="45.410333722829819" lon="5.856745038181543">
        <ele>674</ele>
        <time>2014-05-18T10:29:09Z</time>
      </trkpt>
      <trkpt lat="45.410372531041503" lon="5.85671360604465">
        <ele>674.20001220703125</ele>
        <time>2014-05-18T10:29:11Z</time>
      </trkpt>
      <trkpt lat="45.410452578216791" lon="5.856620902195573">
        <ele>675</ele>
        <time>2014-05-18T10:29:16Z</time>
      </trkpt>
      <trkpt lat="45.410504043102264" lon="5.856512859463692">
        <ele>675.20001220703125</ele>
        <time>2014-05-18T10:29:20Z</time>
      </trkpt>
      <trkpt lat="45.410546371713281" lon="5.856424095109105">
        <ele>676.20001220703125</ele>
        <time>2014-05-18T10:29:23Z</time>
      </trkpt>
      <trkpt lat="45.410594064742327" lon="5.856284452602267">
        <ele>677</ele>
        <time>2014-05-18T10:29:28Z</time>
      </trkpt>
      <trkpt lat="45.410617869347334" lon="5.856228293851018">
        <ele>677.20001220703125</ele>
        <time>2014-05-18T10:29:30Z</time>
      </trkpt>
      <trkpt lat="45.410655001178384" lon="5.856084208935499">
        <ele>677.79998779296875</ele>
        <time>2014-05-18T10:29:35Z</time>
      </trkpt>
      <trkpt lat="45.410658605396748" lon="5.855990666896105">
        <ele>678.4000244140625</ele>
        <time>2014-05-18T10:29:39Z</time>
      </trkpt>
      <trkpt lat="45.410651480779052" lon="5.85596795193851">
        <ele>678.79998779296875</ele>
        <time>2014-05-18T10:29:40Z</time>
      </trkpt>
      <trkpt lat="45.41063622571528" lon="5.855924617499113">
        <ele>678.79998779296875</ele>
        <time>2014-05-18T10:29:42Z</time>
      </trkpt>
      <trkpt lat="45.410577803850174" lon="5.855873236432672">
        <ele>679.4000244140625</ele>
        <time>2014-05-18T10:29:46Z</time>
      </trkpt>
      <trkpt lat="45.410559866577387" lon="5.855869045481086">
        <ele>679.4000244140625</ele>
        <time>2014-05-18T10:29:47Z</time>
      </trkpt>
      <trkpt lat="45.410486022010446" lon="5.855866447091103">
        <ele>680</ele>
        <time>2014-05-18T10:29:51Z</time>
      </trkpt>
      <trkpt lat="45.410469425842166" lon="5.855878600850701">
        <ele>680.20001220703125</ele>
        <time>2014-05-18T10:29:52Z</time>
      </trkpt>
      <trkpt lat="45.410452494397759" lon="5.855889497324824">
        <ele>680.4000244140625</ele>
        <time>2014-05-18T10:29:53Z</time>
      </trkpt>
      <trkpt lat="45.410337578505278" lon="5.855939537286758">
        <ele>681.4000244140625</ele>
        <time>2014-05-18T10:29:59Z</time>
      </trkpt>
      <trkpt lat="45.410205395892262" lon="5.855935765430331">
        <ele>682.4000244140625</ele>
        <time>2014-05-18T10:30:05Z</time>
      </trkpt>
      <trkpt lat="45.410189302638173" lon="5.855922186747193">
        <ele>682.4000244140625</ele>
        <time>2014-05-18T10:30:06Z</time>
      </trkpt>
      <trkpt lat="45.410114452242851" lon="5.855849515646696">
        <ele>683.4000244140625</ele>
        <time>2014-05-18T10:30:11Z</time>
      </trkpt>
      <trkpt lat="45.410106405615807" lon="5.855834092944861">
        <ele>683.4000244140625</ele>
        <time>2014-05-18T10:30:12Z</time>
      </trkpt>
      <trkpt lat="45.41009190492332" lon="5.855795536190271">
        <ele>683.5999755859375</ele>
        <time>2014-05-18T10:30:14Z</time>
      </trkpt>
      <trkpt lat="45.410070866346359" lon="5.855710962787271">
        <ele>684.79998779296875</ele>
        <time>2014-05-18T10:30:18Z</time>
      </trkpt>
      <trkpt lat="45.410043960437179" lon="5.855604596436024">
        <ele>686</ele>
        <time>2014-05-18T10:30:23Z</time>
      </trkpt>
      <trkpt lat="45.410023676231503" lon="5.855555310845375">
        <ele>686.20001220703125</ele>
        <time>2014-05-18T10:30:25Z</time>
      </trkpt>
      <trkpt lat="45.409964583814144" lon="5.855443496257067">
        <ele>687.20001220703125</ele>
        <time>2014-05-18T10:30:30Z</time>
      </trkpt>
      <trkpt lat="45.409902641549706" lon="5.855346769094467">
        <ele>688</ele>
        <time>2014-05-18T10:30:35Z</time>
      </trkpt>
      <trkpt lat="45.409887470304966" lon="5.855331178754568">
        <ele>688.20001220703125</ele>
        <time>2014-05-18T10:30:36Z</time>
      </trkpt>
      <trkpt lat="45.40979384444654" lon="5.85523989982903">
        <ele>689.20001220703125</ele>
        <time>2014-05-18T10:30:42Z</time>
      </trkpt>
      <trkpt lat="45.409766687080264" lon="5.855210311710835">
        <ele>689.4000244140625</ele>
        <time>2014-05-18T10:30:44Z</time>
      </trkpt>
      <trkpt lat="45.409648418426514" lon="5.855123559013009">
        <ele>690.20001220703125</ele>
        <time>2014-05-18T10:30:51Z</time>
      </trkpt>
      <trkpt lat="45.409617908298969" lon="5.855102352797985">
        <ele>690.5999755859375</ele>
        <time>2014-05-18T10:30:53Z</time>
      </trkpt>
      <trkpt lat="45.409540878608823" lon="5.855041248723865">
        <ele>691.5999755859375</ele>
        <time>2014-05-18T10:30:58Z</time>
      </trkpt>
      <trkpt lat="45.4095109552145" lon="5.855014175176621">
        <ele>691.79998779296875</ele>
        <time>2014-05-18T10:31:00Z</time>
      </trkpt>
      <trkpt lat="45.409451946616173" lon="5.85496673360467">
        <ele>692.5999755859375</ele>
        <time>2014-05-18T10:31:04Z</time>
      </trkpt>
      <trkpt lat="45.409419843927026" lon="5.854941504076123">
        <ele>693</ele>
        <time>2014-05-18T10:31:06Z</time>
      </trkpt>
      <trkpt lat="45.40933795273304" lon="5.854881489649415">
        <ele>693.79998779296875</ele>
        <time>2014-05-18T10:31:11Z</time>
      </trkpt>
      <trkpt lat="45.409292858093977" lon="5.85484653711319">
        <ele>694.20001220703125</ele>
        <time>2014-05-18T10:31:14Z</time>
      </trkpt>
      <trkpt lat="45.409247595816851" lon="5.854805381968617">
        <ele>695</ele>
        <time>2014-05-18T10:31:17Z</time>
      </trkpt>
      <trkpt lat="45.409163609147072" lon="5.854734973981977">
        <ele>695.79998779296875</ele>
        <time>2014-05-18T10:31:22Z</time>
      </trkpt>
      <trkpt lat="45.409135026857257" lon="5.854704547673464">
        <ele>696.20001220703125</ele>
        <time>2014-05-18T10:31:24Z</time>
      </trkpt>
      <trkpt lat="45.409054979681969" lon="5.854611257091165">
        <ele>697.20001220703125</ele>
        <time>2014-05-18T10:31:30Z</time>
      </trkpt>
      <trkpt lat="45.409039054065943" lon="5.854595499113202">
        <ele>697.4000244140625</ele>
        <time>2014-05-18T10:31:31Z</time>
      </trkpt>
      <trkpt lat="45.408938806504011" lon="5.854525426402688">
        <ele>698.4000244140625</ele>
        <time>2014-05-18T10:31:37Z</time>
      </trkpt>
      <trkpt lat="45.408904608339071" lon="5.85450941696763">
        <ele>698.79998779296875</ele>
        <time>2014-05-18T10:31:39Z</time>
      </trkpt>
      <trkpt lat="45.408843420445919" lon="5.854495167732239">
        <ele>699.5999755859375</ele>
        <time>2014-05-18T10:31:43Z</time>
      </trkpt>
      <trkpt lat="45.408820705488324" lon="5.854509165510535">
        <ele>699.79998779296875</ele>
        <time>2014-05-18T10:31:45Z</time>
      </trkpt>
      <trkpt lat="45.408790362998843" lon="5.854546716436744">
        <ele>700.4000244140625</ele>
        <time>2014-05-18T10:31:48Z</time>
      </trkpt>
      <trkpt lat="45.408782651647925" lon="5.854571107774973">
        <ele>700.5999755859375</ele>
        <time>2014-05-18T10:31:49Z</time>
      </trkpt>
      <trkpt lat="45.408765971660614" lon="5.854638917371631">
        <ele>701</ele>
        <time>2014-05-18T10:31:51Z</time>
      </trkpt>
      <trkpt lat="45.408782484009862" lon="5.854834718629718">
        <ele>701.79998779296875</ele>
        <time>2014-05-18T10:31:57Z</time>
      </trkpt>
      <trkpt lat="45.408856915310025" lon="5.854961536824703">
        <ele>702.79998779296875</ele>
        <time>2014-05-18T10:32:03Z</time>
      </trkpt>
      <trkpt lat="45.408868147060275" lon="5.85498433560133">
        <ele>702.79998779296875</ele>
        <time>2014-05-18T10:32:04Z</time>
      </trkpt>
      <trkpt lat="45.408926233649254" lon="5.85511333309114">
        <ele>703.5999755859375</ele>
        <time>2014-05-18T10:32:10Z</time>
      </trkpt>
      <trkpt lat="45.408932603895664" lon="5.855132611468434">
        <ele>703.79998779296875</ele>
        <time>2014-05-18T10:32:11Z</time>
      </trkpt>
      <trkpt lat="45.408956743776798" lon="5.855197319760919">
        <ele>704.79998779296875</ele>
        <time>2014-05-18T10:32:14Z</time>
      </trkpt>
      <trkpt lat="45.408989433199167" lon="5.855308379977942">
        <ele>706</ele>
        <time>2014-05-18T10:32:19Z</time>
      </trkpt>
      <trkpt lat="45.408999491482973" lon="5.855364454910159">
        <ele>706.20001220703125</ele>
        <time>2014-05-18T10:32:21Z</time>
      </trkpt>
      <trkpt lat="45.409058919176459" lon="5.855553131550551">
        <ele>707</ele>
        <time>2014-05-18T10:32:28Z</time>
      </trkpt>
      <trkpt lat="45.409107450395823" lon="5.855705849826336">
        <ele>708</ele>
        <time>2014-05-18T10:32:34Z</time>
      </trkpt>
      <trkpt lat="45.409136367961764" lon="5.855775503441691">
        <ele>708.5999755859375</ele>
        <time>2014-05-18T10:32:37Z</time>
      </trkpt>
      <trkpt lat="45.409158915281296" lon="5.85584532469511">
        <ele>709.20001220703125</ele>
        <time>2014-05-18T10:32:40Z</time>
      </trkpt>
      <trkpt lat="45.409184144809842" lon="5.855955127626658">
        <ele>710.20001220703125</ele>
        <time>2014-05-18T10:32:44Z</time>
      </trkpt>
      <trkpt lat="45.409188671037555" lon="5.855984799563885">
        <ele>710.4000244140625</ele>
        <time>2014-05-18T10:32:45Z</time>
      </trkpt>
      <trkpt lat="45.409175679087639" lon="5.85607741959393">
        <ele>711.5999755859375</ele>
        <time>2014-05-18T10:32:49Z</time>
      </trkpt>
      <trkpt lat="45.409157825633883" lon="5.856113713234663">
        <ele>712.20001220703125</ele>
        <time>2014-05-18T10:32:51Z</time>
      </trkpt>
      <trkpt lat="45.409121615812182" lon="5.856138356029987">
        <ele>712.79998779296875</ele>
        <time>2014-05-18T10:32:53Z</time>
      </trkpt>
      <trkpt lat="45.409054979681969" lon="5.856155538931489">
        <ele>713.4000244140625</ele>
        <time>2014-05-18T10:32:56Z</time>
      </trkpt>
      <trkpt lat="45.409010639414191" lon="5.856166016310453">
        <ele>713.79998779296875</ele>
        <time>2014-05-18T10:32:58Z</time>
      </trkpt>
      <trkpt lat="45.408930759876966" lon="5.856177331879735">
        <ele>714.20001220703125</ele>
        <time>2014-05-18T10:33:01Z</time>
      </trkpt>
      <trkpt lat="45.408752728253603" lon="5.856222426518798">
        <ele>714.79998779296875</ele>
        <time>2014-05-18T10:33:08Z</time>
      </trkpt>
      <trkpt lat="45.408705789595842" lon="5.856228461489081">
        <ele>715</ele>
        <time>2014-05-18T10:33:10Z</time>
      </trkpt>
      <trkpt lat="45.408560950309038" lon="5.856309263035655">
        <ele>715.4000244140625</ele>
        <time>2014-05-18T10:33:16Z</time>
      </trkpt>
      <trkpt lat="45.408470844849944" lon="5.856375144794583">
        <ele>716</ele>
        <time>2014-05-18T10:33:20Z</time>
      </trkpt>
      <trkpt lat="45.408408818766475" lon="5.85643457248807">
        <ele>716.4000244140625</ele>
        <time>2014-05-18T10:33:23Z</time>
      </trkpt>
      <trkpt lat="45.408332124352455" lon="5.856520654633641">
        <ele>717.20001220703125</ele>
        <time>2014-05-18T10:33:27Z</time>
      </trkpt>
      <trkpt lat="45.408256771042943" lon="5.856599695980549">
        <ele>717.79998779296875</ele>
        <time>2014-05-18T10:33:31Z</time>
      </trkpt>
      <trkpt lat="45.408171359449625" lon="5.856660548597574">
        <ele>718.20001220703125</ele>
        <time>2014-05-18T10:33:35Z</time>
      </trkpt>
      <trkpt lat="45.408096928149462" lon="5.856723329052329">
        <ele>718.79998779296875</ele>
        <time>2014-05-18T10:33:39Z</time>
      </trkpt>
      <trkpt lat="45.408030962571502" lon="5.856750821694732">
        <ele>719.4000244140625</ele>
        <time>2014-05-18T10:33:42Z</time>
      </trkpt>
      <trkpt lat="45.407941779121757" lon="5.856794826686382">
        <ele>720.20001220703125</ele>
        <time>2014-05-18T10:33:46Z</time>
      </trkpt>
      <trkpt lat="45.407900204882026" lon="5.856817541643977">
        <ele>720.5999755859375</ele>
        <time>2014-05-18T10:33:48Z</time>
      </trkpt>
      <trkpt lat="45.407737595960498" lon="5.856931367889047">
        <ele>721.4000244140625</ele>
        <time>2014-05-18T10:33:55Z</time>
      </trkpt>
      <trkpt lat="45.407714629545808" lon="5.856953831389546">
        <ele>721.5999755859375</ele>
        <time>2014-05-18T10:33:56Z</time>
      </trkpt>
      <trkpt lat="45.407615136355162" lon="5.85705516859889">
        <ele>722.4000244140625</ele>
        <time>2014-05-18T10:34:01Z</time>
      </trkpt>
      <trkpt lat="45.407573394477367" lon="5.857091629877687">
        <ele>722.5999755859375</ele>
        <time>2014-05-18T10:34:03Z</time>
      </trkpt>
      <trkpt lat="45.407467531040311" lon="5.857150303199887">
        <ele>723.4000244140625</ele>
        <time>2014-05-18T10:34:07Z</time>
      </trkpt>
      <trkpt lat="45.407364517450333" lon="5.85722029209137">
        <ele>723.79998779296875</ele>
        <time>2014-05-18T10:34:11Z</time>
      </trkpt>
      <trkpt lat="45.407281368970871" lon="5.857279887422919">
        <ele>723.79998779296875</ele>
        <time>2014-05-18T10:34:14Z</time>
      </trkpt>
      <trkpt lat="45.407081209123135" lon="5.857405699789524">
        <ele>724.20001220703125</ele>
        <time>2014-05-18T10:34:21Z</time>
      </trkpt>
      <trkpt lat="45.40689772926271" lon="5.857379296794534">
        <ele>724.5999755859375</ele>
        <time>2014-05-18T10:34:27Z</time>
      </trkpt>
      <trkpt lat="45.406849952414632" lon="5.857335375621915">
        <ele>724.79998779296875</ele>
        <time>2014-05-18T10:34:29Z</time>
      </trkpt>
      <trkpt lat="45.406752219423652" lon="5.857219872996211">
        <ele>725.20001220703125</ele>
        <time>2014-05-18T10:34:33Z</time>
      </trkpt>
      <trkpt lat="45.406656665727496" lon="5.857103364542127">
        <ele>726</ele>
        <time>2014-05-18T10:34:37Z</time>
      </trkpt>
      <trkpt lat="45.406569661572576" lon="5.856977300718427">
        <ele>726.5999755859375</ele>
        <time>2014-05-18T10:34:41Z</time>
      </trkpt>
      <trkpt lat="45.406499253585935" lon="5.856877891346812">
        <ele>727.20001220703125</ele>
        <time>2014-05-18T10:34:44Z</time>
      </trkpt>
      <trkpt lat="45.406377883628011" lon="5.856704385951161">
        <ele>727.20001220703125</ele>
        <time>2014-05-18T10:34:49Z</time>
      </trkpt>
      <trkpt lat="45.406284425407648" lon="5.856573292985559">
        <ele>728.20001220703125</ele>
        <time>2014-05-18T10:34:53Z</time>
      </trkpt>
      <trkpt lat="45.406235139816999" lon="5.856525935232639">
        <ele>729.4000244140625</ele>
        <time>2014-05-18T10:34:55Z</time>
      </trkpt>
      <trkpt lat="45.406215526163578" lon="5.856499699875712">
        <ele>729.79998779296875</ele>
        <time>2014-05-18T10:34:56Z</time>
      </trkpt>
      <trkpt lat="45.406077392399311" lon="5.856380760669708">
        <ele>730</ele>
        <time>2014-05-18T10:35:02Z</time>
      </trkpt>
      <trkpt lat="45.405942359939218" lon="5.856325104832649">
        <ele>730.5999755859375</ele>
        <time>2014-05-18T10:35:07Z</time>
      </trkpt>
      <trkpt lat="45.405837167054415" lon="5.856314627453685">
        <ele>731.4000244140625</ele>
        <time>2014-05-18T10:35:11Z</time>
      </trkpt>
      <trkpt lat="45.405811266973615" lon="5.85631487891078">
        <ele>731.5999755859375</ele>
        <time>2014-05-18T10:35:12Z</time>
      </trkpt>
      <trkpt lat="45.405693165957928" lon="5.856324434280396">
        <ele>732.5999755859375</ele>
        <time>2014-05-18T10:35:17Z</time>
      </trkpt>
      <trkpt lat="45.405665338039398" lon="5.856324434280396">
        <ele>732.79998779296875</ele>
        <time>2014-05-18T10:35:18Z</time>
      </trkpt>
      <trkpt lat="45.40553298778832" lon="5.856330469250679">
        <ele>733.79998779296875</ele>
        <time>2014-05-18T10:35:24Z</time>
      </trkpt>
      <trkpt lat="45.405489653348923" lon="5.856329463422298">
        <ele>734</ele>
        <time>2014-05-18T10:35:26Z</time>
      </trkpt>
      <trkpt lat="45.405371803790331" lon="5.856351759284735">
        <ele>735</ele>
        <time>2014-05-18T10:35:32Z</time>
      </trkpt>
      <trkpt lat="45.405351435765624" lon="5.856354022398591">
        <ele>735.20001220703125</ele>
        <time>2014-05-18T10:35:33Z</time>
      </trkpt>
      <trkpt lat="45.405229311436415" lon="5.856367349624634">
        <ele>736</ele>
        <time>2014-05-18T10:35:39Z</time>
      </trkpt>
      <trkpt lat="45.40518949739635" lon="5.856365505605936">
        <ele>736.20001220703125</ele>
        <time>2014-05-18T10:35:41Z</time>
      </trkpt>
      <trkpt lat="45.405075587332249" lon="5.856387382373214">
        <ele>737.20001220703125</ele>
        <time>2014-05-18T10:35:46Z</time>
      </trkpt>
      <trkpt lat="45.405026469379663" lon="5.856387885287404">
        <ele>737.20001220703125</ele>
        <time>2014-05-18T10:35:48Z</time>
      </trkpt>
      <trkpt lat="45.404875092208385" lon="5.856404816731811">
        <ele>738.4000244140625</ele>
        <time>2014-05-18T10:35:55Z</time>
      </trkpt>
      <trkpt lat="45.404739556834102" lon="5.85641604848206">
        <ele>738.5999755859375</ele>
        <time>2014-05-18T10:36:00Z</time>
      </trkpt>
      <trkpt lat="45.404610559344292" lon="5.856424011290073">
        <ele>739.4000244140625</ele>
        <time>2014-05-18T10:36:05Z</time>
      </trkpt>
      <trkpt lat="45.404498828575015" lon="5.856442786753178">
        <ele>739.79998779296875</ele>
        <time>2014-05-18T10:36:09Z</time>
      </trkpt>
      <trkpt lat="45.404306128621101" lon="5.856464998796582">
        <ele>740.5999755859375</ele>
        <time>2014-05-18T10:36:16Z</time>
      </trkpt>
      <trkpt lat="45.40427871979773" lon="5.856466088443995">
        <ele>740.79998779296875</ele>
        <time>2014-05-18T10:36:17Z</time>
      </trkpt>
      <trkpt lat="45.40412038564682" lon="5.856520403176546">
        <ele>741.20001220703125</ele>
        <time>2014-05-18T10:36:23Z</time>
      </trkpt>
      <trkpt lat="45.404043104499578" lon="5.856577986851335">
        <ele>741.5999755859375</ele>
        <time>2014-05-18T10:36:26Z</time>
      </trkpt>
      <trkpt lat="45.403897343203425" lon="5.856673708185554">
        <ele>742.5999755859375</ele>
        <time>2014-05-18T10:36:32Z</time>
      </trkpt>
      <trkpt lat="45.403779996559024" lon="5.856730286031961">
        <ele>743.5999755859375</ele>
        <time>2014-05-18T10:36:37Z</time>
      </trkpt>
      <trkpt lat="45.403755437582731" lon="5.856734225526452">
        <ele>743.79998779296875</ele>
        <time>2014-05-18T10:36:38Z</time>
      </trkpt>
      <trkpt lat="45.403639264404774" lon="5.856728609651327">
        <ele>744.79998779296875</ele>
        <time>2014-05-18T10:36:43Z</time>
      </trkpt>
      <trkpt lat="45.403617387637496" lon="5.856725424528122">
        <ele>745</ele>
        <time>2014-05-18T10:36:44Z</time>
      </trkpt>
      <trkpt lat="45.403516385704279" lon="5.856698183342814">
        <ele>745.79998779296875</ele>
        <time>2014-05-18T10:36:49Z</time>
      </trkpt>
      <trkpt lat="45.403472380712628" lon="5.856697931885719">
        <ele>746.20001220703125</ele>
        <time>2014-05-18T10:36:51Z</time>
      </trkpt>
      <trkpt lat="45.403356794267893" lon="5.856691226363182">
        <ele>747</ele>
        <time>2014-05-18T10:36:56Z</time>
      </trkpt>
      <trkpt lat="45.403334330767393" lon="5.856686867773533">
        <ele>747.20001220703125</ele>
        <time>2014-05-18T10:36:57Z</time>
      </trkpt>
      <trkpt lat="45.403186809271574" lon="5.856718299910426">
        <ele>748</ele>
        <time>2014-05-18T10:37:04Z</time>
      </trkpt>
      <trkpt lat="45.40316903963685" lon="5.856737494468689">
        <ele>748.4000244140625</ele>
        <time>2014-05-18T10:37:05Z</time>
      </trkpt>
      <trkpt lat="45.40310894139111" lon="5.856857774779201">
        <ele>749.20001220703125</ele>
        <time>2014-05-18T10:37:10Z</time>
      </trkpt>
      <trkpt lat="45.4030991345644" lon="5.85688903927803">
        <ele>749.4000244140625</ele>
        <time>2014-05-18T10:37:11Z</time>
      </trkpt>
      <trkpt lat="45.403053620830178" lon="5.857066903263331">
        <ele>750.20001220703125</ele>
        <time>2014-05-18T10:37:17Z</time>
      </trkpt>
      <trkpt lat="45.403047585859895" lon="5.857094479724765">
        <ele>750.4000244140625</ele>
        <time>2014-05-18T10:37:18Z</time>
      </trkpt>
      <trkpt lat="45.403019841760397" lon="5.857206545770168">
        <ele>751.4000244140625</ele>
        <time>2014-05-18T10:37:22Z</time>
      </trkpt>
      <trkpt lat="45.403003664687276" lon="5.857288604602218">
        <ele>752</ele>
        <time>2014-05-18T10:37:25Z</time>
      </trkpt>
      <trkpt lat="45.402986649423838" lon="5.857339985668659">
        <ele>752.4000244140625</ele>
        <time>2014-05-18T10:37:27Z</time>
      </trkpt>
      <trkpt lat="45.402948679402471" lon="5.857497146353126">
        <ele>753.4000244140625</ele>
        <time>2014-05-18T10:37:33Z</time>
      </trkpt>
      <trkpt lat="45.402901824563742" lon="5.857662772759795">
        <ele>754.5999755859375</ele>
        <time>2014-05-18T10:37:39Z</time>
      </trkpt>
      <trkpt lat="45.402886066585779" lon="5.857712058350444">
        <ele>755.20001220703125</ele>
        <time>2014-05-18T10:37:41Z</time>
      </trkpt>
      <trkpt lat="45.402843486517668" lon="5.857842648401856">
        <ele>755.5999755859375</ele>
        <time>2014-05-18T10:37:46Z</time>
      </trkpt>
      <trkpt lat="45.402830494567752" lon="5.857861423864961">
        <ele>755.79998779296875</ele>
        <time>2014-05-18T10:37:47Z</time>
      </trkpt>
      <trkpt lat="45.402759583666921" lon="5.857965275645256">
        <ele>757</ele>
        <time>2014-05-18T10:37:53Z</time>
      </trkpt>
      <trkpt lat="45.402681799605489" lon="5.858044736087322">
        <ele>758</ele>
        <time>2014-05-18T10:37:59Z</time>
      </trkpt>
      <trkpt lat="45.402664197608829" lon="5.85805244743824">
        <ele>758.20001220703125</ele>
        <time>2014-05-18T10:38:00Z</time>
      </trkpt>
      <trkpt lat="45.402575600892305" lon="5.858066948130727">
        <ele>759.4000244140625</ele>
        <time>2014-05-18T10:38:05Z</time>
      </trkpt>
      <trkpt lat="45.402519525960088" lon="5.85807834751904">
        <ele>760</ele>
        <time>2014-05-18T10:38:08Z</time>
      </trkpt>
      <trkpt lat="45.402459343895316" lon="5.858074156567454">
        <ele>760.4000244140625</ele>
        <time>2014-05-18T10:38:11Z</time>
      </trkpt>
      <trkpt lat="45.402369741350412" lon="5.858041299507022">
        <ele>761.4000244140625</ele>
        <time>2014-05-18T10:38:16Z</time>
      </trkpt>
      <trkpt lat="45.402352474629879" lon="5.858030738309026">
        <ele>761.4000244140625</ele>
        <time>2014-05-18T10:38:17Z</time>
      </trkpt>
      <trkpt lat="45.402251807972789" lon="5.857969969511032">
        <ele>762.5999755859375</ele>
        <time>2014-05-18T10:38:23Z</time>
      </trkpt>
      <trkpt lat="45.402161367237568" lon="5.85789998061955">
        <ele>763.79998779296875</ele>
        <time>2014-05-18T10:38:29Z</time>
      </trkpt>
      <trkpt lat="45.402118284255266" lon="5.857868045568466">
        <ele>764.20001220703125</ele>
        <time>2014-05-18T10:38:32Z</time>
      </trkpt>
      <trkpt lat="45.402072854340076" lon="5.857841055840254">
        <ele>764.79998779296875</ele>
        <time>2014-05-18T10:38:35Z</time>
      </trkpt>
      <trkpt lat="45.40198802947998" lon="5.857771821320057">
        <ele>765.79998779296875</ele>
        <time>2014-05-18T10:38:41Z</time>
      </trkpt>
      <trkpt lat="45.401974786072969" lon="5.857761176303029">
        <ele>765.79998779296875</ele>
        <time>2014-05-18T10:38:42Z</time>
      </trkpt>
      <trkpt lat="45.401896750554442" lon="5.857698144391179">
        <ele>766.5999755859375</ele>
        <time>2014-05-18T10:38:48Z</time>
      </trkpt>
      <trkpt lat="45.401862971484661" lon="5.857678446918726">
        <ele>767</ele>
        <time>2014-05-18T10:38:50Z</time>
      </trkpt>
      <trkpt lat="45.401759454980493" lon="5.85761952213943">
        <ele>768</ele>
        <time>2014-05-18T10:38:56Z</time>
      </trkpt>
      <trkpt lat="45.401666332036257" lon="5.857526399195194">
        <ele>769.20001220703125</ele>
        <time>2014-05-18T10:39:03Z</time>
      </trkpt>
      <trkpt lat="45.401610257104039" lon="5.857540899887681">
        <ele>770</ele>
        <time>2014-05-18T10:41:51Z</time>
      </trkpt>
      <trkpt lat="45.401583686470985" lon="5.857537798583508">
        <ele>770</ele>
        <time>2014-05-18T10:41:53Z</time>
      </trkpt>
      <trkpt lat="45.401566587388515" lon="5.857529332861304">
        <ele>770.20001220703125</ele>
        <time>2014-05-18T10:41:54Z</time>
      </trkpt>
      <trkpt lat="45.401551248505712" lon="5.857508629560471">
        <ele>770.4000244140625</ele>
        <time>2014-05-18T10:41:55Z</time>
      </trkpt>
      <trkpt lat="45.401496849954128" lon="5.857465211302042">
        <ele>771</ele>
        <time>2014-05-18T10:41:58Z</time>
      </trkpt>
      <trkpt lat="45.401466004550457" lon="5.857445932924748">
        <ele>771.4000244140625</ele>
        <time>2014-05-18T10:42:00Z</time>
      </trkpt>
      <trkpt lat="45.401362404227257" lon="5.857375524938107">
        <ele>772.4000244140625</ele>
        <time>2014-05-18T10:42:06Z</time>
      </trkpt>
      <trkpt lat="45.401232484728098" lon="5.857292879372835">
        <ele>773.5999755859375</ele>
        <time>2014-05-18T10:42:13Z</time>
      </trkpt>
      <trkpt lat="45.401193257421255" lon="5.857279468327761">
        <ele>774</ele>
        <time>2014-05-18T10:42:15Z</time>
      </trkpt>
      <trkpt lat="45.401137517765164" lon="5.857266979292035">
        <ele>774.5999755859375</ele>
        <time>2014-05-18T10:42:18Z</time>
      </trkpt>
      <trkpt lat="45.401069791987538" lon="5.857242420315743">
        <ele>775.4000244140625</ele>
        <time>2014-05-18T10:42:22Z</time>
      </trkpt>
      <trkpt lat="45.401033917441964" lon="5.857225991785526">
        <ele>775.5999755859375</ele>
        <time>2014-05-18T10:42:24Z</time>
      </trkpt>
      <trkpt lat="45.400926796719432" lon="5.857182238250971">
        <ele>776.5999755859375</ele>
        <time>2014-05-18T10:42:30Z</time>
      </trkpt>
      <trkpt lat="45.400911038741469" lon="5.857173856347799">
        <ele>776.79998779296875</ele>
        <time>2014-05-18T10:42:31Z</time>
      </trkpt>
      <trkpt lat="45.400789333507419" lon="5.857128258794546">
        <ele>777.79998779296875</ele>
        <time>2014-05-18T10:42:38Z</time>
      </trkpt>
      <trkpt lat="45.400771144777536" lon="5.857121217995882">
        <ele>778</ele>
        <time>2014-05-18T10:42:39Z</time>
      </trkpt>
      <trkpt lat="45.400629574432969" lon="5.857070339843631">
        <ele>779</ele>
        <time>2014-05-18T10:42:47Z</time>
      </trkpt>
      <trkpt lat="45.400610379874706" lon="5.857068495824933">
        <ele>779.20001220703125</ele>
        <time>2014-05-18T10:42:48Z</time>
      </trkpt>
      <trkpt lat="45.400519100949168" lon="5.857044104486704">
        <ele>780.20001220703125</ele>
        <time>2014-05-18T10:42:53Z</time>
      </trkpt>
      <trkpt lat="45.40048448368907" lon="5.857036896049976">
        <ele>780.4000244140625</ele>
        <time>2014-05-18T10:42:55Z</time>
      </trkpt>
      <trkpt lat="45.400410555303097" lon="5.857024826109409">
        <ele>781.4000244140625</ele>
        <time>2014-05-18T10:42:59Z</time>
      </trkpt>
      <trkpt lat="45.400322880595922" lon="5.857020802795887">
        <ele>782.20001220703125</ele>
        <time>2014-05-18T10:43:04Z</time>
      </trkpt>
      <trkpt lat="45.400278875604272" lon="5.857028849422932">
        <ele>782.5999755859375</ele>
        <time>2014-05-18T10:43:06Z</time>
      </trkpt>
      <trkpt lat="45.400211233645678" lon="5.857053073123097">
        <ele>783.20001220703125</ele>
        <time>2014-05-18T10:43:10Z</time>
      </trkpt>
      <trkpt lat="45.400177119299769" lon="5.857059694826603">
        <ele>783.5999755859375</ele>
        <time>2014-05-18T10:43:12Z</time>
      </trkpt>
      <trkpt lat="45.400083409622312" lon="5.857076710090041">
        <ele>784.5999755859375</ele>
        <time>2014-05-18T10:43:17Z</time>
      </trkpt>
      <trkpt lat="45.399966901168227" lon="5.85709816776216">
        <ele>785.4000244140625</ele>
        <time>2014-05-18T10:43:23Z</time>
      </trkpt>
      <trkpt lat="45.399943012744188" lon="5.857102107256651">
        <ele>785.5999755859375</ele>
        <time>2014-05-18T10:43:24Z</time>
      </trkpt>
      <trkpt lat="45.399838574230671" lon="5.857090875506401">
        <ele>786.4000244140625</ele>
        <time>2014-05-18T10:43:29Z</time>
      </trkpt>
      <trkpt lat="45.399816362187266" lon="5.857089199125767">
        <ele>786.79998779296875</ele>
        <time>2014-05-18T10:43:30Z</time>
      </trkpt>
      <trkpt lat="45.399738326668739" lon="5.857075452804565">
        <ele>787.79998779296875</ele>
        <time>2014-05-18T10:43:34Z</time>
      </trkpt>
      <trkpt lat="45.399701111018658" lon="5.857056761160493">
        <ele>788.20001220703125</ele>
        <time>2014-05-18T10:43:36Z</time>
      </trkpt>
      <trkpt lat="45.399631960317492" lon="5.85702046751976">
        <ele>789</ele>
        <time>2014-05-18T10:43:40Z</time>
      </trkpt>
      <trkpt lat="45.399564737454057" lon="5.856983754783869">
        <ele>789.79998779296875</ele>
        <time>2014-05-18T10:43:44Z</time>
      </trkpt>
      <trkpt lat="45.399528862908483" lon="5.856968248263001">
        <ele>790.20001220703125</ele>
        <time>2014-05-18T10:43:46Z</time>
      </trkpt>
      <trkpt lat="45.399443367496133" lon="5.856940252706409">
        <ele>791</ele>
        <time>2014-05-18T10:43:51Z</time>
      </trkpt>
      <trkpt lat="45.399427190423012" lon="5.856932457536459">
        <ele>791.20001220703125</ele>
        <time>2014-05-18T10:43:52Z</time>
      </trkpt>
      <trkpt lat="45.399416545405984" lon="5.856918711215258">
        <ele>791.20001220703125</ele>
        <time>2014-05-18T10:43:53Z</time>
      </trkpt>
      <trkpt lat="45.399357536807656" lon="5.856888284906745">
        <ele>792</ele>
        <time>2014-05-18T10:43:57Z</time>
      </trkpt>
      <trkpt lat="45.399344377219677" lon="5.856876382604241">
        <ele>792.20001220703125</ele>
        <time>2014-05-18T10:43:58Z</time>
      </trkpt>
      <trkpt lat="45.399328032508492" lon="5.85686850361526">
        <ele>792.20001220703125</ele>
        <time>2014-05-18T10:43:59Z</time>
      </trkpt>
      <trkpt lat="45.399276902899146" lon="5.856847297400236">
        <ele>792.5999755859375</ele>
        <time>2014-05-18T10:44:02Z</time>
      </trkpt>
      <trkpt lat="45.399261144921184" lon="5.856842771172524">
        <ele>792.79998779296875</ele>
        <time>2014-05-18T10:44:03Z</time>
      </trkpt>
      <trkpt lat="45.399226527661085" lon="5.856838496401906">
        <ele>793.4000244140625</ele>
        <time>2014-05-18T10:44:05Z</time>
      </trkpt>
      <trkpt lat="45.399156790226698" lon="5.85681326687336">
        <ele>793.79998779296875</ele>
        <time>2014-05-18T10:44:09Z</time>
      </trkpt>
      <trkpt lat="45.39909090846777" lon="5.856804214417934">
        <ele>794.4000244140625</ele>
        <time>2014-05-18T10:44:13Z</time>
      </trkpt>
      <trkpt lat="45.399074144661427" lon="5.856806728988886">
        <ele>794.4000244140625</ele>
        <time>2014-05-18T10:44:14Z</time>
      </trkpt>
      <trkpt lat="45.399058470502496" lon="5.856799855828285">
        <ele>794.5999755859375</ele>
        <time>2014-05-18T10:44:15Z</time>
      </trkpt>
      <trkpt lat="45.398989403620362" lon="5.856767753139138">
        <ele>795.4000244140625</ele>
        <time>2014-05-18T10:44:19Z</time>
      </trkpt>
      <trkpt lat="45.398970628157258" lon="5.856762388721108">
        <ele>795.5999755859375</ele>
        <time>2014-05-18T10:44:20Z</time>
      </trkpt>
      <trkpt lat="45.398842301219702" lon="5.856675216928124">
        <ele>796.4000244140625</ele>
        <time>2014-05-18T10:44:27Z</time>
      </trkpt>
      <trkpt lat="45.398825285956264" lon="5.85665836930275">
        <ele>796.5999755859375</ele>
        <time>2014-05-18T10:44:28Z</time>
      </trkpt>
      <trkpt lat="45.398732330650091" lon="5.856576394289732">
        <ele>797.5999755859375</ele>
        <time>2014-05-18T10:44:33Z</time>
      </trkpt>
      <trkpt lat="45.398716405034065" lon="5.856564659625292">
        <ele>797.79998779296875</ele>
        <time>2014-05-18T10:44:34Z</time>
      </trkpt>
      <trkpt lat="45.398549940437078" lon="5.856574131175876">
        <ele>799.4000244140625</ele>
        <time>2014-05-18T10:51:30Z</time>
      </trkpt>
      <trkpt lat="45.398451536893845" lon="5.856565497815609">
        <ele>799.79998779296875</ele>
        <time>2014-05-18T10:51:35Z</time>
      </trkpt>
      <trkpt lat="45.398374674841762" lon="5.85654940456152">
        <ele>800.4000244140625</ele>
        <time>2014-05-18T10:51:39Z</time>
      </trkpt>
      <trkpt lat="45.39835698902607" lon="5.856542531400919">
        <ele>800.5999755859375</ele>
        <time>2014-05-18T10:51:40Z</time>
      </trkpt>
      <trkpt lat="45.398287586867809" lon="5.856501292437315">
        <ele>801.4000244140625</ele>
        <time>2014-05-18T10:51:43Z</time>
      </trkpt>
      <trkpt lat="45.398241654038429" lon="5.856483187526465">
        <ele>801.4000244140625</ele>
        <time>2014-05-18T10:51:45Z</time>
      </trkpt>
      <trkpt lat="45.398217346519232" lon="5.856482936069369">
        <ele>801.5999755859375</ele>
        <time>2014-05-18T10:51:46Z</time>
      </trkpt>
      <trkpt lat="45.398081392049789" lon="5.856476565822959">
        <ele>802.5999755859375</ele>
        <time>2014-05-18T10:51:52Z</time>
      </trkpt>
      <trkpt lat="45.398041326552629" lon="5.856471201404929">
        <ele>802.79998779296875</ele>
        <time>2014-05-18T10:51:54Z</time>
      </trkpt>
      <trkpt lat="45.397934289649129" lon="5.856462232768536">
        <ele>803.79998779296875</ele>
        <time>2014-05-18T10:51:59Z</time>
      </trkpt>
      <trkpt lat="45.397912496700883" lon="5.856460137292743">
        <ele>804</ele>
        <time>2014-05-18T10:52:00Z</time>
      </trkpt>
      <trkpt lat="45.397776961326599" lon="5.856474470347166">
        <ele>804.79998779296875</ele>
        <time>2014-05-18T10:52:06Z</time>
      </trkpt>
      <trkpt lat="45.397754162549973" lon="5.85647908039391">
        <ele>805</ele>
        <time>2014-05-18T10:52:07Z</time>
      </trkpt>
      <trkpt lat="45.397643856704235" lon="5.856513110920787">
        <ele>805.5999755859375</ele>
        <time>2014-05-18T10:52:13Z</time>
      </trkpt>
      <trkpt lat="45.397583758458495" lon="5.85652744397521">
        <ele>806.20001220703125</ele>
        <time>2014-05-18T10:52:16Z</time>
      </trkpt>
      <trkpt lat="45.397502789273858" lon="5.856531970202923">
        <ele>806.5999755859375</ele>
        <time>2014-05-18T10:52:19Z</time>
      </trkpt>
      <trkpt lat="45.39742517285049" lon="5.856537418439984">
        <ele>807.20001220703125</ele>
        <time>2014-05-18T10:52:22Z</time>
      </trkpt>
      <trkpt lat="45.397347556427121" lon="5.856544626876712">
        <ele>807.79998779296875</ele>
        <time>2014-05-18T10:52:25Z</time>
      </trkpt>
      <trkpt lat="45.397236412391067" lon="5.85655527189374">
        <ele>808.20001220703125</ele>
        <time>2014-05-18T10:52:29Z</time>
      </trkpt>
      <trkpt lat="45.396724529564381" lon="5.856228126212955">
        <ele>812.79998779296875</ele>
        <time>2014-05-18T10:52:57Z</time>
      </trkpt>
      <trkpt lat="45.396624449640512" lon="5.856051603332162">
        <ele>813.79998779296875</ele>
        <time>2014-05-18T10:53:03Z</time>
      </trkpt>
      <trkpt lat="45.396603243425488" lon="5.855991085991263">
        <ele>814</ele>
        <time>2014-05-18T10:53:05Z</time>
      </trkpt>
      <trkpt lat="45.396476676687598" lon="5.855855466797948">
        <ele>814.79998779296875</ele>
        <time>2014-05-18T10:53:11Z</time>
      </trkpt>
      <trkpt lat="45.396454464644194" lon="5.855836858972907">
        <ele>815</ele>
        <time>2014-05-18T10:53:12Z</time>
      </trkpt>
      <trkpt lat="45.39630233310163" lon="5.855753039941192">
        <ele>816.20001220703125</ele>
        <time>2014-05-18T10:53:19Z</time>
      </trkpt>
      <trkpt lat="45.396180460229516" lon="5.855702916160226">
        <ele>817.20001220703125</ele>
        <time>2014-05-18T10:53:25Z</time>
      </trkpt>
      <trkpt lat="45.396079290658236" lon="5.855665281414986">
        <ele>818.20001220703125</ele>
        <time>2014-05-18T10:53:30Z</time>
      </trkpt>
      <trkpt lat="45.396038554608822" lon="5.855650277808309">
        <ele>818.4000244140625</ele>
        <time>2014-05-18T10:53:32Z</time>
      </trkpt>
      <trkpt lat="45.395951131358743" lon="5.855626640841365">
        <ele>819.4000244140625</ele>
        <time>2014-05-18T10:53:37Z</time>
      </trkpt>
      <trkpt lat="45.395835628733039" lon="5.855596382170916">
        <ele>820.5999755859375</ele>
        <time>2014-05-18T10:53:43Z</time>
      </trkpt>
      <trkpt lat="45.395721215754747" lon="5.855561932548881">
        <ele>821.5999755859375</ele>
        <time>2014-05-18T10:53:49Z</time>
      </trkpt>
      <trkpt lat="45.395700260996819" lon="5.855553969740868">
        <ele>821.79998779296875</ele>
        <time>2014-05-18T10:53:50Z</time>
      </trkpt>
      <trkpt lat="45.395529773086309" lon="5.855493200942874">
        <ele>822.79998779296875</ele>
        <time>2014-05-18T10:53:58Z</time>
      </trkpt>
      <trkpt lat="45.395460454747081" lon="5.855471910908818">
        <ele>823.4000244140625</ele>
        <time>2014-05-18T10:54:01Z</time>
      </trkpt>
      <trkpt lat="45.395386945456266" lon="5.855444669723511">
        <ele>824</ele>
        <time>2014-05-18T10:54:05Z</time>
      </trkpt>
      <trkpt lat="45.395367331802845" lon="5.855438048020005">
        <ele>824</ele>
        <time>2014-05-18T10:54:06Z</time>
      </trkpt>
      <trkpt lat="45.395271191373467" lon="5.855413405224681">
        <ele>825</ele>
        <time>2014-05-18T10:54:10Z</time>
      </trkpt>
      <trkpt lat="45.395212350413203" lon="5.855384990572929">
        <ele>825.5999755859375</ele>
        <time>2014-05-18T10:54:13Z</time>
      </trkpt>
      <trkpt lat="45.395137751474977" lon="5.855355570092797">
        <ele>826.20001220703125</ele>
        <time>2014-05-18T10:54:17Z</time>
      </trkpt>
      <trkpt lat="45.395089974626899" lon="5.855331430211663">
        <ele>826.5999755859375</ele>
        <time>2014-05-18T10:54:20Z</time>
      </trkpt>
      <trkpt lat="45.395014118403196" lon="5.855303015559912">
        <ele>827.20001220703125</ele>
        <time>2014-05-18T10:54:24Z</time>
      </trkpt>
      <trkpt lat="45.394957372918725" lon="5.855286167934537">
        <ele>827.79998779296875</ele>
        <time>2014-05-18T10:54:27Z</time>
      </trkpt>
      <trkpt lat="45.39488042704761" lon="5.855273008346558">
        <ele>828.4000244140625</ele>
        <time>2014-05-18T10:54:31Z</time>
      </trkpt>
      <trkpt lat="45.394840026274323" lon="5.855260519310832">
        <ele>828.79998779296875</ele>
        <time>2014-05-18T10:54:33Z</time>
      </trkpt>
      <trkpt lat="45.394701641052961" lon="5.855251550674439">
        <ele>829.5999755859375</ele>
        <time>2014-05-18T10:54:40Z</time>
      </trkpt>
      <trkpt lat="45.394616145640612" lon="5.855275271460414">
        <ele>830.5999755859375</ele>
        <time>2014-05-18T10:54:45Z</time>
      </trkpt>
      <trkpt lat="45.394599549472332" lon="5.855268063023686">
        <ele>830.5999755859375</ele>
        <time>2014-05-18T10:54:46Z</time>
      </trkpt>
      <trkpt lat="45.394498463720083" lon="5.855276947841048">
        <ele>831.20001220703125</ele>
        <time>2014-05-18T10:54:51Z</time>
      </trkpt>
      <trkpt lat="45.394480191171169" lon="5.855278205126524">
        <ele>831.5999755859375</ele>
        <time>2014-05-18T10:54:52Z</time>
      </trkpt>
      <trkpt lat="45.394473150372505" lon="5.855284994468093">
        <ele>831.79998779296875</ele>
        <time>2014-05-18T10:54:53Z</time>
      </trkpt>
      <trkpt lat="45.394439371302724" lon="5.855292538180947">
        <ele>832.20001220703125</ele>
        <time>2014-05-18T10:54:56Z</time>
      </trkpt>
      <trkpt lat="45.394355803728104" lon="5.8553122356534">
        <ele>833.20001220703125</ele>
        <time>2014-05-18T10:55:02Z</time>
      </trkpt>
      <trkpt lat="45.39434147067368" lon="5.855305530130863">
        <ele>833.4000244140625</ele>
        <time>2014-05-18T10:55:03Z</time>
      </trkpt>
      <trkpt lat="45.394301069900393" lon="5.855304356664419">
        <ele>833.79998779296875</ele>
        <time>2014-05-18T10:55:05Z</time>
      </trkpt>
      <trkpt lat="45.394201828166842" lon="5.855272086337209">
        <ele>833.79998779296875</ele>
        <time>2014-05-18T10:55:09Z</time>
      </trkpt>
      <trkpt lat="45.394179029390216" lon="5.855263704434037">
        <ele>834</ele>
        <time>2014-05-18T10:55:10Z</time>
      </trkpt>
      <trkpt lat="45.394066460430622" lon="5.855149710550904">
        <ele>834.5999755859375</ele>
        <time>2014-05-18T10:55:17Z</time>
      </trkpt>
      <trkpt lat="45.394028993323445" lon="5.855102017521858">
        <ele>835</ele>
        <time>2014-05-18T10:55:19Z</time>
      </trkpt>
      <trkpt lat="45.393968895077705" lon="5.855054156854749">
        <ele>835</ele>
        <time>2014-05-18T10:55:21Z</time>
      </trkpt>
      <trkpt lat="45.393861439079046" lon="5.854962123557925">
        <ele>834.79998779296875</ele>
        <time>2014-05-18T10:55:24Z</time>
      </trkpt>
      <trkpt lat="45.393818272277713" lon="5.854921555146575">
        <ele>834.79998779296875</ele>
        <time>2014-05-18T10:55:25Z</time>
      </trkpt>
      <trkpt lat="45.393774099647999" lon="5.854891799390316">
        <ele>835</ele>
        <time>2014-05-18T10:55:26Z</time>
      </trkpt>
      <trkpt lat="45.393675528466702" lon="5.854823822155595">
        <ele>834.79998779296875</ele>
        <time>2014-05-18T10:55:28Z</time>
      </trkpt>
      <trkpt lat="45.393601264804602" lon="5.854730112478137">
        <ele>834.5999755859375</ele>
        <time>2014-05-18T10:55:31Z</time>
      </trkpt>
      <trkpt lat="45.39350738748908" lon="5.854653501883149">
        <ele>834.5999755859375</ele>
        <time>2014-05-18T10:55:34Z</time>
      </trkpt>
      <trkpt lat="45.39338325150311" lon="5.854553338140249">
        <ele>834.5999755859375</ele>
        <time>2014-05-18T10:55:37Z</time>
      </trkpt>
      <trkpt lat="45.393335390836" lon="5.8545230794698">
        <ele>834.79998779296875</ele>
        <time>2014-05-18T10:55:38Z</time>
      </trkpt>
      <trkpt lat="45.39330312050879" lon="5.854491479694843">
        <ele>835</ele>
        <time>2014-05-18T10:55:39Z</time>
      </trkpt>
      <trkpt lat="45.393231958150864" lon="5.854448229074478">
        <ele>835.79998779296875</ele>
        <time>2014-05-18T10:55:41Z</time>
      </trkpt>
      <trkpt lat="45.39319365285337" lon="5.854429369792342">
        <ele>836.20001220703125</ele>
        <time>2014-05-18T10:55:42Z</time>
      </trkpt>
      <trkpt lat="45.393051831051707" lon="5.854362398386002">
        <ele>837.20001220703125</ele>
        <time>2014-05-18T10:55:46Z</time>
      </trkpt>
      <trkpt lat="45.392918391153216" lon="5.854341527447105">
        <ele>838.4000244140625</ele>
        <time>2014-05-18T10:55:50Z</time>
      </trkpt>
      <trkpt lat="45.392880504950881" lon="5.854350496083498">
        <ele>838.5999755859375</ele>
        <time>2014-05-18T10:55:51Z</time>
      </trkpt>
      <trkpt lat="45.392796602100134" lon="5.854335492476821">
        <ele>839.20001220703125</ele>
        <time>2014-05-18T10:55:55Z</time>
      </trkpt>
      <trkpt lat="45.392777491360903" lon="5.85432861931622">
        <ele>839.4000244140625</ele>
        <time>2014-05-18T10:55:56Z</time>
      </trkpt>
      <trkpt lat="45.392680261284113" lon="5.854278495535255">
        <ele>840.4000244140625</ele>
        <time>2014-05-18T10:56:01Z</time>
      </trkpt>
      <trkpt lat="45.392614211887121" lon="5.854223929345608">
        <ele>841.20001220703125</ele>
        <time>2014-05-18T10:56:05Z</time>
      </trkpt>
      <trkpt lat="45.392565345391631" lon="5.854211440309882">
        <ele>841.79998779296875</ele>
        <time>2014-05-18T10:56:07Z</time>
      </trkpt>
      <trkpt lat="45.392404496669769" lon="5.85415662266314">
        <ele>842.79998779296875</ele>
        <time>2014-05-18T10:56:13Z</time>
      </trkpt>
      <trkpt lat="45.392351355403662" lon="5.854130890220404">
        <ele>843.20001220703125</ele>
        <time>2014-05-18T10:56:15Z</time>
      </trkpt>
      <trkpt lat="45.392211209982634" lon="5.854088645428419">
        <ele>844</ele>
        <time>2014-05-18T10:56:20Z</time>
      </trkpt>
      <trkpt lat="45.392181957140565" lon="5.854081520810723">
        <ele>844.20001220703125</ele>
        <time>2014-05-18T10:56:21Z</time>
      </trkpt>
      <trkpt lat="45.391966374590993" lon="5.854013795033097">
        <ele>845</ele>
        <time>2014-05-18T10:56:28Z</time>
      </trkpt>
      <trkpt lat="45.391936870291829" lon="5.854004994034767">
        <ele>845.20001220703125</ele>
        <time>2014-05-18T10:56:29Z</time>
      </trkpt>
      <trkpt lat="45.391845088452101" lon="5.853959564119577">
        <ele>846</ele>
        <time>2014-05-18T10:56:33Z</time>
      </trkpt>
      <trkpt lat="45.391785744577646" lon="5.853936346247792">
        <ele>846.20001220703125</ele>
        <time>2014-05-18T10:56:35Z</time>
      </trkpt>
      <trkpt lat="45.391647862270474" lon="5.853863842785358">
        <ele>846.5999755859375</ele>
        <time>2014-05-18T10:56:40Z</time>
      </trkpt>
      <trkpt lat="45.391520541161299" lon="5.853805672377348">
        <ele>847.20001220703125</ele>
        <time>2014-05-18T10:56:45Z</time>
      </trkpt>
      <trkpt lat="45.391458934172988" lon="5.853794356808066">
        <ele>847.4000244140625</ele>
        <time>2014-05-18T10:56:47Z</time>
      </trkpt>
      <trkpt lat="45.391255589202046" lon="5.853750100359321">
        <ele>848.20001220703125</ele>
        <time>2014-05-18T10:56:54Z</time>
      </trkpt>
      <trkpt lat="45.391136733815074" lon="5.853720679879189">
        <ele>848.79998779296875</ele>
        <time>2014-05-18T10:56:58Z</time>
      </trkpt>
      <trkpt lat="45.391055596992373" lon="5.853701569139957">
        <ele>849.4000244140625</ele>
        <time>2014-05-18T10:57:01Z</time>
      </trkpt>
      <trkpt lat="45.391031373292208" lon="5.853690505027771">
        <ele>849.79998779296875</ele>
        <time>2014-05-18T10:57:02Z</time>
      </trkpt>
      <trkpt lat="45.390898520126939" lon="5.853662006556988">
        <ele>850.4000244140625</ele>
        <time>2014-05-18T10:57:07Z</time>
      </trkpt>
      <trkpt lat="45.390837332233787" lon="5.853653540834785">
        <ele>851</ele>
        <time>2014-05-18T10:57:10Z</time>
      </trkpt>
      <trkpt lat="45.390740102156997" lon="5.853639207780361">
        <ele>851.5999755859375</ele>
        <time>2014-05-18T10:57:14Z</time>
      </trkpt>
      <trkpt lat="45.390646308660507" lon="5.853621354326606">
        <ele>852</ele>
        <time>2014-05-18T10:57:18Z</time>
      </trkpt>
      <trkpt lat="45.390597693622112" lon="5.853619007393718">
        <ele>852.79998779296875</ele>
        <time>2014-05-18T10:57:20Z</time>
      </trkpt>
      <trkpt lat="45.390454782173038" lon="5.85362596437335">
        <ele>853.5999755859375</ele>
        <time>2014-05-18T10:57:26Z</time>
      </trkpt>
      <trkpt lat="45.390407089143991" lon="5.853629317134619">
        <ele>853.79998779296875</ele>
        <time>2014-05-18T10:57:28Z</time>
      </trkpt>
      <trkpt lat="45.390283456072211" lon="5.853663682937622">
        <ele>854.5999755859375</ele>
        <time>2014-05-18T10:57:33Z</time>
      </trkpt>
      <trkpt lat="45.390162672847509" lon="5.853683380410075">
        <ele>855</ele>
        <time>2014-05-18T10:57:38Z</time>
      </trkpt>
      <trkpt lat="45.389990508556366" lon="5.853704586625099">
        <ele>856</ele>
        <time>2014-05-18T10:57:45Z</time>
      </trkpt>
      <trkpt lat="45.389926973730326" lon="5.853695953264833">
        <ele>856.20001220703125</ele>
        <time>2014-05-18T10:57:47Z</time>
      </trkpt>
      <trkpt lat="45.389817170798779" lon="5.853664353489876">
        <ele>856.20001220703125</ele>
        <time>2014-05-18T10:57:51Z</time>
      </trkpt>
      <trkpt lat="45.389641150832176" lon="5.853585144504905">
        <ele>857.20001220703125</ele>
        <time>2014-05-18T10:57:57Z</time>
      </trkpt>
      <trkpt lat="45.389614244922996" lon="5.853571901097894">
        <ele>857.4000244140625</ele>
        <time>2014-05-18T10:57:58Z</time>
      </trkpt>
      <trkpt lat="45.389518272131681" lon="5.853522783145309">
        <ele>858.4000244140625</ele>
        <time>2014-05-18T10:58:02Z</time>
      </trkpt>
      <trkpt lat="45.389430513605475" lon="5.853449692949653">
        <ele>859</ele>
        <time>2014-05-18T10:58:06Z</time>
      </trkpt>
      <trkpt lat="45.389331607148051" lon="5.85339286364615">
        <ele>859.4000244140625</ele>
        <time>2014-05-18T10:58:10Z</time>
      </trkpt>
      <trkpt lat="45.389252984896302" lon="5.853347601369023">
        <ele>859.79998779296875</ele>
        <time>2014-05-18T10:58:13Z</time>
      </trkpt>
      <trkpt lat="45.389078054577112" lon="5.853237463161349">
        <ele>860.20001220703125</ele>
        <time>2014-05-18T10:58:19Z</time>
      </trkpt>
      <trkpt lat="45.389049639925361" lon="5.853222962468863">
        <ele>860.4000244140625</ele>
        <time>2014-05-18T10:58:20Z</time>
      </trkpt>
      <trkpt lat="45.388828022405505" lon="5.853136964142323">
        <ele>861.20001220703125</ele>
        <time>2014-05-18T10:58:27Z</time>
      </trkpt>
      <trkpt lat="45.388738755136728" lon="5.853092707693577">
        <ele>861.5999755859375</ele>
        <time>2014-05-18T10:58:30Z</time>
      </trkpt>
      <trkpt lat="45.388558628037572" lon="5.853015426546335">
        <ele>862.4000244140625</ele>
        <time>2014-05-18T10:58:36Z</time>
      </trkpt>
      <trkpt lat="45.388501212000847" lon="5.852992879226804">
        <ele>862.79998779296875</ele>
        <time>2014-05-18T10:58:38Z</time>
      </trkpt>
      <trkpt lat="45.388365592807531" lon="5.852911407127976">
        <ele>863.4000244140625</ele>
        <time>2014-05-18T10:58:43Z</time>
      </trkpt>
      <trkpt lat="45.388250257819891" lon="5.852863965556026">
        <ele>863.79998779296875</ele>
        <time>2014-05-18T10:58:47Z</time>
      </trkpt>
      <trkpt lat="45.388101898133755" lon="5.852830270305276">
        <ele>864.5999755859375</ele>
        <time>2014-05-18T10:58:52Z</time>
      </trkpt>
      <trkpt lat="45.387888243421912" lon="5.852818787097931">
        <ele>865</ele>
        <time>2014-05-18T10:58:58Z</time>
      </trkpt>
      <trkpt lat="45.387811884284019" lon="5.852819290012121">
        <ele>865.20001220703125</ele>
        <time>2014-05-18T10:59:00Z</time>
      </trkpt>
      <trkpt lat="45.387561684474349" lon="5.852813255041838">
        <ele>865.79998779296875</ele>
        <time>2014-05-18T10:59:07Z</time>
      </trkpt>
      <trkpt lat="45.387525139376521" lon="5.852812333032489">
        <ele>866</ele>
        <time>2014-05-18T10:59:08Z</time>
      </trkpt>
      <trkpt lat="45.387289104983211" lon="5.852795736864209">
        <ele>867</ele>
        <time>2014-05-18T10:59:15Z</time>
      </trkpt>
      <trkpt lat="45.387167232111096" lon="5.852778553962708">
        <ele>868</ele>
        <time>2014-05-18T10:59:19Z</time>
      </trkpt>
      <trkpt lat="45.387110654264688" lon="5.852760029956698">
        <ele>868.4000244140625</ele>
        <time>2014-05-18T10:59:21Z</time>
      </trkpt>
      <trkpt lat="45.387006467208266" lon="5.85275768302381">
        <ele>869.20001220703125</ele>
        <time>2014-05-18T10:59:25Z</time>
      </trkpt>
      <trkpt lat="45.386898927390575" lon="5.852746367454529">
        <ele>870.20001220703125</ele>
        <time>2014-05-18T10:59:29Z</time>
      </trkpt>
      <trkpt lat="45.386751405894756" lon="5.852731950581074">
        <ele>871</ele>
        <time>2014-05-18T10:59:35Z</time>
      </trkpt>
      <trkpt lat="45.386706814169884" lon="5.852733459323645">
        <ele>871.4000244140625</ele>
        <time>2014-05-18T10:59:37Z</time>
      </trkpt>
      <trkpt lat="45.386558957397938" lon="5.852711834013462">
        <ele>872.5999755859375</ele>
        <time>2014-05-18T10:59:43Z</time>
      </trkpt>
      <trkpt lat="45.386413279920816" lon="5.852698087692261">
        <ele>873.79998779296875</ele>
        <time>2014-05-18T10:59:49Z</time>
      </trkpt>
      <trkpt lat="45.386342788115144" lon="5.85269708186388">
        <ele>874.20001220703125</ele>
        <time>2014-05-18T10:59:52Z</time>
      </trkpt>
      <trkpt lat="45.386280175298452" lon="5.852679060772061">
        <ele>874.79998779296875</ele>
        <time>2014-05-18T10:59:55Z</time>
      </trkpt>
      <trkpt lat="45.386218065395951" lon="5.852671517059207">
        <ele>875.20001220703125</ele>
        <time>2014-05-18T10:59:58Z</time>
      </trkpt>
      <trkpt lat="45.386110190302134" lon="5.852662045508623">
        <ele>876</ele>
        <time>2014-05-18T11:00:03Z</time>
      </trkpt>
      <trkpt lat="45.386053109541535" lon="5.852655507624149">
        <ele>876.4000244140625</ele>
        <time>2014-05-18T11:00:06Z</time>
      </trkpt>
      <trkpt lat="45.385998208075762" lon="5.852649975568056">
        <ele>877</ele>
        <time>2014-05-18T11:00:09Z</time>
      </trkpt>
      <trkpt lat="45.385898631066084" lon="5.852652909234166">
        <ele>877.5999755859375</ele>
        <time>2014-05-18T11:00:14Z</time>
      </trkpt>
      <trkpt lat="45.385862421244383" lon="5.852654250338674">
        <ele>878</ele>
        <time>2014-05-18T11:00:16Z</time>
      </trkpt>
      <trkpt lat="45.385820176452398" lon="5.852654837071896">
        <ele>878.4000244140625</ele>
        <time>2014-05-18T11:00:18Z</time>
      </trkpt>
      <trkpt lat="45.385736860334873" lon="5.852651316672564">
        <ele>879</ele>
        <time>2014-05-18T11:00:22Z</time>
      </trkpt>
      <trkpt lat="45.38569713011384" lon="5.852652322500944">
        <ele>879.20001220703125</ele>
        <time>2014-05-18T11:00:24Z</time>
      </trkpt>
      <trkpt lat="45.385578190907836" lon="5.8526701759547">
        <ele>880.20001220703125</ele>
        <time>2014-05-18T11:00:30Z</time>
      </trkpt>
      <trkpt lat="45.385475596413016" lon="5.852706721052527">
        <ele>881.20001220703125</ele>
        <time>2014-05-18T11:00:35Z</time>
      </trkpt>
      <trkpt lat="45.385416084900498" lon="5.852722227573395">
        <ele>881.79998779296875</ele>
        <time>2014-05-18T11:00:38Z</time>
      </trkpt>
      <trkpt lat="45.385325979441404" lon="5.852750642225146">
        <ele>882.4000244140625</ele>
        <time>2014-05-18T11:00:42Z</time>
      </trkpt>
      <trkpt lat="45.385259930044413" lon="5.852759946137667">
        <ele>882.79998779296875</ele>
        <time>2014-05-18T11:00:45Z</time>
      </trkpt>
      <trkpt lat="45.385152641683817" lon="5.852809650823474">
        <ele>883.5999755859375</ele>
        <time>2014-05-18T11:00:50Z</time>
      </trkpt>
      <trkpt lat="45.38512984290719" lon="5.852819541469216">
        <ele>883.79998779296875</ele>
        <time>2014-05-18T11:00:51Z</time>
      </trkpt>
      <trkpt lat="45.384983494877815" lon="5.85286958143115">
        <ele>884.79998779296875</ele>
        <time>2014-05-18T11:00:57Z</time>
      </trkpt>
      <trkpt lat="45.384960444644094" lon="5.85288567468524">
        <ele>885</ele>
        <time>2014-05-18T11:00:58Z</time>
      </trkpt>
      <trkpt lat="45.384804960340261" lon="5.852967482060194">
        <ele>885.79998779296875</ele>
        <time>2014-05-18T11:01:05Z</time>
      </trkpt>
      <trkpt lat="45.384681159630418" lon="5.853029591962695">
        <ele>886.79998779296875</ele>
        <time>2014-05-18T11:01:11Z</time>
      </trkpt>
      <trkpt lat="45.384639166295528" lon="5.853044930845499">
        <ele>887.20001220703125</ele>
        <time>2014-05-18T11:01:13Z</time>
      </trkpt>
      <trkpt lat="45.384518718346953" lon="5.853116009384394">
        <ele>888.20001220703125</ele>
        <time>2014-05-18T11:01:19Z</time>
      </trkpt>
      <trkpt lat="45.384481167420745" lon="5.853158421814442">
        <ele>888.5999755859375</ele>
        <time>2014-05-18T11:01:21Z</time>
      </trkpt>
      <trkpt lat="45.384368598461151" lon="5.853297812864184">
        <ele>889.4000244140625</ele>
        <time>2014-05-18T11:01:27Z</time>
      </trkpt>
      <trkpt lat="45.384332472458482" lon="5.853348774835467">
        <ele>889.4000244140625</ele>
        <time>2014-05-18T11:01:29Z</time>
      </trkpt>
      <trkpt lat="45.384191572666168" lon="5.853510880842805">
        <ele>890.4000244140625</ele>
        <time>2014-05-18T11:01:36Z</time>
      </trkpt>
      <trkpt lat="45.384060814976692" lon="5.85357609204948">
        <ele>891.4000244140625</ele>
        <time>2014-05-18T11:01:42Z</time>
      </trkpt>
      <trkpt lat="45.384016893804073" lon="5.853590257465839">
        <ele>892</ele>
        <time>2014-05-18T11:01:44Z</time>
      </trkpt>
      <trkpt lat="45.383938355371356" lon="5.853622108697891">
        <ele>892.5999755859375</ele>
        <time>2014-05-18T11:01:48Z</time>
      </trkpt>
      <trkpt lat="45.383902313187718" lon="5.853645075112581">
        <ele>893</ele>
        <time>2014-05-18T11:01:50Z</time>
      </trkpt>
      <trkpt lat="45.383792677894235" lon="5.853712297976017">
        <ele>893.79998779296875</ele>
        <time>2014-05-18T11:01:55Z</time>
      </trkpt>
      <trkpt lat="45.383719922974706" lon="5.85374272428453">
        <ele>894</ele>
        <time>2014-05-18T11:01:58Z</time>
      </trkpt>
      <trkpt lat="45.383605929091573" lon="5.853852024301887">
        <ele>895</ele>
        <time>2014-05-18T11:02:04Z</time>
      </trkpt>
      <trkpt lat="45.383563181385398" lon="5.853893263265491">
        <ele>895.4000244140625</ele>
        <time>2014-05-18T11:02:06Z</time>
      </trkpt>
      <trkpt lat="45.383447259664536" lon="5.853984709829092">
        <ele>896</ele>
        <time>2014-05-18T11:02:11Z</time>
      </trkpt>
      <trkpt lat="45.383389675989747" lon="5.85401639342308">
        <ele>896.20001220703125</ele>
        <time>2014-05-18T11:02:13Z</time>
      </trkpt>
      <trkpt lat="45.383224803954363" lon="5.854099960997701">
        <ele>896.79998779296875</ele>
        <time>2014-05-18T11:02:19Z</time>
      </trkpt>
      <trkpt lat="45.383173925802112" lon="5.854131141677499">
        <ele>897.20001220703125</ele>
        <time>2014-05-18T11:02:21Z</time>
      </trkpt>
      <trkpt lat="45.38305314257741" lon="5.85421035066247">
        <ele>898</ele>
        <time>2014-05-18T11:02:26Z</time>
      </trkpt>
      <trkpt lat="45.382940573617816" lon="5.854280171915889">
        <ele>898.4000244140625</ele>
        <time>2014-05-18T11:02:30Z</time>
      </trkpt>
      <trkpt lat="45.382838482037187" lon="5.854330295696855">
        <ele>898</ele>
        <time>2014-05-18T11:02:33Z</time>
      </trkpt>
      <trkpt lat="45.382621726021171" lon="5.854446552693844">
        <ele>897.4000244140625</ele>
        <time>2014-05-18T11:02:38Z</time>
      </trkpt>
      <trkpt lat="45.382419219240546" lon="5.854575717821717">
        <ele>896.20001220703125</ele>
        <time>2014-05-18T11:02:42Z</time>
      </trkpt>
      <trkpt lat="45.38235928863287" lon="5.854610502719879">
        <ele>895.79998779296875</ele>
        <time>2014-05-18T11:02:43Z</time>
      </trkpt>
      <trkpt lat="45.382237751036882" lon="5.854699518531561">
        <ele>895.20001220703125</ele>
        <time>2014-05-18T11:02:45Z</time>
      </trkpt>
      <trkpt lat="45.382177904248238" lon="5.854748217388988">
        <ele>895</ele>
        <time>2014-05-18T11:02:46Z</time>
      </trkpt>
      <trkpt lat="45.382059551775455" lon="5.854848884046078">
        <ele>894.20001220703125</ele>
        <time>2014-05-18T11:02:48Z</time>
      </trkpt>
      <trkpt lat="45.381945893168449" lon="5.854961704462767">
        <ele>893.5999755859375</ele>
        <time>2014-05-18T11:02:50Z</time>
      </trkpt>
      <trkpt lat="45.38180910050869" lon="5.855091959238052">
        <ele>892.5999755859375</ele>
        <time>2014-05-18T11:02:53Z</time>
      </trkpt>
      <trkpt lat="45.381732741370797" lon="5.855164881795645">
        <ele>892.20001220703125</ele>
        <time>2014-05-18T11:02:55Z</time>
      </trkpt>
      <trkpt lat="45.38168890401721" lon="5.855181813240051">
        <ele>891.79998779296875</ele>
        <time>2014-05-18T11:02:56Z</time>
      </trkpt>
      <trkpt lat="45.381643809378147" lon="5.85520276799798">
        <ele>891.4000244140625</ele>
        <time>2014-05-18T11:02:57Z</time>
      </trkpt>
      <trkpt lat="45.381597960367799" lon="5.855224225670099">
        <ele>891</ele>
        <time>2014-05-18T11:02:58Z</time>
      </trkpt>
      <trkpt lat="45.381534425541759" lon="5.855242079123855">
        <ele>890</ele>
        <time>2014-05-18T11:02:59Z</time>
      </trkpt>
      <trkpt lat="45.381460497155786" lon="5.855260351672769">
        <ele>889.20001220703125</ele>
        <time>2014-05-18T11:03:00Z</time>
      </trkpt>
      <trkpt lat="45.381378438323736" lon="5.855286084115505">
        <ele>888.4000244140625</ele>
        <time>2014-05-18T11:03:01Z</time>
      </trkpt>
      <trkpt lat="45.381289171054959" lon="5.855320366099477">
        <ele>887.79998779296875</ele>
        <time>2014-05-18T11:03:02Z</time>
      </trkpt>
      <trkpt lat="45.381100326776505" lon="5.855412734672427">
        <ele>886</ele>
        <time>2014-05-18T11:03:04Z</time>
      </trkpt>
      <trkpt lat="45.381011562421918" lon="5.855469228699803">
        <ele>885.4000244140625</ele>
        <time>2014-05-18T11:03:05Z</time>
      </trkpt>
      <trkpt lat="45.380920870229602" lon="5.85554919205606">
        <ele>884.79998779296875</ele>
        <time>2014-05-18T11:03:06Z</time>
      </trkpt>
      <trkpt lat="45.380757255479693" lon="5.85569922812283">
        <ele>883.79998779296875</ele>
        <time>2014-05-18T11:03:08Z</time>
      </trkpt>
      <trkpt lat="45.380690786987543" lon="5.85575295612216">
        <ele>883.5999755859375</ele>
        <time>2014-05-18T11:03:09Z</time>
      </trkpt>
      <trkpt lat="45.380580564960837" lon="5.855805594474077">
        <ele>882.4000244140625</ele>
        <time>2014-05-18T11:03:12Z</time>
      </trkpt>
      <trkpt lat="45.380498003214598" lon="5.855848342180252">
        <ele>881.5999755859375</ele>
        <time>2014-05-18T11:03:14Z</time>
      </trkpt>
      <trkpt lat="45.380427679046988" lon="5.855878014117479">
        <ele>881.20001220703125</ele>
        <time>2014-05-18T11:03:15Z</time>
      </trkpt>
      <trkpt lat="45.380272781476378" lon="5.85592545568943">
        <ele>879.79998779296875</ele>
        <time>2014-05-18T11:03:17Z</time>
      </trkpt>
      <trkpt lat="45.380187202244997" lon="5.855929646641016">
        <ele>878.79998779296875</ele>
        <time>2014-05-18T11:03:18Z</time>
      </trkpt>
      <trkpt lat="45.380093576386571" lon="5.855932999402285">
        <ele>878.4000244140625</ele>
        <time>2014-05-18T11:03:19Z</time>
      </trkpt>
      <trkpt lat="45.379903223365545" lon="5.855986056849361">
        <ele>878</ele>
        <time>2014-05-18T11:03:21Z</time>
      </trkpt>
      <trkpt lat="45.379800293594599" lon="5.856025703251362">
        <ele>877.20001220703125</ele>
        <time>2014-05-18T11:03:22Z</time>
      </trkpt>
      <trkpt lat="45.379579765722156" lon="5.856106001883745">
        <ele>876.20001220703125</ele>
        <time>2014-05-18T11:03:24Z</time>
      </trkpt>
      <trkpt lat="45.379499131813645" lon="5.856151515617967">
        <ele>876</ele>
        <time>2014-05-18T11:03:25Z</time>
      </trkpt>
      <trkpt lat="45.379354963079095" lon="5.856215134263039">
        <ele>875</ele>
        <time>2014-05-18T11:03:27Z</time>
      </trkpt>
      <trkpt lat="45.379234179854393" lon="5.856182277202606">
        <ele>873.79998779296875</ele>
        <time>2014-05-18T11:03:29Z</time>
      </trkpt>
      <trkpt lat="45.37915731780231" lon="5.855972729623318">
        <ele>873.4000244140625</ele>
        <time>2014-05-18T11:03:31Z</time>
      </trkpt>
      <trkpt lat="45.379132591187954" lon="5.855634268373251">
        <ele>874.20001220703125</ele>
        <time>2014-05-18T11:03:34Z</time>
      </trkpt>
      <trkpt lat="45.37912211380899" lon="5.855540977790952">
        <ele>874.4000244140625</ele>
        <time>2014-05-18T11:03:35Z</time>
      </trkpt>
      <trkpt lat="45.379121862351894" lon="5.855454476550221">
        <ele>875</ele>
        <time>2014-05-18T11:03:36Z</time>
      </trkpt>
      <trkpt lat="45.379131333902478" lon="5.855301590636373">
        <ele>875.5999755859375</ele>
        <time>2014-05-18T11:03:38Z</time>
      </trkpt>
      <trkpt lat="45.379133932292461" lon="5.855231350287795">
        <ele>876</ele>
        <time>2014-05-18T11:03:39Z</time>
      </trkpt>
      <trkpt lat="45.379140386357903" lon="5.855103945359588">
        <ele>876.79998779296875</ele>
        <time>2014-05-18T11:03:41Z</time>
      </trkpt>
      <trkpt lat="45.379144912585616" lon="5.855036303400993">
        <ele>877</ele>
        <time>2014-05-18T11:03:42Z</time>
      </trkpt>
      <trkpt lat="45.379113228991628" lon="5.854948628693819">
        <ele>877.20001220703125</ele>
        <time>2014-05-18T11:03:43Z</time>
      </trkpt>
      <trkpt lat="45.379081293940544" lon="5.854751402512193">
        <ele>878.20001220703125</ele>
        <time>2014-05-18T11:03:46Z</time>
      </trkpt>
      <trkpt lat="45.379090681672096" lon="5.85465157404542">
        <ele>878.79998779296875</ele>
        <time>2014-05-18T11:03:48Z</time>
      </trkpt>
      <trkpt lat="45.379095543175936" lon="5.854506567120552">
        <ele>879.4000244140625</ele>
        <time>2014-05-18T11:03:51Z</time>
      </trkpt>
      <trkpt lat="45.379101242870092" lon="5.854400536045432">
        <ele>880</ele>
        <time>2014-05-18T11:03:54Z</time>
      </trkpt>
      <trkpt lat="45.379112055525184" lon="5.854329708963633">
        <ele>880.5999755859375</ele>
        <time>2014-05-18T11:03:56Z</time>
      </trkpt>
      <trkpt lat="45.379175590351224" lon="5.854166932404041">
        <ele>881.20001220703125</ele>
        <time>2014-05-18T11:04:01Z</time>
      </trkpt>
      <trkpt lat="45.379278101027012" lon="5.85403835400939">
        <ele>881.5999755859375</ele>
        <time>2014-05-18T11:04:05Z</time>
      </trkpt>
      <trkpt lat="45.379310371354222" lon="5.854016896337271">
        <ele>881.79998779296875</ele>
        <time>2014-05-18T11:04:06Z</time>
      </trkpt>
      <trkpt lat="45.379434758797288" lon="5.853911116719246">
        <ele>882.79998779296875</ele>
        <time>2014-05-18T11:04:11Z</time>
      </trkpt>
      <trkpt lat="45.379462502896786" lon="5.853901812806726">
        <ele>883</ele>
        <time>2014-05-18T11:04:12Z</time>
      </trkpt>
      <trkpt lat="45.379614550620317" lon="5.853829057887197">
        <ele>883.79998779296875</ele>
        <time>2014-05-18T11:04:17Z</time>
      </trkpt>
      <trkpt lat="45.379648916423321" lon="5.853809108957648">
        <ele>884</ele>
        <time>2014-05-18T11:04:18Z</time>
      </trkpt>
      <trkpt lat="45.379710607230663" lon="5.853780778124929">
        <ele>884.5999755859375</ele>
        <time>2014-05-18T11:04:21Z</time>
      </trkpt>
      <trkpt lat="45.379781182855368" lon="5.853754039853811">
        <ele>884.79998779296875</ele>
        <time>2014-05-18T11:04:24Z</time>
      </trkpt>
      <trkpt lat="45.379872461780906" lon="5.853701652958989">
        <ele>885.79998779296875</ele>
        <time>2014-05-18T11:04:28Z</time>
      </trkpt>
      <trkpt lat="45.37989660166204" lon="5.853690337389708">
        <ele>886</ele>
        <time>2014-05-18T11:04:29Z</time>
      </trkpt>
      <trkpt lat="45.379999363794923" lon="5.85361372679472">
        <ele>887</ele>
        <time>2014-05-18T11:04:34Z</time>
      </trkpt>
      <trkpt lat="45.380107322707772" lon="5.853460002690554">
        <ele>887.79998779296875</ele>
        <time>2014-05-18T11:04:40Z</time>
      </trkpt>
      <trkpt lat="45.380164068192244" lon="5.853391606360674">
        <ele>888.20001220703125</ele>
        <time>2014-05-18T11:04:42Z</time>
      </trkpt>
      <trkpt lat="45.380233218893409" lon="5.853261183947325">
        <ele>888.79998779296875</ele>
        <time>2014-05-18T11:04:46Z</time>
      </trkpt>
      <trkpt lat="45.380285019055009" lon="5.853162109851837">
        <ele>889.4000244140625</ele>
        <time>2014-05-18T11:04:49Z</time>
      </trkpt>
      <trkpt lat="45.380322821438313" lon="5.853106454014778">
        <ele>889.5999755859375</ele>
        <time>2014-05-18T11:04:51Z</time>
      </trkpt>
      <trkpt lat="45.380386356264353" lon="5.85301567800343">
        <ele>890.4000244140625</ele>
        <time>2014-05-18T11:04:55Z</time>
      </trkpt>
      <trkpt lat="45.380437066778541" lon="5.852913334965706">
        <ele>891</ele>
        <time>2014-05-18T11:04:59Z</time>
      </trkpt>
      <trkpt lat="45.380498087033629" lon="5.852779727429152">
        <ele>891.5999755859375</ele>
        <time>2014-05-18T11:05:04Z</time>
      </trkpt>
      <trkpt lat="45.380534213036299" lon="5.852705966681242">
        <ele>892</ele>
        <time>2014-05-18T11:05:07Z</time>
      </trkpt>
      <trkpt lat="45.380602860823274" lon="5.852593649178743">
        <ele>892.79998779296875</ele>
        <time>2014-05-18T11:05:12Z</time>
      </trkpt>
      <trkpt lat="45.380623899400234" lon="5.852508656680584">
        <ele>893.4000244140625</ele>
        <time>2014-05-18T11:05:15Z</time>
      </trkpt>
      <trkpt lat="45.380665389820933" lon="5.85240488871932">
        <ele>893.79998779296875</ele>
        <time>2014-05-18T11:05:19Z</time>
      </trkpt>
      <trkpt lat="45.380721045657992" lon="5.852346969768405">
        <ele>894.5999755859375</ele>
        <time>2014-05-18T11:05:22Z</time>
      </trkpt>
      <trkpt lat="45.380745688453317" lon="5.852293409407139">
        <ele>895.20001220703125</ele>
        <time>2014-05-18T11:05:24Z</time>
      </trkpt>
      <trkpt lat="45.380818527191877" lon="5.852145384997129">
        <ele>896.20001220703125</ele>
        <time>2014-05-18T11:05:30Z</time>
      </trkpt>
      <trkpt lat="45.380851719528437" lon="5.852103726938367">
        <ele>896.4000244140625</ele>
        <time>2014-05-18T11:05:32Z</time>
      </trkpt>
      <trkpt lat="45.380949787795544" lon="5.851941201835871">
        <ele>897.20001220703125</ele>
        <time>2014-05-18T11:05:39Z</time>
      </trkpt>
      <trkpt lat="45.38098432123661" lon="5.851815054193139">
        <ele>897.4000244140625</ele>
        <time>2014-05-18T11:05:43Z</time>
      </trkpt>
      <trkpt lat="45.380999157205224" lon="5.851750178262591">
        <ele>897.5999755859375</ele>
        <time>2014-05-18T11:05:45Z</time>
      </trkpt>
      <trkpt lat="45.380989853292704" lon="5.851530069485307">
        <ele>898.20001220703125</ele>
        <time>2014-05-18T11:05:51Z</time>
      </trkpt>
      <trkpt lat="45.380952386185527" lon="5.851425714790821">
        <ele>898.4000244140625</ele>
        <time>2014-05-18T11:05:54Z</time>
      </trkpt>
      <trkpt lat="45.380918271839619" lon="5.851314906030893">
        <ele>898.5999755859375</ele>
        <time>2014-05-18T11:05:58Z</time>
      </trkpt>
      <trkpt lat="45.380897484719753" lon="5.851265620440245">
        <ele>898.4000244140625</ele>
        <time>2014-05-18T11:06:00Z</time>
      </trkpt>
      <trkpt lat="45.380845600739121" lon="5.851112985983491">
        <ele>898.5999755859375</ele>
        <time>2014-05-18T11:06:05Z</time>
      </trkpt>
      <trkpt lat="45.380772426724434" lon="5.850899163633585">
        <ele>897.79998779296875</ele>
        <time>2014-05-18T11:06:10Z</time>
      </trkpt>
      <trkpt lat="45.380698330700397" lon="5.850667236372829">
        <ele>897.5999755859375</ele>
        <time>2014-05-18T11:06:15Z</time>
      </trkpt>
      <trkpt lat="45.380660276859999" lon="5.850571179762483">
        <ele>897.4000244140625</ele>
        <time>2014-05-18T11:06:17Z</time>
      </trkpt>
      <trkpt lat="45.380632868036628" lon="5.850529605522752">
        <ele>897.4000244140625</ele>
        <time>2014-05-18T11:06:18Z</time>
      </trkpt>
      <trkpt lat="45.380572685971856" lon="5.850378312170506">
        <ele>897</ele>
        <time>2014-05-18T11:06:21Z</time>
      </trkpt>
      <trkpt lat="45.380547791719437" lon="5.850332546979189">
        <ele>897</ele>
        <time>2014-05-18T11:06:22Z</time>
      </trkpt>
      <trkpt lat="45.38041653111577" lon="5.850183852016926">
        <ele>896.20001220703125</ele>
        <time>2014-05-18T11:06:26Z</time>
      </trkpt>
      <trkpt lat="45.380339920520782" lon="5.850110678002238">
        <ele>895.79998779296875</ele>
        <time>2014-05-18T11:06:28Z</time>
      </trkpt>
      <trkpt lat="45.38020446896553" lon="5.849978998303413">
        <ele>895</ele>
        <time>2014-05-18T11:06:31Z</time>
      </trkpt>
      <trkpt lat="45.380147891119123" lon="5.849917475134134">
        <ele>893.5999755859375</ele>
        <time>2014-05-18T11:06:32Z</time>
      </trkpt>
      <trkpt lat="45.379981342703104" lon="5.849786717444658">
        <ele>892.4000244140625</ele>
        <time>2014-05-18T11:06:35Z</time>
      </trkpt>
      <trkpt lat="45.379868103191257" lon="5.849716225638986">
        <ele>892.79998779296875</ele>
        <time>2014-05-18T11:06:37Z</time>
      </trkpt>
      <trkpt lat="45.37981160916388" lon="5.849694851785898">
        <ele>893.5999755859375</ele>
        <time>2014-05-18T11:06:38Z</time>
      </trkpt>
      <trkpt lat="45.379709098488092" lon="5.849667442962527">
        <ele>894.79998779296875</ele>
        <time>2014-05-18T11:06:40Z</time>
      </trkpt>
      <trkpt lat="45.379662662744522" lon="5.849652858451009">
        <ele>895.4000244140625</ele>
        <time>2014-05-18T11:06:41Z</time>
      </trkpt>
      <trkpt lat="45.379606336355209" lon="5.849638441577554">
        <ele>896.20001220703125</ele>
        <time>2014-05-18T11:06:43Z</time>
      </trkpt>
      <trkpt lat="45.379574149847031" lon="5.849638525396586">
        <ele>896.79998779296875</ele>
        <time>2014-05-18T11:06:45Z</time>
      </trkpt>
      <trkpt lat="45.379537856206298" lon="5.849633831530809">
        <ele>897.20001220703125</ele>
        <time>2014-05-18T11:06:48Z</time>
      </trkpt>
      <trkpt lat="45.379477171227336" lon="5.849630730226636">
        <ele>897.5999755859375</ele>
        <time>2014-05-18T11:06:51Z</time>
      </trkpt>
      <trkpt lat="45.379392514005303" lon="5.849601896479726">
        <ele>898.20001220703125</ele>
        <time>2014-05-18T11:06:55Z</time>
      </trkpt>
      <trkpt lat="45.379331158474088" lon="5.849590748548508">
        <ele>899.20001220703125</ele>
        <time>2014-05-18T11:06:58Z</time>
      </trkpt>
      <trkpt lat="45.379311796277761" lon="5.849577588960528">
        <ele>899.4000244140625</ele>
        <time>2014-05-18T11:06:59Z</time>
      </trkpt>
      <trkpt lat="45.379212638363242" lon="5.849524531513453">
        <ele>900.4000244140625</ele>
        <time>2014-05-18T11:07:04Z</time>
      </trkpt>
      <trkpt lat="45.379114737734199" lon="5.849456889554858">
        <ele>901.4000244140625</ele>
        <time>2014-05-18T11:07:09Z</time>
      </trkpt>
      <trkpt lat="45.379075426608324" lon="5.84942034445703">
        <ele>902</ele>
        <time>2014-05-18T11:07:11Z</time>
      </trkpt>
      <trkpt lat="45.37904055789113" lon="5.849386649206281">
        <ele>902.4000244140625</ele>
        <time>2014-05-18T11:07:13Z</time>
      </trkpt>
      <trkpt lat="45.379005940631032" lon="5.8493597432971">
        <ele>902.79998779296875</ele>
        <time>2014-05-18T11:07:15Z</time>
      </trkpt>
      <trkpt lat="45.378952464088798" lon="5.849315151572228">
        <ele>903.4000244140625</ele>
        <time>2014-05-18T11:07:18Z</time>
      </trkpt>
      <trkpt lat="45.378934107720852" lon="5.84929570555687">
        <ele>903.5999755859375</ele>
        <time>2014-05-18T11:07:19Z</time>
      </trkpt>
      <trkpt lat="45.378844840452075" lon="5.849205851554871">
        <ele>904.5999755859375</ele>
        <time>2014-05-18T11:07:24Z</time>
      </trkpt>
      <trkpt lat="45.37882698699832" lon="5.849189842119813">
        <ele>905</ele>
        <time>2014-05-18T11:07:25Z</time>
      </trkpt>
      <trkpt lat="45.378746269270778" lon="5.849112225696445">
        <ele>905.79998779296875</ele>
        <time>2014-05-18T11:07:30Z</time>
      </trkpt>
      <trkpt lat="45.378710478544235" lon="5.849087666720152">
        <ele>906.20001220703125</ele>
        <time>2014-05-18T11:07:32Z</time>
      </trkpt>
      <trkpt lat="45.378669239580631" lon="5.849032429978252">
        <ele>906.79998779296875</ele>
        <time>2014-05-18T11:07:35Z</time>
      </trkpt>
      <trkpt lat="45.378608135506511" lon="5.848972080275416">
        <ele>907.5999755859375</ele>
        <time>2014-05-18T11:07:39Z</time>
      </trkpt>
      <trkpt lat="45.378557592630386" lon="5.84891851991415">
        <ele>908</ele>
        <time>2014-05-18T11:07:42Z</time>
      </trkpt>
      <trkpt lat="45.378508055582643" lon="5.848862277343869">
        <ele>908.5999755859375</ele>
        <time>2014-05-18T11:07:45Z</time>
      </trkpt>
      <trkpt lat="45.378475952893496" lon="5.848830007016659">
        <ele>909</ele>
        <time>2014-05-18T11:07:47Z</time>
      </trkpt>
      <trkpt lat="45.378404539078474" lon="5.848749373108149">
        <ele>910</ele>
        <time>2014-05-18T11:07:53Z</time>
      </trkpt>
      <trkpt lat="45.378394313156605" lon="5.848730932921171">
        <ele>910.20001220703125</ele>
        <time>2014-05-18T11:07:54Z</time>
      </trkpt>
      <trkpt lat="45.378341255709529" lon="5.848639570176601">
        <ele>911.20001220703125</ele>
        <time>2014-05-18T11:07:59Z</time>
      </trkpt>
      <trkpt lat="45.378310577943921" lon="5.848601264879108">
        <ele>911.4000244140625</ele>
        <time>2014-05-18T11:08:01Z</time>
      </trkpt>
      <trkpt lat="45.378269255161285" lon="5.848530353978276">
        <ele>912.20001220703125</ele>
        <time>2014-05-18T11:08:05Z</time>
      </trkpt>
      <trkpt lat="45.37822206504643" lon="5.848437482491136">
        <ele>913.20001220703125</ele>
        <time>2014-05-18T11:08:10Z</time>
      </trkpt>
      <trkpt lat="45.378210581839085" lon="5.848421389237046">
        <ele>913.4000244140625</ele>
        <time>2014-05-18T11:08:11Z</time>
      </trkpt>
      <trkpt lat="45.378153920173645" lon="5.848321225494146">
        <ele>914.4000244140625</ele>
        <time>2014-05-18T11:08:17Z</time>
      </trkpt>
      <trkpt lat="45.378138665109873" lon="5.848310580477119">
        <ele>914.5999755859375</ele>
        <time>2014-05-18T11:08:18Z</time>
      </trkpt>
      <trkpt lat="45.378081416711211" lon="5.848229946568608">
        <ele>915.79998779296875</ele>
        <time>2014-05-18T11:08:23Z</time>
      </trkpt>
      <trkpt lat="45.37799877114594" lon="5.848166914656758">
        <ele>916.5999755859375</ele>
        <time>2014-05-18T11:08:29Z</time>
      </trkpt>
      <trkpt lat="45.377972954884171" lon="5.848152246326208">
        <ele>917</ele>
        <time>2014-05-18T11:08:31Z</time>
      </trkpt>
      <trkpt lat="45.377865163609385" lon="5.848083849996328">
        <ele>918</ele>
        <time>2014-05-18T11:08:37Z</time>
      </trkpt>
      <trkpt lat="45.377766257151961" lon="5.847998103126884">
        <ele>919.20001220703125</ele>
        <time>2014-05-18T11:08:43Z</time>
      </trkpt>
      <trkpt lat="45.377741949632764" lon="5.847985530272126">
        <ele>919.4000244140625</ele>
        <time>2014-05-18T11:08:44Z</time>
      </trkpt>
      <trkpt lat="45.377639774233103" lon="5.847919564694166">
        <ele>920.20001220703125</ele>
        <time>2014-05-18T11:08:50Z</time>
      </trkpt>
      <trkpt lat="45.377625776454806" lon="5.847911350429058">
        <ele>920.4000244140625</ele>
        <time>2014-05-18T11:08:51Z</time>
      </trkpt>
      <trkpt lat="45.377533910796046" lon="5.847843121737242">
        <ele>921.4000244140625</ele>
        <time>2014-05-18T11:08:57Z</time>
      </trkpt>
      <trkpt lat="45.377518068999052" lon="5.847831889986992">
        <ele>921.5999755859375</ele>
        <time>2014-05-18T11:08:58Z</time>
      </trkpt>
      <trkpt lat="45.377446571364999" lon="5.847767852246761">
        <ele>922.5999755859375</ele>
        <time>2014-05-18T11:09:03Z</time>
      </trkpt>
      <trkpt lat="45.377417150884867" lon="5.847739102318883">
        <ele>922.5999755859375</ele>
        <time>2014-05-18T11:09:05Z</time>
      </trkpt>
      <trkpt lat="45.377349928021431" lon="5.847700629383326">
        <ele>923.5999755859375</ele>
        <time>2014-05-18T11:09:09Z</time>
      </trkpt>
      <trkpt lat="45.377292511984706" lon="5.847654528915882">
        <ele>924</ele>
        <time>2014-05-18T11:09:13Z</time>
      </trkpt>
      <trkpt lat="45.3772081900388" lon="5.847576577216387">
        <ele>924.79998779296875</ele>
        <time>2014-05-18T11:09:18Z</time>
      </trkpt>
      <trkpt lat="45.377191677689552" lon="5.847571296617389">
        <ele>925</ele>
        <time>2014-05-18T11:09:19Z</time>
      </trkpt>
      <trkpt lat="45.377106349915266" lon="5.847500134259462">
        <ele>926</ele>
        <time>2014-05-18T11:09:25Z</time>
      </trkpt>
      <trkpt lat="45.377078605815768" lon="5.847481191158295">
        <ele>926.5999755859375</ele>
        <time>2014-05-18T11:09:27Z</time>
      </trkpt>
      <trkpt lat="45.376994367688894" lon="5.847425367683172">
        <ele>927.20001220703125</ele>
        <time>2014-05-18T11:09:33Z</time>
      </trkpt>
      <trkpt lat="45.376952458173037" lon="5.847397372126579">
        <ele>927.5999755859375</ele>
        <time>2014-05-18T11:09:36Z</time>
      </trkpt>
      <trkpt lat="45.376898059621453" lon="5.847361078485847">
        <ele>928.20001220703125</ele>
        <time>2014-05-18T11:09:40Z</time>
      </trkpt>
      <trkpt lat="45.376858245581388" lon="5.84732067771256">
        <ele>928.79998779296875</ele>
        <time>2014-05-18T11:09:43Z</time>
      </trkpt>
      <trkpt lat="45.376796219497919" lon="5.847286731004715">
        <ele>929.4000244140625</ele>
        <time>2014-05-18T11:09:47Z</time>
      </trkpt>
      <trkpt lat="45.376723799854517" lon="5.847239373251796">
        <ele>930</ele>
        <time>2014-05-18T11:09:51Z</time>
      </trkpt>
      <trkpt lat="45.376652553677559" lon="5.847199223935604">
        <ele>930.4000244140625</ele>
        <time>2014-05-18T11:09:55Z</time>
      </trkpt>
      <trkpt lat="45.376589940860868" lon="5.847159409895539">
        <ele>931.5999755859375</ele>
        <time>2014-05-18T11:09:59Z</time>
      </trkpt>
      <trkpt lat="45.376572087407112" lon="5.847155638039112">
        <ele>931.79998779296875</ele>
        <time>2014-05-18T11:10:00Z</time>
      </trkpt>
      <trkpt lat="45.376479383558035" lon="5.847073327749968">
        <ele>932.5999755859375</ele>
        <time>2014-05-18T11:10:06Z</time>
      </trkpt>
      <trkpt lat="45.376463290303946" lon="5.847058575600386">
        <ele>932.79998779296875</ele>
        <time>2014-05-18T11:10:07Z</time>
      </trkpt>
      <trkpt lat="45.37637896835804" lon="5.846990263089538">
        <ele>933.79998779296875</ele>
        <time>2014-05-18T11:10:12Z</time>
      </trkpt>
      <trkpt lat="45.376332700252533" lon="5.846960255876184">
        <ele>934.20001220703125</ele>
        <time>2014-05-18T11:10:15Z</time>
      </trkpt>
      <trkpt lat="45.376265309751034" lon="5.846915999427438">
        <ele>934.79998779296875</ele>
        <time>2014-05-18T11:10:19Z</time>
      </trkpt>
      <trkpt lat="45.376180987805128" lon="5.846859253942967">
        <ele>935.5999755859375</ele>
        <time>2014-05-18T11:10:24Z</time>
      </trkpt>
      <trkpt lat="45.376166654750705" lon="5.846849698573351">
        <ele>936</ele>
        <time>2014-05-18T11:10:25Z</time>
      </trkpt>
      <trkpt lat="45.376048805192113" lon="5.846770154312253">
        <ele>937</ele>
        <time>2014-05-18T11:10:32Z</time>
      </trkpt>
      <trkpt lat="45.37595434114337" lon="5.846672002226114">
        <ele>938</ele>
        <time>2014-05-18T11:10:38Z</time>
      </trkpt>
      <trkpt lat="45.375934895128012" lon="5.846654986962676">
        <ele>938.20001220703125</ele>
        <time>2014-05-18T11:10:39Z</time>
      </trkpt>
      <trkpt lat="45.375855015590787" lon="5.846574939787388">
        <ele>939.20001220703125</ele>
        <time>2014-05-18T11:10:44Z</time>
      </trkpt>
      <trkpt lat="45.375808160752058" lon="5.846536718308926">
        <ele>940.4000244140625</ele>
        <time>2014-05-18T11:10:48Z</time>
      </trkpt>
      <trkpt lat="45.375790391117334" lon="5.84653495810926">
        <ele>940.4000244140625</ele>
        <time>2014-05-18T11:10:49Z</time>
      </trkpt>
      <trkpt lat="45.375772956758738" lon="5.846530767157674">
        <ele>940.5999755859375</ele>
        <time>2014-05-18T11:10:50Z</time>
      </trkpt>
      <trkpt lat="45.375698022544384" lon="5.846470417454839">
        <ele>941.4000244140625</ele>
        <time>2014-05-18T11:10:55Z</time>
      </trkpt>
      <trkpt lat="45.375661980360746" lon="5.84642599336803">
        <ele>941.79998779296875</ele>
        <time>2014-05-18T11:10:58Z</time>
      </trkpt>
      <trkpt lat="45.3756108507514" lon="5.846393052488565">
        <ele>942.5999755859375</ele>
        <time>2014-05-18T11:11:01Z</time>
      </trkpt>
      <trkpt lat="45.375549076125026" lon="5.8463463652879">
        <ele>943</ele>
        <time>2014-05-18T11:11:04Z</time>
      </trkpt>
      <trkpt lat="45.375518230721354" lon="5.846300851553679">
        <ele>943.5999755859375</ele>
        <time>2014-05-18T11:11:07Z</time>
      </trkpt>
      <trkpt lat="45.375504484400153" lon="5.846281908452511">
        <ele>943.79998779296875</ele>
        <time>2014-05-18T11:11:08Z</time>
      </trkpt>
      <trkpt lat="45.375380013138056" lon="5.846174620091915">
        <ele>944.79998779296875</ele>
        <time>2014-05-18T11:11:16Z</time>
      </trkpt>
      <trkpt lat="45.375290578231215" lon="5.846061715856195">
        <ele>946</ele>
        <time>2014-05-18T11:11:22Z</time>
      </trkpt>
      <trkpt lat="45.375275239348412" lon="5.846042353659868">
        <ele>946</ele>
        <time>2014-05-18T11:11:23Z</time>
      </trkpt>
      <trkpt lat="45.375202400609851" lon="5.845945794135332">
        <ele>947</ele>
        <time>2014-05-18T11:11:28Z</time>
      </trkpt>
      <trkpt lat="45.375162502750754" lon="5.845895754173398">
        <ele>947.5999755859375</ele>
        <time>2014-05-18T11:11:31Z</time>
      </trkpt>
      <trkpt lat="45.375125119462609" lon="5.845840014517307">
        <ele>948</ele>
        <time>2014-05-18T11:11:34Z</time>
      </trkpt>
      <trkpt lat="45.375081785023212" lon="5.845779832452536">
        <ele>948.4000244140625</ele>
        <time>2014-05-18T11:11:37Z</time>
      </trkpt>
      <trkpt lat="45.375067787244916" lon="5.845757871866226">
        <ele>948.5999755859375</ele>
        <time>2014-05-18T11:11:38Z</time>
      </trkpt>
      <trkpt lat="45.375047670677304" lon="5.845712274312973">
        <ele>949.20001220703125</ele>
        <time>2014-05-18T11:11:40Z</time>
      </trkpt>
      <trkpt lat="45.37498539313674" lon="5.845616301521659">
        <ele>950.20001220703125</ele>
        <time>2014-05-18T11:11:45Z</time>
      </trkpt>
      <trkpt lat="45.374932419508696" lon="5.845513707026839">
        <ele>951.4000244140625</ele>
        <time>2014-05-18T11:11:50Z</time>
      </trkpt>
      <trkpt lat="45.374914146959782" lon="5.845496356487274">
        <ele>951.5999755859375</ele>
        <time>2014-05-18T11:11:51Z</time>
      </trkpt>
      <trkpt lat="45.374843906611204" lon="5.845397869125009">
        <ele>952.4000244140625</ele>
        <time>2014-05-18T11:11:56Z</time>
      </trkpt>
      <trkpt lat="45.374786322936416" lon="5.845303237438202">
        <ele>953.20001220703125</ele>
        <time>2014-05-18T11:12:01Z</time>
      </trkpt>
      <trkpt lat="45.374761931598186" lon="5.845264848321676">
        <ele>953.5999755859375</ele>
        <time>2014-05-18T11:12:03Z</time>
      </trkpt>
      <trkpt lat="45.37466537207365" lon="5.845162086188793">
        <ele>954.79998779296875</ele>
        <time>2014-05-18T11:12:09Z</time>
      </trkpt>
      <trkpt lat="45.374654391780496" lon="5.845146244391799">
        <ele>954.79998779296875</ele>
        <time>2014-05-18T11:12:10Z</time>
      </trkpt>
      <trkpt lat="45.374573925510049" lon="5.845050942152739">
        <ele>955.79998779296875</ele>
        <time>2014-05-18T11:12:15Z</time>
      </trkpt>
      <trkpt lat="45.374482981860638" lon="5.844923704862595">
        <ele>956.79998779296875</ele>
        <time>2014-05-18T11:12:22Z</time>
      </trkpt>
      <trkpt lat="45.374442329630256" lon="5.844869641587138">
        <ele>957.5999755859375</ele>
        <time>2014-05-18T11:12:25Z</time>
      </trkpt>
      <trkpt lat="45.37440394051373" lon="5.844807866960764">
        <ele>958</ele>
        <time>2014-05-18T11:12:28Z</time>
      </trkpt>
      <trkpt lat="45.374341243878007" lon="5.844728071242571">
        <ele>958.79998779296875</ele>
        <time>2014-05-18T11:12:33Z</time>
      </trkpt>
      <trkpt lat="45.374329509213567" lon="5.844703009352088">
        <ele>959</ele>
        <time>2014-05-18T11:12:34Z</time>
      </trkpt>
      <trkpt lat="45.374314337968826" lon="5.84468356333673">
        <ele>959.4000244140625</ele>
        <time>2014-05-18T11:12:35Z</time>
      </trkpt>
      <trkpt lat="45.374233955517411" lon="5.844569066539407">
        <ele>960.20001220703125</ele>
        <time>2014-05-18T11:12:41Z</time>
      </trkpt>
      <trkpt lat="45.37422121502459" lon="5.844556409865618">
        <ele>960.4000244140625</ele>
        <time>2014-05-18T11:12:42Z</time>
      </trkpt>
      <trkpt lat="45.374159105122089" lon="5.844469238072634">
        <ele>961.20001220703125</ele>
        <time>2014-05-18T11:12:47Z</time>
      </trkpt>
      <trkpt lat="45.374147789552808" lon="5.844455156475306">
        <ele>961.5999755859375</ele>
        <time>2014-05-18T11:12:48Z</time>
      </trkpt>
      <trkpt lat="45.374087942764163" lon="5.84436890669167">
        <ele>962.4000244140625</ele>
        <time>2014-05-18T11:12:54Z</time>
      </trkpt>
      <trkpt lat="45.374071765691042" lon="5.844337055459619">
        <ele>962.79998779296875</ele>
        <time>2014-05-18T11:12:56Z</time>
      </trkpt>
      <trkpt lat="45.374028012156487" lon="5.844267318025231">
        <ele>963.5999755859375</ele>
        <time>2014-05-18T11:13:01Z</time>
      </trkpt>
      <trkpt lat="45.3740203846246" lon="5.844249716028571">
        <ele>963.5999755859375</ele>
        <time>2014-05-18T11:13:02Z</time>
      </trkpt>
      <trkpt lat="45.373972356319427" lon="5.844184504821897">
        <ele>964.20001220703125</ele>
        <time>2014-05-18T11:13:06Z</time>
      </trkpt>
      <trkpt lat="45.373937068507075" lon="5.844151815399528">
        <ele>964.5999755859375</ele>
        <time>2014-05-18T11:13:08Z</time>
      </trkpt>
      <trkpt lat="45.373921813443303" lon="5.844137230888009">
        <ele>964.79998779296875</ele>
        <time>2014-05-18T11:13:09Z</time>
      </trkpt>
      <trkpt lat="45.373860038816929" lon="5.844065649434924">
        <ele>965.5999755859375</ele>
        <time>2014-05-18T11:13:13Z</time>
      </trkpt>
      <trkpt lat="45.37384495139122" lon="5.844051232561469">
        <ele>965.5999755859375</ele>
        <time>2014-05-18T11:13:14Z</time>
      </trkpt>
      <trkpt lat="45.373834138736129" lon="5.844040839001536">
        <ele>965.79998779296875</ele>
        <time>2014-05-18T11:13:15Z</time>
      </trkpt>
      <trkpt lat="45.373764149844646" lon="5.843953248113394">
        <ele>967</ele>
        <time>2014-05-18T11:13:20Z</time>
      </trkpt>
      <trkpt lat="45.373714109882712" lon="5.843900693580508">
        <ele>967.20001220703125</ele>
        <time>2014-05-18T11:13:23Z</time>
      </trkpt>
      <trkpt lat="45.373655436560512" lon="5.843846462666988">
        <ele>968</ele>
        <time>2014-05-18T11:13:28Z</time>
      </trkpt>
      <trkpt lat="45.373603384941816" lon="5.843811761587858">
        <ele>968.5999755859375</ele>
        <time>2014-05-18T11:13:31Z</time>
      </trkpt>
      <trkpt lat="45.373554602265358" lon="5.84377764724195">
        <ele>969</ele>
        <time>2014-05-18T11:13:34Z</time>
      </trkpt>
      <trkpt lat="45.373462401330471" lon="5.843706065788865">
        <ele>969.79998779296875</ele>
        <time>2014-05-18T11:13:39Z</time>
      </trkpt>
      <trkpt lat="45.373452510684729" lon="5.843696678057313">
        <ele>970</ele>
        <time>2014-05-18T11:13:40Z</time>
      </trkpt>
      <trkpt lat="45.373359136283398" lon="5.843626102432609">
        <ele>971.4000244140625</ele>
        <time>2014-05-18T11:13:48Z</time>
      </trkpt>
      <trkpt lat="45.373344887048006" lon="5.843615960329771">
        <ele>971.5999755859375</ele>
        <time>2014-05-18T11:13:49Z</time>
      </trkpt>
      <trkpt lat="45.373247908428311" lon="5.843546558171511">
        <ele>972.5999755859375</ele>
        <time>2014-05-18T11:13:54Z</time>
      </trkpt>
      <trkpt lat="45.373221505433321" lon="5.843529710546136">
        <ele>972.79998779296875</ele>
        <time>2014-05-18T11:13:55Z</time>
      </trkpt>
      <trkpt lat="45.372991757467389" lon="5.843357797712088">
        <ele>975.5999755859375</ele>
        <time>2014-05-18T11:14:11Z</time>
      </trkpt>
      <trkpt lat="45.372892683371902" lon="5.843286635354161">
        <ele>976.5999755859375</ele>
        <time>2014-05-18T11:14:17Z</time>
      </trkpt>
      <trkpt lat="45.372808445245028" lon="5.843221927061677">
        <ele>977.20001220703125</ele>
        <time>2014-05-18T11:14:22Z</time>
      </trkpt>
      <trkpt lat="45.372781455516815" lon="5.843197032809258">
        <ele>977.5999755859375</ele>
        <time>2014-05-18T11:14:24Z</time>
      </trkpt>
      <trkpt lat="45.372769720852375" lon="5.843188818544149">
        <ele>977.5999755859375</ele>
        <time>2014-05-18T11:14:25Z</time>
      </trkpt>
      <trkpt lat="45.372659415006638" lon="5.843108436092734">
        <ele>978.5999755859375</ele>
        <time>2014-05-18T11:14:31Z</time>
      </trkpt>
      <trkpt lat="45.372653882950544" lon="5.843099635094404">
        <ele>979.20001220703125</ele>
        <time>2014-05-18T11:14:32Z</time>
      </trkpt>
      <trkpt lat="45.372399743646383" lon="5.842800987884402">
        <ele>981.20001220703125</ele>
        <time>2014-05-18T11:14:46Z</time>
      </trkpt>
      <trkpt lat="45.372359426692128" lon="5.842741392552853">
        <ele>981.5999755859375</ele>
        <time>2014-05-18T11:14:49Z</time>
      </trkpt>
      <trkpt lat="45.372322294861078" lon="5.842684647068381">
        <ele>982.20001220703125</ele>
        <time>2014-05-18T11:14:52Z</time>
      </trkpt>
      <trkpt lat="45.372284241020679" lon="5.842626895755529">
        <ele>983</ele>
        <time>2014-05-18T11:14:55Z</time>
      </trkpt>
      <trkpt lat="45.372269907966256" lon="5.84260837174952">
        <ele>983.20001220703125</ele>
        <time>2014-05-18T11:14:56Z</time>
      </trkpt>
      <trkpt lat="45.372254736721516" lon="5.842592194676399">
        <ele>983.4000244140625</ele>
        <time>2014-05-18T11:14:57Z</time>
      </trkpt>
      <trkpt lat="45.372202014550567" lon="5.842529917135835">
        <ele>984.4000244140625</ele>
        <time>2014-05-18T11:15:02Z</time>
      </trkpt>
      <trkpt lat="45.372116770595312" lon="5.842462778091431">
        <ele>985.4000244140625</ele>
        <time>2014-05-18T11:15:08Z</time>
      </trkpt>
      <trkpt lat="45.372105203568935" lon="5.842448277398944">
        <ele>985.5999755859375</ele>
        <time>2014-05-18T11:15:09Z</time>
      </trkpt>
      <trkpt lat="45.3719861805439" lon="5.842357417568564">
        <ele>986.5999755859375</ele>
        <time>2014-05-18T11:15:14Z</time>
      </trkpt>
      <trkpt lat="45.371571946889162" lon="5.842049801722169">
        <ele>990.79998779296875</ele>
        <time>2014-05-18T11:15:40Z</time>
      </trkpt>
      <trkpt lat="45.371530037373304" lon="5.842014513909817">
        <ele>991</ele>
        <time>2014-05-18T11:15:43Z</time>
      </trkpt>
      <trkpt lat="45.37149122916162" lon="5.841989452019334">
        <ele>991.79998779296875</ele>
        <time>2014-05-18T11:15:46Z</time>
      </trkpt>
      <trkpt lat="45.371445547789335" lon="5.841951984912157">
        <ele>992.4000244140625</ele>
        <time>2014-05-18T11:15:49Z</time>
      </trkpt>
      <trkpt lat="45.371411349624395" lon="5.841928347945213">
        <ele>992.79998779296875</ele>
        <time>2014-05-18T11:15:51Z</time>
      </trkpt>
      <trkpt lat="45.371349910274148" lon="5.841886103153229">
        <ele>993.4000244140625</ele>
        <time>2014-05-18T11:15:56Z</time>
      </trkpt>
      <trkpt lat="45.371321327984333" lon="5.841865483671427">
        <ele>993.79998779296875</ele>
        <time>2014-05-18T11:15:58Z</time>
      </trkpt>
      <trkpt lat="45.37124932743609" lon="5.84180748090148">
        <ele>994.5999755859375</ele>
        <time>2014-05-18T11:16:03Z</time>
      </trkpt>
      <trkpt lat="45.371213452890515" lon="5.841785436496139">
        <ele>995</ele>
        <time>2014-05-18T11:16:05Z</time>
      </trkpt>
      <trkpt lat="45.371152432635427" lon="5.841745790094137">
        <ele>995.79998779296875</ele>
        <time>2014-05-18T11:16:09Z</time>
      </trkpt>
      <trkpt lat="45.371128711849451" lon="5.841729193925858">
        <ele>996.20001220703125</ele>
        <time>2014-05-18T11:16:11Z</time>
      </trkpt>
      <trkpt lat="45.37105729803443" lon="5.841671945527196">
        <ele>997</ele>
        <time>2014-05-18T11:16:16Z</time>
      </trkpt>
      <trkpt lat="45.37104363553226" lon="5.84166239015758">
        <ele>997.20001220703125</ele>
        <time>2014-05-18T11:16:17Z</time>
      </trkpt>
      <trkpt lat="45.37096694111824" lon="5.841602459549904">
        <ele>998</ele>
        <time>2014-05-18T11:16:22Z</time>
      </trkpt>
      <trkpt lat="45.370933664962649" lon="5.841577565297484">
        <ele>998.20001220703125</ele>
        <time>2014-05-18T11:16:24Z</time>
      </trkpt>
      <trkpt lat="45.370837524533272" lon="5.841489555314183">
        <ele>999.4000244140625</ele>
        <time>2014-05-18T11:16:30Z</time>
      </trkpt>
      <trkpt lat="45.370764015242457" lon="5.841412441805005">
        <ele>1000.4000244140625</ele>
        <time>2014-05-18T11:16:35Z</time>
      </trkpt>
      <trkpt lat="45.370670389384031" lon="5.841304231435061">
        <ele>1001.4000244140625</ele>
        <time>2014-05-18T11:16:41Z</time>
      </trkpt>
      <trkpt lat="45.370655301958323" lon="5.841286964714527">
        <ele>1001.5999755859375</ele>
        <time>2014-05-18T11:16:42Z</time>
      </trkpt>
      <trkpt lat="45.370593946427107" lon="5.841200044378638">
        <ele>1002.4000244140625</ele>
        <time>2014-05-18T11:16:47Z</time>
      </trkpt>
      <trkpt lat="45.370577350258827" lon="5.841182107105851">
        <ele>1002.4000244140625</ele>
        <time>2014-05-18T11:16:48Z</time>
      </trkpt>
      <trkpt lat="45.370525550097227" lon="5.841105161234736">
        <ele>1003</ele>
        <time>2014-05-18T11:16:52Z</time>
      </trkpt>
      <trkpt lat="45.370490681380033" lon="5.841055540367961">
        <ele>1003.5999755859375</ele>
        <time>2014-05-18T11:16:55Z</time>
      </trkpt>
      <trkpt lat="45.370467128232121" lon="5.840990748256445">
        <ele>1004.2000122070312</ele>
        <time>2014-05-18T11:16:59Z</time>
      </trkpt>
      <trkpt lat="45.370436115190387" lon="5.840951269492507">
        <ele>1004.5999755859375</ele>
        <time>2014-05-18T11:17:01Z</time>
      </trkpt>
      <trkpt lat="45.370338298380375" lon="5.840705009177327">
        <ele>1006.4000244140625</ele>
        <time>2014-05-18T11:17:12Z</time>
      </trkpt>
      <trkpt lat="45.37036201916635" lon="5.840641893446446">
        <ele>1007</ele>
        <time>2014-05-18T11:17:16Z</time>
      </trkpt>
      <trkpt lat="45.370363863185048" lon="5.840622363612056">
        <ele>1007.2000122070312</ele>
        <time>2014-05-18T11:17:17Z</time>
      </trkpt>
      <trkpt lat="45.370362270623446" lon="5.840599313378334">
        <ele>1007.4000244140625</ele>
        <time>2014-05-18T11:17:18Z</time>
      </trkpt>
      <trkpt lat="45.370317008346319" lon="5.840509375557303">
        <ele>1008.2000122070312</ele>
        <time>2014-05-18T11:17:21Z</time>
      </trkpt>
      <trkpt lat="45.370278619229794" lon="5.840441230684519">
        <ele>1008.5999755859375</ele>
        <time>2014-05-18T11:17:23Z</time>
      </trkpt>
      <trkpt lat="45.370257832109928" lon="5.840379204601049">
        <ele>1009</ele>
        <time>2014-05-18T11:17:25Z</time>
      </trkpt>
      <trkpt lat="45.370240062475204" lon="5.840275101363659">
        <ele>1009.5999755859375</ele>
        <time>2014-05-18T11:17:28Z</time>
      </trkpt>
      <trkpt lat="45.370241906493902" lon="5.840255487710238">
        <ele>1009.7999877929687</ele>
        <time>2014-05-18T11:17:29Z</time>
      </trkpt>
      <trkpt lat="45.370237966999412" lon="5.840224474668503">
        <ele>1010</ele>
        <time>2014-05-18T11:17:30Z</time>
      </trkpt>
      <trkpt lat="45.370232854038477" lon="5.840147193521261">
        <ele>1010.5999755859375</ele>
        <time>2014-05-18T11:17:33Z</time>
      </trkpt>
      <trkpt lat="45.370226902887225" lon="5.840085335075855">
        <ele>1011.2000122070312</ele>
        <time>2014-05-18T11:17:36Z</time>
      </trkpt>
      <trkpt lat="45.370204690843821" lon="5.840009646490216">
        <ele>1011.7999877929687</ele>
        <time>2014-05-18T11:17:39Z</time>
      </trkpt>
      <trkpt lat="45.370183736085892" lon="5.839955247938633">
        <ele>1012.2000122070312</ele>
        <time>2014-05-18T11:17:42Z</time>
      </trkpt>
      <trkpt lat="45.370179712772369" lon="5.839932868257165">
        <ele>1012.4000244140625</ele>
        <time>2014-05-18T11:17:43Z</time>
      </trkpt>
      <trkpt lat="45.370176779106259" lon="5.839886264875531">
        <ele>1012.7999877929687</ele>
        <time>2014-05-18T11:17:45Z</time>
      </trkpt>
      <trkpt lat="45.370163200423121" lon="5.83984762430191">
        <ele>1013</ele>
        <time>2014-05-18T11:17:47Z</time>
      </trkpt>
      <trkpt lat="45.370104527100921" lon="5.839755423367024">
        <ele>1013.7999877929687</ele>
        <time>2014-05-18T11:17:51Z</time>
      </trkpt>
      <trkpt lat="45.370084494352341" lon="5.839716782793403">
        <ele>1014.2000122070312</ele>
        <time>2014-05-18T11:17:53Z</time>
      </trkpt>
      <trkpt lat="45.370062198489904" lon="5.83960086107254">
        <ele>1015</ele>
        <time>2014-05-18T11:17:58Z</time>
      </trkpt>
      <trkpt lat="45.370049122720957" lon="5.839568674564362">
        <ele>1015.2000122070312</ele>
        <time>2014-05-18T11:17:59Z</time>
      </trkpt>
      <trkpt lat="45.370039818808436" lon="5.839448142796755">
        <ele>1016</ele>
        <time>2014-05-18T11:18:04Z</time>
      </trkpt>
      <trkpt lat="45.370042333379388" lon="5.839426852762699">
        <ele>1016.2000122070312</ele>
        <time>2014-05-18T11:18:05Z</time>
      </trkpt>
      <trkpt lat="45.370043674483895" lon="5.839404305443168">
        <ele>1016.2000122070312</ele>
        <time>2014-05-18T11:18:06Z</time>
      </trkpt>
      <trkpt lat="45.370058175176382" lon="5.839333729818463">
        <ele>1017.2000122070312</ele>
        <time>2014-05-18T11:18:09Z</time>
      </trkpt>
      <trkpt lat="45.37008055485785" lon="5.839229291304946">
        <ele>1017.2000122070312</ele>
        <time>2014-05-18T11:18:13Z</time>
      </trkpt>
      <trkpt lat="45.370160266757011" lon="5.8391107711941">
        <ele>1018.2000122070312</ele>
        <time>2014-05-18T11:18:19Z</time>
      </trkpt>
      <trkpt lat="45.370174264535308" lon="5.839092833921313">
        <ele>1018.4000244140625</ele>
        <time>2014-05-18T11:18:20Z</time>
      </trkpt>
      <trkpt lat="45.370191698893905" lon="5.839077411219478">
        <ele>1018.5999755859375</ele>
        <time>2014-05-18T11:18:21Z</time>
      </trkpt>
      <trkpt lat="45.370274176821113" lon="5.839035669341683">
        <ele>1019.2000122070312</ele>
        <time>2014-05-18T11:18:25Z</time>
      </trkpt>
      <trkpt lat="45.370291611179709" lon="5.839024186134338">
        <ele>1019.4000244140625</ele>
        <time>2014-05-18T11:18:26Z</time>
      </trkpt>
      <trkpt lat="45.370379704982042" lon="5.838987557217479">
        <ele>1020.2000122070312</ele>
        <time>2014-05-18T11:18:31Z</time>
      </trkpt>
      <trkpt lat="45.370417507365346" lon="5.83898026496172">
        <ele>1020.7999877929687</ele>
        <time>2014-05-18T11:18:33Z</time>
      </trkpt>
      <trkpt lat="45.370481628924608" lon="5.838957382366061">
        <ele>1021.4000244140625</ele>
        <time>2014-05-18T11:18:37Z</time>
      </trkpt>
      <trkpt lat="45.370530495420098" lon="5.838943384587765">
        <ele>1021.7999877929687</ele>
        <time>2014-05-18T11:18:40Z</time>
      </trkpt>
      <trkpt lat="45.370577601715922" lon="5.838951515033841">
        <ele>1022.4000244140625</ele>
        <time>2014-05-18T11:18:43Z</time>
      </trkpt>
      <trkpt lat="45.37062294781208" lon="5.838966770097613">
        <ele>1022.7999877929687</ele>
        <time>2014-05-18T11:18:46Z</time>
      </trkpt>
      <trkpt lat="45.370691511780024" lon="5.83897733129561">
        <ele>1023.5999755859375</ele>
        <time>2014-05-18T11:18:50Z</time>
      </trkpt>
      <trkpt lat="45.370738282799721" lon="5.838989317417145">
        <ele>1024.199951171875</ele>
        <time>2014-05-18T11:18:53Z</time>
      </trkpt>
      <trkpt lat="45.370781784877181" lon="5.839004153385758">
        <ele>1024.5999755859375</ele>
        <time>2014-05-18T11:18:56Z</time>
      </trkpt>
      <trkpt lat="45.370836267247796" lon="5.839011278003454">
        <ele>1025.199951171875</ele>
        <time>2014-05-18T11:18:59Z</time>
      </trkpt>
      <trkpt lat="45.370872309431434" lon="5.839004907757044">
        <ele>1025.800048828125</ele>
        <time>2014-05-18T11:19:02Z</time>
      </trkpt>
      <trkpt lat="45.371006336063147" lon="5.838992334902287">
        <ele>1027.199951171875</ele>
        <time>2014-05-18T11:19:12Z</time>
      </trkpt>
      <trkpt lat="45.371051682159305" lon="5.838969200849533">
        <ele>1027.800048828125</ele>
        <time>2014-05-18T11:19:15Z</time>
      </trkpt>
      <trkpt lat="45.371117647737265" lon="5.838918825611472">
        <ele>1028.4000244140625</ele>
        <time>2014-05-18T11:19:20Z</time>
      </trkpt>
      <trkpt lat="45.371134076267481" lon="5.838900301605463">
        <ele>1028.800048828125</ele>
        <time>2014-05-18T11:19:22Z</time>
      </trkpt>
      <trkpt lat="45.371245890855789" lon="5.838770382106304">
        <ele>1030.4000244140625</ele>
        <time>2014-05-18T11:19:32Z</time>
      </trkpt>
      <trkpt lat="45.371299870312214" lon="5.838730065152049">
        <ele>1030.800048828125</ele>
        <time>2014-05-18T11:19:35Z</time>
      </trkpt>
      <trkpt lat="45.371339181438088" lon="5.838662507012487">
        <ele>1031.5999755859375</ele>
        <time>2014-05-18T11:19:39Z</time>
      </trkpt>
      <trkpt lat="45.371350161731243" lon="5.83864507265389">
        <ele>1031.800048828125</ele>
        <time>2014-05-18T11:19:40Z</time>
      </trkpt>
      <trkpt lat="45.371395004913211" lon="5.838565109297633">
        <ele>1032.5999755859375</ele>
        <time>2014-05-18T11:19:44Z</time>
      </trkpt>
      <trkpt lat="45.371412690728903" lon="5.838520433753729">
        <ele>1032.800048828125</ele>
        <time>2014-05-18T11:19:46Z</time>
      </trkpt>
      <trkpt lat="45.371458288282156" lon="5.838381294161081">
        <ele>1033.800048828125</ele>
        <time>2014-05-18T11:19:52Z</time>
      </trkpt>
      <trkpt lat="45.371454348787665" lon="5.838350784033537">
        <ele>1034</ele>
        <time>2014-05-18T11:19:53Z</time>
      </trkpt>
      <trkpt lat="45.37138419225812" lon="5.838254895061255">
        <ele>1035</ele>
        <time>2014-05-18T11:21:24Z</time>
      </trkpt>
      <trkpt lat="45.371332643553615" lon="5.838229665532708">
        <ele>1035.199951171875</ele>
        <time>2014-05-18T11:21:27Z</time>
      </trkpt>
      <trkpt lat="45.371247483417392" lon="5.838187672197819">
        <ele>1035.5999755859375</ele>
        <time>2014-05-18T11:21:31Z</time>
      </trkpt>
      <trkpt lat="45.37120146676898" lon="5.838197898119688">
        <ele>1036.199951171875</ele>
        <time>2014-05-18T11:21:33Z</time>
      </trkpt>
      <trkpt lat="45.371117312461138" lon="5.838239472359419">
        <ele>1037.199951171875</ele>
        <time>2014-05-18T11:21:37Z</time>
      </trkpt>
      <trkpt lat="45.371074816212058" lon="5.838269563391805">
        <ele>1037.4000244140625</ele>
        <time>2014-05-18T11:21:39Z</time>
      </trkpt>
      <trkpt lat="45.370974652469158" lon="5.838350364938378">
        <ele>1038.4000244140625</ele>
        <time>2014-05-18T11:21:44Z</time>
      </trkpt>
      <trkpt lat="45.370955793187022" lon="5.838362937793136">
        <ele>1038.5999755859375</ele>
        <time>2014-05-18T11:21:45Z</time>
      </trkpt>
      <trkpt lat="45.370845822617412" lon="5.838362937793136">
        <ele>1039.4000244140625</ele>
        <time>2014-05-18T11:21:50Z</time>
      </trkpt>
      <trkpt lat="45.37082620896399" lon="5.838353633880615">
        <ele>1039.800048828125</ele>
        <time>2014-05-18T11:21:51Z</time>
      </trkpt>
      <trkpt lat="45.370777510106564" lon="5.838319268077612">
        <ele>1040.5999755859375</ele>
        <time>2014-05-18T11:21:54Z</time>
      </trkpt>
      <trkpt lat="45.370729062706232" lon="5.83826445043087">
        <ele>1041.4000244140625</ele>
        <time>2014-05-18T11:21:58Z</time>
      </trkpt>
      <trkpt lat="45.37071674130857" lon="5.838249614462256">
        <ele>1041.800048828125</ele>
        <time>2014-05-18T11:21:59Z</time>
      </trkpt>
      <trkpt lat="45.370677346363664" lon="5.838197059929371">
        <ele>1042.800048828125</ele>
        <time>2014-05-18T11:22:04Z</time>
      </trkpt>
      <trkpt lat="45.370666868984699" lon="5.838159928098321">
        <ele>1043</ele>
        <time>2014-05-18T11:22:06Z</time>
      </trkpt>
      <trkpt lat="45.370606435462832" lon="5.838076695799828">
        <ele>1044</ele>
        <time>2014-05-18T11:22:11Z</time>
      </trkpt>
      <trkpt lat="45.37059654481709" lon="5.838055992498994">
        <ele>1044</ele>
        <time>2014-05-18T11:22:12Z</time>
      </trkpt>
      <trkpt lat="45.370551533997059" lon="5.837950631976128">
        <ele>1045</ele>
        <time>2014-05-18T11:22:17Z</time>
      </trkpt>
      <trkpt lat="45.370516581460834" lon="5.83790042437613">
        <ele>1045.5999755859375</ele>
        <time>2014-05-18T11:22:20Z</time>
      </trkpt>
      <trkpt lat="45.370493279770017" lon="5.837864633649588">
        <ele>1046</ele>
        <time>2014-05-18T11:22:22Z</time>
      </trkpt>
      <trkpt lat="45.370481796562672" lon="5.837845355272293">
        <ele>1046.199951171875</ele>
        <time>2014-05-18T11:22:23Z</time>
      </trkpt>
      <trkpt lat="45.370461763814092" lon="5.83780805580318">
        <ele>1046.5999755859375</ele>
        <time>2014-05-18T11:22:25Z</time>
      </trkpt>
      <trkpt lat="45.370396887883544" lon="5.837715854868293">
        <ele>1047.4000244140625</ele>
        <time>2014-05-18T11:22:30Z</time>
      </trkpt>
      <trkpt lat="45.370380459353328" lon="5.83770202472806">
        <ele>1047.5999755859375</ele>
        <time>2014-05-18T11:22:31Z</time>
      </trkpt>
      <trkpt lat="45.370335783809423" lon="5.837620301172137">
        <ele>1048.4000244140625</ele>
        <time>2014-05-18T11:22:35Z</time>
      </trkpt>
      <trkpt lat="45.370308291167021" lon="5.837583001703024">
        <ele>1048.800048828125</ele>
        <time>2014-05-18T11:22:37Z</time>
      </trkpt>
      <trkpt lat="45.370257329195738" lon="5.837511420249939">
        <ele>1049.4000244140625</ele>
        <time>2014-05-18T11:22:41Z</time>
      </trkpt>
      <trkpt lat="45.370235200971365" lon="5.837475210428238">
        <ele>1049.800048828125</ele>
        <time>2014-05-18T11:22:43Z</time>
      </trkpt>
      <trkpt lat="45.370183065533638" lon="5.837406562641263">
        <ele>1050.5999755859375</ele>
        <time>2014-05-18T11:22:47Z</time>
      </trkpt>
      <trkpt lat="45.370140317827463" lon="5.837324671447277">
        <ele>1051</ele>
        <time>2014-05-18T11:22:51Z</time>
      </trkpt>
      <trkpt lat="45.370104275643826" lon="5.837260214611888">
        <ele>1051.5999755859375</ele>
        <time>2014-05-18T11:22:54Z</time>
      </trkpt>
      <trkpt lat="45.370044680312276" lon="5.83718947134912">
        <ele>1052.5999755859375</ele>
        <time>2014-05-18T11:22:58Z</time>
      </trkpt>
      <trkpt lat="45.370032107457519" lon="5.837169354781508">
        <ele>1052.800048828125</ele>
        <time>2014-05-18T11:22:59Z</time>
      </trkpt>
      <trkpt lat="45.369994137436152" lon="5.83712107501924">
        <ele>1053.199951171875</ele>
        <time>2014-05-18T11:23:02Z</time>
      </trkpt>
      <trkpt lat="45.369956167414784" lon="5.837081260979176">
        <ele>1053.800048828125</ele>
        <time>2014-05-18T11:23:05Z</time>
      </trkpt>
      <trkpt lat="45.369944600388408" lon="5.837069107219577">
        <ele>1054.199951171875</ele>
        <time>2014-05-18T11:23:06Z</time>
      </trkpt>
      <trkpt lat="45.369901098310947" lon="5.837002638727427">
        <ele>1054.800048828125</ele>
        <time>2014-05-18T11:23:10Z</time>
      </trkpt>
      <trkpt lat="45.369869414716959" lon="5.836967770010233">
        <ele>1055.199951171875</ele>
        <time>2014-05-18T11:23:12Z</time>
      </trkpt>
      <trkpt lat="45.36980889737606" lon="5.836892919614911">
        <ele>1056</ele>
        <time>2014-05-18T11:23:17Z</time>
      </trkpt>
      <trkpt lat="45.369796240702271" lon="5.836885292083025">
        <ele>1056.199951171875</ele>
        <time>2014-05-18T11:23:18Z</time>
      </trkpt>
      <trkpt lat="45.36971602588892" lon="5.836831731721759">
        <ele>1057.199951171875</ele>
        <time>2014-05-18T11:23:23Z</time>
      </trkpt>
      <trkpt lat="45.369704039767385" lon="5.836819410324097">
        <ele>1057.4000244140625</ele>
        <time>2014-05-18T11:23:24Z</time>
      </trkpt>
      <trkpt lat="45.369623070582747" lon="5.836781607940793">
        <ele>1058</ele>
        <time>2014-05-18T11:23:28Z</time>
      </trkpt>
      <trkpt lat="45.369577724486589" lon="5.836760737001896">
        <ele>1058.5999755859375</ele>
        <time>2014-05-18T11:23:31Z</time>
      </trkpt>
      <trkpt lat="45.36952642723918" lon="5.836746823042631">
        <ele>1059</ele>
        <time>2014-05-18T11:23:34Z</time>
      </trkpt>
      <trkpt lat="45.369472028687596" lon="5.836732406169176">
        <ele>1059.5999755859375</ele>
        <time>2014-05-18T11:23:37Z</time>
      </trkpt>
      <trkpt lat="45.369422156363726" lon="5.836712876334786">
        <ele>1060</ele>
        <time>2014-05-18T11:23:40Z</time>
      </trkpt>
      <trkpt lat="45.369366919621825" lon="5.836693178862333">
        <ele>1060.5999755859375</ele>
        <time>2014-05-18T11:23:43Z</time>
      </trkpt>
      <trkpt lat="45.369327776134014" lon="5.836689490824938">
        <ele>1061.199951171875</ele>
        <time>2014-05-18T11:23:45Z</time>
      </trkpt>
      <trkpt lat="45.369275137782097" lon="5.836679516360164">
        <ele>1061.800048828125</ele>
        <time>2014-05-18T11:23:48Z</time>
      </trkpt>
      <trkpt lat="45.369193078950047" lon="5.836673229932785">
        <ele>1062.5999755859375</ele>
        <time>2014-05-18T11:23:53Z</time>
      </trkpt>
      <trkpt lat="45.369175812229514" lon="5.836672056466341">
        <ele>1062.800048828125</ele>
        <time>2014-05-18T11:23:54Z</time>
      </trkpt>
      <trkpt lat="45.369142787531018" lon="5.836665686219931">
        <ele>1063</ele>
        <time>2014-05-18T11:23:56Z</time>
      </trkpt>
      <trkpt lat="45.369093837216496" lon="5.836644060909748">
        <ele>1063.4000244140625</ele>
        <time>2014-05-18T11:23:59Z</time>
      </trkpt>
      <trkpt lat="45.369062488898635" lon="5.836637439206243">
        <ele>1064</ele>
        <time>2014-05-18T11:24:01Z</time>
      </trkpt>
      <trkpt lat="45.368977077305317" lon="5.836611371487379">
        <ele>1064.800048828125</ele>
        <time>2014-05-18T11:24:05Z</time>
      </trkpt>
      <trkpt lat="45.36895670928061" lon="5.836599720641971">
        <ele>1065</ele>
        <time>2014-05-18T11:24:06Z</time>
      </trkpt>
      <trkpt lat="45.368859395384789" lon="5.836559068411589">
        <ele>1066</ele>
        <time>2014-05-18T11:24:11Z</time>
      </trkpt>
      <trkpt lat="45.368845229968429" lon="5.836552111431956">
        <ele>1066.199951171875</ele>
        <time>2014-05-18T11:24:12Z</time>
      </trkpt>
      <trkpt lat="45.368756549432874" lon="5.836483463644981">
        <ele>1067.199951171875</ele>
        <time>2014-05-18T11:24:18Z</time>
      </trkpt>
      <trkpt lat="45.368722686544061" lon="5.836458737030625">
        <ele>1067.5999755859375</ele>
        <time>2014-05-18T11:24:20Z</time>
      </trkpt>
      <trkpt lat="45.368663426488638" lon="5.836409702897072">
        <ele>1068.4000244140625</ele>
        <time>2014-05-18T11:24:24Z</time>
      </trkpt>
      <trkpt lat="45.368634425103664" lon="5.836384641006589">
        <ele>1069</ele>
        <time>2014-05-18T11:24:26Z</time>
      </trkpt>
      <trkpt lat="45.368537865579128" lon="5.836317082867026">
        <ele>1069.4000244140625</ele>
        <time>2014-05-18T11:24:32Z</time>
      </trkpt>
      <trkpt lat="45.368507523089647" lon="5.836295876652002">
        <ele>1069.800048828125</ele>
        <time>2014-05-18T11:24:34Z</time>
      </trkpt>
      <trkpt lat="45.368447592481971" lon="5.836248770356178">
        <ele>1070.4000244140625</ele>
        <time>2014-05-18T11:24:38Z</time>
      </trkpt>
      <trkpt lat="45.368390427902341" lon="5.836204765364528">
        <ele>1071</ele>
        <time>2014-05-18T11:24:42Z</time>
      </trkpt>
      <trkpt lat="45.368352206423879" lon="5.836165621876717">
        <ele>1071.5999755859375</ele>
        <time>2014-05-18T11:24:45Z</time>
      </trkpt>
      <trkpt lat="45.368275344371796" lon="5.836103931069374">
        <ele>1072.5999755859375</ele>
        <time>2014-05-18T11:24:51Z</time>
      </trkpt>
      <trkpt lat="45.368263525888324" lon="5.836094375699759">
        <ele>1072.5999755859375</ele>
        <time>2014-05-18T11:24:52Z</time>
      </trkpt>
      <trkpt lat="45.368192279711366" lon="5.835995553061366">
        <ele>1073.800048828125</ele>
        <time>2014-05-18T11:24:58Z</time>
      </trkpt>
      <trkpt lat="45.368178617209196" lon="5.835980549454689">
        <ele>1073.800048828125</ele>
        <time>2014-05-18T11:24:59Z</time>
      </trkpt>
      <trkpt lat="45.368119440972805" lon="5.835918020457029">
        <ele>1074.800048828125</ele>
        <time>2014-05-18T11:25:04Z</time>
      </trkpt>
      <trkpt lat="45.368104688823223" lon="5.83587359637022">
        <ele>1075</ele>
        <time>2014-05-18T11:25:06Z</time>
      </trkpt>
      <trkpt lat="45.368065880611539" lon="5.835757423192263">
        <ele>1075.800048828125</ele>
        <time>2014-05-18T11:25:12Z</time>
      </trkpt>
      <trkpt lat="45.368062444031239" lon="5.835735714063048">
        <ele>1076.199951171875</ele>
        <time>2014-05-18T11:25:13Z</time>
      </trkpt>
      <trkpt lat="45.368063198402524" lon="5.835715094581246">
        <ele>1076.4000244140625</ele>
        <time>2014-05-18T11:25:14Z</time>
      </trkpt>
      <trkpt lat="45.368068227544427" lon="5.835656588897109">
        <ele>1076.800048828125</ele>
        <time>2014-05-18T11:25:17Z</time>
      </trkpt>
      <trkpt lat="45.368072837591171" lon="5.835596239194274">
        <ele>1077.199951171875</ele>
        <time>2014-05-18T11:25:20Z</time>
      </trkpt>
      <trkpt lat="45.368069484829903" lon="5.83555550314486">
        <ele>1077.5999755859375</ele>
        <time>2014-05-18T11:25:22Z</time>
      </trkpt>
      <trkpt lat="45.368064204230905" lon="5.835514096543193">
        <ele>1078</ele>
        <time>2014-05-18T11:25:24Z</time>
      </trkpt>
      <trkpt lat="45.368045344948769" lon="5.835465313866735">
        <ele>1078.199951171875</ele>
        <time>2014-05-18T11:25:26Z</time>
      </trkpt>
      <trkpt lat="45.368017517030239" lon="5.835336484014988">
        <ele>1079</ele>
        <time>2014-05-18T11:25:31Z</time>
      </trkpt>
      <trkpt lat="45.368010560050607" lon="5.835310751572251">
        <ele>1079.199951171875</ele>
        <time>2014-05-18T11:25:32Z</time>
      </trkpt>
      <trkpt lat="45.367951216176152" lon="5.835219221189618">
        <ele>1080</ele>
        <time>2014-05-18T11:25:37Z</time>
      </trkpt>
      <trkpt lat="45.367939481511712" lon="5.835197260603309">
        <ele>1080.199951171875</ele>
        <time>2014-05-18T11:25:38Z</time>
      </trkpt>
      <trkpt lat="45.367883406579494" lon="5.835079327225685">
        <ele>1081</ele>
        <time>2014-05-18T11:25:44Z</time>
      </trkpt>
      <trkpt lat="45.367872091010213" lon="5.83505904302001">
        <ele>1081.199951171875</ele>
        <time>2014-05-18T11:25:45Z</time>
      </trkpt>
      <trkpt lat="45.367798497900367" lon="5.834932643920183">
        <ele>1082.4000244140625</ele>
        <time>2014-05-18T11:25:51Z</time>
      </trkpt>
      <trkpt lat="45.367779470980167" lon="5.834918478503823">
        <ele>1082.4000244140625</ele>
        <time>2014-05-18T11:25:52Z</time>
      </trkpt>
      <trkpt lat="45.367674864828587" lon="5.834846142679453">
        <ele>1083.4000244140625</ele>
        <time>2014-05-18T11:25:58Z</time>
      </trkpt>
      <trkpt lat="45.367662291973829" lon="5.8348333183676">
        <ele>1083.5999755859375</ele>
        <time>2014-05-18T11:25:59Z</time>
      </trkpt>
      <trkpt lat="45.367570426315069" lon="5.834762239828706">
        <ele>1084.4000244140625</ele>
        <time>2014-05-18T11:26:04Z</time>
      </trkpt>
      <trkpt lat="45.36755139939487" lon="5.834753019735217">
        <ele>1084.5999755859375</ele>
        <time>2014-05-18T11:26:05Z</time>
      </trkpt>
      <trkpt lat="45.367458779364824" lon="5.834725946187973">
        <ele>1085.5999755859375</ele>
        <time>2014-05-18T11:26:10Z</time>
      </trkpt>
      <trkpt lat="45.367415277287364" lon="5.834706919267774">
        <ele>1086</ele>
        <time>2014-05-18T11:26:12Z</time>
      </trkpt>
      <trkpt lat="45.367357525974512" lon="5.834660064429045">
        <ele>1086.5999755859375</ele>
        <time>2014-05-18T11:26:16Z</time>
      </trkpt>
      <trkpt lat="45.3673046361655" lon="5.834620334208012">
        <ele>1087.199951171875</ele>
        <time>2014-05-18T11:26:20Z</time>
      </trkpt>
      <trkpt lat="45.367257781326771" lon="5.834594601765275">
        <ele>1087.800048828125</ele>
        <time>2014-05-18T11:26:23Z</time>
      </trkpt>
      <trkpt lat="45.367181925103068" lon="5.834562918171287">
        <ele>1088.4000244140625</ele>
        <time>2014-05-18T11:26:28Z</time>
      </trkpt>
      <trkpt lat="45.367117384448647" lon="5.834533832967281">
        <ele>1088.800048828125</ele>
        <time>2014-05-18T11:26:32Z</time>
      </trkpt>
      <trkpt lat="45.367049910128117" lon="5.83451958373189">
        <ele>1089.800048828125</ele>
        <time>2014-05-18T11:26:36Z</time>
      </trkpt>
      <trkpt lat="45.367034235969186" lon="5.834518410265446">
        <ele>1090</ele>
        <time>2014-05-18T11:26:37Z</time>
      </trkpt>
      <trkpt lat="45.36693231202662" lon="5.834492677822709">
        <ele>1090.800048828125</ele>
        <time>2014-05-18T11:26:43Z</time>
      </trkpt>
      <trkpt lat="45.366916051134467" lon="5.834488570690155">
        <ele>1091.199951171875</ele>
        <time>2014-05-18T11:26:44Z</time>
      </trkpt>
      <trkpt lat="45.366885121911764" lon="5.83448538556695">
        <ele>1091.4000244140625</ele>
        <time>2014-05-18T11:26:46Z</time>
      </trkpt>
      <trkpt lat="45.36684388294816" lon="5.834474824368954">
        <ele>1091.800048828125</ele>
        <time>2014-05-18T11:26:49Z</time>
      </trkpt>
      <trkpt lat="45.366818569600582" lon="5.834455881267786">
        <ele>1092.199951171875</ele>
        <time>2014-05-18T11:26:51Z</time>
      </trkpt>
      <trkpt lat="45.366770289838314" lon="5.834453701972961">
        <ele>1092.5999755859375</ele>
        <time>2014-05-18T11:26:54Z</time>
      </trkpt>
      <trkpt lat="45.366717400029302" lon="5.834452277049422">
        <ele>1093.199951171875</ele>
        <time>2014-05-18T11:26:57Z</time>
      </trkpt>
      <trkpt lat="45.36663374863565" lon="5.834436351433396">
        <ele>1094</ele>
        <time>2014-05-18T11:27:02Z</time>
      </trkpt>
      <trkpt lat="45.36661664955318" lon="5.834429897367954">
        <ele>1094.5999755859375</ele>
        <time>2014-05-18T11:27:03Z</time>
      </trkpt>
      <trkpt lat="45.36650181747973" lon="5.834419755265117">
        <ele>1095.4000244140625</ele>
        <time>2014-05-18T11:27:09Z</time>
      </trkpt>
      <trkpt lat="45.366444317623973" lon="5.834430400282145">
        <ele>1096</ele>
        <time>2014-05-18T11:27:12Z</time>
      </trkpt>
      <trkpt lat="45.366342728957534" lon="5.834419755265117">
        <ele>1096.800048828125</ele>
        <time>2014-05-18T11:27:17Z</time>
      </trkpt>
      <trkpt lat="45.366321858018637" lon="5.834410116076469">
        <ele>1097</ele>
        <time>2014-05-18T11:27:18Z</time>
      </trkpt>
      <trkpt lat="45.366223370656371" lon="5.834391340613365">
        <ele>1098.199951171875</ele>
        <time>2014-05-18T11:27:23Z</time>
      </trkpt>
      <trkpt lat="45.36620425991714" lon="5.834388742223382">
        <ele>1098.199951171875</ele>
        <time>2014-05-18T11:27:24Z</time>
      </trkpt>
      <trkpt lat="45.366095714271069" lon="5.834356304258108">
        <ele>1099.199951171875</ele>
        <time>2014-05-18T11:27:30Z</time>
      </trkpt>
      <trkpt lat="45.366078866645694" lon="5.834348006173968">
        <ele>1099.4000244140625</ele>
        <time>2014-05-18T11:27:31Z</time>
      </trkpt>
      <trkpt lat="45.365955904126167" lon="5.834313305094838">
        <ele>1100.4000244140625</ele>
        <time>2014-05-18T11:27:37Z</time>
      </trkpt>
      <trkpt lat="45.365918353199959" lon="5.834307605400682">
        <ele>1100.5999755859375</ele>
        <time>2014-05-18T11:27:39Z</time>
      </trkpt>
      <trkpt lat="45.365832271054387" lon="5.834276508539915">
        <ele>1101.4000244140625</ele>
        <time>2014-05-18T11:27:44Z</time>
      </trkpt>
      <trkpt lat="45.36581676453352" lon="5.834267791360617">
        <ele>1101.800048828125</ele>
        <time>2014-05-18T11:27:45Z</time>
      </trkpt>
      <trkpt lat="45.365740321576595" lon="5.834230491891503">
        <ele>1102.5999755859375</ele>
        <time>2014-05-18T11:27:50Z</time>
      </trkpt>
      <trkpt lat="45.365721378475428" lon="5.834223870187998">
        <ele>1102.800048828125</ele>
        <time>2014-05-18T11:27:51Z</time>
      </trkpt>
      <trkpt lat="45.365610653534532" lon="5.834135692566633">
        <ele>1103.5999755859375</ele>
        <time>2014-05-18T11:27:57Z</time>
      </trkpt>
      <trkpt lat="45.365574946627021" lon="5.834115073084831">
        <ele>1104</ele>
        <time>2014-05-18T11:27:59Z</time>
      </trkpt>
      <trkpt lat="45.365495989099145" lon="5.834055561572313">
        <ele>1104.5999755859375</ele>
        <time>2014-05-18T11:28:04Z</time>
      </trkpt>
      <trkpt lat="45.365478554740548" lon="5.834046928212047">
        <ele>1104.800048828125</ele>
        <time>2014-05-18T11:28:05Z</time>
      </trkpt>
      <trkpt lat="45.365434885025024" lon="5.834011472761631">
        <ele>1104.800048828125</ele>
        <time>2014-05-18T11:28:08Z</time>
      </trkpt>
      <trkpt lat="45.365412924438715" lon="5.833978028967977">
        <ele>1104.5999755859375</ele>
        <time>2014-05-18T11:28:10Z</time>
      </trkpt>
      <trkpt lat="45.365399429574609" lon="5.833966378122568">
        <ele>1104.199951171875</ele>
        <time>2014-05-18T11:29:00Z</time>
      </trkpt>
      <trkpt lat="45.365361962467432" lon="5.833945758640766">
        <ele>1104</ele>
        <time>2014-05-18T11:29:02Z</time>
      </trkpt>
      <trkpt lat="45.365284346044064" lon="5.833893790841103">
        <ele>1103.4000244140625</ele>
        <time>2014-05-18T11:29:05Z</time>
      </trkpt>
      <trkpt lat="45.365211255848408" lon="5.833842577412725">
        <ele>1103</ele>
        <time>2014-05-18T11:29:07Z</time>
      </trkpt>
      <trkpt lat="45.365121401846409" lon="5.833764793351293">
        <ele>1102.199951171875</ele>
        <time>2014-05-18T11:29:09Z</time>
      </trkpt>
      <trkpt lat="45.36501981317997" lon="5.833683321252465">
        <ele>1101</ele>
        <time>2014-05-18T11:29:11Z</time>
      </trkpt>
      <trkpt lat="45.36490498110652" lon="5.833587432280183">
        <ele>1099.800048828125</ele>
        <time>2014-05-18T11:29:13Z</time>
      </trkpt>
      <trkpt lat="45.364767014980316" lon="5.833474611863494">
        <ele>1098.4000244140625</ele>
        <time>2014-05-18T11:29:15Z</time>
      </trkpt>
      <trkpt lat="45.364691996946931" lon="5.833417363464832">
        <ele>1097.4000244140625</ele>
        <time>2014-05-18T11:29:16Z</time>
      </trkpt>
      <trkpt lat="45.36461572162807" lon="5.833351146429777">
        <ele>1096.5999755859375</ele>
        <time>2014-05-18T11:29:17Z</time>
      </trkpt>
      <trkpt lat="45.364456214010715" lon="5.833199014887214">
        <ele>1094.800048828125</ele>
        <time>2014-05-18T11:29:19Z</time>
      </trkpt>
      <trkpt lat="45.364375077188015" lon="5.833110418170691">
        <ele>1094</ele>
        <time>2014-05-18T11:29:20Z</time>
      </trkpt>
      <trkpt lat="45.364292683079839" lon="5.833015870302916">
        <ele>1091.5999755859375</ele>
        <time>2014-05-18T11:29:21Z</time>
      </trkpt>
      <trkpt lat="45.364211462438107" lon="5.832918388769031">
        <ele>1090.199951171875</ele>
        <time>2014-05-18T11:29:22Z</time>
      </trkpt>
      <trkpt lat="45.364042399451137" lon="5.832732897251844">
        <ele>1088.5999755859375</ele>
        <time>2014-05-18T11:29:24Z</time>
      </trkpt>
      <trkpt lat="45.363878197968006" lon="5.832510609179735">
        <ele>1086.5999755859375</ele>
        <time>2014-05-18T11:29:26Z</time>
      </trkpt>
      <trkpt lat="45.363816255703568" lon="5.832366775721312">
        <ele>1085.199951171875</ele>
        <time>2014-05-18T11:29:27Z</time>
      </trkpt>
      <trkpt lat="45.363765964284539" lon="5.832209950312972">
        <ele>1083.5999755859375</ele>
        <time>2014-05-18T11:29:28Z</time>
      </trkpt>
      <trkpt lat="45.363713996484876" lon="5.83205203525722">
        <ele>1082</ele>
        <time>2014-05-18T11:29:29Z</time>
      </trkpt>
      <trkpt lat="45.363643504679203" lon="5.831903759390116">
        <ele>1080.800048828125</ele>
        <time>2014-05-18T11:29:30Z</time>
      </trkpt>
      <trkpt lat="45.363554069772363" lon="5.831773253157735">
        <ele>1079.800048828125</ele>
        <time>2014-05-18T11:29:31Z</time>
      </trkpt>
      <trkpt lat="45.363449966534972" lon="5.831661019474268">
        <ele>1078.800048828125</ele>
        <time>2014-05-18T11:29:32Z</time>
      </trkpt>
      <trkpt lat="45.363338487222791" lon="5.831555994227529">
        <ele>1077.5999755859375</ele>
        <time>2014-05-18T11:29:33Z</time>
      </trkpt>
      <trkpt lat="45.363229103386402" lon="5.831446023657918">
        <ele>1076</ele>
        <time>2014-05-18T11:29:34Z</time>
      </trkpt>
      <trkpt lat="45.363120809197426" lon="5.831332113593817">
        <ele>1074.800048828125</ele>
        <time>2014-05-18T11:29:35Z</time>
      </trkpt>
      <trkpt lat="45.363013437017798" lon="5.831216610968113">
        <ele>1073.5999755859375</ele>
        <time>2014-05-18T11:29:36Z</time>
      </trkpt>
      <trkpt lat="45.362803554162383" lon="5.830988371744752">
        <ele>1071.800048828125</ele>
        <time>2014-05-18T11:29:38Z</time>
      </trkpt>
      <trkpt lat="45.362595515325665" lon="5.830757366493344">
        <ele>1070.199951171875</ele>
        <time>2014-05-18T11:29:40Z</time>
      </trkpt>
      <trkpt lat="45.362489065155387" lon="5.830639181658626">
        <ele>1069.199951171875</ele>
        <time>2014-05-18T11:29:41Z</time>
      </trkpt>
      <trkpt lat="45.362381776794791" lon="5.830520829185844">
        <ele>1068</ele>
        <time>2014-05-18T11:29:42Z</time>
      </trkpt>
      <trkpt lat="45.362276751548052" lon="5.830400884151459">
        <ele>1066.4000244140625</ele>
        <time>2014-05-18T11:29:43Z</time>
      </trkpt>
      <trkpt lat="45.362170469015837" lon="5.830281190574169">
        <ele>1065.199951171875</ele>
        <time>2014-05-18T11:29:44Z</time>
      </trkpt>
      <trkpt lat="45.362061001360416" lon="5.830164514482021">
        <ele>1062.800048828125</ele>
        <time>2014-05-18T11:29:45Z</time>
      </trkpt>
      <trkpt lat="45.361942565068603" lon="5.830070720985532">
        <ele>1061</ele>
        <time>2014-05-18T11:29:46Z</time>
      </trkpt>
      <trkpt lat="45.361818596720695" lon="5.829999810084701">
        <ele>1060.199951171875</ele>
        <time>2014-05-18T11:29:47Z</time>
      </trkpt>
      <trkpt lat="45.361687419936061" lon="5.829953709617257">
        <ele>1059.4000244140625</ele>
        <time>2014-05-18T11:29:48Z</time>
      </trkpt>
      <trkpt lat="45.361422635614872" lon="5.829866202548146">
        <ele>1059</ele>
        <time>2014-05-18T11:29:50Z</time>
      </trkpt>
      <trkpt lat="45.361181069165468" lon="5.829805182293057">
        <ele>1057.199951171875</ele>
        <time>2014-05-18T11:29:52Z</time>
      </trkpt>
      <trkpt lat="45.361048383638263" lon="5.829789927229285">
        <ele>1055.5999755859375</ele>
        <time>2014-05-18T11:29:53Z</time>
      </trkpt>
      <trkpt lat="45.360904801636934" lon="5.829790513962507">
        <ele>1053.5999755859375</ele>
        <time>2014-05-18T11:29:54Z</time>
      </trkpt>
      <trkpt lat="45.360756190493703" lon="5.829799566417933">
        <ele>1051.800048828125</ele>
        <time>2014-05-18T11:29:55Z</time>
      </trkpt>
      <trkpt lat="45.360602466389537" lon="5.829803589731455">
        <ele>1050</ele>
        <time>2014-05-18T11:29:56Z</time>
      </trkpt>
      <trkpt lat="45.36044429987669" lon="5.829792441800237">
        <ele>1048</ele>
        <time>2014-05-18T11:29:57Z</time>
      </trkpt>
      <trkpt lat="45.360293006524444" lon="5.8297701459378">
        <ele>1046.4000244140625</ele>
        <time>2014-05-18T11:29:58Z</time>
      </trkpt>
      <trkpt lat="45.360151687636971" lon="5.829738713800907">
        <ele>1044.800048828125</ele>
        <time>2014-05-18T11:29:59Z</time>
      </trkpt>
      <trkpt lat="45.360015397891402" lon="5.829699486494064">
        <ele>1043.800048828125</ele>
        <time>2014-05-18T11:30:00Z</time>
      </trkpt>
      <trkpt lat="45.359882796183228" lon="5.829668808728457">
        <ele>1042.5999755859375</ele>
        <time>2014-05-18T11:30:01Z</time>
      </trkpt>
      <trkpt lat="45.359758995473385" lon="5.829668892547488">
        <ele>1041.5999755859375</ele>
        <time>2014-05-18T11:30:02Z</time>
      </trkpt>
      <trkpt lat="45.359641229733825" lon="5.829688338562846">
        <ele>1040.800048828125</ele>
        <time>2014-05-18T11:30:03Z</time>
      </trkpt>
      <trkpt lat="45.359528744593263" lon="5.829719938337803">
        <ele>1039.5999755859375</ele>
        <time>2014-05-18T11:30:04Z</time>
      </trkpt>
      <trkpt lat="45.359416510909796" lon="5.829735780134797">
        <ele>1038.4000244140625</ele>
        <time>2014-05-18T11:30:05Z</time>
      </trkpt>
      <trkpt lat="45.359299331903458" lon="5.829732846468687">
        <ele>1037.199951171875</ele>
        <time>2014-05-18T11:30:06Z</time>
      </trkpt>
      <trkpt lat="45.359182907268405" lon="5.829738713800907">
        <ele>1036.199951171875</ele>
        <time>2014-05-18T11:30:07Z</time>
      </trkpt>
      <trkpt lat="45.359072685241699" lon="5.829778527840972">
        <ele>1034.800048828125</ele>
        <time>2014-05-18T11:30:08Z</time>
      </trkpt>
      <trkpt lat="45.35896765999496" lon="5.829840051010251">
        <ele>1031.800048828125</ele>
        <time>2014-05-18T11:30:09Z</time>
      </trkpt>
      <trkpt lat="45.358870513737202" lon="5.829905429854989">
        <ele>1031</ele>
        <time>2014-05-18T11:30:10Z</time>
      </trkpt>
      <trkpt lat="45.358776049688458" lon="5.829946333542466">
        <ele>1030.4000244140625</ele>
        <time>2014-05-18T11:30:11Z</time>
      </trkpt>
      <trkpt lat="45.358605310320854" lon="5.829909117892385">
        <ele>1029.199951171875</ele>
        <time>2014-05-18T11:30:13Z</time>
      </trkpt>
      <trkpt lat="45.358456950634718" lon="5.829730667173863">
        <ele>1027</ele>
        <time>2014-05-18T11:30:15Z</time>
      </trkpt>
      <trkpt lat="45.358383441343904" lon="5.829615332186222">
        <ele>1025</ele>
        <time>2014-05-18T11:30:16Z</time>
      </trkpt>
      <trkpt lat="45.358299873769283" lon="5.829501757398248">
        <ele>1023.4000244140625</ele>
        <time>2014-05-18T11:30:17Z</time>
      </trkpt>
      <trkpt lat="45.358211025595665" lon="5.829389691352844">
        <ele>1021.5999755859375</ele>
        <time>2014-05-18T11:30:18Z</time>
      </trkpt>
      <trkpt lat="45.35812527872622" lon="5.829251809045672">
        <ele>1020.5999755859375</ele>
        <time>2014-05-18T11:30:19Z</time>
      </trkpt>
      <trkpt lat="45.358037017285824" lon="5.829087691381574">
        <ele>1018.5999755859375</ele>
        <time>2014-05-18T11:30:20Z</time>
      </trkpt>
      <trkpt lat="45.357970045879483" lon="5.828912509605289">
        <ele>1017</ele>
        <time>2014-05-18T11:30:21Z</time>
      </trkpt>
      <trkpt lat="45.357911372557282" lon="5.828722324222326">
        <ele>1015.2000122070312</ele>
        <time>2014-05-18T11:30:22Z</time>
      </trkpt>
      <trkpt lat="45.35786191932857" lon="5.828519398346543">
        <ele>1013.5999755859375</ele>
        <time>2014-05-18T11:30:23Z</time>
      </trkpt>
      <trkpt lat="45.357824200764298" lon="5.828311275690794">
        <ele>1011.4000244140625</ele>
        <time>2014-05-18T11:30:24Z</time>
      </trkpt>
      <trkpt lat="45.357789751142263" lon="5.828093346208334">
        <ele>1009.5999755859375</ele>
        <time>2014-05-18T11:30:25Z</time>
      </trkpt>
      <trkpt lat="45.357757061719894" lon="5.827873237431049">
        <ele>1008</ele>
        <time>2014-05-18T11:30:26Z</time>
      </trkpt>
      <trkpt lat="45.357714733108878" lon="5.827657403424382">
        <ele>1006.5999755859375</ele>
        <time>2014-05-18T11:30:27Z</time>
      </trkpt>
      <trkpt lat="45.357666034251451" lon="5.827455399557948">
        <ele>1005</ele>
        <time>2014-05-18T11:30:28Z</time>
      </trkpt>
      <trkpt lat="45.357599817216396" lon="5.827267393469811">
        <ele>1003.2000122070312</ele>
        <time>2014-05-18T11:30:29Z</time>
      </trkpt>
      <trkpt lat="45.357520943507552" lon="5.82708508707583">
        <ele>1001.5999755859375</ele>
        <time>2014-05-18T11:30:30Z</time>
      </trkpt>
      <trkpt lat="45.357440812513232" lon="5.826917281374335">
        <ele>1000.2000122070312</ele>
        <time>2014-05-18T11:30:31Z</time>
      </trkpt>
      <trkpt lat="45.3573595918715" lon="5.826762467622757">
        <ele>998.79998779296875</ele>
        <time>2014-05-18T11:30:32Z</time>
      </trkpt>
      <trkpt lat="45.357268312945962" lon="5.826619891449809">
        <ele>996</ele>
        <time>2014-05-18T11:30:33Z</time>
      </trkpt>
      <trkpt lat="45.35716949030757" lon="5.826499778777361">
        <ele>994.5999755859375</ele>
        <time>2014-05-18T11:30:34Z</time>
      </trkpt>
      <trkpt lat="45.357077959924936" lon="5.826389472931624">
        <ele>993</ele>
        <time>2014-05-18T11:30:35Z</time>
      </trkpt>
      <trkpt lat="45.35700193606317" lon="5.826272880658507">
        <ele>992</ele>
        <time>2014-05-18T11:30:36Z</time>
      </trkpt>
      <trkpt lat="45.356953488662839" lon="5.82613960839808">
        <ele>991</ele>
        <time>2014-05-18T11:30:37Z</time>
      </trkpt>
      <trkpt lat="45.356940915808082" lon="5.82599401473999">
        <ele>990.5999755859375</ele>
        <time>2014-05-18T11:30:38Z</time>
      </trkpt>
      <trkpt lat="45.356950052082539" lon="5.825849091634154">
        <ele>989.5999755859375</ele>
        <time>2014-05-18T11:30:39Z</time>
      </trkpt>
      <trkpt lat="45.356961116194725" lon="5.825714310631156">
        <ele>989</ele>
        <time>2014-05-18T11:30:40Z</time>
      </trkpt>
      <trkpt lat="45.356955332681537" lon="5.825587911531329">
        <ele>988.5999755859375</ele>
        <time>2014-05-18T11:30:41Z</time>
      </trkpt>
      <trkpt lat="45.356884589418769" lon="5.825413400307298">
        <ele>987.5999755859375</ele>
        <time>2014-05-18T11:30:43Z</time>
      </trkpt>
      <trkpt lat="45.356844440102577" lon="5.825388338416815">
        <ele>987</ele>
        <time>2014-05-18T11:30:44Z</time>
      </trkpt>
      <trkpt lat="45.356715861707926" lon="5.825413232669234">
        <ele>985</ele>
        <time>2014-05-18T11:30:46Z</time>
      </trkpt>
      <trkpt lat="45.356620643287897" lon="5.825401749461889">
        <ele>983.4000244140625</ele>
        <time>2014-05-18T11:30:47Z</time>
      </trkpt>
      <trkpt lat="45.356520563364029" lon="5.825360426679254">
        <ele>982</ele>
        <time>2014-05-18T11:30:48Z</time>
      </trkpt>
      <trkpt lat="45.356418890878558" lon="5.825300328433514">
        <ele>980.5999755859375</ele>
        <time>2014-05-18T11:30:49Z</time>
      </trkpt>
      <trkpt lat="45.356313362717628" lon="5.825229752808809">
        <ele>979.5999755859375</ele>
        <time>2014-05-18T11:30:50Z</time>
      </trkpt>
      <trkpt lat="45.356207331642509" lon="5.825155153870583">
        <ele>978.4000244140625</ele>
        <time>2014-05-18T11:30:51Z</time>
      </trkpt>
      <trkpt lat="45.356099121272564" lon="5.825071921572089">
        <ele>976.4000244140625</ele>
        <time>2014-05-18T11:30:52Z</time>
      </trkpt>
      <trkpt lat="45.355993760749698" lon="5.824997071176767">
        <ele>974.79998779296875</ele>
        <time>2014-05-18T11:30:53Z</time>
      </trkpt>
      <trkpt lat="45.35587465390563" lon="5.824925489723682">
        <ele>973.20001220703125</ele>
        <time>2014-05-18T11:30:54Z</time>
      </trkpt>
      <trkpt lat="45.355618167668581" lon="5.824790457263589">
        <ele>970.79998779296875</ele>
        <time>2014-05-18T11:30:56Z</time>
      </trkpt>
      <trkpt lat="45.355492942035198" lon="5.824693143367767">
        <ele>967</ele>
        <time>2014-05-18T11:30:57Z</time>
      </trkpt>
      <trkpt lat="45.355369811877608" lon="5.824585938826203">
        <ele>965.5999755859375</ele>
        <time>2014-05-18T11:30:58Z</time>
      </trkpt>
      <trkpt lat="45.355248861014843" lon="5.824470017105341">
        <ele>964.4000244140625</ele>
        <time>2014-05-18T11:30:59Z</time>
      </trkpt>
      <trkpt lat="45.355131765827537" lon="5.824341103434563">
        <ele>962.79998779296875</ele>
        <time>2014-05-18T11:31:00Z</time>
      </trkpt>
      <trkpt lat="45.355008384212852" lon="5.824212189763784">
        <ele>961</ele>
        <time>2014-05-18T11:31:01Z</time>
      </trkpt>
      <trkpt lat="45.354884415864944" lon="5.824078330770135">
        <ele>959.20001220703125</ele>
        <time>2014-05-18T11:31:02Z</time>
      </trkpt>
      <trkpt lat="45.354758184403181" lon="5.823950171470642">
        <ele>957.4000244140625</ele>
        <time>2014-05-18T11:31:03Z</time>
      </trkpt>
      <trkpt lat="45.354628097265959" lon="5.82382251508534">
        <ele>955.5999755859375</ele>
        <time>2014-05-18T11:31:04Z</time>
      </trkpt>
      <trkpt lat="45.35449281334877" lon="5.823703659698367">
        <ele>953.79998779296875</ele>
        <time>2014-05-18T11:31:05Z</time>
      </trkpt>
      <trkpt lat="45.354357780888677" lon="5.823581116273999">
        <ele>951.79998779296875</ele>
        <time>2014-05-18T11:31:06Z</time>
      </trkpt>
      <trkpt lat="45.354236662387848" lon="5.823445916175842">
        <ele>950.20001220703125</ele>
        <time>2014-05-18T11:31:07Z</time>
      </trkpt>
      <trkpt lat="45.354127278551459" lon="5.823301244527102">
        <ele>948.5999755859375</ele>
        <time>2014-05-18T11:31:08Z</time>
      </trkpt>
      <trkpt lat="45.353934243321419" lon="5.822990527376533">
        <ele>946.79998779296875</ele>
        <time>2014-05-18T11:31:10Z</time>
      </trkpt>
      <trkpt lat="45.353756630793214" lon="5.822720881551504">
        <ele>944.79998779296875</ele>
        <time>2014-05-18T11:31:12Z</time>
      </trkpt>
      <trkpt lat="45.35365479066968" lon="5.82261560484767">
        <ele>944.20001220703125</ele>
        <time>2014-05-18T11:31:13Z</time>
      </trkpt>
      <trkpt lat="45.353537108749151" lon="5.82253647968173">
        <ele>943.20001220703125</ele>
        <time>2014-05-18T11:31:14Z</time>
      </trkpt>
      <trkpt lat="45.353409620001912" lon="5.822485936805606">
        <ele>941.4000244140625</ele>
        <time>2014-05-18T11:31:15Z</time>
      </trkpt>
      <trkpt lat="45.353278275579214" lon="5.822455426678062">
        <ele>939.5999755859375</ele>
        <time>2014-05-18T11:31:16Z</time>
      </trkpt>
      <trkpt lat="45.353145757690072" lon="5.822424497455359">
        <ele>937.79998779296875</ele>
        <time>2014-05-18T11:31:17Z</time>
      </trkpt>
      <trkpt lat="45.353022878989577" lon="5.822386192157865">
        <ele>936.79998779296875</ele>
        <time>2014-05-18T11:31:18Z</time>
      </trkpt>
      <trkpt lat="45.352903855964541" lon="5.822330620139837">
        <ele>936.4000244140625</ele>
        <time>2014-05-18T11:31:19Z</time>
      </trkpt>
      <trkpt lat="45.352797573432326" lon="5.822251494973898">
        <ele>935.20001220703125</ele>
        <time>2014-05-18T11:31:20Z</time>
      </trkpt>
      <trkpt lat="45.352705456316471" lon="5.822150325402618">
        <ele>933.79998779296875</ele>
        <time>2014-05-18T11:31:21Z</time>
      </trkpt>
      <trkpt lat="45.352630186825991" lon="5.822035828605294">
        <ele>933.5999755859375</ele>
        <time>2014-05-18T11:31:22Z</time>
      </trkpt>
      <trkpt lat="45.352455927059054" lon="5.821874728426337">
        <ele>931.79998779296875</ele>
        <time>2014-05-18T11:31:24Z</time>
      </trkpt>
      <trkpt lat="45.352352997288108" lon="5.821837177500129">
        <ele>930.79998779296875</ele>
        <time>2014-05-18T11:31:25Z</time>
      </trkpt>
      <trkpt lat="45.352246882393956" lon="5.821797028183937">
        <ele>929.5999755859375</ele>
        <time>2014-05-18T11:31:26Z</time>
      </trkpt>
      <trkpt lat="45.352142527699471" lon="5.821733828634024">
        <ele>928.20001220703125</ele>
        <time>2014-05-18T11:31:27Z</time>
      </trkpt>
      <trkpt lat="45.352053679525852" lon="5.821630731225014">
        <ele>926.79998779296875</ele>
        <time>2014-05-18T11:31:28Z</time>
      </trkpt>
      <trkpt lat="45.351966507732868" lon="5.821517575532198">
        <ele>925.4000244140625</ele>
        <time>2014-05-18T11:31:29Z</time>
      </trkpt>
      <trkpt lat="45.35187816247344" lon="5.821402911096811">
        <ele>924</ele>
        <time>2014-05-18T11:31:30Z</time>
      </trkpt>
      <trkpt lat="45.351788643747568" lon="5.821284810081124">
        <ele>922.5999755859375</ele>
        <time>2014-05-18T11:31:31Z</time>
      </trkpt>
      <trkpt lat="45.351697783917189" lon="5.821162853389978">
        <ele>921.20001220703125</ele>
        <time>2014-05-18T11:31:32Z</time>
      </trkpt>
      <trkpt lat="45.351605163887143" lon="5.821036119014025">
        <ele>919.5999755859375</ele>
        <time>2014-05-18T11:31:33Z</time>
      </trkpt>
      <trkpt lat="45.351512543857098" lon="5.820902846753597">
        <ele>918.20001220703125</ele>
        <time>2014-05-18T11:31:34Z</time>
      </trkpt>
      <trkpt lat="45.351422438398004" lon="5.820765048265457">
        <ele>916.5999755859375</ele>
        <time>2014-05-18T11:31:35Z</time>
      </trkpt>
      <trkpt lat="45.351340714842081" lon="5.820617526769638">
        <ele>915.4000244140625</ele>
        <time>2014-05-18T11:31:36Z</time>
      </trkpt>
      <trkpt lat="45.351265948265791" lon="5.82046028226614">
        <ele>913.79998779296875</ele>
        <time>2014-05-18T11:31:37Z</time>
      </trkpt>
      <trkpt lat="45.351198809221387" lon="5.820299182087183">
        <ele>912.5999755859375</ele>
        <time>2014-05-18T11:31:38Z</time>
      </trkpt>
      <trkpt lat="45.351082719862461" lon="5.8199892193079">
        <ele>911.20001220703125</ele>
        <time>2014-05-18T11:31:40Z</time>
      </trkpt>
      <trkpt lat="45.350977946072817" lon="5.819711526855826">
        <ele>910</ele>
        <time>2014-05-18T11:31:42Z</time>
      </trkpt>
      <trkpt lat="45.350909633561969" lon="5.819604909047484">
        <ele>909.5999755859375</ele>
        <time>2014-05-18T11:31:43Z</time>
      </trkpt>
      <trkpt lat="45.350831933319569" lon="5.8195177372545">
        <ele>909.20001220703125</ele>
        <time>2014-05-18T11:31:44Z</time>
      </trkpt>
      <trkpt lat="45.350749874487519" lon="5.819462668150663">
        <ele>907.5999755859375</ele>
        <time>2014-05-18T11:31:45Z</time>
      </trkpt>
      <trkpt lat="45.350655494257808" lon="5.81944297067821">
        <ele>907</ele>
        <time>2014-05-18T11:31:46Z</time>
      </trkpt>
      <trkpt lat="45.350561616942286" lon="5.819444479420781">
        <ele>906</ele>
        <time>2014-05-18T11:31:47Z</time>
      </trkpt>
      <trkpt lat="45.35038735717535" lon="5.819478509947658">
        <ele>905.20001220703125</ele>
        <time>2014-05-18T11:31:49Z</time>
      </trkpt>
      <trkpt lat="45.350301945582032" lon="5.819478845223784">
        <ele>904.79998779296875</ele>
        <time>2014-05-18T11:31:50Z</time>
      </trkpt>
      <trkpt lat="45.350213181227446" lon="5.81946786493063">
        <ele>903.5999755859375</ele>
        <time>2014-05-18T11:31:51Z</time>
      </trkpt>
      <trkpt lat="45.350031210109591" lon="5.81943416967988">
        <ele>902.4000244140625</ele>
        <time>2014-05-18T11:31:53Z</time>
      </trkpt>
      <trkpt lat="45.349835325032473" lon="5.819365018978715">
        <ele>901.20001220703125</ele>
        <time>2014-05-18T11:31:55Z</time>
      </trkpt>
      <trkpt lat="45.349635584279895" lon="5.819277679547668">
        <ele>900.20001220703125</ele>
        <time>2014-05-18T11:31:57Z</time>
      </trkpt>
      <trkpt lat="45.349432742223144" lon="5.819196542724967">
        <ele>899</ele>
        <time>2014-05-18T11:31:59Z</time>
      </trkpt>
      <trkpt lat="45.349226212128997" lon="5.819120099768043">
        <ele>897.79998779296875</ele>
        <time>2014-05-18T11:32:01Z</time>
      </trkpt>
      <trkpt lat="45.349018340930343" lon="5.819031419232488">
        <ele>896.5999755859375</ele>
        <time>2014-05-18T11:32:03Z</time>
      </trkpt>
      <trkpt lat="45.348722711205482" lon="5.818830505013466">
        <ele>895.5999755859375</ele>
        <time>2014-05-18T11:32:06Z</time>
      </trkpt>
      <trkpt lat="45.348632773384452" lon="5.818734783679247">
        <ele>895.4000244140625</ele>
        <time>2014-05-18T11:32:07Z</time>
      </trkpt>
      <trkpt lat="45.348484916612506" lon="5.818489193916321">
        <ele>893</ele>
        <time>2014-05-18T11:32:09Z</time>
      </trkpt>
      <trkpt lat="45.348418699577451" lon="5.818354748189449">
        <ele>892</ele>
        <time>2014-05-18T11:32:10Z</time>
      </trkpt>
      <trkpt lat="45.348349967971444" lon="5.818217368796468">
        <ele>890.5999755859375</ele>
        <time>2014-05-18T11:32:11Z</time>
      </trkpt>
      <trkpt lat="45.348279811441898" lon="5.818075966089964">
        <ele>889.20001220703125</ele>
        <time>2014-05-18T11:32:12Z</time>
      </trkpt>
      <trkpt lat="45.348207056522369" lon="5.817933976650238">
        <ele>888.20001220703125</ele>
        <time>2014-05-18T11:32:13Z</time>
      </trkpt>
      <trkpt lat="45.34804972819984" lon="5.817655110731721">
        <ele>886.5999755859375</ele>
        <time>2014-05-18T11:32:15Z</time>
      </trkpt>
      <trkpt lat="45.347967417910695" lon="5.817521503195167">
        <ele>885.79998779296875</ele>
        <time>2014-05-18T11:32:16Z</time>
      </trkpt>
      <trkpt lat="45.347882844507694" lon="5.817391751334071">
        <ele>884.79998779296875</ele>
        <time>2014-05-18T11:32:17Z</time>
      </trkpt>
      <trkpt lat="45.347694670781493" lon="5.817164937034249">
        <ele>883.4000244140625</ele>
        <time>2014-05-18T11:32:19Z</time>
      </trkpt>
      <trkpt lat="45.347590064629912" lon="5.817081788554788">
        <ele>882.79998779296875</ele>
        <time>2014-05-18T11:32:20Z</time>
      </trkpt>
      <trkpt lat="45.347476489841938" lon="5.817020013928413">
        <ele>881.79998779296875</ele>
        <time>2014-05-18T11:32:21Z</time>
      </trkpt>
      <trkpt lat="45.347354784607887" lon="5.816977769136429">
        <ele>880.5999755859375</ele>
        <time>2014-05-18T11:32:22Z</time>
      </trkpt>
      <trkpt lat="45.347233079373837" lon="5.816949522122741">
        <ele>879.20001220703125</ele>
        <time>2014-05-18T11:32:23Z</time>
      </trkpt>
      <trkpt lat="45.347109697759151" lon="5.816919766366482">
        <ele>878</ele>
        <time>2014-05-18T11:32:24Z</time>
      </trkpt>
      <trkpt lat="45.346988495439291" lon="5.816886993125081">
        <ele>876.5999755859375</ele>
        <time>2014-05-18T11:32:25Z</time>
      </trkpt>
      <trkpt lat="45.346759250387549" lon="5.816821279004216">
        <ele>875.20001220703125</ele>
        <time>2014-05-18T11:32:27Z</time>
      </trkpt>
      <trkpt lat="45.346655314788222" lon="5.816795127466321">
        <ele>875.20001220703125</ele>
        <time>2014-05-18T11:32:28Z</time>
      </trkpt>
      <trkpt lat="45.346469404175878" lon="5.816781213507056">
        <ele>875.20001220703125</ele>
        <time>2014-05-18T11:32:30Z</time>
      </trkpt>
      <trkpt lat="45.346382483839989" lon="5.816787835210562">
        <ele>875.20001220703125</ele>
        <time>2014-05-18T11:32:31Z</time>
      </trkpt>
      <trkpt lat="45.346068413928151" lon="5.816846173256636">
        <ele>875.4000244140625</ele>
        <time>2014-05-18T11:32:35Z</time>
      </trkpt>
      <trkpt lat="45.345892813056707" lon="5.816876348108053">
        <ele>875.4000244140625</ele>
        <time>2014-05-18T11:32:38Z</time>
      </trkpt>
      <trkpt lat="45.345847047865391" lon="5.816860925406218">
        <ele>875.5999755859375</ele>
        <time>2014-05-18T11:32:39Z</time>
      </trkpt>
      <trkpt lat="45.345765072852373" lon="5.816788338124752">
        <ele>875.79998779296875</ele>
        <time>2014-05-18T11:32:42Z</time>
      </trkpt>
      <trkpt lat="45.345786698162556" lon="5.816748021170497">
        <ele>875.5999755859375</ele>
        <time>2014-05-18T11:33:05Z</time>
      </trkpt>
      <trkpt lat="45.345836067572236" lon="5.816593961790204">
        <ele>874.4000244140625</ele>
        <time>2014-05-18T11:33:08Z</time>
      </trkpt>
      <trkpt lat="45.34584553912282" lon="5.816522128880024">
        <ele>873.4000244140625</ele>
        <time>2014-05-18T11:33:09Z</time>
      </trkpt>
      <trkpt lat="45.345851322636008" lon="5.816448368132114">
        <ele>872.20001220703125</ele>
        <time>2014-05-18T11:33:10Z</time>
      </trkpt>
      <trkpt lat="45.345826512202621" lon="5.816313670948148">
        <ele>871.4000244140625</ele>
        <time>2014-05-18T11:33:12Z</time>
      </trkpt>
      <trkpt lat="45.345788793638349" lon="5.816268660128117">
        <ele>871.20001220703125</ele>
        <time>2014-05-18T11:33:13Z</time>
      </trkpt>
      <trkpt lat="45.345690809190273" lon="5.816224571317434">
        <ele>870.5999755859375</ele>
        <time>2014-05-18T11:33:15Z</time>
      </trkpt>
      <trkpt lat="45.345637584105134" lon="5.816206131130457">
        <ele>870.20001220703125</ele>
        <time>2014-05-18T11:33:16Z</time>
      </trkpt>
      <trkpt lat="45.3455841075629" lon="5.816198419779539">
        <ele>870</ele>
        <time>2014-05-18T11:33:17Z</time>
      </trkpt>
      <trkpt lat="45.345356287434697" lon="5.81616816110909">
        <ele>868.5999755859375</ele>
        <time>2014-05-18T11:33:21Z</time>
      </trkpt>
      <trkpt lat="45.345194851979613" lon="5.816160114482045">
        <ele>867.4000244140625</ele>
        <time>2014-05-18T11:33:24Z</time>
      </trkpt>
      <trkpt lat="45.345090581104159" lon="5.816126503050327">
        <ele>867</ele>
        <time>2014-05-18T11:33:26Z</time>
      </trkpt>
      <trkpt lat="45.344977509230375" lon="5.816100351512432">
        <ele>865.79998779296875</ele>
        <time>2014-05-18T11:33:28Z</time>
      </trkpt>
      <trkpt lat="45.344787994399667" lon="5.816074199974537">
        <ele>865.79998779296875</ele>
        <time>2014-05-18T11:33:32Z</time>
      </trkpt>
      <trkpt lat="45.34459026530385" lon="5.81601376645267">
        <ele>865.20001220703125</ele>
        <time>2014-05-18T11:33:37Z</time>
      </trkpt>
      <trkpt lat="45.344545338302851" lon="5.815991805866361">
        <ele>865</ele>
        <time>2014-05-18T11:33:38Z</time>
      </trkpt>
      <trkpt lat="45.344496890902519" lon="5.815971605479717">
        <ele>864.5999755859375</ele>
        <time>2014-05-18T11:33:39Z</time>
      </trkpt>
      <trkpt lat="45.344447270035744" lon="5.815939251333475">
        <ele>864.20001220703125</ele>
        <time>2014-05-18T11:33:40Z</time>
      </trkpt>
      <trkpt lat="45.344298575073481" lon="5.815823413431644">
        <ele>863.4000244140625</ele>
        <time>2014-05-18T11:33:43Z</time>
      </trkpt>
      <trkpt lat="45.344191705808043" lon="5.815733391791582">
        <ele>862</ele>
        <time>2014-05-18T11:33:45Z</time>
      </trkpt>
      <trkpt lat="45.344039155170321" lon="5.815558964386582">
        <ele>860.79998779296875</ele>
        <time>2014-05-18T11:33:48Z</time>
      </trkpt>
      <trkpt lat="45.343877300620079" lon="5.815375652164221">
        <ele>859.5999755859375</ele>
        <time>2014-05-18T11:33:51Z</time>
      </trkpt>
      <trkpt lat="45.343666328117251" lon="5.815147664397955">
        <ele>858.20001220703125</ele>
        <time>2014-05-18T11:33:55Z</time>
      </trkpt>
      <trkpt lat="45.343525847420096" lon="5.814997795969248">
        <ele>857</ele>
        <time>2014-05-18T11:33:58Z</time>
      </trkpt>
      <trkpt lat="45.343448063358665" lon="5.814924538135529">
        <ele>856.20001220703125</ele>
        <time>2014-05-18T11:34:00Z</time>
      </trkpt>
      <trkpt lat="45.343318143859506" lon="5.814805934205651">
        <ele>855.79998779296875</ele>
        <time>2014-05-18T11:34:04Z</time>
      </trkpt>
      <trkpt lat="45.343277491629124" lon="5.81478388980031">
        <ele>855.4000244140625</ele>
        <time>2014-05-18T11:34:05Z</time>
      </trkpt>
      <trkpt lat="45.34319375641644" lon="5.8147325925529">
        <ele>854.5999755859375</ele>
        <time>2014-05-18T11:34:07Z</time>
      </trkpt>
      <trkpt lat="45.343155954033136" lon="5.814695795997977">
        <ele>854.5999755859375</ele>
        <time>2014-05-18T11:34:08Z</time>
      </trkpt>
      <trkpt lat="45.343077750876546" lon="5.814628237858415">
        <ele>854.20001220703125</ele>
        <time>2014-05-18T11:34:10Z</time>
      </trkpt>
      <trkpt lat="45.34294799901545" lon="5.814513741061091">
        <ele>853.5999755859375</ele>
        <time>2014-05-18T11:34:14Z</time>
      </trkpt>
      <trkpt lat="45.342920674011111" lon="5.814478872343898">
        <ele>853.5999755859375</ele>
        <time>2014-05-18T11:34:15Z</time>
      </trkpt>
      <trkpt lat="45.3427520301193" lon="5.814331937581301">
        <ele>853.4000244140625</ele>
        <time>2014-05-18T11:34:21Z</time>
      </trkpt>
      <trkpt lat="45.342597719281912" lon="5.814189109951258">
        <ele>853</ele>
        <time>2014-05-18T11:34:28Z</time>
      </trkpt>
      <trkpt lat="45.342518510296941" lon="5.814151726663113">
        <ele>852.5999755859375</ele>
        <time>2014-05-18T11:34:33Z</time>
      </trkpt>
      <trkpt lat="45.34251356497407" lon="5.814152229577303">
        <ele>852.79998779296875</ele>
        <time>2014-05-18T11:34:34Z</time>
      </trkpt>
      <trkpt lat="45.342482384294271" lon="5.814188187941909">
        <ele>855.79998779296875</ele>
        <time>2014-05-18T12:22:25Z</time>
      </trkpt>
      <trkpt lat="45.342472493648529" lon="5.814128676429391">
        <ele>855.79998779296875</ele>
        <time>2014-05-18T12:22:27Z</time>
      </trkpt>
      <trkpt lat="45.342436786741018" lon="5.8140470366925">
        <ele>855.5999755859375</ele>
        <time>2014-05-18T12:22:30Z</time>
      </trkpt>
      <trkpt lat="45.342382891103625" lon="5.813992470502853">
        <ele>855.4000244140625</ele>
        <time>2014-05-18T12:22:33Z</time>
      </trkpt>
      <trkpt lat="45.342237800359726" lon="5.813930025324225">
        <ele>854.79998779296875</ele>
        <time>2014-05-18T12:22:39Z</time>
      </trkpt>
      <trkpt lat="45.342193124815822" lon="5.813945112749934">
        <ele>854.79998779296875</ele>
        <time>2014-05-18T12:22:41Z</time>
      </trkpt>
      <trkpt lat="45.342141576111317" lon="5.813960200175643">
        <ele>855</ele>
        <time>2014-05-18T12:22:44Z</time>
      </trkpt>
      <trkpt lat="45.342040490359068" lon="5.813891217112541">
        <ele>854</ele>
        <time>2014-05-18T12:22:49Z</time>
      </trkpt>
      <trkpt lat="45.342026576399803" lon="5.813849307596684">
        <ele>853.5999755859375</ele>
        <time>2014-05-18T12:22:50Z</time>
      </trkpt>
      <trkpt lat="45.341969328001142" lon="5.813726847991347">
        <ele>852.79998779296875</ele>
        <time>2014-05-18T12:22:53Z</time>
      </trkpt>
      <trkpt lat="45.341927083209157" lon="5.813641855493188">
        <ele>852.4000244140625</ele>
        <time>2014-05-18T12:22:55Z</time>
      </trkpt>
      <trkpt lat="45.341797918081284" lon="5.813455609604716">
        <ele>851.79998779296875</ele>
        <time>2014-05-18T12:23:00Z</time>
      </trkpt>
      <trkpt lat="45.341741759330034" lon="5.813386291265488">
        <ele>851.20001220703125</ele>
        <time>2014-05-18T12:23:02Z</time>
      </trkpt>
      <trkpt lat="45.341671351343393" lon="5.813325103372335">
        <ele>850.20001220703125</ele>
        <time>2014-05-18T12:23:04Z</time>
      </trkpt>
      <trkpt lat="45.341631453484297" lon="5.813301969319582">
        <ele>849.79998779296875</ele>
        <time>2014-05-18T12:23:05Z</time>
      </trkpt>
      <trkpt lat="45.341522824019194" lon="5.81322024576366">
        <ele>848.5999755859375</ele>
        <time>2014-05-18T12:23:08Z</time>
      </trkpt>
      <trkpt lat="45.341454930603504" lon="5.813150592148304">
        <ele>847.4000244140625</ele>
        <time>2014-05-18T12:23:10Z</time>
      </trkpt>
      <trkpt lat="45.341418804600835" lon="5.813119662925601">
        <ele>846.79998779296875</ele>
        <time>2014-05-18T12:23:11Z</time>
      </trkpt>
      <trkpt lat="45.341352503746748" lon="5.813053948804736">
        <ele>846.20001220703125</ele>
        <time>2014-05-18T12:23:13Z</time>
      </trkpt>
      <trkpt lat="45.341324424371123" lon="5.813010111451149">
        <ele>845.5999755859375</ele>
        <time>2014-05-18T12:23:14Z</time>
      </trkpt>
      <trkpt lat="45.341273630037904" lon="5.812906008213759">
        <ele>844.5999755859375</ele>
        <time>2014-05-18T12:23:16Z</time>
      </trkpt>
      <trkpt lat="45.341258458793163" lon="5.812715571373701">
        <ele>843.5999755859375</ele>
        <time>2014-05-18T12:23:19Z</time>
      </trkpt>
      <trkpt lat="45.341264493763447" lon="5.812647175043821">
        <ele>843.4000244140625</ele>
        <time>2014-05-18T12:23:20Z</time>
      </trkpt>
      <trkpt lat="45.341272121295333" lon="5.812501916661859">
        <ele>842.4000244140625</ele>
        <time>2014-05-18T12:23:22Z</time>
      </trkpt>
      <trkpt lat="45.341287292540073" lon="5.812342073768377">
        <ele>841</ele>
        <time>2014-05-18T12:23:24Z</time>
      </trkpt>
      <trkpt lat="45.341294752433896" lon="5.812256829813123">
        <ele>840.4000244140625</ele>
        <time>2014-05-18T12:23:25Z</time>
      </trkpt>
      <trkpt lat="45.341299781575799" lon="5.812173010781407">
        <ele>839.20001220703125</ele>
        <time>2014-05-18T12:23:26Z</time>
      </trkpt>
      <trkpt lat="45.341298440471292" lon="5.812093717977405">
        <ele>838.4000244140625</ele>
        <time>2014-05-18T12:23:27Z</time>
      </trkpt>
      <trkpt lat="45.341291818767786" lon="5.812015514820814">
        <ele>837.79998779296875</ele>
        <time>2014-05-18T12:23:28Z</time>
      </trkpt>
      <trkpt lat="45.341243371367455" lon="5.811870591714978">
        <ele>837</ele>
        <time>2014-05-18T12:23:30Z</time>
      </trkpt>
      <trkpt lat="45.341192660853267" lon="5.811809990555048">
        <ele>836.5999755859375</ele>
        <time>2014-05-18T12:23:31Z</time>
      </trkpt>
      <trkpt lat="45.341053940355778" lon="5.811758525669575">
        <ele>834.79998779296875</ele>
        <time>2014-05-18T12:23:33Z</time>
      </trkpt>
      <trkpt lat="45.340919075533748" lon="5.811850810423493">
        <ele>833</ele>
        <time>2014-05-18T12:23:35Z</time>
      </trkpt>
      <trkpt lat="45.34084833227098" lon="5.812061280012131">
        <ele>832.4000244140625</ele>
        <time>2014-05-18T12:23:37Z</time>
      </trkpt>
      <trkpt lat="45.340829389169812" lon="5.812328243628144">
        <ele>831.5999755859375</ele>
        <time>2014-05-18T12:23:39Z</time>
      </trkpt>
      <trkpt lat="45.340829389169812" lon="5.8124721609056">
        <ele>830.79998779296875</ele>
        <time>2014-05-18T12:23:40Z</time>
      </trkpt>
      <trkpt lat="45.340829472988844" lon="5.812617084011436">
        <ele>829.4000244140625</ele>
        <time>2014-05-18T12:23:41Z</time>
      </trkpt>
      <trkpt lat="45.340838357806206" lon="5.812760666012764">
        <ele>828.4000244140625</ele>
        <time>2014-05-18T12:23:42Z</time>
      </trkpt>
      <trkpt lat="45.340855959802866" lon="5.812904248014092">
        <ele>827</ele>
        <time>2014-05-18T12:23:43Z</time>
      </trkpt>
      <trkpt lat="45.340913878753781" lon="5.81318311393261">
        <ele>825</ele>
        <time>2014-05-18T12:23:45Z</time>
      </trkpt>
      <trkpt lat="45.340950004756451" lon="5.813313871622086">
        <ele>823.79998779296875</ele>
        <time>2014-05-18T12:23:46Z</time>
      </trkpt>
      <trkpt lat="45.340983113273978" lon="5.813435409218073">
        <ele>822.79998779296875</ele>
        <time>2014-05-18T12:23:47Z</time>
      </trkpt>
      <trkpt lat="45.341015802696347" lon="5.813665827736259">
        <ele>821.4000244140625</ele>
        <time>2014-05-18T12:23:49Z</time>
      </trkpt>
      <trkpt lat="45.341005409136415" lon="5.813768757507205">
        <ele>819.79998779296875</ele>
        <time>2014-05-18T12:23:50Z</time>
      </trkpt>
      <trkpt lat="45.340949082747102" lon="5.813940921798348">
        <ele>818.20001220703125</ele>
        <time>2014-05-18T12:23:52Z</time>
      </trkpt>
      <trkpt lat="45.340853612869978" lon="5.814053909853101">
        <ele>817.20001220703125</ele>
        <time>2014-05-18T12:23:54Z</time>
      </trkpt>
      <trkpt lat="45.340797621756792" lon="5.814070422202349">
        <ele>816.20001220703125</ele>
        <time>2014-05-18T12:23:55Z</time>
      </trkpt>
      <trkpt lat="45.340738696977496" lon="5.814053490757942">
        <ele>815.4000244140625</ele>
        <time>2014-05-18T12:23:56Z</time>
      </trkpt>
      <trkpt lat="45.340685220435262" lon="5.814000768586993">
        <ele>814.4000244140625</ele>
        <time>2014-05-18T12:23:57Z</time>
      </trkpt>
      <trkpt lat="45.340650351718068" lon="5.813921056687832">
        <ele>813.5999755859375</ele>
        <time>2014-05-18T12:23:58Z</time>
      </trkpt>
      <trkpt lat="45.340630738064647" lon="5.813830951228738">
        <ele>812.5999755859375</ele>
        <time>2014-05-18T12:23:59Z</time>
      </trkpt>
      <trkpt lat="45.340603664517403" lon="5.81362190656364">
        <ele>811</ele>
        <time>2014-05-18T12:24:01Z</time>
      </trkpt>
      <trkpt lat="45.340568544343114" lon="5.813383776694536">
        <ele>809.20001220703125</ele>
        <time>2014-05-18T12:24:03Z</time>
      </trkpt>
      <trkpt lat="45.340546080842614" lon="5.813255868852139">
        <ele>807.5999755859375</ele>
        <time>2014-05-18T12:24:04Z</time>
      </trkpt>
      <trkpt lat="45.340523282065988" lon="5.81312108784914">
        <ele>806</ele>
        <time>2014-05-18T12:24:05Z</time>
      </trkpt>
      <trkpt lat="45.340480618178844" lon="5.81284792162478">
        <ele>804.20001220703125</ele>
        <time>2014-05-18T12:24:07Z</time>
      </trkpt>
      <trkpt lat="45.340457400307059" lon="5.812707860022783">
        <ele>803.4000244140625</ele>
        <time>2014-05-18T12:24:08Z</time>
      </trkpt>
      <trkpt lat="45.340433930978179" lon="5.812571067363024">
        <ele>802</ele>
        <time>2014-05-18T12:24:09Z</time>
      </trkpt>
      <trkpt lat="45.34039294347167" lon="5.812310893088579">
        <ele>800.4000244140625</ele>
        <time>2014-05-18T12:24:11Z</time>
      </trkpt>
      <trkpt lat="45.340350195765495" lon="5.812059519812465">
        <ele>798.79998779296875</ele>
        <time>2014-05-18T12:24:13Z</time>
      </trkpt>
      <trkpt lat="45.340331755578518" lon="5.811938736587763">
        <ele>797.4000244140625</ele>
        <time>2014-05-18T12:24:14Z</time>
      </trkpt>
      <trkpt lat="45.340307783335447" lon="5.811693817377091">
        <ele>796.20001220703125</ele>
        <time>2014-05-18T12:24:16Z</time>
      </trkpt>
      <trkpt lat="45.340288253501058" lon="5.811471361666918">
        <ele>795</ele>
        <time>2014-05-18T12:24:18Z</time>
      </trkpt>
      <trkpt lat="45.340272244066" lon="5.811258461326361">
        <ele>794</ele>
        <time>2014-05-18T12:24:20Z</time>
      </trkpt>
      <trkpt lat="45.340248188003898" lon="5.811053775250912">
        <ele>793</ele>
        <time>2014-05-18T12:24:22Z</time>
      </trkpt>
      <trkpt lat="45.340203093364835" lon="5.810858979821205">
        <ele>791.5999755859375</ele>
        <time>2014-05-18T12:24:24Z</time>
      </trkpt>
      <trkpt lat="45.34016964957118" lon="5.810771975666285">
        <ele>791</ele>
        <time>2014-05-18T12:24:25Z</time>
      </trkpt>
      <trkpt lat="45.340133607387543" lon="5.810690335929394">
        <ele>790.5999755859375</ele>
        <time>2014-05-18T12:24:26Z</time>
      </trkpt>
      <trkpt lat="45.340021960437298" lon="5.810469388961792">
        <ele>789.79998779296875</ele>
        <time>2014-05-18T12:24:29Z</time>
      </trkpt>
      <trkpt lat="45.339992623776197" lon="5.810397891327739">
        <ele>789</ele>
        <time>2014-05-18T12:24:30Z</time>
      </trkpt>
      <trkpt lat="45.339950462803245" lon="5.810247184708715">
        <ele>787.79998779296875</ele>
        <time>2014-05-18T12:24:32Z</time>
      </trkpt>
      <trkpt lat="45.33995465375483" lon="5.810087509453297">
        <ele>787</ele>
        <time>2014-05-18T12:24:34Z</time>
      </trkpt>
      <trkpt lat="45.339971836656332" lon="5.810008300468326">
        <ele>786.4000244140625</ele>
        <time>2014-05-18T12:24:35Z</time>
      </trkpt>
      <trkpt lat="45.340049117803574" lon="5.809871591627598">
        <ele>784.5999755859375</ele>
        <time>2014-05-18T12:24:37Z</time>
      </trkpt>
      <trkpt lat="45.340095637366176" lon="5.809810403734446">
        <ele>783.20001220703125</ele>
        <time>2014-05-18T12:24:38Z</time>
      </trkpt>
      <trkpt lat="45.340254139155149" lon="5.809638658538461">
        <ele>781.79998779296875</ele>
        <time>2014-05-18T12:24:41Z</time>
      </trkpt>
      <trkpt lat="45.340363690629601" lon="5.809537153691053">
        <ele>780.5999755859375</ele>
        <time>2014-05-18T12:24:43Z</time>
      </trkpt>
      <trkpt lat="45.34045647829771" lon="5.809419890865684">
        <ele>780</ele>
        <time>2014-05-18T12:24:45Z</time>
      </trkpt>
      <trkpt lat="45.340490592643619" lon="5.809262562543154">
        <ele>779.79998779296875</ele>
        <time>2014-05-18T12:24:47Z</time>
      </trkpt>
      <trkpt lat="45.340433176606894" lon="5.808970537036657">
        <ele>779.79998779296875</ele>
        <time>2014-05-18T12:24:51Z</time>
      </trkpt>
      <trkpt lat="45.3403983078897" lon="5.808915048837662">
        <ele>779.20001220703125</ele>
        <time>2014-05-18T12:24:52Z</time>
      </trkpt>
      <trkpt lat="45.340316835790873" lon="5.808819914236665">
        <ele>777.79998779296875</ele>
        <time>2014-05-18T12:24:54Z</time>
      </trkpt>
      <trkpt lat="45.340239219367504" lon="5.808725701645017">
        <ele>777</ele>
        <time>2014-05-18T12:24:56Z</time>
      </trkpt>
      <trkpt lat="45.340202422812581" lon="5.808668788522482">
        <ele>776.4000244140625</ele>
        <time>2014-05-18T12:24:57Z</time>
      </trkpt>
      <trkpt lat="45.340109970420599" lon="5.808471059426665">
        <ele>775.4000244140625</ele>
        <time>2014-05-18T12:25:00Z</time>
      </trkpt>
      <trkpt lat="45.340083315968513" lon="5.808400651440024">
        <ele>775.20001220703125</ele>
        <time>2014-05-18T12:25:01Z</time>
      </trkpt>
      <trkpt lat="45.340008130297065" lon="5.808194540441036">
        <ele>774</ele>
        <time>2014-05-18T12:25:04Z</time>
      </trkpt>
      <trkpt lat="45.339927244931459" lon="5.807970156893134">
        <ele>772.79998779296875</ele>
        <time>2014-05-18T12:25:08Z</time>
      </trkpt>
      <trkpt lat="45.339784165844321" lon="5.807735295966268">
        <ele>772</ele>
        <time>2014-05-18T12:25:14Z</time>
      </trkpt>
      <trkpt lat="45.339743094518781" lon="5.807715430855751">
        <ele>772</ele>
        <time>2014-05-18T12:25:15Z</time>
      </trkpt>
      <trkpt lat="45.339700346812606" lon="5.807693637907505">
        <ele>771.79998779296875</ele>
        <time>2014-05-18T12:25:16Z</time>
      </trkpt>
      <trkpt lat="45.339565649628639" lon="5.807617530226708">
        <ele>771.20001220703125</ele>
        <time>2014-05-18T12:25:19Z</time>
      </trkpt>
      <trkpt lat="45.339478896930814" lon="5.807571513578296">
        <ele>770.20001220703125</ele>
        <time>2014-05-18T12:25:21Z</time>
      </trkpt>
      <trkpt lat="45.339250322431326" lon="5.807476462796331">
        <ele>771.4000244140625</ele>
        <time>2014-05-18T12:25:27Z</time>
      </trkpt>
      <trkpt lat="45.339078241959214" lon="5.807473780587316">
        <ele>771.5999755859375</ele>
        <time>2014-05-18T12:25:32Z</time>
      </trkpt>
      <trkpt lat="45.338840195909142" lon="5.807476378977299">
        <ele>771.79998779296875</ele>
        <time>2014-05-18T12:25:38Z</time>
      </trkpt>
      <trkpt lat="45.338507350534201" lon="5.80746179446578">
        <ele>772.4000244140625</ele>
        <time>2014-05-18T12:25:48Z</time>
      </trkpt>
      <trkpt lat="45.338225048035383" lon="5.807362049818039">
        <ele>773</ele>
        <time>2014-05-18T12:25:56Z</time>
      </trkpt>
      <trkpt lat="45.338005693629384" lon="5.807269848883152">
        <ele>773.4000244140625</ele>
        <time>2014-05-18T12:26:02Z</time>
      </trkpt>
      <trkpt lat="45.337931932881474" lon="5.807243697345257">
        <ele>773.5999755859375</ele>
        <time>2014-05-18T12:26:04Z</time>
      </trkpt>
      <trkpt lat="45.337665555998683" lon="5.807221233844757">
        <ele>774.20001220703125</ele>
        <time>2014-05-18T12:26:11Z</time>
      </trkpt>
      <trkpt lat="45.337592549622059" lon="5.807209750637412">
        <ele>774.4000244140625</ele>
        <time>2014-05-18T12:26:13Z</time>
      </trkpt>
      <trkpt lat="45.337419966235757" lon="5.807201368734241">
        <ele>775</ele>
        <time>2014-05-18T12:26:18Z</time>
      </trkpt>
      <trkpt lat="45.337290549650788" lon="5.807194076478481">
        <ele>775.5999755859375</ele>
        <time>2014-05-18T12:26:22Z</time>
      </trkpt>
      <trkpt lat="45.337157361209393" lon="5.807171361520886">
        <ele>776</ele>
        <time>2014-05-18T12:26:26Z</time>
      </trkpt>
      <trkpt lat="45.336949238553643" lon="5.807128949090838">
        <ele>776.79998779296875</ele>
        <time>2014-05-18T12:26:32Z</time>
      </trkpt>
      <trkpt lat="45.336881596595049" lon="5.807119226083159">
        <ele>776.79998779296875</ele>
        <time>2014-05-18T12:26:34Z</time>
      </trkpt>
      <trkpt lat="45.33667204901576" lon="5.807071616873145">
        <ele>778.20001220703125</ele>
        <time>2014-05-18T12:26:40Z</time>
      </trkpt>
      <trkpt lat="45.336602060124278" lon="5.807062648236752">
        <ele>778.20001220703125</ele>
        <time>2014-05-18T12:26:42Z</time>
      </trkpt>
      <trkpt lat="45.336372815072536" lon="5.807067677378655">
        <ele>779</ele>
        <time>2014-05-18T12:26:49Z</time>
      </trkpt>
      <trkpt lat="45.336337946355343" lon="5.807069772854447">
        <ele>779.20001220703125</ele>
        <time>2014-05-18T12:26:50Z</time>
      </trkpt>
      <trkpt lat="45.336172487586737" lon="5.807106988504529">
        <ele>779.5999755859375</ele>
        <time>2014-05-18T12:26:55Z</time>
      </trkpt>
      <trkpt lat="45.336004598066211" lon="5.807158704847097">
        <ele>780.4000244140625</ele>
        <time>2014-05-18T12:27:00Z</time>
      </trkpt>
      <trkpt lat="45.335942404344678" lon="5.807180162519217">
        <ele>780.4000244140625</ele>
        <time>2014-05-18T12:27:02Z</time>
      </trkpt>
      <trkpt lat="45.335729755461216" lon="5.807280577719212">
        <ele>781.4000244140625</ele>
        <time>2014-05-18T12:27:09Z</time>
      </trkpt>
      <trkpt lat="45.335434963926673" lon="5.807388536632061">
        <ele>782.20001220703125</ele>
        <time>2014-05-18T12:27:18Z</time>
      </trkpt>
      <trkpt lat="45.335361203178763" lon="5.807415107265115">
        <ele>782.5999755859375</ele>
        <time>2014-05-18T12:27:20Z</time>
      </trkpt>
      <trkpt lat="45.335156936198473" lon="5.807485431432724">
        <ele>783.20001220703125</ele>
        <time>2014-05-18T12:27:26Z</time>
      </trkpt>
      <trkpt lat="45.334949148818851" lon="5.807513510808349">
        <ele>783.5999755859375</ele>
        <time>2014-05-18T12:27:32Z</time>
      </trkpt>
      <trkpt lat="45.334878070279956" lon="5.807514684274793">
        <ele>783.79998779296875</ele>
        <time>2014-05-18T12:27:34Z</time>
      </trkpt>
      <trkpt lat="45.33462954685092" lon="5.807462465018034">
        <ele>784.4000244140625</ele>
        <time>2014-05-18T12:27:41Z</time>
      </trkpt>
      <trkpt lat="45.334484875202179" lon="5.80741049721837">
        <ele>784.79998779296875</ele>
        <time>2014-05-18T12:27:45Z</time>
      </trkpt>
      <trkpt lat="45.334198297932744" lon="5.807306645438075">
        <ele>785.4000244140625</ele>
        <time>2014-05-18T12:27:53Z</time>
      </trkpt>
      <trkpt lat="45.334018003195524" lon="5.807232549414039">
        <ele>785.79998779296875</ele>
        <time>2014-05-18T12:27:58Z</time>
      </trkpt>
      <trkpt lat="45.333872074261308" lon="5.807170523330569">
        <ele>786</ele>
        <time>2014-05-18T12:28:02Z</time>
      </trkpt>
      <trkpt lat="45.333591196686029" lon="5.806993748992682">
        <ele>786.4000244140625</ele>
        <time>2014-05-18T12:28:10Z</time>
      </trkpt>
      <trkpt lat="45.333557166159153" lon="5.806963909417391">
        <ele>786.4000244140625</ele>
        <time>2014-05-18T12:28:11Z</time>
      </trkpt>
      <trkpt lat="45.33339187502861" lon="5.806803144514561">
        <ele>787</ele>
        <time>2014-05-18T12:28:16Z</time>
      </trkpt>
      <trkpt lat="45.33330487087369" lon="5.806702310219407">
        <ele>787.20001220703125</ele>
        <time>2014-05-18T12:28:19Z</time>
      </trkpt>
      <trkpt lat="45.333143100142479" lon="5.806500306352973">
        <ele>788</ele>
        <time>2014-05-18T12:28:25Z</time>
      </trkpt>
      <trkpt lat="45.333114434033632" lon="5.806470718234778">
        <ele>788.20001220703125</ele>
        <time>2014-05-18T12:28:26Z</time>
      </trkpt>
      <trkpt lat="45.333004212006927" lon="5.806374913081527">
        <ele>789.20001220703125</ele>
        <time>2014-05-18T12:28:30Z</time>
      </trkpt>
      <trkpt lat="45.332924919202924" lon="5.806323029100895">
        <ele>789.79998779296875</ele>
        <time>2014-05-18T12:28:33Z</time>
      </trkpt>
      <trkpt lat="45.332848895341158" lon="5.806269636377692">
        <ele>790.4000244140625</ele>
        <time>2014-05-18T12:28:36Z</time>
      </trkpt>
      <trkpt lat="45.332749737426639" lon="5.8062191773206">
        <ele>791.20001220703125</ele>
        <time>2014-05-18T12:28:40Z</time>
      </trkpt>
      <trkpt lat="45.332723669707775" lon="5.806208364665508">
        <ele>791.4000244140625</ele>
        <time>2014-05-18T12:28:41Z</time>
      </trkpt>
      <trkpt lat="45.332602299749851" lon="5.806149523705244">
        <ele>792.79998779296875</ele>
        <time>2014-05-18T12:28:46Z</time>
      </trkpt>
      <trkpt lat="45.332440948113799" lon="5.806056233122945">
        <ele>794</ele>
        <time>2014-05-18T12:28:53Z</time>
      </trkpt>
      <trkpt lat="45.332314632833004" lon="5.805976102128625">
        <ele>794.79998779296875</ele>
        <time>2014-05-18T12:28:59Z</time>
      </trkpt>
      <trkpt lat="45.332290325313807" lon="5.805970653891563">
        <ele>795.20001220703125</ele>
        <time>2014-05-18T12:29:00Z</time>
      </trkpt>
      <trkpt lat="45.332182617858052" lon="5.805925307795405">
        <ele>796.4000244140625</ele>
        <time>2014-05-18T12:29:05Z</time>
      </trkpt>
      <trkpt lat="45.332158813253045" lon="5.805922625586391">
        <ele>796.79998779296875</ele>
        <time>2014-05-18T12:29:06Z</time>
      </trkpt>
      <trkpt lat="45.332051021978259" lon="5.805897228419781">
        <ele>797.5999755859375</ele>
        <time>2014-05-18T12:29:11Z</time>
      </trkpt>
      <trkpt lat="45.331950355321169" lon="5.805871244519949">
        <ele>798.5999755859375</ele>
        <time>2014-05-18T12:29:16Z</time>
      </trkpt>
      <trkpt lat="45.331880114972591" lon="5.805857665836811">
        <ele>799</ele>
        <time>2014-05-18T12:29:19Z</time>
      </trkpt>
      <trkpt lat="45.331818172708154" lon="5.805853893980384">
        <ele>799.5999755859375</ele>
        <time>2014-05-18T12:29:22Z</time>
      </trkpt>
      <trkpt lat="45.331740723922849" lon="5.805819611996412">
        <ele>800.4000244140625</ele>
        <time>2014-05-18T12:29:26Z</time>
      </trkpt>
      <trkpt lat="45.33170367591083" lon="5.805801507085562">
        <ele>801</ele>
        <time>2014-05-18T12:29:28Z</time>
      </trkpt>
      <trkpt lat="45.331581467762589" lon="5.805765800178051">
        <ele>802.20001220703125</ele>
        <time>2014-05-18T12:29:34Z</time>
      </trkpt>
      <trkpt lat="45.331438137218356" lon="5.805725650861859">
        <ele>803.20001220703125</ele>
        <time>2014-05-18T12:29:41Z</time>
      </trkpt>
      <trkpt lat="45.331398658454418" lon="5.805689943954349">
        <ele>803.5999755859375</ele>
        <time>2014-05-18T12:29:44Z</time>
      </trkpt>
      <trkpt lat="45.33134157769382" lon="5.805659769102931">
        <ele>804.4000244140625</ele>
        <time>2014-05-18T12:29:47Z</time>
      </trkpt>
      <trkpt lat="45.331263290718198" lon="5.805611992254853">
        <ele>804.79998779296875</ele>
        <time>2014-05-18T12:29:51Z</time>
      </trkpt>
      <trkpt lat="45.331245856359601" lon="5.805596485733986">
        <ele>805.20001220703125</ele>
        <time>2014-05-18T12:29:52Z</time>
      </trkpt>
      <trkpt lat="45.331227583810687" lon="5.805581649765372">
        <ele>805.4000244140625</ele>
        <time>2014-05-18T12:29:53Z</time>
      </trkpt>
      <trkpt lat="45.33113001845777" lon="5.805488526821137">
        <ele>806.4000244140625</ele>
        <time>2014-05-18T12:29:59Z</time>
      </trkpt>
      <trkpt lat="45.331111997365952" lon="5.805467572063208">
        <ele>806.5999755859375</ele>
        <time>2014-05-18T12:30:00Z</time>
      </trkpt>
      <trkpt lat="45.330983670428395" lon="5.80535382963717">
        <ele>807.5999755859375</ele>
        <time>2014-05-18T12:30:06Z</time>
      </trkpt>
      <trkpt lat="45.330944107845426" lon="5.805324576795101">
        <ele>807.79998779296875</ele>
        <time>2014-05-18T12:30:08Z</time>
      </trkpt>
      <trkpt lat="45.330843776464462" lon="5.805251151323319">
        <ele>808.5999755859375</ele>
        <time>2014-05-18T12:30:13Z</time>
      </trkpt>
      <trkpt lat="45.330791054293513" lon="5.805197339504957">
        <ele>809.20001220703125</ele>
        <time>2014-05-18T12:30:16Z</time>
      </trkpt>
      <trkpt lat="45.330716874450445" lon="5.805133301764727">
        <ele>809.79998779296875</ele>
        <time>2014-05-18T12:30:20Z</time>
      </trkpt>
      <trkpt lat="45.330644203349948" lon="5.805075718089938">
        <ele>810.5999755859375</ele>
        <time>2014-05-18T12:30:24Z</time>
      </trkpt>
      <trkpt lat="45.330613190308213" lon="5.805034060031176">
        <ele>810.79998779296875</ele>
        <time>2014-05-18T12:30:26Z</time>
      </trkpt>
      <trkpt lat="45.330535490065813" lon="5.80494387075305">
        <ele>811.79998779296875</ele>
        <time>2014-05-18T12:30:31Z</time>
      </trkpt>
      <trkpt lat="45.330522833392024" lon="5.804923670366406">
        <ele>812</ele>
        <time>2014-05-18T12:30:32Z</time>
      </trkpt>
      <trkpt lat="45.330410851165652" lon="5.80479484051466">
        <ele>813</ele>
        <time>2014-05-18T12:30:39Z</time>
      </trkpt>
      <trkpt lat="45.330396685749292" lon="5.804776651784778">
        <ele>813.4000244140625</ele>
        <time>2014-05-18T12:30:40Z</time>
      </trkpt>
      <trkpt lat="45.330323595553637" lon="5.804696604609489">
        <ele>814.20001220703125</ele>
        <time>2014-05-18T12:30:45Z</time>
      </trkpt>
      <trkpt lat="45.33028663136065" lon="5.804669195786119">
        <ele>814.4000244140625</ele>
        <time>2014-05-18T12:30:47Z</time>
      </trkpt>
      <trkpt lat="45.330185210332274" lon="5.8045769110322">
        <ele>815.4000244140625</ele>
        <time>2014-05-18T12:30:53Z</time>
      </trkpt>
      <trkpt lat="45.330136176198721" lon="5.804530223831534">
        <ele>815.5999755859375</ele>
        <time>2014-05-18T12:30:56Z</time>
      </trkpt>
      <trkpt lat="45.330090327188373" lon="5.804476831108332">
        <ele>816.20001220703125</ele>
        <time>2014-05-18T12:30:59Z</time>
      </trkpt>
      <trkpt lat="45.33007356338203" lon="5.804462498053908">
        <ele>816.4000244140625</ele>
        <time>2014-05-18T12:31:00Z</time>
      </trkpt>
      <trkpt lat="45.330007765442133" lon="5.804395191371441">
        <ele>817</ele>
        <time>2014-05-18T12:31:04Z</time>
      </trkpt>
      <trkpt lat="45.329979015514255" lon="5.804363340139389">
        <ele>817.4000244140625</ele>
        <time>2014-05-18T12:31:06Z</time>
      </trkpt>
      <trkpt lat="45.329879019409418" lon="5.80426711589098">
        <ele>818.4000244140625</ele>
        <time>2014-05-18T12:31:12Z</time>
      </trkpt>
      <trkpt lat="45.329848760738969" lon="5.804227134212852">
        <ele>818.79998779296875</ele>
        <time>2014-05-18T12:31:14Z</time>
      </trkpt>
      <trkpt lat="45.329782459884882" lon="5.804169047623873">
        <ele>819.4000244140625</ele>
        <time>2014-05-18T12:31:18Z</time>
      </trkpt>
      <trkpt lat="45.32974817790091" lon="5.804139962419868">
        <ele>819.5999755859375</ele>
        <time>2014-05-18T12:31:20Z</time>
      </trkpt>
      <trkpt lat="45.329644493758678" lon="5.804036613553762">
        <ele>820.5999755859375</ele>
        <time>2014-05-18T12:31:26Z</time>
      </trkpt>
      <trkpt lat="45.329595124348998" lon="5.803981041535735">
        <ele>821.20001220703125</ele>
        <time>2014-05-18T12:31:29Z</time>
      </trkpt>
      <trkpt lat="45.329562434926629" lon="5.803948100656271">
        <ele>821.5999755859375</ele>
        <time>2014-05-18T12:31:31Z</time>
      </trkpt>
      <trkpt lat="45.329469228163362" lon="5.803863694891334">
        <ele>822.5999755859375</ele>
        <time>2014-05-18T12:31:37Z</time>
      </trkpt>
      <trkpt lat="45.329453805461526" lon="5.803845170885325">
        <ele>822.79998779296875</ele>
        <time>2014-05-18T12:31:38Z</time>
      </trkpt>
      <trkpt lat="45.329323299229145" lon="5.803726650774479">
        <ele>823.79998779296875</ele>
        <time>2014-05-18T12:31:46Z</time>
      </trkpt>
      <trkpt lat="45.329227913171053" lon="5.803628247231245">
        <ele>825</ele>
        <time>2014-05-18T12:31:52Z</time>
      </trkpt>
      <trkpt lat="45.329175945371389" lon="5.803586756810546">
        <ele>825.4000244140625</ele>
        <time>2014-05-18T12:31:55Z</time>
      </trkpt>
      <trkpt lat="45.32911341637373" lon="5.803511822596192">
        <ele>826</ele>
        <time>2014-05-18T12:31:59Z</time>
      </trkpt>
      <trkpt lat="45.329044768586755" lon="5.803447868674994">
        <ele>826.5999755859375</ele>
        <time>2014-05-18T12:32:03Z</time>
      </trkpt>
      <trkpt lat="45.328997243195772" lon="5.803409228101373">
        <ele>827</ele>
        <time>2014-05-18T12:32:06Z</time>
      </trkpt>
      <trkpt lat="45.328909065574408" lon="5.803301353007555">
        <ele>828</ele>
        <time>2014-05-18T12:32:12Z</time>
      </trkpt>
      <trkpt lat="45.328824995085597" lon="5.80318727530539">
        <ele>829.20001220703125</ele>
        <time>2014-05-18T12:32:18Z</time>
      </trkpt>
      <trkpt lat="45.328781409189105" lon="5.803091134876013">
        <ele>829.79998779296875</ele>
        <time>2014-05-18T12:32:22Z</time>
      </trkpt>
      <trkpt lat="45.328768668696284" lon="5.803035981953144">
        <ele>830.20001220703125</ele>
        <time>2014-05-18T12:32:24Z</time>
      </trkpt>
      <trkpt lat="45.328728603199124" lon="5.802904218435288">
        <ele>830.79998779296875</ele>
        <time>2014-05-18T12:32:29Z</time>
      </trkpt>
      <trkpt lat="45.328701194375753" lon="5.802825260907412">
        <ele>831.20001220703125</ele>
        <time>2014-05-18T12:32:32Z</time>
      </trkpt>
      <trkpt lat="45.328680826351047" lon="5.802784441038966">
        <ele>831.4000244140625</ele>
        <time>2014-05-18T12:32:34Z</time>
      </trkpt>
      <trkpt lat="45.32864578999579" lon="5.802723336964846">
        <ele>832.20001220703125</ele>
        <time>2014-05-18T12:32:37Z</time>
      </trkpt>
      <trkpt lat="45.328581416979432" lon="5.802629375830293">
        <ele>833.4000244140625</ele>
        <time>2014-05-18T12:32:43Z</time>
      </trkpt>
      <trkpt lat="45.328532131388783" lon="5.802491409704089">
        <ele>834.20001220703125</ele>
        <time>2014-05-18T12:32:49Z</time>
      </trkpt>
      <trkpt lat="45.328509751707315" lon="5.802453523501754">
        <ele>834.5999755859375</ele>
        <time>2014-05-18T12:32:51Z</time>
      </trkpt>
      <trkpt lat="45.328459208831191" lon="5.802321005612612">
        <ele>835.5999755859375</ele>
        <time>2014-05-18T12:32:57Z</time>
      </trkpt>
      <trkpt lat="45.32840640284121" lon="5.802142387256026">
        <ele>836.79998779296875</ele>
        <time>2014-05-18T12:33:04Z</time>
      </trkpt>
      <trkpt lat="45.328377317637205" lon="5.802052365615964">
        <ele>837.20001220703125</ele>
        <time>2014-05-18T12:33:08Z</time>
      </trkpt>
      <trkpt lat="45.328329876065254" lon="5.801936611533165">
        <ele>837.79998779296875</ele>
        <time>2014-05-18T12:33:13Z</time>
      </trkpt>
      <trkpt lat="45.328297354280949" lon="5.80188212916255">
        <ele>838.20001220703125</ele>
        <time>2014-05-18T12:33:16Z</time>
      </trkpt>
      <trkpt lat="45.328273633494973" lon="5.801821444183588">
        <ele>838.79998779296875</ele>
        <time>2014-05-18T12:33:19Z</time>
      </trkpt>
      <trkpt lat="45.328206913545728" lon="5.801734775304794">
        <ele>839.4000244140625</ele>
        <time>2014-05-18T12:33:24Z</time>
      </trkpt>
      <trkpt lat="45.328156957402825" lon="5.801689177751541">
        <ele>839.79998779296875</ele>
        <time>2014-05-18T12:33:27Z</time>
      </trkpt>
      <trkpt lat="45.3280995413661" lon="5.801631007343531">
        <ele>840.5999755859375</ele>
        <time>2014-05-18T12:33:31Z</time>
      </trkpt>
      <trkpt lat="45.328081268817186" lon="5.801614914089441">
        <ele>841</ele>
        <time>2014-05-18T12:33:32Z</time>
      </trkpt>
      <trkpt lat="45.328001724556088" lon="5.80153813585639">
        <ele>841.4000244140625</ele>
        <time>2014-05-18T12:33:37Z</time>
      </trkpt>
      <trkpt lat="45.327957216650248" lon="5.801494214683771">
        <ele>842</ele>
        <time>2014-05-18T12:33:40Z</time>
      </trkpt>
      <trkpt lat="45.327880857512355" lon="5.801421208307147">
        <ele>842.79998779296875</ele>
        <time>2014-05-18T12:33:45Z</time>
      </trkpt>
      <trkpt lat="45.3278405405581" lon="5.801389440894127">
        <ele>843.20001220703125</ele>
        <time>2014-05-18T12:33:48Z</time>
      </trkpt>
      <trkpt lat="45.327797792851925" lon="5.801333198323846">
        <ele>843.4000244140625</ele>
        <time>2014-05-18T12:33:51Z</time>
      </trkpt>
      <trkpt lat="45.327764768153429" lon="5.801289277151227">
        <ele>844.20001220703125</ele>
        <time>2014-05-18T12:33:53Z</time>
      </trkpt>
      <trkpt lat="45.327693019062281" lon="5.801166230812669">
        <ele>844.5999755859375</ele>
        <time>2014-05-18T12:33:58Z</time>
      </trkpt>
      <trkpt lat="45.327658569440246" lon="5.801124488934875">
        <ele>845</ele>
        <time>2014-05-18T12:34:00Z</time>
      </trkpt>
      <trkpt lat="45.32761188223958" lon="5.801059948280454">
        <ele>845.4000244140625</ele>
        <time>2014-05-18T12:34:03Z</time>
      </trkpt>
      <trkpt lat="45.327584557235241" lon="5.801017954945564">
        <ele>845.5999755859375</ele>
        <time>2014-05-18T12:34:05Z</time>
      </trkpt>
      <trkpt lat="45.327503336593509" lon="5.800913516432047">
        <ele>846.5999755859375</ele>
        <time>2014-05-18T12:34:10Z</time>
      </trkpt>
      <trkpt lat="45.327491937205195" lon="5.800893064588308">
        <ele>846.5999755859375</ele>
        <time>2014-05-18T12:34:11Z</time>
      </trkpt>
      <trkpt lat="45.327418511733413" lon="5.800795750692487">
        <ele>847.5999755859375</ele>
        <time>2014-05-18T12:34:16Z</time>
      </trkpt>
      <trkpt lat="45.327372997999191" lon="5.800735233351588">
        <ele>848</ele>
        <time>2014-05-18T12:34:19Z</time>
      </trkpt>
      <trkpt lat="45.327310804277658" lon="5.800665160641074">
        <ele>848.5999755859375</ele>
        <time>2014-05-18T12:34:23Z</time>
      </trkpt>
      <trkpt lat="45.327273840084672" lon="5.800620652735233">
        <ele>849</ele>
        <time>2014-05-18T12:34:26Z</time>
      </trkpt>
      <trkpt lat="45.327220866456628" lon="5.80055259168148">
        <ele>849.5999755859375</ele>
        <time>2014-05-18T12:34:30Z</time>
      </trkpt>
      <trkpt lat="45.32717945985496" lon="5.80049492418766">
        <ele>850</ele>
        <time>2014-05-18T12:34:33Z</time>
      </trkpt>
      <trkpt lat="45.32711592502892" lon="5.800401549786329">
        <ele>850.79998779296875</ele>
        <time>2014-05-18T12:34:38Z</time>
      </trkpt>
      <trkpt lat="45.327069154009223" lon="5.800302727147937">
        <ele>851.4000244140625</ele>
        <time>2014-05-18T12:34:42Z</time>
      </trkpt>
      <trkpt lat="45.327040739357471" lon="5.800217734649777">
        <ele>851.79998779296875</ele>
        <time>2014-05-18T12:34:45Z</time>
      </trkpt>
      <trkpt lat="45.327017605304718" lon="5.800082115456462">
        <ele>852.79998779296875</ele>
        <time>2014-05-18T12:34:50Z</time>
      </trkpt>
      <trkpt lat="45.327013414353132" lon="5.800054706633091">
        <ele>852.79998779296875</ele>
        <time>2014-05-18T12:34:51Z</time>
      </trkpt>
      <trkpt lat="45.326993633061647" lon="5.799854127690196">
        <ele>854</ele>
        <time>2014-05-18T12:34:58Z</time>
      </trkpt>
      <trkpt lat="45.326991621404886" lon="5.799826132133603">
        <ele>854</ele>
        <time>2014-05-18T12:34:59Z</time>
      </trkpt>
      <trkpt lat="45.326958345249295" lon="5.799615746363998">
        <ele>855</ele>
        <time>2014-05-18T12:35:06Z</time>
      </trkpt>
      <trkpt lat="45.326952142640948" lon="5.799582218751311">
        <ele>855.20001220703125</ele>
        <time>2014-05-18T12:35:07Z</time>
      </trkpt>
      <trkpt lat="45.326904952526093" lon="5.799264963716269">
        <ele>856</ele>
        <time>2014-05-18T12:35:16Z</time>
      </trkpt>
      <trkpt lat="45.326895648613572" lon="5.799189107492566">
        <ele>856.20001220703125</ele>
        <time>2014-05-18T12:35:18Z</time>
      </trkpt>
      <trkpt lat="45.326857259497046" lon="5.798880234360695">
        <ele>857</ele>
        <time>2014-05-18T12:35:26Z</time>
      </trkpt>
      <trkpt lat="45.326840579509735" lon="5.79875928349793">
        <ele>857.4000244140625</ele>
        <time>2014-05-18T12:35:29Z</time>
      </trkpt>
      <trkpt lat="45.326817026361823" lon="5.798542946577072">
        <ele>858.20001220703125</ele>
        <time>2014-05-18T12:35:35Z</time>
      </trkpt>
      <trkpt lat="45.326799340546131" lon="5.798434820026159">
        <ele>858.4000244140625</ele>
        <time>2014-05-18T12:35:38Z</time>
      </trkpt>
      <trkpt lat="45.326768746599555" lon="5.798172550275922">
        <ele>859</ele>
        <time>2014-05-18T12:35:45Z</time>
      </trkpt>
      <trkpt lat="45.326704708859324" lon="5.797909526154399">
        <ele>859.5999755859375</ele>
        <time>2014-05-18T12:35:53Z</time>
      </trkpt>
      <trkpt lat="45.326674114912748" lon="5.797757729887962">
        <ele>860.4000244140625</ele>
        <time>2014-05-18T12:35:59Z</time>
      </trkpt>
      <trkpt lat="45.326646119356155" lon="5.797697883099318">
        <ele>860.79998779296875</ele>
        <time>2014-05-18T12:39:33Z</time>
      </trkpt>
      <trkpt lat="45.326626840978861" lon="5.797656560316682">
        <ele>860.79998779296875</ele>
        <time>2014-05-18T12:39:35Z</time>
      </trkpt>
      <trkpt lat="45.326537657529116" lon="5.797506859526038">
        <ele>861</ele>
        <time>2014-05-18T12:39:41Z</time>
      </trkpt>
      <trkpt lat="45.326377646997571" lon="5.797375682741404">
        <ele>861.79998779296875</ele>
        <time>2014-05-18T12:39:48Z</time>
      </trkpt>
      <trkpt lat="45.326309585943818" lon="5.79732664860785">
        <ele>862.4000244140625</ele>
        <time>2014-05-18T12:39:51Z</time>
      </trkpt>
      <trkpt lat="45.326189305633307" lon="5.797237968072295">
        <ele>862.79998779296875</ele>
        <time>2014-05-18T12:39:56Z</time>
      </trkpt>
      <trkpt lat="45.326106324791908" lon="5.797189269214869">
        <ele>862.79998779296875</ele>
        <time>2014-05-18T12:39:59Z</time>
      </trkpt>
      <trkpt lat="45.325901135802269" lon="5.797075275331736">
        <ele>863.79998779296875</ele>
        <time>2014-05-18T12:40:07Z</time>
      </trkpt>
      <trkpt lat="45.325728049501777" lon="5.796932363882661">
        <ele>864.5999755859375</ele>
        <time>2014-05-18T12:40:14Z</time>
      </trkpt>
      <trkpt lat="45.325657222419977" lon="5.796861872076988">
        <ele>865.20001220703125</ele>
        <time>2014-05-18T12:40:17Z</time>
      </trkpt>
      <trkpt lat="45.32557331956923" lon="5.796761456876993">
        <ele>866</ele>
        <time>2014-05-18T12:40:21Z</time>
      </trkpt>
      <trkpt lat="45.325533421710134" lon="5.796708231791854">
        <ele>866.4000244140625</ele>
        <time>2014-05-18T12:40:23Z</time>
      </trkpt>
      <trkpt lat="45.32540475949645" lon="5.796502204611898">
        <ele>867.20001220703125</ele>
        <time>2014-05-18T12:40:30Z</time>
      </trkpt>
      <trkpt lat="45.325354635715485" lon="5.796415535733104">
        <ele>867.4000244140625</ele>
        <time>2014-05-18T12:40:33Z</time>
      </trkpt>
      <trkpt lat="45.325279366225004" lon="5.796315539628267">
        <ele>867.79998779296875</ele>
        <time>2014-05-18T12:40:37Z</time>
      </trkpt>
      <trkpt lat="45.32519755885005" lon="5.796214202418923">
        <ele>868.4000244140625</ele>
        <time>2014-05-18T12:40:41Z</time>
      </trkpt>
      <trkpt lat="45.325138466432691" lon="5.796141615137458">
        <ele>868.79998779296875</ele>
        <time>2014-05-18T12:40:44Z</time>
      </trkpt>
      <trkpt lat="45.325010223314166" lon="5.795971881598234">
        <ele>869.5999755859375</ele>
        <time>2014-05-18T12:40:50Z</time>
      </trkpt>
      <trkpt lat="45.324988262727857" lon="5.795939862728119">
        <ele>869.79998779296875</ele>
        <time>2014-05-18T12:40:51Z</time>
      </trkpt>
      <trkpt lat="45.324831185862422" lon="5.795746827498078">
        <ele>870.5999755859375</ele>
        <time>2014-05-18T12:40:58Z</time>
      </trkpt>
      <trkpt lat="45.324808470904827" lon="5.795720005407929">
        <ele>870.79998779296875</ele>
        <time>2014-05-18T12:40:59Z</time>
      </trkpt>
      <trkpt lat="45.324677210301161" lon="5.795552786439657">
        <ele>871.79998779296875</ele>
        <time>2014-05-18T12:41:05Z</time>
      </trkpt>
      <trkpt lat="45.324571514502168" lon="5.795415574684739">
        <ele>872.4000244140625</ele>
        <time>2014-05-18T12:41:10Z</time>
      </trkpt>
      <trkpt lat="45.324508901685476" lon="5.795338042080402">
        <ele>873</ele>
        <time>2014-05-18T12:41:13Z</time>
      </trkpt>
      <trkpt lat="45.324407732114196" lon="5.79519865103066">
        <ele>873.5999755859375</ele>
        <time>2014-05-18T12:41:18Z</time>
      </trkpt>
      <trkpt lat="45.324367750436068" lon="5.795143665745854">
        <ele>874</ele>
        <time>2014-05-18T12:41:20Z</time>
      </trkpt>
      <trkpt lat="45.324274711310863" lon="5.795012740418315">
        <ele>874.79998779296875</ele>
        <time>2014-05-18T12:41:25Z</time>
      </trkpt>
      <trkpt lat="45.324237747117877" lon="5.794952139258385">
        <ele>875</ele>
        <time>2014-05-18T12:41:27Z</time>
      </trkpt>
      <trkpt lat="45.324165327474475" lon="5.794813334941864">
        <ele>875.79998779296875</ele>
        <time>2014-05-18T12:41:32Z</time>
      </trkpt>
      <trkpt lat="45.324137751013041" lon="5.794836049899459">
        <ele>876.20001220703125</ele>
        <time>2014-05-18T12:41:49Z</time>
      </trkpt>
      <trkpt lat="45.324129620566964" lon="5.794851807877421">
        <ele>876.20001220703125</ele>
        <time>2014-05-18T12:41:50Z</time>
      </trkpt>
      <trkpt lat="45.324121657758951" lon="5.794816100969911">
        <ele>876</ele>
        <time>2014-05-18T12:42:51Z</time>
      </trkpt>
      <trkpt lat="45.324118640273809" lon="5.794787015765905">
        <ele>876.20001220703125</ele>
        <time>2014-05-18T12:42:52Z</time>
      </trkpt>
      <trkpt lat="45.324069270864129" lon="5.794651312753558">
        <ele>876.5999755859375</ele>
        <time>2014-05-18T12:42:56Z</time>
      </trkpt>
      <trkpt lat="45.324028870090842" lon="5.79455123282969">
        <ele>877</ele>
        <time>2014-05-18T12:42:59Z</time>
      </trkpt>
      <trkpt lat="45.323985535651445" lon="5.79443983733654">
        <ele>877.20001220703125</ele>
        <time>2014-05-18T12:43:02Z</time>
      </trkpt>
      <trkpt lat="45.323888305574656" lon="5.794230038300157">
        <ele>878.4000244140625</ele>
        <time>2014-05-18T12:43:08Z</time>
      </trkpt>
      <trkpt lat="45.323857460170984" lon="5.794156109914184">
        <ele>878.5999755859375</ele>
        <time>2014-05-18T12:43:10Z</time>
      </trkpt>
      <trkpt lat="45.323784286156297" lon="5.794025687500835">
        <ele>879.4000244140625</ele>
        <time>2014-05-18T12:43:14Z</time>
      </trkpt>
      <trkpt lat="45.323709519580007" lon="5.793956285342574">
        <ele>879.79998779296875</ele>
        <time>2014-05-18T12:43:17Z</time>
      </trkpt>
      <trkpt lat="45.323631064966321" lon="5.793926194310188">
        <ele>880.4000244140625</ele>
        <time>2014-05-18T12:43:20Z</time>
      </trkpt>
      <trkpt lat="45.323551772162318" lon="5.793920997530222">
        <ele>880.79998779296875</ele>
        <time>2014-05-18T12:43:23Z</time>
      </trkpt>
      <trkpt lat="45.323392013087869" lon="5.793997189030051">
        <ele>881.20001220703125</ele>
        <time>2014-05-18T12:43:29Z</time>
      </trkpt>
      <trkpt lat="45.323370303958654" lon="5.794025352224708">
        <ele>881.4000244140625</ele>
        <time>2014-05-18T12:43:30Z</time>
      </trkpt>
      <trkpt lat="45.323306601494551" lon="5.794188715517521">
        <ele>882</ele>
        <time>2014-05-18T12:43:35Z</time>
      </trkpt>
      <trkpt lat="45.323278941214085" lon="5.794270858168602">
        <ele>882.5999755859375</ele>
        <time>2014-05-18T12:43:38Z</time>
      </trkpt>
      <trkpt lat="45.323230912908912" lon="5.794362975284457">
        <ele>883.20001220703125</ele>
        <time>2014-05-18T12:43:41Z</time>
      </trkpt>
      <trkpt lat="45.323191517964005" lon="5.794473616406322">
        <ele>883.79998779296875</ele>
        <time>2014-05-18T12:43:45Z</time>
      </trkpt>
      <trkpt lat="45.323184058070183" lon="5.794539833441377">
        <ele>884.20001220703125</ele>
        <time>2014-05-18T12:43:48Z</time>
      </trkpt>
      <trkpt lat="45.323173915967345" lon="5.7946025300771">
        <ele>884.79998779296875</ele>
        <time>2014-05-18T12:43:51Z</time>
      </trkpt>
      <trkpt lat="45.323176933452487" lon="5.794700849801302">
        <ele>885.5999755859375</ele>
        <time>2014-05-18T12:43:55Z</time>
      </trkpt>
      <trkpt lat="45.323168551549315" lon="5.794742088764906">
        <ele>885.79998779296875</ele>
        <time>2014-05-18T12:43:57Z</time>
      </trkpt>
      <trkpt lat="45.323155475780368" lon="5.794821549206972">
        <ele>886.5999755859375</ele>
        <time>2014-05-18T12:44:01Z</time>
      </trkpt>
      <trkpt lat="45.323142567649484" lon="5.794913750141859">
        <ele>887</ele>
        <time>2014-05-18T12:44:05Z</time>
      </trkpt>
      <trkpt lat="45.323077691718936" lon="5.795021038502455">
        <ele>887.5999755859375</ele>
        <time>2014-05-18T12:44:10Z</time>
      </trkpt>
      <trkpt lat="45.323022874072194" lon="5.795110138133168">
        <ele>888</ele>
        <time>2014-05-18T12:44:14Z</time>
      </trkpt>
      <trkpt lat="45.322980210185051" lon="5.795167218893766">
        <ele>888.5999755859375</ele>
        <time>2014-05-18T12:44:17Z</time>
      </trkpt>
      <trkpt lat="45.3229362051934" lon="5.795230837538838">
        <ele>889.20001220703125</ele>
        <time>2014-05-18T12:44:20Z</time>
      </trkpt>
      <trkpt lat="45.322873424738646" lon="5.795276602730155">
        <ele>889.79998779296875</ele>
        <time>2014-05-18T12:44:24Z</time>
      </trkpt>
      <trkpt lat="45.322767645120621" lon="5.795298311859369">
        <ele>890.20001220703125</ele>
        <time>2014-05-18T12:44:28Z</time>
      </trkpt>
      <trkpt lat="45.322711570188403" lon="5.795306358486414">
        <ele>890.4000244140625</ele>
        <time>2014-05-18T12:44:30Z</time>
      </trkpt>
      <trkpt lat="45.322566479444504" lon="5.795395541936159">
        <ele>891.20001220703125</ele>
        <time>2014-05-18T12:44:35Z</time>
      </trkpt>
      <trkpt lat="45.322503866627812" lon="5.795451113954186">
        <ele>891.5999755859375</ele>
        <time>2014-05-18T12:44:37Z</time>
      </trkpt>
      <trkpt lat="45.322394901886582" lon="5.795549349859357">
        <ele>892.4000244140625</ele>
        <time>2014-05-18T12:44:41Z</time>
      </trkpt>
      <trkpt lat="45.322221731767058" lon="5.795653201639652">
        <ele>893.4000244140625</ele>
        <time>2014-05-18T12:44:47Z</time>
      </trkpt>
      <trkpt lat="45.322191221639514" lon="5.795658230781555">
        <ele>893.4000244140625</ele>
        <time>2014-05-18T12:44:48Z</time>
      </trkpt>
      <trkpt lat="45.322014112025499" lon="5.795690165832639">
        <ele>894.4000244140625</ele>
        <time>2014-05-18T12:44:54Z</time>
      </trkpt>
      <trkpt lat="45.321986367926002" lon="5.795685304328799">
        <ele>894.5999755859375</ele>
        <time>2014-05-18T12:44:55Z</time>
      </trkpt>
      <trkpt lat="45.321804229170084" lon="5.795610453933477">
        <ele>895.5999755859375</ele>
        <time>2014-05-18T12:45:02Z</time>
      </trkpt>
      <trkpt lat="45.321657713502645" lon="5.79545471817255">
        <ele>896.79998779296875</ele>
        <time>2014-05-18T12:45:09Z</time>
      </trkpt>
      <trkpt lat="45.321635501459241" lon="5.795427141711116">
        <ele>896.79998779296875</ele>
        <time>2014-05-18T12:45:10Z</time>
      </trkpt>
      <trkpt lat="45.321531984955072" lon="5.79523678869009">
        <ele>897.79998779296875</ele>
        <time>2014-05-18T12:45:16Z</time>
      </trkpt>
      <trkpt lat="45.32152209430933" lon="5.79520208761096">
        <ele>897.79998779296875</ele>
        <time>2014-05-18T12:45:17Z</time>
      </trkpt>
      <trkpt lat="45.321503067389131" lon="5.795127153396606">
        <ele>898</ele>
        <time>2014-05-18T12:45:19Z</time>
      </trkpt>
      <trkpt lat="45.321477921679616" lon="5.794977117329836">
        <ele>898.79998779296875</ele>
        <time>2014-05-18T12:45:23Z</time>
      </trkpt>
      <trkpt lat="45.321469372138381" lon="5.794816855341196">
        <ele>899.20001220703125</ele>
        <time>2014-05-18T12:45:27Z</time>
      </trkpt>
      <trkpt lat="45.321469623595476" lon="5.794702610000968">
        <ele>899.79998779296875</ele>
        <time>2014-05-18T12:45:30Z</time>
      </trkpt>
      <trkpt lat="45.321456715464592" lon="5.79455609433353">
        <ele>900.5999755859375</ele>
        <time>2014-05-18T12:45:34Z</time>
      </trkpt>
      <trkpt lat="45.321442717686296" lon="5.79444226808846">
        <ele>900.79998779296875</ele>
        <time>2014-05-18T12:45:37Z</time>
      </trkpt>
      <trkpt lat="45.321376668289304" lon="5.794210927560926">
        <ele>901.4000244140625</ele>
        <time>2014-05-18T12:45:43Z</time>
      </trkpt>
      <trkpt lat="45.321302991360426" lon="5.794132053852081">
        <ele>902</ele>
        <time>2014-05-18T12:45:46Z</time>
      </trkpt>
      <trkpt lat="45.32123040407896" lon="5.794069273397327">
        <ele>902.5999755859375</ele>
        <time>2014-05-18T12:45:49Z</time>
      </trkpt>
      <trkpt lat="45.321129821240902" lon="5.793985202908516">
        <ele>903.20001220703125</ele>
        <time>2014-05-18T12:45:53Z</time>
      </trkpt>
      <trkpt lat="45.321074668318033" lon="5.79389501363039">
        <ele>903.5999755859375</ele>
        <time>2014-05-18T12:45:56Z</time>
      </trkpt>
      <trkpt lat="45.321013480424881" lon="5.793763501569629">
        <ele>904.20001220703125</ele>
        <time>2014-05-18T12:46:00Z</time>
      </trkpt>
      <trkpt lat="45.3209538012743" lon="5.793589074164629">
        <ele>905</ele>
        <time>2014-05-18T12:46:05Z</time>
      </trkpt>
      <trkpt lat="45.320931924507022" lon="5.793515397235751">
        <ele>905.4000244140625</ele>
        <time>2014-05-18T12:46:07Z</time>
      </trkpt>
      <trkpt lat="45.320889931172132" lon="5.793324206024408">
        <ele>906</ele>
        <time>2014-05-18T12:46:12Z</time>
      </trkpt>
      <trkpt lat="45.320852715522051" lon="5.793174337595701">
        <ele>906.4000244140625</ele>
        <time>2014-05-18T12:46:16Z</time>
      </trkpt>
      <trkpt lat="45.320820612832904" lon="5.792961437255144">
        <ele>907.4000244140625</ele>
        <time>2014-05-18T12:46:22Z</time>
      </trkpt>
      <trkpt lat="45.320764286443591" lon="5.792694976553321">
        <ele>908.5999755859375</ele>
        <time>2014-05-18T12:46:30Z</time>
      </trkpt>
      <trkpt lat="45.320760682225227" lon="5.792663376778364">
        <ele>908.5999755859375</ele>
        <time>2014-05-18T12:46:31Z</time>
      </trkpt>
      <trkpt lat="45.32069387845695" lon="5.792426839470863">
        <ele>909.79998779296875</ele>
        <time>2014-05-18T12:46:38Z</time>
      </trkpt>
      <trkpt lat="45.3206792101264" lon="5.792396245524287">
        <ele>909.79998779296875</ele>
        <time>2014-05-18T12:46:39Z</time>
      </trkpt>
      <trkpt lat="45.320608885958791" lon="5.792203294113278">
        <ele>911</ele>
        <time>2014-05-18T12:46:45Z</time>
      </trkpt>
      <trkpt lat="45.320566892623901" lon="5.792123330757022">
        <ele>911.4000244140625</ele>
        <time>2014-05-18T12:46:48Z</time>
      </trkpt>
      <trkpt lat="45.320464549586177" lon="5.791965667158365">
        <ele>912</ele>
        <time>2014-05-18T12:46:54Z</time>
      </trkpt>
      <trkpt lat="45.320448707789183" lon="5.791936330497265">
        <ele>912.20001220703125</ele>
        <time>2014-05-18T12:46:55Z</time>
      </trkpt>
      <trkpt lat="45.320320213213563" lon="5.791744971647859">
        <ele>913.20001220703125</ele>
        <time>2014-05-18T12:47:02Z</time>
      </trkpt>
      <trkpt lat="45.320288864895701" lon="5.791682777926326">
        <ele>913.20001220703125</ele>
        <time>2014-05-18T12:47:04Z</time>
      </trkpt>
      <trkpt lat="45.320206386968493" lon="5.791548332199454">
        <ele>914.20001220703125</ele>
        <time>2014-05-18T12:47:09Z</time>
      </trkpt>
      <trkpt lat="45.320119969546795" lon="5.791409863159061">
        <ele>914.79998779296875</ele>
        <time>2014-05-18T12:47:14Z</time>
      </trkpt>
      <trkpt lat="45.320076048374176" lon="5.791313471272588">
        <ele>915.20001220703125</ele>
        <time>2014-05-18T12:47:17Z</time>
      </trkpt>
      <trkpt lat="45.319975968450308" lon="5.791085651144385">
        <ele>916.20001220703125</ele>
        <time>2014-05-18T12:47:24Z</time>
      </trkpt>
      <trkpt lat="45.319963730871677" lon="5.791054219007492">
        <ele>916.4000244140625</ele>
        <time>2014-05-18T12:47:25Z</time>
      </trkpt>
      <trkpt lat="45.319896088913083" lon="5.790897896513343">
        <ele>917.4000244140625</ele>
        <time>2014-05-18T12:47:30Z</time>
      </trkpt>
      <trkpt lat="45.319842528551817" lon="5.790763786062598">
        <ele>917.79998779296875</ele>
        <time>2014-05-18T12:47:34Z</time>
      </trkpt>
      <trkpt lat="45.31978745944798" lon="5.790642080828548">
        <ele>918.5999755859375</ele>
        <time>2014-05-18T12:47:38Z</time>
      </trkpt>
      <trkpt lat="45.319729959592223" lon="5.790524818003178">
        <ele>919.20001220703125</ele>
        <time>2014-05-18T12:47:42Z</time>
      </trkpt>
      <trkpt lat="45.319698443636298" lon="5.790461199358106">
        <ele>919.5999755859375</ele>
        <time>2014-05-18T12:47:44Z</time>
      </trkpt>
      <trkpt lat="45.319615378975868" lon="5.790281910449266">
        <ele>920.5999755859375</ele>
        <time>2014-05-18T12:47:50Z</time>
      </trkpt>
      <trkpt lat="45.319520579650998" lon="5.79007051885128">
        <ele>921.79998779296875</ele>
        <time>2014-05-18T12:47:57Z</time>
      </trkpt>
      <trkpt lat="45.319506749510765" lon="5.790044451132417">
        <ele>922</ele>
        <time>2014-05-18T12:47:58Z</time>
      </trkpt>
      <trkpt lat="45.319406501948833" lon="5.789853679016233">
        <ele>923</ele>
        <time>2014-05-18T12:48:05Z</time>
      </trkpt>
      <trkpt lat="45.319315725937486" lon="5.789704564958811">
        <ele>924</ele>
        <time>2014-05-18T12:48:11Z</time>
      </trkpt>
      <trkpt lat="45.319290496408939" lon="5.78965226188302">
        <ele>924.20001220703125</ele>
        <time>2014-05-18T12:48:13Z</time>
      </trkpt>
      <trkpt lat="45.31923676840961" lon="5.78954866155982">
        <ele>925</ele>
        <time>2014-05-18T12:48:17Z</time>
      </trkpt>
      <trkpt lat="45.319203659892082" lon="5.789470206946135">
        <ele>925.4000244140625</ele>
        <time>2014-05-18T12:48:20Z</time>
      </trkpt>
      <trkpt lat="45.319148423150182" lon="5.789367947727442">
        <ele>926</ele>
        <time>2014-05-18T12:48:24Z</time>
      </trkpt>
      <trkpt lat="45.319078098982573" lon="5.78923006542027">
        <ele>926.5999755859375</ele>
        <time>2014-05-18T12:48:29Z</time>
      </trkpt>
      <trkpt lat="45.319039709866047" lon="5.789153706282377">
        <ele>927.20001220703125</ele>
        <time>2014-05-18T12:48:32Z</time>
      </trkpt>
      <trkpt lat="45.318978941068053" lon="5.789038203656673">
        <ele>927.5999755859375</ele>
        <time>2014-05-18T12:48:37Z</time>
      </trkpt>
      <trkpt lat="45.318951532244682" lon="5.788988582789898">
        <ele>928</ele>
        <time>2014-05-18T12:48:39Z</time>
      </trkpt>
      <trkpt lat="45.318922530859709" lon="5.788936698809266">
        <ele>928.20001220703125</ele>
        <time>2014-05-18T12:48:41Z</time>
      </trkpt>
      <trkpt lat="45.318862348794937" lon="5.788847431540489">
        <ele>928.79998779296875</ele>
        <time>2014-05-18T12:48:45Z</time>
      </trkpt>
      <trkpt lat="45.318819181993604" lon="5.788777694106102">
        <ele>929.20001220703125</ele>
        <time>2014-05-18T12:48:48Z</time>
      </trkpt>
      <trkpt lat="45.318762855604291" lon="5.788683565333486">
        <ele>930</ele>
        <time>2014-05-18T12:48:52Z</time>
      </trkpt>
      <trkpt lat="45.318719856441021" lon="5.788619024679065">
        <ele>930.4000244140625</ele>
        <time>2014-05-18T12:48:55Z</time>
      </trkpt>
      <trkpt lat="45.318645425140858" lon="5.788515759631991">
        <ele>931</ele>
        <time>2014-05-18T12:49:00Z</time>
      </trkpt>
      <trkpt lat="45.318575436249375" lon="5.788428252562881">
        <ele>931.5999755859375</ele>
        <time>2014-05-18T12:49:04Z</time>
      </trkpt>
      <trkpt lat="45.318520702421665" lon="5.788331106305122">
        <ele>932</ele>
        <time>2014-05-18T12:49:08Z</time>
      </trkpt>
      <trkpt lat="45.318483905866742" lon="5.788255836814642">
        <ele>932.5999755859375</ele>
        <time>2014-05-18T12:49:11Z</time>
      </trkpt>
      <trkpt lat="45.318388687446713" lon="5.78808082267642">
        <ele>933.79998779296875</ele>
        <time>2014-05-18T12:49:18Z</time>
      </trkpt>
      <trkpt lat="45.318376701325178" lon="5.78805492259562">
        <ele>934</ele>
        <time>2014-05-18T12:49:19Z</time>
      </trkpt>
      <trkpt lat="45.318294139578938" lon="5.787849985063076">
        <ele>934.79998779296875</ele>
        <time>2014-05-18T12:49:26Z</time>
      </trkpt>
      <trkpt lat="45.318281902000308" lon="5.787818385288119">
        <ele>934.79998779296875</ele>
        <time>2014-05-18T12:49:27Z</time>
      </trkpt>
      <trkpt lat="45.318228006362915" lon="5.78767572529614">
        <ele>935.79998779296875</ele>
        <time>2014-05-18T12:49:32Z</time>
      </trkpt>
      <trkpt lat="45.318180564790964" lon="5.787591822445393">
        <ele>936.20001220703125</ele>
        <time>2014-05-18T12:49:35Z</time>
      </trkpt>
      <trkpt lat="45.318124070763588" lon="5.78752476722002">
        <ele>936.79998779296875</ele>
        <time>2014-05-18T12:49:38Z</time>
      </trkpt>
      <trkpt lat="45.318057937547565" lon="5.787500459700823">
        <ele>937.20001220703125</ele>
        <time>2014-05-18T12:49:41Z</time>
      </trkpt>
      <trkpt lat="45.317954672500491" lon="5.787558043375611">
        <ele>937.79998779296875</ele>
        <time>2014-05-18T12:49:46Z</time>
      </trkpt>
      <trkpt lat="45.317888204008341" lon="5.787578914314508">
        <ele>938.5999755859375</ele>
        <time>2014-05-18T12:49:49Z</time>
      </trkpt>
      <trkpt lat="45.317820142954588" lon="5.787594420835376">
        <ele>939</ele>
        <time>2014-05-18T12:49:52Z</time>
      </trkpt>
      <trkpt lat="45.317736910656095" lon="5.787577237933874">
        <ele>939.79998779296875</ele>
        <time>2014-05-18T12:49:56Z</time>
      </trkpt>
      <trkpt lat="45.31764387153089" lon="5.787474978715181">
        <ele>940.20001220703125</ele>
        <time>2014-05-18T12:50:01Z</time>
      </trkpt>
      <trkpt lat="45.317627610638738" lon="5.787453018128872">
        <ele>940.4000244140625</ele>
        <time>2014-05-18T12:50:02Z</time>
      </trkpt>
      <trkpt lat="45.317568266764283" lon="5.787370456382632">
        <ele>941.20001220703125</ele>
        <time>2014-05-18T12:50:06Z</time>
      </trkpt>
      <trkpt lat="45.317495595663786" lon="5.787239279597998">
        <ele>942.20001220703125</ele>
        <time>2014-05-18T12:50:11Z</time>
      </trkpt>
      <trkpt lat="45.317467767745256" lon="5.78717976808548">
        <ele>942.4000244140625</ele>
        <time>2014-05-18T12:50:13Z</time>
      </trkpt>
      <trkpt lat="45.317403813824058" lon="5.78704833984375">
        <ele>943.4000244140625</ele>
        <time>2014-05-18T12:50:18Z</time>
      </trkpt>
      <trkpt lat="45.317326532676816" lon="5.786885730922222">
        <ele>944.4000244140625</ele>
        <time>2014-05-18T12:50:24Z</time>
      </trkpt>
      <trkpt lat="45.317316055297852" lon="5.786866368725896">
        <ele>944.5999755859375</ele>
        <time>2014-05-18T12:50:25Z</time>
      </trkpt>
      <trkpt lat="45.317198960110545" lon="5.78665791079402">
        <ele>945.5999755859375</ele>
        <time>2014-05-18T12:50:33Z</time>
      </trkpt>
      <trkpt lat="45.317091504111886" lon="5.786543330177665">
        <ele>946.79998779296875</ele>
        <time>2014-05-18T12:50:41Z</time>
      </trkpt>
      <trkpt lat="45.317004499956965" lon="5.786405699327588">
        <ele>947.5999755859375</ele>
        <time>2014-05-18T12:50:46Z</time>
      </trkpt>
      <trkpt lat="45.316972732543945" lon="5.786372255533934">
        <ele>947.79998779296875</ele>
        <time>2014-05-18T12:50:48Z</time>
      </trkpt>
      <trkpt lat="45.316910957917571" lon="5.786280976608396">
        <ele>948.4000244140625</ele>
        <time>2014-05-18T12:50:52Z</time>
      </trkpt>
      <trkpt lat="45.316827390342951" lon="5.786140579730272">
        <ele>949</ele>
        <time>2014-05-18T12:50:58Z</time>
      </trkpt>
      <trkpt lat="45.316713564097881" lon="5.785988699644804">
        <ele>950.20001220703125</ele>
        <time>2014-05-18T12:51:05Z</time>
      </trkpt>
      <trkpt lat="45.316676767542958" lon="5.785941174253821">
        <ele>950.4000244140625</ele>
        <time>2014-05-18T12:51:07Z</time>
      </trkpt>
      <trkpt lat="45.316574340686202" lon="5.785801028832793">
        <ele>951.20001220703125</ele>
        <time>2014-05-18T12:51:13Z</time>
      </trkpt>
      <trkpt lat="45.316560007631779" lon="5.785779654979706">
        <ele>951.20001220703125</ele>
        <time>2014-05-18T12:51:14Z</time>
      </trkpt>
      <trkpt lat="45.31645255163312" lon="5.785604389384389">
        <ele>952.20001220703125</ele>
        <time>2014-05-18T12:51:21Z</time>
      </trkpt>
      <trkpt lat="45.316372755914927" lon="5.785370115190744">
        <ele>953.5999755859375</ele>
        <time>2014-05-18T12:51:29Z</time>
      </trkpt>
      <trkpt lat="45.31636068597436" lon="5.785337928682566">
        <ele>953.5999755859375</ele>
        <time>2014-05-18T12:51:30Z</time>
      </trkpt>
      <trkpt lat="45.316358674317598" lon="5.785110695287585">
        <ele>954.5999755859375</ele>
        <time>2014-05-18T12:51:37Z</time>
      </trkpt>
      <trkpt lat="45.316379126161337" lon="5.784934340044856">
        <ele>955.5999755859375</ele>
        <time>2014-05-18T12:51:43Z</time>
      </trkpt>
      <trkpt lat="45.316379712894559" lon="5.784907266497612">
        <ele>955.5999755859375</ele>
        <time>2014-05-18T12:51:44Z</time>
      </trkpt>
      <trkpt lat="45.316386418417096" lon="5.784775000065565">
        <ele>956.5999755859375</ele>
        <time>2014-05-18T12:51:49Z</time>
      </trkpt>
      <trkpt lat="45.316385999321938" lon="5.784749099984765">
        <ele>956.79998779296875</ele>
        <time>2014-05-18T12:51:50Z</time>
      </trkpt>
      <trkpt lat="45.316395722329617" lon="5.784590682014823">
        <ele>957.79998779296875</ele>
        <time>2014-05-18T12:51:56Z</time>
      </trkpt>
      <trkpt lat="45.316339731216431" lon="5.784381721168757">
        <ele>959</ele>
        <time>2014-05-18T12:52:04Z</time>
      </trkpt>
      <trkpt lat="45.316218193620443" lon="5.784286921843886">
        <ele>959.5999755859375</ele>
        <time>2014-05-18T12:52:10Z</time>
      </trkpt>
      <trkpt lat="45.31617159023881" lon="5.784294297918677">
        <ele>959.79998779296875</ele>
        <time>2014-05-18T12:52:12Z</time>
      </trkpt>
      <trkpt lat="45.316118951886892" lon="5.784326903522015">
        <ele>960</ele>
        <time>2014-05-18T12:52:15Z</time>
      </trkpt>
      <trkpt lat="45.31610076315701" lon="5.784339895471931">
        <ele>960</ele>
        <time>2014-05-18T12:52:16Z</time>
      </trkpt>
      <trkpt lat="45.316083915531635" lon="5.784356240183115">
        <ele>960.5999755859375</ele>
        <time>2014-05-18T12:52:17Z</time>
      </trkpt>
      <trkpt lat="45.316049214452505" lon="5.784392198547721">
        <ele>961.20001220703125</ele>
        <time>2014-05-18T12:52:19Z</time>
      </trkpt>
      <trkpt lat="45.315984673798084" lon="5.784462187439203">
        <ele>961.5999755859375</ele>
        <time>2014-05-18T12:52:23Z</time>
      </trkpt>
      <trkpt lat="45.315877301618457" lon="5.78455195762217">
        <ele>962.4000244140625</ele>
        <time>2014-05-18T12:52:29Z</time>
      </trkpt>
      <trkpt lat="45.315858190879226" lon="5.784559585154057">
        <ele>962.5999755859375</ele>
        <time>2014-05-18T12:52:30Z</time>
      </trkpt>
      <trkpt lat="45.315800858661532" lon="5.784583389759064">
        <ele>963.4000244140625</ele>
        <time>2014-05-18T12:52:33Z</time>
      </trkpt>
      <trkpt lat="45.31572206877172" lon="5.784583725035191">
        <ele>964</ele>
        <time>2014-05-18T12:52:37Z</time>
      </trkpt>
      <trkpt lat="45.315637160092592" lon="5.784553214907646">
        <ele>964.79998779296875</ele>
        <time>2014-05-18T12:52:41Z</time>
      </trkpt>
      <trkpt lat="45.315524842590094" lon="5.784486243501306">
        <ele>966</ele>
        <time>2014-05-18T12:52:47Z</time>
      </trkpt>
      <trkpt lat="45.315415374934673" lon="5.784418601542711">
        <ele>967</ele>
        <time>2014-05-18T12:52:53Z</time>
      </trkpt>
      <trkpt lat="45.315323593094945" lon="5.784323969855905">
        <ele>968</ele>
        <time>2014-05-18T12:52:59Z</time>
      </trkpt>
      <trkpt lat="45.315219406038523" lon="5.784246185794473">
        <ele>969</ele>
        <time>2014-05-18T12:53:05Z</time>
      </trkpt>
      <trkpt lat="45.315206414088607" lon="5.784225398674607">
        <ele>969</ele>
        <time>2014-05-18T12:53:06Z</time>
      </trkpt>
      <trkpt lat="45.315113877877593" lon="5.784124815836549">
        <ele>970</ele>
        <time>2014-05-18T12:53:12Z</time>
      </trkpt>
      <trkpt lat="45.315098958089948" lon="5.784106124192476">
        <ele>970.20001220703125</ele>
        <time>2014-05-18T12:53:13Z</time>
      </trkpt>
      <trkpt lat="45.315027544274926" lon="5.78402129933238">
        <ele>971</ele>
        <time>2014-05-18T12:53:18Z</time>
      </trkpt>
      <trkpt lat="45.315013211220503" lon="5.783999506384134">
        <ele>971.20001220703125</ele>
        <time>2014-05-18T12:53:19Z</time>
      </trkpt>
      <trkpt lat="45.314921261742711" lon="5.783859444782138">
        <ele>971.79998779296875</ele>
        <time>2014-05-18T12:53:25Z</time>
      </trkpt>
      <trkpt lat="45.314905503764749" lon="5.783843016251922">
        <ele>972.20001220703125</ele>
        <time>2014-05-18T12:53:26Z</time>
      </trkpt>
      <trkpt lat="45.314841968938708" lon="5.783692896366119">
        <ele>973.4000244140625</ele>
        <time>2014-05-18T12:53:32Z</time>
      </trkpt>
      <trkpt lat="45.314797125756741" lon="5.783516289666295">
        <ele>974.4000244140625</ele>
        <time>2014-05-18T12:53:38Z</time>
      </trkpt>
      <trkpt lat="45.314791342243552" lon="5.783486785367131">
        <ele>974.4000244140625</ele>
        <time>2014-05-18T12:53:39Z</time>
      </trkpt>
      <trkpt lat="45.314754378050566" lon="5.78327514231205">
        <ele>975.5999755859375</ele>
        <time>2014-05-18T12:53:46Z</time>
      </trkpt>
      <trkpt lat="45.314714312553406" lon="5.783072970807552">
        <ele>976.79998779296875</ele>
        <time>2014-05-18T12:53:53Z</time>
      </trkpt>
      <trkpt lat="45.314710373058915" lon="5.78304061666131">
        <ele>977</ele>
        <time>2014-05-18T12:53:54Z</time>
      </trkpt>
      <trkpt lat="45.314685562625527" lon="5.782890748232603">
        <ele>977.79998779296875</ele>
        <time>2014-05-18T12:53:59Z</time>
      </trkpt>
      <trkpt lat="45.314680114388466" lon="5.78286275267601">
        <ele>978</ele>
        <time>2014-05-18T12:54:00Z</time>
      </trkpt>
      <trkpt lat="45.314658153802156" lon="5.782742220908403">
        <ele>978.5999755859375</ele>
        <time>2014-05-18T12:54:04Z</time>
      </trkpt>
      <trkpt lat="45.31463929452002" lon="5.782694695517421">
        <ele>979</ele>
        <time>2014-05-18T12:54:06Z</time>
      </trkpt>
      <trkpt lat="45.314610628411174" lon="5.782498056069017">
        <ele>979.79998779296875</ele>
        <time>2014-05-18T12:54:13Z</time>
      </trkpt>
      <trkpt lat="45.314604174345732" lon="5.78246989287436">
        <ele>980</ele>
        <time>2014-05-18T12:54:14Z</time>
      </trkpt>
      <trkpt lat="45.31458456069231" lon="5.782337626442313">
        <ele>981</ele>
        <time>2014-05-18T12:54:19Z</time>
      </trkpt>
      <trkpt lat="45.314578106626868" lon="5.782308457419276">
        <ele>981.20001220703125</ele>
        <time>2014-05-18T12:54:20Z</time>
      </trkpt>
      <trkpt lat="45.314539549872279" lon="5.782102178782225">
        <ele>982.20001220703125</ele>
        <time>2014-05-18T12:54:27Z</time>
      </trkpt>
      <trkpt lat="45.314535442739725" lon="5.782073931768537">
        <ele>982.4000244140625</ele>
        <time>2014-05-18T12:54:28Z</time>
      </trkpt>
      <trkpt lat="45.31451809220016" lon="5.781926829367876">
        <ele>983.20001220703125</ele>
        <time>2014-05-18T12:54:33Z</time>
      </trkpt>
      <trkpt lat="45.314509039744735" lon="5.78186983242631">
        <ele>983.4000244140625</ele>
        <time>2014-05-18T12:54:35Z</time>
      </trkpt>
      <trkpt lat="45.314481044188142" lon="5.78173597343266">
        <ele>984.20001220703125</ele>
        <time>2014-05-18T12:54:40Z</time>
      </trkpt>
      <trkpt lat="45.31446436420083" lon="5.781682496890426">
        <ele>984.79998779296875</ele>
        <time>2014-05-18T12:54:42Z</time>
      </trkpt>
      <trkpt lat="45.314405271783471" lon="5.781538663432002">
        <ele>985.4000244140625</ele>
        <time>2014-05-18T12:54:47Z</time>
      </trkpt>
      <trkpt lat="45.314376438036561" lon="5.781481582671404">
        <ele>985.5999755859375</ele>
        <time>2014-05-18T12:54:49Z</time>
      </trkpt>
      <trkpt lat="45.314321536570787" lon="5.781349567696452">
        <ele>986.4000244140625</ele>
        <time>2014-05-18T12:54:54Z</time>
      </trkpt>
      <trkpt lat="45.314281387254596" lon="5.781275723129511">
        <ele>986.5999755859375</ele>
        <time>2014-05-18T12:54:57Z</time>
      </trkpt>
      <trkpt lat="45.314222630113363" lon="5.781121077015996">
        <ele>987.5999755859375</ele>
        <time>2014-05-18T12:55:03Z</time>
      </trkpt>
      <trkpt lat="45.314207961782813" lon="5.781073132529855">
        <ele>988</ele>
        <time>2014-05-18T12:55:05Z</time>
      </trkpt>
      <trkpt lat="45.314178122207522" lon="5.780997276306152">
        <ele>988.5999755859375</ele>
        <time>2014-05-18T12:55:08Z</time>
      </trkpt>
      <trkpt lat="45.314123807474971" lon="5.780866937711835">
        <ele>989.4000244140625</ele>
        <time>2014-05-18T12:55:13Z</time>
      </trkpt>
      <trkpt lat="45.314099751412868" lon="5.780789908021689">
        <ele>989.5999755859375</ele>
        <time>2014-05-18T12:55:16Z</time>
      </trkpt>
      <trkpt lat="45.314055243507028" lon="5.780645571649075">
        <ele>990.5999755859375</ele>
        <time>2014-05-18T12:55:21Z</time>
      </trkpt>
      <trkpt lat="45.314032780006528" lon="5.780557729303837">
        <ele>991</ele>
        <time>2014-05-18T12:55:24Z</time>
      </trkpt>
      <trkpt lat="45.313987517729402" lon="5.78043082728982">
        <ele>992</ele>
        <time>2014-05-18T12:55:29Z</time>
      </trkpt>
      <trkpt lat="45.313917361199856" lon="5.780250448733568">
        <ele>992.4000244140625</ele>
        <time>2014-05-18T12:55:37Z</time>
      </trkpt>
      <trkpt lat="45.313871428370476" lon="5.780145423486829">
        <ele>993</ele>
        <time>2014-05-18T12:55:42Z</time>
      </trkpt>
      <trkpt lat="45.313857011497021" lon="5.780098401010037">
        <ele>993.4000244140625</ele>
        <time>2014-05-18T12:55:44Z</time>
      </trkpt>
      <trkpt lat="45.313821472227573" lon="5.780017264187336">
        <ele>994</ele>
        <time>2014-05-18T12:55:48Z</time>
      </trkpt>
      <trkpt lat="45.313762295991182" lon="5.779880052432418">
        <ele>995</ele>
        <time>2014-05-18T12:55:54Z</time>
      </trkpt>
      <trkpt lat="45.313751231878996" lon="5.779854152351618">
        <ele>995</ele>
        <time>2014-05-18T12:55:55Z</time>
      </trkpt>
      <trkpt lat="45.313671352341771" lon="5.779687017202377">
        <ele>996</ele>
        <time>2014-05-18T12:56:02Z</time>
      </trkpt>
      <trkpt lat="45.313661880791187" lon="5.779661620035768">
        <ele>996.20001220703125</ele>
        <time>2014-05-18T12:56:03Z</time>
      </trkpt>
      <trkpt lat="45.313577642664313" lon="5.77946238219738">
        <ele>997.20001220703125</ele>
        <time>2014-05-18T12:56:11Z</time>
      </trkpt>
      <trkpt lat="45.313565572723746" lon="5.779439667239785">
        <ele>997.20001220703125</ele>
        <time>2014-05-18T12:56:12Z</time>
      </trkpt>
      <trkpt lat="45.31350078061223" lon="5.779288876801729">
        <ele>998.4000244140625</ele>
        <time>2014-05-18T12:56:18Z</time>
      </trkpt>
      <trkpt lat="45.31348804011941" lon="5.779266078025103">
        <ele>998.4000244140625</ele>
        <time>2014-05-18T12:56:19Z</time>
      </trkpt>
      <trkpt lat="45.31339910812676" lon="5.779099194332957">
        <ele>999.4000244140625</ele>
        <time>2014-05-18T12:56:26Z</time>
      </trkpt>
      <trkpt lat="45.313306152820587" lon="5.778948655351996">
        <ele>1000.4000244140625</ele>
        <time>2014-05-18T12:56:33Z</time>
      </trkpt>
      <trkpt lat="45.313295340165496" lon="5.778929879888892">
        <ele>1000.5999755859375</ele>
        <time>2014-05-18T12:56:34Z</time>
      </trkpt>
      <trkpt lat="45.313217304646969" lon="5.778843713924289">
        <ele>1001.5999755859375</ele>
        <time>2014-05-18T12:56:40Z</time>
      </trkpt>
      <trkpt lat="45.313203642144799" lon="5.778831392526627">
        <ele>1001.7999877929687</ele>
        <time>2014-05-18T12:56:41Z</time>
      </trkpt>
      <trkpt lat="45.313131138682365" lon="5.778737599030137">
        <ele>1002.7999877929687</ele>
        <time>2014-05-18T12:56:46Z</time>
      </trkpt>
      <trkpt lat="45.313113033771515" lon="5.778723265975714">
        <ele>1003</ele>
        <time>2014-05-18T12:56:47Z</time>
      </trkpt>
      <trkpt lat="45.313010942190886" lon="5.778637770563364">
        <ele>1003.7999877929687</ele>
        <time>2014-05-18T12:56:53Z</time>
      </trkpt>
      <trkpt lat="45.312997363507748" lon="5.778625616803765">
        <ele>1004.2000122070312</ele>
        <time>2014-05-18T12:56:54Z</time>
      </trkpt>
      <trkpt lat="45.312974145635962" lon="5.778599297627807">
        <ele>1004.5999755859375</ele>
        <time>2014-05-18T12:56:56Z</time>
      </trkpt>
      <trkpt lat="45.31294765882194" lon="5.778564428910613">
        <ele>1004.7999877929687</ele>
        <time>2014-05-18T12:56:58Z</time>
      </trkpt>
      <trkpt lat="45.312930392101407" lon="5.778551185503602">
        <ele>1005</ele>
        <time>2014-05-18T12:56:59Z</time>
      </trkpt>
      <trkpt lat="45.31283525750041" lon="5.778461415320635">
        <ele>1006</ele>
        <time>2014-05-18T12:57:05Z</time>
      </trkpt>
      <trkpt lat="45.312821175903082" lon="5.778444232419133">
        <ele>1006.4000244140625</ele>
        <time>2014-05-18T12:57:06Z</time>
      </trkpt>
      <trkpt lat="45.312744481489062" lon="5.778370890766382">
        <ele>1007.2000122070312</ele>
        <time>2014-05-18T12:57:11Z</time>
      </trkpt>
      <trkpt lat="45.312732411548495" lon="5.778352618217468">
        <ele>1007.2000122070312</ele>
        <time>2014-05-18T12:57:12Z</time>
      </trkpt>
      <trkpt lat="45.312722017988563" lon="5.778335016220808">
        <ele>1007.4000244140625</ele>
        <time>2014-05-18T12:57:13Z</time>
      </trkpt>
      <trkpt lat="45.312665943056345" lon="5.778262428939343">
        <ele>1008</ele>
        <time>2014-05-18T12:57:17Z</time>
      </trkpt>
      <trkpt lat="45.312647670507431" lon="5.778248850256205">
        <ele>1008.2000122070312</ele>
        <time>2014-05-18T12:57:18Z</time>
      </trkpt>
      <trkpt lat="45.312613556161523" lon="5.778218423947692">
        <ele>1008.4000244140625</ele>
        <time>2014-05-18T12:57:20Z</time>
      </trkpt>
      <trkpt lat="45.312556475400925" lon="5.778153883293271">
        <ele>1009.2000122070312</ele>
        <time>2014-05-18T12:57:24Z</time>
      </trkpt>
      <trkpt lat="45.312510961666703" lon="5.77809227630496">
        <ele>1009.7999877929687</ele>
        <time>2014-05-18T12:57:28Z</time>
      </trkpt>
      <trkpt lat="45.312478356063366" lon="5.778044667094946">
        <ele>1010.4000244140625</ele>
        <time>2014-05-18T12:57:31Z</time>
      </trkpt>
      <trkpt lat="45.312400907278061" lon="5.777940731495619">
        <ele>1011.2000122070312</ele>
        <time>2014-05-18T12:57:37Z</time>
      </trkpt>
      <trkpt lat="45.31236176379025" lon="5.777884405106306">
        <ele>1011.4000244140625</ele>
        <time>2014-05-18T12:57:40Z</time>
      </trkpt>
      <trkpt lat="45.312355393543839" lon="5.777861522510648">
        <ele>1011.5999755859375</ele>
        <time>2014-05-18T12:57:41Z</time>
      </trkpt>
      <trkpt lat="45.312338210642338" lon="5.777810728177428">
        <ele>1012</ele>
        <time>2014-05-18T12:57:43Z</time>
      </trkpt>
      <trkpt lat="45.312326224520802" lon="5.777792958542705">
        <ele>1012</ele>
        <time>2014-05-18T12:57:44Z</time>
      </trkpt>
      <trkpt lat="45.312286829575896" lon="5.777744930237532">
        <ele>1012.7999877929687</ele>
        <time>2014-05-18T12:57:47Z</time>
      </trkpt>
      <trkpt lat="45.312234023585916" lon="5.777669157832861">
        <ele>1013.4000244140625</ele>
        <time>2014-05-18T12:57:51Z</time>
      </trkpt>
      <trkpt lat="45.312200244516134" lon="5.777598414570093">
        <ele>1013.7999877929687</ele>
        <time>2014-05-18T12:57:54Z</time>
      </trkpt>
      <trkpt lat="45.312139140442014" lon="5.777518367394805">
        <ele>1014.7999877929687</ele>
        <time>2014-05-18T12:57:59Z</time>
      </trkpt>
      <trkpt lat="45.311941411346197" lon="5.777284847572446">
        <ele>1017.2000122070312</ele>
        <time>2014-05-18T12:58:17Z</time>
      </trkpt>
      <trkpt lat="45.311890030279756" lon="5.777244530618191">
        <ele>1018</ele>
        <time>2014-05-18T12:58:20Z</time>
      </trkpt>
      <trkpt lat="45.311853569000959" lon="5.777201615273953">
        <ele>1018.4000244140625</ele>
        <time>2014-05-18T12:58:23Z</time>
      </trkpt>
      <trkpt lat="45.311808893457055" lon="5.777118382975459">
        <ele>1019</ele>
        <time>2014-05-18T12:58:27Z</time>
      </trkpt>
      <trkpt lat="45.311795650050044" lon="5.777069348841906">
        <ele>1019.4000244140625</ele>
        <time>2014-05-18T12:58:29Z</time>
      </trkpt>
      <trkpt lat="45.311768408864737" lon="5.776934651657939">
        <ele>1020.2000122070312</ele>
        <time>2014-05-18T12:58:34Z</time>
      </trkpt>
      <trkpt lat="45.311758350580931" lon="5.776899615302682">
        <ele>1020.5999755859375</ele>
        <time>2014-05-18T12:58:35Z</time>
      </trkpt>
      <trkpt lat="45.311746867373586" lon="5.776787046343088">
        <ele>1021.2000122070312</ele>
        <time>2014-05-18T12:58:39Z</time>
      </trkpt>
      <trkpt lat="45.311746364459395" lon="5.776739940047264">
        <ele>1021.5999755859375</ele>
        <time>2014-05-18T12:58:41Z</time>
      </trkpt>
      <trkpt lat="45.311738736927509" lon="5.77664639800787">
        <ele>1022.5999755859375</ele>
        <time>2014-05-18T12:58:45Z</time>
      </trkpt>
      <trkpt lat="45.311736557632685" lon="5.776628376916051">
        <ele>1022.5999755859375</ele>
        <time>2014-05-18T12:58:46Z</time>
      </trkpt>
      <trkpt lat="45.311724487692118" lon="5.776497786864638">
        <ele>1023.4000244140625</ele>
        <time>2014-05-18T12:58:51Z</time>
      </trkpt>
      <trkpt lat="45.311723733320832" lon="5.776428384706378">
        <ele>1023.7999877929687</ele>
        <time>2014-05-18T12:58:54Z</time>
      </trkpt>
      <trkpt lat="45.311721134930849" lon="5.776369459927082">
        <ele>1024.199951171875</ele>
        <time>2014-05-18T12:58:57Z</time>
      </trkpt>
      <trkpt lat="45.311722224578261" lon="5.776294274255633">
        <ele>1024.800048828125</ele>
        <time>2014-05-18T12:59:00Z</time>
      </trkpt>
      <trkpt lat="45.311717698350549" lon="5.776190757751465">
        <ele>1025.4000244140625</ele>
        <time>2014-05-18T12:59:04Z</time>
      </trkpt>
      <trkpt lat="45.3117167763412" lon="5.776139041408896">
        <ele>1026</ele>
        <time>2014-05-18T12:59:06Z</time>
      </trkpt>
      <trkpt lat="45.311730522662401" lon="5.776044996455312">
        <ele>1026.5999755859375</ele>
        <time>2014-05-18T12:59:10Z</time>
      </trkpt>
      <trkpt lat="45.311740832403302" lon="5.775976767763495">
        <ele>1027</ele>
        <time>2014-05-18T12:59:13Z</time>
      </trkpt>
      <trkpt lat="45.31174804084003" lon="5.775928823277354">
        <ele>1027.4000244140625</ele>
        <time>2014-05-18T12:59:15Z</time>
      </trkpt>
      <trkpt lat="45.311782574281096" lon="5.775839304551482">
        <ele>1028.199951171875</ele>
        <time>2014-05-18T12:59:20Z</time>
      </trkpt>
      <trkpt lat="45.311814928427339" lon="5.775691783055663">
        <ele>1029</ele>
        <time>2014-05-18T12:59:26Z</time>
      </trkpt>
      <trkpt lat="45.311932945623994" lon="5.775599414482713">
        <ele>1030</ele>
        <time>2014-05-18T13:07:17Z</time>
      </trkpt>
      <trkpt lat="45.311942584812641" lon="5.775581728667021">
        <ele>1030.199951171875</ele>
        <time>2014-05-18T13:07:18Z</time>
      </trkpt>
      <trkpt lat="45.311967981979251" lon="5.775539902970195">
        <ele>1030.4000244140625</ele>
        <time>2014-05-18T13:07:20Z</time>
      </trkpt>
      <trkpt lat="45.312048364430666" lon="5.775451306253672">
        <ele>1031.199951171875</ele>
        <time>2014-05-18T13:07:25Z</time>
      </trkpt>
      <trkpt lat="45.312093542888761" lon="5.775408977642655">
        <ele>1031.5999755859375</ele>
        <time>2014-05-18T13:07:28Z</time>
      </trkpt>
      <trkpt lat="45.312155904248357" lon="5.775340581312776">
        <ele>1032.4000244140625</ele>
        <time>2014-05-18T13:07:32Z</time>
      </trkpt>
      <trkpt lat="45.312191275879741" lon="5.775307640433312">
        <ele>1032.800048828125</ele>
        <time>2014-05-18T13:07:34Z</time>
      </trkpt>
      <trkpt lat="45.312262941151857" lon="5.775236561894417">
        <ele>1033.5999755859375</ele>
        <time>2014-05-18T13:07:38Z</time>
      </trkpt>
      <trkpt lat="45.312295211479068" lon="5.775204123929143">
        <ele>1033.800048828125</ele>
        <time>2014-05-18T13:07:40Z</time>
      </trkpt>
      <trkpt lat="45.312391184270382" lon="5.77508183196187">
        <ele>1034.800048828125</ele>
        <time>2014-05-18T13:07:46Z</time>
      </trkpt>
      <trkpt lat="45.312483971938491" lon="5.774957109242678">
        <ele>1035.800048828125</ele>
        <time>2014-05-18T13:07:53Z</time>
      </trkpt>
      <trkpt lat="45.312494281679392" lon="5.774934561923146">
        <ele>1036</ele>
        <time>2014-05-18T13:07:54Z</time>
      </trkpt>
      <trkpt lat="45.31254499219358" lon="5.774840349331498">
        <ele>1036.5999755859375</ele>
        <time>2014-05-18T13:07:58Z</time>
      </trkpt>
      <trkpt lat="45.312556559219956" lon="5.774818640202284">
        <ele>1036.800048828125</ele>
        <time>2014-05-18T13:07:59Z</time>
      </trkpt>
      <trkpt lat="45.31261196359992" lon="5.774640021845698">
        <ele>1038</ele>
        <time>2014-05-18T13:08:06Z</time>
      </trkpt>
      <trkpt lat="45.312617411836982" lon="5.774611439555883">
        <ele>1038.199951171875</ele>
        <time>2014-05-18T13:08:07Z</time>
      </trkpt>
      <trkpt lat="45.312612131237984" lon="5.774366268888116">
        <ele>1038.800048828125</ele>
        <time>2014-05-18T13:08:16Z</time>
      </trkpt>
      <trkpt lat="45.312608107924461" lon="5.774338273331523">
        <ele>1039</ele>
        <time>2014-05-18T13:08:17Z</time>
      </trkpt>
      <trkpt lat="45.312574077397585" lon="5.77416904270649">
        <ele>1040</ele>
        <time>2014-05-18T13:08:23Z</time>
      </trkpt>
      <trkpt lat="45.312549769878387" lon="5.774089498445392">
        <ele>1040.199951171875</ele>
        <time>2014-05-18T13:08:26Z</time>
      </trkpt>
      <trkpt lat="45.312499646097422" lon="5.773939713835716">
        <ele>1041.4000244140625</ele>
        <time>2014-05-18T13:08:32Z</time>
      </trkpt>
      <trkpt lat="45.312430998310447" lon="5.773775093257427">
        <ele>1042.4000244140625</ele>
        <time>2014-05-18T13:08:39Z</time>
      </trkpt>
      <trkpt lat="45.312423706054687" lon="5.773751121014357">
        <ele>1042.5999755859375</ele>
        <time>2014-05-18T13:08:40Z</time>
      </trkpt>
      <trkpt lat="45.312397135421634" lon="5.77367015182972">
        <ele>1043.5999755859375</ele>
        <time>2014-05-18T13:08:43Z</time>
      </trkpt>
      <trkpt lat="45.31233343295753" lon="5.773529419675469">
        <ele>1044.5999755859375</ele>
        <time>2014-05-18T13:08:49Z</time>
      </trkpt>
      <trkpt lat="45.312325386330485" lon="5.773505195975304">
        <ele>1044.5999755859375</ele>
        <time>2014-05-18T13:08:50Z</time>
      </trkpt>
      <trkpt lat="45.312255565077066" lon="5.773340659216046">
        <ele>1045.5999755859375</ele>
        <time>2014-05-18T13:08:57Z</time>
      </trkpt>
      <trkpt lat="45.312246596440673" lon="5.773316267877817">
        <ele>1045.800048828125</ele>
        <time>2014-05-18T13:08:58Z</time>
      </trkpt>
      <trkpt lat="45.312206698581576" lon="5.773189282044768">
        <ele>1046.5999755859375</ele>
        <time>2014-05-18T13:09:03Z</time>
      </trkpt>
      <trkpt lat="45.312162693589926" lon="5.773093225434423">
        <ele>1047.199951171875</ele>
        <time>2014-05-18T13:09:07Z</time>
      </trkpt>
      <trkpt lat="45.312146432697773" lon="5.773047208786011">
        <ele>1047.800048828125</ele>
        <time>2014-05-18T13:09:09Z</time>
      </trkpt>
      <trkpt lat="45.312083987519145" lon="5.772882420569658">
        <ele>1049</ele>
        <time>2014-05-18T13:09:16Z</time>
      </trkpt>
      <trkpt lat="45.312074096873403" lon="5.7728561013937">
        <ele>1049.199951171875</ele>
        <time>2014-05-18T13:09:17Z</time>
      </trkpt>
      <trkpt lat="45.312013998627663" lon="5.772678572684526">
        <ele>1050</ele>
        <time>2014-05-18T13:09:24Z</time>
      </trkpt>
      <trkpt lat="45.312006119638681" lon="5.772652085870504">
        <ele>1050.199951171875</ele>
        <time>2014-05-18T13:09:25Z</time>
      </trkpt>
      <trkpt lat="45.311962701380253" lon="5.772528117522597">
        <ele>1051</ele>
        <time>2014-05-18T13:09:30Z</time>
      </trkpt>
      <trkpt lat="45.311955492943525" lon="5.772503474727273">
        <ele>1051.4000244140625</ele>
        <time>2014-05-18T13:09:31Z</time>
      </trkpt>
      <trkpt lat="45.311911404132843" lon="5.772392163053155">
        <ele>1052.199951171875</ele>
        <time>2014-05-18T13:09:36Z</time>
      </trkpt>
      <trkpt lat="45.311884498223662" lon="5.772316139191389">
        <ele>1052.5999755859375</ele>
        <time>2014-05-18T13:09:39Z</time>
      </trkpt>
      <trkpt lat="45.311847031116486" lon="5.772200468927622">
        <ele>1053.4000244140625</ele>
        <time>2014-05-18T13:09:44Z</time>
      </trkpt>
      <trkpt lat="45.311833452433348" lon="5.772153865545988">
        <ele>1053.5999755859375</ele>
        <time>2014-05-18T13:09:46Z</time>
      </trkpt>
      <trkpt lat="45.311823142692447" lon="5.772130815312266">
        <ele>1053.800048828125</ele>
        <time>2014-05-18T13:09:47Z</time>
      </trkpt>
      <trkpt lat="45.311797074973583" lon="5.772020760923624">
        <ele>1054.4000244140625</ele>
        <time>2014-05-18T13:09:51Z</time>
      </trkpt>
      <trkpt lat="45.311771929264069" lon="5.771928727626801">
        <ele>1055.5999755859375</ele>
        <time>2014-05-18T13:09:55Z</time>
      </trkpt>
      <trkpt lat="45.311764469370246" lon="5.771888745948672">
        <ele>1055.800048828125</ele>
        <time>2014-05-18T13:09:57Z</time>
      </trkpt>
      <trkpt lat="45.311752734705806" lon="5.771841136738658">
        <ele>1056.199951171875</ele>
        <time>2014-05-18T13:09:59Z</time>
      </trkpt>
      <trkpt lat="45.31173387542367" lon="5.771789671853185">
        <ele>1056.5999755859375</ele>
        <time>2014-05-18T13:10:01Z</time>
      </trkpt>
      <trkpt lat="45.31172071583569" lon="5.771737284958363">
        <ele>1057</ele>
        <time>2014-05-18T13:10:03Z</time>
      </trkpt>
      <trkpt lat="45.311687439680099" lon="5.771634103730321">
        <ele>1057.800048828125</ele>
        <time>2014-05-18T13:10:08Z</time>
      </trkpt>
      <trkpt lat="45.311628095805645" lon="5.771478703245521">
        <ele>1058.800048828125</ele>
        <time>2014-05-18T13:10:15Z</time>
      </trkpt>
      <trkpt lat="45.311622144654393" lon="5.771456323564053">
        <ele>1058.800048828125</ele>
        <time>2014-05-18T13:10:16Z</time>
      </trkpt>
      <trkpt lat="45.311584426090121" lon="5.771350543946028">
        <ele>1060</ele>
        <time>2014-05-18T13:10:21Z</time>
      </trkpt>
      <trkpt lat="45.311555508524179" lon="5.771289942786098">
        <ele>1060.4000244140625</ele>
        <time>2014-05-18T13:10:24Z</time>
      </trkpt>
      <trkpt lat="45.311533631756902" lon="5.771228419616818">
        <ele>1060.800048828125</ele>
        <time>2014-05-18T13:10:27Z</time>
      </trkpt>
      <trkpt lat="45.311520053073764" lon="5.771207548677921">
        <ele>1061</ele>
        <time>2014-05-18T13:10:28Z</time>
      </trkpt>
      <trkpt lat="45.3114680852741" lon="5.771109312772751">
        <ele>1061.800048828125</ele>
        <time>2014-05-18T13:10:33Z</time>
      </trkpt>
      <trkpt lat="45.311453165486455" lon="5.771064553409815">
        <ele>1062</ele>
        <time>2014-05-18T13:10:35Z</time>
      </trkpt>
      <trkpt lat="45.311419302597642" lon="5.770982410758734">
        <ele>1063</ele>
        <time>2014-05-18T13:10:39Z</time>
      </trkpt>
      <trkpt lat="45.311412429437041" lon="5.770967155694962">
        <ele>1063</ele>
        <time>2014-05-18T13:10:40Z</time>
      </trkpt>
      <trkpt lat="45.311350068077445" lon="5.770883839577436">
        <ele>1064</ele>
        <time>2014-05-18T13:10:45Z</time>
      </trkpt>
      <trkpt lat="45.311326682567596" lon="5.770850982517004">
        <ele>1064.4000244140625</ele>
        <time>2014-05-18T13:10:47Z</time>
      </trkpt>
      <trkpt lat="45.311285443603992" lon="5.770810833200812">
        <ele>1064.800048828125</ele>
        <time>2014-05-18T13:10:50Z</time>
      </trkpt>
      <trkpt lat="45.311267673969269" lon="5.770799266174436">
        <ele>1065</ele>
        <time>2014-05-18T13:10:51Z</time>
      </trkpt>
      <trkpt lat="45.311215873807669" lon="5.770755764096975">
        <ele>1065.4000244140625</ele>
        <time>2014-05-18T13:10:54Z</time>
      </trkpt>
      <trkpt lat="45.311174718663096" lon="5.770735396072269">
        <ele>1065.800048828125</ele>
        <time>2014-05-18T13:10:56Z</time>
      </trkpt>
      <trkpt lat="45.311138341203332" lon="5.770712345838547">
        <ele>1066.199951171875</ele>
        <time>2014-05-18T13:10:58Z</time>
      </trkpt>
      <trkpt lat="45.311095761135221" lon="5.77064654789865">
        <ele>1066.800048828125</ele>
        <time>2014-05-18T13:11:02Z</time>
      </trkpt>
      <trkpt lat="45.311063406988978" lon="5.77059667557478">
        <ele>1067.4000244140625</ele>
        <time>2014-05-18T13:11:05Z</time>
      </trkpt>
      <trkpt lat="45.31099165789783" lon="5.770529620349407">
        <ele>1068.199951171875</ele>
        <time>2014-05-18T13:11:10Z</time>
      </trkpt>
      <trkpt lat="45.31097112223506" lon="5.770514281466603">
        <ele>1068.4000244140625</ele>
        <time>2014-05-18T13:11:11Z</time>
      </trkpt>
      <trkpt lat="45.310854027047753" lon="5.770474299788475">
        <ele>1069.4000244140625</ele>
        <time>2014-05-18T13:11:16Z</time>
      </trkpt>
      <trkpt lat="45.310804406180978" lon="5.770447477698326">
        <ele>1070</ele>
        <time>2014-05-18T13:11:19Z</time>
      </trkpt>
      <trkpt lat="45.310779260471463" lon="5.770424846559763">
        <ele>1070.4000244140625</ele>
        <time>2014-05-18T13:11:21Z</time>
      </trkpt>
      <trkpt lat="45.310764340683818" lon="5.770409172400832">
        <ele>1070.5999755859375</ele>
        <time>2014-05-18T13:11:22Z</time>
      </trkpt>
      <trkpt lat="45.310716982930899" lon="5.770329125225544">
        <ele>1071.4000244140625</ele>
        <time>2014-05-18T13:11:27Z</time>
      </trkpt>
      <trkpt lat="45.310695441439748" lon="5.770289311185479">
        <ele>1071.5999755859375</ele>
        <time>2014-05-18T13:11:29Z</time>
      </trkpt>
      <trkpt lat="45.310642048716545" lon="5.770193254575133">
        <ele>1072.4000244140625</ele>
        <time>2014-05-18T13:11:34Z</time>
      </trkpt>
      <trkpt lat="45.310628470033407" lon="5.770180346444249">
        <ele>1072.800048828125</ele>
        <time>2014-05-18T13:11:35Z</time>
      </trkpt>
      <trkpt lat="45.310522606596351" lon="5.770124439150095">
        <ele>1073.800048828125</ele>
        <time>2014-05-18T13:11:41Z</time>
      </trkpt>
      <trkpt lat="45.310415653511882" lon="5.770057383924723">
        <ele>1074.800048828125</ele>
        <time>2014-05-18T13:11:47Z</time>
      </trkpt>
      <trkpt lat="45.31036133877933" lon="5.770026622340083">
        <ele>1075.4000244140625</ele>
        <time>2014-05-18T13:11:50Z</time>
      </trkpt>
      <trkpt lat="45.310297552496195" lon="5.76996099203825">
        <ele>1075.800048828125</ele>
        <time>2014-05-18T13:11:54Z</time>
      </trkpt>
      <trkpt lat="45.310252876952291" lon="5.769881196320057">
        <ele>1076.5999755859375</ele>
        <time>2014-05-18T13:11:58Z</time>
      </trkpt>
      <trkpt lat="45.310229072347283" lon="5.769845824688673">
        <ele>1077</ele>
        <time>2014-05-18T13:12:00Z</time>
      </trkpt>
      <trkpt lat="45.310174841433764" lon="5.769748175516725">
        <ele>1077.800048828125</ele>
        <time>2014-05-18T13:12:05Z</time>
      </trkpt>
      <trkpt lat="45.310160173103213" lon="5.769704170525074">
        <ele>1078</ele>
        <time>2014-05-18T13:12:07Z</time>
      </trkpt>
      <trkpt lat="45.31009454280138" lon="5.769564025104046">
        <ele>1079.199951171875</ele>
        <time>2014-05-18T13:12:14Z</time>
      </trkpt>
      <trkpt lat="45.309977950528264" lon="5.769437793642283">
        <ele>1080.199951171875</ele>
        <time>2014-05-18T13:12:21Z</time>
      </trkpt>
      <trkpt lat="45.309835877269506" lon="5.769332852214575">
        <ele>1081</ele>
        <time>2014-05-18T13:12:28Z</time>
      </trkpt>
      <trkpt lat="45.309767816215754" lon="5.769305108115077">
        <ele>1081.199951171875</ele>
        <time>2014-05-18T13:12:31Z</time>
      </trkpt>
      <trkpt lat="45.309673435986042" lon="5.769289433956146">
        <ele>1081.800048828125</ele>
        <time>2014-05-18T13:12:35Z</time>
      </trkpt>
      <trkpt lat="45.309598501771688" lon="5.769334612414241">
        <ele>1082.199951171875</ele>
        <time>2014-05-18T13:12:39Z</time>
      </trkpt>
      <trkpt lat="45.309570087119937" lon="5.769369062036276">
        <ele>1082.4000244140625</ele>
        <time>2014-05-18T13:12:41Z</time>
      </trkpt>
      <trkpt lat="45.309546366333961" lon="5.769566372036934">
        <ele>1084.199951171875</ele>
        <time>2014-05-18T13:12:55Z</time>
      </trkpt>
      <trkpt lat="45.309543516486883" lon="5.769589841365814">
        <ele>1084.4000244140625</ele>
        <time>2014-05-18T13:12:56Z</time>
      </trkpt>
      <trkpt lat="45.309545444324613" lon="5.769765023142099">
        <ele>1085.4000244140625</ele>
        <time>2014-05-18T13:13:03Z</time>
      </trkpt>
      <trkpt lat="45.309546366333961" lon="5.769795281812549">
        <ele>1085.5999755859375</ele>
        <time>2014-05-18T13:13:04Z</time>
      </trkpt>
      <trkpt lat="45.309528345242143" lon="5.769970715045929">
        <ele>1086.5999755859375</ele>
        <time>2014-05-18T13:13:09Z</time>
      </trkpt>
      <trkpt lat="45.309527507051826" lon="5.769996363669634">
        <ele>1086.800048828125</ele>
        <time>2014-05-18T13:13:10Z</time>
      </trkpt>
      <trkpt lat="45.309539409354329" lon="5.770156122744083">
        <ele>1088</ele>
        <time>2014-05-18T13:13:17Z</time>
      </trkpt>
      <trkpt lat="45.309541253373027" lon="5.770195098593831">
        <ele>1088.199951171875</ele>
        <time>2014-05-18T13:13:18Z</time>
      </trkpt>
      <trkpt lat="45.309552233666182" lon="5.770303728058934">
        <ele>1089</ele>
        <time>2014-05-18T13:13:22Z</time>
      </trkpt>
      <trkpt lat="45.309557933360338" lon="5.770378410816193">
        <ele>1089.199951171875</ele>
        <time>2014-05-18T13:13:25Z</time>
      </trkpt>
      <trkpt lat="45.309560112655163" lon="5.770404310896993">
        <ele>1089.4000244140625</ele>
        <time>2014-05-18T13:13:26Z</time>
      </trkpt>
      <trkpt lat="45.309630269184709" lon="5.770755764096975">
        <ele>1091.800048828125</ele>
        <time>2014-05-18T13:15:50Z</time>
      </trkpt>
      <trkpt lat="45.309616439044476" lon="5.770853748545051">
        <ele>1091.800048828125</ele>
        <time>2014-05-18T13:15:52Z</time>
      </trkpt>
      <trkpt lat="45.309576960280538" lon="5.771073019132018">
        <ele>1093</ele>
        <time>2014-05-18T13:15:57Z</time>
      </trkpt>
      <trkpt lat="45.309600429609418" lon="5.771173182874918">
        <ele>1093.199951171875</ele>
        <time>2014-05-18T13:16:00Z</time>
      </trkpt>
      <trkpt lat="45.309647200629115" lon="5.771184163168073">
        <ele>1093.4000244140625</ele>
        <time>2014-05-18T13:16:01Z</time>
      </trkpt>
      <trkpt lat="45.309708891436458" lon="5.771264126524329">
        <ele>1094</ele>
        <time>2014-05-18T13:16:04Z</time>
      </trkpt>
      <trkpt lat="45.309741413220763" lon="5.771367643028498">
        <ele>1094.800048828125</ele>
        <time>2014-05-18T13:16:08Z</time>
      </trkpt>
      <trkpt lat="45.30975935049355" lon="5.77142346650362">
        <ele>1095.199951171875</ele>
        <time>2014-05-18T13:16:10Z</time>
      </trkpt>
      <trkpt lat="45.30977544374764" lon="5.771481720730662">
        <ele>1095.5999755859375</ele>
        <time>2014-05-18T13:16:12Z</time>
      </trkpt>
      <trkpt lat="45.309795727953315" lon="5.771628823131323">
        <ele>1096.4000244140625</ele>
        <time>2014-05-18T13:16:17Z</time>
      </trkpt>
      <trkpt lat="45.309799835085869" lon="5.771654136478901">
        <ele>1096.5999755859375</ele>
        <time>2014-05-18T13:16:18Z</time>
      </trkpt>
      <trkpt lat="45.309803187847137" lon="5.771677354350686">
        <ele>1096.800048828125</ele>
        <time>2014-05-18T13:16:19Z</time>
      </trkpt>
      <trkpt lat="45.309804361313581" lon="5.771735608577728">
        <ele>1097.4000244140625</ele>
        <time>2014-05-18T13:16:21Z</time>
      </trkpt>
      <trkpt lat="45.309821460396051" lon="5.771834682673216">
        <ele>1097.800048828125</ele>
        <time>2014-05-18T13:16:25Z</time>
      </trkpt>
      <trkpt lat="45.309826824814081" lon="5.771858738735318">
        <ele>1097.800048828125</ele>
        <time>2014-05-18T13:16:26Z</time>
      </trkpt>
      <trkpt lat="45.309847528114915" lon="5.771966110914946">
        <ele>1098.4000244140625</ele>
        <time>2014-05-18T13:16:30Z</time>
      </trkpt>
      <trkpt lat="45.309852473437786" lon="5.771990334615111">
        <ele>1098.5999755859375</ele>
        <time>2014-05-18T13:16:31Z</time>
      </trkpt>
      <trkpt lat="45.309860436245799" lon="5.772019922733307">
        <ele>1098.5999755859375</ele>
        <time>2014-05-18T13:16:33Z</time>
      </trkpt>
      <trkpt lat="45.309397587552667" lon="5.77287127263844">
        <ele>1106.4000244140625</ele>
        <time>2014-05-18T13:17:20Z</time>
      </trkpt>
      <trkpt lat="45.30925408937037" lon="5.772999012842774">
        <ele>1107.5999755859375</ele>
        <time>2014-05-18T13:17:26Z</time>
      </trkpt>
      <trkpt lat="45.309219304472208" lon="5.773024242371321">
        <ele>1108</ele>
        <time>2014-05-18T13:17:28Z</time>
      </trkpt>
      <trkpt lat="45.309076141566038" lon="5.77310973778367">
        <ele>1108.5999755859375</ele>
        <time>2014-05-18T13:17:35Z</time>
      </trkpt>
      <trkpt lat="45.308982180431485" lon="5.773175954818726">
        <ele>1109.800048828125</ele>
        <time>2014-05-18T13:17:40Z</time>
      </trkpt>
      <trkpt lat="45.30896189622581" lon="5.773184588178992">
        <ele>1110</ele>
        <time>2014-05-18T13:17:41Z</time>
      </trkpt>
      <trkpt lat="45.308883944526315" lon="5.773213254287839">
        <ele>1111</ele>
        <time>2014-05-18T13:17:45Z</time>
      </trkpt>
      <trkpt lat="45.308799706399441" lon="5.77323529869318">
        <ele>1112.199951171875</ele>
        <time>2014-05-18T13:17:50Z</time>
      </trkpt>
      <trkpt lat="45.308736255392432" lon="5.77323823235929">
        <ele>1113.199951171875</ele>
        <time>2014-05-18T13:17:54Z</time>
      </trkpt>
      <trkpt lat="45.308716222643852" lon="5.773232448846102">
        <ele>1113.800048828125</ele>
        <time>2014-05-18T13:17:56Z</time>
      </trkpt>
      <trkpt lat="45.308695016428828" lon="5.773216355592012">
        <ele>1114</ele>
        <time>2014-05-18T13:17:58Z</time>
      </trkpt>
      <trkpt lat="45.308686885982752" lon="5.773209482431412">
        <ele>1114.4000244140625</ele>
        <time>2014-05-18T13:17:59Z</time>
      </trkpt>
      <trkpt lat="45.308633577078581" lon="5.773173104971647">
        <ele>1115.199951171875</ele>
        <time>2014-05-18T13:18:04Z</time>
      </trkpt>
      <trkpt lat="45.30862427316606" lon="5.773162040859461">
        <ele>1115.4000244140625</ele>
        <time>2014-05-18T13:18:05Z</time>
      </trkpt>
      <trkpt lat="45.308569790795445" lon="5.773110995069146">
        <ele>1116.199951171875</ele>
        <time>2014-05-18T13:18:11Z</time>
      </trkpt>
      <trkpt lat="45.308544812723994" lon="5.77309406362474">
        <ele>1116.5999755859375</ele>
        <time>2014-05-18T13:18:13Z</time>
      </trkpt>
      <trkpt lat="45.308467783033848" lon="5.773058189079166">
        <ele>1117.4000244140625</ele>
        <time>2014-05-18T13:18:18Z</time>
      </trkpt>
      <trkpt lat="45.308434087783098" lon="5.773056512698531">
        <ele>1117.5999755859375</ele>
        <time>2014-05-18T13:18:19Z</time>
      </trkpt>
      <trkpt lat="45.308363260701299" lon="5.773053495213389">
        <ele>1118.199951171875</ele>
        <time>2014-05-18T13:18:22Z</time>
      </trkpt>
      <trkpt lat="45.308328727260232" lon="5.773022565990686">
        <ele>1118.5999755859375</ele>
        <time>2014-05-18T13:18:24Z</time>
      </trkpt>
      <trkpt lat="45.308313891291618" lon="5.77300856821239">
        <ele>1118.5999755859375</ele>
        <time>2014-05-18T13:18:25Z</time>
      </trkpt>
      <trkpt lat="45.308226300403476" lon="5.772874457761645">
        <ele>1119.199951171875</ele>
        <time>2014-05-18T13:18:31Z</time>
      </trkpt>
      <trkpt lat="45.308200567960739" lon="5.772835398092866">
        <ele>1119.5999755859375</ele>
        <time>2014-05-18T13:18:33Z</time>
      </trkpt>
      <trkpt lat="45.308133093640208" lon="5.772747891023755">
        <ele>1120.4000244140625</ele>
        <time>2014-05-18T13:18:38Z</time>
      </trkpt>
      <trkpt lat="45.308091770857573" lon="5.772729450836778">
        <ele>1120.800048828125</ele>
        <time>2014-05-18T13:18:40Z</time>
      </trkpt>
      <trkpt lat="45.307978196069598" lon="5.772671615704894">
        <ele>1121.800048828125</ele>
        <time>2014-05-18T13:18:45Z</time>
      </trkpt>
      <trkpt lat="45.307956486940384" lon="5.772657617926598">
        <ele>1122.199951171875</ele>
        <time>2014-05-18T13:18:46Z</time>
      </trkpt>
      <trkpt lat="45.307869482785463" lon="5.7726039737463">
        <ele>1123</ele>
        <time>2014-05-18T13:18:50Z</time>
      </trkpt>
      <trkpt lat="45.307819610461593" lon="5.772568769752979">
        <ele>1123.5999755859375</ele>
        <time>2014-05-18T13:18:53Z</time>
      </trkpt>
      <trkpt lat="45.307763870805502" lon="5.772534823045135">
        <ele>1124</ele>
        <time>2014-05-18T13:18:56Z</time>
      </trkpt>
      <trkpt lat="45.307716680690646" lon="5.772495428100228">
        <ele>1124.800048828125</ele>
        <time>2014-05-18T13:18:59Z</time>
      </trkpt>
      <trkpt lat="45.307689188048244" lon="5.772474557161331">
        <ele>1125.199951171875</ele>
        <time>2014-05-18T13:19:01Z</time>
      </trkpt>
      <trkpt lat="45.307643422856927" lon="5.772434324026108">
        <ele>1125.800048828125</ele>
        <time>2014-05-18T13:19:04Z</time>
      </trkpt>
      <trkpt lat="45.307597490027547" lon="5.772399036213756">
        <ele>1126.4000244140625</ele>
        <time>2014-05-18T13:19:07Z</time>
      </trkpt>
      <trkpt lat="45.307560609653592" lon="5.772377494722605">
        <ele>1127</ele>
        <time>2014-05-18T13:19:09Z</time>
      </trkpt>
      <trkpt lat="45.307516604661942" lon="5.77234991826117">
        <ele>1127.4000244140625</ele>
        <time>2014-05-18T13:19:11Z</time>
      </trkpt>
      <trkpt lat="45.307372687384486" lon="5.772325778380036">
        <ele>1128.199951171875</ele>
        <time>2014-05-18T13:19:16Z</time>
      </trkpt>
      <trkpt lat="45.307350056245923" lon="5.772322174161673">
        <ele>1128.4000244140625</ele>
        <time>2014-05-18T13:19:17Z</time>
      </trkpt>
      <trkpt lat="45.307214437052608" lon="5.772310523316264">
        <ele>1129.4000244140625</ele>
        <time>2014-05-18T13:19:24Z</time>
      </trkpt>
      <trkpt lat="45.307128187268972" lon="5.772294010967016">
        <ele>1130.199951171875</ele>
        <time>2014-05-18T13:19:30Z</time>
      </trkpt>
      <trkpt lat="45.307024419307709" lon="5.772216059267521">
        <ele>1131.800048828125</ele>
        <time>2014-05-18T13:19:39Z</time>
      </trkpt>
      <trkpt lat="45.306838424876332" lon="5.772105250507593">
        <ele>1134.4000244140625</ele>
        <time>2014-05-18T13:21:55Z</time>
      </trkpt>
      <trkpt lat="45.30680070631206" lon="5.772075830027461">
        <ele>1135</ele>
        <time>2014-05-18T13:21:58Z</time>
      </trkpt>
      <trkpt lat="45.306751420721412" lon="5.77202595770359">
        <ele>1135.5999755859375</ele>
        <time>2014-05-18T13:22:02Z</time>
      </trkpt>
      <trkpt lat="45.306704733520746" lon="5.77198195271194">
        <ele>1136.199951171875</ele>
        <time>2014-05-18T13:22:05Z</time>
      </trkpt>
      <trkpt lat="45.306660057976842" lon="5.771938869729638">
        <ele>1136.800048828125</ele>
        <time>2014-05-18T13:22:08Z</time>
      </trkpt>
      <trkpt lat="45.306609263643622" lon="5.771882375702262">
        <ele>1137.5999755859375</ele>
        <time>2014-05-18T13:22:12Z</time>
      </trkpt>
      <trkpt lat="45.306574059650302" lon="5.771857481449843">
        <ele>1137.800048828125</ele>
        <time>2014-05-18T13:22:14Z</time>
      </trkpt>
      <trkpt lat="45.306488983333111" lon="5.771781038492918">
        <ele>1138.5999755859375</ele>
        <time>2014-05-18T13:22:19Z</time>
      </trkpt>
      <trkpt lat="45.306480685248971" lon="5.771763436496258">
        <ele>1139.199951171875</ele>
        <time>2014-05-18T13:22:20Z</time>
      </trkpt>
      <trkpt lat="45.306434417143464" lon="5.771651789546013">
        <ele>1140</ele>
        <time>2014-05-18T13:22:25Z</time>
      </trkpt>
      <trkpt lat="45.306390076875687" lon="5.771586243063211">
        <ele>1140.4000244140625</ele>
        <time>2014-05-18T13:22:28Z</time>
      </trkpt>
      <trkpt lat="45.306284548714757" lon="5.771506112068892">
        <ele>1141.199951171875</ele>
        <time>2014-05-18T13:22:34Z</time>
      </trkpt>
      <trkpt lat="45.306270467117429" lon="5.771493539214134">
        <ele>1141.4000244140625</ele>
        <time>2014-05-18T13:22:35Z</time>
      </trkpt>
      <trkpt lat="45.306211626157165" lon="5.771410390734673">
        <ele>1142.4000244140625</ele>
        <time>2014-05-18T13:22:40Z</time>
      </trkpt>
      <trkpt lat="45.306200562044978" lon="5.77139999717474">
        <ele>1142.5999755859375</ele>
        <time>2014-05-18T13:22:41Z</time>
      </trkpt>
      <trkpt lat="45.306071229279041" lon="5.771245351061225">
        <ele>1144</ele>
        <time>2014-05-18T13:22:49Z</time>
      </trkpt>
      <trkpt lat="45.30604968778789" lon="5.77122020535171">
        <ele>1144.199951171875</ele>
        <time>2014-05-18T13:22:50Z</time>
      </trkpt>
      <trkpt lat="45.306023703888059" lon="5.771137056872249">
        <ele>1144.800048828125</ele>
        <time>2014-05-18T13:22:54Z</time>
      </trkpt>
      <trkpt lat="45.306006353348494" lon="5.771095398813486">
        <ele>1144.800048828125</ele>
        <time>2014-05-18T13:22:56Z</time>
      </trkpt>
      <trkpt lat="45.305984225124121" lon="5.770970256999135">
        <ele>1145.800048828125</ele>
        <time>2014-05-18T13:23:01Z</time>
      </trkpt>
      <trkpt lat="45.305978190153837" lon="5.770944776013494">
        <ele>1146.199951171875</ele>
        <time>2014-05-18T13:23:02Z</time>
      </trkpt>
      <trkpt lat="45.305961845442653" lon="5.770857436582446">
        <ele>1146.800048828125</ele>
        <time>2014-05-18T13:23:06Z</time>
      </trkpt>
      <trkpt lat="45.305950278416276" lon="5.770806642249227">
        <ele>1147.4000244140625</ele>
        <time>2014-05-18T13:23:08Z</time>
      </trkpt>
      <trkpt lat="45.305932257324457" lon="5.770729947835207">
        <ele>1148</ele>
        <time>2014-05-18T13:23:11Z</time>
      </trkpt>
      <trkpt lat="45.305908871814609" lon="5.770648308098316">
        <ele>1148.199951171875</ele>
        <time>2014-05-18T13:23:14Z</time>
      </trkpt>
      <trkpt lat="45.305882385000587" lon="5.770534314215183">
        <ele>1149</ele>
        <time>2014-05-18T13:23:19Z</time>
      </trkpt>
      <trkpt lat="45.305872997269034" lon="5.770476395264268">
        <ele>1149.4000244140625</ele>
        <time>2014-05-18T13:23:22Z</time>
      </trkpt>
      <trkpt lat="45.305863190442324" lon="5.770400203764439">
        <ele>1150</ele>
        <time>2014-05-18T13:23:25Z</time>
      </trkpt>
      <trkpt lat="45.305850449949503" lon="5.770288556814194">
        <ele>1151</ele>
        <time>2014-05-18T13:23:30Z</time>
      </trkpt>
      <trkpt lat="45.305847600102425" lon="5.770245222374797">
        <ele>1151.199951171875</ele>
        <time>2014-05-18T13:23:32Z</time>
      </trkpt>
      <trkpt lat="45.305810300633311" lon="5.770136844366789">
        <ele>1152</ele>
        <time>2014-05-18T13:23:36Z</time>
      </trkpt>
      <trkpt lat="45.305798901244998" lon="5.770089067518711">
        <ele>1152.4000244140625</ele>
        <time>2014-05-18T13:23:38Z</time>
      </trkpt>
      <trkpt lat="45.305752297863364" lon="5.769956801086664">
        <ele>1153.199951171875</ele>
        <time>2014-05-18T13:23:44Z</time>
      </trkpt>
      <trkpt lat="45.305729750543833" lon="5.769889242947102">
        <ele>1153.4000244140625</ele>
        <time>2014-05-18T13:23:47Z</time>
      </trkpt>
      <trkpt lat="45.305682057514787" lon="5.769812883809209">
        <ele>1154</ele>
        <time>2014-05-18T13:23:51Z</time>
      </trkpt>
      <trkpt lat="45.305652972310781" lon="5.769771561026573">
        <ele>1154.4000244140625</ele>
        <time>2014-05-18T13:23:53Z</time>
      </trkpt>
      <trkpt lat="45.30561089515686" lon="5.769721018150449">
        <ele>1155.199951171875</ele>
        <time>2014-05-18T13:23:56Z</time>
      </trkpt>
      <trkpt lat="45.305601758882403" lon="5.769698973745108">
        <ele>1155.5999755859375</ele>
        <time>2014-05-18T13:23:57Z</time>
      </trkpt>
      <trkpt lat="45.305552640929818" lon="5.769592272117734">
        <ele>1156.4000244140625</ele>
        <time>2014-05-18T13:24:02Z</time>
      </trkpt>
      <trkpt lat="45.305540906265378" lon="5.769576178863645">
        <ele>1156.5999755859375</ele>
        <time>2014-05-18T13:24:03Z</time>
      </trkpt>
      <trkpt lat="45.30544032342732" lon="5.769448773935437">
        <ele>1157.4000244140625</ele>
        <time>2014-05-18T13:24:09Z</time>
      </trkpt>
      <trkpt lat="45.305424313992262" lon="5.769405607134104">
        <ele>1157.5999755859375</ele>
        <time>2014-05-18T13:24:11Z</time>
      </trkpt>
      <trkpt lat="45.305382069200277" lon="5.769345005974174">
        <ele>1158.199951171875</ele>
        <time>2014-05-18T13:24:15Z</time>
      </trkpt>
      <trkpt lat="45.305354744195938" lon="5.769292786717415">
        <ele>1158.800048828125</ele>
        <time>2014-05-18T13:24:18Z</time>
      </trkpt>
      <trkpt lat="45.305305793881416" lon="5.769177116453648">
        <ele>1159.800048828125</ele>
        <time>2014-05-18T13:24:23Z</time>
      </trkpt>
      <trkpt lat="45.305297747254372" lon="5.769152641296387">
        <ele>1159.800048828125</ele>
        <time>2014-05-18T13:24:24Z</time>
      </trkpt>
      <trkpt lat="45.305252987891436" lon="5.768982656300068">
        <ele>1160.800048828125</ele>
        <time>2014-05-18T13:24:30Z</time>
      </trkpt>
      <trkpt lat="45.305191883817315" lon="5.768849635496736">
        <ele>1162</ele>
        <time>2014-05-18T13:24:36Z</time>
      </trkpt>
      <trkpt lat="45.305181071162224" lon="5.768822142854333">
        <ele>1162</ele>
        <time>2014-05-18T13:24:37Z</time>
      </trkpt>
      <trkpt lat="45.305113429203629" lon="5.768689038231969">
        <ele>1163</ele>
        <time>2014-05-18T13:24:43Z</time>
      </trkpt>
      <trkpt lat="45.305102448910475" lon="5.768662132322788">
        <ele>1163.199951171875</ele>
        <time>2014-05-18T13:24:44Z</time>
      </trkpt>
      <trkpt lat="45.305062718689442" lon="5.768574206158519">
        <ele>1164</ele>
        <time>2014-05-18T13:24:48Z</time>
      </trkpt>
      <trkpt lat="45.305023239925504" lon="5.768529949709773">
        <ele>1164.199951171875</ele>
        <time>2014-05-18T13:24:51Z</time>
      </trkpt>
      <trkpt lat="45.304974038153887" lon="5.768457781523466">
        <ele>1165</ele>
        <time>2014-05-18T13:24:56Z</time>
      </trkpt>
      <trkpt lat="45.304961297661066" lon="5.76843942515552">
        <ele>1165.199951171875</ele>
        <time>2014-05-18T13:24:57Z</time>
      </trkpt>
      <trkpt lat="45.304886782541871" lon="5.768347727134824">
        <ele>1166</ele>
        <time>2014-05-18T13:25:03Z</time>
      </trkpt>
      <trkpt lat="45.304875550791621" lon="5.768343787640333">
        <ele>1166.199951171875</ele>
        <time>2014-05-18T13:25:04Z</time>
      </trkpt>
      <trkpt lat="45.304769603535533" lon="5.768300788477063">
        <ele>1167.199951171875</ele>
        <time>2014-05-18T13:25:09Z</time>
      </trkpt>
      <trkpt lat="45.30471570789814" lon="5.768271535634995">
        <ele>1167.5999755859375</ele>
        <time>2014-05-18T13:25:12Z</time>
      </trkpt>
      <trkpt lat="45.304635157808661" lon="5.768210683017969">
        <ele>1168.199951171875</ele>
        <time>2014-05-18T13:25:16Z</time>
      </trkpt>
      <trkpt lat="45.304604396224022" lon="5.768166929483414">
        <ele>1168.5999755859375</ele>
        <time>2014-05-18T13:25:19Z</time>
      </trkpt>
      <trkpt lat="45.304549746215343" lon="5.768125439062715">
        <ele>1169.199951171875</ele>
        <time>2014-05-18T13:25:22Z</time>
      </trkpt>
      <trkpt lat="45.304455785080791" lon="5.768070872873068">
        <ele>1169.800048828125</ele>
        <time>2014-05-18T13:25:27Z</time>
      </trkpt>
      <trkpt lat="45.304425191134214" lon="5.768037345260382">
        <ele>1170.4000244140625</ele>
        <time>2014-05-18T13:25:29Z</time>
      </trkpt>
      <trkpt lat="45.304379928857088" lon="5.767991915345192">
        <ele>1170.5999755859375</ele>
        <time>2014-05-18T13:25:32Z</time>
      </trkpt>
      <trkpt lat="45.304215140640736" lon="5.767977414652705">
        <ele>1170.800048828125</ele>
        <time>2014-05-18T13:25:36Z</time>
      </trkpt>
      <trkpt lat="45.304078683257103" lon="5.767972217872739">
        <ele>1171.199951171875</ele>
        <time>2014-05-18T13:25:41Z</time>
      </trkpt>
      <trkpt lat="45.303991679102182" lon="5.767977414652705">
        <ele>1171.4000244140625</ele>
        <time>2014-05-18T13:25:44Z</time>
      </trkpt>
      <trkpt lat="45.303908111527562" lon="5.767975067719817">
        <ele>1171.800048828125</ele>
        <time>2014-05-18T13:25:47Z</time>
      </trkpt>
      <trkpt lat="45.303882798179984" lon="5.767966266721487">
        <ele>1171.800048828125</ele>
        <time>2014-05-18T13:25:48Z</time>
      </trkpt>
      <trkpt lat="45.303791351616383" lon="5.767976744100452">
        <ele>1172.4000244140625</ele>
        <time>2014-05-18T13:25:51Z</time>
      </trkpt>
      <trkpt lat="45.303759416565299" lon="5.767979342490435">
        <ele>1172.4000244140625</ele>
        <time>2014-05-18T13:25:52Z</time>
      </trkpt>
      <trkpt lat="45.303637376055121" lon="5.768003398552537">
        <ele>1172.800048828125</ele>
        <time>2014-05-18T13:25:56Z</time>
      </trkpt>
      <trkpt lat="45.303381979465485" lon="5.768084116280079">
        <ele>1172.4000244140625</ele>
        <time>2014-05-18T13:26:05Z</time>
      </trkpt>
      <trkpt lat="45.303196990862489" lon="5.768124768510461">
        <ele>1173.4000244140625</ele>
        <time>2014-05-18T13:26:11Z</time>
      </trkpt>
      <trkpt lat="45.303071849048138" lon="5.768154608085752">
        <ele>1173.5999755859375</ele>
        <time>2014-05-18T13:26:15Z</time>
      </trkpt>
      <trkpt lat="45.302853249013424" lon="5.768203474581242">
        <ele>1174.4000244140625</ele>
        <time>2014-05-18T13:26:22Z</time>
      </trkpt>
      <trkpt lat="45.302825504913926" lon="5.768209677189589">
        <ele>1174.4000244140625</ele>
        <time>2014-05-18T13:26:23Z</time>
      </trkpt>
      <trkpt lat="45.302690053358674" lon="5.768246809020639">
        <ele>1175.4000244140625</ele>
        <time>2014-05-18T13:26:28Z</time>
      </trkpt>
      <trkpt lat="45.30266297981143" lon="5.768265500664711">
        <ele>1175.5999755859375</ele>
        <time>2014-05-18T13:26:29Z</time>
      </trkpt>
      <trkpt lat="45.302544962614775" lon="5.768379746004939">
        <ele>1175.800048828125</ele>
        <time>2014-05-18T13:26:34Z</time>
      </trkpt>
      <trkpt lat="45.302460640668869" lon="5.768532380461693">
        <ele>1176.800048828125</ele>
        <time>2014-05-18T13:26:39Z</time>
      </trkpt>
      <trkpt lat="45.302451923489571" lon="5.768565069884062">
        <ele>1176.800048828125</ele>
        <time>2014-05-18T13:26:40Z</time>
      </trkpt>
      <trkpt lat="45.302435243502259" lon="5.7686304487288">
        <ele>1177.4000244140625</ele>
        <time>2014-05-18T13:26:44Z</time>
      </trkpt>
      <trkpt lat="45.302383862435818" lon="5.768705885857344">
        <ele>1178.4000244140625</ele>
        <time>2014-05-18T13:26:49Z</time>
      </trkpt>
      <trkpt lat="45.302357375621796" lon="5.768755674362183">
        <ele>1178.5999755859375</ele>
        <time>2014-05-18T13:26:51Z</time>
      </trkpt>
      <trkpt lat="45.302295098081231" lon="5.768895652145147">
        <ele>1179.4000244140625</ele>
        <time>2014-05-18T13:26:56Z</time>
      </trkpt>
      <trkpt lat="45.302266264334321" lon="5.768944518640637">
        <ele>1179.5999755859375</ele>
        <time>2014-05-18T13:26:58Z</time>
      </trkpt>
      <trkpt lat="45.302225528284907" lon="5.769050130620599">
        <ele>1180.199951171875</ele>
        <time>2014-05-18T13:27:01Z</time>
      </trkpt>
      <trkpt lat="45.302210273221135" lon="5.76907854527235">
        <ele>1180.4000244140625</ele>
        <time>2014-05-18T13:27:02Z</time>
      </trkpt>
      <trkpt lat="45.3021240234375" lon="5.769303683191538">
        <ele>1181.800048828125</ele>
        <time>2014-05-18T13:27:09Z</time>
      </trkpt>
      <trkpt lat="45.30207859352231" lon="5.769415413960815">
        <ele>1182.4000244140625</ele>
        <time>2014-05-18T13:27:13Z</time>
      </trkpt>
      <trkpt lat="45.302074570208788" lon="5.769444666802883">
        <ele>1182.5999755859375</ele>
        <time>2014-05-18T13:27:14Z</time>
      </trkpt>
      <trkpt lat="45.3020687866956" lon="5.769483810290694">
        <ele>1182.800048828125</ele>
        <time>2014-05-18T13:27:15Z</time>
      </trkpt>
      <trkpt lat="45.302047999575734" lon="5.769546842202544">
        <ele>1183.199951171875</ele>
        <time>2014-05-18T13:27:17Z</time>
      </trkpt>
      <trkpt lat="45.302021596580744" lon="5.769607862457633">
        <ele>1183.5999755859375</ele>
        <time>2014-05-18T13:27:19Z</time>
      </trkpt>
      <trkpt lat="45.30202142894268" lon="5.769673492759466">
        <ele>1183.800048828125</ele>
        <time>2014-05-18T13:27:21Z</time>
      </trkpt>
      <trkpt lat="45.302019920200109" lon="5.76972889713943">
        <ele>1184</ele>
        <time>2014-05-18T13:27:23Z</time>
      </trkpt>
      <trkpt lat="45.302026122808456" lon="5.769762760028243">
        <ele>1184.199951171875</ele>
        <time>2014-05-18T13:27:24Z</time>
      </trkpt>
      <trkpt lat="45.302032493054867" lon="5.769922770559788">
        <ele>1185</ele>
        <time>2014-05-18T13:27:29Z</time>
      </trkpt>
      <trkpt lat="45.302037689834833" lon="5.76994875445962">
        <ele>1185.199951171875</ele>
        <time>2014-05-18T13:27:30Z</time>
      </trkpt>
      <trkpt lat="45.302088735625148" lon="5.770079763606191">
        <ele>1186.199951171875</ele>
        <time>2014-05-18T13:27:35Z</time>
      </trkpt>
      <trkpt lat="45.302097452804446" lon="5.770134832710028">
        <ele>1186.4000244140625</ele>
        <time>2014-05-18T13:27:37Z</time>
      </trkpt>
      <trkpt lat="45.302147241309285" lon="5.770315965637565">
        <ele>1187.4000244140625</ele>
        <time>2014-05-18T13:27:44Z</time>
      </trkpt>
      <trkpt lat="45.302157634869218" lon="5.770336082205176">
        <ele>1187.5999755859375</ele>
        <time>2014-05-18T13:27:45Z</time>
      </trkpt>
      <trkpt lat="45.302181774750352" lon="5.770469857379794">
        <ele>1188.199951171875</ele>
        <time>2014-05-18T13:27:51Z</time>
      </trkpt>
      <trkpt lat="45.302182277664542" lon="5.770489554852247">
        <ele>1188.4000244140625</ele>
        <time>2014-05-18T13:27:52Z</time>
      </trkpt>
      <trkpt lat="45.301925372332335" lon="5.770933460444212">
        <ele>1193</ele>
        <time>2014-05-18T13:28:17Z</time>
      </trkpt>
      <trkpt lat="45.301888743415475" lon="5.770936058834195">
        <ele>1193.5999755859375</ele>
        <time>2014-05-18T13:28:19Z</time>
      </trkpt>
      <trkpt lat="45.301853287965059" lon="5.770941590890288">
        <ele>1194.199951171875</ele>
        <time>2014-05-18T13:28:21Z</time>
      </trkpt>
      <trkpt lat="45.301752537488937" lon="5.770918037742376">
        <ele>1195.800048828125</ele>
        <time>2014-05-18T13:28:28Z</time>
      </trkpt>
      <trkpt lat="45.301742227748036" lon="5.770910326391459">
        <ele>1196</ele>
        <time>2014-05-18T13:28:29Z</time>
      </trkpt>
      <trkpt lat="45.301674166694283" lon="5.770899765193462">
        <ele>1196.800048828125</ele>
        <time>2014-05-18T13:28:33Z</time>
      </trkpt>
      <trkpt lat="45.301638375967741" lon="5.770887276157737">
        <ele>1197.199951171875</ele>
        <time>2014-05-18T13:28:35Z</time>
      </trkpt>
      <trkpt lat="45.300825834274292" lon="5.770430462434888">
        <ele>1205.800048828125</ele>
        <time>2014-05-18T13:30:38Z</time>
      </trkpt>
      <trkpt lat="45.30078761279583" lon="5.770401125773788">
        <ele>1206</ele>
        <time>2014-05-18T13:30:40Z</time>
      </trkpt>
      <trkpt lat="45.300713516771793" lon="5.770368101075292">
        <ele>1206.800048828125</ele>
        <time>2014-05-18T13:30:44Z</time>
      </trkpt>
      <trkpt lat="45.300697255879641" lon="5.770358797162771">
        <ele>1207</ele>
        <time>2014-05-18T13:30:45Z</time>
      </trkpt>
      <trkpt lat="45.300617460161448" lon="5.770335914567113">
        <ele>1207.800048828125</ele>
        <time>2014-05-18T13:30:50Z</time>
      </trkpt>
      <trkpt lat="45.300581585615873" lon="5.770336417481303">
        <ele>1208.199951171875</ele>
        <time>2014-05-18T13:30:52Z</time>
      </trkpt>
      <trkpt lat="45.300528779625893" lon="5.770320408046246">
        <ele>1208.800048828125</ele>
        <time>2014-05-18T13:30:56Z</time>
      </trkpt>
      <trkpt lat="45.300502628087997" lon="5.77031328342855">
        <ele>1209.199951171875</ele>
        <time>2014-05-18T13:30:58Z</time>
      </trkpt>
      <trkpt lat="45.300425598397851" lon="5.770302889868617">
        <ele>1210</ele>
        <time>2014-05-18T13:31:03Z</time>
      </trkpt>
      <trkpt lat="45.300371702760458" lon="5.770286712795496">
        <ele>1210.4000244140625</ele>
        <time>2014-05-18T13:31:06Z</time>
      </trkpt>
      <trkpt lat="45.300293583422899" lon="5.770273804664612">
        <ele>1211.199951171875</ele>
        <time>2014-05-18T13:31:10Z</time>
      </trkpt>
      <trkpt lat="45.300273885950446" lon="5.770278917625547">
        <ele>1211.4000244140625</ele>
        <time>2014-05-18T13:31:11Z</time>
      </trkpt>
      <trkpt lat="45.300251673907042" lon="5.770281096920371">
        <ele>1211.5999755859375</ele>
        <time>2014-05-18T13:31:12Z</time>
      </trkpt>
      <trkpt lat="45.300189731642604" lon="5.770320324227214">
        <ele>1212.199951171875</ele>
        <time>2014-05-18T13:31:15Z</time>
      </trkpt>
      <trkpt lat="45.300142457708716" lon="5.770322922617197">
        <ele>1212.800048828125</ele>
        <time>2014-05-18T13:31:18Z</time>
      </trkpt>
      <trkpt lat="45.300124017521739" lon="5.770308254286647">
        <ele>1213.199951171875</ele>
        <time>2014-05-18T13:31:20Z</time>
      </trkpt>
      <trkpt lat="45.300075318664312" lon="5.770240277051926">
        <ele>1214</ele>
        <time>2014-05-18T13:31:25Z</time>
      </trkpt>
      <trkpt lat="45.300040952861309" lon="5.770211694762111">
        <ele>1214.4000244140625</ele>
        <time>2014-05-18T13:31:28Z</time>
      </trkpt>
      <trkpt lat="45.29996476136148" lon="5.770163666456938">
        <ele>1215</ele>
        <time>2014-05-18T13:31:32Z</time>
      </trkpt>
      <trkpt lat="45.299934837967157" lon="5.770137263461947">
        <ele>1215.5999755859375</ele>
        <time>2014-05-18T13:31:34Z</time>
      </trkpt>
      <trkpt lat="45.299889156594872" lon="5.770116979256272">
        <ele>1216</ele>
        <time>2014-05-18T13:31:36Z</time>
      </trkpt>
      <trkpt lat="45.299840122461319" lon="5.770098706707358">
        <ele>1216.4000244140625</ele>
        <time>2014-05-18T13:31:38Z</time>
      </trkpt>
      <trkpt lat="45.299803325906396" lon="5.770083451643586">
        <ele>1216.800048828125</ele>
        <time>2014-05-18T13:31:40Z</time>
      </trkpt>
      <trkpt lat="45.299705676734447" lon="5.770018994808197">
        <ele>1217.5999755859375</ele>
        <time>2014-05-18T13:31:44Z</time>
      </trkpt>
      <trkpt lat="45.299694444984198" lon="5.770005332306027">
        <ele>1218</ele>
        <time>2014-05-18T13:31:45Z</time>
      </trkpt>
      <trkpt lat="45.299634346738458" lon="5.769955795258284">
        <ele>1218.199951171875</ele>
        <time>2014-05-18T13:31:49Z</time>
      </trkpt>
      <trkpt lat="45.29961246997118" lon="5.769953699782491">
        <ele>1218</ele>
        <time>2014-05-18T13:31:50Z</time>
      </trkpt>
      <trkpt lat="45.299530075863004" lon="5.769919333979487">
        <ele>1219.4000244140625</ele>
        <time>2014-05-18T13:31:53Z</time>
      </trkpt>
      <trkpt lat="45.299431420862675" lon="5.769893601536751">
        <ele>1220</ele>
        <time>2014-05-18T13:31:57Z</time>
      </trkpt>
      <trkpt lat="45.299395965412259" lon="5.769884800538421">
        <ele>1220.4000244140625</ele>
        <time>2014-05-18T13:31:59Z</time>
      </trkpt>
      <trkpt lat="45.299257664009929" lon="5.769825791940093">
        <ele>1221.5999755859375</ele>
        <time>2014-05-18T13:32:05Z</time>
      </trkpt>
      <trkpt lat="45.2992332726717" lon="5.769817410036922">
        <ele>1221.5999755859375</ele>
        <time>2014-05-18T13:32:06Z</time>
      </trkpt>
      <trkpt lat="45.29919371008873" lon="5.769801065325737">
        <ele>1222</ele>
        <time>2014-05-18T13:32:08Z</time>
      </trkpt>
      <trkpt lat="45.299141323193908" lon="5.769784217700362">
        <ele>1222.5999755859375</ele>
        <time>2014-05-18T13:32:11Z</time>
      </trkpt>
      <trkpt lat="45.299082985147834" lon="5.769757060334086">
        <ele>1223</ele>
        <time>2014-05-18T13:32:14Z</time>
      </trkpt>
      <trkpt lat="45.29903001151979" lon="5.769758569076657">
        <ele>1223.4000244140625</ele>
        <time>2014-05-18T13:32:17Z</time>
      </trkpt>
      <trkpt lat="45.299014421179891" lon="5.769750019535422">
        <ele>1223.5999755859375</ele>
        <time>2014-05-18T13:32:18Z</time>
      </trkpt>
      <trkpt lat="45.298976954072714" lon="5.769732249900699">
        <ele>1224.199951171875</ele>
        <time>2014-05-18T13:32:20Z</time>
      </trkpt>
      <trkpt lat="45.298941163346171" lon="5.769729064777494">
        <ele>1224.4000244140625</ele>
        <time>2014-05-18T13:32:22Z</time>
      </trkpt>
      <trkpt lat="45.298884669318795" lon="5.769731076434255">
        <ele>1224.800048828125</ele>
        <time>2014-05-18T13:32:25Z</time>
      </trkpt>
      <trkpt lat="45.298808058723807" lon="5.769731998443604">
        <ele>1225.4000244140625</ele>
        <time>2014-05-18T13:32:29Z</time>
      </trkpt>
      <trkpt lat="45.298738488927484" lon="5.7697459962219">
        <ele>1225.800048828125</ele>
        <time>2014-05-18T13:32:33Z</time>
      </trkpt>
      <trkpt lat="45.29867185279727" lon="5.769763514399529">
        <ele>1226.5999755859375</ele>
        <time>2014-05-18T13:32:37Z</time>
      </trkpt>
      <trkpt lat="45.29863715171814" lon="5.769764352589846">
        <ele>1227</ele>
        <time>2014-05-18T13:32:39Z</time>
      </trkpt>
      <trkpt lat="45.298540340736508" lon="5.769775081425905">
        <ele>1227.199951171875</ele>
        <time>2014-05-18T13:32:44Z</time>
      </trkpt>
      <trkpt lat="45.298451073467731" lon="5.769782960414887">
        <ele>1228</ele>
        <time>2014-05-18T13:32:48Z</time>
      </trkpt>
      <trkpt lat="45.298359459266067" lon="5.769779859110713">
        <ele>1228.800048828125</ele>
        <time>2014-05-18T13:32:53Z</time>
      </trkpt>
      <trkpt lat="45.298343449831009" lon="5.769785810261965">
        <ele>1229</ele>
        <time>2014-05-18T13:32:54Z</time>
      </trkpt>
      <trkpt lat="45.298221074044704" lon="5.769785977900028">
        <ele>1230.199951171875</ele>
        <time>2014-05-18T13:33:01Z</time>
      </trkpt>
      <trkpt lat="45.298133986070752" lon="5.769790168851614">
        <ele>1231.199951171875</ele>
        <time>2014-05-18T13:33:06Z</time>
      </trkpt>
      <trkpt lat="45.298046646639705" lon="5.769784972071648">
        <ele>1232.4000244140625</ele>
        <time>2014-05-18T13:33:11Z</time>
      </trkpt>
      <trkpt lat="45.297998283058405" lon="5.769773321226239">
        <ele>1233</ele>
        <time>2014-05-18T13:33:14Z</time>
      </trkpt>
      <trkpt lat="45.297924187034369" lon="5.769775919616222">
        <ele>1233.4000244140625</ele>
        <time>2014-05-18T13:33:18Z</time>
      </trkpt>
      <trkpt lat="45.297840116545558" lon="5.769771728664637">
        <ele>1234.199951171875</ele>
        <time>2014-05-18T13:33:23Z</time>
      </trkpt>
      <trkpt lat="45.297792172059417" lon="5.769764855504036">
        <ele>1234.5999755859375</ele>
        <time>2014-05-18T13:33:26Z</time>
      </trkpt>
      <trkpt lat="45.297722015529871" lon="5.76976946555078">
        <ele>1235.199951171875</ele>
        <time>2014-05-18T13:33:30Z</time>
      </trkpt>
      <trkpt lat="45.297661749646068" lon="5.769763765856624">
        <ele>1235.800048828125</ele>
        <time>2014-05-18T13:33:34Z</time>
      </trkpt>
      <trkpt lat="45.297588910907507" lon="5.769765693694353">
        <ele>1236.199951171875</ele>
        <time>2014-05-18T13:33:38Z</time>
      </trkpt>
      <trkpt lat="45.29749377630651" lon="5.769736608490348">
        <ele>1237</ele>
        <time>2014-05-18T13:33:44Z</time>
      </trkpt>
      <trkpt lat="45.297478437423706" lon="5.769722694531083">
        <ele>1237.199951171875</ele>
        <time>2014-05-18T13:33:45Z</time>
      </trkpt>
      <trkpt lat="45.297462930902839" lon="5.769719677045941">
        <ele>1237.199951171875</ele>
        <time>2014-05-18T13:33:46Z</time>
      </trkpt>
      <trkpt lat="45.297366958111525" lon="5.76970349997282">
        <ele>1238</ele>
        <time>2014-05-18T13:33:52Z</time>
      </trkpt>
      <trkpt lat="45.297340219840407" lon="5.769691681489348">
        <ele>1238.4000244140625</ele>
        <time>2014-05-18T13:33:54Z</time>
      </trkpt>
      <trkpt lat="45.297306943684816" lon="5.769670139998198">
        <ele>1238.800048828125</ele>
        <time>2014-05-18T13:33:56Z</time>
      </trkpt>
      <trkpt lat="45.297279115766287" lon="5.769660584628582">
        <ele>1239.199951171875</ele>
        <time>2014-05-18T13:33:58Z</time>
      </trkpt>
      <trkpt lat="45.297267884016037" lon="5.769651615992189">
        <ele>1239.4000244140625</ele>
        <time>2014-05-18T13:33:59Z</time>
      </trkpt>
      <trkpt lat="45.297147100791335" lon="5.769641641527414">
        <ele>1241</ele>
        <time>2014-05-18T13:34:10Z</time>
      </trkpt>
      <trkpt lat="45.297125307843089" lon="5.769629739224911">
        <ele>1241.4000244140625</ele>
        <time>2014-05-18T13:34:12Z</time>
      </trkpt>
      <trkpt lat="45.297095132991672" lon="5.769615154713392">
        <ele>1241.800048828125</ele>
        <time>2014-05-18T13:34:14Z</time>
      </trkpt>
      <trkpt lat="45.297051882371306" lon="5.769604425877333">
        <ele>1241.800048828125</ele>
        <time>2014-05-18T13:34:16Z</time>
      </trkpt>
      <trkpt lat="45.297039225697517" lon="5.769604677334428">
        <ele>1242</ele>
        <time>2014-05-18T13:34:17Z</time>
      </trkpt>
      <trkpt lat="45.296980384737253" lon="5.769580956548452">
        <ele>1242.199951171875</ele>
        <time>2014-05-18T13:34:20Z</time>
      </trkpt>
      <trkpt lat="45.296930512413383" lon="5.769540723413229">
        <ele>1242.5999755859375</ele>
        <time>2014-05-18T13:34:23Z</time>
      </trkpt>
      <trkpt lat="45.296908970922232" lon="5.769524211063981">
        <ele>1242.800048828125</ele>
        <time>2014-05-18T13:34:24Z</time>
      </trkpt>
      <trkpt lat="45.296867564320564" lon="5.769503843039274">
        <ele>1243.199951171875</ele>
        <time>2014-05-18T13:34:26Z</time>
      </trkpt>
      <trkpt lat="45.296798078343272" lon="5.769471153616905">
        <ele>1243.4000244140625</ele>
        <time>2014-05-18T13:34:29Z</time>
      </trkpt>
      <trkpt lat="45.296646617352962" lon="5.769431255757809">
        <ele>1244.4000244140625</ele>
        <time>2014-05-18T13:34:35Z</time>
      </trkpt>
      <trkpt lat="45.296577466651797" lon="5.769357662647963">
        <ele>1244.5999755859375</ele>
        <time>2014-05-18T13:34:39Z</time>
      </trkpt>
      <trkpt lat="45.29652826488018" lon="5.769272753968835">
        <ele>1245.4000244140625</ele>
        <time>2014-05-18T13:34:44Z</time>
      </trkpt>
      <trkpt lat="45.296514686197042" lon="5.769260516390204">
        <ele>1245.4000244140625</ele>
        <time>2014-05-18T13:34:45Z</time>
      </trkpt>
      <trkpt lat="45.296504544094205" lon="5.769246434792876">
        <ele>1245.5999755859375</ele>
        <time>2014-05-18T13:34:46Z</time>
      </trkpt>
      <trkpt lat="45.296398932114244" lon="5.769120203331113">
        <ele>1246.199951171875</ele>
        <time>2014-05-18T13:34:52Z</time>
      </trkpt>
      <trkpt lat="45.296360040083528" lon="5.769049627706409">
        <ele>1246.5999755859375</ele>
        <time>2014-05-18T13:34:55Z</time>
      </trkpt>
      <trkpt lat="45.296290135011077" lon="5.76890554279089">
        <ele>1247.5999755859375</ele>
        <time>2014-05-18T13:35:00Z</time>
      </trkpt>
      <trkpt lat="45.296158287674189" lon="5.768729271367192">
        <ele>1248.199951171875</ele>
        <time>2014-05-18T13:35:08Z</time>
      </trkpt>
      <trkpt lat="45.296127526089549" lon="5.768685434013605">
        <ele>1248.5999755859375</ele>
        <time>2014-05-18T13:35:10Z</time>
      </trkpt>
      <trkpt lat="45.296079749241471" lon="5.768630364909768">
        <ele>1248.4000244140625</ele>
        <time>2014-05-18T13:35:13Z</time>
      </trkpt>
      <trkpt lat="45.295943124219775" lon="5.768493907526135">
        <ele>1249.4000244140625</ele>
        <time>2014-05-18T13:35:19Z</time>
      </trkpt>
      <trkpt lat="45.295866094529629" lon="5.768459625542164">
        <ele>1249.5999755859375</ele>
        <time>2014-05-18T13:35:21Z</time>
      </trkpt>
      <trkpt lat="45.295716393738985" lon="5.768353929743171">
        <ele>1250.4000244140625</ele>
        <time>2014-05-18T13:35:26Z</time>
      </trkpt>
      <trkpt lat="45.295658810064197" lon="5.768323335796595">
        <ele>1250.5999755859375</ele>
        <time>2014-05-18T13:35:28Z</time>
      </trkpt>
      <trkpt lat="45.295520508661866" lon="5.768249910324812">
        <ele>1251.4000244140625</ele>
        <time>2014-05-18T13:35:33Z</time>
      </trkpt>
      <trkpt lat="45.295496033504605" lon="5.76824001967907">
        <ele>1252</ele>
        <time>2014-05-18T13:35:34Z</time>
      </trkpt>
      <trkpt lat="45.295351194217801" lon="5.768196266144514">
        <ele>1253</ele>
        <time>2014-05-18T13:35:40Z</time>
      </trkpt>
      <trkpt lat="45.295199984684587" lon="5.768104232847691">
        <ele>1253.5999755859375</ele>
        <time>2014-05-18T13:35:46Z</time>
      </trkpt>
      <trkpt lat="45.29514835216105" lon="5.768110854551196">
        <ele>1253.800048828125</ele>
        <time>2014-05-18T13:35:48Z</time>
      </trkpt>
      <trkpt lat="45.29512538574636" lon="5.768120912835002">
        <ele>1254.199951171875</ele>
        <time>2014-05-18T13:35:49Z</time>
      </trkpt>
      <trkpt lat="45.295098060742021" lon="5.768124265596271">
        <ele>1254.4000244140625</ele>
        <time>2014-05-18T13:35:50Z</time>
      </trkpt>
      <trkpt lat="45.294996723532677" lon="5.768085708841682">
        <ele>1255</ele>
        <time>2014-05-18T13:35:54Z</time>
      </trkpt>
      <trkpt lat="45.294970320537686" lon="5.768096186220646">
        <ele>1255.199951171875</ele>
        <time>2014-05-18T13:35:55Z</time>
      </trkpt>
      <trkpt lat="45.294845094904304" lon="5.768161816522479">
        <ele>1256.199951171875</ele>
        <time>2014-05-18T13:36:00Z</time>
      </trkpt>
      <trkpt lat="45.294789606705308" lon="5.768174305558205">
        <ele>1256.4000244140625</ele>
        <time>2014-05-18T13:36:02Z</time>
      </trkpt>
      <trkpt lat="45.294616436585784" lon="5.768185704946518">
        <ele>1257.4000244140625</ele>
        <time>2014-05-18T13:36:09Z</time>
      </trkpt>
      <trkpt lat="45.294488361105323" lon="5.768098616972566">
        <ele>1258.199951171875</ele>
        <time>2014-05-18T13:36:16Z</time>
      </trkpt>
      <trkpt lat="45.294479727745056" lon="5.76808906160295">
        <ele>1258.4000244140625</ele>
        <time>2014-05-18T13:36:17Z</time>
      </trkpt>
      <trkpt lat="45.294462880119681" lon="5.768081853166223">
        <ele>1258.5999755859375</ele>
        <time>2014-05-18T13:36:18Z</time>
      </trkpt>
      <trkpt lat="45.294412756338716" lon="5.768055114895105">
        <ele>1259</ele>
        <time>2014-05-18T13:36:21Z</time>
      </trkpt>
      <trkpt lat="45.294357519596815" lon="5.768022341653705">
        <ele>1259.4000244140625</ele>
        <time>2014-05-18T13:36:24Z</time>
      </trkpt>
      <trkpt lat="45.294289458543062" lon="5.767959728837013">
        <ele>1260.199951171875</ele>
        <time>2014-05-18T13:36:28Z</time>
      </trkpt>
      <trkpt lat="45.294252075254917" lon="5.767932236194611">
        <ele>1260.5999755859375</ele>
        <time>2014-05-18T13:36:30Z</time>
      </trkpt>
      <trkpt lat="45.294211590662599" lon="5.767918489873409">
        <ele>1260.800048828125</ele>
        <time>2014-05-18T13:36:32Z</time>
      </trkpt>
      <trkpt lat="45.294169513508677" lon="5.767896613106132">
        <ele>1261</ele>
        <time>2014-05-18T13:36:34Z</time>
      </trkpt>
      <trkpt lat="45.294137327000499" lon="5.767880352213979">
        <ele>1261.5999755859375</ele>
        <time>2014-05-18T13:36:36Z</time>
      </trkpt>
      <trkpt lat="45.294056609272957" lon="5.767852021381259">
        <ele>1262.199951171875</ele>
        <time>2014-05-18T13:36:40Z</time>
      </trkpt>
      <trkpt lat="45.293988212943077" lon="5.767827210947871">
        <ele>1262.5999755859375</ele>
        <time>2014-05-18T13:36:43Z</time>
      </trkpt>
      <trkpt lat="45.293877488002181" lon="5.767777925357223">
        <ele>1263.199951171875</ele>
        <time>2014-05-18T13:36:48Z</time>
      </trkpt>
      <trkpt lat="45.293834069743752" lon="5.767766609787941">
        <ele>1263.5999755859375</ele>
        <time>2014-05-18T13:36:50Z</time>
      </trkpt>
      <trkpt lat="45.293688056990504" lon="5.767720425501466">
        <ele>1264.5999755859375</ele>
        <time>2014-05-18T13:36:55Z</time>
      </trkpt>
      <trkpt lat="45.293660312891006" lon="5.767720425501466">
        <ele>1264.5999755859375</ele>
        <time>2014-05-18T13:36:56Z</time>
      </trkpt>
      <trkpt lat="45.293591497465968" lon="5.767691340297461">
        <ele>1264.800048828125</ele>
        <time>2014-05-18T13:36:59Z</time>
      </trkpt>
      <trkpt lat="45.293571632355452" lon="5.76768689788878">
        <ele>1265</ele>
        <time>2014-05-18T13:37:00Z</time>
      </trkpt>
      <trkpt lat="45.293428720906377" lon="5.767700560390949">
        <ele>1265.5999755859375</ele>
        <time>2014-05-18T13:37:06Z</time>
      </trkpt>
      <trkpt lat="45.293410196900368" lon="5.767698884010315">
        <ele>1265.800048828125</ele>
        <time>2014-05-18T13:37:07Z</time>
      </trkpt>
      <trkpt lat="45.293338196352124" lon="5.767699554562569">
        <ele>1266.800048828125</ele>
        <time>2014-05-18T13:37:11Z</time>
      </trkpt>
      <trkpt lat="45.293263010680676" lon="5.767693435773253">
        <ele>1267.5999755859375</ele>
        <time>2014-05-18T13:37:15Z</time>
      </trkpt>
      <trkpt lat="45.293228812515736" lon="5.767685808241367">
        <ele>1267.800048828125</ele>
        <time>2014-05-18T13:37:17Z</time>
      </trkpt>
      <trkpt lat="45.293150776997209" lon="5.767677593976259">
        <ele>1268.5999755859375</ele>
        <time>2014-05-18T13:37:21Z</time>
      </trkpt>
      <trkpt lat="45.293096378445625" lon="5.767676588147879">
        <ele>1269</ele>
        <time>2014-05-18T13:37:24Z</time>
      </trkpt>
      <trkpt lat="45.292986826971173" lon="5.767644066363573">
        <ele>1269.800048828125</ele>
        <time>2014-05-18T13:37:30Z</time>
      </trkpt>
      <trkpt lat="45.292949443683028" lon="5.767624117434025">
        <ele>1270.199951171875</ele>
        <time>2014-05-18T13:37:32Z</time>
      </trkpt>
      <trkpt lat="45.292827235534787" lon="5.767546249553561">
        <ele>1271.199951171875</ele>
        <time>2014-05-18T13:37:39Z</time>
      </trkpt>
      <trkpt lat="45.292723886668682" lon="5.767442900687456">
        <ele>1272.4000244140625</ele>
        <time>2014-05-18T13:37:45Z</time>
      </trkpt>
      <trkpt lat="45.292640151455998" lon="5.767373833805323">
        <ele>1273.4000244140625</ele>
        <time>2014-05-18T13:37:50Z</time>
      </trkpt>
      <trkpt lat="45.292623471468687" lon="5.767358243465424">
        <ele>1273.5999755859375</ele>
        <time>2014-05-18T13:37:51Z</time>
      </trkpt>
      <trkpt lat="45.292592290788889" lon="5.767341647297144">
        <ele>1273.5999755859375</ele>
        <time>2014-05-18T13:37:52Z</time>
      </trkpt>
      <trkpt lat="45.292439823970199" lon="5.767254726961255">
        <ele>1274.800048828125</ele>
        <time>2014-05-18T13:37:58Z</time>
      </trkpt>
      <trkpt lat="45.292303701862693" lon="5.767180966213346">
        <ele>1275.800048828125</ele>
        <time>2014-05-18T13:38:05Z</time>
      </trkpt>
      <trkpt lat="45.292286267504096" lon="5.767169566825032">
        <ele>1275.800048828125</ele>
        <time>2014-05-18T13:38:06Z</time>
      </trkpt>
      <trkpt lat="45.292163388803601" lon="5.767088932916522">
        <ele>1276.800048828125</ele>
        <time>2014-05-18T13:38:13Z</time>
      </trkpt>
      <trkpt lat="45.292023327201605" lon="5.76706487685442">
        <ele>1277.800048828125</ele>
        <time>2014-05-18T13:38:20Z</time>
      </trkpt>
      <trkpt lat="45.291919894516468" lon="5.76703947968781">
        <ele>1278.4000244140625</ele>
        <time>2014-05-18T13:40:40Z</time>
      </trkpt>
      <trkpt lat="45.291868094354868" lon="5.767035624012351">
        <ele>1278.5999755859375</ele>
        <time>2014-05-18T13:40:43Z</time>
      </trkpt>
      <trkpt lat="45.29184521175921" lon="5.767030511051416">
        <ele>1278.5999755859375</ele>
        <time>2014-05-18T13:40:44Z</time>
      </trkpt>
      <trkpt lat="45.291761476546526" lon="5.767012825235724">
        <ele>1279</ele>
        <time>2014-05-18T13:40:48Z</time>
      </trkpt>
      <trkpt lat="45.291694756597281" lon="5.767014585435391">
        <ele>1279.4000244140625</ele>
        <time>2014-05-18T13:40:51Z</time>
      </trkpt>
      <trkpt lat="45.291622169315815" lon="5.767010729759932">
        <ele>1280</ele>
        <time>2014-05-18T13:40:55Z</time>
      </trkpt>
      <trkpt lat="45.291555617004633" lon="5.767012154683471">
        <ele>1280.4000244140625</ele>
        <time>2014-05-18T13:40:58Z</time>
      </trkpt>
      <trkpt lat="45.291466852650046" lon="5.767013495787978">
        <ele>1281.199951171875</ele>
        <time>2014-05-18T13:41:02Z</time>
      </trkpt>
      <trkpt lat="45.291399713605642" lon="5.767019363120198">
        <ele>1281.4000244140625</ele>
        <time>2014-05-18T13:41:05Z</time>
      </trkpt>
      <trkpt lat="45.291277170181274" lon="5.767007376998663">
        <ele>1282.4000244140625</ele>
        <time>2014-05-18T13:41:10Z</time>
      </trkpt>
      <trkpt lat="45.291208773851395" lon="5.767000587657094">
        <ele>1282.800048828125</ele>
        <time>2014-05-18T13:41:13Z</time>
      </trkpt>
      <trkpt lat="45.291116153821349" lon="5.766999246552587">
        <ele>1283.4000244140625</ele>
        <time>2014-05-18T13:41:17Z</time>
      </trkpt>
      <trkpt lat="45.291060078889132" lon="5.766986170783639">
        <ele>1284</ele>
        <time>2014-05-18T13:41:20Z</time>
      </trkpt>
      <trkpt lat="45.290973912924528" lon="5.766983404755592">
        <ele>1284.4000244140625</ele>
        <time>2014-05-18T13:41:24Z</time>
      </trkpt>
      <trkpt lat="45.290910294279456" lon="5.766972759738565">
        <ele>1284.800048828125</ele>
        <time>2014-05-18T13:41:27Z</time>
      </trkpt>
      <trkpt lat="45.290782302618027" lon="5.766963539645076">
        <ele>1285.800048828125</ele>
        <time>2014-05-18T13:41:33Z</time>
      </trkpt>
      <trkpt lat="45.290763862431049" lon="5.766959600150585">
        <ele>1286</ele>
        <time>2014-05-18T13:41:34Z</time>
      </trkpt>
      <trkpt lat="45.290666716173291" lon="5.766949290409684">
        <ele>1287</ele>
        <time>2014-05-18T13:41:39Z</time>
      </trkpt>
      <trkpt lat="45.290627488866448" lon="5.766957001760602">
        <ele>1287.199951171875</ele>
        <time>2014-05-18T13:41:41Z</time>
      </trkpt>
      <trkpt lat="45.290520871058106" lon="5.766969993710518">
        <ele>1288</ele>
        <time>2014-05-18T13:41:46Z</time>
      </trkpt>
      <trkpt lat="45.290501844137907" lon="5.766966473311186">
        <ele>1288.199951171875</ele>
        <time>2014-05-18T13:41:47Z</time>
      </trkpt>
      <trkpt lat="45.29035834595561" lon="5.766959935426712">
        <ele>1288.800048828125</ele>
        <time>2014-05-18T13:41:53Z</time>
      </trkpt>
      <trkpt lat="45.290307383984327" lon="5.766960941255093">
        <ele>1289</ele>
        <time>2014-05-18T13:41:55Z</time>
      </trkpt>
      <trkpt lat="45.290190456435084" lon="5.766943590715528">
        <ele>1290.199951171875</ele>
        <time>2014-05-18T13:42:00Z</time>
      </trkpt>
      <trkpt lat="45.290164304897189" lon="5.766949206590653">
        <ele>1290.4000244140625</ele>
        <time>2014-05-18T13:42:01Z</time>
      </trkpt>
      <trkpt lat="45.289975460618734" lon="5.766955995932221">
        <ele>1291</ele>
        <time>2014-05-18T13:42:08Z</time>
      </trkpt>
      <trkpt lat="45.289907902479172" lon="5.76695004478097">
        <ele>1291.4000244140625</ele>
        <time>2014-05-18T13:42:11Z</time>
      </trkpt>
      <trkpt lat="45.289815198630095" lon="5.766933783888817">
        <ele>1292.4000244140625</ele>
        <time>2014-05-18T13:42:15Z</time>
      </trkpt>
      <trkpt lat="45.289770187810063" lon="5.766919031739235">
        <ele>1292.5999755859375</ele>
        <time>2014-05-18T13:42:17Z</time>
      </trkpt>
      <trkpt lat="45.289571871981025" lon="5.766832362860441">
        <ele>1292.800048828125</ele>
        <time>2014-05-18T13:42:26Z</time>
      </trkpt>
      <trkpt lat="45.289505487307906" lon="5.766837475821376">
        <ele>1293.199951171875</ele>
        <time>2014-05-18T13:42:39Z</time>
      </trkpt>
      <trkpt lat="45.28944849036634" lon="5.76690997928381">
        <ele>1293</ele>
        <time>2014-05-18T13:42:45Z</time>
      </trkpt>
      <trkpt lat="45.289450921118259" lon="5.766904866322875">
        <ele>1294.4000244140625</ele>
        <time>2014-05-18T13:45:58Z</time>
      </trkpt>
      <trkpt lat="45.289441533386707" lon="5.766878882423043">
        <ele>1294.199951171875</ele>
        <time>2014-05-18T13:45:59Z</time>
      </trkpt>
      <trkpt lat="45.289400881156325" lon="5.766795733943582">
        <ele>1293.800048828125</ele>
        <time>2014-05-18T13:46:02Z</time>
      </trkpt>
      <trkpt lat="45.289328042417765" lon="5.766722895205021">
        <ele>1293.199951171875</ele>
        <time>2014-05-18T13:46:05Z</time>
      </trkpt>
      <trkpt lat="45.289224609732628" lon="5.766658522188664">
        <ele>1291.5999755859375</ele>
        <time>2014-05-18T13:46:08Z</time>
      </trkpt>
      <trkpt lat="45.289126541465521" lon="5.766610242426395">
        <ele>1290.199951171875</ele>
        <time>2014-05-18T13:46:10Z</time>
      </trkpt>
      <trkpt lat="45.28900776989758" lon="5.766558861359954">
        <ele>1288.5999755859375</ele>
        <time>2014-05-18T13:46:12Z</time>
      </trkpt>
      <trkpt lat="45.288778441026807" lon="5.766482502222061">
        <ele>1288.199951171875</ele>
        <time>2014-05-18T13:46:15Z</time>
      </trkpt>
      <trkpt lat="45.288693699985743" lon="5.766468085348606">
        <ele>1287.800048828125</ele>
        <time>2014-05-18T13:46:16Z</time>
      </trkpt>
      <trkpt lat="45.28860367834568" lon="5.766459451988339">
        <ele>1287.199951171875</ele>
        <time>2014-05-18T13:46:17Z</time>
      </trkpt>
      <trkpt lat="45.288417767733335" lon="5.766433300450444">
        <ele>1285.4000244140625</ele>
        <time>2014-05-18T13:46:19Z</time>
      </trkpt>
      <trkpt lat="45.288323974236846" lon="5.766412345692515">
        <ele>1284.199951171875</ele>
        <time>2014-05-18T13:46:20Z</time>
      </trkpt>
      <trkpt lat="45.288128340616822" lon="5.76635342091322">
        <ele>1282.800048828125</ele>
        <time>2014-05-18T13:46:22Z</time>
      </trkpt>
      <trkpt lat="45.28802658431232" lon="5.766317546367645">
        <ele>1281.4000244140625</ele>
        <time>2014-05-18T13:46:23Z</time>
      </trkpt>
      <trkpt lat="45.287923905998468" lon="5.766284102573991">
        <ele>1280.800048828125</ele>
        <time>2014-05-18T13:46:24Z</time>
      </trkpt>
      <trkpt lat="45.287823658436537" lon="5.766244791448116">
        <ele>1280.5999755859375</ele>
        <time>2014-05-18T13:46:25Z</time>
      </trkpt>
      <trkpt lat="45.287725841626525" lon="5.766176311299205">
        <ele>1280.199951171875</ele>
        <time>2014-05-18T13:46:26Z</time>
      </trkpt>
      <trkpt lat="45.287635987624526" lon="5.766071788966656">
        <ele>1279.5999755859375</ele>
        <time>2014-05-18T13:46:27Z</time>
      </trkpt>
      <trkpt lat="45.287576643750072" lon="5.765938768163323">
        <ele>1278.5999755859375</ele>
        <time>2014-05-18T13:46:28Z</time>
      </trkpt>
      <trkpt lat="45.287547977641225" lon="5.765788815915585">
        <ele>1277</ele>
        <time>2014-05-18T13:46:29Z</time>
      </trkpt>
      <trkpt lat="45.287539344280958" lon="5.765630397945643">
        <ele>1275.5999755859375</ele>
        <time>2014-05-18T13:46:30Z</time>
      </trkpt>
      <trkpt lat="45.287536578252912" lon="5.76546753756702">
        <ele>1274.199951171875</ele>
        <time>2014-05-18T13:46:31Z</time>
      </trkpt>
      <trkpt lat="45.287525514140725" lon="5.765308197587729">
        <ele>1273.4000244140625</ele>
        <time>2014-05-18T13:46:32Z</time>
      </trkpt>
      <trkpt lat="45.287497853860259" lon="5.765158077701926">
        <ele>1272.4000244140625</ele>
        <time>2014-05-18T13:46:33Z</time>
      </trkpt>
      <trkpt lat="45.287393080070615" lon="5.76489538885653">
        <ele>1270.4000244140625</ele>
        <time>2014-05-18T13:46:35Z</time>
      </trkpt>
      <trkpt lat="45.287318732589483" lon="5.764784831553698">
        <ele>1269.4000244140625</ele>
        <time>2014-05-18T13:46:36Z</time>
      </trkpt>
      <trkpt lat="45.287125529721379" lon="5.764617947861552">
        <ele>1267.4000244140625</ele>
        <time>2014-05-18T13:46:38Z</time>
      </trkpt>
      <trkpt lat="45.287018408998847" lon="5.764552066102624">
        <ele>1266</ele>
        <time>2014-05-18T13:46:39Z</time>
      </trkpt>
      <trkpt lat="45.286905756220222" lon="5.76449858956039">
        <ele>1264.5999755859375</ele>
        <time>2014-05-18T13:46:40Z</time>
      </trkpt>
      <trkpt lat="45.286791427060962" lon="5.764452069997788">
        <ele>1263.4000244140625</ele>
        <time>2014-05-18T13:46:41Z</time>
      </trkpt>
      <trkpt lat="45.28667600825429" lon="5.764407981187105">
        <ele>1262.199951171875</ele>
        <time>2014-05-18T13:46:42Z</time>
      </trkpt>
      <trkpt lat="45.286553548648953" lon="5.764362048357725">
        <ele>1261</ele>
        <time>2014-05-18T13:46:43Z</time>
      </trkpt>
      <trkpt lat="45.286165047436953" lon="5.764227015897632">
        <ele>1260</ele>
        <time>2014-05-18T13:46:46Z</time>
      </trkpt>
      <trkpt lat="45.286033786833286" lon="5.764182675629854">
        <ele>1258</ele>
        <time>2014-05-18T13:46:47Z</time>
      </trkpt>
      <trkpt lat="45.285900849848986" lon="5.764137748628855">
        <ele>1256.199951171875</ele>
        <time>2014-05-18T13:46:48Z</time>
      </trkpt>
      <trkpt lat="45.285765398293734" lon="5.764091312885284">
        <ele>1254.800048828125</ele>
        <time>2014-05-18T13:46:49Z</time>
      </trkpt>
      <trkpt lat="45.285626677796245" lon="5.764040183275938">
        <ele>1253.4000244140625</ele>
        <time>2014-05-18T13:46:50Z</time>
      </trkpt>
      <trkpt lat="45.285353343933821" lon="5.763932140544057">
        <ele>1251.4000244140625</ele>
        <time>2014-05-18T13:46:52Z</time>
      </trkpt>
      <trkpt lat="45.285075483843684" lon="5.763831976801157">
        <ele>1249.5999755859375</ele>
        <time>2014-05-18T13:46:54Z</time>
      </trkpt>
      <trkpt lat="45.284794354811311" lon="5.763739859685302">
        <ele>1248</ele>
        <time>2014-05-18T13:46:56Z</time>
      </trkpt>
      <trkpt lat="45.28464968316257" lon="5.763701386749744">
        <ele>1246.800048828125</ele>
        <time>2014-05-18T13:46:57Z</time>
      </trkpt>
      <trkpt lat="45.28449235484004" lon="5.763675486668944">
        <ele>1245.5999755859375</ele>
        <time>2014-05-18T13:46:58Z</time>
      </trkpt>
      <trkpt lat="45.284337708726525" lon="5.763669032603502">
        <ele>1244.4000244140625</ele>
        <time>2014-05-18T13:46:59Z</time>
      </trkpt>
      <trkpt lat="45.284044425934553" lon="5.763709349557757">
        <ele>1243.4000244140625</ele>
        <time>2014-05-18T13:47:01Z</time>
      </trkpt>
      <trkpt lat="45.283757848665118" lon="5.763799203559756">
        <ele>1241.5999755859375</ele>
        <time>2014-05-18T13:47:03Z</time>
      </trkpt>
      <trkpt lat="45.283619714900851" lon="5.763855362311006">
        <ele>1240.4000244140625</ele>
        <time>2014-05-18T13:47:04Z</time>
      </trkpt>
      <trkpt lat="45.283487364649773" lon="5.763910096138716">
        <ele>1239.4000244140625</ele>
        <time>2014-05-18T13:47:05Z</time>
      </trkpt>
      <trkpt lat="45.283360294997692" lon="5.763960974290967">
        <ele>1238.5999755859375</ele>
        <time>2014-05-18T13:47:06Z</time>
      </trkpt>
      <trkpt lat="45.283126523718238" lon="5.764028616249561">
        <ele>1237</ele>
        <time>2014-05-18T13:47:08Z</time>
      </trkpt>
      <trkpt lat="45.283010685816407" lon="5.764024676755071">
        <ele>1236.4000244140625</ele>
        <time>2014-05-18T13:47:09Z</time>
      </trkpt>
      <trkpt lat="45.282895769923925" lon="5.763983353972435">
        <ele>1235.5999755859375</ele>
        <time>2014-05-18T13:47:10Z</time>
      </trkpt>
      <trkpt lat="45.282783871516585" lon="5.763922836631537">
        <ele>1232.800048828125</ele>
        <time>2014-05-18T13:47:11Z</time>
      </trkpt>
      <trkpt lat="45.282671805471182" lon="5.763860391452909">
        <ele>1232</ele>
        <time>2014-05-18T13:47:12Z</time>
      </trkpt>
      <trkpt lat="45.282557643949986" lon="5.763796018436551">
        <ele>1231.199951171875</ele>
        <time>2014-05-18T13:47:13Z</time>
      </trkpt>
      <trkpt lat="45.282328650355339" lon="5.763653106987476">
        <ele>1229.4000244140625</ele>
        <time>2014-05-18T13:47:15Z</time>
      </trkpt>
      <trkpt lat="45.282132010906935" lon="5.763508100062609">
        <ele>1228.4000244140625</ele>
        <time>2014-05-18T13:47:17Z</time>
      </trkpt>
      <trkpt lat="45.28204726986587" lon="5.76346468180418">
        <ele>1228.4000244140625</ele>
        <time>2014-05-18T13:47:18Z</time>
      </trkpt>
      <trkpt lat="45.281971748918295" lon="5.763451522216201">
        <ele>1228.4000244140625</ele>
        <time>2014-05-18T13:47:19Z</time>
      </trkpt>
      <trkpt lat="45.281860353425145" lon="5.763513296842575">
        <ele>1228.800048828125</ele>
        <time>2014-05-18T13:47:21Z</time>
      </trkpt>
      <trkpt lat="45.281758764758706" lon="5.763633912429214">
        <ele>1229.199951171875</ele>
        <time>2014-05-18T13:47:23Z</time>
      </trkpt>
      <trkpt lat="45.281717022880912" lon="5.763689400628209">
        <ele>1229</ele>
        <time>2014-05-18T13:47:24Z</time>
      </trkpt>
      <trkpt lat="45.281661367043853" lon="5.763842118903995">
        <ele>1227.5999755859375</ele>
        <time>2014-05-18T13:47:27Z</time>
      </trkpt>
      <trkpt lat="45.281658517196774" lon="5.76391763985157">
        <ele>1226.800048828125</ele>
        <time>2014-05-18T13:47:28Z</time>
      </trkpt>
      <trkpt lat="45.281655248254538" lon="5.764024509117007">
        <ele>1225.800048828125</ele>
        <time>2014-05-18T13:47:29Z</time>
      </trkpt>
      <trkpt lat="45.281646028161049" lon="5.76415216550231">
        <ele>1224.800048828125</ele>
        <time>2014-05-18T13:47:30Z</time>
      </trkpt>
      <trkpt lat="45.281635383144021" lon="5.764296837151051">
        <ele>1223.800048828125</ele>
        <time>2014-05-18T13:47:31Z</time>
      </trkpt>
      <trkpt lat="45.281632365658879" lon="5.76461392454803">
        <ele>1221.5999755859375</ele>
        <time>2014-05-18T13:47:33Z</time>
      </trkpt>
      <trkpt lat="45.281621720641851" lon="5.764773935079575">
        <ele>1220.4000244140625</ele>
        <time>2014-05-18T13:47:34Z</time>
      </trkpt>
      <trkpt lat="45.281609818339348" lon="5.764935202896595">
        <ele>1218.5999755859375</ele>
        <time>2014-05-18T13:47:35Z</time>
      </trkpt>
      <trkpt lat="45.281586768105626" lon="5.765257487073541">
        <ele>1216.800048828125</ele>
        <time>2014-05-18T13:47:37Z</time>
      </trkpt>
      <trkpt lat="45.281589198857546" lon="5.765422442927957">
        <ele>1215.800048828125</ele>
        <time>2014-05-18T13:47:38Z</time>
      </trkpt>
      <trkpt lat="45.281588360667229" lon="5.765582537278533">
        <ele>1215.4000244140625</ele>
        <time>2014-05-18T13:47:39Z</time>
      </trkpt>
      <trkpt lat="45.281586349010468" lon="5.765732070431113">
        <ele>1214.800048828125</ele>
        <time>2014-05-18T13:47:40Z</time>
      </trkpt>
      <trkpt lat="45.281592970713973" lon="5.765872048214078">
        <ele>1214.4000244140625</ele>
        <time>2014-05-18T13:47:41Z</time>
      </trkpt>
      <trkpt lat="45.281596826389432" lon="5.766231128945947">
        <ele>1213.199951171875</ele>
        <time>2014-05-18T13:47:44Z</time>
      </trkpt>
      <trkpt lat="45.281584840267897" lon="5.76642676256597">
        <ele>1212.4000244140625</ele>
        <time>2014-05-18T13:47:47Z</time>
      </trkpt>
      <trkpt lat="45.281588863581419" lon="5.766450818628073">
        <ele>1211.800048828125</ele>
        <time>2014-05-18T13:47:48Z</time>
      </trkpt>
      <trkpt lat="45.281603699550033" lon="5.766474287956953">
        <ele>1210.199951171875</ele>
        <time>2014-05-18T13:47:50Z</time>
      </trkpt>
      <trkpt lat="45.281624235212803" lon="5.766463307663798">
        <ele>1209</ele>
        <time>2014-05-18T13:47:52Z</time>
      </trkpt>
      <trkpt lat="45.28157570399344" lon="5.766391810029745">
        <ele>1207.4000244140625</ele>
        <time>2014-05-18T13:47:54Z</time>
      </trkpt>
      <trkpt lat="45.281559024006128" lon="5.766366831958294">
        <ele>1206.199951171875</ele>
        <time>2014-05-18T13:47:55Z</time>
      </trkpt>
      <trkpt lat="45.281501356512308" lon="5.766323246061802">
        <ele>1204.4000244140625</ele>
        <time>2014-05-18T13:47:57Z</time>
      </trkpt>
      <trkpt lat="45.281458776444197" lon="5.766295334324241">
        <ele>1203.800048828125</ele>
        <time>2014-05-18T13:47:58Z</time>
      </trkpt>
      <trkpt lat="45.281349392607808" lon="5.766238002106547">
        <ele>1202.199951171875</ele>
        <time>2014-05-18T13:47:59Z</time>
      </trkpt>
      <trkpt lat="45.281229028478265" lon="5.766195254400373">
        <ele>1201</ele>
        <time>2014-05-18T13:48:00Z</time>
      </trkpt>
      <trkpt lat="45.280741369351745" lon="5.766106154769659">
        <ele>1199.199951171875</ele>
        <time>2014-05-18T13:48:02Z</time>
      </trkpt>
      <trkpt lat="45.280555877834558" lon="5.766086624935269">
        <ele>1198.4000244140625</ele>
        <time>2014-05-18T13:48:03Z</time>
      </trkpt>
      <trkpt lat="45.280388239771128" lon="5.766080841422081">
        <ele>1197.5999755859375</ele>
        <time>2014-05-18T13:48:04Z</time>
      </trkpt>
      <trkpt lat="45.279960259795189" lon="5.766055276617408">
        <ele>1196</ele>
        <time>2014-05-18T13:48:06Z</time>
      </trkpt>
      <trkpt lat="45.279798740521073" lon="5.766050079837441">
        <ele>1194.800048828125</ele>
        <time>2014-05-18T13:48:07Z</time>
      </trkpt>
      <trkpt lat="45.279646441340446" lon="5.766040608286858">
        <ele>1193.5999755859375</ele>
        <time>2014-05-18T13:48:08Z</time>
      </trkpt>
      <trkpt lat="45.279502104967833" lon="5.766024263575673">
        <ele>1192.4000244140625</ele>
        <time>2014-05-18T13:48:09Z</time>
      </trkpt>
      <trkpt lat="45.279362965375185" lon="5.765995932742953">
        <ele>1191.5999755859375</ele>
        <time>2014-05-18T13:48:10Z</time>
      </trkpt>
      <trkpt lat="45.279230615124106" lon="5.765956705436111">
        <ele>1190.5999755859375</ele>
        <time>2014-05-18T13:48:11Z</time>
      </trkpt>
      <trkpt lat="45.279103713110089" lon="5.76590976677835">
        <ele>1189.5999755859375</ele>
        <time>2014-05-18T13:48:12Z</time>
      </trkpt>
      <trkpt lat="45.278976056724787" lon="5.765869868919253">
        <ele>1188.199951171875</ele>
        <time>2014-05-18T13:48:13Z</time>
      </trkpt>
      <trkpt lat="45.278842868283391" lon="5.765839274972677">
        <ele>1187.199951171875</ele>
        <time>2014-05-18T13:48:14Z</time>
      </trkpt>
      <trkpt lat="45.278569450601935" lon="5.765814045444131">
        <ele>1185</ele>
        <time>2014-05-18T13:48:16Z</time>
      </trkpt>
      <trkpt lat="45.278297457844019" lon="5.765809686854482">
        <ele>1183</ele>
        <time>2014-05-18T13:48:18Z</time>
      </trkpt>
      <trkpt lat="45.27803611010313" lon="5.765833323821425">
        <ele>1182</ele>
        <time>2014-05-18T13:48:20Z</time>
      </trkpt>
      <trkpt lat="45.277907447889447" lon="5.765876155346632">
        <ele>1181.199951171875</ele>
        <time>2014-05-18T13:48:21Z</time>
      </trkpt>
      <trkpt lat="45.277780378237367" lon="5.765929380431771">
        <ele>1179.800048828125</ele>
        <time>2014-05-18T13:48:22Z</time>
      </trkpt>
      <trkpt lat="45.277653224766254" lon="5.765984700992703">
        <ele>1177.5999755859375</ele>
        <time>2014-05-18T13:48:23Z</time>
      </trkpt>
      <trkpt lat="45.277522299438715" lon="5.766043374314904">
        <ele>1176.199951171875</ele>
        <time>2014-05-18T13:48:24Z</time>
      </trkpt>
      <trkpt lat="45.277389949187636" lon="5.76609835959971">
        <ele>1175</ele>
        <time>2014-05-18T13:48:25Z</time>
      </trkpt>
      <trkpt lat="45.277122482657433" lon="5.766195924952626">
        <ele>1173.5999755859375</ele>
        <time>2014-05-18T13:48:27Z</time>
      </trkpt>
      <trkpt lat="45.276854680851102" lon="5.766252167522907">
        <ele>1172</ele>
        <time>2014-05-18T13:48:29Z</time>
      </trkpt>
      <trkpt lat="45.276720654219389" lon="5.766256107017398">
        <ele>1171</ele>
        <time>2014-05-18T13:48:30Z</time>
      </trkpt>
      <trkpt lat="45.276586543768644" lon="5.76623372733593">
        <ele>1170</ele>
        <time>2014-05-18T13:48:31Z</time>
      </trkpt>
      <trkpt lat="45.276326118037105" lon="5.766140520572662">
        <ele>1167.800048828125</ele>
        <time>2014-05-18T13:48:33Z</time>
      </trkpt>
      <trkpt lat="45.276198880746961" lon="5.766071453690529">
        <ele>1166.800048828125</ele>
        <time>2014-05-18T13:48:34Z</time>
      </trkpt>
      <trkpt lat="45.276074660941958" lon="5.765994340181351">
        <ele>1166.199951171875</ele>
        <time>2014-05-18T13:48:35Z</time>
      </trkpt>
      <trkpt lat="45.275954464450479" lon="5.765908677130938">
        <ele>1165</ele>
        <time>2014-05-18T13:48:36Z</time>
      </trkpt>
      <trkpt lat="45.275719854980707" lon="5.765738440677524">
        <ele>1163.800048828125</ele>
        <time>2014-05-18T13:48:38Z</time>
      </trkpt>
      <trkpt lat="45.275599658489227" lon="5.765677504241467">
        <ele>1163.800048828125</ele>
        <time>2014-05-18T13:48:39Z</time>
      </trkpt>
      <trkpt lat="45.275329677388072" lon="5.765616483986378">
        <ele>1162</ele>
        <time>2014-05-18T13:48:41Z</time>
      </trkpt>
      <trkpt lat="45.275190453976393" lon="5.765611287206411">
        <ele>1160.4000244140625</ele>
        <time>2014-05-18T13:48:42Z</time>
      </trkpt>
      <trkpt lat="45.275054834783077" lon="5.765612879768014">
        <ele>1159.199951171875</ele>
        <time>2014-05-18T13:48:43Z</time>
      </trkpt>
      <trkpt lat="45.274922316893935" lon="5.76561757363379">
        <ele>1158.199951171875</ele>
        <time>2014-05-18T13:48:44Z</time>
      </trkpt>
      <trkpt lat="45.274683348834515" lon="5.765615310519934">
        <ele>1156.5999755859375</ele>
        <time>2014-05-18T13:48:46Z</time>
      </trkpt>
      <trkpt lat="45.27458343654871" lon="5.765615310519934">
        <ele>1156.199951171875</ele>
        <time>2014-05-18T13:48:47Z</time>
      </trkpt>
      <trkpt lat="45.274400124326348" lon="5.765648921951652">
        <ele>1156</ele>
        <time>2014-05-18T13:48:49Z</time>
      </trkpt>
      <trkpt lat="45.274321753531694" lon="5.765698123723269">
        <ele>1155.5999755859375</ele>
        <time>2014-05-18T13:48:50Z</time>
      </trkpt>
      <trkpt lat="45.274258051067591" lon="5.765766017138958">
        <ele>1155</ele>
        <time>2014-05-18T13:48:51Z</time>
      </trkpt>
      <trkpt lat="45.274171801283956" lon="5.765962656587362">
        <ele>1153.4000244140625</ele>
        <time>2014-05-18T13:48:53Z</time>
      </trkpt>
      <trkpt lat="45.274120755493641" lon="5.766196176409721">
        <ele>1151.5999755859375</ele>
        <time>2014-05-18T13:48:55Z</time>
      </trkpt>
      <trkpt lat="45.274151852354407" lon="5.766273038461804">
        <ele>1150.800048828125</ele>
        <time>2014-05-18T13:48:56Z</time>
      </trkpt>
      <trkpt lat="45.274180686101317" lon="5.766298603266478">
        <ele>1149.800048828125</ele>
        <time>2014-05-18T13:48:57Z</time>
      </trkpt>
      <trkpt lat="45.27418864890933" lon="5.766825741156936">
        <ele>1148.4000244140625</ele>
        <time>2014-05-18T13:48:59Z</time>
      </trkpt>
      <trkpt lat="45.274169873446226" lon="5.767001090571284">
        <ele>1148</ele>
        <time>2014-05-18T13:49:00Z</time>
      </trkpt>
      <trkpt lat="45.274161156266928" lon="5.76727400533855">
        <ele>1147.4000244140625</ele>
        <time>2014-05-18T13:49:03Z</time>
      </trkpt>
      <trkpt lat="45.274175573140383" lon="5.767275094985962">
        <ele>1147</ele>
        <time>2014-05-18T13:49:04Z</time>
      </trkpt>
      <trkpt lat="45.274203317239881" lon="5.767237124964595">
        <ele>1146.4000244140625</ele>
        <time>2014-05-18T13:49:05Z</time>
      </trkpt>
      <trkpt lat="45.274222260341048" lon="5.767207620665431">
        <ele>1145.800048828125</ele>
        <time>2014-05-18T13:49:06Z</time>
      </trkpt>
      <trkpt lat="45.274286130443215" lon="5.767135452479124">
        <ele>1144.4000244140625</ele>
        <time>2014-05-18T13:49:08Z</time>
      </trkpt>
      <trkpt lat="45.27433373965323" lon="5.767086669802666">
        <ele>1143.5999755859375</ele>
        <time>2014-05-18T13:49:09Z</time>
      </trkpt>
      <trkpt lat="45.274376068264246" lon="5.767026655375958">
        <ele>1142.800048828125</ele>
        <time>2014-05-18T13:49:10Z</time>
      </trkpt>
      <trkpt lat="45.274407248944044" lon="5.766967479139566">
        <ele>1140.800048828125</ele>
        <time>2014-05-18T13:49:11Z</time>
      </trkpt>
      <trkpt lat="45.274410182610154" lon="5.766900843009353">
        <ele>1139.800048828125</ele>
        <time>2014-05-18T13:49:12Z</time>
      </trkpt>
      <trkpt lat="45.274379001930356" lon="5.766813335940242">
        <ele>1138.4000244140625</ele>
        <time>2014-05-18T13:49:13Z</time>
      </trkpt>
      <trkpt lat="45.274322675541043" lon="5.766700683161616">
        <ele>1137.4000244140625</ele>
        <time>2014-05-18T13:49:14Z</time>
      </trkpt>
      <trkpt lat="45.274265510961413" lon="5.766570512205362">
        <ele>1136.199951171875</ele>
        <time>2014-05-18T13:49:15Z</time>
      </trkpt>
      <trkpt lat="45.274172555655241" lon="5.766396000981331">
        <ele>1135.199951171875</ele>
        <time>2014-05-18T13:49:16Z</time>
      </trkpt>
      <trkpt lat="45.273951692506671" lon="5.766128031536937">
        <ele>1134.5999755859375</ele>
        <time>2014-05-18T13:49:17Z</time>
      </trkpt>
      <trkpt lat="45.273729655891657" lon="5.765854446217418">
        <ele>1133.4000244140625</ele>
        <time>2014-05-18T13:49:19Z</time>
      </trkpt>
      <trkpt lat="45.27351189404726" lon="5.765676917508245">
        <ele>1132.4000244140625</ele>
        <time>2014-05-18T13:49:21Z</time>
      </trkpt>
      <trkpt lat="45.273325061425567" lon="5.765568790957332">
        <ele>1131.800048828125</ele>
        <time>2014-05-18T13:49:23Z</time>
      </trkpt>
      <trkpt lat="45.273210061714053" lon="5.765484133735299">
        <ele>1131.4000244140625</ele>
        <time>2014-05-18T13:49:25Z</time>
      </trkpt>
      <trkpt lat="45.272978385910392" lon="5.765475248917937">
        <ele>1131.199951171875</ele>
        <time>2014-05-18T13:49:27Z</time>
      </trkpt>
      <trkpt lat="45.272915521636605" lon="5.765449516475201">
        <ele>1131.5999755859375</ele>
        <time>2014-05-18T13:49:43Z</time>
      </trkpt>
      <trkpt lat="45.272942092269659" lon="5.765379695221782">
        <ele>1130.800048828125</ele>
        <time>2014-05-18T13:49:45Z</time>
      </trkpt>
      <trkpt lat="45.272981654852629" lon="5.765355052426457">
        <ele>1130.199951171875</ele>
        <time>2014-05-18T13:49:47Z</time>
      </trkpt>
      <trkpt lat="45.272998251020908" lon="5.765343150123954">
        <ele>1130.199951171875</ele>
        <time>2014-05-18T13:49:48Z</time>
      </trkpt>
      <trkpt lat="45.273040160536766" lon="5.765329739078879">
        <ele>1129.800048828125</ele>
        <time>2014-05-18T13:49:50Z</time>
      </trkpt>
      <trkpt lat="45.273065390065312" lon="5.765334684401751">
        <ele>1129.4000244140625</ele>
        <time>2014-05-18T13:49:51Z</time>
      </trkpt>
      <trkpt lat="45.273090116679668" lon="5.765346251428127">
        <ele>1128.800048828125</ele>
        <time>2014-05-18T13:49:52Z</time>
      </trkpt>
      <trkpt lat="45.273114005103707" lon="5.765363099053502">
        <ele>1128.199951171875</ele>
        <time>2014-05-18T13:49:53Z</time>
      </trkpt>
      <trkpt lat="45.273142503574491" lon="5.765380365774036">
        <ele>1127.5999755859375</ele>
        <time>2014-05-18T13:49:54Z</time>
      </trkpt>
      <trkpt lat="45.273212324827909" lon="5.765421353280544">
        <ele>1126.4000244140625</ele>
        <time>2014-05-18T13:49:56Z</time>
      </trkpt>
      <trkpt lat="45.273268818855286" lon="5.765460496768355">
        <ele>1126</ele>
        <time>2014-05-18T13:49:57Z</time>
      </trkpt>
      <trkpt lat="45.273325899615884" lon="5.765506261959672">
        <ele>1125.4000244140625</ele>
        <time>2014-05-18T13:49:58Z</time>
      </trkpt>
      <trkpt lat="45.273394295945764" lon="5.765560576692224">
        <ele>1124</ele>
        <time>2014-05-18T13:49:59Z</time>
      </trkpt>
      <trkpt lat="45.273460512980819" lon="5.765632828697562">
        <ele>1123.4000244140625</ele>
        <time>2014-05-18T13:50:00Z</time>
      </trkpt>
      <trkpt lat="45.273519102483988" lon="5.765712708234787">
        <ele>1122.800048828125</ele>
        <time>2014-05-18T13:50:01Z</time>
      </trkpt>
      <trkpt lat="45.273578446358442" lon="5.765789318829775">
        <ele>1122.4000244140625</ele>
        <time>2014-05-18T13:50:02Z</time>
      </trkpt>
      <trkpt lat="45.273741222918034" lon="5.765882525593042">
        <ele>1121.800048828125</ele>
        <time>2014-05-18T13:50:04Z</time>
      </trkpt>
      <trkpt lat="45.273984298110008" lon="5.765921669080854">
        <ele>1121</ele>
        <time>2014-05-18T13:50:06Z</time>
      </trkpt>
      <trkpt lat="45.274094436317682" lon="5.765941953286529">
        <ele>1120.5999755859375</ele>
        <time>2014-05-18T13:50:07Z</time>
      </trkpt>
      <trkpt lat="45.274213710799813" lon="5.765870790928602">
        <ele>1119.4000244140625</ele>
        <time>2014-05-18T13:50:09Z</time>
      </trkpt>
      <trkpt lat="45.27424287982285" lon="5.765802897512913">
        <ele>1118.5999755859375</ele>
        <time>2014-05-18T13:50:10Z</time>
      </trkpt>
      <trkpt lat="45.274250172078609" lon="5.765703488141298">
        <ele>1117.800048828125</ele>
        <time>2014-05-18T13:50:11Z</time>
      </trkpt>
      <trkpt lat="45.274242963641882" lon="5.765449265018106">
        <ele>1116.199951171875</ele>
        <time>2014-05-18T13:50:13Z</time>
      </trkpt>
      <trkpt lat="45.274190828204155" lon="5.765117593109608">
        <ele>1114.4000244140625</ele>
        <time>2014-05-18T13:50:15Z</time>
      </trkpt>
      <trkpt lat="45.274166185408831" lon="5.764955403283238">
        <ele>1113.199951171875</ele>
        <time>2014-05-18T13:50:16Z</time>
      </trkpt>
      <trkpt lat="45.274126790463924" lon="5.764649547636509">
        <ele>1112.199951171875</ele>
        <time>2014-05-18T13:50:18Z</time>
      </trkpt>
      <trkpt lat="45.274079935625196" lon="5.76421570032835">
        <ele>1110.800048828125</ele>
        <time>2014-05-18T13:50:21Z</time>
      </trkpt>
      <trkpt lat="45.274063842371106" lon="5.764066334813833">
        <ele>1110.4000244140625</ele>
        <time>2014-05-18T13:50:22Z</time>
      </trkpt>
      <trkpt lat="45.274042384698987" lon="5.763914119452238">
        <ele>1109.5999755859375</ele>
        <time>2014-05-18T13:50:23Z</time>
      </trkpt>
      <trkpt lat="45.273997038602829" lon="5.763603318482637">
        <ele>1107.4000244140625</ele>
        <time>2014-05-18T13:50:25Z</time>
      </trkpt>
      <trkpt lat="45.273932749405503" lon="5.763299725949764">
        <ele>1105.800048828125</ele>
        <time>2014-05-18T13:50:27Z</time>
      </trkpt>
      <trkpt lat="45.273871645331383" lon="5.762997390702367">
        <ele>1104.199951171875</ele>
        <time>2014-05-18T13:50:29Z</time>
      </trkpt>
      <trkpt lat="45.273878602311015" lon="5.762721793726087">
        <ele>1103.199951171875</ele>
        <time>2014-05-18T13:50:31Z</time>
      </trkpt>
      <trkpt lat="45.273965941742063" lon="5.762474276125431">
        <ele>1101.5999755859375</ele>
        <time>2014-05-18T13:50:33Z</time>
      </trkpt>
      <trkpt lat="45.274127461016178" lon="5.762282749637961">
        <ele>1100</ele>
        <time>2014-05-18T13:50:35Z</time>
      </trkpt>
      <trkpt lat="45.274224188178778" lon="5.76220890507102">
        <ele>1099.199951171875</ele>
        <time>2014-05-18T13:50:36Z</time>
      </trkpt>
      <trkpt lat="45.274326866492629" lon="5.762147214263678">
        <ele>1098.5999755859375</ele>
        <time>2014-05-18T13:50:37Z</time>
      </trkpt>
      <trkpt lat="45.27453993447125" lon="5.762029113247991">
        <ele>1097.199951171875</ele>
        <time>2014-05-18T13:50:39Z</time>
      </trkpt>
      <trkpt lat="45.274743111804128" lon="5.761911850422621">
        <ele>1095.800048828125</ele>
        <time>2014-05-18T13:50:41Z</time>
      </trkpt>
      <trkpt lat="45.274840090423822" lon="5.761847561225295">
        <ele>1095.4000244140625</ele>
        <time>2014-05-18T13:50:42Z</time>
      </trkpt>
      <trkpt lat="45.275028683245182" lon="5.761724850162864">
        <ele>1094.199951171875</ele>
        <time>2014-05-18T13:50:44Z</time>
      </trkpt>
      <trkpt lat="45.275207301601768" lon="5.761604821309447">
        <ele>1092</ele>
        <time>2014-05-18T13:50:46Z</time>
      </trkpt>
      <trkpt lat="45.275291623547673" lon="5.761550003662705">
        <ele>1091</ele>
        <time>2014-05-18T13:50:47Z</time>
      </trkpt>
      <trkpt lat="45.275372676551342" lon="5.761499963700771">
        <ele>1090.800048828125</ele>
        <time>2014-05-18T13:50:48Z</time>
      </trkpt>
      <trkpt lat="45.275453981012106" lon="5.761462999507785">
        <ele>1090</ele>
        <time>2014-05-18T13:50:49Z</time>
      </trkpt>
      <trkpt lat="45.275534698739648" lon="5.761437518522143">
        <ele>1089.5999755859375</ele>
        <time>2014-05-18T13:50:50Z</time>
      </trkpt>
      <trkpt lat="45.275613991543651" lon="5.761418743059039">
        <ele>1089.199951171875</ele>
        <time>2014-05-18T13:50:51Z</time>
      </trkpt>
      <trkpt lat="45.275772493332624" lon="5.761386724188924">
        <ele>1088.4000244140625</ele>
        <time>2014-05-18T13:50:53Z</time>
      </trkpt>
      <trkpt lat="45.275849439203739" lon="5.761360740289092">
        <ele>1088.199951171875</ele>
        <time>2014-05-18T13:50:54Z</time>
      </trkpt>
      <trkpt lat="45.27591934427619" lon="5.761309610679746">
        <ele>1087.800048828125</ele>
        <time>2014-05-18T13:50:55Z</time>
      </trkpt>
      <trkpt lat="45.276018837466836" lon="5.761135183274746">
        <ele>1086.800048828125</ele>
        <time>2014-05-18T13:50:57Z</time>
      </trkpt>
      <trkpt lat="45.276039959862828" lon="5.761011298745871">
        <ele>1086.4000244140625</ele>
        <time>2014-05-18T13:50:58Z</time>
      </trkpt>
      <trkpt lat="45.27603711001575" lon="5.760883893817663">
        <ele>1085.800048828125</ele>
        <time>2014-05-18T13:50:59Z</time>
      </trkpt>
      <trkpt lat="45.276009785011411" lon="5.760765541344881">
        <ele>1085.199951171875</ele>
        <time>2014-05-18T13:51:00Z</time>
      </trkpt>
      <trkpt lat="45.275832004845142" lon="5.760642327368259">
        <ele>1084.199951171875</ele>
        <time>2014-05-18T13:51:02Z</time>
      </trkpt>
      <trkpt lat="45.275615332648158" lon="5.760596729815006">
        <ele>1082.4000244140625</ele>
        <time>2014-05-18T13:51:04Z</time>
      </trkpt>
      <trkpt lat="45.275505026802421" lon="5.760585246607661">
        <ele>1081.5999755859375</ele>
        <time>2014-05-18T13:51:05Z</time>
      </trkpt>
      <trkpt lat="45.275394637137651" lon="5.76057443395257">
        <ele>1080.5999755859375</ele>
        <time>2014-05-18T13:51:06Z</time>
      </trkpt>
      <trkpt lat="45.275289947167039" lon="5.760550796985626">
        <ele>1079.5999755859375</ele>
        <time>2014-05-18T13:51:07Z</time>
      </trkpt>
      <trkpt lat="45.275186095386744" lon="5.760510144755244">
        <ele>1078.4000244140625</ele>
        <time>2014-05-18T13:51:08Z</time>
      </trkpt>
      <trkpt lat="45.275082914158702" lon="5.76045767404139">
        <ele>1077.5999755859375</ele>
        <time>2014-05-18T13:51:09Z</time>
      </trkpt>
      <trkpt lat="45.274977302178741" lon="5.760400090366602">
        <ele>1076.199951171875</ele>
        <time>2014-05-18T13:51:10Z</time>
      </trkpt>
      <trkpt lat="45.27487026527524" lon="5.76034183613956">
        <ele>1073.5999755859375</ele>
        <time>2014-05-18T13:51:11Z</time>
      </trkpt>
      <trkpt lat="45.274761635810137" lon="5.760281486436725">
        <ele>1072.4000244140625</ele>
        <time>2014-05-18T13:51:12Z</time>
      </trkpt>
      <trkpt lat="45.274653006345034" lon="5.760216861963272">
        <ele>1071.199951171875</ele>
        <time>2014-05-18T13:51:13Z</time>
      </trkpt>
      <trkpt lat="45.274441866204143" lon="5.760061964392662">
        <ele>1069</ele>
        <time>2014-05-18T13:51:15Z</time>
      </trkpt>
      <trkpt lat="45.27434203773737" lon="5.759969344362617">
        <ele>1067.5999755859375</ele>
        <time>2014-05-18T13:51:16Z</time>
      </trkpt>
      <trkpt lat="45.274169454351068" lon="5.759755354374647">
        <ele>1066.5999755859375</ele>
        <time>2014-05-18T13:51:18Z</time>
      </trkpt>
      <trkpt lat="45.274094603955746" lon="5.759651754051447">
        <ele>1066.4000244140625</ele>
        <time>2014-05-18T13:51:19Z</time>
      </trkpt>
      <trkpt lat="45.273887906223536" lon="5.759351011365652">
        <ele>1065</ele>
        <time>2014-05-18T13:51:22Z</time>
      </trkpt>
      <trkpt lat="45.273822695016861" lon="5.759253865107894">
        <ele>1064.5999755859375</ele>
        <time>2014-05-18T13:51:23Z</time>
      </trkpt>
      <trkpt lat="45.273760752752423" lon="5.75916426256299">
        <ele>1063.800048828125</ele>
        <time>2014-05-18T13:51:24Z</time>
      </trkpt>
      <trkpt lat="45.273584062233567" lon="5.758914398029447">
        <ele>1062.4000244140625</ele>
        <time>2014-05-18T13:51:27Z</time>
      </trkpt>
      <trkpt lat="45.273530082777143" lon="5.758839631453157">
        <ele>1062.199951171875</ele>
        <time>2014-05-18T13:51:28Z</time>
      </trkpt>
      <trkpt lat="45.273483227938414" lon="5.758764194324613">
        <ele>1061.800048828125</ele>
        <time>2014-05-18T13:51:29Z</time>
      </trkpt>
      <trkpt lat="45.273444335907698" lon="5.758684230968356">
        <ele>1061.4000244140625</ele>
        <time>2014-05-18T13:51:30Z</time>
      </trkpt>
      <trkpt lat="45.273409551009536" lon="5.758510390296578">
        <ele>1060.199951171875</ele>
        <time>2014-05-18T13:51:32Z</time>
      </trkpt>
      <trkpt lat="45.273456070572138" lon="5.758250216022134">
        <ele>1058.5999755859375</ele>
        <time>2014-05-18T13:51:35Z</time>
      </trkpt>
      <trkpt lat="45.273612309247255" lon="5.758110992610455">
        <ele>1057.800048828125</ele>
        <time>2014-05-18T13:51:38Z</time>
      </trkpt>
      <trkpt lat="45.27367802336812" lon="5.758093474432826">
        <ele>1057.199951171875</ele>
        <time>2014-05-18T13:51:39Z</time>
      </trkpt>
      <trkpt lat="45.273901568725705" lon="5.758092720061541">
        <ele>1056</ele>
        <time>2014-05-18T13:51:42Z</time>
      </trkpt>
      <trkpt lat="45.274164173752069" lon="5.758128678426147">
        <ele>1054.4000244140625</ele>
        <time>2014-05-18T13:51:45Z</time>
      </trkpt>
      <trkpt lat="45.274348659440875" lon="5.758152566850185">
        <ele>1053</ele>
        <time>2014-05-18T13:51:47Z</time>
      </trkpt>
      <trkpt lat="45.274528702721" lon="5.758211575448513">
        <ele>1051.4000244140625</ele>
        <time>2014-05-18T13:51:49Z</time>
      </trkpt>
      <trkpt lat="45.274692233651876" lon="5.758298914879561">
        <ele>1051.199951171875</ele>
        <time>2014-05-18T13:51:51Z</time>
      </trkpt>
      <trkpt lat="45.274936817586422" lon="5.75841911137104">
        <ele>1049.5999755859375</ele>
        <time>2014-05-18T13:51:54Z</time>
      </trkpt>
      <trkpt lat="45.27511359192431" lon="5.758431265130639">
        <ele>1047.800048828125</ele>
        <time>2014-05-18T13:51:56Z</time>
      </trkpt>
      <trkpt lat="45.275282822549343" lon="5.758379548788071">
        <ele>1046.800048828125</ele>
        <time>2014-05-18T13:51:58Z</time>
      </trkpt>
      <trkpt lat="45.275361863896251" lon="5.758344428613782">
        <ele>1045.800048828125</ele>
        <time>2014-05-18T13:51:59Z</time>
      </trkpt>
      <trkpt lat="45.275437971577048" lon="5.758313164114952">
        <ele>1045.199951171875</ele>
        <time>2014-05-18T13:52:00Z</time>
      </trkpt>
      <trkpt lat="45.275588845834136" lon="5.758263627067208">
        <ele>1044</ele>
        <time>2014-05-18T13:52:02Z</time>
      </trkpt>
      <trkpt lat="45.275659589096904" lon="5.758250299841166">
        <ele>1043.800048828125</ele>
        <time>2014-05-18T13:52:03Z</time>
      </trkpt>
      <trkpt lat="45.275731002911925" lon="5.758249880746007">
        <ele>1043</ele>
        <time>2014-05-18T13:52:04Z</time>
      </trkpt>
      <trkpt lat="45.275804763659835" lon="5.758258514106274">
        <ele>1043</ele>
        <time>2014-05-18T13:52:05Z</time>
      </trkpt>
      <trkpt lat="45.275879614055157" lon="5.758272260427475">
        <ele>1042</ele>
        <time>2014-05-18T13:52:06Z</time>
      </trkpt>
      <trkpt lat="45.275953961536288" lon="5.758291622623801">
        <ele>1040.800048828125</ele>
        <time>2014-05-18T13:52:07Z</time>
      </trkpt>
      <trkpt lat="45.276240706443787" lon="5.758409975096583">
        <ele>1040.199951171875</ele>
        <time>2014-05-18T13:52:11Z</time>
      </trkpt>
      <trkpt lat="45.276430975645781" lon="5.75848700478673">
        <ele>1039.5999755859375</ele>
        <time>2014-05-18T13:52:14Z</time>
      </trkpt>
      <trkpt lat="45.276565002277493" lon="5.758512569591403">
        <ele>1038.5999755859375</ele>
        <time>2014-05-18T13:52:16Z</time>
      </trkpt>
      <trkpt lat="45.276631889864802" lon="5.758508630096912">
        <ele>1038.199951171875</ele>
        <time>2014-05-18T13:52:17Z</time>
      </trkpt>
      <trkpt lat="45.276752840727568" lon="5.758428499102593">
        <ele>1037.4000244140625</ele>
        <time>2014-05-18T13:52:19Z</time>
      </trkpt>
      <trkpt lat="45.27683699503541" lon="5.758278714492917">
        <ele>1036.5999755859375</ele>
        <time>2014-05-18T13:52:21Z</time>
      </trkpt>
      <trkpt lat="45.276869935914874" lon="5.758192045614123">
        <ele>1036.199951171875</ele>
        <time>2014-05-18T13:52:22Z</time>
      </trkpt>
      <trkpt lat="45.276885442435741" lon="5.758096911013126">
        <ele>1035.4000244140625</ele>
        <time>2014-05-18T13:52:23Z</time>
      </trkpt>
      <trkpt lat="45.27686582878232" lon="5.757895829156041">
        <ele>1034.4000244140625</ele>
        <time>2014-05-18T13:52:25Z</time>
      </trkpt>
      <trkpt lat="45.276833390817046" lon="5.757802622392774">
        <ele>1034</ele>
        <time>2014-05-18T13:52:26Z</time>
      </trkpt>
      <trkpt lat="45.27673976495862" lon="5.757665745913982">
        <ele>1033.199951171875</ele>
        <time>2014-05-18T13:52:28Z</time>
      </trkpt>
      <trkpt lat="45.276680588722229" lon="5.757617130875588">
        <ele>1032.5999755859375</ele>
        <time>2014-05-18T13:52:29Z</time>
      </trkpt>
      <trkpt lat="45.276535414159298" lon="5.757568934932351">
        <ele>1031.4000244140625</ele>
        <time>2014-05-18T13:52:31Z</time>
      </trkpt>
      <trkpt lat="45.27646123431623" lon="5.757558038458228">
        <ele>1030.4000244140625</ele>
        <time>2014-05-18T13:52:32Z</time>
      </trkpt>
      <trkpt lat="45.276391748338938" lon="5.757548399269581">
        <ele>1030</ele>
        <time>2014-05-18T13:52:33Z</time>
      </trkpt>
      <trkpt lat="45.276265097782016" lon="5.757530126720667">
        <ele>1029.199951171875</ele>
        <time>2014-05-18T13:52:35Z</time>
      </trkpt>
      <trkpt lat="45.276204580441117" lon="5.757499281316996">
        <ele>1028.800048828125</ele>
        <time>2014-05-18T13:52:36Z</time>
      </trkpt>
      <trkpt lat="45.276026716455817" lon="5.757347987964749">
        <ele>1028.4000244140625</ele>
        <time>2014-05-18T13:52:39Z</time>
      </trkpt>
      <trkpt lat="45.275970976799726" lon="5.757286800071597">
        <ele>1028</ele>
        <time>2014-05-18T13:52:40Z</time>
      </trkpt>
      <trkpt lat="45.275916578248143" lon="5.757232066243887">
        <ele>1027.800048828125</ele>
        <time>2014-05-18T13:52:41Z</time>
      </trkpt>
      <trkpt lat="45.275861090049148" lon="5.757186887785792">
        <ele>1026.800048828125</ele>
        <time>2014-05-18T13:52:42Z</time>
      </trkpt>
      <trkpt lat="45.275802165269852" lon="5.757144810631871">
        <ele>1026.4000244140625</ele>
        <time>2014-05-18T13:52:43Z</time>
      </trkpt>
      <trkpt lat="45.275739133358002" lon="5.757107511162758">
        <ele>1025.800048828125</ele>
        <time>2014-05-18T13:52:44Z</time>
      </trkpt>
      <trkpt lat="45.27567065320909" lon="5.757075492292643">
        <ele>1025.4000244140625</ele>
        <time>2014-05-18T13:52:45Z</time>
      </trkpt>
      <trkpt lat="45.275597646832466" lon="5.757043305784464">
        <ele>1025</ele>
        <time>2014-05-18T13:52:46Z</time>
      </trkpt>
      <trkpt lat="45.275522461161017" lon="5.757012879475951">
        <ele>1023.4000244140625</ele>
        <time>2014-05-18T13:52:47Z</time>
      </trkpt>
      <trkpt lat="45.275377286598086" lon="5.756963845342398">
        <ele>1022.2000122070312</ele>
        <time>2014-05-18T13:52:49Z</time>
      </trkpt>
      <trkpt lat="45.275312326848507" lon="5.756960324943066">
        <ele>1021.5999755859375</ele>
        <time>2014-05-18T13:52:50Z</time>
      </trkpt>
      <trkpt lat="45.275245187804103" lon="5.756972562521696">
        <ele>1020.7999877929687</ele>
        <time>2014-05-18T13:52:51Z</time>
      </trkpt>
      <trkpt lat="45.275112669914961" lon="5.757033247500658">
        <ele>1019.5999755859375</ele>
        <time>2014-05-18T13:52:53Z</time>
      </trkpt>
      <trkpt lat="45.275053661316633" lon="5.757074235007167">
        <ele>1019</ele>
        <time>2014-05-18T13:52:54Z</time>
      </trkpt>
      <trkpt lat="45.274996915832162" lon="5.757125029340386">
        <ele>1018.4000244140625</ele>
        <time>2014-05-18T13:52:55Z</time>
      </trkpt>
      <trkpt lat="45.274942349642515" lon="5.757175739854574">
        <ele>1018.2000122070312</ele>
        <time>2014-05-18T13:52:56Z</time>
      </trkpt>
      <trkpt lat="45.274838162586093" lon="5.757249165326357">
        <ele>1017</ele>
        <time>2014-05-18T13:52:58Z</time>
      </trkpt>
      <trkpt lat="45.274782506749034" lon="5.757264085114002">
        <ele>1016.4000244140625</ele>
        <time>2014-05-18T13:52:59Z</time>
      </trkpt>
      <trkpt lat="45.274722576141357" lon="5.757264671847224">
        <ele>1015.7999877929687</ele>
        <time>2014-05-18T13:53:00Z</time>
      </trkpt>
      <trkpt lat="45.274657448753715" lon="5.757246818393469">
        <ele>1015.4000244140625</ele>
        <time>2014-05-18T13:53:01Z</time>
      </trkpt>
      <trkpt lat="45.274529624730349" lon="5.7571657653898">
        <ele>1014</ele>
        <time>2014-05-18T13:53:03Z</time>
      </trkpt>
      <trkpt lat="45.274472376331687" lon="5.757115809246898">
        <ele>1013.2000122070312</ele>
        <time>2014-05-18T13:53:04Z</time>
      </trkpt>
      <trkpt lat="45.27441387064755" lon="5.757062081247568">
        <ele>1012.5999755859375</ele>
        <time>2014-05-18T13:53:05Z</time>
      </trkpt>
      <trkpt lat="45.274289986118674" lon="5.756943058222532">
        <ele>1011.2000122070312</ele>
        <time>2014-05-18T13:53:07Z</time>
      </trkpt>
      <trkpt lat="45.274161156266928" lon="5.756785310804844">
        <ele>1009.4000244140625</ele>
        <time>2014-05-18T13:53:09Z</time>
      </trkpt>
      <trkpt lat="45.27409091591835" lon="5.756693361327052">
        <ele>1008.5999755859375</ele>
        <time>2014-05-18T13:53:10Z</time>
      </trkpt>
      <trkpt lat="45.274015311151743" lon="5.756595712155104">
        <ele>1006</ele>
        <time>2014-05-18T13:53:11Z</time>
      </trkpt>
      <trkpt lat="45.273940628394485" lon="5.756492363288999">
        <ele>1004.7999877929687</ele>
        <time>2014-05-18T13:53:12Z</time>
      </trkpt>
      <trkpt lat="45.273799812421203" lon="5.756281558424234">
        <ele>1003.4000244140625</ele>
        <time>2014-05-18T13:53:14Z</time>
      </trkpt>
      <trkpt lat="45.273743905127048" lon="5.756181813776493">
        <ele>1003.2000122070312</ele>
        <time>2014-05-18T13:53:15Z</time>
      </trkpt>
      <trkpt lat="45.2736462559551" lon="5.755974110215902">
        <ele>1003.5999755859375</ele>
        <time>2014-05-18T13:53:17Z</time>
      </trkpt>
      <trkpt lat="45.273601664230227" lon="5.755879059433937">
        <ele>1003.4000244140625</ele>
        <time>2014-05-18T13:53:18Z</time>
      </trkpt>
      <trkpt lat="45.273428410291672" lon="5.755619974806905">
        <ele>1001</ele>
        <time>2014-05-18T13:53:21Z</time>
      </trkpt>
      <trkpt lat="45.273358253762126" lon="5.755540765821934">
        <ele>999.79998779296875</ele>
        <time>2014-05-18T13:53:22Z</time>
      </trkpt>
      <trkpt lat="45.27328172698617" lon="5.755471531301737">
        <ele>998.4000244140625</ele>
        <time>2014-05-18T13:53:23Z</time>
      </trkpt>
      <trkpt lat="45.273127751424909" lon="5.755327697843313">
        <ele>996.5999755859375</ele>
        <time>2014-05-18T13:53:25Z</time>
      </trkpt>
      <trkpt lat="45.273052314296365" lon="5.755245890468359">
        <ele>995.5999755859375</ele>
        <time>2014-05-18T13:53:26Z</time>
      </trkpt>
      <trkpt lat="45.272871600463986" lon="5.755080096423626">
        <ele>993</ele>
        <time>2014-05-18T13:53:28Z</time>
      </trkpt>
      <trkpt lat="45.272795241326094" lon="5.754995439201593">
        <ele>991.4000244140625</ele>
        <time>2014-05-18T13:53:29Z</time>
      </trkpt>
      <trkpt lat="45.272725503891706" lon="5.754925953224301">
        <ele>990</ele>
        <time>2014-05-18T13:53:30Z</time>
      </trkpt>
      <trkpt lat="45.272575886920094" lon="5.754833668470383">
        <ele>988.4000244140625</ele>
        <time>2014-05-18T13:53:32Z</time>
      </trkpt>
      <trkpt lat="45.272490307688713" lon="5.754801901057363">
        <ele>987.4000244140625</ele>
        <time>2014-05-18T13:53:33Z</time>
      </trkpt>
      <trkpt lat="45.272395676001906" lon="5.754773067310453">
        <ele>986.20001220703125</ele>
        <time>2014-05-18T13:53:34Z</time>
      </trkpt>
      <trkpt lat="45.272289058193564" lon="5.754750100895762">
        <ele>984</ele>
        <time>2014-05-18T13:53:35Z</time>
      </trkpt>
      <trkpt lat="45.272176321595907" lon="5.754725793376565">
        <ele>983.20001220703125</ele>
        <time>2014-05-18T13:53:36Z</time>
      </trkpt>
      <trkpt lat="45.27206995524466" lon="5.75469721108675">
        <ele>982.20001220703125</ele>
        <time>2014-05-18T13:53:37Z</time>
      </trkpt>
      <trkpt lat="45.271972306072712" lon="5.754671646282077">
        <ele>981</ele>
        <time>2014-05-18T13:53:38Z</time>
      </trkpt>
      <trkpt lat="45.271868957206607" lon="5.754661168903112">
        <ele>979.5999755859375</ele>
        <time>2014-05-18T13:53:39Z</time>
      </trkpt>
      <trkpt lat="45.271656727418303" lon="5.754659492522478">
        <ele>977.79998779296875</ele>
        <time>2014-05-18T13:53:41Z</time>
      </trkpt>
      <trkpt lat="45.271443240344524" lon="5.754632838070393">
        <ele>976</ele>
        <time>2014-05-18T13:53:43Z</time>
      </trkpt>
      <trkpt lat="45.271225059404969" lon="5.7545599155128">
        <ele>974</ele>
        <time>2014-05-18T13:53:45Z</time>
      </trkpt>
      <trkpt lat="45.271037556231022" lon="5.754485316574574">
        <ele>972.4000244140625</ele>
        <time>2014-05-18T13:53:47Z</time>
      </trkpt>
      <trkpt lat="45.27084544301033" lon="5.754408705979586">
        <ele>970.79998779296875</ele>
        <time>2014-05-18T13:53:49Z</time>
      </trkpt>
      <trkpt lat="45.270646288990974" lon="5.754288677126169">
        <ele>969</ele>
        <time>2014-05-18T13:53:51Z</time>
      </trkpt>
      <trkpt lat="45.270527517423034" lon="5.754214162006974">
        <ele>968</ele>
        <time>2014-05-18T13:53:52Z</time>
      </trkpt>
      <trkpt lat="45.270402124151587" lon="5.754135120660067">
        <ele>966.79998779296875</ele>
        <time>2014-05-18T13:53:53Z</time>
      </trkpt>
      <trkpt lat="45.270276227965951" lon="5.754059096798301">
        <ele>965.5999755859375</ele>
        <time>2014-05-18T13:53:54Z</time>
      </trkpt>
      <trkpt lat="45.270157875493169" lon="5.753975193947554">
        <ele>964.20001220703125</ele>
        <time>2014-05-18T13:53:55Z</time>
      </trkpt>
      <trkpt lat="45.269939107820392" lon="5.753792468458414">
        <ele>962</ele>
        <time>2014-05-18T13:53:57Z</time>
      </trkpt>
      <trkpt lat="45.269895773380995" lon="5.753667326644063">
        <ele>961</ele>
        <time>2014-05-18T13:53:58Z</time>
      </trkpt>
      <trkpt lat="45.269865766167641" lon="5.753535060212016">
        <ele>958.4000244140625</ele>
        <time>2014-05-18T13:53:59Z</time>
      </trkpt>
      <trkpt lat="45.269827796146274" lon="5.753401704132557">
        <ele>957</ele>
        <time>2014-05-18T13:54:00Z</time>
      </trkpt>
      <trkpt lat="45.269780438393354" lon="5.75314974412322">
        <ele>955.5999755859375</ele>
        <time>2014-05-18T13:54:02Z</time>
      </trkpt>
      <trkpt lat="45.269753616303205" lon="5.753028457984328">
        <ele>955</ele>
        <time>2014-05-18T13:54:03Z</time>
      </trkpt>
      <trkpt lat="45.269706342369318" lon="5.752917481586337">
        <ele>954</ele>
        <time>2014-05-18T13:54:04Z</time>
      </trkpt>
      <trkpt lat="45.269627384841442" lon="5.752707095816732">
        <ele>952.5999755859375</ele>
        <time>2014-05-18T13:54:06Z</time>
      </trkpt>
      <trkpt lat="45.269555384293199" lon="5.75249738059938">
        <ele>951</ele>
        <time>2014-05-18T13:54:08Z</time>
      </trkpt>
      <trkpt lat="45.269456896930933" lon="5.752318426966667">
        <ele>949.5999755859375</ele>
        <time>2014-05-18T13:54:10Z</time>
      </trkpt>
      <trkpt lat="45.269398726522923" lon="5.752246426418424">
        <ele>949</ele>
        <time>2014-05-18T13:54:11Z</time>
      </trkpt>
      <trkpt lat="45.269289594143629" lon="5.752223208546639">
        <ele>948.20001220703125</ele>
        <time>2014-05-18T13:54:12Z</time>
      </trkpt>
      <trkpt lat="45.269098905846477" lon="5.752261765301228">
        <ele>947.4000244140625</ele>
        <time>2014-05-18T13:54:13Z</time>
      </trkpt>
      <trkpt lat="45.268989773467183" lon="5.752267800271511">
        <ele>946.5999755859375</ele>
        <time>2014-05-18T13:54:14Z</time>
      </trkpt>
      <trkpt lat="45.268820459023118" lon="5.752323204651475">
        <ele>944.79998779296875</ele>
        <time>2014-05-18T13:54:16Z</time>
      </trkpt>
      <trkpt lat="45.268695736303926" lon="5.752413393929601">
        <ele>943.79998779296875</ele>
        <time>2014-05-18T13:54:18Z</time>
      </trkpt>
      <trkpt lat="45.268651312217116" lon="5.752477934584022">
        <ele>943.5999755859375</ele>
        <time>2014-05-18T13:54:19Z</time>
      </trkpt>
      <trkpt lat="45.268616192042828" lon="5.752545408904553">
        <ele>943.4000244140625</ele>
        <time>2014-05-18T13:54:20Z</time>
      </trkpt>
      <trkpt lat="45.268588280305266" lon="5.752623612061143">
        <ele>943.20001220703125</ele>
        <time>2014-05-18T13:54:21Z</time>
      </trkpt>
      <trkpt lat="45.268561625853181" lon="5.752784125506878">
        <ele>942.20001220703125</ele>
        <time>2014-05-18T13:54:23Z</time>
      </trkpt>
      <trkpt lat="45.268540252000093" lon="5.75296307913959">
        <ele>941.20001220703125</ele>
        <time>2014-05-18T13:54:25Z</time>
      </trkpt>
      <trkpt lat="45.268534384667873" lon="5.753056285902858">
        <ele>940.5999755859375</ele>
        <time>2014-05-18T13:54:26Z</time>
      </trkpt>
      <trkpt lat="45.268549304455519" lon="5.753252506256104">
        <ele>938.4000244140625</ele>
        <time>2014-05-18T13:54:28Z</time>
      </trkpt>
      <trkpt lat="45.268557602539659" lon="5.753364572301507">
        <ele>937.20001220703125</ele>
        <time>2014-05-18T13:54:29Z</time>
      </trkpt>
      <trkpt lat="45.268571097403765" lon="5.753582837060094">
        <ele>935.5999755859375</ele>
        <time>2014-05-18T13:54:31Z</time>
      </trkpt>
      <trkpt lat="45.268576461821795" lon="5.753685012459755">
        <ele>934.20001220703125</ele>
        <time>2014-05-18T13:54:32Z</time>
      </trkpt>
      <trkpt lat="45.268572689965367" lon="5.753783332183957">
        <ele>933.5999755859375</ele>
        <time>2014-05-18T13:54:33Z</time>
      </trkpt>
      <trkpt lat="45.268549807369709" lon="5.753864385187626">
        <ele>933</ele>
        <time>2014-05-18T13:54:34Z</time>
      </trkpt>
      <trkpt lat="45.268386444076896" lon="5.753942420706153">
        <ele>932</ele>
        <time>2014-05-18T13:54:37Z</time>
      </trkpt>
      <trkpt lat="45.268312431871891" lon="5.753934541717172">
        <ele>931.79998779296875</ele>
        <time>2014-05-18T13:54:38Z</time>
      </trkpt>
      <trkpt lat="45.268237665295601" lon="5.753928758203983">
        <ele>931.4000244140625</ele>
        <time>2014-05-18T13:54:39Z</time>
      </trkpt>
      <trkpt lat="45.268084779381752" lon="5.753934122622013">
        <ele>930.20001220703125</ele>
        <time>2014-05-18T13:54:41Z</time>
      </trkpt>
      <trkpt lat="45.268005905672908" lon="5.753936637192965">
        <ele>929.4000244140625</ele>
        <time>2014-05-18T13:54:42Z</time>
      </trkpt>
      <trkpt lat="45.267924601212144" lon="5.753927920013666">
        <ele>928.5999755859375</ele>
        <time>2014-05-18T13:54:43Z</time>
      </trkpt>
      <trkpt lat="45.267769284546375" lon="5.75388072989881">
        <ele>927.20001220703125</ele>
        <time>2014-05-18T13:54:45Z</time>
      </trkpt>
      <trkpt lat="45.267693512141705" lon="5.753844184800983">
        <ele>926</ele>
        <time>2014-05-18T13:54:46Z</time>
      </trkpt>
      <trkpt lat="45.267545152455568" lon="5.753759611397982">
        <ele>923.5999755859375</ele>
        <time>2014-05-18T13:54:48Z</time>
      </trkpt>
      <trkpt lat="45.267389249056578" lon="5.753709236159921">
        <ele>922</ele>
        <time>2014-05-18T13:54:50Z</time>
      </trkpt>
      <trkpt lat="45.267210211604834" lon="5.75372725725174">
        <ele>920.4000244140625</ele>
        <time>2014-05-18T13:54:52Z</time>
      </trkpt>
      <trkpt lat="45.26711817830801" lon="5.753741087391973">
        <ele>919.4000244140625</ele>
        <time>2014-05-18T13:54:53Z</time>
      </trkpt>
      <trkpt lat="45.26702580973506" lon="5.753735303878784">
        <ele>918.20001220703125</ele>
        <time>2014-05-18T13:54:54Z</time>
      </trkpt>
      <trkpt lat="45.266938889399171" lon="5.753707308322191">
        <ele>917.20001220703125</ele>
        <time>2014-05-18T13:54:55Z</time>
      </trkpt>
      <trkpt lat="45.266846939921379" lon="5.753649808466435">
        <ele>916.4000244140625</ele>
        <time>2014-05-18T13:54:56Z</time>
      </trkpt>
      <trkpt lat="45.266752978786826" lon="5.753580154851079">
        <ele>915.20001220703125</ele>
        <time>2014-05-18T13:54:57Z</time>
      </trkpt>
      <trkpt lat="45.266658347100019" lon="5.75349566526711">
        <ele>914.20001220703125</ele>
        <time>2014-05-18T13:54:58Z</time>
      </trkpt>
      <trkpt lat="45.26656505651772" lon="5.753398854285479">
        <ele>912.79998779296875</ele>
        <time>2014-05-18T13:54:59Z</time>
      </trkpt>
      <trkpt lat="45.266470341011882" lon="5.753299780189991">
        <ele>911.20001220703125</ele>
        <time>2014-05-18T13:55:00Z</time>
      </trkpt>
      <trkpt lat="45.26637596078217" lon="5.753204310312867">
        <ele>910</ele>
        <time>2014-05-18T13:55:01Z</time>
      </trkpt>
      <trkpt lat="45.266282083466649" lon="5.753113869577646">
        <ele>908.5999755859375</ele>
        <time>2014-05-18T13:55:02Z</time>
      </trkpt>
      <trkpt lat="45.266182087361813" lon="5.753027368336916">
        <ele>907.5999755859375</ele>
        <time>2014-05-18T13:55:03Z</time>
      </trkpt>
      <trkpt lat="45.266081504523754" lon="5.752936257049441">
        <ele>906.20001220703125</ele>
        <time>2014-05-18T13:55:04Z</time>
      </trkpt>
      <trkpt lat="45.265986202284694" lon="5.752836344763637">
        <ele>905.20001220703125</ele>
        <time>2014-05-18T13:55:05Z</time>
      </trkpt>
      <trkpt lat="45.265900120139122" lon="5.752728385850787">
        <ele>904.20001220703125</ele>
        <time>2014-05-18T13:55:06Z</time>
      </trkpt>
      <trkpt lat="45.26581940241158" lon="5.752617157995701">
        <ele>903</ele>
        <time>2014-05-18T13:55:07Z</time>
      </trkpt>
      <trkpt lat="45.265739439055324" lon="5.752509869635105">
        <ele>901.79998779296875</ele>
        <time>2014-05-18T13:55:08Z</time>
      </trkpt>
      <trkpt lat="45.265661487355828" lon="5.752412136644125">
        <ele>901.4000244140625</ele>
        <time>2014-05-18T13:55:09Z</time>
      </trkpt>
      <trkpt lat="45.265586636960506" lon="5.752320187166333">
        <ele>900.5999755859375</ele>
        <time>2014-05-18T13:55:10Z</time>
      </trkpt>
      <trkpt lat="45.265506505966187" lon="5.752227902412415">
        <ele>899.5999755859375</ele>
        <time>2014-05-18T13:55:11Z</time>
      </trkpt>
      <trkpt lat="45.265418328344822" lon="5.752134192734957">
        <ele>897.20001220703125</ele>
        <time>2014-05-18T13:55:12Z</time>
      </trkpt>
      <trkpt lat="45.265330988913774" lon="5.752038639038801">
        <ele>896</ele>
        <time>2014-05-18T13:55:13Z</time>
      </trkpt>
      <trkpt lat="45.265243649482727" lon="5.751940654590726">
        <ele>894.5999755859375</ele>
        <time>2014-05-18T13:55:14Z</time>
      </trkpt>
      <trkpt lat="45.265158321708441" lon="5.751845017075539">
        <ele>893.5999755859375</ele>
        <time>2014-05-18T13:55:15Z</time>
      </trkpt>
      <trkpt lat="45.265072742477059" lon="5.751750133931637">
        <ele>892.4000244140625</ele>
        <time>2014-05-18T13:55:16Z</time>
      </trkpt>
      <trkpt lat="45.264987330883741" lon="5.751659022644162">
        <ele>891.4000244140625</ele>
        <time>2014-05-18T13:55:17Z</time>
      </trkpt>
      <trkpt lat="45.264814412221313" lon="5.751504963263869">
        <ele>889.79998779296875</ele>
        <time>2014-05-18T13:55:19Z</time>
      </trkpt>
      <trkpt lat="45.264724809676409" lon="5.751449139788747">
        <ele>889.20001220703125</ele>
        <time>2014-05-18T13:55:20Z</time>
      </trkpt>
      <trkpt lat="45.264630345627666" lon="5.751398596912623">
        <ele>888.4000244140625</ele>
        <time>2014-05-18T13:55:21Z</time>
      </trkpt>
      <trkpt lat="45.264533367007971" lon="5.751342689618468">
        <ele>887.5999755859375</ele>
        <time>2014-05-18T13:55:22Z</time>
      </trkpt>
      <trkpt lat="45.264435550197959" lon="5.751276137307286">
        <ele>886.4000244140625</ele>
        <time>2014-05-18T13:55:23Z</time>
      </trkpt>
      <trkpt lat="45.264337984845042" lon="5.751209333539009">
        <ele>885</ele>
        <time>2014-05-18T13:55:24Z</time>
      </trkpt>
      <trkpt lat="45.264235557988286" lon="5.751147475093603">
        <ele>883.79998779296875</ele>
        <time>2014-05-18T13:55:25Z</time>
      </trkpt>
      <trkpt lat="45.264130365103483" lon="5.751086957752705">
        <ele>882.4000244140625</ele>
        <time>2014-05-18T13:55:26Z</time>
      </trkpt>
      <trkpt lat="45.264031710103154" lon="5.75103054754436">
        <ele>881.20001220703125</ele>
        <time>2014-05-18T13:55:27Z</time>
      </trkpt>
      <trkpt lat="45.263856025412679" lon="5.750947818160057">
        <ele>879.79998779296875</ele>
        <time>2014-05-18T13:55:29Z</time>
      </trkpt>
      <trkpt lat="45.263766758143902" lon="5.750932730734348">
        <ele>879.4000244140625</ele>
        <time>2014-05-18T13:55:30Z</time>
      </trkpt>
      <trkpt lat="45.263680759817362" lon="5.750936167314649">
        <ele>878.5999755859375</ele>
        <time>2014-05-18T13:55:31Z</time>
      </trkpt>
      <trkpt lat="45.263505075126886" lon="5.750921331346035">
        <ele>876.79998779296875</ele>
        <time>2014-05-18T13:55:33Z</time>
      </trkpt>
      <trkpt lat="45.26333324611187" lon="5.750821335241199">
        <ele>874.5999755859375</ele>
        <time>2014-05-18T13:55:35Z</time>
      </trkpt>
      <trkpt lat="45.263250265270472" lon="5.750754196196795">
        <ele>872.20001220703125</ele>
        <time>2014-05-18T13:55:36Z</time>
      </trkpt>
      <trkpt lat="45.26316368021071" lon="5.750689236447215">
        <ele>871.20001220703125</ele>
        <time>2014-05-18T13:55:37Z</time>
      </trkpt>
      <trkpt lat="45.263079106807709" lon="5.750621594488621">
        <ele>870.5999755859375</ele>
        <time>2014-05-18T13:55:38Z</time>
      </trkpt>
      <trkpt lat="45.262997802346945" lon="5.750532243400812">
        <ele>869.79998779296875</ele>
        <time>2014-05-18T13:55:39Z</time>
      </trkpt>
      <trkpt lat="45.262922365218401" lon="5.750425541773439">
        <ele>869</ele>
        <time>2014-05-18T13:55:40Z</time>
      </trkpt>
      <trkpt lat="45.262858578935266" lon="5.750303668901324">
        <ele>867.79998779296875</ele>
        <time>2014-05-18T13:55:41Z</time>
      </trkpt>
      <trkpt lat="45.262802923098207" lon="5.750174671411514">
        <ele>866.5999755859375</ele>
        <time>2014-05-18T13:55:42Z</time>
      </trkpt>
      <trkpt lat="45.262742573395371" lon="5.750054055824876">
        <ele>865</ele>
        <time>2014-05-18T13:55:43Z</time>
      </trkpt>
      <trkpt lat="45.262672584503889" lon="5.749947354197502">
        <ele>864</ele>
        <time>2014-05-18T13:55:44Z</time>
      </trkpt>
      <trkpt lat="45.262598991394043" lon="5.749856745824218">
        <ele>862.79998779296875</ele>
        <time>2014-05-18T13:55:45Z</time>
      </trkpt>
      <trkpt lat="45.262528331950307" lon="5.749774938449264">
        <ele>861.79998779296875</ele>
        <time>2014-05-18T13:55:46Z</time>
      </trkpt>
      <trkpt lat="45.262466976419091" lon="5.749683324247599">
        <ele>861.20001220703125</ele>
        <time>2014-05-18T13:55:47Z</time>
      </trkpt>
      <trkpt lat="45.262386929243803" lon="5.749445781111717">
        <ele>859.79998779296875</ele>
        <time>2014-05-18T13:55:49Z</time>
      </trkpt>
      <trkpt lat="45.26237066835165" lon="5.749325752258301">
        <ele>858.79998779296875</ele>
        <time>2014-05-18T13:55:50Z</time>
      </trkpt>
      <trkpt lat="45.26235650293529" lon="5.749105978757143">
        <ele>857.20001220703125</ele>
        <time>2014-05-18T13:55:52Z</time>
      </trkpt>
      <trkpt lat="45.262339655309916" lon="5.748996008187532">
        <ele>856.5999755859375</ele>
        <time>2014-05-18T13:55:53Z</time>
      </trkpt>
      <trkpt lat="45.262308390811086" lon="5.74889081530273">
        <ele>856</ele>
        <time>2014-05-18T13:55:54Z</time>
      </trkpt>
      <trkpt lat="45.262267151847482" lon="5.748785622417927">
        <ele>855</ele>
        <time>2014-05-18T13:55:55Z</time>
      </trkpt>
      <trkpt lat="45.262223314493895" lon="5.748676490038633">
        <ele>853.79998779296875</ele>
        <time>2014-05-18T13:55:56Z</time>
      </trkpt>
      <trkpt lat="45.262171849608421" lon="5.748569034039974">
        <ele>852.20001220703125</ele>
        <time>2014-05-18T13:55:57Z</time>
      </trkpt>
      <trkpt lat="45.262131784111261" lon="5.748463254421949">
        <ele>851.20001220703125</ele>
        <time>2014-05-18T13:55:58Z</time>
      </trkpt>
      <trkpt lat="45.262092472985387" lon="5.748359486460686">
        <ele>850.20001220703125</ele>
        <time>2014-05-18T13:55:59Z</time>
      </trkpt>
      <trkpt lat="45.262070344761014" lon="5.748253371566534">
        <ele>849.4000244140625</ele>
        <time>2014-05-18T13:56:00Z</time>
      </trkpt>
      <trkpt lat="45.261960625648499" lon="5.748090343549848">
        <ele>847.79998779296875</ele>
        <time>2014-05-18T13:56:02Z</time>
      </trkpt>
      <trkpt lat="45.261784102767706" lon="5.747961513698101">
        <ele>846.5999755859375</ele>
        <time>2014-05-18T13:56:05Z</time>
      </trkpt>
      <trkpt lat="45.261735152453184" lon="5.747941229492426">
        <ele>846</ele>
        <time>2014-05-18T13:56:06Z</time>
      </trkpt>
      <trkpt lat="45.261689051985741" lon="5.747931003570557">
        <ele>845.79998779296875</ele>
        <time>2014-05-18T13:56:07Z</time>
      </trkpt>
      <trkpt lat="45.261573130264878" lon="5.74795170687139">
        <ele>845.4000244140625</ele>
        <time>2014-05-18T13:56:10Z</time>
      </trkpt>
      <trkpt lat="45.262486003339291" lon="5.748528968542814">
        <ele>844.5999755859375</ele>
        <time>2014-05-18T13:58:40Z</time>
      </trkpt>
      <trkpt lat="45.262474520131946" lon="5.748557047918439">
        <ele>844.20001220703125</ele>
        <time>2014-05-18T13:58:41Z</time>
      </trkpt>
      <trkpt lat="45.262471251189709" lon="5.748583618551493">
        <ele>844</ele>
        <time>2014-05-18T13:58:42Z</time>
      </trkpt>
      <trkpt lat="45.26246840134263" lon="5.748624270781875">
        <ele>843.4000244140625</ele>
        <time>2014-05-18T13:58:53Z</time>
      </trkpt>
      <trkpt lat="45.262462198734283" lon="5.748668191954494">
        <ele>843</ele>
        <time>2014-05-18T13:58:54Z</time>
      </trkpt>
      <trkpt lat="45.262433029711246" lon="5.748794926330447">
        <ele>841.79998779296875</ele>
        <time>2014-05-18T13:58:56Z</time>
      </trkpt>
      <trkpt lat="45.262416936457157" lon="5.748874386772513">
        <ele>841</ele>
        <time>2014-05-18T13:58:57Z</time>
      </trkpt>
      <trkpt lat="45.262397825717926" lon="5.748962564393878">
        <ele>840.20001220703125</ele>
        <time>2014-05-18T13:58:58Z</time>
      </trkpt>
      <trkpt lat="45.262372847646475" lon="5.749050406739116">
        <ele>839.5999755859375</ele>
        <time>2014-05-18T13:58:59Z</time>
      </trkpt>
      <trkpt lat="45.262344097718596" lon="5.749137913808227">
        <ele>839.20001220703125</ele>
        <time>2014-05-18T13:59:00Z</time>
      </trkpt>
      <trkpt lat="45.262262877076864" lon="5.749304462224245">
        <ele>837.5999755859375</ele>
        <time>2014-05-18T13:59:02Z</time>
      </trkpt>
      <trkpt lat="45.262128012254834" lon="5.749402279034257">
        <ele>835.79998779296875</ele>
        <time>2014-05-18T13:59:04Z</time>
      </trkpt>
      <trkpt lat="45.261976383626461" lon="5.749409906566143">
        <ele>834.4000244140625</ele>
        <time>2014-05-18T13:59:06Z</time>
      </trkpt>
      <trkpt lat="45.261900024488568" lon="5.749377133324742">
        <ele>833.4000244140625</ele>
        <time>2014-05-18T13:59:07Z</time>
      </trkpt>
      <trkpt lat="45.261827437207103" lon="5.749319214373827">
        <ele>832.20001220703125</ele>
        <time>2014-05-18T13:59:08Z</time>
      </trkpt>
      <trkpt lat="45.261766416952014" lon="5.749241849407554">
        <ele>831</ele>
        <time>2014-05-18T13:59:09Z</time>
      </trkpt>
      <trkpt lat="45.261706234887242" lon="5.749147804453969">
        <ele>830.20001220703125</ele>
        <time>2014-05-18T13:59:10Z</time>
      </trkpt>
      <trkpt lat="45.261657284572721" lon="5.749042360112071">
        <ele>829.4000244140625</ele>
        <time>2014-05-18T13:59:11Z</time>
      </trkpt>
      <trkpt lat="45.261620571836829" lon="5.748927025124431">
        <ele>827.4000244140625</ele>
        <time>2014-05-18T13:59:12Z</time>
      </trkpt>
      <trkpt lat="45.261598108336329" lon="5.748812444508076">
        <ele>826.5999755859375</ele>
        <time>2014-05-18T13:59:13Z</time>
      </trkpt>
      <trkpt lat="45.261568939313293" lon="5.748715298250318">
        <ele>826.4000244140625</ele>
        <time>2014-05-18T13:59:14Z</time>
      </trkpt>
      <trkpt lat="45.261472295969725" lon="5.748593928292394">
        <ele>824.79998779296875</ele>
        <time>2014-05-18T13:59:16Z</time>
      </trkpt>
      <trkpt lat="45.261348327621818" lon="5.748578505590558">
        <ele>823.5999755859375</ele>
        <time>2014-05-18T13:59:18Z</time>
      </trkpt>
      <trkpt lat="45.261288899928331" lon="5.748606082051992">
        <ele>823</ele>
        <time>2014-05-18T13:59:19Z</time>
      </trkpt>
      <trkpt lat="45.261226203292608" lon="5.74864505790174">
        <ele>822.20001220703125</ele>
        <time>2014-05-18T13:59:20Z</time>
      </trkpt>
      <trkpt lat="45.261116567999125" lon="5.748765002936125">
        <ele>820.5999755859375</ele>
        <time>2014-05-18T13:59:22Z</time>
      </trkpt>
      <trkpt lat="45.260994108393788" lon="5.74884002096951">
        <ele>818.79998779296875</ele>
        <time>2014-05-18T13:59:24Z</time>
      </trkpt>
      <trkpt lat="45.260943230241537" lon="5.748835075646639">
        <ele>817.5999755859375</ele>
        <time>2014-05-18T13:59:25Z</time>
      </trkpt>
      <trkpt lat="45.26088229380548" lon="5.748778413981199">
        <ele>816.5999755859375</ele>
        <time>2014-05-18T13:59:26Z</time>
      </trkpt>
      <trkpt lat="45.260832589119673" lon="5.748694092035294">
        <ele>815.5999755859375</ele>
        <time>2014-05-18T13:59:27Z</time>
      </trkpt>
      <trkpt lat="45.260760923847556" lon="5.748479599133134">
        <ele>813.5999755859375</ele>
        <time>2014-05-18T13:59:29Z</time>
      </trkpt>
      <trkpt lat="45.260712811723351" lon="5.748373987153173">
        <ele>812.5999755859375</ele>
        <time>2014-05-18T13:59:30Z</time>
      </trkpt>
      <trkpt lat="45.260656317695975" lon="5.748275332152844">
        <ele>811.5999755859375</ele>
        <time>2014-05-18T13:59:31Z</time>
      </trkpt>
      <trkpt lat="45.26059010066092" lon="5.748192267492414">
        <ele>810.5999755859375</ele>
        <time>2014-05-18T13:59:32Z</time>
      </trkpt>
      <trkpt lat="45.260516172274947" lon="5.748125882819295">
        <ele>809.79998779296875</ele>
        <time>2014-05-18T13:59:33Z</time>
      </trkpt>
      <trkpt lat="45.260437969118357" lon="5.748057821765542">
        <ele>809</ele>
        <time>2014-05-18T13:59:34Z</time>
      </trkpt>
      <trkpt lat="45.26036093942821" lon="5.747966375201941">
        <ele>808.20001220703125</ele>
        <time>2014-05-18T13:59:35Z</time>
      </trkpt>
      <trkpt lat="45.260291453450918" lon="5.747854979708791">
        <ele>805.79998779296875</ele>
        <time>2014-05-18T13:59:36Z</time>
      </trkpt>
      <trkpt lat="45.260227667167783" lon="5.747739309445024">
        <ele>804.5999755859375</ele>
        <time>2014-05-18T13:59:37Z</time>
      </trkpt>
      <trkpt lat="45.26016790419817" lon="5.74762380681932">
        <ele>803.4000244140625</ele>
        <time>2014-05-18T13:59:38Z</time>
      </trkpt>
      <trkpt lat="45.260108560323715" lon="5.74752020649612">
        <ele>802.20001220703125</ele>
        <time>2014-05-18T13:59:39Z</time>
      </trkpt>
      <trkpt lat="45.260042594745755" lon="5.747425742447376">
        <ele>800.79998779296875</ele>
        <time>2014-05-18T13:59:40Z</time>
      </trkpt>
      <trkpt lat="45.259886272251606" lon="5.74726321734488">
        <ele>798.79998779296875</ele>
        <time>2014-05-18T13:59:42Z</time>
      </trkpt>
      <trkpt lat="45.259718298912048" lon="5.747164394706488">
        <ele>797.4000244140625</ele>
        <time>2014-05-18T13:59:44Z</time>
      </trkpt>
      <trkpt lat="45.259623415768147" lon="5.747134806588292">
        <ele>796.4000244140625</ele>
        <time>2014-05-18T13:59:45Z</time>
      </trkpt>
      <trkpt lat="45.259520066902041" lon="5.747108235955238">
        <ele>795.4000244140625</ele>
        <time>2014-05-18T13:59:46Z</time>
      </trkpt>
      <trkpt lat="45.259306496009231" lon="5.74703011661768">
        <ele>793.4000244140625</ele>
        <time>2014-05-18T13:59:48Z</time>
      </trkpt>
      <trkpt lat="45.259212702512741" lon="5.746957445517182">
        <ele>792.4000244140625</ele>
        <time>2014-05-18T13:59:49Z</time>
      </trkpt>
      <trkpt lat="45.259131398051977" lon="5.746872453019023">
        <ele>791.20001220703125</ele>
        <time>2014-05-18T13:59:50Z</time>
      </trkpt>
      <trkpt lat="45.258985050022602" lon="5.746742365881801">
        <ele>789.79998779296875</ele>
        <time>2014-05-18T13:59:52Z</time>
      </trkpt>
      <trkpt lat="45.258778184652328" lon="5.746756950393319">
        <ele>789.4000244140625</ele>
        <time>2014-05-18T13:59:55Z</time>
      </trkpt>
      <trkpt lat="45.258706184104085" lon="5.746798692271113">
        <ele>788.79998779296875</ele>
        <time>2014-05-18T13:59:56Z</time>
      </trkpt>
      <trkpt lat="45.258565871044993" lon="5.74690405279398">
        <ele>787.20001220703125</ele>
        <time>2014-05-18T13:59:58Z</time>
      </trkpt>
      <trkpt lat="45.258498061448336" lon="5.746954595670104">
        <ele>786.5999755859375</ele>
        <time>2014-05-18T13:59:59Z</time>
      </trkpt>
      <trkpt lat="45.258431257680058" lon="5.746995331719518">
        <ele>785.79998779296875</ele>
        <time>2014-05-18T14:00:00Z</time>
      </trkpt>
      <trkpt lat="45.25828524492681" lon="5.746993822976947">
        <ele>784.79998779296875</ele>
        <time>2014-05-18T14:00:02Z</time>
      </trkpt>
      <trkpt lat="45.258212573826313" lon="5.746951159089804">
        <ele>784</ele>
        <time>2014-05-18T14:00:03Z</time>
      </trkpt>
      <trkpt lat="45.258143590763211" lon="5.746884187683463">
        <ele>782.79998779296875</ele>
        <time>2014-05-18T14:00:04Z</time>
      </trkpt>
      <trkpt lat="45.25807905010879" lon="5.746801542118192">
        <ele>781.79998779296875</ele>
        <time>2014-05-18T14:00:05Z</time>
      </trkpt>
      <trkpt lat="45.258024651557207" lon="5.746703390032053">
        <ele>781</ele>
        <time>2014-05-18T14:00:06Z</time>
      </trkpt>
      <trkpt lat="45.257976120337844" lon="5.746611524373293">
        <ele>780.20001220703125</ele>
        <time>2014-05-18T14:00:07Z</time>
      </trkpt>
      <trkpt lat="45.257922559976578" lon="5.746526028960943">
        <ele>779.5999755859375</ele>
        <time>2014-05-18T14:00:08Z</time>
      </trkpt>
      <trkpt lat="45.257798340171576" lon="5.74637733399868">
        <ele>778</ele>
        <time>2014-05-18T14:00:10Z</time>
      </trkpt>
      <trkpt lat="45.257656769827008" lon="5.746263507753611">
        <ele>776</ele>
        <time>2014-05-18T14:00:12Z</time>
      </trkpt>
      <trkpt lat="45.257469937205315" lon="5.746155297383666">
        <ele>774.4000244140625</ele>
        <time>2014-05-18T14:00:14Z</time>
      </trkpt>
      <trkpt lat="45.257308417931199" lon="5.74608807452023">
        <ele>774</ele>
        <time>2014-05-18T14:00:16Z</time>
      </trkpt>
      <trkpt lat="45.257255109027028" lon="5.746037447825074">
        <ele>773.5999755859375</ele>
        <time>2014-05-18T14:00:17Z</time>
      </trkpt>
      <trkpt lat="45.25723859667778" lon="5.74597324244678">
        <ele>773.5999755859375</ele>
        <time>2014-05-18T14:00:18Z</time>
      </trkpt>
      <trkpt lat="45.257259886711836" lon="5.74590434320271">
        <ele>773.4000244140625</ele>
        <time>2014-05-18T14:00:19Z</time>
      </trkpt>
      <trkpt lat="45.25728452950716" lon="5.745832342654467">
        <ele>773</ele>
        <time>2014-05-18T14:00:20Z</time>
      </trkpt>
      <trkpt lat="45.257306825369596" lon="5.745771070942283">
        <ele>772.4000244140625</ele>
        <time>2014-05-18T14:00:21Z</time>
      </trkpt>
      <trkpt lat="45.257328450679779" lon="5.745717929676175">
        <ele>772</ele>
        <time>2014-05-18T14:00:22Z</time>
      </trkpt>
      <trkpt lat="45.257362816482782" lon="5.745656741783023">
        <ele>771</ele>
        <time>2014-05-18T14:00:24Z</time>
      </trkpt>
      <trkpt lat="45.257393913343549" lon="5.745612317696214">
        <ele>769.5999755859375</ele>
        <time>2014-05-18T14:00:26Z</time>
      </trkpt>
      <trkpt lat="45.257450742647052" lon="5.745611814782023">
        <ele>768.79998779296875</ele>
        <time>2014-05-18T14:00:27Z</time>
      </trkpt>
      <trkpt lat="45.257535483688116" lon="5.745621034875512">
        <ele>768</ele>
        <time>2014-05-18T14:00:28Z</time>
      </trkpt>
      <trkpt lat="45.257611759006977" lon="5.745598068460822">
        <ele>767.20001220703125</ele>
        <time>2014-05-18T14:00:29Z</time>
      </trkpt>
      <trkpt lat="45.257763052359223" lon="5.745629081502557">
        <ele>766.20001220703125</ele>
        <time>2014-05-18T14:00:30Z</time>
      </trkpt>
      <trkpt lat="45.257889702916145" lon="5.745618855580688">
        <ele>765.20001220703125</ele>
        <time>2014-05-18T14:00:31Z</time>
      </trkpt>
      <trkpt lat="45.25805558077991" lon="5.745502850040793">
        <ele>763.5999755859375</ele>
        <time>2014-05-18T14:00:33Z</time>
      </trkpt>
      <trkpt lat="45.258119869977236" lon="5.745433950796723">
        <ele>763</ele>
        <time>2014-05-18T14:00:34Z</time>
      </trkpt>
      <trkpt lat="45.258180722594261" lon="5.745374690741301">
        <ele>762.4000244140625</ele>
        <time>2014-05-18T14:00:35Z</time>
      </trkpt>
      <trkpt lat="45.258318101987243" lon="5.745323309674859">
        <ele>761</ele>
        <time>2014-05-18T14:00:37Z</time>
      </trkpt>
      <trkpt lat="45.258436035364866" lon="5.745296571403742">
        <ele>759.20001220703125</ele>
        <time>2014-05-18T14:00:39Z</time>
      </trkpt>
      <trkpt lat="45.258551621809602" lon="5.745279723778367">
        <ele>757.4000244140625</ele>
        <time>2014-05-18T14:00:41Z</time>
      </trkpt>
      <trkpt lat="45.258662262931466" lon="5.745278969407082">
        <ele>756</ele>
        <time>2014-05-18T14:00:43Z</time>
      </trkpt>
      <trkpt lat="45.258801905438304" lon="5.745349125936627">
        <ele>754.5999755859375</ele>
        <time>2014-05-18T14:00:45Z</time>
      </trkpt>
      <trkpt lat="45.258872732520103" lon="5.745416348800063">
        <ele>753.5999755859375</ele>
        <time>2014-05-18T14:00:46Z</time>
      </trkpt>
      <trkpt lat="45.258953450247645" lon="5.745490863919258">
        <ele>752.79998779296875</ele>
        <time>2014-05-18T14:00:47Z</time>
      </trkpt>
      <trkpt lat="45.259025450795889" lon="5.745535790920258">
        <ele>751.4000244140625</ele>
        <time>2014-05-18T14:00:48Z</time>
      </trkpt>
      <trkpt lat="45.259187472984195" lon="5.745576526969671">
        <ele>749.4000244140625</ele>
        <time>2014-05-18T14:00:50Z</time>
      </trkpt>
      <trkpt lat="45.259375646710396" lon="5.745507963001728">
        <ele>747.5999755859375</ele>
        <time>2014-05-18T14:00:52Z</time>
      </trkpt>
      <trkpt lat="45.259545715525746" lon="5.745435459539294">
        <ele>746.79998779296875</ele>
        <time>2014-05-18T14:00:54Z</time>
      </trkpt>
      <trkpt lat="45.259638419374824" lon="5.745417103171349">
        <ele>746.20001220703125</ele>
        <time>2014-05-18T14:00:55Z</time>
      </trkpt>
      <trkpt lat="45.259734140709043" lon="5.745411906391382">
        <ele>745.20001220703125</ele>
        <time>2014-05-18T14:00:56Z</time>
      </trkpt>
      <trkpt lat="45.259802704676986" lon="5.745404195040464">
        <ele>744.4000244140625</ele>
        <time>2014-05-18T14:00:57Z</time>
      </trkpt>
      <trkpt lat="45.259952154010534" lon="5.745440656319261">
        <ele>743</ele>
        <time>2014-05-18T14:00:59Z</time>
      </trkpt>
      <trkpt lat="45.260044690221548" lon="5.745591865852475">
        <ele>742</ele>
        <time>2014-05-18T14:01:01Z</time>
      </trkpt>
      <trkpt lat="45.260172598063946" lon="5.745646264404059">
        <ele>741.5999755859375</ele>
        <time>2014-05-18T14:01:03Z</time>
      </trkpt>
      <trkpt lat="45.260339062660933" lon="5.745589518919587">
        <ele>740.5999755859375</ele>
        <time>2014-05-18T14:01:05Z</time>
      </trkpt>
      <trkpt lat="45.260393209755421" lon="5.745546938851476">
        <ele>739.79998779296875</ele>
        <time>2014-05-18T14:01:06Z</time>
      </trkpt>
      <trkpt lat="45.260417768731713" lon="5.745511315762997">
        <ele>739.20001220703125</ele>
        <time>2014-05-18T14:01:07Z</time>
      </trkpt>
      <trkpt lat="45.260448530316353" lon="5.74550804682076">
        <ele>738.4000244140625</ele>
        <time>2014-05-18T14:01:09Z</time>
      </trkpt>
      <trkpt lat="45.260432520881295" lon="5.745510896667838">
        <ele>737.79998779296875</ele>
        <time>2014-05-18T14:01:10Z</time>
      </trkpt>
      <trkpt lat="45.260452050715685" lon="5.745543669909239">
        <ele>735.4000244140625</ele>
        <time>2014-05-18T14:01:12Z</time>
      </trkpt>
      <trkpt lat="45.260434616357088" lon="5.745482817292213">
        <ele>733.79998779296875</ele>
        <time>2014-05-18T14:01:14Z</time>
      </trkpt>
      <trkpt lat="45.260381475090981" lon="5.745410481467843">
        <ele>733.4000244140625</ele>
        <time>2014-05-18T14:01:15Z</time>
      </trkpt>
      <trkpt lat="45.260226326063275" lon="5.74525541625917">
        <ele>733</ele>
        <time>2014-05-18T14:01:17Z</time>
      </trkpt>
      <trkpt lat="45.260155750438571" lon="5.745235215872526">
        <ele>732.79998779296875</ele>
        <time>2014-05-18T14:01:18Z</time>
      </trkpt>
      <trkpt lat="45.259900521486998" lon="5.745199173688889">
        <ele>731.5999755859375</ele>
        <time>2014-05-18T14:01:20Z</time>
      </trkpt>
      <trkpt lat="45.259749479591846" lon="5.74517872184515">
        <ele>730.79998779296875</ele>
        <time>2014-05-18T14:01:21Z</time>
      </trkpt>
      <trkpt lat="45.259589301422238" lon="5.745143434032798">
        <ele>729.79998779296875</ele>
        <time>2014-05-18T14:01:22Z</time>
      </trkpt>
      <trkpt lat="45.259350249543786" lon="5.744992140680552">
        <ele>728.4000244140625</ele>
        <time>2014-05-18T14:01:24Z</time>
      </trkpt>
      <trkpt lat="45.259204907342792" lon="5.744759710505605">
        <ele>727.20001220703125</ele>
        <time>2014-05-18T14:01:26Z</time>
      </trkpt>
      <trkpt lat="45.259141959249973" lon="5.744641944766045">
        <ele>726.5999755859375</ele>
        <time>2014-05-18T14:01:27Z</time>
      </trkpt>
      <trkpt lat="45.259074401110411" lon="5.744540356099606">
        <ele>725.5999755859375</ele>
        <time>2014-05-18T14:01:28Z</time>
      </trkpt>
      <trkpt lat="45.258959820494056" lon="5.744450502097607">
        <ele>724.4000244140625</ele>
        <time>2014-05-18T14:01:29Z</time>
      </trkpt>
      <trkpt lat="45.2588608302176" lon="5.744388811290264">
        <ele>723.20001220703125</ele>
        <time>2014-05-18T14:01:30Z</time>
      </trkpt>
      <trkpt lat="45.258762175217271" lon="5.744331981986761">
        <ele>722.4000244140625</ele>
        <time>2014-05-18T14:01:31Z</time>
      </trkpt>
      <trkpt lat="45.258635943755507" lon="5.744263669475913">
        <ele>721.4000244140625</ele>
        <time>2014-05-18T14:01:32Z</time>
      </trkpt>
      <trkpt lat="45.258515160530806" lon="5.74418387375772">
        <ele>720.20001220703125</ele>
        <time>2014-05-18T14:01:33Z</time>
      </trkpt>
      <trkpt lat="45.258405692875385" lon="5.744105754420161">
        <ele>719</ele>
        <time>2014-05-18T14:01:34Z</time>
      </trkpt>
      <trkpt lat="45.258313240483403" lon="5.744022689759731">
        <ele>717.79998779296875</ele>
        <time>2014-05-18T14:01:35Z</time>
      </trkpt>
      <trkpt lat="45.25822757743299" lon="5.743931494653225">
        <ele>716</ele>
        <time>2014-05-18T14:01:36Z</time>
      </trkpt>
      <trkpt lat="45.258157504722476" lon="5.743847256526351">
        <ele>715.5999755859375</ele>
        <time>2014-05-18T14:01:37Z</time>
      </trkpt>
      <trkpt lat="45.258078966289759" lon="5.743778524920344">
        <ele>715.20001220703125</ele>
        <time>2014-05-18T14:01:38Z</time>
      </trkpt>
      <trkpt lat="45.257990034297109" lon="5.743738207966089">
        <ele>714.4000244140625</ele>
        <time>2014-05-18T14:01:39Z</time>
      </trkpt>
      <trkpt lat="45.257900431752205" lon="5.743726305663586">
        <ele>714</ele>
        <time>2014-05-18T14:01:40Z</time>
      </trkpt>
      <trkpt lat="45.257814349606633" lon="5.743743991479278">
        <ele>713.4000244140625</ele>
        <time>2014-05-18T14:01:41Z</time>
      </trkpt>
      <trkpt lat="45.257660793140531" lon="5.743854464963079">
        <ele>711.5999755859375</ele>
        <time>2014-05-18T14:01:43Z</time>
      </trkpt>
      <trkpt lat="45.257591055706143" lon="5.743943061679602">
        <ele>710.5999755859375</ele>
        <time>2014-05-18T14:01:44Z</time>
      </trkpt>
      <trkpt lat="45.25743892416358" lon="5.744092427194119">
        <ele>708.79998779296875</ele>
        <time>2014-05-18T14:01:46Z</time>
      </trkpt>
      <trkpt lat="45.257353177294135" lon="5.744138779118657">
        <ele>708</ele>
        <time>2014-05-18T14:01:47Z</time>
      </trkpt>
      <trkpt lat="45.257266089320183" lon="5.744143389165402">
        <ele>707.4000244140625</ele>
        <time>2014-05-18T14:01:48Z</time>
      </trkpt>
      <trkpt lat="45.257180510088801" lon="5.744115728884935">
        <ele>706.79998779296875</ele>
        <time>2014-05-18T14:01:49Z</time>
      </trkpt>
      <trkpt lat="45.257092919200659" lon="5.74407541193068">
        <ele>706.20001220703125</ele>
        <time>2014-05-18T14:01:50Z</time>
      </trkpt>
      <trkpt lat="45.256911115720868" lon="5.744022522121668">
        <ele>704.20001220703125</ele>
        <time>2014-05-18T14:01:52Z</time>
      </trkpt>
      <trkpt lat="45.256814556196332" lon="5.744004417210817">
        <ele>703.20001220703125</ele>
        <time>2014-05-18T14:01:53Z</time>
      </trkpt>
      <trkpt lat="45.256718918681145" lon="5.743982624262571">
        <ele>702.20001220703125</ele>
        <time>2014-05-18T14:01:54Z</time>
      </trkpt>
      <trkpt lat="45.256552454084158" lon="5.743918335065246">
        <ele>701.20001220703125</ele>
        <time>2014-05-18T14:01:56Z</time>
      </trkpt>
      <trkpt lat="45.256486907601357" lon="5.743856811895967">
        <ele>701</ele>
        <time>2014-05-18T14:01:57Z</time>
      </trkpt>
      <trkpt lat="45.256394203752279" lon="5.743658496066928">
        <ele>699.79998779296875</ele>
        <time>2014-05-18T14:01:59Z</time>
      </trkpt>
      <trkpt lat="45.256370231509209" lon="5.743535365909338">
        <ele>697.4000244140625</ele>
        <time>2014-05-18T14:02:00Z</time>
      </trkpt>
      <trkpt lat="45.256359418854117" lon="5.743409302085638">
        <ele>696</ele>
        <time>2014-05-18T14:02:01Z</time>
      </trkpt>
      <trkpt lat="45.256357155740261" lon="5.743289021775127">
        <ele>695.20001220703125</ele>
        <time>2014-05-18T14:02:02Z</time>
      </trkpt>
      <trkpt lat="45.256342487409711" lon="5.743182487785816">
        <ele>694.79998779296875</ele>
        <time>2014-05-18T14:02:03Z</time>
      </trkpt>
      <trkpt lat="45.25623838417232" lon="5.743020297959447">
        <ele>693</ele>
        <time>2014-05-18T14:02:05Z</time>
      </trkpt>
      <trkpt lat="45.256165293976665" lon="5.742957685142756">
        <ele>692</ele>
        <time>2014-05-18T14:02:06Z</time>
      </trkpt>
      <trkpt lat="45.255992626771331" lon="5.742846205830574">
        <ele>690.5999755859375</ele>
        <time>2014-05-18T14:02:08Z</time>
      </trkpt>
      <trkpt lat="45.255903108045459" lon="5.742792561650276">
        <ele>690</ele>
        <time>2014-05-18T14:02:09Z</time>
      </trkpt>
      <trkpt lat="45.255811158567667" lon="5.742746880277991">
        <ele>689.4000244140625</ele>
        <time>2014-05-18T14:02:10Z</time>
      </trkpt>
      <trkpt lat="45.255718119442463" lon="5.742718717083335">
        <ele>688.20001220703125</ele>
        <time>2014-05-18T14:02:11Z</time>
      </trkpt>
      <trkpt lat="45.255622062832117" lon="5.742700025439262">
        <ele>687</ele>
        <time>2014-05-18T14:02:12Z</time>
      </trkpt>
      <trkpt lat="45.255519803613424" lon="5.742700612172484">
        <ele>686</ele>
        <time>2014-05-18T14:02:13Z</time>
      </trkpt>
      <trkpt lat="45.255415784195065" lon="5.74271846562624">
        <ele>684.79998779296875</ele>
        <time>2014-05-18T14:02:14Z</time>
      </trkpt>
      <trkpt lat="45.2553172968328" lon="5.742756770923734">
        <ele>683.4000244140625</ele>
        <time>2014-05-18T14:02:15Z</time>
      </trkpt>
      <trkpt lat="45.255216965451837" lon="5.742793567478657">
        <ele>682.20001220703125</ele>
        <time>2014-05-18T14:02:16Z</time>
      </trkpt>
      <trkpt lat="45.255110347643495" lon="5.742808990180492">
        <ele>681.4000244140625</ele>
        <time>2014-05-18T14:02:17Z</time>
      </trkpt>
      <trkpt lat="45.25499870069325" lon="5.742809073999524">
        <ele>680.5999755859375</ele>
        <time>2014-05-18T14:02:18Z</time>
      </trkpt>
      <trkpt lat="45.254884203895926" lon="5.74279859662056">
        <ele>679.4000244140625</ele>
        <time>2014-05-18T14:02:19Z</time>
      </trkpt>
      <trkpt lat="45.25477490387857" lon="5.742789460346103">
        <ele>678</ele>
        <time>2014-05-18T14:02:20Z</time>
      </trkpt>
      <trkpt lat="45.254667783156037" lon="5.742781665176153">
        <ele>677</ele>
        <time>2014-05-18T14:02:21Z</time>
      </trkpt>
      <trkpt lat="45.254564853385091" lon="5.742754088714719">
        <ele>676</ele>
        <time>2014-05-18T14:02:22Z</time>
      </trkpt>
      <trkpt lat="45.254466366022825" lon="5.742708407342434">
        <ele>675</ele>
        <time>2014-05-18T14:02:23Z</time>
      </trkpt>
      <trkpt lat="45.254376595839858" lon="5.742639256641269">
        <ele>672.5999755859375</ele>
        <time>2014-05-18T14:02:24Z</time>
      </trkpt>
      <trkpt lat="45.254283808171749" lon="5.742559628561139">
        <ele>671.4000244140625</ele>
        <time>2014-05-18T14:02:25Z</time>
      </trkpt>
      <trkpt lat="45.254191355779767" lon="5.742471199482679">
        <ele>670.4000244140625</ele>
        <time>2014-05-18T14:02:26Z</time>
      </trkpt>
      <trkpt lat="45.254095131531358" lon="5.742378244176507">
        <ele>669</ele>
        <time>2014-05-18T14:02:27Z</time>
      </trkpt>
      <trkpt lat="45.254001505672932" lon="5.74229090474546">
        <ele>667.5999755859375</ele>
        <time>2014-05-18T14:02:28Z</time>
      </trkpt>
      <trkpt lat="45.253902347758412" lon="5.742229130119085">
        <ele>666.20001220703125</ele>
        <time>2014-05-18T14:02:29Z</time>
      </trkpt>
      <trkpt lat="45.253792544826865" lon="5.742197949439287">
        <ele>664.79998779296875</ele>
        <time>2014-05-18T14:02:30Z</time>
      </trkpt>
      <trkpt lat="45.253677545115352" lon="5.74218194000423">
        <ele>663.79998779296875</ele>
        <time>2014-05-18T14:02:31Z</time>
      </trkpt>
      <trkpt lat="45.253455089405179" lon="5.742116309702396">
        <ele>662.20001220703125</ele>
        <time>2014-05-18T14:02:33Z</time>
      </trkpt>
      <trkpt lat="45.253353668376803" lon="5.74203928001225">
        <ele>661.5999755859375</ele>
        <time>2014-05-18T14:02:34Z</time>
      </trkpt>
      <trkpt lat="45.253261299803853" lon="5.741939283907414">
        <ele>660.20001220703125</ele>
        <time>2014-05-18T14:02:35Z</time>
      </trkpt>
      <trkpt lat="45.253160046413541" lon="5.741845909506083">
        <ele>658.79998779296875</ele>
        <time>2014-05-18T14:02:36Z</time>
      </trkpt>
      <trkpt lat="45.253053177148104" lon="5.741768209263682">
        <ele>657.4000244140625</ele>
        <time>2014-05-18T14:02:37Z</time>
      </trkpt>
      <trkpt lat="45.252939350903034" lon="5.741701237857342">
        <ele>656</ele>
        <time>2014-05-18T14:02:38Z</time>
      </trkpt>
      <trkpt lat="45.252819824963808" lon="5.741643235087395">
        <ele>654.5999755859375</ele>
        <time>2014-05-18T14:02:39Z</time>
      </trkpt>
      <trkpt lat="45.252696862444282" lon="5.741593027487397">
        <ele>653</ele>
        <time>2014-05-18T14:02:40Z</time>
      </trkpt>
      <trkpt lat="45.252578426152468" lon="5.741544915363193">
        <ele>651.5999755859375</ele>
        <time>2014-05-18T14:02:41Z</time>
      </trkpt>
      <trkpt lat="45.25245638564229" lon="5.741514069959521">
        <ele>650.4000244140625</ele>
        <time>2014-05-18T14:02:42Z</time>
      </trkpt>
      <trkpt lat="45.252337111160159" lon="5.741496551781893">
        <ele>649.20001220703125</ele>
        <time>2014-05-18T14:02:43Z</time>
      </trkpt>
      <trkpt lat="45.252218591049314" lon="5.741480626165867">
        <ele>648.20001220703125</ele>
        <time>2014-05-18T14:02:44Z</time>
      </trkpt>
      <trkpt lat="45.251983813941479" lon="5.74145145714283">
        <ele>646.20001220703125</ele>
        <time>2014-05-18T14:02:46Z</time>
      </trkpt>
      <trkpt lat="45.25187099352479" lon="5.741449948400259">
        <ele>645</ele>
        <time>2014-05-18T14:02:47Z</time>
      </trkpt>
      <trkpt lat="45.251760436221957" lon="5.741442488506436">
        <ele>643</ele>
        <time>2014-05-18T14:02:48Z</time>
      </trkpt>
      <trkpt lat="45.251654656603932" lon="5.741413990035653">
        <ele>642</ele>
        <time>2014-05-18T14:02:49Z</time>
      </trkpt>
      <trkpt lat="45.251551056280732" lon="5.741391694173217">
        <ele>641</ele>
        <time>2014-05-18T14:02:50Z</time>
      </trkpt>
      <trkpt lat="45.251450808718801" lon="5.741369482129812">
        <ele>639.5999755859375</ele>
        <time>2014-05-18T14:02:51Z</time>
      </trkpt>
      <trkpt lat="45.251352488994598" lon="5.741350539028645">
        <ele>638.4000244140625</ele>
        <time>2014-05-18T14:02:52Z</time>
      </trkpt>
      <trkpt lat="45.251256683841348" lon="5.741336205974221">
        <ele>637.20001220703125</ele>
        <time>2014-05-18T14:02:53Z</time>
      </trkpt>
      <trkpt lat="45.251159369945526" lon="5.74132539331913">
        <ele>635.79998779296875</ele>
        <time>2014-05-18T14:02:54Z</time>
      </trkpt>
      <trkpt lat="45.251058703288436" lon="5.741326734423637">
        <ele>634.5999755859375</ele>
        <time>2014-05-18T14:02:55Z</time>
      </trkpt>
      <trkpt lat="45.250829961150885" lon="5.74146319180727">
        <ele>633.20001220703125</ele>
        <time>2014-05-18T14:02:57Z</time>
      </trkpt>
      <trkpt lat="45.250718733295798" lon="5.741527732461691">
        <ele>632</ele>
        <time>2014-05-18T14:02:58Z</time>
      </trkpt>
      <trkpt lat="45.250610103830695" lon="5.741591937839985">
        <ele>630.4000244140625</ele>
        <time>2014-05-18T14:02:59Z</time>
      </trkpt>
      <trkpt lat="45.25049745105207" lon="5.741646587848663">
        <ele>629.20001220703125</ele>
        <time>2014-05-18T14:03:00Z</time>
      </trkpt>
      <trkpt lat="45.250387731939554" lon="5.741678439080715">
        <ele>628.20001220703125</ele>
        <time>2014-05-18T14:03:01Z</time>
      </trkpt>
      <trkpt lat="45.250159157440066" lon="5.741668967530131">
        <ele>626.20001220703125</ele>
        <time>2014-05-18T14:03:03Z</time>
      </trkpt>
      <trkpt lat="45.250041307881474" lon="5.741660753265023">
        <ele>624.79998779296875</ele>
        <time>2014-05-18T14:03:04Z</time>
      </trkpt>
      <trkpt lat="45.249926224350929" lon="5.741653628647327">
        <ele>623.4000244140625</ele>
        <time>2014-05-18T14:03:05Z</time>
      </trkpt>
      <trkpt lat="45.249816169962287" lon="5.741623202338815">
        <ele>622.4000244140625</ele>
        <time>2014-05-18T14:03:06Z</time>
      </trkpt>
      <trkpt lat="45.249701756983995" lon="5.741589590907097">
        <ele>621.79998779296875</ele>
        <time>2014-05-18T14:03:07Z</time>
      </trkpt>
      <trkpt lat="45.249585835263133" lon="5.741558074951172">
        <ele>621.5999755859375</ele>
        <time>2014-05-18T14:03:08Z</time>
      </trkpt>
      <trkpt lat="45.249383999034762" lon="5.741469729691744">
        <ele>620.20001220703125</ele>
        <time>2014-05-18T14:03:10Z</time>
      </trkpt>
      <trkpt lat="45.249298671260476" lon="5.741445003077388">
        <ele>618.79998779296875</ele>
        <time>2014-05-18T14:03:11Z</time>
      </trkpt>
      <trkpt lat="45.249216696247458" lon="5.741456151008606">
        <ele>617.4000244140625</ele>
        <time>2014-05-18T14:03:12Z</time>
      </trkpt>
      <trkpt lat="45.249136732891202" lon="5.741493115201592">
        <ele>617</ele>
        <time>2014-05-18T14:03:13Z</time>
      </trkpt>
      <trkpt lat="45.249051069840789" lon="5.741543490439653">
        <ele>615.79998779296875</ele>
        <time>2014-05-18T14:03:14Z</time>
      </trkpt>
      <trkpt lat="45.24896171875298" lon="5.74160048738122">
        <ele>615.20001220703125</ele>
        <time>2014-05-18T14:03:15Z</time>
      </trkpt>
      <trkpt lat="45.248871110379696" lon="5.74166058562696">
        <ele>614.4000244140625</ele>
        <time>2014-05-18T14:03:16Z</time>
      </trkpt>
      <trkpt lat="45.248780502006412" lon="5.741722360253334">
        <ele>614.20001220703125</ele>
        <time>2014-05-18T14:03:17Z</time>
      </trkpt>
      <trkpt lat="45.248690731823444" lon="5.741784302517772">
        <ele>612.4000244140625</ele>
        <time>2014-05-18T14:03:18Z</time>
      </trkpt>
      <trkpt lat="45.248600291088223" lon="5.741848507896066">
        <ele>611</ele>
        <time>2014-05-18T14:03:19Z</time>
      </trkpt>
      <trkpt lat="45.248503061011434" lon="5.741911707445979">
        <ele>609.4000244140625</ele>
        <time>2014-05-18T14:03:20Z</time>
      </trkpt>
      <trkpt lat="45.248293848708272" lon="5.742029221728444">
        <ele>607.20001220703125</ele>
        <time>2014-05-18T14:03:22Z</time>
      </trkpt>
      <trkpt lat="45.248191924765706" lon="5.74207884259522">
        <ele>606.4000244140625</ele>
        <time>2014-05-18T14:03:23Z</time>
      </trkpt>
      <trkpt lat="45.248095113784075" lon="5.742123099043965">
        <ele>605.4000244140625</ele>
        <time>2014-05-18T14:03:24Z</time>
      </trkpt>
      <trkpt lat="45.248002829030156" lon="5.742148160934448">
        <ele>604.79998779296875</ele>
        <time>2014-05-18T14:03:25Z</time>
      </trkpt>
      <trkpt lat="45.247917417436838" lon="5.742150591686368">
        <ele>604.20001220703125</ele>
        <time>2014-05-18T14:03:26Z</time>
      </trkpt>
      <trkpt lat="45.247838543727994" lon="5.74212527833879">
        <ele>603.5999755859375</ele>
        <time>2014-05-18T14:03:27Z</time>
      </trkpt>
      <trkpt lat="45.247769560664892" lon="5.742064760997891">
        <ele>602.79998779296875</ele>
        <time>2014-05-18T14:03:28Z</time>
      </trkpt>
      <trkpt lat="45.2477035112679" lon="5.741980690509081">
        <ele>602</ele>
        <time>2014-05-18T14:03:29Z</time>
      </trkpt>
      <trkpt lat="45.247650872915983" lon="5.741906091570854">
        <ele>601</ele>
        <time>2014-05-18T14:03:30Z</time>
      </trkpt>
      <trkpt lat="45.247608544304967" lon="5.7418208476156">
        <ele>600.20001220703125</ele>
        <time>2014-05-18T14:03:31Z</time>
      </trkpt>
      <trkpt lat="45.247584991157055" lon="5.741719594225287">
        <ele>599.20001220703125</ele>
        <time>2014-05-18T14:03:32Z</time>
      </trkpt>
      <trkpt lat="45.24760477244854" lon="5.741482805460692">
        <ele>597.79998779296875</ele>
        <time>2014-05-18T14:03:34Z</time>
      </trkpt>
      <trkpt lat="45.247636958956718" lon="5.741361770778894">
        <ele>596.79998779296875</ele>
        <time>2014-05-18T14:03:35Z</time>
      </trkpt>
      <trkpt lat="45.247676856815815" lon="5.741245178505778">
        <ele>595.79998779296875</ele>
        <time>2014-05-18T14:03:36Z</time>
      </trkpt>
      <trkpt lat="45.247779786586761" lon="5.741044348105788">
        <ele>595.5999755859375</ele>
        <time>2014-05-18T14:03:38Z</time>
      </trkpt>
      <trkpt lat="45.247889002785087" lon="5.740880984812975">
        <ele>596</ele>
        <time>2014-05-18T14:03:40Z</time>
      </trkpt>
      <trkpt lat="45.247948179021478" lon="5.74080990627408">
        <ele>596.20001220703125</ele>
        <time>2014-05-18T14:03:41Z</time>
      </trkpt>
      <trkpt lat="45.248002409934998" lon="5.740741342306137">
        <ele>596.5999755859375</ele>
        <time>2014-05-18T14:03:42Z</time>
      </trkpt>
      <trkpt lat="45.248052198439837" lon="5.740678478032351">
        <ele>597.5999755859375</ele>
        <time>2014-05-18T14:03:43Z</time>
      </trkpt>
      <trkpt lat="45.248138448223472" lon="5.740572446957231">
        <ele>598.79998779296875</ele>
        <time>2014-05-18T14:03:45Z</time>
      </trkpt>
      <trkpt lat="45.248178010806441" lon="5.740528274327517">
        <ele>599.20001220703125</ele>
        <time>2014-05-18T14:03:46Z</time>
      </trkpt>
      <trkpt lat="45.248250933364034" lon="5.740454513579607">
        <ele>599.79998779296875</ele>
        <time>2014-05-18T14:03:48Z</time>
      </trkpt>
      <trkpt lat="45.248382277786732" lon="5.740320738404989">
        <ele>601</ele>
        <time>2014-05-18T14:03:52Z</time>
      </trkpt>
      <trkpt lat="45.248591909185052" lon="5.740157794207335">
        <ele>601.4000244140625</ele>
        <time>2014-05-18T14:03:59Z</time>
      </trkpt>
      <trkpt lat="45.248608505353332" lon="5.740139270201325">
        <ele>601.4000244140625</ele>
        <time>2014-05-18T14:04:00Z</time>
      </trkpt>
      <trkpt lat="45.248759966343641" lon="5.740106664597988">
        <ele>601.20001220703125</ele>
        <time>2014-05-18T14:05:39Z</time>
      </trkpt>
      <trkpt lat="45.248953923583031" lon="5.739995269104838">
        <ele>600</ele>
        <time>2014-05-18T14:05:44Z</time>
      </trkpt>
      <trkpt lat="45.248994659632444" lon="5.739945312961936">
        <ele>599.5999755859375</ele>
        <time>2014-05-18T14:05:45Z</time>
      </trkpt>
      <trkpt lat="45.249139918014407" lon="5.739810783416033">
        <ele>598.79998779296875</ele>
        <time>2014-05-18T14:05:47Z</time>
      </trkpt>
      <trkpt lat="45.249194568023086" lon="5.739731742069125">
        <ele>598.20001220703125</ele>
        <time>2014-05-18T14:05:48Z</time>
      </trkpt>
      <trkpt lat="45.249234130606055" lon="5.739648509770632">
        <ele>597.5999755859375</ele>
        <time>2014-05-18T14:05:49Z</time>
      </trkpt>
      <trkpt lat="45.249263718724251" lon="5.739549603313208">
        <ele>596.79998779296875</ele>
        <time>2014-05-18T14:05:50Z</time>
      </trkpt>
      <trkpt lat="45.249284589663148" lon="5.739441141486168">
        <ele>595.79998779296875</ele>
        <time>2014-05-18T14:05:51Z</time>
      </trkpt>
      <trkpt lat="45.24930814281106" lon="5.739329494535923">
        <ele>594.79998779296875</ele>
        <time>2014-05-18T14:05:52Z</time>
      </trkpt>
      <trkpt lat="45.249377712607384" lon="5.739093543961644">
        <ele>592.79998779296875</ele>
        <time>2014-05-18T14:05:54Z</time>
      </trkpt>
      <trkpt lat="45.249426579102874" lon="5.738973096013069">
        <ele>591.4000244140625</ele>
        <time>2014-05-18T14:05:55Z</time>
      </trkpt>
      <trkpt lat="45.249475361779332" lon="5.738842254504561">
        <ele>590</ele>
        <time>2014-05-18T14:05:56Z</time>
      </trkpt>
      <trkpt lat="45.249533699825406" lon="5.738716442137957">
        <ele>588.5999755859375</ele>
        <time>2014-05-18T14:05:57Z</time>
      </trkpt>
      <trkpt lat="45.249599078670144" lon="5.73859004303813">
        <ele>587.5999755859375</ele>
        <time>2014-05-18T14:05:58Z</time>
      </trkpt>
      <trkpt lat="45.249665211886168" lon="5.738467080518603">
        <ele>586.5999755859375</ele>
        <time>2014-05-18T14:05:59Z</time>
      </trkpt>
      <trkpt lat="45.249726567417383" lon="5.738347638398409">
        <ele>585</ele>
        <time>2014-05-18T14:06:00Z</time>
      </trkpt>
      <trkpt lat="45.249858917668462" lon="5.738126775249839">
        <ele>584</ele>
        <time>2014-05-18T14:06:02Z</time>
      </trkpt>
      <trkpt lat="45.249917758628726" lon="5.738004399463534">
        <ele>583.79998779296875</ele>
        <time>2014-05-18T14:06:03Z</time>
      </trkpt>
      <trkpt lat="45.250012809410691" lon="5.737738190218806">
        <ele>582.4000244140625</ele>
        <time>2014-05-18T14:06:05Z</time>
      </trkpt>
      <trkpt lat="45.250050444155931" lon="5.737597206607461">
        <ele>581.4000244140625</ele>
        <time>2014-05-18T14:06:06Z</time>
      </trkpt>
      <trkpt lat="45.250084055587649" lon="5.737456139177084">
        <ele>580.4000244140625</ele>
        <time>2014-05-18T14:06:07Z</time>
      </trkpt>
      <trkpt lat="45.250113056972623" lon="5.737321190536022">
        <ele>579.79998779296875</ele>
        <time>2014-05-18T14:06:08Z</time>
      </trkpt>
      <trkpt lat="45.250246580690145" lon="5.736691122874618">
        <ele>579.20001220703125</ele>
        <time>2014-05-18T14:06:13Z</time>
      </trkpt>
      <trkpt lat="45.250314306467772" lon="5.736309578642249">
        <ele>578.5999755859375</ele>
        <time>2014-05-18T14:06:16Z</time>
      </trkpt>
      <trkpt lat="45.250314809381962" lon="5.736174210906029">
        <ele>578.5999755859375</ele>
        <time>2014-05-18T14:06:17Z</time>
      </trkpt>
      <trkpt lat="45.25030642747879" lon="5.735891489312053">
        <ele>577.5999755859375</ele>
        <time>2014-05-18T14:06:19Z</time>
      </trkpt>
      <trkpt lat="45.250300224870443" lon="5.735742123797536">
        <ele>576.4000244140625</ele>
        <time>2014-05-18T14:06:20Z</time>
      </trkpt>
      <trkpt lat="45.250280359759927" lon="5.735435849055648">
        <ele>574.5999755859375</ele>
        <time>2014-05-18T14:06:22Z</time>
      </trkpt>
      <trkpt lat="45.25027122348547" lon="5.735278688371182">
        <ele>573.4000244140625</ele>
        <time>2014-05-18T14:06:23Z</time>
      </trkpt>
      <trkpt lat="45.250264182686806" lon="5.735121527686715">
        <ele>571.20001220703125</ele>
        <time>2014-05-18T14:06:24Z</time>
      </trkpt>
      <trkpt lat="45.250243060290813" lon="5.734814163297415">
        <ele>570</ele>
        <time>2014-05-18T14:06:26Z</time>
      </trkpt>
      <trkpt lat="45.250222273170948" lon="5.734534626826644">
        <ele>568.79998779296875</ele>
        <time>2014-05-18T14:06:28Z</time>
      </trkpt>
      <trkpt lat="45.250191846862435" lon="5.734415855258703">
        <ele>568.20001220703125</ele>
        <time>2014-05-18T14:06:29Z</time>
      </trkpt>
      <trkpt lat="45.250138621777296" lon="5.734319798648357">
        <ele>567.79998779296875</ele>
        <time>2014-05-18T14:06:30Z</time>
      </trkpt>
      <trkpt lat="45.250063603743911" lon="5.73424369096756">
        <ele>566.79998779296875</ele>
        <time>2014-05-18T14:06:31Z</time>
      </trkpt>
      <trkpt lat="45.249978443607688" lon="5.73419482447207">
        <ele>565.79998779296875</ele>
        <time>2014-05-18T14:06:32Z</time>
      </trkpt>
      <trkpt lat="45.249883057549596" lon="5.734177306294441">
        <ele>564.79998779296875</ele>
        <time>2014-05-18T14:06:33Z</time>
      </trkpt>
      <trkpt lat="45.24966923519969" lon="5.734160710126162">
        <ele>563</ele>
        <time>2014-05-18T14:06:35Z</time>
      </trkpt>
      <trkpt lat="45.249560102820396" lon="5.734122656285763">
        <ele>562.20001220703125</ele>
        <time>2014-05-18T14:06:36Z</time>
      </trkpt>
      <trkpt lat="45.249466225504875" lon="5.734055265784264">
        <ele>561.4000244140625</ele>
        <time>2014-05-18T14:06:37Z</time>
      </trkpt>
      <trkpt lat="45.249381065368652" lon="5.733961388468742">
        <ele>560.5999755859375</ele>
        <time>2014-05-18T14:06:38Z</time>
      </trkpt>
      <trkpt lat="45.24931937456131" lon="5.733852842822671">
        <ele>560.20001220703125</ele>
        <time>2014-05-18T14:06:39Z</time>
      </trkpt>
      <trkpt lat="45.249216947704554" lon="5.73361630551517">
        <ele>559.4000244140625</ele>
        <time>2014-05-18T14:06:42Z</time>
      </trkpt>
      <trkpt lat="45.249158022925258" lon="5.733510693535209">
        <ele>559</ele>
        <time>2014-05-18T14:06:43Z</time>
      </trkpt>
      <trkpt lat="45.249021649360657" lon="5.73334121145308">
        <ele>559</ele>
        <time>2014-05-18T14:06:45Z</time>
      </trkpt>
      <trkpt lat="45.24886348284781" lon="5.73320978321135">
        <ele>558.4000244140625</ele>
        <time>2014-05-18T14:06:47Z</time>
      </trkpt>
      <trkpt lat="45.248784525319934" lon="5.73312864638865">
        <ele>558.20001220703125</ele>
        <time>2014-05-18T14:06:48Z</time>
      </trkpt>
      <trkpt lat="45.248712189495564" lon="5.733026973903179">
        <ele>556.79998779296875</ele>
        <time>2014-05-18T14:06:49Z</time>
      </trkpt>
      <trkpt lat="45.248595261946321" lon="5.732671916484833">
        <ele>556.79998779296875</ele>
        <time>2014-05-18T14:06:52Z</time>
      </trkpt>
      <trkpt lat="45.248584365472198" lon="5.732455998659134">
        <ele>558.4000244140625</ele>
        <time>2014-05-18T14:06:54Z</time>
      </trkpt>
      <trkpt lat="45.248566763475537" lon="5.732363294810057">
        <ele>559</ele>
        <time>2014-05-18T14:06:55Z</time>
      </trkpt>
      <trkpt lat="45.248546227812767" lon="5.732278302311897">
        <ele>559.5999755859375</ele>
        <time>2014-05-18T14:06:56Z</time>
      </trkpt>
      <trkpt lat="45.248520830646157" lon="5.732201607897878">
        <ele>560</ele>
        <time>2014-05-18T14:06:57Z</time>
      </trkpt>
      <trkpt lat="45.248465677723289" lon="5.73206833563745">
        <ele>560.5999755859375</ele>
        <time>2014-05-18T14:06:59Z</time>
      </trkpt>
      <trkpt lat="45.248432066291571" lon="5.732008991762996">
        <ele>561</ele>
        <time>2014-05-18T14:07:00Z</time>
      </trkpt>
      <trkpt lat="45.248253028839827" lon="5.731798773631454">
        <ele>560.5999755859375</ele>
        <time>2014-05-18T14:07:04Z</time>
      </trkpt>
      <trkpt lat="45.248093605041504" lon="5.731623088940978">
        <ele>559.20001220703125</ele>
        <time>2014-05-18T14:07:07Z</time>
      </trkpt>
      <trkpt lat="45.247921608388424" lon="5.731429886072874">
        <ele>557.79998779296875</ele>
        <time>2014-05-18T14:07:10Z</time>
      </trkpt>
      <trkpt lat="45.247800154611468" lon="5.731296529993415">
        <ele>556.5999755859375</ele>
        <time>2014-05-18T14:07:12Z</time>
      </trkpt>
      <trkpt lat="45.247737625613809" lon="5.731226289644837">
        <ele>555.4000244140625</ele>
        <time>2014-05-18T14:07:13Z</time>
      </trkpt>
      <trkpt lat="45.247604856267571" lon="5.731071811169386">
        <ele>554.4000244140625</ele>
        <time>2014-05-18T14:07:15Z</time>
      </trkpt>
      <trkpt lat="45.247464459389448" lon="5.730911968275905">
        <ele>553.20001220703125</ele>
        <time>2014-05-18T14:07:17Z</time>
      </trkpt>
      <trkpt lat="45.247304867953062" lon="5.730767967179418">
        <ele>551.79998779296875</ele>
        <time>2014-05-18T14:07:19Z</time>
      </trkpt>
      <trkpt lat="45.247120717540383" lon="5.730676772072911">
        <ele>550.5999755859375</ele>
        <time>2014-05-18T14:07:21Z</time>
      </trkpt>
      <trkpt lat="45.246755601838231" lon="5.73054232634604">
        <ele>548.5999755859375</ele>
        <time>2014-05-18T14:07:25Z</time>
      </trkpt>
      <trkpt lat="45.246663568541408" lon="5.730535872280598">
        <ele>547.5999755859375</ele>
        <time>2014-05-18T14:07:26Z</time>
      </trkpt>
      <trkpt lat="45.24656793102622" lon="5.730490861460567">
        <ele>547.20001220703125</ele>
        <time>2014-05-18T14:07:27Z</time>
      </trkpt>
      <trkpt lat="45.246203150600195" lon="5.730304699391127">
        <ele>546.20001220703125</ele>
        <time>2014-05-18T14:07:31Z</time>
      </trkpt>
      <trkpt lat="45.24611153639853" lon="5.730243846774101">
        <ele>546</ele>
        <time>2014-05-18T14:07:32Z</time>
      </trkpt>
      <trkpt lat="45.245966445654631" lon="5.730046620592475">
        <ele>545.20001220703125</ele>
        <time>2014-05-18T14:07:34Z</time>
      </trkpt>
      <trkpt lat="45.245924117043614" lon="5.729807401075959">
        <ele>545.5999755859375</ele>
        <time>2014-05-18T14:07:36Z</time>
      </trkpt>
      <trkpt lat="45.245915483683348" lon="5.729596931487322">
        <ele>547.4000244140625</ele>
        <time>2014-05-18T14:07:38Z</time>
      </trkpt>
      <trkpt lat="45.245904251933098" lon="5.729438681155443">
        <ele>548.79998779296875</ele>
        <time>2014-05-18T14:07:40Z</time>
      </trkpt>
      <trkpt lat="45.245885560289025" lon="5.729315299540758">
        <ele>550</ele>
        <time>2014-05-18T14:07:42Z</time>
      </trkpt>
      <trkpt lat="45.245839292183518" lon="5.729161994531751">
        <ele>551.20001220703125</ele>
        <time>2014-05-18T14:07:45Z</time>
      </trkpt>
      <trkpt lat="45.24569327943027" lon="5.728996619582176">
        <ele>552.20001220703125</ele>
        <time>2014-05-18T14:07:50Z</time>
      </trkpt>
      <trkpt lat="45.245493371039629" lon="5.728811547160149">
        <ele>553</ele>
        <time>2014-05-18T14:07:58Z</time>
      </trkpt>
      <trkpt lat="45.245435871183872" lon="5.728781456127763">
        <ele>553.20001220703125</ele>
        <time>2014-05-18T14:08:00Z</time>
      </trkpt>
      <trkpt lat="45.245248954743147" lon="5.728696379810572">
        <ele>553.4000244140625</ele>
        <time>2014-05-18T14:08:06Z</time>
      </trkpt>
      <trkpt lat="45.245040832087398" lon="5.728633515536785">
        <ele>554.4000244140625</ele>
        <time>2014-05-18T14:08:13Z</time>
      </trkpt>
      <trkpt lat="45.245013004168868" lon="5.728631084784865">
        <ele>554.79998779296875</ele>
        <time>2014-05-18T14:08:14Z</time>
      </trkpt>
      <trkpt lat="45.244847042486072" lon="5.728638544678688">
        <ele>555.5999755859375</ele>
        <time>2014-05-18T14:08:20Z</time>
      </trkpt>
      <trkpt lat="45.244712261483073" lon="5.728679364547133">
        <ele>556.5999755859375</ele>
        <time>2014-05-18T14:08:25Z</time>
      </trkpt>
      <trkpt lat="45.24464076384902" lon="5.728701492771506">
        <ele>556.79998779296875</ele>
        <time>2014-05-18T14:08:28Z</time>
      </trkpt>
      <trkpt lat="45.244518723338842" lon="5.728696547448635">
        <ele>557.5999755859375</ele>
        <time>2014-05-18T14:08:33Z</time>
      </trkpt>
      <trkpt lat="45.244446555152535" lon="5.728654554113746">
        <ele>557.79998779296875</ele>
        <time>2014-05-18T14:08:36Z</time>
      </trkpt>
      <trkpt lat="45.244284616783261" lon="5.728506026789546">
        <ele>558.79998779296875</ele>
        <time>2014-05-18T14:08:44Z</time>
      </trkpt>
      <trkpt lat="45.244169365614653" lon="5.728329923003912">
        <ele>559.79998779296875</ele>
        <time>2014-05-18T14:08:52Z</time>
      </trkpt>
      <trkpt lat="45.244152853265405" lon="5.728308632969856">
        <ele>559.79998779296875</ele>
        <time>2014-05-18T14:08:53Z</time>
      </trkpt>
      <trkpt lat="45.244029555469751" lon="5.728265466168523">
        <ele>561.20001220703125</ele>
        <time>2014-05-18T14:15:10Z</time>
      </trkpt>
      <trkpt lat="45.243895864114165" lon="5.728274853900075">
        <ele>561.20001220703125</ele>
        <time>2014-05-18T14:15:16Z</time>
      </trkpt>
      <trkpt lat="45.243700901046395" lon="5.728248534724116">
        <ele>561.79998779296875</ele>
        <time>2014-05-18T14:15:23Z</time>
      </trkpt>
      <trkpt lat="45.243624961003661" lon="5.728206876665354">
        <ele>562.4000244140625</ele>
        <time>2014-05-18T14:15:26Z</time>
      </trkpt>
      <trkpt lat="45.243528988212347" lon="5.728135965764523">
        <ele>563</ele>
        <time>2014-05-18T14:15:30Z</time>
      </trkpt>
      <trkpt lat="45.243458077311516" lon="5.728097157552838">
        <ele>563.4000244140625</ele>
        <time>2014-05-18T14:15:33Z</time>
      </trkpt>
      <trkpt lat="45.243390100076795" lon="5.72807377204299">
        <ele>564</ele>
        <time>2014-05-18T14:15:36Z</time>
      </trkpt>
      <trkpt lat="45.243337377905846" lon="5.72806790471077">
        <ele>564.5999755859375</ele>
        <time>2014-05-18T14:15:38Z</time>
      </trkpt>
      <trkpt lat="45.243259342387319" lon="5.728091038763523">
        <ele>564.79998779296875</ele>
        <time>2014-05-18T14:15:41Z</time>
      </trkpt>
      <trkpt lat="45.243114251643419" lon="5.728189190849662">
        <ele>565.5999755859375</ele>
        <time>2014-05-18T14:15:47Z</time>
      </trkpt>
      <trkpt lat="45.243095057085156" lon="5.728219030424953">
        <ele>565.5999755859375</ele>
        <time>2014-05-18T14:15:48Z</time>
      </trkpt>
      <trkpt lat="45.24296136572957" lon="5.728399325162172">
        <ele>566.5999755859375</ele>
        <time>2014-05-18T14:15:55Z</time>
      </trkpt>
      <trkpt lat="45.242938818410039" lon="5.728423213586211">
        <ele>566.79998779296875</ele>
        <time>2014-05-18T14:15:56Z</time>
      </trkpt>
      <trkpt lat="45.242822812870145" lon="5.728611303493381">
        <ele>567.79998779296875</ele>
        <time>2014-05-18T14:16:02Z</time>
      </trkpt>
      <trkpt lat="45.242801355198026" lon="5.728639215230942">
        <ele>567.79998779296875</ele>
        <time>2014-05-18T14:16:03Z</time>
      </trkpt>
      <trkpt lat="45.242701191455126" lon="5.728763183578849">
        <ele>568.4000244140625</ele>
        <time>2014-05-18T14:16:08Z</time>
      </trkpt>
      <trkpt lat="45.242604799568653" lon="5.728846248239279">
        <ele>568.79998779296875</ele>
        <time>2014-05-18T14:16:12Z</time>
      </trkpt>
      <trkpt lat="45.24250790476799" lon="5.728891342878342">
        <ele>569.5999755859375</ele>
        <time>2014-05-18T14:16:16Z</time>
      </trkpt>
      <trkpt lat="45.24248443543911" lon="5.728893186897039">
        <ele>570</ele>
        <time>2014-05-18T14:16:17Z</time>
      </trkpt>
      <trkpt lat="45.242401538416743" lon="5.728890001773834">
        <ele>570.5999755859375</ele>
        <time>2014-05-18T14:16:21Z</time>
      </trkpt>
      <trkpt lat="45.24231880903244" lon="5.728849852457643">
        <ele>571</ele>
        <time>2014-05-18T14:16:25Z</time>
      </trkpt>
      <trkpt lat="45.242278324440122" lon="5.728805931285024">
        <ele>571.20001220703125</ele>
        <time>2014-05-18T14:16:28Z</time>
      </trkpt>
      <trkpt lat="45.24215460754931" lon="5.728667629882693">
        <ele>572</ele>
        <time>2014-05-18T14:16:34Z</time>
      </trkpt>
      <trkpt lat="45.242000967264175" lon="5.728538380935788">
        <ele>573</ele>
        <time>2014-05-18T14:16:40Z</time>
      </trkpt>
      <trkpt lat="45.241984790191054" lon="5.728523628786206">
        <ele>573.20001220703125</ele>
        <time>2014-05-18T14:16:41Z</time>
      </trkpt>
      <trkpt lat="45.241868114098907" lon="5.728469146415591">
        <ele>574.20001220703125</ele>
        <time>2014-05-18T14:16:47Z</time>
      </trkpt>
      <trkpt lat="45.241846907883883" lon="5.72846420109272">
        <ele>574.20001220703125</ele>
        <time>2014-05-18T14:16:48Z</time>
      </trkpt>
      <trkpt lat="45.241701900959015" lon="5.728529579937458">
        <ele>574.5999755859375</ele>
        <time>2014-05-18T14:16:54Z</time>
      </trkpt>
      <trkpt lat="45.241573993116617" lon="5.7286655344069">
        <ele>575.20001220703125</ele>
        <time>2014-05-18T14:17:00Z</time>
      </trkpt>
      <trkpt lat="45.241552451625466" lon="5.728691434487701">
        <ele>575.20001220703125</ele>
        <time>2014-05-18T14:17:01Z</time>
      </trkpt>
      <trkpt lat="45.241392441093922" lon="5.728796627372503">
        <ele>575.79998779296875</ele>
        <time>2014-05-18T14:17:08Z</time>
      </trkpt>
      <trkpt lat="45.241295378655195" lon="5.728781707584858">
        <ele>576.4000244140625</ele>
        <time>2014-05-18T14:17:12Z</time>
      </trkpt>
      <trkpt lat="45.241252714768052" lon="5.728738289326429">
        <ele>576.5999755859375</ele>
        <time>2014-05-18T14:17:14Z</time>
      </trkpt>
      <trkpt lat="45.24105666205287" lon="5.728509211912751">
        <ele>577.20001220703125</ele>
        <time>2014-05-18T14:17:22Z</time>
      </trkpt>
      <trkpt lat="45.24097116664052" lon="5.728444000706077">
        <ele>577.4000244140625</ele>
        <time>2014-05-18T14:17:25Z</time>
      </trkpt>
      <trkpt lat="45.240852143615484" lon="5.728369066491723">
        <ele>578.20001220703125</ele>
        <time>2014-05-18T14:17:29Z</time>
      </trkpt>
      <trkpt lat="45.240792632102966" lon="5.728343417868018">
        <ele>578.5999755859375</ele>
        <time>2014-05-18T14:17:31Z</time>
      </trkpt>
      <trkpt lat="45.240631699562073" lon="5.728301927447319">
        <ele>579.4000244140625</ele>
        <time>2014-05-18T14:17:37Z</time>
      </trkpt>
      <trkpt lat="45.240605548024178" lon="5.728296563029289">
        <ele>580</ele>
        <time>2014-05-18T14:17:38Z</time>
      </trkpt>
      <trkpt lat="45.240420307964087" lon="5.728268064558506">
        <ele>580.79998779296875</ele>
        <time>2014-05-18T14:17:45Z</time>
      </trkpt>
      <trkpt lat="45.24034277535975" lon="5.728258425369859">
        <ele>581.20001220703125</ele>
        <time>2014-05-18T14:17:48Z</time>
      </trkpt>
      <trkpt lat="45.240218387916684" lon="5.728218108415604">
        <ele>582.20001220703125</ele>
        <time>2014-05-18T14:17:53Z</time>
      </trkpt>
      <trkpt lat="45.240039601922035" lon="5.728147951886058">
        <ele>583.20001220703125</ele>
        <time>2014-05-18T14:18:00Z</time>
      </trkpt>
      <trkpt lat="45.240012863650918" lon="5.72813437320292">
        <ele>583.20001220703125</ele>
        <time>2014-05-18T14:18:01Z</time>
      </trkpt>
      <trkpt lat="45.239882692694664" lon="5.728028090670705">
        <ele>584</ele>
        <time>2014-05-18T14:18:07Z</time>
      </trkpt>
      <trkpt lat="45.239840028807521" lon="5.72799950838089">
        <ele>584.4000244140625</ele>
        <time>2014-05-18T14:18:09Z</time>
      </trkpt>
      <trkpt lat="45.239703487604856" lon="5.727935470640659">
        <ele>585.20001220703125</ele>
        <time>2014-05-18T14:18:15Z</time>
      </trkpt>
      <trkpt lat="45.239601731300354" lon="5.727915354073048">
        <ele>585.5999755859375</ele>
        <time>2014-05-18T14:18:19Z</time>
      </trkpt>
      <trkpt lat="45.239500477910042" lon="5.72789104655385">
        <ele>586.20001220703125</ele>
        <time>2014-05-18T14:18:23Z</time>
      </trkpt>
      <trkpt lat="45.239437278360128" lon="5.727877216413617">
        <ele>587</ele>
        <time>2014-05-18T14:18:26Z</time>
      </trkpt>
      <trkpt lat="45.239345664158463" lon="5.727889453992248">
        <ele>587.5999755859375</ele>
        <time>2014-05-18T14:18:30Z</time>
      </trkpt>
      <trkpt lat="45.239276010543108" lon="5.727921053767204">
        <ele>588</ele>
        <time>2014-05-18T14:18:33Z</time>
      </trkpt>
      <trkpt lat="45.239168051630259" lon="5.727953156456351">
        <ele>588.5999755859375</ele>
        <time>2014-05-18T14:18:37Z</time>
      </trkpt>
      <trkpt lat="45.239055650308728" lon="5.727930860593915">
        <ele>589.20001220703125</ele>
        <time>2014-05-18T14:18:40Z</time>
      </trkpt>
      <trkpt lat="45.239004688337445" lon="5.727953240275383">
        <ele>589.4000244140625</ele>
        <time>2014-05-18T14:18:42Z</time>
      </trkpt>
      <trkpt lat="45.238883821293712" lon="5.727926418185234">
        <ele>589.79998779296875</ele>
        <time>2014-05-18T14:18:47Z</time>
      </trkpt>
      <trkpt lat="45.238841325044632" lon="5.727855591103435">
        <ele>590.20001220703125</ele>
        <time>2014-05-18T14:18:50Z</time>
      </trkpt>
      <trkpt lat="45.238814083859324" lon="5.727813094854355">
        <ele>590.79998779296875</ele>
        <time>2014-05-18T14:18:52Z</time>
      </trkpt>
      <trkpt lat="45.238785417750478" lon="5.727734891697764">
        <ele>591.4000244140625</ele>
        <time>2014-05-18T14:18:55Z</time>
      </trkpt>
      <trkpt lat="45.238757757470012" lon="5.727698933333159">
        <ele>591.79998779296875</ele>
        <time>2014-05-18T14:18:57Z</time>
      </trkpt>
      <trkpt lat="45.238687181845307" lon="5.727612683549523">
        <ele>592.4000244140625</ele>
        <time>2014-05-18T14:19:01Z</time>
      </trkpt>
      <trkpt lat="45.238637896254659" lon="5.727589465677738">
        <ele>592.5999755859375</ele>
        <time>2014-05-18T14:19:03Z</time>
      </trkpt>
      <trkpt lat="45.238521890714765" lon="5.727583011612296">
        <ele>593.5999755859375</ele>
        <time>2014-05-18T14:19:08Z</time>
      </trkpt>
      <trkpt lat="45.238500768318772" lon="5.727583263069391">
        <ele>593.5999755859375</ele>
        <time>2014-05-18T14:19:09Z</time>
      </trkpt>
      <trkpt lat="45.238364562392235" lon="5.727638164535165">
        <ele>594.4000244140625</ele>
        <time>2014-05-18T14:19:15Z</time>
      </trkpt>
      <trkpt lat="45.238320389762521" lon="5.727675128728151">
        <ele>594.5999755859375</ele>
        <time>2014-05-18T14:19:17Z</time>
      </trkpt>
      <trkpt lat="45.238233637064695" lon="5.727744111791253">
        <ele>595.4000244140625</ele>
        <time>2014-05-18T14:19:21Z</time>
      </trkpt>
      <trkpt lat="45.238162893801928" lon="5.727832289412618">
        <ele>595.79998779296875</ele>
        <time>2014-05-18T14:19:25Z</time>
      </trkpt>
      <trkpt lat="45.238099945709109" lon="5.72788710705936">
        <ele>596.20001220703125</ele>
        <time>2014-05-18T14:19:28Z</time>
      </trkpt>
      <trkpt lat="45.23795728571713" lon="5.727875707671046">
        <ele>596.4000244140625</ele>
        <time>2014-05-18T14:19:33Z</time>
      </trkpt>
      <trkpt lat="45.237894840538502" lon="5.727845868095756">
        <ele>596.79998779296875</ele>
        <time>2014-05-18T14:19:36Z</time>
      </trkpt>
      <trkpt lat="45.23783516138792" lon="5.727810077369213">
        <ele>597.79998779296875</ele>
        <time>2014-05-18T14:19:39Z</time>
      </trkpt>
      <trkpt lat="45.23781755939126" lon="5.727801779285073">
        <ele>597.79998779296875</ele>
        <time>2014-05-18T14:19:40Z</time>
      </trkpt>
      <trkpt lat="45.237683784216642" lon="5.727790296077728">
        <ele>598.79998779296875</ele>
        <time>2014-05-18T14:19:46Z</time>
      </trkpt>
      <trkpt lat="45.237663919106126" lon="5.727799432352185">
        <ele>598.79998779296875</ele>
        <time>2014-05-18T14:19:47Z</time>
      </trkpt>
      <trkpt lat="45.237559899687767" lon="5.727872857823968">
        <ele>599.5999755859375</ele>
        <time>2014-05-18T14:19:52Z</time>
      </trkpt>
      <trkpt lat="45.237472811713815" lon="5.727980732917786">
        <ele>600</ele>
        <time>2014-05-18T14:19:57Z</time>
      </trkpt>
      <trkpt lat="45.237438613548875" lon="5.728024737909436">
        <ele>600.20001220703125</ele>
        <time>2014-05-18T14:19:59Z</time>
      </trkpt>
      <trkpt lat="45.237362589687109" lon="5.728200925514102">
        <ele>601.20001220703125</ele>
        <time>2014-05-18T14:20:05Z</time>
      </trkpt>
      <trkpt lat="45.237338868901134" lon="5.728268986567855">
        <ele>601.4000244140625</ele>
        <time>2014-05-18T14:20:07Z</time>
      </trkpt>
      <trkpt lat="45.237264689058065" lon="5.728443330153823">
        <ele>602</ele>
        <time>2014-05-18T14:20:13Z</time>
      </trkpt>
      <trkpt lat="45.237224958837032" lon="5.728487251326442">
        <ele>602</ele>
        <time>2014-05-18T14:20:15Z</time>
      </trkpt>
      <trkpt lat="45.237175757065415" lon="5.728510385379195">
        <ele>602.4000244140625</ele>
        <time>2014-05-18T14:20:18Z</time>
      </trkpt>
      <trkpt lat="45.237084729596972" lon="5.728457495570183">
        <ele>603.4000244140625</ele>
        <time>2014-05-18T14:20:23Z</time>
      </trkpt>
      <trkpt lat="45.237064026296139" lon="5.72843779809773">
        <ele>603.5999755859375</ele>
        <time>2014-05-18T14:20:24Z</time>
      </trkpt>
      <trkpt lat="45.23697417229414" lon="5.728240991011262">
        <ele>603.79998779296875</ele>
        <time>2014-05-18T14:20:30Z</time>
      </trkpt>
      <trkpt lat="45.236925221979618" lon="5.728061115369201">
        <ele>604.4000244140625</ele>
        <time>2014-05-18T14:20:35Z</time>
      </trkpt>
      <trkpt lat="45.236918097361922" lon="5.728028090670705">
        <ele>604.5999755859375</ele>
        <time>2014-05-18T14:20:36Z</time>
      </trkpt>
      <trkpt lat="45.236913152039051" lon="5.727831032127142">
        <ele>605.5999755859375</ele>
        <time>2014-05-18T14:20:43Z</time>
      </trkpt>
      <trkpt lat="45.236926563084126" lon="5.727629531174898">
        <ele>606.20001220703125</ele>
        <time>2014-05-18T14:20:50Z</time>
      </trkpt>
      <trkpt lat="45.236938716843724" lon="5.727542191743851">
        <ele>606.79998779296875</ele>
        <time>2014-05-18T14:20:53Z</time>
      </trkpt>
      <trkpt lat="45.236945506185293" lon="5.727412858977914">
        <ele>607.4000244140625</ele>
        <time>2014-05-18T14:20:57Z</time>
      </trkpt>
      <trkpt lat="45.23694533854723" lon="5.727198198437691">
        <ele>607.79998779296875</ele>
        <time>2014-05-18T14:21:03Z</time>
      </trkpt>
      <trkpt lat="45.236915918067098" lon="5.727099040523171">
        <ele>607.79998779296875</ele>
        <time>2014-05-18T14:21:06Z</time>
      </trkpt>
      <trkpt lat="45.236850623041391" lon="5.727021172642708">
        <ele>608</ele>
        <time>2014-05-18T14:21:09Z</time>
      </trkpt>
      <trkpt lat="45.236685918644071" lon="5.72688982822001">
        <ele>608.4000244140625</ele>
        <time>2014-05-18T14:21:15Z</time>
      </trkpt>
      <trkpt lat="45.236565470695496" lon="5.726811625063419">
        <ele>609</ele>
        <time>2014-05-18T14:21:19Z</time>
      </trkpt>
      <trkpt lat="45.236448459327221" lon="5.726740881800652">
        <ele>609.5999755859375</ele>
        <time>2014-05-18T14:21:23Z</time>
      </trkpt>
      <trkpt lat="45.236280234530568" lon="5.726624121889472">
        <ele>609.79998779296875</ele>
        <time>2014-05-18T14:21:29Z</time>
      </trkpt>
      <trkpt lat="45.236183255910873" lon="5.726581625640392">
        <ele>610</ele>
        <time>2014-05-18T14:21:32Z</time>
      </trkpt>
      <trkpt lat="45.236092815175653" lon="5.726526137441397">
        <ele>610.4000244140625</ele>
        <time>2014-05-18T14:21:35Z</time>
      </trkpt>
      <trkpt lat="45.235838005319238" lon="5.726385237649083">
        <ele>611</ele>
        <time>2014-05-18T14:21:43Z</time>
      </trkpt>
      <trkpt lat="45.235804812982678" lon="5.726370234042406">
        <ele>611</ele>
        <time>2014-05-18T14:21:44Z</time>
      </trkpt>
      <trkpt lat="45.235571293160319" lon="5.726281385868788">
        <ele>611.5999755859375</ele>
        <time>2014-05-18T14:21:51Z</time>
      </trkpt>
      <trkpt lat="45.235324027016759" lon="5.72617644444108">
        <ele>612</ele>
        <time>2014-05-18T14:21:59Z</time>
      </trkpt>
      <trkpt lat="45.235256552696228" lon="5.726154316216707">
        <ele>612.20001220703125</ele>
        <time>2014-05-18T14:22:01Z</time>
      </trkpt>
      <trkpt lat="45.235050274059176" lon="5.726074185222387">
        <ele>612.79998779296875</ele>
        <time>2014-05-18T14:22:07Z</time>
      </trkpt>
      <trkpt lat="45.235015572980046" lon="5.726065300405026">
        <ele>613</ele>
        <time>2014-05-18T14:22:08Z</time>
      </trkpt>
      <trkpt lat="45.234911553561687" lon="5.726028168573976">
        <ele>613.20001220703125</ele>
        <time>2014-05-18T14:22:11Z</time>
      </trkpt>
      <trkpt lat="45.234740730375051" lon="5.725959353148937">
        <ele>613.79998779296875</ele>
        <time>2014-05-18T14:22:16Z</time>
      </trkpt>
      <trkpt lat="45.234541073441505" lon="5.725862709805369">
        <ele>613.5999755859375</ele>
        <time>2014-05-18T14:22:22Z</time>
      </trkpt>
      <trkpt lat="45.234299339354038" lon="5.725764557719231">
        <ele>613</ele>
        <time>2014-05-18T14:22:28Z</time>
      </trkpt>
      <trkpt lat="45.234212251380086" lon="5.725731197744608">
        <ele>612.4000244140625</ele>
        <time>2014-05-18T14:22:30Z</time>
      </trkpt>
      <trkpt lat="45.234104208648205" lon="5.725731030106545">
        <ele>611.79998779296875</ele>
        <time>2014-05-18T14:22:32Z</time>
      </trkpt>
      <trkpt lat="45.233912011608481" lon="5.725728683173657">
        <ele>610.5999755859375</ele>
        <time>2014-05-18T14:22:35Z</time>
      </trkpt>
      <trkpt lat="45.233758203685284" lon="5.725719630718231">
        <ele>609.20001220703125</ele>
        <time>2014-05-18T14:22:37Z</time>
      </trkpt>
      <trkpt lat="45.233573215082288" lon="5.725715775042772">
        <ele>607.4000244140625</ele>
        <time>2014-05-18T14:22:39Z</time>
      </trkpt>
      <trkpt lat="45.233369031921029" lon="5.725705632939935">
        <ele>606</ele>
        <time>2014-05-18T14:22:41Z</time>
      </trkpt>
      <trkpt lat="45.233153952285647" lon="5.725698173046112">
        <ele>604.4000244140625</ele>
        <time>2014-05-18T14:22:43Z</time>
      </trkpt>
      <trkpt lat="45.233041467145085" lon="5.725698340684176">
        <ele>603.20001220703125</ele>
        <time>2014-05-18T14:22:44Z</time>
      </trkpt>
      <trkpt lat="45.232924791052938" lon="5.725700268521905">
        <ele>602.20001220703125</ele>
        <time>2014-05-18T14:22:45Z</time>
      </trkpt>
      <trkpt lat="45.23280568420887" lon="5.725699849426746">
        <ele>600.79998779296875</ele>
        <time>2014-05-18T14:22:46Z</time>
      </trkpt>
      <trkpt lat="45.232683476060629" lon="5.725700184702873">
        <ele>599.5999755859375</ele>
        <time>2014-05-18T14:22:47Z</time>
      </trkpt>
      <trkpt lat="45.232561770826578" lon="5.725696748122573">
        <ele>598.5999755859375</ele>
        <time>2014-05-18T14:22:48Z</time>
      </trkpt>
      <trkpt lat="45.232433779165149" lon="5.725689623504877">
        <ele>597.4000244140625</ele>
        <time>2014-05-18T14:22:49Z</time>
      </trkpt>
      <trkpt lat="45.232301512733102" lon="5.725682163611054">
        <ele>595.4000244140625</ele>
        <time>2014-05-18T14:22:50Z</time>
      </trkpt>
      <trkpt lat="45.232034800574183" lon="5.725651569664478">
        <ele>594.20001220703125</ele>
        <time>2014-05-18T14:22:52Z</time>
      </trkpt>
      <trkpt lat="45.23177420720458" lon="5.72559935040772">
        <ele>593.20001220703125</ele>
        <time>2014-05-18T14:22:54Z</time>
      </trkpt>
      <trkpt lat="45.231528114527464" lon="5.725516369566321">
        <ele>591.79998779296875</ele>
        <time>2014-05-18T14:22:56Z</time>
      </trkpt>
      <trkpt lat="45.231404397636652" lon="5.725488038733602">
        <ele>591.4000244140625</ele>
        <time>2014-05-18T14:22:57Z</time>
      </trkpt>
      <trkpt lat="45.230912128463387" lon="5.725510250777006">
        <ele>590.4000244140625</ele>
        <time>2014-05-18T14:23:01Z</time>
      </trkpt>
      <trkpt lat="45.230597890913486" lon="5.725535480305553">
        <ele>589.20001220703125</ele>
        <time>2014-05-18T14:23:04Z</time>
      </trkpt>
      <trkpt lat="45.230414243414998" lon="5.725492313504219">
        <ele>588.20001220703125</ele>
        <time>2014-05-18T14:23:06Z</time>
      </trkpt>
      <trkpt lat="45.230333609506488" lon="5.725446296855807">
        <ele>588</ele>
        <time>2014-05-18T14:23:07Z</time>
      </trkpt>
      <trkpt lat="45.230257418006659" lon="5.725390054285526">
        <ele>587.5999755859375</ele>
        <time>2014-05-18T14:23:08Z</time>
      </trkpt>
      <trkpt lat="45.230105621740222" lon="5.725268349051476">
        <ele>586.5999755859375</ele>
        <time>2014-05-18T14:23:10Z</time>
      </trkpt>
      <trkpt lat="45.229942761361599" lon="5.725147314369679">
        <ele>585</ele>
        <time>2014-05-18T14:23:12Z</time>
      </trkpt>
      <trkpt lat="45.229868246242404" lon="5.725101716816425">
        <ele>584.20001220703125</ele>
        <time>2014-05-18T14:23:13Z</time>
      </trkpt>
      <trkpt lat="45.229804795235395" lon="5.725070787593722">
        <ele>582.79998779296875</ele>
        <time>2014-05-18T14:23:14Z</time>
      </trkpt>
      <trkpt lat="45.229747211560607" lon="5.725054023787379">
        <ele>582.4000244140625</ele>
        <time>2014-05-18T14:23:15Z</time>
      </trkpt>
      <trkpt lat="45.229698093608022" lon="5.725043127313256">
        <ele>582.4000244140625</ele>
        <time>2014-05-18T14:23:16Z</time>
      </trkpt>
      <trkpt lat="45.229627350345254" lon="5.725020077079535">
        <ele>582.4000244140625</ele>
        <time>2014-05-18T14:23:19Z</time>
      </trkpt>
      <trkpt lat="45.229612849652767" lon="5.72502619586885">
        <ele>582.20001220703125</ele>
        <time>2014-05-18T14:24:04Z</time>
      </trkpt>
      <trkpt lat="45.229589883238077" lon="5.725023513659835">
        <ele>582</ele>
        <time>2014-05-18T14:24:05Z</time>
      </trkpt>
      <trkpt lat="45.229561720043421" lon="5.725019741803408">
        <ele>581.79998779296875</ele>
        <time>2014-05-18T14:24:06Z</time>
      </trkpt>
      <trkpt lat="45.229441775009036" lon="5.724992249161005">
        <ele>580.79998779296875</ele>
        <time>2014-05-18T14:24:09Z</time>
      </trkpt>
      <trkpt lat="45.229392321780324" lon="5.724984034895897">
        <ele>580.4000244140625</ele>
        <time>2014-05-18T14:24:10Z</time>
      </trkpt>
      <trkpt lat="45.229226360097528" lon="5.724950423464179">
        <ele>579</ele>
        <time>2014-05-18T14:24:13Z</time>
      </trkpt>
      <trkpt lat="45.229165675118566" lon="5.724938018247485">
        <ele>578.5999755859375</ele>
        <time>2014-05-18T14:24:14Z</time>
      </trkpt>
      <trkpt lat="45.229102140292525" lon="5.724922930821776">
        <ele>578</ele>
        <time>2014-05-18T14:24:15Z</time>
      </trkpt>
      <trkpt lat="45.228896951302886" lon="5.724921254441142">
        <ele>576.79998779296875</ele>
        <time>2014-05-18T14:24:18Z</time>
      </trkpt>
      <trkpt lat="45.228823190554976" lon="5.724932989105582">
        <ele>576.4000244140625</ele>
        <time>2014-05-18T14:24:19Z</time>
      </trkpt>
      <trkpt lat="45.228741383180022" lon="5.724946986883879">
        <ele>575.79998779296875</ele>
        <time>2014-05-18T14:24:20Z</time>
      </trkpt>
      <trkpt lat="45.228576427325606" lon="5.724976072087884">
        <ele>574.79998779296875</ele>
        <time>2014-05-18T14:24:22Z</time>
      </trkpt>
      <trkpt lat="45.228488920256495" lon="5.724973725154996">
        <ele>574.5999755859375</ele>
        <time>2014-05-18T14:24:23Z</time>
      </trkpt>
      <trkpt lat="45.228396132588387" lon="5.724961655214429">
        <ele>574.20001220703125</ele>
        <time>2014-05-18T14:24:24Z</time>
      </trkpt>
      <trkpt lat="45.22830443456769" lon="5.724948244169354">
        <ele>573.79998779296875</ele>
        <time>2014-05-18T14:24:25Z</time>
      </trkpt>
      <trkpt lat="45.228210305795074" lon="5.724927205592394">
        <ele>572.5999755859375</ele>
        <time>2014-05-18T14:24:26Z</time>
      </trkpt>
      <trkpt lat="45.228011989966035" lon="5.724890492856503">
        <ele>571.20001220703125</ele>
        <time>2014-05-18T14:24:28Z</time>
      </trkpt>
      <trkpt lat="45.227809064090252" lon="5.724864844232798">
        <ele>569.79998779296875</ele>
        <time>2014-05-18T14:24:30Z</time>
      </trkpt>
      <trkpt lat="45.22760521620512" lon="5.724926618859172">
        <ele>568</ele>
        <time>2014-05-18T14:24:32Z</time>
      </trkpt>
      <trkpt lat="45.227509159594774" lon="5.724988896399736">
        <ele>567.20001220703125</ele>
        <time>2014-05-18T14:24:33Z</time>
      </trkpt>
      <trkpt lat="45.227422490715981" lon="5.72507212869823">
        <ele>566.4000244140625</ele>
        <time>2014-05-18T14:24:34Z</time>
      </trkpt>
      <trkpt lat="45.227259127423167" lon="5.725271785631776">
        <ele>565.20001220703125</ele>
        <time>2014-05-18T14:24:36Z</time>
      </trkpt>
      <trkpt lat="45.227079251781106" lon="5.725447721779347">
        <ele>563.79998779296875</ele>
        <time>2014-05-18T14:24:38Z</time>
      </trkpt>
      <trkpt lat="45.22697439417243" lon="5.725502790883184">
        <ele>562.79998779296875</ele>
        <time>2014-05-18T14:24:39Z</time>
      </trkpt>
      <trkpt lat="45.226869368925691" lon="5.725538581609726">
        <ele>562.4000244140625</ele>
        <time>2014-05-18T14:24:40Z</time>
      </trkpt>
      <trkpt lat="45.226658899337053" lon="5.725567918270826">
        <ele>562.5999755859375</ele>
        <time>2014-05-18T14:24:42Z</time>
      </trkpt>
      <trkpt lat="45.226556640118361" lon="5.725547969341278">
        <ele>562.79998779296875</ele>
        <time>2014-05-18T14:24:43Z</time>
      </trkpt>
      <trkpt lat="45.226081134751439" lon="5.725419474765658">
        <ele>563</ele>
        <time>2014-05-18T14:24:48Z</time>
      </trkpt>
      <trkpt lat="45.225820122286677" lon="5.725347809493542">
        <ele>563.5999755859375</ele>
        <time>2014-05-18T14:24:51Z</time>
      </trkpt>
      <trkpt lat="45.225549302995205" lon="5.725244795903564">
        <ele>562.4000244140625</ele>
        <time>2014-05-18T14:24:54Z</time>
      </trkpt>
      <trkpt lat="45.225358111783862" lon="5.725147230550647">
        <ele>560.79998779296875</ele>
        <time>2014-05-18T14:24:56Z</time>
      </trkpt>
      <trkpt lat="45.225258870050311" lon="5.725099453702569">
        <ele>559.79998779296875</ele>
        <time>2014-05-18T14:24:57Z</time>
      </trkpt>
      <trkpt lat="45.225046724081039" lon="5.725003648549318">
        <ele>558.20001220703125</ele>
        <time>2014-05-18T14:24:59Z</time>
      </trkpt>
      <trkpt lat="45.224826531484723" lon="5.724904993548989">
        <ele>556.4000244140625</ele>
        <time>2014-05-18T14:25:01Z</time>
      </trkpt>
      <trkpt lat="45.224715890362859" lon="5.724854785948992">
        <ele>555</ele>
        <time>2014-05-18T14:25:02Z</time>
      </trkpt>
      <trkpt lat="45.224607512354851" lon="5.724809523671866">
        <ele>553.79998779296875</ele>
        <time>2014-05-18T14:25:03Z</time>
      </trkpt>
      <trkpt lat="45.224499721080065" lon="5.724762668833137">
        <ele>552.5999755859375</ele>
        <time>2014-05-18T14:25:04Z</time>
      </trkpt>
      <trkpt lat="45.224296376109123" lon="5.724687231704593">
        <ele>551</ele>
        <time>2014-05-18T14:25:06Z</time>
      </trkpt>
      <trkpt lat="45.224088504910469" lon="5.724597461521626">
        <ele>549.4000244140625</ele>
        <time>2014-05-18T14:25:08Z</time>
      </trkpt>
      <trkpt lat="45.223867390304804" lon="5.724528478458524">
        <ele>547.79998779296875</ele>
        <time>2014-05-18T14:25:10Z</time>
      </trkpt>
      <trkpt lat="45.223754737526178" lon="5.724513391032815">
        <ele>547</ele>
        <time>2014-05-18T14:25:11Z</time>
      </trkpt>
      <trkpt lat="45.223638899624348" lon="5.724501991644502">
        <ele>546</ele>
        <time>2014-05-18T14:25:12Z</time>
      </trkpt>
      <trkpt lat="45.223402362316847" lon="5.724506350234151">
        <ele>543.4000244140625</ele>
        <time>2014-05-18T14:25:14Z</time>
      </trkpt>
      <trkpt lat="45.223279483616352" lon="5.724514480680227">
        <ele>542.4000244140625</ele>
        <time>2014-05-18T14:25:15Z</time>
      </trkpt>
      <trkpt lat="45.223156102001667" lon="5.724531328305602">
        <ele>541.4000244140625</ele>
        <time>2014-05-18T14:25:16Z</time>
      </trkpt>
      <trkpt lat="45.22292610257864" lon="5.724568460136652">
        <ele>540.4000244140625</ele>
        <time>2014-05-18T14:25:18Z</time>
      </trkpt>
      <trkpt lat="45.222698701545596" lon="5.724594946950674">
        <ele>540.20001220703125</ele>
        <time>2014-05-18T14:25:20Z</time>
      </trkpt>
      <trkpt lat="45.222179358825088" lon="5.72460793890059">
        <ele>539.79998779296875</ele>
        <time>2014-05-18T14:25:25Z</time>
      </trkpt>
      <trkpt lat="45.221704775467515" lon="5.724548762664199">
        <ele>540</ele>
        <time>2014-05-18T14:25:30Z</time>
      </trkpt>
      <trkpt lat="45.221282411366701" lon="5.72437827475369">
        <ele>540</ele>
        <time>2014-05-18T14:25:35Z</time>
      </trkpt>
      <trkpt lat="45.221103290095925" lon="5.724286073818803">
        <ele>539</ele>
        <time>2014-05-18T14:25:37Z</time>
      </trkpt>
      <trkpt lat="45.221006227657199" lon="5.724237207323313">
        <ele>537.4000244140625</ele>
        <time>2014-05-18T14:25:38Z</time>
      </trkpt>
      <trkpt lat="45.220798188820481" lon="5.724164368584752">
        <ele>535.4000244140625</ele>
        <time>2014-05-18T14:25:40Z</time>
      </trkpt>
      <trkpt lat="45.220699450001121" lon="5.724153975024819">
        <ele>534.20001220703125</ele>
        <time>2014-05-18T14:25:41Z</time>
      </trkpt>
      <trkpt lat="45.220517814159393" lon="5.724113825708628">
        <ele>532.79998779296875</ele>
        <time>2014-05-18T14:25:43Z</time>
      </trkpt>
      <trkpt lat="45.220438437536359" lon="5.724066887050867">
        <ele>532.4000244140625</ele>
        <time>2014-05-18T14:25:44Z</time>
      </trkpt>
      <trkpt lat="45.22036568261683" lon="5.723996227607131">
        <ele>531.5999755859375</ele>
        <time>2014-05-18T14:25:45Z</time>
      </trkpt>
      <trkpt lat="45.220309188589454" lon="5.723897991701961">
        <ele>530.79998779296875</ele>
        <time>2014-05-18T14:25:46Z</time>
      </trkpt>
      <trkpt lat="45.220263926312327" lon="5.723781483247876">
        <ele>529.79998779296875</ele>
        <time>2014-05-18T14:25:47Z</time>
      </trkpt>
      <trkpt lat="45.220171893015504" lon="5.723523404449225">
        <ele>528</ele>
        <time>2014-05-18T14:25:49Z</time>
      </trkpt>
      <trkpt lat="45.220128139480948" lon="5.723390132188797">
        <ele>527</ele>
        <time>2014-05-18T14:25:50Z</time>
      </trkpt>
      <trkpt lat="45.220123613253236" lon="5.723233390599489">
        <ele>526</ele>
        <time>2014-05-18T14:25:51Z</time>
      </trkpt>
      <trkpt lat="45.220131995156407" lon="5.723072877153754">
        <ele>524.79998779296875</ele>
        <time>2014-05-18T14:25:52Z</time>
      </trkpt>
      <trkpt lat="45.220146914944053" lon="5.722909597679973">
        <ele>523.5999755859375</ele>
        <time>2014-05-18T14:25:53Z</time>
      </trkpt>
      <trkpt lat="45.220165271311998" lon="5.722750425338745">
        <ele>522.4000244140625</ele>
        <time>2014-05-18T14:25:54Z</time>
      </trkpt>
      <trkpt lat="45.220172982662916" lon="5.722589576616883">
        <ele>521.20001220703125</ele>
        <time>2014-05-18T14:25:55Z</time>
      </trkpt>
      <trkpt lat="45.220186980441213" lon="5.72243551723659">
        <ele>520.20001220703125</ele>
        <time>2014-05-18T14:25:56Z</time>
      </trkpt>
      <trkpt lat="45.220194021239877" lon="5.722133098170161">
        <ele>518.79998779296875</ele>
        <time>2014-05-18T14:25:58Z</time>
      </trkpt>
      <trkpt lat="45.220151441171765" lon="5.721981720998883">
        <ele>517.79998779296875</ele>
        <time>2014-05-18T14:25:59Z</time>
      </trkpt>
      <trkpt lat="45.220099976286292" lon="5.721835205331445">
        <ele>517</ele>
        <time>2014-05-18T14:26:00Z</time>
      </trkpt>
      <trkpt lat="45.219938792288303" lon="5.721554160118103">
        <ele>515</ele>
        <time>2014-05-18T14:26:02Z</time>
      </trkpt>
      <trkpt lat="45.219853883609176" lon="5.721419546753168">
        <ele>514.20001220703125</ele>
        <time>2014-05-18T14:26:03Z</time>
      </trkpt>
      <trkpt lat="45.219753719866276" lon="5.721290465444326">
        <ele>512.5999755859375</ele>
        <time>2014-05-18T14:26:04Z</time>
      </trkpt>
      <trkpt lat="45.219635367393494" lon="5.721173956990242">
        <ele>510.79998779296875</ele>
        <time>2014-05-18T14:26:05Z</time>
      </trkpt>
      <trkpt lat="45.219525061547756" lon="5.721081420779228">
        <ele>509.60000610351563</ele>
        <time>2014-05-18T14:26:06Z</time>
      </trkpt>
      <trkpt lat="45.21932146511972" lon="5.721006905660033">
        <ele>508.39999389648437</ele>
        <time>2014-05-18T14:26:08Z</time>
      </trkpt>
      <trkpt lat="45.2190928068012" lon="5.721067003905773">
        <ele>507.79998779296875</ele>
        <time>2014-05-18T14:26:10Z</time>
      </trkpt>
      <trkpt lat="45.218976549804211" lon="5.721116038039327">
        <ele>506.60000610351562</ele>
        <time>2014-05-18T14:26:11Z</time>
      </trkpt>
      <trkpt lat="45.21885434165597" lon="5.721157528460026">
        <ele>505</ele>
        <time>2014-05-18T14:26:12Z</time>
      </trkpt>
      <trkpt lat="45.218727942556143" lon="5.721204718574882">
        <ele>503.39999389648437</ele>
        <time>2014-05-18T14:26:13Z</time>
      </trkpt>
      <trkpt lat="45.218598693609238" lon="5.721252243965864">
        <ele>501.79998779296875</ele>
        <time>2014-05-18T14:26:14Z</time>
      </trkpt>
      <trkpt lat="45.218464834615588" lon="5.721300104632974">
        <ele>500</ele>
        <time>2014-05-18T14:26:15Z</time>
      </trkpt>
      <trkpt lat="45.218331562355161" lon="5.721353413537145">
        <ele>498.39999389648438</ele>
        <time>2014-05-18T14:26:16Z</time>
      </trkpt>
      <trkpt lat="45.218197284266353" lon="5.721407560631633">
        <ele>497.20001220703125</ele>
        <time>2014-05-18T14:26:17Z</time>
      </trkpt>
      <trkpt lat="45.217921268194914" lon="5.721508814021945">
        <ele>495</ele>
        <time>2014-05-18T14:26:19Z</time>
      </trkpt>
      <trkpt lat="45.2177803684026" lon="5.721564050763845">
        <ele>493.39999389648437</ele>
        <time>2014-05-18T14:26:20Z</time>
      </trkpt>
      <trkpt lat="45.217647766694427" lon="5.721624568104744">
        <ele>491.79998779296875</ele>
        <time>2014-05-18T14:26:21Z</time>
      </trkpt>
      <trkpt lat="45.217411816120148" lon="5.721692629158497">
        <ele>490.79998779296875</ele>
        <time>2014-05-18T14:26:23Z</time>
      </trkpt>
      <trkpt lat="45.21728633902967" lon="5.721712661907077">
        <ele>490.39999389648437</ele>
        <time>2014-05-18T14:26:24Z</time>
      </trkpt>
      <trkpt lat="45.217155916616321" lon="5.721713248640299">
        <ele>489.60000610351562</ele>
        <time>2014-05-18T14:26:25Z</time>
      </trkpt>
      <trkpt lat="45.217020967975259" lon="5.721678463742137">
        <ele>486.39999389648437</ele>
        <time>2014-05-18T14:26:26Z</time>
      </trkpt>
      <trkpt lat="45.216885516420007" lon="5.721615348011255">
        <ele>484.79998779296875</ele>
        <time>2014-05-18T14:26:27Z</time>
      </trkpt>
      <trkpt lat="45.21675668656826" lon="5.721519878134131">
        <ele>483.20001220703125</ele>
        <time>2014-05-18T14:26:28Z</time>
      </trkpt>
      <trkpt lat="45.216638669371605" lon="5.721391635015607">
        <ele>481.60000610351562</ele>
        <time>2014-05-18T14:26:29Z</time>
      </trkpt>
      <trkpt lat="45.216543031856418" lon="5.721232462674379">
        <ele>480</ele>
        <time>2014-05-18T14:26:30Z</time>
      </trkpt>
      <trkpt lat="45.216454770416021" lon="5.721063734963536">
        <ele>479</ele>
        <time>2014-05-18T14:26:31Z</time>
      </trkpt>
      <trkpt lat="45.216350248083472" lon="5.72091001085937">
        <ele>478.20001220703125</ele>
        <time>2014-05-18T14:26:32Z</time>
      </trkpt>
      <trkpt lat="45.216232314705849" lon="5.720769027248025">
        <ele>477.20001220703125</ele>
        <time>2014-05-18T14:26:33Z</time>
      </trkpt>
      <trkpt lat="45.216107256710529" lon="5.720638772472739">
        <ele>476</ele>
        <time>2014-05-18T14:26:34Z</time>
      </trkpt>
      <trkpt lat="45.215975074097514" lon="5.720513798296452">
        <ele>473.79998779296875</ele>
        <time>2014-05-18T14:26:35Z</time>
      </trkpt>
      <trkpt lat="45.215845992788672" lon="5.720390668138862">
        <ele>471.60000610351562</ele>
        <time>2014-05-18T14:26:36Z</time>
      </trkpt>
      <trkpt lat="45.215726215392351" lon="5.720271896570921">
        <ele>469.60000610351562</ele>
        <time>2014-05-18T14:26:37Z</time>
      </trkpt>
      <trkpt lat="45.215493701398373" lon="5.720009878277779">
        <ele>467.79998779296875</ele>
        <time>2014-05-18T14:26:39Z</time>
      </trkpt>
      <trkpt lat="45.215392783284187" lon="5.719856657087803">
        <ele>466.79998779296875</ele>
        <time>2014-05-18T14:26:40Z</time>
      </trkpt>
      <trkpt lat="45.215284070000052" lon="5.719695221632719">
        <ele>465.20001220703125</ele>
        <time>2014-05-18T14:26:41Z</time>
      </trkpt>
      <trkpt lat="45.215178960934281" lon="5.719533115625382">
        <ele>463.39999389648437</ele>
        <time>2014-05-18T14:26:42Z</time>
      </trkpt>
      <trkpt lat="45.215068990364671" lon="5.719367656856775">
        <ele>462</ele>
        <time>2014-05-18T14:26:43Z</time>
      </trkpt>
      <trkpt lat="45.21496094763279" lon="5.719202114269137">
        <ele>460.79998779296875</ele>
        <time>2014-05-18T14:26:44Z</time>
      </trkpt>
      <trkpt lat="45.214851563796401" lon="5.719037661328912">
        <ele>459.79998779296875</ele>
        <time>2014-05-18T14:26:45Z</time>
      </trkpt>
      <trkpt lat="45.214735977351665" lon="5.718873543664813">
        <ele>458.39999389648438</ele>
        <time>2014-05-18T14:26:46Z</time>
      </trkpt>
      <trkpt lat="45.214613182470202" lon="5.718720825389028">
        <ele>457</ele>
        <time>2014-05-18T14:26:47Z</time>
      </trkpt>
      <trkpt lat="45.214492063969374" lon="5.718571543693543">
        <ele>455.20001220703125</ele>
        <time>2014-05-18T14:26:48Z</time>
      </trkpt>
      <trkpt lat="45.214368849992752" lon="5.718425698578358">
        <ele>453.60000610351562</ele>
        <time>2014-05-18T14:26:49Z</time>
      </trkpt>
      <trkpt lat="45.214248737320304" lon="5.718293515965343">
        <ele>450</ele>
        <time>2014-05-18T14:26:50Z</time>
      </trkpt>
      <trkpt lat="45.21412787027657" lon="5.71817466057837">
        <ele>448.79998779296875</ele>
        <time>2014-05-18T14:26:51Z</time>
      </trkpt>
      <trkpt lat="45.213904744014144" lon="5.717983385547996">
        <ele>447.79998779296875</ele>
        <time>2014-05-18T14:26:53Z</time>
      </trkpt>
      <trkpt lat="45.213781362399459" lon="5.717915156856179">
        <ele>446.79998779296875</ele>
        <time>2014-05-18T14:26:54Z</time>
      </trkpt>
      <trkpt lat="45.213647419586778" lon="5.717866206541657">
        <ele>445.60000610351562</ele>
        <time>2014-05-18T14:26:55Z</time>
      </trkpt>
      <trkpt lat="45.213508615270257" lon="5.717823458835483">
        <ele>444.20001220703125</ele>
        <time>2014-05-18T14:26:56Z</time>
      </trkpt>
      <trkpt lat="45.213380455970764" lon="5.71778180077672">
        <ele>443</ele>
        <time>2014-05-18T14:26:57Z</time>
      </trkpt>
      <trkpt lat="45.213257744908333" lon="5.717741819098592">
        <ele>441.79998779296875</ele>
        <time>2014-05-18T14:26:58Z</time>
      </trkpt>
      <trkpt lat="45.21302305161953" lon="5.717669734731317">
        <ele>440.20001220703125</ele>
        <time>2014-05-18T14:27:00Z</time>
      </trkpt>
      <trkpt lat="45.212898999452591" lon="5.717643080279231">
        <ele>439.79998779296875</ele>
        <time>2014-05-18T14:27:01Z</time>
      </trkpt>
      <trkpt lat="45.212773773819208" lon="5.717596812173724">
        <ele>439</ele>
        <time>2014-05-18T14:27:02Z</time>
      </trkpt>
      <trkpt lat="45.21265902556479" lon="5.717510981485248">
        <ele>437.79998779296875</ele>
        <time>2014-05-18T14:27:03Z</time>
      </trkpt>
      <trkpt lat="45.212553832679987" lon="5.717437975108624">
        <ele>436.60000610351562</ele>
        <time>2014-05-18T14:27:04Z</time>
      </trkpt>
      <trkpt lat="45.212329616770148" lon="5.717302355915308">
        <ele>434.60000610351562</ele>
        <time>2014-05-18T14:27:06Z</time>
      </trkpt>
      <trkpt lat="45.21220313385129" lon="5.717282323166728">
        <ele>433.39999389648437</ele>
        <time>2014-05-18T14:27:07Z</time>
      </trkpt>
      <trkpt lat="45.212079333141446" lon="5.717249969020486">
        <ele>432</ele>
        <time>2014-05-18T14:27:08Z</time>
      </trkpt>
      <trkpt lat="45.211959974840283" lon="5.717228092253208">
        <ele>430.60000610351562</ele>
        <time>2014-05-18T14:27:09Z</time>
      </trkpt>
      <trkpt lat="45.211842292919755" lon="5.717212669551373">
        <ele>429.79998779296875</ele>
        <time>2014-05-18T14:27:10Z</time>
      </trkpt>
      <trkpt lat="45.21171698346734" lon="5.717226415872574">
        <ele>429.20001220703125</ele>
        <time>2014-05-18T14:27:11Z</time>
      </trkpt>
      <trkpt lat="45.211595529690385" lon="5.717241922393441">
        <ele>428.60000610351562</ele>
        <time>2014-05-18T14:27:12Z</time>
      </trkpt>
      <trkpt lat="45.21147508174181" lon="5.717243514955044">
        <ele>427.60000610351562</ele>
        <time>2014-05-18T14:27:13Z</time>
      </trkpt>
      <trkpt lat="45.211357148364186" lon="5.717231947928667">
        <ele>426.60000610351562</ele>
        <time>2014-05-18T14:27:14Z</time>
      </trkpt>
      <trkpt lat="45.211230162531137" lon="5.717232450842857">
        <ele>423.39999389648437</ele>
        <time>2014-05-18T14:27:15Z</time>
      </trkpt>
      <trkpt lat="45.211100997403264" lon="5.717221973463893">
        <ele>422</ele>
        <time>2014-05-18T14:27:16Z</time>
      </trkpt>
      <trkpt lat="45.210964540019631" lon="5.71722574532032">
        <ele>420.79998779296875</ele>
        <time>2014-05-18T14:27:17Z</time>
      </trkpt>
      <trkpt lat="45.210824897512794" lon="5.717229600995779">
        <ele>419.60000610351562</ele>
        <time>2014-05-18T14:27:18Z</time>
      </trkpt>
      <trkpt lat="45.210690032690763" lon="5.717232283204794">
        <ele>418.39999389648437</ele>
        <time>2014-05-18T14:27:19Z</time>
      </trkpt>
      <trkpt lat="45.210570003837347" lon="5.717221470549703">
        <ele>417.39999389648437</ele>
        <time>2014-05-18T14:27:20Z</time>
      </trkpt>
      <trkpt lat="45.210463469848037" lon="5.717214765027165">
        <ele>416.60000610351562</ele>
        <time>2014-05-18T14:27:21Z</time>
      </trkpt>
      <trkpt lat="45.210368586704135" lon="5.717217866331339">
        <ele>415.79998779296875</ele>
        <time>2014-05-18T14:27:22Z</time>
      </trkpt>
      <trkpt lat="45.210213353857398" lon="5.717249466106296">
        <ele>414.79998779296875</ele>
        <time>2014-05-18T14:27:24Z</time>
      </trkpt>
      <trkpt lat="45.210156189277768" lon="5.717269582673907">
        <ele>414.60000610351562</ele>
        <time>2014-05-18T14:27:25Z</time>
      </trkpt>
      <trkpt lat="45.210083350539207" lon="5.717301098629832">
        <ele>414.60000610351562</ele>
        <time>2014-05-18T14:27:27Z</time>
      </trkpt>
      <trkpt lat="45.210042279213667" lon="5.717348791658878">
        <ele>414</ele>
        <time>2014-05-18T14:28:37Z</time>
      </trkpt>
      <trkpt lat="45.209971703588963" lon="5.717384833842516">
        <ele>413.20001220703125</ele>
        <time>2014-05-18T14:28:39Z</time>
      </trkpt>
      <trkpt lat="45.209866259247065" lon="5.717415846884251">
        <ele>412</ele>
        <time>2014-05-18T14:28:41Z</time>
      </trkpt>
      <trkpt lat="45.209732903167605" lon="5.717458426952362">
        <ele>410.20001220703125</ele>
        <time>2014-05-18T14:28:43Z</time>
      </trkpt>
      <trkpt lat="45.209580268710852" lon="5.717505114153028">
        <ele>408.39999389648437</ele>
        <time>2014-05-18T14:28:45Z</time>
      </trkpt>
      <trkpt lat="45.209403829649091" lon="5.717559345066547">
        <ele>406.39999389648437</ele>
        <time>2014-05-18T14:28:47Z</time>
      </trkpt>
      <trkpt lat="45.209212386980653" lon="5.717606619000435">
        <ele>404.39999389648438</ele>
        <time>2014-05-18T14:28:49Z</time>
      </trkpt>
      <trkpt lat="45.20911012776196" lon="5.717614749446511">
        <ele>403.39999389648437</ele>
        <time>2014-05-18T14:28:50Z</time>
      </trkpt>
      <trkpt lat="45.209008706733584" lon="5.717620700597763">
        <ele>401.39999389648437</ele>
        <time>2014-05-18T14:28:51Z</time>
      </trkpt>
      <trkpt lat="45.208906782791018" lon="5.717641655355692">
        <ele>400.39999389648437</ele>
        <time>2014-05-18T14:28:52Z</time>
      </trkpt>
      <trkpt lat="45.208814917132258" lon="5.717664454132319">
        <ele>399.60000610351562</ele>
        <time>2014-05-18T14:28:53Z</time>
      </trkpt>
      <trkpt lat="45.20873436704278" lon="5.717703178524971">
        <ele>399.39999389648437</ele>
        <time>2014-05-18T14:28:54Z</time>
      </trkpt>
      <trkpt lat="45.208601849153638" lon="5.717766210436821">
        <ele>398.79998779296875</ele>
        <time>2014-05-18T14:28:56Z</time>
      </trkpt>
      <trkpt lat="45.208543427288532" lon="5.717758750542998">
        <ele>398.39999389648437</ele>
        <time>2014-05-18T14:28:57Z</time>
      </trkpt>
      <trkpt lat="45.208503194153309" lon="5.717653557658196">
        <ele>398</ele>
        <time>2014-05-18T14:28:59Z</time>
      </trkpt>
      <trkpt lat="45.208591874688864" lon="5.717557081952691">
        <ele>396.79998779296875</ele>
        <time>2014-05-18T14:29:01Z</time>
      </trkpt>
      <trkpt lat="45.208658259361982" lon="5.717519950121641">
        <ele>396.20001220703125</ele>
        <time>2014-05-18T14:29:02Z</time>
      </trkpt>
      <trkpt lat="45.208727745339274" lon="5.717481477186084">
        <ele>395.20001220703125</ele>
        <time>2014-05-18T14:29:03Z</time>
      </trkpt>
      <trkpt lat="45.208792202174664" lon="5.71743487380445">
        <ele>394.20001220703125</ele>
        <time>2014-05-18T14:29:04Z</time>
      </trkpt>
      <trkpt lat="45.208859341219068" lon="5.717378798872232">
        <ele>393.20001220703125</ele>
        <time>2014-05-18T14:29:05Z</time>
      </trkpt>
      <trkpt lat="45.20894450135529" lon="5.717314090579748">
        <ele>392.39999389648437</ele>
        <time>2014-05-18T14:29:06Z</time>
      </trkpt>
      <trkpt lat="45.209132423624396" lon="5.717177633196116">
        <ele>391.20001220703125</ele>
        <time>2014-05-18T14:29:08Z</time>
      </trkpt>
      <trkpt lat="45.209233844652772" lon="5.717105129733682">
        <ele>390.20001220703125</ele>
        <time>2014-05-18T14:29:09Z</time>
      </trkpt>
      <trkpt lat="45.209336271509528" lon="5.717024160549045">
        <ele>388.79998779296875</ele>
        <time>2014-05-18T14:29:10Z</time>
      </trkpt>
      <trkpt lat="45.209439788013697" lon="5.716941263526678">
        <ele>387.60000610351562</ele>
        <time>2014-05-18T14:29:11Z</time>
      </trkpt>
      <trkpt lat="45.209545399993658" lon="5.716852163895965">
        <ele>386.20001220703125</ele>
        <time>2014-05-18T14:29:12Z</time>
      </trkpt>
      <trkpt lat="45.209654783830047" lon="5.716767841950059">
        <ele>384.60000610351562</ele>
        <time>2014-05-18T14:29:13Z</time>
      </trkpt>
      <trkpt lat="45.209766179323196" lon="5.716692321002483">
        <ele>383</ele>
        <time>2014-05-18T14:29:14Z</time>
      </trkpt>
      <trkpt lat="45.209874557331204" lon="5.716638844460249">
        <ele>380.20001220703125</ele>
        <time>2014-05-18T14:29:15Z</time>
      </trkpt>
      <trkpt lat="45.210095085203648" lon="5.716524012386799">
        <ele>379</ele>
        <time>2014-05-18T14:29:17Z</time>
      </trkpt>
      <trkpt lat="45.21038057282567" lon="5.716386297717691">
        <ele>378</ele>
        <time>2014-05-18T14:29:20Z</time>
      </trkpt>
      <trkpt lat="45.210461542010307" lon="5.716347238048911">
        <ele>377.79998779296875</ele>
        <time>2014-05-18T14:29:21Z</time>
      </trkpt>
      <trkpt lat="45.210530860349536" lon="5.716297533363104">
        <ele>377.60000610351562</ele>
        <time>2014-05-18T14:29:22Z</time>
      </trkpt>
      <trkpt lat="45.210594981908798" lon="5.716148251667619">
        <ele>377.79998779296875</ele>
        <time>2014-05-18T14:29:24Z</time>
      </trkpt>
      <trkpt lat="45.210561621934175" lon="5.716046160086989">
        <ele>378</ele>
        <time>2014-05-18T14:29:26Z</time>
      </trkpt>
      <trkpt lat="45.21029993891716" lon="5.716088321059942">
        <ele>376.20001220703125</ele>
        <time>2014-05-18T14:29:28Z</time>
      </trkpt>
      <trkpt lat="45.210176724940538" lon="5.716108689084649">
        <ele>374.79998779296875</ele>
        <time>2014-05-18T14:29:29Z</time>
      </trkpt>
      <trkpt lat="45.210076058283448" lon="5.716124279424548">
        <ele>373.79998779296875</ele>
        <time>2014-05-18T14:29:30Z</time>
      </trkpt>
      <trkpt lat="45.209887297824025" lon="5.716152023524046">
        <ele>371.79998779296875</ele>
        <time>2014-05-18T14:29:32Z</time>
      </trkpt>
      <trkpt lat="45.209695436060429" lon="5.716163087636232">
        <ele>370.39999389648438</ele>
        <time>2014-05-18T14:29:34Z</time>
      </trkpt>
      <trkpt lat="45.209487313404679" lon="5.716160573065281">
        <ele>368.39999389648437</ele>
        <time>2014-05-18T14:29:36Z</time>
      </trkpt>
      <trkpt lat="45.209376169368625" lon="5.716155963018537">
        <ele>367.39999389648438</ele>
        <time>2014-05-18T14:29:37Z</time>
      </trkpt>
      <trkpt lat="45.209144074469805" lon="5.716174487024546">
        <ele>365</ele>
        <time>2014-05-18T14:29:39Z</time>
      </trkpt>
      <trkpt lat="45.208894964307547" lon="5.716198878362775">
        <ele>363.39999389648437</ele>
        <time>2014-05-18T14:29:41Z</time>
      </trkpt>
      <trkpt lat="45.208772839978337" lon="5.71621673181653">
        <ele>362.39999389648437</ele>
        <time>2014-05-18T14:29:42Z</time>
      </trkpt>
      <trkpt lat="45.208565136417747" lon="5.716272974386811">
        <ele>361.20001220703125</ele>
        <time>2014-05-18T14:29:44Z</time>
      </trkpt>
      <trkpt lat="45.208406047895551" lon="5.716362157836556">
        <ele>361</ele>
        <time>2014-05-18T14:29:46Z</time>
      </trkpt>
      <trkpt lat="45.20834544673562" lon="5.716448659077287">
        <ele>360.60000610351562</ele>
        <time>2014-05-18T14:29:47Z</time>
      </trkpt>
      <trkpt lat="45.208294065669179" lon="5.71655385196209">
        <ele>359.39999389648437</ele>
        <time>2014-05-18T14:29:48Z</time>
      </trkpt>
      <trkpt lat="45.20824184641242" lon="5.71666088886559">
        <ele>357.60000610351562</ele>
        <time>2014-05-18T14:29:49Z</time>
      </trkpt>
      <trkpt lat="45.208185436204076" lon="5.716770775616169">
        <ele>356.20001220703125</ele>
        <time>2014-05-18T14:29:50Z</time>
      </trkpt>
      <trkpt lat="45.208143778145313" lon="5.716897174715996">
        <ele>354.79998779296875</ele>
        <time>2014-05-18T14:29:51Z</time>
      </trkpt>
      <trkpt lat="45.208061384037137" lon="5.717139076441526">
        <ele>353</ele>
        <time>2014-05-18T14:29:53Z</time>
      </trkpt>
      <trkpt lat="45.208019893616438" lon="5.717245610430837">
        <ele>352.39999389648437</ele>
        <time>2014-05-18T14:29:54Z</time>
      </trkpt>
      <trkpt lat="45.207972535863519" lon="5.717349294573069">
        <ele>351.79998779296875</ele>
        <time>2014-05-18T14:29:55Z</time>
      </trkpt>
      <trkpt lat="45.207857452332973" lon="5.717539479956031">
        <ele>350.20001220703125</ele>
        <time>2014-05-18T14:29:57Z</time>
      </trkpt>
      <trkpt lat="45.207803891971707" lon="5.717611312866211">
        <ele>349</ele>
        <time>2014-05-18T14:29:58Z</time>
      </trkpt>
      <trkpt lat="45.207757791504264" lon="5.717659760266542">
        <ele>347.60000610351562</ele>
        <time>2014-05-18T14:29:59Z</time>
      </trkpt>
      <trkpt lat="45.20771118812263" lon="5.717650707811117">
        <ele>346.20001220703125</ele>
        <time>2014-05-18T14:30:00Z</time>
      </trkpt>
      <trkpt lat="45.207652514800429" lon="5.717641822993755">
        <ele>344.79998779296875</ele>
        <time>2014-05-18T14:30:01Z</time>
      </trkpt>
      <trkpt lat="45.207590572535992" lon="5.717614162713289">
        <ele>343.79998779296875</ele>
        <time>2014-05-18T14:30:02Z</time>
      </trkpt>
      <trkpt lat="45.207516392692924" lon="5.717565296217799">
        <ele>341.79998779296875</ele>
        <time>2014-05-18T14:30:03Z</time>
      </trkpt>
      <trkpt lat="45.20734079182148" lon="5.717376284301281">
        <ele>340.79998779296875</ele>
        <time>2014-05-18T14:30:05Z</time>
      </trkpt>
      <trkpt lat="45.207204082980752" lon="5.717203952372074">
        <ele>340.79998779296875</ele>
        <time>2014-05-18T14:30:06Z</time>
      </trkpt>
      <trkpt lat="45.207093777135015" lon="5.717112254351378">
        <ele>340.60000610351562</ele>
        <time>2014-05-18T14:30:07Z</time>
      </trkpt>
      <trkpt lat="45.206874003633857" lon="5.716989375650883">
        <ele>339.39999389648438</ele>
        <time>2014-05-18T14:30:09Z</time>
      </trkpt>
      <trkpt lat="45.206676609814167" lon="5.716900611296296">
        <ele>338</ele>
        <time>2014-05-18T14:30:11Z</time>
      </trkpt>
      <trkpt lat="45.206508552655578" lon="5.716839339584112">
        <ele>336</ele>
        <time>2014-05-18T14:30:13Z</time>
      </trkpt>
      <trkpt lat="45.206301771104336" lon="5.716788042336702">
        <ele>334.60000610351562</ele>
        <time>2014-05-18T14:30:15Z</time>
      </trkpt>
      <trkpt lat="45.206192890182137" lon="5.71677329018712">
        <ele>333.60000610351562</ele>
        <time>2014-05-18T14:30:16Z</time>
      </trkpt>
      <trkpt lat="45.206085434183478" lon="5.716761387884617">
        <ele>332.39999389648437</ele>
        <time>2014-05-18T14:30:17Z</time>
      </trkpt>
      <trkpt lat="45.205976469442248" lon="5.716753927990794">
        <ele>331</ele>
        <time>2014-05-18T14:30:18Z</time>
      </trkpt>
      <trkpt lat="45.205875718966126" lon="5.716756694018841">
        <ele>330</ele>
        <time>2014-05-18T14:30:19Z</time>
      </trkpt>
      <trkpt lat="45.205734232440591" lon="5.716960458084941">
        <ele>329.20001220703125</ele>
        <time>2014-05-18T14:30:20Z</time>
      </trkpt>
      <trkpt lat="45.205630380660295" lon="5.717008570209146">
        <ele>329</ele>
        <time>2014-05-18T14:30:21Z</time>
      </trkpt>
      <trkpt lat="45.205355118960142" lon="5.717329178005457">
        <ele>327.20001220703125</ele>
        <time>2014-05-18T14:30:23Z</time>
      </trkpt>
      <trkpt lat="45.205230731517076" lon="5.717421630397439">
        <ele>325.60000610351562</ele>
        <time>2014-05-18T14:30:24Z</time>
      </trkpt>
      <trkpt lat="45.20511363632977" lon="5.717500755563378">
        <ele>324.20001220703125</ele>
        <time>2014-05-18T14:30:25Z</time>
      </trkpt>
      <trkpt lat="45.204994026571512" lon="5.717573678120971">
        <ele>323.20001220703125</ele>
        <time>2014-05-18T14:30:26Z</time>
      </trkpt>
      <trkpt lat="45.204867795109749" lon="5.717661185190082">
        <ele>322.20001220703125</ele>
        <time>2014-05-18T14:30:27Z</time>
      </trkpt>
      <trkpt lat="45.20474910736084" lon="5.717731509357691">
        <ele>321</ele>
        <time>2014-05-18T14:30:28Z</time>
      </trkpt>
      <trkpt lat="45.204619104042649" lon="5.717817842960358">
        <ele>319.60000610351562</ele>
        <time>2014-05-18T14:30:29Z</time>
      </trkpt>
      <trkpt lat="45.20449060946703" lon="5.717887412756681">
        <ele>317.60000610351562</ele>
        <time>2014-05-18T14:30:30Z</time>
      </trkpt>
      <trkpt lat="45.204345434904099" lon="5.717946840450168">
        <ele>316.20001220703125</ele>
        <time>2014-05-18T14:30:31Z</time>
      </trkpt>
      <trkpt lat="45.204205540940166" lon="5.718010710552335">
        <ele>314.60000610351562</ele>
        <time>2014-05-18T14:30:32Z</time>
      </trkpt>
      <trkpt lat="45.204062629491091" lon="5.718081034719944">
        <ele>313.39999389648438</ele>
        <time>2014-05-18T14:30:33Z</time>
      </trkpt>
      <trkpt lat="45.203921813517809" lon="5.718154208734632">
        <ele>311.79998779296875</ele>
        <time>2014-05-18T14:30:34Z</time>
      </trkpt>
      <trkpt lat="45.203787535429001" lon="5.718227382749319">
        <ele>310.20001220703125</ele>
        <time>2014-05-18T14:30:35Z</time>
      </trkpt>
      <trkpt lat="45.20364286378026" lon="5.718299802392721">
        <ele>309</ele>
        <time>2014-05-18T14:30:36Z</time>
      </trkpt>
      <trkpt lat="45.203488217666745" lon="5.718380939215422">
        <ele>306.60000610351562</ele>
        <time>2014-05-18T14:30:37Z</time>
      </trkpt>
      <trkpt lat="45.203340360894799" lon="5.718453023582697">
        <ele>304.20001220703125</ele>
        <time>2014-05-18T14:30:38Z</time>
      </trkpt>
      <trkpt lat="45.203188145533204" lon="5.718520414084196">
        <ele>301.60000610351562</ele>
        <time>2014-05-18T14:30:39Z</time>
      </trkpt>
      <trkpt lat="45.20303450524807" lon="5.718583697453141">
        <ele>299.79998779296875</ele>
        <time>2014-05-18T14:30:40Z</time>
      </trkpt>
      <trkpt lat="45.20274231210351" lon="5.718729710206389">
        <ele>298.39999389648437</ele>
        <time>2014-05-18T14:30:42Z</time>
      </trkpt>
      <trkpt lat="45.202597472816706" lon="5.718798190355301">
        <ele>298</ele>
        <time>2014-05-18T14:30:43Z</time>
      </trkpt>
      <trkpt lat="45.202454058453441" lon="5.718857115134597">
        <ele>296.39999389648438</ele>
        <time>2014-05-18T14:30:44Z</time>
      </trkpt>
      <trkpt lat="45.202313158661127" lon="5.718907825648785">
        <ele>294.79998779296875</ele>
        <time>2014-05-18T14:30:45Z</time>
      </trkpt>
      <trkpt lat="45.202173432335258" lon="5.718957278877497">
        <ele>293.60000610351562</ele>
        <time>2014-05-18T14:30:46Z</time>
      </trkpt>
      <trkpt lat="45.201906133443117" lon="5.719033638015389">
        <ele>293.39999389648437</ele>
        <time>2014-05-18T14:30:48Z</time>
      </trkpt>
      <trkpt lat="45.201571779325604" lon="5.719201192259789">
        <ele>290.39999389648437</ele>
        <time>2014-05-18T14:30:51Z</time>
      </trkpt>
      <trkpt lat="45.201471028849483" lon="5.719281742349267">
        <ele>289.60000610351562</ele>
        <time>2014-05-18T14:30:52Z</time>
      </trkpt>
      <trkpt lat="45.201290985569358" lon="5.719400597736239">
        <ele>288.79998779296875</ele>
        <time>2014-05-18T14:30:54Z</time>
      </trkpt>
      <trkpt lat="45.201110020279884" lon="5.71951299905777">
        <ele>287.39999389648437</ele>
        <time>2014-05-18T14:30:56Z</time>
      </trkpt>
      <trkpt lat="45.201030811294913" lon="5.719528757035732">
        <ele>286.79998779296875</ele>
        <time>2014-05-18T14:30:57Z</time>
      </trkpt>
      <trkpt lat="45.200951602309942" lon="5.719547867774963">
        <ele>286</ele>
        <time>2014-05-18T14:30:58Z</time>
      </trkpt>
      <trkpt lat="45.200874572619796" lon="5.719550969079137">
        <ele>285.39999389648438</ele>
        <time>2014-05-18T14:30:59Z</time>
      </trkpt>
      <trkpt lat="45.200689667835832" lon="5.719583071768284">
        <ele>284.60000610351562</ele>
        <time>2014-05-18T14:31:02Z</time>
      </trkpt>
      <trkpt lat="45.200619762763381" lon="5.719587430357933">
        <ele>283.60000610351562</ele>
        <time>2014-05-18T14:31:03Z</time>
      </trkpt>
      <trkpt lat="45.200545750558376" lon="5.719612743705511">
        <ele>282.79998779296875</ele>
        <time>2014-05-18T14:31:04Z</time>
      </trkpt>
      <trkpt lat="45.200405605137348" lon="5.719626992940903">
        <ele>281</ele>
        <time>2014-05-18T14:31:06Z</time>
      </trkpt>
      <trkpt lat="45.200338214635849" lon="5.719637302681804">
        <ele>280.60000610351562</ele>
        <time>2014-05-18T14:31:07Z</time>
      </trkpt>
      <trkpt lat="45.200205026194453" lon="5.719659179449081">
        <ele>279.79998779296875</ele>
        <time>2014-05-18T14:31:09Z</time>
      </trkpt>
      <trkpt lat="45.200078040361404" lon="5.719669656828046">
        <ele>278.20001220703125</ele>
        <time>2014-05-18T14:31:11Z</time>
      </trkpt>
      <trkpt lat="45.200034454464912" lon="5.719664124771953">
        <ele>277.60000610351562</ele>
        <time>2014-05-18T14:31:12Z</time>
      </trkpt>
      <trkpt lat="45.200002770870924" lon="5.719650210812688">
        <ele>277.20001220703125</ele>
        <time>2014-05-18T14:31:13Z</time>
      </trkpt>
      <trkpt lat="45.199922807514668" lon="5.719591956585646">
        <ele>276.20001220703125</ele>
        <time>2014-05-18T14:31:15Z</time>
      </trkpt>
      <trkpt lat="45.199868995696306" lon="5.719556752592325">
        <ele>275.60000610351562</ele>
        <time>2014-05-18T14:31:16Z</time>
      </trkpt>
      <trkpt lat="45.199804538860917" lon="5.719533953815699">
        <ele>274.60000610351562</ele>
        <time>2014-05-18T14:31:17Z</time>
      </trkpt>
      <trkpt lat="45.199733627960086" lon="5.719508724287152">
        <ele>273.39999389648437</ele>
        <time>2014-05-18T14:31:18Z</time>
      </trkpt>
      <trkpt lat="45.1996551733464" lon="5.719472849741578">
        <ele>272</ele>
        <time>2014-05-18T14:31:19Z</time>
      </trkpt>
      <trkpt lat="45.199571354314685" lon="5.719436975196004">
        <ele>271</ele>
        <time>2014-05-18T14:31:20Z</time>
      </trkpt>
      <trkpt lat="45.199412181973457" lon="5.719373188912869">
        <ele>269.20001220703125</ele>
        <time>2014-05-18T14:31:22Z</time>
      </trkpt>
      <trkpt lat="45.199259044602513" lon="5.719314850866795">
        <ele>267.39999389648437</ele>
        <time>2014-05-18T14:31:24Z</time>
      </trkpt>
      <trkpt lat="45.19911864772439" lon="5.719271935522556">
        <ele>266.39999389648437</ele>
        <time>2014-05-18T14:31:26Z</time>
      </trkpt>
      <trkpt lat="45.199052346870303" lon="5.719242347404361">
        <ele>266.20001220703125</ele>
        <time>2014-05-18T14:31:27Z</time>
      </trkpt>
      <trkpt lat="45.19888554699719" lon="5.719190882518888">
        <ele>265</ele>
        <time>2014-05-18T14:31:30Z</time>
      </trkpt>
      <trkpt lat="45.198853779584169" lon="5.719175627455115">
        <ele>265</ele>
        <time>2014-05-18T14:31:31Z</time>
      </trkpt>
      <trkpt lat="45.198846235871315" lon="5.719153499230743">
        <ele>264.79998779296875</ele>
        <time>2014-05-18T14:31:32Z</time>
      </trkpt>
      <trkpt lat="45.198918823152781" lon="5.719090383499861">
        <ele>264.20001220703125</ele>
        <time>2014-05-18T14:31:34Z</time>
      </trkpt>
      <trkpt lat="45.198952183127403" lon="5.719087952747941">
        <ele>263.79998779296875</ele>
        <time>2014-05-18T14:31:35Z</time>
      </trkpt>
      <trkpt lat="45.198984453454614" lon="5.719125671312213">
        <ele>263.60000610351562</ele>
        <time>2014-05-18T14:31:37Z</time>
      </trkpt>
      <trkpt lat="45.199129795655608" lon="5.719214016571641">
        <ele>263.79998779296875</ele>
        <time>2014-05-18T14:31:43Z</time>
      </trkpt>
      <trkpt lat="45.199379157274961" lon="5.719289369881153">
        <ele>263.79998779296875</ele>
        <time>2014-05-18T14:32:52Z</time>
      </trkpt>
      <trkpt lat="45.199411259964108" lon="5.719283083453775">
        <ele>263.60000610351562</ele>
        <time>2014-05-18T14:32:53Z</time>
      </trkpt>
      <trkpt lat="45.199645031243563" lon="5.719313677400351">
        <ele>263.39999389648437</ele>
        <time>2014-05-18T14:33:00Z</time>
      </trkpt>
      <trkpt lat="45.199728179723024" lon="5.719316191971302">
        <ele>263</ele>
        <time>2014-05-18T14:33:02Z</time>
      </trkpt>
      <trkpt lat="45.19981493242085" lon="5.719347037374973">
        <ele>262.79998779296875</ele>
        <time>2014-05-18T14:33:04Z</time>
      </trkpt>
      <trkpt lat="45.199861451983452" lon="5.719367489218712">
        <ele>262.60000610351562</ele>
        <time>2014-05-18T14:33:05Z</time>
      </trkpt>
      <trkpt lat="45.200083656236529" lon="5.719418618828058">
        <ele>262.20001220703125</ele>
        <time>2014-05-18T14:33:10Z</time>
      </trkpt>
      <trkpt lat="45.20026889629662" lon="5.719332285225391">
        <ele>261.60000610351562</ele>
        <time>2014-05-18T14:33:14Z</time>
      </trkpt>
      <trkpt lat="45.200310554355383" lon="5.719304457306862">
        <ele>261.20001220703125</ele>
        <time>2014-05-18T14:33:15Z</time>
      </trkpt>
      <trkpt lat="45.200362773612142" lon="5.719264727085829">
        <ele>261.20001220703125</ele>
        <time>2014-05-18T14:33:16Z</time>
      </trkpt>
      <trkpt lat="45.200552623718977" lon="5.719112679362297">
        <ele>260.79998779296875</ele>
        <time>2014-05-18T14:33:20Z</time>
      </trkpt>
      <trkpt lat="45.200647171586752" lon="5.719018215313554">
        <ele>260.20001220703125</ele>
        <time>2014-05-18T14:33:22Z</time>
      </trkpt>
      <trkpt lat="45.200824784114957" lon="5.718812020495534">
        <ele>258.60000610351562</ele>
        <time>2014-05-18T14:33:26Z</time>
      </trkpt>
      <trkpt lat="45.200911369174719" lon="5.718703055754304">
        <ele>257.79998779296875</ele>
        <time>2014-05-18T14:33:28Z</time>
      </trkpt>
      <trkpt lat="45.201140781864524" lon="5.718428883701563">
        <ele>258.39999389648437</ele>
        <time>2014-05-18T14:33:33Z</time>
      </trkpt>
      <trkpt lat="45.201208842918277" lon="5.718328636139631">
        <ele>257.20001220703125</ele>
        <time>2014-05-18T14:33:35Z</time>
      </trkpt>
      <trkpt lat="45.201301379129291" lon="5.71817709133029">
        <ele>256</ele>
        <time>2014-05-18T14:33:38Z</time>
      </trkpt>
      <trkpt lat="45.201359381899238" lon="5.718141384422779">
        <ele>254</ele>
        <time>2014-05-18T14:33:39Z</time>
      </trkpt>
      <trkpt lat="45.201461724936962" lon="5.718064857646823">
        <ele>254</ele>
        <time>2014-05-18T14:33:41Z</time>
      </trkpt>
      <trkpt lat="45.20150757394731" lon="5.718018421903253">
        <ele>254.19999694824219</ele>
        <time>2014-05-18T14:33:42Z</time>
      </trkpt>
      <trkpt lat="45.20163799636066" lon="5.717860758304596">
        <ele>252.19999694824219</ele>
        <time>2014-05-18T14:33:45Z</time>
      </trkpt>
      <trkpt lat="45.201717624440789" lon="5.717740477994084">
        <ele>252.39999389648437</ele>
        <time>2014-05-18T14:33:47Z</time>
      </trkpt>
      <trkpt lat="45.201833294704556" lon="5.71756144054234">
        <ele>251.39999389648438</ele>
        <time>2014-05-18T14:33:50Z</time>
      </trkpt>
      <trkpt lat="45.201872605830431" lon="5.717497570440173">
        <ele>250.60000610351562</ele>
        <time>2014-05-18T14:33:51Z</time>
      </trkpt>
      <trkpt lat="45.201951814815402" lon="5.71737376973033">
        <ele>249.60000610351562</ele>
        <time>2014-05-18T14:33:53Z</time>
      </trkpt>
      <trkpt lat="45.201992299407721" lon="5.717310318723321">
        <ele>249.60000610351562</ele>
        <time>2014-05-18T14:33:54Z</time>
      </trkpt>
      <trkpt lat="45.202106796205044" lon="5.717114768922329">
        <ele>248.19999694824219</ele>
        <time>2014-05-18T14:33:57Z</time>
      </trkpt>
      <trkpt lat="45.202142586931586" lon="5.717047797515988">
        <ele>248.19999694824219</ele>
        <time>2014-05-18T14:33:58Z</time>
      </trkpt>
      <trkpt lat="45.202387841418386" lon="5.716560892760754">
        <ele>247.60000610351562</ele>
        <time>2014-05-18T14:34:06Z</time>
      </trkpt>
      <trkpt lat="45.202340148389339" lon="5.716341873630881">
        <ele>247.80000305175781</ele>
        <time>2014-05-18T14:34:10Z</time>
      </trkpt>
      <trkpt lat="45.202218191698194" lon="5.71631295606494">
        <ele>247</ele>
        <time>2014-05-18T14:34:13Z</time>
      </trkpt>
      <trkpt lat="45.202137138694525" lon="5.716421669349074">
        <ele>246.39999389648437</ele>
        <time>2014-05-18T14:34:16Z</time>
      </trkpt>
      <trkpt lat="45.202101347967982" lon="5.716468272730708">
        <ele>245.80000305175781</ele>
        <time>2014-05-18T14:34:17Z</time>
      </trkpt>
      <trkpt lat="45.202063377946615" lon="5.716512948274612">
        <ele>245.19999694824219</ele>
        <time>2014-05-18T14:34:18Z</time>
      </trkpt>
      <trkpt lat="45.202012667432427" lon="5.716571873053908">
        <ele>244.60000610351562</ele>
        <time>2014-05-18T14:34:19Z</time>
      </trkpt>
      <trkpt lat="45.201915604993701" lon="5.716662984341383">
        <ele>243.39999389648437</ele>
        <time>2014-05-18T14:34:21Z</time>
      </trkpt>
      <trkpt lat="45.201869001612067" lon="5.716726016253233">
        <ele>243.19999694824219</ele>
        <time>2014-05-18T14:34:22Z</time>
      </trkpt>
      <trkpt lat="45.201736567541957" lon="5.716917626559734">
        <ele>241.80000305175781</ele>
        <time>2014-05-18T14:34:25Z</time>
      </trkpt>
      <trkpt lat="45.201700860634446" lon="5.716978562995791">
        <ele>241</ele>
        <time>2014-05-18T14:34:26Z</time>
      </trkpt>
      <trkpt lat="45.201668255031109" lon="5.717043606564403">
        <ele>239.80000305175781</ele>
        <time>2014-05-18T14:34:27Z</time>
      </trkpt>
      <trkpt lat="45.20157840102911" lon="5.717182662338018">
        <ele>239.19999694824219</ele>
        <time>2014-05-18T14:34:30Z</time>
      </trkpt>
      <trkpt lat="45.201522996649146" lon="5.717252735048533">
        <ele>238.60000610351562</ele>
        <time>2014-05-18T14:34:32Z</time>
      </trkpt>
      <trkpt lat="45.201435573399067" lon="5.717332782223821">
        <ele>237.60000610351562</ele>
        <time>2014-05-18T14:34:35Z</time>
      </trkpt>
      <trkpt lat="45.201322585344315" lon="5.717454822733998">
        <ele>236.39999389648437</ele>
        <time>2014-05-18T14:34:38Z</time>
      </trkpt>
      <trkpt lat="45.201220158487558" lon="5.717543922364712">
        <ele>235</ele>
        <time>2014-05-18T14:34:40Z</time>
      </trkpt>
      <trkpt lat="45.201108176261187" lon="5.717629920691252">
        <ele>234</ele>
        <time>2014-05-18T14:34:42Z</time>
      </trkpt>
      <trkpt lat="45.200998540967703" lon="5.717719020321965">
        <ele>232.80000305175781</ele>
        <time>2014-05-18T14:34:44Z</time>
      </trkpt>
      <trkpt lat="45.200901981443167" lon="5.717804348096252">
        <ele>231.80000305175781</ele>
        <time>2014-05-18T14:34:46Z</time>
      </trkpt>
      <trkpt lat="45.200853366404772" lon="5.71784483268857">
        <ele>231.60000610351562</ele>
        <time>2014-05-18T14:34:47Z</time>
      </trkpt>
      <trkpt lat="45.200803242623806" lon="5.717876683920622">
        <ele>231.19999694824219</ele>
        <time>2014-05-18T14:34:48Z</time>
      </trkpt>
      <trkpt lat="45.200694613158703" lon="5.717906607314944">
        <ele>230.19999694824219</ele>
        <time>2014-05-18T14:34:50Z</time>
      </trkpt>
      <trkpt lat="45.20064415410161" lon="5.717904763296247">
        <ele>229.60000610351562</ele>
        <time>2014-05-18T14:34:51Z</time>
      </trkpt>
      <trkpt lat="45.200567040592432" lon="5.717854890972376">
        <ele>229.19999694824219</ele>
        <time>2014-05-18T14:34:53Z</time>
      </trkpt>
      <trkpt lat="45.200537536293268" lon="5.717810885980725">
        <ele>228.60000610351562</ele>
        <time>2014-05-18T14:34:54Z</time>
      </trkpt>
      <trkpt lat="45.200524209067225" lon="5.717757241800427">
        <ele>228</ele>
        <time>2014-05-18T14:34:55Z</time>
      </trkpt>
      <trkpt lat="45.200565867125988" lon="5.71764400228858">
        <ele>227.19999694824219</ele>
        <time>2014-05-18T14:34:57Z</time>
      </trkpt>
      <trkpt lat="45.200683046132326" lon="5.717526404187083">
        <ele>227</ele>
        <time>2014-05-18T14:35:00Z</time>
      </trkpt>
      <trkpt lat="45.200767954811454" lon="5.717433616518974">
        <ele>226</ele>
        <time>2014-05-18T14:35:02Z</time>
      </trkpt>
      <trkpt lat="45.200809864327312" lon="5.717385588213801">
        <ele>225.80000305175781</ele>
        <time>2014-05-18T14:35:03Z</time>
      </trkpt>
      <trkpt lat="45.200852109119296" lon="5.71733957156539">
        <ele>225.60000610351562</ele>
        <time>2014-05-18T14:35:04Z</time>
      </trkpt>
      <trkpt lat="45.20092754624784" lon="5.717199174687266">
        <ele>225.19999694824219</ele>
        <time>2014-05-18T14:35:07Z</time>
      </trkpt>
      <trkpt lat="45.200932659208775" lon="5.71717587299645">
        <ele>225</ele>
        <time>2014-05-18T14:35:08Z</time>
      </trkpt>
      <trkpt lat="45.200928384438157" lon="5.717188362032175">
        <ele>224.80000305175781</ele>
        <time>2014-05-18T14:35:53Z</time>
      </trkpt>
      <trkpt lat="45.200988231226802" lon="5.717177297919989">
        <ele>224.19999694824219</ele>
        <time>2014-05-18T14:37:45Z</time>
      </trkpt>
      <trkpt lat="45.201004575937986" lon="5.717139495536685">
        <ele>224.19999694824219</ele>
        <time>2014-05-18T14:37:47Z</time>
      </trkpt>
      <trkpt lat="45.201033325865865" lon="5.717114852741361">
        <ele>224.19999694824219</ele>
        <time>2014-05-18T14:37:49Z</time>
      </trkpt>
      <trkpt lat="45.201109685003757" lon="5.717055005952716">
        <ele>224.80000305175781</ele>
        <time>2014-05-18T14:37:53Z</time>
      </trkpt>
      <trkpt lat="45.201211022213101" lon="5.71691544726491">
        <ele>225.60000610351562</ele>
        <time>2014-05-18T14:37:59Z</time>
      </trkpt>
      <trkpt lat="45.201331302523613" lon="5.716731464490295">
        <ele>226</ele>
        <time>2014-05-18T14:38:05Z</time>
      </trkpt>
      <trkpt lat="45.2013941667974" lon="5.716639431193471">
        <ele>226.60000610351562</ele>
        <time>2014-05-18T14:38:08Z</time>
      </trkpt>
      <trkpt lat="45.201522493734956" lon="5.716441869735718">
        <ele>227.39999389648437</ele>
        <time>2014-05-18T14:38:15Z</time>
      </trkpt>
      <trkpt lat="45.20163799636066" lon="5.71627683006227">
        <ele>227.80000305175781</ele>
        <time>2014-05-18T14:38:21Z</time>
      </trkpt>
      <trkpt lat="45.201768167316914" lon="5.716128302738071">
        <ele>229.60000610351562</ele>
        <time>2014-05-18T14:39:15Z</time>
      </trkpt>
      <trkpt lat="45.201809573918581" lon="5.716055296361446">
        <ele>229</ele>
        <time>2014-05-18T14:39:19Z</time>
      </trkpt>
      <trkpt lat="45.201826086267829" lon="5.716028809547424">
        <ele>228.80000305175781</ele>
        <time>2014-05-18T14:39:20Z</time>
      </trkpt>
      <trkpt lat="45.201946869492531" lon="5.715901656076312">
        <ele>229.60000610351562</ele>
        <time>2014-05-18T14:39:26Z</time>
      </trkpt>
      <trkpt lat="45.202014511451125" lon="5.715842144563794">
        <ele>230.39999389648437</ele>
        <time>2014-05-18T14:39:29Z</time>
      </trkpt>
      <trkpt lat="45.202084081247449" lon="5.715774670243263">
        <ele>231.39999389648437</ele>
        <time>2014-05-18T14:39:32Z</time>
      </trkpt>
      <trkpt lat="45.202248366549611" lon="5.715632764622569">
        <ele>233.39999389648437</ele>
        <time>2014-05-18T14:39:39Z</time>
      </trkpt>
      <trkpt lat="45.202268315479159" lon="5.715612731873989">
        <ele>233.80000305175781</ele>
        <time>2014-05-18T14:39:40Z</time>
      </trkpt>
      <trkpt lat="45.202305698767304" lon="5.715566379949451">
        <ele>234.39999389648437</ele>
        <time>2014-05-18T14:39:42Z</time>
      </trkpt>
      <trkpt lat="45.202414998784661" lon="5.71545397862792">
        <ele>235.39999389648437</ele>
        <time>2014-05-18T14:39:47Z</time>
      </trkpt>
      <trkpt lat="45.202436959370971" lon="5.715429503470659">
        <ele>235.60000610351562</ele>
        <time>2014-05-18T14:39:48Z</time>
      </trkpt>
      <trkpt lat="45.202590096741915" lon="5.715234037488699">
        <ele>235.60000610351562</ele>
        <time>2014-05-18T14:39:55Z</time>
      </trkpt>
      <trkpt lat="45.202779360115528" lon="5.71499858982861">
        <ele>236.19999694824219</ele>
        <time>2014-05-18T14:40:03Z</time>
      </trkpt>
      <trkpt lat="45.2029465790838" lon="5.714774206280708">
        <ele>236</ele>
        <time>2014-05-18T14:40:10Z</time>
      </trkpt>
      <trkpt lat="45.203159144148231" lon="5.714480504393578">
        <ele>235.39999389648437</ele>
        <time>2014-05-18T14:40:18Z</time>
      </trkpt>
      <trkpt lat="45.203336169943213" lon="5.714223263785243">
        <ele>235.80000305175781</ele>
        <time>2014-05-18T14:40:24Z</time>
      </trkpt>
      <trkpt lat="45.203402889892459" lon="5.714122261852026">
        <ele>236.80000305175781</ele>
        <time>2014-05-18T14:40:26Z</time>
      </trkpt>
      <trkpt lat="45.203477069735527" lon="5.7140251994133">
        <ele>235.39999389648437</ele>
        <time>2014-05-18T14:40:28Z</time>
      </trkpt>
      <trkpt lat="45.203514955937862" lon="5.713975830003619">
        <ele>234.19999694824219</ele>
        <time>2014-05-18T14:40:29Z</time>
      </trkpt>
      <trkpt lat="45.203595338389277" lon="5.713875498622656">
        <ele>233.19999694824219</ele>
        <time>2014-05-18T14:40:31Z</time>
      </trkpt>
      <trkpt lat="45.203764652833343" lon="5.71364801377058">
        <ele>233.39999389648437</ele>
        <time>2014-05-18T14:40:35Z</time>
      </trkpt>
      <trkpt lat="45.203850902616978" lon="5.713516417890787">
        <ele>232.60000610351562</ele>
        <time>2014-05-18T14:40:37Z</time>
      </trkpt>
      <trkpt lat="45.204000603407621" lon="5.713322879746556">
        <ele>231.80000305175781</ele>
        <time>2014-05-18T14:40:40Z</time>
      </trkpt>
      <trkpt lat="45.204100767150521" lon="5.713187595829368">
        <ele>231</ele>
        <time>2014-05-18T14:40:42Z</time>
      </trkpt>
      <trkpt lat="45.204204702749848" lon="5.713051054626703">
        <ele>230.60000610351562</ele>
        <time>2014-05-18T14:40:44Z</time>
      </trkpt>
      <trkpt lat="45.204371837899089" lon="5.71284125559032">
        <ele>229.39999389648437</ele>
        <time>2014-05-18T14:40:47Z</time>
      </trkpt>
      <trkpt lat="45.204488765448332" lon="5.712699685245752">
        <ele>228</ele>
        <time>2014-05-18T14:40:49Z</time>
      </trkpt>
      <trkpt lat="45.204609129577875" lon="5.712558282539249">
        <ele>226.39999389648437</ele>
        <time>2014-05-18T14:40:51Z</time>
      </trkpt>
      <trkpt lat="45.204921774566174" lon="5.71219040080905">
        <ele>226.39999389648437</ele>
        <time>2014-05-18T14:40:56Z</time>
      </trkpt>
      <trkpt lat="45.205143140628934" lon="5.711859567090869">
        <ele>225.39999389648437</ele>
        <time>2014-05-18T14:41:00Z</time>
      </trkpt>
      <trkpt lat="45.205189827829599" lon="5.711753955110908">
        <ele>225</ele>
        <time>2014-05-18T14:41:01Z</time>
      </trkpt>
      <trkpt lat="45.205266606062651" lon="5.711532337591052">
        <ele>224</ele>
        <time>2014-05-18T14:41:03Z</time>
      </trkpt>
      <trkpt lat="45.205337014049292" lon="5.711293118074536">
        <ele>222</ele>
        <time>2014-05-18T14:41:05Z</time>
      </trkpt>
      <trkpt lat="45.20537506788969" lon="5.711169820278883">
        <ele>221</ele>
        <time>2014-05-18T14:41:06Z</time>
      </trkpt>
      <trkpt lat="45.205443799495697" lon="5.710913417860866">
        <ele>219.80000305175781</ele>
        <time>2014-05-18T14:41:08Z</time>
      </trkpt>
      <trkpt lat="45.205552093684673" lon="5.710537573322654">
        <ele>218.80000305175781</ele>
        <time>2014-05-18T14:41:11Z</time>
      </trkpt>
      <trkpt lat="45.205656029284" lon="5.710200620815158">
        <ele>217.19999694824219</ele>
        <time>2014-05-18T14:41:14Z</time>
      </trkpt>
      <trkpt lat="45.205719480291009" lon="5.710008004680276">
        <ele>216.80000305175781</ele>
        <time>2014-05-18T14:41:16Z</time>
      </trkpt>
      <trkpt lat="45.205816458910704" lon="5.70971597917378">
        <ele>215.80000305175781</ele>
        <time>2014-05-18T14:41:19Z</time>
      </trkpt>
      <trkpt lat="45.205857865512371" lon="5.7096216827631">
        <ele>215.39999389648437</ele>
        <time>2014-05-18T14:41:20Z</time>
      </trkpt>
      <trkpt lat="45.205906480550766" lon="5.709538115188479">
        <ele>214.80000305175781</ele>
        <time>2014-05-18T14:41:21Z</time>
      </trkpt>
      <trkpt lat="45.205958364531398" lon="5.709463348612189">
        <ele>214.39999389648437</ele>
        <time>2014-05-18T14:41:22Z</time>
      </trkpt>
      <trkpt lat="45.20615148358047" lon="5.709210969507694">
        <ele>214.80000305175781</ele>
        <time>2014-05-18T14:41:26Z</time>
      </trkpt>
      <trkpt lat="45.206196075305343" lon="5.709156906232238">
        <ele>215.60000610351562</ele>
        <time>2014-05-18T14:41:27Z</time>
      </trkpt>
      <trkpt lat="45.206373604014516" lon="5.708966385573149">
        <ele>215.80000305175781</ele>
        <time>2014-05-18T14:41:31Z</time>
      </trkpt>
      <trkpt lat="45.206417692825198" lon="5.708932774141431">
        <ele>215.19999694824219</ele>
        <time>2014-05-18T14:41:32Z</time>
      </trkpt>
      <trkpt lat="45.206505367532372" lon="5.708865383639932">
        <ele>214.60000610351562</ele>
        <time>2014-05-18T14:41:34Z</time>
      </trkpt>
      <trkpt lat="45.206713071092963" lon="5.708767147734761">
        <ele>214.80000305175781</ele>
        <time>2014-05-18T14:41:39Z</time>
      </trkpt>
      <trkpt lat="45.20694793201983" lon="5.708621134981513">
        <ele>214.80000305175781</ele>
        <time>2014-05-18T14:41:45Z</time>
      </trkpt>
      <trkpt lat="45.207202658057213" lon="5.708480821922422">
        <ele>215.39999389648437</ele>
        <time>2014-05-18T14:41:52Z</time>
      </trkpt>
      <trkpt lat="45.207239957526326" lon="5.708459950983524">
        <ele>215.60000610351562</ele>
        <time>2014-05-18T14:41:53Z</time>
      </trkpt>
      <trkpt lat="45.20753282122314" lon="5.708297174423933">
        <ele>216</ele>
        <time>2014-05-18T14:42:01Z</time>
      </trkpt>
      <trkpt lat="45.207611443474889" lon="5.708245458081365">
        <ele>216.19999694824219</ele>
        <time>2014-05-18T14:42:03Z</time>
      </trkpt>
      <trkpt lat="45.207670703530312" lon="5.708183767274022">
        <ele>217.19999694824219</ele>
        <time>2014-05-18T14:42:05Z</time>
      </trkpt>
      <trkpt lat="45.207696938887239" lon="5.708146970719099">
        <ele>217.39999389648437</ele>
        <time>2014-05-18T14:42:06Z</time>
      </trkpt>
      <trkpt lat="45.207725940272212" lon="5.708103468641639">
        <ele>217.19999694824219</ele>
        <time>2014-05-18T14:42:07Z</time>
      </trkpt>
      <trkpt lat="45.207781763747334" lon="5.708011435344815">
        <ele>216</ele>
        <time>2014-05-18T14:42:09Z</time>
      </trkpt>
      <trkpt lat="45.207863990217447" lon="5.707872714847326">
        <ele>215</ele>
        <time>2014-05-18T14:42:12Z</time>
      </trkpt>
      <trkpt lat="45.20791252143681" lon="5.707775317132473">
        <ele>215.39999389648437</ele>
        <time>2014-05-18T14:42:14Z</time>
      </trkpt>
      <trkpt lat="45.207979744300246" lon="5.707612372934818">
        <ele>215.60000610351562</ele>
        <time>2014-05-18T14:42:17Z</time>
      </trkpt>
      <trkpt lat="45.207995753735304" lon="5.707553112879396">
        <ele>215.60000610351562</ele>
        <time>2014-05-18T14:42:18Z</time>
      </trkpt>
      <trkpt lat="45.208070101216435" lon="5.70738329552114">
        <ele>215</ele>
        <time>2014-05-18T14:42:21Z</time>
      </trkpt>
      <trkpt lat="45.208087870851159" lon="5.70732856169343">
        <ele>215</ele>
        <time>2014-05-18T14:42:22Z</time>
      </trkpt>
      <trkpt lat="45.208130450919271" lon="5.707218004390597">
        <ele>214.19999694824219</ele>
        <time>2014-05-18T14:42:24Z</time>
      </trkpt>
      <trkpt lat="45.208148136734962" lon="5.707163689658046">
        <ele>213.80000305175781</ele>
        <time>2014-05-18T14:42:25Z</time>
      </trkpt>
      <trkpt lat="45.208177473396063" lon="5.707068387418985">
        <ele>213.19999694824219</ele>
        <time>2014-05-18T14:42:27Z</time>
      </trkpt>
      <trkpt lat="45.20823011174798" lon="5.706928074359894">
        <ele>214.80000305175781</ele>
        <time>2014-05-18T14:42:30Z</time>
      </trkpt>
      <trkpt lat="45.20829020999372" lon="5.706792706623673">
        <ele>214.80000305175781</ele>
        <time>2014-05-18T14:42:33Z</time>
      </trkpt>
      <trkpt lat="45.208316948264837" lon="5.706691117957234">
        <ele>213.60000610351562</ele>
        <time>2014-05-18T14:42:35Z</time>
      </trkpt>
      <trkpt lat="45.208346787840128" lon="5.706538483500481">
        <ele>213.19999694824219</ele>
        <time>2014-05-18T14:42:38Z</time>
      </trkpt>
      <trkpt lat="45.208353996276855" lon="5.70643194951117">
        <ele>212.60000610351562</ele>
        <time>2014-05-18T14:42:41Z</time>
      </trkpt>
      <trkpt lat="45.208381321281195" lon="5.706395823508501">
        <ele>213</ele>
        <time>2014-05-18T14:42:43Z</time>
      </trkpt>
      <trkpt lat="45.208406550809741" lon="5.706274285912514">
        <ele>212.39999389648437</ele>
        <time>2014-05-18T14:42:47Z</time>
      </trkpt>
      <trkpt lat="45.208439910784364" lon="5.706212595105171">
        <ele>212.19999694824219</ele>
        <time>2014-05-18T14:42:49Z</time>
      </trkpt>
      <trkpt lat="45.208514761179686" lon="5.706077059730887">
        <ele>212.39999389648437</ele>
        <time>2014-05-18T14:42:53Z</time>
      </trkpt>
      <trkpt lat="45.208615595474839" lon="5.705875307321549">
        <ele>212.19999694824219</ele>
        <time>2014-05-18T14:42:58Z</time>
      </trkpt>
      <trkpt lat="45.20877493545413" lon="5.705588310956955">
        <ele>211.39999389648437</ele>
        <time>2014-05-18T14:43:04Z</time>
      </trkpt>
      <trkpt lat="45.208827825263143" lon="5.705491080880165">
        <ele>211.60000610351562</ele>
        <time>2014-05-18T14:43:06Z</time>
      </trkpt>
      <trkpt lat="45.208856239914894" lon="5.705442717298865">
        <ele>212.19999694824219</ele>
        <time>2014-05-18T14:43:07Z</time>
      </trkpt>
      <trkpt lat="45.208911811932921" lon="5.705339536070824">
        <ele>212</ele>
        <time>2014-05-18T14:43:09Z</time>
      </trkpt>
      <trkpt lat="45.208953889086843" lon="5.705239959061146">
        <ele>211.39999389648437</ele>
        <time>2014-05-18T14:43:11Z</time>
      </trkpt>
      <trkpt lat="45.209067296236753" lon="5.705020688474178">
        <ele>210</ele>
        <time>2014-05-18T14:43:15Z</time>
      </trkpt>
      <trkpt lat="45.209097471088171" lon="5.704961847513914">
        <ele>210</ele>
        <time>2014-05-18T14:43:16Z</time>
      </trkpt>
      <trkpt lat="45.209132675081491" lon="5.704906275495887">
        <ele>209.80000305175781</ele>
        <time>2014-05-18T14:43:17Z</time>
      </trkpt>
      <trkpt lat="45.209333337843418" lon="5.704571586102247">
        <ele>210.60000610351562</ele>
        <time>2014-05-18T14:43:23Z</time>
      </trkpt>
      <trkpt lat="45.209422940388322" lon="5.704401601105928">
        <ele>210.19999694824219</ele>
        <time>2014-05-18T14:43:26Z</time>
      </trkpt>
      <trkpt lat="45.209477925673127" lon="5.704214014112949">
        <ele>210.60000610351562</ele>
        <time>2014-05-18T14:43:29Z</time>
      </trkpt>
      <trkpt lat="45.209518242627382" lon="5.704041095450521">
        <ele>210.19999694824219</ele>
        <time>2014-05-18T14:43:32Z</time>
      </trkpt>
      <trkpt lat="45.209558978676796" lon="5.703927017748356">
        <ele>210</ele>
        <time>2014-05-18T14:43:34Z</time>
      </trkpt>
      <trkpt lat="45.209585716947913" lon="5.703872870653868">
        <ele>209.80000305175781</ele>
        <time>2014-05-18T14:43:35Z</time>
      </trkpt>
      <trkpt lat="45.209643132984638" lon="5.7037762273103">
        <ele>209.80000305175781</ele>
        <time>2014-05-18T14:43:37Z</time>
      </trkpt>
      <trkpt lat="45.209740195423365" lon="5.703638177365065">
        <ele>209.60000610351562</ele>
        <time>2014-05-18T14:43:40Z</time>
      </trkpt>
      <trkpt lat="45.209869109094143" lon="5.70345033891499">
        <ele>208.80000305175781</ele>
        <time>2014-05-18T14:43:44Z</time>
      </trkpt>
      <trkpt lat="45.20999550819397" lon="5.703275492414832">
        <ele>209.19999694824219</ele>
        <time>2014-05-18T14:43:48Z</time>
      </trkpt>
      <trkpt lat="45.210066251456738" lon="5.703193517401815">
        <ele>210</ele>
        <time>2014-05-18T14:43:50Z</time>
      </trkpt>
      <trkpt lat="45.210257107391953" lon="5.702989920973778">
        <ele>210.80000305175781</ele>
        <time>2014-05-18T14:43:55Z</time>
      </trkpt>
      <trkpt lat="45.210294323042035" lon="5.702948849648237">
        <ele>211</ele>
        <time>2014-05-18T14:43:56Z</time>
      </trkpt>
      <trkpt lat="45.210521388798952" lon="5.702697308734059">
        <ele>211.19999694824219</ele>
        <time>2014-05-18T14:44:02Z</time>
      </trkpt>
      <trkpt lat="45.210694391280413" lon="5.702513745054603">
        <ele>210.60000610351562</ele>
        <time>2014-05-18T14:44:07Z</time>
      </trkpt>
      <trkpt lat="45.21080662496388" lon="5.702404277399182">
        <ele>210.60000610351562</ele>
        <time>2014-05-18T14:44:10Z</time>
      </trkpt>
      <trkpt lat="45.210907626897097" lon="5.702279303222895">
        <ele>211</ele>
        <time>2014-05-18T14:44:13Z</time>
      </trkpt>
      <trkpt lat="45.211228653788567" lon="5.701923239976168">
        <ele>210.60000610351562</ele>
        <time>2014-05-18T14:44:22Z</time>
      </trkpt>
      <trkpt lat="45.211548674851656" lon="5.70158033631742">
        <ele>212.39999389648437</ele>
        <time>2014-05-18T14:44:30Z</time>
      </trkpt>
      <trkpt lat="45.211728299036622" lon="5.7013707049191">
        <ele>211.39999389648437</ele>
        <time>2014-05-18T14:44:35Z</time>
      </trkpt>
      <trkpt lat="45.211896020919085" lon="5.701171131804586">
        <ele>211.19999694824219</ele>
        <time>2014-05-18T14:44:40Z</time>
      </trkpt>
      <trkpt lat="45.212275804951787" lon="5.700706439092755">
        <ele>213.39999389648437</ele>
        <time>2014-05-18T14:44:52Z</time>
      </trkpt>
      <trkpt lat="45.212492980062962" lon="5.700436290353537">
        <ele>212</ele>
        <time>2014-05-18T14:44:59Z</time>
      </trkpt>
      <trkpt lat="45.212565148249269" lon="5.700363619253039">
        <ele>210.80000305175781</ele>
        <time>2014-05-18T14:45:01Z</time>
      </trkpt>
      <trkpt lat="45.21263413131237" lon="5.700282482430339">
        <ele>211.80000305175781</ele>
        <time>2014-05-18T14:45:03Z</time>
      </trkpt>
      <trkpt lat="45.212659193202853" lon="5.700229424983263">
        <ele>212.19999694824219</ele>
        <time>2014-05-18T14:45:04Z</time>
      </trkpt>
      <trkpt lat="45.212673610076308" lon="5.70012029260397">
        <ele>213.19999694824219</ele>
        <time>2014-05-18T14:45:06Z</time>
      </trkpt>
      <trkpt lat="45.212600687518716" lon="5.69999473169446">
        <ele>212.39999389648437</ele>
        <time>2014-05-18T14:45:09Z</time>
      </trkpt>
      <trkpt lat="45.212581157684326" lon="5.699957851320505">
        <ele>212.19999694824219</ele>
        <time>2014-05-18T14:45:10Z</time>
      </trkpt>
      <trkpt lat="45.212522819638252" lon="5.699850311502814">
        <ele>213</ele>
        <time>2014-05-18T14:45:14Z</time>
      </trkpt>
      <trkpt lat="45.212520640343428" lon="5.699834804981947">
        <ele>213.19999694824219</ele>
        <time>2014-05-18T14:45:15Z</time>
      </trkpt>
      <trkpt lat="45.21250119432807" lon="5.699776802212">
        <ele>212.60000610351562</ele>
        <time>2014-05-18T14:45:29Z</time>
      </trkpt>
      <trkpt lat="45.212466577067971" lon="5.699698431417346">
        <ele>212.19999694824219</ele>
        <time>2014-05-18T14:45:32Z</time>
      </trkpt>
      <trkpt lat="45.212432546541095" lon="5.699620898813009">
        <ele>212.19999694824219</ele>
        <time>2014-05-18T14:45:34Z</time>
      </trkpt>
      <trkpt lat="45.212404383346438" lon="5.699591562151909">
        <ele>212.19999694824219</ele>
        <time>2014-05-18T14:45:35Z</time>
      </trkpt>
      <trkpt lat="45.212335735559464" lon="5.699564320966601">
        <ele>212.19999694824219</ele>
        <time>2014-05-18T14:45:37Z</time>
      </trkpt>
      <trkpt lat="45.212150746956468" lon="5.699405986815691">
        <ele>212.80000305175781</ele>
        <time>2014-05-18T14:45:43Z</time>
      </trkpt>
      <trkpt lat="45.212063491344452" lon="5.699337087571621">
        <ele>213.39999389648437</ele>
        <time>2014-05-18T14:45:46Z</time>
      </trkpt>
      <trkpt lat="45.212008757516742" lon="5.699293753132224">
        <ele>214</ele>
        <time>2014-05-18T14:45:48Z</time>
      </trkpt>
      <trkpt lat="45.211983527988195" lon="5.699267098680139">
        <ele>214.39999389648437</ele>
        <time>2014-05-18T14:45:49Z</time>
      </trkpt>
      <trkpt lat="45.211826283484697" lon="5.699124857783318">
        <ele>215.19999694824219</ele>
        <time>2014-05-18T14:45:55Z</time>
      </trkpt>
      <trkpt lat="45.211774734780192" lon="5.699084121733904">
        <ele>215.60000610351562</ele>
        <time>2014-05-18T14:45:57Z</time>
      </trkpt>
      <trkpt lat="45.211640037596226" lon="5.698987226933241">
        <ele>216.60000610351562</ele>
        <time>2014-05-18T14:46:02Z</time>
      </trkpt>
      <trkpt lat="45.211612293496728" lon="5.698958644643426">
        <ele>217</ele>
        <time>2014-05-18T14:46:03Z</time>
      </trkpt>
      <trkpt lat="45.211528474465013" lon="5.698882956057787">
        <ele>218</ele>
        <time>2014-05-18T14:46:06Z</time>
      </trkpt>
      <trkpt lat="45.211443901062012" lon="5.69881028495729">
        <ele>218.39999389648437</ele>
        <time>2014-05-18T14:46:09Z</time>
      </trkpt>
      <trkpt lat="45.21122538484633" lon="5.698649939149618">
        <ele>217.80000305175781</ele>
        <time>2014-05-18T14:46:17Z</time>
      </trkpt>
      <trkpt lat="45.211129663512111" lon="5.698590679094195">
        <ele>217.19999694824219</ele>
        <time>2014-05-18T14:46:22Z</time>
      </trkpt>
      <trkpt lat="45.211055232211947" lon="5.698614735156298">
        <ele>217</ele>
        <time>2014-05-18T14:46:33Z</time>
      </trkpt>
      <trkpt lat="45.21097962744534" lon="5.698748426511884">
        <ele>215.80000305175781</ele>
        <time>2014-05-18T14:46:37Z</time>
      </trkpt>
      <trkpt lat="45.210956325754523" lon="5.698797795921564">
        <ele>215.39999389648437</ele>
        <time>2014-05-18T14:46:38Z</time>
      </trkpt>
      <trkpt lat="45.210914667695761" lon="5.698921848088503">
        <ele>214.60000610351562</ele>
        <time>2014-05-18T14:46:40Z</time>
      </trkpt>
      <trkpt lat="45.210866387933493" lon="5.699065178632736">
        <ele>213.80000305175781</ele>
        <time>2014-05-18T14:46:42Z</time>
      </trkpt>
      <trkpt lat="45.210836715996265" lon="5.699144219979644">
        <ele>213.19999694824219</ele>
        <time>2014-05-18T14:46:43Z</time>
      </trkpt>
      <trkpt lat="45.210774438455701" lon="5.699320156127214">
        <ele>211.80000305175781</ele>
        <time>2014-05-18T14:46:45Z</time>
      </trkpt>
      <trkpt lat="45.210703611373901" lon="5.699519058689475">
        <ele>210.80000305175781</ele>
        <time>2014-05-18T14:46:47Z</time>
      </trkpt>
      <trkpt lat="45.210659522563219" lon="5.699622156098485">
        <ele>210.19999694824219</ele>
        <time>2014-05-18T14:46:48Z</time>
      </trkpt>
      <trkpt lat="45.210613338276744" lon="5.699723325669766">
        <ele>209.60000610351562</ele>
        <time>2014-05-18T14:46:49Z</time>
      </trkpt>
      <trkpt lat="45.210481574758887" lon="5.700013926252723">
        <ele>209.80000305175781</ele>
        <time>2014-05-18T14:46:52Z</time>
      </trkpt>
      <trkpt lat="45.210204385221004" lon="5.70064214989543">
        <ele>210.19999694824219</ele>
        <time>2014-05-18T14:46:59Z</time>
      </trkpt>
      <trkpt lat="45.209949156269431" lon="5.701213963329792">
        <ele>210.80000305175781</ele>
        <time>2014-05-18T14:47:06Z</time>
      </trkpt>
      <trkpt lat="45.209645731374621" lon="5.701895412057638">
        <ele>210.60000610351562</ele>
        <time>2014-05-18T14:47:15Z</time>
      </trkpt>
      <trkpt lat="45.209378767758608" lon="5.702454736456275">
        <ele>210.60000610351562</ele>
        <time>2014-05-18T14:47:23Z</time>
      </trkpt>
      <trkpt lat="45.20931095816195" lon="5.702574010938406">
        <ele>210.60000610351562</ele>
        <time>2014-05-18T14:47:25Z</time>
      </trkpt>
      <trkpt lat="45.209204172715545" lon="5.702731339260936">
        <ele>210.19999694824219</ele>
        <time>2014-05-18T14:47:28Z</time>
      </trkpt>
      <trkpt lat="45.209069978445768" lon="5.702951615676284">
        <ele>211</ele>
        <time>2014-05-18T14:47:33Z</time>
      </trkpt>
      <trkpt lat="45.208986913785338" lon="5.703062592074275">
        <ele>210.80000305175781</ele>
        <time>2014-05-18T14:47:37Z</time>
      </trkpt>
      <trkpt lat="45.208956403657794" lon="5.703060831874609">
        <ele>210.80000305175781</ele>
        <time>2014-05-18T14:47:38Z</time>
      </trkpt>
      <trkpt lat="45.208867136389017" lon="5.703019760549069">
        <ele>210.19999694824219</ele>
        <time>2014-05-18T14:47:41Z</time>
      </trkpt>
      <trkpt lat="45.208810558542609" lon="5.702963517978787">
        <ele>211</ele>
        <time>2014-05-18T14:47:43Z</time>
      </trkpt>
      <trkpt lat="45.208673598244786" lon="5.702727986499667">
        <ele>210.80000305175781</ele>
        <time>2014-05-18T14:47:49Z</time>
      </trkpt>
      <trkpt lat="45.208567986264825" lon="5.702606532722712">
        <ele>211.80000305175781</ele>
        <time>2014-05-18T14:47:54Z</time>
      </trkpt>
      <trkpt lat="45.208548624068499" lon="5.702599994838238">
        <ele>212.19999694824219</ele>
        <time>2014-05-18T14:47:55Z</time>
      </trkpt>
      <trkpt lat="45.208424404263496" lon="5.702595049515367">
        <ele>212.80000305175781</ele>
        <time>2014-05-18T14:48:00Z</time>
      </trkpt>
      <trkpt lat="45.208329940214753" lon="5.702580716460943">
        <ele>214</ele>
        <time>2014-05-18T14:48:04Z</time>
      </trkpt>
      <trkpt lat="45.208231369033456" lon="5.702521204948425">
        <ele>214.60000610351562</ele>
        <time>2014-05-18T14:48:07Z</time>
      </trkpt>
      <trkpt lat="45.208133971318603" lon="5.702446773648262">
        <ele>215.19999694824219</ele>
        <time>2014-05-18T14:48:10Z</time>
      </trkpt>
      <trkpt lat="45.20797261968255" lon="5.70234501734376">
        <ele>215.60000610351562</ele>
        <time>2014-05-18T14:48:15Z</time>
      </trkpt>
      <trkpt lat="45.207832893356681" lon="5.702279722318053">
        <ele>216.19999694824219</ele>
        <time>2014-05-18T14:48:19Z</time>
      </trkpt>
      <trkpt lat="45.207769693806767" lon="5.702245943248272">
        <ele>216.39999389648437</ele>
        <time>2014-05-18T14:48:21Z</time>
      </trkpt>
      <trkpt lat="45.207491666078568" lon="5.702104205265641">
        <ele>217.19999694824219</ele>
        <time>2014-05-18T14:48:29Z</time>
      </trkpt>
      <trkpt lat="45.207454618066549" lon="5.702087357640266">
        <ele>217.60000610351562</ele>
        <time>2014-05-18T14:48:30Z</time>
      </trkpt>
      <trkpt lat="45.207198886200786" lon="5.7019595336169">
        <ele>217.60000610351562</ele>
        <time>2014-05-18T14:48:37Z</time>
      </trkpt>
      <trkpt lat="45.206941645592451" lon="5.701833385974169">
        <ele>217.19999694824219</ele>
        <time>2014-05-18T14:48:44Z</time>
      </trkpt>
      <trkpt lat="45.206828573718667" lon="5.701778819784522">
        <ele>216.39999389648437</ele>
        <time>2014-05-18T14:48:47Z</time>
      </trkpt>
      <trkpt lat="45.206655822694302" lon="5.701686199754477">
        <ele>216.19999694824219</ele>
        <time>2014-05-18T14:48:51Z</time>
      </trkpt>
      <trkpt lat="45.206605782732368" lon="5.701665999367833">
        <ele>215.39999389648437</ele>
        <time>2014-05-18T14:48:52Z</time>
      </trkpt>
      <trkpt lat="45.206390116363764" lon="5.701559046283364">
        <ele>214.19999694824219</ele>
        <time>2014-05-18T14:48:56Z</time>
      </trkpt>
      <trkpt lat="45.206345357000828" lon="5.701530044898391">
        <ele>213.80000305175781</ele>
        <time>2014-05-18T14:48:57Z</time>
      </trkpt>
      <trkpt lat="45.206254161894321" lon="5.701508168131113">
        <ele>214.19999694824219</ele>
        <time>2014-05-18T14:49:00Z</time>
      </trkpt>
      <trkpt lat="45.20627168007195" lon="5.701586790382862">
        <ele>213.80000305175781</ele>
        <time>2014-05-18T14:49:03Z</time>
      </trkpt>
      <trkpt lat="45.206345524638891" lon="5.701637584716082">
        <ele>213.39999389648437</ele>
        <time>2014-05-18T14:49:06Z</time>
      </trkpt>
      <trkpt lat="45.206377962604165" lon="5.701660802587867">
        <ele>213.19999694824219</ele>
        <time>2014-05-18T14:49:07Z</time>
      </trkpt>
      <trkpt lat="45.20641190931201" lon="5.701679242774844">
        <ele>213.19999694824219</ele>
        <time>2014-05-18T14:49:08Z</time>
      </trkpt>
      <trkpt lat="45.206533614546061" lon="5.701791727915406">
        <ele>213</ele>
        <time>2014-05-18T14:49:12Z</time>
      </trkpt>
      <trkpt lat="45.206574434414506" lon="5.701818633824587">
        <ele>213</ele>
        <time>2014-05-18T14:49:13Z</time>
      </trkpt>
      <trkpt lat="45.206689853221178" lon="5.701878564432263">
        <ele>212.80000305175781</ele>
        <time>2014-05-18T14:49:16Z</time>
      </trkpt>
      <trkpt lat="45.206771492958069" lon="5.70183196105063">
        <ele>212.19999694824219</ele>
        <time>2014-05-18T14:49:19Z</time>
      </trkpt>
      <trkpt lat="45.206791609525681" lon="5.701796421781182">
        <ele>212</ele>
        <time>2014-05-18T14:49:20Z</time>
      </trkpt>
      <trkpt lat="45.206811558455229" lon="5.701759709045291">
        <ele>211.80000305175781</ele>
        <time>2014-05-18T14:49:21Z</time>
      </trkpt>
      <trkpt lat="45.206879368051887" lon="5.701645547524095">
        <ele>212.19999694824219</ele>
        <time>2014-05-18T14:49:24Z</time>
      </trkpt>
      <trkpt lat="45.207024542614818" lon="5.701522333547473">
        <ele>213</ele>
        <time>2014-05-18T14:49:28Z</time>
      </trkpt>
      <trkpt lat="45.20705496892333" lon="5.701491320505738">
        <ele>213.19999694824219</ele>
        <time>2014-05-18T14:49:29Z</time>
      </trkpt>
      <trkpt lat="45.207179021090269" lon="5.701264254748821">
        <ele>212.80000305175781</ele>
        <time>2014-05-18T14:49:34Z</time>
      </trkpt>
      <trkpt lat="45.20737012848258" lon="5.700754299759865">
        <ele>213.60000610351562</ele>
        <time>2014-05-18T14:49:43Z</time>
      </trkpt>
      <trkpt lat="45.207488732412457" lon="5.700399661436677">
        <ele>213.19999694824219</ele>
        <time>2014-05-18T14:49:48Z</time>
      </trkpt>
      <trkpt lat="45.207645809277892" lon="5.699924575164914">
        <ele>212.60000610351562</ele>
        <time>2014-05-18T14:49:54Z</time>
      </trkpt>
      <trkpt lat="45.207674307748675" lon="5.699850479140878">
        <ele>212.19999694824219</ele>
        <time>2014-05-18T14:49:55Z</time>
      </trkpt>
      <trkpt lat="45.207698112353683" lon="5.699776466935873">
        <ele>211.80000305175781</ele>
        <time>2014-05-18T14:49:56Z</time>
      </trkpt>
      <trkpt lat="45.207774471491575" lon="5.699550826102495">
        <ele>212.19999694824219</ele>
        <time>2014-05-18T14:49:59Z</time>
      </trkpt>
      <trkpt lat="45.207844963297248" lon="5.699312193319202">
        <ele>212.60000610351562</ele>
        <time>2014-05-18T14:50:02Z</time>
      </trkpt>
      <trkpt lat="45.207899278029799" lon="5.699160480871797">
        <ele>212.19999694824219</ele>
        <time>2014-05-18T14:50:04Z</time>
      </trkpt>
      <trkpt lat="45.208094995468855" lon="5.698681455105543">
        <ele>212.39999389648437</ele>
        <time>2014-05-18T14:50:10Z</time>
      </trkpt>
      <trkpt lat="45.208281660452485" lon="5.698210978880525">
        <ele>212.60000610351562</ele>
        <time>2014-05-18T14:50:16Z</time>
      </trkpt>
      <trkpt lat="45.20842264406383" lon="5.697812922298908">
        <ele>212.19999694824219</ele>
        <time>2014-05-18T14:50:21Z</time>
      </trkpt>
      <trkpt lat="45.208455752581358" lon="5.69773530587554">
        <ele>212</ele>
        <time>2014-05-18T14:50:22Z</time>
      </trkpt>
      <trkpt lat="45.208612577989697" lon="5.697351582348347">
        <ele>211.60000610351562</ele>
        <time>2014-05-18T14:50:27Z</time>
      </trkpt>
      <trkpt lat="45.208796728402376" lon="5.69689929485321">
        <ele>211</ele>
        <time>2014-05-18T14:50:33Z</time>
      </trkpt>
      <trkpt lat="45.208885408937931" lon="5.696665188297629">
        <ele>210.60000610351562</ele>
        <time>2014-05-18T14:50:36Z</time>
      </trkpt>
      <trkpt lat="45.208941735327244" lon="5.696521271020174">
        <ele>209.80000305175781</ele>
        <time>2014-05-18T14:50:38Z</time>
      </trkpt>
      <trkpt lat="45.208967886865139" lon="5.696444911882281">
        <ele>210</ele>
        <time>2014-05-18T14:50:39Z</time>
      </trkpt>
      <trkpt lat="45.209189672023058" lon="5.695843426510692">
        <ele>211.60000610351562</ele>
        <time>2014-05-18T14:50:47Z</time>
      </trkpt>
      <trkpt lat="45.209217248484492" lon="5.695770168676972">
        <ele>211.60000610351562</ele>
        <time>2014-05-18T14:50:48Z</time>
      </trkpt>
      <trkpt lat="45.209293775260448" lon="5.695543354377151">
        <ele>213</ele>
        <time>2014-05-18T14:50:51Z</time>
      </trkpt>
      <trkpt lat="45.209431322291493" lon="5.695167509838939">
        <ele>212</ele>
        <time>2014-05-18T14:50:56Z</time>
      </trkpt>
      <trkpt lat="45.209462586790323" lon="5.695099113509059">
        <ele>211.80000305175781</ele>
        <time>2014-05-18T14:50:57Z</time>
      </trkpt>
      <trkpt lat="45.20955428481102" lon="5.694886045530438">
        <ele>210.80000305175781</ele>
        <time>2014-05-18T14:51:00Z</time>
      </trkpt>
      <trkpt lat="45.20960901863873" lon="5.694742798805237">
        <ele>211</ele>
        <time>2014-05-18T14:51:02Z</time>
      </trkpt>
      <trkpt lat="45.209766263142228" lon="5.694291768595576">
        <ele>211.39999389648437</ele>
        <time>2014-05-18T14:51:08Z</time>
      </trkpt>
      <trkpt lat="45.209868941456079" lon="5.693983733654022">
        <ele>211.39999389648437</ele>
        <time>2014-05-18T14:51:13Z</time>
      </trkpt>
      <trkpt lat="45.209882855415344" lon="5.693918270990253">
        <ele>211.39999389648437</ele>
        <time>2014-05-18T14:51:14Z</time>
      </trkpt>
      <trkpt lat="45.20991931669414" lon="5.693705035373569">
        <ele>211.39999389648437</ele>
        <time>2014-05-18T14:51:17Z</time>
      </trkpt>
      <trkpt lat="45.20993591286242" lon="5.693561537191272">
        <ele>211.60000610351562</ele>
        <time>2014-05-18T14:51:19Z</time>
      </trkpt>
      <trkpt lat="45.209951503202319" lon="5.693409238010645">
        <ele>211.60000610351562</ele>
        <time>2014-05-18T14:51:21Z</time>
      </trkpt>
      <trkpt lat="45.209964578971267" lon="5.693331118673086">
        <ele>211.80000305175781</ele>
        <time>2014-05-18T14:51:22Z</time>
      </trkpt>
      <trkpt lat="45.210008919239044" lon="5.693013360723853">
        <ele>211.39999389648437</ele>
        <time>2014-05-18T14:51:26Z</time>
      </trkpt>
      <trkpt lat="45.210076058283448" lon="5.692543555051088">
        <ele>211.19999694824219</ele>
        <time>2014-05-18T14:51:32Z</time>
      </trkpt>
      <trkpt lat="45.210115788504481" lon="5.692225964739919">
        <ele>210.80000305175781</ele>
        <time>2014-05-18T14:51:36Z</time>
      </trkpt>
      <trkpt lat="45.210149316117167" lon="5.691919354721904">
        <ele>211.39999389648437</ele>
        <time>2014-05-18T14:51:40Z</time>
      </trkpt>
      <trkpt lat="45.210221903398633" lon="5.691394144669175">
        <ele>210.80000305175781</ele>
        <time>2014-05-18T14:51:47Z</time>
      </trkpt>
      <trkpt lat="45.210283091291785" lon="5.690849237143993">
        <ele>211.39999389648437</ele>
        <time>2014-05-18T14:51:54Z</time>
      </trkpt>
      <trkpt lat="45.210339333862066" lon="5.690416228026152">
        <ele>211.39999389648437</ele>
        <time>2014-05-18T14:52:00Z</time>
      </trkpt>
      <trkpt lat="45.21035123616457" lon="5.690342970192432">
        <ele>211.60000610351562</ele>
        <time>2014-05-18T14:52:01Z</time>
      </trkpt>
      <trkpt lat="45.210400940850377" lon="5.689978692680597">
        <ele>211.80000305175781</ele>
        <time>2014-05-18T14:52:06Z</time>
      </trkpt>
      <trkpt lat="45.210409490391612" lon="5.689898561686277">
        <ele>212</ele>
        <time>2014-05-18T14:52:07Z</time>
      </trkpt>
      <trkpt lat="45.210441257804632" lon="5.689617600291967">
        <ele>211.39999389648437</ele>
        <time>2014-05-18T14:52:11Z</time>
      </trkpt>
      <trkpt lat="45.21049490198493" lon="5.689154835417867">
        <ele>211.39999389648437</ele>
        <time>2014-05-18T14:52:17Z</time>
      </trkpt>
      <trkpt lat="45.210575200617313" lon="5.688635660335422">
        <ele>211.39999389648437</ele>
        <time>2014-05-18T14:52:24Z</time>
      </trkpt>
      <trkpt lat="45.210603112354875" lon="5.688401637598872">
        <ele>210.60000610351562</ele>
        <time>2014-05-18T14:52:27Z</time>
      </trkpt>
      <trkpt lat="45.210636723786592" lon="5.688183708116412">
        <ele>211.80000305175781</ele>
        <time>2014-05-18T14:52:30Z</time>
      </trkpt>
      <trkpt lat="45.210651140660048" lon="5.688111707568169">
        <ele>212</ele>
        <time>2014-05-18T14:52:31Z</time>
      </trkpt>
      <trkpt lat="45.210758429020643" lon="5.687623545527458">
        <ele>210.80000305175781</ele>
        <time>2014-05-18T14:52:38Z</time>
      </trkpt>
      <trkpt lat="45.210831854492426" lon="5.687301848083735">
        <ele>211.19999694824219</ele>
        <time>2014-05-18T14:52:43Z</time>
      </trkpt>
      <trkpt lat="45.210861107334495" lon="5.687172263860703">
        <ele>210.60000610351562</ele>
        <time>2014-05-18T14:52:45Z</time>
      </trkpt>
      <trkpt lat="45.210947524756193" lon="5.686776638031006">
        <ele>210.60000610351562</ele>
        <time>2014-05-18T14:52:51Z</time>
      </trkpt>
      <trkpt lat="45.210959929972887" lon="5.68671184591949">
        <ele>210.39999389648437</ele>
        <time>2014-05-18T14:52:52Z</time>
      </trkpt>
      <trkpt lat="45.211039474233985" lon="5.686374139040709">
        <ele>209.80000305175781</ele>
        <time>2014-05-18T14:52:57Z</time>
      </trkpt>
      <trkpt lat="45.211094794794917" lon="5.686148079112172">
        <ele>209.60000610351562</ele>
        <time>2014-05-18T14:53:00Z</time>
      </trkpt>
      <trkpt lat="45.211146678775549" lon="5.685913721099496">
        <ele>209</ele>
        <time>2014-05-18T14:53:03Z</time>
      </trkpt>
      <trkpt lat="45.211182301864028" lon="5.685751195997">
        <ele>208.60000610351562</ele>
        <time>2014-05-18T14:53:05Z</time>
      </trkpt>
      <trkpt lat="45.21125229075551" lon="5.685442909598351">
        <ele>207</ele>
        <time>2014-05-18T14:53:09Z</time>
      </trkpt>
      <trkpt lat="45.211267042905092" lon="5.685378033667803">
        <ele>206.80000305175781</ele>
        <time>2014-05-18T14:53:10Z</time>
      </trkpt>
      <trkpt lat="45.21135438233614" lon="5.68492298014462">
        <ele>208.19999694824219</ele>
        <time>2014-05-18T14:53:17Z</time>
      </trkpt>
      <trkpt lat="45.211425125598907" lon="5.68444412201643">
        <ele>209.19999694824219</ele>
        <time>2014-05-18T14:53:24Z</time>
      </trkpt>
      <trkpt lat="45.211349939927459" lon="5.684331972151995">
        <ele>210.19999694824219</ele>
        <time>2014-05-18T14:53:27Z</time>
      </trkpt>
      <trkpt lat="45.21131725050509" lon="5.684304563328624">
        <ele>210.39999389648437</ele>
        <time>2014-05-18T14:53:28Z</time>
      </trkpt>
      <trkpt lat="45.211129663512111" lon="5.684222336858511">
        <ele>210.60000610351562</ele>
        <time>2014-05-18T14:53:33Z</time>
      </trkpt>
      <trkpt lat="45.211010808125138" lon="5.684165507555008">
        <ele>211.60000610351562</ele>
        <time>2014-05-18T14:53:36Z</time>
      </trkpt>
      <trkpt lat="45.210867729038" lon="5.684114629402757">
        <ele>212.80000305175781</ele>
        <time>2014-05-18T14:53:40Z</time>
      </trkpt>
      <trkpt lat="45.210662204772234" lon="5.684151174500585">
        <ele>213.80000305175781</ele>
        <time>2014-05-18T14:53:46Z</time>
      </trkpt>
      <trkpt lat="45.210559023544192" lon="5.684212110936642">
        <ele>213.80000305175781</ele>
        <time>2014-05-18T14:53:49Z</time>
      </trkpt>
      <trkpt lat="45.210391217842698" lon="5.68431512452662">
        <ele>214.19999694824219</ele>
        <time>2014-05-18T14:53:54Z</time>
      </trkpt>
      <trkpt lat="45.210141940042377" lon="5.68449349142611">
        <ele>213.80000305175781</ele>
        <time>2014-05-18T14:54:00Z</time>
      </trkpt>
      <trkpt lat="45.209732735529542" lon="5.684789791703224">
        <ele>214.19999694824219</ele>
        <time>2014-05-18T14:54:09Z</time>
      </trkpt>
      <trkpt lat="45.209611617028713" lon="5.684856679290533">
        <ele>214</ele>
        <time>2014-05-18T14:54:12Z</time>
      </trkpt>
      <trkpt lat="45.209489744156599" lon="5.684861037880182">
        <ele>214.39999389648437</ele>
        <time>2014-05-18T14:54:15Z</time>
      </trkpt>
      <trkpt lat="45.209450935944915" lon="5.684852655977011">
        <ele>214.39999389648437</ele>
        <time>2014-05-18T14:54:16Z</time>
      </trkpt>
      <trkpt lat="45.20941355265677" lon="5.684864390641451">
        <ele>214.19999694824219</ele>
        <time>2014-05-18T14:54:17Z</time>
      </trkpt>
      <trkpt lat="45.20933928899467" lon="5.684921136125922">
        <ele>214</ele>
        <time>2014-05-18T14:54:19Z</time>
      </trkpt>
      <trkpt lat="45.209245411679149" lon="5.685001853853464">
        <ele>215</ele>
        <time>2014-05-18T14:54:22Z</time>
      </trkpt>
      <trkpt lat="45.20911599509418" lon="5.685100089758635">
        <ele>216.19999694824219</ele>
        <time>2014-05-18T14:54:26Z</time>
      </trkpt>
      <trkpt lat="45.208901921287179" lon="5.685187261551619">
        <ele>217</ele>
        <time>2014-05-18T14:54:32Z</time>
      </trkpt>
      <trkpt lat="45.208837883546948" lon="5.685118613764644">
        <ele>217.19999694824219</ele>
        <time>2014-05-18T14:54:34Z</time>
      </trkpt>
      <trkpt lat="45.208777701482177" lon="5.68503244780004">
        <ele>216.80000305175781</ele>
        <time>2014-05-18T14:54:36Z</time>
      </trkpt>
      <trkpt lat="45.208745431154966" lon="5.684987520799041">
        <ele>216.60000610351562</ele>
        <time>2014-05-18T14:54:37Z</time>
      </trkpt>
      <trkpt lat="45.208477880805731" lon="5.684617208316922">
        <ele>216.80000305175781</ele>
        <time>2014-05-18T14:54:45Z</time>
      </trkpt>
      <trkpt lat="45.208153249695897" lon="5.684148324653506">
        <ele>216.80000305175781</ele>
        <time>2014-05-18T14:54:53Z</time>
      </trkpt>
      <trkpt lat="45.208060629665852" lon="5.684018908068538">
        <ele>219</ele>
        <time>2014-05-18T14:54:55Z</time>
      </trkpt>
      <trkpt lat="45.207922328263521" lon="5.683819334954023">
        <ele>217.60000610351562</ele>
        <time>2014-05-18T14:54:58Z</time>
      </trkpt>
      <trkpt lat="45.207778159528971" lon="5.683616660535336">
        <ele>216.39999389648437</ele>
        <time>2014-05-18T14:55:01Z</time>
      </trkpt>
      <trkpt lat="45.20768185146153" lon="5.68348104134202">
        <ele>215</ele>
        <time>2014-05-18T14:55:03Z</time>
      </trkpt>
      <trkpt lat="45.207476494833827" lon="5.683221202343702">
        <ele>213.80000305175781</ele>
        <time>2014-05-18T14:55:07Z</time>
      </trkpt>
      <trkpt lat="45.207359483465552" lon="5.683109639212489">
        <ele>213.60000610351562</ele>
        <time>2014-05-18T14:55:09Z</time>
      </trkpt>
      <trkpt lat="45.207295697182417" lon="5.683065047487617">
        <ele>213.80000305175781</ele>
        <time>2014-05-18T14:55:10Z</time>
      </trkpt>
      <trkpt lat="45.20702613517642" lon="5.682917777448893">
        <ele>213.39999389648437</ele>
        <time>2014-05-18T14:55:14Z</time>
      </trkpt>
      <trkpt lat="45.20681013353169" lon="5.682825911790133">
        <ele>212.60000610351562</ele>
        <time>2014-05-18T14:55:17Z</time>
      </trkpt>
      <trkpt lat="45.206574937328696" lon="5.682759275659919">
        <ele>211</ele>
        <time>2014-05-18T14:55:20Z</time>
      </trkpt>
      <trkpt lat="45.206414172425866" lon="5.682704374194145">
        <ele>209.39999389648437</ele>
        <time>2014-05-18T14:55:22Z</time>
      </trkpt>
      <trkpt lat="45.206011505797505" lon="5.682542603462935">
        <ele>209.19999694824219</ele>
        <time>2014-05-18T14:55:27Z</time>
      </trkpt>
      <trkpt lat="45.205833809450269" lon="5.682472866028547">
        <ele>209.19999694824219</ele>
        <time>2014-05-18T14:55:30Z</time>
      </trkpt>
      <trkpt lat="45.205771531909704" lon="5.682455096393824">
        <ele>209.80000305175781</ele>
        <time>2014-05-18T14:56:09Z</time>
      </trkpt>
      <trkpt lat="45.205707494169474" lon="5.682459035888314">
        <ele>209.80000305175781</ele>
        <time>2014-05-18T14:56:12Z</time>
      </trkpt>
      <trkpt lat="45.205565588548779" lon="5.682482086122036">
        <ele>209.39999389648437</ele>
        <time>2014-05-18T14:56:18Z</time>
      </trkpt>
      <trkpt lat="45.205541783943772" lon="5.68251452408731">
        <ele>209.19999694824219</ele>
        <time>2014-05-18T14:56:19Z</time>
      </trkpt>
      <trkpt lat="45.205429047346115" lon="5.682706218212843">
        <ele>209.19999694824219</ele>
        <time>2014-05-18T14:56:23Z</time>
      </trkpt>
      <trkpt lat="45.205398453399539" lon="5.682765478268266">
        <ele>209.19999694824219</ele>
        <time>2014-05-18T14:56:24Z</time>
      </trkpt>
      <trkpt lat="45.2053193282336" lon="5.682970918715">
        <ele>208.60000610351562</ele>
        <time>2014-05-18T14:56:27Z</time>
      </trkpt>
      <trkpt lat="45.205321256071329" lon="5.683045266196132">
        <ele>208.80000305175781</ele>
        <time>2014-05-18T14:56:28Z</time>
      </trkpt>
      <trkpt lat="45.205392250791192" lon="5.683149956166744">
        <ele>208.60000610351562</ele>
        <time>2014-05-18T14:56:30Z</time>
      </trkpt>
      <trkpt lat="45.205438686534762" lon="5.68318247795105">
        <ele>208.39999389648437</ele>
        <time>2014-05-18T14:56:31Z</time>
      </trkpt>
      <trkpt lat="45.205524265766144" lon="5.683256071060896">
        <ele>207.80000305175781</ele>
        <time>2014-05-18T14:56:33Z</time>
      </trkpt>
      <trkpt lat="45.205564247444272" lon="5.683297393843532">
        <ele>208</ele>
        <time>2014-05-18T14:56:34Z</time>
      </trkpt>
      <trkpt lat="45.205829786136746" lon="5.68357047624886">
        <ele>208.19999694824219</ele>
        <time>2014-05-18T14:56:41Z</time>
      </trkpt>
      <trkpt lat="45.205896589905024" lon="5.683661503717303">
        <ele>208</ele>
        <time>2014-05-18T14:56:43Z</time>
      </trkpt>
      <trkpt lat="45.206038411706686" lon="5.683825286105275">
        <ele>208.60000610351562</ele>
        <time>2014-05-18T14:56:47Z</time>
      </trkpt>
      <trkpt lat="45.206109490245581" lon="5.683896532282233">
        <ele>208</ele>
        <time>2014-05-18T14:56:49Z</time>
      </trkpt>
      <trkpt lat="45.206198003143072" lon="5.683922935277224">
        <ele>208.19999694824219</ele>
        <time>2014-05-18T14:56:51Z</time>
      </trkpt>
      <trkpt lat="45.206278888508677" lon="5.683917487040162">
        <ele>208.39999389648437</ele>
        <time>2014-05-18T14:56:53Z</time>
      </trkpt>
      <trkpt lat="45.206436887383461" lon="5.683909356594086">
        <ele>208.80000305175781</ele>
        <time>2014-05-18T14:56:57Z</time>
      </trkpt>
      <trkpt lat="45.206643333658576" lon="5.683884294703603">
        <ele>208.39999389648437</ele>
        <time>2014-05-18T14:57:03Z</time>
      </trkpt>
      <trkpt lat="45.206735115498304" lon="5.683905081823468">
        <ele>209</ele>
        <time>2014-05-18T14:57:07Z</time>
      </trkpt>
      <trkpt lat="45.206832764670253" lon="5.683821346610785">
        <ele>208.60000610351562</ele>
        <time>2014-05-18T14:57:11Z</time>
      </trkpt>
      <trkpt lat="45.206851959228516" lon="5.683815395459533">
        <ele>208.60000610351562</ele>
        <time>2014-05-18T14:57:12Z</time>
      </trkpt>
      <trkpt lat="45.206922702491283" lon="5.683818832039833">
        <ele>208.39999389648437</ele>
        <time>2014-05-18T14:57:15Z</time>
      </trkpt>
      <trkpt lat="45.206802422180772" lon="5.683897286653519">
        <ele>210</ele>
        <time>2014-05-19T06:54:27Z</time>
      </trkpt>
      <trkpt lat="45.206777444109321" lon="5.683912457898259">
        <ele>210</ele>
        <time>2014-05-19T06:54:31Z</time>
      </trkpt>
      <trkpt lat="45.20675984211266" lon="5.683933245018125">
        <ele>209.80000305175781</ele>
        <time>2014-05-19T06:54:33Z</time>
      </trkpt>
      <trkpt lat="45.206674262881279" lon="5.683934167027473">
        <ele>210.19999694824219</ele>
        <time>2014-05-19T06:54:40Z</time>
      </trkpt>
      <trkpt lat="45.206614248454571" lon="5.683880355209112">
        <ele>210.39999389648437</ele>
        <time>2014-05-19T06:54:46Z</time>
      </trkpt>
      <trkpt lat="45.206508971750736" lon="5.683873817324638">
        <ele>210.39999389648437</ele>
        <time>2014-05-19T06:55:23Z</time>
      </trkpt>
      <trkpt lat="45.206461613997817" lon="5.683876164257526">
        <ele>210.19999694824219</ele>
        <time>2014-05-19T06:55:25Z</time>
      </trkpt>
      <trkpt lat="45.206265896558762" lon="5.683903824537993">
        <ele>210.19999694824219</ele>
        <time>2014-05-19T06:55:30Z</time>
      </trkpt>
      <trkpt lat="45.206024330109358" lon="5.683815311640501">
        <ele>209.80000305175781</ele>
        <time>2014-05-19T06:55:33Z</time>
      </trkpt>
      <trkpt lat="45.206024330109358" lon="5.683815311640501">
        <ele>209.80000305175781</ele>
        <time>2014-05-19T06:55:35Z</time>
      </trkpt>
      <trkpt lat="45.205743703991175" lon="5.683441394940019">
        <ele>209.60000610351562</ele>
        <time>2014-05-19T06:55:42Z</time>
      </trkpt>
      <trkpt lat="45.20560665987432" lon="5.68331734277308">
        <ele>209.39999389648437</ele>
        <time>2014-05-19T06:55:45Z</time>
      </trkpt>
      <trkpt lat="45.205511944368482" lon="5.683255819603801">
        <ele>209.60000610351562</ele>
        <time>2014-05-19T06:55:47Z</time>
      </trkpt>
      <trkpt lat="45.20544346421957" lon="5.683191195130348">
        <ele>209.80000305175781</ele>
        <time>2014-05-19T06:55:49Z</time>
      </trkpt>
      <trkpt lat="45.205415803939104" lon="5.683118607848883">
        <ele>210</ele>
        <time>2014-05-19T06:55:51Z</time>
      </trkpt>
      <trkpt lat="45.205407002940774" lon="5.683031938970089">
        <ele>209.80000305175781</ele>
        <time>2014-05-19T06:55:54Z</time>
      </trkpt>
      <trkpt lat="45.205412534996867" lon="5.682980222627521">
        <ele>209.80000305175781</ele>
        <time>2014-05-19T06:55:56Z</time>
      </trkpt>
      <trkpt lat="45.205478332936764" lon="5.682830521836877">
        <ele>210</ele>
        <time>2014-05-19T06:56:02Z</time>
      </trkpt>
      <trkpt lat="45.20551529712975" lon="5.682793473824859">
        <ele>210.39999389648437</ele>
        <time>2014-05-19T06:56:39Z</time>
      </trkpt>
      <trkpt lat="45.205611605197191" lon="5.682677803561091">
        <ele>210.60000610351562</ele>
        <time>2014-05-19T06:56:43Z</time>
      </trkpt>
      <trkpt lat="45.205762479454279" lon="5.68238846026361">
        <ele>210.60000610351562</ele>
        <time>2014-05-19T06:56:50Z</time>
      </trkpt>
      <trkpt lat="45.205883933231235" lon="5.68217882886529">
        <ele>210.60000610351562</ele>
        <time>2014-05-19T06:56:56Z</time>
      </trkpt>
      <trkpt lat="45.205965489149094" lon="5.681987218558788">
        <ele>210</ele>
        <time>2014-05-19T06:57:03Z</time>
      </trkpt>
      <trkpt lat="45.205957526341081" lon="5.681944722309709">
        <ele>209.80000305175781</ele>
        <time>2014-05-19T06:57:04Z</time>
      </trkpt>
      <trkpt lat="45.205893069505692" lon="5.681935250759125">
        <ele>209.80000305175781</ele>
        <time>2014-05-19T06:57:06Z</time>
      </trkpt>
      <trkpt lat="45.205833474174142" lon="5.682043544948101">
        <ele>209.60000610351562</ele>
        <time>2014-05-19T06:57:09Z</time>
      </trkpt>
      <trkpt lat="45.205706236883998" lon="5.682268934324384">
        <ele>210.19999694824219</ele>
        <time>2014-05-19T06:57:15Z</time>
      </trkpt>
      <trkpt lat="45.205705817788839" lon="5.682515697553754">
        <ele>210.60000610351562</ele>
        <time>2014-05-19T06:57:20Z</time>
      </trkpt>
      <trkpt lat="45.20588711835444" lon="5.682670008391142">
        <ele>210.19999694824219</ele>
        <time>2014-05-19T06:57:24Z</time>
      </trkpt>
      <trkpt lat="45.206015696749091" lon="5.682708146050572">
        <ele>210.19999694824219</ele>
        <time>2014-05-19T06:57:26Z</time>
      </trkpt>
      <trkpt lat="45.206202026456594" lon="5.68277008831501">
        <ele>210.80000305175781</ele>
        <time>2014-05-19T06:57:29Z</time>
      </trkpt>
      <trkpt lat="45.206261789426208" lon="5.682793809100986">
        <ele>211.19999694824219</ele>
        <time>2014-05-19T06:57:30Z</time>
      </trkpt>
      <trkpt lat="45.206498075276613" lon="5.682866564020515">
        <ele>212.39999389648437</ele>
        <time>2014-05-19T06:57:34Z</time>
      </trkpt>
      <trkpt lat="45.206613661721349" lon="5.682904701679945">
        <ele>213.19999694824219</ele>
        <time>2014-05-19T06:57:36Z</time>
      </trkpt>
      <trkpt lat="45.206672754138708" lon="5.682919956743717">
        <ele>213.39999389648437</ele>
        <time>2014-05-19T06:57:37Z</time>
      </trkpt>
      <trkpt lat="45.207015238702297" lon="5.683029340580106">
        <ele>214.19999694824219</ele>
        <time>2014-05-19T06:57:43Z</time>
      </trkpt>
      <trkpt lat="45.207121688872576" lon="5.683069573715329">
        <ele>214.60000610351562</ele>
        <time>2014-05-19T06:57:45Z</time>
      </trkpt>
      <trkpt lat="45.207350933924317" lon="5.683247521519661">
        <ele>215.39999389648437</ele>
        <time>2014-05-19T06:57:50Z</time>
      </trkpt>
      <trkpt lat="45.207438692450523" lon="5.683411890640855">
        <ele>215.80000305175781</ele>
        <time>2014-05-19T06:57:53Z</time>
      </trkpt>
      <trkpt lat="45.207464173436165" lon="5.683459835126996">
        <ele>216</ele>
        <time>2014-05-19T06:57:54Z</time>
      </trkpt>
      <trkpt lat="45.207614544779062" lon="5.683751776814461">
        <ele>215.19999694824219</ele>
        <time>2014-05-19T06:58:00Z</time>
      </trkpt>
      <trkpt lat="45.207620831206441" lon="5.683802822604775">
        <ele>215</ele>
        <time>2014-05-19T06:58:01Z</time>
      </trkpt>
      <trkpt lat="45.207572970539331" lon="5.683914301916957">
        <ele>214.60000610351562</ele>
        <time>2014-05-19T06:58:03Z</time>
      </trkpt>
      <trkpt lat="45.207541789859533" lon="5.683966353535652">
        <ele>214.39999389648437</ele>
        <time>2014-05-19T06:58:04Z</time>
      </trkpt>
      <trkpt lat="45.207471465691924" lon="5.684071462601423">
        <ele>213.80000305175781</ele>
        <time>2014-05-19T06:58:06Z</time>
      </trkpt>
      <trkpt lat="45.207428717985749" lon="5.684134913608432">
        <ele>213.60000610351562</ele>
        <time>2014-05-19T06:58:07Z</time>
      </trkpt>
      <trkpt lat="45.20738379098475" lon="5.684195598587394">
        <ele>213.39999389648437</ele>
        <time>2014-05-19T06:58:08Z</time>
      </trkpt>
      <trkpt lat="45.207186061888933" lon="5.684511428698897">
        <ele>214</ele>
        <time>2014-05-19T06:58:13Z</time>
      </trkpt>
      <trkpt lat="45.206999816000462" lon="5.684764143079519">
        <ele>213.80000305175781</ele>
        <time>2014-05-19T06:58:18Z</time>
      </trkpt>
      <trkpt lat="45.206758417189121" lon="5.685087097808719">
        <ele>214</ele>
        <time>2014-05-19T06:58:24Z</time>
      </trkpt>
      <trkpt lat="45.206452729180455" lon="5.685519855469465">
        <ele>214.39999389648437</ele>
        <time>2014-05-19T06:58:32Z</time>
      </trkpt>
      <trkpt lat="45.206340663135052" lon="5.685652876272798">
        <ele>215</ele>
        <time>2014-05-19T06:58:36Z</time>
      </trkpt>
      <trkpt lat="45.20625215023756" lon="5.685792434960604">
        <ele>215.19999694824219</ele>
        <time>2014-05-19T06:59:03Z</time>
      </trkpt>
      <trkpt lat="45.206191381439567" lon="5.685875415802002">
        <ele>215</ele>
        <time>2014-05-19T06:59:06Z</time>
      </trkpt>
      <trkpt lat="45.206041010096669" lon="5.686070881783962">
        <ele>215</ele>
        <time>2014-05-19T06:59:13Z</time>
      </trkpt>
      <trkpt lat="45.205926178023219" lon="5.686228293925524">
        <ele>214.80000305175781</ele>
        <time>2014-05-19T06:59:18Z</time>
      </trkpt>
      <trkpt lat="45.205717217177153" lon="5.686500035226345">
        <ele>214.80000305175781</ele>
        <time>2014-05-19T06:59:24Z</time>
      </trkpt>
      <trkpt lat="45.205460311844945" lon="5.686851572245359">
        <ele>214.60000610351562</ele>
        <time>2014-05-19T06:59:30Z</time>
      </trkpt>
      <trkpt lat="45.205186307430267" lon="5.687231188639998">
        <ele>214.39999389648437</ele>
        <time>2014-05-19T06:59:36Z</time>
      </trkpt>
      <trkpt lat="45.20489813759923" lon="5.687645841389895">
        <ele>214.39999389648437</ele>
        <time>2014-05-19T06:59:42Z</time>
      </trkpt>
      <trkpt lat="45.204620528966188" lon="5.688029145821929">
        <ele>214.60000610351562</ele>
        <time>2014-05-19T06:59:48Z</time>
      </trkpt>
      <trkpt lat="45.204358175396919" lon="5.688387136906385">
        <ele>215.19999694824219</ele>
        <time>2014-05-19T06:59:54Z</time>
      </trkpt>
      <trkpt lat="45.203963136300445" lon="5.688923159614205">
        <ele>215.39999389648437</ele>
        <time>2014-05-19T07:00:03Z</time>
      </trkpt>
      <trkpt lat="45.203582094982266" lon="5.689445268362761">
        <ele>215.39999389648437</ele>
        <time>2014-05-19T07:00:12Z</time>
      </trkpt>
      <trkpt lat="45.203283531591296" lon="5.689859753474593">
        <ele>215.19999694824219</ele>
        <time>2014-05-19T07:00:19Z</time>
      </trkpt>
      <trkpt lat="45.202892767265439" lon="5.690415054559708">
        <ele>215.80000305175781</ele>
        <time>2014-05-19T07:00:28Z</time>
      </trkpt>
      <trkpt lat="45.202483562752604" lon="5.690980581566691">
        <ele>215.60000610351562</ele>
        <time>2014-05-19T07:00:37Z</time>
      </trkpt>
      <trkpt lat="45.202353643253446" lon="5.691163809970021">
        <ele>216</ele>
        <time>2014-05-19T07:00:40Z</time>
      </trkpt>
      <trkpt lat="45.201998502016068" lon="5.691657168790698">
        <ele>216.19999694824219</ele>
        <time>2014-05-19T07:00:48Z</time>
      </trkpt>
      <trkpt lat="45.201591560617089" lon="5.692207021638751">
        <ele>216.39999389648437</ele>
        <time>2014-05-19T07:00:57Z</time>
      </trkpt>
      <trkpt lat="45.201547387987375" lon="5.692265862599015">
        <ele>216.60000610351562</ele>
        <time>2014-05-19T07:00:58Z</time>
      </trkpt>
      <trkpt lat="45.201142961159348" lon="5.692809764295816">
        <ele>216.60000610351562</ele>
        <time>2014-05-19T07:01:07Z</time>
      </trkpt>
      <trkpt lat="45.201101554557681" lon="5.69287003017962">
        <ele>216.60000610351562</ele>
        <time>2014-05-19T07:01:08Z</time>
      </trkpt>
      <trkpt lat="45.20084448158741" lon="5.693222405388951">
        <ele>216.60000610351562</ele>
        <time>2014-05-19T07:01:14Z</time>
      </trkpt>
      <trkpt lat="45.200800560414791" lon="5.69328392855823">
        <ele>216.80000305175781</ele>
        <time>2014-05-19T07:01:15Z</time>
      </trkpt>
      <trkpt lat="45.200407030060887" lon="5.693826153874397">
        <ele>216.80000305175781</ele>
        <time>2014-05-19T07:01:24Z</time>
      </trkpt>
      <trkpt lat="45.200363779440522" lon="5.693884743377566">
        <ele>216.80000305175781</ele>
        <time>2014-05-19T07:01:25Z</time>
      </trkpt>
      <trkpt lat="45.20028012804687" lon="5.694007119163871">
        <ele>217</ele>
        <time>2014-05-19T07:01:27Z</time>
      </trkpt>
      <trkpt lat="45.199981397017837" lon="5.694415653124452">
        <ele>217.39999389648437</ele>
        <time>2014-05-19T07:01:34Z</time>
      </trkpt>
      <trkpt lat="45.199637822806835" lon="5.694877412170172">
        <ele>217.39999389648437</ele>
        <time>2014-05-19T07:01:42Z</time>
      </trkpt>
      <trkpt lat="45.19939181394875" lon="5.695219477638602">
        <ele>217.39999389648437</ele>
        <time>2014-05-19T07:01:48Z</time>
      </trkpt>
      <trkpt lat="45.199085790663958" lon="5.695636225864291">
        <ele>217.60000610351562</ele>
        <time>2014-05-19T07:01:55Z</time>
      </trkpt>
      <trkpt lat="45.19874582067132" lon="5.696111815050244">
        <ele>217.80000305175781</ele>
        <time>2014-05-19T07:02:03Z</time>
      </trkpt>
      <trkpt lat="45.198586396872997" lon="5.696338210254908">
        <ele>218</ele>
        <time>2014-05-19T07:02:07Z</time>
      </trkpt>
      <trkpt lat="45.198465613648295" lon="5.69651423022151">
        <ele>218.19999694824219</ele>
        <time>2014-05-19T07:02:10Z</time>
      </trkpt>
      <trkpt lat="45.198121033608913" lon="5.696989400312305">
        <ele>218.39999389648437</ele>
        <time>2014-05-19T07:02:18Z</time>
      </trkpt>
      <trkpt lat="45.197736723348498" lon="5.69751737639308">
        <ele>219</ele>
        <time>2014-05-19T07:02:27Z</time>
      </trkpt>
      <trkpt lat="45.197695819661021" lon="5.697574038058519">
        <ele>219</ele>
        <time>2014-05-19T07:02:28Z</time>
      </trkpt>
      <trkpt lat="45.197447631508112" lon="5.697909398004413">
        <ele>219.39999389648437</ele>
        <time>2014-05-19T07:02:34Z</time>
      </trkpt>
      <trkpt lat="45.197107996791601" lon="5.698353974148631">
        <ele>219.80000305175781</ele>
        <time>2014-05-19T07:02:42Z</time>
      </trkpt>
      <trkpt lat="45.196734750643373" lon="5.698797963559628">
        <ele>219.80000305175781</ele>
        <time>2014-05-19T07:02:50Z</time>
      </trkpt>
      <trkpt lat="45.196338705718517" lon="5.699209682643414">
        <ele>220</ele>
        <time>2014-05-19T07:02:58Z</time>
      </trkpt>
      <trkpt lat="45.195864960551262" lon="5.699588377028704">
        <ele>220</ele>
        <time>2014-05-19T07:03:07Z</time>
      </trkpt>
      <trkpt lat="45.195641415193677" lon="5.699735814705491">
        <ele>220.19999694824219</ele>
        <time>2014-05-19T07:03:11Z</time>
      </trkpt>
      <trkpt lat="45.195471849292517" lon="5.699837738648057">
        <ele>220.19999694824219</ele>
        <time>2014-05-19T07:03:14Z</time>
      </trkpt>
      <trkpt lat="45.195020232349634" lon="5.700057847425342">
        <ele>220.19999694824219</ele>
        <time>2014-05-19T07:03:22Z</time>
      </trkpt>
      <trkpt lat="45.19450499676168" lon="5.70022489875555">
        <ele>220.60000610351562</ele>
        <time>2014-05-19T07:03:31Z</time>
      </trkpt>
      <trkpt lat="45.194164188578725" lon="5.70030796341598">
        <ele>221.19999694824219</ele>
        <time>2014-05-19T07:03:37Z</time>
      </trkpt>
      <trkpt lat="45.193990096449852" lon="5.700352303683758">
        <ele>221.19999694824219</ele>
        <time>2014-05-19T07:03:40Z</time>
      </trkpt>
      <trkpt lat="45.193602349609137" lon="5.700436541810632">
        <ele>221.60000610351562</ele>
        <time>2014-05-19T07:03:47Z</time>
      </trkpt>
      <trkpt lat="45.193063896149397" lon="5.700555983930826">
        <ele>222</ele>
        <time>2014-05-19T07:03:57Z</time>
      </trkpt>
      <trkpt lat="45.193011006340384" lon="5.700568724423647">
        <ele>222.19999694824219</ele>
        <time>2014-05-19T07:03:58Z</time>
      </trkpt>
      <trkpt lat="45.19290816038847" lon="5.700590517371893">
        <ele>222.19999694824219</ele>
        <time>2014-05-19T07:04:00Z</time>
      </trkpt>
      <trkpt lat="45.192763153463602" lon="5.700616920366883">
        <ele>222.60000610351562</ele>
        <time>2014-05-19T07:04:03Z</time>
      </trkpt>
      <trkpt lat="45.19260766915977" lon="5.70063728839159">
        <ele>223.39999389648437</ele>
        <time>2014-05-19T07:04:07Z</time>
      </trkpt>
      <trkpt lat="45.192540278658271" lon="5.700639383867383">
        <ele>223.60000610351562</ele>
        <time>2014-05-19T07:04:09Z</time>
      </trkpt>
      <trkpt lat="45.192471379414201" lon="5.70066218264401">
        <ele>224</ele>
        <time>2014-05-19T07:04:44Z</time>
      </trkpt>
      <trkpt lat="45.192434666678309" lon="5.700678359717131">
        <ele>223.80000305175781</ele>
        <time>2014-05-19T07:04:46Z</time>
      </trkpt>
      <trkpt lat="45.19230960868299" lon="5.700658243149519">
        <ele>224</ele>
        <time>2014-05-19T07:04:51Z</time>
      </trkpt>
      <trkpt lat="45.192269710823894" lon="5.700552547350526">
        <ele>223.60000610351562</ele>
        <time>2014-05-19T07:04:55Z</time>
      </trkpt>
      <trkpt lat="45.192159153521061" lon="5.700530586764216">
        <ele>222.80000305175781</ele>
        <time>2014-05-19T07:04:58Z</time>
      </trkpt>
      <trkpt lat="45.19206527620554" lon="5.700521282851696">
        <ele>222.39999389648437</ele>
        <time>2014-05-19T07:05:00Z</time>
      </trkpt>
      <trkpt lat="45.19196804612875" lon="5.700511727482081">
        <ele>222</ele>
        <time>2014-05-19T07:05:02Z</time>
      </trkpt>
      <trkpt lat="45.191914737224579" lon="5.700510973110795">
        <ele>221.60000610351562</ele>
        <time>2014-05-19T07:05:03Z</time>
      </trkpt>
      <trkpt lat="45.191859165206552" lon="5.700511476024985">
        <ele>221</ele>
        <time>2014-05-19T07:05:04Z</time>
      </trkpt>
      <trkpt lat="45.191801330074668" lon="5.700506949797273">
        <ele>220.60000610351562</ele>
        <time>2014-05-19T07:05:05Z</time>
      </trkpt>
      <trkpt lat="45.191676523536444" lon="5.700498064979911">
        <ele>220.19999694824219</ele>
        <time>2014-05-19T07:05:07Z</time>
      </trkpt>
      <trkpt lat="45.191610222682357" lon="5.700491527095437">
        <ele>219.80000305175781</ele>
        <time>2014-05-19T07:05:08Z</time>
      </trkpt>
      <trkpt lat="45.191480806097388" lon="5.70046428591013">
        <ele>218.80000305175781</ele>
        <time>2014-05-19T07:05:10Z</time>
      </trkpt>
      <trkpt lat="45.191422300413251" lon="5.700450288131833">
        <ele>218.60000610351562</ele>
        <time>2014-05-19T07:05:11Z</time>
      </trkpt>
      <trkpt lat="45.191366644576192" lon="5.7004398945719">
        <ele>218.60000610351562</ele>
        <time>2014-05-19T07:05:12Z</time>
      </trkpt>
      <trkpt lat="45.191240077838302" lon="5.700413910672069">
        <ele>219.19999694824219</ele>
        <time>2014-05-19T07:05:15Z</time>
      </trkpt>
      <trkpt lat="45.191081995144486" lon="5.700433356687427">
        <ele>219.19999694824219</ele>
        <time>2014-05-19T07:05:19Z</time>
      </trkpt>
      <trkpt lat="45.190995326265693" lon="5.700449030846357">
        <ele>219</ele>
        <time>2014-05-19T07:05:21Z</time>
      </trkpt>
      <trkpt lat="45.19071620889008" lon="5.700450036674738">
        <ele>219.60000610351562</ele>
        <time>2014-05-19T07:05:27Z</time>
      </trkpt>
      <trkpt lat="45.190671365708113" lon="5.700455317273736">
        <ele>219.80000305175781</ele>
        <time>2014-05-19T07:05:28Z</time>
      </trkpt>
      <trkpt lat="45.19062727689743" lon="5.700456071645021">
        <ele>220</ele>
        <time>2014-05-19T07:05:29Z</time>
      </trkpt>
      <trkpt lat="45.190448742359877" lon="5.700461771339178">
        <ele>220.60000610351562</ele>
        <time>2014-05-19T07:05:33Z</time>
      </trkpt>
      <trkpt lat="45.190359391272068" lon="5.700460011139512">
        <ele>221</ele>
        <time>2014-05-19T07:05:35Z</time>
      </trkpt>
      <trkpt lat="45.190054122358561" lon="5.700473170727491">
        <ele>221.80000305175781</ele>
        <time>2014-05-19T07:05:42Z</time>
      </trkpt>
      <trkpt lat="45.189967956393957" lon="5.700468476861715">
        <ele>222</ele>
        <time>2014-05-19T07:05:44Z</time>
      </trkpt>
      <trkpt lat="45.189922358840704" lon="5.700469482690096">
        <ele>222.19999694824219</ele>
        <time>2014-05-19T07:05:45Z</time>
      </trkpt>
      <trkpt lat="45.189785398542881" lon="5.700506279245019">
        <ele>222.60000610351562</ele>
        <time>2014-05-19T07:05:48Z</time>
      </trkpt>
      <trkpt lat="45.18959236331284" lon="5.700580375269055">
        <ele>222.60000610351562</ele>
        <time>2014-05-19T07:05:53Z</time>
      </trkpt>
      <trkpt lat="45.189496809616685" lon="5.700575094670057">
        <ele>222.60000610351562</ele>
        <time>2014-05-19T07:05:55Z</time>
      </trkpt>
      <trkpt lat="45.189342917874455" lon="5.700568221509457">
        <ele>222.39999389648437</ele>
        <time>2014-05-19T07:05:58Z</time>
      </trkpt>
      <trkpt lat="45.189166478812695" lon="5.700563443824649">
        <ele>222.39999389648437</ele>
        <time>2014-05-19T07:06:02Z</time>
      </trkpt>
      <trkpt lat="45.189130688086152" lon="5.700560845434666">
        <ele>222.80000305175781</ele>
        <time>2014-05-19T07:06:03Z</time>
      </trkpt>
      <trkpt lat="45.189061621204019" lon="5.700561767444015">
        <ele>223.60000610351562</ele>
        <time>2014-05-19T07:06:05Z</time>
      </trkpt>
      <trkpt lat="45.188934300094843" lon="5.700550535693765">
        <ele>223</ele>
        <time>2014-05-19T07:06:09Z</time>
      </trkpt>
      <trkpt lat="45.188816701993346" lon="5.700541650876403">
        <ele>223.19999694824219</ele>
        <time>2014-05-19T07:06:12Z</time>
      </trkpt>
      <trkpt lat="45.18870304338634" lon="5.700521618127823">
        <ele>223</ele>
        <time>2014-05-19T07:06:15Z</time>
      </trkpt>
      <trkpt lat="45.18850564956665" lon="5.700507368892431">
        <ele>223.60000610351562</ele>
        <time>2014-05-19T07:06:21Z</time>
      </trkpt>
      <trkpt lat="45.188313536345959" lon="5.700497562065721">
        <ele>223.80000305175781</ele>
        <time>2014-05-19T07:06:26Z</time>
      </trkpt>
      <trkpt lat="45.188271543011069" lon="5.700494712218642">
        <ele>223.60000610351562</ele>
        <time>2014-05-19T07:06:27Z</time>
      </trkpt>
      <trkpt lat="45.187952360138297" lon="5.700472919270396">
        <ele>223.80000305175781</ele>
        <time>2014-05-19T07:06:34Z</time>
      </trkpt>
      <trkpt lat="45.187715487554669" lon="5.700452970340848">
        <ele>224</ele>
        <time>2014-05-19T07:06:39Z</time>
      </trkpt>
      <trkpt lat="45.187622029334307" lon="5.700447857379913">
        <ele>223.80000305175781</ele>
        <time>2014-05-19T07:06:41Z</time>
      </trkpt>
      <trkpt lat="45.187483644112945" lon="5.700456071645021">
        <ele>223.80000305175781</ele>
        <time>2014-05-19T07:06:45Z</time>
      </trkpt>
      <trkpt lat="45.187300080433488" lon="5.70043352432549">
        <ele>223.80000305175781</ele>
        <time>2014-05-19T07:06:50Z</time>
      </trkpt>
      <trkpt lat="45.186995649710298" lon="5.700390273705125">
        <ele>224.19999694824219</ele>
        <time>2014-05-19T07:06:57Z</time>
      </trkpt>
      <trkpt lat="45.186768248677254" lon="5.700373761355877">
        <ele>224</ele>
        <time>2014-05-19T07:07:02Z</time>
      </trkpt>
      <trkpt lat="45.186727093532681" lon="5.700372504070401">
        <ele>224</ele>
        <time>2014-05-19T07:07:03Z</time>
      </trkpt>
      <trkpt lat="45.186646291986108" lon="5.70037242025137">
        <ele>224.19999694824219</ele>
        <time>2014-05-19T07:07:05Z</time>
      </trkpt>
      <trkpt lat="45.186498686671257" lon="5.700353980064392">
        <ele>224</ele>
        <time>2014-05-19T07:07:09Z</time>
      </trkpt>
      <trkpt lat="45.186347309499979" lon="5.700397314503789">
        <ele>224.60000610351562</ele>
        <time>2014-05-19T07:07:13Z</time>
      </trkpt>
      <trkpt lat="45.186053775250912" lon="5.700423801317811">
        <ele>224.39999389648437</ele>
        <time>2014-05-19T07:07:20Z</time>
      </trkpt>
      <trkpt lat="45.185630321502686" lon="5.700383316725493">
        <ele>224.60000610351562</ele>
        <time>2014-05-19T07:07:29Z</time>
      </trkpt>
      <trkpt lat="45.185377607122064" lon="5.700363200157881">
        <ele>224.60000610351562</ele>
        <time>2014-05-19T07:07:34Z</time>
      </trkpt>
      <trkpt lat="45.185325220227242" lon="5.700363032519817">
        <ele>224.39999389648437</ele>
        <time>2014-05-19T07:07:35Z</time>
      </trkpt>
      <trkpt lat="45.1851736754179" lon="5.700359009206295">
        <ele>224.39999389648437</ele>
        <time>2014-05-19T07:07:38Z</time>
      </trkpt>
      <trkpt lat="45.185077534988523" lon="5.700338808819652">
        <ele>224.39999389648437</ele>
        <time>2014-05-19T07:07:40Z</time>
      </trkpt>
      <trkpt lat="45.184751311317086" lon="5.700314836576581">
        <ele>224.19999694824219</ele>
        <time>2014-05-19T07:07:46Z</time>
      </trkpt>
      <trkpt lat="45.184324756264687" lon="5.700290948152542">
        <ele>224.60000610351562</ele>
        <time>2014-05-19T07:07:54Z</time>
      </trkpt>
      <trkpt lat="45.183939775452018" lon="5.700294217094779">
        <ele>225</ele>
        <time>2014-05-19T07:08:01Z</time>
      </trkpt>
      <trkpt lat="45.18353920429945" lon="5.700293378904462">
        <ele>225</ele>
        <time>2014-05-19T07:08:08Z</time>
      </trkpt>
      <trkpt lat="45.183254722505808" lon="5.700295977294445">
        <ele>225</ele>
        <time>2014-05-19T07:08:13Z</time>
      </trkpt>
      <trkpt lat="45.182879380881786" lon="5.700275944545865">
        <ele>225.19999694824219</ele>
        <time>2014-05-19T07:08:20Z</time>
      </trkpt>
      <trkpt lat="45.182711658999324" lon="5.700262533500791">
        <ele>225.19999694824219</ele>
        <time>2014-05-19T07:08:23Z</time>
      </trkpt>
      <trkpt lat="45.182604203000665" lon="5.700252307578921">
        <ele>225.39999389648437</ele>
        <time>2014-05-19T07:08:25Z</time>
      </trkpt>
      <trkpt lat="45.18254678696394" lon="5.700252559036017">
        <ele>225.39999389648437</ele>
        <time>2014-05-19T07:08:26Z</time>
      </trkpt>
      <trkpt lat="45.18207480199635" lon="5.700260940939188">
        <ele>225.39999389648437</ele>
        <time>2014-05-19T07:08:34Z</time>
      </trkpt>
      <trkpt lat="45.181672805920243" lon="5.700249206274748">
        <ele>225.39999389648437</ele>
        <time>2014-05-19T07:08:41Z</time>
      </trkpt>
      <trkpt lat="45.181503491476178" lon="5.70024099200964">
        <ele>225.60000610351562</ele>
        <time>2014-05-19T07:08:44Z</time>
      </trkpt>
      <trkpt lat="45.181281287223101" lon="5.700240824371576">
        <ele>225.80000305175781</ele>
        <time>2014-05-19T07:08:48Z</time>
      </trkpt>
      <trkpt lat="45.181003846228123" lon="5.700231101363897">
        <ele>226.19999694824219</ele>
        <time>2014-05-19T07:08:53Z</time>
      </trkpt>
      <trkpt lat="45.180430775508285" lon="5.700224228203297">
        <ele>226.19999694824219</ele>
        <time>2014-05-19T07:09:03Z</time>
      </trkpt>
      <trkpt lat="45.180007824674249" lon="5.700235879048705">
        <ele>226.39999389648437</ele>
        <time>2014-05-19T07:09:10Z</time>
      </trkpt>
      <trkpt lat="45.179647402837873" lon="5.700214756652713">
        <ele>226.39999389648437</ele>
        <time>2014-05-19T07:09:17Z</time>
      </trkpt>
      <trkpt lat="45.17943324521184" lon="5.700205704197288">
        <ele>226.60000610351562</ele>
        <time>2014-05-19T07:09:21Z</time>
      </trkpt>
      <trkpt lat="45.179164605215192" lon="5.700202351436019">
        <ele>226.80000305175781</ele>
        <time>2014-05-19T07:09:26Z</time>
      </trkpt>
      <trkpt lat="45.178951285779476" lon="5.700200172141194">
        <ele>226.80000305175781</ele>
        <time>2014-05-19T07:09:30Z</time>
      </trkpt>
      <trkpt lat="45.178847266361117" lon="5.700198076665402">
        <ele>226.80000305175781</ele>
        <time>2014-05-19T07:09:32Z</time>
      </trkpt>
      <trkpt lat="45.178420962765813" lon="5.700191454961896">
        <ele>227</ele>
        <time>2014-05-19T07:09:40Z</time>
      </trkpt>
      <trkpt lat="45.178055847063661" lon="5.70018139667809">
        <ele>227.19999694824219</ele>
        <time>2014-05-19T07:09:47Z</time>
      </trkpt>
      <trkpt lat="45.177629208192229" lon="5.700172176584601">
        <ele>227.39999389648437</ele>
        <time>2014-05-19T07:09:55Z</time>
      </trkpt>
      <trkpt lat="45.177086060866714" lon="5.700161531567574">
        <ele>227.60000610351562</ele>
        <time>2014-05-19T07:10:05Z</time>
      </trkpt>
      <trkpt lat="45.177032332867384" lon="5.700161196291447">
        <ele>227.80000305175781</ele>
        <time>2014-05-19T07:10:06Z</time>
      </trkpt>
      <trkpt lat="45.176708623766899" lon="5.700143426656723">
        <ele>228</ele>
        <time>2014-05-19T07:10:12Z</time>
      </trkpt>
      <trkpt lat="45.176327330991626" lon="5.700128842145205">
        <ele>227.60000610351562</ele>
        <time>2014-05-19T07:10:19Z</time>
      </trkpt>
      <trkpt lat="45.176269914954901" lon="5.700130015611649">
        <ele>227.60000610351562</ele>
        <time>2014-05-19T07:10:20Z</time>
      </trkpt>
      <trkpt lat="45.175878647714853" lon="5.70011836476624">
        <ele>227.80000305175781</ele>
        <time>2014-05-19T07:10:27Z</time>
      </trkpt>
      <trkpt lat="45.175495175644755" lon="5.700108474120498">
        <ele>227.80000305175781</ele>
        <time>2014-05-19T07:10:34Z</time>
      </trkpt>
      <trkpt lat="45.174944903701544" lon="5.700094141066074">
        <ele>228.19999694824219</ele>
        <time>2014-05-19T07:10:44Z</time>
      </trkpt>
      <trkpt lat="45.17448591068387" lon="5.700082574039698">
        <ele>228.39999389648437</ele>
        <time>2014-05-19T07:10:52Z</time>
      </trkpt>
      <trkpt lat="45.174008058384061" lon="5.700080478563905">
        <ele>228.39999389648437</ele>
        <time>2014-05-19T07:11:00Z</time>
      </trkpt>
      <trkpt lat="45.173710668459535" lon="5.700063295662403">
        <ele>228.80000305175781</ele>
        <time>2014-05-19T07:11:05Z</time>
      </trkpt>
      <trkpt lat="45.173651659861207" lon="5.700062122195959">
        <ele>228.60000610351562</ele>
        <time>2014-05-19T07:11:06Z</time>
      </trkpt>
      <trkpt lat="45.173170538619161" lon="5.700055249035358">
        <ele>228.60000610351562</ele>
        <time>2014-05-19T07:11:14Z</time>
      </trkpt>
      <trkpt lat="45.172746414318681" lon="5.700050303712487">
        <ele>228.39999389648437</ele>
        <time>2014-05-19T07:11:21Z</time>
      </trkpt>
      <trkpt lat="45.172335281968117" lon="5.700039239600301">
        <ele>228.80000305175781</ele>
        <time>2014-05-19T07:11:28Z</time>
      </trkpt>
      <trkpt lat="45.171997072175145" lon="5.700030187144876">
        <ele>229.19999694824219</ele>
        <time>2014-05-19T07:11:34Z</time>
      </trkpt>
      <trkpt lat="45.171649307012558" lon="5.700024655088782">
        <ele>229.19999694824219</ele>
        <time>2014-05-19T07:11:40Z</time>
      </trkpt>
      <trkpt lat="45.171304978430271" lon="5.700018284842372">
        <ele>229.39999389648437</ele>
        <time>2014-05-19T07:11:46Z</time>
      </trkpt>
      <trkpt lat="45.170900048688054" lon="5.700006382539868">
        <ele>229.60000610351562</ele>
        <time>2014-05-19T07:11:53Z</time>
      </trkpt>
      <trkpt lat="45.170380705967546" lon="5.700001018121839">
        <ele>229.60000610351562</ele>
        <time>2014-05-19T07:12:02Z</time>
      </trkpt>
      <trkpt lat="45.170152802020311" lon="5.699992803856731">
        <ele>229.80000305175781</ele>
        <time>2014-05-19T07:12:06Z</time>
      </trkpt>
      <trkpt lat="45.169988432899117" lon="5.699986182153225">
        <ele>229.60000610351562</ele>
        <time>2014-05-19T07:12:09Z</time>
      </trkpt>
      <trkpt lat="45.169527595862746" lon="5.699962545186281">
        <ele>230</ele>
        <time>2014-05-19T07:12:17Z</time>
      </trkpt>
      <trkpt lat="45.169114116579294" lon="5.699959443882108">
        <ele>230</ele>
        <time>2014-05-19T07:12:24Z</time>
      </trkpt>
      <trkpt lat="45.168656380847096" lon="5.699947709217668">
        <ele>230.19999694824219</ele>
        <time>2014-05-19T07:12:32Z</time>
      </trkpt>
      <trkpt lat="45.168369552120566" lon="5.699945949018002">
        <ele>230.19999694824219</ele>
        <time>2014-05-19T07:12:37Z</time>
      </trkpt>
      <trkpt lat="45.168197387829423" lon="5.699937148019671">
        <ele>230.60000610351562</ele>
        <time>2014-05-19T07:12:40Z</time>
      </trkpt>
      <trkpt lat="45.167793883010745" lon="5.699932537972927">
        <ele>230.19999694824219</ele>
        <time>2014-05-19T07:12:47Z</time>
      </trkpt>
      <trkpt lat="45.167393060401082" lon="5.699902111664414">
        <ele>230.60000610351562</ele>
        <time>2014-05-19T07:12:54Z</time>
      </trkpt>
      <trkpt lat="45.166984861716628" lon="5.699894735589624">
        <ele>230.39999389648437</ele>
        <time>2014-05-19T07:13:01Z</time>
      </trkpt>
      <trkpt lat="45.16681638546288" lon="5.699890209361911">
        <ele>230.80000305175781</ele>
        <time>2014-05-19T07:13:04Z</time>
      </trkpt>
      <trkpt lat="45.166703229770064" lon="5.699883252382278">
        <ele>230.80000305175781</ele>
        <time>2014-05-19T07:13:06Z</time>
      </trkpt>
      <trkpt lat="45.166647406294942" lon="5.699882917106152">
        <ele>230.80000305175781</ele>
        <time>2014-05-19T07:13:07Z</time>
      </trkpt>
      <trkpt lat="45.166247924789786" lon="5.699853831902146">
        <ele>230.80000305175781</ele>
        <time>2014-05-19T07:13:14Z</time>
      </trkpt>
      <trkpt lat="45.166188413277268" lon="5.699851904064417">
        <ele>230.60000610351562</ele>
        <time>2014-05-19T07:13:15Z</time>
      </trkpt>
      <trkpt lat="45.165911223739386" lon="5.699856849387288">
        <ele>230.80000305175781</ele>
        <time>2014-05-19T07:13:20Z</time>
      </trkpt>
      <trkpt lat="45.165517777204514" lon="5.69985693320632">
        <ele>231</ele>
        <time>2014-05-19T07:13:27Z</time>
      </trkpt>
      <trkpt lat="45.165010169148445" lon="5.699860956519842">
        <ele>231.19999694824219</ele>
        <time>2014-05-19T07:13:36Z</time>
      </trkpt>
      <trkpt lat="45.164585374295712" lon="5.699862884357572">
        <ele>231.39999389648437</ele>
        <time>2014-05-19T07:13:44Z</time>
      </trkpt>
      <trkpt lat="45.16415186226368" lon="5.699879648163915">
        <ele>231.39999389648437</ele>
        <time>2014-05-19T07:13:52Z</time>
      </trkpt>
      <trkpt lat="45.163824968039989" lon="5.699813012033701">
        <ele>231.60000610351562</ele>
        <time>2014-05-19T07:13:58Z</time>
      </trkpt>
      <trkpt lat="45.163440657779574" lon="5.699735814705491">
        <ele>231.39999389648437</ele>
        <time>2014-05-19T07:14:05Z</time>
      </trkpt>
      <trkpt lat="45.163167994469404" lon="5.69967714138329">
        <ele>231.80000305175781</ele>
        <time>2014-05-19T07:14:10Z</time>
      </trkpt>
      <trkpt lat="45.163009995594621" lon="5.699637411162257">
        <ele>231.80000305175781</ele>
        <time>2014-05-19T07:14:13Z</time>
      </trkpt>
      <trkpt lat="45.162958027794957" lon="5.699620312079787">
        <ele>231.80000305175781</ele>
        <time>2014-05-19T07:14:14Z</time>
      </trkpt>
      <trkpt lat="45.162689723074436" lon="5.699539929628372">
        <ele>231.60000610351562</ele>
        <time>2014-05-19T07:14:19Z</time>
      </trkpt>
      <trkpt lat="45.162189910188317" lon="5.699436999857426">
        <ele>231.80000305175781</ele>
        <time>2014-05-19T07:14:28Z</time>
      </trkpt>
      <trkpt lat="45.161814400926232" lon="5.699343709275127">
        <ele>232</ele>
        <time>2014-05-19T07:14:35Z</time>
      </trkpt>
      <trkpt lat="45.161445932462811" lon="5.699237678200007">
        <ele>232</ele>
        <time>2014-05-19T07:14:41Z</time>
      </trkpt>
      <trkpt lat="45.161394132301211" lon="5.699224686250091">
        <ele>232</ele>
        <time>2014-05-19T07:14:43Z</time>
      </trkpt>
      <trkpt lat="45.161340152844787" lon="5.699211191385984">
        <ele>232.19999694824219</ele>
        <time>2014-05-19T07:14:44Z</time>
      </trkpt>
      <trkpt lat="45.160981491208076" lon="5.699121840298176">
        <ele>232.39999389648437</ele>
        <time>2014-05-19T07:14:51Z</time>
      </trkpt>
      <trkpt lat="45.160691561177373" lon="5.699070291593671">
        <ele>232.80000305175781</ele>
        <time>2014-05-19T07:14:57Z</time>
      </trkpt>
      <trkpt lat="45.1606469694525" lon="5.699064927175641">
        <ele>233</ele>
        <time>2014-05-19T07:14:58Z</time>
      </trkpt>
      <trkpt lat="45.160371288657188" lon="5.698995189741254">
        <ele>233.19999694824219</ele>
        <time>2014-05-19T07:15:05Z</time>
      </trkpt>
      <trkpt lat="45.160299707204103" lon="5.698981946334243">
        <ele>233.39999389648437</ele>
        <time>2014-05-19T07:15:07Z</time>
      </trkpt>
      <trkpt lat="45.160240782424808" lon="5.698984544724226">
        <ele>233.60000610351562</ele>
        <time>2014-05-19T07:15:09Z</time>
      </trkpt>
      <trkpt lat="45.160214714705944" lon="5.699004745110869">
        <ele>233.60000610351562</ele>
        <time>2014-05-19T07:15:11Z</time>
      </trkpt>
      <trkpt lat="45.160204488784075" lon="5.699020754545927">
        <ele>233.60000610351562</ele>
        <time>2014-05-19T07:15:12Z</time>
      </trkpt>
      <trkpt lat="45.160170961171389" lon="5.699160564690828">
        <ele>233.39999389648437</ele>
        <time>2014-05-19T07:15:16Z</time>
      </trkpt>
      <trkpt lat="45.160113126039505" lon="5.69944060407579">
        <ele>233.19999694824219</ele>
        <time>2014-05-19T07:15:22Z</time>
      </trkpt>
      <trkpt lat="45.160060655325651" lon="5.699746543541551">
        <ele>232.60000610351562</ele>
        <time>2014-05-19T07:15:28Z</time>
      </trkpt>
      <trkpt lat="45.160038024187088" lon="5.699859783053398">
        <ele>232.19999694824219</ele>
        <time>2014-05-19T07:15:30Z</time>
      </trkpt>
      <trkpt lat="45.160005167126656" lon="5.700036054477096">
        <ele>231.60000610351562</ele>
        <time>2014-05-19T07:15:33Z</time>
      </trkpt>
      <trkpt lat="45.159967448562384" lon="5.700136385858059">
        <ele>231.60000610351562</ele>
        <time>2014-05-19T07:15:36Z</time>
      </trkpt>
      <trkpt lat="45.159944985061884" lon="5.700154826045036">
        <ele>231.60000610351562</ele>
        <time>2014-05-19T07:15:37Z</time>
      </trkpt>
      <trkpt lat="45.159798469394445" lon="5.700209643691778">
        <ele>231.39999389648437</ele>
        <time>2014-05-19T07:15:41Z</time>
      </trkpt>
      <trkpt lat="45.159756392240524" lon="5.700209140777588">
        <ele>231.19999694824219</ele>
        <time>2014-05-19T07:15:42Z</time>
      </trkpt>
      <trkpt lat="45.159566458314657" lon="5.700159603729844">
        <ele>230.39999389648437</ele>
        <time>2014-05-19T07:15:46Z</time>
      </trkpt>
      <trkpt lat="45.159462941810489" lon="5.700120879337192">
        <ele>229.80000305175781</ele>
        <time>2014-05-19T07:15:48Z</time>
      </trkpt>
      <trkpt lat="45.159300500527024" lon="5.700054662302136">
        <ele>229.39999389648437</ele>
        <time>2014-05-19T07:15:51Z</time>
      </trkpt>
      <trkpt lat="45.159033620730042" lon="5.699952151626349">
        <ele>229.19999694824219</ele>
        <time>2014-05-19T07:15:56Z</time>
      </trkpt>
      <trkpt lat="45.158886099234223" lon="5.699891801923513">
        <ele>229.39999389648437</ele>
        <time>2014-05-19T07:15:59Z</time>
      </trkpt>
      <trkpt lat="45.158846117556095" lon="5.699880653992295">
        <ele>229.80000305175781</ele>
        <time>2014-05-19T07:16:00Z</time>
      </trkpt>
      <trkpt lat="45.158788533881307" lon="5.699866823852062">
        <ele>230.60000610351562</ele>
        <time>2014-05-19T07:16:02Z</time>
      </trkpt>
      <trkpt lat="45.158709408715367" lon="5.699842516332865">
        <ele>231.60000610351562</ele>
        <time>2014-05-19T07:16:05Z</time>
      </trkpt>
      <trkpt lat="45.158531544730067" lon="5.699760122224689">
        <ele>230.80000305175781</ele>
        <time>2014-05-19T07:16:10Z</time>
      </trkpt>
      <trkpt lat="45.158238932490349" lon="5.699662389233708">
        <ele>229.80000305175781</ele>
        <time>2014-05-19T07:16:16Z</time>
      </trkpt>
      <trkpt lat="45.157948331907392" lon="5.699651157483459">
        <ele>230.39999389648437</ele>
        <time>2014-05-19T07:16:22Z</time>
      </trkpt>
      <trkpt lat="45.157869039103389" lon="5.699676387012005">
        <ele>231</ele>
        <time>2014-05-19T07:16:24Z</time>
      </trkpt>
      <trkpt lat="45.157727636396885" lon="5.699774120002985">
        <ele>232</ele>
        <time>2014-05-19T07:16:28Z</time>
      </trkpt>
      <trkpt lat="45.157646834850311" lon="5.699865063652396">
        <ele>232.39999389648437</ele>
        <time>2014-05-19T07:16:31Z</time>
      </trkpt>
      <trkpt lat="45.157554885372519" lon="5.699978889897466">
        <ele>233</ele>
        <time>2014-05-19T07:16:35Z</time>
      </trkpt>
      <trkpt lat="45.157502414658666" lon="5.70002599619329">
        <ele>233</ele>
        <time>2014-05-19T07:16:37Z</time>
      </trkpt>
      <trkpt lat="45.157469976693392" lon="5.700032534077764">
        <ele>233</ele>
        <time>2014-05-19T07:16:38Z</time>
      </trkpt>
      <trkpt lat="45.157407112419605" lon="5.700007975101471">
        <ele>233</ele>
        <time>2014-05-19T07:16:40Z</time>
      </trkpt>
      <trkpt lat="45.157335279509425" lon="5.699960952624679">
        <ele>233.19999694824219</ele>
        <time>2014-05-19T07:17:16Z</time>
      </trkpt>
      <trkpt lat="45.157289849594235" lon="5.69994050078094">
        <ele>233.19999694824219</ele>
        <time>2014-05-19T07:17:19Z</time>
      </trkpt>
      <trkpt lat="45.157229835167527" lon="5.699896411970258">
        <ele>233.39999389648437</ele>
        <time>2014-05-19T07:17:24Z</time>
      </trkpt>
      <trkpt lat="45.157214244827628" lon="5.699872942641377">
        <ele>233.39999389648437</ele>
        <time>2014-05-19T07:17:26Z</time>
      </trkpt>
      <trkpt lat="45.157156158238649" lon="5.699816197156906">
        <ele>233.19999694824219</ele>
        <time>2014-05-19T07:17:31Z</time>
      </trkpt>
      <trkpt lat="45.156972762197256" lon="5.699692815542221">
        <ele>233.39999389648437</ele>
        <time>2014-05-19T07:17:37Z</time>
      </trkpt>
      <trkpt lat="45.156684005632997" lon="5.699521070346236">
        <ele>233.19999694824219</ele>
        <time>2014-05-19T07:17:45Z</time>
      </trkpt>
      <trkpt lat="45.156603874638677" lon="5.699476897716522">
        <ele>233.19999694824219</ele>
        <time>2014-05-19T07:17:47Z</time>
      </trkpt>
      <trkpt lat="45.156389297917485" lon="5.699373548850417">
        <ele>233.19999694824219</ele>
        <time>2014-05-19T07:17:52Z</time>
      </trkpt>
      <trkpt lat="45.155988559126854" lon="5.699170036241412">
        <ele>233.39999389648437</ele>
        <time>2014-05-19T07:18:01Z</time>
      </trkpt>
      <trkpt lat="45.155506348237395" lon="5.698915729299188">
        <ele>233.39999389648437</ele>
        <time>2014-05-19T07:18:11Z</time>
      </trkpt>
      <trkpt lat="45.155132850632071" lon="5.698729567229748">
        <ele>234</ele>
        <time>2014-05-19T07:18:19Z</time>
      </trkpt>
      <trkpt lat="45.154829006642103" lon="5.698551367968321">
        <ele>234.39999389648437</ele>
        <time>2014-05-19T07:18:26Z</time>
      </trkpt>
      <trkpt lat="45.154796903952956" lon="5.69850392639637">
        <ele>234.39999389648437</ele>
        <time>2014-05-19T07:18:27Z</time>
      </trkpt>
      <trkpt lat="45.154790868982673" lon="5.698370067402721">
        <ele>234.39999389648437</ele>
        <time>2014-05-19T07:18:29Z</time>
      </trkpt>
      <trkpt lat="45.154767651110888" lon="5.698098661378026">
        <ele>233.19999694824219</ele>
        <time>2014-05-19T07:18:33Z</time>
      </trkpt>
      <trkpt lat="45.154724735766649" lon="5.698055913671851">
        <ele>233</ele>
        <time>2014-05-19T07:18:34Z</time>
      </trkpt>
      <trkpt lat="45.154679389670491" lon="5.698018111288548">
        <ele>232.80000305175781</ele>
        <time>2014-05-19T07:18:35Z</time>
      </trkpt>
      <trkpt lat="45.154591631144285" lon="5.697934124618769">
        <ele>233</ele>
        <time>2014-05-19T07:18:37Z</time>
      </trkpt>
      <trkpt lat="45.154543686658144" lon="5.697895735502243">
        <ele>232.80000305175781</ele>
        <time>2014-05-19T07:18:38Z</time>
      </trkpt>
      <trkpt lat="45.154356937855482" lon="5.69771183654666">
        <ele>233</ele>
        <time>2014-05-19T07:18:42Z</time>
      </trkpt>
      <trkpt lat="45.153992744162679" lon="5.697277067229152">
        <ele>232.80000305175781</ele>
        <time>2014-05-19T07:18:50Z</time>
      </trkpt>
      <trkpt lat="45.153696024790406" lon="5.696827545762062">
        <ele>232.60000610351562</ele>
        <time>2014-05-19T07:18:57Z</time>
      </trkpt>
      <trkpt lat="45.153593765571713" lon="5.696632917970419">
        <ele>232.80000305175781</ele>
        <time>2014-05-19T07:19:00Z</time>
      </trkpt>
      <trkpt lat="45.153571888804436" lon="5.696606934070587">
        <ele>233</ele>
        <time>2014-05-19T07:19:01Z</time>
      </trkpt>
      <trkpt lat="45.15353936702013" lon="5.696604335680604">
        <ele>234</ele>
        <time>2014-05-19T07:19:08Z</time>
      </trkpt>
      <trkpt lat="45.153432916849852" lon="5.696649346500635">
        <ele>232.60000610351562</ele>
        <time>2014-05-19T07:19:11Z</time>
      </trkpt>
      <trkpt lat="45.153389414772391" lon="5.696661416441202">
        <ele>232.19999694824219</ele>
        <time>2014-05-19T07:19:12Z</time>
      </trkpt>
      <trkpt lat="45.153348008170724" lon="5.696668541058898">
        <ele>231.80000305175781</ele>
        <time>2014-05-19T07:19:13Z</time>
      </trkpt>
      <trkpt lat="45.153140304610133" lon="5.696692178025842">
        <ele>232.60000610351562</ele>
        <time>2014-05-19T07:19:18Z</time>
      </trkpt>
      <trkpt lat="45.153092779219151" lon="5.696690501645207">
        <ele>232.39999389648437</ele>
        <time>2014-05-19T07:19:19Z</time>
      </trkpt>
      <trkpt lat="45.152944335713983" lon="5.696633672341704">
        <ele>232.19999694824219</ele>
        <time>2014-05-19T07:19:22Z</time>
      </trkpt>
      <trkpt lat="45.152481067925692" lon="5.696426220238209">
        <ele>232</ele>
        <time>2014-05-19T07:19:31Z</time>
      </trkpt>
      <trkpt lat="45.152231538668275" lon="5.696293450891972">
        <ele>232.39999389648437</ele>
        <time>2014-05-19T07:19:36Z</time>
      </trkpt>
      <trkpt lat="45.152185689657927" lon="5.696254223585129">
        <ele>232.39999389648437</ele>
        <time>2014-05-19T07:19:37Z</time>
      </trkpt>
      <trkpt lat="45.152064906433225" lon="5.696118017658591">
        <ele>232</ele>
        <time>2014-05-19T07:19:40Z</time>
      </trkpt>
      <trkpt lat="45.15200455673039" lon="5.695996563881636">
        <ele>232</ele>
        <time>2014-05-19T07:19:42Z</time>
      </trkpt>
      <trkpt lat="45.151955019682646" lon="5.695856669917703">
        <ele>232.39999389648437</ele>
        <time>2014-05-19T07:19:44Z</time>
      </trkpt>
      <trkpt lat="45.151820406317711" lon="5.695492224767804">
        <ele>232.19999694824219</ele>
        <time>2014-05-19T07:19:49Z</time>
      </trkpt>
      <trkpt lat="45.15171923674643" lon="5.695282509550452">
        <ele>233.19999694824219</ele>
        <time>2014-05-19T07:19:53Z</time>
      </trkpt>
      <trkpt lat="45.151591915637255" lon="5.695304470136762">
        <ele>233.19999694824219</ele>
        <time>2014-05-19T07:19:56Z</time>
      </trkpt>
      <trkpt lat="45.151547407731414" lon="5.695334477350116">
        <ele>233.19999694824219</ele>
        <time>2014-05-19T07:19:57Z</time>
      </trkpt>
      <trkpt lat="45.151244821026921" lon="5.695557771250606">
        <ele>233</ele>
        <time>2014-05-19T07:20:04Z</time>
      </trkpt>
      <trkpt lat="45.151013229042292" lon="5.6956288497895">
        <ele>233.60000610351562</ele>
        <time>2014-05-19T07:20:09Z</time>
      </trkpt>
      <trkpt lat="45.150967882946134" lon="5.695623317733407">
        <ele>233.60000610351562</ele>
        <time>2014-05-19T07:20:10Z</time>
      </trkpt>
      <trkpt lat="45.150736374780536" lon="5.695533799007535">
        <ele>233.80000305175781</ele>
        <time>2014-05-19T07:20:15Z</time>
      </trkpt>
      <trkpt lat="45.150592625141144" lon="5.695455260574818">
        <ele>233.39999389648437</ele>
        <time>2014-05-19T07:20:18Z</time>
      </trkpt>
      <trkpt lat="45.150525234639645" lon="5.695338919758797">
        <ele>233.39999389648437</ele>
        <time>2014-05-19T07:20:20Z</time>
      </trkpt>
      <trkpt lat="45.150389531627297" lon="5.695130797103047">
        <ele>233.19999694824219</ele>
        <time>2014-05-19T07:20:24Z</time>
      </trkpt>
      <trkpt lat="45.150236897170544" lon="5.695173628628254">
        <ele>233.39999389648437</ele>
        <time>2014-05-19T07:20:27Z</time>
      </trkpt>
      <trkpt lat="45.150023577734828" lon="5.695197097957134">
        <ele>233.60000610351562</ele>
        <time>2014-05-19T07:20:31Z</time>
      </trkpt>
      <trkpt lat="45.149921234697104" lon="5.695141777396202">
        <ele>233.60000610351562</ele>
        <time>2014-05-19T07:20:33Z</time>
      </trkpt>
      <trkpt lat="45.149827022105455" lon="5.695081762969494">
        <ele>233.39999389648437</ele>
        <time>2014-05-19T07:20:35Z</time>
      </trkpt>
      <trkpt lat="45.149784525856376" lon="5.695043373852968">
        <ele>233.39999389648437</ele>
        <time>2014-05-19T07:20:36Z</time>
      </trkpt>
      <trkpt lat="45.149695258587599" lon="5.694932145997882">
        <ele>233.80000305175781</ele>
        <time>2014-05-19T07:20:40Z</time>
      </trkpt>
      <trkpt lat="45.149681596085429" lon="5.694958968088031">
        <ele>234.60000610351562</ele>
        <time>2014-05-19T07:21:08Z</time>
      </trkpt>
      <trkpt lat="45.149678159505129" lon="5.694986376911402">
        <ele>234.60000610351562</ele>
        <time>2014-05-19T07:21:09Z</time>
      </trkpt>
      <trkpt lat="45.149693498387933" lon="5.69515585899353">
        <ele>234.19999694824219</ele>
        <time>2014-05-19T07:21:13Z</time>
      </trkpt>
      <trkpt lat="45.149784442037344" lon="5.695248395204544">
        <ele>234.19999694824219</ele>
        <time>2014-05-19T07:21:17Z</time>
      </trkpt>
      <trkpt lat="45.149838170036674" lon="5.695289969444275">
        <ele>234.39999389648437</ele>
        <time>2014-05-19T07:21:19Z</time>
      </trkpt>
      <trkpt lat="45.149967670440674" lon="5.69536255672574">
        <ele>234.19999694824219</ele>
        <time>2014-05-19T07:21:23Z</time>
      </trkpt>
      <trkpt lat="45.150031456723809" lon="5.695395413786173">
        <ele>234.39999389648437</ele>
        <time>2014-05-19T07:21:25Z</time>
      </trkpt>
      <trkpt lat="45.150131033733487" lon="5.695517621934414">
        <ele>234.39999389648437</ele>
        <time>2014-05-19T07:21:29Z</time>
      </trkpt>
      <trkpt lat="45.150177888572216" lon="5.695747872814536">
        <ele>233.80000305175781</ele>
        <time>2014-05-19T07:21:34Z</time>
      </trkpt>
      <trkpt lat="45.150165902450681" lon="5.695801936089993">
        <ele>233.80000305175781</ele>
        <time>2014-05-19T07:21:35Z</time>
      </trkpt>
      <trkpt lat="45.150125585496426" lon="5.695987679064274">
        <ele>233.39999389648437</ele>
        <time>2014-05-19T07:21:38Z</time>
      </trkpt>
      <trkpt lat="45.150106642395258" lon="5.696060433983803">
        <ele>233</ele>
        <time>2014-05-19T07:21:39Z</time>
      </trkpt>
      <trkpt lat="45.15008426271379" lon="5.696136625483632">
        <ele>232.80000305175781</ele>
        <time>2014-05-19T07:21:40Z</time>
      </trkpt>
      <trkpt lat="45.150020895525813" lon="5.696388250216842">
        <ele>232</ele>
        <time>2014-05-19T07:21:43Z</time>
      </trkpt>
      <trkpt lat="45.149964652955532" lon="5.696652783080936">
        <ele>231.60000610351562</ele>
        <time>2014-05-19T07:21:46Z</time>
      </trkpt>
      <trkpt lat="45.149869685992599" lon="5.69701848551631">
        <ele>232.80000305175781</ele>
        <time>2014-05-19T07:21:51Z</time>
      </trkpt>
      <trkpt lat="45.149857532233" lon="5.697076572105289">
        <ele>233.39999389648437</ele>
        <time>2014-05-19T07:21:52Z</time>
      </trkpt>
      <trkpt lat="45.149841774255037" lon="5.697173131629825">
        <ele>234.60000610351562</ele>
        <time>2014-05-19T07:21:54Z</time>
      </trkpt>
      <trkpt lat="45.149827189743519" lon="5.697208000347018">
        <ele>234.80000305175781</ele>
        <time>2014-05-19T07:21:55Z</time>
      </trkpt>
      <trkpt lat="45.149820484220982" lon="5.697218896821141">
        <ele>235</ele>
        <time>2014-05-19T07:21:56Z</time>
      </trkpt>
      <trkpt lat="45.149802044034004" lon="5.697255861014128">
        <ele>235.39999389648437</ele>
        <time>2014-05-19T07:21:58Z</time>
      </trkpt>
      <trkpt lat="45.149721661582589" lon="5.697401706129313">
        <ele>235.39999389648437</ele>
        <time>2014-05-19T07:22:03Z</time>
      </trkpt>
      <trkpt lat="45.149716129526496" lon="5.697447974234819">
        <ele>235.60000610351562</ele>
        <time>2014-05-19T07:22:04Z</time>
      </trkpt>
      <trkpt lat="45.149709759280086" lon="5.697500528767705">
        <ele>235.39999389648437</ele>
        <time>2014-05-19T07:22:05Z</time>
      </trkpt>
      <trkpt lat="45.149713112041354" lon="5.697641931474209">
        <ele>235.80000305175781</ele>
        <time>2014-05-19T07:22:08Z</time>
      </trkpt>
      <trkpt lat="45.149742616340518" lon="5.69786966778338">
        <ele>236</ele>
        <time>2014-05-19T07:22:13Z</time>
      </trkpt>
      <trkpt lat="45.149739515036345" lon="5.697915516793728">
        <ele>236</ele>
        <time>2014-05-19T07:22:14Z</time>
      </trkpt>
      <trkpt lat="45.149719649925828" lon="5.698163202032447">
        <ele>236.39999389648437</ele>
        <time>2014-05-19T07:22:19Z</time>
      </trkpt>
      <trkpt lat="45.149689223617315" lon="5.698384149000049">
        <ele>236.60000610351562</ele>
        <time>2014-05-19T07:22:23Z</time>
      </trkpt>
      <trkpt lat="45.149685451760888" lon="5.69844332523644">
        <ele>236.60000610351562</ele>
        <time>2014-05-19T07:22:24Z</time>
      </trkpt>
      <trkpt lat="45.149682182818651" lon="5.698503255844116">
        <ele>236.60000610351562</ele>
        <time>2014-05-19T07:22:25Z</time>
      </trkpt>
      <trkpt lat="45.149632813408971" lon="5.698915477842093">
        <ele>236.80000305175781</ele>
        <time>2014-05-19T07:22:32Z</time>
      </trkpt>
      <trkpt lat="45.149637423455715" lon="5.699079679325223">
        <ele>236.80000305175781</ele>
        <time>2014-05-19T07:22:35Z</time>
      </trkpt>
      <trkpt lat="45.149631723761559" lon="5.699137514457107">
        <ele>236.80000305175781</ele>
        <time>2014-05-19T07:22:36Z</time>
      </trkpt>
      <trkpt lat="45.149609846994281" lon="5.699303559958935">
        <ele>237</ele>
        <time>2014-05-19T07:22:39Z</time>
      </trkpt>
      <trkpt lat="45.149594843387604" lon="5.699366172775626">
        <ele>237</ele>
        <time>2014-05-19T07:22:40Z</time>
      </trkpt>
      <trkpt lat="45.149594508111477" lon="5.699417889118195">
        <ele>237</ele>
        <time>2014-05-19T07:22:41Z</time>
      </trkpt>
      <trkpt lat="45.149550084024668" lon="5.699670854955912">
        <ele>237.19999694824219</ele>
        <time>2014-05-19T07:22:45Z</time>
      </trkpt>
      <trkpt lat="45.149437515065074" lon="5.700079808011651">
        <ele>237.19999694824219</ele>
        <time>2014-05-19T07:22:52Z</time>
      </trkpt>
      <trkpt lat="45.149310864508152" lon="5.700239986181259">
        <ele>237.19999694824219</ele>
        <time>2014-05-19T07:22:56Z</time>
      </trkpt>
      <trkpt lat="45.149267949163914" lon="5.700386837124825">
        <ele>237.39999389648437</ele>
        <time>2014-05-19T07:22:59Z</time>
      </trkpt>
      <trkpt lat="45.149262920022011" lon="5.700477696955204">
        <ele>237.39999389648437</ele>
        <time>2014-05-19T07:23:01Z</time>
      </trkpt>
      <trkpt lat="45.14922671020031" lon="5.700785648077726">
        <ele>237.19999694824219</ele>
        <time>2014-05-19T07:23:07Z</time>
      </trkpt>
      <trkpt lat="45.149198044091463" lon="5.70101791061461">
        <ele>237.39999389648437</ele>
        <time>2014-05-19T07:23:11Z</time>
      </trkpt>
      <trkpt lat="45.14918765053153" lon="5.701077170670033">
        <ele>237.19999694824219</ele>
        <time>2014-05-19T07:23:12Z</time>
      </trkpt>
      <trkpt lat="45.149143310263753" lon="5.70138243958354">
        <ele>237.19999694824219</ele>
        <time>2014-05-19T07:23:17Z</time>
      </trkpt>
      <trkpt lat="45.149137359112501" lon="5.701436083763838">
        <ele>237</ele>
        <time>2014-05-19T07:23:18Z</time>
      </trkpt>
      <trkpt lat="45.149104418233037" lon="5.701577737927437">
        <ele>237.39999389648437</ele>
        <time>2014-05-19T07:23:26Z</time>
      </trkpt>
      <trkpt lat="45.149053456261754" lon="5.701637668535113">
        <ele>237.39999389648437</ele>
        <time>2014-05-19T07:23:29Z</time>
      </trkpt>
      <trkpt lat="45.148930745199323" lon="5.701676392927766">
        <ele>236.80000305175781</ele>
        <time>2014-05-19T07:23:33Z</time>
      </trkpt>
      <trkpt lat="45.148572586476803" lon="5.701671782881022">
        <ele>237.39999389648437</ele>
        <time>2014-05-19T07:23:41Z</time>
      </trkpt>
      <trkpt lat="45.148220462724566" lon="5.70161210373044">
        <ele>237.19999694824219</ele>
        <time>2014-05-19T07:23:48Z</time>
      </trkpt>
      <trkpt lat="45.147868925705552" lon="5.701540187001228">
        <ele>237.39999389648437</ele>
        <time>2014-05-19T07:23:55Z</time>
      </trkpt>
      <trkpt lat="45.147727522999048" lon="5.701507665216923">
        <ele>237.60000610351562</ele>
        <time>2014-05-19T07:23:58Z</time>
      </trkpt>
      <trkpt lat="45.147434491664171" lon="5.701433066278696">
        <ele>237.80000305175781</ele>
        <time>2014-05-19T07:24:04Z</time>
      </trkpt>
      <trkpt lat="45.147037440910935" lon="5.701340194791555">
        <ele>237.19999694824219</ele>
        <time>2014-05-19T07:24:12Z</time>
      </trkpt>
      <trkpt lat="45.146704595535994" lon="5.701258135959506">
        <ele>237.60000610351562</ele>
        <time>2014-05-19T07:24:19Z</time>
      </trkpt>
      <trkpt lat="45.146592697128654" lon="5.701316725462675">
        <ele>238</ele>
        <time>2014-05-19T07:24:22Z</time>
      </trkpt>
      <trkpt lat="45.146565036848187" lon="5.701369279995561">
        <ele>238</ele>
        <time>2014-05-19T07:24:23Z</time>
      </trkpt>
      <trkpt lat="45.146520528942347" lon="5.701579162850976">
        <ele>237.60000610351562</ele>
        <time>2014-05-19T07:24:26Z</time>
      </trkpt>
      <trkpt lat="45.146477110683918" lon="5.702003622427583">
        <ele>237.60000610351562</ele>
        <time>2014-05-19T07:24:32Z</time>
      </trkpt>
      <trkpt lat="45.146411815658212" lon="5.702319284901023">
        <ele>237.80000305175781</ele>
        <time>2014-05-19T07:24:37Z</time>
      </trkpt>
      <trkpt lat="45.146349538117647" lon="5.702394638210535">
        <ele>237.80000305175781</ele>
        <time>2014-05-19T07:24:39Z</time>
      </trkpt>
      <trkpt lat="45.146242249757051" lon="5.702402349561453">
        <ele>238.39999389648437</ele>
        <time>2014-05-19T07:24:42Z</time>
      </trkpt>
      <trkpt lat="45.146137895062566" lon="5.702409641817212">
        <ele>238.60000610351562</ele>
        <time>2014-05-19T07:24:55Z</time>
      </trkpt>
      <trkpt lat="45.146094057708979" lon="5.702400421723723">
        <ele>238.60000610351562</ele>
        <time>2014-05-19T07:24:57Z</time>
      </trkpt>
      <trkpt lat="45.146004874259233" lon="5.702370833605528">
        <ele>238.60000610351562</ele>
        <time>2014-05-19T07:25:00Z</time>
      </trkpt>
      <trkpt lat="45.145739670842886" lon="5.702331606298685">
        <ele>239.19999694824219</ele>
        <time>2014-05-19T07:25:08Z</time>
      </trkpt>
      <trkpt lat="45.145705053582788" lon="5.702439229935408">
        <ele>239.19999694824219</ele>
        <time>2014-05-19T07:25:11Z</time>
      </trkpt>
      <trkpt lat="45.145694073289633" lon="5.702484156936407">
        <ele>239.19999694824219</ele>
        <time>2014-05-19T07:25:12Z</time>
      </trkpt>
      <trkpt lat="45.145639004185796" lon="5.70276134647429">
        <ele>238.80000305175781</ele>
        <time>2014-05-19T07:25:17Z</time>
      </trkpt>
      <trkpt lat="45.145626263692975" lon="5.702815828844905">
        <ele>238.39999389648437</ele>
        <time>2014-05-19T07:25:18Z</time>
      </trkpt>
      <trkpt lat="45.145583683624864" lon="5.70306527428329">
        <ele>238.80000305175781</ele>
        <time>2014-05-19T07:25:23Z</time>
      </trkpt>
      <trkpt lat="45.145512605085969" lon="5.703224446624517">
        <ele>239</ele>
        <time>2014-05-19T07:25:27Z</time>
      </trkpt>
      <trkpt lat="45.145477987825871" lon="5.703218160197139">
        <ele>239</ele>
        <time>2014-05-19T07:25:28Z</time>
      </trkpt>
      <trkpt lat="45.145270703360438" lon="5.703151188790798">
        <ele>238.80000305175781</ele>
        <time>2014-05-19T07:25:33Z</time>
      </trkpt>
      <trkpt lat="45.145033411681652" lon="5.703132580965757">
        <ele>239.39999389648437</ele>
        <time>2014-05-19T07:25:38Z</time>
      </trkpt>
      <trkpt lat="45.14498739503324" lon="5.70312193594873">
        <ele>239.80000305175781</ele>
        <time>2014-05-19T07:25:39Z</time>
      </trkpt>
      <trkpt lat="45.144942048937082" lon="5.703112212941051">
        <ele>240</ele>
        <time>2014-05-19T07:25:40Z</time>
      </trkpt>
      <trkpt lat="45.144627811387181" lon="5.70305404253304">
        <ele>239.60000610351562</ele>
        <time>2014-05-19T07:25:47Z</time>
      </trkpt>
      <trkpt lat="45.144499400630593" lon="5.703062508255243">
        <ele>239.80000305175781</ele>
        <time>2014-05-19T07:25:52Z</time>
      </trkpt>
      <trkpt lat="45.144463358446956" lon="5.703118415549398">
        <ele>239.80000305175781</ele>
        <time>2014-05-19T07:25:54Z</time>
      </trkpt>
      <trkpt lat="45.144439721480012" lon="5.703205922618508">
        <ele>239.80000305175781</ele>
        <time>2014-05-19T07:25:56Z</time>
      </trkpt>
      <trkpt lat="45.144400075078011" lon="5.703421924263239">
        <ele>239.60000610351562</ele>
        <time>2014-05-19T07:26:00Z</time>
      </trkpt>
      <trkpt lat="45.144384652376175" lon="5.703541785478592">
        <ele>239.60000610351562</ele>
        <time>2014-05-19T07:26:02Z</time>
      </trkpt>
      <trkpt lat="45.144314076751471" lon="5.703842025250197">
        <ele>239.80000305175781</ele>
        <time>2014-05-19T07:26:08Z</time>
      </trkpt>
      <trkpt lat="45.144219696521759" lon="5.703881336376071">
        <ele>239.80000305175781</ele>
        <time>2014-05-19T07:26:11Z</time>
      </trkpt>
      <trkpt lat="45.144034875556827" lon="5.703803803771734">
        <ele>239.39999389648437</ele>
        <time>2014-05-19T07:26:16Z</time>
      </trkpt>
      <trkpt lat="45.143809821456671" lon="5.703757787123323">
        <ele>239.19999694824219</ele>
        <time>2014-05-19T07:26:22Z</time>
      </trkpt>
      <trkpt lat="45.143780820071697" lon="5.703789973631501">
        <ele>239.19999694824219</ele>
        <time>2014-05-19T07:26:23Z</time>
      </trkpt>
      <trkpt lat="45.143738994374871" lon="5.703859124332666">
        <ele>239.80000305175781</ele>
        <time>2014-05-19T07:26:25Z</time>
      </trkpt>
      <trkpt lat="45.143689122051001" lon="5.703884521499276">
        <ele>239.80000305175781</ele>
        <time>2014-05-19T07:26:27Z</time>
      </trkpt>
      <trkpt lat="45.143665401265025" lon="5.703894663602114">
        <ele>239.60000610351562</ele>
        <time>2014-05-19T07:26:28Z</time>
      </trkpt>
      <trkpt lat="45.143574206158519" lon="5.703882426023483">
        <ele>239.60000610351562</ele>
        <time>2014-05-19T07:26:31Z</time>
      </trkpt>
      <trkpt lat="45.143540762364864" lon="5.703870356082916">
        <ele>239.60000610351562</ele>
        <time>2014-05-19T07:26:32Z</time>
      </trkpt>
      <trkpt lat="45.14331528916955" lon="5.703802462667227">
        <ele>239.39999389648437</ele>
        <time>2014-05-19T07:26:38Z</time>
      </trkpt>
      <trkpt lat="45.14306022785604" lon="5.703716799616814">
        <ele>239.39999389648437</ele>
        <time>2014-05-19T07:26:44Z</time>
      </trkpt>
      <trkpt lat="45.143017061054707" lon="5.70370246656239">
        <ele>239.39999389648437</ele>
        <time>2014-05-19T07:26:45Z</time>
      </trkpt>
      <trkpt lat="45.142691256478429" lon="5.703591322526336">
        <ele>239.60000610351562</ele>
        <time>2014-05-19T07:26:52Z</time>
      </trkpt>
      <trkpt lat="45.14232974499464" lon="5.703468192368746">
        <ele>240.19999694824219</ele>
        <time>2014-05-19T07:27:00Z</time>
      </trkpt>
      <trkpt lat="45.142076276242733" lon="5.703374398872256">
        <ele>240.60000610351562</ele>
        <time>2014-05-19T07:27:06Z</time>
      </trkpt>
      <trkpt lat="45.141805289313197" lon="5.70327490568161">
        <ele>240.80000305175781</ele>
        <time>2014-05-19T07:27:13Z</time>
      </trkpt>
      <trkpt lat="45.14176681637764" lon="5.703265937045217">
        <ele>240.80000305175781</ele>
        <time>2014-05-19T07:27:14Z</time>
      </trkpt>
      <trkpt lat="45.141679309308529" lon="5.70323140360415">
        <ele>241</ele>
        <time>2014-05-19T07:27:18Z</time>
      </trkpt>
      <trkpt lat="45.141629688441753" lon="5.7032201718539">
        <ele>241.39999389648437</ele>
        <time>2014-05-19T07:29:26Z</time>
      </trkpt>
      <trkpt lat="45.141611667349935" lon="5.703218160197139">
        <ele>241.19999694824219</ele>
        <time>2014-05-19T07:29:27Z</time>
      </trkpt>
      <trkpt lat="45.141534050926566" lon="5.703183794394136">
        <ele>241.19999694824219</ele>
        <time>2014-05-19T07:29:30Z</time>
      </trkpt>
      <trkpt lat="45.141443610191345" lon="5.70316057652235">
        <ele>241</ele>
        <time>2014-05-19T07:29:33Z</time>
      </trkpt>
      <trkpt lat="45.141229787841439" lon="5.703100645914674">
        <ele>241.19999694824219</ele>
        <time>2014-05-19T07:29:39Z</time>
      </trkpt>
      <trkpt lat="45.140982270240784" lon="5.703017832711339">
        <ele>241</ele>
        <time>2014-05-19T07:29:45Z</time>
      </trkpt>
      <trkpt lat="45.140700722113252" lon="5.70291867479682">
        <ele>241.80000305175781</ele>
        <time>2014-05-19T07:29:52Z</time>
      </trkpt>
      <trkpt lat="45.140584548935294" lon="5.702878525480628">
        <ele>241.60000610351562</ele>
        <time>2014-05-19T07:29:55Z</time>
      </trkpt>
      <trkpt lat="45.140468291938305" lon="5.702840723097324">
        <ele>241.80000305175781</ele>
        <time>2014-05-19T07:29:58Z</time>
      </trkpt>
      <trkpt lat="45.140263102948666" lon="5.702773500233889">
        <ele>242</ele>
        <time>2014-05-19T07:30:03Z</time>
      </trkpt>
      <trkpt lat="45.140138631686568" lon="5.702727064490318">
        <ele>242</ele>
        <time>2014-05-19T07:30:06Z</time>
      </trkpt>
      <trkpt lat="45.140003599226475" lon="5.702693033963442">
        <ele>241.60000610351562</ele>
        <time>2014-05-19T07:30:09Z</time>
      </trkpt>
      <trkpt lat="45.139638064429164" lon="5.702568897977471">
        <ele>241.60000610351562</ele>
        <time>2014-05-19T07:30:17Z</time>
      </trkpt>
      <trkpt lat="45.139463804662228" lon="5.702513074502349">
        <ele>241.80000305175781</ele>
        <time>2014-05-19T07:30:21Z</time>
      </trkpt>
      <trkpt lat="45.139337992295623" lon="5.702467812225223">
        <ele>242</ele>
        <time>2014-05-19T07:30:24Z</time>
      </trkpt>
      <trkpt lat="45.139078572392464" lon="5.702389776706696">
        <ele>242.39999389648437</ele>
        <time>2014-05-19T07:30:30Z</time>
      </trkpt>
      <trkpt lat="45.138793336227536" lon="5.70227368734777">
        <ele>242.80000305175781</ele>
        <time>2014-05-19T07:30:37Z</time>
      </trkpt>
      <trkpt lat="45.138609521090984" lon="5.702209230512381">
        <ele>243</ele>
        <time>2014-05-19T07:30:42Z</time>
      </trkpt>
      <trkpt lat="45.138552859425545" lon="5.702189868316054">
        <ele>243.19999694824219</ele>
        <time>2014-05-19T07:30:44Z</time>
      </trkpt>
      <trkpt lat="45.138415480032563" lon="5.702065397053957">
        <ele>243.60000610351562</ele>
        <time>2014-05-19T07:30:50Z</time>
      </trkpt>
      <trkpt lat="45.138287069275975" lon="5.702033881098032">
        <ele>243.80000305175781</ele>
        <time>2014-05-19T07:30:55Z</time>
      </trkpt>
      <trkpt lat="45.138219092041254" lon="5.702045448124409">
        <ele>243.80000305175781</ele>
        <time>2014-05-19T07:31:41Z</time>
      </trkpt>
      <trkpt lat="45.138041228055954" lon="5.702025080099702">
        <ele>243.60000610351562</ele>
        <time>2014-05-19T07:31:47Z</time>
      </trkpt>
      <trkpt lat="45.137869901955128" lon="5.701973028481007">
        <ele>244</ele>
        <time>2014-05-19T07:31:52Z</time>
      </trkpt>
      <trkpt lat="45.13779865577817" lon="5.701945787295699">
        <ele>243.80000305175781</ele>
        <time>2014-05-19T07:31:54Z</time>
      </trkpt>
      <trkpt lat="45.137563711032271" lon="5.701859872788191">
        <ele>244</ele>
        <time>2014-05-19T07:32:00Z</time>
      </trkpt>
      <trkpt lat="45.137517191469669" lon="5.701845204457641">
        <ele>244.19999694824219</ele>
        <time>2014-05-19T07:32:01Z</time>
      </trkpt>
      <trkpt lat="45.137261627241969" lon="5.701765744015575">
        <ele>244.19999694824219</ele>
        <time>2014-05-19T07:32:07Z</time>
      </trkpt>
      <trkpt lat="45.136967087164521" lon="5.701681924983859">
        <ele>244.60000610351562</ele>
        <time>2014-05-19T07:32:14Z</time>
      </trkpt>
      <trkpt lat="45.13688444159925" lon="5.701656946912408">
        <ele>244.39999389648437</ele>
        <time>2014-05-19T07:32:16Z</time>
      </trkpt>
      <trkpt lat="45.136772459372878" lon="5.701624425128102">
        <ele>244.80000305175781</ele>
        <time>2014-05-19T07:32:19Z</time>
      </trkpt>
      <trkpt lat="45.136590991169214" lon="5.701541192829609">
        <ele>245</ele>
        <time>2014-05-19T07:32:24Z</time>
      </trkpt>
      <trkpt lat="45.136557463556528" lon="5.701525267213583">
        <ele>245</ele>
        <time>2014-05-19T07:32:25Z</time>
      </trkpt>
      <trkpt lat="45.136510105803609" lon="5.701522249728441">
        <ele>244.80000305175781</ele>
        <time>2014-05-19T07:32:26Z</time>
      </trkpt>
      <trkpt lat="45.136440955102444" lon="5.701475813984871">
        <ele>244.80000305175781</ele>
        <time>2014-05-19T07:32:28Z</time>
      </trkpt>
      <trkpt lat="45.136364176869392" lon="5.701439185068011">
        <ele>245.19999694824219</ele>
        <time>2014-05-19T07:32:30Z</time>
      </trkpt>
      <trkpt lat="45.136319836601615" lon="5.701425690203905">
        <ele>245.19999694824219</ele>
        <time>2014-05-19T07:32:31Z</time>
      </trkpt>
      <trkpt lat="45.136245405301452" lon="5.701392916962504">
        <ele>245</ele>
        <time>2014-05-19T07:32:33Z</time>
      </trkpt>
      <trkpt lat="45.135983973741531" lon="5.701303733512759">
        <ele>245.39999389648437</ele>
        <time>2014-05-19T07:32:39Z</time>
      </trkpt>
      <trkpt lat="45.135793285444379" lon="5.701246988028288">
        <ele>245.39999389648437</ele>
        <time>2014-05-19T07:32:43Z</time>
      </trkpt>
      <trkpt lat="45.135707119479775" lon="5.701227206736803">
        <ele>245.39999389648437</ele>
        <time>2014-05-19T07:32:45Z</time>
      </trkpt>
      <trkpt lat="45.135418698191643" lon="5.701134419068694">
        <ele>246</ele>
        <time>2014-05-19T07:32:52Z</time>
      </trkpt>
      <trkpt lat="45.135052157565951" lon="5.701023610308766">
        <ele>245.60000610351562</ele>
        <time>2014-05-19T07:33:00Z</time>
      </trkpt>
      <trkpt lat="45.134924249723554" lon="5.700930571183562">
        <ele>245.60000610351562</ele>
        <time>2014-05-19T07:33:04Z</time>
      </trkpt>
      <trkpt lat="45.134808076545596" lon="5.70086351595819">
        <ele>246</ele>
        <time>2014-05-19T07:33:07Z</time>
      </trkpt>
      <trkpt lat="45.134728951379657" lon="5.700835268944502">
        <ele>246</ele>
        <time>2014-05-19T07:33:09Z</time>
      </trkpt>
      <trkpt lat="45.134485876187682" lon="5.700772739946842">
        <ele>246.19999694824219</ele>
        <time>2014-05-19T07:33:15Z</time>
      </trkpt>
      <trkpt lat="45.13429912738502" lon="5.700754132121801">
        <ele>246.39999389648437</ele>
        <time>2014-05-19T07:33:21Z</time>
      </trkpt>
      <trkpt lat="45.134278926998377" lon="5.700746839866042">
        <ele>246.80000305175781</ele>
        <time>2014-05-19T07:33:38Z</time>
      </trkpt>
      <trkpt lat="45.134257385507226" lon="5.700746001675725">
        <ele>246.80000305175781</ele>
        <time>2014-05-19T07:33:39Z</time>
      </trkpt>
      <trkpt lat="45.134088238701224" lon="5.700692273676395">
        <ele>246.39999389648437</ele>
        <time>2014-05-19T07:33:45Z</time>
      </trkpt>
      <trkpt lat="45.133810630068183" lon="5.700609125196934">
        <ele>246.60000610351562</ele>
        <time>2014-05-19T07:33:53Z</time>
      </trkpt>
      <trkpt lat="45.133714573457837" lon="5.700580542907119">
        <ele>247.19999694824219</ele>
        <time>2014-05-19T07:33:56Z</time>
      </trkpt>
      <trkpt lat="45.133599489927292" lon="5.700543830171228">
        <ele>247.39999389648437</ele>
        <time>2014-05-19T07:33:59Z</time>
      </trkpt>
      <trkpt lat="45.133320707827806" lon="5.700466046109796">
        <ele>247.19999694824219</ele>
        <time>2014-05-19T07:34:05Z</time>
      </trkpt>
      <trkpt lat="45.133007559925318" lon="5.700359595939517">
        <ele>247.19999694824219</ele>
        <time>2014-05-19T07:34:12Z</time>
      </trkpt>
      <trkpt lat="45.132776638492942" lon="5.70028642192483">
        <ele>247.19999694824219</ele>
        <time>2014-05-19T07:34:17Z</time>
      </trkpt>
      <trkpt lat="45.132458796724677" lon="5.700166476890445">
        <ele>247.60000610351562</ele>
        <time>2014-05-19T07:34:24Z</time>
      </trkpt>
      <trkpt lat="45.132121508941054" lon="5.700031612068415">
        <ele>247.80000305175781</ele>
        <time>2014-05-19T07:34:32Z</time>
      </trkpt>
      <trkpt lat="45.131954289972782" lon="5.699965059757233">
        <ele>247.60000610351562</ele>
        <time>2014-05-19T07:34:36Z</time>
      </trkpt>
      <trkpt lat="45.131868878379464" lon="5.699931615963578">
        <ele>247.80000305175781</ele>
        <time>2014-05-19T07:34:38Z</time>
      </trkpt>
      <trkpt lat="45.131739461794496" lon="5.699894819408655">
        <ele>247.80000305175781</ele>
        <time>2014-05-19T07:34:41Z</time>
      </trkpt>
      <trkpt lat="45.131602836772799" lon="5.699849389493465">
        <ele>248</ele>
        <time>2014-05-19T07:34:44Z</time>
      </trkpt>
      <trkpt lat="45.131558496505022" lon="5.699844779446721">
        <ele>248</ele>
        <time>2014-05-19T07:34:45Z</time>
      </trkpt>
      <trkpt lat="45.131512563675642" lon="5.699836816638708">
        <ele>248.19999694824219</ele>
        <time>2014-05-19T07:34:46Z</time>
      </trkpt>
      <trkpt lat="45.131336795166135" lon="5.699802031740546">
        <ele>248.19999694824219</ele>
        <time>2014-05-19T07:34:50Z</time>
      </trkpt>
      <trkpt lat="45.131108136847615" lon="5.699705136939883">
        <ele>248.19999694824219</ele>
        <time>2014-05-19T07:34:56Z</time>
      </trkpt>
      <trkpt lat="45.130912754684687" lon="5.69963900372386">
        <ele>248.39999389648437</ele>
        <time>2014-05-19T07:35:01Z</time>
      </trkpt>
      <trkpt lat="45.130711421370506" lon="5.699558285996318">
        <ele>248.60000610351562</ele>
        <time>2014-05-19T07:35:06Z</time>
      </trkpt>
      <trkpt lat="45.130391903221607" lon="5.699465833604336">
        <ele>248.60000610351562</ele>
        <time>2014-05-19T07:35:13Z</time>
      </trkpt>
      <trkpt lat="45.130207166075706" lon="5.699371034279466">
        <ele>248.80000305175781</ele>
        <time>2014-05-19T07:35:18Z</time>
      </trkpt>
      <trkpt lat="45.130031481385231" lon="5.699343373999">
        <ele>248.80000305175781</ele>
        <time>2014-05-19T07:35:23Z</time>
      </trkpt>
      <trkpt lat="45.129745993763208" lon="5.699241785332561">
        <ele>248.60000610351562</ele>
        <time>2014-05-19T07:35:30Z</time>
      </trkpt>
      <trkpt lat="45.129524292424321" lon="5.699170120060444">
        <ele>249.19999694824219</ele>
        <time>2014-05-19T07:35:35Z</time>
      </trkpt>
      <trkpt lat="45.129195554181933" lon="5.699064340442419">
        <ele>249</ele>
        <time>2014-05-19T07:35:42Z</time>
      </trkpt>
      <trkpt lat="45.128822894766927" lon="5.698934840038419">
        <ele>249</ele>
        <time>2014-05-19T07:35:49Z</time>
      </trkpt>
      <trkpt lat="45.128497760742903" lon="5.698832999914885">
        <ele>249.19999694824219</ele>
        <time>2014-05-19T07:35:55Z</time>
      </trkpt>
      <trkpt lat="45.128442356362939" lon="5.698814811185002">
        <ele>249.19999694824219</ele>
        <time>2014-05-19T07:35:56Z</time>
      </trkpt>
      <trkpt lat="45.128010017797351" lon="5.698656477034092">
        <ele>249.19999694824219</ele>
        <time>2014-05-19T07:36:04Z</time>
      </trkpt>
      <trkpt lat="45.127661917358637" lon="5.698542986065149">
        <ele>249.19999694824219</ele>
        <time>2014-05-19T07:36:11Z</time>
      </trkpt>
      <trkpt lat="45.127286994829774" lon="5.698431674391031">
        <ele>249.39999389648437</ele>
        <time>2014-05-19T07:36:18Z</time>
      </trkpt>
      <trkpt lat="45.127141652628779" lon="5.698383394628763">
        <ele>249.60000610351562</ele>
        <time>2014-05-19T07:36:21Z</time>
      </trkpt>
      <trkpt lat="45.126988934352994" lon="5.69832312874496">
        <ele>249.80000305175781</ele>
        <time>2014-05-19T07:36:24Z</time>
      </trkpt>
      <trkpt lat="45.126658184453845" lon="5.698220953345299">
        <ele>250</ele>
        <time>2014-05-19T07:36:31Z</time>
      </trkpt>
      <trkpt lat="45.126330200582743" lon="5.69811106659472">
        <ele>250.39999389648437</ele>
        <time>2014-05-19T07:36:38Z</time>
      </trkpt>
      <trkpt lat="45.12607840821147" lon="5.69800553843379">
        <ele>251</ele>
        <time>2014-05-19T07:36:44Z</time>
      </trkpt>
      <trkpt lat="45.125979837030172" lon="5.697972681373358">
        <ele>251.19999694824219</ele>
        <time>2014-05-19T07:36:48Z</time>
      </trkpt>
      <trkpt lat="45.125788561999798" lon="5.697899674996734">
        <ele>251.19999694824219</ele>
        <time>2014-05-19T07:36:54Z</time>
      </trkpt>
      <trkpt lat="45.125635759904981" lon="5.697829853743315">
        <ele>251</ele>
        <time>2014-05-19T07:36:59Z</time>
      </trkpt>
      <trkpt lat="45.125467535108328" lon="5.697764474898577">
        <ele>251</ele>
        <time>2014-05-19T07:37:04Z</time>
      </trkpt>
      <trkpt lat="45.12521549127996" lon="5.697670765221119">
        <ele>251.60000610351562</ele>
        <time>2014-05-19T07:37:11Z</time>
      </trkpt>
      <trkpt lat="45.125006446614861" lon="5.697615779936314">
        <ele>251.19999694824219</ele>
        <time>2014-05-19T07:37:17Z</time>
      </trkpt>
      <trkpt lat="45.124867390841246" lon="5.697576384991407">
        <ele>251.60000610351562</ele>
        <time>2014-05-19T07:37:22Z</time>
      </trkpt>
      <trkpt lat="45.124750882387161" lon="5.69761460646987">
        <ele>251.80000305175781</ele>
        <time>2014-05-19T07:37:25Z</time>
      </trkpt>
      <trkpt lat="45.124721378087997" lon="5.697658276185393">
        <ele>252</ele>
        <time>2014-05-19T07:37:26Z</time>
      </trkpt>
      <trkpt lat="45.124706458300352" lon="5.697853742167354">
        <ele>252</ele>
        <time>2014-05-19T07:37:29Z</time>
      </trkpt>
      <trkpt lat="45.124669997021556" lon="5.698045771569014">
        <ele>251.19999694824219</ele>
        <time>2014-05-19T07:37:32Z</time>
      </trkpt>
      <trkpt lat="45.124653987586498" lon="5.698100505396724">
        <ele>250.39999389648437</ele>
        <time>2014-05-19T07:37:33Z</time>
      </trkpt>
      <trkpt lat="45.124617358669639" lon="5.698252553120256">
        <ele>251.60000610351562</ele>
        <time>2014-05-19T07:37:36Z</time>
      </trkpt>
      <trkpt lat="45.124583831056952" lon="5.69835539907217">
        <ele>251.60000610351562</ele>
        <time>2014-05-19T07:37:38Z</time>
      </trkpt>
      <trkpt lat="45.124448463320732" lon="5.698691597208381">
        <ele>251.80000305175781</ele>
        <time>2014-05-19T07:37:45Z</time>
      </trkpt>
      <trkpt lat="45.124345868825912" lon="5.698670474812388">
        <ele>252</ele>
        <time>2014-05-19T07:37:48Z</time>
      </trkpt>
      <trkpt lat="45.124277388677001" lon="5.698648011311889">
        <ele>252.39999389648437</ele>
        <time>2014-05-19T07:37:50Z</time>
      </trkpt>
      <trkpt lat="45.124151073396206" lon="5.698617836460471">
        <ele>252.19999694824219</ele>
        <time>2014-05-19T07:37:53Z</time>
      </trkpt>
      <trkpt lat="45.123877068981528" lon="5.698607861995697">
        <ele>252.19999694824219</ele>
        <time>2014-05-19T07:38:00Z</time>
      </trkpt>
      <trkpt lat="45.123764248564839" lon="5.698675001040101">
        <ele>252.60000610351562</ele>
        <time>2014-05-19T07:38:03Z</time>
      </trkpt>
      <trkpt lat="45.123696103692055" lon="5.698724202811718">
        <ele>252.60000610351562</ele>
        <time>2014-05-19T07:38:05Z</time>
      </trkpt>
      <trkpt lat="45.123491669073701" lon="5.698846410959959">
        <ele>253.39999389648437</ele>
        <time>2014-05-19T07:38:12Z</time>
      </trkpt>
      <trkpt lat="45.123476162552834" lon="5.698837358504534">
        <ele>253.39999389648437</ele>
        <time>2014-05-19T07:38:13Z</time>
      </trkpt>
      <trkpt lat="45.123451435938478" lon="5.698790503665805">
        <ele>253.60000610351562</ele>
        <time>2014-05-19T07:38:15Z</time>
      </trkpt>
      <trkpt lat="45.123444059863687" lon="5.698759155347943">
        <ele>253.60000610351562</ele>
        <time>2014-05-19T07:38:16Z</time>
      </trkpt>
      <trkpt lat="45.12343249283731" lon="5.698726382106543">
        <ele>253.39999389648437</ele>
        <time>2014-05-19T07:38:17Z</time>
      </trkpt>
      <trkpt lat="45.123353619128466" lon="5.698539465665817">
        <ele>253.39999389648437</ele>
        <time>2014-05-19T07:38:23Z</time>
      </trkpt>
      <trkpt lat="45.123306345194578" lon="5.698450533673167">
        <ele>253.60000610351562</ele>
        <time>2014-05-19T07:38:27Z</time>
      </trkpt>
      <trkpt lat="45.123211797326803" lon="5.69848976098001">
        <ele>253.39999389648437</ele>
        <time>2014-05-19T07:38:31Z</time>
      </trkpt>
      <trkpt lat="45.123069807887077" lon="5.698558995500207">
        <ele>253.60000610351562</ele>
        <time>2014-05-19T07:38:37Z</time>
      </trkpt>
      <trkpt lat="45.12294290587306" lon="5.698619093745947">
        <ele>253.80000305175781</ele>
        <time>2014-05-19T07:38:43Z</time>
      </trkpt>
      <trkpt lat="45.122794294729829" lon="5.698648849502206">
        <ele>253.80000305175781</ele>
        <time>2014-05-19T07:38:48Z</time>
      </trkpt>
      <trkpt lat="45.122576784342527" lon="5.698824031278491">
        <ele>253.60000610351562</ele>
        <time>2014-05-19T07:38:54Z</time>
      </trkpt>
      <trkpt lat="45.122449127957225" lon="5.698892930522561">
        <ele>253.60000610351562</ele>
        <time>2014-05-19T07:38:57Z</time>
      </trkpt>
      <trkpt lat="45.122323567047715" lon="5.698985969647765">
        <ele>253.39999389648437</ele>
        <time>2014-05-19T07:39:00Z</time>
      </trkpt>
      <trkpt lat="45.122284004464746" lon="5.699017150327563">
        <ele>253.39999389648437</ele>
        <time>2014-05-19T07:39:01Z</time>
      </trkpt>
      <trkpt lat="45.122022656723857" lon="5.699210688471794">
        <ele>254.19999694824219</ele>
        <time>2014-05-19T07:39:08Z</time>
      </trkpt>
      <trkpt lat="45.121948812156916" lon="5.699188560247421">
        <ele>254</ele>
        <time>2014-05-19T07:39:10Z</time>
      </trkpt>
      <trkpt lat="45.121921403333545" lon="5.699150422587991">
        <ele>254</ele>
        <time>2014-05-19T07:39:11Z</time>
      </trkpt>
      <trkpt lat="45.121764158830047" lon="5.699035339057446">
        <ele>254</ele>
        <time>2014-05-19T07:39:16Z</time>
      </trkpt>
      <trkpt lat="45.121726859360933" lon="5.699018659070134">
        <ele>254</ele>
        <time>2014-05-19T07:39:17Z</time>
      </trkpt>
      <trkpt lat="45.121406670659781" lon="5.69891095161438">
        <ele>253.80000305175781</ele>
        <time>2014-05-19T07:39:25Z</time>
      </trkpt>
      <trkpt lat="45.121195362880826" lon="5.698837777599692">
        <ele>253.80000305175781</ele>
        <time>2014-05-19T07:39:30Z</time>
      </trkpt>
      <trkpt lat="45.121078183874488" lon="5.698780277743936">
        <ele>254</ele>
        <time>2014-05-19T07:39:33Z</time>
      </trkpt>
      <trkpt lat="45.120993526652455" lon="5.698749013245106">
        <ele>254</ele>
        <time>2014-05-19T07:39:35Z</time>
      </trkpt>
      <trkpt lat="45.120816417038441" lon="5.698678269982338">
        <ele>254.39999389648437</ele>
        <time>2014-05-19T07:39:39Z</time>
      </trkpt>
      <trkpt lat="45.120464628562331" lon="5.698544913902879">
        <ele>254.60000610351562</ele>
        <time>2014-05-19T07:39:47Z</time>
      </trkpt>
      <trkpt lat="45.120230857282877" lon="5.698486911132932">
        <ele>255</ele>
        <time>2014-05-19T07:39:53Z</time>
      </trkpt>
      <trkpt lat="45.119954505935311" lon="5.698376353830099">
        <ele>255</ele>
        <time>2014-05-19T07:40:00Z</time>
      </trkpt>
      <trkpt lat="45.119916452094913" lon="5.698352381587029">
        <ele>255</ele>
        <time>2014-05-19T07:40:01Z</time>
      </trkpt>
      <trkpt lat="45.119833135977387" lon="5.698320446535945">
        <ele>255.19999694824219</ele>
        <time>2014-05-19T07:40:03Z</time>
      </trkpt>
      <trkpt lat="45.119752250611782" lon="5.698308795690537">
        <ele>255.19999694824219</ele>
        <time>2014-05-19T07:40:05Z</time>
      </trkpt>
      <trkpt lat="45.119689805433154" lon="5.698258504271507">
        <ele>255.60000610351562</ele>
        <time>2014-05-19T07:40:07Z</time>
      </trkpt>
      <trkpt lat="45.119637837633491" lon="5.698203686624765">
        <ele>256.20001220703125</ele>
        <time>2014-05-19T07:40:09Z</time>
      </trkpt>
      <trkpt lat="45.119573129341006" lon="5.698123052716255">
        <ele>257</ele>
        <time>2014-05-19T07:40:12Z</time>
      </trkpt>
      <trkpt lat="45.119538009166718" lon="5.69806220009923">
        <ele>257.39999389648437</ele>
        <time>2014-05-19T07:40:14Z</time>
      </trkpt>
      <trkpt lat="45.119484951719642" lon="5.697944099083543">
        <ele>258</ele>
        <time>2014-05-19T07:40:18Z</time>
      </trkpt>
      <trkpt lat="45.119491321966052" lon="5.697908392176032">
        <ele>257.79998779296875</ele>
        <time>2014-05-19T07:40:19Z</time>
      </trkpt>
      <trkpt lat="45.119510516524315" lon="5.697875451296568">
        <ele>257.79998779296875</ele>
        <time>2014-05-19T07:40:20Z</time>
      </trkpt>
      <trkpt lat="45.119595006108284" lon="5.697862459346652">
        <ele>258.60000610351562</ele>
        <time>2014-05-19T07:40:23Z</time>
      </trkpt>
      <trkpt lat="45.119724087417126" lon="5.697895735502243">
        <ele>258.79998779296875</ele>
        <time>2014-05-19T07:40:27Z</time>
      </trkpt>
      <trkpt lat="45.119795920327306" lon="5.697910655289888">
        <ele>259</ele>
        <time>2014-05-19T07:40:29Z</time>
      </trkpt>
      <trkpt lat="45.119948722422123" lon="5.697927922010422">
        <ele>259.39999389648438</ele>
        <time>2014-05-19T07:40:33Z</time>
      </trkpt>
      <trkpt lat="45.120093561708927" lon="5.697942841798067">
        <ele>260.20001220703125</ele>
        <time>2014-05-19T07:40:37Z</time>
      </trkpt>
      <trkpt lat="45.120165646076202" lon="5.697954157367349">
        <ele>260.39999389648437</ele>
        <time>2014-05-19T07:40:39Z</time>
      </trkpt>
      <trkpt lat="45.120296739041805" lon="5.697925742715597">
        <ele>261.39999389648437</ele>
        <time>2014-05-19T07:40:43Z</time>
      </trkpt>
      <trkpt lat="45.120317609980702" lon="5.697890035808086">
        <ele>261.60000610351562</ele>
        <time>2014-05-19T07:40:44Z</time>
      </trkpt>
      <trkpt lat="45.120382653549314" lon="5.697700101882219">
        <ele>262</ele>
        <time>2014-05-19T07:40:49Z</time>
      </trkpt>
      <trkpt lat="45.120435459539294" lon="5.69745434448123">
        <ele>261.60000610351562</ele>
        <time>2014-05-19T07:40:55Z</time>
      </trkpt>
      <trkpt lat="45.120391957461834" lon="5.697310091927648">
        <ele>261.20001220703125</ele>
        <time>2014-05-19T07:40:59Z</time>
      </trkpt>
      <trkpt lat="45.120363207533956" lon="5.697292992845178">
        <ele>261.20001220703125</ele>
        <time>2014-05-19T07:41:00Z</time>
      </trkpt>
      <trkpt lat="45.120279220864177" lon="5.697282766923308">
        <ele>260.20001220703125</ele>
        <time>2014-05-19T07:41:02Z</time>
      </trkpt>
      <trkpt lat="45.120119377970695" lon="5.697260135784745">
        <ele>259.20001220703125</ele>
        <time>2014-05-19T07:41:05Z</time>
      </trkpt>
      <trkpt lat="45.1200638897717" lon="5.697237085551024">
        <ele>258.79998779296875</ele>
        <time>2014-05-19T07:41:06Z</time>
      </trkpt>
      <trkpt lat="45.120005216449499" lon="5.697209089994431">
        <ele>258</ele>
        <time>2014-05-19T07:41:07Z</time>
      </trkpt>
      <trkpt lat="45.119876889511943" lon="5.697190063074231">
        <ele>256.79998779296875</ele>
        <time>2014-05-19T07:41:09Z</time>
      </trkpt>
      <trkpt lat="45.119807906448841" lon="5.697205066680908">
        <ele>256.39999389648437</ele>
        <time>2014-05-19T07:41:10Z</time>
      </trkpt>
      <trkpt lat="45.119506157934666" lon="5.697296345606446">
        <ele>256.20001220703125</ele>
        <time>2014-05-19T07:41:15Z</time>
      </trkpt>
      <trkpt lat="45.119463996961713" lon="5.697316881269217">
        <ele>256.20001220703125</ele>
        <time>2014-05-19T07:41:16Z</time>
      </trkpt>
      <trkpt lat="45.119425440207124" lon="5.697351079434156">
        <ele>256.60000610351562</ele>
        <time>2014-05-19T07:41:17Z</time>
      </trkpt>
      <trkpt lat="45.11933240108192" lon="5.697468928992748">
        <ele>257</ele>
        <time>2014-05-19T07:41:20Z</time>
      </trkpt>
      <trkpt lat="45.119287809357047" lon="5.697475131601095">
        <ele>257.39999389648437</ele>
        <time>2014-05-19T07:41:22Z</time>
      </trkpt>
      <trkpt lat="45.119285546243191" lon="5.69747538305819">
        <ele>257.60000610351562</ele>
        <time>2014-05-19T07:41:23Z</time>
      </trkpt>
      <trkpt lat="45.119289485737681" lon="5.697393072769046">
        <ele>257.79998779296875</ele>
        <time>2014-05-19T07:41:53Z</time>
      </trkpt>
      <trkpt lat="45.11928110383451" lon="5.697317887097597">
        <ele>258</ele>
        <time>2014-05-19T07:41:55Z</time>
      </trkpt>
      <trkpt lat="45.119251850992441" lon="5.697067687287927">
        <ele>257.79998779296875</ele>
        <time>2014-05-19T07:42:01Z</time>
      </trkpt>
      <trkpt lat="45.119218826293945" lon="5.696712965145707">
        <ele>258</ele>
        <time>2014-05-19T07:42:09Z</time>
      </trkpt>
      <trkpt lat="45.11919560842216" lon="5.696483720093966">
        <ele>258.39999389648437</ele>
        <time>2014-05-19T07:42:16Z</time>
      </trkpt>
      <trkpt lat="45.119155542925" lon="5.696476260200143">
        <ele>258.20001220703125</ele>
        <time>2014-05-19T07:42:26Z</time>
      </trkpt>
      <trkpt lat="45.119010871276259" lon="5.696538537740707">
        <ele>256.60000610351562</ele>
        <time>2014-05-19T07:42:29Z</time>
      </trkpt>
      <trkpt lat="45.118963848799467" lon="5.696565862745047">
        <ele>256.20001220703125</ele>
        <time>2014-05-19T07:42:30Z</time>
      </trkpt>
      <trkpt lat="45.118830157443881" lon="5.696618333458901">
        <ele>256.20001220703125</ele>
        <time>2014-05-19T07:42:33Z</time>
      </trkpt>
      <trkpt lat="45.118787493556738" lon="5.696605173870921">
        <ele>256.20001220703125</ele>
        <time>2014-05-19T07:42:34Z</time>
      </trkpt>
      <trkpt lat="45.118666877970099" lon="5.696498220786452">
        <ele>256</ele>
        <time>2014-05-19T07:42:38Z</time>
      </trkpt>
      <trkpt lat="45.118522038683295" lon="5.696224719285965">
        <ele>256</ele>
        <time>2014-05-19T07:42:44Z</time>
      </trkpt>
      <trkpt lat="45.118493707850575" lon="5.696180798113346">
        <ele>255.80000305175781</ele>
        <time>2014-05-19T07:42:45Z</time>
      </trkpt>
      <trkpt lat="45.118382563814521" lon="5.696004778146744">
        <ele>256</ele>
        <time>2014-05-19T07:42:49Z</time>
      </trkpt>
      <trkpt lat="45.118349455296993" lon="5.695968233048916">
        <ele>256</ele>
        <time>2014-05-19T07:42:50Z</time>
      </trkpt>
      <trkpt lat="45.118128592148423" lon="5.695816688239574">
        <ele>255.60000610351562</ele>
        <time>2014-05-19T07:42:55Z</time>
      </trkpt>
      <trkpt lat="45.118070337921381" lon="5.695805372670293">
        <ele>255.39999389648437</ele>
        <time>2014-05-19T07:42:56Z</time>
      </trkpt>
      <trkpt lat="45.117896161973476" lon="5.695808976888657">
        <ele>254.60000610351562</ele>
        <time>2014-05-19T07:42:59Z</time>
      </trkpt>
      <trkpt lat="45.117794573307037" lon="5.695833284407854">
        <ele>254.80000305175781</ele>
        <time>2014-05-19T07:43:01Z</time>
      </trkpt>
      <trkpt lat="45.117414034903049" lon="5.695945266634226">
        <ele>255.39999389648437</ele>
        <time>2014-05-19T07:43:09Z</time>
      </trkpt>
      <trkpt lat="45.117247821763158" lon="5.695989606902003">
        <ele>255.19999694824219</ele>
        <time>2014-05-19T07:43:13Z</time>
      </trkpt>
      <trkpt lat="45.117152770981193" lon="5.696016512811184">
        <ele>255.60000610351562</ele>
        <time>2014-05-19T07:43:15Z</time>
      </trkpt>
      <trkpt lat="45.116909192875028" lon="5.69609547033906">
        <ele>255.19999694824219</ele>
        <time>2014-05-19T07:43:20Z</time>
      </trkpt>
      <trkpt lat="45.11683258228004" lon="5.696151377633214">
        <ele>255.80000305175781</ele>
        <time>2014-05-19T07:43:22Z</time>
      </trkpt>
      <trkpt lat="45.116765527054667" lon="5.696216924116015">
        <ele>256</ele>
        <time>2014-05-19T07:43:24Z</time>
      </trkpt>
      <trkpt lat="45.116667291149497" lon="5.696298647671938">
        <ele>256.39999389648437</ele>
        <time>2014-05-19T07:43:27Z</time>
      </trkpt>
      <trkpt lat="45.11659168638289" lon="5.69633929990232">
        <ele>256.79998779296875</ele>
        <time>2014-05-19T07:43:29Z</time>
      </trkpt>
      <trkpt lat="45.116510884836316" lon="5.696381628513336">
        <ele>256.79998779296875</ele>
        <time>2014-05-19T07:43:32Z</time>
      </trkpt>
      <trkpt lat="45.116342911496758" lon="5.696390680968761">
        <ele>256.60000610351562</ele>
        <time>2014-05-19T07:43:36Z</time>
      </trkpt>
      <trkpt lat="45.116001013666391" lon="5.696410546079278">
        <ele>256.60000610351562</ele>
        <time>2014-05-19T07:43:43Z</time>
      </trkpt>
      <trkpt lat="45.115736229345202" lon="5.696418425068259">
        <ele>256.39999389648437</ele>
        <time>2014-05-19T07:43:48Z</time>
      </trkpt>
      <trkpt lat="45.115489382296801" lon="5.696344412863255">
        <ele>256.39999389648437</ele>
        <time>2014-05-19T07:43:53Z</time>
      </trkpt>
      <trkpt lat="45.11544294655323" lon="5.696308119222522">
        <ele>256.20001220703125</ele>
        <time>2014-05-19T07:43:54Z</time>
      </trkpt>
      <trkpt lat="45.115257455036044" lon="5.696162944659591">
        <ele>256.20001220703125</ele>
        <time>2014-05-19T07:43:58Z</time>
      </trkpt>
      <trkpt lat="45.115207666531205" lon="5.696137463673949">
        <ele>256.20001220703125</ele>
        <time>2014-05-19T07:43:59Z</time>
      </trkpt>
      <trkpt lat="45.115154357627034" lon="5.696121621876955">
        <ele>256.20001220703125</ele>
        <time>2014-05-19T07:44:00Z</time>
      </trkpt>
      <trkpt lat="45.114955957978964" lon="5.696097649633884">
        <ele>256.20001220703125</ele>
        <time>2014-05-19T07:44:04Z</time>
      </trkpt>
      <trkpt lat="45.114751355722547" lon="5.69605004042387">
        <ele>256.20001220703125</ele>
        <time>2014-05-19T07:44:08Z</time>
      </trkpt>
      <trkpt lat="45.114647084847093" lon="5.696020955219865">
        <ele>256.20001220703125</ele>
        <time>2014-05-19T07:44:10Z</time>
      </trkpt>
      <trkpt lat="45.114441979676485" lon="5.695853568613529">
        <ele>256</ele>
        <time>2014-05-19T07:44:15Z</time>
      </trkpt>
      <trkpt lat="45.114263780415058" lon="5.695715183392167">
        <ele>256.20001220703125</ele>
        <time>2014-05-19T07:44:19Z</time>
      </trkpt>
      <trkpt lat="45.114126987755299" lon="5.695647625252605">
        <ele>256.39999389648437</ele>
        <time>2014-05-19T07:44:22Z</time>
      </trkpt>
      <trkpt lat="45.113927833735943" lon="5.695568835362792">
        <ele>256.39999389648437</ele>
        <time>2014-05-19T07:44:26Z</time>
      </trkpt>
      <trkpt lat="45.113825239241123" lon="5.695553161203861">
        <ele>256.39999389648437</ele>
        <time>2014-05-19T07:44:28Z</time>
      </trkpt>
      <trkpt lat="45.113715184852481" lon="5.695562548935413">
        <ele>256.39999389648437</ele>
        <time>2014-05-19T07:44:30Z</time>
      </trkpt>
      <trkpt lat="45.113565567880869" lon="5.695534972473979">
        <ele>256.39999389648437</ele>
        <time>2014-05-19T07:44:33Z</time>
      </trkpt>
      <trkpt lat="45.113418130204082" lon="5.695406226441264">
        <ele>256.79998779296875</ele>
        <time>2014-05-19T07:44:37Z</time>
      </trkpt>
      <trkpt lat="45.113346800208092" lon="5.695337578654289">
        <ele>256.60000610351562</ele>
        <time>2014-05-19T07:44:39Z</time>
      </trkpt>
      <trkpt lat="45.113221071660519" lon="5.695258369669318">
        <ele>256.60000610351562</ele>
        <time>2014-05-19T07:44:42Z</time>
      </trkpt>
      <trkpt lat="45.113177904859185" lon="5.695242192596197">
        <ele>256.79998779296875</ele>
        <time>2014-05-19T07:44:43Z</time>
      </trkpt>
      <trkpt lat="45.112943882122636" lon="5.695148482918739">
        <ele>256.60000610351562</ele>
        <time>2014-05-19T07:44:48Z</time>
      </trkpt>
      <trkpt lat="45.112659567967057" lon="5.695127276703715">
        <ele>256.79998779296875</ele>
        <time>2014-05-19T07:44:54Z</time>
      </trkpt>
      <trkpt lat="45.112518332898617" lon="5.695114117115736">
        <ele>256.79998779296875</ele>
        <time>2014-05-19T07:44:57Z</time>
      </trkpt>
      <trkpt lat="45.112421857193112" lon="5.695084528997541">
        <ele>257</ele>
        <time>2014-05-19T07:44:59Z</time>
      </trkpt>
      <trkpt lat="45.112231504172087" lon="5.695069022476673">
        <ele>256.39999389648437</ele>
        <time>2014-05-19T07:45:03Z</time>
      </trkpt>
      <trkpt lat="45.112187582999468" lon="5.695070028305054">
        <ele>256.39999389648437</ele>
        <time>2014-05-19T07:45:04Z</time>
      </trkpt>
      <trkpt lat="45.112138884142041" lon="5.695073213428259">
        <ele>256.39999389648437</ele>
        <time>2014-05-19T07:45:05Z</time>
      </trkpt>
      <trkpt lat="45.111886085942388" lon="5.695112273097038">
        <ele>256.39999389648437</ele>
        <time>2014-05-19T07:45:10Z</time>
      </trkpt>
      <trkpt lat="45.111679639667273" lon="5.695165498182178">
        <ele>256.60000610351562</ele>
        <time>2014-05-19T07:45:14Z</time>
      </trkpt>
      <trkpt lat="45.111578637734056" lon="5.695185447111726">
        <ele>256.79998779296875</ele>
        <time>2014-05-19T07:45:16Z</time>
      </trkpt>
      <trkpt lat="45.111483335494995" lon="5.695209000259638">
        <ele>256.79998779296875</ele>
        <time>2014-05-19T07:45:18Z</time>
      </trkpt>
      <trkpt lat="45.111325839534402" lon="5.69521201774478">
        <ele>257.20001220703125</ele>
        <time>2014-05-19T07:45:21Z</time>
      </trkpt>
      <trkpt lat="45.111274793744087" lon="5.69520765915513">
        <ele>257.20001220703125</ele>
        <time>2014-05-19T07:45:22Z</time>
      </trkpt>
      <trkpt lat="45.111218132078648" lon="5.69518662057817">
        <ele>257.20001220703125</ele>
        <time>2014-05-19T07:45:23Z</time>
      </trkpt>
      <trkpt lat="45.11106432415545" lon="5.695076147094369">
        <ele>257</ele>
        <time>2014-05-19T07:45:26Z</time>
      </trkpt>
      <trkpt lat="45.110938930884004" lon="5.694947149604559">
        <ele>256.60000610351562</ele>
        <time>2014-05-19T07:45:29Z</time>
      </trkpt>
      <trkpt lat="45.110830888152122" lon="5.694811111316085">
        <ele>256.39999389648437</ele>
        <time>2014-05-19T07:45:32Z</time>
      </trkpt>
      <trkpt lat="45.110666938126087" lon="5.694626541808248">
        <ele>256.79998779296875</ele>
        <time>2014-05-19T07:45:37Z</time>
      </trkpt>
      <trkpt lat="45.11062796227634" lon="5.694605838507414">
        <ele>256.79998779296875</ele>
        <time>2014-05-19T07:45:38Z</time>
      </trkpt>
      <trkpt lat="45.110423024743795" lon="5.694498047232628">
        <ele>257</ele>
        <time>2014-05-19T07:45:43Z</time>
      </trkpt>
      <trkpt lat="45.110384719446301" lon="5.694461921229959">
        <ele>257</ele>
        <time>2014-05-19T07:45:44Z</time>
      </trkpt>
      <trkpt lat="45.110198222100735" lon="5.694259665906429">
        <ele>257.20001220703125</ele>
        <time>2014-05-19T07:45:50Z</time>
      </trkpt>
      <trkpt lat="45.110057154670358" lon="5.694126226007938">
        <ele>257.20001220703125</ele>
        <time>2014-05-19T07:45:54Z</time>
      </trkpt>
      <trkpt lat="45.110019939020276" lon="5.69410334341228">
        <ele>257</ele>
        <time>2014-05-19T07:45:55Z</time>
      </trkpt>
      <trkpt lat="45.109851127490401" lon="5.694045005366206">
        <ele>257</ele>
        <time>2014-05-19T07:45:59Z</time>
      </trkpt>
      <trkpt lat="45.109552312642336" lon="5.693957163020968">
        <ele>257.20001220703125</ele>
        <time>2014-05-19T07:46:06Z</time>
      </trkpt>
      <trkpt lat="45.109239248558879" lon="5.693826070055366">
        <ele>257.60000610351562</ele>
        <time>2014-05-19T07:46:13Z</time>
      </trkpt>
      <trkpt lat="45.109204966574907" lon="5.693821543827653">
        <ele>257.79998779296875</ele>
        <time>2014-05-19T07:46:14Z</time>
      </trkpt>
      <trkpt lat="45.109062977135181" lon="5.693806456401944">
        <ele>258.60000610351562</ele>
        <time>2014-05-19T07:46:18Z</time>
      </trkpt>
      <trkpt lat="45.108958706259727" lon="5.693816933780909">
        <ele>258.79998779296875</ele>
        <time>2014-05-19T07:46:20Z</time>
      </trkpt>
      <trkpt lat="45.108871283009648" lon="5.693862615153194">
        <ele>258.60000610351562</ele>
        <time>2014-05-19T07:46:22Z</time>
      </trkpt>
      <trkpt lat="45.108602726832032" lon="5.694083645939827">
        <ele>258.60000610351562</ele>
        <time>2014-05-19T07:46:29Z</time>
      </trkpt>
      <trkpt lat="45.108418660238385" lon="5.694302329793572">
        <ele>258.39999389648437</ele>
        <time>2014-05-19T07:46:34Z</time>
      </trkpt>
      <trkpt lat="45.108335260301828" lon="5.694382209330797">
        <ele>258.20001220703125</ele>
        <time>2014-05-19T07:46:36Z</time>
      </trkpt>
      <trkpt lat="45.108149014413357" lon="5.694598546251655">
        <ele>258.60000610351562</ele>
        <time>2014-05-19T07:46:41Z</time>
      </trkpt>
      <trkpt lat="45.108106937259436" lon="5.694642970338464">
        <ele>258.39999389648437</ele>
        <time>2014-05-19T07:46:42Z</time>
      </trkpt>
      <trkpt lat="45.107903759926558" lon="5.694844052195549">
        <ele>258.60000610351562</ele>
        <time>2014-05-19T07:46:47Z</time>
      </trkpt>
      <trkpt lat="45.107789933681488" lon="5.69495745934546">
        <ele>259</ele>
        <time>2014-05-19T07:46:50Z</time>
      </trkpt>
      <trkpt lat="45.107680549845099" lon="5.695068351924419">
        <ele>258.60000610351562</ele>
        <time>2014-05-19T07:46:53Z</time>
      </trkpt>
      <trkpt lat="45.107398331165314" lon="5.695337662473321">
        <ele>259.20001220703125</ele>
        <time>2014-05-19T07:47:00Z</time>
      </trkpt>
      <trkpt lat="45.107148215174675" lon="5.695602111518383">
        <ele>259.20001220703125</ele>
        <time>2014-05-19T07:47:06Z</time>
      </trkpt>
      <trkpt lat="45.106887705624104" lon="5.695893885567784">
        <ele>259</ele>
        <time>2014-05-19T07:47:12Z</time>
      </trkpt>
      <trkpt lat="45.106811011210084" lon="5.695981979370117">
        <ele>258.79998779296875</ele>
        <time>2014-05-19T07:47:14Z</time>
      </trkpt>
      <trkpt lat="45.10664714500308" lon="5.696142492815852">
        <ele>259.39999389648438</ele>
        <time>2014-05-19T07:47:18Z</time>
      </trkpt>
      <trkpt lat="45.106608085334301" lon="5.696184569969773">
        <ele>259.39999389648438</ele>
        <time>2014-05-19T07:47:19Z</time>
      </trkpt>
      <trkpt lat="45.106576401740313" lon="5.696230418980122">
        <ele>259.60000610351562</ele>
        <time>2014-05-19T07:47:20Z</time>
      </trkpt>
      <trkpt lat="45.106420917436481" lon="5.696392860263586">
        <ele>259.39999389648438</ele>
        <time>2014-05-19T07:47:24Z</time>
      </trkpt>
      <trkpt lat="45.106104500591755" lon="5.696731572970748">
        <ele>259.60000610351562</ele>
        <time>2014-05-19T07:47:32Z</time>
      </trkpt>
      <trkpt lat="45.105949686840177" lon="5.696888482198119">
        <ele>259.79998779296875</ele>
        <time>2014-05-19T07:47:36Z</time>
      </trkpt>
      <trkpt lat="45.105827562510967" lon="5.697004403918982">
        <ele>259.60000610351562</ele>
        <time>2014-05-19T07:47:39Z</time>
      </trkpt>
      <trkpt lat="45.105541488155723" lon="5.697329957038164">
        <ele>259.79998779296875</ele>
        <time>2014-05-19T07:47:46Z</time>
      </trkpt>
      <trkpt lat="45.105345603078604" lon="5.697548473253846">
        <ele>260.39999389648437</ele>
        <time>2014-05-19T07:47:51Z</time>
      </trkpt>
      <trkpt lat="45.105261700227857" lon="5.697637321427465">
        <ele>260.20001220703125</ele>
        <time>2014-05-19T07:47:53Z</time>
      </trkpt>
      <trkpt lat="45.105069503188133" lon="5.697846533730626">
        <ele>260.20001220703125</ele>
        <time>2014-05-19T07:47:58Z</time>
      </trkpt>
      <trkpt lat="45.104985432699323" lon="5.697923479601741">
        <ele>260.39999389648437</ele>
        <time>2014-05-19T07:48:00Z</time>
      </trkpt>
      <trkpt lat="45.104820895940065" lon="5.698110731318593">
        <ele>260.60000610351562</ele>
        <time>2014-05-19T07:48:04Z</time>
      </trkpt>
      <trkpt lat="45.104537755250931" lon="5.698442654684186">
        <ele>260.60000610351562</ele>
        <time>2014-05-19T07:48:11Z</time>
      </trkpt>
      <trkpt lat="45.104497438296676" lon="5.698487414047122">
        <ele>260.79998779296875</ele>
        <time>2014-05-19T07:48:12Z</time>
      </trkpt>
      <trkpt lat="45.104218404740095" lon="5.698813470080495">
        <ele>260.79998779296875</ele>
        <time>2014-05-19T07:48:19Z</time>
      </trkpt>
      <trkpt lat="45.103929899632931" lon="5.699124606326222">
        <ele>260.79998779296875</ele>
        <time>2014-05-19T07:48:26Z</time>
      </trkpt>
      <trkpt lat="45.103896372020245" lon="5.699176574125886">
        <ele>260.79998779296875</ele>
        <time>2014-05-19T07:48:27Z</time>
      </trkpt>
      <trkpt lat="45.103728901594877" lon="5.699369022622705">
        <ele>260.79998779296875</ele>
        <time>2014-05-19T07:48:31Z</time>
      </trkpt>
      <trkpt lat="45.103557743132114" lon="5.699557531625032">
        <ele>260.79998779296875</ele>
        <time>2014-05-19T07:48:35Z</time>
      </trkpt>
      <trkpt lat="45.103472415357828" lon="5.699638081714511">
        <ele>261</ele>
        <time>2014-05-19T07:48:37Z</time>
      </trkpt>
      <trkpt lat="45.103230094537139" lon="5.699875792488456">
        <ele>261.39999389648437</ele>
        <time>2014-05-19T07:48:43Z</time>
      </trkpt>
      <trkpt lat="45.1030576787889" lon="5.699995737522841">
        <ele>262</ele>
        <time>2014-05-19T07:48:47Z</time>
      </trkpt>
      <trkpt lat="45.103018954396248" lon="5.700020547956228">
        <ele>262.20001220703125</ele>
        <time>2014-05-19T07:48:48Z</time>
      </trkpt>
      <trkpt lat="45.102932788431644" lon="5.700061870738864">
        <ele>262</ele>
        <time>2014-05-19T07:48:50Z</time>
      </trkpt>
      <trkpt lat="45.102765234187245" lon="5.700124735012651">
        <ele>262.60000610351562</ele>
        <time>2014-05-19T07:48:54Z</time>
      </trkpt>
      <trkpt lat="45.102640595287085" lon="5.700176954269409">
        <ele>262.79998779296875</ele>
        <time>2014-05-19T07:48:57Z</time>
      </trkpt>
      <trkpt lat="45.102553172037005" lon="5.700203441083431">
        <ele>263.39999389648437</ele>
        <time>2014-05-19T07:48:59Z</time>
      </trkpt>
      <trkpt lat="45.102432472631335" lon="5.700225653126836">
        <ele>263.20001220703125</ele>
        <time>2014-05-19T07:49:02Z</time>
      </trkpt>
      <trkpt lat="45.102155869826674" lon="5.700225569307804">
        <ele>263.79998779296875</ele>
        <time>2014-05-19T07:49:08Z</time>
      </trkpt>
      <trkpt lat="45.101793520152569" lon="5.700144600123167">
        <ele>264</ele>
        <time>2014-05-19T07:49:16Z</time>
      </trkpt>
      <trkpt lat="45.101702325046062" lon="5.700109899044037">
        <ele>264.39999389648437</ele>
        <time>2014-05-19T07:49:18Z</time>
      </trkpt>
      <trkpt lat="45.101618841290474" lon="5.700055919587612">
        <ele>264.39999389648437</ele>
        <time>2014-05-19T07:49:20Z</time>
      </trkpt>
      <trkpt lat="45.101528065279126" lon="5.699998419731855">
        <ele>264.20001220703125</ele>
        <time>2014-05-19T07:49:22Z</time>
      </trkpt>
      <trkpt lat="45.101133193820715" lon="5.699719972908497">
        <ele>264.20001220703125</ele>
        <time>2014-05-19T07:49:31Z</time>
      </trkpt>
      <trkpt lat="45.100719798356295" lon="5.69940347224474">
        <ele>265.20001220703125</ele>
        <time>2014-05-19T07:49:41Z</time>
      </trkpt>
      <trkpt lat="45.100641427561641" lon="5.699342116713524">
        <ele>265.60000610351562</ele>
        <time>2014-05-19T07:49:43Z</time>
      </trkpt>
      <trkpt lat="45.100412014871836" lon="5.699176825582981">
        <ele>266.20001220703125</ele>
        <time>2014-05-19T07:49:49Z</time>
      </trkpt>
      <trkpt lat="45.100296176970005" lon="5.699090659618378">
        <ele>266.60000610351562</ele>
        <time>2014-05-19T07:49:52Z</time>
      </trkpt>
      <trkpt lat="45.100106662139297" lon="5.698943473398686">
        <ele>266.79998779296875</ele>
        <time>2014-05-19T07:49:57Z</time>
      </trkpt>
      <trkpt lat="45.09977750480175" lon="5.69870232604444">
        <ele>266.79998779296875</ele>
        <time>2014-05-19T07:50:05Z</time>
      </trkpt>
      <trkpt lat="45.09953903965652" lon="5.698522701859474">
        <ele>267.20001220703125</ele>
        <time>2014-05-19T07:50:11Z</time>
      </trkpt>
      <trkpt lat="45.09946770966053" lon="5.698460172861815">
        <ele>267.39999389648437</ele>
        <time>2014-05-19T07:50:13Z</time>
      </trkpt>
      <trkpt lat="45.099401157349348" lon="5.69839445874095">
        <ele>267.79998779296875</ele>
        <time>2014-05-19T07:50:15Z</time>
      </trkpt>
      <trkpt lat="45.099329072982073" lon="5.698323380202055">
        <ele>269</ele>
        <time>2014-05-19T07:50:18Z</time>
      </trkpt>
      <trkpt lat="45.099313566461205" lon="5.698291109874845">
        <ele>269</ele>
        <time>2014-05-19T07:50:19Z</time>
      </trkpt>
      <trkpt lat="45.099234357476234" lon="5.698205782100558">
        <ele>269.60000610351562</ele>
        <time>2014-05-19T07:50:24Z</time>
      </trkpt>
      <trkpt lat="45.099199907854199" lon="5.698206955567002">
        <ele>270</ele>
        <time>2014-05-19T07:50:26Z</time>
      </trkpt>
      <trkpt lat="45.099143413826823" lon="5.698177367448807">
        <ele>270</ele>
        <time>2014-05-19T07:50:29Z</time>
      </trkpt>
      <trkpt lat="45.098991198465228" lon="5.698077790439129">
        <ele>269.60000610351562</ele>
        <time>2014-05-19T07:50:35Z</time>
      </trkpt>
      <trkpt lat="45.098850969225168" lon="5.697995647788048">
        <ele>268.79998779296875</ele>
        <time>2014-05-19T07:50:39Z</time>
      </trkpt>
      <trkpt lat="45.098775699734688" lon="5.697947032749653">
        <ele>268.60000610351562</ele>
        <time>2014-05-19T07:50:41Z</time>
      </trkpt>
      <trkpt lat="45.098575623705983" lon="5.697815604507923">
        <ele>269</ele>
        <time>2014-05-19T07:50:48Z</time>
      </trkpt>
      <trkpt lat="45.098459785804152" lon="5.697684343904257">
        <ele>269</ele>
        <time>2014-05-19T07:50:54Z</time>
      </trkpt>
      <trkpt lat="45.098412679508328" lon="5.697642769664526">
        <ele>269.60000610351562</ele>
        <time>2014-05-19T07:51:00Z</time>
      </trkpt>
      <trkpt lat="45.098341014236212" lon="5.697624580934644">
        <ele>269.39999389648437</ele>
        <time>2014-05-19T07:51:04Z</time>
      </trkpt>
      <trkpt lat="45.09828720241785" lon="5.697579570114613">
        <ele>269.20001220703125</ele>
        <time>2014-05-19T07:51:06Z</time>
      </trkpt>
      <trkpt lat="45.098108416423202" lon="5.697455601766706">
        <ele>268.60000610351562</ele>
        <time>2014-05-19T07:51:11Z</time>
      </trkpt>
      <trkpt lat="45.097749335691333" lon="5.697197606787086">
        <ele>269.20001220703125</ele>
        <time>2014-05-19T07:51:21Z</time>
      </trkpt>
      <trkpt lat="45.097533166408539" lon="5.697026867419481">
        <ele>269.20001220703125</ele>
        <time>2014-05-19T07:51:27Z</time>
      </trkpt>
      <trkpt lat="45.097307106480002" lon="5.696861492469907">
        <ele>269.39999389648437</ele>
        <time>2014-05-19T07:51:33Z</time>
      </trkpt>
      <trkpt lat="45.097263352945447" lon="5.696829557418823">
        <ele>269.20001220703125</ele>
        <time>2014-05-19T07:51:34Z</time>
      </trkpt>
      <trkpt lat="45.097122369334102" lon="5.696705840528011">
        <ele>269.79998779296875</ele>
        <time>2014-05-19T07:51:38Z</time>
      </trkpt>
      <trkpt lat="45.097051039338112" lon="5.696644484996796">
        <ele>269.60000610351562</ele>
        <time>2014-05-19T07:51:40Z</time>
      </trkpt>
      <trkpt lat="45.096980044618249" lon="5.696578938513994">
        <ele>270</ele>
        <time>2014-05-19T07:51:42Z</time>
      </trkpt>
      <trkpt lat="45.096839396283031" lon="5.69645170122385">
        <ele>269.60000610351562</ele>
        <time>2014-05-19T07:51:46Z</time>
      </trkpt>
      <trkpt lat="45.096645355224609" lon="5.696260929107666">
        <ele>270.39999389648437</ele>
        <time>2014-05-19T07:51:52Z</time>
      </trkpt>
      <trkpt lat="45.096415774896741" lon="5.696028415113688">
        <ele>270.60000610351562</ele>
        <time>2014-05-19T07:51:59Z</time>
      </trkpt>
      <trkpt lat="45.096147805452347" lon="5.695741586387157">
        <ele>270.79998779296875</ele>
        <time>2014-05-19T07:52:08Z</time>
      </trkpt>
      <trkpt lat="45.095983855426311" lon="5.695573696866632">
        <ele>270.39999389648437</ele>
        <time>2014-05-19T07:52:13Z</time>
      </trkpt>
      <trkpt lat="45.095919063314795" lon="5.695495074614883">
        <ele>270.60000610351562</ele>
        <time>2014-05-19T07:52:15Z</time>
      </trkpt>
      <trkpt lat="45.095854019746184" lon="5.695417625829577">
        <ele>271</ele>
        <time>2014-05-19T07:52:17Z</time>
      </trkpt>
      <trkpt lat="45.095630306750536" lon="5.695173377171159">
        <ele>271.60000610351562</ele>
        <time>2014-05-19T07:52:24Z</time>
      </trkpt>
      <trkpt lat="45.095363175496459" lon="5.694898534566164">
        <ele>271.39999389648437</ele>
        <time>2014-05-19T07:52:32Z</time>
      </trkpt>
      <trkpt lat="45.095107359811664" lon="5.694630313664675">
        <ele>271.60000610351562</ele>
        <time>2014-05-19T07:52:40Z</time>
      </trkpt>
      <trkpt lat="45.094780214130878" lon="5.694320853799582">
        <ele>271.79998779296875</ele>
        <time>2014-05-19T07:52:49Z</time>
      </trkpt>
      <trkpt lat="45.094706788659096" lon="5.694254636764526">
        <ele>272</ele>
        <time>2014-05-19T07:52:51Z</time>
      </trkpt>
      <trkpt lat="45.094402525573969" lon="5.693975770846009">
        <ele>272.39999389648437</ele>
        <time>2014-05-19T07:52:59Z</time>
      </trkpt>
      <trkpt lat="45.094141513109207" lon="5.69375398568809">
        <ele>273.20001220703125</ele>
        <time>2014-05-19T07:53:06Z</time>
      </trkpt>
      <trkpt lat="45.094062890857458" lon="5.693691121414304">
        <ele>273</ele>
        <time>2014-05-19T07:53:08Z</time>
      </trkpt>
      <trkpt lat="45.093825599178672" lon="5.693491799756885">
        <ele>273.39999389648437</ele>
        <time>2014-05-19T07:53:14Z</time>
      </trkpt>
      <trkpt lat="45.093506500124931" lon="5.693229697644711">
        <ele>273.79998779296875</ele>
        <time>2014-05-19T07:53:22Z</time>
      </trkpt>
      <trkpt lat="45.093468362465501" lon="5.693200612440705">
        <ele>274</ele>
        <time>2014-05-19T07:53:23Z</time>
      </trkpt>
      <trkpt lat="45.093356631696224" lon="5.693102711811662">
        <ele>273.79998779296875</ele>
        <time>2014-05-19T07:53:26Z</time>
      </trkpt>
      <trkpt lat="45.093321930617094" lon="5.693067340180278">
        <ele>274.20001220703125</ele>
        <time>2014-05-19T07:53:27Z</time>
      </trkpt>
      <trkpt lat="45.093284379690886" lon="5.693037584424019">
        <ele>274.20001220703125</ele>
        <time>2014-05-19T07:53:28Z</time>
      </trkpt>
      <trkpt lat="45.092931920662522" lon="5.692742373794317">
        <ele>274.60000610351562</ele>
        <time>2014-05-19T07:53:37Z</time>
      </trkpt>
      <trkpt lat="45.092597818002105" lon="5.692459233105183">
        <ele>275</ele>
        <time>2014-05-19T07:53:45Z</time>
      </trkpt>
      <trkpt lat="45.092400843277574" lon="5.692297127097845">
        <ele>275.60000610351562</ele>
        <time>2014-05-19T07:53:50Z</time>
      </trkpt>
      <trkpt lat="45.092216609045863" lon="5.692142900079489">
        <ele>276</ele>
        <time>2014-05-19T07:53:55Z</time>
      </trkpt>
      <trkpt lat="45.092180063948035" lon="5.692110797390342">
        <ele>275.60000610351562</ele>
        <time>2014-05-19T07:53:56Z</time>
      </trkpt>
      <trkpt lat="45.092023070901632" lon="5.691979955881834">
        <ele>275.79998779296875</ele>
        <time>2014-05-19T07:54:00Z</time>
      </trkpt>
      <trkpt lat="45.091944616287947" lon="5.691913068294525">
        <ele>275.79998779296875</ele>
        <time>2014-05-19T07:54:02Z</time>
      </trkpt>
      <trkpt lat="45.091904634609818" lon="5.691878199577332">
        <ele>276</ele>
        <time>2014-05-19T07:54:03Z</time>
      </trkpt>
      <trkpt lat="45.09182408452034" lon="5.69181608967483">
        <ele>276</ele>
        <time>2014-05-19T07:54:05Z</time>
      </trkpt>
      <trkpt lat="45.091540021821856" lon="5.691572846844792">
        <ele>276.20001220703125</ele>
        <time>2014-05-19T07:54:12Z</time>
      </trkpt>
      <trkpt lat="45.091463411226869" lon="5.691503109410405">
        <ele>276.60000610351562</ele>
        <time>2014-05-19T07:54:14Z</time>
      </trkpt>
      <trkpt lat="45.091190747916698" lon="5.691238408908248">
        <ele>276.79998779296875</ele>
        <time>2014-05-19T07:54:21Z</time>
      </trkpt>
      <trkpt lat="45.091024367138743" lon="5.691121900454164">
        <ele>277.20001220703125</ele>
        <time>2014-05-19T07:54:26Z</time>
      </trkpt>
      <trkpt lat="45.090743657201529" lon="5.690885279327631">
        <ele>277.20001220703125</ele>
        <time>2014-05-19T07:54:34Z</time>
      </trkpt>
      <trkpt lat="45.090631926432252" lon="5.690792659297586">
        <ele>277.60000610351562</ele>
        <time>2014-05-19T07:54:37Z</time>
      </trkpt>
      <trkpt lat="45.090392623096704" lon="5.690599959343672">
        <ele>277.79998779296875</ele>
        <time>2014-05-19T07:54:43Z</time>
      </trkpt>
      <trkpt lat="45.090312995016575" lon="5.690535334870219">
        <ele>278</ele>
        <time>2014-05-19T07:54:45Z</time>
      </trkpt>
      <trkpt lat="45.090155499055982" lon="5.690399380400777">
        <ele>278</ele>
        <time>2014-05-19T07:54:49Z</time>
      </trkpt>
      <trkpt lat="45.089776469394565" lon="5.69008874706924">
        <ele>278.79998779296875</ele>
        <time>2014-05-19T07:54:59Z</time>
      </trkpt>
      <trkpt lat="45.089543620124459" lon="5.689900070428848">
        <ele>278.79998779296875</ele>
        <time>2014-05-19T07:55:06Z</time>
      </trkpt>
      <trkpt lat="45.089289899915457" lon="5.689692283049226">
        <ele>279.20001220703125</ele>
        <time>2014-05-19T07:55:13Z</time>
      </trkpt>
      <trkpt lat="45.089110527187586" lon="5.689524980261922">
        <ele>279.79998779296875</ele>
        <time>2014-05-19T07:55:18Z</time>
      </trkpt>
      <trkpt lat="45.089003657922149" lon="5.689430348575115">
        <ele>279.60000610351562</ele>
        <time>2014-05-19T07:55:21Z</time>
      </trkpt>
      <trkpt lat="45.088969711214304" lon="5.689399335533381">
        <ele>279.60000610351562</ele>
        <time>2014-05-19T07:55:22Z</time>
      </trkpt>
      <trkpt lat="45.088817495852709" lon="5.689263213425875">
        <ele>279.79998779296875</ele>
        <time>2014-05-19T07:55:26Z</time>
      </trkpt>
      <trkpt lat="45.088524045422673" lon="5.689008235931397">
        <ele>280.39999389648437</ele>
        <time>2014-05-19T07:55:34Z</time>
      </trkpt>
      <trkpt lat="45.088163623586297" lon="5.688722329214215">
        <ele>280.79998779296875</ele>
        <time>2014-05-19T07:55:44Z</time>
      </trkpt>
      <trkpt lat="45.088127162307501" lon="5.68869274109602">
        <ele>280.79998779296875</ele>
        <time>2014-05-19T07:55:45Z</time>
      </trkpt>
      <trkpt lat="45.087969247251749" lon="5.688569443300366">
        <ele>281.39999389648437</ele>
        <time>2014-05-19T07:55:50Z</time>
      </trkpt>
      <trkpt lat="45.087753748521209" lon="5.688409181311727">
        <ele>281.60000610351562</ele>
        <time>2014-05-19T07:55:57Z</time>
      </trkpt>
      <trkpt lat="45.087453927844763" lon="5.688200807198882">
        <ele>281.79998779296875</ele>
        <time>2014-05-19T07:56:06Z</time>
      </trkpt>
      <trkpt lat="45.087285283952951" lon="5.68808295764029">
        <ele>282</ele>
        <time>2014-05-19T07:56:11Z</time>
      </trkpt>
      <trkpt lat="45.087218396365643" lon="5.688043478876352">
        <ele>282</ele>
        <time>2014-05-19T07:56:13Z</time>
      </trkpt>
      <trkpt lat="45.087070623412728" lon="5.68794272840023">
        <ele>282.79998779296875</ele>
        <time>2014-05-19T07:56:19Z</time>
      </trkpt>
      <trkpt lat="45.087058804929256" lon="5.687934681773186">
        <ele>283</ele>
        <time>2014-05-19T07:56:20Z</time>
      </trkpt>
      <trkpt lat="45.087034916505218" lon="5.687931161373854">
        <ele>283.20001220703125</ele>
        <time>2014-05-19T07:56:25Z</time>
      </trkpt>
      <trkpt lat="45.087016057223082" lon="5.687934178858995">
        <ele>283.20001220703125</ele>
        <time>2014-05-19T07:56:26Z</time>
      </trkpt>
      <trkpt lat="45.086960317566991" lon="5.688041131943464">
        <ele>283</ele>
        <time>2014-05-19T07:56:31Z</time>
      </trkpt>
      <trkpt lat="45.086953528225422" lon="5.688075413927436">
        <ele>283.20001220703125</ele>
        <time>2014-05-19T07:56:32Z</time>
      </trkpt>
      <trkpt lat="45.086888484656811" lon="5.688292840495706">
        <ele>283.39999389648437</ele>
        <time>2014-05-19T07:56:38Z</time>
      </trkpt>
      <trkpt lat="45.086832996457815" lon="5.688481349498034">
        <ele>283.20001220703125</ele>
        <time>2014-05-19T07:56:44Z</time>
      </trkpt>
      <trkpt lat="45.08681908249855" lon="5.688694668933749">
        <ele>282.39999389648438</ele>
        <time>2014-05-19T07:56:49Z</time>
      </trkpt>
      <trkpt lat="45.086814220994711" lon="5.688801286742091">
        <ele>281.79998779296875</ele>
        <time>2014-05-19T07:56:51Z</time>
      </trkpt>
      <trkpt lat="45.086770383641124" lon="5.689065651968122">
        <ele>281.60000610351562</ele>
        <time>2014-05-19T07:56:56Z</time>
      </trkpt>
      <trkpt lat="45.086748758330941" lon="5.689113680273294">
        <ele>281.20001220703125</ele>
        <time>2014-05-19T07:56:57Z</time>
      </trkpt>
      <trkpt lat="45.086641302332282" lon="5.689215017482638">
        <ele>281.39999389648437</ele>
        <time>2014-05-19T07:57:00Z</time>
      </trkpt>
      <trkpt lat="45.086528062820435" lon="5.689221303910017">
        <ele>281.20001220703125</ele>
        <time>2014-05-19T07:57:03Z</time>
      </trkpt>
      <trkpt lat="45.086496043950319" lon="5.68921166472137">
        <ele>281.39999389648437</ele>
        <time>2014-05-19T07:57:04Z</time>
      </trkpt>
      <trkpt lat="45.086298063397408" lon="5.689079565927386">
        <ele>281.60000610351562</ele>
        <time>2014-05-19T07:57:10Z</time>
      </trkpt>
      <trkpt lat="45.086036883294582" lon="5.688889464363456">
        <ele>281.39999389648437</ele>
        <time>2014-05-19T07:57:17Z</time>
      </trkpt>
      <trkpt lat="45.085754999890924" lon="5.68870690651238">
        <ele>282.20001220703125</ele>
        <time>2014-05-19T07:57:24Z</time>
      </trkpt>
      <trkpt lat="45.08546750061214" lon="5.688512865453959">
        <ele>282.79998779296875</ele>
        <time>2014-05-19T07:57:31Z</time>
      </trkpt>
      <trkpt lat="45.085426345467567" lon="5.688487216830254">
        <ele>282.79998779296875</ele>
        <time>2014-05-19T07:57:32Z</time>
      </trkpt>
      <trkpt lat="45.085182683542371" lon="5.688332822173834">
        <ele>283</ele>
        <time>2014-05-19T07:57:38Z</time>
      </trkpt>
      <trkpt lat="45.084983361884952" lon="5.688199382275343">
        <ele>283</ele>
        <time>2014-05-19T07:57:43Z</time>
      </trkpt>
      <trkpt lat="45.084902392700315" lon="5.688144732266665">
        <ele>283</ele>
        <time>2014-05-19T07:57:45Z</time>
      </trkpt>
      <trkpt lat="45.084860567003489" lon="5.688121849671006">
        <ele>283</ele>
        <time>2014-05-19T07:57:46Z</time>
      </trkpt>
      <trkpt lat="45.084689324721694" lon="5.688052112236619">
        <ele>283</ele>
        <time>2014-05-19T07:57:50Z</time>
      </trkpt>
      <trkpt lat="45.084644481539726" lon="5.688033169135451">
        <ele>283.20001220703125</ele>
        <time>2014-05-19T07:57:51Z</time>
      </trkpt>
      <trkpt lat="45.08451665751636" lon="5.687987571582198">
        <ele>283.20001220703125</ele>
        <time>2014-05-19T07:57:54Z</time>
      </trkpt>
      <trkpt lat="45.084475334733725" lon="5.687976256012917">
        <ele>283.39999389648437</ele>
        <time>2014-05-19T07:57:55Z</time>
      </trkpt>
      <trkpt lat="45.084367794916034" lon="5.687916912138462">
        <ele>283.39999389648437</ele>
        <time>2014-05-19T07:57:58Z</time>
      </trkpt>
      <trkpt lat="45.084347426891327" lon="5.687880869954824">
        <ele>283.60000610351562</ele>
        <time>2014-05-19T07:57:59Z</time>
      </trkpt>
      <trkpt lat="45.084330579265952" lon="5.687796548008919">
        <ele>284</ele>
        <time>2014-05-19T07:58:01Z</time>
      </trkpt>
      <trkpt lat="45.084372153505683" lon="5.687652714550495">
        <ele>284</ele>
        <time>2014-05-19T07:58:04Z</time>
      </trkpt>
      <trkpt lat="45.084389923140407" lon="5.687599908560515">
        <ele>284</ele>
        <time>2014-05-19T07:58:05Z</time>
      </trkpt>
      <trkpt lat="45.084408950060606" lon="5.687547102570534">
        <ele>284</ele>
        <time>2014-05-19T07:58:06Z</time>
      </trkpt>
      <trkpt lat="45.084447842091322" lon="5.687310984358192">
        <ele>284.20001220703125</ele>
        <time>2014-05-19T07:58:10Z</time>
      </trkpt>
      <trkpt lat="45.084377182647586" lon="5.687149967998266">
        <ele>284</ele>
        <time>2014-05-19T07:58:13Z</time>
      </trkpt>
      <trkpt lat="45.084294704720378" lon="5.687087690457702">
        <ele>284</ele>
        <time>2014-05-19T07:58:15Z</time>
      </trkpt>
      <trkpt lat="45.084159504622221" lon="5.68700747564435">
        <ele>283.79998779296875</ele>
        <time>2014-05-19T07:58:18Z</time>
      </trkpt>
      <trkpt lat="45.083856750279665" lon="5.686832293868065">
        <ele>284.39999389648437</ele>
        <time>2014-05-19T07:58:25Z</time>
      </trkpt>
      <trkpt lat="45.083503033965826" lon="5.686631128191948">
        <ele>285</ele>
        <time>2014-05-19T07:58:33Z</time>
      </trkpt>
      <trkpt lat="45.083459280431271" lon="5.686604222282767">
        <ele>285</ele>
        <time>2014-05-19T07:58:34Z</time>
      </trkpt>
      <trkpt lat="45.083059631288052" lon="5.686370618641377">
        <ele>285</ele>
        <time>2014-05-19T07:58:43Z</time>
      </trkpt>
      <trkpt lat="45.082586305215955" lon="5.686112707480788">
        <ele>286</ele>
        <time>2014-05-19T07:58:54Z</time>
      </trkpt>
      <trkpt lat="45.08254649117589" lon="5.686091333627701">
        <ele>286.20001220703125</ele>
        <time>2014-05-19T07:58:55Z</time>
      </trkpt>
      <trkpt lat="45.08216192945838" lon="5.685865944251418">
        <ele>286.79998779296875</ele>
        <time>2014-05-19T07:59:04Z</time>
      </trkpt>
      <trkpt lat="45.081798322498798" lon="5.685661677271128">
        <ele>286.79998779296875</ele>
        <time>2014-05-19T07:59:12Z</time>
      </trkpt>
      <trkpt lat="45.081483917310834" lon="5.685474006459117">
        <ele>287.20001220703125</ele>
        <time>2014-05-19T07:59:19Z</time>
      </trkpt>
      <trkpt lat="45.08139431476593" lon="5.685421200469136">
        <ele>287.20001220703125</ele>
        <time>2014-05-19T07:59:21Z</time>
      </trkpt>
      <trkpt lat="45.081055937334895" lon="5.685232104733586">
        <ele>287.60000610351562</ele>
        <time>2014-05-19T07:59:29Z</time>
      </trkpt>
      <trkpt lat="45.080930627882481" lon="5.685159852728248">
        <ele>288.20001220703125</ele>
        <time>2014-05-19T07:59:32Z</time>
      </trkpt>
      <trkpt lat="45.080689396709204" lon="5.685021635144949">
        <ele>288.60000610351562</ele>
        <time>2014-05-19T07:59:38Z</time>
      </trkpt>
      <trkpt lat="45.080338446423411" lon="5.68481937982142">
        <ele>289</ele>
        <time>2014-05-19T07:59:47Z</time>
      </trkpt>
      <trkpt lat="45.080003337934613" lon="5.684634139761329">
        <ele>289</ele>
        <time>2014-05-19T07:59:55Z</time>
      </trkpt>
      <trkpt lat="45.079869143664837" lon="5.684563647955656">
        <ele>289.20001220703125</ele>
        <time>2014-05-19T07:59:58Z</time>
      </trkpt>
      <trkpt lat="45.079644927754998" lon="5.684434399008751">
        <ele>289.20001220703125</ele>
        <time>2014-05-19T08:00:03Z</time>
      </trkpt>
      <trkpt lat="45.079161627218127" lon="5.684142457321286">
        <ele>290</ele>
        <time>2014-05-19T08:00:14Z</time>
      </trkpt>
      <trkpt lat="45.078981416299939" lon="5.68404246121645">
        <ele>290.20001220703125</ele>
        <time>2014-05-19T08:00:18Z</time>
      </trkpt>
      <trkpt lat="45.078801959753036" lon="5.68394229747355">
        <ele>290.39999389648437</ele>
        <time>2014-05-19T08:00:22Z</time>
      </trkpt>
      <trkpt lat="45.078449165448546" lon="5.683742808178067">
        <ele>290.79998779296875</ele>
        <time>2014-05-19T08:00:30Z</time>
      </trkpt>
      <trkpt lat="45.078321006149054" lon="5.683673489838839">
        <ele>291.39999389648437</ele>
        <time>2014-05-19T08:00:33Z</time>
      </trkpt>
      <trkpt lat="45.078049683943391" lon="5.683516412973404">
        <ele>291</ele>
        <time>2014-05-19T08:00:39Z</time>
      </trkpt>
      <trkpt lat="45.07769538089633" lon="5.68331147544086">
        <ele>290.79998779296875</ele>
        <time>2014-05-19T08:00:47Z</time>
      </trkpt>
      <trkpt lat="45.077318279072642" lon="5.68307988345623">
        <ele>291.39999389648437</ele>
        <time>2014-05-19T08:00:56Z</time>
      </trkpt>
      <trkpt lat="45.077069336548448" lon="5.682944767177105">
        <ele>291.79998779296875</ele>
        <time>2014-05-19T08:01:02Z</time>
      </trkpt>
      <trkpt lat="45.076791560277343" lon="5.682781655341387">
        <ele>292.39999389648437</ele>
        <time>2014-05-19T08:01:09Z</time>
      </trkpt>
      <trkpt lat="45.076748393476009" lon="5.682757012546063">
        <ele>292.39999389648437</ele>
        <time>2014-05-19T08:01:10Z</time>
      </trkpt>
      <trkpt lat="45.07641957141459" lon="5.682556014508009">
        <ele>292.60000610351562</ele>
        <time>2014-05-19T08:01:18Z</time>
      </trkpt>
      <trkpt lat="45.076137017458677" lon="5.68238846026361">
        <ele>292.60000610351562</ele>
        <time>2014-05-19T08:01:25Z</time>
      </trkpt>
      <trkpt lat="45.075933923944831" lon="5.682263737544417">
        <ele>293</ele>
        <time>2014-05-19T08:01:30Z</time>
      </trkpt>
      <trkpt lat="45.075893355533481" lon="5.682237166911364">
        <ele>293</ele>
        <time>2014-05-19T08:01:31Z</time>
      </trkpt>
      <trkpt lat="45.075590265914798" lon="5.682048825547099">
        <ele>293.20001220703125</ele>
        <time>2014-05-19T08:01:39Z</time>
      </trkpt>
      <trkpt lat="45.075518852099776" lon="5.682007083669305">
        <ele>293.39999389648437</ele>
        <time>2014-05-19T08:01:41Z</time>
      </trkpt>
      <trkpt lat="45.075288014486432" lon="5.681867524981499">
        <ele>293.79998779296875</ele>
        <time>2014-05-19T08:01:47Z</time>
      </trkpt>
      <trkpt lat="45.074912337586284" lon="5.681622019037604">
        <ele>293.79998779296875</ele>
        <time>2014-05-19T08:01:56Z</time>
      </trkpt>
      <trkpt lat="45.074559794738889" lon="5.681346673518419">
        <ele>294.60000610351562</ele>
        <time>2014-05-19T08:02:05Z</time>
      </trkpt>
      <trkpt lat="45.074487794190645" lon="5.68128414452076">
        <ele>295</ele>
        <time>2014-05-19T08:02:07Z</time>
      </trkpt>
      <trkpt lat="45.074122846126556" lon="5.680962027981877">
        <ele>295.60000610351562</ele>
        <time>2014-05-19T08:02:17Z</time>
      </trkpt>
      <trkpt lat="45.074045481160283" lon="5.68088592030108">
        <ele>295.60000610351562</ele>
        <time>2014-05-19T08:02:19Z</time>
      </trkpt>
      <trkpt lat="45.073855798691511" lon="5.680697076022625">
        <ele>295.39999389648437</ele>
        <time>2014-05-19T08:02:24Z</time>
      </trkpt>
      <trkpt lat="45.073785642161965" lon="5.680626248940826">
        <ele>295.60000610351562</ele>
        <time>2014-05-19T08:02:26Z</time>
      </trkpt>
      <trkpt lat="45.073604173958302" lon="5.680444948375225">
        <ele>295.60000610351562</ele>
        <time>2014-05-19T08:02:31Z</time>
      </trkpt>
      <trkpt lat="45.073325810953975" lon="5.680223079398274">
        <ele>296.20001220703125</ele>
        <time>2014-05-19T08:02:39Z</time>
      </trkpt>
      <trkpt lat="45.073127914220095" lon="5.680199945345521">
        <ele>296.79998779296875</ele>
        <time>2014-05-19T08:02:44Z</time>
      </trkpt>
      <trkpt lat="45.073095308616757" lon="5.680202962830663">
        <ele>296.79998779296875</ele>
        <time>2014-05-19T08:02:45Z</time>
      </trkpt>
      <trkpt lat="45.072924988344312" lon="5.680236406624317">
        <ele>297.79998779296875</ele>
        <time>2014-05-19T08:02:51Z</time>
      </trkpt>
      <trkpt lat="45.072764558717608" lon="5.680233053863049">
        <ele>298</ele>
        <time>2014-05-19T08:02:57Z</time>
      </trkpt>
      <trkpt lat="45.072621311992407" lon="5.68029273301363">
        <ele>297.39999389648437</ele>
        <time>2014-05-19T08:03:01Z</time>
      </trkpt>
      <trkpt lat="45.072452919557691" lon="5.680352998897433">
        <ele>297</ele>
        <time>2014-05-19T08:03:05Z</time>
      </trkpt>
      <trkpt lat="45.072377063333988" lon="5.680303042754531">
        <ele>297</ele>
        <time>2014-05-19T08:03:07Z</time>
      </trkpt>
      <trkpt lat="45.072311600670218" lon="5.680073546245694">
        <ele>296.79998779296875</ele>
        <time>2014-05-19T08:03:11Z</time>
      </trkpt>
      <trkpt lat="45.072302464395761" lon="5.67995510995388">
        <ele>297</ele>
        <time>2014-05-19T08:03:13Z</time>
      </trkpt>
      <trkpt lat="45.072286119684577" lon="5.679522436112166">
        <ele>297</ele>
        <time>2014-05-19T08:03:20Z</time>
      </trkpt>
      <trkpt lat="45.07227698341012" lon="5.679394025355578">
        <ele>297</ele>
        <time>2014-05-19T08:03:22Z</time>
      </trkpt>
      <trkpt lat="45.072250161319971" lon="5.679241055622697">
        <ele>297</ele>
        <time>2014-05-19T08:03:24Z</time>
      </trkpt>
      <trkpt lat="45.072227697819471" lon="5.679050870239735">
        <ele>299.20001220703125</ele>
        <time>2014-05-19T08:03:28Z</time>
      </trkpt>
      <trkpt lat="45.07219634950161" lon="5.678978282958269">
        <ele>300.20001220703125</ele>
        <time>2014-05-19T08:03:30Z</time>
      </trkpt>
      <trkpt lat="45.072121918201447" lon="5.678880969062448">
        <ele>301</ele>
        <time>2014-05-19T08:03:33Z</time>
      </trkpt>
      <trkpt lat="45.071889823302627" lon="5.678640827536583">
        <ele>301</ele>
        <time>2014-05-19T08:03:40Z</time>
      </trkpt>
      <trkpt lat="45.071744900196791" lon="5.678496910259128">
        <ele>301.20001220703125</ele>
        <time>2014-05-19T08:03:44Z</time>
      </trkpt>
      <trkpt lat="45.071593020111322" lon="5.678342515602708">
        <ele>301.39999389648437</ele>
        <time>2014-05-19T08:03:48Z</time>
      </trkpt>
      <trkpt lat="45.071205357089639" lon="5.677962899208069">
        <ele>301.60000610351562</ele>
        <time>2014-05-19T08:03:58Z</time>
      </trkpt>
      <trkpt lat="45.07098893634975" lon="5.677737342193723">
        <ele>302.39999389648438</ele>
        <time>2014-05-19T08:04:04Z</time>
      </trkpt>
      <trkpt lat="45.07091467268765" lon="5.677666766569018">
        <ele>302.39999389648438</ele>
        <time>2014-05-19T08:04:06Z</time>
      </trkpt>
      <trkpt lat="45.07058341987431" lon="5.677340039983392">
        <ele>302.60000610351562</ele>
        <time>2014-05-19T08:04:15Z</time>
      </trkpt>
      <trkpt lat="45.070289215072989" lon="5.677044745534658">
        <ele>303.20001220703125</ele>
        <time>2014-05-19T08:04:23Z</time>
      </trkpt>
      <trkpt lat="45.070136329159141" lon="5.676896385848522">
        <ele>303.39999389648437</ele>
        <time>2014-05-19T08:04:27Z</time>
      </trkpt>
      <trkpt lat="45.069878585636616" lon="5.67663973197341">
        <ele>303.60000610351562</ele>
        <time>2014-05-19T08:04:34Z</time>
      </trkpt>
      <trkpt lat="45.069613717496395" lon="5.676369080320001">
        <ele>303.60000610351562</ele>
        <time>2014-05-19T08:04:41Z</time>
      </trkpt>
      <trkpt lat="45.069538364186883" lon="5.676283165812492">
        <ele>303.60000610351562</ele>
        <time>2014-05-19T08:04:43Z</time>
      </trkpt>
      <trkpt lat="45.069147935137153" lon="5.675882007926703">
        <ele>304</ele>
        <time>2014-05-19T08:04:53Z</time>
      </trkpt>
      <trkpt lat="45.06907207891345" lon="5.675804140046239">
        <ele>304.20001220703125</ele>
        <time>2014-05-19T08:04:55Z</time>
      </trkpt>
      <trkpt lat="45.068914331495762" lon="5.675651086494327">
        <ele>304.20001220703125</ele>
        <time>2014-05-19T08:04:59Z</time>
      </trkpt>
      <trkpt lat="45.068644685670733" lon="5.675380351021886">
        <ele>304</ele>
        <time>2014-05-19T08:05:06Z</time>
      </trkpt>
      <trkpt lat="45.068384930491447" lon="5.675119590014219">
        <ele>304.39999389648437</ele>
        <time>2014-05-19T08:05:13Z</time>
      </trkpt>
      <trkpt lat="45.068268589675426" lon="5.675011295825243">
        <ele>304.79998779296875</ele>
        <time>2014-05-19T08:05:16Z</time>
      </trkpt>
      <trkpt lat="45.068085780367255" lon="5.674826642498374">
        <ele>304.79998779296875</ele>
        <time>2014-05-19T08:05:21Z</time>
      </trkpt>
      <trkpt lat="45.067980084568262" lon="5.674723125994206">
        <ele>305.20001220703125</ele>
        <time>2014-05-19T08:05:24Z</time>
      </trkpt>
      <trkpt lat="45.067754946649075" lon="5.674496646970511">
        <ele>305.39999389648437</ele>
        <time>2014-05-19T08:05:30Z</time>
      </trkpt>
      <trkpt lat="45.067608430981636" lon="5.67435197532177">
        <ele>305.60000610351562</ele>
        <time>2014-05-19T08:05:34Z</time>
      </trkpt>
      <trkpt lat="45.067459149286151" lon="5.674210740253329">
        <ele>306.20001220703125</ele>
        <time>2014-05-19T08:05:38Z</time>
      </trkpt>
      <trkpt lat="45.067423358559608" lon="5.674170507118106">
        <ele>306.20001220703125</ele>
        <time>2014-05-19T08:05:39Z</time>
      </trkpt>
      <trkpt lat="45.067311963066459" lon="5.674057267606258">
        <ele>306</ele>
        <time>2014-05-19T08:05:42Z</time>
      </trkpt>
      <trkpt lat="45.067202746868134" lon="5.673944782465696">
        <ele>306.20001220703125</ele>
        <time>2014-05-19T08:05:45Z</time>
      </trkpt>
      <trkpt lat="45.066867051646113" lon="5.673615373671055">
        <ele>306.60000610351562</ele>
        <time>2014-05-19T08:05:54Z</time>
      </trkpt>
      <trkpt lat="45.066795973107219" lon="5.67354328930378">
        <ele>307</ele>
        <time>2014-05-19T08:05:56Z</time>
      </trkpt>
      <trkpt lat="45.066615594550967" lon="5.673363748937845">
        <ele>307.20001220703125</ele>
        <time>2014-05-19T08:06:01Z</time>
      </trkpt>
      <trkpt lat="45.066368244588375" lon="5.673166271299124">
        <ele>307.79998779296875</ele>
        <time>2014-05-19T08:06:08Z</time>
      </trkpt>
      <trkpt lat="45.066271349787712" lon="5.673139616847038">
        <ele>307.20001220703125</ele>
        <time>2014-05-19T08:06:10Z</time>
      </trkpt>
      <trkpt lat="45.066223153844476" lon="5.673104580491781">
        <ele>306.60000610351562</ele>
        <time>2014-05-19T08:06:11Z</time>
      </trkpt>
      <trkpt lat="45.066178562119603" lon="5.673065856099129">
        <ele>305.79998779296875</ele>
        <time>2014-05-19T08:06:12Z</time>
      </trkpt>
      <trkpt lat="45.066135730594397" lon="5.67302830517292">
        <ele>305.60000610351562</ele>
        <time>2014-05-19T08:06:13Z</time>
      </trkpt>
      <trkpt lat="45.066059287637472" lon="5.67295010201633">
        <ele>305.60000610351562</ele>
        <time>2014-05-19T08:06:15Z</time>
      </trkpt>
      <trkpt lat="45.066002039238811" lon="5.672861756756902">
        <ele>305.60000610351562</ele>
        <time>2014-05-19T08:06:17Z</time>
      </trkpt>
      <trkpt lat="45.065954010933638" lon="5.672788331285119">
        <ele>306.60000610351562</ele>
        <time>2014-05-19T08:06:19Z</time>
      </trkpt>
      <trkpt lat="45.065912352874875" lon="5.672719851136208">
        <ele>308.20001220703125</ele>
        <time>2014-05-19T08:06:21Z</time>
      </trkpt>
      <trkpt lat="45.065891398116946" lon="5.672685233876109">
        <ele>308.60000610351562</ele>
        <time>2014-05-19T08:06:22Z</time>
      </trkpt>
      <trkpt lat="45.065781595185399" lon="5.672548608854413">
        <ele>309.20001220703125</ele>
        <time>2014-05-19T08:06:28Z</time>
      </trkpt>
      <trkpt lat="45.065749492496252" lon="5.672502676025033">
        <ele>309.20001220703125</ele>
        <time>2014-05-19T08:07:50Z</time>
      </trkpt>
      <trkpt lat="45.065677911043167" lon="5.672411900013685">
        <ele>309.20001220703125</ele>
        <time>2014-05-19T08:07:55Z</time>
      </trkpt>
      <trkpt lat="45.065514966845512" lon="5.672261696308851">
        <ele>308.79998779296875</ele>
        <time>2014-05-19T08:08:00Z</time>
      </trkpt>
      <trkpt lat="45.065325787290931" lon="5.672081736847758">
        <ele>309.20001220703125</ele>
        <time>2014-05-19T08:08:05Z</time>
      </trkpt>
      <trkpt lat="45.065209614112973" lon="5.671963971108198">
        <ele>309.20001220703125</ele>
        <time>2014-05-19T08:08:08Z</time>
      </trkpt>
      <trkpt lat="45.064928233623505" lon="5.671682422980666">
        <ele>310.20001220703125</ele>
        <time>2014-05-19T08:08:15Z</time>
      </trkpt>
      <trkpt lat="45.064685745164752" lon="5.671451082453132">
        <ele>310.39999389648437</ele>
        <time>2014-05-19T08:08:21Z</time>
      </trkpt>
      <trkpt lat="45.064646685495973" lon="5.671410765498877">
        <ele>310.39999389648437</ele>
        <time>2014-05-19T08:08:22Z</time>
      </trkpt>
      <trkpt lat="45.064334543421865" lon="5.671097366139293">
        <ele>310.60000610351562</ele>
        <time>2014-05-19T08:08:30Z</time>
      </trkpt>
      <trkpt lat="45.064106220379472" lon="5.670877005904913">
        <ele>311</ele>
        <time>2014-05-19T08:08:36Z</time>
      </trkpt>
      <trkpt lat="45.064066741615534" lon="5.670842388644815">
        <ele>311.20001220703125</ele>
        <time>2014-05-19T08:08:37Z</time>
      </trkpt>
      <trkpt lat="45.063922489061952" lon="5.670695202425122">
        <ele>311.60000610351562</ele>
        <time>2014-05-19T08:08:41Z</time>
      </trkpt>
      <trkpt lat="45.06381050683558" lon="5.670583052560687">
        <ele>312</ele>
        <time>2014-05-19T08:08:44Z</time>
      </trkpt>
      <trkpt lat="45.063777146860957" lon="5.670541729778051">
        <ele>312</ele>
        <time>2014-05-19T08:08:45Z</time>
      </trkpt>
      <trkpt lat="45.0635935831815" lon="5.670359842479229">
        <ele>312</ele>
        <time>2014-05-19T08:08:50Z</time>
      </trkpt>
      <trkpt lat="45.063469698652625" lon="5.670216595754027">
        <ele>312.60000610351562</ele>
        <time>2014-05-19T08:08:54Z</time>
      </trkpt>
      <trkpt lat="45.063405074179173" lon="5.670149121433497">
        <ele>313</ele>
        <time>2014-05-19T08:08:56Z</time>
      </trkpt>
      <trkpt lat="45.063181696459651" lon="5.670007467269898">
        <ele>313.60000610351562</ele>
        <time>2014-05-19T08:09:02Z</time>
      </trkpt>
      <trkpt lat="45.063140708953142" lon="5.66999539732933">
        <ele>313.60000610351562</ele>
        <time>2014-05-19T08:09:03Z</time>
      </trkpt>
      <trkpt lat="45.062981368973851" lon="5.669954074546695">
        <ele>314</ele>
        <time>2014-05-19T08:09:07Z</time>
      </trkpt>
      <trkpt lat="45.062683308497071" lon="5.669878721237183">
        <ele>314</ele>
        <time>2014-05-19T08:09:14Z</time>
      </trkpt>
      <trkpt lat="45.062405532225966" lon="5.669800182804465">
        <ele>314.39999389648437</ele>
        <time>2014-05-19T08:09:20Z</time>
      </trkpt>
      <trkpt lat="45.06217117421329" lon="5.669728433713317">
        <ele>314.20001220703125</ele>
        <time>2014-05-19T08:09:25Z</time>
      </trkpt>
      <trkpt lat="45.06198157556355" lon="5.669668335467577">
        <ele>314.39999389648437</ele>
        <time>2014-05-19T08:09:29Z</time>
      </trkpt>
      <trkpt lat="45.061796419322491" lon="5.669624414294958">
        <ele>314.60000610351562</ele>
        <time>2014-05-19T08:09:33Z</time>
      </trkpt>
      <trkpt lat="45.061706146225333" lon="5.669598849490285">
        <ele>314.79998779296875</ele>
        <time>2014-05-19T08:09:35Z</time>
      </trkpt>
      <trkpt lat="45.061664739623666" lon="5.669579906389117">
        <ele>314.79998779296875</ele>
        <time>2014-05-19T08:09:36Z</time>
      </trkpt>
      <trkpt lat="45.061298366636038" lon="5.669474797323346">
        <ele>315</ele>
        <time>2014-05-19T08:09:44Z</time>
      </trkpt>
      <trkpt lat="45.060866698622704" lon="5.669350745156407">
        <ele>315.39999389648437</ele>
        <time>2014-05-19T08:09:53Z</time>
      </trkpt>
      <trkpt lat="45.060585150495172" lon="5.669291652739048">
        <ele>315.79998779296875</ele>
        <time>2014-05-19T08:09:59Z</time>
      </trkpt>
      <trkpt lat="45.060450872406363" lon="5.669242450967431">
        <ele>316</ele>
        <time>2014-05-19T08:10:02Z</time>
      </trkpt>
      <trkpt lat="45.060407454147935" lon="5.669224346056581">
        <ele>316.20001220703125</ele>
        <time>2014-05-19T08:10:03Z</time>
      </trkpt>
      <trkpt lat="45.060136383399367" lon="5.669145891442895">
        <ele>316</ele>
        <time>2014-05-19T08:10:09Z</time>
      </trkpt>
      <trkpt lat="45.059751151129603" lon="5.669037261977792">
        <ele>316.60000610351562</ele>
        <time>2014-05-19T08:10:18Z</time>
      </trkpt>
      <trkpt lat="45.059669511392713" lon="5.66901178099215">
        <ele>316.60000610351562</ele>
        <time>2014-05-19T08:10:20Z</time>
      </trkpt>
      <trkpt lat="45.059630703181028" lon="5.668988563120365">
        <ele>317</ele>
        <time>2014-05-19T08:10:21Z</time>
      </trkpt>
      <trkpt lat="45.059551745653152" lon="5.668960064649582">
        <ele>317</ele>
        <time>2014-05-19T08:10:23Z</time>
      </trkpt>
      <trkpt lat="45.05947002209723" lon="5.668942043557763">
        <ele>317.20001220703125</ele>
        <time>2014-05-19T08:10:25Z</time>
      </trkpt>
      <trkpt lat="45.059165842831135" lon="5.668866271153092">
        <ele>317.60000610351562</ele>
        <time>2014-05-19T08:10:32Z</time>
      </trkpt>
      <trkpt lat="45.058870548382401" lon="5.668769543990493">
        <ele>318</ele>
        <time>2014-05-19T08:10:39Z</time>
      </trkpt>
      <trkpt lat="45.058741634711623" lon="5.668731909245253">
        <ele>318</ele>
        <time>2014-05-19T08:10:42Z</time>
      </trkpt>
      <trkpt lat="45.058506773784757" lon="5.668671810999513">
        <ele>318.39999389648437</ele>
        <time>2014-05-19T08:10:48Z</time>
      </trkpt>
      <trkpt lat="45.058314744383097" lon="5.668624034151435">
        <ele>318.79998779296875</ele>
        <time>2014-05-19T08:10:53Z</time>
      </trkpt>
      <trkpt lat="45.058270990848541" lon="5.668604336678982">
        <ele>318.79998779296875</ele>
        <time>2014-05-19T08:10:54Z</time>
      </trkpt>
      <trkpt lat="45.058135623112321" lon="5.66856661811471">
        <ele>319</ele>
        <time>2014-05-19T08:10:57Z</time>
      </trkpt>
      <trkpt lat="45.058090277016163" lon="5.668558655306697">
        <ele>319.20001220703125</ele>
        <time>2014-05-19T08:10:58Z</time>
      </trkpt>
      <trkpt lat="45.057722898200154" lon="5.668460838496685">
        <ele>319</ele>
        <time>2014-05-19T08:11:06Z</time>
      </trkpt>
      <trkpt lat="45.057373289018869" lon="5.668353047221899">
        <ele>319.60000610351562</ele>
        <time>2014-05-19T08:11:14Z</time>
      </trkpt>
      <trkpt lat="45.057290978729725" lon="5.668337624520063">
        <ele>319.79998779296875</ele>
        <time>2014-05-19T08:11:16Z</time>
      </trkpt>
      <trkpt lat="45.05721009336412" lon="5.668318094685674">
        <ele>319.79998779296875</ele>
        <time>2014-05-19T08:11:18Z</time>
      </trkpt>
      <trkpt lat="45.057129710912704" lon="5.668292697519064">
        <ele>319.79998779296875</ele>
        <time>2014-05-19T08:11:20Z</time>
      </trkpt>
      <trkpt lat="45.057009598240256" lon="5.66825682297349">
        <ele>320.20001220703125</ele>
        <time>2014-05-19T08:11:23Z</time>
      </trkpt>
      <trkpt lat="45.056851515546441" lon="5.668208543211222">
        <ele>320.39999389648437</ele>
        <time>2014-05-19T08:11:27Z</time>
      </trkpt>
      <trkpt lat="45.05650257691741" lon="5.668103769421578">
        <ele>321</ele>
        <time>2014-05-19T08:11:36Z</time>
      </trkpt>
      <trkpt lat="45.056389924138784" lon="5.668084155768156">
        <ele>321.20001220703125</ele>
        <time>2014-05-19T08:11:39Z</time>
      </trkpt>
      <trkpt lat="45.056283054873347" lon="5.668066553771496">
        <ele>321.60000610351562</ele>
        <time>2014-05-19T08:11:42Z</time>
      </trkpt>
      <trkpt lat="45.056151710450649" lon="5.668064877390862">
        <ele>322.39999389648438</ele>
        <time>2014-05-19T08:11:47Z</time>
      </trkpt>
      <trkpt lat="45.056123463436961" lon="5.668051298707724">
        <ele>322.60000610351562</ele>
        <time>2014-05-19T08:11:53Z</time>
      </trkpt>
      <trkpt lat="45.056111058220267" lon="5.668040988966823">
        <ele>322.60000610351562</ele>
        <time>2014-05-19T08:11:54Z</time>
      </trkpt>
      <trkpt lat="45.056042661890388" lon="5.668012909591198">
        <ele>322.79998779296875</ele>
        <time>2014-05-19T08:11:59Z</time>
      </trkpt>
      <trkpt lat="45.055934702977538" lon="5.667942501604557">
        <ele>322.39999389648438</ele>
        <time>2014-05-19T08:12:03Z</time>
      </trkpt>
      <trkpt lat="45.055717444047332" lon="5.667817527428269">
        <ele>322</ele>
        <time>2014-05-19T08:12:09Z</time>
      </trkpt>
      <trkpt lat="45.055407229810953" lon="5.667649805545807">
        <ele>322.20001220703125</ele>
        <time>2014-05-19T08:12:17Z</time>
      </trkpt>
      <trkpt lat="45.055290050804615" lon="5.667581241577864">
        <ele>322.20001220703125</ele>
        <time>2014-05-19T08:12:20Z</time>
      </trkpt>
      <trkpt lat="45.05520380102098" lon="5.667542349547148">
        <ele>322</ele>
        <time>2014-05-19T08:12:22Z</time>
      </trkpt>
      <trkpt lat="45.055159628391266" lon="5.667527262121439">
        <ele>322</ele>
        <time>2014-05-19T08:12:23Z</time>
      </trkpt>
      <trkpt lat="45.055118137970567" lon="5.66750580444932">
        <ele>322.20001220703125</ele>
        <time>2014-05-19T08:12:24Z</time>
      </trkpt>
      <trkpt lat="45.054969443008304" lon="5.667408155277371">
        <ele>322.79998779296875</ele>
        <time>2014-05-19T08:12:28Z</time>
      </trkpt>
      <trkpt lat="45.054744724184275" lon="5.667279744520783">
        <ele>323.20001220703125</ele>
        <time>2014-05-19T08:12:34Z</time>
      </trkpt>
      <trkpt lat="45.054429229348898" lon="5.667095426470041">
        <ele>323.39999389648437</ele>
        <time>2014-05-19T08:12:42Z</time>
      </trkpt>
      <trkpt lat="45.054140305146575" lon="5.666943127289414">
        <ele>324</ele>
        <time>2014-05-19T08:12:49Z</time>
      </trkpt>
      <trkpt lat="45.054098227992654" lon="5.666913539171219">
        <ele>324</ele>
        <time>2014-05-19T08:12:50Z</time>
      </trkpt>
      <trkpt lat="45.053941570222378" lon="5.666826367378235">
        <ele>324.39999389648437</ele>
        <time>2014-05-19T08:12:54Z</time>
      </trkpt>
      <trkpt lat="45.053826738148928" lon="5.666765682399273">
        <ele>324.39999389648437</ele>
        <time>2014-05-19T08:12:57Z</time>
      </trkpt>
      <trkpt lat="45.053675528615713" lon="5.666677672415972">
        <ele>325</ele>
        <time>2014-05-19T08:13:01Z</time>
      </trkpt>
      <trkpt lat="45.053413091227412" lon="5.666531408205628">
        <ele>325.60000610351562</ele>
        <time>2014-05-19T08:13:08Z</time>
      </trkpt>
      <trkpt lat="45.053378473967314" lon="5.666508693248034">
        <ele>325.79998779296875</ele>
        <time>2014-05-19T08:13:09Z</time>
      </trkpt>
      <trkpt lat="45.053046215325594" lon="5.666314316913486">
        <ele>326</ele>
        <time>2014-05-19T08:13:18Z</time>
      </trkpt>
      <trkpt lat="45.052844798192382" lon="5.666188420727849">
        <ele>326.20001220703125</ele>
        <time>2014-05-19T08:13:24Z</time>
      </trkpt>
      <trkpt lat="45.052596023306251" lon="5.666046096011996">
        <ele>326.60000610351562</ele>
        <time>2014-05-19T08:13:31Z</time>
      </trkpt>
      <trkpt lat="45.052484879270196" lon="5.665979711338878">
        <ele>326.79998779296875</ele>
        <time>2014-05-19T08:13:34Z</time>
      </trkpt>
      <trkpt lat="45.052290419116616" lon="5.66588306799531">
        <ele>327</ele>
        <time>2014-05-19T08:13:39Z</time>
      </trkpt>
      <trkpt lat="45.05217919126153" lon="5.665811151266098">
        <ele>327</ele>
        <time>2014-05-19T08:13:42Z</time>
      </trkpt>
      <trkpt lat="45.052020354196429" lon="5.665723392739892">
        <ele>327</ele>
        <time>2014-05-19T08:13:46Z</time>
      </trkpt>
      <trkpt lat="45.051859086379409" lon="5.66564166918397">
        <ele>327.39999389648437</ele>
        <time>2014-05-19T08:13:50Z</time>
      </trkpt>
      <trkpt lat="45.051745008677244" lon="5.665569668635726">
        <ele>327.60000610351562</ele>
        <time>2014-05-19T08:13:53Z</time>
      </trkpt>
      <trkpt lat="45.051625734195113" lon="5.665502781048417">
        <ele>327.79998779296875</ele>
        <time>2014-05-19T08:13:56Z</time>
      </trkpt>
      <trkpt lat="45.051394309848547" lon="5.665360623970628">
        <ele>328.39999389648437</ele>
        <time>2014-05-19T08:14:02Z</time>
      </trkpt>
      <trkpt lat="45.051355417817831" lon="5.665338328108192">
        <ele>328.39999389648437</ele>
        <time>2014-05-19T08:14:03Z</time>
      </trkpt>
      <trkpt lat="45.051002455875278" lon="5.665136575698853">
        <ele>328.60000610351562</ele>
        <time>2014-05-19T08:14:13Z</time>
      </trkpt>
      <trkpt lat="45.050925090909004" lon="5.665100114420056">
        <ele>329</ele>
        <time>2014-05-19T08:14:15Z</time>
      </trkpt>
      <trkpt lat="45.050701210275292" lon="5.664968183264136">
        <ele>329.39999389648437</ele>
        <time>2014-05-19T08:14:21Z</time>
      </trkpt>
      <trkpt lat="45.050369622185826" lon="5.664771543815732">
        <ele>329.60000610351562</ele>
        <time>2014-05-19T08:14:30Z</time>
      </trkpt>
      <trkpt lat="45.050220089033246" lon="5.664697280153632">
        <ele>330</ele>
        <time>2014-05-19T08:14:34Z</time>
      </trkpt>
      <trkpt lat="45.050149513408542" lon="5.664645563811064">
        <ele>330.20001220703125</ele>
        <time>2014-05-19T08:14:36Z</time>
      </trkpt>
      <trkpt lat="45.049920603632927" lon="5.664508184418082">
        <ele>330.20001220703125</ele>
        <time>2014-05-19T08:14:42Z</time>
      </trkpt>
      <trkpt lat="45.049618016928434" lon="5.664342055097222">
        <ele>331</ele>
        <time>2014-05-19T08:14:50Z</time>
      </trkpt>
      <trkpt lat="45.049453563988209" lon="5.66424666903913">
        <ele>331.20001220703125</ele>
        <time>2014-05-19T08:14:54Z</time>
      </trkpt>
      <trkpt lat="45.049288356676698" lon="5.664153043180704">
        <ele>331.60000610351562</ele>
        <time>2014-05-19T08:14:58Z</time>
      </trkpt>
      <trkpt lat="45.048934388905764" lon="5.663960929960012">
        <ele>331.39999389648437</ele>
        <time>2014-05-19T08:15:06Z</time>
      </trkpt>
      <trkpt lat="45.048764739185572" lon="5.663852216675878">
        <ele>332</ele>
        <time>2014-05-19T08:15:10Z</time>
      </trkpt>
      <trkpt lat="45.048678573220968" lon="5.663803601637483">
        <ele>332.20001220703125</ele>
        <time>2014-05-19T08:15:12Z</time>
      </trkpt>
      <trkpt lat="45.048343883827329" lon="5.663612661883235">
        <ele>332.60000610351562</ele>
        <time>2014-05-19T08:15:20Z</time>
      </trkpt>
      <trkpt lat="45.048014642670751" lon="5.663417698815465">
        <ele>333</ele>
        <time>2014-05-19T08:15:28Z</time>
      </trkpt>
      <trkpt lat="45.04789050668478" lon="5.663342513144016">
        <ele>333.20001220703125</ele>
        <time>2014-05-19T08:15:31Z</time>
      </trkpt>
      <trkpt lat="45.047565959393978" lon="5.663159703835845">
        <ele>334</ele>
        <time>2014-05-19T08:15:39Z</time>
      </trkpt>
      <trkpt lat="45.047406619414687" lon="5.663069514557719">
        <ele>334.39999389648437</ele>
        <time>2014-05-19T08:15:43Z</time>
      </trkpt>
      <trkpt lat="45.047243004664779" lon="5.662977816537023">
        <ele>334.20001220703125</ele>
        <time>2014-05-19T08:15:47Z</time>
      </trkpt>
      <trkpt lat="45.04699875600636" lon="5.662849824875593">
        <ele>334.39999389648437</ele>
        <time>2014-05-19T08:15:53Z</time>
      </trkpt>
      <trkpt lat="45.046785520389676" lon="5.662791151553392">
        <ele>334.79998779296875</ele>
        <time>2014-05-19T08:15:58Z</time>
      </trkpt>
      <trkpt lat="45.046701785176992" lon="5.662774387747049">
        <ele>335</ele>
        <time>2014-05-19T08:16:00Z</time>
      </trkpt>
      <trkpt lat="45.046661384403706" lon="5.662776818498969">
        <ele>335.20001220703125</ele>
        <time>2014-05-19T08:16:01Z</time>
      </trkpt>
      <trkpt lat="45.046581085771322" lon="5.662768604233861">
        <ele>335.39999389648437</ele>
        <time>2014-05-19T08:16:03Z</time>
      </trkpt>
      <trkpt lat="45.046539762988687" lon="5.662759803235531">
        <ele>335.39999389648437</ele>
        <time>2014-05-19T08:16:04Z</time>
      </trkpt>
      <trkpt lat="45.046413280069828" lon="5.662749744951725">
        <ele>335.39999389648437</ele>
        <time>2014-05-19T08:16:07Z</time>
      </trkpt>
      <trkpt lat="45.046327114105225" lon="5.662738094106317">
        <ele>335.39999389648437</ele>
        <time>2014-05-19T08:16:09Z</time>
      </trkpt>
      <trkpt lat="45.046239187940955" lon="5.6627147924155">
        <ele>335.39999389648437</ele>
        <time>2014-05-19T08:16:11Z</time>
      </trkpt>
      <trkpt lat="45.04619644023478" lon="5.66269182600081">
        <ele>335.39999389648437</ele>
        <time>2014-05-19T08:16:12Z</time>
      </trkpt>
      <trkpt lat="45.04603466950357" lon="5.662580849602819">
        <ele>335.60000610351562</ele>
        <time>2014-05-19T08:16:16Z</time>
      </trkpt>
      <trkpt lat="45.045774495229125" lon="5.662424862384796">
        <ele>335.79998779296875</ele>
        <time>2014-05-19T08:16:23Z</time>
      </trkpt>
      <trkpt lat="45.045550698414445" lon="5.662409607321024">
        <ele>336.39999389648438</ele>
        <time>2014-05-19T08:16:29Z</time>
      </trkpt>
      <trkpt lat="45.045515494421124" lon="5.662420922890306">
        <ele>336.60000610351562</ele>
        <time>2014-05-19T08:16:30Z</time>
      </trkpt>
      <trkpt lat="45.045377360656857" lon="5.662525529041886">
        <ele>336.39999389648438</ele>
        <time>2014-05-19T08:16:34Z</time>
      </trkpt>
      <trkpt lat="45.045275688171387" lon="5.662751840427518">
        <ele>336.60000610351562</ele>
        <time>2014-05-19T08:16:39Z</time>
      </trkpt>
      <trkpt lat="45.045106457546353" lon="5.663189040496945">
        <ele>337.39999389648437</ele>
        <time>2014-05-19T08:16:48Z</time>
      </trkpt>
      <trkpt lat="45.045071672648191" lon="5.663287611678243">
        <ele>337.79998779296875</ele>
        <time>2014-05-19T08:16:50Z</time>
      </trkpt>
      <trkpt lat="45.044935801997781" lon="5.66365197300911">
        <ele>337.39999389648437</ele>
        <time>2014-05-19T08:16:57Z</time>
      </trkpt>
      <trkpt lat="45.044766571372747" lon="5.664067631587386">
        <ele>337.60000610351562</ele>
        <time>2014-05-19T08:17:05Z</time>
      </trkpt>
      <trkpt lat="45.044742431491613" lon="5.664109122008085">
        <ele>337.60000610351562</ele>
        <time>2014-05-19T08:17:06Z</time>
      </trkpt>
      <trkpt lat="45.044624833390117" lon="5.664242310449481">
        <ele>337.79998779296875</ele>
        <time>2014-05-19T08:17:10Z</time>
      </trkpt>
      <trkpt lat="45.044402712956071" lon="5.664437357336283">
        <ele>338.79998779296875</ele>
        <time>2014-05-19T08:17:17Z</time>
      </trkpt>
      <trkpt lat="45.044254688546062" lon="5.664537018164992">
        <ele>339.60000610351562</ele>
        <time>2014-05-19T08:17:23Z</time>
      </trkpt>
      <trkpt lat="45.044101551175117" lon="5.66452369093895">
        <ele>339.60000610351562</ele>
        <time>2014-05-19T08:17:27Z</time>
      </trkpt>
      <trkpt lat="45.044058384373784" lon="5.664508519694209">
        <ele>339.60000610351562</ele>
        <time>2014-05-19T08:17:28Z</time>
      </trkpt>
      <trkpt lat="45.043920753523707" lon="5.664483960717917">
        <ele>339.60000610351562</ele>
        <time>2014-05-19T08:17:31Z</time>
      </trkpt>
      <trkpt lat="45.043768035247922" lon="5.664462922140956">
        <ele>339.60000610351562</ele>
        <time>2014-05-19T08:17:34Z</time>
      </trkpt>
      <trkpt lat="45.043615903705359" lon="5.664436016231775">
        <ele>339.79998779296875</ele>
        <time>2014-05-19T08:17:37Z</time>
      </trkpt>
      <trkpt lat="45.043312227353454" lon="5.664417408406735">
        <ele>340.20001220703125</ele>
        <time>2014-05-19T08:17:43Z</time>
      </trkpt>
      <trkpt lat="45.043006455525756" lon="5.664400644600391">
        <ele>340.79998779296875</ele>
        <time>2014-05-19T08:17:49Z</time>
      </trkpt>
      <trkpt lat="45.042907632887363" lon="5.664380360394716">
        <ele>341.20001220703125</ele>
        <time>2014-05-19T08:17:51Z</time>
      </trkpt>
      <trkpt lat="45.042856000363827" lon="5.664367452263832">
        <ele>341.20001220703125</ele>
        <time>2014-05-19T08:17:52Z</time>
      </trkpt>
      <trkpt lat="45.042752400040627" lon="5.664333421736956">
        <ele>341</ele>
        <time>2014-05-19T08:17:54Z</time>
      </trkpt>
      <trkpt lat="45.042615355923772" lon="5.664244238287211">
        <ele>341.39999389648437</ele>
        <time>2014-05-19T08:17:57Z</time>
      </trkpt>
      <trkpt lat="45.042529441416264" lon="5.664172656834126">
        <ele>341.39999389648437</ele>
        <time>2014-05-19T08:17:59Z</time>
      </trkpt>
      <trkpt lat="45.042449980974197" lon="5.664099650457501">
        <ele>342</ele>
        <time>2014-05-19T08:18:01Z</time>
      </trkpt>
      <trkpt lat="45.0423255097121" lon="5.663988506421447">
        <ele>342.20001220703125</ele>
        <time>2014-05-19T08:18:04Z</time>
      </trkpt>
      <trkpt lat="45.041909096762538" lon="5.663600256666541">
        <ele>342.60000610351562</ele>
        <time>2014-05-19T08:18:14Z</time>
      </trkpt>
      <trkpt lat="45.041688485071063" lon="5.663396408781409">
        <ele>342.79998779296875</ele>
        <time>2014-05-19T08:18:19Z</time>
      </trkpt>
      <trkpt lat="45.04164632409811" lon="5.663353577256203">
        <ele>343</ele>
        <time>2014-05-19T08:18:20Z</time>
      </trkpt>
      <trkpt lat="45.041604498401284" lon="5.663309991359711">
        <ele>343</ele>
        <time>2014-05-19T08:18:21Z</time>
      </trkpt>
      <trkpt lat="45.041158748790622" lon="5.662895338609815">
        <ele>344</ele>
        <time>2014-05-19T08:18:31Z</time>
      </trkpt>
      <trkpt lat="45.041113570332527" lon="5.662854770198464">
        <ele>344</ele>
        <time>2014-05-19T08:18:32Z</time>
      </trkpt>
      <trkpt lat="45.040685841813684" lon="5.662451349198818">
        <ele>344.60000610351562</ele>
        <time>2014-05-19T08:18:41Z</time>
      </trkpt>
      <trkpt lat="45.040587689727545" lon="5.662356968969107">
        <ele>345</ele>
        <time>2014-05-19T08:18:43Z</time>
      </trkpt>
      <trkpt lat="45.040251491591334" lon="5.662036528810859">
        <ele>345.60000610351562</ele>
        <time>2014-05-19T08:18:50Z</time>
      </trkpt>
      <trkpt lat="45.039838599041104" lon="5.661621289327741">
        <ele>346.20001220703125</ele>
        <time>2014-05-19T08:18:59Z</time>
      </trkpt>
      <trkpt lat="45.039553362876177" lon="5.661418111994863">
        <ele>346.79998779296875</ele>
        <time>2014-05-19T08:19:05Z</time>
      </trkpt>
      <trkpt lat="45.03941179253161" lon="5.66130411811173">
        <ele>347.20001220703125</ele>
        <time>2014-05-19T08:19:08Z</time>
      </trkpt>
      <trkpt lat="45.039216578006744" lon="5.661150142550468">
        <ele>347.39999389648437</ele>
        <time>2014-05-19T08:19:12Z</time>
      </trkpt>
      <trkpt lat="45.038972664624453" lon="5.660958113148809">
        <ele>347.60000610351562</ele>
        <time>2014-05-19T08:19:17Z</time>
      </trkpt>
      <trkpt lat="45.038923630490899" lon="5.660921651870012">
        <ele>347.39999389648437</ele>
        <time>2014-05-19T08:19:18Z</time>
      </trkpt>
      <trkpt lat="45.038606710731983" lon="5.660657705739141">
        <ele>348.20001220703125</ele>
        <time>2014-05-19T08:19:25Z</time>
      </trkpt>
      <trkpt lat="45.038563963025808" lon="5.660618729889393">
        <ele>348.39999389648437</ele>
        <time>2014-05-19T08:19:26Z</time>
      </trkpt>
      <trkpt lat="45.038249474018812" lon="5.660383030772209">
        <ele>348.60000610351562</ele>
        <time>2014-05-19T08:19:33Z</time>
      </trkpt>
      <trkpt lat="45.03785602748394" lon="5.660062758252025">
        <ele>349.39999389648437</ele>
        <time>2014-05-19T08:19:42Z</time>
      </trkpt>
      <trkpt lat="45.037562828511" lon="5.659826891496778">
        <ele>349.79998779296875</ele>
        <time>2014-05-19T08:19:49Z</time>
      </trkpt>
      <trkpt lat="45.037313550710678" lon="5.659620193764567">
        <ele>350.39999389648438</ele>
        <time>2014-05-19T08:19:55Z</time>
      </trkpt>
      <trkpt lat="45.03714700229466" lon="5.659482646733522">
        <ele>350.79998779296875</ele>
        <time>2014-05-19T08:19:59Z</time>
      </trkpt>
      <trkpt lat="45.037022363394499" lon="5.659381560981274">
        <ele>351.60000610351562</ele>
        <time>2014-05-19T08:20:02Z</time>
      </trkpt>
      <trkpt lat="45.036778366193175" lon="5.659177713096142">
        <ele>352.39999389648437</ele>
        <time>2014-05-19T08:20:08Z</time>
      </trkpt>
      <trkpt lat="45.036738719791174" lon="5.659141587093473">
        <ele>352.60000610351562</ele>
        <time>2014-05-19T08:20:09Z</time>
      </trkpt>
      <trkpt lat="45.036438312381506" lon="5.658895494416356">
        <ele>352.60000610351562</ele>
        <time>2014-05-19T08:20:16Z</time>
      </trkpt>
      <trkpt lat="45.036075627431273" lon="5.658609922975302">
        <ele>353</ele>
        <time>2014-05-19T08:20:24Z</time>
      </trkpt>
      <trkpt lat="45.035727359354496" lon="5.658330135047436">
        <ele>353</ele>
        <time>2014-05-19T08:20:32Z</time>
      </trkpt>
      <trkpt lat="45.035397280007601" lon="5.65805864520371">
        <ele>353.39999389648438</ele>
        <time>2014-05-19T08:20:40Z</time>
      </trkpt>
      <trkpt lat="45.035312790423632" lon="5.657993601635099">
        <ele>353.60000610351562</ele>
        <time>2014-05-19T08:20:42Z</time>
      </trkpt>
      <trkpt lat="45.035101650282741" lon="5.657817916944623">
        <ele>354.60000610351562</ele>
        <time>2014-05-19T08:20:47Z</time>
      </trkpt>
      <trkpt lat="45.035059489309788" lon="5.657786317169666">
        <ele>354.79998779296875</ele>
        <time>2014-05-19T08:20:48Z</time>
      </trkpt>
      <trkpt lat="45.034646680578589" lon="5.657445760443807">
        <ele>354.60000610351562</ele>
        <time>2014-05-19T08:20:58Z</time>
      </trkpt>
      <trkpt lat="45.034566465765238" lon="5.657381806522608">
        <ele>355.79998779296875</ele>
        <time>2014-05-19T08:21:00Z</time>
      </trkpt>
      <trkpt lat="45.034330431371927" lon="5.657178042456508">
        <ele>356.20001220703125</ele>
        <time>2014-05-19T08:21:06Z</time>
      </trkpt>
      <trkpt lat="45.033972356468439" lon="5.656888950616121">
        <ele>356.79998779296875</ele>
        <time>2014-05-19T08:21:15Z</time>
      </trkpt>
      <trkpt lat="45.03393430262804" lon="5.656859530135989">
        <ele>357</ele>
        <time>2014-05-19T08:21:16Z</time>
      </trkpt>
      <trkpt lat="45.03366507589817" lon="5.656638415530324">
        <ele>357.39999389648437</ele>
        <time>2014-05-19T08:21:23Z</time>
      </trkpt>
      <trkpt lat="45.033416468650103" lon="5.656426185742021">
        <ele>357.79998779296875</ele>
        <time>2014-05-19T08:21:30Z</time>
      </trkpt>
      <trkpt lat="45.033346647396684" lon="5.656372457742691">
        <ele>358</ele>
        <time>2014-05-19T08:21:32Z</time>
      </trkpt>
      <trkpt lat="45.033111367374659" lon="5.656186211854219">
        <ele>359</ele>
        <time>2014-05-19T08:21:39Z</time>
      </trkpt>
      <trkpt lat="45.033076331019402" lon="5.656156037002802">
        <ele>359.20001220703125</ele>
        <time>2014-05-19T08:21:40Z</time>
      </trkpt>
      <trkpt lat="45.032765949144959" lon="5.655873734503985">
        <ele>360</ele>
        <time>2014-05-19T08:21:49Z</time>
      </trkpt>
      <trkpt lat="45.032570064067841" lon="5.655685309320688">
        <ele>360.39999389648437</ele>
        <time>2014-05-19T08:21:55Z</time>
      </trkpt>
      <trkpt lat="45.03239119425416" lon="5.655617332085967">
        <ele>360.39999389648437</ele>
        <time>2014-05-19T08:22:00Z</time>
      </trkpt>
      <trkpt lat="45.032353643327951" lon="5.655586151406169">
        <ele>360.20001220703125</ele>
        <time>2014-05-19T08:22:01Z</time>
      </trkpt>
      <trkpt lat="45.032230848446488" lon="5.655482048168778">
        <ele>360.20001220703125</ele>
        <time>2014-05-19T08:22:04Z</time>
      </trkpt>
      <trkpt lat="45.032125823199749" lon="5.655460758134723">
        <ele>360</ele>
        <time>2014-05-19T08:22:06Z</time>
      </trkpt>
      <trkpt lat="45.032073771581054" lon="5.655440473929048">
        <ele>359.79998779296875</ele>
        <time>2014-05-19T08:22:07Z</time>
      </trkpt>
      <trkpt lat="45.032022558152676" lon="5.655419435352087">
        <ele>359.60000610351562</ele>
        <time>2014-05-19T08:22:08Z</time>
      </trkpt>
      <trkpt lat="45.03175794146955" lon="5.655283648520708">
        <ele>359</ele>
        <time>2014-05-19T08:22:13Z</time>
      </trkpt>
      <trkpt lat="45.031703291460872" lon="5.655264873057604">
        <ele>359.20001220703125</ele>
        <time>2014-05-19T08:22:14Z</time>
      </trkpt>
      <trkpt lat="45.031375307589769" lon="5.655167642980814">
        <ele>359.60000610351562</ele>
        <time>2014-05-19T08:22:20Z</time>
      </trkpt>
      <trkpt lat="45.031268354505301" lon="5.655149454250932">
        <ele>359.79998779296875</ele>
        <time>2014-05-19T08:22:22Z</time>
      </trkpt>
      <trkpt lat="45.031109349802136" lon="5.655101174488664">
        <ele>360</ele>
        <time>2014-05-19T08:22:25Z</time>
      </trkpt>
      <trkpt lat="45.03081489354372" lon="5.655015176162124">
        <ele>360.39999389648437</ele>
        <time>2014-05-19T08:22:31Z</time>
      </trkpt>
      <trkpt lat="45.030676927417517" lon="5.655059097334743">
        <ele>361</ele>
        <time>2014-05-19T08:22:34Z</time>
      </trkpt>
      <trkpt lat="45.030595120042562" lon="5.6551234703511">
        <ele>361</ele>
        <time>2014-05-19T08:22:36Z</time>
      </trkpt>
      <trkpt lat="45.030516162514687" lon="5.655197817832232">
        <ele>361</ele>
        <time>2014-05-19T08:22:38Z</time>
      </trkpt>
      <trkpt lat="45.030334023758769" lon="5.655388422310352">
        <ele>361</ele>
        <time>2014-05-19T08:22:43Z</time>
      </trkpt>
      <trkpt lat="45.030223047360778" lon="5.655495123937726">
        <ele>361.39999389648437</ele>
        <time>2014-05-19T08:22:46Z</time>
      </trkpt>
      <trkpt lat="45.030108969658613" lon="5.655559999868274">
        <ele>362</ele>
        <time>2014-05-19T08:22:49Z</time>
      </trkpt>
      <trkpt lat="45.030073178932071" lon="5.655582966282964">
        <ele>362.20001220703125</ele>
        <time>2014-05-19T08:22:50Z</time>
      </trkpt>
      <trkpt lat="45.029899505898356" lon="5.655640298500657">
        <ele>363</ele>
        <time>2014-05-19T08:22:55Z</time>
      </trkpt>
      <trkpt lat="45.029862960800529" lon="5.655631748959422">
        <ele>363.20001220703125</ele>
        <time>2014-05-19T08:22:56Z</time>
      </trkpt>
      <trkpt lat="45.029653580859303" lon="5.655526556074619">
        <ele>364</ele>
        <time>2014-05-19T08:23:02Z</time>
      </trkpt>
      <trkpt lat="45.029618041589856" lon="5.65551046282053">
        <ele>364.39999389648437</ele>
        <time>2014-05-19T08:23:03Z</time>
      </trkpt>
      <trkpt lat="45.029415283352137" lon="5.655391104519367">
        <ele>365.20001220703125</ele>
        <time>2014-05-19T08:23:09Z</time>
      </trkpt>
      <trkpt lat="45.02935484983027" lon="5.655358079820871">
        <ele>365.79998779296875</ele>
        <time>2014-05-19T08:23:11Z</time>
      </trkpt>
      <trkpt lat="45.029216213151813" lon="5.655275601893663">
        <ele>366.60000610351562</ele>
        <time>2014-05-19T08:23:16Z</time>
      </trkpt>
      <trkpt lat="45.029187211766839" lon="5.655257161706686">
        <ele>366.79998779296875</ele>
        <time>2014-05-19T08:23:17Z</time>
      </trkpt>
      <trkpt lat="45.02899719402194" lon="5.655147023499012">
        <ele>367.79998779296875</ele>
        <time>2014-05-19T08:23:24Z</time>
      </trkpt>
      <trkpt lat="45.028816815465689" lon="5.655041243880987">
        <ele>368.79998779296875</ele>
        <time>2014-05-19T08:23:31Z</time>
      </trkpt>
      <trkpt lat="45.028772642835975" lon="5.654991287738085">
        <ele>369.20001220703125</ele>
        <time>2014-05-19T08:23:33Z</time>
      </trkpt>
      <trkpt lat="45.028698462992907" lon="5.654883831739426">
        <ele>370</ele>
        <time>2014-05-19T08:23:37Z</time>
      </trkpt>
      <trkpt lat="45.02863559871912" lon="5.654803868383169">
        <ele>370.20001220703125</ele>
        <time>2014-05-19T08:23:40Z</time>
      </trkpt>
      <trkpt lat="45.02853493206203" lon="5.654654586687684">
        <ele>370.79998779296875</ele>
        <time>2014-05-19T08:23:45Z</time>
      </trkpt>
      <trkpt lat="45.028485478833318" lon="5.654613515362144">
        <ele>371.20001220703125</ele>
        <time>2014-05-19T08:23:47Z</time>
      </trkpt>
      <trkpt lat="45.028358912095428" lon="5.654550148174167">
        <ele>371.79998779296875</ele>
        <time>2014-05-19T08:23:52Z</time>
      </trkpt>
      <trkpt lat="45.028305184096098" lon="5.654541850090027">
        <ele>372.20001220703125</ele>
        <time>2014-05-19T08:23:54Z</time>
      </trkpt>
      <trkpt lat="45.02821147441864" lon="5.654554171487689">
        <ele>372.79998779296875</ele>
        <time>2014-05-19T08:23:58Z</time>
      </trkpt>
      <trkpt lat="45.028164116665721" lon="5.654567331075668">
        <ele>373.20001220703125</ele>
        <time>2014-05-19T08:24:00Z</time>
      </trkpt>
      <trkpt lat="45.028060851618648" lon="5.654612090438604">
        <ele>374</ele>
        <time>2014-05-19T08:24:04Z</time>
      </trkpt>
      <trkpt lat="45.028037466108799" lon="5.654619466513395">
        <ele>374.39999389648437</ele>
        <time>2014-05-19T08:24:05Z</time>
      </trkpt>
      <trkpt lat="45.027928501367569" lon="5.654626088216901">
        <ele>375</ele>
        <time>2014-05-19T08:24:10Z</time>
      </trkpt>
      <trkpt lat="45.027875695377588" lon="5.654587699100375">
        <ele>375.39999389648437</ele>
        <time>2014-05-19T08:24:13Z</time>
      </trkpt>
      <trkpt lat="45.027848873287439" lon="5.654548723250628">
        <ele>375.60000610351562</ele>
        <time>2014-05-19T08:24:15Z</time>
      </trkpt>
      <trkpt lat="45.027818446978927" lon="5.654405225068331">
        <ele>376</ele>
        <time>2014-05-19T08:24:20Z</time>
      </trkpt>
      <trkpt lat="45.027783242985606" lon="5.654341103509069">
        <ele>376.60000610351562</ele>
        <time>2014-05-19T08:24:23Z</time>
      </trkpt>
      <trkpt lat="45.027736639603972" lon="5.654304390773177">
        <ele>376.79998779296875</ele>
        <time>2014-05-19T08:24:26Z</time>
      </trkpt>
      <trkpt lat="45.027671428397298" lon="5.654301792383194">
        <ele>376.60000610351562</ele>
        <time>2014-05-19T08:28:12Z</time>
      </trkpt>
      <trkpt lat="45.02753765322268" lon="5.654304893687367">
        <ele>377.39999389648437</ele>
        <time>2014-05-19T08:28:17Z</time>
      </trkpt>
      <trkpt lat="45.027514016255736" lon="5.654310258105397">
        <ele>377.60000610351562</ele>
        <time>2014-05-19T08:28:18Z</time>
      </trkpt>
      <trkpt lat="45.027426844462752" lon="5.654345294460654">
        <ele>378.60000610351562</ele>
        <time>2014-05-19T08:28:22Z</time>
      </trkpt>
      <trkpt lat="45.027390634641051" lon="5.654366165399551">
        <ele>379.60000610351562</ele>
        <time>2014-05-19T08:28:24Z</time>
      </trkpt>
      <trkpt lat="45.027325758710504" lon="5.654430873692036">
        <ele>380.79998779296875</ele>
        <time>2014-05-19T08:28:28Z</time>
      </trkpt>
      <trkpt lat="45.027285106480122" lon="5.654494408518076">
        <ele>381.20001220703125</ele>
        <time>2014-05-19T08:28:31Z</time>
      </trkpt>
      <trkpt lat="45.027232216671109" lon="5.654561212286353">
        <ele>382</ele>
        <time>2014-05-19T08:28:35Z</time>
      </trkpt>
      <trkpt lat="45.027202880010009" lon="5.654594404622912">
        <ele>382.39999389648437</ele>
        <time>2014-05-19T08:28:37Z</time>
      </trkpt>
      <trkpt lat="45.02715946175158" lon="5.654635224491358">
        <ele>383.20001220703125</ele>
        <time>2014-05-19T08:28:40Z</time>
      </trkpt>
      <trkpt lat="45.027095256373286" lon="5.654676128178835">
        <ele>384.20001220703125</ele>
        <time>2014-05-19T08:28:44Z</time>
      </trkpt>
      <trkpt lat="45.027077654376626" lon="5.654685515910387">
        <ele>384.39999389648437</ele>
        <time>2014-05-19T08:28:45Z</time>
      </trkpt>
      <trkpt lat="45.026970449835062" lon="5.654745614156127">
        <ele>385.60000610351562</ele>
        <time>2014-05-19T08:28:51Z</time>
      </trkpt>
      <trkpt lat="45.026951842010021" lon="5.654756594449282">
        <ele>385.79998779296875</ele>
        <time>2014-05-19T08:28:52Z</time>
      </trkpt>
      <trkpt lat="45.026853270828724" lon="5.654803868383169">
        <ele>386.60000610351562</ele>
        <time>2014-05-19T08:28:57Z</time>
      </trkpt>
      <trkpt lat="45.026794848963618" lon="5.654835971072316">
        <ele>387</ele>
        <time>2014-05-19T08:29:00Z</time>
      </trkpt>
      <trkpt lat="45.026717483997345" lon="5.654867151752114">
        <ele>387.60000610351562</ele>
        <time>2014-05-19T08:29:04Z</time>
      </trkpt>
      <trkpt lat="45.026667108759284" lon="5.65490554086864">
        <ele>388</ele>
        <time>2014-05-19T08:29:07Z</time>
      </trkpt>
      <trkpt lat="45.026602316647768" lon="5.654929932206869">
        <ele>388.79998779296875</ele>
        <time>2014-05-19T08:29:11Z</time>
      </trkpt>
      <trkpt lat="45.026569040492177" lon="5.654947701841593">
        <ele>389.39999389648437</ele>
        <time>2014-05-19T08:29:13Z</time>
      </trkpt>
      <trkpt lat="45.026490669697523" lon="5.654983911663294">
        <ele>389.79998779296875</ele>
        <time>2014-05-19T08:29:17Z</time>
      </trkpt>
      <trkpt lat="45.02645093947649" lon="5.655002184212208">
        <ele>390.20001220703125</ele>
        <time>2014-05-19T08:29:19Z</time>
      </trkpt>
      <trkpt lat="45.026358487084508" lon="5.655046356841922">
        <ele>391</ele>
        <time>2014-05-19T08:29:24Z</time>
      </trkpt>
      <trkpt lat="45.026300316676497" lon="5.655058175325394">
        <ele>391.39999389648437</ele>
        <time>2014-05-19T08:29:27Z</time>
      </trkpt>
      <trkpt lat="45.026237536221743" lon="5.655069826170802">
        <ele>392</ele>
        <time>2014-05-19T08:29:30Z</time>
      </trkpt>
      <trkpt lat="45.026169558987021" lon="5.655097821727395">
        <ele>393.20001220703125</ele>
        <time>2014-05-19T08:29:34Z</time>
      </trkpt>
      <trkpt lat="45.02615287899971" lon="5.655104108154774">
        <ele>393.39999389648438</ele>
        <time>2014-05-19T08:29:35Z</time>
      </trkpt>
      <trkpt lat="45.026051206514239" lon="5.655101509764791">
        <ele>394.20001220703125</ele>
        <time>2014-05-19T08:29:41Z</time>
      </trkpt>
      <trkpt lat="45.025957664474845" lon="5.655115339905024">
        <ele>395.39999389648437</ele>
        <time>2014-05-19T08:29:46Z</time>
      </trkpt>
      <trkpt lat="45.02592078410089" lon="5.655124895274639">
        <ele>395.60000610351562</ele>
        <time>2014-05-19T08:29:48Z</time>
      </trkpt>
      <trkpt lat="45.025812406092882" lon="5.655164541676641">
        <ele>396.60000610351562</ele>
        <time>2014-05-19T08:29:54Z</time>
      </trkpt>
      <trkpt lat="45.025738310068846" lon="5.655190441757441">
        <ele>397</ele>
        <time>2014-05-19T08:29:58Z</time>
      </trkpt>
      <trkpt lat="45.025701345875859" lon="5.655206199735403">
        <ele>397.60000610351562</ele>
        <time>2014-05-19T08:30:00Z</time>
      </trkpt>
      <trkpt lat="45.025605037808418" lon="5.655300328508019">
        <ele>398.60000610351562</ele>
        <time>2014-05-19T08:30:06Z</time>
      </trkpt>
      <trkpt lat="45.025507472455502" lon="5.655404264107347">
        <ele>399.79998779296875</ele>
        <time>2014-05-19T08:30:12Z</time>
      </trkpt>
      <trkpt lat="45.025480901822448" lon="5.655448352918029">
        <ele>400</ele>
        <time>2014-05-19T08:30:14Z</time>
      </trkpt>
      <trkpt lat="45.025424743071198" lon="5.655520772561431">
        <ele>400.79998779296875</ele>
        <time>2014-05-19T08:30:18Z</time>
      </trkpt>
      <trkpt lat="45.025365902110934" lon="5.655604675412178">
        <ele>401.39999389648437</ele>
        <time>2014-05-19T08:30:22Z</time>
      </trkpt>
      <trkpt lat="45.025344528257847" lon="5.655669551342726">
        <ele>402</ele>
        <time>2014-05-19T08:30:24Z</time>
      </trkpt>
      <trkpt lat="45.025288453325629" lon="5.655776085332036">
        <ele>402.79998779296875</ele>
        <time>2014-05-19T08:30:28Z</time>
      </trkpt>
      <trkpt lat="45.025269845500588" lon="5.655820844694972">
        <ele>403</ele>
        <time>2014-05-19T08:30:30Z</time>
      </trkpt>
      <trkpt lat="45.025218380615115" lon="5.655926708132029">
        <ele>403.79998779296875</ele>
        <time>2014-05-19T08:30:34Z</time>
      </trkpt>
      <trkpt lat="45.025187619030476" lon="5.655977251008153">
        <ele>404.20001220703125</ele>
        <time>2014-05-19T08:30:36Z</time>
      </trkpt>
      <trkpt lat="45.025139758363366" lon="5.656013377010822">
        <ele>405</ele>
        <time>2014-05-19T08:30:39Z</time>
      </trkpt>
      <trkpt lat="45.025121318176389" lon="5.656007509678602">
        <ele>405.20001220703125</ele>
        <time>2014-05-19T08:30:40Z</time>
      </trkpt>
      <trkpt lat="45.025103464722633" lon="5.655991248786449">
        <ele>405.39999389648437</ele>
        <time>2014-05-19T08:30:41Z</time>
      </trkpt>
      <trkpt lat="45.025093574076891" lon="5.655898712575436">
        <ele>405.79998779296875</ele>
        <time>2014-05-19T08:30:44Z</time>
      </trkpt>
      <trkpt lat="45.025105895474553" lon="5.655786227434874">
        <ele>406.60000610351562</ele>
        <time>2014-05-19T08:30:48Z</time>
      </trkpt>
      <trkpt lat="45.025110505521297" lon="5.655758148059249">
        <ele>407</ele>
        <time>2014-05-19T08:30:49Z</time>
      </trkpt>
      <trkpt lat="45.025115869939327" lon="5.655645076185465">
        <ele>407.60000610351562</ele>
        <time>2014-05-19T08:30:53Z</time>
      </trkpt>
      <trkpt lat="45.02511796541512" lon="5.655532507225871">
        <ele>408.20001220703125</ele>
        <time>2014-05-19T08:30:57Z</time>
      </trkpt>
      <trkpt lat="45.02512576058507" lon="5.655421782284975">
        <ele>408.79998779296875</ele>
        <time>2014-05-19T08:31:01Z</time>
      </trkpt>
      <trkpt lat="45.025142189115286" lon="5.655303513631225">
        <ele>409.39999389648437</ele>
        <time>2014-05-19T08:31:05Z</time>
      </trkpt>
      <trkpt lat="45.025151744484901" lon="5.655254479497671">
        <ele>409.79998779296875</ele>
        <time>2014-05-19T08:31:07Z</time>
      </trkpt>
      <trkpt lat="45.025181584060192" lon="5.655150795355439">
        <ele>410.39999389648438</ele>
        <time>2014-05-19T08:31:11Z</time>
      </trkpt>
      <trkpt lat="45.025188205763698" lon="5.655123386532068">
        <ele>410.79998779296875</ele>
        <time>2014-05-19T08:31:12Z</time>
      </trkpt>
      <trkpt lat="45.025204550474882" lon="5.655004614964128">
        <ele>411.79998779296875</ele>
        <time>2014-05-19T08:31:17Z</time>
      </trkpt>
      <trkpt lat="45.025213351473212" lon="5.654981983825564">
        <ele>412</ele>
        <time>2014-05-19T08:31:18Z</time>
      </trkpt>
      <trkpt lat="45.025251740589738" lon="5.65489187836647">
        <ele>412.60000610351562</ele>
        <time>2014-05-19T08:31:23Z</time>
      </trkpt>
      <trkpt lat="45.025267414748669" lon="5.654849046841264">
        <ele>413</ele>
        <time>2014-05-19T08:31:25Z</time>
      </trkpt>
      <trkpt lat="45.025338660925627" lon="5.654752738773823">
        <ele>413.79998779296875</ele>
        <time>2014-05-19T08:31:30Z</time>
      </trkpt>
      <trkpt lat="45.025365985929966" lon="5.654724575579166">
        <ele>414</ele>
        <time>2014-05-19T08:31:32Z</time>
      </trkpt>
      <trkpt lat="45.025438237935305" lon="5.654656179249287">
        <ele>415.20001220703125</ele>
        <time>2014-05-19T08:31:37Z</time>
      </trkpt>
      <trkpt lat="45.025454079732299" lon="5.654643271118403">
        <ele>415.20001220703125</ele>
        <time>2014-05-19T08:31:38Z</time>
      </trkpt>
      <trkpt lat="45.025562709197402" lon="5.654547465965152">
        <ele>416.39999389648437</ele>
        <time>2014-05-19T08:31:45Z</time>
      </trkpt>
      <trkpt lat="45.025610905140638" lon="5.654514944180846">
        <ele>416.60000610351562</ele>
        <time>2014-05-19T08:31:48Z</time>
      </trkpt>
      <trkpt lat="45.025661196559668" lon="5.654458282515407">
        <ele>417.20001220703125</ele>
        <time>2014-05-19T08:31:52Z</time>
      </trkpt>
      <trkpt lat="45.025672679767013" lon="5.654433974996209">
        <ele>417.60000610351562</ele>
        <time>2014-05-19T08:31:53Z</time>
      </trkpt>
      <trkpt lat="45.025675697252154" lon="5.654382258653641">
        <ele>417.79998779296875</ele>
        <time>2014-05-19T08:31:55Z</time>
      </trkpt>
      <trkpt lat="45.02561685629189" lon="5.654332302510738">
        <ele>418.60000610351562</ele>
        <time>2014-05-19T08:31:59Z</time>
      </trkpt>
      <trkpt lat="45.02559975720942" lon="5.654330626130104">
        <ele>418.79998779296875</ele>
        <time>2014-05-19T08:32:00Z</time>
      </trkpt>
      <trkpt lat="45.025562876835465" lon="5.654334481805563">
        <ele>419</ele>
        <time>2014-05-19T08:32:02Z</time>
      </trkpt>
      <trkpt lat="45.02549665980041" lon="5.654365159571171">
        <ele>419.79998779296875</ele>
        <time>2014-05-19T08:32:06Z</time>
      </trkpt>
      <trkpt lat="45.02537545748055" lon="5.654439590871334">
        <ele>420.60000610351562</ele>
        <time>2014-05-19T08:32:13Z</time>
      </trkpt>
      <trkpt lat="45.025338744744658" lon="5.654460461810231">
        <ele>421</ele>
        <time>2014-05-19T08:32:15Z</time>
      </trkpt>
      <trkpt lat="45.025225505232811" lon="5.654518380761147">
        <ele>422</ele>
        <time>2014-05-19T08:32:21Z</time>
      </trkpt>
      <trkpt lat="45.025187702849507" lon="5.654535898938775">
        <ele>422.39999389648437</ele>
        <time>2014-05-19T08:32:23Z</time>
      </trkpt>
      <trkpt lat="45.025133304297924" lon="5.654549645259976">
        <ele>423</ele>
        <time>2014-05-19T08:32:26Z</time>
      </trkpt>
      <trkpt lat="45.025056777521968" lon="5.654584933072329">
        <ele>423.79998779296875</ele>
        <time>2014-05-19T08:32:30Z</time>
      </trkpt>
      <trkpt lat="45.025017550215125" lon="5.654596667736769">
        <ele>424.39999389648438</ele>
        <time>2014-05-19T08:32:32Z</time>
      </trkpt>
      <trkpt lat="45.024920906871557" lon="5.654634218662977">
        <ele>425.20001220703125</ele>
        <time>2014-05-19T08:32:37Z</time>
      </trkpt>
      <trkpt lat="45.02490540035069" lon="5.654646204784513">
        <ele>425.39999389648437</ele>
        <time>2014-05-19T08:32:38Z</time>
      </trkpt>
      <trkpt lat="45.024803979322314" lon="5.65471694804728">
        <ele>426.39999389648437</ele>
        <time>2014-05-19T08:32:45Z</time>
      </trkpt>
      <trkpt lat="45.024710185825825" lon="5.654802275821567">
        <ele>427.60000610351562</ele>
        <time>2014-05-19T08:32:51Z</time>
      </trkpt>
      <trkpt lat="45.024694679304957" lon="5.654811076819897">
        <ele>427.79998779296875</ele>
        <time>2014-05-19T08:32:52Z</time>
      </trkpt>
      <trkpt lat="45.024678418412805" lon="5.654824320226908">
        <ele>428</ele>
        <time>2014-05-19T08:32:53Z</time>
      </trkpt>
      <trkpt lat="45.024625025689602" lon="5.65487670712173">
        <ele>428.60000610351562</ele>
        <time>2014-05-19T08:32:57Z</time>
      </trkpt>
      <trkpt lat="45.0246044062078" lon="5.654892884194851">
        <ele>428.79998779296875</ele>
        <time>2014-05-19T08:32:58Z</time>
      </trkpt>
      <trkpt lat="45.024544727057219" lon="5.654962956905365">
        <ele>429.60000610351562</ele>
        <time>2014-05-19T08:33:03Z</time>
      </trkpt>
      <trkpt lat="45.024518575519323" lon="5.655014589428902">
        <ele>429.79998779296875</ele>
        <time>2014-05-19T08:33:05Z</time>
      </trkpt>
      <trkpt lat="45.024450765922666" lon="5.655102515593171">
        <ele>430.60000610351562</ele>
        <time>2014-05-19T08:33:10Z</time>
      </trkpt>
      <trkpt lat="45.024429308250546" lon="5.655140317976475">
        <ele>431</ele>
        <time>2014-05-19T08:33:12Z</time>
      </trkpt>
      <trkpt lat="45.024402569979429" lon="5.655172755941749">
        <ele>431.39999389648437</ele>
        <time>2014-05-19T08:33:14Z</time>
      </trkpt>
      <trkpt lat="45.024383375421166" lon="5.655220951884985">
        <ele>431.79998779296875</ele>
        <time>2014-05-19T08:33:16Z</time>
      </trkpt>
      <trkpt lat="45.024346243590117" lon="5.655293790623546">
        <ele>432.20001220703125</ele>
        <time>2014-05-19T08:33:19Z</time>
      </trkpt>
      <trkpt lat="45.024332497268915" lon="5.655309297144413">
        <ele>432.39999389648437</ele>
        <time>2014-05-19T08:33:20Z</time>
      </trkpt>
      <trkpt lat="45.024307435378432" lon="5.655351374298334">
        <ele>432.60000610351562</ele>
        <time>2014-05-19T08:33:22Z</time>
      </trkpt>
      <trkpt lat="45.024250857532024" lon="5.655461763963103">
        <ele>433.39999389648437</ele>
        <time>2014-05-19T08:33:27Z</time>
      </trkpt>
      <trkpt lat="45.024226047098637" lon="5.655538374558091">
        <ele>434</ele>
        <time>2014-05-19T08:33:30Z</time>
      </trkpt>
      <trkpt lat="45.024220682680607" lon="5.655609956011176">
        <ele>434.39999389648437</ele>
        <time>2014-05-19T08:33:33Z</time>
      </trkpt>
      <trkpt lat="45.024220263585448" lon="5.65566242672503">
        <ele>434.60000610351562</ele>
        <time>2014-05-19T08:33:35Z</time>
      </trkpt>
      <trkpt lat="45.024210540577769" lon="5.65579921938479">
        <ele>435.39999389648437</ele>
        <time>2014-05-19T08:33:40Z</time>
      </trkpt>
      <trkpt lat="45.024210624396801" lon="5.655847582966089">
        <ele>435.79998779296875</ele>
        <time>2014-05-19T08:33:42Z</time>
      </trkpt>
      <trkpt lat="45.024200985208154" lon="5.655982112511993">
        <ele>436.60000610351562</ele>
        <time>2014-05-19T08:33:47Z</time>
      </trkpt>
      <trkpt lat="45.024196626618505" lon="5.656012203544378">
        <ele>436.79998779296875</ele>
        <time>2014-05-19T08:33:48Z</time>
      </trkpt>
      <trkpt lat="45.024204924702644" lon="5.656061405315995">
        <ele>437</ele>
        <time>2014-05-19T08:33:50Z</time>
      </trkpt>
      <trkpt lat="45.02420324832201" lon="5.656139440834522">
        <ele>437.39999389648437</ele>
        <time>2014-05-19T08:33:53Z</time>
      </trkpt>
      <trkpt lat="45.024205343797803" lon="5.656194677576423">
        <ele>437.39999389648437</ele>
        <time>2014-05-19T08:33:55Z</time>
      </trkpt>
      <trkpt lat="45.024199392646551" lon="5.656249159947038">
        <ele>437.79998779296875</ele>
        <time>2014-05-19T08:33:57Z</time>
      </trkpt>
      <trkpt lat="45.02418321557343" lon="5.656309258192778">
        <ele>438.20001220703125</ele>
        <time>2014-05-19T08:33:59Z</time>
      </trkpt>
      <trkpt lat="45.024121357128024" lon="5.65644227899611">
        <ele>439</ele>
        <time>2014-05-19T08:34:04Z</time>
      </trkpt>
      <trkpt lat="45.024085901677608" lon="5.656487038359046">
        <ele>439.20001220703125</ele>
        <time>2014-05-19T08:34:06Z</time>
      </trkpt>
      <trkpt lat="45.024015326052904" lon="5.656539760529995">
        <ele>440</ele>
        <time>2014-05-19T08:34:10Z</time>
      </trkpt>
      <trkpt lat="45.023930920287967" lon="5.656592734158039">
        <ele>440.79998779296875</ele>
        <time>2014-05-19T08:34:15Z</time>
      </trkpt>
      <trkpt lat="45.023875264450908" lon="5.656635733321309">
        <ele>441</ele>
        <time>2014-05-19T08:34:18Z</time>
      </trkpt>
      <trkpt lat="45.023807203397155" lon="5.656673619523644">
        <ele>441.60000610351562</ele>
        <time>2014-05-19T08:34:22Z</time>
      </trkpt>
      <trkpt lat="45.023773005232215" lon="5.656683007255197">
        <ele>442.20001220703125</ele>
        <time>2014-05-19T08:34:24Z</time>
      </trkpt>
      <trkpt lat="45.023649036884308" lon="5.656724413856864">
        <ele>443.20001220703125</ele>
        <time>2014-05-19T08:34:31Z</time>
      </trkpt>
      <trkpt lat="45.023490451276302" lon="5.656727012246847">
        <ele>444.39999389648438</ele>
        <time>2014-05-19T08:34:39Z</time>
      </trkpt>
      <trkpt lat="45.023470250889659" lon="5.656719887629151">
        <ele>444.60000610351562</ele>
        <time>2014-05-19T08:34:40Z</time>
      </trkpt>
      <trkpt lat="45.023373272269964" lon="5.656689712777734">
        <ele>445.60000610351562</ele>
        <time>2014-05-19T08:34:45Z</time>
      </trkpt>
      <trkpt lat="45.023315856233239" lon="5.656656520441175">
        <ele>446.20001220703125</ele>
        <time>2014-05-19T08:34:48Z</time>
      </trkpt>
      <trkpt lat="45.023255506530404" lon="5.656655514612794">
        <ele>446.79998779296875</ele>
        <time>2014-05-19T08:34:51Z</time>
      </trkpt>
      <trkpt lat="45.023181661963463" lon="5.656625255942345">
        <ele>447.39999389648438</ele>
        <time>2014-05-19T08:34:55Z</time>
      </trkpt>
      <trkpt lat="45.023120557889342" lon="5.656600277870894">
        <ele>448</ele>
        <time>2014-05-19T08:34:58Z</time>
      </trkpt>
      <trkpt lat="45.023062052205205" lon="5.656582759693265">
        <ele>448.60000610351562</ele>
        <time>2014-05-19T08:35:01Z</time>
      </trkpt>
      <trkpt lat="45.023007318377495" lon="5.656575551256537">
        <ele>449</ele>
        <time>2014-05-19T08:35:04Z</time>
      </trkpt>
      <trkpt lat="45.022923666983843" lon="5.65652777440846">
        <ele>449.79998779296875</ele>
        <time>2014-05-19T08:35:09Z</time>
      </trkpt>
      <trkpt lat="45.022906064987183" lon="5.656516710296273">
        <ele>450</ele>
        <time>2014-05-19T08:35:10Z</time>
      </trkpt>
      <trkpt lat="45.022807829082012" lon="5.656483015045524">
        <ele>451.20001220703125</ele>
        <time>2014-05-19T08:35:16Z</time>
      </trkpt>
      <trkpt lat="45.022790394723415" lon="5.65648184157908">
        <ele>451.20001220703125</ele>
        <time>2014-05-19T08:35:17Z</time>
      </trkpt>
      <trkpt lat="45.022708252072334" lon="5.656436160206795">
        <ele>452.20001220703125</ele>
        <time>2014-05-19T08:35:22Z</time>
      </trkpt>
      <trkpt lat="45.022677322849631" lon="5.656426604837179">
        <ele>452.60000610351562</ele>
        <time>2014-05-19T08:35:24Z</time>
      </trkpt>
      <trkpt lat="45.022602723911405" lon="5.656387461349368">
        <ele>453.20001220703125</ele>
        <time>2014-05-19T08:35:29Z</time>
      </trkpt>
      <trkpt lat="45.022556623443961" lon="5.656348234042525">
        <ele>453.79998779296875</ele>
        <time>2014-05-19T08:35:32Z</time>
      </trkpt>
      <trkpt lat="45.022512953728437" lon="5.65633968450129">
        <ele>454.39999389648437</ele>
        <time>2014-05-19T08:35:35Z</time>
      </trkpt>
      <trkpt lat="45.022468445822597" lon="5.656316047534347">
        <ele>454.79998779296875</ele>
        <time>2014-05-19T08:35:38Z</time>
      </trkpt>
      <trkpt lat="45.022418070584536" lon="5.65627564676106">
        <ele>455.39999389648437</ele>
        <time>2014-05-19T08:35:41Z</time>
      </trkpt>
      <trkpt lat="45.022373227402568" lon="5.656240778043866">
        <ele>456</ele>
        <time>2014-05-19T08:35:44Z</time>
      </trkpt>
      <trkpt lat="45.022306423634291" lon="5.656215464696288">
        <ele>456.39999389648437</ele>
        <time>2014-05-19T08:35:48Z</time>
      </trkpt>
      <trkpt lat="45.022207936272025" lon="5.656183278188109">
        <ele>457.20001220703125</ele>
        <time>2014-05-19T08:35:53Z</time>
      </trkpt>
      <trkpt lat="45.022187987342477" lon="5.656179673969746">
        <ele>457.39999389648437</ele>
        <time>2014-05-19T08:35:54Z</time>
      </trkpt>
      <trkpt lat="45.022047506645322" lon="5.656198114156723">
        <ele>458.60000610351562</ele>
        <time>2014-05-19T08:36:01Z</time>
      </trkpt>
      <trkpt lat="45.021930076181889" lon="5.656197527423501">
        <ele>459.39999389648437</ele>
        <time>2014-05-19T08:36:08Z</time>
      </trkpt>
      <trkpt lat="45.021911719813943" lon="5.656204065307975">
        <ele>459.79998779296875</ele>
        <time>2014-05-19T08:36:09Z</time>
      </trkpt>
      <trkpt lat="45.021784817799926" lon="5.656212698668242">
        <ele>460.60000610351562</ele>
        <time>2014-05-19T08:36:16Z</time>
      </trkpt>
      <trkpt lat="45.021768053993583" lon="5.656213536858559">
        <ele>460.79998779296875</ele>
        <time>2014-05-19T08:36:17Z</time>
      </trkpt>
      <trkpt lat="45.021667303517461" lon="5.656237341463566">
        <ele>462</ele>
        <time>2014-05-19T08:36:23Z</time>
      </trkpt>
      <trkpt lat="45.021649282425642" lon="5.656242622062564">
        <ele>462.20001220703125</ele>
        <time>2014-05-19T08:36:24Z</time>
      </trkpt>
      <trkpt lat="45.021552052348852" lon="5.656260056421161">
        <ele>463</ele>
        <time>2014-05-19T08:36:29Z</time>
      </trkpt>
      <trkpt lat="45.021514082327485" lon="5.656265504658222">
        <ele>463.39999389648437</ele>
        <time>2014-05-19T08:36:31Z</time>
      </trkpt>
      <trkpt lat="45.021452056244016" lon="5.656276736408472">
        <ele>464.20001220703125</ele>
        <time>2014-05-19T08:36:34Z</time>
      </trkpt>
      <trkpt lat="45.021339068189263" lon="5.656288806349039">
        <ele>465</ele>
        <time>2014-05-19T08:36:40Z</time>
      </trkpt>
      <trkpt lat="45.021319705992937" lon="5.656296014785767">
        <ele>465.20001220703125</ele>
        <time>2014-05-19T08:36:41Z</time>
      </trkpt>
      <trkpt lat="45.021193558350205" lon="5.656335493549705">
        <ele>466.20001220703125</ele>
        <time>2014-05-19T08:36:47Z</time>
      </trkpt>
      <trkpt lat="45.021094819530845" lon="5.656391149386764">
        <ele>467.39999389648437</ele>
        <time>2014-05-19T08:36:52Z</time>
      </trkpt>
      <trkpt lat="45.021055676043034" lon="5.656403303146362">
        <ele>467.79998779296875</ele>
        <time>2014-05-19T08:36:54Z</time>
      </trkpt>
      <trkpt lat="45.020980322733521" lon="5.656434400007129">
        <ele>468.39999389648437</ele>
        <time>2014-05-19T08:36:58Z</time>
      </trkpt>
      <trkpt lat="45.020885188132524" lon="5.656470358371735">
        <ele>469.20001220703125</ele>
        <time>2014-05-19T08:37:03Z</time>
      </trkpt>
      <trkpt lat="45.020849145948887" lon="5.656498773023486">
        <ele>469.39999389648437</ele>
        <time>2014-05-19T08:37:05Z</time>
      </trkpt>
      <trkpt lat="45.020743533968925" lon="5.65657077357173">
        <ele>470.60000610351562</ele>
        <time>2014-05-19T08:37:11Z</time>
      </trkpt>
      <trkpt lat="45.020647728815675" lon="5.656617041677237">
        <ele>471.79998779296875</ele>
        <time>2014-05-19T08:37:16Z</time>
      </trkpt>
      <trkpt lat="45.020563239231706" lon="5.656655598431826">
        <ele>472.39999389648437</ele>
        <time>2014-05-19T08:37:20Z</time>
      </trkpt>
      <trkpt lat="45.020499620586634" lon="5.656671607866883">
        <ele>472.79998779296875</ele>
        <time>2014-05-19T08:37:23Z</time>
      </trkpt>
      <trkpt lat="45.020436588674784" lon="5.656684180721641">
        <ele>473.39999389648437</ele>
        <time>2014-05-19T08:37:26Z</time>
      </trkpt>
      <trkpt lat="45.02035042271018" lon="5.656679235398769">
        <ele>473.79998779296875</ele>
        <time>2014-05-19T08:37:30Z</time>
      </trkpt>
      <trkpt lat="45.020258221775293" lon="5.656672194600105">
        <ele>474.60000610351562</ele>
        <time>2014-05-19T08:37:34Z</time>
      </trkpt>
      <trkpt lat="45.020235758274794" lon="5.656673116609454">
        <ele>474.79998779296875</ele>
        <time>2014-05-19T08:37:35Z</time>
      </trkpt>
      <trkpt lat="45.0201266258955" lon="5.656669260933995">
        <ele>476</ele>
        <time>2014-05-19T08:37:40Z</time>
      </trkpt>
      <trkpt lat="45.020081447437406" lon="5.656675044447184">
        <ele>476.20001220703125</ele>
        <time>2014-05-19T08:37:42Z</time>
      </trkpt>
      <trkpt lat="45.019941721111536" lon="5.656700441613793">
        <ele>477</ele>
        <time>2014-05-19T08:37:48Z</time>
      </trkpt>
      <trkpt lat="45.019918419420719" lon="5.656709494069219">
        <ele>477</ele>
        <time>2014-05-19T08:37:49Z</time>
      </trkpt>
      <trkpt lat="45.019775005057454" lon="5.656753750517964">
        <ele>478</ele>
        <time>2014-05-19T08:37:55Z</time>
      </trkpt>
      <trkpt lat="45.019752122461796" lon="5.656775292009115">
        <ele>478</ele>
        <time>2014-05-19T08:37:56Z</time>
      </trkpt>
      <trkpt lat="45.019648186862469" lon="5.656862547621131">
        <ele>479.20001220703125</ele>
        <time>2014-05-19T08:38:01Z</time>
      </trkpt>
      <trkpt lat="45.019627064466476" lon="5.656879227608442">
        <ele>479.39999389648437</ele>
        <time>2014-05-19T08:38:02Z</time>
      </trkpt>
      <trkpt lat="45.01952656544745" lon="5.656967908143997">
        <ele>480.20001220703125</ele>
        <time>2014-05-19T08:38:07Z</time>
      </trkpt>
      <trkpt lat="45.019486751407385" lon="5.657000681385398">
        <ele>480.60000610351562</ele>
        <time>2014-05-19T08:38:09Z</time>
      </trkpt>
      <trkpt lat="45.019433442503214" lon="5.657048877328634">
        <ele>481.39999389648438</ele>
        <time>2014-05-19T08:38:12Z</time>
      </trkpt>
      <trkpt lat="45.019348282366991" lon="5.657144347205758">
        <ele>482.20001220703125</ele>
        <time>2014-05-19T08:38:17Z</time>
      </trkpt>
      <trkpt lat="45.019333194941282" lon="5.65716546960175">
        <ele>482.39999389648437</ele>
        <time>2014-05-19T08:38:18Z</time>
      </trkpt>
      <trkpt lat="45.019231270998716" lon="5.657250629737973">
        <ele>483.60000610351562</ele>
        <time>2014-05-19T08:38:24Z</time>
      </trkpt>
      <trkpt lat="45.019126832485199" lon="5.657341741025448">
        <ele>484.79998779296875</ele>
        <time>2014-05-19T08:38:31Z</time>
      </trkpt>
      <trkpt lat="45.019106883555651" lon="5.657342579215765">
        <ele>485</ele>
        <time>2014-05-19T08:38:32Z</time>
      </trkpt>
      <trkpt lat="45.019015772268176" lon="5.657382057979703">
        <ele>486</ele>
        <time>2014-05-19T08:38:37Z</time>
      </trkpt>
      <trkpt lat="45.018975958228111" lon="5.657394547015429">
        <ele>486.39999389648437</ele>
        <time>2014-05-19T08:38:39Z</time>
      </trkpt>
      <trkpt lat="45.018923236057162" lon="5.657434780150652">
        <ele>487</ele>
        <time>2014-05-19T08:38:42Z</time>
      </trkpt>
      <trkpt lat="45.018845535814762" lon="5.657455818727613">
        <ele>487.60000610351562</ele>
        <time>2014-05-19T08:38:46Z</time>
      </trkpt>
      <trkpt lat="45.018812343478203" lon="5.657470319420099">
        <ele>488</ele>
        <time>2014-05-19T08:38:48Z</time>
      </trkpt>
      <trkpt lat="45.018795747309923" lon="5.657478282228112">
        <ele>488.20001220703125</ele>
        <time>2014-05-19T08:38:49Z</time>
      </trkpt>
      <trkpt lat="45.018760962411761" lon="5.657486328855157">
        <ele>488.79998779296875</ele>
        <time>2014-05-19T08:38:51Z</time>
      </trkpt>
      <trkpt lat="45.018727350980043" lon="5.657501919195056">
        <ele>489.20001220703125</ele>
        <time>2014-05-19T08:38:53Z</time>
      </trkpt>
      <trkpt lat="45.01864068210125" lon="5.657535027712584">
        <ele>490</ele>
        <time>2014-05-19T08:38:58Z</time>
      </trkpt>
      <trkpt lat="45.018623918294907" lon="5.657541481778026">
        <ele>490.20001220703125</ele>
        <time>2014-05-19T08:38:59Z</time>
      </trkpt>
      <trkpt lat="45.018497351557016" lon="5.657570399343967">
        <ele>491.20001220703125</ele>
        <time>2014-05-19T08:39:06Z</time>
      </trkpt>
      <trkpt lat="45.018401714041829" lon="5.657571740448475">
        <ele>492.20001220703125</ele>
        <time>2014-05-19T08:39:11Z</time>
      </trkpt>
      <trkpt lat="45.018367264419794" lon="5.657595125958324">
        <ele>492.60000610351562</ele>
        <time>2014-05-19T08:39:13Z</time>
      </trkpt>
      <trkpt lat="45.018281769007444" lon="5.657605100423098">
        <ele>493.20001220703125</ele>
        <time>2014-05-19T08:39:17Z</time>
      </trkpt>
      <trkpt lat="45.018240781500936" lon="5.657597556710243">
        <ele>493.60000610351562</ele>
        <time>2014-05-19T08:39:19Z</time>
      </trkpt>
      <trkpt lat="45.018181605264544" lon="5.657594623044133">
        <ele>494.39999389648437</ele>
        <time>2014-05-19T08:39:22Z</time>
      </trkpt>
      <trkpt lat="45.018079094588757" lon="5.657572830095887">
        <ele>495.20001220703125</ele>
        <time>2014-05-19T08:39:27Z</time>
      </trkpt>
      <trkpt lat="45.018037771806121" lon="5.657579535618424">
        <ele>495.39999389648438</ele>
        <time>2014-05-19T08:39:29Z</time>
      </trkpt>
      <trkpt lat="45.017998125404119" lon="5.657561682164669">
        <ele>495.79998779296875</ele>
        <time>2014-05-19T08:39:31Z</time>
      </trkpt>
      <trkpt lat="45.017960323020816" lon="5.657538129016757">
        <ele>496.20001220703125</ele>
        <time>2014-05-19T08:39:33Z</time>
      </trkpt>
      <trkpt lat="45.017922352999449" lon="5.657524215057492">
        <ele>496.39999389648437</ele>
        <time>2014-05-19T08:39:35Z</time>
      </trkpt>
      <trkpt lat="45.01782906241715" lon="5.657493118196726">
        <ele>497.20001220703125</ele>
        <time>2014-05-19T08:39:40Z</time>
      </trkpt>
      <trkpt lat="45.017810454592109" lon="5.657486747950316">
        <ele>497.39999389648437</ele>
        <time>2014-05-19T08:39:41Z</time>
      </trkpt>
      <trkpt lat="45.017708446830511" lon="5.657453807070851">
        <ele>498.39999389648438</ele>
        <time>2014-05-19T08:39:47Z</time>
      </trkpt>
      <trkpt lat="45.017671566456556" lon="5.657441737130284">
        <ele>498.79998779296875</ele>
        <time>2014-05-19T08:39:49Z</time>
      </trkpt>
      <trkpt lat="45.017585149034858" lon="5.657409047707915">
        <ele>499.60000610351562</ele>
        <time>2014-05-19T08:39:54Z</time>
      </trkpt>
      <trkpt lat="45.017541060224175" lon="5.657390523701906">
        <ele>500</ele>
        <time>2014-05-19T08:39:57Z</time>
      </trkpt>
      <trkpt lat="45.01749730668962" lon="5.65737166441977">
        <ele>500.79998779296875</ele>
        <time>2014-05-19T08:40:00Z</time>
      </trkpt>
      <trkpt lat="45.017423126846552" lon="5.657332185655832">
        <ele>501.39999389648438</ele>
        <time>2014-05-19T08:40:05Z</time>
      </trkpt>
      <trkpt lat="45.017372248694301" lon="5.657302681356669">
        <ele>501.79998779296875</ele>
        <time>2014-05-19T08:40:08Z</time>
      </trkpt>
      <trkpt lat="45.017303517088294" lon="5.657276697456837">
        <ele>502.60000610351562</ele>
        <time>2014-05-19T08:40:12Z</time>
      </trkpt>
      <trkpt lat="45.01726420596242" lon="5.657264292240143">
        <ele>502.79998779296875</ele>
        <time>2014-05-19T08:40:14Z</time>
      </trkpt>
      <trkpt lat="45.017160102725029" lon="5.657222382724285">
        <ele>504</ele>
        <time>2014-05-19T08:40:20Z</time>
      </trkpt>
      <trkpt lat="45.017126156017184" lon="5.657205786556006">
        <ele>504.20001220703125</ele>
        <time>2014-05-19T08:40:22Z</time>
      </trkpt>
      <trkpt lat="45.017070583999157" lon="5.657189358025789">
        <ele>505</ele>
        <time>2014-05-19T08:40:25Z</time>
      </trkpt>
      <trkpt lat="45.016980478540063" lon="5.657164044678211">
        <ele>505.79998779296875</ele>
        <time>2014-05-19T08:40:30Z</time>
      </trkpt>
      <trkpt lat="45.016944017261267" lon="5.657151304185391">
        <ele>506.20001220703125</ele>
        <time>2014-05-19T08:40:32Z</time>
      </trkpt>
      <trkpt lat="45.016845529899001" lon="5.657129008322954">
        <ele>507.20001220703125</ele>
        <time>2014-05-19T08:40:37Z</time>
      </trkpt>
      <trkpt lat="45.016812505200505" lon="5.657112495973706">
        <ele>507.39999389648437</ele>
        <time>2014-05-19T08:40:39Z</time>
      </trkpt>
      <trkpt lat="45.016723908483982" lon="5.657077794894576">
        <ele>508</ele>
        <time>2014-05-19T08:40:44Z</time>
      </trkpt>
      <trkpt lat="45.016681244596839" lon="5.657057594507933">
        <ele>508.39999389648437</ele>
        <time>2014-05-19T08:40:46Z</time>
      </trkpt>
      <trkpt lat="45.016550989821553" lon="5.65698903053999">
        <ele>509.20001220703125</ele>
        <time>2014-05-19T08:40:53Z</time>
      </trkpt>
      <trkpt lat="45.01653078943491" lon="5.656984504312277">
        <ele>509.39999389648437</ele>
        <time>2014-05-19T08:40:54Z</time>
      </trkpt>
      <trkpt lat="45.016419561579823" lon="5.656947875395417">
        <ele>510.20001220703125</ele>
        <time>2014-05-19T08:41:00Z</time>
      </trkpt>
      <trkpt lat="45.01640472561121" lon="5.656940247863531">
        <ele>510.60000610351562</ele>
        <time>2014-05-19T08:41:01Z</time>
      </trkpt>
      <trkpt lat="45.016268519684672" lon="5.656907306984067">
        <ele>511.60000610351562</ele>
        <time>2014-05-19T08:41:09Z</time>
      </trkpt>
      <trkpt lat="45.016172211617231" lon="5.656888112425804">
        <ele>512.5999755859375</ele>
        <time>2014-05-19T08:41:14Z</time>
      </trkpt>
      <trkpt lat="45.016062324866652" lon="5.656880233436823">
        <ele>513.79998779296875</ele>
        <time>2014-05-19T08:43:28Z</time>
      </trkpt>
      <trkpt lat="45.015996946021914" lon="5.65684980712831">
        <ele>513.79998779296875</ele>
        <time>2014-05-19T08:43:31Z</time>
      </trkpt>
      <trkpt lat="45.01591706648469" lon="5.656833546236157">
        <ele>514.79998779296875</ele>
        <time>2014-05-19T08:43:35Z</time>
      </trkpt>
      <trkpt lat="45.015856213867664" lon="5.656826086342335">
        <ele>515.4000244140625</ele>
        <time>2014-05-19T08:43:38Z</time>
      </trkpt>
      <trkpt lat="45.015795361250639" lon="5.656824996694922">
        <ele>516</ele>
        <time>2014-05-19T08:43:41Z</time>
      </trkpt>
      <trkpt lat="45.015710201114416" lon="5.656813932582736">
        <ele>516.5999755859375</ele>
        <time>2014-05-19T08:43:46Z</time>
      </trkpt>
      <trkpt lat="45.015672231093049" lon="5.656807562336326">
        <ele>517.20001220703125</ele>
        <time>2014-05-19T08:43:48Z</time>
      </trkpt>
      <trkpt lat="45.015543987974524" lon="5.65681996755302">
        <ele>518.20001220703125</ele>
        <time>2014-05-19T08:43:55Z</time>
      </trkpt>
      <trkpt lat="45.01552764326334" lon="5.656822565943003">
        <ele>518.4000244140625</ele>
        <time>2014-05-19T08:43:56Z</time>
      </trkpt>
      <trkpt lat="45.015456397086382" lon="5.656840251758695">
        <ele>519.4000244140625</ele>
        <time>2014-05-19T08:44:00Z</time>
      </trkpt>
      <trkpt lat="45.015379367396235" lon="5.656847544014454">
        <ele>520</ele>
        <time>2014-05-19T08:44:04Z</time>
      </trkpt>
      <trkpt lat="45.015322705730796" lon="5.656850477680564">
        <ele>520.4000244140625</ele>
        <time>2014-05-19T08:44:07Z</time>
      </trkpt>
      <trkpt lat="45.015191026031971" lon="5.656814519315958">
        <ele>521.4000244140625</ele>
        <time>2014-05-19T08:44:14Z</time>
      </trkpt>
      <trkpt lat="45.015054736286402" lon="5.656791971996427">
        <ele>522.4000244140625</ele>
        <time>2014-05-19T08:44:21Z</time>
      </trkpt>
      <trkpt lat="45.015034032985568" lon="5.656792810186744">
        <ele>522.5999755859375</ele>
        <time>2014-05-19T08:44:22Z</time>
      </trkpt>
      <trkpt lat="45.014954237267375" lon="5.656791971996427">
        <ele>523.5999755859375</ele>
        <time>2014-05-19T08:44:26Z</time>
      </trkpt>
      <trkpt lat="45.014917440712452" lon="5.65679750405252">
        <ele>523.79998779296875</ele>
        <time>2014-05-19T08:44:28Z</time>
      </trkpt>
      <trkpt lat="45.014820042997599" lon="5.656824326142669">
        <ele>524.5999755859375</ele>
        <time>2014-05-19T08:44:33Z</time>
      </trkpt>
      <trkpt lat="45.014782911166549" lon="5.656835474073887">
        <ele>525</ele>
        <time>2014-05-19T08:44:35Z</time>
      </trkpt>
      <trkpt lat="45.014692638069391" lon="5.656857015565038">
        <ele>525.79998779296875</ele>
        <time>2014-05-19T08:44:40Z</time>
      </trkpt>
      <trkpt lat="45.014674365520477" lon="5.656859697774053">
        <ele>525.79998779296875</ele>
        <time>2014-05-19T08:44:41Z</time>
      </trkpt>
      <trkpt lat="45.014610830694437" lon="5.656855255365372">
        <ele>526.4000244140625</ele>
        <time>2014-05-19T08:44:44Z</time>
      </trkpt>
      <trkpt lat="45.014571435749531" lon="5.656863134354353">
        <ele>526.5999755859375</ele>
        <time>2014-05-19T08:44:46Z</time>
      </trkpt>
      <trkpt lat="45.014552576467395" lon="5.656867995858192">
        <ele>526.79998779296875</ele>
        <time>2014-05-19T08:44:47Z</time>
      </trkpt>
      <trkpt lat="45.014435313642025" lon="5.65689230337739">
        <ele>528</ele>
        <time>2014-05-19T08:44:53Z</time>
      </trkpt>
      <trkpt lat="45.01434713602066" lon="5.656924908980727">
        <ele>529.20001220703125</ele>
        <time>2014-05-19T08:44:58Z</time>
      </trkpt>
      <trkpt lat="45.014330623671412" lon="5.656935386359692">
        <ele>529.20001220703125</ele>
        <time>2014-05-19T08:44:59Z</time>
      </trkpt>
      <trkpt lat="45.014254096895456" lon="5.656975284218788">
        <ele>530.20001220703125</ele>
        <time>2014-05-19T08:45:04Z</time>
      </trkpt>
      <trkpt lat="45.014214031398296" lon="5.657017109915614">
        <ele>530.5999755859375</ele>
        <time>2014-05-19T08:45:07Z</time>
      </trkpt>
      <trkpt lat="45.014169774949551" lon="5.65705013461411">
        <ele>531.20001220703125</ele>
        <time>2014-05-19T08:45:10Z</time>
      </trkpt>
      <trkpt lat="45.014101797714829" lon="5.657104281708598">
        <ele>532</ele>
        <time>2014-05-19T08:45:14Z</time>
      </trkpt>
      <trkpt lat="45.014063660055399" lon="5.657121380791068">
        <ele>532.20001220703125</ele>
        <time>2014-05-19T08:45:16Z</time>
      </trkpt>
      <trkpt lat="45.013971123844385" lon="5.65715566277504">
        <ele>533.20001220703125</ele>
        <time>2014-05-19T08:45:21Z</time>
      </trkpt>
      <trkpt lat="45.013952767476439" lon="5.657161949202418">
        <ele>533.4000244140625</ele>
        <time>2014-05-19T08:45:22Z</time>
      </trkpt>
      <trkpt lat="45.01386777497828" lon="5.657168151810765">
        <ele>534.20001220703125</ele>
        <time>2014-05-19T08:45:27Z</time>
      </trkpt>
      <trkpt lat="45.013823769986629" lon="5.657166140154004">
        <ele>534.5999755859375</ele>
        <time>2014-05-19T08:45:30Z</time>
      </trkpt>
      <trkpt lat="45.013762665912509" lon="5.657149208709598">
        <ele>534.79998779296875</ele>
        <time>2014-05-19T08:45:34Z</time>
      </trkpt>
      <trkpt lat="45.01370214857161" lon="5.657156836241484">
        <ele>534.79998779296875</ele>
        <time>2014-05-19T08:45:56Z</time>
      </trkpt>
      <trkpt lat="45.013685803860426" lon="5.657155998051167">
        <ele>534.79998779296875</ele>
        <time>2014-05-19T08:45:57Z</time>
      </trkpt>
      <trkpt lat="45.013589914888144" lon="5.657163122668862">
        <ele>535.20001220703125</ele>
        <time>2014-05-19T08:46:02Z</time>
      </trkpt>
      <trkpt lat="45.013491176068783" lon="5.65717376768589">
        <ele>535.5999755859375</ele>
        <time>2014-05-19T08:46:06Z</time>
      </trkpt>
      <trkpt lat="45.013440130278468" lon="5.657175863161683">
        <ele>535.5999755859375</ele>
        <time>2014-05-19T08:46:08Z</time>
      </trkpt>
      <trkpt lat="45.013255896046758" lon="5.657176449894905">
        <ele>536.4000244140625</ele>
        <time>2014-05-19T08:46:15Z</time>
      </trkpt>
      <trkpt lat="45.013204850256443" lon="5.657184161245823">
        <ele>536.5999755859375</ele>
        <time>2014-05-19T08:46:17Z</time>
      </trkpt>
      <trkpt lat="45.01307275146246" lon="5.657187514007092">
        <ele>537.5999755859375</ele>
        <time>2014-05-19T08:46:23Z</time>
      </trkpt>
      <trkpt lat="45.012879632413387" lon="5.657196566462517">
        <ele>538.20001220703125</ele>
        <time>2014-05-19T08:46:31Z</time>
      </trkpt>
      <trkpt lat="45.012832190841436" lon="5.657198829576373">
        <ele>538.5999755859375</ele>
        <time>2014-05-19T08:46:33Z</time>
      </trkpt>
      <trkpt lat="45.012664636597037" lon="5.657199835404754">
        <ele>539.79998779296875</ele>
        <time>2014-05-19T08:46:40Z</time>
      </trkpt>
      <trkpt lat="45.012526419013739" lon="5.657206457108259">
        <ele>541</ele>
        <time>2014-05-19T08:46:46Z</time>
      </trkpt>
      <trkpt lat="45.012481408193707" lon="5.65721333026886">
        <ele>541.4000244140625</ele>
        <time>2014-05-19T08:46:48Z</time>
      </trkpt>
      <trkpt lat="45.012442767620087" lon="5.657219449058175">
        <ele>542</ele>
        <time>2014-05-19T08:46:50Z</time>
      </trkpt>
      <trkpt lat="45.012306477874517" lon="5.657238978892565">
        <ele>543</ele>
        <time>2014-05-19T08:46:56Z</time>
      </trkpt>
      <trkpt lat="45.012119980528951" lon="5.657261274755001">
        <ele>543</ele>
        <time>2014-05-19T08:47:03Z</time>
      </trkpt>
      <trkpt lat="45.011929124593735" lon="5.657283486798406">
        <ele>543.4000244140625</ele>
        <time>2014-05-19T08:47:10Z</time>
      </trkpt>
      <trkpt lat="45.01185217872262" lon="5.657289102673531">
        <ele>544.20001220703125</ele>
        <time>2014-05-19T08:47:13Z</time>
      </trkpt>
      <trkpt lat="45.011748326942325" lon="5.657309889793396">
        <ele>544.5999755859375</ele>
        <time>2014-05-19T08:47:17Z</time>
      </trkpt>
      <trkpt lat="45.0116494204849" lon="5.657301256433129">
        <ele>545.20001220703125</ele>
        <time>2014-05-19T08:47:21Z</time>
      </trkpt>
      <trkpt lat="45.011550933122635" lon="5.657294550910592">
        <ele>545.79998779296875</ele>
        <time>2014-05-19T08:47:25Z</time>
      </trkpt>
      <trkpt lat="45.011362843215466" lon="5.657238978892565">
        <ele>546</ele>
        <time>2014-05-19T08:47:32Z</time>
      </trkpt>
      <trkpt lat="45.011157905682921" lon="5.657050386071205">
        <ele>545.5999755859375</ele>
        <time>2014-05-19T08:47:39Z</time>
      </trkpt>
      <trkpt lat="45.01110409386456" lon="5.656951060518622">
        <ele>545</ele>
        <time>2014-05-19T08:47:41Z</time>
      </trkpt>
      <trkpt lat="45.011053718626499" lon="5.656815357506275">
        <ele>544.20001220703125</ele>
        <time>2014-05-19T08:47:43Z</time>
      </trkpt>
      <trkpt lat="45.01102932728827" lon="5.656740674749017">
        <ele>543.79998779296875</ele>
        <time>2014-05-19T08:47:44Z</time>
      </trkpt>
      <trkpt lat="45.010997224599123" lon="5.65666607581079">
        <ele>543</ele>
        <time>2014-05-19T08:47:45Z</time>
      </trkpt>
      <trkpt lat="45.010955985635519" lon="5.656595667824149">
        <ele>542.5999755859375</ele>
        <time>2014-05-19T08:47:46Z</time>
      </trkpt>
      <trkpt lat="45.010904269292951" lon="5.656531294807792">
        <ele>542</ele>
        <time>2014-05-19T08:47:47Z</time>
      </trkpt>
      <trkpt lat="45.010781642049551" lon="5.656446050852537">
        <ele>541.4000244140625</ele>
        <time>2014-05-19T08:47:49Z</time>
      </trkpt>
      <trkpt lat="45.010718945413828" lon="5.656417552381754">
        <ele>541.20001220703125</ele>
        <time>2014-05-19T08:47:50Z</time>
      </trkpt>
      <trkpt lat="45.010231537744403" lon="5.656190067529678">
        <ele>542.20001220703125</ele>
        <time>2014-05-19T08:47:58Z</time>
      </trkpt>
      <trkpt lat="45.010178396478295" lon="5.656160563230515">
        <ele>542.4000244140625</ele>
        <time>2014-05-19T08:47:59Z</time>
      </trkpt>
      <trkpt lat="45.010074293240905" lon="5.656114462763071">
        <ele>544.20001220703125</ele>
        <time>2014-05-19T08:48:01Z</time>
      </trkpt>
      <trkpt lat="45.009922245517373" lon="5.656050341203809">
        <ele>544.5999755859375</ele>
        <time>2014-05-19T08:48:04Z</time>
      </trkpt>
      <trkpt lat="45.009523937478662" lon="5.655901730060577">
        <ele>545</ele>
        <time>2014-05-19T08:48:12Z</time>
      </trkpt>
      <trkpt lat="45.009429138153791" lon="5.655858898535371">
        <ele>545.20001220703125</ele>
        <time>2014-05-19T08:48:14Z</time>
      </trkpt>
      <trkpt lat="45.009249178692698" lon="5.65576208755374">
        <ele>545.79998779296875</ele>
        <time>2014-05-19T08:48:18Z</time>
      </trkpt>
      <trkpt lat="45.009176507592201" lon="5.655719926580787">
        <ele>546.5999755859375</ele>
        <time>2014-05-19T08:48:20Z</time>
      </trkpt>
      <trkpt lat="45.009085144847631" lon="5.655676508322358">
        <ele>547.79998779296875</ele>
        <time>2014-05-19T08:48:23Z</time>
      </trkpt>
      <trkpt lat="45.009036110714078" lon="5.655652200803161">
        <ele>548.79998779296875</ele>
        <time>2014-05-19T08:48:25Z</time>
      </trkpt>
      <trkpt lat="45.008916081860662" lon="5.655591851100326">
        <ele>550</ele>
        <time>2014-05-19T08:48:30Z</time>
      </trkpt>
      <trkpt lat="45.008869394659996" lon="5.655571147799492">
        <ele>550.5999755859375</ele>
        <time>2014-05-19T08:48:32Z</time>
      </trkpt>
      <trkpt lat="45.008826311677694" lon="5.655554048717022">
        <ele>551</ele>
        <time>2014-05-19T08:48:34Z</time>
      </trkpt>
      <trkpt lat="45.008733021095395" lon="5.65551389940083">
        <ele>552</ele>
        <time>2014-05-19T08:48:39Z</time>
      </trkpt>
      <trkpt lat="45.008634701371193" lon="5.655437875539064">
        <ele>553</ele>
        <time>2014-05-19T08:48:45Z</time>
      </trkpt>
      <trkpt lat="45.008601425215602" lon="5.655408874154091">
        <ele>553.20001220703125</ele>
        <time>2014-05-19T08:48:47Z</time>
      </trkpt>
      <trkpt lat="45.008501010015607" lon="5.655336370691657">
        <ele>553.79998779296875</ele>
        <time>2014-05-19T08:48:52Z</time>
      </trkpt>
      <trkpt lat="45.008284840732813" lon="5.655194045975804">
        <ele>553.20001220703125</ele>
        <time>2014-05-19T08:48:59Z</time>
      </trkpt>
      <trkpt lat="45.008065486326814" lon="5.655040992423892">
        <ele>552.5999755859375</ele>
        <time>2014-05-19T08:49:05Z</time>
      </trkpt>
      <trkpt lat="45.008029360324144" lon="5.655015595257282">
        <ele>552.4000244140625</ele>
        <time>2014-05-19T08:49:06Z</time>
      </trkpt>
      <trkpt lat="45.007763486355543" lon="5.654823565855622">
        <ele>552.79998779296875</ele>
        <time>2014-05-19T08:49:14Z</time>
      </trkpt>
      <trkpt lat="45.007673548534513" lon="5.654756342992187">
        <ele>554.4000244140625</ele>
        <time>2014-05-19T08:49:18Z</time>
      </trkpt>
      <trkpt lat="45.007615042850375" lon="5.654709571972489">
        <ele>555.20001220703125</ele>
        <time>2014-05-19T08:49:21Z</time>
      </trkpt>
      <trkpt lat="45.007595848292112" lon="5.65469590947032">
        <ele>555.4000244140625</ele>
        <time>2014-05-19T08:49:22Z</time>
      </trkpt>
      <trkpt lat="45.007514292374253" lon="5.654610749334097">
        <ele>556.5999755859375</ele>
        <time>2014-05-19T08:49:27Z</time>
      </trkpt>
      <trkpt lat="45.007494846358895" lon="5.65459867939353">
        <ele>556.79998779296875</ele>
        <time>2014-05-19T08:49:28Z</time>
      </trkpt>
      <trkpt lat="45.007416224107146" lon="5.654545873403549">
        <ele>557.5999755859375</ele>
        <time>2014-05-19T08:49:32Z</time>
      </trkpt>
      <trkpt lat="45.007367441430688" lon="5.65449214540422">
        <ele>558.20001220703125</ele>
        <time>2014-05-19T08:49:35Z</time>
      </trkpt>
      <trkpt lat="45.007334584370255" lon="5.654458785429597">
        <ele>558.79998779296875</ele>
        <time>2014-05-19T08:49:37Z</time>
      </trkpt>
      <trkpt lat="45.007248921319842" lon="5.654384689405561">
        <ele>559.5999755859375</ele>
        <time>2014-05-19T08:49:42Z</time>
      </trkpt>
      <trkpt lat="45.007232744246721" lon="5.654375972226262">
        <ele>559.79998779296875</ele>
        <time>2014-05-19T08:49:43Z</time>
      </trkpt>
      <trkpt lat="45.007169963791966" lon="5.654325429350138">
        <ele>560.5999755859375</ele>
        <time>2014-05-19T08:49:47Z</time>
      </trkpt>
      <trkpt lat="45.007139034569263" lon="5.654296763241291">
        <ele>561</ele>
        <time>2014-05-19T08:49:49Z</time>
      </trkpt>
      <trkpt lat="45.007123108953238" lon="5.654283268377185">
        <ele>561.20001220703125</ele>
        <time>2014-05-19T08:49:50Z</time>
      </trkpt>
      <trkpt lat="45.0070387031883" lon="5.65421998500824">
        <ele>562.20001220703125</ele>
        <time>2014-05-19T08:49:55Z</time>
      </trkpt>
      <trkpt lat="45.006963014602661" lon="5.654170950874686">
        <ele>562.5999755859375</ele>
        <time>2014-05-19T08:49:59Z</time>
      </trkpt>
      <trkpt lat="45.006906352937222" lon="5.654122922569513">
        <ele>563.20001220703125</ele>
        <time>2014-05-19T08:50:02Z</time>
      </trkpt>
      <trkpt lat="45.006827311590314" lon="5.654078330844641">
        <ele>563.79998779296875</ele>
        <time>2014-05-19T08:50:06Z</time>
      </trkpt>
      <trkpt lat="45.006759837269783" lon="5.65406022593379">
        <ele>564.4000244140625</ele>
        <time>2014-05-19T08:50:09Z</time>
      </trkpt>
      <trkpt lat="45.006644083186984" lon="5.654000043869019">
        <ele>565.4000244140625</ele>
        <time>2014-05-19T08:50:15Z</time>
      </trkpt>
      <trkpt lat="45.006503770127892" lon="5.653957631438971">
        <ele>566.4000244140625</ele>
        <time>2014-05-19T08:50:22Z</time>
      </trkpt>
      <trkpt lat="45.0064826477319" lon="5.653949584811926">
        <ele>566.5999755859375</ele>
        <time>2014-05-19T08:50:23Z</time>
      </trkpt>
      <trkpt lat="45.006359601393342" lon="5.653900299221277">
        <ele>567.5999755859375</ele>
        <time>2014-05-19T08:50:29Z</time>
      </trkpt>
      <trkpt lat="45.006339568644762" lon="5.653890827670693">
        <ele>567.79998779296875</ele>
        <time>2014-05-19T08:50:30Z</time>
      </trkpt>
      <trkpt lat="45.006196238100529" lon="5.653833830729127">
        <ele>568.79998779296875</ele>
        <time>2014-05-19T08:50:37Z</time>
      </trkpt>
      <trkpt lat="45.00617578625679" lon="5.653827879577875">
        <ele>568.79998779296875</ele>
        <time>2014-05-19T08:50:38Z</time>
      </trkpt>
      <trkpt lat="45.006037820130587" lon="5.653788987547159">
        <ele>569.5999755859375</ele>
        <time>2014-05-19T08:50:45Z</time>
      </trkpt>
      <trkpt lat="45.006017368286848" lon="5.653780773282051">
        <ele>569.79998779296875</ele>
        <time>2014-05-19T08:50:46Z</time>
      </trkpt>
      <trkpt lat="45.005850149318576" lon="5.653733583167195">
        <ele>570.5999755859375</ele>
        <time>2014-05-19T08:50:54Z</time>
      </trkpt>
      <trkpt lat="45.005828188732266" lon="5.653734924271703">
        <ele>570.79998779296875</ele>
        <time>2014-05-19T08:50:55Z</time>
      </trkpt>
      <trkpt lat="45.005688462406397" lon="5.653716316446662">
        <ele>571.20001220703125</ele>
        <time>2014-05-19T08:51:01Z</time>
      </trkpt>
      <trkpt lat="45.005532223731279" lon="5.653699971735477">
        <ele>571.5999755859375</ele>
        <time>2014-05-19T08:51:08Z</time>
      </trkpt>
      <trkpt lat="45.005415380001068" lon="5.653667617589235">
        <ele>572</ele>
        <time>2014-05-19T08:51:13Z</time>
      </trkpt>
      <trkpt lat="45.00536953099072" lon="5.653643477708101">
        <ele>572</ele>
        <time>2014-05-19T08:51:15Z</time>
      </trkpt>
      <trkpt lat="45.00525570474565" lon="5.65357256680727">
        <ele>572.20001220703125</ele>
        <time>2014-05-19T08:51:20Z</time>
      </trkpt>
      <trkpt lat="45.005055377259851" lon="5.653451699763537">
        <ele>572.79998779296875</ele>
        <time>2014-05-19T08:51:28Z</time>
      </trkpt>
      <trkpt lat="45.004913806915283" lon="5.653348602354527">
        <ele>573</ele>
        <time>2014-05-19T08:51:34Z</time>
      </trkpt>
      <trkpt lat="45.004740217700601" lon="5.653249025344849">
        <ele>574</ele>
        <time>2014-05-19T08:51:41Z</time>
      </trkpt>
      <trkpt lat="45.004715574905276" lon="5.653234608471394">
        <ele>574.20001220703125</ele>
        <time>2014-05-19T08:51:42Z</time>
      </trkpt>
      <trkpt lat="45.004552295431495" lon="5.65318901091814">
        <ele>574.4000244140625</ele>
        <time>2014-05-19T08:51:48Z</time>
      </trkpt>
      <trkpt lat="45.004293965175748" lon="5.653142491355538">
        <ele>575.20001220703125</ele>
        <time>2014-05-19T08:51:56Z</time>
      </trkpt>
      <trkpt lat="45.004263455048203" lon="5.653139222413302">
        <ele>575.20001220703125</ele>
        <time>2014-05-19T08:51:57Z</time>
      </trkpt>
      <trkpt lat="45.004042256623507" lon="5.653137043118477">
        <ele>576</ele>
        <time>2014-05-19T08:52:04Z</time>
      </trkpt>
      <trkpt lat="45.003954581916332" lon="5.65313084051013">
        <ele>576.20001220703125</ele>
        <time>2014-05-19T08:52:07Z</time>
      </trkpt>
      <trkpt lat="45.003834972158074" lon="5.653109382838011">
        <ele>576.4000244140625</ele>
        <time>2014-05-19T08:52:11Z</time>
      </trkpt>
      <trkpt lat="45.003563314676285" lon="5.653080884367228">
        <ele>577.20001220703125</ele>
        <time>2014-05-19T08:52:20Z</time>
      </trkpt>
      <trkpt lat="45.003392994403839" lon="5.653075436130166">
        <ele>578.4000244140625</ele>
        <time>2014-05-19T08:52:26Z</time>
      </trkpt>
      <trkpt lat="45.003368267789483" lon="5.65307074226439">
        <ele>578.5999755859375</ele>
        <time>2014-05-19T08:52:27Z</time>
      </trkpt>
      <trkpt lat="45.00322200357914" lon="5.653041489422321">
        <ele>579.4000244140625</ele>
        <time>2014-05-19T08:52:33Z</time>
      </trkpt>
      <trkpt lat="45.003172215074301" lon="5.653044255450368">
        <ele>579.79998779296875</ele>
        <time>2014-05-19T08:52:35Z</time>
      </trkpt>
      <trkpt lat="45.003082696348429" lon="5.653050038963556">
        <ele>580.5999755859375</ele>
        <time>2014-05-19T08:52:39Z</time>
      </trkpt>
      <trkpt lat="45.002970462664962" lon="5.653072586283088">
        <ele>581.5999755859375</ele>
        <time>2014-05-19T08:52:44Z</time>
      </trkpt>
      <trkpt lat="45.002872394397855" lon="5.653149783611298">
        <ele>582.79998779296875</ele>
        <time>2014-05-19T08:52:49Z</time>
      </trkpt>
      <trkpt lat="45.002824533730745" lon="5.653211893513799">
        <ele>583.4000244140625</ele>
        <time>2014-05-19T08:52:52Z</time>
      </trkpt>
      <trkpt lat="45.002797544002533" lon="5.653265370056033">
        <ele>584</ele>
        <time>2014-05-19T08:52:54Z</time>
      </trkpt>
      <trkpt lat="45.002741804346442" lon="5.653387913480401">
        <ele>585.20001220703125</ele>
        <time>2014-05-19T08:52:59Z</time>
      </trkpt>
      <trkpt lat="45.002709701657295" lon="5.653516827151179">
        <ele>586.4000244140625</ele>
        <time>2014-05-19T08:53:04Z</time>
      </trkpt>
      <trkpt lat="45.002686316147447" lon="5.653624450787902">
        <ele>587.4000244140625</ele>
        <time>2014-05-19T08:53:08Z</time>
      </trkpt>
      <trkpt lat="45.002681538462639" lon="5.653650853782892">
        <ele>587.5999755859375</ele>
        <time>2014-05-19T08:53:09Z</time>
      </trkpt>
      <trkpt lat="45.002662176266313" lon="5.653745653107762">
        <ele>588.79998779296875</ele>
        <time>2014-05-19T08:53:13Z</time>
      </trkpt>
      <trkpt lat="45.00264692120254" lon="5.653808768838644">
        <ele>589.20001220703125</ele>
        <time>2014-05-19T08:53:16Z</time>
      </trkpt>
      <trkpt lat="45.002631330862641" lon="5.65387305803597">
        <ele>590</ele>
        <time>2014-05-19T08:53:19Z</time>
      </trkpt>
      <trkpt lat="45.002610962837934" lon="5.653987219557166">
        <ele>591</ele>
        <time>2014-05-19T08:53:24Z</time>
      </trkpt>
      <trkpt lat="45.002576345577836" lon="5.654112612828612">
        <ele>592</ele>
        <time>2014-05-19T08:53:30Z</time>
      </trkpt>
      <trkpt lat="45.002571232616901" lon="5.654133651405573">
        <ele>592.20001220703125</ele>
        <time>2014-05-19T08:53:31Z</time>
      </trkpt>
      <trkpt lat="45.002548433840275" lon="5.654282849282026">
        <ele>593</ele>
        <time>2014-05-19T08:53:37Z</time>
      </trkpt>
      <trkpt lat="45.002544997259974" lon="5.654309000819922">
        <ele>593.20001220703125</ele>
        <time>2014-05-19T08:53:38Z</time>
      </trkpt>
      <trkpt lat="45.002497052773833" lon="5.65445601940155">
        <ele>593.5999755859375</ele>
        <time>2014-05-19T08:53:45Z</time>
      </trkpt>
      <trkpt lat="45.002486240118742" lon="5.654469849541783">
        <ele>593.4000244140625</ele>
        <time>2014-05-19T08:54:32Z</time>
      </trkpt>
      <trkpt lat="45.002468135207891" lon="5.654477393254638">
        <ele>593.4000244140625</ele>
        <time>2014-05-19T08:54:33Z</time>
      </trkpt>
      <trkpt lat="45.002333018928766" lon="5.654432801529765">
        <ele>593.5999755859375</ele>
        <time>2014-05-19T08:54:38Z</time>
      </trkpt>
      <trkpt lat="45.002101426944137" lon="5.654312437400222">
        <ele>594</ele>
        <time>2014-05-19T08:54:44Z</time>
      </trkpt>
      <trkpt lat="45.001867320388556" lon="5.654215794056654">
        <ele>594.20001220703125</ele>
        <time>2014-05-19T08:54:49Z</time>
      </trkpt>
      <trkpt lat="45.001723235473037" lon="5.654159719124436">
        <ele>594.20001220703125</ele>
        <time>2014-05-19T08:54:52Z</time>
      </trkpt>
      <trkpt lat="45.001355186104774" lon="5.654019573703408">
        <ele>595.4000244140625</ele>
        <time>2014-05-19T08:55:00Z</time>
      </trkpt>
      <trkpt lat="45.001094006001949" lon="5.653913710266352">
        <ele>596.4000244140625</ele>
        <time>2014-05-19T08:55:06Z</time>
      </trkpt>
      <trkpt lat="45.000971211120486" lon="5.653860233724117">
        <ele>597</ele>
        <time>2014-05-19T08:55:09Z</time>
      </trkpt>
      <trkpt lat="45.00085118226707" lon="5.653814300894737">
        <ele>597.4000244140625</ele>
        <time>2014-05-19T08:55:12Z</time>
      </trkpt>
      <trkpt lat="45.000650938600302" lon="5.653735930100083">
        <ele>598.4000244140625</ele>
        <time>2014-05-19T08:55:17Z</time>
      </trkpt>
      <trkpt lat="45.000612800940871" lon="5.653716148808599">
        <ele>598.5999755859375</ele>
        <time>2014-05-19T08:55:18Z</time>
      </trkpt>
      <trkpt lat="45.000256150960922" lon="5.653565106913447">
        <ele>599.5999755859375</ele>
        <time>2014-05-19T08:55:27Z</time>
      </trkpt>
      <trkpt lat="45.000038892030716" lon="5.653481539338827">
        <ele>600.79998779296875</ele>
        <time>2014-05-19T08:55:33Z</time>
      </trkpt>
      <trkpt lat="45.000003604218364" lon="5.653466368094087">
        <ele>600.79998779296875</ele>
        <time>2014-05-19T08:55:34Z</time>
      </trkpt>
      <trkpt lat="44.999787854030728" lon="5.653373077511787">
        <ele>601.79998779296875</ele>
        <time>2014-05-19T08:55:40Z</time>
      </trkpt>
      <trkpt lat="44.999679978936911" lon="5.653320355340838">
        <ele>602</ele>
        <time>2014-05-19T08:55:43Z</time>
      </trkpt>
      <trkpt lat="44.999356102198362" lon="5.653145425021648">
        <ele>602.79998779296875</ele>
        <time>2014-05-19T08:55:51Z</time>
      </trkpt>
      <trkpt lat="44.999316120520234" lon="5.653120446950197">
        <ele>603</ele>
        <time>2014-05-19T08:55:52Z</time>
      </trkpt>
      <trkpt lat="44.998920327052474" lon="5.652890112251043">
        <ele>603.5999755859375</ele>
        <time>2014-05-19T08:56:01Z</time>
      </trkpt>
      <trkpt lat="44.998828796669841" lon="5.652840742841363">
        <ele>603.79998779296875</ele>
        <time>2014-05-19T08:56:03Z</time>
      </trkpt>
      <trkpt lat="44.998480528593063" lon="5.65263488329947">
        <ele>604.20001220703125</ele>
        <time>2014-05-19T08:56:10Z</time>
      </trkpt>
      <trkpt lat="44.998039808124304" lon="5.652397675439715">
        <ele>605</ele>
        <time>2014-05-19T08:56:18Z</time>
      </trkpt>
      <trkpt lat="44.997510239481926" lon="5.652115875855088">
        <ele>605.20001220703125</ele>
        <time>2014-05-19T08:56:27Z</time>
      </trkpt>
      <trkpt lat="44.997152332216501" lon="5.651932312175632">
        <ele>606</ele>
        <time>2014-05-19T08:56:33Z</time>
      </trkpt>
      <trkpt lat="44.997038338333368" lon="5.651881517842412">
        <ele>606.5999755859375</ele>
        <time>2014-05-19T08:56:35Z</time>
      </trkpt>
      <trkpt lat="44.996821163222194" lon="5.651776492595673">
        <ele>607.20001220703125</ele>
        <time>2014-05-19T08:56:39Z</time>
      </trkpt>
      <trkpt lat="44.996667606756091" lon="5.65170357003808">
        <ele>607.4000244140625</ele>
        <time>2014-05-19T08:56:42Z</time>
      </trkpt>
      <trkpt lat="44.996426627039909" lon="5.651608854532242">
        <ele>608.20001220703125</ele>
        <time>2014-05-19T08:56:47Z</time>
      </trkpt>
      <trkpt lat="44.996378598734736" lon="5.651590330526233">
        <ele>608.4000244140625</ele>
        <time>2014-05-19T08:56:48Z</time>
      </trkpt>
      <trkpt lat="44.99619017355144" lon="5.651507936418057">
        <ele>609.20001220703125</ele>
        <time>2014-05-19T08:56:52Z</time>
      </trkpt>
      <trkpt lat="44.996002838015556" lon="5.651433924213052">
        <ele>609.5999755859375</ele>
        <time>2014-05-19T08:56:56Z</time>
      </trkpt>
      <trkpt lat="44.995818436145782" lon="5.651367623358965">
        <ele>610.20001220703125</ele>
        <time>2014-05-19T08:57:00Z</time>
      </trkpt>
      <trkpt lat="44.99559111893177" lon="5.651276344433427">
        <ele>610.79998779296875</ele>
        <time>2014-05-19T08:57:05Z</time>
      </trkpt>
      <trkpt lat="44.995368998497725" lon="5.651188502088189">
        <ele>611.4000244140625</ele>
        <time>2014-05-19T08:57:10Z</time>
      </trkpt>
      <trkpt lat="44.995195074006915" lon="5.65111574716866">
        <ele>612.20001220703125</ele>
        <time>2014-05-19T08:57:14Z</time>
      </trkpt>
      <trkpt lat="44.995151069015265" lon="5.651098145172">
        <ele>612.5999755859375</ele>
        <time>2014-05-19T08:57:15Z</time>
      </trkpt>
      <trkpt lat="44.994804142042994" lon="5.650961520150304">
        <ele>613.20001220703125</ele>
        <time>2014-05-19T08:57:23Z</time>
      </trkpt>
      <trkpt lat="44.994718478992581" lon="5.650924639776349">
        <ele>613.5999755859375</ele>
        <time>2014-05-19T08:57:25Z</time>
      </trkpt>
      <trkpt lat="44.994407678022981" lon="5.650801090523601">
        <ele>614.4000244140625</ele>
        <time>2014-05-19T08:57:32Z</time>
      </trkpt>
      <trkpt lat="44.994365181773901" lon="5.650783907622099">
        <ele>614.5999755859375</ele>
        <time>2014-05-19T08:57:33Z</time>
      </trkpt>
      <trkpt lat="44.99406561255455" lon="5.650665555149317">
        <ele>615.5999755859375</ele>
        <time>2014-05-19T08:57:40Z</time>
      </trkpt>
      <trkpt lat="44.993983972817659" lon="5.650632027536631">
        <ele>616</ele>
        <time>2014-05-19T08:57:42Z</time>
      </trkpt>
      <trkpt lat="44.993872661143541" lon="5.650590369477868">
        <ele>616.79998779296875</ele>
        <time>2014-05-19T08:57:45Z</time>
      </trkpt>
      <trkpt lat="44.993735197931528" lon="5.650531779974699">
        <ele>617.5999755859375</ele>
        <time>2014-05-19T08:57:49Z</time>
      </trkpt>
      <trkpt lat="44.993702927604318" lon="5.650522811338306">
        <ele>617.79998779296875</ele>
        <time>2014-05-19T08:57:50Z</time>
      </trkpt>
      <trkpt lat="44.993587341159582" lon="5.650483248755336">
        <ele>619</ele>
        <time>2014-05-19T08:57:54Z</time>
      </trkpt>
      <trkpt lat="44.99353445135057" lon="5.650458857417107">
        <ele>619.4000244140625</ele>
        <time>2014-05-19T08:57:56Z</time>
      </trkpt>
      <trkpt lat="44.993424648419023" lon="5.65041895955801">
        <ele>620.20001220703125</ele>
        <time>2014-05-19T08:58:00Z</time>
      </trkpt>
      <trkpt lat="44.993327083066106" lon="5.650383252650499">
        <ele>621.20001220703125</ele>
        <time>2014-05-19T08:58:04Z</time>
      </trkpt>
      <trkpt lat="44.993278551846743" lon="5.650360118597746">
        <ele>621.20001220703125</ele>
        <time>2014-05-19T08:58:06Z</time>
      </trkpt>
      <trkpt lat="44.993153745308518" lon="5.65030999481678">
        <ele>622.20001220703125</ele>
        <time>2014-05-19T08:58:11Z</time>
      </trkpt>
      <trkpt lat="44.993105046451092" lon="5.650290297344327">
        <ele>622.79998779296875</ele>
        <time>2014-05-19T08:58:13Z</time>
      </trkpt>
      <trkpt lat="44.992986777797341" lon="5.65024402923882">
        <ele>623.4000244140625</ele>
        <time>2014-05-19T08:58:18Z</time>
      </trkpt>
      <trkpt lat="44.992880411446095" lon="5.650201449170709">
        <ele>624.20001220703125</ele>
        <time>2014-05-19T08:58:22Z</time>
      </trkpt>
      <trkpt lat="44.992804136127234" lon="5.650169933214784">
        <ele>624.5999755859375</ele>
        <time>2014-05-19T08:58:25Z</time>
      </trkpt>
      <trkpt lat="44.99270380474627" lon="5.650130286812782">
        <ele>625.5999755859375</ele>
        <time>2014-05-19T08:58:29Z</time>
      </trkpt>
      <trkpt lat="44.992648232728243" lon="5.650108326226473">
        <ele>625.79998779296875</ele>
        <time>2014-05-19T08:58:31Z</time>
      </trkpt>
      <trkpt lat="44.992481097579002" lon="5.650047138333321">
        <ele>626.5999755859375</ele>
        <time>2014-05-19T08:58:37Z</time>
      </trkpt>
      <trkpt lat="44.992387890815735" lon="5.650012185797095">
        <ele>626.5999755859375</ele>
        <time>2014-05-19T08:58:40Z</time>
      </trkpt>
      <trkpt lat="44.992147078737617" lon="5.649914117529988">
        <ele>627.79998779296875</ele>
        <time>2014-05-19T08:58:47Z</time>
      </trkpt>
      <trkpt lat="44.991882629692554" lon="5.649808337911964">
        <ele>628.5999755859375</ele>
        <time>2014-05-19T08:58:54Z</time>
      </trkpt>
      <trkpt lat="44.991688253358006" lon="5.649731811136007">
        <ele>628.79998779296875</ele>
        <time>2014-05-19T08:58:59Z</time>
      </trkpt>
      <trkpt lat="44.991558669134974" lon="5.649684118106961">
        <ele>629</ele>
        <time>2014-05-19T08:59:02Z</time>
      </trkpt>
      <trkpt lat="44.99151449650526" lon="5.649674227461219">
        <ele>629.20001220703125</ele>
        <time>2014-05-19T08:59:03Z</time>
      </trkpt>
      <trkpt lat="44.991289442405105" lon="5.64964153803885">
        <ele>629.4000244140625</ele>
        <time>2014-05-19T08:59:08Z</time>
      </trkpt>
      <trkpt lat="44.99090907163918" lon="5.649612452834845">
        <ele>630</ele>
        <time>2014-05-19T08:59:17Z</time>
      </trkpt>
      <trkpt lat="44.990755934268236" lon="5.649606417864561">
        <ele>631</ele>
        <time>2014-05-19T08:59:21Z</time>
      </trkpt>
      <trkpt lat="44.99057094566524" lon="5.649583367630839">
        <ele>631.79998779296875</ele>
        <time>2014-05-19T08:59:26Z</time>
      </trkpt>
      <trkpt lat="44.990499448031187" lon="5.649575907737017">
        <ele>632.20001220703125</ele>
        <time>2014-05-19T08:59:28Z</time>
      </trkpt>
      <trkpt lat="44.990324852988124" lon="5.649544391781092">
        <ele>633.20001220703125</ele>
        <time>2014-05-19T08:59:33Z</time>
      </trkpt>
      <trkpt lat="44.990291576832533" lon="5.64953844062984">
        <ele>633.5999755859375</ele>
        <time>2014-05-19T08:59:34Z</time>
      </trkpt>
      <trkpt lat="44.990140870213509" lon="5.649495692923665">
        <ele>634.4000244140625</ele>
        <time>2014-05-19T08:59:39Z</time>
      </trkpt>
      <trkpt lat="44.990047328174114" lon="5.649471217766404">
        <ele>635</ele>
        <time>2014-05-19T08:59:42Z</time>
      </trkpt>
      <trkpt lat="44.989988654851913" lon="5.649448418989778">
        <ele>635.5999755859375</ele>
        <time>2014-05-19T08:59:44Z</time>
      </trkpt>
      <trkpt lat="44.98985068872571" lon="5.649392930790782">
        <ele>636.5999755859375</ele>
        <time>2014-05-19T08:59:49Z</time>
      </trkpt>
      <trkpt lat="44.989733761176467" lon="5.649358481168747">
        <ele>637.4000244140625</ele>
        <time>2014-05-19T08:59:53Z</time>
      </trkpt>
      <trkpt lat="44.98970408923924" lon="5.649344399571419">
        <ele>637.5999755859375</ele>
        <time>2014-05-19T08:59:54Z</time>
      </trkpt>
      <trkpt lat="44.989569056779146" lon="5.649299137294292">
        <ele>638.5999755859375</ele>
        <time>2014-05-19T08:59:59Z</time>
      </trkpt>
      <trkpt lat="44.989518849179149" lon="5.649276757612824">
        <ele>639</ele>
        <time>2014-05-19T09:00:01Z</time>
      </trkpt>
      <trkpt lat="44.989470904693007" lon="5.649253204464912">
        <ele>639.79998779296875</ele>
        <time>2014-05-19T09:00:03Z</time>
      </trkpt>
      <trkpt lat="44.989347690716386" lon="5.649205008521676">
        <ele>640.5999755859375</ele>
        <time>2014-05-19T09:00:08Z</time>
      </trkpt>
      <trkpt lat="44.989326568320394" lon="5.649197967723012">
        <ele>640.79998779296875</ele>
        <time>2014-05-19T09:00:09Z</time>
      </trkpt>
      <trkpt lat="44.989190613850951" lon="5.64913677982986">
        <ele>641.5999755859375</ele>
        <time>2014-05-19T09:00:15Z</time>
      </trkpt>
      <trkpt lat="44.989142837002873" lon="5.649110293015838">
        <ele>642</ele>
        <time>2014-05-19T09:00:17Z</time>
      </trkpt>
      <trkpt lat="44.989002104848623" lon="5.649035023525357">
        <ele>643.20001220703125</ele>
        <time>2014-05-19T09:00:23Z</time>
      </trkpt>
      <trkpt lat="44.988884506747127" lon="5.64896478317678">
        <ele>644.20001220703125</ele>
        <time>2014-05-19T09:00:28Z</time>
      </trkpt>
      <trkpt lat="44.988799849525094" lon="5.648923544213176">
        <ele>644.79998779296875</ele>
        <time>2014-05-19T09:00:32Z</time>
      </trkpt>
      <trkpt lat="44.988713851198554" lon="5.648859422653914">
        <ele>645.20001220703125</ele>
        <time>2014-05-19T09:00:36Z</time>
      </trkpt>
      <trkpt lat="44.98865501023829" lon="5.648798821493983">
        <ele>645.79998779296875</ele>
        <time>2014-05-19T09:00:39Z</time>
      </trkpt>
      <trkpt lat="44.98861444182694" lon="5.648762779310346">
        <ele>646.4000244140625</ele>
        <time>2014-05-19T09:00:41Z</time>
      </trkpt>
      <trkpt lat="44.988492485135794" lon="5.648639565333724">
        <ele>647</ele>
        <time>2014-05-19T09:00:47Z</time>
      </trkpt>
      <trkpt lat="44.988411851227283" lon="5.648451475426555">
        <ele>647</ele>
        <time>2014-05-19T09:00:52Z</time>
      </trkpt>
      <trkpt lat="44.988281512632966" lon="5.648320466279984">
        <ele>647.20001220703125</ele>
        <time>2014-05-19T09:00:57Z</time>
      </trkpt>
      <trkpt lat="44.988217307254672" lon="5.648311749100685">
        <ele>647.4000244140625</ele>
        <time>2014-05-19T09:00:59Z</time>
      </trkpt>
      <trkpt lat="44.988125022500753" lon="5.648343181237578">
        <ele>648</ele>
        <time>2014-05-19T09:01:02Z</time>
      </trkpt>
      <trkpt lat="44.98794749379158" lon="5.648331362754107">
        <ele>648.20001220703125</ele>
        <time>2014-05-19T09:01:07Z</time>
      </trkpt>
      <trkpt lat="44.987659072503448" lon="5.648227762430906">
        <ele>647.79998779296875</ele>
        <time>2014-05-19T09:01:14Z</time>
      </trkpt>
      <trkpt lat="44.987425217404962" lon="5.648195995017886">
        <ele>648.5999755859375</ele>
        <time>2014-05-19T09:01:19Z</time>
      </trkpt>
      <trkpt lat="44.987380793318152" lon="5.648188786581159">
        <ele>648.79998779296875</ele>
        <time>2014-05-19T09:01:20Z</time>
      </trkpt>
      <trkpt lat="44.987200330942869" lon="5.648151990026236">
        <ele>649.79998779296875</ele>
        <time>2014-05-19T09:01:24Z</time>
      </trkpt>
      <trkpt lat="44.987156325951219" lon="5.648146038874984">
        <ele>650</ele>
        <time>2014-05-19T09:01:25Z</time>
      </trkpt>
      <trkpt lat="44.987030513584614" lon="5.648120054975152">
        <ele>650.5999755859375</ele>
        <time>2014-05-19T09:01:28Z</time>
      </trkpt>
      <trkpt lat="44.986990951001644" lon="5.648113014176488">
        <ele>651</ele>
        <time>2014-05-19T09:01:29Z</time>
      </trkpt>
      <trkpt lat="44.986950634047389" lon="5.648099016398192">
        <ele>651</ele>
        <time>2014-05-19T09:01:30Z</time>
      </trkpt>
      <trkpt lat="44.986787270754576" lon="5.64802709966898">
        <ele>651.79998779296875</ele>
        <time>2014-05-19T09:01:34Z</time>
      </trkpt>
      <trkpt lat="44.986748630180955" lon="5.648007234558463">
        <ele>652</ele>
        <time>2014-05-19T09:01:35Z</time>
      </trkpt>
      <trkpt lat="44.986576801165938" lon="5.647896006703377">
        <ele>653.20001220703125</ele>
        <time>2014-05-19T09:01:40Z</time>
      </trkpt>
      <trkpt lat="44.98639952391386" lon="5.647779917344451">
        <ele>654.20001220703125</ele>
        <time>2014-05-19T09:01:45Z</time>
      </trkpt>
      <trkpt lat="44.986327271908522" lon="5.64774127677083">
        <ele>654.4000244140625</ele>
        <time>2014-05-19T09:01:47Z</time>
      </trkpt>
      <trkpt lat="44.986128201708198" lon="5.647604400292039">
        <ele>655.20001220703125</ele>
        <time>2014-05-19T09:01:53Z</time>
      </trkpt>
      <trkpt lat="44.986061481758952" lon="5.647560898214579">
        <ele>655.79998779296875</ele>
        <time>2014-05-19T09:01:55Z</time>
      </trkpt>
      <trkpt lat="44.985959473997355" lon="5.647494848817587">
        <ele>656.4000244140625</ele>
        <time>2014-05-19T09:01:58Z</time>
      </trkpt>
      <trkpt lat="44.985793931409717" lon="5.647388733923435">
        <ele>657.4000244140625</ele>
        <time>2014-05-19T09:02:03Z</time>
      </trkpt>
      <trkpt lat="44.985759733244777" lon="5.647368533536792">
        <ele>657.5999755859375</ele>
        <time>2014-05-19T09:02:04Z</time>
      </trkpt>
      <trkpt lat="44.985558232292533" lon="5.64725655131042">
        <ele>658.4000244140625</ele>
        <time>2014-05-19T09:02:10Z</time>
      </trkpt>
      <trkpt lat="44.985494446009398" lon="5.647219670936465">
        <ele>658.79998779296875</ele>
        <time>2014-05-19T09:02:12Z</time>
      </trkpt>
      <trkpt lat="44.985323203727603" lon="5.647128811106086">
        <ele>659.4000244140625</ele>
        <time>2014-05-19T09:02:17Z</time>
      </trkpt>
      <trkpt lat="44.985117092728615" lon="5.647028982639313">
        <ele>660.20001220703125</ele>
        <time>2014-05-19T09:02:23Z</time>
      </trkpt>
      <trkpt lat="44.985079960897565" lon="5.647015403956175">
        <ele>660.5999755859375</ele>
        <time>2014-05-19T09:02:24Z</time>
      </trkpt>
      <trkpt lat="44.984823642298579" lon="5.646913312375546">
        <ele>661.5999755859375</ele>
        <time>2014-05-19T09:02:31Z</time>
      </trkpt>
      <trkpt lat="44.984755078330636" lon="5.646881461143494">
        <ele>661.79998779296875</ele>
        <time>2014-05-19T09:02:33Z</time>
      </trkpt>
      <trkpt lat="44.984551565721631" lon="5.646778028458357">
        <ele>662.5999755859375</ele>
        <time>2014-05-19T09:02:39Z</time>
      </trkpt>
      <trkpt lat="44.984518541023135" lon="5.646764785051346">
        <ele>662.79998779296875</ele>
        <time>2014-05-19T09:02:40Z</time>
      </trkpt>
      <trkpt lat="44.98432282358408" lon="5.646660514175892">
        <ele>663.79998779296875</ele>
        <time>2014-05-19T09:02:46Z</time>
      </trkpt>
      <trkpt lat="44.984290134161711" lon="5.646646348759532">
        <ele>664</ele>
        <time>2014-05-19T09:02:47Z</time>
      </trkpt>
      <trkpt lat="44.984135068953037" lon="5.646569989621639">
        <ele>665</ele>
        <time>2014-05-19T09:02:52Z</time>
      </trkpt>
      <trkpt lat="44.983891658484936" lon="5.646464712917805">
        <ele>665.79998779296875</ele>
        <time>2014-05-19T09:02:59Z</time>
      </trkpt>
      <trkpt lat="44.983856286853552" lon="5.646455073729157">
        <ele>666</ele>
        <time>2014-05-19T09:03:00Z</time>
      </trkpt>
      <trkpt lat="44.983682362362742" lon="5.646417271345854">
        <ele>667</ele>
        <time>2014-05-19T09:03:05Z</time>
      </trkpt>
      <trkpt lat="44.983645398169756" lon="5.646409643813968">
        <ele>667</ele>
        <time>2014-05-19T09:03:06Z</time>
      </trkpt>
      <trkpt lat="44.983420595526695" lon="5.646394304931164">
        <ele>668.20001220703125</ele>
        <time>2014-05-19T09:03:12Z</time>
      </trkpt>
      <trkpt lat="44.983388744294643" lon="5.646390365436673">
        <ele>668.4000244140625</ele>
        <time>2014-05-19T09:03:13Z</time>
      </trkpt>
      <trkpt lat="44.983146758750081" lon="5.646346779540181">
        <ele>669.20001220703125</ele>
        <time>2014-05-19T09:03:21Z</time>
      </trkpt>
      <trkpt lat="44.983119014650583" lon="5.64634133130312">
        <ele>669.20001220703125</ele>
        <time>2014-05-19T09:03:22Z</time>
      </trkpt>
      <trkpt lat="44.982946934178472" lon="5.646292800083756">
        <ele>670</ele>
        <time>2014-05-19T09:03:28Z</time>
      </trkpt>
      <trkpt lat="44.982916004955769" lon="5.646284250542522">
        <ele>670.20001220703125</ele>
        <time>2014-05-19T09:03:29Z</time>
      </trkpt>
      <trkpt lat="44.98272112570703" lon="5.646186014637351">
        <ele>671</ele>
        <time>2014-05-19T09:03:36Z</time>
      </trkpt>
      <trkpt lat="44.982664631679654" lon="5.646142680197954">
        <ele>671.20001220703125</ele>
        <time>2014-05-19T09:03:38Z</time>
      </trkpt>
      <trkpt lat="44.982504034414887" lon="5.646045533940196">
        <ele>671.79998779296875</ele>
        <time>2014-05-19T09:03:43Z</time>
      </trkpt>
      <trkpt lat="44.982330612838268" lon="5.645965905860066">
        <ele>672.5999755859375</ele>
        <time>2014-05-19T09:03:48Z</time>
      </trkpt>
      <trkpt lat="44.98218946158886" lon="5.645904298871756">
        <ele>672.79998779296875</ele>
        <time>2014-05-19T09:03:52Z</time>
      </trkpt>
      <trkpt lat="44.981956696137786" lon="5.645830538123846">
        <ele>673.4000244140625</ele>
        <time>2014-05-19T09:03:59Z</time>
      </trkpt>
      <trkpt lat="44.981917971745133" lon="5.645819893106818">
        <ele>673.5999755859375</ele>
        <time>2014-05-19T09:04:00Z</time>
      </trkpt>
      <trkpt lat="44.981714375317097" lon="5.645752167329192">
        <ele>674.20001220703125</ele>
        <time>2014-05-19T09:04:05Z</time>
      </trkpt>
      <trkpt lat="44.981548245996237" lon="5.645693996921182">
        <ele>674.5999755859375</ele>
        <time>2014-05-19T09:04:09Z</time>
      </trkpt>
      <trkpt lat="44.981275582686067" lon="5.645594084635377">
        <ele>675</ele>
        <time>2014-05-19T09:04:15Z</time>
      </trkpt>
      <trkpt lat="44.980890434235334" lon="5.64545838162303">
        <ele>676.20001220703125</ele>
        <time>2014-05-19T09:04:23Z</time>
      </trkpt>
      <trkpt lat="44.980744421482086" lon="5.645411442965269">
        <ele>677.20001220703125</ele>
        <time>2014-05-19T09:04:26Z</time>
      </trkpt>
      <trkpt lat="44.980696644634008" lon="5.645398618653417">
        <ele>677.4000244140625</ele>
        <time>2014-05-19T09:04:27Z</time>
      </trkpt>
      <trkpt lat="44.980381904169917" lon="5.645295102149248">
        <ele>678.4000244140625</ele>
        <time>2014-05-19T09:04:34Z</time>
      </trkpt>
      <trkpt lat="44.980338653549552" lon="5.645281272009015">
        <ele>678.5999755859375</ele>
        <time>2014-05-19T09:04:35Z</time>
      </trkpt>
      <trkpt lat="44.980124915018678" lon="5.64521748572588">
        <ele>679.4000244140625</ele>
        <time>2014-05-19T09:04:41Z</time>
      </trkpt>
      <trkpt lat="44.980084430426359" lon="5.645202649757266">
        <ele>679.4000244140625</ele>
        <time>2014-05-19T09:04:42Z</time>
      </trkpt>
      <trkpt lat="44.979923916980624" lon="5.645140539854765">
        <ele>679.79998779296875</ele>
        <time>2014-05-19T09:04:46Z</time>
      </trkpt>
      <trkpt lat="44.979727109894156" lon="5.645075915381312">
        <ele>680.5999755859375</ele>
        <time>2014-05-19T09:04:51Z</time>
      </trkpt>
      <trkpt lat="44.979577073827386" lon="5.645013805478811">
        <ele>681</ele>
        <time>2014-05-19T09:04:55Z</time>
      </trkpt>
      <trkpt lat="44.979312624782324" lon="5.644927220419049">
        <ele>681.5999755859375</ele>
        <time>2014-05-19T09:05:02Z</time>
      </trkpt>
      <trkpt lat="44.979239869862795" lon="5.644892184063792">
        <ele>681.79998779296875</ele>
        <time>2014-05-19T09:05:04Z</time>
      </trkpt>
      <trkpt lat="44.979064855724573" lon="5.644790763035417">
        <ele>682.79998779296875</ele>
        <time>2014-05-19T09:05:09Z</time>
      </trkpt>
      <trkpt lat="44.97889956459403" lon="5.644692275673151">
        <ele>683.20001220703125</ele>
        <time>2014-05-19T09:05:14Z</time>
      </trkpt>
      <trkpt lat="44.978802502155304" lon="5.644632764160633">
        <ele>683.79998779296875</ele>
        <time>2014-05-19T09:05:17Z</time>
      </trkpt>
      <trkpt lat="44.978539478033781" lon="5.644474010914564">
        <ele>684.4000244140625</ele>
        <time>2014-05-19T09:05:25Z</time>
      </trkpt>
      <trkpt lat="44.978437721729279" lon="5.644412906840444">
        <ele>684.79998779296875</ele>
        <time>2014-05-19T09:05:28Z</time>
      </trkpt>
      <trkpt lat="44.978260109201074" lon="5.644326070323587">
        <ele>685.5999755859375</ele>
        <time>2014-05-19T09:05:33Z</time>
      </trkpt>
      <trkpt lat="44.978189701214433" lon="5.644290950149298">
        <ele>686</ele>
        <time>2014-05-19T09:05:35Z</time>
      </trkpt>
      <trkpt lat="44.977970765903592" lon="5.644194055348635">
        <ele>686.79998779296875</ele>
        <time>2014-05-19T09:05:41Z</time>
      </trkpt>
      <trkpt lat="44.977857023477554" lon="5.644148206338286">
        <ele>687</ele>
        <time>2014-05-19T09:05:44Z</time>
      </trkpt>
      <trkpt lat="44.977737916633487" lon="5.644103027880192">
        <ele>687.5999755859375</ele>
        <time>2014-05-19T09:05:47Z</time>
      </trkpt>
      <trkpt lat="44.977655271068215" lon="5.644068829715252">
        <ele>687.79998779296875</ele>
        <time>2014-05-19T09:05:49Z</time>
      </trkpt>
      <trkpt lat="44.977620905265212" lon="5.644055418670178">
        <ele>688</ele>
        <time>2014-05-19T09:05:50Z</time>
      </trkpt>
      <trkpt lat="44.977484866976738" lon="5.643977718427777">
        <ele>688.5999755859375</ele>
        <time>2014-05-19T09:05:54Z</time>
      </trkpt>
      <trkpt lat="44.97736819088459" lon="5.643932037055492">
        <ele>689.20001220703125</ele>
        <time>2014-05-19T09:05:57Z</time>
      </trkpt>
      <trkpt lat="44.977203654125333" lon="5.643862634897232">
        <ele>689.79998779296875</ele>
        <time>2014-05-19T09:06:01Z</time>
      </trkpt>
      <trkpt lat="44.977111034095287" lon="5.643830448389053">
        <ele>690.5999755859375</ele>
        <time>2014-05-19T09:06:03Z</time>
      </trkpt>
      <trkpt lat="44.976946329697967" lon="5.643766410648823">
        <ele>691</ele>
        <time>2014-05-19T09:06:07Z</time>
      </trkpt>
      <trkpt lat="44.976608706638217" lon="5.6436328869313">
        <ele>691.20001220703125</ele>
        <time>2014-05-19T09:06:15Z</time>
      </trkpt>
      <trkpt lat="44.976354818791151" lon="5.643521994352341">
        <ele>691.5999755859375</ele>
        <time>2014-05-19T09:06:21Z</time>
      </trkpt>
      <trkpt lat="44.976308969780803" lon="5.643505062907934">
        <ele>691.5999755859375</ele>
        <time>2014-05-19T09:06:22Z</time>
      </trkpt>
      <trkpt lat="44.976175781339407" lon="5.643455777317286">
        <ele>691.5999755859375</ele>
        <time>2014-05-19T09:06:25Z</time>
      </trkpt>
      <trkpt lat="44.97604108415544" lon="5.643402552232146">
        <ele>692</ele>
        <time>2014-05-19T09:06:28Z</time>
      </trkpt>
      <trkpt lat="44.975764565169811" lon="5.643315464258194">
        <ele>692.20001220703125</ele>
        <time>2014-05-19T09:06:35Z</time>
      </trkpt>
      <trkpt lat="44.975579995661974" lon="5.643245056271553">
        <ele>692.79998779296875</ele>
        <time>2014-05-19T09:06:42Z</time>
      </trkpt>
      <trkpt lat="44.975516209378839" lon="5.643240362405777">
        <ele>692.5999755859375</ele>
        <time>2014-05-19T09:09:30Z</time>
      </trkpt>
      <trkpt lat="44.975394001230597" lon="5.643222508952022">
        <ele>692.20001220703125</ele>
        <time>2014-05-19T09:09:35Z</time>
      </trkpt>
      <trkpt lat="44.975197445601225" lon="5.643200464546681">
        <ele>692.20001220703125</ele>
        <time>2014-05-19T09:09:40Z</time>
      </trkpt>
      <trkpt lat="44.974990161135793" lon="5.643143299967051">
        <ele>691.79998779296875</ele>
        <time>2014-05-19T09:09:44Z</time>
      </trkpt>
      <trkpt lat="44.974890081211925" lon="5.643107425421476">
        <ele>691.79998779296875</ele>
        <time>2014-05-19T09:09:46Z</time>
      </trkpt>
      <trkpt lat="44.974539466202259" lon="5.642937440425158">
        <ele>692.79998779296875</ele>
        <time>2014-05-19T09:09:53Z</time>
      </trkpt>
      <trkpt lat="44.97408508323133" lon="5.642714984714985">
        <ele>692.5999755859375</ele>
        <time>2014-05-19T09:10:01Z</time>
      </trkpt>
      <trkpt lat="44.973771683871746" lon="5.642469143494964">
        <ele>692.79998779296875</ele>
        <time>2014-05-19T09:10:07Z</time>
      </trkpt>
      <trkpt lat="44.973398437723517" lon="5.64216697588563">
        <ele>693.20001220703125</ele>
        <time>2014-05-19T09:10:14Z</time>
      </trkpt>
      <trkpt lat="44.97310146689415" lon="5.641999170184135">
        <ele>693.79998779296875</ele>
        <time>2014-05-19T09:10:19Z</time>
      </trkpt>
      <trkpt lat="44.973045140504837" lon="5.641979807987809">
        <ele>694</ele>
        <time>2014-05-19T09:10:20Z</time>
      </trkpt>
      <trkpt lat="44.972757808864117" lon="5.641874112188816">
        <ele>695</ele>
        <time>2014-05-19T09:10:25Z</time>
      </trkpt>
      <trkpt lat="44.97259478084743" lon="5.641810242086649">
        <ele>695.79998779296875</ele>
        <time>2014-05-19T09:10:28Z</time>
      </trkpt>
      <trkpt lat="44.972489755600691" lon="5.641779061406851">
        <ele>696</ele>
        <time>2014-05-19T09:10:30Z</time>
      </trkpt>
      <trkpt lat="44.972293535247445" lon="5.6417057197541">
        <ele>696.5999755859375</ele>
        <time>2014-05-19T09:10:34Z</time>
      </trkpt>
      <trkpt lat="44.972087256610394" lon="5.64162902534008">
        <ele>697</ele>
        <time>2014-05-19T09:10:38Z</time>
      </trkpt>
      <trkpt lat="44.971989942714572" lon="5.641586780548096">
        <ele>697.4000244140625</ele>
        <time>2014-05-19T09:10:40Z</time>
      </trkpt>
      <trkpt lat="44.971906542778015" lon="5.641554174944758">
        <ele>697.79998779296875</ele>
        <time>2014-05-19T09:10:42Z</time>
      </trkpt>
      <trkpt lat="44.971744520589709" lon="5.641469182446599">
        <ele>698.20001220703125</ele>
        <time>2014-05-19T09:10:46Z</time>
      </trkpt>
      <trkpt lat="44.971702611073852" lon="5.641444874927402">
        <ele>698.20001220703125</ele>
        <time>2014-05-19T09:10:47Z</time>
      </trkpt>
      <trkpt lat="44.97149046510458" lon="5.641283607110381">
        <ele>698.79998779296875</ele>
        <time>2014-05-19T09:10:52Z</time>
      </trkpt>
      <trkpt lat="44.971363227814436" lon="5.641175480559468">
        <ele>699.20001220703125</ele>
        <time>2014-05-19T09:10:55Z</time>
      </trkpt>
      <trkpt lat="44.971229117363691" lon="5.641037514433265">
        <ele>700</ele>
        <time>2014-05-19T09:10:58Z</time>
      </trkpt>
      <trkpt lat="44.971005991101265" lon="5.640837354585528">
        <ele>700.4000244140625</ele>
        <time>2014-05-19T09:11:03Z</time>
      </trkpt>
      <trkpt lat="44.970798203721642" lon="5.640606265515089">
        <ele>700.79998779296875</ele>
        <time>2014-05-19T09:11:08Z</time>
      </trkpt>
      <trkpt lat="44.970668870955706" lon="5.640472322702408">
        <ele>701.4000244140625</ele>
        <time>2014-05-19T09:11:11Z</time>
      </trkpt>
      <trkpt lat="44.970558397471905" lon="5.640341145917773">
        <ele>701.5999755859375</ele>
        <time>2014-05-19T09:11:14Z</time>
      </trkpt>
      <trkpt lat="44.970387406647205" lon="5.640092957764864">
        <ele>702.4000244140625</ele>
        <time>2014-05-19T09:11:19Z</time>
      </trkpt>
      <trkpt lat="44.970356896519661" lon="5.640042582526803">
        <ele>702.5999755859375</ele>
        <time>2014-05-19T09:11:20Z</time>
      </trkpt>
      <trkpt lat="44.970321441069245" lon="5.639987681061029">
        <ele>702.5999755859375</ele>
        <time>2014-05-19T09:11:21Z</time>
      </trkpt>
      <trkpt lat="44.97011792846024" lon="5.639661457389593">
        <ele>703.5999755859375</ele>
        <time>2014-05-19T09:11:27Z</time>
      </trkpt>
      <trkpt lat="44.970082808285952" lon="5.639613345265389">
        <ele>703.79998779296875</ele>
        <time>2014-05-19T09:11:28Z</time>
      </trkpt>
      <trkpt lat="44.969907710328698" lon="5.639339173212647">
        <ele>704.79998779296875</ele>
        <time>2014-05-19T09:11:33Z</time>
      </trkpt>
      <trkpt lat="44.969872003421187" lon="5.639296760782599">
        <ele>705</ele>
        <time>2014-05-19T09:11:34Z</time>
      </trkpt>
      <trkpt lat="44.969664551317692" lon="5.639043459668756">
        <ele>705.79998779296875</ele>
        <time>2014-05-19T09:11:40Z</time>
      </trkpt>
      <trkpt lat="44.969627168029547" lon="5.639009261503816">
        <ele>706</ele>
        <time>2014-05-19T09:11:41Z</time>
      </trkpt>
      <trkpt lat="44.969482412561774" lon="5.638843551278114">
        <ele>706.20001220703125</ele>
        <time>2014-05-19T09:11:45Z</time>
      </trkpt>
      <trkpt lat="44.969337657094002" lon="5.638675410300493">
        <ele>706.79998779296875</ele>
        <time>2014-05-19T09:11:49Z</time>
      </trkpt>
      <trkpt lat="44.969227602705359" lon="5.638561667874456">
        <ele>707.20001220703125</ele>
        <time>2014-05-19T09:11:52Z</time>
      </trkpt>
      <trkpt lat="44.969039848074317" lon="5.638386569917202">
        <ele>707.79998779296875</ele>
        <time>2014-05-19T09:11:57Z</time>
      </trkpt>
      <trkpt lat="44.968798700720072" lon="5.638246089220047">
        <ele>708.5999755859375</ele>
        <time>2014-05-19T09:12:03Z</time>
      </trkpt>
      <trkpt lat="44.968753522261977" lon="5.638227565214038">
        <ele>708.79998779296875</ele>
        <time>2014-05-19T09:12:04Z</time>
      </trkpt>
      <trkpt lat="44.968577837571502" lon="5.638147434219718">
        <ele>709</ele>
        <time>2014-05-19T09:12:08Z</time>
      </trkpt>
      <trkpt lat="44.968206770718098" lon="5.637956410646439">
        <ele>708.79998779296875</ele>
        <time>2014-05-19T09:12:15Z</time>
      </trkpt>
      <trkpt lat="44.96788926422596" lon="5.637805536389351">
        <ele>709.20001220703125</ele>
        <time>2014-05-19T09:12:21Z</time>
      </trkpt>
      <trkpt lat="44.967600675299764" lon="5.63770093023777">
        <ele>709.4000244140625</ele>
        <time>2014-05-19T09:12:26Z</time>
      </trkpt>
      <trkpt lat="44.967485088855028" lon="5.637653488665819">
        <ele>709.5999755859375</ele>
        <time>2014-05-19T09:12:28Z</time>
      </trkpt>
      <trkpt lat="44.967429516837001" lon="5.637634545564652">
        <ele>710</ele>
        <time>2014-05-19T09:12:29Z</time>
      </trkpt>
      <trkpt lat="44.967091390863061" lon="5.63752063550055">
        <ele>710</ele>
        <time>2014-05-19T09:12:35Z</time>
      </trkpt>
      <trkpt lat="44.966971194371581" lon="5.637503704056144">
        <ele>710</ele>
        <time>2014-05-19T09:12:37Z</time>
      </trkpt>
      <trkpt lat="44.966722335666418" lon="5.637525077909231">
        <ele>710.5999755859375</ele>
        <time>2014-05-19T09:12:41Z</time>
      </trkpt>
      <trkpt lat="44.966656621545553" lon="5.637536812573671">
        <ele>711</ele>
        <time>2014-05-19T09:12:42Z</time>
      </trkpt>
      <trkpt lat="44.966265689581633" lon="5.637627169489861">
        <ele>710.79998779296875</ele>
        <time>2014-05-19T09:12:48Z</time>
      </trkpt>
      <trkpt lat="44.965944327414036" lon="5.637699589133263">
        <ele>711.20001220703125</ele>
        <time>2014-05-19T09:12:53Z</time>
      </trkpt>
      <trkpt lat="44.965405454859138" lon="5.637776535004377">
        <ele>711.4000244140625</ele>
        <time>2014-05-19T09:13:01Z</time>
      </trkpt>
      <trkpt lat="44.965018378570676" lon="5.637788772583008">
        <ele>712.20001220703125</ele>
        <time>2014-05-19T09:13:07Z</time>
      </trkpt>
      <trkpt lat="44.964579418301582" lon="5.637733619660139">
        <ele>712.4000244140625</ele>
        <time>2014-05-19T09:13:14Z</time>
      </trkpt>
      <trkpt lat="44.964212039485574" lon="5.637657260522246">
        <ele>713.20001220703125</ele>
        <time>2014-05-19T09:13:20Z</time>
      </trkpt>
      <trkpt lat="44.964096620678902" lon="5.63765742816031">
        <ele>713.20001220703125</ele>
        <time>2014-05-19T09:13:22Z</time>
      </trkpt>
      <trkpt lat="44.9638791102916" lon="5.637787012383342">
        <ele>713.20001220703125</ele>
        <time>2014-05-19T09:13:26Z</time>
      </trkpt>
      <trkpt lat="44.963776264339685" lon="5.637894719839096">
        <ele>713.20001220703125</ele>
        <time>2014-05-19T09:13:28Z</time>
      </trkpt>
      <trkpt lat="44.963608961552382" lon="5.638030003756285">
        <ele>713.20001220703125</ele>
        <time>2014-05-19T09:13:31Z</time>
      </trkpt>
      <trkpt lat="44.963419027626514" lon="5.638018772006035">
        <ele>712.79998779296875</ele>
        <time>2014-05-19T09:13:34Z</time>
      </trkpt>
      <trkpt lat="44.963344680145383" lon="5.637879213318229">
        <ele>712.5999755859375</ele>
        <time>2014-05-19T09:13:36Z</time>
      </trkpt>
      <trkpt lat="44.963338812813163" lon="5.637688776478171">
        <ele>713.5999755859375</ele>
        <time>2014-05-19T09:13:39Z</time>
      </trkpt>
      <trkpt lat="44.96335037983954" lon="5.637634545564652">
        <ele>714.20001220703125</ele>
        <time>2014-05-19T09:13:40Z</time>
      </trkpt>
      <trkpt lat="44.963373513892293" lon="5.637489622458816">
        <ele>715</ele>
        <time>2014-05-19T09:13:43Z</time>
      </trkpt>
      <trkpt lat="44.963355911895633" lon="5.637402618303895">
        <ele>715.5999755859375</ele>
        <time>2014-05-19T09:13:45Z</time>
      </trkpt>
      <trkpt lat="44.963349625468254" lon="5.637301448732615">
        <ele>716</ele>
        <time>2014-05-19T09:13:47Z</time>
      </trkpt>
      <trkpt lat="44.963355911895633" lon="5.637146551162005">
        <ele>716.5999755859375</ele>
        <time>2014-05-19T09:13:50Z</time>
      </trkpt>
      <trkpt lat="44.963386673480272" lon="5.637048399075866">
        <ele>717</ele>
        <time>2014-05-19T09:13:52Z</time>
      </trkpt>
      <trkpt lat="44.963466301560402" lon="5.636884700506926">
        <ele>717.5999755859375</ele>
        <time>2014-05-19T09:13:55Z</time>
      </trkpt>
      <trkpt lat="44.963532267138362" lon="5.63677154481411">
        <ele>717.5999755859375</ele>
        <time>2014-05-19T09:13:57Z</time>
      </trkpt>
      <trkpt lat="44.963806355372071" lon="5.636304840445519">
        <ele>716.79998779296875</ele>
        <time>2014-05-19T09:14:05Z</time>
      </trkpt>
      <trkpt lat="44.963868968188763" lon="5.636172071099281">
        <ele>717.20001220703125</ele>
        <time>2014-05-19T09:14:07Z</time>
      </trkpt>
      <trkpt lat="44.96388497762382" lon="5.635950705036521">
        <ele>717.4000244140625</ele>
        <time>2014-05-19T09:14:10Z</time>
      </trkpt>
      <trkpt lat="44.963784646242857" lon="5.635767644271255">
        <ele>717.79998779296875</ele>
        <time>2014-05-19T09:14:13Z</time>
      </trkpt>
      <trkpt lat="44.963623126968741" lon="5.635726321488619">
        <ele>718.20001220703125</ele>
        <time>2014-05-19T09:14:16Z</time>
      </trkpt>
      <trkpt lat="44.963399665430188" lon="5.635804859921336">
        <ele>718.20001220703125</ele>
        <time>2014-05-19T09:14:20Z</time>
      </trkpt>
      <trkpt lat="44.9633420817554" lon="5.635833526030183">
        <ele>718.20001220703125</ele>
        <time>2014-05-19T09:14:21Z</time>
      </trkpt>
      <trkpt lat="44.962876550853252" lon="5.63603863120079">
        <ele>718.20001220703125</ele>
        <time>2014-05-19T09:14:29Z</time>
      </trkpt>
      <trkpt lat="44.962704973295331" lon="5.636110631749034">
        <ele>718.79998779296875</ele>
        <time>2014-05-19T09:14:32Z</time>
      </trkpt>
      <trkpt lat="44.96242007240653" lon="5.636221691966057">
        <ele>719.5999755859375</ele>
        <time>2014-05-19T09:14:37Z</time>
      </trkpt>
      <trkpt lat="44.962364584207535" lon="5.636245161294937">
        <ele>719.79998779296875</ele>
        <time>2014-05-19T09:14:38Z</time>
      </trkpt>
      <trkpt lat="44.961985889822245" lon="5.636384636163712">
        <ele>720.79998779296875</ele>
        <time>2014-05-19T09:14:45Z</time>
      </trkpt>
      <trkpt lat="44.961881535127759" lon="5.636427719146013">
        <ele>720.79998779296875</ele>
        <time>2014-05-19T09:14:47Z</time>
      </trkpt>
      <trkpt lat="44.961627060547471" lon="5.636521764099598">
        <ele>722</ele>
        <time>2014-05-19T09:14:52Z</time>
      </trkpt>
      <trkpt lat="44.961575176566839" lon="5.636542970314622">
        <ele>722</ele>
        <time>2014-05-19T09:14:53Z</time>
      </trkpt>
      <trkpt lat="44.96131282299757" lon="5.636625280603766">
        <ele>723</ele>
        <time>2014-05-19T09:14:58Z</time>
      </trkpt>
      <trkpt lat="44.961098497733474" lon="5.636675991117954">
        <ele>723.4000244140625</ele>
        <time>2014-05-19T09:15:02Z</time>
      </trkpt>
      <trkpt lat="44.960785517469049" lon="5.63669728115201">
        <ele>724</ele>
        <time>2014-05-19T09:15:08Z</time>
      </trkpt>
      <trkpt lat="44.960683342069387" lon="5.636705663055182">
        <ele>724.20001220703125</ele>
        <time>2014-05-19T09:15:10Z</time>
      </trkpt>
      <trkpt lat="44.960384359583259" lon="5.63676911406219">
        <ele>725</ele>
        <time>2014-05-19T09:15:16Z</time>
      </trkpt>
      <trkpt lat="44.960336331278086" lon="5.636790068820119">
        <ele>725</ele>
        <time>2014-05-19T09:15:17Z</time>
      </trkpt>
      <trkpt lat="44.960289476439357" lon="5.636812280863524">
        <ele>725.4000244140625</ele>
        <time>2014-05-19T09:15:18Z</time>
      </trkpt>
      <trkpt lat="44.959802404046059" lon="5.637096092104912">
        <ele>726</ele>
        <time>2014-05-19T09:15:28Z</time>
      </trkpt>
      <trkpt lat="44.959512138739228" lon="5.63727336935699">
        <ele>726.20001220703125</ele>
        <time>2014-05-19T09:15:34Z</time>
      </trkpt>
      <trkpt lat="44.959415663033724" lon="5.637329444289208">
        <ele>726.5999755859375</ele>
        <time>2014-05-19T09:15:36Z</time>
      </trkpt>
      <trkpt lat="44.959128079935908" lon="5.637462884187698">
        <ele>727.4000244140625</ele>
        <time>2014-05-19T09:15:42Z</time>
      </trkpt>
      <trkpt lat="44.959025401622057" lon="5.637487107887864">
        <ele>727.79998779296875</ele>
        <time>2014-05-19T09:15:44Z</time>
      </trkpt>
      <trkpt lat="44.958712421357632" lon="5.637516612187028">
        <ele>728.5999755859375</ele>
        <time>2014-05-19T09:15:50Z</time>
      </trkpt>
      <trkpt lat="44.958608401939273" lon="5.63753480091691">
        <ele>728.79998779296875</ele>
        <time>2014-05-19T09:15:52Z</time>
      </trkpt>
      <trkpt lat="44.958225516602397" lon="5.637592719867826">
        <ele>729.79998779296875</ele>
        <time>2014-05-19T09:15:59Z</time>
      </trkpt>
      <trkpt lat="44.958173129707575" lon="5.637606298550963">
        <ele>730</ele>
        <time>2014-05-19T09:16:00Z</time>
      </trkpt>
      <trkpt lat="44.957802481949329" lon="5.637752898037434">
        <ele>730.79998779296875</ele>
        <time>2014-05-19T09:16:07Z</time>
      </trkpt>
      <trkpt lat="44.957703240215778" lon="5.637807296589017">
        <ele>731</ele>
        <time>2014-05-19T09:16:09Z</time>
      </trkpt>
      <trkpt lat="44.957282468676567" lon="5.638086246326566">
        <ele>731.5999755859375</ele>
        <time>2014-05-19T09:16:17Z</time>
      </trkpt>
      <trkpt lat="44.956936966627836" lon="5.638379445299506">
        <ele>731</ele>
        <time>2014-05-19T09:16:23Z</time>
      </trkpt>
      <trkpt lat="44.956466155126691" lon="5.638782866299152">
        <ele>731.5999755859375</ele>
        <time>2014-05-19T09:16:31Z</time>
      </trkpt>
      <trkpt lat="44.956293907016516" lon="5.638910522684455">
        <ele>731.79998779296875</ele>
        <time>2014-05-19T09:16:34Z</time>
      </trkpt>
      <trkpt lat="44.956014538183808" lon="5.639134319499135">
        <ele>732</ele>
        <time>2014-05-19T09:16:39Z</time>
      </trkpt>
      <trkpt lat="44.955804236233234" lon="5.639292821288109">
        <ele>733</ele>
        <time>2014-05-19T09:16:43Z</time>
      </trkpt>
      <trkpt lat="44.955618912354112" lon="5.639452580362558">
        <ele>733.5999755859375</ele>
        <time>2014-05-19T09:16:47Z</time>
      </trkpt>
      <trkpt lat="44.955539954826236" lon="5.639544110745192">
        <ele>734</ele>
        <time>2014-05-19T09:16:49Z</time>
      </trkpt>
      <trkpt lat="44.955502822995186" lon="5.639591049402952">
        <ele>734.20001220703125</ele>
        <time>2014-05-19T09:16:50Z</time>
      </trkpt>
      <trkpt lat="44.955394025892019" lon="5.63973412849009">
        <ele>734.4000244140625</ele>
        <time>2014-05-19T09:16:53Z</time>
      </trkpt>
      <trkpt lat="44.955110214650631" lon="5.640129586681724">
        <ele>735.20001220703125</ele>
        <time>2014-05-19T09:17:01Z</time>
      </trkpt>
      <trkpt lat="44.954933524131775" lon="5.640306193381548">
        <ele>735.20001220703125</ele>
        <time>2014-05-19T09:17:05Z</time>
      </trkpt>
      <trkpt lat="44.954838976264" lon="5.640367465093732">
        <ele>735.20001220703125</ele>
        <time>2014-05-19T09:17:07Z</time>
      </trkpt>
      <trkpt lat="44.954707715660334" lon="5.64042404294014">
        <ele>736.4000244140625</ele>
        <time>2014-05-19T09:17:10Z</time>
      </trkpt>
      <trkpt lat="44.954671170562506" lon="5.640442315489054">
        <ele>736.79998779296875</ele>
        <time>2014-05-19T09:17:11Z</time>
      </trkpt>
      <trkpt lat="44.954630518332124" lon="5.640453714877367">
        <ele>737</ele>
        <time>2014-05-19T09:17:12Z</time>
      </trkpt>
      <trkpt lat="44.954593637958169" lon="5.640469221398234">
        <ele>737.4000244140625</ele>
        <time>2014-05-19T09:17:13Z</time>
      </trkpt>
      <trkpt lat="44.954482577741146" lon="5.640515321865678">
        <ele>738.79998779296875</ele>
        <time>2014-05-19T09:17:16Z</time>
      </trkpt>
      <trkpt lat="44.954401440918446" lon="5.640523955225945">
        <ele>739.20001220703125</ele>
        <time>2014-05-19T09:17:18Z</time>
      </trkpt>
      <trkpt lat="44.954160545021296" lon="5.640460755676031">
        <ele>739.4000244140625</ele>
        <time>2014-05-19T09:17:24Z</time>
      </trkpt>
      <trkpt lat="44.953918559476733" lon="5.64029261469841">
        <ele>739</ele>
        <time>2014-05-19T09:17:30Z</time>
      </trkpt>
      <trkpt lat="44.953767936676741" lon="5.640173926949501">
        <ele>739.79998779296875</ele>
        <time>2014-05-19T09:17:34Z</time>
      </trkpt>
      <trkpt lat="44.953658133745193" lon="5.640104943886399">
        <ele>740.5999755859375</ele>
        <time>2014-05-19T09:17:37Z</time>
      </trkpt>
      <trkpt lat="44.953592671081424" lon="5.640057921409607">
        <ele>741</ele>
        <time>2014-05-19T09:17:39Z</time>
      </trkpt>
      <trkpt lat="44.953420087695122" lon="5.639968067407608">
        <ele>742</ele>
        <time>2014-05-19T09:17:44Z</time>
      </trkpt>
      <trkpt lat="44.953382788226008" lon="5.639956248924136">
        <ele>742</ele>
        <time>2014-05-19T09:17:45Z</time>
      </trkpt>
      <trkpt lat="44.953177683055401" lon="5.639939066022635">
        <ele>742.4000244140625</ele>
        <time>2014-05-19T09:17:50Z</time>
      </trkpt>
      <trkpt lat="44.953095121309161" lon="5.639960020780563">
        <ele>742.4000244140625</ele>
        <time>2014-05-19T09:17:52Z</time>
      </trkpt>
      <trkpt lat="44.952976852655411" lon="5.640034703537822">
        <ele>742.5999755859375</ele>
        <time>2014-05-19T09:17:55Z</time>
      </trkpt>
      <trkpt lat="44.952903091907501" lon="5.640108045190573">
        <ele>743</ele>
        <time>2014-05-19T09:17:57Z</time>
      </trkpt>
      <trkpt lat="44.952752133831382" lon="5.640272749587894">
        <ele>742.5999755859375</ele>
        <time>2014-05-19T09:18:01Z</time>
      </trkpt>
      <trkpt lat="44.952547866851091" lon="5.640354976058006">
        <ele>742.5999755859375</ele>
        <time>2014-05-19T09:18:05Z</time>
      </trkpt>
      <trkpt lat="44.952273024246097" lon="5.640303259715438">
        <ele>743.20001220703125</ele>
        <time>2014-05-19T09:18:10Z</time>
      </trkpt>
      <trkpt lat="44.952142098918557" lon="5.640191193670034">
        <ele>744</ele>
        <time>2014-05-19T09:18:13Z</time>
      </trkpt>
      <trkpt lat="44.952101949602365" lon="5.640152217820287">
        <ele>744.20001220703125</ele>
        <time>2014-05-19T09:18:14Z</time>
      </trkpt>
      <trkpt lat="44.952059537172318" lon="5.64011131413281">
        <ele>744.4000244140625</ele>
        <time>2014-05-19T09:18:15Z</time>
      </trkpt>
      <trkpt lat="44.951898101717234" lon="5.639939736574888">
        <ele>745.20001220703125</ele>
        <time>2014-05-19T09:18:19Z</time>
      </trkpt>
      <trkpt lat="44.951743371784687" lon="5.639785509556532">
        <ele>745.5999755859375</ele>
        <time>2014-05-19T09:18:23Z</time>
      </trkpt>
      <trkpt lat="44.951563077047467" lon="5.639579063281417">
        <ele>746.4000244140625</ele>
        <time>2014-05-19T09:18:28Z</time>
      </trkpt>
      <trkpt lat="44.951525526121259" lon="5.639546206220985">
        <ele>746.5999755859375</ele>
        <time>2014-05-19T09:18:29Z</time>
      </trkpt>
      <trkpt lat="44.951484119519591" lon="5.639519970864058">
        <ele>746.79998779296875</ele>
        <time>2014-05-19T09:18:30Z</time>
      </trkpt>
      <trkpt lat="44.951314637437463" lon="5.639450568705797">
        <ele>747.4000244140625</ele>
        <time>2014-05-19T09:18:34Z</time>
      </trkpt>
      <trkpt lat="44.951271386817098" lon="5.639436738565564">
        <ele>747.4000244140625</ele>
        <time>2014-05-19T09:18:35Z</time>
      </trkpt>
      <trkpt lat="44.951001321896911" lon="5.639433385804296">
        <ele>748</ele>
        <time>2014-05-19T09:18:41Z</time>
      </trkpt>
      <trkpt lat="44.950618101283908" lon="5.639501698315144">
        <ele>748.4000244140625</ele>
        <time>2014-05-19T09:18:49Z</time>
      </trkpt>
      <trkpt lat="44.95056982152164" lon="5.639500357210636">
        <ele>748.5999755859375</ele>
        <time>2014-05-19T09:18:50Z</time>
      </trkpt>
      <trkpt lat="44.950478039681911" lon="5.639490969479084">
        <ele>749</ele>
        <time>2014-05-19T09:18:52Z</time>
      </trkpt>
      <trkpt lat="44.950330099090934" lon="5.639454759657383">
        <ele>749.20001220703125</ele>
        <time>2014-05-19T09:18:55Z</time>
      </trkpt>
      <trkpt lat="44.950185343623161" lon="5.639402456581593">
        <ele>749.5999755859375</ele>
        <time>2014-05-19T09:18:58Z</time>
      </trkpt>
      <trkpt lat="44.949860963970423" lon="5.63928603194654">
        <ele>750.20001220703125</ele>
        <time>2014-05-19T09:19:05Z</time>
      </trkpt>
      <trkpt lat="44.94976800866425" lon="5.639262981712818">
        <ele>750.79998779296875</ele>
        <time>2014-05-19T09:19:07Z</time>
      </trkpt>
      <trkpt lat="44.949485538527369" lon="5.639212690293789">
        <ele>751.5999755859375</ele>
        <time>2014-05-19T09:19:13Z</time>
      </trkpt>
      <trkpt lat="44.949347907677293" lon="5.639211181551218">
        <ele>752</ele>
        <time>2014-05-19T09:19:16Z</time>
      </trkpt>
      <trkpt lat="44.949046075344086" lon="5.639227442443371">
        <ele>752.4000244140625</ele>
        <time>2014-05-19T09:19:22Z</time>
      </trkpt>
      <trkpt lat="44.948738543316722" lon="5.63924940302968">
        <ele>753</ele>
        <time>2014-05-19T09:19:28Z</time>
      </trkpt>
      <trkpt lat="44.94863536208868" lon="5.639258539304137">
        <ele>753.4000244140625</ele>
        <time>2014-05-19T09:19:30Z</time>
      </trkpt>
      <trkpt lat="44.948336044326425" lon="5.639287456870079">
        <ele>754.20001220703125</ele>
        <time>2014-05-19T09:19:36Z</time>
      </trkpt>
      <trkpt lat="44.948183912783861" lon="5.639326767995954">
        <ele>754.79998779296875</ele>
        <time>2014-05-19T09:19:39Z</time>
      </trkpt>
      <trkpt lat="44.947938658297062" lon="5.639398936182261">
        <ele>755.4000244140625</ele>
        <time>2014-05-19T09:19:44Z</time>
      </trkpt>
      <trkpt lat="44.947795495390892" lon="5.639474708586931">
        <ele>755.4000244140625</ele>
        <time>2014-05-19T09:19:47Z</time>
      </trkpt>
      <trkpt lat="44.947467092424631" lon="5.639694398269057">
        <ele>756.20001220703125</ele>
        <time>2014-05-19T09:19:54Z</time>
      </trkpt>
      <trkpt lat="44.947379836812615" lon="5.639764219522476">
        <ele>756.4000244140625</ele>
        <time>2014-05-19T09:19:56Z</time>
      </trkpt>
      <trkpt lat="44.947061995044351" lon="5.63999212346971">
        <ele>757.20001220703125</ele>
        <time>2014-05-19T09:20:03Z</time>
      </trkpt>
      <trkpt lat="44.94701555930078" lon="5.640020705759525">
        <ele>757.5999755859375</ele>
        <time>2014-05-19T09:20:04Z</time>
      </trkpt>
      <trkpt lat="44.946737950667739" lon="5.640198569744825">
        <ele>758</ele>
        <time>2014-05-19T09:20:10Z</time>
      </trkpt>
      <trkpt lat="44.946388760581613" lon="5.640359669923782">
        <ele>758</ele>
        <time>2014-05-19T09:20:17Z</time>
      </trkpt>
      <trkpt lat="44.946205196902156" lon="5.640416666865349">
        <ele>758.5999755859375</ele>
        <time>2014-05-19T09:20:21Z</time>
      </trkpt>
      <trkpt lat="44.946159599348903" lon="5.640422701835632">
        <ele>758.79998779296875</ele>
        <time>2014-05-19T09:20:22Z</time>
      </trkpt>
      <trkpt lat="44.946070164442062" lon="5.640433179214597">
        <ele>759.4000244140625</ele>
        <time>2014-05-19T09:20:24Z</time>
      </trkpt>
      <trkpt lat="44.945979891344905" lon="5.640420103445649">
        <ele>759.79998779296875</ele>
        <time>2014-05-19T09:20:26Z</time>
      </trkpt>
      <trkpt lat="44.945854833349586" lon="5.640351288020611">
        <ele>759.79998779296875</ele>
        <time>2014-05-19T09:20:29Z</time>
      </trkpt>
      <trkpt lat="44.945777216926217" lon="5.640280544757843">
        <ele>760</ele>
        <time>2014-05-19T09:20:31Z</time>
      </trkpt>
      <trkpt lat="44.945640256628394" lon="5.640131263062358">
        <ele>760.5999755859375</ele>
        <time>2014-05-19T09:20:35Z</time>
      </trkpt>
      <trkpt lat="44.945605723187327" lon="5.640101591125131">
        <ele>760.79998779296875</ele>
        <time>2014-05-19T09:20:36Z</time>
      </trkpt>
      <trkpt lat="44.945417046546936" lon="5.639913836494088">
        <ele>761.79998779296875</ele>
        <time>2014-05-19T09:20:42Z</time>
      </trkpt>
      <trkpt lat="44.945208672434092" lon="5.639749132096767">
        <ele>762.5999755859375</ele>
        <time>2014-05-19T09:20:48Z</time>
      </trkpt>
      <trkpt lat="44.945136168971658" lon="5.639711664989591">
        <ele>763</ele>
        <time>2014-05-19T09:20:50Z</time>
      </trkpt>
      <trkpt lat="44.944972302764654" lon="5.639635305851698">
        <ele>763</ele>
        <time>2014-05-19T09:20:54Z</time>
      </trkpt>
      <trkpt lat="44.944884460419416" lon="5.639606723561883">
        <ele>762.5999755859375</ele>
        <time>2014-05-19T09:20:56Z</time>
      </trkpt>
      <trkpt lat="44.944627722725272" lon="5.639527598395944">
        <ele>763.4000244140625</ele>
        <time>2014-05-19T09:21:02Z</time>
      </trkpt>
      <trkpt lat="44.944522110745311" lon="5.639478312805295">
        <ele>764</ele>
        <time>2014-05-19T09:21:05Z</time>
      </trkpt>
      <trkpt lat="44.944408619776368" lon="5.639421148225665">
        <ele>764.4000244140625</ele>
        <time>2014-05-19T09:21:08Z</time>
      </trkpt>
      <trkpt lat="44.944287501275539" lon="5.63940865918994">
        <ele>765</ele>
        <time>2014-05-19T09:21:11Z</time>
      </trkpt>
      <trkpt lat="44.944204604253173" lon="5.63941259868443">
        <ele>765.20001220703125</ele>
        <time>2014-05-19T09:21:13Z</time>
      </trkpt>
      <trkpt lat="44.943872848525643" lon="5.639560036361218">
        <ele>766.20001220703125</ele>
        <time>2014-05-19T09:21:21Z</time>
      </trkpt>
      <trkpt lat="44.943747036159039" lon="5.639667911455035">
        <ele>766.20001220703125</ele>
        <time>2014-05-19T09:21:24Z</time>
      </trkpt>
      <trkpt lat="44.94357218965888" lon="5.639796406030655">
        <ele>766.5999755859375</ele>
        <time>2014-05-19T09:21:28Z</time>
      </trkpt>
      <trkpt lat="44.94320766068995" lon="5.639964295551181">
        <ele>767</ele>
        <time>2014-05-19T09:21:36Z</time>
      </trkpt>
      <trkpt lat="44.943115962669253" lon="5.639981394633651">
        <ele>767.4000244140625</ele>
        <time>2014-05-19T09:21:38Z</time>
      </trkpt>
      <trkpt lat="44.942894177511334" lon="5.640001762658358">
        <ele>768.20001220703125</ele>
        <time>2014-05-19T09:21:43Z</time>
      </trkpt>
      <trkpt lat="44.942804826423526" lon="5.640013329684734">
        <ele>768.4000244140625</ele>
        <time>2014-05-19T09:21:45Z</time>
      </trkpt>
      <trkpt lat="44.942760989069939" lon="5.640029422938824">
        <ele>768.5999755859375</ele>
        <time>2014-05-19T09:21:46Z</time>
      </trkpt>
      <trkpt lat="44.942591674625874" lon="5.640086587518454">
        <ele>769.20001220703125</ele>
        <time>2014-05-19T09:21:50Z</time>
      </trkpt>
      <trkpt lat="44.942464102059603" lon="5.640134448185563">
        <ele>769.5999755859375</ele>
        <time>2014-05-19T09:21:53Z</time>
      </trkpt>
      <trkpt lat="44.942339630797505" lon="5.64020561054349">
        <ele>770</ele>
        <time>2014-05-19T09:21:56Z</time>
      </trkpt>
      <trkpt lat="44.941960265859962" lon="5.640419600531459">
        <ele>770.4000244140625</ele>
        <time>2014-05-19T09:22:05Z</time>
      </trkpt>
      <trkpt lat="44.941786425188184" lon="5.640497887507081">
        <ele>770.79998779296875</ele>
        <time>2014-05-19T09:22:09Z</time>
      </trkpt>
      <trkpt lat="44.94152189232409" lon="5.640597464516759">
        <ele>771.4000244140625</ele>
        <time>2014-05-19T09:22:15Z</time>
      </trkpt>
      <trkpt lat="44.941345620900393" lon="5.640635937452316">
        <ele>771.79998779296875</ele>
        <time>2014-05-19T09:22:19Z</time>
      </trkpt>
      <trkpt lat="44.941219389438629" lon="5.640653371810913">
        <ele>772.20001220703125</ele>
        <time>2014-05-19T09:22:22Z</time>
      </trkpt>
      <trkpt lat="44.94113146327436" lon="5.640656473115087">
        <ele>772.4000244140625</ele>
        <time>2014-05-19T09:22:24Z</time>
      </trkpt>
      <trkpt lat="44.940950246527791" lon="5.640670135617256">
        <ele>772.79998779296875</ele>
        <time>2014-05-19T09:22:28Z</time>
      </trkpt>
      <trkpt lat="44.940722426399589" lon="5.640672901645303">
        <ele>773</ele>
        <time>2014-05-19T09:22:33Z</time>
      </trkpt>
      <trkpt lat="44.940501563251019" lon="5.640660412609577">
        <ele>773.79998779296875</ele>
        <time>2014-05-19T09:22:38Z</time>
      </trkpt>
      <trkpt lat="44.940462922677398" lon="5.640652785077691">
        <ele>774</ele>
        <time>2014-05-19T09:22:39Z</time>
      </trkpt>
      <trkpt lat="44.940418163314462" lon="5.640649180859327">
        <ele>774</ele>
        <time>2014-05-19T09:22:40Z</time>
      </trkpt>
      <trkpt lat="44.939988339319825" lon="5.640596207231283">
        <ele>775</ele>
        <time>2014-05-19T09:22:50Z</time>
      </trkpt>
      <trkpt lat="44.939944334328175" lon="5.640589753165841">
        <ele>775</ele>
        <time>2014-05-19T09:22:51Z</time>
      </trkpt>
      <trkpt lat="44.93960302323103" lon="5.640548262745142">
        <ele>775.79998779296875</ele>
        <time>2014-05-19T09:22:59Z</time>
      </trkpt>
      <trkpt lat="44.939520293846726" lon="5.640537953004241">
        <ele>776</ele>
        <time>2014-05-19T09:23:01Z</time>
      </trkpt>
      <trkpt lat="44.939267160370946" lon="5.640516495332122">
        <ele>777.20001220703125</ele>
        <time>2014-05-19T09:23:07Z</time>
      </trkpt>
      <trkpt lat="44.939143192023039" lon="5.640503251925111">
        <ele>777.4000244140625</ele>
        <time>2014-05-19T09:23:10Z</time>
      </trkpt>
      <trkpt lat="44.938802970573306" lon="5.640452457591891">
        <ele>778</ele>
        <time>2014-05-19T09:23:18Z</time>
      </trkpt>
      <trkpt lat="44.938718397170305" lon="5.640437202528119">
        <ele>778.20001220703125</ele>
        <time>2014-05-19T09:23:20Z</time>
      </trkpt>
      <trkpt lat="44.938411451876163" lon="5.640400405973196">
        <ele>779.20001220703125</ele>
        <time>2014-05-19T09:23:27Z</time>
      </trkpt>
      <trkpt lat="44.938001912087202" lon="5.640366291627288">
        <ele>779.79998779296875</ele>
        <time>2014-05-19T09:23:36Z</time>
      </trkpt>
      <trkpt lat="44.937912980094552" lon="5.640383223071694">
        <ele>780.20001220703125</ele>
        <time>2014-05-19T09:23:38Z</time>
      </trkpt>
      <trkpt lat="44.937696475535631" lon="5.640474669635296">
        <ele>780.5999755859375</ele>
        <time>2014-05-19T09:23:43Z</time>
      </trkpt>
      <trkpt lat="44.937519114464521" lon="5.640567038208246">
        <ele>780.79998779296875</ele>
        <time>2014-05-19T09:23:47Z</time>
      </trkpt>
      <trkpt lat="44.937386177480221" lon="5.640628142282367">
        <ele>781.20001220703125</ele>
        <time>2014-05-19T09:23:50Z</time>
      </trkpt>
      <trkpt lat="44.93729380890727" lon="5.640672147274017">
        <ele>781.20001220703125</ele>
        <time>2014-05-19T09:23:52Z</time>
      </trkpt>
      <trkpt lat="44.936998765915632" lon="5.640758229419589">
        <ele>782</ele>
        <time>2014-05-19T09:23:58Z</time>
      </trkpt>
      <trkpt lat="44.936893237754703" lon="5.640767700970173">
        <ele>782.4000244140625</ele>
        <time>2014-05-19T09:24:00Z</time>
      </trkpt>
      <trkpt lat="44.936681175604463" lon="5.640781028196216">
        <ele>782.79998779296875</ele>
        <time>2014-05-19T09:24:04Z</time>
      </trkpt>
      <trkpt lat="44.936372637748718" lon="5.640795947983861">
        <ele>783.4000244140625</ele>
        <time>2014-05-19T09:24:10Z</time>
      </trkpt>
      <trkpt lat="44.936061669141054" lon="5.640815561637282">
        <ele>784.4000244140625</ele>
        <time>2014-05-19T09:24:16Z</time>
      </trkpt>
      <trkpt lat="44.935906771570444" lon="5.640831738710403">
        <ele>784.5999755859375</ele>
        <time>2014-05-19T09:24:19Z</time>
      </trkpt>
      <trkpt lat="44.93560703471303" lon="5.640865601599217">
        <ele>785</ele>
        <time>2014-05-19T09:24:25Z</time>
      </trkpt>
      <trkpt lat="44.935369491577148" lon="5.640890495851636">
        <ele>785.5999755859375</ele>
        <time>2014-05-19T09:24:30Z</time>
      </trkpt>
      <trkpt lat="44.935138821601868" lon="5.640916815027595">
        <ele>786.20001220703125</ele>
        <time>2014-05-19T09:24:35Z</time>
      </trkpt>
      <trkpt lat="44.934996161609888" lon="5.640910444781184">
        <ele>786.5999755859375</ele>
        <time>2014-05-19T09:24:38Z</time>
      </trkpt>
      <trkpt lat="44.934801114723086" lon="5.640893597155809">
        <ele>786.79998779296875</ele>
        <time>2014-05-19T09:24:42Z</time>
      </trkpt>
      <trkpt lat="44.93444848805666" lon="5.64086233265698">
        <ele>787</ele>
        <time>2014-05-19T09:24:49Z</time>
      </trkpt>
      <trkpt lat="44.934398951008916" lon="5.640861075371504">
        <ele>787.20001220703125</ele>
        <time>2014-05-19T09:24:50Z</time>
      </trkpt>
      <trkpt lat="44.934142800047994" lon="5.64084087498486">
        <ele>787.20001220703125</ele>
        <time>2014-05-19T09:24:55Z</time>
      </trkpt>
      <trkpt lat="44.934092424809933" lon="5.640830649062991">
        <ele>787.4000244140625</ele>
        <time>2014-05-19T09:24:56Z</time>
      </trkpt>
      <trkpt lat="44.933995194733143" lon="5.640805084258318">
        <ele>787.79998779296875</ele>
        <time>2014-05-19T09:24:58Z</time>
      </trkpt>
      <trkpt lat="44.933791514486074" lon="5.640765689313412">
        <ele>788</ele>
        <time>2014-05-19T09:25:02Z</time>
      </trkpt>
      <trkpt lat="44.933495465666056" lon="5.640678098425269">
        <ele>788.5999755859375</ele>
        <time>2014-05-19T09:25:08Z</time>
      </trkpt>
      <trkpt lat="44.933394966647029" lon="5.640642307698727">
        <ele>788.79998779296875</ele>
        <time>2014-05-19T09:25:10Z</time>
      </trkpt>
      <trkpt lat="44.933062205091119" lon="5.640500653535128">
        <ele>789.5999755859375</ele>
        <time>2014-05-19T09:25:17Z</time>
      </trkpt>
      <trkpt lat="44.932923400774598" lon="5.640433933585882">
        <ele>790</ele>
        <time>2014-05-19T09:25:20Z</time>
      </trkpt>
      <trkpt lat="44.932738076895475" lon="5.64037031494081">
        <ele>790.5999755859375</ele>
        <time>2014-05-19T09:25:24Z</time>
      </trkpt>
      <trkpt lat="44.932465832680464" lon="5.640245424583554">
        <ele>791</ele>
        <time>2014-05-19T09:25:30Z</time>
      </trkpt>
      <trkpt lat="44.932378325611353" lon="5.640202593058348">
        <ele>791.20001220703125</ele>
        <time>2014-05-19T09:25:32Z</time>
      </trkpt>
      <trkpt lat="44.932222757488489" lon="5.640139058232307">
        <ele>792.20001220703125</ele>
        <time>2014-05-19T09:25:36Z</time>
      </trkpt>
      <trkpt lat="44.93214656598866" lon="5.640111146494746">
        <ele>792.4000244140625</ele>
        <time>2014-05-19T09:25:38Z</time>
      </trkpt>
      <trkpt lat="44.93207179941237" lon="5.640069069340825">
        <ele>792.5999755859375</ele>
        <time>2014-05-19T09:25:40Z</time>
      </trkpt>
      <trkpt lat="44.931894522160292" lon="5.6400116533041">
        <ele>793.20001220703125</ele>
        <time>2014-05-19T09:25:44Z</time>
      </trkpt>
      <trkpt lat="44.931766698136926" lon="5.639972509816289">
        <ele>793.4000244140625</ele>
        <time>2014-05-19T09:25:47Z</time>
      </trkpt>
      <trkpt lat="44.931595791131258" lon="5.639906041324139">
        <ele>794</ele>
        <time>2014-05-19T09:25:51Z</time>
      </trkpt>
      <trkpt lat="44.931427398696542" lon="5.639847703278065">
        <ele>794.20001220703125</ele>
        <time>2014-05-19T09:25:55Z</time>
      </trkpt>
      <trkpt lat="44.93130125105381" lon="5.639805290848017">
        <ele>794.5999755859375</ele>
        <time>2014-05-19T09:25:58Z</time>
      </trkpt>
      <trkpt lat="44.930993635207415" lon="5.639703869819641">
        <ele>795.20001220703125</ele>
        <time>2014-05-19T09:26:05Z</time>
      </trkpt>
      <trkpt lat="44.93086539208889" lon="5.63966958783567">
        <ele>795.4000244140625</ele>
        <time>2014-05-19T09:26:08Z</time>
      </trkpt>
      <trkpt lat="44.930552747100592" lon="5.639572944492102">
        <ele>796</ele>
        <time>2014-05-19T09:26:15Z</time>
      </trkpt>
      <trkpt lat="44.930414278060198" lon="5.639541177079082">
        <ele>796.4000244140625</ele>
        <time>2014-05-19T09:26:18Z</time>
      </trkpt>
      <trkpt lat="44.930005744099617" lon="5.639470014721155">
        <ele>797.4000244140625</ele>
        <time>2014-05-19T09:26:27Z</time>
      </trkpt>
      <trkpt lat="44.929872052744031" lon="5.639459621161223">
        <ele>797.5999755859375</ele>
        <time>2014-05-19T09:26:30Z</time>
      </trkpt>
      <trkpt lat="44.929622523486614" lon="5.639435900375247">
        <ele>798.20001220703125</ele>
        <time>2014-05-19T09:26:36Z</time>
      </trkpt>
      <trkpt lat="44.929584050551057" lon="5.639428859576583">
        <ele>798.4000244140625</ele>
        <time>2014-05-19T09:26:37Z</time>
      </trkpt>
      <trkpt lat="44.929468631744385" lon="5.639366414397955">
        <ele>798.20001220703125</ele>
        <time>2014-05-19T09:26:40Z</time>
      </trkpt>
      <trkpt lat="44.929392775520682" lon="5.639321319758892">
        <ele>798.4000244140625</ele>
        <time>2014-05-19T09:26:42Z</time>
      </trkpt>
      <trkpt lat="44.929317086935043" lon="5.639208583161235">
        <ele>798.5999755859375</ele>
        <time>2014-05-19T09:26:45Z</time>
      </trkpt>
      <trkpt lat="44.929307531565428" lon="5.639159800484777">
        <ele>798.79998779296875</ele>
        <time>2014-05-19T09:26:46Z</time>
      </trkpt>
      <trkpt lat="44.929257994517684" lon="5.639102049171925">
        <ele>799</ele>
        <time>2014-05-19T09:26:48Z</time>
      </trkpt>
      <trkpt lat="44.929197477176785" lon="5.639101881533861">
        <ele>799.20001220703125</ele>
        <time>2014-05-19T09:26:50Z</time>
      </trkpt>
      <trkpt lat="44.929171074181795" lon="5.639120740815997">
        <ele>799.4000244140625</ele>
        <time>2014-05-19T09:26:51Z</time>
      </trkpt>
      <trkpt lat="44.929102761670947" lon="5.6391257699579">
        <ele>799.5999755859375</ele>
        <time>2014-05-19T09:26:53Z</time>
      </trkpt>
      <trkpt lat="44.929066300392151" lon="5.639110850170255">
        <ele>799.5999755859375</ele>
        <time>2014-05-19T09:26:54Z</time>
      </trkpt>
      <trkpt lat="44.928911486640573" lon="5.639045890420675">
        <ele>799.79998779296875</ele>
        <time>2014-05-19T09:26:58Z</time>
      </trkpt>
      <trkpt lat="44.928789110854268" lon="5.639002807438374">
        <ele>800</ele>
        <time>2014-05-19T09:27:01Z</time>
      </trkpt>
      <trkpt lat="44.928495995700359" lon="5.638889065012336">
        <ele>800.79998779296875</ele>
        <time>2014-05-19T09:27:08Z</time>
      </trkpt>
      <trkpt lat="44.928454589098692" lon="5.638870038092136">
        <ele>800.5999755859375</ele>
        <time>2014-05-19T09:27:09Z</time>
      </trkpt>
      <trkpt lat="44.928415361791849" lon="5.63884967006743">
        <ele>800.79998779296875</ele>
        <time>2014-05-19T09:27:10Z</time>
      </trkpt>
      <trkpt lat="44.928167592734098" lon="5.638761911541224">
        <ele>801.4000244140625</ele>
        <time>2014-05-19T09:27:16Z</time>
      </trkpt>
      <trkpt lat="44.927933653816581" lon="5.638676499947906">
        <ele>801.79998779296875</ele>
        <time>2014-05-19T09:27:22Z</time>
      </trkpt>
      <trkpt lat="44.92785737849772" lon="5.638648336753249">
        <ele>802.20001220703125</ele>
        <time>2014-05-19T09:27:24Z</time>
      </trkpt>
      <trkpt lat="44.927535597234964" lon="5.638533504679799">
        <ele>802.79998779296875</ele>
        <time>2014-05-19T09:27:32Z</time>
      </trkpt>
      <trkpt lat="44.927413389086723" lon="5.638481955975294">
        <ele>803</ele>
        <time>2014-05-19T09:27:35Z</time>
      </trkpt>
      <trkpt lat="44.927163859829307" lon="5.638396041467786">
        <ele>803.79998779296875</ele>
        <time>2014-05-19T09:27:41Z</time>
      </trkpt>
      <trkpt lat="44.927039556205273" lon="5.638356814160943">
        <ele>804</ele>
        <time>2014-05-19T09:27:44Z</time>
      </trkpt>
      <trkpt lat="44.926882646977901" lon="5.638323538005352">
        <ele>804.20001220703125</ele>
        <time>2014-05-19T09:27:48Z</time>
      </trkpt>
      <trkpt lat="44.926840653643012" lon="5.638324962928891">
        <ele>804.20001220703125</ele>
        <time>2014-05-19T09:27:49Z</time>
      </trkpt>
      <trkpt lat="44.92671450600028" lon="5.638262433931232">
        <ele>804.4000244140625</ele>
        <time>2014-05-19T09:27:52Z</time>
      </trkpt>
      <trkpt lat="44.926502779126167" lon="5.638138214126229">
        <ele>805</ele>
        <time>2014-05-19T09:27:57Z</time>
      </trkpt>
      <trkpt lat="44.926367159932852" lon="5.638077445328236">
        <ele>805.20001220703125</ele>
        <time>2014-05-19T09:28:00Z</time>
      </trkpt>
      <trkpt lat="44.926104554906487" lon="5.637963954359293">
        <ele>805.79998779296875</ele>
        <time>2014-05-19T09:28:06Z</time>
      </trkpt>
      <trkpt lat="44.926017047837377" lon="5.637948364019394">
        <ele>805.79998779296875</ele>
        <time>2014-05-19T09:28:08Z</time>
      </trkpt>
      <trkpt lat="44.925939934328198" lon="5.637882566079497">
        <ele>806.20001220703125</ele>
        <time>2014-05-19T09:28:10Z</time>
      </trkpt>
      <trkpt lat="44.925846559926867" lon="5.637860521674156">
        <ele>806.4000244140625</ele>
        <time>2014-05-19T09:28:12Z</time>
      </trkpt>
      <trkpt lat="44.925709599629045" lon="5.637925397604704">
        <ele>806.4000244140625</ele>
        <time>2014-05-19T09:28:15Z</time>
      </trkpt>
      <trkpt lat="44.925662409514189" lon="5.637934366241098">
        <ele>806.4000244140625</ele>
        <time>2014-05-19T09:28:16Z</time>
      </trkpt>
      <trkpt lat="44.925524024292827" lon="5.637897318229079">
        <ele>806.5999755859375</ele>
        <time>2014-05-19T09:28:19Z</time>
      </trkpt>
      <trkpt lat="44.925479767844081" lon="5.637878039851785">
        <ele>806.5999755859375</ele>
        <time>2014-05-19T09:28:20Z</time>
      </trkpt>
      <trkpt lat="44.92530039511621" lon="5.637807967141271">
        <ele>807.20001220703125</ele>
        <time>2014-05-19T09:28:24Z</time>
      </trkpt>
      <trkpt lat="44.925163434818387" lon="5.637770583853126">
        <ele>807.5999755859375</ele>
        <time>2014-05-19T09:28:27Z</time>
      </trkpt>
      <trkpt lat="44.925026390701532" lon="5.63772926107049">
        <ele>808.4000244140625</ele>
        <time>2014-05-19T09:28:30Z</time>
      </trkpt>
      <trkpt lat="44.924808880314231" lon="5.637652399018407">
        <ele>808.20001220703125</ele>
        <time>2014-05-19T09:28:35Z</time>
      </trkpt>
      <trkpt lat="44.924768563359976" lon="5.637635383754969">
        <ele>808.5999755859375</ele>
        <time>2014-05-19T09:28:36Z</time>
      </trkpt>
      <trkpt lat="44.924463713541627" lon="5.63754846341908">
        <ele>809</ele>
        <time>2014-05-19T09:28:43Z</time>
      </trkpt>
      <trkpt lat="44.924337482079864" lon="5.637510493397713">
        <ele>809.4000244140625</ele>
        <time>2014-05-19T09:28:46Z</time>
      </trkpt>
      <trkpt lat="44.924254082143307" lon="5.637478139251471">
        <ele>809.5999755859375</ele>
        <time>2014-05-19T09:28:48Z</time>
      </trkpt>
      <trkpt lat="44.924119971692562" lon="5.63743706792593">
        <ele>809.79998779296875</ele>
        <time>2014-05-19T09:28:51Z</time>
      </trkpt>
      <trkpt lat="44.92379299364984" lon="5.637305052950978">
        <ele>809.4000244140625</ele>
        <time>2014-05-19T09:28:59Z</time>
      </trkpt>
      <trkpt lat="44.923551175743341" lon="5.637239506468177">
        <ele>810.20001220703125</ele>
        <time>2014-05-19T09:29:05Z</time>
      </trkpt>
      <trkpt lat="44.923349507153034" lon="5.637172535061836">
        <ele>810.4000244140625</ele>
        <time>2014-05-19T09:29:10Z</time>
      </trkpt>
      <trkpt lat="44.92330776527524" lon="5.637153591960669">
        <ele>810.5999755859375</ele>
        <time>2014-05-19T09:29:11Z</time>
      </trkpt>
      <trkpt lat="44.923265101388097" lon="5.637137750163674">
        <ele>810.5999755859375</ele>
        <time>2014-05-19T09:29:12Z</time>
      </trkpt>
      <trkpt lat="44.923042729496956" lon="5.637064911425114">
        <ele>810.5999755859375</ele>
        <time>2014-05-19T09:29:17Z</time>
      </trkpt>
      <trkpt lat="44.922997383400798" lon="5.637048650532961">
        <ele>810.5999755859375</ele>
        <time>2014-05-19T09:29:18Z</time>
      </trkpt>
      <trkpt lat="44.922588178887963" lon="5.636897524818778">
        <ele>811.5999755859375</ele>
        <time>2014-05-19T09:29:27Z</time>
      </trkpt>
      <trkpt lat="44.92219615727663" lon="5.636764587834477">
        <ele>811.4000244140625</ele>
        <time>2014-05-19T09:29:35Z</time>
      </trkpt>
      <trkpt lat="44.922093981876969" lon="5.636732568964362">
        <ele>811.5999755859375</ele>
        <time>2014-05-19T09:29:37Z</time>
      </trkpt>
      <trkpt lat="44.921859120950103" lon="5.636668866500258">
        <ele>811.79998779296875</ele>
        <time>2014-05-19T09:29:42Z</time>
      </trkpt>
      <trkpt lat="44.921815954148769" lon="5.636650510132313">
        <ele>811.79998779296875</ele>
        <time>2014-05-19T09:29:43Z</time>
      </trkpt>
      <trkpt lat="44.92157363332808" lon="5.636562248691917">
        <ele>812.20001220703125</ele>
        <time>2014-05-19T09:29:49Z</time>
      </trkpt>
      <trkpt lat="44.921396439895034" lon="5.636479016393423">
        <ele>811.5999755859375</ele>
        <time>2014-05-19T09:29:53Z</time>
      </trkpt>
      <trkpt lat="44.921325528994203" lon="5.636363849043846">
        <ele>811.20001220703125</ele>
        <time>2014-05-19T09:29:55Z</time>
      </trkpt>
      <trkpt lat="44.921205500140786" lon="5.636098477989435">
        <ele>811</ele>
        <time>2014-05-19T09:29:59Z</time>
      </trkpt>
      <trkpt lat="44.921047417446971" lon="5.63612655736506">
        <ele>811.20001220703125</ele>
        <time>2014-05-19T09:30:02Z</time>
      </trkpt>
      <trkpt lat="44.920931495726109" lon="5.636289585381746">
        <ele>811.5999755859375</ele>
        <time>2014-05-19T09:30:05Z</time>
      </trkpt>
      <trkpt lat="44.920882377773523" lon="5.636314228177071">
        <ele>811.79998779296875</ele>
        <time>2014-05-19T09:30:06Z</time>
      </trkpt>
      <trkpt lat="44.92077961564064" lon="5.636310623958707">
        <ele>812.20001220703125</ele>
        <time>2014-05-19T09:30:08Z</time>
      </trkpt>
      <trkpt lat="44.920681463554502" lon="5.636284137144685">
        <ele>812.5999755859375</ele>
        <time>2014-05-19T09:30:10Z</time>
      </trkpt>
      <trkpt lat="44.920480968430638" lon="5.636223703622818">
        <ele>812.79998779296875</ele>
        <time>2014-05-19T09:30:14Z</time>
      </trkpt>
      <trkpt lat="44.9202342890203" lon="5.636132257059217">
        <ele>813</ele>
        <time>2014-05-19T09:30:19Z</time>
      </trkpt>
      <trkpt lat="44.920080900192261" lon="5.636085402220488">
        <ele>813.79998779296875</ele>
        <time>2014-05-19T09:30:22Z</time>
      </trkpt>
      <trkpt lat="44.919978389516473" lon="5.636053048074246">
        <ele>814</ele>
        <time>2014-05-19T09:30:24Z</time>
      </trkpt>
      <trkpt lat="44.919635318219662" lon="5.635943915694952">
        <ele>814.20001220703125</ele>
        <time>2014-05-19T09:30:31Z</time>
      </trkpt>
      <trkpt lat="44.919458879157901" lon="5.635882979258895">
        <ele>814.79998779296875</ele>
        <time>2014-05-19T09:30:35Z</time>
      </trkpt>
      <trkpt lat="44.919333150610328" lon="5.635836543515325">
        <ele>815.20001220703125</ele>
        <time>2014-05-19T09:30:38Z</time>
      </trkpt>
      <trkpt lat="44.919181521981955" lon="5.635767141357064">
        <ele>815.79998779296875</ele>
        <time>2014-05-19T09:30:42Z</time>
      </trkpt>
      <trkpt lat="44.919072641059756" lon="5.635732943192124">
        <ele>816.5999755859375</ele>
        <time>2014-05-19T09:30:45Z</time>
      </trkpt>
      <trkpt lat="44.918994689360261" lon="5.635712407529354">
        <ele>817</ele>
        <time>2014-05-19T09:30:47Z</time>
      </trkpt>
      <trkpt lat="44.918790422379971" lon="5.635639317333698">
        <ele>818</ele>
        <time>2014-05-19T09:30:53Z</time>
      </trkpt>
      <trkpt lat="44.918555477634072" lon="5.635565305128694">
        <ele>819.20001220703125</ele>
        <time>2014-05-19T09:31:00Z</time>
      </trkpt>
      <trkpt lat="44.918495127931237" lon="5.635549295693636">
        <ele>819.4000244140625</ele>
        <time>2014-05-19T09:31:02Z</time>
      </trkpt>
      <trkpt lat="44.918323131278157" lon="5.635490622371435">
        <ele>820.4000244140625</ele>
        <time>2014-05-19T09:31:08Z</time>
      </trkpt>
      <trkpt lat="44.918220201507211" lon="5.635486599057913">
        <ele>820.4000244140625</ele>
        <time>2014-05-19T09:31:12Z</time>
      </trkpt>
      <trkpt lat="44.918197151273489" lon="5.63550210557878">
        <ele>820.4000244140625</ele>
        <time>2014-05-19T09:31:13Z</time>
      </trkpt>
      <trkpt lat="44.918142920359969" lon="5.635645436123014">
        <ele>821.4000244140625</ele>
        <time>2014-05-19T09:31:17Z</time>
      </trkpt>
      <trkpt lat="44.918049713596702" lon="5.635863449424505">
        <ele>822.4000244140625</ele>
        <time>2014-05-19T09:31:23Z</time>
      </trkpt>
      <trkpt lat="44.918023645877838" lon="5.635940562933683">
        <ele>822.5999755859375</ele>
        <time>2014-05-19T09:31:25Z</time>
      </trkpt>
      <trkpt lat="44.9179323669523" lon="5.636208951473236">
        <ele>822.79998779296875</ele>
        <time>2014-05-19T09:31:31Z</time>
      </trkpt>
      <trkpt lat="44.917873190715909" lon="5.636307941749692">
        <ele>823.5999755859375</ele>
        <time>2014-05-19T09:31:34Z</time>
      </trkpt>
      <trkpt lat="44.917838908731937" lon="5.636311629787087">
        <ele>823.5999755859375</ele>
        <time>2014-05-19T09:31:35Z</time>
      </trkpt>
      <trkpt lat="44.917808314785361" lon="5.636307774111629">
        <ele>823.4000244140625</ele>
        <time>2014-05-19T09:31:36Z</time>
      </trkpt>
      <trkpt lat="44.917642185464501" lon="5.636213896796107">
        <ele>824</ele>
        <time>2014-05-19T09:31:42Z</time>
      </trkpt>
      <trkpt lat="44.917569933459163" lon="5.636181961745024">
        <ele>824.5999755859375</ele>
        <time>2014-05-19T09:31:45Z</time>
      </trkpt>
      <trkpt lat="44.91749064065516" lon="5.636163437739015">
        <ele>825.5999755859375</ele>
        <time>2014-05-19T09:31:48Z</time>
      </trkpt>
      <trkpt lat="44.917465830221772" lon="5.636156564578414">
        <ele>825.79998779296875</ele>
        <time>2014-05-19T09:31:49Z</time>
      </trkpt>
      <trkpt lat="44.917297605425119" lon="5.636099819093943">
        <ele>826.5999755859375</ele>
        <time>2014-05-19T09:31:56Z</time>
      </trkpt>
      <trkpt lat="44.917276566848159" lon="5.636087665334344">
        <ele>827</ele>
        <time>2014-05-19T09:31:57Z</time>
      </trkpt>
      <trkpt lat="44.91711831651628" lon="5.635995715856552">
        <ele>828</ele>
        <time>2014-05-19T09:32:04Z</time>
      </trkpt>
      <trkpt lat="44.917002143338323" lon="5.635944670066237">
        <ele>829</ele>
        <time>2014-05-19T09:32:09Z</time>
      </trkpt>
      <trkpt lat="44.916966017335653" lon="5.635931342840195">
        <ele>829.4000244140625</ele>
        <time>2014-05-19T09:32:11Z</time>
      </trkpt>
      <trkpt lat="44.916866021230817" lon="5.635950034484267">
        <ele>830.20001220703125</ele>
        <time>2014-05-19T09:32:16Z</time>
      </trkpt>
      <trkpt lat="44.916757894679904" lon="5.636004349216819">
        <ele>831.20001220703125</ele>
        <time>2014-05-19T09:32:21Z</time>
      </trkpt>
      <trkpt lat="44.91664532572031" lon="5.636029075831175">
        <ele>832.5999755859375</ele>
        <time>2014-05-19T09:32:25Z</time>
      </trkpt>
      <trkpt lat="44.916621604934335" lon="5.636030165478587">
        <ele>833</ele>
        <time>2014-05-19T09:32:26Z</time>
      </trkpt>
      <trkpt lat="44.916558237746358" lon="5.636018179357052">
        <ele>834</ele>
        <time>2014-05-19T09:32:29Z</time>
      </trkpt>
      <trkpt lat="44.916496463119984" lon="5.636021615937352">
        <ele>834.79998779296875</ele>
        <time>2014-05-19T09:32:32Z</time>
      </trkpt>
      <trkpt lat="44.916455559432507" lon="5.636019185185432">
        <ele>835</ele>
        <time>2014-05-19T09:32:34Z</time>
      </trkpt>
      <trkpt lat="44.916336368769407" lon="5.636016000062227">
        <ele>836.20001220703125</ele>
        <time>2014-05-19T09:32:40Z</time>
      </trkpt>
      <trkpt lat="44.916281551122665" lon="5.636033182963729">
        <ele>836.4000244140625</ele>
        <time>2014-05-19T09:32:42Z</time>
      </trkpt>
      <trkpt lat="44.916158840060234" lon="5.636092526838183">
        <ele>836</ele>
        <time>2014-05-19T09:32:46Z</time>
      </trkpt>
      <trkpt lat="44.916018694639206" lon="5.6361123919487">
        <ele>836.4000244140625</ele>
        <time>2014-05-19T09:32:51Z</time>
      </trkpt>
      <trkpt lat="44.91594510152936" lon="5.636059502139688">
        <ele>837.20001220703125</ele>
        <time>2014-05-19T09:32:54Z</time>
      </trkpt>
      <trkpt lat="44.915866814553738" lon="5.635970402508974">
        <ele>837.5999755859375</ele>
        <time>2014-05-19T09:32:58Z</time>
      </trkpt>
      <trkpt lat="44.915764722973108" lon="5.635852385312319">
        <ele>838.20001220703125</ele>
        <time>2014-05-19T09:33:03Z</time>
      </trkpt>
      <trkpt lat="44.91571300663054" lon="5.635815169662237">
        <ele>838.4000244140625</ele>
        <time>2014-05-19T09:33:05Z</time>
      </trkpt>
      <trkpt lat="44.915616866201162" lon="5.635772421956062">
        <ele>838.5999755859375</ele>
        <time>2014-05-19T09:33:08Z</time>
      </trkpt>
      <trkpt lat="44.915545787662268" lon="5.6357342004776">
        <ele>838.4000244140625</ele>
        <time>2014-05-19T09:33:10Z</time>
      </trkpt>
      <trkpt lat="44.915306735783815" lon="5.635581817477942">
        <ele>838.20001220703125</ele>
        <time>2014-05-19T09:33:17Z</time>
      </trkpt>
      <trkpt lat="44.915052764117718" lon="5.635421806946397">
        <ele>839.4000244140625</ele>
        <time>2014-05-19T09:33:26Z</time>
      </trkpt>
      <trkpt lat="44.914867859333754" lon="5.635288953781128">
        <ele>839</ele>
        <time>2014-05-19T09:33:32Z</time>
      </trkpt>
      <trkpt lat="44.914645655080676" lon="5.635163057595491">
        <ele>839</ele>
        <time>2014-05-19T09:33:38Z</time>
      </trkpt>
      <trkpt lat="44.914552280679345" lon="5.635122656822205">
        <ele>839.79998779296875</ele>
        <time>2014-05-19T09:34:20Z</time>
      </trkpt>
      <trkpt lat="44.914498468860984" lon="5.635107401758432">
        <ele>839.79998779296875</ele>
        <time>2014-05-19T09:34:23Z</time>
      </trkpt>
      <trkpt lat="44.914475418627262" lon="5.635096505284309">
        <ele>839.79998779296875</ele>
        <time>2014-05-19T09:34:24Z</time>
      </trkpt>
      <trkpt lat="44.914333345368505" lon="5.635019475594163">
        <ele>839.79998779296875</ele>
        <time>2014-05-19T09:34:29Z</time>
      </trkpt>
      <trkpt lat="44.914132347330451" lon="5.634869774803519">
        <ele>839.5999755859375</ele>
        <time>2014-05-19T09:34:35Z</time>
      </trkpt>
      <trkpt lat="44.91396420635283" lon="5.634698364883661">
        <ele>839.5999755859375</ele>
        <time>2014-05-19T09:34:39Z</time>
      </trkpt>
      <trkpt lat="44.913925984874368" lon="5.634647738188505">
        <ele>839.5999755859375</ele>
        <time>2014-05-19T09:34:40Z</time>
      </trkpt>
      <trkpt lat="44.913809392601252" lon="5.634455205872655">
        <ele>840.5999755859375</ele>
        <time>2014-05-19T09:34:44Z</time>
      </trkpt>
      <trkpt lat="44.913793718442321" lon="5.634408015757799">
        <ele>840.79998779296875</ele>
        <time>2014-05-19T09:34:45Z</time>
      </trkpt>
      <trkpt lat="44.913795059546828" lon="5.634275749325752">
        <ele>841.79998779296875</ele>
        <time>2014-05-19T09:34:48Z</time>
      </trkpt>
      <trkpt lat="44.913810482248664" lon="5.634232582524419">
        <ele>842.4000244140625</ele>
        <time>2014-05-19T09:34:49Z</time>
      </trkpt>
      <trkpt lat="44.913852140307426" lon="5.634152870625258">
        <ele>843</ele>
        <time>2014-05-19T09:34:51Z</time>
      </trkpt>
      <trkpt lat="44.913907963782549" lon="5.634032674133778">
        <ele>843.79998779296875</ele>
        <time>2014-05-19T09:34:54Z</time>
      </trkpt>
      <trkpt lat="44.913921291008592" lon="5.633996967226267">
        <ele>844.4000244140625</ele>
        <time>2014-05-19T09:34:55Z</time>
      </trkpt>
      <trkpt lat="44.913994632661343" lon="5.633809547871351">
        <ele>845.20001220703125</ele>
        <time>2014-05-19T09:35:01Z</time>
      </trkpt>
      <trkpt lat="44.914006367325783" lon="5.633780881762505">
        <ele>845.4000244140625</ele>
        <time>2014-05-19T09:35:02Z</time>
      </trkpt>
      <trkpt lat="44.91408440284431" lon="5.633603436872363">
        <ele>846</ele>
        <time>2014-05-19T09:35:08Z</time>
      </trkpt>
      <trkpt lat="44.914169479161501" lon="5.633402271196246">
        <ele>846.20001220703125</ele>
        <time>2014-05-19T09:35:16Z</time>
      </trkpt>
      <trkpt lat="44.914174508303404" lon="5.633384669199586">
        <ele>846.5999755859375</ele>
        <time>2014-05-19T09:35:25Z</time>
      </trkpt>
      <trkpt lat="44.914175346493721" lon="5.633357763290405">
        <ele>846.4000244140625</ele>
        <time>2014-05-19T09:35:26Z</time>
      </trkpt>
      <trkpt lat="44.914100244641304" lon="5.633252989500761">
        <ele>846.20001220703125</ele>
        <time>2014-05-19T09:35:30Z</time>
      </trkpt>
      <trkpt lat="44.913894217461348" lon="5.633084094151855">
        <ele>846.4000244140625</ele>
        <time>2014-05-19T09:35:37Z</time>
      </trkpt>
      <trkpt lat="44.913669414818287" lon="5.632951492443681">
        <ele>847.5999755859375</ele>
        <time>2014-05-19T09:35:45Z</time>
      </trkpt>
      <trkpt lat="44.913642005994916" lon="5.632933806627989">
        <ele>847.79998779296875</ele>
        <time>2014-05-19T09:35:46Z</time>
      </trkpt>
      <trkpt lat="44.913499094545841" lon="5.632853927090764">
        <ele>848.79998779296875</ele>
        <time>2014-05-19T09:35:51Z</time>
      </trkpt>
      <trkpt lat="44.913263898342848" lon="5.632697688415647">
        <ele>849.5999755859375</ele>
        <time>2014-05-19T09:35:59Z</time>
      </trkpt>
      <trkpt lat="44.913228861987591" lon="5.63268268480897">
        <ele>849.79998779296875</ele>
        <time>2014-05-19T09:36:00Z</time>
      </trkpt>
      <trkpt lat="44.913035491481423" lon="5.632550418376923">
        <ele>850.20001220703125</ele>
        <time>2014-05-19T09:36:06Z</time>
      </trkpt>
      <trkpt lat="44.912825608626008" lon="5.63244036398828">
        <ele>849.79998779296875</ele>
        <time>2014-05-19T09:36:12Z</time>
      </trkpt>
      <trkpt lat="44.912512712180614" lon="5.632289741188288">
        <ele>850.5999755859375</ele>
        <time>2014-05-19T09:36:21Z</time>
      </trkpt>
      <trkpt lat="44.912409028038383" lon="5.632239785045385">
        <ele>851</ele>
        <time>2014-05-19T09:36:24Z</time>
      </trkpt>
      <trkpt lat="44.912275420501828" lon="5.632168119773269">
        <ele>851.79998779296875</ele>
        <time>2014-05-19T09:36:28Z</time>
      </trkpt>
      <trkpt lat="44.912140304222703" lon="5.63209293410182">
        <ele>852.20001220703125</ele>
        <time>2014-05-19T09:36:32Z</time>
      </trkpt>
      <trkpt lat="44.911978198215365" lon="5.631989669054747">
        <ele>853</ele>
        <time>2014-05-19T09:36:37Z</time>
      </trkpt>
      <trkpt lat="44.911948861554265" lon="5.631962260231376">
        <ele>853.4000244140625</ele>
        <time>2014-05-19T09:36:38Z</time>
      </trkpt>
      <trkpt lat="44.911776026710868" lon="5.631807278841734">
        <ele>854</ele>
        <time>2014-05-19T09:36:44Z</time>
      </trkpt>
      <trkpt lat="44.911744510754943" lon="5.631785988807678">
        <ele>854.4000244140625</ele>
        <time>2014-05-19T09:36:45Z</time>
      </trkpt>
      <trkpt lat="44.911558851599693" lon="5.631680963560939">
        <ele>855.5999755859375</ele>
        <time>2014-05-19T09:36:51Z</time>
      </trkpt>
      <trkpt lat="44.911524904891849" lon="5.631669228896499">
        <ele>855.5999755859375</ele>
        <time>2014-05-19T09:36:52Z</time>
      </trkpt>
      <trkpt lat="44.911320134997368" lon="5.631612231954932">
        <ele>856.5999755859375</ele>
        <time>2014-05-19T09:36:58Z</time>
      </trkpt>
      <trkpt lat="44.911287529394031" lon="5.631605442613363">
        <ele>856.79998779296875</ele>
        <time>2014-05-19T09:36:59Z</time>
      </trkpt>
      <trkpt lat="44.91113506257534" lon="5.631514247506857">
        <ele>857.5999755859375</ele>
        <time>2014-05-19T09:37:04Z</time>
      </trkpt>
      <trkpt lat="44.911075299605727" lon="5.631483737379313">
        <ele>857.79998779296875</ele>
        <time>2014-05-19T09:37:06Z</time>
      </trkpt>
      <trkpt lat="44.910936579108238" lon="5.631414586678147">
        <ele>859</ele>
        <time>2014-05-19T09:37:11Z</time>
      </trkpt>
      <trkpt lat="44.910824848338962" lon="5.63136781565845">
        <ele>859.79998779296875</ele>
        <time>2014-05-19T09:37:15Z</time>
      </trkpt>
      <trkpt lat="44.910771120339632" lon="5.631333282217383">
        <ele>860</ele>
        <time>2014-05-19T09:37:17Z</time>
      </trkpt>
      <trkpt lat="44.910638183355331" lon="5.631264885887504">
        <ele>860.79998779296875</ele>
        <time>2014-05-19T09:37:22Z</time>
      </trkpt>
      <trkpt lat="44.91058780811727" lon="5.631226245313883">
        <ele>861</ele>
        <time>2014-05-19T09:37:24Z</time>
      </trkpt>
      <trkpt lat="44.910508934408426" lon="5.631183749064803">
        <ele>862</ele>
        <time>2014-05-19T09:37:27Z</time>
      </trkpt>
      <trkpt lat="44.91045830771327" lon="5.631161788478494">
        <ele>862.4000244140625</ele>
        <time>2014-05-19T09:37:29Z</time>
      </trkpt>
      <trkpt lat="44.910362418740988" lon="5.631116861477494">
        <ele>863.20001220703125</ele>
        <time>2014-05-19T09:37:33Z</time>
      </trkpt>
      <trkpt lat="44.910337356850505" lon="5.631103366613388">
        <ele>863.5999755859375</ele>
        <time>2014-05-19T09:37:34Z</time>
      </trkpt>
      <trkpt lat="44.910195786505938" lon="5.63101401552558">
        <ele>864.5999755859375</ele>
        <time>2014-05-19T09:37:40Z</time>
      </trkpt>
      <trkpt lat="44.910174077376723" lon="5.630999598652124">
        <ele>865</ele>
        <time>2014-05-19T09:37:41Z</time>
      </trkpt>
      <trkpt lat="44.910083217546344" lon="5.630947463214397">
        <ele>865.5999755859375</ele>
        <time>2014-05-19T09:37:45Z</time>
      </trkpt>
      <trkpt lat="44.909947263076901" lon="5.630861967802048">
        <ele>866.79998779296875</ele>
        <time>2014-05-19T09:37:51Z</time>
      </trkpt>
      <trkpt lat="44.909821199253201" lon="5.63080245628953">
        <ele>867.5999755859375</ele>
        <time>2014-05-19T09:37:57Z</time>
      </trkpt>
      <trkpt lat="44.909801753237844" lon="5.630790889263153">
        <ele>867.79998779296875</ele>
        <time>2014-05-19T09:37:58Z</time>
      </trkpt>
      <trkpt lat="44.909691615030169" lon="5.630733640864492">
        <ele>868.79998779296875</ele>
        <time>2014-05-19T09:38:04Z</time>
      </trkpt>
      <trkpt lat="44.909660099074244" lon="5.630714362487197">
        <ele>869.20001220703125</ele>
        <time>2014-05-19T09:38:06Z</time>
      </trkpt>
      <trkpt lat="44.909562533721328" lon="5.630668764933944">
        <ele>870</ele>
        <time>2014-05-19T09:38:11Z</time>
      </trkpt>
      <trkpt lat="44.909527329728007" lon="5.630654348060489">
        <ele>870.4000244140625</ele>
        <time>2014-05-19T09:38:13Z</time>
      </trkpt>
      <trkpt lat="44.909437894821167" lon="5.630604894831777">
        <ele>871.20001220703125</ele>
        <time>2014-05-19T09:38:18Z</time>
      </trkpt>
      <trkpt lat="44.909417442977428" lon="5.630592489615083">
        <ele>871.20001220703125</ele>
        <time>2014-05-19T09:38:19Z</time>
      </trkpt>
      <trkpt lat="44.909297497943044" lon="5.630514705553651">
        <ele>872.20001220703125</ele>
        <time>2014-05-19T09:38:26Z</time>
      </trkpt>
      <trkpt lat="44.909278890118003" lon="5.630504563450813">
        <ele>872.20001220703125</ele>
        <time>2014-05-19T09:38:27Z</time>
      </trkpt>
      <trkpt lat="44.909213595092297" lon="5.630448488518596">
        <ele>873.4000244140625</ele>
        <time>2014-05-19T09:38:31Z</time>
      </trkpt>
      <trkpt lat="44.909179899841547" lon="5.630421247333288">
        <ele>873.79998779296875</ele>
        <time>2014-05-19T09:38:33Z</time>
      </trkpt>
      <trkpt lat="44.909112760797143" lon="5.630357041954994">
        <ele>874.4000244140625</ele>
        <time>2014-05-19T09:38:37Z</time>
      </trkpt>
      <trkpt lat="44.90909406915307" lon="5.630342792719603">
        <ele>874.5999755859375</ele>
        <time>2014-05-19T09:38:38Z</time>
      </trkpt>
      <trkpt lat="44.909034725278616" lon="5.630298284813762">
        <ele>875</ele>
        <time>2014-05-19T09:38:41Z</time>
      </trkpt>
      <trkpt lat="44.908982338383794" lon="5.63025712966919">
        <ele>875.5999755859375</ele>
        <time>2014-05-19T09:38:44Z</time>
      </trkpt>
      <trkpt lat="44.908855687826872" lon="5.630158809944987">
        <ele>876.4000244140625</ele>
        <time>2014-05-19T09:38:51Z</time>
      </trkpt>
      <trkpt lat="44.908836241811514" lon="5.630144141614437">
        <ele>876.5999755859375</ele>
        <time>2014-05-19T09:38:52Z</time>
      </trkpt>
      <trkpt lat="44.908729372546077" lon="5.630055880174041">
        <ele>877.79998779296875</ele>
        <time>2014-05-19T09:38:58Z</time>
      </trkpt>
      <trkpt lat="44.908592831343412" lon="5.629948927089572">
        <ele>878.79998779296875</ele>
        <time>2014-05-19T09:39:05Z</time>
      </trkpt>
      <trkpt lat="44.908573133870959" lon="5.629934007301927">
        <ele>879.20001220703125</ele>
        <time>2014-05-19T09:39:06Z</time>
      </trkpt>
      <trkpt lat="44.908490739762783" lon="5.62982713803649">
        <ele>880</ele>
        <time>2014-05-19T09:39:11Z</time>
      </trkpt>
      <trkpt lat="44.908441537991166" lon="5.629755053669214">
        <ele>880.5999755859375</ele>
        <time>2014-05-19T09:39:14Z</time>
      </trkpt>
      <trkpt lat="44.908394431695342" lon="5.629689423367381">
        <ele>881.20001220703125</ele>
        <time>2014-05-19T09:39:17Z</time>
      </trkpt>
      <trkpt lat="44.908313462510705" lon="5.629576770588756">
        <ele>882.20001220703125</ele>
        <time>2014-05-19T09:39:22Z</time>
      </trkpt>
      <trkpt lat="44.908194607123733" lon="5.629396392032504">
        <ele>883.20001220703125</ele>
        <time>2014-05-19T09:39:30Z</time>
      </trkpt>
      <trkpt lat="44.908181112259626" lon="5.629374431446195">
        <ele>883.4000244140625</ele>
        <time>2014-05-19T09:39:31Z</time>
      </trkpt>
      <trkpt lat="44.908111374825239" lon="5.629234118387103">
        <ele>884.20001220703125</ele>
        <time>2014-05-19T09:39:37Z</time>
      </trkpt>
      <trkpt lat="44.908099807798862" lon="5.62921148724854">
        <ele>884.4000244140625</ele>
        <time>2014-05-19T09:39:38Z</time>
      </trkpt>
      <trkpt lat="44.908042140305042" lon="5.629104115068913">
        <ele>885.4000244140625</ele>
        <time>2014-05-19T09:39:43Z</time>
      </trkpt>
      <trkpt lat="44.907997464761138" lon="5.628992300480604">
        <ele>886.4000244140625</ele>
        <time>2014-05-19T09:39:48Z</time>
      </trkpt>
      <trkpt lat="44.907979024574161" lon="5.628946702927351">
        <ele>886.5999755859375</ele>
        <time>2014-05-19T09:39:50Z</time>
      </trkpt>
      <trkpt lat="44.907933594658971" lon="5.628826171159744">
        <ele>887.4000244140625</ele>
        <time>2014-05-19T09:39:55Z</time>
      </trkpt>
      <trkpt lat="44.907915154471993" lon="5.628777723759413">
        <ele>887.5999755859375</ele>
        <time>2014-05-19T09:39:57Z</time>
      </trkpt>
      <trkpt lat="44.907853966578841" lon="5.628596842288971">
        <ele>888.5999755859375</ele>
        <time>2014-05-19T09:40:04Z</time>
      </trkpt>
      <trkpt lat="44.907807111740112" lon="5.628431215882301">
        <ele>889.5999755859375</ele>
        <time>2014-05-19T09:40:10Z</time>
      </trkpt>
      <trkpt lat="44.90779722109437" lon="5.628372961655259">
        <ele>889.79998779296875</ele>
        <time>2014-05-19T09:40:12Z</time>
      </trkpt>
      <trkpt lat="44.907786408439279" lon="5.628207083791494">
        <ele>890.5999755859375</ele>
        <time>2014-05-19T09:40:18Z</time>
      </trkpt>
      <trkpt lat="44.90779185667634" lon="5.628097197040916">
        <ele>891.4000244140625</ele>
        <time>2014-05-19T09:40:22Z</time>
      </trkpt>
      <trkpt lat="44.907801160588861" lon="5.628018071874976">
        <ele>891.79998779296875</ele>
        <time>2014-05-19T09:40:25Z</time>
      </trkpt>
      <trkpt lat="44.907821780070662" lon="5.627931067720056">
        <ele>892.4000244140625</ele>
        <time>2014-05-19T09:40:28Z</time>
      </trkpt>
      <trkpt lat="44.90783678367734" lon="5.627873819321394">
        <ele>893</ele>
        <time>2014-05-19T09:40:30Z</time>
      </trkpt>
      <trkpt lat="44.907909035682678" lon="5.627694614231587">
        <ele>894</ele>
        <time>2014-05-19T09:40:37Z</time>
      </trkpt>
      <trkpt lat="44.908007103949785" lon="5.627495963126421">
        <ele>895</ele>
        <time>2014-05-19T09:40:45Z</time>
      </trkpt>
      <trkpt lat="44.908031327649951" lon="5.627448270097375">
        <ele>895.20001220703125</ele>
        <time>2014-05-19T09:40:47Z</time>
      </trkpt>
      <trkpt lat="44.908091090619564" lon="5.627275351434946">
        <ele>895.5999755859375</ele>
        <time>2014-05-19T09:40:53Z</time>
      </trkpt>
      <trkpt lat="44.908132832497358" lon="5.627061948180199">
        <ele>896</ele>
        <time>2014-05-19T09:41:00Z</time>
      </trkpt>
      <trkpt lat="44.908139118924737" lon="5.627003526315093">
        <ele>896.20001220703125</ele>
        <time>2014-05-19T09:41:02Z</time>
      </trkpt>
      <trkpt lat="44.908156050369143" lon="5.626821722835302">
        <ele>896.4000244140625</ele>
        <time>2014-05-19T09:41:07Z</time>
      </trkpt>
      <trkpt lat="44.908217824995518" lon="5.62663639895618">
        <ele>896.4000244140625</ele>
        <time>2014-05-19T09:41:11Z</time>
      </trkpt>
      <trkpt lat="44.908244479447603" lon="5.626586358994246">
        <ele>896.4000244140625</ele>
        <time>2014-05-19T09:41:12Z</time>
      </trkpt>
      <trkpt lat="44.908287562429905" lon="5.626326100900769">
        <ele>895.79998779296875</ele>
        <time>2014-05-19T09:41:16Z</time>
      </trkpt>
      <trkpt lat="44.908180190250278" lon="5.626101298257709">
        <ele>895.20001220703125</ele>
        <time>2014-05-19T09:41:20Z</time>
      </trkpt>
      <trkpt lat="44.908007523044944" lon="5.626046564429998">
        <ele>896.20001220703125</ele>
        <time>2014-05-19T09:41:24Z</time>
      </trkpt>
      <trkpt lat="44.907869808375835" lon="5.626170365139842">
        <ele>896.4000244140625</ele>
        <time>2014-05-19T09:41:28Z</time>
      </trkpt>
      <trkpt lat="44.907708708196878" lon="5.626362394541502">
        <ele>897</ele>
        <time>2014-05-19T09:41:33Z</time>
      </trkpt>
      <trkpt lat="44.907566886395216" lon="5.626398604363203">
        <ele>896.5999755859375</ele>
        <time>2014-05-19T09:41:36Z</time>
      </trkpt>
      <trkpt lat="44.907404948025942" lon="5.626413691788912">
        <ele>896.20001220703125</ele>
        <time>2014-05-19T09:41:39Z</time>
      </trkpt>
      <trkpt lat="44.907022397965193" lon="5.626372955739498">
        <ele>896.79998779296875</ele>
        <time>2014-05-19T09:41:46Z</time>
      </trkpt>
      <trkpt lat="44.906786195933819" lon="5.626305062323809">
        <ele>897.4000244140625</ele>
        <time>2014-05-19T09:41:51Z</time>
      </trkpt>
      <trkpt lat="44.906656444072723" lon="5.62625871039927">
        <ele>898.20001220703125</ele>
        <time>2014-05-19T09:41:54Z</time>
      </trkpt>
      <trkpt lat="44.906572373583913" lon="5.626221327111125">
        <ele>898.5999755859375</ele>
        <time>2014-05-19T09:41:56Z</time>
      </trkpt>
      <trkpt lat="44.906410267576575" lon="5.626132898032665">
        <ele>899</ele>
        <time>2014-05-19T09:42:00Z</time>
      </trkpt>
      <trkpt lat="44.906371459364891" lon="5.626112362369895">
        <ele>899</ele>
        <time>2014-05-19T09:42:01Z</time>
      </trkpt>
      <trkpt lat="44.906198289245367" lon="5.625983532518148">
        <ele>899.79998779296875</ele>
        <time>2014-05-19T09:42:06Z</time>
      </trkpt>
      <trkpt lat="44.906133497133851" lon="5.625928044319153">
        <ele>900.20001220703125</ele>
        <time>2014-05-19T09:42:08Z</time>
      </trkpt>
      <trkpt lat="44.906034590676427" lon="5.625844392925501">
        <ele>900.79998779296875</ele>
        <time>2014-05-19T09:42:11Z</time>
      </trkpt>
      <trkpt lat="44.905837280675769" lon="5.625655213370919">
        <ele>901.4000244140625</ele>
        <time>2014-05-19T09:42:18Z</time>
      </trkpt>
      <trkpt lat="44.905767710879445" lon="5.625573741272092">
        <ele>901.79998779296875</ele>
        <time>2014-05-19T09:42:21Z</time>
      </trkpt>
      <trkpt lat="44.905666625127196" lon="5.625460585579276">
        <ele>902</ele>
        <time>2014-05-19T09:42:26Z</time>
      </trkpt>
      <trkpt lat="44.905542153865099" lon="5.625290768221021">
        <ele>902.4000244140625</ele>
        <time>2014-05-19T09:43:24Z</time>
      </trkpt>
      <trkpt lat="44.905507117509842" lon="5.625249361619353">
        <ele>902</ele>
        <time>2014-05-19T09:43:26Z</time>
      </trkpt>
      <trkpt lat="44.905388010665774" lon="5.625052973628044">
        <ele>901.4000244140625</ele>
        <time>2014-05-19T09:43:31Z</time>
      </trkpt>
      <trkpt lat="44.9052968993783" lon="5.624887347221375">
        <ele>900.5999755859375</ele>
        <time>2014-05-19T09:43:34Z</time>
      </trkpt>
      <trkpt lat="44.905231855809689" lon="5.624755080789328">
        <ele>900</ele>
        <time>2014-05-19T09:43:36Z</time>
      </trkpt>
      <trkpt lat="44.905196148902178" lon="5.624686013907194">
        <ele>899.5999755859375</ele>
        <time>2014-05-19T09:43:37Z</time>
      </trkpt>
      <trkpt lat="44.905049800872803" lon="5.624343696981669">
        <ele>898</ele>
        <time>2014-05-19T09:43:41Z</time>
      </trkpt>
      <trkpt lat="44.90497830323875" lon="5.624147225171328">
        <ele>896.4000244140625</ele>
        <time>2014-05-19T09:43:43Z</time>
      </trkpt>
      <trkpt lat="44.904913762584329" lon="5.623934827744961">
        <ele>895.20001220703125</ele>
        <time>2014-05-19T09:43:45Z</time>
      </trkpt>
      <trkpt lat="44.904859364032745" lon="5.623705498874188">
        <ele>894.4000244140625</ele>
        <time>2014-05-19T09:43:47Z</time>
      </trkpt>
      <trkpt lat="44.904834805056453" lon="5.623584296554327">
        <ele>893.79998779296875</ele>
        <time>2014-05-19T09:43:48Z</time>
      </trkpt>
      <trkpt lat="44.90473254583776" lon="5.623066211119294">
        <ele>892.5999755859375</ele>
        <time>2014-05-19T09:43:52Z</time>
      </trkpt>
      <trkpt lat="44.90470614284277" lon="5.62293310649693">
        <ele>892</ele>
        <time>2014-05-19T09:43:53Z</time>
      </trkpt>
      <trkpt lat="44.904676973819733" lon="5.622799666598439">
        <ele>891.5999755859375</ele>
        <time>2014-05-19T09:43:54Z</time>
      </trkpt>
      <trkpt lat="44.904611427336931" lon="5.622530188411474">
        <ele>890.5999755859375</ele>
        <time>2014-05-19T09:43:56Z</time>
      </trkpt>
      <trkpt lat="44.904527608305216" lon="5.622260961681604">
        <ele>889.5999755859375</ele>
        <time>2014-05-19T09:43:58Z</time>
      </trkpt>
      <trkpt lat="44.904475389048457" lon="5.622130203992128">
        <ele>889</ele>
        <time>2014-05-19T09:43:59Z</time>
      </trkpt>
      <trkpt lat="44.904419062659144" lon="5.62200078740716">
        <ele>888.20001220703125</ele>
        <time>2014-05-19T09:44:00Z</time>
      </trkpt>
      <trkpt lat="44.904290651902556" lon="5.621747570112348">
        <ele>887.20001220703125</ele>
        <time>2014-05-19T09:44:02Z</time>
      </trkpt>
      <trkpt lat="44.904218148440123" lon="5.62162552960217">
        <ele>886.79998779296875</ele>
        <time>2014-05-19T09:44:03Z</time>
      </trkpt>
      <trkpt lat="44.903977587819099" lon="5.621279440820217">
        <ele>884.5999755859375</ele>
        <time>2014-05-19T09:44:06Z</time>
      </trkpt>
      <trkpt lat="44.903809195384383" lon="5.621048687025905">
        <ele>882.5999755859375</ele>
        <time>2014-05-19T09:44:08Z</time>
      </trkpt>
      <trkpt lat="44.903636025264859" lon="5.620807455852628">
        <ele>881.4000244140625</ele>
        <time>2014-05-19T09:44:10Z</time>
      </trkpt>
      <trkpt lat="44.903547596186399" lon="5.620687259361148">
        <ele>880.4000244140625</ele>
        <time>2014-05-19T09:44:11Z</time>
      </trkpt>
      <trkpt lat="44.903457826003432" lon="5.620565470308065">
        <ele>879.20001220703125</ele>
        <time>2014-05-19T09:44:12Z</time>
      </trkpt>
      <trkpt lat="44.903369061648846" lon="5.620444100350142">
        <ele>878.20001220703125</ele>
        <time>2014-05-19T09:44:13Z</time>
      </trkpt>
      <trkpt lat="44.903280297294259" lon="5.620323149487376">
        <ele>877.4000244140625</ele>
        <time>2014-05-19T09:44:14Z</time>
      </trkpt>
      <trkpt lat="44.903192790225148" lon="5.620202198624611">
        <ele>877</ele>
        <time>2014-05-19T09:44:15Z</time>
      </trkpt>
      <trkpt lat="44.903022469952703" lon="5.619964487850666">
        <ele>875.79998779296875</ele>
        <time>2014-05-19T09:44:17Z</time>
      </trkpt>
      <trkpt lat="44.902853406965733" lon="5.619731638580561">
        <ele>874.20001220703125</ele>
        <time>2014-05-19T09:44:19Z</time>
      </trkpt>
      <trkpt lat="44.902506899088621" lon="5.619257977232337">
        <ele>873.20001220703125</ele>
        <time>2014-05-19T09:44:23Z</time>
      </trkpt>
      <trkpt lat="44.902418302372098" lon="5.619138367474079">
        <ele>873</ele>
        <time>2014-05-19T09:44:24Z</time>
      </trkpt>
      <trkpt lat="44.902146309614182" lon="5.618780208751559">
        <ele>871.79998779296875</ele>
        <time>2014-05-19T09:44:27Z</time>
      </trkpt>
      <trkpt lat="44.901960901916027" lon="5.618543839082122">
        <ele>870.20001220703125</ele>
        <time>2014-05-19T09:44:29Z</time>
      </trkpt>
      <trkpt lat="44.901869287714362" lon="5.618423726409674">
        <ele>868.5999755859375</ele>
        <time>2014-05-19T09:44:30Z</time>
      </trkpt>
      <trkpt lat="44.901780020445585" lon="5.618297914043069">
        <ele>868</ele>
        <time>2014-05-19T09:44:31Z</time>
      </trkpt>
      <trkpt lat="44.901694357395172" lon="5.618167826905847">
        <ele>867.4000244140625</ele>
        <time>2014-05-19T09:44:32Z</time>
      </trkpt>
      <trkpt lat="44.901524120941758" lon="5.617904299870133">
        <ele>866.20001220703125</ele>
        <time>2014-05-19T09:44:34Z</time>
      </trkpt>
      <trkpt lat="44.901437787339091" lon="5.61777220107615">
        <ele>865</ele>
        <time>2014-05-19T09:44:35Z</time>
      </trkpt>
      <trkpt lat="44.90135463885963" lon="5.617634737864137">
        <ele>864</ele>
        <time>2014-05-19T09:44:36Z</time>
      </trkpt>
      <trkpt lat="44.901279453188181" lon="5.617488557472825">
        <ele>862.79998779296875</ele>
        <time>2014-05-19T09:44:37Z</time>
      </trkpt>
      <trkpt lat="44.901172081008554" lon="5.617166357114911">
        <ele>861.5999755859375</ele>
        <time>2014-05-19T09:44:39Z</time>
      </trkpt>
      <trkpt lat="44.901133105158806" lon="5.616995114833117">
        <ele>861.4000244140625</ele>
        <time>2014-05-19T09:44:40Z</time>
      </trkpt>
      <trkpt lat="44.900984158739448" lon="5.616503516212106">
        <ele>860.20001220703125</ele>
        <time>2014-05-19T09:44:43Z</time>
      </trkpt>
      <trkpt lat="44.900920623913407" lon="5.616350211203098">
        <ele>859.4000244140625</ele>
        <time>2014-05-19T09:44:44Z</time>
      </trkpt>
      <trkpt lat="44.900851137936115" lon="5.616201180964708">
        <ele>858.4000244140625</ele>
        <time>2014-05-19T09:44:45Z</time>
      </trkpt>
      <trkpt lat="44.900706214830279" lon="5.615907814353705">
        <ele>857.20001220703125</ele>
        <time>2014-05-19T09:44:47Z</time>
      </trkpt>
      <trkpt lat="44.900489374995232" lon="5.615474553778768">
        <ele>856.4000244140625</ele>
        <time>2014-05-19T09:44:50Z</time>
      </trkpt>
      <trkpt lat="44.90040278993547" lon="5.61534664593637">
        <ele>856</ele>
        <time>2014-05-19T09:44:51Z</time>
      </trkpt>
      <trkpt lat="44.900184273719788" lon="5.615171045064926">
        <ele>854.20001220703125</ele>
        <time>2014-05-19T09:44:53Z</time>
      </trkpt>
      <trkpt lat="44.900063071399927" lon="5.615116814151406">
        <ele>852.5999755859375</ele>
        <time>2014-05-19T09:44:54Z</time>
      </trkpt>
      <trkpt lat="44.899814212694764" lon="5.615049926564097">
        <ele>851.4000244140625</ele>
        <time>2014-05-19T09:44:56Z</time>
      </trkpt>
      <trkpt lat="44.89956334233284" lon="5.61502318829298">
        <ele>850.5999755859375</ele>
        <time>2014-05-19T09:44:58Z</time>
      </trkpt>
      <trkpt lat="44.899441888555884" lon="5.615012040361762">
        <ele>850.4000244140625</ele>
        <time>2014-05-19T09:44:59Z</time>
      </trkpt>
      <trkpt lat="44.899203088134527" lon="5.614986810833216">
        <ele>849.79998779296875</ele>
        <time>2014-05-19T09:45:01Z</time>
      </trkpt>
      <trkpt lat="44.898617947474122" lon="5.614923443645239">
        <ele>850</ele>
        <time>2014-05-19T09:45:06Z</time>
      </trkpt>
      <trkpt lat="44.898505210876465" lon="5.614911541342735">
        <ele>849</ele>
        <time>2014-05-19T09:45:07Z</time>
      </trkpt>
      <trkpt lat="44.898395407944918" lon="5.614901902154088">
        <ele>848.4000244140625</ele>
        <time>2014-05-19T09:45:08Z</time>
      </trkpt>
      <trkpt lat="44.898288622498512" lon="5.61489905230701">
        <ele>847.5999755859375</ele>
        <time>2014-05-19T09:45:09Z</time>
      </trkpt>
      <trkpt lat="44.897887632250786" lon="5.614944817498326">
        <ele>848.4000244140625</ele>
        <time>2014-05-19T09:45:13Z</time>
      </trkpt>
      <trkpt lat="44.897792749106884" lon="5.614965353161097">
        <ele>848.5999755859375</ele>
        <time>2014-05-19T09:45:14Z</time>
      </trkpt>
      <trkpt lat="44.89743584766984" lon="5.615111785009503">
        <ele>849.20001220703125</ele>
        <time>2014-05-19T09:45:18Z</time>
      </trkpt>
      <trkpt lat="44.896857915446162" lon="5.615387298166752">
        <ele>849</ele>
        <time>2014-05-19T09:45:25Z</time>
      </trkpt>
      <trkpt lat="44.896305715665221" lon="5.61561981216073">
        <ele>848.5999755859375</ele>
        <time>2014-05-19T09:45:32Z</time>
      </trkpt>
      <trkpt lat="44.896150315180421" lon="5.6156852748245">
        <ele>848.5999755859375</ele>
        <time>2014-05-19T09:45:34Z</time>
      </trkpt>
      <trkpt lat="44.895780505612493" lon="5.615864312276244">
        <ele>847.5999755859375</ele>
        <time>2014-05-19T09:45:39Z</time>
      </trkpt>
      <trkpt lat="44.895508931949735" lon="5.616054078564048">
        <ele>847.79998779296875</ele>
        <time>2014-05-19T09:45:43Z</time>
      </trkpt>
      <trkpt lat="44.895078269764781" lon="5.616446183994412">
        <ele>847.79998779296875</ele>
        <time>2014-05-19T09:45:50Z</time>
      </trkpt>
      <trkpt lat="44.894648110494018" lon="5.616867123171687">
        <ele>847.5999755859375</ele>
        <time>2014-05-19T09:45:57Z</time>
      </trkpt>
      <trkpt lat="44.894339237362146" lon="5.617168955504894">
        <ele>846.5999755859375</ele>
        <time>2014-05-19T09:46:02Z</time>
      </trkpt>
      <trkpt lat="44.894272433593869" lon="5.617228131741285">
        <ele>846.4000244140625</ele>
        <time>2014-05-19T09:46:03Z</time>
      </trkpt>
      <trkpt lat="44.893799526616931" lon="5.617577070370317">
        <ele>845.5999755859375</ele>
        <time>2014-05-19T09:46:10Z</time>
      </trkpt>
      <trkpt lat="44.89344765432179" lon="5.617748228833079">
        <ele>845.4000244140625</ele>
        <time>2014-05-19T09:46:15Z</time>
      </trkpt>
      <trkpt lat="44.893305078148842" lon="5.617798436433077">
        <ele>845.20001220703125</ele>
        <time>2014-05-19T09:46:17Z</time>
      </trkpt>
      <trkpt lat="44.892810378223658" lon="5.617893068119884">
        <ele>844.5999755859375</ele>
        <time>2014-05-19T09:46:24Z</time>
      </trkpt>
      <trkpt lat="44.892383236438036" lon="5.617869514971972">
        <ele>844.5999755859375</ele>
        <time>2014-05-19T09:46:30Z</time>
      </trkpt>
      <trkpt lat="44.89224317483604" lon="5.617838753387332">
        <ele>844.4000244140625</ele>
        <time>2014-05-19T09:46:32Z</time>
      </trkpt>
      <trkpt lat="44.891890380531549" lon="5.617721574380994">
        <ele>844.20001220703125</ele>
        <time>2014-05-19T09:46:37Z</time>
      </trkpt>
      <trkpt lat="44.891411354765296" lon="5.617461064830422">
        <ele>843.4000244140625</ele>
        <time>2014-05-19T09:46:44Z</time>
      </trkpt>
      <trkpt lat="44.891034420579672" lon="5.617139199748635">
        <ele>844.20001220703125</ele>
        <time>2014-05-19T09:46:50Z</time>
      </trkpt>
      <trkpt lat="44.890617001801729" lon="5.616610636934638">
        <ele>844.79998779296875</ele>
        <time>2014-05-19T09:46:58Z</time>
      </trkpt>
      <trkpt lat="44.890570482239127" lon="5.616541318595409">
        <ele>845.4000244140625</ele>
        <time>2014-05-19T09:46:59Z</time>
      </trkpt>
      <trkpt lat="44.890206456184387" lon="5.615977803245187">
        <ele>845.20001220703125</ele>
        <time>2014-05-19T09:47:07Z</time>
      </trkpt>
      <trkpt lat="44.890154823660851" lon="5.615912340581417">
        <ele>845</ele>
        <time>2014-05-19T09:47:08Z</time>
      </trkpt>
      <trkpt lat="44.889849806204438" lon="5.615638000890613">
        <ele>844.4000244140625</ele>
        <time>2014-05-19T09:47:13Z</time>
      </trkpt>
      <trkpt lat="44.88950539380312" lon="5.615458711981773">
        <ele>843</ele>
        <time>2014-05-19T09:47:18Z</time>
      </trkpt>
      <trkpt lat="44.889360889792442" lon="5.615402888506651">
        <ele>843.20001220703125</ele>
        <time>2014-05-19T09:47:20Z</time>
      </trkpt>
      <trkpt lat="44.888787399977446" lon="5.615219827741385">
        <ele>842.4000244140625</ele>
        <time>2014-05-19T09:47:28Z</time>
      </trkpt>
      <trkpt lat="44.888281216844916" lon="5.615056464448571">
        <ele>844</ele>
        <time>2014-05-19T09:47:36Z</time>
      </trkpt>
      <trkpt lat="44.888223968446255" lon="5.615036012604833">
        <ele>844.20001220703125</ele>
        <time>2014-05-19T09:47:37Z</time>
      </trkpt>
      <trkpt lat="44.887924483045936" lon="5.614938363432884">
        <ele>843.20001220703125</ele>
        <time>2014-05-19T09:47:42Z</time>
      </trkpt>
      <trkpt lat="44.887729352340102" lon="5.614906260743737">
        <ele>842.79998779296875</ele>
        <time>2014-05-19T09:47:45Z</time>
      </trkpt>
      <trkpt lat="44.887465238571167" lon="5.614916905760765">
        <ele>842</ele>
        <time>2014-05-19T09:47:49Z</time>
      </trkpt>
      <trkpt lat="44.887327440083027" lon="5.614955630153418">
        <ele>840.79998779296875</ele>
        <time>2014-05-19T09:47:51Z</time>
      </trkpt>
      <trkpt lat="44.887178242206573" lon="5.615009609609842">
        <ele>839.79998779296875</ele>
        <time>2014-05-19T09:47:53Z</time>
      </trkpt>
      <trkpt lat="44.887024099007249" lon="5.615087728947401">
        <ele>838.4000244140625</ele>
        <time>2014-05-19T09:47:55Z</time>
      </trkpt>
      <trkpt lat="44.886870793998241" lon="5.615179762244225">
        <ele>837.79998779296875</ele>
        <time>2014-05-19T09:47:57Z</time>
      </trkpt>
      <trkpt lat="44.886726457625628" lon="5.615291241556406">
        <ele>837.4000244140625</ele>
        <time>2014-05-19T09:47:59Z</time>
      </trkpt>
      <trkpt lat="44.886533506214619" lon="5.615491317585111">
        <ele>837.4000244140625</ele>
        <time>2014-05-19T09:48:02Z</time>
      </trkpt>
      <trkpt lat="44.886102844029665" lon="5.616013007238507">
        <ele>837</ele>
        <time>2014-05-19T09:48:09Z</time>
      </trkpt>
      <trkpt lat="44.886040398851037" lon="5.616087689995766">
        <ele>837</ele>
        <time>2014-05-19T09:48:10Z</time>
      </trkpt>
      <trkpt lat="44.885618286207318" lon="5.616608206182718">
        <ele>836.5999755859375</ele>
        <time>2014-05-19T09:48:17Z</time>
      </trkpt>
      <trkpt lat="44.885557601228356" lon="5.616681044921279">
        <ele>836.4000244140625</ele>
        <time>2014-05-19T09:48:18Z</time>
      </trkpt>
      <trkpt lat="44.885322656482458" lon="5.616968376561999">
        <ele>836.20001220703125</ele>
        <time>2014-05-19T09:48:22Z</time>
      </trkpt>
      <trkpt lat="44.885090477764606" lon="5.617246739566326">
        <ele>835.5999755859375</ele>
        <time>2014-05-19T09:48:26Z</time>
      </trkpt>
      <trkpt lat="44.88503054715693" lon="5.617316644638777">
        <ele>835.20001220703125</ele>
        <time>2014-05-19T09:48:27Z</time>
      </trkpt>
      <trkpt lat="44.884624863043427" lon="5.617797682061791">
        <ele>834.79998779296875</ele>
        <time>2014-05-19T09:48:34Z</time>
      </trkpt>
      <trkpt lat="44.884257568046451" lon="5.618156678974628">
        <ele>835</ele>
        <time>2014-05-19T09:48:40Z</time>
      </trkpt>
      <trkpt lat="44.883858673274517" lon="5.618422469124198">
        <ele>835</ele>
        <time>2014-05-19T09:48:46Z</time>
      </trkpt>
      <trkpt lat="44.883295744657516" lon="5.61871231533587">
        <ele>834.20001220703125</ele>
        <time>2014-05-19T09:48:54Z</time>
      </trkpt>
      <trkpt lat="44.88322508521378" lon="5.618752213194966">
        <ele>834.20001220703125</ele>
        <time>2014-05-19T09:48:55Z</time>
      </trkpt>
      <trkpt lat="44.88270565867424" lon="5.618967125192285">
        <ele>833.4000244140625</ele>
        <time>2014-05-19T09:49:02Z</time>
      </trkpt>
      <trkpt lat="44.882627204060555" lon="5.618990762159228">
        <ele>833.20001220703125</ele>
        <time>2014-05-19T09:49:03Z</time>
      </trkpt>
      <trkpt lat="44.882155386731029" lon="5.619146078824997">
        <ele>832</ele>
        <time>2014-05-19T09:49:09Z</time>
      </trkpt>
      <trkpt lat="44.881928404793143" lon="5.619219252839685">
        <ele>832</ele>
        <time>2014-05-19T09:49:12Z</time>
      </trkpt>
      <trkpt lat="44.881640654057264" lon="5.619320757687092">
        <ele>833</ele>
        <time>2014-05-19T09:49:16Z</time>
      </trkpt>
      <trkpt lat="44.88144988194108" lon="5.619421089068055">
        <ele>834.20001220703125</ele>
        <time>2014-05-19T09:49:19Z</time>
      </trkpt>
      <trkpt lat="44.881104128435254" lon="5.619682520627976">
        <ele>833.79998779296875</ele>
        <time>2014-05-19T09:49:25Z</time>
      </trkpt>
      <trkpt lat="44.880721494555473" lon="5.620057107880712">
        <ele>835</ele>
        <time>2014-05-19T09:49:33Z</time>
      </trkpt>
      <trkpt lat="44.88063633441925" lon="5.620156684890389">
        <ele>835.4000244140625</ele>
        <time>2014-05-19T09:49:35Z</time>
      </trkpt>
      <trkpt lat="44.880411364138126" lon="5.620461702346802">
        <ele>836</ele>
        <time>2014-05-19T09:49:41Z</time>
      </trkpt>
      <trkpt lat="44.880341961979866" lon="5.62057108618319">
        <ele>836.5999755859375</ele>
        <time>2014-05-19T09:49:43Z</time>
      </trkpt>
      <trkpt lat="44.880060413852334" lon="5.621029073372483">
        <ele>837.4000244140625</ele>
        <time>2014-05-19T09:49:51Z</time>
      </trkpt>
      <trkpt lat="44.880027389153838" lon="5.621083974838257">
        <ele>837.5999755859375</ele>
        <time>2014-05-19T09:49:52Z</time>
      </trkpt>
      <trkpt lat="44.879791103303432" lon="5.621490245684981">
        <ele>838.4000244140625</ele>
        <time>2014-05-19T09:49:59Z</time>
      </trkpt>
      <trkpt lat="44.879758413881063" lon="5.621545063331723">
        <ele>838.79998779296875</ele>
        <time>2014-05-19T09:50:00Z</time>
      </trkpt>
      <trkpt lat="44.879505028948188" lon="5.621978407725692">
        <ele>839.4000244140625</ele>
        <time>2014-05-19T09:50:08Z</time>
      </trkpt>
      <trkpt lat="44.879441577941179" lon="5.622080834582448">
        <ele>839.79998779296875</ele>
        <time>2014-05-19T09:50:10Z</time>
      </trkpt>
      <trkpt lat="44.879291290417314" lon="5.622332207858563">
        <ele>840.20001220703125</ele>
        <time>2014-05-19T09:50:15Z</time>
      </trkpt>
      <trkpt lat="44.879137231037021" lon="5.622586430981755">
        <ele>841</ele>
        <time>2014-05-19T09:50:20Z</time>
      </trkpt>
      <trkpt lat="44.87907805480063" lon="5.622685337439179">
        <ele>841.20001220703125</ele>
        <time>2014-05-19T09:50:22Z</time>
      </trkpt>
      <trkpt lat="44.87896615639329" lon="5.622863285243511">
        <ele>842</ele>
        <time>2014-05-19T09:50:26Z</time>
      </trkpt>
      <trkpt lat="44.878798518329859" lon="5.62313879840076">
        <ele>843.20001220703125</ele>
        <time>2014-05-19T09:50:32Z</time>
      </trkpt>
      <trkpt lat="44.878771528601646" lon="5.623184815049171">
        <ele>843.20001220703125</ele>
        <time>2014-05-19T09:50:33Z</time>
      </trkpt>
      <trkpt lat="44.878572123125196" lon="5.623495364561677">
        <ele>844.20001220703125</ele>
        <time>2014-05-19T09:50:40Z</time>
      </trkpt>
      <trkpt lat="44.878545887768269" lon="5.623537860810757">
        <ele>844.20001220703125</ele>
        <time>2014-05-19T09:50:41Z</time>
      </trkpt>
      <trkpt lat="44.878383865579963" lon="5.623834412544966">
        <ele>845.20001220703125</ele>
        <time>2014-05-19T09:50:48Z</time>
      </trkpt>
      <trkpt lat="44.878240535035729" lon="5.624068267643452">
        <ele>846</ele>
        <time>2014-05-19T09:50:54Z</time>
      </trkpt>
      <trkpt lat="44.878196613863111" lon="5.624134065583348">
        <ele>846.4000244140625</ele>
        <time>2014-05-19T09:50:56Z</time>
      </trkpt>
      <trkpt lat="44.87808471545577" lon="5.624298937618733">
        <ele>846.79998779296875</ele>
        <time>2014-05-19T09:51:01Z</time>
      </trkpt>
      <trkpt lat="44.877996789291501" lon="5.624418715015054">
        <ele>847.5999755859375</ele>
        <time>2014-05-19T09:51:05Z</time>
      </trkpt>
      <trkpt lat="44.877952113747597" lon="5.624475879594684">
        <ele>847.79998779296875</ele>
        <time>2014-05-19T09:51:07Z</time>
      </trkpt>
      <trkpt lat="44.877784727141261" lon="5.624657347798348">
        <ele>848.5999755859375</ele>
        <time>2014-05-19T09:51:14Z</time>
      </trkpt>
      <trkpt lat="44.877759497612715" lon="5.624682828783989">
        <ele>848.79998779296875</ele>
        <time>2014-05-19T09:51:15Z</time>
      </trkpt>
      <trkpt lat="44.877454731613398" lon="5.624927412718535">
        <ele>849.4000244140625</ele>
        <time>2014-05-19T09:51:25Z</time>
      </trkpt>
      <trkpt lat="44.877352053299546" lon="5.624996060505509">
        <ele>849.79998779296875</ele>
        <time>2014-05-19T09:51:28Z</time>
      </trkpt>
      <trkpt lat="44.877214590087533" lon="5.625080969184637">
        <ele>850</ele>
        <time>2014-05-19T09:51:32Z</time>
      </trkpt>
      <trkpt lat="44.876913009211421" lon="5.625224635004997">
        <ele>849.4000244140625</ele>
        <time>2014-05-19T09:51:40Z</time>
      </trkpt>
      <trkpt lat="44.876651577651501" lon="5.625323625281453">
        <ele>849.4000244140625</ele>
        <time>2014-05-19T09:51:46Z</time>
      </trkpt>
      <trkpt lat="44.876296939328313" lon="5.625408366322517">
        <ele>848.79998779296875</ele>
        <time>2014-05-19T09:51:53Z</time>
      </trkpt>
      <trkpt lat="44.876239188015461" lon="5.625415155664086">
        <ele>848.79998779296875</ele>
        <time>2014-05-19T09:51:54Z</time>
      </trkpt>
      <trkpt lat="44.875862840563059" lon="5.625415574759245">
        <ele>847.5999755859375</ele>
        <time>2014-05-19T09:52:00Z</time>
      </trkpt>
      <trkpt lat="44.875598307698965" lon="5.625372491776943">
        <ele>846.4000244140625</ele>
        <time>2014-05-19T09:52:04Z</time>
      </trkpt>
      <trkpt lat="44.875533934682608" lon="5.625352878123522">
        <ele>846</ele>
        <time>2014-05-19T09:52:05Z</time>
      </trkpt>
      <trkpt lat="44.875403260812163" lon="5.625309627503157">
        <ele>845.79998779296875</ele>
        <time>2014-05-19T09:52:07Z</time>
      </trkpt>
      <trkpt lat="44.875062452629209" lon="5.625159172341228">
        <ele>845.20001220703125</ele>
        <time>2014-05-19T09:52:12Z</time>
      </trkpt>
      <trkpt lat="44.874848797917366" lon="5.625057918950915">
        <ele>844.79998779296875</ele>
        <time>2014-05-19T09:52:15Z</time>
      </trkpt>
      <trkpt lat="44.874426601454616" lon="5.624823644757271">
        <ele>844.20001220703125</ele>
        <time>2014-05-19T09:52:21Z</time>
      </trkpt>
      <trkpt lat="44.873987892642617" lon="5.624519381672144">
        <ele>844</ele>
        <time>2014-05-19T09:52:28Z</time>
      </trkpt>
      <trkpt lat="44.87357759848237" lon="5.62418251298368">
        <ele>845.4000244140625</ele>
        <time>2014-05-19T09:52:36Z</time>
      </trkpt>
      <trkpt lat="44.873333098366857" lon="5.623943796381354">
        <ele>846.4000244140625</ele>
        <time>2014-05-19T09:52:42Z</time>
      </trkpt>
      <trkpt lat="44.873259421437979" lon="5.623866263777018">
        <ele>846.5999755859375</ele>
        <time>2014-05-19T09:52:44Z</time>
      </trkpt>
      <trkpt lat="44.873150205239654" lon="5.623758472502232">
        <ele>847.4000244140625</ele>
        <time>2014-05-19T09:52:47Z</time>
      </trkpt>
      <trkpt lat="44.873024979606271" lon="5.623625535517931">
        <ele>847.79998779296875</ele>
        <time>2014-05-19T09:52:51Z</time>
      </trkpt>
      <trkpt lat="44.872934203594923" lon="5.623530484735966">
        <ele>848.79998779296875</ele>
        <time>2014-05-19T09:52:54Z</time>
      </trkpt>
      <trkpt lat="44.872765643522143" lon="5.623336192220449">
        <ele>849.20001220703125</ele>
        <time>2014-05-19T09:53:00Z</time>
      </trkpt>
      <trkpt lat="44.872569255530834" lon="5.623102588579059">
        <ele>849.79998779296875</ele>
        <time>2014-05-19T09:53:07Z</time>
      </trkpt>
      <trkpt lat="44.87254117615521" lon="5.623064618557692">
        <ele>850</ele>
        <time>2014-05-19T09:53:08Z</time>
      </trkpt>
      <trkpt lat="44.872286869212985" lon="5.622751386836171">
        <ele>850</ele>
        <time>2014-05-19T09:53:16Z</time>
      </trkpt>
      <trkpt lat="44.87198855727911" lon="5.622386354953051">
        <ele>850.79998779296875</ele>
        <time>2014-05-19T09:53:25Z</time>
      </trkpt>
      <trkpt lat="44.871685216203332" lon="5.622009253129363">
        <ele>850.4000244140625</ele>
        <time>2014-05-19T09:53:33Z</time>
      </trkpt>
      <trkpt lat="44.871423281729221" lon="5.621697530150414">
        <ele>850.20001220703125</ele>
        <time>2014-05-19T09:53:39Z</time>
      </trkpt>
      <trkpt lat="44.871067050844431" lon="5.621268460527062">
        <ele>849</ele>
        <time>2014-05-19T09:53:46Z</time>
      </trkpt>
      <trkpt lat="44.870950793847442" lon="5.621124543249607">
        <ele>848.79998779296875</ele>
        <time>2014-05-19T09:53:48Z</time>
      </trkpt>
      <trkpt lat="44.870761781930923" lon="5.62090577557683">
        <ele>847.5999755859375</ele>
        <time>2014-05-19T09:53:51Z</time>
      </trkpt>
      <trkpt lat="44.870633874088526" lon="5.620752889662981">
        <ele>847.20001220703125</ele>
        <time>2014-05-19T09:53:53Z</time>
      </trkpt>
      <trkpt lat="44.870502529665828" lon="5.620595645159483">
        <ele>846.4000244140625</ele>
        <time>2014-05-19T09:53:55Z</time>
      </trkpt>
      <trkpt lat="44.870158368721604" lon="5.620187446475029">
        <ele>845.4000244140625</ele>
        <time>2014-05-19T09:54:00Z</time>
      </trkpt>
      <trkpt lat="44.869948485866189" lon="5.619928948581219">
        <ele>844.79998779296875</ele>
        <time>2014-05-19T09:54:03Z</time>
      </trkpt>
      <trkpt lat="44.869808424264193" lon="5.619757622480393">
        <ele>844.20001220703125</ele>
        <time>2014-05-19T09:54:05Z</time>
      </trkpt>
      <trkpt lat="44.869668027386069" lon="5.619585625827313">
        <ele>843</ele>
        <time>2014-05-19T09:54:07Z</time>
      </trkpt>
      <trkpt lat="44.869327303022146" lon="5.619171811267734">
        <ele>842.20001220703125</ele>
        <time>2014-05-19T09:54:12Z</time>
      </trkpt>
      <trkpt lat="44.869198808446527" lon="5.619013393297792">
        <ele>842</ele>
        <time>2014-05-19T09:54:14Z</time>
      </trkpt>
      <trkpt lat="44.868830759078264" lon="5.618564710021019">
        <ele>842.20001220703125</ele>
        <time>2014-05-19T09:54:20Z</time>
      </trkpt>
      <trkpt lat="44.868415854871273" lon="5.618055006489158">
        <ele>842.5999755859375</ele>
        <time>2014-05-19T09:54:27Z</time>
      </trkpt>
      <trkpt lat="44.868295406922698" lon="5.617910251021385">
        <ele>842.4000244140625</ele>
        <time>2014-05-19T09:54:29Z</time>
      </trkpt>
      <trkpt lat="44.867885364219546" lon="5.617387052625418">
        <ele>841.79998779296875</ele>
        <time>2014-05-19T09:54:36Z</time>
      </trkpt>
      <trkpt lat="44.867784781381488" lon="5.617227293550968">
        <ele>841.5999755859375</ele>
        <time>2014-05-19T09:54:38Z</time>
      </trkpt>
      <trkpt lat="44.867531061172485" lon="5.616759164258838">
        <ele>843</ele>
        <time>2014-05-19T09:54:44Z</time>
      </trkpt>
      <trkpt lat="44.867499712854624" lon="5.616682386025786">
        <ele>843.4000244140625</ele>
        <time>2014-05-19T09:54:45Z</time>
      </trkpt>
      <trkpt lat="44.867420755326748" lon="5.616464372724295">
        <ele>844.4000244140625</ele>
        <time>2014-05-19T09:54:48Z</time>
      </trkpt>
      <trkpt lat="44.867377337068319" lon="5.616332776844502">
        <ele>845</ele>
        <time>2014-05-19T09:54:50Z</time>
      </trkpt>
      <trkpt lat="44.867325201630592" lon="5.616151308640838">
        <ele>845.5999755859375</ele>
        <time>2014-05-19T09:54:53Z</time>
      </trkpt>
      <trkpt lat="44.867286728695035" lon="5.615984592586756">
        <ele>846.79998779296875</ele>
        <time>2014-05-19T09:54:56Z</time>
      </trkpt>
      <trkpt lat="44.86726451665163" lon="5.615693489089608">
        <ele>847.5999755859375</ele>
        <time>2014-05-19T09:55:02Z</time>
      </trkpt>
      <trkpt lat="44.867257811129093" lon="5.615652669221163">
        <ele>847.79998779296875</ele>
        <time>2014-05-19T09:55:03Z</time>
      </trkpt>
      <trkpt lat="44.86724104732275" lon="5.615536663681269">
        <ele>848.4000244140625</ele>
        <time>2014-05-19T09:55:07Z</time>
      </trkpt>
      <trkpt lat="44.867227217182517" lon="5.615490395575762">
        <ele>848.4000244140625</ele>
        <time>2014-05-19T09:56:00Z</time>
      </trkpt>
      <trkpt lat="44.867220344021916" lon="5.615472542122006">
        <ele>848.5999755859375</ele>
        <time>2014-05-19T09:56:01Z</time>
      </trkpt>
      <trkpt lat="44.867211291566491" lon="5.615397859364748">
        <ele>848.79998779296875</ele>
        <time>2014-05-19T09:56:04Z</time>
      </trkpt>
      <trkpt lat="44.867199137806892" lon="5.61529777944088">
        <ele>849.20001220703125</ele>
        <time>2014-05-19T09:56:07Z</time>
      </trkpt>
      <trkpt lat="44.867197964340448" lon="5.615021847188473">
        <ele>849.5999755859375</ele>
        <time>2014-05-19T09:56:13Z</time>
      </trkpt>
      <trkpt lat="44.867218835279346" lon="5.614568637683988">
        <ele>849.79998779296875</ele>
        <time>2014-05-19T09:56:22Z</time>
      </trkpt>
      <trkpt lat="44.867260325700045" lon="5.614204360172153">
        <ele>849.4000244140625</ele>
        <time>2014-05-19T09:56:28Z</time>
      </trkpt>
      <trkpt lat="44.867285052314401" lon="5.614005792886019">
        <ele>849</ele>
        <time>2014-05-19T09:56:31Z</time>
      </trkpt>
      <trkpt lat="44.867334589362144" lon="5.613793479278684">
        <ele>848.4000244140625</ele>
        <time>2014-05-19T09:56:34Z</time>
      </trkpt>
      <trkpt lat="44.867438608780503" lon="5.61347228474915">
        <ele>847.79998779296875</ele>
        <time>2014-05-19T09:56:38Z</time>
      </trkpt>
      <trkpt lat="44.867472723126411" lon="5.613387124612927">
        <ele>847.20001220703125</ele>
        <time>2014-05-19T09:56:39Z</time>
      </trkpt>
      <trkpt lat="44.867545897141099" lon="5.613205740228295">
        <ele>846</ele>
        <time>2014-05-19T09:56:41Z</time>
      </trkpt>
      <trkpt lat="44.867655951529741" lon="5.612911703065038">
        <ele>844.5999755859375</ele>
        <time>2014-05-19T09:56:44Z</time>
      </trkpt>
      <trkpt lat="44.867695849388838" lon="5.612805588170886">
        <ele>843.79998779296875</ele>
        <time>2014-05-19T09:56:45Z</time>
      </trkpt>
      <trkpt lat="44.867732729762793" lon="5.612696120515466">
        <ele>843.20001220703125</ele>
        <time>2014-05-19T09:56:46Z</time>
      </trkpt>
      <trkpt lat="44.867798443883657" lon="5.612457823008299">
        <ele>842.20001220703125</ele>
        <time>2014-05-19T09:56:48Z</time>
      </trkpt>
      <trkpt lat="44.867854015901685" lon="5.612201672047377">
        <ele>840.5999755859375</ele>
        <time>2014-05-19T09:56:50Z</time>
      </trkpt>
      <trkpt lat="44.867890058085322" lon="5.611926075071096">
        <ele>839.4000244140625</ele>
        <time>2014-05-19T09:56:52Z</time>
      </trkpt>
      <trkpt lat="44.867900451645255" lon="5.611630529165268">
        <ele>837.5999755859375</ele>
        <time>2014-05-19T09:56:54Z</time>
      </trkpt>
      <trkpt lat="44.867896931245923" lon="5.611476637423039">
        <ele>835.79998779296875</ele>
        <time>2014-05-19T09:56:55Z</time>
      </trkpt>
      <trkpt lat="44.867870612069964" lon="5.61115519143641">
        <ele>834</ele>
        <time>2014-05-19T09:56:57Z</time>
      </trkpt>
      <trkpt lat="44.867846304550767" lon="5.610993336886168">
        <ele>833.4000244140625</ele>
        <time>2014-05-19T09:56:58Z</time>
      </trkpt>
      <trkpt lat="44.867815291509032" lon="5.610832404345274">
        <ele>832.5999755859375</ele>
        <time>2014-05-19T09:56:59Z</time>
      </trkpt>
      <trkpt lat="44.867736417800188" lon="5.610525207594037">
        <ele>830.5999755859375</ele>
        <time>2014-05-19T09:57:01Z</time>
      </trkpt>
      <trkpt lat="44.867688808590174" lon="5.610371986404061">
        <ele>829.79998779296875</ele>
        <time>2014-05-19T09:57:02Z</time>
      </trkpt>
      <trkpt lat="44.867638936266303" lon="5.610215831547976">
        <ele>829</ele>
        <time>2014-05-19T09:57:03Z</time>
      </trkpt>
      <trkpt lat="44.867498371750116" lon="5.609723310917616">
        <ele>827</ele>
        <time>2014-05-19T09:57:06Z</time>
      </trkpt>
      <trkpt lat="44.867464257404208" lon="5.609548799693584">
        <ele>825.5999755859375</ele>
        <time>2014-05-19T09:57:07Z</time>
      </trkpt>
      <trkpt lat="44.867438860237598" lon="5.60936925932765">
        <ele>824.20001220703125</ele>
        <time>2014-05-19T09:57:08Z</time>
      </trkpt>
      <trkpt lat="44.867417989298701" lon="5.608998779207468">
        <ele>823.20001220703125</ele>
        <time>2014-05-19T09:57:10Z</time>
      </trkpt>
      <trkpt lat="44.867421425879002" lon="5.608813874423504">
        <ele>822.4000244140625</ele>
        <time>2014-05-19T09:57:11Z</time>
      </trkpt>
      <trkpt lat="44.867435339838266" lon="5.608629388734698">
        <ele>821.5999755859375</ele>
        <time>2014-05-19T09:57:12Z</time>
      </trkpt>
      <trkpt lat="44.867463251575828" lon="5.608446747064591">
        <ele>820.79998779296875</ele>
        <time>2014-05-19T09:57:13Z</time>
      </trkpt>
      <trkpt lat="44.867497785016894" lon="5.608265195041895">
        <ele>820.20001220703125</ele>
        <time>2014-05-19T09:57:14Z</time>
      </trkpt>
      <trkpt lat="44.867569701746106" lon="5.607896475121379">
        <ele>818.5999755859375</ele>
        <time>2014-05-19T09:57:16Z</time>
      </trkpt>
      <trkpt lat="44.867642456665635" lon="5.607518116012216">
        <ele>817.5999755859375</ele>
        <time>2014-05-19T09:57:18Z</time>
      </trkpt>
      <trkpt lat="44.867672380059958" lon="5.60732482932508">
        <ele>815.5999755859375</ele>
        <time>2014-05-19T09:57:19Z</time>
      </trkpt>
      <trkpt lat="44.867693753913045" lon="5.607129782438278">
        <ele>814.5999755859375</ele>
        <time>2014-05-19T09:57:20Z</time>
      </trkpt>
      <trkpt lat="44.867710433900356" lon="5.606741365045309">
        <ele>813</ele>
        <time>2014-05-19T09:57:22Z</time>
      </trkpt>
      <trkpt lat="44.867683611810207" lon="5.606371806934476">
        <ele>812.20001220703125</ele>
        <time>2014-05-19T09:57:24Z</time>
      </trkpt>
      <trkpt lat="44.867655029520392" lon="5.606198133900762">
        <ele>812</ele>
        <time>2014-05-19T09:57:25Z</time>
      </trkpt>
      <trkpt lat="44.86757330596447" lon="5.605872245505452">
        <ele>812.4000244140625</ele>
        <time>2014-05-19T09:57:27Z</time>
      </trkpt>
      <trkpt lat="44.867343474179506" lon="5.605257013812661">
        <ele>812</ele>
        <time>2014-05-19T09:57:31Z</time>
      </trkpt>
      <trkpt lat="44.86728304065764" lon="5.605103960260749">
        <ele>810.5999755859375</ele>
        <time>2014-05-19T09:57:32Z</time>
      </trkpt>
      <trkpt lat="44.867222020402551" lon="5.604947134852409">
        <ele>809.5999755859375</ele>
        <time>2014-05-19T09:57:33Z</time>
      </trkpt>
      <trkpt lat="44.867162508890033" lon="5.60479081235826">
        <ele>808.5999755859375</ele>
        <time>2014-05-19T09:57:34Z</time>
      </trkpt>
      <trkpt lat="44.867053460329771" lon="5.604467773810029">
        <ele>807.20001220703125</ele>
        <time>2014-05-19T09:57:36Z</time>
      </trkpt>
      <trkpt lat="44.8669708147645" lon="5.604123445227742">
        <ele>806</ele>
        <time>2014-05-19T09:57:38Z</time>
      </trkpt>
      <trkpt lat="44.86691121943295" lon="5.603756653144956">
        <ele>804.5999755859375</ele>
        <time>2014-05-19T09:57:40Z</time>
      </trkpt>
      <trkpt lat="44.866892863065004" lon="5.603569569066167">
        <ele>802.79998779296875</ele>
        <time>2014-05-19T09:57:41Z</time>
      </trkpt>
      <trkpt lat="44.866884229704738" lon="5.603380473330617">
        <ele>801</ele>
        <time>2014-05-19T09:57:42Z</time>
      </trkpt>
      <trkpt lat="44.866883810609579" lon="5.60319104231894">
        <ele>797.79998779296875</ele>
        <time>2014-05-19T09:57:43Z</time>
      </trkpt>
      <trkpt lat="44.866891102865338" lon="5.602819891646504">
        <ele>796.5999755859375</ele>
        <time>2014-05-19T09:57:45Z</time>
      </trkpt>
      <trkpt lat="44.866901580244303" lon="5.602452429011464">
        <ele>796.20001220703125</ele>
        <time>2014-05-19T09:57:47Z</time>
      </trkpt>
      <trkpt lat="44.866922786459327" lon="5.601910455152392">
        <ele>794.79998779296875</ele>
        <time>2014-05-19T09:57:50Z</time>
      </trkpt>
      <trkpt lat="44.866927480325103" lon="5.601540394127369">
        <ele>793.79998779296875</ele>
        <time>2014-05-19T09:57:52Z</time>
      </trkpt>
      <trkpt lat="44.86689898185432" lon="5.601166225969791">
        <ele>793</ele>
        <time>2014-05-19T09:57:54Z</time>
      </trkpt>
      <trkpt lat="44.866873668506742" lon="5.600978387519717">
        <ele>792.4000244140625</ele>
        <time>2014-05-19T09:57:55Z</time>
      </trkpt>
      <trkpt lat="44.866844248026609" lon="5.600789962336421">
        <ele>791.20001220703125</ele>
        <time>2014-05-19T09:57:56Z</time>
      </trkpt>
      <trkpt lat="44.866804769262671" lon="5.600608997046948">
        <ele>789.79998779296875</ele>
        <time>2014-05-19T09:57:57Z</time>
      </trkpt>
      <trkpt lat="44.866758165881038" lon="5.600428115576506">
        <ele>788.5999755859375</ele>
        <time>2014-05-19T09:57:58Z</time>
      </trkpt>
      <trkpt lat="44.866655822843313" lon="5.600078674033284">
        <ele>787</ele>
        <time>2014-05-19T09:58:00Z</time>
      </trkpt>
      <trkpt lat="44.866522299125791" lon="5.599747840315104">
        <ele>785.5999755859375</ele>
        <time>2014-05-19T09:58:02Z</time>
      </trkpt>
      <trkpt lat="44.86644359305501" lon="5.599588667973876">
        <ele>784.5999755859375</ele>
        <time>2014-05-19T09:58:03Z</time>
      </trkpt>
      <trkpt lat="44.866358768194914" lon="5.599435530602932">
        <ele>783.79998779296875</ele>
        <time>2014-05-19T09:58:04Z</time>
      </trkpt>
      <trkpt lat="44.866267321631312" lon="5.599290439859033">
        <ele>782.79998779296875</ele>
        <time>2014-05-19T09:58:05Z</time>
      </trkpt>
      <trkpt lat="44.866169085726142" lon="5.599156999960542">
        <ele>781.79998779296875</ele>
        <time>2014-05-19T09:58:06Z</time>
      </trkpt>
      <trkpt lat="44.8660659044981" lon="5.599028170108795">
        <ele>780.5999755859375</ele>
        <time>2014-05-19T09:58:07Z</time>
      </trkpt>
      <trkpt lat="44.865956772118807" lon="5.598905039951205">
        <ele>778.79998779296875</ele>
        <time>2014-05-19T09:58:08Z</time>
      </trkpt>
      <trkpt lat="44.865605235099792" lon="5.598586527630687">
        <ele>776.79998779296875</ele>
        <time>2014-05-19T09:58:11Z</time>
      </trkpt>
      <trkpt lat="44.865491408854723" lon="5.598543779924512">
        <ele>775.4000244140625</ele>
        <time>2014-05-19T09:58:12Z</time>
      </trkpt>
      <trkpt lat="44.865370960906148" lon="5.598486112430692">
        <ele>774.20001220703125</ele>
        <time>2014-05-19T09:58:13Z</time>
      </trkpt>
      <trkpt lat="44.86512428149581" lon="5.59840195812285">
        <ele>773.20001220703125</ele>
        <time>2014-05-19T09:58:15Z</time>
      </trkpt>
      <trkpt lat="44.86476318910718" lon="5.598415872082114">
        <ele>772</ele>
        <time>2014-05-19T09:58:18Z</time>
      </trkpt>
      <trkpt lat="44.864642824977636" lon="5.598421152681112">
        <ele>771.79998779296875</ele>
        <time>2014-05-19T09:58:19Z</time>
      </trkpt>
      <trkpt lat="44.864216102287173" lon="5.598503965884447">
        <ele>772.5999755859375</ele>
        <time>2014-05-19T09:58:23Z</time>
      </trkpt>
      <trkpt lat="44.864123817533255" lon="5.598534643650055">
        <ele>773.4000244140625</ele>
        <time>2014-05-19T09:58:24Z</time>
      </trkpt>
      <trkpt lat="44.864039327949286" lon="5.59856959618628">
        <ele>774.4000244140625</ele>
        <time>2014-05-19T09:58:25Z</time>
      </trkpt>
      <trkpt lat="44.863963555544615" lon="5.598605470731854">
        <ele>775.4000244140625</ele>
        <time>2014-05-19T09:58:26Z</time>
      </trkpt>
      <trkpt lat="44.863887950778008" lon="5.598638243973255">
        <ele>776.4000244140625</ele>
        <time>2014-05-19T09:58:27Z</time>
      </trkpt>
      <trkpt lat="44.863744033500552" lon="5.598703203722835">
        <ele>778.20001220703125</ele>
        <time>2014-05-19T09:58:29Z</time>
      </trkpt>
      <trkpt lat="44.863629033789039" lon="5.59876648709178">
        <ele>779.5999755859375</ele>
        <time>2014-05-19T09:58:31Z</time>
      </trkpt>
      <trkpt lat="44.863578490912914" lon="5.598797416314483">
        <ele>780.79998779296875</ele>
        <time>2014-05-19T09:58:32Z</time>
      </trkpt>
      <trkpt lat="44.863487463444471" lon="5.598866315558553">
        <ele>781.79998779296875</ele>
        <time>2014-05-19T09:58:34Z</time>
      </trkpt>
      <trkpt lat="44.863361064344645" lon="5.598958935588598">
        <ele>783</ele>
        <time>2014-05-19T09:58:37Z</time>
      </trkpt>
      <trkpt lat="44.863317813724279" lon="5.598989278078079">
        <ele>783.20001220703125</ele>
        <time>2014-05-19T09:58:38Z</time>
      </trkpt>
      <trkpt lat="44.863240364938974" lon="5.599052896723151">
        <ele>784.20001220703125</ele>
        <time>2014-05-19T09:58:40Z</time>
      </trkpt>
      <trkpt lat="44.863143218681216" lon="5.599138978868723">
        <ele>785.20001220703125</ele>
        <time>2014-05-19T09:58:43Z</time>
      </trkpt>
      <trkpt lat="44.863089490681887" lon="5.59919111430645">
        <ele>785.5999755859375</ele>
        <time>2014-05-19T09:58:45Z</time>
      </trkpt>
      <trkpt lat="44.86303299665451" lon="5.599247859790921">
        <ele>786.4000244140625</ele>
        <time>2014-05-19T09:58:47Z</time>
      </trkpt>
      <trkpt lat="44.862898970022798" lon="5.599394962191582">
        <ele>787.4000244140625</ele>
        <time>2014-05-19T09:58:52Z</time>
      </trkpt>
      <trkpt lat="44.86287223175168" lon="5.599426310509443">
        <ele>787.5999755859375</ele>
        <time>2014-05-19T09:58:53Z</time>
      </trkpt>
      <trkpt lat="44.862765362486243" lon="5.599551955237985">
        <ele>788.4000244140625</ele>
        <time>2014-05-19T09:58:57Z</time>
      </trkpt>
      <trkpt lat="44.862614739686251" lon="5.599741889163852">
        <ele>789.5999755859375</ele>
        <time>2014-05-19T09:59:03Z</time>
      </trkpt>
      <trkpt lat="44.862594623118639" lon="5.59977407567203">
        <ele>789.5999755859375</ele>
        <time>2014-05-19T09:59:04Z</time>
      </trkpt>
      <trkpt lat="44.862470738589764" lon="5.599955124780536">
        <ele>790.5999755859375</ele>
        <time>2014-05-19T09:59:11Z</time>
      </trkpt>
      <trkpt lat="44.862360851839185" lon="5.600159810855985">
        <ele>791.4000244140625</ele>
        <time>2014-05-19T09:59:18Z</time>
      </trkpt>
      <trkpt lat="44.862344255670905" lon="5.600187387317419">
        <ele>791.5999755859375</ele>
        <time>2014-05-19T09:59:19Z</time>
      </trkpt>
      <trkpt lat="44.86227803863585" lon="5.60033155605197">
        <ele>793</ele>
        <time>2014-05-19T09:59:24Z</time>
      </trkpt>
      <trkpt lat="44.862267393618822" lon="5.600360557436943">
        <ele>793.20001220703125</ele>
        <time>2014-05-19T09:59:25Z</time>
      </trkpt>
      <trkpt lat="44.862216766923666" lon="5.60048645362258">
        <ele>794</ele>
        <time>2014-05-19T09:59:29Z</time>
      </trkpt>
      <trkpt lat="44.862137222662568" lon="5.600654259324074">
        <ele>794.4000244140625</ele>
        <time>2014-05-19T09:59:34Z</time>
      </trkpt>
      <trkpt lat="44.862037226557732" lon="5.600892975926399">
        <ele>795.20001220703125</ele>
        <time>2014-05-19T09:59:41Z</time>
      </trkpt>
      <trkpt lat="44.862021552398801" lon="5.600925916805863">
        <ele>795.4000244140625</ele>
        <time>2014-05-19T09:59:42Z</time>
      </trkpt>
      <trkpt lat="44.861982073634863" lon="5.601027756929398">
        <ele>796.4000244140625</ele>
        <time>2014-05-19T09:59:45Z</time>
      </trkpt>
      <trkpt lat="44.861929854378104" lon="5.601133704185486">
        <ele>797.20001220703125</ele>
        <time>2014-05-19T09:59:48Z</time>
      </trkpt>
      <trkpt lat="44.861887944862247" lon="5.601249122992158">
        <ele>797.5999755859375</ele>
        <time>2014-05-19T09:59:52Z</time>
      </trkpt>
      <trkpt lat="44.861848633736372" lon="5.601342748850584">
        <ele>798.20001220703125</ele>
        <time>2014-05-19T09:59:55Z</time>
      </trkpt>
      <trkpt lat="44.861804712563753" lon="5.60146177187562">
        <ele>798.79998779296875</ele>
        <time>2014-05-19T09:59:59Z</time>
      </trkpt>
      <trkpt lat="44.861779315397143" lon="5.601524133235216">
        <ele>799</ele>
        <time>2014-05-19T10:00:01Z</time>
      </trkpt>
      <trkpt lat="44.861679738387465" lon="5.601772572845221">
        <ele>800</ele>
        <time>2014-05-19T10:00:09Z</time>
      </trkpt>
      <trkpt lat="44.861577562987804" lon="5.602021599188447">
        <ele>800.79998779296875</ele>
        <time>2014-05-19T10:00:17Z</time>
      </trkpt>
      <trkpt lat="44.861564822494984" lon="5.602056300267577">
        <ele>801</ele>
        <time>2014-05-19T10:00:18Z</time>
      </trkpt>
      <trkpt lat="44.861476644873619" lon="5.602286467328668">
        <ele>802</ele>
        <time>2014-05-19T10:00:25Z</time>
      </trkpt>
      <trkpt lat="44.861448397859931" lon="5.602362658828497">
        <ele>802</ele>
        <time>2014-05-19T10:00:27Z</time>
      </trkpt>
      <trkpt lat="44.86137262545526" lon="5.602556867524982">
        <ele>803</ele>
        <time>2014-05-19T10:00:32Z</time>
      </trkpt>
      <trkpt lat="44.861359968781471" lon="5.602600034326315">
        <ele>803.20001220703125</ele>
        <time>2014-05-19T10:00:33Z</time>
      </trkpt>
      <trkpt lat="44.86125435680151" lon="5.602865070104599">
        <ele>803.79998779296875</ele>
        <time>2014-05-19T10:00:39Z</time>
      </trkpt>
      <trkpt lat="44.861112534999847" lon="5.603222222998738">
        <ele>804.20001220703125</ele>
        <time>2014-05-19T10:00:46Z</time>
      </trkpt>
      <trkpt lat="44.86108772456646" lon="5.603285925462842">
        <ele>804.20001220703125</ele>
        <time>2014-05-19T10:00:47Z</time>
      </trkpt>
      <trkpt lat="44.860886055976152" lon="5.603795712813735">
        <ele>803.79998779296875</ele>
        <time>2014-05-19T10:00:55Z</time>
      </trkpt>
      <trkpt lat="44.860700899735093" lon="5.604281527921557">
        <ele>803.4000244140625</ele>
        <time>2014-05-19T10:01:02Z</time>
      </trkpt>
      <trkpt lat="44.860672065988183" lon="5.60435545630753">
        <ele>803.20001220703125</ele>
        <time>2014-05-19T10:01:03Z</time>
      </trkpt>
      <trkpt lat="44.860436283051968" lon="5.604947721585631">
        <ele>802.5999755859375</ele>
        <time>2014-05-19T10:01:11Z</time>
      </trkpt>
      <trkpt lat="44.860318182036281" lon="5.605248045176268">
        <ele>802</ele>
        <time>2014-05-19T10:01:15Z</time>
      </trkpt>
      <trkpt lat="44.860234698280692" lon="5.605477709323168">
        <ele>801.5999755859375</ele>
        <time>2014-05-19T10:01:18Z</time>
      </trkpt>
      <trkpt lat="44.860016014426947" lon="5.606067292392254">
        <ele>801.5999755859375</ele>
        <time>2014-05-19T10:01:26Z</time>
      </trkpt>
      <trkpt lat="44.859904618933797" lon="5.60635831207037">
        <ele>800.4000244140625</ele>
        <time>2014-05-19T10:01:30Z</time>
      </trkpt>
      <trkpt lat="44.85978459008038" lon="5.606668442487717">
        <ele>799.4000244140625</ele>
        <time>2014-05-19T10:01:34Z</time>
      </trkpt>
      <trkpt lat="44.859619298949838" lon="5.607065996155143">
        <ele>798.4000244140625</ele>
        <time>2014-05-19T10:01:39Z</time>
      </trkpt>
      <trkpt lat="44.859502539038658" lon="5.607312675565481">
        <ele>797.20001220703125</ele>
        <time>2014-05-19T10:01:42Z</time>
      </trkpt>
      <trkpt lat="44.859206909313798" lon="5.607870658859611">
        <ele>795.79998779296875</ele>
        <time>2014-05-19T10:01:49Z</time>
      </trkpt>
      <trkpt lat="44.859117222949862" lon="5.608028322458267">
        <ele>795</ele>
        <time>2014-05-19T10:01:51Z</time>
      </trkpt>
      <trkpt lat="44.85907020047307" lon="5.60810811817646">
        <ele>794.5999755859375</ele>
        <time>2014-05-19T10:01:52Z</time>
      </trkpt>
      <trkpt lat="44.858870962634683" lon="5.608414644375444">
        <ele>793.4000244140625</ele>
        <time>2014-05-19T10:01:56Z</time>
      </trkpt>
      <trkpt lat="44.858716819435358" lon="5.608638189733028">
        <ele>792.5999755859375</ele>
        <time>2014-05-19T10:01:59Z</time>
      </trkpt>
      <trkpt lat="44.858667533844709" lon="5.608711866661906">
        <ele>792.4000244140625</ele>
        <time>2014-05-19T10:02:00Z</time>
      </trkpt>
      <trkpt lat="44.858287833631039" lon="5.60922215692699">
        <ele>791.20001220703125</ele>
        <time>2014-05-19T10:02:07Z</time>
      </trkpt>
      <trkpt lat="44.858227986842394" lon="5.609293067827821">
        <ele>791</ele>
        <time>2014-05-19T10:02:08Z</time>
      </trkpt>
      <trkpt lat="44.857925651594996" lon="5.609648209065199">
        <ele>790</ele>
        <time>2014-05-19T10:02:13Z</time>
      </trkpt>
      <trkpt lat="44.857669584453106" lon="5.609930008649826">
        <ele>788.79998779296875</ele>
        <time>2014-05-19T10:02:17Z</time>
      </trkpt>
      <trkpt lat="44.85746992751956" lon="5.610150285065174">
        <ele>787.4000244140625</ele>
        <time>2014-05-19T10:02:20Z</time>
      </trkpt>
      <trkpt lat="44.857333218678832" lon="5.610298728570342">
        <ele>786.4000244140625</ele>
        <time>2014-05-19T10:02:22Z</time>
      </trkpt>
      <trkpt lat="44.857192318886518" lon="5.610452955588698">
        <ele>785.4000244140625</ele>
        <time>2014-05-19T10:02:24Z</time>
      </trkpt>
      <trkpt lat="44.857120234519243" lon="5.610530907288194">
        <ele>785</ele>
        <time>2014-05-19T10:02:25Z</time>
      </trkpt>
      <trkpt lat="44.856973048299551" lon="5.61069586314261">
        <ele>784.4000244140625</ele>
        <time>2014-05-19T10:02:27Z</time>
      </trkpt>
      <trkpt lat="44.856673898175359" lon="5.611047903075814">
        <ele>782.79998779296875</ele>
        <time>2014-05-19T10:02:31Z</time>
      </trkpt>
      <trkpt lat="44.856600891798735" lon="5.611143792048097">
        <ele>781.5999755859375</ele>
        <time>2014-05-19T10:02:32Z</time>
      </trkpt>
      <trkpt lat="44.85634415410459" lon="5.611575627699494">
        <ele>780.4000244140625</ele>
        <time>2014-05-19T10:02:36Z</time>
      </trkpt>
      <trkpt lat="44.856287827715278" lon="5.611689956858754">
        <ele>780</ele>
        <time>2014-05-19T10:02:37Z</time>
      </trkpt>
      <trkpt lat="44.85623175278306" lon="5.61180604621768">
        <ele>779.4000244140625</ele>
        <time>2014-05-19T10:02:38Z</time>
      </trkpt>
      <trkpt lat="44.856072496622801" lon="5.612156074494124">
        <ele>778.4000244140625</ele>
        <time>2014-05-19T10:02:41Z</time>
      </trkpt>
      <trkpt lat="44.855911899358034" lon="5.612506186589599">
        <ele>776.79998779296875</ele>
        <time>2014-05-19T10:02:44Z</time>
      </trkpt>
      <trkpt lat="44.855857333168387" lon="5.612620767205954">
        <ele>776.4000244140625</ele>
        <time>2014-05-19T10:02:45Z</time>
      </trkpt>
      <trkpt lat="44.855585508048534" lon="5.613208003342152">
        <ele>775.20001220703125</ele>
        <time>2014-05-19T10:02:50Z</time>
      </trkpt>
      <trkpt lat="44.855420384556055" lon="5.613565323874354">
        <ele>774</ele>
        <time>2014-05-19T10:02:53Z</time>
      </trkpt>
      <trkpt lat="44.855364896357059" lon="5.613688286393881">
        <ele>773.5999755859375</ele>
        <time>2014-05-19T10:02:54Z</time>
      </trkpt>
      <trkpt lat="44.855309575796127" lon="5.613814182579517">
        <ele>773</ele>
        <time>2014-05-19T10:02:55Z</time>
      </trkpt>
      <trkpt lat="44.855252495035529" lon="5.613940581679344">
        <ele>771.5999755859375</ele>
        <time>2014-05-19T10:02:56Z</time>
      </trkpt>
      <trkpt lat="44.855137495324016" lon="5.614192625507712">
        <ele>770.20001220703125</ele>
        <time>2014-05-19T10:02:58Z</time>
      </trkpt>
      <trkpt lat="44.855023501440883" lon="5.614451793953776">
        <ele>768.4000244140625</ele>
        <time>2014-05-19T10:03:00Z</time>
      </trkpt>
      <trkpt lat="44.854902550578117" lon="5.614707274362445">
        <ele>767.4000244140625</ele>
        <time>2014-05-19T10:03:02Z</time>
      </trkpt>
      <trkpt lat="44.854842033237219" lon="5.614836188033223">
        <ele>767.20001220703125</ele>
        <time>2014-05-19T10:03:03Z</time>
      </trkpt>
      <trkpt lat="44.854726530611515" lon="5.615094350650907">
        <ele>766</ele>
        <time>2014-05-19T10:03:05Z</time>
      </trkpt>
      <trkpt lat="44.854557299986482" lon="5.615467177703977">
        <ele>764.4000244140625</ele>
        <time>2014-05-19T10:03:08Z</time>
      </trkpt>
      <trkpt lat="44.85444875434041" lon="5.615695333108306">
        <ele>763</ele>
        <time>2014-05-19T10:03:10Z</time>
      </trkpt>
      <trkpt lat="44.854299305006862" lon="5.61602046713233">
        <ele>764.20001220703125</ele>
        <time>2014-05-19T10:03:13Z</time>
      </trkpt>
      <trkpt lat="44.854067880660295" lon="5.61654819175601">
        <ele>764</ele>
        <time>2014-05-19T10:03:18Z</time>
      </trkpt>
      <trkpt lat="44.853890100494027" lon="5.617092596367002">
        <ele>762.79998779296875</ele>
        <time>2014-05-19T10:03:23Z</time>
      </trkpt>
      <trkpt lat="44.853702010586858" lon="5.617720065638423">
        <ele>762</ele>
        <time>2014-05-19T10:03:29Z</time>
      </trkpt>
      <trkpt lat="44.853671751916409" lon="5.617823665961623">
        <ele>761.5999755859375</ele>
        <time>2014-05-19T10:03:30Z</time>
      </trkpt>
      <trkpt lat="44.853641241788864" lon="5.617927266284823">
        <ele>761.4000244140625</ele>
        <time>2014-05-19T10:03:31Z</time>
      </trkpt>
      <trkpt lat="44.853491624817252" lon="5.618425318971276">
        <ele>760.4000244140625</ele>
        <time>2014-05-19T10:03:36Z</time>
      </trkpt>
      <trkpt lat="44.853431191295385" lon="5.618619276210666">
        <ele>760.20001220703125</ele>
        <time>2014-05-19T10:03:38Z</time>
      </trkpt>
      <trkpt lat="44.853184428066015" lon="5.619181031361222">
        <ele>760.5999755859375</ele>
        <time>2014-05-19T10:03:44Z</time>
      </trkpt>
      <trkpt lat="44.853039504960179" lon="5.619453527033329">
        <ele>759</ele>
        <time>2014-05-19T10:03:47Z</time>
      </trkpt>
      <trkpt lat="44.852934898808599" lon="5.619625439867377">
        <ele>758</ele>
        <time>2014-05-19T10:03:49Z</time>
      </trkpt>
      <trkpt lat="44.852820318192244" lon="5.619795341044664">
        <ele>757.79998779296875</ele>
        <time>2014-05-19T10:03:51Z</time>
      </trkpt>
      <trkpt lat="44.852688973769546" lon="5.619950657710433">
        <ele>756.4000244140625</ele>
        <time>2014-05-19T10:03:53Z</time>
      </trkpt>
      <trkpt lat="44.852470122277737" lon="5.620156601071358">
        <ele>755.4000244140625</ele>
        <time>2014-05-19T10:03:56Z</time>
      </trkpt>
      <trkpt lat="44.85239502042532" lon="5.62022315338254">
        <ele>755.20001220703125</ele>
        <time>2014-05-19T10:03:57Z</time>
      </trkpt>
      <trkpt lat="44.852162254974246" lon="5.620388779789209">
        <ele>753.79998779296875</ele>
        <time>2014-05-19T10:04:00Z</time>
      </trkpt>
      <trkpt lat="44.851919934153557" lon="5.620516855269671">
        <ele>753.4000244140625</ele>
        <time>2014-05-19T10:04:03Z</time>
      </trkpt>
      <trkpt lat="44.851370416581631" lon="5.620723888278008">
        <ele>754</ele>
        <time>2014-05-19T10:04:10Z</time>
      </trkpt>
      <trkpt lat="44.851162545382977" lon="5.620763367041946">
        <ele>755</ele>
        <time>2014-05-19T10:04:13Z</time>
      </trkpt>
      <trkpt lat="44.851031620055437" lon="5.620778286829591">
        <ele>756</ele>
        <time>2014-05-19T10:04:15Z</time>
      </trkpt>
      <trkpt lat="44.850969426333904" lon="5.620785914361477">
        <ele>756.4000244140625</ele>
        <time>2014-05-19T10:04:16Z</time>
      </trkpt>
      <trkpt lat="44.850738672539592" lon="5.620785495266318">
        <ele>757.5999755859375</ele>
        <time>2014-05-19T10:04:20Z</time>
      </trkpt>
      <trkpt lat="44.850682681426406" lon="5.620776610448957">
        <ele>757.79998779296875</ele>
        <time>2014-05-19T10:04:21Z</time>
      </trkpt>
      <trkpt lat="44.850525772199035" lon="5.620745178312063">
        <ele>758.5999755859375</ele>
        <time>2014-05-19T10:04:24Z</time>
      </trkpt>
      <trkpt lat="44.850278673693538" lon="5.62066781334579">
        <ele>759</ele>
        <time>2014-05-19T10:04:29Z</time>
      </trkpt>
      <trkpt lat="44.849780788645148" lon="5.620414093136787">
        <ele>758.5999755859375</ele>
        <time>2014-05-19T10:04:39Z</time>
      </trkpt>
      <trkpt lat="44.849681379273534" lon="5.620346618816257">
        <ele>757.5999755859375</ele>
        <time>2014-05-19T10:04:41Z</time>
      </trkpt>
      <trkpt lat="44.849376529455185" lon="5.620066160336137">
        <ele>756.5999755859375</ele>
        <time>2014-05-19T10:04:47Z</time>
      </trkpt>
      <trkpt lat="44.84932254999876" lon="5.620008828118444">
        <ele>756.5999755859375</ele>
        <time>2014-05-19T10:04:48Z</time>
      </trkpt>
      <trkpt lat="44.849162036553025" lon="5.6198073271662">
        <ele>755.4000244140625</ele>
        <time>2014-05-19T10:04:51Z</time>
      </trkpt>
      <trkpt lat="44.849056424573064" lon="5.619654608890414">
        <ele>755</ele>
        <time>2014-05-19T10:04:53Z</time>
      </trkpt>
      <trkpt lat="44.848899096250534" lon="5.619415724650025">
        <ele>754</ele>
        <time>2014-05-19T10:04:56Z</time>
      </trkpt>
      <trkpt lat="44.848635569214821" lon="5.619041305035353">
        <ele>753.5999755859375</ele>
        <time>2014-05-19T10:05:01Z</time>
      </trkpt>
      <trkpt lat="44.848517216742039" lon="5.618897471576929">
        <ele>753</ele>
        <time>2014-05-19T10:05:03Z</time>
      </trkpt>
      <trkpt lat="44.848260898143053" lon="5.618665125221014">
        <ele>752.79998779296875</ele>
        <time>2014-05-19T10:05:07Z</time>
      </trkpt>
      <trkpt lat="44.847947750240564" lon="5.61849195510149">
        <ele>754</ele>
        <time>2014-05-19T10:05:12Z</time>
      </trkpt>
      <trkpt lat="44.847885053604841" lon="5.618468066677451">
        <ele>754.4000244140625</ele>
        <time>2014-05-19T10:05:13Z</time>
      </trkpt>
      <trkpt lat="44.847762761637568" lon="5.618424145504832">
        <ele>755</ele>
        <time>2014-05-19T10:05:15Z</time>
      </trkpt>
      <trkpt lat="44.847397143021226" lon="5.618358431383967">
        <ele>756</ele>
        <time>2014-05-19T10:05:21Z</time>
      </trkpt>
      <trkpt lat="44.84733578749001" lon="5.618360191583633">
        <ele>756.20001220703125</ele>
        <time>2014-05-19T10:05:22Z</time>
      </trkpt>
      <trkpt lat="44.847037978470325" lon="5.618408219888806">
        <ele>757</ele>
        <time>2014-05-19T10:05:27Z</time>
      </trkpt>
      <trkpt lat="44.846815019845963" lon="5.618461612612009">
        <ele>757.20001220703125</ele>
        <time>2014-05-19T10:05:31Z</time>
      </trkpt>
      <trkpt lat="44.846711419522762" lon="5.61848022043705">
        <ele>757.20001220703125</ele>
        <time>2014-05-19T10:05:33Z</time>
      </trkpt>
      <trkpt lat="44.846312943845987" lon="5.618513748049736">
        <ele>757.5999755859375</ele>
        <time>2014-05-19T10:05:41Z</time>
      </trkpt>
      <trkpt lat="44.846216887235641" lon="5.618504276499152">
        <ele>758.20001220703125</ele>
        <time>2014-05-19T10:05:43Z</time>
      </trkpt>
      <trkpt lat="44.845989486202598" lon="5.618453314527869">
        <ele>759.20001220703125</ele>
        <time>2014-05-19T10:05:48Z</time>
      </trkpt>
      <trkpt lat="44.845949420705438" lon="5.618440993130207">
        <ele>759.4000244140625</ele>
        <time>2014-05-19T10:05:49Z</time>
      </trkpt>
      <trkpt lat="44.8455869872123" lon="5.618292298167944">
        <ele>759.5999755859375</ele>
        <time>2014-05-19T10:05:58Z</time>
      </trkpt>
      <trkpt lat="44.845476429909468" lon="5.618218872696161">
        <ele>760.5999755859375</ele>
        <time>2014-05-19T10:06:01Z</time>
      </trkpt>
      <trkpt lat="44.845366291701794" lon="5.618130527436733">
        <ele>761.20001220703125</ele>
        <time>2014-05-19T10:06:04Z</time>
      </trkpt>
      <trkpt lat="44.845329662784934" lon="5.618098340928555">
        <ele>761.20001220703125</ele>
        <time>2014-05-19T10:06:05Z</time>
      </trkpt>
      <trkpt lat="44.845016598701477" lon="5.617823749780655">
        <ele>761.5999755859375</ele>
        <time>2014-05-19T10:06:13Z</time>
      </trkpt>
      <trkpt lat="44.844972845166922" lon="5.617786953225732">
        <ele>761.5999755859375</ele>
        <time>2014-05-19T10:06:14Z</time>
      </trkpt>
      <trkpt lat="44.844609992578626" lon="5.617515044286847">
        <ele>760.5999755859375</ele>
        <time>2014-05-19T10:06:21Z</time>
      </trkpt>
      <trkpt lat="44.844226352870464" lon="5.617369450628758">
        <ele>760</ele>
        <time>2014-05-19T10:06:27Z</time>
      </trkpt>
      <trkpt lat="44.843861907720566" lon="5.617376659065485">
        <ele>761.20001220703125</ele>
        <time>2014-05-19T10:06:33Z</time>
      </trkpt>
      <trkpt lat="44.843657137826085" lon="5.617469446733594">
        <ele>761.4000244140625</ele>
        <time>2014-05-19T10:06:37Z</time>
      </trkpt>
      <trkpt lat="44.843608271330595" lon="5.617493754252791">
        <ele>761.5999755859375</ele>
        <time>2014-05-19T10:06:38Z</time>
      </trkpt>
      <trkpt lat="44.843560578301549" lon="5.617526192218065">
        <ele>761.79998779296875</ele>
        <time>2014-05-19T10:06:39Z</time>
      </trkpt>
      <trkpt lat="44.8431555647403" lon="5.617824923247099">
        <ele>762.79998779296875</ele>
        <time>2014-05-19T10:06:48Z</time>
      </trkpt>
      <trkpt lat="44.843111727386713" lon="5.617856187745929">
        <ele>763.20001220703125</ele>
        <time>2014-05-19T10:06:49Z</time>
      </trkpt>
      <trkpt lat="44.842821797356009" lon="5.61802240088582">
        <ele>764.4000244140625</ele>
        <time>2014-05-19T10:06:56Z</time>
      </trkpt>
      <trkpt lat="44.842442432418466" lon="5.618087192997336">
        <ele>765.5999755859375</ele>
        <time>2014-05-19T10:07:05Z</time>
      </trkpt>
      <trkpt lat="44.842089973390102" lon="5.618021730333567">
        <ele>766</ele>
        <time>2014-05-19T10:07:14Z</time>
      </trkpt>
      <trkpt lat="44.84201118350029" lon="5.61799499206245">
        <ele>766.20001220703125</ele>
        <time>2014-05-19T10:07:16Z</time>
      </trkpt>
      <trkpt lat="44.841810688376427" lon="5.617869598791003">
        <ele>765</ele>
        <time>2014-05-19T10:07:21Z</time>
      </trkpt>
      <trkpt lat="44.841574737802148" lon="5.617619566619396">
        <ele>764.4000244140625</ele>
        <time>2014-05-19T10:07:27Z</time>
      </trkpt>
      <trkpt lat="44.841535510495305" lon="5.617568353191018">
        <ele>764.20001220703125</ele>
        <time>2014-05-19T10:07:28Z</time>
      </trkpt>
      <trkpt lat="44.841350018978119" lon="5.617266856133938">
        <ele>763.20001220703125</ele>
        <time>2014-05-19T10:07:33Z</time>
      </trkpt>
      <trkpt lat="44.841316994279623" lon="5.617199381813407">
        <ele>763.20001220703125</ele>
        <time>2014-05-19T10:07:34Z</time>
      </trkpt>
      <trkpt lat="44.841018095612526" lon="5.616624383255839">
        <ele>764</ele>
        <time>2014-05-19T10:07:43Z</time>
      </trkpt>
      <trkpt lat="44.840989597141743" lon="5.616564117372036">
        <ele>764.4000244140625</ele>
        <time>2014-05-19T10:07:44Z</time>
      </trkpt>
      <trkpt lat="44.840750796720386" lon="5.61610939912498">
        <ele>765.4000244140625</ele>
        <time>2014-05-19T10:07:52Z</time>
      </trkpt>
      <trkpt lat="44.840720454230905" lon="5.616058520972729">
        <ele>765.4000244140625</ele>
        <time>2014-05-19T10:07:53Z</time>
      </trkpt>
      <trkpt lat="44.840668654069304" lon="5.615944862365723">
        <ele>765.4000244140625</ele>
        <time>2014-05-19T10:07:55Z</time>
      </trkpt>
      <trkpt lat="44.840577626600862" lon="5.615715701133013">
        <ele>765.5999755859375</ele>
        <time>2014-05-19T10:07:59Z</time>
      </trkpt>
      <trkpt lat="44.840422477573156" lon="5.615178169682622">
        <ele>767</ele>
        <time>2014-05-19T10:08:08Z</time>
      </trkpt>
      <trkpt lat="44.840411581099033" lon="5.615113880485296">
        <ele>767.20001220703125</ele>
        <time>2014-05-19T10:08:09Z</time>
      </trkpt>
      <trkpt lat="44.840358858928084" lon="5.614645164459944">
        <ele>767.20001220703125</ele>
        <time>2014-05-19T10:08:16Z</time>
      </trkpt>
      <trkpt lat="44.840297251939774" lon="5.614028507843614">
        <ele>767</ele>
        <time>2014-05-19T10:08:25Z</time>
      </trkpt>
      <trkpt lat="44.840220222249627" lon="5.613539256155491">
        <ele>767.79998779296875</ele>
        <time>2014-05-19T10:08:33Z</time>
      </trkpt>
      <trkpt lat="44.840207733213902" lon="5.613479241728783">
        <ele>768.20001220703125</ele>
        <time>2014-05-19T10:08:34Z</time>
      </trkpt>
      <trkpt lat="44.840117879211903" lon="5.613152934238315">
        <ele>769.20001220703125</ele>
        <time>2014-05-19T10:08:40Z</time>
      </trkpt>
      <trkpt lat="44.840102707967162" lon="5.613096691668034">
        <ele>769.20001220703125</ele>
        <time>2014-05-19T10:08:41Z</time>
      </trkpt>
      <trkpt lat="44.83998485840857" lon="5.612718919292092">
        <ele>769</ele>
        <time>2014-05-19T10:08:48Z</time>
      </trkpt>
      <trkpt lat="44.839820405468345" lon="5.612291106954217">
        <ele>769</ele>
        <time>2014-05-19T10:08:56Z</time>
      </trkpt>
      <trkpt lat="44.83975469134748" lon="5.612139478325844">
        <ele>770.20001220703125</ele>
        <time>2014-05-19T10:08:59Z</time>
      </trkpt>
      <trkpt lat="44.839652515947819" lon="5.611940072849393">
        <ele>769</ele>
        <time>2014-05-19T10:09:03Z</time>
      </trkpt>
      <trkpt lat="44.83962569385767" lon="5.611894223839045">
        <ele>768.20001220703125</ele>
        <time>2014-05-19T10:09:04Z</time>
      </trkpt>
      <trkpt lat="44.839371554553509" lon="5.61151678673923">
        <ele>770</ele>
        <time>2014-05-19T10:09:13Z</time>
      </trkpt>
      <trkpt lat="44.839085815474391" lon="5.611154185608029">
        <ele>769.79998779296875</ele>
        <time>2014-05-19T10:09:22Z</time>
      </trkpt>
      <trkpt lat="44.838949358090758" lon="5.610994258895516">
        <ele>769</ele>
        <time>2014-05-19T10:09:26Z</time>
      </trkpt>
      <trkpt lat="44.838816756382585" lon="5.610841037705541">
        <ele>770.4000244140625</ele>
        <time>2014-05-19T10:09:30Z</time>
      </trkpt>
      <trkpt lat="44.838554318994284" lon="5.610522190108895">
        <ele>770.79998779296875</ele>
        <time>2014-05-19T10:09:38Z</time>
      </trkpt>
      <trkpt lat="44.838264724239707" lon="5.610184315592051">
        <ele>769.5999755859375</ele>
        <time>2014-05-19T10:09:47Z</time>
      </trkpt>
      <trkpt lat="44.838058361783624" lon="5.609865803271532">
        <ele>771.20001220703125</ele>
        <time>2014-05-19T10:09:54Z</time>
      </trkpt>
      <trkpt lat="44.838032545521855" lon="5.60981685295701">
        <ele>771.5999755859375</ele>
        <time>2014-05-19T10:09:55Z</time>
      </trkpt>
      <trkpt lat="44.837933052331209" lon="5.609632031992078">
        <ele>772.20001220703125</ele>
        <time>2014-05-19T10:09:59Z</time>
      </trkpt>
      <trkpt lat="44.837868008762598" lon="5.609492808580399">
        <ele>772.4000244140625</ele>
        <time>2014-05-19T10:10:02Z</time>
      </trkpt>
      <trkpt lat="44.837807239964604" lon="5.609346544370055">
        <ele>773.20001220703125</ele>
        <time>2014-05-19T10:10:05Z</time>
      </trkpt>
      <trkpt lat="44.837714033201337" lon="5.609033145010471">
        <ele>773.79998779296875</ele>
        <time>2014-05-19T10:10:11Z</time>
      </trkpt>
      <trkpt lat="44.837648989632726" lon="5.608664341270924">
        <ele>774</ele>
        <time>2014-05-19T10:10:18Z</time>
      </trkpt>
      <trkpt lat="44.837629292160273" lon="5.608507096767426">
        <ele>774.20001220703125</ele>
        <time>2014-05-19T10:10:21Z</time>
      </trkpt>
      <trkpt lat="44.837588723748922" lon="5.608123037964106">
        <ele>774.20001220703125</ele>
        <time>2014-05-19T10:10:28Z</time>
      </trkpt>
      <trkpt lat="44.837540108710527" lon="5.607714420184493">
        <ele>775.4000244140625</ele>
        <time>2014-05-19T10:10:35Z</time>
      </trkpt>
      <trkpt lat="44.837517226114869" lon="5.607591960579157">
        <ele>776</ele>
        <time>2014-05-19T10:10:37Z</time>
      </trkpt>
      <trkpt lat="44.837457630783319" lon="5.60734829865396">
        <ele>774.4000244140625</ele>
        <time>2014-05-19T10:10:41Z</time>
      </trkpt>
      <trkpt lat="44.83744346536696" lon="5.607277806848288">
        <ele>774.4000244140625</ele>
        <time>2014-05-19T10:10:42Z</time>
      </trkpt>
      <trkpt lat="44.837402310222387" lon="5.607162807136774">
        <ele>774.4000244140625</ele>
        <time>2014-05-19T10:10:44Z</time>
      </trkpt>
      <trkpt lat="44.837350593879819" lon="5.607044538483024">
        <ele>774.5999755859375</ele>
        <time>2014-05-19T10:10:46Z</time>
      </trkpt>
      <trkpt lat="44.837295524775982" lon="5.606933645904064">
        <ele>774.20001220703125</ele>
        <time>2014-05-19T10:10:48Z</time>
      </trkpt>
      <trkpt lat="44.837212208658457" lon="5.606772797182202">
        <ele>773.79998779296875</ele>
        <time>2014-05-19T10:10:51Z</time>
      </trkpt>
      <trkpt lat="44.837052198126912" lon="5.606546150520444">
        <ele>773.79998779296875</ele>
        <time>2014-05-19T10:10:56Z</time>
      </trkpt>
      <trkpt lat="44.836953291669488" lon="5.606423104181886">
        <ele>774.20001220703125</ele>
        <time>2014-05-19T10:10:59Z</time>
      </trkpt>
      <trkpt lat="44.836721448227763" lon="5.606128312647343">
        <ele>775</ele>
        <time>2014-05-19T10:11:06Z</time>
      </trkpt>
      <trkpt lat="44.836433026939631" lon="5.605701506137848">
        <ele>775.5999755859375</ele>
        <time>2014-05-19T10:11:15Z</time>
      </trkpt>
      <trkpt lat="44.836403941735625" lon="5.605648281052709">
        <ele>775.79998779296875</ele>
        <time>2014-05-19T10:11:16Z</time>
      </trkpt>
      <trkpt lat="44.836319116875529" lon="5.605485253036022">
        <ele>776.5999755859375</ele>
        <time>2014-05-19T10:11:19Z</time>
      </trkpt>
      <trkpt lat="44.836184922605753" lon="5.60521393083036">
        <ele>776.79998779296875</ele>
        <time>2014-05-19T10:11:24Z</time>
      </trkpt>
      <trkpt lat="44.836097583174706" lon="5.604977058246732">
        <ele>777.20001220703125</ele>
        <time>2014-05-19T10:11:28Z</time>
      </trkpt>
      <trkpt lat="44.836056511849165" lon="5.604859041050077">
        <ele>777.79998779296875</ele>
        <time>2014-05-19T10:11:30Z</time>
      </trkpt>
      <trkpt lat="44.836036982014775" lon="5.604801960289478">
        <ele>778</ele>
        <time>2014-05-19T10:11:31Z</time>
      </trkpt>
      <trkpt lat="44.835977805778384" lon="5.604580258950591">
        <ele>779</ele>
        <time>2014-05-19T10:11:35Z</time>
      </trkpt>
      <trkpt lat="44.835922149941325" lon="5.604356294497848">
        <ele>779.20001220703125</ele>
        <time>2014-05-19T10:11:39Z</time>
      </trkpt>
      <trkpt lat="44.835906894877553" lon="5.604302901774645">
        <ele>778.79998779296875</ele>
        <time>2014-05-19T10:11:40Z</time>
      </trkpt>
      <trkpt lat="44.835852580145001" lon="5.603925799950957">
        <ele>779.20001220703125</ele>
        <time>2014-05-19T10:11:47Z</time>
      </trkpt>
      <trkpt lat="44.835819723084569" lon="5.603561606258154">
        <ele>779.79998779296875</ele>
        <time>2014-05-19T10:11:54Z</time>
      </trkpt>
      <trkpt lat="44.835814526304603" lon="5.603303611278534">
        <ele>780</ele>
        <time>2014-05-19T10:11:59Z</time>
      </trkpt>
      <trkpt lat="44.835809329524636" lon="5.603068331256509">
        <ele>781</ele>
        <time>2014-05-19T10:12:03Z</time>
      </trkpt>
      <trkpt lat="44.835798013955355" lon="5.602803127840161">
        <ele>780</ele>
        <time>2014-05-19T10:12:07Z</time>
      </trkpt>
      <trkpt lat="44.835793152451515" lon="5.602661641314626">
        <ele>779.5999755859375</ele>
        <time>2014-05-19T10:12:09Z</time>
      </trkpt>
      <trkpt lat="44.835783345624804" lon="5.602592322975397">
        <ele>779.79998779296875</ele>
        <time>2014-05-19T10:12:10Z</time>
      </trkpt>
      <trkpt lat="44.835738837718964" lon="5.6022416241467">
        <ele>779.4000244140625</ele>
        <time>2014-05-19T10:12:15Z</time>
      </trkpt>
      <trkpt lat="44.835685193538666" lon="5.601977929472923">
        <ele>778.79998779296875</ele>
        <time>2014-05-19T10:12:19Z</time>
      </trkpt>
      <trkpt lat="44.835612438619137" lon="5.601705014705658">
        <ele>778.79998779296875</ele>
        <time>2014-05-19T10:12:23Z</time>
      </trkpt>
      <trkpt lat="44.835520908236504" lon="5.601458502933383">
        <ele>777.5999755859375</ele>
        <time>2014-05-19T10:12:27Z</time>
      </trkpt>
      <trkpt lat="44.835451422259212" lon="5.601286673918366">
        <ele>778.20001220703125</ele>
        <time>2014-05-19T10:12:30Z</time>
      </trkpt>
      <trkpt lat="44.835401382297277" lon="5.6011813133955">
        <ele>778.79998779296875</ele>
        <time>2014-05-19T10:12:32Z</time>
      </trkpt>
      <trkpt lat="44.835252268239856" lon="5.600887779146433">
        <ele>780</ele>
        <time>2014-05-19T10:12:38Z</time>
      </trkpt>
      <trkpt lat="44.835219327360392" lon="5.600845785811544">
        <ele>780.5999755859375</ele>
        <time>2014-05-19T10:12:39Z</time>
      </trkpt>
      <trkpt lat="44.835125366225839" lon="5.600705556571484">
        <ele>779</ele>
        <time>2014-05-19T10:12:42Z</time>
      </trkpt>
      <trkpt lat="44.835060825571418" lon="5.600626431405544">
        <ele>778</ele>
        <time>2014-05-19T10:12:44Z</time>
      </trkpt>
      <trkpt lat="44.834805345162749" lon="5.600290149450302">
        <ele>779.5999755859375</ele>
        <time>2014-05-19T10:12:52Z</time>
      </trkpt>
      <trkpt lat="44.834708282724023" lon="5.600162660703063">
        <ele>780.20001220703125</ele>
        <time>2014-05-19T10:12:55Z</time>
      </trkpt>
      <trkpt lat="44.834608621895313" lon="5.600034752860665">
        <ele>779.20001220703125</ele>
        <time>2014-05-19T10:12:58Z</time>
      </trkpt>
      <trkpt lat="44.83454491943121" lon="5.59995386749506">
        <ele>778.20001220703125</ele>
        <time>2014-05-19T10:13:00Z</time>
      </trkpt>
      <trkpt lat="44.834420112892985" lon="5.599796958267689">
        <ele>779.20001220703125</ele>
        <time>2014-05-19T10:13:04Z</time>
      </trkpt>
      <trkpt lat="44.834336629137397" lon="5.599672487005591">
        <ele>778</ele>
        <time>2014-05-19T10:13:07Z</time>
      </trkpt>
      <trkpt lat="44.834114173427224" lon="5.599323464557529">
        <ele>779</ele>
        <time>2014-05-19T10:13:15Z</time>
      </trkpt>
      <trkpt lat="44.834065642207861" lon="5.599241321906447">
        <ele>779.20001220703125</ele>
        <time>2014-05-19T10:13:17Z</time>
      </trkpt>
      <trkpt lat="44.833940416574478" lon="5.599044263362885">
        <ele>780.5999755859375</ele>
        <time>2014-05-19T10:13:22Z</time>
      </trkpt>
      <trkpt lat="44.83391703106463" lon="5.599006125703454">
        <ele>780.5999755859375</ele>
        <time>2014-05-19T10:13:23Z</time>
      </trkpt>
      <trkpt lat="44.833845198154449" lon="5.598889198154211">
        <ele>781.79998779296875</ele>
        <time>2014-05-19T10:13:26Z</time>
      </trkpt>
      <trkpt lat="44.833774119615555" lon="5.598794734105468">
        <ele>782.4000244140625</ele>
        <time>2014-05-19T10:13:29Z</time>
      </trkpt>
      <trkpt lat="44.833728522062302" lon="5.598732205107808">
        <ele>782.79998779296875</ele>
        <time>2014-05-19T10:13:31Z</time>
      </trkpt>
      <trkpt lat="44.833625676110387" lon="5.598612930625677">
        <ele>783.79998779296875</ele>
        <time>2014-05-19T10:13:35Z</time>
      </trkpt>
      <trkpt lat="44.833598686382174" lon="5.598586946725845">
        <ele>784</ele>
        <time>2014-05-19T10:13:36Z</time>
      </trkpt>
      <trkpt lat="44.833448147401214" lon="5.598449986428022">
        <ele>783.5999755859375</ele>
        <time>2014-05-19T10:13:41Z</time>
      </trkpt>
      <trkpt lat="44.833291992545128" lon="5.598322749137878">
        <ele>785.20001220703125</ele>
        <time>2014-05-19T10:13:46Z</time>
      </trkpt>
      <trkpt lat="44.833203060552478" lon="5.598241947591305">
        <ele>786.5999755859375</ele>
        <time>2014-05-19T10:13:49Z</time>
      </trkpt>
      <trkpt lat="44.833087306469679" lon="5.598127702251077">
        <ele>787.79998779296875</ele>
        <time>2014-05-19T10:13:53Z</time>
      </trkpt>
      <trkpt lat="44.832931905984879" lon="5.597939193248749">
        <ele>788.20001220703125</ele>
        <time>2014-05-19T10:13:59Z</time>
      </trkpt>
      <trkpt lat="44.832826126366854" lon="5.597825618460774">
        <ele>788.79998779296875</ele>
        <time>2014-05-19T10:14:03Z</time>
      </trkpt>
      <trkpt lat="44.832769213244319" lon="5.597768286243081">
        <ele>789</ele>
        <time>2014-05-19T10:14:05Z</time>
      </trkpt>
      <trkpt lat="44.83252203091979" lon="5.59762847609818">
        <ele>789.5999755859375</ele>
        <time>2014-05-19T10:14:13Z</time>
      </trkpt>
      <trkpt lat="44.832487246021628" lon="5.597622189670801">
        <ele>789.79998779296875</ele>
        <time>2014-05-19T10:14:14Z</time>
      </trkpt>
      <trkpt lat="44.8323212005198" lon="5.597638450562954">
        <ele>791</ele>
        <time>2014-05-19T10:14:19Z</time>
      </trkpt>
      <trkpt lat="44.832289684563875" lon="5.59764800593257">
        <ele>791.20001220703125</ele>
        <time>2014-05-19T10:14:20Z</time>
      </trkpt>
      <trkpt lat="44.832082903012633" lon="5.597743643447757">
        <ele>792</ele>
        <time>2014-05-19T10:14:26Z</time>
      </trkpt>
      <trkpt lat="44.831926580518484" lon="5.597926871851087">
        <ele>792.79998779296875</ele>
        <time>2014-05-19T10:14:32Z</time>
      </trkpt>
      <trkpt lat="44.831903111189604" lon="5.597961153835058">
        <ele>793.20001220703125</ele>
        <time>2014-05-19T10:14:33Z</time>
      </trkpt>
      <trkpt lat="44.831816023215652" lon="5.598116386681795">
        <ele>794.20001220703125</ele>
        <time>2014-05-19T10:14:37Z</time>
      </trkpt>
      <trkpt lat="44.831781908869743" lon="5.598198026418686">
        <ele>794.4000244140625</ele>
        <time>2014-05-19T10:14:39Z</time>
      </trkpt>
      <trkpt lat="44.831722648814321" lon="5.598455602303147">
        <ele>795.4000244140625</ele>
        <time>2014-05-19T10:14:45Z</time>
      </trkpt>
      <trkpt lat="44.831705298274755" lon="5.598768834024668">
        <ele>796.20001220703125</ele>
        <time>2014-05-19T10:14:52Z</time>
      </trkpt>
      <trkpt lat="44.83173287473619" lon="5.598919205367565">
        <ele>796.4000244140625</ele>
        <time>2014-05-19T10:14:56Z</time>
      </trkpt>
      <trkpt lat="44.831750812008977" lon="5.59905432164669">
        <ele>797.20001220703125</ele>
        <time>2014-05-19T10:15:00Z</time>
      </trkpt>
      <trkpt lat="44.831766486167908" lon="5.599060272797942">
        <ele>797.5999755859375</ele>
        <time>2014-05-19T10:15:01Z</time>
      </trkpt>
      <trkpt lat="44.831831194460392" lon="5.599132105708122">
        <ele>797.79998779296875</ele>
        <time>2014-05-19T10:17:20Z</time>
      </trkpt>
      <trkpt lat="44.831895148381591" lon="5.599286500364542">
        <ele>797.79998779296875</ele>
        <time>2014-05-19T10:17:25Z</time>
      </trkpt>
      <trkpt lat="44.832005957141519" lon="5.599477523937821">
        <ele>798.79998779296875</ele>
        <time>2014-05-19T10:17:31Z</time>
      </trkpt>
      <trkpt lat="44.83208910562098" lon="5.599580202251673">
        <ele>799.79998779296875</ele>
        <time>2014-05-19T10:17:35Z</time>
      </trkpt>
      <trkpt lat="44.832114586606622" lon="5.599604425951839">
        <ele>800</ele>
        <time>2014-05-19T10:17:36Z</time>
      </trkpt>
      <trkpt lat="44.832188012078404" lon="5.599688831716776">
        <ele>800.79998779296875</ele>
        <time>2014-05-19T10:17:39Z</time>
      </trkpt>
      <trkpt lat="44.832242159172893" lon="5.59974230825901">
        <ele>801</ele>
        <time>2014-05-19T10:17:41Z</time>
      </trkpt>
      <trkpt lat="44.832436786964536" lon="5.599884130060673">
        <ele>801.5999755859375</ele>
        <time>2014-05-19T10:17:48Z</time>
      </trkpt>
      <trkpt lat="44.832487413659692" lon="5.599931571632624">
        <ele>802</ele>
        <time>2014-05-19T10:17:50Z</time>
      </trkpt>
      <trkpt lat="44.832614148035645" lon="5.600057635456324">
        <ele>803</ele>
        <time>2014-05-19T10:17:55Z</time>
      </trkpt>
      <trkpt lat="44.832706768065691" lon="5.600193925201893">
        <ele>804</ele>
        <time>2014-05-19T10:17:59Z</time>
      </trkpt>
      <trkpt lat="44.832756305113435" lon="5.600308254361153">
        <ele>804.5999755859375</ele>
        <time>2014-05-19T10:18:02Z</time>
      </trkpt>
      <trkpt lat="44.83279368840158" lon="5.600416716188192">
        <ele>805.20001220703125</ele>
        <time>2014-05-19T10:18:05Z</time>
      </trkpt>
      <trkpt lat="44.832840962335467" lon="5.600558621808887">
        <ele>806.20001220703125</ele>
        <time>2014-05-19T10:18:09Z</time>
      </trkpt>
      <trkpt lat="44.8328513558954" lon="5.600595083087683">
        <ele>806.4000244140625</ele>
        <time>2014-05-19T10:18:10Z</time>
      </trkpt>
      <trkpt lat="44.832883542403579" lon="5.600733803585172">
        <ele>807.20001220703125</ele>
        <time>2014-05-19T10:18:14Z</time>
      </trkpt>
      <trkpt lat="44.832914471626282" lon="5.600862046703696">
        <ele>807.5999755859375</ele>
        <time>2014-05-19T10:18:18Z</time>
      </trkpt>
      <trkpt lat="44.832952609285712" lon="5.601004455238581">
        <ele>808.4000244140625</ele>
        <time>2014-05-19T10:18:22Z</time>
      </trkpt>
      <trkpt lat="44.832983622327447" lon="5.601187013089657">
        <ele>809</ele>
        <time>2014-05-19T10:18:27Z</time>
      </trkpt>
      <trkpt lat="44.832993261516094" lon="5.601262282580137">
        <ele>809.4000244140625</ele>
        <time>2014-05-19T10:18:29Z</time>
      </trkpt>
      <trkpt lat="44.833013545721769" lon="5.601445343345404">
        <ele>810.4000244140625</ele>
        <time>2014-05-19T10:18:34Z</time>
      </trkpt>
      <trkpt lat="44.833011701703072" lon="5.601475518196821">
        <ele>810.5999755859375</ele>
        <time>2014-05-19T10:18:35Z</time>
      </trkpt>
      <trkpt lat="44.833010192960501" lon="5.601645838469267">
        <ele>811.5999755859375</ele>
        <time>2014-05-19T10:18:40Z</time>
      </trkpt>
      <trkpt lat="44.833009438589215" lon="5.60184633359313">
        <ele>812.4000244140625</ele>
        <time>2014-05-19T10:18:46Z</time>
      </trkpt>
      <trkpt lat="44.833008013665676" lon="5.601883549243212">
        <ele>812.5999755859375</ele>
        <time>2014-05-19T10:18:47Z</time>
      </trkpt>
      <trkpt lat="44.832979347556829" lon="5.602106004953384">
        <ele>813.5999755859375</ele>
        <time>2014-05-19T10:18:53Z</time>
      </trkpt>
      <trkpt lat="44.832970295101404" lon="5.602145316079259">
        <ele>813.5999755859375</ele>
        <time>2014-05-19T10:18:54Z</time>
      </trkpt>
      <trkpt lat="44.832939030602574" lon="5.602359976619482">
        <ele>814.5999755859375</ele>
        <time>2014-05-19T10:19:00Z</time>
      </trkpt>
      <trkpt lat="44.832932576537132" lon="5.602395264431834">
        <ele>814.79998779296875</ele>
        <time>2014-05-19T10:19:01Z</time>
      </trkpt>
      <trkpt lat="44.832889325916767" lon="5.602613780647516">
        <ele>816</ele>
        <time>2014-05-19T10:19:07Z</time>
      </trkpt>
      <trkpt lat="44.832879016175866" lon="5.602648817002773">
        <ele>816</ele>
        <time>2014-05-19T10:19:08Z</time>
      </trkpt>
      <trkpt lat="44.832816990092397" lon="5.602824920788407">
        <ele>817.20001220703125</ele>
        <time>2014-05-19T10:19:13Z</time>
      </trkpt>
      <trkpt lat="44.83279318548739" lon="5.602888455614448">
        <ele>817.5999755859375</ele>
        <time>2014-05-19T10:19:15Z</time>
      </trkpt>
      <trkpt lat="44.832747085019946" lon="5.60302097350359">
        <ele>818.20001220703125</ele>
        <time>2014-05-19T10:19:19Z</time>
      </trkpt>
      <trkpt lat="44.832697547972202" lon="5.603155000135303">
        <ele>819</ele>
        <time>2014-05-19T10:19:23Z</time>
      </trkpt>
      <trkpt lat="44.832669636234641" lon="5.603222725912929">
        <ele>819.4000244140625</ele>
        <time>2014-05-19T10:19:25Z</time>
      </trkpt>
      <trkpt lat="44.832598976790905" lon="5.603420455008745">
        <ele>820.20001220703125</ele>
        <time>2014-05-19T10:19:31Z</time>
      </trkpt>
      <trkpt lat="44.832574333995581" lon="5.60348910279572">
        <ele>820.4000244140625</ele>
        <time>2014-05-19T10:19:33Z</time>
      </trkpt>
      <trkpt lat="44.832498226314783" lon="5.603690352290869">
        <ele>821.20001220703125</ele>
        <time>2014-05-19T10:19:39Z</time>
      </trkpt>
      <trkpt lat="44.832489425316453" lon="5.603725891560316">
        <ele>821.4000244140625</ele>
        <time>2014-05-19T10:19:40Z</time>
      </trkpt>
      <trkpt lat="44.83245019800961" lon="5.603908617049456">
        <ele>823</ele>
        <time>2014-05-19T10:19:45Z</time>
      </trkpt>
      <trkpt lat="44.832434356212616" lon="5.603982293978334">
        <ele>823.4000244140625</ele>
        <time>2014-05-19T10:19:47Z</time>
      </trkpt>
      <trkpt lat="44.832366881892085" lon="5.604316648095846">
        <ele>823.5999755859375</ele>
        <time>2014-05-19T10:19:56Z</time>
      </trkpt>
      <trkpt lat="44.832349447533488" lon="5.604438772425056">
        <ele>824.20001220703125</ele>
        <time>2014-05-19T10:19:59Z</time>
      </trkpt>
      <trkpt lat="44.83233536593616" lon="5.604646056890488">
        <ele>824.79998779296875</ele>
        <time>2014-05-19T10:20:04Z</time>
      </trkpt>
      <trkpt lat="44.83233192935586" lon="5.604686541482806">
        <ele>825.4000244140625</ele>
        <time>2014-05-19T10:20:05Z</time>
      </trkpt>
      <trkpt lat="44.832326648756862" lon="5.604933723807335">
        <ele>826.4000244140625</ele>
        <time>2014-05-19T10:20:11Z</time>
      </trkpt>
      <trkpt lat="44.832329414784908" lon="5.605015866458416">
        <ele>826.79998779296875</ele>
        <time>2014-05-19T10:20:13Z</time>
      </trkpt>
      <trkpt lat="44.83233586885035" lon="5.605219211429358">
        <ele>827.5999755859375</ele>
        <time>2014-05-19T10:20:18Z</time>
      </trkpt>
      <trkpt lat="44.832340814173222" lon="5.605296157300472">
        <ele>827.79998779296875</ele>
        <time>2014-05-19T10:20:20Z</time>
      </trkpt>
      <trkpt lat="44.832367300987244" lon="5.605528336018324">
        <ele>828.79998779296875</ele>
        <time>2014-05-19T10:20:26Z</time>
      </trkpt>
      <trkpt lat="44.832365289330482" lon="5.605617184191942">
        <ele>829.4000244140625</ele>
        <time>2014-05-19T10:20:28Z</time>
      </trkpt>
      <trkpt lat="44.832362690940499" lon="5.605703182518482">
        <ele>830</ele>
        <time>2014-05-19T10:20:30Z</time>
      </trkpt>
      <trkpt lat="44.832365792244673" lon="5.605966793373227">
        <ele>830.79998779296875</ele>
        <time>2014-05-19T10:20:36Z</time>
      </trkpt>
      <trkpt lat="44.832363277673721" lon="5.606007277965546">
        <ele>831.20001220703125</ele>
        <time>2014-05-19T10:20:37Z</time>
      </trkpt>
      <trkpt lat="44.832358080893755" lon="5.606124876067042">
        <ele>832.4000244140625</ele>
        <time>2014-05-19T10:20:40Z</time>
      </trkpt>
      <trkpt lat="44.832339724525809" lon="5.606377338990569">
        <ele>832.4000244140625</ele>
        <time>2014-05-19T10:20:46Z</time>
      </trkpt>
      <trkpt lat="44.832317680120468" lon="5.606654528528452">
        <ele>832.79998779296875</ele>
        <time>2014-05-19T10:20:53Z</time>
      </trkpt>
      <trkpt lat="44.832217264920473" lon="5.606994582340121">
        <ele>832.4000244140625</ele>
        <time>2014-05-19T10:21:01Z</time>
      </trkpt>
      <trkpt lat="44.832069575786591" lon="5.607158448547125">
        <ele>832.4000244140625</ele>
        <time>2014-05-19T10:21:07Z</time>
      </trkpt>
      <trkpt lat="44.831962874159217" lon="5.607212511822581">
        <ele>831.20001220703125</ele>
        <time>2014-05-19T10:21:11Z</time>
      </trkpt>
      <trkpt lat="44.831895399838686" lon="5.607225671410561">
        <ele>831.20001220703125</ele>
        <time>2014-05-19T10:21:14Z</time>
      </trkpt>
      <trkpt lat="44.831747123971581" lon="5.607258444651961">
        <ele>831.5999755859375</ele>
        <time>2014-05-19T10:21:21Z</time>
      </trkpt>
      <trkpt lat="44.831564901396632" lon="5.60723933391273">
        <ele>831.4000244140625</ele>
        <time>2014-05-19T10:21:28Z</time>
      </trkpt>
      <trkpt lat="44.831384439021349" lon="5.607225084677339">
        <ele>832</ele>
        <time>2014-05-19T10:21:34Z</time>
      </trkpt>
      <trkpt lat="44.83113675378263" lon="5.607200944796205">
        <ele>832.20001220703125</ele>
        <time>2014-05-19T10:21:42Z</time>
      </trkpt>
      <trkpt lat="44.831105321645737" lon="5.607194909825921">
        <ele>832.4000244140625</ele>
        <time>2014-05-19T10:21:43Z</time>
      </trkpt>
      <trkpt lat="44.830980431288481" lon="5.607180492952466">
        <ele>831.20001220703125</ele>
        <time>2014-05-19T10:21:47Z</time>
      </trkpt>
      <trkpt lat="44.830919075757265" lon="5.607169847935438">
        <ele>831</ele>
        <time>2014-05-19T10:21:49Z</time>
      </trkpt>
      <trkpt lat="44.830791167914867" lon="5.607157191261649">
        <ele>832.4000244140625</ele>
        <time>2014-05-19T10:21:53Z</time>
      </trkpt>
      <trkpt lat="44.830633336678147" lon="5.607144199311733">
        <ele>832.5999755859375</ele>
        <time>2014-05-19T10:21:58Z</time>
      </trkpt>
      <trkpt lat="44.830352962017059" lon="5.607110420241952">
        <ele>831.79998779296875</ele>
        <time>2014-05-19T10:22:07Z</time>
      </trkpt>
      <trkpt lat="44.830104690045118" lon="5.607011849060655">
        <ele>832.4000244140625</ele>
        <time>2014-05-19T10:22:15Z</time>
      </trkpt>
      <trkpt lat="44.830029755830765" lon="5.606858292594552">
        <ele>833.5999755859375</ele>
        <time>2014-05-19T10:22:19Z</time>
      </trkpt>
      <trkpt lat="44.83001533895731" lon="5.606820238754153">
        <ele>833.79998779296875</ele>
        <time>2014-05-19T10:22:20Z</time>
      </trkpt>
      <trkpt lat="44.829940907657146" lon="5.606586383655667">
        <ele>834.5999755859375</ele>
        <time>2014-05-19T10:22:26Z</time>
      </trkpt>
      <trkpt lat="44.829921294003725" lon="5.60654740780592">
        <ele>834.79998779296875</ele>
        <time>2014-05-19T10:22:27Z</time>
      </trkpt>
      <trkpt lat="44.829837223514915" lon="5.60626644641161">
        <ele>835.4000244140625</ele>
        <time>2014-05-19T10:22:34Z</time>
      </trkpt>
      <trkpt lat="44.82981258071959" lon="5.606187740340829">
        <ele>835.79998779296875</ele>
        <time>2014-05-19T10:22:36Z</time>
      </trkpt>
      <trkpt lat="44.829725325107574" lon="5.605943240225315">
        <ele>836.4000244140625</ele>
        <time>2014-05-19T10:22:42Z</time>
      </trkpt>
      <trkpt lat="44.829673524945974" lon="5.605784486979246">
        <ele>837</ele>
        <time>2014-05-19T10:22:46Z</time>
      </trkpt>
      <trkpt lat="44.829616360366344" lon="5.605622716248035">
        <ele>836</ele>
        <time>2014-05-19T10:22:50Z</time>
      </trkpt>
      <trkpt lat="44.829604038968682" lon="5.6055813934654">
        <ele>837.20001220703125</ele>
        <time>2014-05-19T10:22:51Z</time>
      </trkpt>
      <trkpt lat="44.829550813883543" lon="5.605388022959232">
        <ele>836.5999755859375</ele>
        <time>2014-05-19T10:22:56Z</time>
      </trkpt>
      <trkpt lat="44.829462887719274" lon="5.605062888935208">
        <ele>838</ele>
        <time>2014-05-19T10:23:04Z</time>
      </trkpt>
      <trkpt lat="44.82945148833096" lon="5.605022320523858">
        <ele>838.20001220703125</ele>
        <time>2014-05-19T10:23:05Z</time>
      </trkpt>
      <trkpt lat="44.82935375533998" lon="5.604734905064106">
        <ele>839.20001220703125</ele>
        <time>2014-05-19T10:23:12Z</time>
      </trkpt>
      <trkpt lat="44.829343780875206" lon="5.604693833738565">
        <ele>839.4000244140625</ele>
        <time>2014-05-19T10:23:13Z</time>
      </trkpt>
      <trkpt lat="44.829258872196078" lon="5.60443215072155">
        <ele>840.20001220703125</ele>
        <time>2014-05-19T10:23:20Z</time>
      </trkpt>
      <trkpt lat="44.829246047884226" lon="5.604395857080817">
        <ele>840.5999755859375</ele>
        <time>2014-05-19T10:23:21Z</time>
      </trkpt>
      <trkpt lat="44.829213442280889" lon="5.604284545406699">
        <ele>841.20001220703125</ele>
        <time>2014-05-19T10:23:24Z</time>
      </trkpt>
      <trkpt lat="44.829151919111609" lon="5.60411162674427">
        <ele>842.4000244140625</ele>
        <time>2014-05-19T10:23:29Z</time>
      </trkpt>
      <trkpt lat="44.829073967412114" lon="5.60385262593627">
        <ele>843.4000244140625</ele>
        <time>2014-05-19T10:23:36Z</time>
      </trkpt>
      <trkpt lat="44.828989813104272" lon="5.603602174669504">
        <ele>844.4000244140625</ele>
        <time>2014-05-19T10:23:43Z</time>
      </trkpt>
      <trkpt lat="44.82894673012197" lon="5.603460101410747">
        <ele>845.5999755859375</ele>
        <time>2014-05-19T10:23:47Z</time>
      </trkpt>
      <trkpt lat="44.828861402347684" lon="5.603183833882213">
        <ele>846.5999755859375</ele>
        <time>2014-05-19T10:23:55Z</time>
      </trkpt>
      <trkpt lat="44.828835921362042" lon="5.60311920940876">
        <ele>847</ele>
        <time>2014-05-19T10:23:57Z</time>
      </trkpt>
      <trkpt lat="44.828801974654198" lon="5.603014519438148">
        <ele>847.5999755859375</ele>
        <time>2014-05-19T10:24:00Z</time>
      </trkpt>
      <trkpt lat="44.828746151179075" lon="5.602808827534318">
        <ele>848.20001220703125</ele>
        <time>2014-05-19T10:24:06Z</time>
      </trkpt>
      <trkpt lat="44.828724106773734" lon="5.602740431204438">
        <ele>848.5999755859375</ele>
        <time>2014-05-19T10:24:08Z</time>
      </trkpt>
      <trkpt lat="44.828654369339347" lon="5.602541109547019">
        <ele>850</ele>
        <time>2014-05-19T10:24:14Z</time>
      </trkpt>
      <trkpt lat="44.828607514500618" lon="5.602368861436844">
        <ele>851</ele>
        <time>2014-05-19T10:24:19Z</time>
      </trkpt>
      <trkpt lat="44.828580608591437" lon="5.602256208658218">
        <ele>851.20001220703125</ele>
        <time>2014-05-19T10:24:22Z</time>
      </trkpt>
      <trkpt lat="44.828559318557382" lon="5.602103993296623">
        <ele>852.20001220703125</ele>
        <time>2014-05-19T10:24:26Z</time>
      </trkpt>
      <trkpt lat="44.828538531437516" lon="5.601919423788786">
        <ele>852.79998779296875</ele>
        <time>2014-05-19T10:24:31Z</time>
      </trkpt>
      <trkpt lat="44.828537525609136" lon="5.601844908669591">
        <ele>853.4000244140625</ele>
        <time>2014-05-19T10:24:33Z</time>
      </trkpt>
      <trkpt lat="44.828552696853876" lon="5.601604767143726">
        <ele>854.4000244140625</ele>
        <time>2014-05-19T10:24:39Z</time>
      </trkpt>
      <trkpt lat="44.828591253608465" lon="5.601358506828547">
        <ele>855.20001220703125</ele>
        <time>2014-05-19T10:24:46Z</time>
      </trkpt>
      <trkpt lat="44.828600054606795" lon="5.601325398311019">
        <ele>855.4000244140625</ele>
        <time>2014-05-19T10:24:47Z</time>
      </trkpt>
      <trkpt lat="44.82861053198576" lon="5.601292457431555">
        <ele>855.79998779296875</ele>
        <time>2014-05-19T10:24:48Z</time>
      </trkpt>
      <trkpt lat="44.828663840889931" lon="5.601078970357776">
        <ele>856.5999755859375</ele>
        <time>2014-05-19T10:24:55Z</time>
      </trkpt>
      <trkpt lat="44.828670965507627" lon="5.601050220429897">
        <ele>856.79998779296875</ele>
        <time>2014-05-19T10:24:56Z</time>
      </trkpt>
      <trkpt lat="44.828718909993768" lon="5.6008964125067">
        <ele>857.79998779296875</ele>
        <time>2014-05-19T10:25:01Z</time>
      </trkpt>
      <trkpt lat="44.828726034611464" lon="5.600865567103028">
        <ele>858</ele>
        <time>2014-05-19T10:25:02Z</time>
      </trkpt>
      <trkpt lat="44.828772135078907" lon="5.600617546588182">
        <ele>859</ele>
        <time>2014-05-19T10:25:10Z</time>
      </trkpt>
      <trkpt lat="44.828775739297271" lon="5.600582594051957">
        <ele>859.20001220703125</ele>
        <time>2014-05-19T10:25:11Z</time>
      </trkpt>
      <trkpt lat="44.828788479790092" lon="5.600381344556809">
        <ele>860</ele>
        <time>2014-05-19T10:25:17Z</time>
      </trkpt>
      <trkpt lat="44.828792000189424" lon="5.600347146391869">
        <ele>860.20001220703125</ele>
        <time>2014-05-19T10:25:18Z</time>
      </trkpt>
      <trkpt lat="44.828797029331326" lon="5.600065933540463">
        <ele>861.20001220703125</ele>
        <time>2014-05-19T10:25:26Z</time>
      </trkpt>
      <trkpt lat="44.828784624114633" lon="5.599823361262679">
        <ele>862.20001220703125</ele>
        <time>2014-05-19T10:25:33Z</time>
      </trkpt>
      <trkpt lat="44.828772721812129" lon="5.599622195586562">
        <ele>863.4000244140625</ele>
        <time>2014-05-19T10:25:39Z</time>
      </trkpt>
      <trkpt lat="44.828762412071228" lon="5.599552290514112">
        <ele>863.5999755859375</ele>
        <time>2014-05-19T10:25:41Z</time>
      </trkpt>
      <trkpt lat="44.828738691285253" lon="5.599367804825306">
        <ele>864.4000244140625</ele>
        <time>2014-05-19T10:25:46Z</time>
      </trkpt>
      <trkpt lat="44.828733243048191" lon="5.599333019927144">
        <ele>864.5999755859375</ele>
        <time>2014-05-19T10:25:47Z</time>
      </trkpt>
      <trkpt lat="44.828692674636841" lon="5.599172255024314">
        <ele>865.4000244140625</ele>
        <time>2014-05-19T10:25:52Z</time>
      </trkpt>
      <trkpt lat="44.828672893345356" lon="5.599101763218641">
        <ele>865.5999755859375</ele>
        <time>2014-05-19T10:25:54Z</time>
      </trkpt>
      <trkpt lat="44.82859343290329" lon="5.598848545923829">
        <ele>866.4000244140625</ele>
        <time>2014-05-19T10:26:02Z</time>
      </trkpt>
      <trkpt lat="44.828584967181087" lon="5.598819209262729">
        <ele>866.4000244140625</ele>
        <time>2014-05-19T10:26:03Z</time>
      </trkpt>
      <trkpt lat="44.828507183119655" lon="5.598641177639365">
        <ele>867.4000244140625</ele>
        <time>2014-05-19T10:26:09Z</time>
      </trkpt>
      <trkpt lat="44.828495029360056" lon="5.598611254245043">
        <ele>867.5999755859375</ele>
        <time>2014-05-19T10:26:10Z</time>
      </trkpt>
      <trkpt lat="44.828420011326671" lon="5.598435234278441">
        <ele>868.5999755859375</ele>
        <time>2014-05-19T10:26:16Z</time>
      </trkpt>
      <trkpt lat="44.828333258628845" lon="5.598270110785961">
        <ele>869.5999755859375</ele>
        <time>2014-05-19T10:26:22Z</time>
      </trkpt>
      <trkpt lat="44.828322026878595" lon="5.59824169613421">
        <ele>869.79998779296875</ele>
        <time>2014-05-19T10:26:23Z</time>
      </trkpt>
      <trkpt lat="44.828259749338031" lon="5.598088223487139">
        <ele>870.20001220703125</ele>
        <time>2014-05-19T10:26:28Z</time>
      </trkpt>
      <trkpt lat="44.82821867801249" lon="5.59800130315125">
        <ele>870.79998779296875</ele>
        <time>2014-05-19T10:26:31Z</time>
      </trkpt>
      <trkpt lat="44.828141899779439" lon="5.597853194922209">
        <ele>871.20001220703125</ele>
        <time>2014-05-19T10:26:36Z</time>
      </trkpt>
      <trkpt lat="44.82808431610465" lon="5.59774037450552">
        <ele>871.79998779296875</ele>
        <time>2014-05-19T10:26:40Z</time>
      </trkpt>
      <trkpt lat="44.82802564278245" lon="5.59762654826045">
        <ele>872.20001220703125</ele>
        <time>2014-05-19T10:26:44Z</time>
      </trkpt>
      <trkpt lat="44.827959090471268" lon="5.597483636811376">
        <ele>873</ele>
        <time>2014-05-19T10:26:49Z</time>
      </trkpt>
      <trkpt lat="44.827917516231537" lon="5.597403002902865">
        <ele>873.4000244140625</ele>
        <time>2014-05-19T10:26:52Z</time>
      </trkpt>
      <trkpt lat="44.827861441299319" lon="5.597295211628079">
        <ele>874</ele>
        <time>2014-05-19T10:26:56Z</time>
      </trkpt>
      <trkpt lat="44.827778292819858" lon="5.597136626020074">
        <ele>874.79998779296875</ele>
        <time>2014-05-19T10:27:02Z</time>
      </trkpt>
      <trkpt lat="44.827764462679625" lon="5.597108798101544">
        <ele>875</ele>
        <time>2014-05-19T10:27:03Z</time>
      </trkpt>
      <trkpt lat="44.827676620334387" lon="5.596948033198714">
        <ele>875.79998779296875</ele>
        <time>2014-05-19T10:27:09Z</time>
      </trkpt>
      <trkpt lat="44.827661365270615" lon="5.596920540556312">
        <ele>876</ele>
        <time>2014-05-19T10:27:10Z</time>
      </trkpt>
      <trkpt lat="44.827561369165778" lon="5.596706550568342">
        <ele>877.20001220703125</ele>
        <time>2014-05-19T10:27:18Z</time>
      </trkpt>
      <trkpt lat="44.827548461034894" lon="5.596678303554654">
        <ele>877.20001220703125</ele>
        <time>2014-05-19T10:27:19Z</time>
      </trkpt>
      <trkpt lat="44.827479813247919" lon="5.596538744866848">
        <ele>878.20001220703125</ele>
        <time>2014-05-19T10:27:24Z</time>
      </trkpt>
      <trkpt lat="44.827449973672628" lon="5.59648510068655">
        <ele>878.5999755859375</ele>
        <time>2014-05-19T10:27:26Z</time>
      </trkpt>
      <trkpt lat="44.827371602877975" lon="5.596312182024121">
        <ele>879.4000244140625</ele>
        <time>2014-05-19T10:27:32Z</time>
      </trkpt>
      <trkpt lat="44.827326089143753" lon="5.596227524802089">
        <ele>879.5999755859375</ele>
        <time>2014-05-19T10:27:35Z</time>
      </trkpt>
      <trkpt lat="44.827280575409532" lon="5.59611571021378">
        <ele>880.5999755859375</ele>
        <time>2014-05-19T10:27:39Z</time>
      </trkpt>
      <trkpt lat="44.82724042609334" lon="5.596008924767375">
        <ele>881</ele>
        <time>2014-05-19T10:27:43Z</time>
      </trkpt>
      <trkpt lat="44.827164066955447" lon="5.595854530110955">
        <ele>881.5999755859375</ele>
        <time>2014-05-19T10:27:49Z</time>
      </trkpt>
      <trkpt lat="44.827063232660294" lon="5.595594355836511">
        <ele>882.5999755859375</ele>
        <time>2014-05-19T10:27:57Z</time>
      </trkpt>
      <trkpt lat="44.827051078900695" lon="5.595526210963726">
        <ele>882.79998779296875</ele>
        <time>2014-05-19T10:27:59Z</time>
      </trkpt>
      <trkpt lat="44.827021658420563" lon="5.595299312844873">
        <ele>884</ele>
        <time>2014-05-19T10:28:05Z</time>
      </trkpt>
      <trkpt lat="44.827014533802867" lon="5.595261678099632">
        <ele>884</ele>
        <time>2014-05-19T10:28:06Z</time>
      </trkpt>
      <trkpt lat="44.826978407800198" lon="5.595075767487288">
        <ele>885</ele>
        <time>2014-05-19T10:28:11Z</time>
      </trkpt>
      <trkpt lat="44.826975725591183" lon="5.595005862414837">
        <ele>885.20001220703125</ele>
        <time>2014-05-19T10:28:13Z</time>
      </trkpt>
      <trkpt lat="44.826970193535089" lon="5.594823304563761">
        <ele>886</ele>
        <time>2014-05-19T10:28:18Z</time>
      </trkpt>
      <trkpt lat="44.826959213241935" lon="5.594713417813182">
        <ele>886.4000244140625</ele>
        <time>2014-05-19T10:28:21Z</time>
      </trkpt>
      <trkpt lat="44.826938342303038" lon="5.594453578814864">
        <ele>887</ele>
        <time>2014-05-19T10:28:28Z</time>
      </trkpt>
      <trkpt lat="44.826931385323405" lon="5.594414602965117">
        <ele>887.20001220703125</ele>
        <time>2014-05-19T10:28:29Z</time>
      </trkpt>
      <trkpt lat="44.826900959014893" lon="5.594243528321385">
        <ele>888.20001220703125</ele>
        <time>2014-05-19T10:28:34Z</time>
      </trkpt>
      <trkpt lat="44.826891487464309" lon="5.594175383448601">
        <ele>888.4000244140625</ele>
        <time>2014-05-19T10:28:36Z</time>
      </trkpt>
      <trkpt lat="44.826846225187182" lon="5.593876736238599">
        <ele>889</ele>
        <time>2014-05-19T10:28:43Z</time>
      </trkpt>
      <trkpt lat="44.826841615140438" lon="5.59361488558352">
        <ele>889</ele>
        <time>2014-05-19T10:28:48Z</time>
      </trkpt>
      <trkpt lat="44.826840944588184" lon="5.593554452061653">
        <ele>889</ele>
        <time>2014-05-19T10:28:49Z</time>
      </trkpt>
      <trkpt lat="44.826821833848953" lon="5.593311879783869">
        <ele>889.20001220703125</ele>
        <time>2014-05-19T10:28:53Z</time>
      </trkpt>
      <trkpt lat="44.826817223802209" lon="5.592967718839645">
        <ele>889.4000244140625</ele>
        <time>2014-05-19T10:28:59Z</time>
      </trkpt>
      <trkpt lat="44.82681923545897" lon="5.592846851795912">
        <ele>889.5999755859375</ele>
        <time>2014-05-19T10:29:01Z</time>
      </trkpt>
      <trkpt lat="44.826799286529422" lon="5.592650212347508">
        <ele>889.79998779296875</ele>
        <time>2014-05-19T10:29:04Z</time>
      </trkpt>
      <trkpt lat="44.826757628470659" lon="5.592418368905783">
        <ele>889.79998779296875</ele>
        <time>2014-05-19T10:29:07Z</time>
      </trkpt>
      <trkpt lat="44.82671270146966" lon="5.592188788577914">
        <ele>890</ele>
        <time>2014-05-19T10:29:10Z</time>
      </trkpt>
      <trkpt lat="44.826682778075337" lon="5.592040931805968">
        <ele>890.4000244140625</ele>
        <time>2014-05-19T10:29:12Z</time>
      </trkpt>
      <trkpt lat="44.826652267947793" lon="5.591836329549551">
        <ele>890.5999755859375</ele>
        <time>2014-05-19T10:29:15Z</time>
      </trkpt>
      <trkpt lat="44.826632821932435" lon="5.591719737276435">
        <ele>890.20001220703125</ele>
        <time>2014-05-19T10:29:17Z</time>
      </trkpt>
      <trkpt lat="44.82662184163928" lon="5.591660980135202">
        <ele>890.20001220703125</ele>
        <time>2014-05-19T10:29:18Z</time>
      </trkpt>
      <trkpt lat="44.826545063406229" lon="5.591341378167272">
        <ele>890.79998779296875</ele>
        <time>2014-05-19T10:29:23Z</time>
      </trkpt>
      <trkpt lat="44.82636921107769" lon="5.59080770239234">
        <ele>891</ele>
        <time>2014-05-19T10:29:31Z</time>
      </trkpt>
      <trkpt lat="44.826320679858327" lon="5.590622713789344">
        <ele>891.20001220703125</ele>
        <time>2014-05-19T10:29:34Z</time>
      </trkpt>
      <trkpt lat="44.826300144195557" lon="5.590569321066141">
        <ele>891.4000244140625</ele>
        <time>2014-05-19T10:29:35Z</time>
      </trkpt>
      <trkpt lat="44.826252786442637" lon="5.590467397123575">
        <ele>891.79998779296875</ele>
        <time>2014-05-19T10:29:37Z</time>
      </trkpt>
      <trkpt lat="44.826087495312095" lon="5.590181322768331">
        <ele>892.4000244140625</ele>
        <time>2014-05-19T10:29:43Z</time>
      </trkpt>
      <trkpt lat="44.825957324355841" lon="5.589950317516923">
        <ele>893.5999755859375</ele>
        <time>2014-05-19T10:29:48Z</time>
      </trkpt>
      <trkpt lat="44.825929747894406" lon="5.589910000562668">
        <ele>893.79998779296875</ele>
        <time>2014-05-19T10:29:49Z</time>
      </trkpt>
      <trkpt lat="44.825819274410605" lon="5.58968192897737">
        <ele>894.5999755859375</ele>
        <time>2014-05-19T10:29:54Z</time>
      </trkpt>
      <trkpt lat="44.825795302167535" lon="5.589633565396071">
        <ele>894.79998779296875</ele>
        <time>2014-05-19T10:29:55Z</time>
      </trkpt>
      <trkpt lat="44.825676698237658" lon="5.589395435526967">
        <ele>895.79998779296875</ele>
        <time>2014-05-19T10:30:01Z</time>
      </trkpt>
      <trkpt lat="44.825537977740169" lon="5.589140458032489">
        <ele>896.5999755859375</ele>
        <time>2014-05-19T10:30:07Z</time>
      </trkpt>
      <trkpt lat="44.825495313853025" lon="5.589052783325315">
        <ele>896.79998779296875</ele>
        <time>2014-05-19T10:30:09Z</time>
      </trkpt>
      <trkpt lat="44.825343769043684" lon="5.588787160813808">
        <ele>898</ele>
        <time>2014-05-19T10:30:15Z</time>
      </trkpt>
      <trkpt lat="44.825207563117146" lon="5.588577864691615">
        <ele>898.4000244140625</ele>
        <time>2014-05-19T10:30:21Z</time>
      </trkpt>
      <trkpt lat="44.825187111273408" lon="5.588554395362735">
        <ele>898.5999755859375</ele>
        <time>2014-05-19T10:30:22Z</time>
      </trkpt>
      <trkpt lat="44.825136065483093" lon="5.588479796424508">
        <ele>899</ele>
        <time>2014-05-19T10:30:25Z</time>
      </trkpt>
      <trkpt lat="44.825123324990273" lon="5.588456159457564">
        <ele>899</ele>
        <time>2014-05-19T10:30:26Z</time>
      </trkpt>
      <trkpt lat="44.825010672211647" lon="5.588323809206486">
        <ele>899.4000244140625</ele>
        <time>2014-05-19T10:30:31Z</time>
      </trkpt>
      <trkpt lat="44.824919477105141" lon="5.58818819001317">
        <ele>899.79998779296875</ele>
        <time>2014-05-19T10:30:36Z</time>
      </trkpt>
      <trkpt lat="44.824819732457399" lon="5.588080398738384">
        <ele>900.20001220703125</ele>
        <time>2014-05-19T10:30:51Z</time>
      </trkpt>
      <trkpt lat="44.824756532907486" lon="5.588017115369439">
        <ele>900.4000244140625</ele>
        <time>2014-05-19T10:30:56Z</time>
      </trkpt>
      <trkpt lat="44.824674809351563" lon="5.587972356006503">
        <ele>901</ele>
        <time>2014-05-19T10:30:59Z</time>
      </trkpt>
      <trkpt lat="44.824644885957241" lon="5.587959364056587">
        <ele>901.20001220703125</ele>
        <time>2014-05-19T10:31:00Z</time>
      </trkpt>
      <trkpt lat="44.824503231793642" lon="5.587835144251585">
        <ele>902.20001220703125</ele>
        <time>2014-05-19T10:31:06Z</time>
      </trkpt>
      <trkpt lat="44.824485378339887" lon="5.587800778448582">
        <ele>902.4000244140625</ele>
        <time>2014-05-19T10:31:07Z</time>
      </trkpt>
      <trkpt lat="44.82441958039999" lon="5.587619310244918">
        <ele>903</ele>
        <time>2014-05-19T10:31:12Z</time>
      </trkpt>
      <trkpt lat="44.824361661449075" lon="5.58735896833241">
        <ele>903.5999755859375</ele>
        <time>2014-05-19T10:31:18Z</time>
      </trkpt>
      <trkpt lat="44.824314219877124" lon="5.587088568136096">
        <ele>904.20001220703125</ele>
        <time>2014-05-19T10:31:24Z</time>
      </trkpt>
      <trkpt lat="44.824266862124205" lon="5.586910201236606">
        <ele>904.5999755859375</ele>
        <time>2014-05-19T10:31:28Z</time>
      </trkpt>
      <trkpt lat="44.824245823547244" lon="5.586735606193543">
        <ele>905</ele>
        <time>2014-05-19T10:31:32Z</time>
      </trkpt>
      <trkpt lat="44.824206009507179" lon="5.586510887369514">
        <ele>905.5999755859375</ele>
        <time>2014-05-19T10:31:37Z</time>
      </trkpt>
      <trkpt lat="44.824171140789986" lon="5.586367473006249">
        <ele>906.4000244140625</ele>
        <time>2014-05-19T10:31:40Z</time>
      </trkpt>
      <trkpt lat="44.824151778593659" lon="5.586278457194567">
        <ele>906.79998779296875</ele>
        <time>2014-05-19T10:31:42Z</time>
      </trkpt>
      <trkpt lat="44.824117161333561" lon="5.586143424734473">
        <ele>907.4000244140625</ele>
        <time>2014-05-19T10:31:45Z</time>
      </trkpt>
      <trkpt lat="44.824060164391994" lon="5.585964722558856">
        <ele>907.79998779296875</ele>
        <time>2014-05-19T10:31:49Z</time>
      </trkpt>
      <trkpt lat="44.824026636779308" lon="5.585873108357191">
        <ele>908</ele>
        <time>2014-05-19T10:31:51Z</time>
      </trkpt>
      <trkpt lat="44.823928400874138" lon="5.585587536916137">
        <ele>908.79998779296875</ele>
        <time>2014-05-19T10:31:57Z</time>
      </trkpt>
      <trkpt lat="44.823826979845762" lon="5.585239185020328">
        <ele>908.79998779296875</ele>
        <time>2014-05-19T10:32:04Z</time>
      </trkpt>
      <trkpt lat="44.823814490810037" lon="5.585189312696457">
        <ele>908.79998779296875</ele>
        <time>2014-05-19T10:32:05Z</time>
      </trkpt>
      <trkpt lat="44.823755733668804" lon="5.584979597479105">
        <ele>909.4000244140625</ele>
        <time>2014-05-19T10:32:09Z</time>
      </trkpt>
      <trkpt lat="44.823725307360291" lon="5.584879852831364">
        <ele>909.4000244140625</ele>
        <time>2014-05-19T10:32:11Z</time>
      </trkpt>
      <trkpt lat="44.823633609339595" lon="5.584567962214351">
        <ele>909.4000244140625</ele>
        <time>2014-05-19T10:32:17Z</time>
      </trkpt>
      <trkpt lat="44.82351123355329" lon="5.584302842617035">
        <ele>909.5999755859375</ele>
        <time>2014-05-19T10:32:23Z</time>
      </trkpt>
      <trkpt lat="44.823443172499537" lon="5.584168396890163">
        <ele>910</ele>
        <time>2014-05-19T10:32:26Z</time>
      </trkpt>
      <trkpt lat="44.823393886908889" lon="5.584070244804025">
        <ele>910.20001220703125</ele>
        <time>2014-05-19T10:32:28Z</time>
      </trkpt>
      <trkpt lat="44.823319623246789" lon="5.583912581205368">
        <ele>910.4000244140625</ele>
        <time>2014-05-19T10:32:31Z</time>
      </trkpt>
      <trkpt lat="44.823248712345958" lon="5.583746284246445">
        <ele>910.20001220703125</ele>
        <time>2014-05-19T10:32:34Z</time>
      </trkpt>
      <trkpt lat="44.82306657359004" lon="5.583466915413737">
        <ele>909.79998779296875</ele>
        <time>2014-05-19T10:32:40Z</time>
      </trkpt>
      <trkpt lat="44.822826683521271" lon="5.583298522979021">
        <ele>909.5999755859375</ele>
        <time>2014-05-19T10:32:46Z</time>
      </trkpt>
      <trkpt lat="44.822785444557667" lon="5.583275891840458">
        <ele>910</ele>
        <time>2014-05-19T10:32:47Z</time>
      </trkpt>
      <trkpt lat="44.822625517845154" lon="5.583192072808743">
        <ele>909.79998779296875</ele>
        <time>2014-05-19T10:32:51Z</time>
      </trkpt>
      <trkpt lat="44.822465172037482" lon="5.583063578233123">
        <ele>911</ele>
        <time>2014-05-19T10:32:55Z</time>
      </trkpt>
      <trkpt lat="44.82234732247889" lon="5.582946566864848">
        <ele>911.4000244140625</ele>
        <time>2014-05-19T10:32:58Z</time>
      </trkpt>
      <trkpt lat="44.822314046323299" lon="5.582904489710927">
        <ele>911.5999755859375</ele>
        <time>2014-05-19T10:32:59Z</time>
      </trkpt>
      <trkpt lat="44.822252690792084" lon="5.582818072289228">
        <ele>912</ele>
        <time>2014-05-19T10:33:01Z</time>
      </trkpt>
      <trkpt lat="44.822144061326981" lon="5.582611793652177">
        <ele>912.79998779296875</ele>
        <time>2014-05-19T10:33:06Z</time>
      </trkpt>
      <trkpt lat="44.822101313620806" lon="5.582533422857523">
        <ele>913.20001220703125</ele>
        <time>2014-05-19T10:33:08Z</time>
      </trkpt>
      <trkpt lat="44.82195052318275" lon="5.582366790622473">
        <ele>913.79998779296875</ele>
        <time>2014-05-19T10:33:14Z</time>
      </trkpt>
      <trkpt lat="44.821871146559715" lon="5.58231339789927">
        <ele>914.20001220703125</ele>
        <time>2014-05-19T10:33:17Z</time>
      </trkpt>
      <trkpt lat="44.821728654205799" lon="5.58223913423717">
        <ele>914.4000244140625</ele>
        <time>2014-05-19T10:33:22Z</time>
      </trkpt>
      <trkpt lat="44.821594459936023" lon="5.582186076790094">
        <ele>915.4000244140625</ele>
        <time>2014-05-19T10:33:27Z</time>
      </trkpt>
      <trkpt lat="44.821536960080266" lon="5.582165541127324">
        <ele>916</ele>
        <time>2014-05-19T10:33:29Z</time>
      </trkpt>
      <trkpt lat="44.821479208767414" lon="5.582138132303953">
        <ele>916.5999755859375</ele>
        <time>2014-05-19T10:33:31Z</time>
      </trkpt>
      <trkpt lat="44.821283994242549" lon="5.58204366825521">
        <ele>917.5999755859375</ele>
        <time>2014-05-19T10:33:38Z</time>
      </trkpt>
      <trkpt lat="44.82113060541451" lon="5.581962279975414">
        <ele>918.5999755859375</ele>
        <time>2014-05-19T10:33:43Z</time>
      </trkpt>
      <trkpt lat="44.821045026183128" lon="5.581909054890275">
        <ele>919.4000244140625</ele>
        <time>2014-05-19T10:33:46Z</time>
      </trkpt>
      <trkpt lat="44.820831958204508" lon="5.581789361312985">
        <ele>919.79998779296875</ele>
        <time>2014-05-19T10:33:53Z</time>
      </trkpt>
      <trkpt lat="44.820701954886317" lon="5.581737728789449">
        <ele>921</ele>
        <time>2014-05-19T10:33:57Z</time>
      </trkpt>
      <trkpt lat="44.820584356784821" lon="5.581718701869249">
        <ele>921.79998779296875</ele>
        <time>2014-05-19T10:34:01Z</time>
      </trkpt>
      <trkpt lat="44.820556361228228" lon="5.581721970811486">
        <ele>922</ele>
        <time>2014-05-19T10:34:02Z</time>
      </trkpt>
      <trkpt lat="44.820418227463961" lon="5.581783745437861">
        <ele>922.5999755859375</ele>
        <time>2014-05-19T10:34:07Z</time>
      </trkpt>
      <trkpt lat="44.820357458665967" lon="5.581852309405804">
        <ele>923.20001220703125</ele>
        <time>2014-05-19T10:34:10Z</time>
      </trkpt>
      <trkpt lat="44.820328373461962" lon="5.581921879202128">
        <ele>923</ele>
        <time>2014-05-19T10:34:12Z</time>
      </trkpt>
      <trkpt lat="44.820228796452284" lon="5.582192530855537">
        <ele>924</ele>
        <time>2014-05-19T10:34:19Z</time>
      </trkpt>
      <trkpt lat="44.820219241082668" lon="5.582228405401111">
        <ele>924.20001220703125</ele>
        <time>2014-05-19T10:34:20Z</time>
      </trkpt>
      <trkpt lat="44.820135254412889" lon="5.582518000155687">
        <ele>924.5999755859375</ele>
        <time>2014-05-19T10:34:27Z</time>
      </trkpt>
      <trkpt lat="44.820092506706715" lon="5.582639873027802">
        <ele>925</ele>
        <time>2014-05-19T10:34:30Z</time>
      </trkpt>
      <trkpt lat="44.820050094276667" lon="5.582748586311936">
        <ele>925.20001220703125</ele>
        <time>2014-05-19T10:34:33Z</time>
      </trkpt>
      <trkpt lat="44.82001262716949" lon="5.582818239927292">
        <ele>925.5999755859375</ele>
        <time>2014-05-19T10:34:35Z</time>
      </trkpt>
      <trkpt lat="44.819863429293036" lon="5.582964923232794">
        <ele>926.20001220703125</ele>
        <time>2014-05-19T10:34:41Z</time>
      </trkpt>
      <trkpt lat="44.819836020469666" lon="5.582978082820773">
        <ele>926.4000244140625</ele>
        <time>2014-05-19T10:34:42Z</time>
      </trkpt>
      <trkpt lat="44.819704424589872" lon="5.582992164418101">
        <ele>927</ele>
        <time>2014-05-19T10:34:46Z</time>
      </trkpt>
      <trkpt lat="44.819569895043969" lon="5.582976322621107">
        <ele>927.4000244140625</ele>
        <time>2014-05-19T10:34:50Z</time>
      </trkpt>
      <trkpt lat="44.819466797634959" lon="5.582944806665182">
        <ele>928.20001220703125</ele>
        <time>2014-05-19T10:34:53Z</time>
      </trkpt>
      <trkpt lat="44.819302931427956" lon="5.582905914634466">
        <ele>928.5999755859375</ele>
        <time>2014-05-19T10:34:58Z</time>
      </trkpt>
      <trkpt lat="44.819209892302752" lon="5.582872638478875">
        <ele>929.79998779296875</ele>
        <time>2014-05-19T10:35:01Z</time>
      </trkpt>
      <trkpt lat="44.818951226770878" lon="5.582759650424123">
        <ele>929</ele>
        <time>2014-05-19T10:35:10Z</time>
      </trkpt>
      <trkpt lat="44.818739667534828" lon="5.582718998193741">
        <ele>930.79998779296875</ele>
        <time>2014-05-19T10:35:17Z</time>
      </trkpt>
      <trkpt lat="44.818468177691102" lon="5.582690834999085">
        <ele>931.4000244140625</ele>
        <time>2014-05-19T10:35:25Z</time>
      </trkpt>
      <trkpt lat="44.818268939852715" lon="5.582691337913275">
        <ele>932</ele>
        <time>2014-05-19T10:35:31Z</time>
      </trkpt>
      <trkpt lat="44.818199118599296" lon="5.582688907161355">
        <ele>932.4000244140625</ele>
        <time>2014-05-19T10:35:33Z</time>
      </trkpt>
      <trkpt lat="44.817909942939878" lon="5.582682201638818">
        <ele>932.5999755859375</ele>
        <time>2014-05-19T10:35:41Z</time>
      </trkpt>
      <trkpt lat="44.817640548571944" lon="5.582624953240156">
        <ele>932.79998779296875</ele>
        <time>2014-05-19T10:35:49Z</time>
      </trkpt>
      <trkpt lat="44.817607942968607" lon="5.58261095546186">
        <ele>933.20001220703125</ele>
        <time>2014-05-19T10:35:50Z</time>
      </trkpt>
      <trkpt lat="44.817425552755594" lon="5.582488747313619">
        <ele>933.79998779296875</ele>
        <time>2014-05-19T10:35:56Z</time>
      </trkpt>
      <trkpt lat="44.817370399832726" lon="5.582445496693254">
        <ele>934.5999755859375</ele>
        <time>2014-05-19T10:35:58Z</time>
      </trkpt>
      <trkpt lat="44.817134868353605" lon="5.582284815609455">
        <ele>935.5999755859375</ele>
        <time>2014-05-19T10:36:06Z</time>
      </trkpt>
      <trkpt lat="44.816873269155622" lon="5.582082476466894">
        <ele>936.79998779296875</ele>
        <time>2014-05-19T10:36:15Z</time>
      </trkpt>
      <trkpt lat="44.816813338547945" lon="5.582045176997781">
        <ele>937</ele>
        <time>2014-05-19T10:36:17Z</time>
      </trkpt>
      <trkpt lat="44.81656925752759" lon="5.581870749592781">
        <ele>937.79998779296875</ele>
        <time>2014-05-19T10:36:26Z</time>
      </trkpt>
      <trkpt lat="44.816347472369671" lon="5.581720042973757">
        <ele>939</ele>
        <time>2014-05-19T10:36:34Z</time>
      </trkpt>
      <trkpt lat="44.816287206485868" lon="5.581691460683942">
        <ele>939.79998779296875</ele>
        <time>2014-05-19T10:36:36Z</time>
      </trkpt>
      <trkpt lat="44.816256361082196" lon="5.581677295267582">
        <ele>940.20001220703125</ele>
        <time>2014-05-19T10:36:37Z</time>
      </trkpt>
      <trkpt lat="44.816082185134292" lon="5.581602696329355">
        <ele>941.4000244140625</ele>
        <time>2014-05-19T10:36:43Z</time>
      </trkpt>
      <trkpt lat="44.816051591187716" lon="5.581598421558738">
        <ele>941.5999755859375</ele>
        <time>2014-05-19T10:36:44Z</time>
      </trkpt>
      <trkpt lat="44.815886467695236" lon="5.58156724087894">
        <ele>942.20001220703125</ele>
        <time>2014-05-19T10:36:49Z</time>
      </trkpt>
      <trkpt lat="44.815728301182389" lon="5.581551985815167">
        <ele>942.4000244140625</ele>
        <time>2014-05-19T10:36:54Z</time>
      </trkpt>
      <trkpt lat="44.815636100247502" lon="5.581540586426854">
        <ele>942.4000244140625</ele>
        <time>2014-05-19T10:36:57Z</time>
      </trkpt>
      <trkpt lat="44.815394785255194" lon="5.581537485122681">
        <ele>943.4000244140625</ele>
        <time>2014-05-19T10:37:05Z</time>
      </trkpt>
      <trkpt lat="44.815365113317966" lon="5.581534635275602">
        <ele>943.5999755859375</ele>
        <time>2014-05-19T10:37:06Z</time>
      </trkpt>
      <trkpt lat="44.815216502174735" lon="5.581524576991797">
        <ele>944.79998779296875</ele>
        <time>2014-05-19T10:37:11Z</time>
      </trkpt>
      <trkpt lat="44.815132515504956" lon="5.58149398304522">
        <ele>945.20001220703125</ele>
        <time>2014-05-19T10:37:14Z</time>
      </trkpt>
      <trkpt lat="44.814936127513647" lon="5.581411086022854">
        <ele>945.79998779296875</ele>
        <time>2014-05-19T10:37:21Z</time>
      </trkpt>
      <trkpt lat="44.814863372594118" lon="5.581389293074608">
        <ele>946.79998779296875</ele>
        <time>2014-05-19T10:37:24Z</time>
      </trkpt>
      <trkpt lat="44.814784331247211" lon="5.581371355801821">
        <ele>947.20001220703125</ele>
        <time>2014-05-19T10:37:27Z</time>
      </trkpt>
      <trkpt lat="44.814642760902643" lon="5.581420641392469">
        <ele>947.4000244140625</ele>
        <time>2014-05-19T10:37:32Z</time>
      </trkpt>
      <trkpt lat="44.814488617703319" lon="5.581572353839874">
        <ele>947.20001220703125</ele>
        <time>2014-05-19T10:37:38Z</time>
      </trkpt>
      <trkpt lat="44.814310669898987" lon="5.581726916134358">
        <ele>947.20001220703125</ele>
        <time>2014-05-19T10:37:44Z</time>
      </trkpt>
      <trkpt lat="44.814066085964441" lon="5.58186924085021">
        <ele>948</ele>
        <time>2014-05-19T10:37:52Z</time>
      </trkpt>
      <trkpt lat="44.813850084319711" lon="5.581956580281258">
        <ele>948.79998779296875</ele>
        <time>2014-05-19T10:37:59Z</time>
      </trkpt>
      <trkpt lat="44.813816891983151" lon="5.581967309117317">
        <ele>949</ele>
        <time>2014-05-19T10:38:00Z</time>
      </trkpt>
      <trkpt lat="44.813622012734413" lon="5.582047523930669">
        <ele>949.5999755859375</ele>
        <time>2014-05-19T10:38:06Z</time>
      </trkpt>
      <trkpt lat="44.813522100448608" lon="5.582084823399782">
        <ele>950</ele>
        <time>2014-05-19T10:38:09Z</time>
      </trkpt>
      <trkpt lat="44.81331842020154" lon="5.582168893888593">
        <ele>950.4000244140625</ele>
        <time>2014-05-19T10:38:15Z</time>
      </trkpt>
      <trkpt lat="44.813097724691033" lon="5.582254724577069">
        <ele>951.4000244140625</ele>
        <time>2014-05-19T10:38:22Z</time>
      </trkpt>
      <trkpt lat="44.813067466020584" lon="5.58226503431797">
        <ele>951.5999755859375</ele>
        <time>2014-05-19T10:38:23Z</time>
      </trkpt>
      <trkpt lat="44.812916927039623" lon="5.58230996131897">
        <ele>952.4000244140625</ele>
        <time>2014-05-19T10:38:28Z</time>
      </trkpt>
      <trkpt lat="44.812828749418259" lon="5.582334352657199">
        <ele>952.79998779296875</ele>
        <time>2014-05-19T10:38:31Z</time>
      </trkpt>
      <trkpt lat="44.812612747773528" lon="5.582383051514626">
        <ele>953.4000244140625</ele>
        <time>2014-05-19T10:38:39Z</time>
      </trkpt>
      <trkpt lat="44.812584919854999" lon="5.582385398447514">
        <ele>953.5999755859375</ele>
        <time>2014-05-19T10:38:40Z</time>
      </trkpt>
      <trkpt lat="44.812308065593243" lon="5.582440719008446">
        <ele>954.4000244140625</ele>
        <time>2014-05-19T10:38:50Z</time>
      </trkpt>
      <trkpt lat="44.812089717015624" lon="5.582488076761365">
        <ele>955.4000244140625</ele>
        <time>2014-05-19T10:38:58Z</time>
      </trkpt>
      <trkpt lat="44.812032636255026" lon="5.582498889416456">
        <ele>955.5999755859375</ele>
        <time>2014-05-19T10:39:00Z</time>
      </trkpt>
      <trkpt lat="44.811870446428657" lon="5.582529399544001">
        <ele>956.5999755859375</ele>
        <time>2014-05-19T10:39:06Z</time>
      </trkpt>
      <trkpt lat="44.811843456700444" lon="5.58253719471395">
        <ele>956.79998779296875</ele>
        <time>2014-05-19T10:39:07Z</time>
      </trkpt>
      <trkpt lat="44.811651008203626" lon="5.582576170563698">
        <ele>957.5999755859375</ele>
        <time>2014-05-19T10:39:14Z</time>
      </trkpt>
      <trkpt lat="44.811456799507141" lon="5.582593437284231">
        <ele>958.4000244140625</ele>
        <time>2014-05-19T10:39:21Z</time>
      </trkpt>
      <trkpt lat="44.811403909698129" lon="5.582581618800759">
        <ele>958.79998779296875</ele>
        <time>2014-05-19T10:39:23Z</time>
      </trkpt>
      <trkpt lat="44.811340542510152" lon="5.582520430907607">
        <ele>959.4000244140625</ele>
        <time>2014-05-19T10:39:26Z</time>
      </trkpt>
      <trkpt lat="44.811316737905145" lon="5.582402246072888">
        <ele>960</ele>
        <time>2014-05-19T10:39:29Z</time>
      </trkpt>
      <trkpt lat="44.811320593580604" lon="5.582322953268886">
        <ele>959.79998779296875</ele>
        <time>2014-05-19T10:39:31Z</time>
      </trkpt>
      <trkpt lat="44.811323946341872" lon="5.58228506706655">
        <ele>960.20001220703125</ele>
        <time>2014-05-19T10:39:32Z</time>
      </trkpt>
      <trkpt lat="44.811332495883107" lon="5.58220736682415">
        <ele>961</ele>
        <time>2014-05-19T10:39:34Z</time>
      </trkpt>
      <trkpt lat="44.811377339065075" lon="5.582003016024828">
        <ele>961.5999755859375</ele>
        <time>2014-05-19T10:39:39Z</time>
      </trkpt>
      <trkpt lat="44.811406005173922" lon="5.581876868382096">
        <ele>962.20001220703125</ele>
        <time>2014-05-19T10:39:42Z</time>
      </trkpt>
      <trkpt lat="44.811469539999962" lon="5.581633541733027">
        <ele>962.5999755859375</ele>
        <time>2014-05-19T10:39:48Z</time>
      </trkpt>
      <trkpt lat="44.811514467000961" lon="5.5814812425524">
        <ele>963.20001220703125</ele>
        <time>2014-05-19T10:39:52Z</time>
      </trkpt>
      <trkpt lat="44.811534164473414" lon="5.58142508380115">
        <ele>963.5999755859375</ele>
        <time>2014-05-19T10:39:54Z</time>
      </trkpt>
      <trkpt lat="44.811604237183928" lon="5.581250321120024">
        <ele>964.20001220703125</ele>
        <time>2014-05-19T10:40:00Z</time>
      </trkpt>
      <trkpt lat="44.811631226912141" lon="5.581189636141062">
        <ele>964.20001220703125</ele>
        <time>2014-05-19T10:40:02Z</time>
      </trkpt>
      <trkpt lat="44.81170691549778" lon="5.580983692780137">
        <ele>964.79998779296875</ele>
        <time>2014-05-19T10:40:08Z</time>
      </trkpt>
      <trkpt lat="44.81181931681931" lon="5.580690745264292">
        <ele>964.4000244140625</ele>
        <time>2014-05-19T10:40:15Z</time>
      </trkpt>
      <trkpt lat="44.811912858858705" lon="5.58045269921422">
        <ele>964.79998779296875</ele>
        <time>2014-05-19T10:40:21Z</time>
      </trkpt>
      <trkpt lat="44.81197714805603" lon="5.580285731703043">
        <ele>965.20001220703125</ele>
        <time>2014-05-19T10:40:25Z</time>
      </trkpt>
      <trkpt lat="44.812034144997597" lon="5.580156985670328">
        <ele>965.20001220703125</ele>
        <time>2014-05-19T10:40:28Z</time>
      </trkpt>
      <trkpt lat="44.812114862725139" lon="5.579909970983863">
        <ele>965.4000244140625</ele>
        <time>2014-05-19T10:40:35Z</time>
      </trkpt>
      <trkpt lat="44.812191221863031" lon="5.579753061756492">
        <ele>965.79998779296875</ele>
        <time>2014-05-19T10:40:40Z</time>
      </trkpt>
      <trkpt lat="44.812283925712109" lon="5.579445194453001">
        <ele>965.20001220703125</ele>
        <time>2014-05-19T10:40:47Z</time>
      </trkpt>
      <trkpt lat="44.812343018129468" lon="5.579114193096757">
        <ele>965.20001220703125</ele>
        <time>2014-05-19T10:40:54Z</time>
      </trkpt>
      <trkpt lat="44.812350478023291" lon="5.578822586685419">
        <ele>965.79998779296875</ele>
        <time>2014-05-19T10:41:00Z</time>
      </trkpt>
      <trkpt lat="44.812359865754843" lon="5.578528884798288">
        <ele>966.4000244140625</ele>
        <time>2014-05-19T10:41:06Z</time>
      </trkpt>
      <trkpt lat="44.812363050878048" lon="5.578480018302798">
        <ele>966.4000244140625</ele>
        <time>2014-05-19T10:41:07Z</time>
      </trkpt>
      <trkpt lat="44.812380066141486" lon="5.578086068853736">
        <ele>967.4000244140625</ele>
        <time>2014-05-19T10:41:15Z</time>
      </trkpt>
      <trkpt lat="44.812381910160184" lon="5.578041728585959">
        <ele>967.4000244140625</ele>
        <time>2014-05-19T10:41:16Z</time>
      </trkpt>
      <trkpt lat="44.812398925423622" lon="5.577764706686139">
        <ele>968.4000244140625</ele>
        <time>2014-05-19T10:41:22Z</time>
      </trkpt>
      <trkpt lat="44.812395656481385" lon="5.577713744714856">
        <ele>968.4000244140625</ele>
        <time>2014-05-19T10:41:23Z</time>
      </trkpt>
      <trkpt lat="44.812382832169533" lon="5.577376121655107">
        <ele>969.4000244140625</ele>
        <time>2014-05-19T10:41:30Z</time>
      </trkpt>
      <trkpt lat="44.812381826341152" lon="5.577327758073807">
        <ele>969.5999755859375</ele>
        <time>2014-05-19T10:41:31Z</time>
      </trkpt>
      <trkpt lat="44.812346957623959" lon="5.576945459470153">
        <ele>969.79998779296875</ele>
        <time>2014-05-19T10:41:38Z</time>
      </trkpt>
      <trkpt lat="44.812335642054677" lon="5.576738175004721">
        <ele>970.4000244140625</ele>
        <time>2014-05-19T10:41:42Z</time>
      </trkpt>
      <trkpt lat="44.812329690903425" lon="5.576540194451809">
        <ele>971.20001220703125</ele>
        <time>2014-05-19T10:41:46Z</time>
      </trkpt>
      <trkpt lat="44.812317285686731" lon="5.576303405687213">
        <ele>971.20001220703125</ele>
        <time>2014-05-19T10:41:52Z</time>
      </trkpt>
      <trkpt lat="44.812313513830304" lon="5.576073154807091">
        <ele>971.5999755859375</ele>
        <time>2014-05-19T10:41:57Z</time>
      </trkpt>
      <trkpt lat="44.812298677861691" lon="5.575938625261188">
        <ele>971.79998779296875</ele>
        <time>2014-05-19T10:42:00Z</time>
      </trkpt>
      <trkpt lat="44.812252996489406" lon="5.575543753802776">
        <ele>972</ele>
        <time>2014-05-19T10:42:09Z</time>
      </trkpt>
      <trkpt lat="44.812158029526472" lon="5.575243262574077">
        <ele>972.4000244140625</ele>
        <time>2014-05-19T10:42:16Z</time>
      </trkpt>
      <trkpt lat="44.812068091705441" lon="5.575036816298962">
        <ele>972</ele>
        <time>2014-05-19T10:42:21Z</time>
      </trkpt>
      <trkpt lat="44.811949320137501" lon="5.574740516021848">
        <ele>972.4000244140625</ele>
        <time>2014-05-19T10:42:28Z</time>
      </trkpt>
      <trkpt lat="44.811917468905449" lon="5.574656445533037">
        <ele>972.5999755859375</ele>
        <time>2014-05-19T10:42:30Z</time>
      </trkpt>
      <trkpt lat="44.811835745349526" lon="5.574497608467937">
        <ele>973.20001220703125</ele>
        <time>2014-05-19T10:42:34Z</time>
      </trkpt>
      <trkpt lat="44.811814287677407" lon="5.574458297342062">
        <ele>973.5999755859375</ele>
        <time>2014-05-19T10:42:35Z</time>
      </trkpt>
      <trkpt lat="44.811716889962554" lon="5.574220670387149">
        <ele>974.79998779296875</ele>
        <time>2014-05-19T10:42:41Z</time>
      </trkpt>
      <trkpt lat="44.811645308509469" lon="5.574023192748427">
        <ele>975.79998779296875</ele>
        <time>2014-05-19T10:42:46Z</time>
      </trkpt>
      <trkpt lat="44.811634831130505" lon="5.573980696499348">
        <ele>975.79998779296875</ele>
        <time>2014-05-19T10:42:47Z</time>
      </trkpt>
      <trkpt lat="44.811573727056384" lon="5.573723204433918">
        <ele>976.5999755859375</ele>
        <time>2014-05-19T10:42:54Z</time>
      </trkpt>
      <trkpt lat="44.811525447294116" lon="5.573595128953457">
        <ele>976.79998779296875</ele>
        <time>2014-05-19T10:42:58Z</time>
      </trkpt>
      <trkpt lat="44.811496362090111" lon="5.573538215830922">
        <ele>977.4000244140625</ele>
        <time>2014-05-19T10:43:00Z</time>
      </trkpt>
      <trkpt lat="44.811437269672751" lon="5.573312072083354">
        <ele>977.79998779296875</ele>
        <time>2014-05-19T10:43:07Z</time>
      </trkpt>
      <trkpt lat="44.811434503644705" lon="5.573272928595543">
        <ele>978.20001220703125</ele>
        <time>2014-05-19T10:43:08Z</time>
      </trkpt>
      <trkpt lat="44.811430815607309" lon="5.57310713455081">
        <ele>979.4000244140625</ele>
        <time>2014-05-19T10:43:13Z</time>
      </trkpt>
      <trkpt lat="44.811438275501132" lon="5.573088694363833">
        <ele>979.5999755859375</ele>
        <time>2014-05-19T10:43:14Z</time>
      </trkpt>
      <trkpt lat="44.811457470059395" lon="5.573107721284032">
        <ele>979.5999755859375</ele>
        <time>2014-05-19T10:43:19Z</time>
      </trkpt>
      <trkpt lat="44.811457889154553" lon="5.573131944984198">
        <ele>979.5999755859375</ele>
        <time>2014-05-19T10:43:20Z</time>
      </trkpt>
      <trkpt lat="44.811454117298126" lon="5.573237808421254">
        <ele>979</ele>
        <time>2014-05-19T10:43:23Z</time>
      </trkpt>
      <trkpt lat="44.811449842527509" lon="5.573349874466658">
        <ele>978.5999755859375</ele>
        <time>2014-05-19T10:43:26Z</time>
      </trkpt>
      <trkpt lat="44.811465181410313" lon="5.573425982147455">
        <ele>978.20001220703125</ele>
        <time>2014-05-19T10:43:28Z</time>
      </trkpt>
      <trkpt lat="44.811512203887105" lon="5.573562858626247">
        <ele>977.79998779296875</ele>
        <time>2014-05-19T10:43:32Z</time>
      </trkpt>
      <trkpt lat="44.811534164473414" lon="5.573711469769478">
        <ele>977.20001220703125</ele>
        <time>2014-05-19T10:43:36Z</time>
      </trkpt>
      <trkpt lat="44.811544138938189" lon="5.573748014867306">
        <ele>977</ele>
        <time>2014-05-19T10:43:37Z</time>
      </trkpt>
      <trkpt lat="44.811624269932508" lon="5.573953120037913">
        <ele>976.20001220703125</ele>
        <time>2014-05-19T10:43:42Z</time>
      </trkpt>
      <trkpt lat="44.811694845557213" lon="5.574207091704011">
        <ele>974.5999755859375</ele>
        <time>2014-05-19T10:43:47Z</time>
      </trkpt>
      <trkpt lat="44.811731055378914" lon="5.574315302073956">
        <ele>974.20001220703125</ele>
        <time>2014-05-19T10:43:49Z</time>
      </trkpt>
      <trkpt lat="44.811752261593938" lon="5.574363833293319">
        <ele>974</ele>
        <time>2014-05-19T10:43:50Z</time>
      </trkpt>
      <trkpt lat="44.811864579096437" lon="5.574591904878616">
        <ele>973.5999755859375</ele>
        <time>2014-05-19T10:43:55Z</time>
      </trkpt>
      <trkpt lat="44.811884695664048" lon="5.574638675898314">
        <ele>973.4000244140625</ele>
        <time>2014-05-19T10:43:56Z</time>
      </trkpt>
      <trkpt lat="44.811950661242008" lon="5.574835734441876">
        <ele>972.4000244140625</ele>
        <time>2014-05-19T10:44:00Z</time>
      </trkpt>
      <trkpt lat="44.81197077780962" lon="5.574879655614495">
        <ele>972</ele>
        <time>2014-05-19T10:44:01Z</time>
      </trkpt>
      <trkpt lat="44.812082089483738" lon="5.575147038325667">
        <ele>971.5999755859375</ele>
        <time>2014-05-19T10:44:07Z</time>
      </trkpt>
      <trkpt lat="44.812131626531482" lon="5.575286345556378">
        <ele>971.20001220703125</ele>
        <time>2014-05-19T10:44:10Z</time>
      </trkpt>
      <trkpt lat="44.812165992334485" lon="5.575361112132669">
        <ele>971.4000244140625</ele>
        <time>2014-05-19T10:44:12Z</time>
      </trkpt>
      <trkpt lat="44.812226006761193" lon="5.575577532872558">
        <ele>971.20001220703125</ele>
        <time>2014-05-19T10:44:17Z</time>
      </trkpt>
      <trkpt lat="44.81224830262363" lon="5.575795965269208">
        <ele>971.20001220703125</ele>
        <time>2014-05-19T10:44:23Z</time>
      </trkpt>
      <trkpt lat="44.812226425856352" lon="5.57582194916904">
        <ele>971</ele>
        <time>2014-05-19T10:44:24Z</time>
      </trkpt>
      <trkpt lat="44.812183594331145" lon="5.575851621106267">
        <ele>971.4000244140625</ele>
        <time>2014-05-19T10:44:26Z</time>
      </trkpt>
      <trkpt lat="44.812127519398928" lon="5.57585128583014">
        <ele>971.79998779296875</ele>
        <time>2014-05-19T10:44:29Z</time>
      </trkpt>
      <trkpt lat="44.81206901371479" lon="5.575851621106267">
        <ele>972</ele>
        <time>2014-05-19T10:44:32Z</time>
      </trkpt>
      <trkpt lat="44.812040263786912" lon="5.575852124020457">
        <ele>972.4000244140625</ele>
        <time>2014-05-19T10:44:34Z</time>
      </trkpt>
      <trkpt lat="44.811983183026314" lon="5.575854554772377">
        <ele>973.20001220703125</ele>
        <time>2014-05-19T10:44:38Z</time>
      </trkpt>
      <trkpt lat="44.811946805566549" lon="5.575843742117286">
        <ele>973.4000244140625</ele>
        <time>2014-05-19T10:44:41Z</time>
      </trkpt>
      <trkpt lat="44.811893329024315" lon="5.575924459844828">
        <ele>970</ele>
        <time>2014-05-19T11:37:31Z</time>
      </trkpt>
      <trkpt lat="44.811966670677066" lon="5.575894871726632">
        <ele>969.5999755859375</ele>
        <time>2014-05-19T11:37:35Z</time>
      </trkpt>
      <trkpt lat="44.812014447525144" lon="5.575879784300923">
        <ele>969.5999755859375</ele>
        <time>2014-05-19T11:37:37Z</time>
      </trkpt>
      <trkpt lat="44.81213640421629" lon="5.575887495651841">
        <ele>968.79998779296875</ele>
        <time>2014-05-19T11:37:41Z</time>
      </trkpt>
      <trkpt lat="44.812166998162866" lon="5.575895626097918">
        <ele>968.79998779296875</ele>
        <time>2014-05-19T11:37:42Z</time>
      </trkpt>
      <trkpt lat="44.81225810945034" lon="5.575918005779386">
        <ele>968.4000244140625</ele>
        <time>2014-05-19T11:37:46Z</time>
      </trkpt>
      <trkpt lat="44.812265820801258" lon="5.575945749878883">
        <ele>968</ele>
        <time>2014-05-19T11:37:47Z</time>
      </trkpt>
      <trkpt lat="44.812266575172544" lon="5.575973996892571">
        <ele>967.79998779296875</ele>
        <time>2014-05-19T11:37:48Z</time>
      </trkpt>
      <trkpt lat="44.812274873256683" lon="5.576133755967021">
        <ele>968</ele>
        <time>2014-05-19T11:37:52Z</time>
      </trkpt>
      <trkpt lat="44.812298258766532" lon="5.5764180701226">
        <ele>968</ele>
        <time>2014-05-19T11:37:58Z</time>
      </trkpt>
      <trkpt lat="44.812324410304427" lon="5.57687790133059">
        <ele>967.20001220703125</ele>
        <time>2014-05-19T11:38:06Z</time>
      </trkpt>
      <trkpt lat="44.812333378940821" lon="5.577005809172988">
        <ele>966.79998779296875</ele>
        <time>2014-05-19T11:38:08Z</time>
      </trkpt>
      <trkpt lat="44.812354920431972" lon="5.577291129156947">
        <ele>965.79998779296875</ele>
        <time>2014-05-19T11:38:12Z</time>
      </trkpt>
      <trkpt lat="44.81235877610743" lon="5.577366314828396">
        <ele>965.5999755859375</ele>
        <time>2014-05-19T11:38:13Z</time>
      </trkpt>
      <trkpt lat="44.812368163838983" lon="5.577598828822374">
        <ele>964.5999755859375</ele>
        <time>2014-05-19T11:38:16Z</time>
      </trkpt>
      <trkpt lat="44.812361877411604" lon="5.577933685854077">
        <ele>963.5999755859375</ele>
        <time>2014-05-19T11:38:20Z</time>
      </trkpt>
      <trkpt lat="44.812330696731806" lon="5.578579176217318">
        <ele>962</ele>
        <time>2014-05-19T11:38:28Z</time>
      </trkpt>
      <trkpt lat="44.812317285686731" lon="5.579118467867374">
        <ele>962.20001220703125</ele>
        <time>2014-05-19T11:38:34Z</time>
      </trkpt>
      <trkpt lat="44.812309155240655" lon="5.57920572347939">
        <ele>962.5999755859375</ele>
        <time>2014-05-19T11:38:35Z</time>
      </trkpt>
      <trkpt lat="44.812241932377219" lon="5.579532282426953">
        <ele>962.20001220703125</ele>
        <time>2014-05-19T11:38:39Z</time>
      </trkpt>
      <trkpt lat="44.812147384509444" lon="5.579800922423601">
        <ele>962.5999755859375</ele>
        <time>2014-05-19T11:38:44Z</time>
      </trkpt>
      <trkpt lat="44.812121987342834" lon="5.579905612394214">
        <ele>962</ele>
        <time>2014-05-19T11:38:48Z</time>
      </trkpt>
      <trkpt lat="44.812108157202601" lon="5.579932602122426">
        <ele>962.4000244140625</ele>
        <time>2014-05-19T11:39:14Z</time>
      </trkpt>
      <trkpt lat="44.812094327062368" lon="5.57995037175715">
        <ele>962.4000244140625</ele>
        <time>2014-05-19T11:39:15Z</time>
      </trkpt>
      <trkpt lat="44.812009921297431" lon="5.580128822475672">
        <ele>962</ele>
        <time>2014-05-19T11:39:20Z</time>
      </trkpt>
      <trkpt lat="44.811877990141511" lon="5.580457728356123">
        <ele>961.4000244140625</ele>
        <time>2014-05-19T11:39:27Z</time>
      </trkpt>
      <trkpt lat="44.81172988191247" lon="5.58086215518415">
        <ele>961</ele>
        <time>2014-05-19T11:39:35Z</time>
      </trkpt>
      <trkpt lat="44.811573978513479" lon="5.581221487373114">
        <ele>960.79998779296875</ele>
        <time>2014-05-19T11:39:43Z</time>
      </trkpt>
      <trkpt lat="44.811481358483434" lon="5.581489205360413">
        <ele>959.5999755859375</ele>
        <time>2014-05-19T11:39:48Z</time>
      </trkpt>
      <trkpt lat="44.811465013772249" lon="5.58155114762485">
        <ele>959.20001220703125</ele>
        <time>2014-05-19T11:39:49Z</time>
      </trkpt>
      <trkpt lat="44.811375411227345" lon="5.581905618309975">
        <ele>958.4000244140625</ele>
        <time>2014-05-19T11:39:54Z</time>
      </trkpt>
      <trkpt lat="44.81133702211082" lon="5.582068143412471">
        <ele>958</ele>
        <time>2014-05-19T11:39:56Z</time>
      </trkpt>
      <trkpt lat="44.811315732076764" lon="5.582212563604116">
        <ele>957.79998779296875</ele>
        <time>2014-05-19T11:39:58Z</time>
      </trkpt>
      <trkpt lat="44.811301482841372" lon="5.58234273456037">
        <ele>957.4000244140625</ele>
        <time>2014-05-19T11:40:00Z</time>
      </trkpt>
      <trkpt lat="44.811288574710488" lon="5.582404173910618">
        <ele>957.20001220703125</ele>
        <time>2014-05-19T11:40:01Z</time>
      </trkpt>
      <trkpt lat="44.811191093176603" lon="5.582624031230807">
        <ele>956.4000244140625</ele>
        <time>2014-05-19T11:40:05Z</time>
      </trkpt>
      <trkpt lat="44.811109621077776" lon="5.582700138911605">
        <ele>956.20001220703125</ele>
        <time>2014-05-19T11:40:07Z</time>
      </trkpt>
      <trkpt lat="44.810988837853074" lon="5.582787059247494">
        <ele>956.20001220703125</ele>
        <time>2014-05-19T11:40:10Z</time>
      </trkpt>
      <trkpt lat="44.810709469020367" lon="5.583091657608748">
        <ele>957</ele>
        <time>2014-05-19T11:40:18Z</time>
      </trkpt>
      <trkpt lat="44.810649706050754" lon="5.583180589601398">
        <ele>957.20001220703125</ele>
        <time>2014-05-19T11:40:20Z</time>
      </trkpt>
      <trkpt lat="44.810526156798005" lon="5.583365745842457">
        <ele>957.79998779296875</ele>
        <time>2014-05-19T11:40:24Z</time>
      </trkpt>
      <trkpt lat="44.81045801192522" lon="5.583454510197043">
        <ele>958</ele>
        <time>2014-05-19T11:40:26Z</time>
      </trkpt>
      <trkpt lat="44.810428423807025" lon="5.58350220322609">
        <ele>958.20001220703125</ele>
        <time>2014-05-19T11:40:27Z</time>
      </trkpt>
      <trkpt lat="44.810338569805026" lon="5.583642264828086">
        <ele>959.20001220703125</ele>
        <time>2014-05-19T11:40:30Z</time>
      </trkpt>
      <trkpt lat="44.810309316962957" lon="5.583684677258134">
        <ele>959.4000244140625</ele>
        <time>2014-05-19T11:40:31Z</time>
      </trkpt>
      <trkpt lat="44.810225665569305" lon="5.583829181268811">
        <ele>959.79998779296875</ele>
        <time>2014-05-19T11:40:34Z</time>
      </trkpt>
      <trkpt lat="44.810196412727237" lon="5.583874359726906">
        <ele>959.5999755859375</ele>
        <time>2014-05-19T11:40:35Z</time>
      </trkpt>
      <trkpt lat="44.810136985033751" lon="5.583955412730575">
        <ele>959.5999755859375</ele>
        <time>2014-05-19T11:40:37Z</time>
      </trkpt>
      <trkpt lat="44.810060122981668" lon="5.584077117964625">
        <ele>961.4000244140625</ele>
        <time>2014-05-19T11:40:40Z</time>
      </trkpt>
      <trkpt lat="44.809962306171656" lon="5.584202511236072">
        <ele>962.4000244140625</ele>
        <time>2014-05-19T11:40:44Z</time>
      </trkpt>
      <trkpt lat="44.809883935377002" lon="5.584324887022376">
        <ele>963.4000244140625</ele>
        <time>2014-05-19T11:40:48Z</time>
      </trkpt>
      <trkpt lat="44.809822076931596" lon="5.584406023845077">
        <ele>964.20001220703125</ele>
        <time>2014-05-19T11:40:51Z</time>
      </trkpt>
      <trkpt lat="44.809788968414068" lon="5.584459081292152">
        <ele>964.5999755859375</ele>
        <time>2014-05-19T11:40:53Z</time>
      </trkpt>
      <trkpt lat="44.809717973694205" lon="5.584574667736888">
        <ele>965.79998779296875</ele>
        <time>2014-05-19T11:40:57Z</time>
      </trkpt>
      <trkpt lat="44.809699114412069" lon="5.584602747112513">
        <ele>965.79998779296875</ele>
        <time>2014-05-19T11:40:58Z</time>
      </trkpt>
      <trkpt lat="44.809609344229102" lon="5.584724536165595">
        <ele>967</ele>
        <time>2014-05-19T11:41:03Z</time>
      </trkpt>
      <trkpt lat="44.809587299823761" lon="5.584746832028031">
        <ele>967.20001220703125</ele>
        <time>2014-05-19T11:41:04Z</time>
      </trkpt>
      <trkpt lat="44.809482358396053" lon="5.584860574454069">
        <ele>968</ele>
        <time>2014-05-19T11:41:09Z</time>
      </trkpt>
      <trkpt lat="44.809428546577692" lon="5.584911871701479">
        <ele>968.5999755859375</ele>
        <time>2014-05-19T11:41:12Z</time>
      </trkpt>
      <trkpt lat="44.8093590606004" lon="5.584972305223346">
        <ele>969.20001220703125</ele>
        <time>2014-05-19T11:41:16Z</time>
      </trkpt>
      <trkpt lat="44.809264512732625" lon="5.585040282458067">
        <ele>970</ele>
        <time>2014-05-19T11:41:21Z</time>
      </trkpt>
      <trkpt lat="44.809245318174362" lon="5.585051933303475">
        <ele>970.20001220703125</ele>
        <time>2014-05-19T11:41:22Z</time>
      </trkpt>
      <trkpt lat="44.809127887710929" lon="5.585138350725174">
        <ele>971.4000244140625</ele>
        <time>2014-05-19T11:41:28Z</time>
      </trkpt>
      <trkpt lat="44.808988496661186" lon="5.585239185020328">
        <ele>972.4000244140625</ele>
        <time>2014-05-19T11:41:35Z</time>
      </trkpt>
      <trkpt lat="44.80897206813097" lon="5.585255278274417">
        <ele>972.79998779296875</ele>
        <time>2014-05-19T11:41:36Z</time>
      </trkpt>
      <trkpt lat="44.808857152238488" lon="5.585360135883093">
        <ele>973.5999755859375</ele>
        <time>2014-05-19T11:41:42Z</time>
      </trkpt>
      <trkpt lat="44.808804681524634" lon="5.585416378453374">
        <ele>974.20001220703125</ele>
        <time>2014-05-19T11:41:45Z</time>
      </trkpt>
      <trkpt lat="44.808751372620463" lon="5.585471279919148">
        <ele>974.79998779296875</ele>
        <time>2014-05-19T11:41:48Z</time>
      </trkpt>
      <trkpt lat="44.80864224024117" lon="5.585580496117473">
        <ele>975.5999755859375</ele>
        <time>2014-05-19T11:41:54Z</time>
      </trkpt>
      <trkpt lat="44.808624219149351" lon="5.585599355399609">
        <ele>975.79998779296875</ele>
        <time>2014-05-19T11:41:55Z</time>
      </trkpt>
      <trkpt lat="44.808535203337669" lon="5.585684683173895">
        <ele>977</ele>
        <time>2014-05-19T11:42:00Z</time>
      </trkpt>
      <trkpt lat="44.808515757322311" lon="5.585700022056699">
        <ele>977.20001220703125</ele>
        <time>2014-05-19T11:42:01Z</time>
      </trkpt>
      <trkpt lat="44.808496562764049" lon="5.585715947672725">
        <ele>977.5999755859375</ele>
        <time>2014-05-19T11:42:02Z</time>
      </trkpt>
      <trkpt lat="44.808425232768059" lon="5.585773698985577">
        <ele>978</ele>
        <time>2014-05-19T11:42:06Z</time>
      </trkpt>
      <trkpt lat="44.808369325473905" lon="5.585816111415625">
        <ele>978.4000244140625</ele>
        <time>2014-05-19T11:42:09Z</time>
      </trkpt>
      <trkpt lat="44.80829774402082" lon="5.585872856900096">
        <ele>979</ele>
        <time>2014-05-19T11:42:13Z</time>
      </trkpt>
      <trkpt lat="44.808244686573744" lon="5.585927926003933">
        <ele>979.5999755859375</ele>
        <time>2014-05-19T11:42:16Z</time>
      </trkpt>
      <trkpt lat="44.808130441233516" lon="5.586031777784228">
        <ele>980.20001220703125</ele>
        <time>2014-05-19T11:42:22Z</time>
      </trkpt>
      <trkpt lat="44.80809104628861" lon="5.586063293740153">
        <ele>980.5999755859375</ele>
        <time>2014-05-19T11:42:24Z</time>
      </trkpt>
      <trkpt lat="44.807962467893958" lon="5.58617209084332">
        <ele>981.4000244140625</ele>
        <time>2014-05-19T11:42:31Z</time>
      </trkpt>
      <trkpt lat="44.807944279164076" lon="5.586183406412602">
        <ele>981.79998779296875</ele>
        <time>2014-05-19T11:42:32Z</time>
      </trkpt>
      <trkpt lat="44.807914355769753" lon="5.586217269301415">
        <ele>982.4000244140625</ele>
        <time>2014-05-19T11:42:34Z</time>
      </trkpt>
      <trkpt lat="44.807860292494297" lon="5.586251970380545">
        <ele>982.4000244140625</ele>
        <time>2014-05-19T11:42:37Z</time>
      </trkpt>
      <trkpt lat="44.807805810123682" lon="5.586297316476703">
        <ele>983.5999755859375</ele>
        <time>2014-05-19T11:42:40Z</time>
      </trkpt>
      <trkpt lat="44.807717967778444" lon="5.58637778274715">
        <ele>984</ele>
        <time>2014-05-19T11:42:45Z</time>
      </trkpt>
      <trkpt lat="44.807651331648231" lon="5.586440563201904">
        <ele>984.79998779296875</ele>
        <time>2014-05-19T11:42:49Z</time>
      </trkpt>
      <trkpt lat="44.807574888691306" lon="5.58651608414948">
        <ele>985.5999755859375</ele>
        <time>2014-05-19T11:42:53Z</time>
      </trkpt>
      <trkpt lat="44.807554101571441" lon="5.586534524336457">
        <ele>985.79998779296875</ele>
        <time>2014-05-19T11:42:54Z</time>
      </trkpt>
      <trkpt lat="44.807401467114687" lon="5.586664443835616">
        <ele>986.79998779296875</ele>
        <time>2014-05-19T11:43:02Z</time>
      </trkpt>
      <trkpt lat="44.807340446859598" lon="5.586724877357483">
        <ele>988</ele>
        <time>2014-05-19T11:43:06Z</time>
      </trkpt>
      <trkpt lat="44.80728579685092" lon="5.586756058037281">
        <ele>988.5999755859375</ele>
        <time>2014-05-19T11:43:09Z</time>
      </trkpt>
      <trkpt lat="44.807218573987484" lon="5.58678925037384">
        <ele>989</ele>
        <time>2014-05-19T11:43:12Z</time>
      </trkpt>
      <trkpt lat="44.807138191536069" lon="5.586839206516743">
        <ele>989.5999755859375</ele>
        <time>2014-05-19T11:43:16Z</time>
      </trkpt>
      <trkpt lat="44.807010786607862" lon="5.586880277842283">
        <ele>990.20001220703125</ele>
        <time>2014-05-19T11:43:22Z</time>
      </trkpt>
      <trkpt lat="44.806966530159116" lon="5.586901400238276">
        <ele>990.79998779296875</ele>
        <time>2014-05-19T11:43:24Z</time>
      </trkpt>
      <trkpt lat="44.80692227371037" lon="5.586916068568826">
        <ele>991.20001220703125</ele>
        <time>2014-05-19T11:43:26Z</time>
      </trkpt>
      <trkpt lat="44.806835185736418" lon="5.586958816275001">
        <ele>992.20001220703125</ele>
        <time>2014-05-19T11:43:30Z</time>
      </trkpt>
      <trkpt lat="44.806811464950442" lon="5.586968874558806">
        <ele>992.5999755859375</ele>
        <time>2014-05-19T11:43:31Z</time>
      </trkpt>
      <trkpt lat="44.806682802736759" lon="5.587018663063645">
        <ele>993.4000244140625</ele>
        <time>2014-05-19T11:43:36Z</time>
      </trkpt>
      <trkpt lat="44.806660674512386" lon="5.587024027481675">
        <ele>993.79998779296875</ele>
        <time>2014-05-19T11:43:37Z</time>
      </trkpt>
      <trkpt lat="44.806578867137432" lon="5.587056381627917">
        <ele>994.5999755859375</ele>
        <time>2014-05-19T11:43:41Z</time>
      </trkpt>
      <trkpt lat="44.806480882689357" lon="5.587087646126747">
        <ele>995.20001220703125</ele>
        <time>2014-05-19T11:43:45Z</time>
      </trkpt>
      <trkpt lat="44.806405948475003" lon="5.587124610319734">
        <ele>995.5999755859375</ele>
        <time>2014-05-19T11:43:48Z</time>
      </trkpt>
      <trkpt lat="44.806335875764489" lon="5.587145732715726">
        <ele>996.20001220703125</ele>
        <time>2014-05-19T11:43:51Z</time>
      </trkpt>
      <trkpt lat="44.806311316788197" lon="5.587153946980834">
        <ele>996.79998779296875</ele>
        <time>2014-05-19T11:43:52Z</time>
      </trkpt>
      <trkpt lat="44.806149881333113" lon="5.587186217308044">
        <ele>997.5999755859375</ele>
        <time>2014-05-19T11:43:59Z</time>
      </trkpt>
      <trkpt lat="44.806127585470676" lon="5.587192168459296">
        <ele>997.79998779296875</ele>
        <time>2014-05-19T11:44:00Z</time>
      </trkpt>
      <trkpt lat="44.805988110601902" lon="5.587211279198527">
        <ele>999</ele>
        <time>2014-05-19T11:44:07Z</time>
      </trkpt>
      <trkpt lat="44.805859532207251" lon="5.587231731042266">
        <ele>1000.2000122070312</ele>
        <time>2014-05-19T11:44:13Z</time>
      </trkpt>
      <trkpt lat="44.80581603012979" lon="5.58724463917315">
        <ele>1001.2000122070312</ele>
        <time>2014-05-19T11:44:15Z</time>
      </trkpt>
      <trkpt lat="44.805793650448322" lon="5.587248243391514">
        <ele>1001.7999877929687</ele>
        <time>2014-05-19T11:44:16Z</time>
      </trkpt>
      <trkpt lat="44.805636992678046" lon="5.587259391322732">
        <ele>1003</ele>
        <time>2014-05-19T11:44:23Z</time>
      </trkpt>
      <trkpt lat="44.805511683225632" lon="5.587287805974484">
        <ele>1003.5999755859375</ele>
        <time>2014-05-19T11:44:29Z</time>
      </trkpt>
      <trkpt lat="44.805381679907441" lon="5.587310437113047">
        <ele>1003.7999877929687</ele>
        <time>2014-05-19T11:44:35Z</time>
      </trkpt>
      <trkpt lat="44.805304314941168" lon="5.587329128757119">
        <ele>1004</ele>
        <time>2014-05-19T11:44:39Z</time>
      </trkpt>
      <trkpt lat="44.805263997986913" lon="5.587343461811543">
        <ele>1004.2000122070312</ele>
        <time>2014-05-19T11:44:41Z</time>
      </trkpt>
      <trkpt lat="44.805135922506452" lon="5.587369864806533">
        <ele>1005.2000122070312</ele>
        <time>2014-05-19T11:44:47Z</time>
      </trkpt>
      <trkpt lat="44.80511530302465" lon="5.587374642491341">
        <ele>1005.4000244140625</ele>
        <time>2014-05-19T11:44:48Z</time>
      </trkpt>
      <trkpt lat="44.804989825934172" lon="5.587414456531405">
        <ele>1006.4000244140625</ele>
        <time>2014-05-19T11:44:54Z</time>
      </trkpt>
      <trkpt lat="44.804967865347862" lon="5.587423592805862">
        <ele>1006.4000244140625</ele>
        <time>2014-05-19T11:44:55Z</time>
      </trkpt>
      <trkpt lat="44.804827217012644" lon="5.587491234764457">
        <ele>1007.4000244140625</ele>
        <time>2014-05-19T11:45:02Z</time>
      </trkpt>
      <trkpt lat="44.804786732420325" lon="5.587510261684656">
        <ele>1007.5999755859375</ele>
        <time>2014-05-19T11:45:04Z</time>
      </trkpt>
      <trkpt lat="44.804696878418326" lon="5.587570695206523">
        <ele>1008.4000244140625</ele>
        <time>2014-05-19T11:45:09Z</time>
      </trkpt>
      <trkpt lat="44.804660333320498" lon="5.587595254182816">
        <ele>1008.7999877929687</ele>
        <time>2014-05-19T11:45:11Z</time>
      </trkpt>
      <trkpt lat="44.80459688231349" lon="5.587648143991828">
        <ele>1009</ele>
        <time>2014-05-19T11:45:15Z</time>
      </trkpt>
      <trkpt lat="44.804547848179936" lon="5.587687874212861">
        <ele>1010</ele>
        <time>2014-05-19T11:45:18Z</time>
      </trkpt>
      <trkpt lat="44.804486492648721" lon="5.587757863104343">
        <ele>1010.4000244140625</ele>
        <time>2014-05-19T11:45:22Z</time>
      </trkpt>
      <trkpt lat="44.804421532899141" lon="5.587826510891318">
        <ele>1011</ele>
        <time>2014-05-19T11:45:26Z</time>
      </trkpt>
      <trkpt lat="44.804380293935537" lon="5.587889710441232">
        <ele>1012</ele>
        <time>2014-05-19T11:45:29Z</time>
      </trkpt>
      <trkpt lat="44.804366379976273" lon="5.58791309595108">
        <ele>1012.2000122070312</ele>
        <time>2014-05-19T11:45:30Z</time>
      </trkpt>
      <trkpt lat="44.804273089393973" lon="5.588104370981455">
        <ele>1013</ele>
        <time>2014-05-19T11:45:37Z</time>
      </trkpt>
      <trkpt lat="44.80426118709147" lon="5.588134964928031">
        <ele>1013.4000244140625</ele>
        <time>2014-05-19T11:45:38Z</time>
      </trkpt>
      <trkpt lat="44.80417275801301" lon="5.588326407596469">
        <ele>1014.4000244140625</ele>
        <time>2014-05-19T11:45:45Z</time>
      </trkpt>
      <trkpt lat="44.804156748577952" lon="5.588351301848888">
        <ele>1014.5999755859375</ele>
        <time>2014-05-19T11:45:46Z</time>
      </trkpt>
      <trkpt lat="44.804071336984634" lon="5.588499577715993">
        <ele>1015.5999755859375</ele>
        <time>2014-05-19T11:45:52Z</time>
      </trkpt>
      <trkpt lat="44.804056668654084" lon="5.588521035388112">
        <ele>1015.7999877929687</ele>
        <time>2014-05-19T11:45:53Z</time>
      </trkpt>
      <trkpt lat="44.80393529869616" lon="5.588628239929676">
        <ele>1016.7999877929687</ele>
        <time>2014-05-19T11:46:00Z</time>
      </trkpt>
      <trkpt lat="44.803919456899166" lon="5.588639890775085">
        <ele>1017</ele>
        <time>2014-05-19T11:46:01Z</time>
      </trkpt>
      <trkpt lat="44.803818874061108" lon="5.588726559653878">
        <ele>1018</ele>
        <time>2014-05-19T11:46:07Z</time>
      </trkpt>
      <trkpt lat="44.803778221830726" lon="5.588762434199452">
        <ele>1018.4000244140625</ele>
        <time>2014-05-19T11:46:09Z</time>
      </trkpt>
      <trkpt lat="44.803717872127891" lon="5.588800236582756">
        <ele>1019</ele>
        <time>2014-05-19T11:46:12Z</time>
      </trkpt>
      <trkpt lat="44.803607733920217" lon="5.58888740837574">
        <ele>1020.2000122070312</ele>
        <time>2014-05-19T11:46:18Z</time>
      </trkpt>
      <trkpt lat="44.803445124998689" lon="5.588992265984416">
        <ele>1021.4000244140625</ele>
        <time>2014-05-19T11:46:26Z</time>
      </trkpt>
      <trkpt lat="44.803278744220734" lon="5.589096872135997">
        <ele>1022.4000244140625</ele>
        <time>2014-05-19T11:46:34Z</time>
      </trkpt>
      <trkpt lat="44.803257454186678" lon="5.589106930419803">
        <ele>1022.5999755859375</ele>
        <time>2014-05-19T11:46:35Z</time>
      </trkpt>
      <trkpt lat="44.803135078400373" lon="5.589170465245843">
        <ele>1023.4000244140625</ele>
        <time>2014-05-19T11:46:41Z</time>
      </trkpt>
      <trkpt lat="44.803099120035768" lon="5.589192006736994">
        <ele>1023.7999877929687</ele>
        <time>2014-05-19T11:46:43Z</time>
      </trkpt>
      <trkpt lat="44.803024772554636" lon="5.589236849918962">
        <ele>1024.800048828125</ele>
        <time>2014-05-19T11:46:47Z</time>
      </trkpt>
      <trkpt lat="44.802966266870499" lon="5.589293008670211">
        <ele>1025.199951171875</ele>
        <time>2014-05-19T11:46:50Z</time>
      </trkpt>
      <trkpt lat="44.802941791713238" lon="5.589303653687239">
        <ele>1025.4000244140625</ele>
        <time>2014-05-19T11:46:51Z</time>
      </trkpt>
      <trkpt lat="44.802895523607731" lon="5.5893281288445">
        <ele>1025.800048828125</ele>
        <time>2014-05-19T11:46:53Z</time>
      </trkpt>
      <trkpt lat="44.802820086479187" lon="5.589365344494581">
        <ele>1025.800048828125</ele>
        <time>2014-05-19T11:46:56Z</time>
      </trkpt>
      <trkpt lat="44.802651442587376" lon="5.589481769129634">
        <ele>1027</ele>
        <time>2014-05-19T11:47:04Z</time>
      </trkpt>
      <trkpt lat="44.802562007680535" lon="5.589559637010098">
        <ele>1028.199951171875</ele>
        <time>2014-05-19T11:47:09Z</time>
      </trkpt>
      <trkpt lat="44.802502831444144" lon="5.589604899287224">
        <ele>1028.5999755859375</ele>
        <time>2014-05-19T11:47:12Z</time>
      </trkpt>
      <trkpt lat="44.802435608580709" lon="5.589666590094566">
        <ele>1029.199951171875</ele>
        <time>2014-05-19T11:47:16Z</time>
      </trkpt>
      <trkpt lat="44.802357740700245" lon="5.589754935353994">
        <ele>1030.199951171875</ele>
        <time>2014-05-19T11:47:21Z</time>
      </trkpt>
      <trkpt lat="44.802340138703585" lon="5.58977521955967">
        <ele>1030.199951171875</ele>
        <time>2014-05-19T11:47:22Z</time>
      </trkpt>
      <trkpt lat="44.802230587229133" lon="5.589901702478528">
        <ele>1031.199951171875</ele>
        <time>2014-05-19T11:47:29Z</time>
      </trkpt>
      <trkpt lat="44.802214493975043" lon="5.589923998340964">
        <ele>1031.4000244140625</ele>
        <time>2014-05-19T11:47:30Z</time>
      </trkpt>
      <trkpt lat="44.802101003006101" lon="5.590058611705899">
        <ele>1032.199951171875</ele>
        <time>2014-05-19T11:47:37Z</time>
      </trkpt>
      <trkpt lat="44.802060099318624" lon="5.590085601434112">
        <ele>1032.5999755859375</ele>
        <time>2014-05-19T11:47:39Z</time>
      </trkpt>
      <trkpt lat="44.801971083506942" lon="5.59016665443778">
        <ele>1033.199951171875</ele>
        <time>2014-05-19T11:47:44Z</time>
      </trkpt>
      <trkpt lat="44.801892461255193" lon="5.590219963341951">
        <ele>1033.5999755859375</ele>
        <time>2014-05-19T11:47:48Z</time>
      </trkpt>
      <trkpt lat="44.801850970834494" lon="5.59025558643043">
        <ele>1033.800048828125</ele>
        <time>2014-05-19T11:47:50Z</time>
      </trkpt>
      <trkpt lat="44.801788860931993" lon="5.590301100164652">
        <ele>1034.5999755859375</ele>
        <time>2014-05-19T11:47:53Z</time>
      </trkpt>
      <trkpt lat="44.801709400489926" lon="5.59035524725914">
        <ele>1035.800048828125</ele>
        <time>2014-05-19T11:47:57Z</time>
      </trkpt>
      <trkpt lat="44.801666066050529" lon="5.59038064442575">
        <ele>1036.199951171875</ele>
        <time>2014-05-19T11:47:59Z</time>
      </trkpt>
      <trkpt lat="44.80158593505621" lon="5.590439820662141">
        <ele>1036.800048828125</ele>
        <time>2014-05-19T11:48:03Z</time>
      </trkpt>
      <trkpt lat="44.801547629758716" lon="5.590464882552624">
        <ele>1037.199951171875</ele>
        <time>2014-05-19T11:48:05Z</time>
      </trkpt>
      <trkpt lat="44.801489962264895" lon="5.59050721116364">
        <ele>1038</ele>
        <time>2014-05-19T11:48:08Z</time>
      </trkpt>
      <trkpt lat="44.801383344456553" lon="5.590561358258128">
        <ele>1038.800048828125</ele>
        <time>2014-05-19T11:48:13Z</time>
      </trkpt>
      <trkpt lat="44.801364401355386" lon="5.590575858950615">
        <ele>1039</ele>
        <time>2014-05-19T11:48:14Z</time>
      </trkpt>
      <trkpt lat="44.801263650879264" lon="5.590666132047772">
        <ele>1040</ele>
        <time>2014-05-19T11:48:20Z</time>
      </trkpt>
      <trkpt lat="44.801243785768747" lon="5.59068507514894">
        <ele>1040.199951171875</ele>
        <time>2014-05-19T11:48:21Z</time>
      </trkpt>
      <trkpt lat="44.801143202930689" lon="5.590786244720221">
        <ele>1041</ele>
        <time>2014-05-19T11:48:26Z</time>
      </trkpt>
      <trkpt lat="44.801112273707986" lon="5.590829495340586">
        <ele>1041.199951171875</ele>
        <time>2014-05-19T11:48:28Z</time>
      </trkpt>
      <trkpt lat="44.801000040024519" lon="5.590950110927224">
        <ele>1042.199951171875</ele>
        <time>2014-05-19T11:48:34Z</time>
      </trkpt>
      <trkpt lat="44.800980007275939" lon="5.590964695438743">
        <ele>1042.4000244140625</ele>
        <time>2014-05-19T11:48:35Z</time>
      </trkpt>
      <trkpt lat="44.800900798290968" lon="5.590998809784651">
        <ele>1043.4000244140625</ele>
        <time>2014-05-19T11:48:39Z</time>
      </trkpt>
      <trkpt lat="44.800857044756413" lon="5.591013226658106">
        <ele>1044</ele>
        <time>2014-05-19T11:48:41Z</time>
      </trkpt>
      <trkpt lat="44.800790408626199" lon="5.591039881110191">
        <ele>1044.5999755859375</ele>
        <time>2014-05-19T11:48:44Z</time>
      </trkpt>
      <trkpt lat="44.800715558230877" lon="5.59105790220201">
        <ele>1045.4000244140625</ele>
        <time>2014-05-19T11:48:48Z</time>
      </trkpt>
      <trkpt lat="44.80067758820951" lon="5.591052956879139">
        <ele>1045.5999755859375</ele>
        <time>2014-05-19T11:48:50Z</time>
      </trkpt>
      <trkpt lat="44.800571724772453" lon="5.591063601896167">
        <ele>1046.4000244140625</ele>
        <time>2014-05-19T11:48:55Z</time>
      </trkpt>
      <trkpt lat="44.800547249615192" lon="5.591064440086484">
        <ele>1046.800048828125</ele>
        <time>2014-05-19T11:48:56Z</time>
      </trkpt>
      <trkpt lat="44.800417581573129" lon="5.591047676280141">
        <ele>1047.199951171875</ele>
        <time>2014-05-19T11:49:01Z</time>
      </trkpt>
      <trkpt lat="44.800344491377473" lon="5.591027559712529">
        <ele>1048</ele>
        <time>2014-05-19T11:49:04Z</time>
      </trkpt>
      <trkpt lat="44.800252793356776" lon="5.590981207787991">
        <ele>1049</ele>
        <time>2014-05-19T11:49:09Z</time>
      </trkpt>
      <trkpt lat="44.800243740901351" lon="5.590966204181314">
        <ele>1049.199951171875</ele>
        <time>2014-05-19T11:49:10Z</time>
      </trkpt>
      <trkpt lat="44.800222450867295" lon="5.590903675183654">
        <ele>1049.5999755859375</ele>
        <time>2014-05-19T11:49:13Z</time>
      </trkpt>
      <trkpt lat="44.800224211066961" lon="5.590854724869132">
        <ele>1049.800048828125</ele>
        <time>2014-05-19T11:49:15Z</time>
      </trkpt>
      <trkpt lat="44.800219852477312" lon="5.590783562511206">
        <ele>1050.199951171875</ele>
        <time>2014-05-19T11:49:18Z</time>
      </trkpt>
      <trkpt lat="44.800180625170469" lon="5.590663617476821">
        <ele>1050.800048828125</ele>
        <time>2014-05-19T11:49:21Z</time>
      </trkpt>
      <trkpt lat="44.800105942413211" lon="5.590488016605377">
        <ele>1051.4000244140625</ele>
        <time>2014-05-19T11:49:26Z</time>
      </trkpt>
      <trkpt lat="44.800039725378156" lon="5.590384919196367">
        <ele>1052</ele>
        <time>2014-05-19T11:49:29Z</time>
      </trkpt>
      <trkpt lat="44.799967724829912" lon="5.590306464582682">
        <ele>1052.4000244140625</ele>
        <time>2014-05-19T11:49:32Z</time>
      </trkpt>
      <trkpt lat="44.799903854727745" lon="5.590233877301216">
        <ele>1053</ele>
        <time>2014-05-19T11:49:35Z</time>
      </trkpt>
      <trkpt lat="44.799855155870318" lon="5.59016372077167">
        <ele>1053.5999755859375</ele>
        <time>2014-05-19T11:49:38Z</time>
      </trkpt>
      <trkpt lat="44.799797739833593" lon="5.590080488473177">
        <ele>1054.4000244140625</ele>
        <time>2014-05-19T11:49:42Z</time>
      </trkpt>
      <trkpt lat="44.799787681549788" lon="5.590056767687202">
        <ele>1054.5999755859375</ele>
        <time>2014-05-19T11:49:43Z</time>
      </trkpt>
      <trkpt lat="44.799771755933762" lon="5.59003371745348">
        <ele>1054.800048828125</ele>
        <time>2014-05-19T11:49:44Z</time>
      </trkpt>
      <trkpt lat="44.799721967428923" lon="5.589936906471849">
        <ele>1055.4000244140625</ele>
        <time>2014-05-19T11:49:48Z</time>
      </trkpt>
      <trkpt lat="44.799715597182512" lon="5.589906983077526">
        <ele>1055.5999755859375</ele>
        <time>2014-05-19T11:49:49Z</time>
      </trkpt>
      <trkpt lat="44.799653068184853" lon="5.589788965880871">
        <ele>1056</ele>
        <time>2014-05-19T11:49:53Z</time>
      </trkpt>
      <trkpt lat="44.799603698775172" lon="5.589680001139641">
        <ele>1056.800048828125</ele>
        <time>2014-05-19T11:49:57Z</time>
      </trkpt>
      <trkpt lat="44.799576289951801" lon="5.589625183492899">
        <ele>1057</ele>
        <time>2014-05-19T11:49:59Z</time>
      </trkpt>
      <trkpt lat="44.799515772610903" lon="5.589479003101587">
        <ele>1057.800048828125</ele>
        <time>2014-05-19T11:50:04Z</time>
      </trkpt>
      <trkpt lat="44.799476377665997" lon="5.589387305080891">
        <ele>1058.199951171875</ele>
        <time>2014-05-19T11:50:07Z</time>
      </trkpt>
      <trkpt lat="44.799413261935115" lon="5.589273059740663">
        <ele>1059.199951171875</ele>
        <time>2014-05-19T11:50:11Z</time>
      </trkpt>
      <trkpt lat="44.799380404874682" lon="5.589230228215456">
        <ele>1059.4000244140625</ele>
        <time>2014-05-19T11:50:13Z</time>
      </trkpt>
      <trkpt lat="44.799277642741799" lon="5.589119167998433">
        <ele>1060.199951171875</ele>
        <time>2014-05-19T11:50:19Z</time>
      </trkpt>
      <trkpt lat="44.799258029088378" lon="5.589106092229486">
        <ele>1060.199951171875</ele>
        <time>2014-05-19T11:50:20Z</time>
      </trkpt>
      <trkpt lat="44.799163481220603" lon="5.589092262089253">
        <ele>1061.199951171875</ele>
        <time>2014-05-19T11:50:25Z</time>
      </trkpt>
      <trkpt lat="44.799140682443976" lon="5.589096955955029">
        <ele>1061.4000244140625</ele>
        <time>2014-05-19T11:50:26Z</time>
      </trkpt>
      <trkpt lat="44.799005230888724" lon="5.589118329808116">
        <ele>1062.199951171875</ele>
        <time>2014-05-19T11:50:32Z</time>
      </trkpt>
      <trkpt lat="44.798987964168191" lon="5.589126460254192">
        <ele>1062.4000244140625</ele>
        <time>2014-05-19T11:50:33Z</time>
      </trkpt>
      <trkpt lat="44.798883106559515" lon="5.589182619005442">
        <ele>1062.5999755859375</ele>
        <time>2014-05-19T11:50:38Z</time>
      </trkpt>
      <trkpt lat="44.798791659995914" lon="5.589217571541667">
        <ele>1063.4000244140625</ele>
        <time>2014-05-19T11:50:42Z</time>
      </trkpt>
      <trkpt lat="44.798742290586233" lon="5.589232407510281">
        <ele>1063.800048828125</ele>
        <time>2014-05-19T11:50:44Z</time>
      </trkpt>
      <trkpt lat="44.798664087429643" lon="5.589288147166371">
        <ele>1064.5999755859375</ele>
        <time>2014-05-19T11:50:48Z</time>
      </trkpt>
      <trkpt lat="44.798600552603602" lon="5.589331146329641">
        <ele>1065.4000244140625</ele>
        <time>2014-05-19T11:50:51Z</time>
      </trkpt>
      <trkpt lat="44.798580436035991" lon="5.589336007833481">
        <ele>1065.800048828125</ele>
        <time>2014-05-19T11:50:52Z</time>
      </trkpt>
      <trkpt lat="44.798493515700102" lon="5.5894058290869">
        <ele>1066.5999755859375</ele>
        <time>2014-05-19T11:50:56Z</time>
      </trkpt>
      <trkpt lat="44.798375247046351" lon="5.5895353294909">
        <ele>1066.800048828125</ele>
        <time>2014-05-19T11:51:02Z</time>
      </trkpt>
      <trkpt lat="44.798340210691094" lon="5.589577406644821">
        <ele>1067.4000244140625</ele>
        <time>2014-05-19T11:51:04Z</time>
      </trkpt>
      <trkpt lat="44.798299726098776" lon="5.589614287018776">
        <ele>1068</ele>
        <time>2014-05-19T11:51:06Z</time>
      </trkpt>
      <trkpt lat="44.798193359747529" lon="5.589728448539972">
        <ele>1068.800048828125</ele>
        <time>2014-05-19T11:51:12Z</time>
      </trkpt>
      <trkpt lat="44.798123706132174" lon="5.589801790192723">
        <ele>1069.199951171875</ele>
        <time>2014-05-19T11:51:16Z</time>
      </trkpt>
      <trkpt lat="44.798032594844699" lon="5.589887956157327">
        <ele>1070.4000244140625</ele>
        <time>2014-05-19T11:51:21Z</time>
      </trkpt>
      <trkpt lat="44.797918014228344" lon="5.589979402720928">
        <ele>1071.5999755859375</ele>
        <time>2014-05-19T11:51:27Z</time>
      </trkpt>
      <trkpt lat="44.797900998964906" lon="5.58999608270824">
        <ele>1071.800048828125</ele>
        <time>2014-05-19T11:51:28Z</time>
      </trkpt>
      <trkpt lat="44.797787424176931" lon="5.590066825971007">
        <ele>1072.5999755859375</ele>
        <time>2014-05-19T11:51:33Z</time>
      </trkpt>
      <trkpt lat="44.797717435285449" lon="5.590103203430772">
        <ele>1073.199951171875</ele>
        <time>2014-05-19T11:51:36Z</time>
      </trkpt>
      <trkpt lat="44.797664126381278" lon="5.590159278362989">
        <ele>1073.5999755859375</ele>
        <time>2014-05-19T11:51:39Z</time>
      </trkpt>
      <trkpt lat="44.797604531049728" lon="5.590189201757312">
        <ele>1074</ele>
        <time>2014-05-19T11:51:42Z</time>
      </trkpt>
      <trkpt lat="44.797513503581285" lon="5.590262543410063">
        <ele>1074.800048828125</ele>
        <time>2014-05-19T11:51:47Z</time>
      </trkpt>
      <trkpt lat="44.797455836087465" lon="5.590314595028758">
        <ele>1075</ele>
        <time>2014-05-19T11:51:50Z</time>
      </trkpt>
      <trkpt lat="44.797363299876451" lon="5.590387098491192">
        <ele>1075.800048828125</ele>
        <time>2014-05-19T11:51:55Z</time>
      </trkpt>
      <trkpt lat="44.797319043427706" lon="5.590421883389354">
        <ele>1076.199951171875</ele>
        <time>2014-05-19T11:51:57Z</time>
      </trkpt>
      <trkpt lat="44.797218209132552" lon="5.59054140932858">
        <ele>1076.800048828125</ele>
        <time>2014-05-19T11:52:03Z</time>
      </trkpt>
      <trkpt lat="44.797113686800003" lon="5.590693121775985">
        <ele>1078</ele>
        <time>2014-05-19T11:52:10Z</time>
      </trkpt>
      <trkpt lat="44.797094659879804" lon="5.590715417638421">
        <ele>1078.199951171875</ele>
        <time>2014-05-19T11:52:11Z</time>
      </trkpt>
      <trkpt lat="44.7970084939152" lon="5.590828657150269">
        <ele>1079.199951171875</ele>
        <time>2014-05-19T11:52:17Z</time>
      </trkpt>
      <trkpt lat="44.796992568299174" lon="5.590848689898849">
        <ele>1079.4000244140625</ele>
        <time>2014-05-19T11:52:18Z</time>
      </trkpt>
      <trkpt lat="44.7969273570925" lon="5.590914152562618">
        <ele>1080.199951171875</ele>
        <time>2014-05-19T11:52:22Z</time>
      </trkpt>
      <trkpt lat="44.796848734840751" lon="5.590972574427724">
        <ele>1081</ele>
        <time>2014-05-19T11:52:26Z</time>
      </trkpt>
      <trkpt lat="44.796778578311205" lon="5.591022195294499">
        <ele>1081.5999755859375</ele>
        <time>2014-05-19T11:52:29Z</time>
      </trkpt>
      <trkpt lat="44.796707164496183" lon="5.591074163094163">
        <ele>1082</ele>
        <time>2014-05-19T11:52:32Z</time>
      </trkpt>
      <trkpt lat="44.796641618013382" lon="5.591114982962608">
        <ele>1082.5999755859375</ele>
        <time>2014-05-19T11:52:35Z</time>
      </trkpt>
      <trkpt lat="44.796553188934922" lon="5.591174243018031">
        <ele>1083.4000244140625</ele>
        <time>2014-05-19T11:52:39Z</time>
      </trkpt>
      <trkpt lat="44.796504573896527" lon="5.59120886027813">
        <ele>1083.5999755859375</ele>
        <time>2014-05-19T11:52:41Z</time>
      </trkpt>
      <trkpt lat="44.796386556699872" lon="5.591282369568944">
        <ele>1084.800048828125</ele>
        <time>2014-05-19T11:52:47Z</time>
      </trkpt>
      <trkpt lat="44.796366775408387" lon="5.591303156688809">
        <ele>1085</ele>
        <time>2014-05-19T11:52:48Z</time>
      </trkpt>
      <trkpt lat="44.796227384358644" lon="5.591405248269439">
        <ele>1085.800048828125</ele>
        <time>2014-05-19T11:52:55Z</time>
      </trkpt>
      <trkpt lat="44.796071229502559" lon="5.591540532186627">
        <ele>1087</ele>
        <time>2014-05-19T11:53:03Z</time>
      </trkpt>
      <trkpt lat="44.795911386609077" lon="5.591651005670428">
        <ele>1088</ele>
        <time>2014-05-19T11:53:11Z</time>
      </trkpt>
      <trkpt lat="44.795832261443138" lon="5.59170045889914">
        <ele>1089.199951171875</ele>
        <time>2014-05-19T11:53:15Z</time>
      </trkpt>
      <trkpt lat="44.795746430754662" lon="5.591756533831358">
        <ele>1090.4000244140625</ele>
        <time>2014-05-19T11:53:19Z</time>
      </trkpt>
      <trkpt lat="44.795634364709258" lon="5.591854183003306">
        <ele>1090.5999755859375</ele>
        <time>2014-05-19T11:53:25Z</time>
      </trkpt>
      <trkpt lat="44.795562699437141" lon="5.591925345361233">
        <ele>1091.4000244140625</ele>
        <time>2014-05-19T11:53:29Z</time>
      </trkpt>
      <trkpt lat="44.795530680567026" lon="5.591967087239027">
        <ele>1092</ele>
        <time>2014-05-19T11:53:31Z</time>
      </trkpt>
      <trkpt lat="44.795435294508934" lon="5.592065239325166">
        <ele>1092.5999755859375</ele>
        <time>2014-05-19T11:53:36Z</time>
      </trkpt>
      <trkpt lat="44.79539749212563" lon="5.592109495773912">
        <ele>1092.5999755859375</ele>
        <time>2014-05-19T11:53:38Z</time>
      </trkpt>
      <trkpt lat="44.795321132987738" lon="5.592190213501453">
        <ele>1093.5999755859375</ele>
        <time>2014-05-19T11:53:42Z</time>
      </trkpt>
      <trkpt lat="44.795233374461532" lon="5.592277888208628">
        <ele>1094.199951171875</ele>
        <time>2014-05-19T11:53:47Z</time>
      </trkpt>
      <trkpt lat="44.795207558199763" lon="5.592321390286088">
        <ele>1094.5999755859375</ele>
        <time>2014-05-19T11:53:49Z</time>
      </trkpt>
      <trkpt lat="44.795147459954023" lon="5.592402024194598">
        <ele>1094.800048828125</ele>
        <time>2014-05-19T11:53:53Z</time>
      </trkpt>
      <trkpt lat="44.795093899592757" lon="5.592533955350518">
        <ele>1095.5999755859375</ele>
        <time>2014-05-19T11:53:59Z</time>
      </trkpt>
      <trkpt lat="44.795083673670888" lon="5.592559687793255">
        <ele>1096</ele>
        <time>2014-05-19T11:54:00Z</time>
      </trkpt>
      <trkpt lat="44.795043356716633" lon="5.592710478231311">
        <ele>1096.800048828125</ele>
        <time>2014-05-19T11:54:05Z</time>
      </trkpt>
      <trkpt lat="44.795023575425148" lon="5.592820448800921">
        <ele>1097.5999755859375</ele>
        <time>2014-05-19T11:54:09Z</time>
      </trkpt>
      <trkpt lat="44.795010583475232" lon="5.592873590067029">
        <ele>1098</ele>
        <time>2014-05-19T11:54:11Z</time>
      </trkpt>
      <trkpt lat="44.794953837990761" lon="5.593007113784552">
        <ele>1098.5999755859375</ele>
        <time>2014-05-19T11:54:16Z</time>
      </trkpt>
      <trkpt lat="44.79494352824986" lon="5.593030583113432">
        <ele>1099.4000244140625</ele>
        <time>2014-05-19T11:54:17Z</time>
      </trkpt>
      <trkpt lat="44.794869096949697" lon="5.593143487349153">
        <ele>1100.4000244140625</ele>
        <time>2014-05-19T11:54:22Z</time>
      </trkpt>
      <trkpt lat="44.79485216550529" lon="5.593167124316096">
        <ele>1100.4000244140625</ele>
        <time>2014-05-19T11:54:23Z</time>
      </trkpt>
      <trkpt lat="44.794726436957717" lon="5.593326380476356">
        <ele>1101.4000244140625</ele>
        <time>2014-05-19T11:54:30Z</time>
      </trkpt>
      <trkpt lat="44.794704644009471" lon="5.59334171935916">
        <ele>1101.4000244140625</ele>
        <time>2014-05-19T11:54:31Z</time>
      </trkpt>
      <trkpt lat="44.79461177252233" lon="5.593434171751142">
        <ele>1101.800048828125</ele>
        <time>2014-05-19T11:54:36Z</time>
      </trkpt>
      <trkpt lat="44.794515632092953" lon="5.593525366857648">
        <ele>1103</ele>
        <time>2014-05-19T11:54:41Z</time>
      </trkpt>
      <trkpt lat="44.794446146115661" lon="5.593560822308064">
        <ele>1103.5999755859375</ele>
        <time>2014-05-19T11:54:44Z</time>
      </trkpt>
      <trkpt lat="44.794420581310987" lon="5.593571132048965">
        <ele>1104</ele>
        <time>2014-05-19T11:54:45Z</time>
      </trkpt>
      <trkpt lat="44.794343719258904" lon="5.593618489801884">
        <ele>1105.199951171875</ele>
        <time>2014-05-19T11:54:49Z</time>
      </trkpt>
      <trkpt lat="44.794319830834866" lon="5.593625362962484">
        <ele>1105.199951171875</ele>
        <time>2014-05-19T11:54:50Z</time>
      </trkpt>
      <trkpt lat="44.794159485027194" lon="5.593630140647292">
        <ele>1106</ele>
        <time>2014-05-19T11:54:57Z</time>
      </trkpt>
      <trkpt lat="44.794135680422187" lon="5.593620417639613">
        <ele>1106.199951171875</ele>
        <time>2014-05-19T11:54:58Z</time>
      </trkpt>
      <trkpt lat="44.794027805328369" lon="5.593557972460985">
        <ele>1107.5999755859375</ele>
        <time>2014-05-19T11:55:03Z</time>
      </trkpt>
      <trkpt lat="44.794008275493979" lon="5.593533413484693">
        <ele>1107.800048828125</ele>
        <time>2014-05-19T11:55:04Z</time>
      </trkpt>
      <trkpt lat="44.793904842808843" lon="5.593422101810575">
        <ele>1108.5999755859375</ele>
        <time>2014-05-19T11:55:10Z</time>
      </trkpt>
      <trkpt lat="44.79388615116477" lon="5.59340575709939">
        <ele>1108.800048828125</ele>
        <time>2014-05-19T11:55:11Z</time>
      </trkpt>
      <trkpt lat="44.79380358941853" lon="5.593321770429611">
        <ele>1109.5999755859375</ele>
        <time>2014-05-19T11:55:15Z</time>
      </trkpt>
      <trkpt lat="44.793758159503341" lon="5.593284051865339">
        <ele>1109.800048828125</ele>
        <time>2014-05-19T11:55:17Z</time>
      </trkpt>
      <trkpt lat="44.793626731261611" lon="5.593230994418263">
        <ele>1110.5999755859375</ele>
        <time>2014-05-19T11:55:23Z</time>
      </trkpt>
      <trkpt lat="44.793606614693999" lon="5.593231748789549">
        <ele>1110.800048828125</ele>
        <time>2014-05-19T11:55:24Z</time>
      </trkpt>
      <trkpt lat="44.793588845059276" lon="5.593244908377528">
        <ele>1111</ele>
        <time>2014-05-19T11:55:25Z</time>
      </trkpt>
      <trkpt lat="44.793520448729396" lon="5.593264186754823">
        <ele>1111.4000244140625</ele>
        <time>2014-05-19T11:55:28Z</time>
      </trkpt>
      <trkpt lat="44.793497733771801" lon="5.593274412676692">
        <ele>1111.5999755859375</ele>
        <time>2014-05-19T11:55:29Z</time>
      </trkpt>
      <trkpt lat="44.7934649605304" lon="5.593289332464337">
        <ele>1111.800048828125</ele>
        <time>2014-05-19T11:55:31Z</time>
      </trkpt>
      <trkpt lat="44.793400838971138" lon="5.593323362991214">
        <ele>1112</ele>
        <time>2014-05-19T11:55:34Z</time>
      </trkpt>
      <trkpt lat="44.793286509811878" lon="5.593390837311745">
        <ele>1112.5999755859375</ele>
        <time>2014-05-19T11:55:40Z</time>
      </trkpt>
      <trkpt lat="44.793221466243267" lon="5.593415228649974">
        <ele>1113</ele>
        <time>2014-05-19T11:55:43Z</time>
      </trkpt>
      <trkpt lat="44.793151142075658" lon="5.593443559482694">
        <ele>1113</ele>
        <time>2014-05-19T11:55:46Z</time>
      </trkpt>
      <trkpt lat="44.792988365516067" lon="5.593515560030937">
        <ele>1114.199951171875</ele>
        <time>2014-05-19T11:55:53Z</time>
      </trkpt>
      <trkpt lat="44.792968835681677" lon="5.593525785952807">
        <ele>1114.800048828125</ele>
        <time>2014-05-19T11:55:54Z</time>
      </trkpt>
      <trkpt lat="44.792925333604217" lon="5.593552021309733">
        <ele>1115.5999755859375</ele>
        <time>2014-05-19T11:55:56Z</time>
      </trkpt>
      <trkpt lat="44.792818045243621" lon="5.593613795936108">
        <ele>1116</ele>
        <time>2014-05-19T11:56:01Z</time>
      </trkpt>
      <trkpt lat="44.792763479053974" lon="5.593655286356807">
        <ele>1116.800048828125</ele>
        <time>2014-05-19T11:56:04Z</time>
      </trkpt>
      <trkpt lat="44.792643534019589" lon="5.593734830617905">
        <ele>1117.5999755859375</ele>
        <time>2014-05-19T11:56:10Z</time>
      </trkpt>
      <trkpt lat="44.79262207634747" lon="5.593751510605216">
        <ele>1117.800048828125</ele>
        <time>2014-05-19T11:56:11Z</time>
      </trkpt>
      <trkpt lat="44.792472124099731" lon="5.593836084008217">
        <ele>1117.800048828125</ele>
        <time>2014-05-19T11:56:17Z</time>
      </trkpt>
      <trkpt lat="44.792357459664345" lon="5.593908419832587">
        <ele>1119</ele>
        <time>2014-05-19T11:56:22Z</time>
      </trkpt>
      <trkpt lat="44.79233524762094" lon="5.593925267457962">
        <ele>1119</ele>
        <time>2014-05-19T11:56:23Z</time>
      </trkpt>
      <trkpt lat="44.792264001443982" lon="5.593990059569478">
        <ele>1120</ele>
        <time>2014-05-19T11:56:27Z</time>
      </trkpt>
      <trkpt lat="44.79218378663063" lon="5.594038171693683">
        <ele>1121</ele>
        <time>2014-05-19T11:56:31Z</time>
      </trkpt>
      <trkpt lat="44.79216517880559" lon="5.594053091481328">
        <ele>1121.4000244140625</ele>
        <time>2014-05-19T11:56:32Z</time>
      </trkpt>
      <trkpt lat="44.792009610682726" lon="5.594164235517383">
        <ele>1121.5999755859375</ele>
        <time>2014-05-19T11:56:40Z</time>
      </trkpt>
      <trkpt lat="44.79195948690176" lon="5.594201199710369">
        <ele>1122.4000244140625</ele>
        <time>2014-05-19T11:56:43Z</time>
      </trkpt>
      <trkpt lat="44.791886899620295" lon="5.594243863597512">
        <ele>1123.4000244140625</ele>
        <time>2014-05-19T11:56:47Z</time>
      </trkpt>
      <trkpt lat="44.791871225461364" lon="5.594257777556777">
        <ele>1123.5999755859375</ele>
        <time>2014-05-19T11:56:48Z</time>
      </trkpt>
      <trkpt lat="44.791784221306443" lon="5.594321815297008">
        <ele>1123.800048828125</ele>
        <time>2014-05-19T11:56:53Z</time>
      </trkpt>
      <trkpt lat="44.791729403659701" lon="5.59435416944325">
        <ele>1124.5999755859375</ele>
        <time>2014-05-19T11:56:56Z</time>
      </trkpt>
      <trkpt lat="44.791668802499771" lon="5.594393229112029">
        <ele>1125.4000244140625</ele>
        <time>2014-05-19T11:56:59Z</time>
      </trkpt>
      <trkpt lat="44.791631167754531" lon="5.594424577429891">
        <ele>1125.5999755859375</ele>
        <time>2014-05-19T11:57:01Z</time>
      </trkpt>
      <trkpt lat="44.791543493047357" lon="5.594497583806515">
        <ele>1127</ele>
        <time>2014-05-19T11:57:06Z</time>
      </trkpt>
      <trkpt lat="44.791526477783918" lon="5.594514179974794">
        <ele>1127</ele>
        <time>2014-05-19T11:57:07Z</time>
      </trkpt>
      <trkpt lat="44.791383063420653" lon="5.594603111967444">
        <ele>1126.5999755859375</ele>
        <time>2014-05-19T11:57:14Z</time>
      </trkpt>
      <trkpt lat="44.791233949363232" lon="5.594732109457254">
        <ele>1128.199951171875</ele>
        <time>2014-05-19T11:57:21Z</time>
      </trkpt>
      <trkpt lat="44.791216431185603" lon="5.594750549644232">
        <ele>1128.4000244140625</ele>
        <time>2014-05-19T11:57:22Z</time>
      </trkpt>
      <trkpt lat="44.791134288534522" lon="5.594823556020856">
        <ele>1129.4000244140625</ele>
        <time>2014-05-19T11:57:26Z</time>
      </trkpt>
      <trkpt lat="44.79103060439229" lon="5.594894718378782">
        <ele>1130.800048828125</ele>
        <time>2014-05-19T11:57:30Z</time>
      </trkpt>
      <trkpt lat="44.790900517255068" lon="5.59499429538846">
        <ele>1131.800048828125</ele>
        <time>2014-05-19T11:57:36Z</time>
      </trkpt>
      <trkpt lat="44.790765568614006" lon="5.595066044479609">
        <ele>1132.800048828125</ele>
        <time>2014-05-19T11:57:42Z</time>
      </trkpt>
      <trkpt lat="44.790676301345229" lon="5.595094878226519">
        <ele>1133</ele>
        <time>2014-05-19T11:57:46Z</time>
      </trkpt>
      <trkpt lat="44.79062114842236" lon="5.595102002844214">
        <ele>1133.4000244140625</ele>
        <time>2014-05-19T11:57:48Z</time>
      </trkpt>
      <trkpt lat="44.790572784841061" lon="5.595115665346384">
        <ele>1134</ele>
        <time>2014-05-19T11:57:50Z</time>
      </trkpt>
      <trkpt lat="44.790482763200998" lon="5.595129914581776">
        <ele>1135.199951171875</ele>
        <time>2014-05-19T11:57:54Z</time>
      </trkpt>
      <trkpt lat="44.790387796238065" lon="5.59508515521884">
        <ele>1136</ele>
        <time>2014-05-19T11:57:59Z</time>
      </trkpt>
      <trkpt lat="44.790366841480136" lon="5.595074007287622">
        <ele>1136.4000244140625</ele>
        <time>2014-05-19T11:58:00Z</time>
      </trkpt>
      <trkpt lat="44.790226947516203" lon="5.59503042139113">
        <ele>1137.199951171875</ele>
        <time>2014-05-19T11:58:07Z</time>
      </trkpt>
      <trkpt lat="44.790105242282152" lon="5.595037378370762">
        <ele>1137.4000244140625</ele>
        <time>2014-05-19T11:58:13Z</time>
      </trkpt>
      <trkpt lat="44.790066601708531" lon="5.595040395855904">
        <ele>1138.199951171875</ele>
        <time>2014-05-19T11:58:15Z</time>
      </trkpt>
      <trkpt lat="44.790021842345595" lon="5.595056237652898">
        <ele>1139.199951171875</ele>
        <time>2014-05-19T12:02:02Z</time>
      </trkpt>
      <trkpt lat="44.789895191788673" lon="5.595193281769753">
        <ele>1138.5999755859375</ele>
        <time>2014-05-19T12:02:09Z</time>
      </trkpt>
      <trkpt lat="44.789771139621735" lon="5.595340551808476">
        <ele>1139.199951171875</ele>
        <time>2014-05-19T12:02:16Z</time>
      </trkpt>
      <trkpt lat="44.789733840152621" lon="5.595390005037189">
        <ele>1140</ele>
        <time>2014-05-19T12:02:18Z</time>
      </trkpt>
      <trkpt lat="44.789628647267818" lon="5.595503998920322">
        <ele>1141</ele>
        <time>2014-05-19T12:02:24Z</time>
      </trkpt>
      <trkpt lat="44.789514569565654" lon="5.595600893720985">
        <ele>1142.199951171875</ele>
        <time>2014-05-19T12:02:30Z</time>
      </trkpt>
      <trkpt lat="44.789498308673501" lon="5.595620842650533">
        <ele>1142</ele>
        <time>2014-05-19T12:02:31Z</time>
      </trkpt>
      <trkpt lat="44.78947676718235" lon="5.595629811286926">
        <ele>1142</ele>
        <time>2014-05-19T12:02:32Z</time>
      </trkpt>
      <trkpt lat="44.789399737492204" lon="5.595687981694937">
        <ele>1142.800048828125</ele>
        <time>2014-05-19T12:02:36Z</time>
      </trkpt>
      <trkpt lat="44.789350787177682" lon="5.595706421881914">
        <ele>1143.4000244140625</ele>
        <time>2014-05-19T12:02:38Z</time>
      </trkpt>
      <trkpt lat="44.789309548214078" lon="5.59574187733233">
        <ele>1143.800048828125</ele>
        <time>2014-05-19T12:02:40Z</time>
      </trkpt>
      <trkpt lat="44.789269147440791" lon="5.595765681937337">
        <ele>1144.4000244140625</ele>
        <time>2014-05-19T12:02:42Z</time>
      </trkpt>
      <trkpt lat="44.789161020889878" lon="5.595835167914629">
        <ele>1144.800048828125</ele>
        <time>2014-05-19T12:02:47Z</time>
      </trkpt>
      <trkpt lat="44.789066556841135" lon="5.59591144323349">
        <ele>1145.4000244140625</ele>
        <time>2014-05-19T12:02:52Z</time>
      </trkpt>
      <trkpt lat="44.78905163705349" lon="5.59592611156404">
        <ele>1145.5999755859375</ele>
        <time>2014-05-19T12:02:53Z</time>
      </trkpt>
      <trkpt lat="44.789007632061839" lon="5.595990903675556">
        <ele>1146.4000244140625</ele>
        <time>2014-05-19T12:02:56Z</time>
      </trkpt>
      <trkpt lat="44.788970248773694" lon="5.596064915880561">
        <ele>1147.5999755859375</ele>
        <time>2014-05-19T12:02:59Z</time>
      </trkpt>
      <trkpt lat="44.788953065872192" lon="5.596087127923966">
        <ele>1147.800048828125</ele>
        <time>2014-05-19T12:03:00Z</time>
      </trkpt>
      <trkpt lat="44.788876622915268" lon="5.596196679398418">
        <ele>1148.800048828125</ele>
        <time>2014-05-19T12:03:05Z</time>
      </trkpt>
      <trkpt lat="44.788845609873533" lon="5.596246216446161">
        <ele>1149.4000244140625</ele>
        <time>2014-05-19T12:03:07Z</time>
      </trkpt>
      <trkpt lat="44.788795737549663" lon="5.596333472058177">
        <ele>1150</ele>
        <time>2014-05-19T12:03:10Z</time>
      </trkpt>
      <trkpt lat="44.788705632090569" lon="5.59646749868989">
        <ele>1150.800048828125</ele>
        <time>2014-05-19T12:03:16Z</time>
      </trkpt>
      <trkpt lat="44.788694567978382" lon="5.596499433740974">
        <ele>1151</ele>
        <time>2014-05-19T12:03:17Z</time>
      </trkpt>
      <trkpt lat="44.788621896877885" lon="5.596587276086211">
        <ele>1151.5999755859375</ele>
        <time>2014-05-19T12:03:21Z</time>
      </trkpt>
      <trkpt lat="44.788593566045165" lon="5.596633879467845">
        <ele>1152</ele>
        <time>2014-05-19T12:03:23Z</time>
      </trkpt>
      <trkpt lat="44.788533383980393" lon="5.596749801188707">
        <ele>1152.800048828125</ele>
        <time>2014-05-19T12:03:28Z</time>
      </trkpt>
      <trkpt lat="44.788510920479894" lon="5.596806546673179">
        <ele>1153.199951171875</ele>
        <time>2014-05-19T12:03:30Z</time>
      </trkpt>
      <trkpt lat="44.788432884961367" lon="5.596949039027095">
        <ele>1153.800048828125</ele>
        <time>2014-05-19T12:03:36Z</time>
      </trkpt>
      <trkpt lat="44.788408745080233" lon="5.596992038190365">
        <ele>1154.5999755859375</ele>
        <time>2014-05-19T12:03:38Z</time>
      </trkpt>
      <trkpt lat="44.788370691239834" lon="5.597073007375002">
        <ele>1155</ele>
        <time>2014-05-19T12:03:41Z</time>
      </trkpt>
      <trkpt lat="44.788341606035829" lon="5.597117766737938">
        <ele>1155.5999755859375</ele>
        <time>2014-05-19T12:03:43Z</time>
      </trkpt>
      <trkpt lat="44.788268264383078" lon="5.597199825569987">
        <ele>1156.199951171875</ele>
        <time>2014-05-19T12:03:47Z</time>
      </trkpt>
      <trkpt lat="44.788221828639507" lon="5.597259337082505">
        <ele>1156.5999755859375</ele>
        <time>2014-05-19T12:03:50Z</time>
      </trkpt>
      <trkpt lat="44.788166508078575" lon="5.597323710098863">
        <ele>1156.800048828125</ele>
        <time>2014-05-19T12:03:53Z</time>
      </trkpt>
      <trkpt lat="44.788064081221819" lon="5.597439715638757">
        <ele>1157.800048828125</ele>
        <time>2014-05-19T12:03:59Z</time>
      </trkpt>
      <trkpt lat="44.788042120635509" lon="5.597459077835083">
        <ele>1158</ele>
        <time>2014-05-19T12:04:00Z</time>
      </trkpt>
      <trkpt lat="44.787970706820488" lon="5.5975376162678">
        <ele>1158.800048828125</ele>
        <time>2014-05-19T12:04:04Z</time>
      </trkpt>
      <trkpt lat="44.787937514483929" lon="5.597578687593341">
        <ele>1158.800048828125</ele>
        <time>2014-05-19T12:04:06Z</time>
      </trkpt>
      <trkpt lat="44.787826873362064" lon="5.597701650112867">
        <ele>1159.800048828125</ele>
        <time>2014-05-19T12:04:13Z</time>
      </trkpt>
      <trkpt lat="44.78774699382484" lon="5.597844058647752">
        <ele>1161</ele>
        <time>2014-05-19T12:04:20Z</time>
      </trkpt>
      <trkpt lat="44.787731738761067" lon="5.59786157682538">
        <ele>1161.199951171875</ele>
        <time>2014-05-19T12:04:21Z</time>
      </trkpt>
      <trkpt lat="44.787681782618165" lon="5.59800080023706">
        <ele>1162</ele>
        <time>2014-05-19T12:04:27Z</time>
      </trkpt>
      <trkpt lat="44.787601483985782" lon="5.598136335611343">
        <ele>1163.199951171875</ele>
        <time>2014-05-19T12:04:33Z</time>
      </trkpt>
      <trkpt lat="44.787585893645883" lon="5.598148489370942">
        <ele>1163.5999755859375</ele>
        <time>2014-05-19T12:04:34Z</time>
      </trkpt>
      <trkpt lat="44.787524621933699" lon="5.598207749426365">
        <ele>1164.4000244140625</ele>
        <time>2014-05-19T12:04:38Z</time>
      </trkpt>
      <trkpt lat="44.787469720467925" lon="5.598243456333876">
        <ele>1165</ele>
        <time>2014-05-19T12:04:41Z</time>
      </trkpt>
      <trkpt lat="44.787430493161082" lon="5.598283270373941">
        <ele>1165.4000244140625</ele>
        <time>2014-05-19T12:04:43Z</time>
      </trkpt>
      <trkpt lat="44.787331502884626" lon="5.598367424681783">
        <ele>1166.4000244140625</ele>
        <time>2014-05-19T12:04:48Z</time>
      </trkpt>
      <trkpt lat="44.787315661087632" lon="5.598395587876439">
        <ele>1166.5999755859375</ele>
        <time>2014-05-19T12:04:49Z</time>
      </trkpt>
      <trkpt lat="44.78722027502954" lon="5.598484436050057">
        <ele>1167.5999755859375</ele>
        <time>2014-05-19T12:04:54Z</time>
      </trkpt>
      <trkpt lat="44.787201331928372" lon="5.598504720255733">
        <ele>1167.800048828125</ele>
        <time>2014-05-19T12:04:55Z</time>
      </trkpt>
      <trkpt lat="44.78705607354641" lon="5.598604967817664">
        <ele>1168.5999755859375</ele>
        <time>2014-05-19T12:05:02Z</time>
      </trkpt>
      <trkpt lat="44.787031263113022" lon="5.598619552329183">
        <ele>1168.800048828125</ele>
        <time>2014-05-19T12:05:03Z</time>
      </trkpt>
      <trkpt lat="44.786896733567119" lon="5.598655426874757">
        <ele>1170</ele>
        <time>2014-05-19T12:05:09Z</time>
      </trkpt>
      <trkpt lat="44.786874772980809" lon="5.598657857626677">
        <ele>1170.199951171875</ele>
        <time>2014-05-19T12:05:10Z</time>
      </trkpt>
      <trkpt lat="44.786761617287993" lon="5.598692977800965">
        <ele>1171.199951171875</ele>
        <time>2014-05-19T12:05:15Z</time>
      </trkpt>
      <trkpt lat="44.786705123260617" lon="5.59869272634387">
        <ele>1171.5999755859375</ele>
        <time>2014-05-19T12:05:17Z</time>
      </trkpt>
      <trkpt lat="44.786565396934748" lon="5.598722230643034">
        <ele>1172.199951171875</ele>
        <time>2014-05-19T12:05:23Z</time>
      </trkpt>
      <trkpt lat="44.786543101072311" lon="5.598726756870747">
        <ele>1172.4000244140625</ele>
        <time>2014-05-19T12:05:24Z</time>
      </trkpt>
      <trkpt lat="44.786437656730413" lon="5.598740251734853">
        <ele>1173.5999755859375</ele>
        <time>2014-05-19T12:05:29Z</time>
      </trkpt>
      <trkpt lat="44.786369344219565" lon="5.598742514848709">
        <ele>1174.5999755859375</ele>
        <time>2014-05-19T12:05:32Z</time>
      </trkpt>
      <trkpt lat="44.786224840208888" lon="5.598752070218325">
        <ele>1174.800048828125</ele>
        <time>2014-05-19T12:05:38Z</time>
      </trkpt>
      <trkpt lat="44.786117635667324" lon="5.598736898973584">
        <ele>1176.199951171875</ele>
        <time>2014-05-19T12:05:42Z</time>
      </trkpt>
      <trkpt lat="44.786024847999215" lon="5.598736731335521">
        <ele>1176.800048828125</ele>
        <time>2014-05-19T12:05:46Z</time>
      </trkpt>
      <trkpt lat="44.785889815539122" lon="5.598728181794286">
        <ele>1177.199951171875</ele>
        <time>2014-05-19T12:05:52Z</time>
      </trkpt>
      <trkpt lat="44.785827370360494" lon="5.598735390231013">
        <ele>1177.800048828125</ele>
        <time>2014-05-19T12:05:55Z</time>
      </trkpt>
      <trkpt lat="44.78576710447669" lon="5.598737737163901">
        <ele>1178.199951171875</ele>
        <time>2014-05-19T12:05:58Z</time>
      </trkpt>
      <trkpt lat="44.785687308758497" lon="5.598732959479094">
        <ele>1179</ele>
        <time>2014-05-19T12:06:02Z</time>
      </trkpt>
      <trkpt lat="44.785667946562171" lon="5.59873228892684">
        <ele>1179.5999755859375</ele>
        <time>2014-05-19T12:06:03Z</time>
      </trkpt>
      <trkpt lat="44.78552620857954" lon="5.598737737163901">
        <ele>1180.199951171875</ele>
        <time>2014-05-19T12:06:10Z</time>
      </trkpt>
      <trkpt lat="44.785404251888394" lon="5.598742933943868">
        <ele>1180.5999755859375</ele>
        <time>2014-05-19T12:06:16Z</time>
      </trkpt>
      <trkpt lat="44.785347506403923" lon="5.598743855953217">
        <ele>1181.199951171875</ele>
        <time>2014-05-19T12:06:19Z</time>
      </trkpt>
      <trkpt lat="44.785244576632977" lon="5.598739162087441">
        <ele>1181.800048828125</ele>
        <time>2014-05-19T12:06:24Z</time>
      </trkpt>
      <trkpt lat="44.785189339891076" lon="5.598720135167241">
        <ele>1182.4000244140625</ele>
        <time>2014-05-19T12:06:27Z</time>
      </trkpt>
      <trkpt lat="44.785132007673383" lon="5.598692810162902">
        <ele>1183</ele>
        <time>2014-05-19T12:06:30Z</time>
      </trkpt>
      <trkpt lat="44.785050619393587" lon="5.598635477945209">
        <ele>1183.5999755859375</ele>
        <time>2014-05-19T12:06:34Z</time>
      </trkpt>
      <trkpt lat="44.785016337409616" lon="5.598590215668082">
        <ele>1184</ele>
        <time>2014-05-19T12:06:36Z</time>
      </trkpt>
      <trkpt lat="44.784925393760204" lon="5.598418638110161">
        <ele>1184.4000244140625</ele>
        <time>2014-05-19T12:06:42Z</time>
      </trkpt>
      <trkpt lat="44.784905109554529" lon="5.598387960344553">
        <ele>1185</ele>
        <time>2014-05-19T12:06:43Z</time>
      </trkpt>
      <trkpt lat="44.784793462604284" lon="5.598191739991307">
        <ele>1185.5999755859375</ele>
        <time>2014-05-19T12:06:49Z</time>
      </trkpt>
      <trkpt lat="44.784697825089097" lon="5.598037093877792">
        <ele>1186.199951171875</ele>
        <time>2014-05-19T12:06:53Z</time>
      </trkpt>
      <trkpt lat="44.78461442515254" lon="5.597929051145911">
        <ele>1186.5999755859375</ele>
        <time>2014-05-19T12:06:56Z</time>
      </trkpt>
      <trkpt lat="44.784399848431349" lon="5.597727047279477">
        <ele>1186.800048828125</ele>
        <time>2014-05-19T12:07:03Z</time>
      </trkpt>
      <trkpt lat="44.784202873706818" lon="5.597620429471135">
        <ele>1187.199951171875</ele>
        <time>2014-05-19T12:07:08Z</time>
      </trkpt>
      <trkpt lat="44.784056777134538" lon="5.597532168030739">
        <ele>1187.800048828125</ele>
        <time>2014-05-19T12:07:12Z</time>
      </trkpt>
      <trkpt lat="44.783706832677126" lon="5.597278196364641">
        <ele>1188.199951171875</ele>
        <time>2014-05-19T12:07:22Z</time>
      </trkpt>
      <trkpt lat="44.783620918169618" lon="5.597171997651458">
        <ele>1188.199951171875</ele>
        <time>2014-05-19T12:07:25Z</time>
      </trkpt>
      <trkpt lat="44.783596526831388" lon="5.597133608534932">
        <ele>1188.5999755859375</ele>
        <time>2014-05-19T12:07:26Z</time>
      </trkpt>
      <trkpt lat="44.78355411440134" lon="5.597051717340946">
        <ele>1189.199951171875</ele>
        <time>2014-05-19T12:07:28Z</time>
      </trkpt>
      <trkpt lat="44.783490495756269" lon="5.596867902204394">
        <ele>1189.800048828125</ele>
        <time>2014-05-19T12:07:32Z</time>
      </trkpt>
      <trkpt lat="44.783451855182648" lon="5.596718788146973">
        <ele>1189.800048828125</ele>
        <time>2014-05-19T12:07:35Z</time>
      </trkpt>
      <trkpt lat="44.78334448300302" lon="5.596320647746325">
        <ele>1190.4000244140625</ele>
        <time>2014-05-19T12:07:43Z</time>
      </trkpt>
      <trkpt lat="44.783315733075142" lon="5.596228782087565">
        <ele>1190.800048828125</ele>
        <time>2014-05-19T12:07:45Z</time>
      </trkpt>
      <trkpt lat="44.783265190199018" lon="5.595973385497928">
        <ele>1192</ele>
        <time>2014-05-19T12:07:50Z</time>
      </trkpt>
      <trkpt lat="44.783267201855779" lon="5.595631906762719">
        <ele>1193</ele>
        <time>2014-05-19T12:07:56Z</time>
      </trkpt>
      <trkpt lat="44.783275248482823" lon="5.595576670020819">
        <ele>1193</ele>
        <time>2014-05-19T12:07:57Z</time>
      </trkpt>
      <trkpt lat="44.783314140513539" lon="5.595308365300298">
        <ele>1193.5999755859375</ele>
        <time>2014-05-19T12:08:02Z</time>
      </trkpt>
      <trkpt lat="44.78332051075995" lon="5.595157407224178">
        <ele>1193.5999755859375</ele>
        <time>2014-05-19T12:08:05Z</time>
      </trkpt>
      <trkpt lat="44.783321851864457" lon="5.595119018107653">
        <ele>1193.5999755859375</ele>
        <time>2014-05-19T12:08:06Z</time>
      </trkpt>
      <trkpt lat="44.783311123028398" lon="5.594994211569428">
        <ele>1194.199951171875</ele>
        <time>2014-05-19T12:08:09Z</time>
      </trkpt>
      <trkpt lat="44.783306932076812" lon="5.594938136637211">
        <ele>1194.199951171875</ele>
        <time>2014-05-19T12:08:10Z</time>
      </trkpt>
      <trkpt lat="44.783289413899183" lon="5.594819700345397">
        <ele>1194.5999755859375</ele>
        <time>2014-05-19T12:08:12Z</time>
      </trkpt>
      <trkpt lat="44.783229902386665" lon="5.594652397558093">
        <ele>1195.199951171875</ele>
        <time>2014-05-19T12:08:16Z</time>
      </trkpt>
      <trkpt lat="44.783194614574313" lon="5.594619205221534">
        <ele>1195.5999755859375</ele>
        <time>2014-05-19T12:08:17Z</time>
      </trkpt>
      <trkpt lat="44.783085566014051" lon="5.5946175288409">
        <ele>1196.4000244140625</ele>
        <time>2014-05-19T12:08:20Z</time>
      </trkpt>
      <trkpt lat="44.783015912398696" lon="5.594657342880964">
        <ele>1196.800048828125</ele>
        <time>2014-05-19T12:08:22Z</time>
      </trkpt>
      <trkpt lat="44.782884316518903" lon="5.594772845506668">
        <ele>1197.4000244140625</ele>
        <time>2014-05-19T12:08:26Z</time>
      </trkpt>
      <trkpt lat="44.782708464190364" lon="5.594971748068929">
        <ele>1198</ele>
        <time>2014-05-19T12:08:32Z</time>
      </trkpt>
      <trkpt lat="44.782607378438115" lon="5.595119688659906">
        <ele>1198.4000244140625</ele>
        <time>2014-05-19T12:08:36Z</time>
      </trkpt>
      <trkpt lat="44.782526912167668" lon="5.595221864059568">
        <ele>1198.800048828125</ele>
        <time>2014-05-19T12:08:39Z</time>
      </trkpt>
      <trkpt lat="44.782385425642133" lon="5.595351783558726">
        <ele>1199.4000244140625</ele>
        <time>2014-05-19T12:08:44Z</time>
      </trkpt>
      <trkpt lat="44.782328428700566" lon="5.595404505729675">
        <ele>1199.5999755859375</ele>
        <time>2014-05-19T12:08:46Z</time>
      </trkpt>
      <trkpt lat="44.782113768160343" lon="5.59558991342783">
        <ele>1200</ele>
        <time>2014-05-19T12:08:53Z</time>
      </trkpt>
      <trkpt lat="44.781990218907595" lon="5.595687897875905">
        <ele>1200.5999755859375</ele>
        <time>2014-05-19T12:08:57Z</time>
      </trkpt>
      <trkpt lat="44.78192986920476" lon="5.595738776028156">
        <ele>1200.5999755859375</ele>
        <time>2014-05-19T12:08:59Z</time>
      </trkpt>
      <trkpt lat="44.781701629981399" lon="5.595939019694924">
        <ele>1201</ele>
        <time>2014-05-19T12:09:07Z</time>
      </trkpt>
      <trkpt lat="44.781609261408448" lon="5.595970535650849">
        <ele>1201.5999755859375</ele>
        <time>2014-05-19T12:09:10Z</time>
      </trkpt>
      <trkpt lat="44.78154581040144" lon="5.595976235345006">
        <ele>1201.800048828125</ele>
        <time>2014-05-19T12:09:12Z</time>
      </trkpt>
      <trkpt lat="44.781403737142682" lon="5.595891745761037">
        <ele>1202.4000244140625</ele>
        <time>2014-05-19T12:09:17Z</time>
      </trkpt>
      <trkpt lat="44.781380603089929" lon="5.595859978348017">
        <ele>1202.5999755859375</ele>
        <time>2014-05-19T12:09:18Z</time>
      </trkpt>
      <trkpt lat="44.781321510672569" lon="5.595703320577741">
        <ele>1203.199951171875</ele>
        <time>2014-05-19T12:09:22Z</time>
      </trkpt>
      <trkpt lat="44.78129955008626" lon="5.595524283125997">
        <ele>1203.800048828125</ele>
        <time>2014-05-19T12:09:26Z</time>
      </trkpt>
      <trkpt lat="44.781304495409131" lon="5.595436273142695">
        <ele>1204</ele>
        <time>2014-05-19T12:09:28Z</time>
      </trkpt>
      <trkpt lat="44.781327964738011" lon="5.595175176858902">
        <ele>1204.5999755859375</ele>
        <time>2014-05-19T12:09:34Z</time>
      </trkpt>
      <trkpt lat="44.781329222023487" lon="5.595141816884279">
        <ele>1204.800048828125</ele>
        <time>2014-05-19T12:09:35Z</time>
      </trkpt>
      <trkpt lat="44.781319331377745" lon="5.595059087499976">
        <ele>1205.199951171875</ele>
        <time>2014-05-19T12:09:37Z</time>
      </trkpt>
      <trkpt lat="44.781229645013809" lon="5.594729343429208">
        <ele>1205.800048828125</ele>
        <time>2014-05-19T12:09:43Z</time>
      </trkpt>
      <trkpt lat="44.781174240633845" lon="5.594505378976464">
        <ele>1206.199951171875</ele>
        <time>2014-05-19T12:09:47Z</time>
      </trkpt>
      <trkpt lat="44.781116489320993" lon="5.594288371503353">
        <ele>1206.800048828125</ele>
        <time>2014-05-19T12:09:51Z</time>
      </trkpt>
      <trkpt lat="44.781067119911313" lon="5.594127019867301">
        <ele>1207.4000244140625</ele>
        <time>2014-05-19T12:09:54Z</time>
      </trkpt>
      <trkpt lat="44.781049769371748" lon="5.594074297696352">
        <ele>1208</ele>
        <time>2014-05-19T12:09:55Z</time>
      </trkpt>
      <trkpt lat="44.780939547345042" lon="5.593704236671329">
        <ele>1208.5999755859375</ele>
        <time>2014-05-19T12:10:02Z</time>
      </trkpt>
      <trkpt lat="44.780907109379768" lon="5.593592841178179">
        <ele>1209</ele>
        <time>2014-05-19T12:10:04Z</time>
      </trkpt>
      <trkpt lat="44.780850615352392" lon="5.593515308573842">
        <ele>1209.199951171875</ele>
        <time>2014-05-19T12:10:06Z</time>
      </trkpt>
      <trkpt lat="44.780733520165086" lon="5.59352058917284">
        <ele>1209.800048828125</ele>
        <time>2014-05-19T12:10:10Z</time>
      </trkpt>
      <trkpt lat="44.780678115785122" lon="5.593682359904051">
        <ele>1209.800048828125</ele>
        <time>2014-05-19T12:10:15Z</time>
      </trkpt>
      <trkpt lat="44.780678115785122" lon="5.593710439279676">
        <ele>1210</ele>
        <time>2014-05-19T12:10:16Z</time>
      </trkpt>
      <trkpt lat="44.780654478818178" lon="5.593966003507376">
        <ele>1211.4000244140625</ele>
        <time>2014-05-19T12:10:23Z</time>
      </trkpt>
      <trkpt lat="44.780551046133041" lon="5.594209665432572">
        <ele>1212.199951171875</ele>
        <time>2014-05-19T12:10:29Z</time>
      </trkpt>
      <trkpt lat="44.780431939288974" lon="5.594413345679641">
        <ele>1212.199951171875</ele>
        <time>2014-05-19T12:10:33Z</time>
      </trkpt>
      <trkpt lat="44.780388604849577" lon="5.594494985416532">
        <ele>1212.4000244140625</ele>
        <time>2014-05-19T12:10:35Z</time>
      </trkpt>
      <trkpt lat="44.780313419178128" lon="5.594625994563103">
        <ele>1213</ele>
        <time>2014-05-19T12:10:38Z</time>
      </trkpt>
      <trkpt lat="44.780198838561773" lon="5.594847025349736">
        <ele>1213.5999755859375</ele>
        <time>2014-05-19T12:10:43Z</time>
      </trkpt>
      <trkpt lat="44.78017914108932" lon="5.594902262091637">
        <ele>1213.800048828125</ele>
        <time>2014-05-19T12:10:44Z</time>
      </trkpt>
      <trkpt lat="44.780074451118708" lon="5.595218930393457">
        <ele>1214</ele>
        <time>2014-05-19T12:10:50Z</time>
      </trkpt>
      <trkpt lat="44.779988368973136" lon="5.595544818788767">
        <ele>1214.5999755859375</ele>
        <time>2014-05-19T12:10:56Z</time>
      </trkpt>
      <trkpt lat="44.779938664287329" lon="5.595748666673899">
        <ele>1215.199951171875</ele>
        <time>2014-05-19T12:11:00Z</time>
      </trkpt>
      <trkpt lat="44.779896587133408" lon="5.595898618921638">
        <ele>1215.199951171875</ele>
        <time>2014-05-19T12:11:03Z</time>
      </trkpt>
      <trkpt lat="44.779846044257283" lon="5.596113614737988">
        <ele>1215.800048828125</ele>
        <time>2014-05-19T12:11:07Z</time>
      </trkpt>
      <trkpt lat="44.779810169711709" lon="5.596254598349333">
        <ele>1216.199951171875</ele>
        <time>2014-05-19T12:11:10Z</time>
      </trkpt>
      <trkpt lat="44.779704473912716" lon="5.596407148987055">
        <ele>1216.4000244140625</ele>
        <time>2014-05-19T12:11:14Z</time>
      </trkpt>
      <trkpt lat="44.779606489464641" lon="5.59640396386385">
        <ele>1216.800048828125</ele>
        <time>2014-05-19T12:11:17Z</time>
      </trkpt>
      <trkpt lat="44.779526777565479" lon="5.596205145120621">
        <ele>1217.800048828125</ele>
        <time>2014-05-19T12:11:22Z</time>
      </trkpt>
      <trkpt lat="44.779509678483009" lon="5.596110094338656">
        <ele>1218</ele>
        <time>2014-05-19T12:11:24Z</time>
      </trkpt>
      <trkpt lat="44.779461147263646" lon="5.595869198441505">
        <ele>1218.800048828125</ele>
        <time>2014-05-19T12:11:29Z</time>
      </trkpt>
      <trkpt lat="44.779449580237269" lon="5.595818571746349">
        <ele>1219</ele>
        <time>2014-05-19T12:11:30Z</time>
      </trkpt>
      <trkpt lat="44.779401887208223" lon="5.595552362501621">
        <ele>1219.4000244140625</ele>
        <time>2014-05-19T12:11:35Z</time>
      </trkpt>
      <trkpt lat="44.779361486434937" lon="5.5953289847821">
        <ele>1220</ele>
        <time>2014-05-19T12:11:39Z</time>
      </trkpt>
      <trkpt lat="44.779340447857976" lon="5.595218595117331">
        <ele>1220.199951171875</ele>
        <time>2014-05-19T12:11:41Z</time>
      </trkpt>
      <trkpt lat="44.779304573312402" lon="5.594932353124023">
        <ele>1220.5999755859375</ele>
        <time>2014-05-19T12:11:47Z</time>
      </trkpt>
      <trkpt lat="44.779283702373505" lon="5.594836883246899">
        <ele>1221.199951171875</ele>
        <time>2014-05-19T12:11:49Z</time>
      </trkpt>
      <trkpt lat="44.779239362105727" lon="5.594678046181798">
        <ele>1221.4000244140625</ele>
        <time>2014-05-19T12:11:52Z</time>
      </trkpt>
      <trkpt lat="44.779184712097049" lon="5.594350229948759">
        <ele>1222</ele>
        <time>2014-05-19T12:11:58Z</time>
      </trkpt>
      <trkpt lat="44.779185801744461" lon="5.594203798100352">
        <ele>1222.199951171875</ele>
        <time>2014-05-19T12:12:01Z</time>
      </trkpt>
      <trkpt lat="44.779193261638284" lon="5.59406004846096">
        <ele>1222.800048828125</ele>
        <time>2014-05-19T12:12:04Z</time>
      </trkpt>
      <trkpt lat="44.779210360720754" lon="5.593918729573488">
        <ele>1223.199951171875</ele>
        <time>2014-05-19T12:12:07Z</time>
      </trkpt>
      <trkpt lat="44.779220502823591" lon="5.593759389594197">
        <ele>1223.5999755859375</ele>
        <time>2014-05-19T12:12:10Z</time>
      </trkpt>
      <trkpt lat="44.779199715703726" lon="5.593577334657311">
        <ele>1223.800048828125</ele>
        <time>2014-05-19T12:12:14Z</time>
      </trkpt>
      <trkpt lat="44.779121009632945" lon="5.593352448195219">
        <ele>1224.199951171875</ele>
        <time>2014-05-19T12:12:19Z</time>
      </trkpt>
      <trkpt lat="44.77910072542727" lon="5.593309532850981">
        <ele>1224.199951171875</ele>
        <time>2014-05-19T12:12:20Z</time>
      </trkpt>
      <trkpt lat="44.779016487300396" lon="5.593093195930123">
        <ele>1225.199951171875</ele>
        <time>2014-05-19T12:12:25Z</time>
      </trkpt>
      <trkpt lat="44.77900885976851" lon="5.593051873147488">
        <ele>1225.4000244140625</ele>
        <time>2014-05-19T12:12:26Z</time>
      </trkpt>
      <trkpt lat="44.779022522270679" lon="5.592922037467361">
        <ele>1225.5999755859375</ele>
        <time>2014-05-19T12:12:29Z</time>
      </trkpt>
      <trkpt lat="44.779065689072013" lon="5.592712238430977">
        <ele>1226.199951171875</ele>
        <time>2014-05-19T12:12:34Z</time>
      </trkpt>
      <trkpt lat="44.77907482534647" lon="5.59267083182931">
        <ele>1226.4000244140625</ele>
        <time>2014-05-19T12:12:35Z</time>
      </trkpt>
      <trkpt lat="44.77910315617919" lon="5.592505456879735">
        <ele>1226.800048828125</ele>
        <time>2014-05-19T12:12:39Z</time>
      </trkpt>
      <trkpt lat="44.779109358787537" lon="5.592274200171232">
        <ele>1227.199951171875</ele>
        <time>2014-05-19T12:12:44Z</time>
      </trkpt>
      <trkpt lat="44.779099132865667" lon="5.59214654378593">
        <ele>1227.5999755859375</ele>
        <time>2014-05-19T12:12:47Z</time>
      </trkpt>
      <trkpt lat="44.779087817296386" lon="5.592061467468739">
        <ele>1228</ele>
        <time>2014-05-19T12:12:49Z</time>
      </trkpt>
      <trkpt lat="44.779082452878356" lon="5.591903300955892">
        <ele>1228.5999755859375</ele>
        <time>2014-05-19T12:12:53Z</time>
      </trkpt>
      <trkpt lat="44.77907775901258" lon="5.5918079148978">
        <ele>1228.800048828125</ele>
        <time>2014-05-19T12:12:55Z</time>
      </trkpt>
      <trkpt lat="44.779011541977525" lon="5.591583196073771">
        <ele>1229.199951171875</ele>
        <time>2014-05-19T12:13:00Z</time>
      </trkpt>
      <trkpt lat="44.778921855613589" lon="5.591453360393643">
        <ele>1229.5999755859375</ele>
        <time>2014-05-19T12:13:04Z</time>
      </trkpt>
      <trkpt lat="44.778869301080704" lon="5.591403907164931">
        <ele>1229.800048828125</ele>
        <time>2014-05-19T12:13:06Z</time>
      </trkpt>
      <trkpt lat="44.778700657188892" lon="5.591295780614018">
        <ele>1230.4000244140625</ele>
        <time>2014-05-19T12:13:13Z</time>
      </trkpt>
      <trkpt lat="44.778658915311098" lon="5.591318663209677">
        <ele>1230.4000244140625</ele>
        <time>2014-05-19T12:13:15Z</time>
      </trkpt>
      <trkpt lat="44.778623878955841" lon="5.59137356467545">
        <ele>1230.4000244140625</ele>
        <time>2014-05-19T12:13:17Z</time>
      </trkpt>
      <trkpt lat="44.778555314987898" lon="5.591478254646063">
        <ele>1230.800048828125</ele>
        <time>2014-05-19T12:13:20Z</time>
      </trkpt>
      <trkpt lat="44.77849387563765" lon="5.591538939625025">
        <ele>1230.800048828125</ele>
        <time>2014-05-19T12:13:22Z</time>
      </trkpt>
      <trkpt lat="44.778460431843996" lon="5.591558804735541">
        <ele>1230.800048828125</ele>
        <time>2014-05-19T12:13:23Z</time>
      </trkpt>
      <trkpt lat="44.778349539265037" lon="5.591581938788295">
        <ele>1231.199951171875</ele>
        <time>2014-05-19T12:13:26Z</time>
      </trkpt>
      <trkpt lat="44.778206376358867" lon="5.591631308197975">
        <ele>1231.800048828125</ele>
        <time>2014-05-19T12:13:30Z</time>
      </trkpt>
      <trkpt lat="44.778172262012959" lon="5.591650251299143">
        <ele>1232</ele>
        <time>2014-05-19T12:13:31Z</time>
      </trkpt>
      <trkpt lat="44.777959613129497" lon="5.591816464439035">
        <ele>1232.5999755859375</ele>
        <time>2014-05-19T12:13:38Z</time>
      </trkpt>
      <trkpt lat="44.777929773554206" lon="5.591819230467081">
        <ele>1232.5999755859375</ele>
        <time>2014-05-19T12:13:39Z</time>
      </trkpt>
      <trkpt lat="44.7778679151088" lon="5.591778662055731">
        <ele>1232.800048828125</ele>
        <time>2014-05-19T12:13:41Z</time>
      </trkpt>
      <trkpt lat="44.777847295626998" lon="5.591743541881442">
        <ele>1233</ele>
        <time>2014-05-19T12:13:42Z</time>
      </trkpt>
      <trkpt lat="44.777829442173243" lon="5.591704398393631">
        <ele>1232.800048828125</ele>
        <time>2014-05-19T12:13:43Z</time>
      </trkpt>
      <trkpt lat="44.777782503515482" lon="5.591585459187627">
        <ele>1233</ele>
        <time>2014-05-19T12:13:46Z</time>
      </trkpt>
      <trkpt lat="44.777707820758224" lon="5.591428885236383">
        <ele>1234.199951171875</ele>
        <time>2014-05-19T12:13:50Z</time>
      </trkpt>
      <trkpt lat="44.777680244296789" lon="5.591362919658423">
        <ele>1234.5999755859375</ele>
        <time>2014-05-19T12:13:52Z</time>
      </trkpt>
      <trkpt lat="44.777588043361902" lon="5.591183211654425">
        <ele>1234.4000244140625</ele>
        <time>2014-05-19T12:13:57Z</time>
      </trkpt>
      <trkpt lat="44.777488047257066" lon="5.591027140617371">
        <ele>1234.4000244140625</ele>
        <time>2014-05-19T12:14:02Z</time>
      </trkpt>
      <trkpt lat="44.777453262358904" lon="5.590989086776972">
        <ele>1235.199951171875</ele>
        <time>2014-05-19T12:14:03Z</time>
      </trkpt>
      <trkpt lat="44.777277493849397" lon="5.590846426784992">
        <ele>1235.5999755859375</ele>
        <time>2014-05-19T12:14:08Z</time>
      </trkpt>
      <trkpt lat="44.777210187166929" lon="5.590803259983659">
        <ele>1236.199951171875</ele>
        <time>2014-05-19T12:14:10Z</time>
      </trkpt>
      <trkpt lat="44.777097115293145" lon="5.590749029070139">
        <ele>1236.800048828125</ele>
        <time>2014-05-19T12:14:14Z</time>
      </trkpt>
      <trkpt lat="44.777037017047405" lon="5.590718602761626">
        <ele>1237.5999755859375</ele>
        <time>2014-05-19T12:14:16Z</time>
      </trkpt>
      <trkpt lat="44.776941211894155" lon="5.590674681589007">
        <ele>1238</ele>
        <time>2014-05-19T12:14:19Z</time>
      </trkpt>
      <trkpt lat="44.77677633985877" lon="5.590601339936256">
        <ele>1238.5999755859375</ele>
        <time>2014-05-19T12:14:24Z</time>
      </trkpt>
      <trkpt lat="44.77674993686378" lon="5.590596310794354">
        <ele>1239</ele>
        <time>2014-05-19T12:14:25Z</time>
      </trkpt>
      <trkpt lat="44.776724120602012" lon="5.590602681040764">
        <ele>1239.4000244140625</ele>
        <time>2014-05-19T12:14:26Z</time>
      </trkpt>
      <trkpt lat="44.776672068983316" lon="5.590651296079159">
        <ele>1239.800048828125</ele>
        <time>2014-05-19T12:14:28Z</time>
      </trkpt>
      <trkpt lat="44.776642061769962" lon="5.590686500072479">
        <ele>1239.800048828125</ele>
        <time>2014-05-19T12:14:29Z</time>
      </trkpt>
      <trkpt lat="44.776581125333905" lon="5.590867716819048">
        <ele>1240</ele>
        <time>2014-05-19T12:14:33Z</time>
      </trkpt>
      <trkpt lat="44.776577772572637" lon="5.591146582737565">
        <ele>1240.4000244140625</ele>
        <time>2014-05-19T12:14:39Z</time>
      </trkpt>
      <trkpt lat="44.776555560529232" lon="5.591415893286467">
        <ele>1240.5999755859375</ele>
        <time>2014-05-19T12:14:45Z</time>
      </trkpt>
      <trkpt lat="44.776500994339585" lon="5.591453779488802">
        <ele>1241</ele>
        <time>2014-05-19T12:14:47Z</time>
      </trkpt>
      <trkpt lat="44.776449026539922" lon="5.591465262696147">
        <ele>1241.199951171875</ele>
        <time>2014-05-19T12:14:49Z</time>
      </trkpt>
      <trkpt lat="44.776310892775655" lon="5.591391921043396">
        <ele>1242</ele>
        <time>2014-05-19T12:14:54Z</time>
      </trkpt>
      <trkpt lat="44.776245346292853" lon="5.591321093961597">
        <ele>1243</ele>
        <time>2014-05-19T12:14:57Z</time>
      </trkpt>
      <trkpt lat="44.77617284283042" lon="5.591282704845071">
        <ele>1243.199951171875</ele>
        <time>2014-05-19T12:15:00Z</time>
      </trkpt>
      <trkpt lat="44.776123473420739" lon="5.591296283528209">
        <ele>1243.4000244140625</ele>
        <time>2014-05-19T12:15:02Z</time>
      </trkpt>
      <trkpt lat="44.776076450943947" lon="5.591353615745902">
        <ele>1243.4000244140625</ele>
        <time>2014-05-19T12:15:04Z</time>
      </trkpt>
      <trkpt lat="44.776035211980343" lon="5.591479763388634">
        <ele>1243.800048828125</ele>
        <time>2014-05-19T12:15:07Z</time>
      </trkpt>
      <trkpt lat="44.776016604155302" lon="5.59156995266676">
        <ele>1244</ele>
        <time>2014-05-19T12:15:09Z</time>
      </trkpt>
      <trkpt lat="44.776019621640444" lon="5.591923082247376">
        <ele>1244.4000244140625</ele>
        <time>2014-05-19T12:15:16Z</time>
      </trkpt>
      <trkpt lat="44.776075948029757" lon="5.592235308140516">
        <ele>1245.199951171875</ele>
        <time>2014-05-19T12:15:23Z</time>
      </trkpt>
      <trkpt lat="44.776077372953296" lon="5.59227654710412">
        <ele>1245.199951171875</ele>
        <time>2014-05-19T12:15:24Z</time>
      </trkpt>
      <trkpt lat="44.776136968284845" lon="5.592526746913791">
        <ele>1246</ele>
        <time>2014-05-19T12:15:30Z</time>
      </trkpt>
      <trkpt lat="44.776146942749619" lon="5.592567231506109">
        <ele>1246.199951171875</ele>
        <time>2014-05-19T12:15:31Z</time>
      </trkpt>
      <trkpt lat="44.776200335472822" lon="5.592820784077048">
        <ele>1247.199951171875</ele>
        <time>2014-05-19T12:15:37Z</time>
      </trkpt>
      <trkpt lat="44.776181057095528" lon="5.593032343313098">
        <ele>1247.5999755859375</ele>
        <time>2014-05-19T12:15:42Z</time>
      </trkpt>
      <trkpt lat="44.776049880310893" lon="5.59315019287169">
        <ele>1247.5999755859375</ele>
        <time>2014-05-19T12:15:47Z</time>
      </trkpt>
      <trkpt lat="44.775917865335941" lon="5.593247674405575">
        <ele>1248</ele>
        <time>2014-05-19T12:15:52Z</time>
      </trkpt>
      <trkpt lat="44.775891965255141" lon="5.593272233381867">
        <ele>1248.4000244140625</ele>
        <time>2014-05-19T12:15:53Z</time>
      </trkpt>
      <trkpt lat="44.775835052132607" lon="5.593381533399224">
        <ele>1249.4000244140625</ele>
        <time>2014-05-19T12:15:56Z</time>
      </trkpt>
      <trkpt lat="44.775803619995713" lon="5.593471052125096">
        <ele>1249.5999755859375</ele>
        <time>2014-05-19T12:15:58Z</time>
      </trkpt>
      <trkpt lat="44.775735642760992" lon="5.593794342130423">
        <ele>1249.5999755859375</ele>
        <time>2014-05-19T12:16:05Z</time>
      </trkpt>
      <trkpt lat="44.775627432391047" lon="5.593992406502366">
        <ele>1250.199951171875</ele>
        <time>2014-05-19T12:16:11Z</time>
      </trkpt>
      <trkpt lat="44.775572950020432" lon="5.594001039862633">
        <ele>1250.199951171875</ele>
        <time>2014-05-19T12:16:13Z</time>
      </trkpt>
      <trkpt lat="44.775547385215759" lon="5.593980168923736">
        <ele>1250.5999755859375</ele>
        <time>2014-05-19T12:16:14Z</time>
      </trkpt>
      <trkpt lat="44.775525508448482" lon="5.593950496986508">
        <ele>1250.5999755859375</ele>
        <time>2014-05-19T12:16:15Z</time>
      </trkpt>
      <trkpt lat="44.775493824854493" lon="5.593839939683676">
        <ele>1251.199951171875</ele>
        <time>2014-05-19T12:16:18Z</time>
      </trkpt>
      <trkpt lat="44.775485694408417" lon="5.593798952177167">
        <ele>1251.4000244140625</ele>
        <time>2014-05-19T12:16:19Z</time>
      </trkpt>
      <trkpt lat="44.775477647781372" lon="5.593755366280675">
        <ele>1251.5999755859375</ele>
        <time>2014-05-19T12:16:20Z</time>
      </trkpt>
      <trkpt lat="44.775440851226449" lon="5.593543304130435">
        <ele>1251.5999755859375</ele>
        <time>2014-05-19T12:16:25Z</time>
      </trkpt>
      <trkpt lat="44.775406401604414" lon="5.593349765986204">
        <ele>1252.5999755859375</ele>
        <time>2014-05-19T12:16:30Z</time>
      </trkpt>
      <trkpt lat="44.775397852063179" lon="5.593317914754152">
        <ele>1252.800048828125</ele>
        <time>2014-05-19T12:16:31Z</time>
      </trkpt>
      <trkpt lat="44.775302298367023" lon="5.593123538419604">
        <ele>1253</ele>
        <time>2014-05-19T12:16:38Z</time>
      </trkpt>
      <trkpt lat="44.77517849765718" lon="5.59300359338522">
        <ele>1253.4000244140625</ele>
        <time>2014-05-19T12:16:43Z</time>
      </trkpt>
      <trkpt lat="44.775149077177048" lon="5.592976016923785">
        <ele>1253.5999755859375</ele>
        <time>2014-05-19T12:16:44Z</time>
      </trkpt>
      <trkpt lat="44.774995520710945" lon="5.592817850410938">
        <ele>1253.4000244140625</ele>
        <time>2014-05-19T12:16:50Z</time>
      </trkpt>
      <trkpt lat="44.774917988106608" lon="5.59265373274684">
        <ele>1253.800048828125</ele>
        <time>2014-05-19T12:16:55Z</time>
      </trkpt>
      <trkpt lat="44.774864176288247" lon="5.592369921505451">
        <ele>1253.4000244140625</ele>
        <time>2014-05-19T12:17:02Z</time>
      </trkpt>
      <trkpt lat="44.774765186011791" lon="5.592169845476747">
        <ele>1253.5999755859375</ele>
        <time>2014-05-19T12:17:07Z</time>
      </trkpt>
      <trkpt lat="44.774675415828824" lon="5.591990137472749">
        <ele>1254.800048828125</ele>
        <time>2014-05-19T12:17:12Z</time>
      </trkpt>
      <trkpt lat="44.774638283997774" lon="5.591919142752886">
        <ele>1255.199951171875</ele>
        <time>2014-05-19T12:17:14Z</time>
      </trkpt>
      <trkpt lat="44.774529822170734" lon="5.591669781133533">
        <ele>1255.800048828125</ele>
        <time>2014-05-19T12:17:20Z</time>
      </trkpt>
      <trkpt lat="44.774480788037181" lon="5.591410025954247">
        <ele>1256.800048828125</ele>
        <time>2014-05-19T12:17:26Z</time>
      </trkpt>
      <trkpt lat="44.774471819400787" lon="5.591364344581962">
        <ele>1257</ele>
        <time>2014-05-19T12:17:27Z</time>
      </trkpt>
      <trkpt lat="44.774378277361393" lon="5.591201484203339">
        <ele>1257.5999755859375</ele>
        <time>2014-05-19T12:17:32Z</time>
      </trkpt>
      <trkpt lat="44.77431507781148" lon="5.591148342937231">
        <ele>1258</ele>
        <time>2014-05-19T12:17:34Z</time>
      </trkpt>
      <trkpt lat="44.774189852178097" lon="5.591035941615701">
        <ele>1259</ele>
        <time>2014-05-19T12:17:38Z</time>
      </trkpt>
      <trkpt lat="44.773982651531696" lon="5.59090887196362">
        <ele>1259.5999755859375</ele>
        <time>2014-05-19T12:17:44Z</time>
      </trkpt>
      <trkpt lat="44.773772936314344" lon="5.590857658535242">
        <ele>1259.5999755859375</ele>
        <time>2014-05-19T12:17:49Z</time>
      </trkpt>
      <trkpt lat="44.773677801713347" lon="5.590761518105865">
        <ele>1260.199951171875</ele>
        <time>2014-05-19T12:17:52Z</time>
      </trkpt>
      <trkpt lat="44.773622145876288" lon="5.59067384339869">
        <ele>1260.199951171875</ele>
        <time>2014-05-19T12:17:54Z</time>
      </trkpt>
      <trkpt lat="44.77357042953372" lon="5.590540152043104">
        <ele>1261.199951171875</ele>
        <time>2014-05-19T12:17:57Z</time>
      </trkpt>
      <trkpt lat="44.773552073165774" lon="5.590445604175329">
        <ele>1261.5999755859375</ele>
        <time>2014-05-19T12:17:59Z</time>
      </trkpt>
      <trkpt lat="44.773527681827545" lon="5.590303279459477">
        <ele>1262.4000244140625</ele>
        <time>2014-05-19T12:18:02Z</time>
      </trkpt>
      <trkpt lat="44.773482084274292" lon="5.590108232572675">
        <ele>1263.199951171875</ele>
        <time>2014-05-19T12:18:06Z</time>
      </trkpt>
      <trkpt lat="44.773476468399167" lon="5.590059449896216">
        <ele>1263.5999755859375</ele>
        <time>2014-05-19T12:18:07Z</time>
      </trkpt>
      <trkpt lat="44.773497926071286" lon="5.589925674721599">
        <ele>1264.800048828125</ele>
        <time>2014-05-19T12:18:10Z</time>
      </trkpt>
      <trkpt lat="44.77351326495409" lon="5.589884771034122">
        <ele>1265</ele>
        <time>2014-05-19T12:18:11Z</time>
      </trkpt>
      <trkpt lat="44.773562299087644" lon="5.589767256751657">
        <ele>1265.800048828125</ele>
        <time>2014-05-19T12:18:14Z</time>
      </trkpt>
      <trkpt lat="44.773592809215188" lon="5.589633733034134">
        <ele>1266.199951171875</ele>
        <time>2014-05-19T12:18:17Z</time>
      </trkpt>
      <trkpt lat="44.773562550544739" lon="5.589390490204096">
        <ele>1266.4000244140625</ele>
        <time>2014-05-19T12:18:22Z</time>
      </trkpt>
      <trkpt lat="44.773548888042569" lon="5.589151522144675">
        <ele>1266.800048828125</ele>
        <time>2014-05-19T12:18:27Z</time>
      </trkpt>
      <trkpt lat="44.773553162813187" lon="5.589102990925312">
        <ele>1267.199951171875</ele>
        <time>2014-05-19T12:18:28Z</time>
      </trkpt>
      <trkpt lat="44.773532627150416" lon="5.588914481922984">
        <ele>1267.800048828125</ele>
        <time>2014-05-19T12:18:32Z</time>
      </trkpt>
      <trkpt lat="44.773511420935392" lon="5.588828651234508">
        <ele>1268</ele>
        <time>2014-05-19T12:18:34Z</time>
      </trkpt>
      <trkpt lat="44.77348149754107" lon="5.588654642924666">
        <ele>1269</ele>
        <time>2014-05-19T12:18:38Z</time>
      </trkpt>
      <trkpt lat="44.773474792018533" lon="5.588517431169748">
        <ele>1269.800048828125</ele>
        <time>2014-05-19T12:18:41Z</time>
      </trkpt>
      <trkpt lat="44.773444533348083" lon="5.588390529155731">
        <ele>1270.4000244140625</ele>
        <time>2014-05-19T12:18:44Z</time>
      </trkpt>
      <trkpt lat="44.773406311869621" lon="5.588274439796805">
        <ele>1270.800048828125</ele>
        <time>2014-05-19T12:18:47Z</time>
      </trkpt>
      <trkpt lat="44.773358199745417" lon="5.58811535127461">
        <ele>1271.4000244140625</ele>
        <time>2014-05-19T12:18:51Z</time>
      </trkpt>
      <trkpt lat="44.773316625505686" lon="5.587965063750744">
        <ele>1271.800048828125</ele>
        <time>2014-05-19T12:18:55Z</time>
      </trkpt>
      <trkpt lat="44.7732571978122" lon="5.587819637730718">
        <ele>1272.4000244140625</ele>
        <time>2014-05-19T12:19:00Z</time>
      </trkpt>
      <trkpt lat="44.77323574014008" lon="5.587803209200501">
        <ele>1272.5999755859375</ele>
        <time>2014-05-19T12:19:01Z</time>
      </trkpt>
      <trkpt lat="44.773159464821219" lon="5.587790803983808">
        <ele>1272.800048828125</ele>
        <time>2014-05-19T12:19:04Z</time>
      </trkpt>
      <trkpt lat="44.773140102624893" lon="5.587798515334725">
        <ele>1273</ele>
        <time>2014-05-19T12:19:05Z</time>
      </trkpt>
      <trkpt lat="44.773014038801193" lon="5.587789127603173">
        <ele>1272.800048828125</ele>
        <time>2014-05-19T12:21:21Z</time>
      </trkpt>
      <trkpt lat="44.772977326065302" lon="5.587897337973118">
        <ele>1272.4000244140625</ele>
        <time>2014-05-19T12:21:25Z</time>
      </trkpt>
      <trkpt lat="44.772974476218224" lon="5.587941510602832">
        <ele>1272.4000244140625</ele>
        <time>2014-05-19T12:21:26Z</time>
      </trkpt>
      <trkpt lat="44.772971961647272" lon="5.588191458955407">
        <ele>1273.5999755859375</ele>
        <time>2014-05-19T12:21:32Z</time>
      </trkpt>
      <trkpt lat="44.772964250296354" lon="5.588308805599809">
        <ele>1274.199951171875</ele>
        <time>2014-05-19T12:21:35Z</time>
      </trkpt>
      <trkpt lat="44.77295427583158" lon="5.588348284363747">
        <ele>1274.5999755859375</ele>
        <time>2014-05-19T12:21:36Z</time>
      </trkpt>
      <trkpt lat="44.772881353273988" lon="5.588552886620164">
        <ele>1275.5999755859375</ele>
        <time>2014-05-19T12:21:41Z</time>
      </trkpt>
      <trkpt lat="44.7728565428406" lon="5.588712813332677">
        <ele>1276.4000244140625</ele>
        <time>2014-05-19T12:21:46Z</time>
      </trkpt>
      <trkpt lat="44.772852351889014" lon="5.588758159428835">
        <ele>1276.5999755859375</ele>
        <time>2014-05-19T12:21:47Z</time>
      </trkpt>
      <trkpt lat="44.77284288033843" lon="5.588888414204121">
        <ele>1276.4000244140625</ele>
        <time>2014-05-19T12:21:50Z</time>
      </trkpt>
      <trkpt lat="44.772798959165812" lon="5.58919670060277">
        <ele>1278.4000244140625</ele>
        <time>2014-05-19T12:21:57Z</time>
      </trkpt>
      <trkpt lat="44.772713463753462" lon="5.589383784681559">
        <ele>1279.4000244140625</ele>
        <time>2014-05-19T12:22:02Z</time>
      </trkpt>
      <trkpt lat="44.772683707997203" lon="5.589399794116616">
        <ele>1279.4000244140625</ele>
        <time>2014-05-19T12:22:03Z</time>
      </trkpt>
      <trkpt lat="44.772573988884687" lon="5.589350089430809">
        <ele>1279.4000244140625</ele>
        <time>2014-05-19T12:22:07Z</time>
      </trkpt>
      <trkpt lat="44.772375337779522" lon="5.589260738343">
        <ele>1280.4000244140625</ele>
        <time>2014-05-19T12:22:14Z</time>
      </trkpt>
      <trkpt lat="44.772286573424935" lon="5.589384874328971">
        <ele>1281.5999755859375</ele>
        <time>2014-05-19T12:22:18Z</time>
      </trkpt>
      <trkpt lat="44.772225301712751" lon="5.589630380272865">
        <ele>1282.4000244140625</ele>
        <time>2014-05-19T12:22:24Z</time>
      </trkpt>
      <trkpt lat="44.772205855697393" lon="5.589665332809091">
        <ele>1282.5999755859375</ele>
        <time>2014-05-19T12:22:25Z</time>
      </trkpt>
      <trkpt lat="44.772095382213593" lon="5.589884100481868">
        <ele>1283.5999755859375</ele>
        <time>2014-05-19T12:22:31Z</time>
      </trkpt>
      <trkpt lat="44.772061016410589" lon="5.590103035792708">
        <ele>1284.5999755859375</ele>
        <time>2014-05-19T12:22:36Z</time>
      </trkpt>
      <trkpt lat="44.77206202223897" lon="5.590145699679852">
        <ele>1284.5999755859375</ele>
        <time>2014-05-19T12:22:37Z</time>
      </trkpt>
      <trkpt lat="44.77205028757453" lon="5.59050134383142">
        <ele>1285.4000244140625</ele>
        <time>2014-05-19T12:22:45Z</time>
      </trkpt>
      <trkpt lat="44.772047689184546" lon="5.590581726282835">
        <ele>1285.800048828125</ele>
        <time>2014-05-19T12:22:47Z</time>
      </trkpt>
      <trkpt lat="44.77200142107904" lon="5.590738551691175">
        <ele>1286.800048828125</ele>
        <time>2014-05-19T12:22:51Z</time>
      </trkpt>
      <trkpt lat="44.77199412882328" lon="5.590781550854445">
        <ele>1286.800048828125</ele>
        <time>2014-05-19T12:22:52Z</time>
      </trkpt>
      <trkpt lat="44.771964959800243" lon="5.590964443981648">
        <ele>1287.199951171875</ele>
        <time>2014-05-19T12:22:57Z</time>
      </trkpt>
      <trkpt lat="44.771880721673369" lon="5.591111881658435">
        <ele>1287.4000244140625</ele>
        <time>2014-05-19T12:23:02Z</time>
      </trkpt>
      <trkpt lat="44.771822970360518" lon="5.591130154207349">
        <ele>1288</ele>
        <time>2014-05-19T12:23:04Z</time>
      </trkpt>
      <trkpt lat="44.77179815992713" lon="5.591122023761272">
        <ele>1288.199951171875</ele>
        <time>2014-05-19T12:23:05Z</time>
      </trkpt>
      <trkpt lat="44.771773181855679" lon="5.591107523068786">
        <ele>1288.5999755859375</ele>
        <time>2014-05-19T12:23:06Z</time>
      </trkpt>
      <trkpt lat="44.771732529625297" lon="5.591059075668454">
        <ele>1289.199951171875</ele>
        <time>2014-05-19T12:23:08Z</time>
      </trkpt>
      <trkpt lat="44.771713335067034" lon="5.591028146445751">
        <ele>1289.800048828125</ele>
        <time>2014-05-19T12:23:09Z</time>
      </trkpt>
      <trkpt lat="44.771680980920792" lon="5.590962683781982">
        <ele>1289.800048828125</ele>
        <time>2014-05-19T12:23:11Z</time>
      </trkpt>
      <trkpt lat="44.771645944565535" lon="5.590894622728229">
        <ele>1290.4000244140625</ele>
        <time>2014-05-19T12:23:13Z</time>
      </trkpt>
      <trkpt lat="44.77159540168941" lon="5.590760596096516">
        <ele>1290.800048828125</ele>
        <time>2014-05-19T12:23:17Z</time>
      </trkpt>
      <trkpt lat="44.771490544080734" lon="5.590643584728241">
        <ele>1291</ele>
        <time>2014-05-19T12:23:22Z</time>
      </trkpt>
      <trkpt lat="44.771385937929153" lon="5.590553479269147">
        <ele>1291.4000244140625</ele>
        <time>2014-05-19T12:23:26Z</time>
      </trkpt>
      <trkpt lat="44.771337825804949" lon="5.590485250577331">
        <ele>1291.5999755859375</ele>
        <time>2014-05-19T12:23:28Z</time>
      </trkpt>
      <trkpt lat="44.771234644576907" lon="5.590320378541946">
        <ele>1292.5999755859375</ele>
        <time>2014-05-19T12:23:33Z</time>
      </trkpt>
      <trkpt lat="44.771205559372902" lon="5.590295400470495">
        <ele>1292.800048828125</ele>
        <time>2014-05-19T12:23:34Z</time>
      </trkpt>
      <trkpt lat="44.771041441708803" lon="5.590239576995373">
        <ele>1293.199951171875</ele>
        <time>2014-05-19T12:23:39Z</time>
      </trkpt>
      <trkpt lat="44.770939350128174" lon="5.590206133201718">
        <ele>1293.800048828125</ele>
        <time>2014-05-19T12:23:42Z</time>
      </trkpt>
      <trkpt lat="44.770886963233352" lon="5.59016615152359">
        <ele>1294</ele>
        <time>2014-05-19T12:23:44Z</time>
      </trkpt>
      <trkpt lat="44.770781854167581" lon="5.590008655562997">
        <ele>1294.5999755859375</ele>
        <time>2014-05-19T12:23:49Z</time>
      </trkpt>
      <trkpt lat="44.770695520564914" lon="5.589859038591385">
        <ele>1294.800048828125</ele>
        <time>2014-05-19T12:23:54Z</time>
      </trkpt>
      <trkpt lat="44.770578425377607" lon="5.589733645319939">
        <ele>1295.199951171875</ele>
        <time>2014-05-19T12:24:00Z</time>
      </trkpt>
      <trkpt lat="44.77054531686008" lon="5.589751582592726">
        <ele>1295.199951171875</ele>
        <time>2014-05-19T12:24:01Z</time>
      </trkpt>
      <trkpt lat="44.770484128966928" lon="5.589816374704242">
        <ele>1295.4000244140625</ele>
        <time>2014-05-19T12:24:03Z</time>
      </trkpt>
      <trkpt lat="44.770429562777281" lon="5.589883849024773">
        <ele>1295.5999755859375</ele>
        <time>2014-05-19T12:24:05Z</time>
      </trkpt>
      <trkpt lat="44.770410703495145" lon="5.589910503476858">
        <ele>1296</ele>
        <time>2014-05-19T12:24:06Z</time>
      </trkpt>
      <trkpt lat="44.770377594977617" lon="5.590044530108571">
        <ele>1299.4000244140625</ele>
        <time>2014-05-19T12:24:34Z</time>
      </trkpt>
      <trkpt lat="44.770300565287471" lon="5.590152489021421">
        <ele>1299.5999755859375</ele>
        <time>2014-05-19T12:24:37Z</time>
      </trkpt>
      <trkpt lat="44.770200736820698" lon="5.590211832895875">
        <ele>1300</ele>
        <time>2014-05-19T12:24:40Z</time>
      </trkpt>
      <trkpt lat="44.770170729607344" lon="5.590192470699549">
        <ele>1300.199951171875</ele>
        <time>2014-05-19T12:24:41Z</time>
      </trkpt>
      <trkpt lat="44.770024297758937" lon="5.590155506506562">
        <ele>1299.5999755859375</ele>
        <time>2014-05-19T12:24:45Z</time>
      </trkpt>
      <trkpt lat="44.76995162665844" lon="5.590163553133607">
        <ele>1299.800048828125</ele>
        <time>2014-05-19T12:24:47Z</time>
      </trkpt>
      <trkpt lat="44.769917596131563" lon="5.590177718549967">
        <ele>1300</ele>
        <time>2014-05-19T12:24:48Z</time>
      </trkpt>
      <trkpt lat="44.769851798191667" lon="5.590217113494873">
        <ele>1300.5999755859375</ele>
        <time>2014-05-19T12:24:50Z</time>
      </trkpt>
      <trkpt lat="44.769773092120886" lon="5.59030294418335">
        <ele>1301.5999755859375</ele>
        <time>2014-05-19T12:24:53Z</time>
      </trkpt>
      <trkpt lat="44.769707964733243" lon="5.590378548949957">
        <ele>1302.199951171875</ele>
        <time>2014-05-19T12:24:56Z</time>
      </trkpt>
      <trkpt lat="44.769550636410713" lon="5.590451052412391">
        <ele>1302.5999755859375</ele>
        <time>2014-05-19T12:25:01Z</time>
      </trkpt>
      <trkpt lat="44.769394230097532" lon="5.590475276112557">
        <ele>1303.199951171875</ele>
        <time>2014-05-19T12:25:06Z</time>
      </trkpt>
      <trkpt lat="44.769326588138938" lon="5.590553898364306">
        <ele>1303.5999755859375</ele>
        <time>2014-05-19T12:25:09Z</time>
      </trkpt>
      <trkpt lat="44.769283505156636" lon="5.590619696304202">
        <ele>1303.5999755859375</ele>
        <time>2014-05-19T12:25:11Z</time>
      </trkpt>
      <trkpt lat="44.769113101065159" lon="5.590735115110874">
        <ele>1304.199951171875</ele>
        <time>2014-05-19T12:25:17Z</time>
      </trkpt>
      <trkpt lat="44.768994832411408" lon="5.590685997158289">
        <ele>1304.800048828125</ele>
        <time>2014-05-19T12:25:21Z</time>
      </trkpt>
      <trkpt lat="44.768963735550642" lon="5.59067090973258">
        <ele>1305</ele>
        <time>2014-05-19T12:25:22Z</time>
      </trkpt>
      <trkpt lat="44.768769275397062" lon="5.590577451512218">
        <ele>1305.4000244140625</ele>
        <time>2014-05-19T12:25:28Z</time>
      </trkpt>
      <trkpt lat="44.768712865188718" lon="5.590573428198695">
        <ele>1305.5999755859375</ele>
        <time>2014-05-19T12:25:30Z</time>
      </trkpt>
      <trkpt lat="44.76866165176034" lon="5.590613828971982">
        <ele>1305.800048828125</ele>
        <time>2014-05-19T12:25:32Z</time>
      </trkpt>
      <trkpt lat="44.768633237108588" lon="5.59065330773592">
        <ele>1306</ele>
        <time>2014-05-19T12:25:33Z</time>
      </trkpt>
      <trkpt lat="44.768606834113598" lon="5.590700078755617">
        <ele>1306.199951171875</ele>
        <time>2014-05-19T12:25:34Z</time>
      </trkpt>
      <trkpt lat="44.768566600978374" lon="5.590801164507866">
        <ele>1306.800048828125</ele>
        <time>2014-05-19T12:25:36Z</time>
      </trkpt>
      <trkpt lat="44.768550423905253" lon="5.590905183926225">
        <ele>1307</ele>
        <time>2014-05-19T12:25:38Z</time>
      </trkpt>
      <trkpt lat="44.768545897677541" lon="5.590957654640079">
        <ele>1307.199951171875</ele>
        <time>2014-05-19T12:25:39Z</time>
      </trkpt>
      <trkpt lat="44.768532738089561" lon="5.591055136173964">
        <ele>1307.5999755859375</ele>
        <time>2014-05-19T12:25:41Z</time>
      </trkpt>
      <trkpt lat="44.768489738926291" lon="5.591167872771621">
        <ele>1308.199951171875</ele>
        <time>2014-05-19T12:25:44Z</time>
      </trkpt>
      <trkpt lat="44.768448919057846" lon="5.591228222474456">
        <ele>1308.5999755859375</ele>
        <time>2014-05-19T12:25:46Z</time>
      </trkpt>
      <trkpt lat="44.768344229087234" lon="5.591360488906503">
        <ele>1309.4000244140625</ele>
        <time>2014-05-19T12:25:51Z</time>
      </trkpt>
      <trkpt lat="44.768320927396417" lon="5.591388484463096">
        <ele>1309.5999755859375</ele>
        <time>2014-05-19T12:25:52Z</time>
      </trkpt>
      <trkpt lat="44.768202742561698" lon="5.591543382033706">
        <ele>1310.5999755859375</ele>
        <time>2014-05-19T12:25:57Z</time>
      </trkpt>
      <trkpt lat="44.768178770318627" lon="5.591575568541884">
        <ele>1310.800048828125</ele>
        <time>2014-05-19T12:25:58Z</time>
      </trkpt>
      <trkpt lat="44.768041893839836" lon="5.591823253780603">
        <ele>1311.4000244140625</ele>
        <time>2014-05-19T12:26:05Z</time>
      </trkpt>
      <trkpt lat="44.767979364842176" lon="5.59194914996624">
        <ele>1311.800048828125</ele>
        <time>2014-05-19T12:26:08Z</time>
      </trkpt>
      <trkpt lat="44.767925050109625" lon="5.592057863250375">
        <ele>1312.199951171875</ele>
        <time>2014-05-19T12:26:11Z</time>
      </trkpt>
      <trkpt lat="44.767705863341689" lon="5.592347290366888">
        <ele>1312.5999755859375</ele>
        <time>2014-05-19T12:26:19Z</time>
      </trkpt>
      <trkpt lat="44.767675269395113" lon="5.592374615371227">
        <ele>1312.800048828125</ele>
        <time>2014-05-19T12:26:20Z</time>
      </trkpt>
      <trkpt lat="44.767584409564734" lon="5.592416608706117">
        <ele>1313.800048828125</ele>
        <time>2014-05-19T12:26:23Z</time>
      </trkpt>
      <trkpt lat="44.767552893608809" lon="5.592418201267719">
        <ele>1314.199951171875</ele>
        <time>2014-05-19T12:26:24Z</time>
      </trkpt>
      <trkpt lat="44.767394894734025" lon="5.592388948425651">
        <ele>1314.4000244140625</ele>
        <time>2014-05-19T12:26:29Z</time>
      </trkpt>
      <trkpt lat="44.76730965077877" lon="5.59237034060061">
        <ele>1314.800048828125</ele>
        <time>2014-05-19T12:26:32Z</time>
      </trkpt>
      <trkpt lat="44.767280062660575" lon="5.592356929555535">
        <ele>1315</ele>
        <time>2014-05-19T12:26:33Z</time>
      </trkpt>
      <trkpt lat="44.767176378518343" lon="5.592248132452369">
        <ele>1315.199951171875</ele>
        <time>2014-05-19T12:26:38Z</time>
      </trkpt>
      <trkpt lat="44.767142431810498" lon="5.592196332290769">
        <ele>1316.199951171875</ele>
        <time>2014-05-19T12:26:40Z</time>
      </trkpt>
      <trkpt lat="44.76708727888763" lon="5.59210991486907">
        <ele>1316.5999755859375</ele>
        <time>2014-05-19T12:26:43Z</time>
      </trkpt>
      <trkpt lat="44.766953084617853" lon="5.591958370059729">
        <ele>1316.800048828125</ele>
        <time>2014-05-19T12:26:48Z</time>
      </trkpt>
      <trkpt lat="44.766902793198824" lon="5.591893745586276">
        <ele>1317.4000244140625</ele>
        <time>2014-05-19T12:26:50Z</time>
      </trkpt>
      <trkpt lat="44.766824338585138" lon="5.59178251773119">
        <ele>1318.5999755859375</ele>
        <time>2014-05-19T12:26:53Z</time>
      </trkpt>
      <trkpt lat="44.766776226460934" lon="5.591714959591627">
        <ele>1319.199951171875</ele>
        <time>2014-05-19T12:26:55Z</time>
      </trkpt>
      <trkpt lat="44.766653347760439" lon="5.591462664306164">
        <ele>1319.5999755859375</ele>
        <time>2014-05-19T12:27:02Z</time>
      </trkpt>
      <trkpt lat="44.766633063554764" lon="5.59143559075892">
        <ele>1320</ele>
        <time>2014-05-19T12:27:03Z</time>
      </trkpt>
      <trkpt lat="44.766557039692998" lon="5.591254457831383">
        <ele>1320.199951171875</ele>
        <time>2014-05-19T12:27:09Z</time>
      </trkpt>
      <trkpt lat="44.76646039634943" lon="5.591079108417034">
        <ele>1320</ele>
        <time>2014-05-19T12:27:15Z</time>
      </trkpt>
      <trkpt lat="44.766364758834243" lon="5.590871153399348">
        <ele>1321</ele>
        <time>2014-05-19T12:27:21Z</time>
      </trkpt>
      <trkpt lat="44.766333159059286" lon="5.590798482298851">
        <ele>1321.4000244140625</ele>
        <time>2014-05-19T12:27:23Z</time>
      </trkpt>
      <trkpt lat="44.766284376382828" lon="5.590684236958623">
        <ele>1322.199951171875</ele>
        <time>2014-05-19T12:27:26Z</time>
      </trkpt>
      <trkpt lat="44.76620432920754" lon="5.590510061010718">
        <ele>1323</ele>
        <time>2014-05-19T12:27:31Z</time>
      </trkpt>
      <trkpt lat="44.766160156577826" lon="5.590460607782006">
        <ele>1323.4000244140625</ele>
        <time>2014-05-19T12:27:33Z</time>
      </trkpt>
      <trkpt lat="44.766105422750115" lon="5.590431774035096">
        <ele>1323.800048828125</ele>
        <time>2014-05-19T12:27:35Z</time>
      </trkpt>
      <trkpt lat="44.765982879325747" lon="5.590425990521908">
        <ele>1324.4000244140625</ele>
        <time>2014-05-19T12:27:39Z</time>
      </trkpt>
      <trkpt lat="44.765949435532093" lon="5.590433618053794">
        <ele>1324.5999755859375</ele>
        <time>2014-05-19T12:27:40Z</time>
      </trkpt>
      <trkpt lat="44.765806691721082" lon="5.590557670220733">
        <ele>1325.199951171875</ele>
        <time>2014-05-19T12:27:45Z</time>
      </trkpt>
      <trkpt lat="44.765711892396212" lon="5.590691277757287">
        <ele>1325.5999755859375</ele>
        <time>2014-05-19T12:27:49Z</time>
      </trkpt>
      <trkpt lat="44.765653470531106" lon="5.590839721262455">
        <ele>1326</ele>
        <time>2014-05-19T12:27:53Z</time>
      </trkpt>
      <trkpt lat="44.765616757795215" lon="5.591009706258774">
        <ele>1326.5999755859375</ele>
        <time>2014-05-19T12:27:57Z</time>
      </trkpt>
      <trkpt lat="44.765572333708405" lon="5.591142056509852">
        <ele>1326.5999755859375</ele>
        <time>2014-05-19T12:28:00Z</time>
      </trkpt>
      <trkpt lat="44.765503434464335" lon="5.591357052326202">
        <ele>1327.5999755859375</ele>
        <time>2014-05-19T12:28:06Z</time>
      </trkpt>
      <trkpt lat="44.765494130551815" lon="5.591443721204996">
        <ele>1327.5999755859375</ele>
        <time>2014-05-19T12:28:08Z</time>
      </trkpt>
      <trkpt lat="44.76551148109138" lon="5.591725017875433">
        <ele>1328.5999755859375</ele>
        <time>2014-05-19T12:28:14Z</time>
      </trkpt>
      <trkpt lat="44.765481138601899" lon="5.591969015076757">
        <ele>1329.5999755859375</ele>
        <time>2014-05-19T12:28:20Z</time>
      </trkpt>
      <trkpt lat="44.76546797901392" lon="5.592012349516153">
        <ele>1330.199951171875</ele>
        <time>2014-05-19T12:28:21Z</time>
      </trkpt>
      <trkpt lat="44.76539715193212" lon="5.59221250936389">
        <ele>1330.5999755859375</ele>
        <time>2014-05-19T12:28:26Z</time>
      </trkpt>
      <trkpt lat="44.76532431319356" lon="5.59241677634418">
        <ele>1331.4000244140625</ele>
        <time>2014-05-19T12:28:31Z</time>
      </trkpt>
      <trkpt lat="44.765296652913094" lon="5.592541582882404">
        <ele>1331.5999755859375</ele>
        <time>2014-05-19T12:28:34Z</time>
      </trkpt>
      <trkpt lat="44.765248540788889" lon="5.592840313911438">
        <ele>1332.4000244140625</ele>
        <time>2014-05-19T12:28:41Z</time>
      </trkpt>
      <trkpt lat="44.76523638702929" lon="5.592963276430965">
        <ele>1332.800048828125</ele>
        <time>2014-05-19T12:28:44Z</time>
      </trkpt>
      <trkpt lat="44.765208307653666" lon="5.593085484579206">
        <ele>1333.5999755859375</ele>
        <time>2014-05-19T12:28:47Z</time>
      </trkpt>
      <trkpt lat="44.765164218842983" lon="5.593244740739465">
        <ele>1334</ele>
        <time>2014-05-19T12:28:51Z</time>
      </trkpt>
      <trkpt lat="44.765101103112102" lon="5.593502903357148">
        <ele>1334.5999755859375</ele>
        <time>2014-05-19T12:28:57Z</time>
      </trkpt>
      <trkpt lat="44.765081657096744" lon="5.593582028523088">
        <ele>1335</ele>
        <time>2014-05-19T12:28:59Z</time>
      </trkpt>
      <trkpt lat="44.764997083693743" lon="5.593825187534094">
        <ele>1335.4000244140625</ele>
        <time>2014-05-19T12:29:05Z</time>
      </trkpt>
      <trkpt lat="44.764969339594245" lon="5.593906408175826">
        <ele>1335.800048828125</ele>
        <time>2014-05-19T12:29:07Z</time>
      </trkpt>
      <trkpt lat="44.76490848697722" lon="5.594148226082325">
        <ele>1336.800048828125</ele>
        <time>2014-05-19T12:29:14Z</time>
      </trkpt>
      <trkpt lat="44.764909241348505" lon="5.594406137242913">
        <ele>1337.800048828125</ele>
        <time>2014-05-19T12:29:21Z</time>
      </trkpt>
      <trkpt lat="44.764779573306441" lon="5.594491716474295">
        <ele>1338.5999755859375</ele>
        <time>2014-05-19T12:29:25Z</time>
      </trkpt>
      <trkpt lat="44.764673793688416" lon="5.594516946002841">
        <ele>1338.800048828125</ele>
        <time>2014-05-19T12:29:28Z</time>
      </trkpt>
      <trkpt lat="44.764557117596269" lon="5.594542259350419">
        <ele>1339.4000244140625</ele>
        <time>2014-05-19T12:29:31Z</time>
      </trkpt>
      <trkpt lat="44.76444480009377" lon="5.594592299312353">
        <ele>1340</ele>
        <time>2014-05-19T12:29:34Z</time>
      </trkpt>
      <trkpt lat="44.764314377680421" lon="5.594671592116356">
        <ele>1341</ele>
        <time>2014-05-19T12:29:38Z</time>
      </trkpt>
      <trkpt lat="44.764106003567576" lon="5.594810396432877">
        <ele>1341.800048828125</ele>
        <time>2014-05-19T12:29:45Z</time>
      </trkpt>
      <trkpt lat="44.764058059081435" lon="5.59485993348062">
        <ele>1342.199951171875</ele>
        <time>2014-05-19T12:29:47Z</time>
      </trkpt>
      <trkpt lat="44.763975162059069" lon="5.594983818009496">
        <ele>1342.5999755859375</ele>
        <time>2014-05-19T12:29:51Z</time>
      </trkpt>
      <trkpt lat="44.763908945024014" lon="5.595104517415166">
        <ele>1342.800048828125</ele>
        <time>2014-05-19T12:29:54Z</time>
      </trkpt>
      <trkpt lat="44.763853875920177" lon="5.595243237912655">
        <ele>1343.4000244140625</ele>
        <time>2014-05-19T12:29:57Z</time>
      </trkpt>
      <trkpt lat="44.763816157355905" lon="5.59539788402617">
        <ele>1344</ele>
        <time>2014-05-19T12:30:00Z</time>
      </trkpt>
      <trkpt lat="44.763758908957243" lon="5.595667865127325">
        <ele>1344.5999755859375</ele>
        <time>2014-05-19T12:30:05Z</time>
      </trkpt>
      <trkpt lat="44.763764860108495" lon="5.595708098262548">
        <ele>1344.800048828125</ele>
        <time>2014-05-19T12:30:06Z</time>
      </trkpt>
      <trkpt lat="44.763769721612334" lon="5.595744727179408">
        <ele>1345</ele>
        <time>2014-05-19T12:30:07Z</time>
      </trkpt>
      <trkpt lat="44.763805260881782" lon="5.595817230641842">
        <ele>1345.5999755859375</ele>
        <time>2014-05-19T12:30:32Z</time>
      </trkpt>
      <trkpt lat="44.763919590041041" lon="5.59602577239275">
        <ele>1345.4000244140625</ele>
        <time>2014-05-19T12:30:38Z</time>
      </trkpt>
      <trkpt lat="44.763966193422675" lon="5.596257615834475">
        <ele>1346.199951171875</ele>
        <time>2014-05-19T12:30:43Z</time>
      </trkpt>
      <trkpt lat="44.763936270028353" lon="5.596377896144986">
        <ele>1346.800048828125</ele>
        <time>2014-05-19T12:30:46Z</time>
      </trkpt>
      <trkpt lat="44.76390291005373" lon="5.596448387950659">
        <ele>1347.199951171875</ele>
        <time>2014-05-19T12:30:48Z</time>
      </trkpt>
      <trkpt lat="44.763795034959912" lon="5.596628934144974">
        <ele>1347.800048828125</ele>
        <time>2014-05-19T12:30:53Z</time>
      </trkpt>
      <trkpt lat="44.763732086867094" lon="5.596733456477523">
        <ele>1348.199951171875</ele>
        <time>2014-05-19T12:30:56Z</time>
      </trkpt>
      <trkpt lat="44.763596383854747" lon="5.596964126452804">
        <ele>1349</ele>
        <time>2014-05-19T12:31:02Z</time>
      </trkpt>
      <trkpt lat="44.763581044971943" lon="5.596999330446124">
        <ele>1349</ele>
        <time>2014-05-19T12:31:03Z</time>
      </trkpt>
      <trkpt lat="44.763453891500831" lon="5.597257241606712">
        <ele>1349.5999755859375</ele>
        <time>2014-05-19T12:31:09Z</time>
      </trkpt>
      <trkpt lat="44.763430673629045" lon="5.597309712320566">
        <ele>1350</ele>
        <time>2014-05-19T12:31:10Z</time>
      </trkpt>
      <trkpt lat="44.763404354453087" lon="5.597357656806707">
        <ele>1350.4000244140625</ele>
        <time>2014-05-19T12:31:11Z</time>
      </trkpt>
      <trkpt lat="44.763324810191989" lon="5.597484391182661">
        <ele>1350.4000244140625</ele>
        <time>2014-05-19T12:31:14Z</time>
      </trkpt>
      <trkpt lat="44.763210061937571" lon="5.597695363685489">
        <ele>1351.199951171875</ele>
        <time>2014-05-19T12:31:19Z</time>
      </trkpt>
      <trkpt lat="44.763186257332563" lon="5.597737105563283">
        <ele>1351.4000244140625</ele>
        <time>2014-05-19T12:31:20Z</time>
      </trkpt>
      <trkpt lat="44.76303999312222" lon="5.598012451082468">
        <ele>1352.4000244140625</ele>
        <time>2014-05-19T12:31:27Z</time>
      </trkpt>
      <trkpt lat="44.762960197404027" lon="5.598158715292811">
        <ele>1353.4000244140625</ele>
        <time>2014-05-19T12:31:31Z</time>
      </trkpt>
      <trkpt lat="44.76288266479969" lon="5.598314451053739">
        <ele>1353.5999755859375</ele>
        <time>2014-05-19T12:31:35Z</time>
      </trkpt>
      <trkpt lat="44.762755259871483" lon="5.598517125472426">
        <ele>1354.199951171875</ele>
        <time>2014-05-19T12:31:40Z</time>
      </trkpt>
      <trkpt lat="44.762724665924907" lon="5.598545791581273">
        <ele>1354</ele>
        <time>2014-05-19T12:31:41Z</time>
      </trkpt>
      <trkpt lat="44.762660125270486" lon="5.598589712753892">
        <ele>1354.5999755859375</ele>
        <time>2014-05-19T12:31:43Z</time>
      </trkpt>
      <trkpt lat="44.762588292360306" lon="5.598618797957897">
        <ele>1355</ele>
        <time>2014-05-19T12:31:45Z</time>
      </trkpt>
      <trkpt lat="44.762526182457805" lon="5.59864578768611">
        <ele>1355.4000244140625</ele>
        <time>2014-05-19T12:31:47Z</time>
      </trkpt>
      <trkpt lat="44.762469436973333" lon="5.59868878684938">
        <ele>1355.5999755859375</ele>
        <time>2014-05-19T12:31:49Z</time>
      </trkpt>
      <trkpt lat="44.762446386739612" lon="5.598729941993952">
        <ele>1355.5999755859375</ele>
        <time>2014-05-19T12:31:50Z</time>
      </trkpt>
      <trkpt lat="44.762425264343619" lon="5.598765565082431">
        <ele>1355.800048828125</ele>
        <time>2014-05-19T12:31:51Z</time>
      </trkpt>
      <trkpt lat="44.762378912419081" lon="5.599003024399281">
        <ele>1356</ele>
        <time>2014-05-19T12:31:56Z</time>
      </trkpt>
      <trkpt lat="44.76238863542676" lon="5.599286751821637">
        <ele>1356.199951171875</ele>
        <time>2014-05-19T12:32:01Z</time>
      </trkpt>
      <trkpt lat="44.762365333735943" lon="5.599430501461029">
        <ele>1357</ele>
        <time>2014-05-19T12:32:03Z</time>
      </trkpt>
      <trkpt lat="44.762322334572673" lon="5.599632589146495">
        <ele>1357.5999755859375</ele>
        <time>2014-05-19T12:32:07Z</time>
      </trkpt>
      <trkpt lat="44.762294674292207" lon="5.599715067073703">
        <ele>1358.199951171875</ele>
        <time>2014-05-19T12:32:09Z</time>
      </trkpt>
      <trkpt lat="44.762252597138286" lon="5.599788492545486">
        <ele>1359.199951171875</ele>
        <time>2014-05-19T12:32:12Z</time>
      </trkpt>
      <trkpt lat="44.762242622673512" lon="5.599814644083381">
        <ele>1359.199951171875</ele>
        <time>2014-05-19T12:32:13Z</time>
      </trkpt>
      <trkpt lat="44.762185793370008" lon="5.599870719015598">
        <ele>1360</ele>
        <time>2014-05-19T12:32:17Z</time>
      </trkpt>
      <trkpt lat="44.762153774499893" lon="5.599888656288385">
        <ele>1360.4000244140625</ele>
        <time>2014-05-19T12:32:19Z</time>
      </trkpt>
      <trkpt lat="44.762105997651815" lon="5.59993383474648">
        <ele>1360.4000244140625</ele>
        <time>2014-05-19T12:32:21Z</time>
      </trkpt>
      <trkpt lat="44.762063585221767" lon="5.599998878315091">
        <ele>1361</ele>
        <time>2014-05-19T12:32:23Z</time>
      </trkpt>
      <trkpt lat="44.7619997151196" lon="5.600088816136122">
        <ele>1361.4000244140625</ele>
        <time>2014-05-19T12:32:26Z</time>
      </trkpt>
      <trkpt lat="44.761911034584045" lon="5.600247150287032">
        <ele>1361.5999755859375</ele>
        <time>2014-05-19T12:32:30Z</time>
      </trkpt>
      <trkpt lat="44.761843979358673" lon="5.600474216043949">
        <ele>1362.4000244140625</ele>
        <time>2014-05-19T12:32:35Z</time>
      </trkpt>
      <trkpt lat="44.761825455352664" lon="5.600513610988855">
        <ele>1362.5999755859375</ele>
        <time>2014-05-19T12:32:36Z</time>
      </trkpt>
      <trkpt lat="44.761725794523954" lon="5.600648056715727">
        <ele>1363.199951171875</ele>
        <time>2014-05-19T12:32:41Z</time>
      </trkpt>
      <trkpt lat="44.761698134243488" lon="5.600671442225575">
        <ele>1363.4000244140625</ele>
        <time>2014-05-19T12:32:42Z</time>
      </trkpt>
      <trkpt lat="44.761571818962693" lon="5.600784095004201">
        <ele>1364.5999755859375</ele>
        <time>2014-05-19T12:32:47Z</time>
      </trkpt>
      <trkpt lat="44.761432930827141" lon="5.601002611219883">
        <ele>1365.199951171875</ele>
        <time>2014-05-19T12:32:53Z</time>
      </trkpt>
      <trkpt lat="44.761401833966374" lon="5.601116353645921">
        <ele>1365.800048828125</ele>
        <time>2014-05-19T12:32:56Z</time>
      </trkpt>
      <trkpt lat="44.761387333273888" lon="5.601188438013196">
        <ele>1366</ele>
        <time>2014-05-19T12:32:58Z</time>
      </trkpt>
      <trkpt lat="44.761300329118967" lon="5.601399829611182">
        <ele>1366.5999755859375</ele>
        <time>2014-05-19T12:33:04Z</time>
      </trkpt>
      <trkpt lat="44.761296808719635" lon="5.601527988910675">
        <ele>1366.800048828125</ele>
        <time>2014-05-19T12:33:07Z</time>
      </trkpt>
      <trkpt lat="44.761305944994092" lon="5.601564114913344">
        <ele>1367</ele>
        <time>2014-05-19T12:33:08Z</time>
      </trkpt>
      <trkpt lat="44.761338047683239" lon="5.601753378286958">
        <ele>1368</ele>
        <time>2014-05-19T12:33:13Z</time>
      </trkpt>
      <trkpt lat="44.761344837024808" lon="5.601795539259911">
        <ele>1368</ele>
        <time>2014-05-19T12:33:14Z</time>
      </trkpt>
      <trkpt lat="44.761377358809114" lon="5.602056551724672">
        <ele>1368.5999755859375</ele>
        <time>2014-05-19T12:33:20Z</time>
      </trkpt>
      <trkpt lat="44.76138305850327" lon="5.602184291929007">
        <ele>1369</ele>
        <time>2014-05-19T12:33:23Z</time>
      </trkpt>
      <trkpt lat="44.761382639408112" lon="5.60226509347558">
        <ele>1369.4000244140625</ele>
        <time>2014-05-19T12:33:25Z</time>
      </trkpt>
      <trkpt lat="44.761346764862537" lon="5.602391324937344">
        <ele>1370.199951171875</ele>
        <time>2014-05-19T12:33:29Z</time>
      </trkpt>
      <trkpt lat="44.761337377130985" lon="5.602415632456541">
        <ele>1370.4000244140625</ele>
        <time>2014-05-19T12:33:30Z</time>
      </trkpt>
      <trkpt lat="44.761319439858198" lon="5.602466678246856">
        <ele>1370.4000244140625</ele>
        <time>2014-05-19T12:33:32Z</time>
      </trkpt>
      <trkpt lat="44.761299323290586" lon="5.60259684920311">
        <ele>1371.199951171875</ele>
        <time>2014-05-19T12:33:36Z</time>
      </trkpt>
      <trkpt lat="44.761295299977064" lon="5.602638171985745">
        <ele>1371.199951171875</ele>
        <time>2014-05-19T12:33:37Z</time>
      </trkpt>
      <trkpt lat="44.761303346604109" lon="5.602901699021459">
        <ele>1371.5999755859375</ele>
        <time>2014-05-19T12:33:43Z</time>
      </trkpt>
      <trkpt lat="44.761280799284577" lon="5.603064224123955">
        <ele>1372.4000244140625</ele>
        <time>2014-05-19T12:33:47Z</time>
      </trkpt>
      <trkpt lat="44.761270824819803" lon="5.603105630725622">
        <ele>1372.5999755859375</ele>
        <time>2014-05-19T12:33:48Z</time>
      </trkpt>
      <trkpt lat="44.761223634704947" lon="5.603411654010415">
        <ele>1373.4000244140625</ele>
        <time>2014-05-19T12:33:55Z</time>
      </trkpt>
      <trkpt lat="44.761221203953028" lon="5.603450126945972">
        <ele>1373.4000244140625</ele>
        <time>2014-05-19T12:33:56Z</time>
      </trkpt>
      <trkpt lat="44.761201171204448" lon="5.603736033663154">
        <ele>1374.4000244140625</ele>
        <time>2014-05-19T12:34:02Z</time>
      </trkpt>
      <trkpt lat="44.761197902262211" lon="5.603820187970996">
        <ele>1374.5999755859375</ele>
        <time>2014-05-19T12:34:04Z</time>
      </trkpt>
      <trkpt lat="44.761150041595101" lon="5.604049433022738">
        <ele>1375</ele>
        <time>2014-05-19T12:34:09Z</time>
      </trkpt>
      <trkpt lat="44.761049961671233" lon="5.604293765500188">
        <ele>1375.5999755859375</ele>
        <time>2014-05-19T12:34:15Z</time>
      </trkpt>
      <trkpt lat="44.761028336361051" lon="5.604330813512206">
        <ele>1375.800048828125</ele>
        <time>2014-05-19T12:34:16Z</time>
      </trkpt>
      <trkpt lat="44.7609100677073" lon="5.604496104642749">
        <ele>1376.4000244140625</ele>
        <time>2014-05-19T12:34:22Z</time>
      </trkpt>
      <trkpt lat="44.760833289474249" lon="5.60456357896328">
        <ele>1376.800048828125</ele>
        <time>2014-05-19T12:34:25Z</time>
      </trkpt>
      <trkpt lat="44.760774364694953" lon="5.60458411462605">
        <ele>1377</ele>
        <time>2014-05-19T12:34:27Z</time>
      </trkpt>
      <trkpt lat="44.760710829868913" lon="5.60458704829216">
        <ele>1377</ele>
        <time>2014-05-19T12:34:29Z</time>
      </trkpt>
      <trkpt lat="44.760661963373423" lon="5.604565003886819">
        <ele>1376.5999755859375</ele>
        <time>2014-05-19T12:34:31Z</time>
      </trkpt>
      <trkpt lat="44.760630531236529" lon="5.604462241753936">
        <ele>1377.4000244140625</ele>
        <time>2014-05-19T12:34:35Z</time>
      </trkpt>
      <trkpt lat="44.760630195960402" lon="5.604397365823388">
        <ele>1377.800048828125</ele>
        <time>2014-05-19T12:34:37Z</time>
      </trkpt>
      <trkpt lat="44.760633045807481" lon="5.60429384931922">
        <ele>1379</ele>
        <time>2014-05-19T12:34:40Z</time>
      </trkpt>
      <trkpt lat="44.760633129626513" lon="5.604260489344597">
        <ele>1379.199951171875</ele>
        <time>2014-05-19T12:34:41Z</time>
      </trkpt>
      <trkpt lat="44.760613515973091" lon="5.604111040011048">
        <ele>1380.199951171875</ele>
        <time>2014-05-19T12:34:45Z</time>
      </trkpt>
      <trkpt lat="44.760583508759737" lon="5.604037782177329">
        <ele>1380.5999755859375</ele>
        <time>2014-05-19T12:34:47Z</time>
      </trkpt>
      <trkpt lat="44.760446967557073" lon="5.603935020044446">
        <ele>1381</ele>
        <time>2014-05-19T12:34:51Z</time>
      </trkpt>
      <trkpt lat="44.760330626741052" lon="5.603934181854129">
        <ele>1381.4000244140625</ele>
        <time>2014-05-19T12:34:54Z</time>
      </trkpt>
      <trkpt lat="44.760296093299985" lon="5.603944743052125">
        <ele>1381.5999755859375</ele>
        <time>2014-05-19T12:34:55Z</time>
      </trkpt>
      <trkpt lat="44.760088305920362" lon="5.604045409709215">
        <ele>1381.800048828125</ele>
        <time>2014-05-19T12:35:01Z</time>
      </trkpt>
      <trkpt lat="44.759879931807518" lon="5.604166192933917">
        <ele>1382.4000244140625</ele>
        <time>2014-05-19T12:35:07Z</time>
      </trkpt>
      <trkpt lat="44.759842297062278" lon="5.604183794930577">
        <ele>1382.5999755859375</ele>
        <time>2014-05-19T12:35:08Z</time>
      </trkpt>
      <trkpt lat="44.759612632915378" lon="5.604311199858785">
        <ele>1383</ele>
        <time>2014-05-19T12:35:15Z</time>
      </trkpt>
      <trkpt lat="44.759385231882334" lon="5.604462996125221">
        <ele>1382.5999755859375</ele>
        <time>2014-05-19T12:35:23Z</time>
      </trkpt>
      <trkpt lat="44.759263442829251" lon="5.604578331112862">
        <ele>1383</ele>
        <time>2014-05-19T12:35:28Z</time>
      </trkpt>
      <trkpt lat="44.7591573279351" lon="5.60472434386611">
        <ele>1383.4000244140625</ele>
        <time>2014-05-19T12:35:33Z</time>
      </trkpt>
      <trkpt lat="44.759142911061645" lon="5.604759966954589">
        <ele>1383.5999755859375</ele>
        <time>2014-05-19T12:35:34Z</time>
      </trkpt>
      <trkpt lat="44.759067725390196" lon="5.604842780157924">
        <ele>1383.800048828125</ele>
        <time>2014-05-19T12:35:38Z</time>
      </trkpt>
      <trkpt lat="44.75895406678319" lon="5.604885024949908">
        <ele>1383</ele>
        <time>2014-05-19T12:35:44Z</time>
      </trkpt>
      <trkpt lat="44.758941410109401" lon="5.604897681623697">
        <ele>1383.199951171875</ele>
        <time>2014-05-19T12:35:45Z</time>
      </trkpt>
      <trkpt lat="44.758934285491705" lon="5.604844707995653">
        <ele>1384.5999755859375</ele>
        <time>2014-05-19T12:41:04Z</time>
      </trkpt>
      <trkpt lat="44.758926574140787" lon="5.60482987202704">
        <ele>1384.5999755859375</ele>
        <time>2014-05-19T12:41:05Z</time>
      </trkpt>
      <trkpt lat="44.758880725130439" lon="5.60471017844975">
        <ele>1383.5999755859375</ele>
        <time>2014-05-19T12:41:10Z</time>
      </trkpt>
      <trkpt lat="44.757195543497801" lon="5.602342039346695">
        <ele>1381.199951171875</ele>
        <time>2014-05-19T12:41:55Z</time>
      </trkpt>
      <trkpt lat="44.757153047248721" lon="5.602251933887601">
        <ele>1380.800048828125</ele>
        <time>2014-05-19T12:41:57Z</time>
      </trkpt>
      <trkpt lat="44.757136283442378" lon="5.602203235030174">
        <ele>1380.199951171875</ele>
        <time>2014-05-19T12:41:58Z</time>
      </trkpt>
      <trkpt lat="44.757103258743882" lon="5.602081529796124">
        <ele>1378.800048828125</ele>
        <time>2014-05-19T12:42:01Z</time>
      </trkpt>
      <trkpt lat="44.757097223773599" lon="5.601990669965744">
        <ele>1377.800048828125</ele>
        <time>2014-05-19T12:42:03Z</time>
      </trkpt>
      <trkpt lat="44.757040059193969" lon="5.601874832063913">
        <ele>1379.800048828125</ele>
        <time>2014-05-19T12:42:27Z</time>
      </trkpt>
      <trkpt lat="44.757028492167592" lon="5.601787492632866">
        <ele>1379.4000244140625</ele>
        <time>2014-05-19T12:42:30Z</time>
      </trkpt>
      <trkpt lat="44.757011560723186" lon="5.601638713851571">
        <ele>1378.4000244140625</ele>
        <time>2014-05-19T12:42:33Z</time>
      </trkpt>
      <trkpt lat="44.756997479125857" lon="5.601503765210509">
        <ele>1377.4000244140625</ele>
        <time>2014-05-19T12:42:35Z</time>
      </trkpt>
      <trkpt lat="44.756996054202318" lon="5.601428244262934">
        <ele>1377</ele>
        <time>2014-05-19T12:42:36Z</time>
      </trkpt>
      <trkpt lat="44.756976524367929" lon="5.601173518225551">
        <ele>1375.800048828125</ele>
        <time>2014-05-19T12:42:39Z</time>
      </trkpt>
      <trkpt lat="44.756967388093472" lon="5.601085759699345">
        <ele>1375.4000244140625</ele>
        <time>2014-05-19T12:42:40Z</time>
      </trkpt>
      <trkpt lat="44.756956826895475" lon="5.600996324792504">
        <ele>1374.5999755859375</ele>
        <time>2014-05-19T12:42:41Z</time>
      </trkpt>
      <trkpt lat="44.756927993148565" lon="5.600808821618557">
        <ele>1373.4000244140625</ele>
        <time>2014-05-19T12:42:43Z</time>
      </trkpt>
      <trkpt lat="44.75691114552319" lon="5.600604470819235">
        <ele>1372.5999755859375</ele>
        <time>2014-05-19T12:42:45Z</time>
      </trkpt>
      <trkpt lat="44.756901925429702" lon="5.600498272106051">
        <ele>1372.199951171875</ele>
        <time>2014-05-19T12:42:46Z</time>
      </trkpt>
      <trkpt lat="44.756887340918183" lon="5.60029492713511">
        <ele>1371</ele>
        <time>2014-05-19T12:42:48Z</time>
      </trkpt>
      <trkpt lat="44.756865380331874" lon="5.600197277963162">
        <ele>1370.800048828125</ele>
        <time>2014-05-19T12:42:49Z</time>
      </trkpt>
      <trkpt lat="44.756789105013013" lon="5.600024526938796">
        <ele>1370</ele>
        <time>2014-05-19T12:42:51Z</time>
      </trkpt>
      <trkpt lat="44.756734538823366" lon="5.599958896636963">
        <ele>1369.5999755859375</ele>
        <time>2014-05-19T12:42:52Z</time>
      </trkpt>
      <trkpt lat="44.756621215492487" lon="5.599844651296735">
        <ele>1368.4000244140625</ele>
        <time>2014-05-19T12:42:54Z</time>
      </trkpt>
      <trkpt lat="44.756456594914198" lon="5.599655723199248">
        <ele>1367.199951171875</ele>
        <time>2014-05-19T12:42:57Z</time>
      </trkpt>
      <trkpt lat="44.756392138078809" lon="5.59946034103632">
        <ele>1366.199951171875</ele>
        <time>2014-05-19T12:42:59Z</time>
      </trkpt>
      <trkpt lat="44.756372356787324" lon="5.599248362705112">
        <ele>1364.800048828125</ele>
        <time>2014-05-19T12:43:01Z</time>
      </trkpt>
      <trkpt lat="44.75634578615427" lon="5.599149037152529">
        <ele>1364.5999755859375</ele>
        <time>2014-05-19T12:43:02Z</time>
      </trkpt>
      <trkpt lat="44.756190301850438" lon="5.59877528809011">
        <ele>1363.800048828125</ele>
        <time>2014-05-19T12:43:06Z</time>
      </trkpt>
      <trkpt lat="44.756057867780328" lon="5.598502289503813">
        <ele>1362.199951171875</ele>
        <time>2014-05-19T12:43:09Z</time>
      </trkpt>
      <trkpt lat="44.755995338782668" lon="5.598430456593633">
        <ele>1361.800048828125</ele>
        <time>2014-05-19T12:43:10Z</time>
      </trkpt>
      <trkpt lat="44.755925517529249" lon="5.598367508500814">
        <ele>1360.5999755859375</ele>
        <time>2014-05-19T12:43:11Z</time>
      </trkpt>
      <trkpt lat="44.755796855315566" lon="5.598203977569938">
        <ele>1358.4000244140625</ele>
        <time>2014-05-19T12:43:13Z</time>
      </trkpt>
      <trkpt lat="44.755748743191361" lon="5.598096940666437">
        <ele>1357.4000244140625</ele>
        <time>2014-05-19T12:43:14Z</time>
      </trkpt>
      <trkpt lat="44.755705157294869" lon="5.597773902118206">
        <ele>1357.4000244140625</ele>
        <time>2014-05-19T12:43:17Z</time>
      </trkpt>
      <trkpt lat="44.755756119266152" lon="5.597550021484494">
        <ele>1356.199951171875</ele>
        <time>2014-05-19T12:43:19Z</time>
      </trkpt>
      <trkpt lat="44.755784198641777" lon="5.59743694961071">
        <ele>1355.4000244140625</ele>
        <time>2014-05-19T12:43:20Z</time>
      </trkpt>
      <trkpt lat="44.755813200026751" lon="5.59732262045145">
        <ele>1354.5999755859375</ele>
        <time>2014-05-19T12:43:21Z</time>
      </trkpt>
      <trkpt lat="44.755867598578334" lon="5.597083233296871">
        <ele>1352.4000244140625</ele>
        <time>2014-05-19T12:43:23Z</time>
      </trkpt>
      <trkpt lat="44.755891067907214" lon="5.596958845853806">
        <ele>1351.199951171875</ele>
        <time>2014-05-19T12:43:24Z</time>
      </trkpt>
      <trkpt lat="44.755935659632087" lon="5.596712585538626">
        <ele>1350</ele>
        <time>2014-05-19T12:43:26Z</time>
      </trkpt>
      <trkpt lat="44.755948567762971" lon="5.596589036285877">
        <ele>1349.4000244140625</ele>
        <time>2014-05-19T12:43:27Z</time>
      </trkpt>
      <trkpt lat="44.755954518914223" lon="5.59646263718605">
        <ele>1348.800048828125</ele>
        <time>2014-05-19T12:43:28Z</time>
      </trkpt>
      <trkpt lat="44.755941946059465" lon="5.596215790137649">
        <ele>1347.800048828125</ele>
        <time>2014-05-19T12:43:30Z</time>
      </trkpt>
      <trkpt lat="44.755914704874158" lon="5.59609416872263">
        <ele>1347</ele>
        <time>2014-05-19T12:43:31Z</time>
      </trkpt>
      <trkpt lat="44.755882015451789" lon="5.595971457660198">
        <ele>1346.5999755859375</ele>
        <time>2014-05-19T12:43:32Z</time>
      </trkpt>
      <trkpt lat="44.755757879465818" lon="5.59560994617641">
        <ele>1344.800048828125</ele>
        <time>2014-05-19T12:43:35Z</time>
      </trkpt>
      <trkpt lat="44.75561480037868" lon="5.595231167972088">
        <ele>1343.4000244140625</ele>
        <time>2014-05-19T12:43:38Z</time>
      </trkpt>
      <trkpt lat="44.75551170296967" lon="5.594979291781783">
        <ele>1342.5999755859375</ele>
        <time>2014-05-19T12:43:40Z</time>
      </trkpt>
      <trkpt lat="44.755447749048471" lon="5.594865549355745">
        <ele>1341.800048828125</ele>
        <time>2014-05-19T12:43:41Z</time>
      </trkpt>
      <trkpt lat="44.75528497248888" lon="5.59467913582921">
        <ele>1340.5999755859375</ele>
        <time>2014-05-19T12:43:43Z</time>
      </trkpt>
      <trkpt lat="44.755116831511259" lon="5.594539660960436">
        <ele>1339.5999755859375</ele>
        <time>2014-05-19T12:43:45Z</time>
      </trkpt>
      <trkpt lat="44.755037035793066" lon="5.594474114477634">
        <ele>1338.800048828125</ele>
        <time>2014-05-19T12:43:46Z</time>
      </trkpt>
      <trkpt lat="44.75497274659574" lon="5.594393061473966">
        <ele>1337.4000244140625</ele>
        <time>2014-05-19T12:43:47Z</time>
      </trkpt>
      <trkpt lat="44.754917928948998" lon="5.594305973500013">
        <ele>1336.199951171875</ele>
        <time>2014-05-19T12:43:48Z</time>
      </trkpt>
      <trkpt lat="44.754835199564695" lon="5.594110423699021">
        <ele>1334.5999755859375</ele>
        <time>2014-05-19T12:43:50Z</time>
      </trkpt>
      <trkpt lat="44.754780130460858" lon="5.593907414004207">
        <ele>1333.4000244140625</ele>
        <time>2014-05-19T12:43:52Z</time>
      </trkpt>
      <trkpt lat="44.75475431419909" lon="5.593807753175497">
        <ele>1332.800048828125</ele>
        <time>2014-05-19T12:43:53Z</time>
      </trkpt>
      <trkpt lat="44.754734365269542" lon="5.593700632452965">
        <ele>1332.800048828125</ele>
        <time>2014-05-19T12:43:54Z</time>
      </trkpt>
      <trkpt lat="44.754727659747005" lon="5.593588314950466">
        <ele>1332.800048828125</ele>
        <time>2014-05-19T12:43:55Z</time>
      </trkpt>
      <trkpt lat="44.754751715809107" lon="5.593377090990543">
        <ele>1333.199951171875</ele>
        <time>2014-05-19T12:43:57Z</time>
      </trkpt>
      <trkpt lat="44.754880629479885" lon="5.593123370781541">
        <ele>1333.5999755859375</ele>
        <time>2014-05-19T12:44:00Z</time>
      </trkpt>
      <trkpt lat="44.755058996379375" lon="5.592821538448334">
        <ele>1332.5999755859375</ele>
        <time>2014-05-19T12:44:04Z</time>
      </trkpt>
      <trkpt lat="44.755074167624116" lon="5.592727242037654">
        <ele>1332</ele>
        <time>2014-05-19T12:44:05Z</time>
      </trkpt>
      <trkpt lat="44.755064193159342" lon="5.592528088018298">
        <ele>1330.5999755859375</ele>
        <time>2014-05-19T12:44:07Z</time>
      </trkpt>
      <trkpt lat="44.75500744767487" lon="5.592326670885086">
        <ele>1328.800048828125</ele>
        <time>2014-05-19T12:44:09Z</time>
      </trkpt>
      <trkpt lat="44.754978362470865" lon="5.592222735285759">
        <ele>1328</ele>
        <time>2014-05-19T12:44:10Z</time>
      </trkpt>
      <trkpt lat="44.75494097918272" lon="5.592122990638018">
        <ele>1327.5999755859375</ele>
        <time>2014-05-19T12:44:11Z</time>
      </trkpt>
      <trkpt lat="44.754893453791738" lon="5.592029951512814">
        <ele>1327.199951171875</ele>
        <time>2014-05-19T12:44:12Z</time>
      </trkpt>
      <trkpt lat="44.75477728061378" lon="5.591867761686444">
        <ele>1326.4000244140625</ele>
        <time>2014-05-19T12:44:14Z</time>
      </trkpt>
      <trkpt lat="44.754659347236156" lon="5.59169408865273">
        <ele>1325.4000244140625</ele>
        <time>2014-05-19T12:44:16Z</time>
      </trkpt>
      <trkpt lat="44.754587095230818" lon="5.591461658477783">
        <ele>1325</ele>
        <time>2014-05-19T12:44:18Z</time>
      </trkpt>
      <trkpt lat="44.754570415243506" lon="5.591201903298497">
        <ele>1323.800048828125</ele>
        <time>2014-05-19T12:44:20Z</time>
      </trkpt>
      <trkpt lat="44.754579048603773" lon="5.59107106178999">
        <ele>1323.4000244140625</ele>
        <time>2014-05-19T12:44:21Z</time>
      </trkpt>
      <trkpt lat="44.754590028896928" lon="5.59094013646245">
        <ele>1322.800048828125</ele>
        <time>2014-05-19T12:44:22Z</time>
      </trkpt>
      <trkpt lat="44.754595644772053" lon="5.590807450935245">
        <ele>1322</ele>
        <time>2014-05-19T12:44:23Z</time>
      </trkpt>
      <trkpt lat="44.754587598145008" lon="5.590539900586009">
        <ele>1321</ele>
        <time>2014-05-19T12:44:25Z</time>
      </trkpt>
      <trkpt lat="44.754583742469549" lon="5.590404951944947">
        <ele>1320.199951171875</ele>
        <time>2014-05-19T12:44:26Z</time>
      </trkpt>
      <trkpt lat="44.754571756348014" lon="5.590269835665822">
        <ele>1319.5999755859375</ele>
        <time>2014-05-19T12:44:27Z</time>
      </trkpt>
      <trkpt lat="44.754561865702271" lon="5.589999603107572">
        <ele>1318.199951171875</ele>
        <time>2014-05-19T12:44:29Z</time>
      </trkpt>
      <trkpt lat="44.754571672528982" lon="5.589865241199732">
        <ele>1317.5999755859375</ele>
        <time>2014-05-19T12:44:30Z</time>
      </trkpt>
      <trkpt lat="44.754588017240167" lon="5.589740686118603">
        <ele>1316.800048828125</ele>
        <time>2014-05-19T12:44:31Z</time>
      </trkpt>
      <trkpt lat="44.754724223166704" lon="5.589200807735324">
        <ele>1316</ele>
        <time>2014-05-19T12:44:35Z</time>
      </trkpt>
      <trkpt lat="44.754750290885568" lon="5.589081449434161">
        <ele>1315.199951171875</ele>
        <time>2014-05-19T12:44:36Z</time>
      </trkpt>
      <trkpt lat="44.75478851236403" lon="5.588762685656548">
        <ele>1314.5999755859375</ele>
        <time>2014-05-19T12:44:39Z</time>
      </trkpt>
      <trkpt lat="44.754652138799429" lon="5.58854685164988">
        <ele>1314.199951171875</ele>
        <time>2014-05-19T12:44:42Z</time>
      </trkpt>
      <trkpt lat="44.75457695312798" lon="5.588532518595457">
        <ele>1313.800048828125</ele>
        <time>2014-05-19T12:44:43Z</time>
      </trkpt>
      <trkpt lat="44.754497073590755" lon="5.588545929640532">
        <ele>1313.4000244140625</ele>
        <time>2014-05-19T12:44:44Z</time>
      </trkpt>
      <trkpt lat="44.754418367519975" lon="5.588583229109645">
        <ele>1312.800048828125</ele>
        <time>2014-05-19T12:44:45Z</time>
      </trkpt>
      <trkpt lat="44.754268750548363" lon="5.588675094768405">
        <ele>1310.5999755859375</ele>
        <time>2014-05-19T12:44:47Z</time>
      </trkpt>
      <trkpt lat="44.754189793020487" lon="5.588752795010805">
        <ele>1310</ele>
        <time>2014-05-19T12:44:48Z</time>
      </trkpt>
      <trkpt lat="44.754107063636184" lon="5.588827226310968">
        <ele>1309</ele>
        <time>2014-05-19T12:44:49Z</time>
      </trkpt>
      <trkpt lat="44.754021232947707" lon="5.588894030079246">
        <ele>1308.199951171875</ele>
        <time>2014-05-19T12:44:50Z</time>
      </trkpt>
      <trkpt lat="44.753930289298296" lon="5.588952954858542">
        <ele>1307.4000244140625</ele>
        <time>2014-05-19T12:44:51Z</time>
      </trkpt>
      <trkpt lat="44.753754269331694" lon="5.589098464697599">
        <ele>1306.199951171875</ele>
        <time>2014-05-19T12:44:53Z</time>
      </trkpt>
      <trkpt lat="44.753666510805488" lon="5.589181780815125">
        <ele>1305.5999755859375</ele>
        <time>2014-05-19T12:44:54Z</time>
      </trkpt>
      <trkpt lat="44.753580177202821" lon="5.589269623160362">
        <ele>1304.4000244140625</ele>
        <time>2014-05-19T12:44:55Z</time>
      </trkpt>
      <trkpt lat="44.753413544967771" lon="5.589461736381054">
        <ele>1302.800048828125</ele>
        <time>2014-05-19T12:44:57Z</time>
      </trkpt>
      <trkpt lat="44.753261916339397" lon="5.589649742469192">
        <ele>1302.5999755859375</ele>
        <time>2014-05-19T12:44:59Z</time>
      </trkpt>
      <trkpt lat="44.753057900816202" lon="5.589888291433454">
        <ele>1301.4000244140625</ele>
        <time>2014-05-19T12:45:02Z</time>
      </trkpt>
      <trkpt lat="44.752934519201517" lon="5.590004548430443">
        <ele>1300.800048828125</ele>
        <time>2014-05-19T12:45:04Z</time>
      </trkpt>
      <trkpt lat="44.75286578759551" lon="5.590020138770342">
        <ele>1300.4000244140625</ele>
        <time>2014-05-19T12:45:05Z</time>
      </trkpt>
      <trkpt lat="44.752731928601861" lon="5.589991975575686">
        <ele>1299.199951171875</ele>
        <time>2014-05-19T12:45:07Z</time>
      </trkpt>
      <trkpt lat="44.752594800665975" lon="5.589730041101575">
        <ele>1297.5999755859375</ele>
        <time>2014-05-19T12:45:10Z</time>
      </trkpt>
      <trkpt lat="44.752557585015893" lon="5.589634822681546">
        <ele>1296.5999755859375</ele>
        <time>2014-05-19T12:45:11Z</time>
      </trkpt>
      <trkpt lat="44.752438813447952" lon="5.589330475777388">
        <ele>1295.4000244140625</ele>
        <time>2014-05-19T12:45:14Z</time>
      </trkpt>
      <trkpt lat="44.752347618341446" lon="5.589134674519301">
        <ele>1294</ele>
        <time>2014-05-19T12:45:16Z</time>
      </trkpt>
      <trkpt lat="44.752300847321749" lon="5.589034846052527">
        <ele>1293</ele>
        <time>2014-05-19T12:45:17Z</time>
      </trkpt>
      <trkpt lat="44.752251897007227" lon="5.588931664824486">
        <ele>1292.4000244140625</ele>
        <time>2014-05-19T12:45:18Z</time>
      </trkpt>
      <trkpt lat="44.752149805426598" lon="5.58872077614069">
        <ele>1291.4000244140625</ele>
        <time>2014-05-19T12:45:20Z</time>
      </trkpt>
      <trkpt lat="44.752042600885034" lon="5.588506031781435">
        <ele>1290.199951171875</ele>
        <time>2014-05-19T12:45:22Z</time>
      </trkpt>
      <trkpt lat="44.751936234533787" lon="5.588288521394134">
        <ele>1289.5999755859375</ele>
        <time>2014-05-19T12:45:24Z</time>
      </trkpt>
      <trkpt lat="44.75187873467803" lon="5.588185172528029">
        <ele>1289.199951171875</ele>
        <time>2014-05-19T12:45:25Z</time>
      </trkpt>
      <trkpt lat="44.751678155735135" lon="5.587864397093654">
        <ele>1287.800048828125</ele>
        <time>2014-05-19T12:45:28Z</time>
      </trkpt>
      <trkpt lat="44.751611687242985" lon="5.587756689637899">
        <ele>1287.199951171875</ele>
        <time>2014-05-19T12:45:29Z</time>
      </trkpt>
      <trkpt lat="44.75154404528439" lon="5.587652586400509">
        <ele>1286.4000244140625</ele>
        <time>2014-05-19T12:45:30Z</time>
      </trkpt>
      <trkpt lat="44.751395853236318" lon="5.587453013285995">
        <ele>1285</ele>
        <time>2014-05-19T12:45:32Z</time>
      </trkpt>
      <trkpt lat="44.751230478286743" lon="5.587271880358458">
        <ele>1283</ele>
        <time>2014-05-19T12:45:34Z</time>
      </trkpt>
      <trkpt lat="44.75114238448441" lon="5.587190072983503">
        <ele>1280.5999755859375</ele>
        <time>2014-05-19T12:45:35Z</time>
      </trkpt>
      <trkpt lat="44.750898806378245" lon="5.58699008077383">
        <ele>1280.4000244140625</ele>
        <time>2014-05-19T12:45:38Z</time>
      </trkpt>
      <trkpt lat="44.750678446143866" lon="5.58676234446466">
        <ele>1280</ele>
        <time>2014-05-19T12:45:41Z</time>
      </trkpt>
      <trkpt lat="44.750624299049377" lon="5.586649775505066">
        <ele>1279.4000244140625</ele>
        <time>2014-05-19T12:45:42Z</time>
      </trkpt>
      <trkpt lat="44.750583646818995" lon="5.586530165746808">
        <ele>1278.4000244140625</ele>
        <time>2014-05-19T12:45:43Z</time>
      </trkpt>
      <trkpt lat="44.750551460310817" lon="5.58641248382628">
        <ele>1277.4000244140625</ele>
        <time>2014-05-19T12:45:44Z</time>
      </trkpt>
      <trkpt lat="44.750524051487446" lon="5.586306033656001">
        <ele>1276.800048828125</ele>
        <time>2014-05-19T12:45:45Z</time>
      </trkpt>
      <trkpt lat="44.750477867200971" lon="5.586137725040317">
        <ele>1276.800048828125</ele>
        <time>2014-05-19T12:45:47Z</time>
      </trkpt>
      <trkpt lat="44.750447357073426" lon="5.586076956242323">
        <ele>1277</ele>
        <time>2014-05-19T12:45:48Z</time>
      </trkpt>
      <trkpt lat="44.75037032738328" lon="5.586041500791907">
        <ele>1277.5999755859375</ele>
        <time>2014-05-19T12:45:50Z</time>
      </trkpt>
      <trkpt lat="44.750277288258076" lon="5.586136886849999">
        <ele>1277.5999755859375</ele>
        <time>2014-05-19T12:45:53Z</time>
      </trkpt>
      <trkpt lat="44.750296650454402" lon="5.586344422772527">
        <ele>1277.5999755859375</ele>
        <time>2014-05-19T12:45:56Z</time>
      </trkpt>
      <trkpt lat="44.750311067327857" lon="5.586414495483041">
        <ele>1277.5999755859375</ele>
        <time>2014-05-19T12:45:57Z</time>
      </trkpt>
      <trkpt lat="44.750386839732528" lon="5.586658325046301">
        <ele>1276.199951171875</ele>
        <time>2014-05-19T12:46:00Z</time>
      </trkpt>
      <trkpt lat="44.750424977391958" lon="5.586744574829936">
        <ele>1276.199951171875</ele>
        <time>2014-05-19T12:46:01Z</time>
      </trkpt>
      <trkpt lat="44.750525308772922" lon="5.587029308080673">
        <ele>1274.800048828125</ele>
        <time>2014-05-19T12:46:04Z</time>
      </trkpt>
      <trkpt lat="44.750597728416324" lon="5.587230222299695">
        <ele>1273.5999755859375</ele>
        <time>2014-05-19T12:46:06Z</time>
      </trkpt>
      <trkpt lat="44.7506801225245" lon="5.587442368268967">
        <ele>1272</ele>
        <time>2014-05-19T12:46:08Z</time>
      </trkpt>
      <trkpt lat="44.750729072839022" lon="5.587544711306691">
        <ele>1271</ele>
        <time>2014-05-19T12:46:09Z</time>
      </trkpt>
      <trkpt lat="44.750841557979584" lon="5.587758617475629">
        <ele>1269.4000244140625</ele>
        <time>2014-05-19T12:46:11Z</time>
      </trkpt>
      <trkpt lat="44.751027971506119" lon="5.588111914694309">
        <ele>1268</ele>
        <time>2014-05-19T12:46:14Z</time>
      </trkpt>
      <trkpt lat="44.751155208796263" lon="5.588363958522677">
        <ele>1266.5999755859375</ele>
        <time>2014-05-19T12:46:16Z</time>
      </trkpt>
      <trkpt lat="44.751274818554521" lon="5.58864307589829">
        <ele>1264.5999755859375</ele>
        <time>2014-05-19T12:46:18Z</time>
      </trkpt>
      <trkpt lat="44.75139694288373" lon="5.588930994272232">
        <ele>1262.5999755859375</ele>
        <time>2014-05-19T12:46:20Z</time>
      </trkpt>
      <trkpt lat="44.751463914290071" lon="5.589069714769721">
        <ele>1261.5999755859375</ele>
        <time>2014-05-19T12:46:21Z</time>
      </trkpt>
      <trkpt lat="44.751596180722117" lon="5.589355453848839">
        <ele>1258.5999755859375</ele>
        <time>2014-05-19T12:46:23Z</time>
      </trkpt>
      <trkpt lat="44.75172626785934" lon="5.589648820459843">
        <ele>1257</ele>
        <time>2014-05-19T12:46:25Z</time>
      </trkpt>
      <trkpt lat="44.751839675009251" lon="5.589948054403067">
        <ele>1256</ele>
        <time>2014-05-19T12:46:27Z</time>
      </trkpt>
      <trkpt lat="44.7519476339221" lon="5.590253407135606">
        <ele>1254.800048828125</ele>
        <time>2014-05-19T12:46:29Z</time>
      </trkpt>
      <trkpt lat="44.752095323055983" lon="5.590786663815379">
        <ele>1254</ele>
        <time>2014-05-19T12:46:33Z</time>
      </trkpt>
      <trkpt lat="44.752125833183527" lon="5.590895712375641">
        <ele>1253.800048828125</ele>
        <time>2014-05-19T12:46:34Z</time>
      </trkpt>
      <trkpt lat="44.752205377444625" lon="5.591126130893827">
        <ele>1254.4000244140625</ele>
        <time>2014-05-19T12:46:37Z</time>
      </trkpt>
      <trkpt lat="44.752240665256977" lon="5.591180110350251">
        <ele>1254.199951171875</ele>
        <time>2014-05-19T12:46:38Z</time>
      </trkpt>
      <trkpt lat="44.752319371327758" lon="5.591252278536558">
        <ele>1253.199951171875</ele>
        <time>2014-05-19T12:46:40Z</time>
      </trkpt>
      <trkpt lat="44.75236689671874" lon="5.591261330991983">
        <ele>1252.5999755859375</ele>
        <time>2014-05-19T12:46:41Z</time>
      </trkpt>
      <trkpt lat="44.752486171200871" lon="5.591253284364939">
        <ele>1251.5999755859375</ele>
        <time>2014-05-19T12:46:43Z</time>
      </trkpt>
      <trkpt lat="44.752560183405876" lon="5.59123040176928">
        <ele>1250.800048828125</ele>
        <time>2014-05-19T12:46:44Z</time>
      </trkpt>
      <trkpt lat="44.752649199217558" lon="5.591200310736895">
        <ele>1250</ele>
        <time>2014-05-19T12:46:45Z</time>
      </trkpt>
      <trkpt lat="44.752745758742094" lon="5.591174745932221">
        <ele>1249</ele>
        <time>2014-05-19T12:46:46Z</time>
      </trkpt>
      <trkpt lat="44.752843910828233" lon="5.591156473383308">
        <ele>1247.199951171875</ele>
        <time>2014-05-19T12:46:47Z</time>
      </trkpt>
      <trkpt lat="44.753042478114367" lon="5.591107271611691">
        <ele>1246.5999755859375</ele>
        <time>2014-05-19T12:46:49Z</time>
      </trkpt>
      <trkpt lat="44.753125039860606" lon="5.59106863103807">
        <ele>1246.4000244140625</ele>
        <time>2014-05-19T12:46:50Z</time>
      </trkpt>
      <trkpt lat="44.753309357911348" lon="5.591117665171623">
        <ele>1246.4000244140625</ele>
        <time>2014-05-19T12:46:53Z</time>
      </trkpt>
      <trkpt lat="44.753345986828208" lon="5.591153288260102">
        <ele>1246.199951171875</ele>
        <time>2014-05-19T12:46:54Z</time>
      </trkpt>
      <trkpt lat="44.753411868587136" lon="5.591192096471787">
        <ele>1246.5999755859375</ele>
        <time>2014-05-19T12:46:56Z</time>
      </trkpt>
      <trkpt lat="44.753396781161427" lon="5.591213889420033">
        <ele>1247.199951171875</ele>
        <time>2014-05-19T12:46:57Z</time>
      </trkpt>
      <trkpt lat="44.753347914665937" lon="5.591198466718197">
        <ele>1247.800048828125</ele>
        <time>2014-05-19T12:46:59Z</time>
      </trkpt>
      <trkpt lat="44.753308519721031" lon="5.591088747605681">
        <ele>1247.199951171875</ele>
        <time>2014-05-19T12:48:49Z</time>
      </trkpt>
      <trkpt lat="44.753242051228881" lon="5.5910480953753">
        <ele>1246.800048828125</ele>
        <time>2014-05-19T12:48:51Z</time>
      </trkpt>
      <trkpt lat="44.753153873607516" lon="5.591023787856102">
        <ele>1246.199951171875</ele>
        <time>2014-05-19T12:48:53Z</time>
      </trkpt>
      <trkpt lat="44.753051614388824" lon="5.591010125353932">
        <ele>1245.800048828125</ele>
        <time>2014-05-19T12:48:55Z</time>
      </trkpt>
      <trkpt lat="44.752997802570462" lon="5.591014148667455">
        <ele>1245.4000244140625</ele>
        <time>2014-05-19T12:48:56Z</time>
      </trkpt>
      <trkpt lat="44.75287945009768" lon="5.59104373678565">
        <ele>1245</ele>
        <time>2014-05-19T12:48:58Z</time>
      </trkpt>
      <trkpt lat="44.75276118144393" lon="5.591101907193661">
        <ele>1244</ele>
        <time>2014-05-19T12:49:00Z</time>
      </trkpt>
      <trkpt lat="44.75270208902657" lon="5.591148426756263">
        <ele>1243.5999755859375</ele>
        <time>2014-05-19T12:49:01Z</time>
      </trkpt>
      <trkpt lat="44.752504276111722" lon="5.591290080919862">
        <ele>1242.199951171875</ele>
        <time>2014-05-19T12:49:04Z</time>
      </trkpt>
      <trkpt lat="44.752353318035603" lon="5.591318244114518">
        <ele>1241</ele>
        <time>2014-05-19T12:49:06Z</time>
      </trkpt>
      <trkpt lat="44.75227796472609" lon="5.591310197487474">
        <ele>1240.4000244140625</ele>
        <time>2014-05-19T12:49:07Z</time>
      </trkpt>
      <trkpt lat="44.752138825133443" lon="5.591253032907844">
        <ele>1239.5999755859375</ele>
        <time>2014-05-19T12:49:09Z</time>
      </trkpt>
      <trkpt lat="44.752076966688037" lon="5.591188073158264">
        <ele>1239.199951171875</ele>
        <time>2014-05-19T12:49:10Z</time>
      </trkpt>
      <trkpt lat="44.752016784623265" lon="5.591113725677133">
        <ele>1238.5999755859375</ele>
        <time>2014-05-19T12:49:11Z</time>
      </trkpt>
      <trkpt lat="44.75195299834013" lon="5.591033007949591">
        <ele>1237.4000244140625</ele>
        <time>2014-05-19T12:49:12Z</time>
      </trkpt>
      <trkpt lat="44.751844955608249" lon="5.590857658535242">
        <ele>1236.4000244140625</ele>
        <time>2014-05-19T12:49:14Z</time>
      </trkpt>
      <trkpt lat="44.751731464639306" lon="5.590672334656119">
        <ele>1235</ele>
        <time>2014-05-19T12:49:16Z</time>
      </trkpt>
      <trkpt lat="44.751585200428963" lon="5.590520119294524">
        <ele>1233.199951171875</ele>
        <time>2014-05-19T12:49:18Z</time>
      </trkpt>
      <trkpt lat="44.751516468822956" lon="5.590420961380005">
        <ele>1232.4000244140625</ele>
        <time>2014-05-19T12:49:19Z</time>
      </trkpt>
      <trkpt lat="44.751463662832975" lon="5.590303279459477">
        <ele>1231.800048828125</ele>
        <time>2014-05-19T12:49:20Z</time>
      </trkpt>
      <trkpt lat="44.751416640356183" lon="5.590184424072504">
        <ele>1231.199951171875</ele>
        <time>2014-05-19T12:49:21Z</time>
      </trkpt>
      <trkpt lat="44.751322427764535" lon="5.589949144050479">
        <ele>1230.5999755859375</ele>
        <time>2014-05-19T12:49:23Z</time>
      </trkpt>
      <trkpt lat="44.751259395852685" lon="5.589844537898898">
        <ele>1230.4000244140625</ele>
        <time>2014-05-19T12:49:24Z</time>
      </trkpt>
      <trkpt lat="44.751124028116465" lon="5.589650413021445">
        <ele>1230</ele>
        <time>2014-05-19T12:49:26Z</time>
      </trkpt>
      <trkpt lat="44.75104657933116" lon="5.589592745527625">
        <ele>1229.800048828125</ele>
        <time>2014-05-19T12:49:27Z</time>
      </trkpt>
      <trkpt lat="44.750914312899113" lon="5.589472381398082">
        <ele>1229.5999755859375</ele>
        <time>2014-05-19T12:49:29Z</time>
      </trkpt>
      <trkpt lat="44.750733263790607" lon="5.589295187965035">
        <ele>1228.5999755859375</ele>
        <time>2014-05-19T12:49:32Z</time>
      </trkpt>
      <trkpt lat="44.750694874674082" lon="5.589245650917292">
        <ele>1228.5999755859375</ele>
        <time>2014-05-19T12:49:33Z</time>
      </trkpt>
      <trkpt lat="44.750680541619658" lon="5.589273981750011">
        <ele>1228.4000244140625</ele>
        <time>2014-05-19T12:49:34Z</time>
      </trkpt>
      <trkpt lat="44.750559674575925" lon="5.589209357276559">
        <ele>1227.199951171875</ele>
        <time>2014-05-19T12:49:36Z</time>
      </trkpt>
      <trkpt lat="44.750490859150887" lon="5.589221846312285">
        <ele>1226.5999755859375</ele>
        <time>2014-05-19T12:49:37Z</time>
      </trkpt>
      <trkpt lat="44.750430760905147" lon="5.589213212952018">
        <ele>1226</ele>
        <time>2014-05-19T12:49:38Z</time>
      </trkpt>
      <trkpt lat="44.750305116176605" lon="5.589199969545007">
        <ele>1224.800048828125</ele>
        <time>2014-05-19T12:49:40Z</time>
      </trkpt>
      <trkpt lat="44.750173185020685" lon="5.589196784421802">
        <ele>1223.5999755859375</ele>
        <time>2014-05-19T12:49:42Z</time>
      </trkpt>
      <trkpt lat="44.750108812004328" lon="5.58919426985085">
        <ele>1223.199951171875</ele>
        <time>2014-05-19T12:49:43Z</time>
      </trkpt>
      <trkpt lat="44.75004586391151" lon="5.58921430259943">
        <ele>1222.5999755859375</ele>
        <time>2014-05-19T12:49:44Z</time>
      </trkpt>
      <trkpt lat="44.749981071799994" lon="5.589175242930651">
        <ele>1222</ele>
        <time>2014-05-19T12:49:45Z</time>
      </trkpt>
      <trkpt lat="44.749915190041065" lon="5.589120173826814">
        <ele>1221.199951171875</ele>
        <time>2014-05-19T12:49:46Z</time>
      </trkpt>
      <trkpt lat="44.749766662716866" lon="5.588999977335334">
        <ele>1220</ele>
        <time>2014-05-19T12:49:48Z</time>
      </trkpt>
      <trkpt lat="44.749621404334903" lon="5.58886201120913">
        <ele>1219</ele>
        <time>2014-05-19T12:49:50Z</time>
      </trkpt>
      <trkpt lat="44.749552924185991" lon="5.588784897699952">
        <ele>1218.5999755859375</ele>
        <time>2014-05-19T12:49:51Z</time>
      </trkpt>
      <trkpt lat="44.749489221721888" lon="5.588691690936685">
        <ele>1218.199951171875</ele>
        <time>2014-05-19T12:49:52Z</time>
      </trkpt>
      <trkpt lat="44.749430464580655" lon="5.588585659861565">
        <ele>1217.5999755859375</ele>
        <time>2014-05-19T12:49:53Z</time>
      </trkpt>
      <trkpt lat="44.749381262809038" lon="5.588466888293624">
        <ele>1216.5999755859375</ele>
        <time>2014-05-19T12:49:54Z</time>
      </trkpt>
      <trkpt lat="44.749336168169975" lon="5.588359432294965">
        <ele>1216</ele>
        <time>2014-05-19T12:49:55Z</time>
      </trkpt>
      <trkpt lat="44.749269196763635" lon="5.588063299655914">
        <ele>1215</ele>
        <time>2014-05-19T12:49:58Z</time>
      </trkpt>
      <trkpt lat="44.749301383271813" lon="5.587847046554089">
        <ele>1213.5999755859375</ele>
        <time>2014-05-19T12:50:00Z</time>
      </trkpt>
      <trkpt lat="44.749307250604033" lon="5.587736908346415">
        <ele>1213</ele>
        <time>2014-05-19T12:50:01Z</time>
      </trkpt>
      <trkpt lat="44.749304400756955" lon="5.587620483711362">
        <ele>1212.4000244140625</ele>
        <time>2014-05-19T12:50:02Z</time>
      </trkpt>
      <trkpt lat="44.749298617243767" lon="5.587502047419548">
        <ele>1212</ele>
        <time>2014-05-19T12:50:03Z</time>
      </trkpt>
      <trkpt lat="44.749288894236088" lon="5.587374307215214">
        <ele>1211.4000244140625</ele>
        <time>2014-05-19T12:50:04Z</time>
      </trkpt>
      <trkpt lat="44.749271795153618" lon="5.587239190936089">
        <ele>1210.5999755859375</ele>
        <time>2014-05-19T12:50:05Z</time>
      </trkpt>
      <trkpt lat="44.74925234913826" lon="5.587108600884676">
        <ele>1209.800048828125</ele>
        <time>2014-05-19T12:50:06Z</time>
      </trkpt>
      <trkpt lat="44.749216306954622" lon="5.58684054762125">
        <ele>1208.199951171875</ele>
        <time>2014-05-19T12:50:08Z</time>
      </trkpt>
      <trkpt lat="44.749182695522904" lon="5.586570734158158">
        <ele>1207</ele>
        <time>2014-05-19T12:50:10Z</time>
      </trkpt>
      <trkpt lat="44.749164842069149" lon="5.58643352240324">
        <ele>1206.5999755859375</ele>
        <time>2014-05-19T12:50:11Z</time>
      </trkpt>
      <trkpt lat="44.749146904796362" lon="5.586296310648322">
        <ele>1205.800048828125</ele>
        <time>2014-05-19T12:50:12Z</time>
      </trkpt>
      <trkpt lat="44.749091165140271" lon="5.585878556594253">
        <ele>1204.199951171875</ele>
        <time>2014-05-19T12:50:15Z</time>
      </trkpt>
      <trkpt lat="44.749070461839437" lon="5.58574209921062">
        <ele>1203.199951171875</ele>
        <time>2014-05-19T12:50:16Z</time>
      </trkpt>
      <trkpt lat="44.74904908798635" lon="5.585604133084416">
        <ele>1202.199951171875</ele>
        <time>2014-05-19T12:50:17Z</time>
      </trkpt>
      <trkpt lat="44.749017069116235" lon="5.585322668775916">
        <ele>1201</ele>
        <time>2014-05-19T12:50:19Z</time>
      </trkpt>
      <trkpt lat="44.74901145324111" lon="5.584900388494134">
        <ele>1199.5999755859375</ele>
        <time>2014-05-19T12:50:22Z</time>
      </trkpt>
      <trkpt lat="44.749018577858806" lon="5.584758231416345">
        <ele>1199.199951171875</ele>
        <time>2014-05-19T12:50:23Z</time>
      </trkpt>
      <trkpt lat="44.749028887599707" lon="5.584616661071777">
        <ele>1197</ele>
        <time>2014-05-19T12:50:24Z</time>
      </trkpt>
      <trkpt lat="44.749044561758637" lon="5.584475426003337">
        <ele>1195.800048828125</ele>
        <time>2014-05-19T12:50:25Z</time>
      </trkpt>
      <trkpt lat="44.749070126563311" lon="5.584206199273467">
        <ele>1194.4000244140625</ele>
        <time>2014-05-19T12:50:27Z</time>
      </trkpt>
      <trkpt lat="44.749070126563311" lon="5.58394149877131">
        <ele>1192.5999755859375</ele>
        <time>2014-05-19T12:50:29Z</time>
      </trkpt>
      <trkpt lat="44.749009441584349" lon="5.58343967422843">
        <ele>1193</ele>
        <time>2014-05-19T12:50:33Z</time>
      </trkpt>
      <trkpt lat="44.748994270339608" lon="5.583320818841457">
        <ele>1192.4000244140625</ele>
        <time>2014-05-19T12:50:34Z</time>
      </trkpt>
      <trkpt lat="44.748960072174668" lon="5.582997025921941">
        <ele>1192.4000244140625</ele>
        <time>2014-05-19T12:50:37Z</time>
      </trkpt>
      <trkpt lat="44.748972561210394" lon="5.582890240475535">
        <ele>1192</ele>
        <time>2014-05-19T12:50:38Z</time>
      </trkpt>
      <trkpt lat="44.749019918963313" lon="5.582687146961689">
        <ele>1191.4000244140625</ele>
        <time>2014-05-19T12:50:40Z</time>
      </trkpt>
      <trkpt lat="44.749024445191026" lon="5.582592347636819">
        <ele>1191.4000244140625</ele>
        <time>2014-05-19T12:50:41Z</time>
      </trkpt>
      <trkpt lat="44.748942218720913" lon="5.582302752882242">
        <ele>1190.4000244140625</ele>
        <time>2014-05-19T12:50:44Z</time>
      </trkpt>
      <trkpt lat="44.748809114098549" lon="5.582034280523658">
        <ele>1189.199951171875</ele>
        <time>2014-05-19T12:50:47Z</time>
      </trkpt>
      <trkpt lat="44.74879059009254" lon="5.581929590553045">
        <ele>1188.199951171875</ele>
        <time>2014-05-19T12:50:48Z</time>
      </trkpt>
      <trkpt lat="44.748771479353309" lon="5.581818865612149">
        <ele>1188</ele>
        <time>2014-05-19T12:50:49Z</time>
      </trkpt>
      <trkpt lat="44.748747507110238" lon="5.581709817051888">
        <ele>1187.5999755859375</ele>
        <time>2014-05-19T12:50:50Z</time>
      </trkpt>
      <trkpt lat="44.748707609251142" lon="5.581482416018844">
        <ele>1186.800048828125</ele>
        <time>2014-05-19T12:50:52Z</time>
      </trkpt>
      <trkpt lat="44.748670980334282" lon="5.581263732165098">
        <ele>1185.4000244140625</ele>
        <time>2014-05-19T12:50:54Z</time>
      </trkpt>
      <trkpt lat="44.748618425801396" lon="5.581059213727713">
        <ele>1184.800048828125</ele>
        <time>2014-05-19T12:50:56Z</time>
      </trkpt>
      <trkpt lat="44.748573247343302" lon="5.580974305048585">
        <ele>1184.4000244140625</ele>
        <time>2014-05-19T12:50:57Z</time>
      </trkpt>
      <trkpt lat="44.748509544879198" lon="5.580913703888655">
        <ele>1184</ele>
        <time>2014-05-19T12:50:58Z</time>
      </trkpt>
      <trkpt lat="44.748351378366351" lon="5.58086609467864">
        <ele>1183.199951171875</ele>
        <time>2014-05-19T12:51:00Z</time>
      </trkpt>
      <trkpt lat="44.748268481343985" lon="5.580881014466286">
        <ele>1183</ele>
        <time>2014-05-19T12:51:01Z</time>
      </trkpt>
      <trkpt lat="44.748193714767694" lon="5.580894174054265">
        <ele>1183</ele>
        <time>2014-05-19T12:51:02Z</time>
      </trkpt>
      <trkpt lat="44.748125988990068" lon="5.58093985542655">
        <ele>1182.800048828125</ele>
        <time>2014-05-19T12:51:03Z</time>
      </trkpt>
      <trkpt lat="44.748056251555681" lon="5.580990649759769">
        <ele>1182.199951171875</ele>
        <time>2014-05-19T12:51:04Z</time>
      </trkpt>
      <trkpt lat="44.747988441959023" lon="5.581053849309683">
        <ele>1181.800048828125</ele>
        <time>2014-05-19T12:51:05Z</time>
      </trkpt>
      <trkpt lat="44.74784997291863" lon="5.581145295873284">
        <ele>1181.4000244140625</ele>
        <time>2014-05-19T12:51:07Z</time>
      </trkpt>
      <trkpt lat="44.747783336788416" lon="5.581184606999159">
        <ele>1181.199951171875</ele>
        <time>2014-05-19T12:51:08Z</time>
      </trkpt>
      <trkpt lat="44.747719299048185" lon="5.581168765202165">
        <ele>1180.800048828125</ele>
        <time>2014-05-19T12:51:09Z</time>
      </trkpt>
      <trkpt lat="44.747663559392095" lon="5.581112187355757">
        <ele>1180.199951171875</ele>
        <time>2014-05-19T12:51:10Z</time>
      </trkpt>
      <trkpt lat="44.747629445046186" lon="5.581018980592489">
        <ele>1179.4000244140625</ele>
        <time>2014-05-19T12:51:11Z</time>
      </trkpt>
      <trkpt lat="44.747610501945019" lon="5.580908842384815">
        <ele>1177.199951171875</ele>
        <time>2014-05-19T12:51:12Z</time>
      </trkpt>
      <trkpt lat="44.747582674026489" lon="5.580700132995844">
        <ele>1175.5999755859375</ele>
        <time>2014-05-19T12:51:14Z</time>
      </trkpt>
      <trkpt lat="44.747545374557376" lon="5.580480862408876">
        <ele>1174.800048828125</ele>
        <time>2014-05-19T12:51:16Z</time>
      </trkpt>
      <trkpt lat="44.747507739812136" lon="5.580382542684674">
        <ele>1174</ele>
        <time>2014-05-19T12:51:17Z</time>
      </trkpt>
      <trkpt lat="44.747410258278251" lon="5.580201493576169">
        <ele>1173</ele>
        <time>2014-05-19T12:51:19Z</time>
      </trkpt>
      <trkpt lat="44.747290816158056" lon="5.580022623762488">
        <ele>1171.5999755859375</ele>
        <time>2014-05-19T12:51:21Z</time>
      </trkpt>
      <trkpt lat="44.747157962992787" lon="5.579849956557155">
        <ele>1170.5999755859375</ele>
        <time>2014-05-19T12:51:23Z</time>
      </trkpt>
      <trkpt lat="44.747017482295632" lon="5.579665806144476">
        <ele>1169.4000244140625</ele>
        <time>2014-05-19T12:51:25Z</time>
      </trkpt>
      <trkpt lat="44.7468619979918" lon="5.579488864168525">
        <ele>1167.800048828125</ele>
        <time>2014-05-19T12:51:27Z</time>
      </trkpt>
      <trkpt lat="44.746784968301654" lon="5.579402111470699">
        <ele>1167</ele>
        <time>2014-05-19T12:51:28Z</time>
      </trkpt>
      <trkpt lat="44.746711710467935" lon="5.579320136457682">
        <ele>1166.5999755859375</ele>
        <time>2014-05-19T12:51:29Z</time>
      </trkpt>
      <trkpt lat="44.746629651635885" lon="5.579257356002927">
        <ele>1166.199951171875</ele>
        <time>2014-05-19T12:51:30Z</time>
      </trkpt>
      <trkpt lat="44.746449524536729" lon="5.579170351848006">
        <ele>1166</ele>
        <time>2014-05-19T12:51:32Z</time>
      </trkpt>
      <trkpt lat="44.746352210640907" lon="5.579141015186906">
        <ele>1165.4000244140625</ele>
        <time>2014-05-19T12:51:33Z</time>
      </trkpt>
      <trkpt lat="44.746256740763783" lon="5.579113103449345">
        <ele>1164.4000244140625</ele>
        <time>2014-05-19T12:51:34Z</time>
      </trkpt>
      <trkpt lat="44.746164875105023" lon="5.579086281359196">
        <ele>1163.4000244140625</ele>
        <time>2014-05-19T12:51:35Z</time>
      </trkpt>
      <trkpt lat="44.746074685826898" lon="5.579062309116125">
        <ele>1161.800048828125</ele>
        <time>2014-05-19T12:51:36Z</time>
      </trkpt>
      <trkpt lat="44.745983825996518" lon="5.579022159799933">
        <ele>1161.199951171875</ele>
        <time>2014-05-19T12:51:37Z</time>
      </trkpt>
      <trkpt lat="44.745809230953455" lon="5.578902047127485">
        <ele>1160.5999755859375</ele>
        <time>2014-05-19T12:51:39Z</time>
      </trkpt>
      <trkpt lat="44.745638994500041" lon="5.578756285831332">
        <ele>1159.199951171875</ele>
        <time>2014-05-19T12:51:41Z</time>
      </trkpt>
      <trkpt lat="44.745472697541118" lon="5.578608009964228">
        <ele>1157.4000244140625</ele>
        <time>2014-05-19T12:51:43Z</time>
      </trkpt>
      <trkpt lat="44.745331211015582" lon="5.57845177128911">
        <ele>1156.4000244140625</ele>
        <time>2014-05-19T12:51:45Z</time>
      </trkpt>
      <trkpt lat="44.745285445824265" lon="5.578350853174925">
        <ele>1156.199951171875</ele>
        <time>2014-05-19T12:51:46Z</time>
      </trkpt>
      <trkpt lat="44.745282847434282" lon="5.578132420778275">
        <ele>1155.199951171875</ele>
        <time>2014-05-19T12:51:48Z</time>
      </trkpt>
      <trkpt lat="44.745378652587533" lon="5.577944498509169">
        <ele>1153.4000244140625</ele>
        <time>2014-05-19T12:51:50Z</time>
      </trkpt>
      <trkpt lat="44.745525671169162" lon="5.577812399715185">
        <ele>1151.800048828125</ele>
        <time>2014-05-19T12:51:52Z</time>
      </trkpt>
      <trkpt lat="44.745605802163482" lon="5.577786583453417">
        <ele>1151.4000244140625</ele>
        <time>2014-05-19T12:51:53Z</time>
      </trkpt>
      <trkpt lat="44.745743852108717" lon="5.577646354213357">
        <ele>1151.800048828125</ele>
        <time>2014-05-19T12:51:56Z</time>
      </trkpt>
      <trkpt lat="44.745682245120406" lon="5.577535377815366">
        <ele>1151.4000244140625</ele>
        <time>2014-05-19T12:51:58Z</time>
      </trkpt>
      <trkpt lat="44.745570765808225" lon="5.577504280954599">
        <ele>1150.199951171875</ele>
        <time>2014-05-19T12:52:00Z</time>
      </trkpt>
      <trkpt lat="44.745509242638946" lon="5.577489109709859">
        <ele>1149.800048828125</ele>
        <time>2014-05-19T12:52:01Z</time>
      </trkpt>
      <trkpt lat="44.745371444150805" lon="5.577488103881478">
        <ele>1148.800048828125</ele>
        <time>2014-05-19T12:52:03Z</time>
      </trkpt>
      <trkpt lat="44.745223252102733" lon="5.577546358108521">
        <ele>1148</ele>
        <time>2014-05-19T12:52:05Z</time>
      </trkpt>
      <trkpt lat="44.745148904621601" lon="5.577602684497833">
        <ele>1147.5999755859375</ele>
        <time>2014-05-19T12:52:06Z</time>
      </trkpt>
      <trkpt lat="44.744996605440974" lon="5.577727491036058">
        <ele>1146.800048828125</ele>
        <time>2014-05-19T12:52:08Z</time>
      </trkpt>
      <trkpt lat="44.744927370920777" lon="5.577785158529878">
        <ele>1146.5999755859375</ele>
        <time>2014-05-19T12:52:09Z</time>
      </trkpt>
      <trkpt lat="44.744861237704754" lon="5.577828157693148">
        <ele>1146.4000244140625</ele>
        <time>2014-05-19T12:52:10Z</time>
      </trkpt>
      <trkpt lat="44.744794182479382" lon="5.577850537374616">
        <ele>1146</ele>
        <time>2014-05-19T12:52:11Z</time>
      </trkpt>
      <trkpt lat="44.744725367054343" lon="5.577838383615017">
        <ele>1145.4000244140625</ele>
        <time>2014-05-19T12:52:12Z</time>
      </trkpt>
      <trkpt lat="44.744655797258019" lon="5.577799072489142">
        <ele>1144.5999755859375</ele>
        <time>2014-05-19T12:52:13Z</time>
      </trkpt>
      <trkpt lat="44.744585221633315" lon="5.577737968415022">
        <ele>1143.4000244140625</ele>
        <time>2014-05-19T12:52:14Z</time>
      </trkpt>
      <trkpt lat="44.744528643786907" lon="5.577652305364609">
        <ele>1142.199951171875</ele>
        <time>2014-05-19T12:52:15Z</time>
      </trkpt>
      <trkpt lat="44.744469132274389" lon="5.577563121914864">
        <ele>1140.800048828125</ele>
        <time>2014-05-19T12:52:16Z</time>
      </trkpt>
      <trkpt lat="44.744403334334493" lon="5.577474944293499">
        <ele>1139.800048828125</ele>
        <time>2014-05-19T12:52:17Z</time>
      </trkpt>
      <trkpt lat="44.74434700794518" lon="5.577377630397677">
        <ele>1139</ele>
        <time>2014-05-19T12:52:18Z</time>
      </trkpt>
      <trkpt lat="44.744290681555867" lon="5.577291129156947">
        <ele>1138.5999755859375</ele>
        <time>2014-05-19T12:52:19Z</time>
      </trkpt>
      <trkpt lat="44.744244329631329" lon="5.577193228527904">
        <ele>1138.199951171875</ele>
        <time>2014-05-19T12:52:20Z</time>
      </trkpt>
      <trkpt lat="44.744213819503784" lon="5.576968006789684">
        <ele>1137.800048828125</ele>
        <time>2014-05-19T12:52:22Z</time>
      </trkpt>
      <trkpt lat="44.744233014062047" lon="5.576847726479173">
        <ele>1137.4000244140625</ele>
        <time>2014-05-19T12:52:23Z</time>
      </trkpt>
      <trkpt lat="44.744267212226987" lon="5.576732726767659">
        <ele>1136.199951171875</ele>
        <time>2014-05-19T12:52:24Z</time>
      </trkpt>
      <trkpt lat="44.744310881942511" lon="5.576622085645795">
        <ele>1135.199951171875</ele>
        <time>2014-05-19T12:52:25Z</time>
      </trkpt>
      <trkpt lat="44.744359664618969" lon="5.576516976580024">
        <ele>1134.199951171875</ele>
        <time>2014-05-19T12:52:26Z</time>
      </trkpt>
      <trkpt lat="44.744404088705778" lon="5.57640440762043">
        <ele>1132.800048828125</ele>
        <time>2014-05-19T12:52:27Z</time>
      </trkpt>
      <trkpt lat="44.744490338489413" lon="5.57619133964181">
        <ele>1131.199951171875</ele>
        <time>2014-05-19T12:52:29Z</time>
      </trkpt>
      <trkpt lat="44.744604080915451" lon="5.576003082096577">
        <ele>1130.199951171875</ele>
        <time>2014-05-19T12:52:31Z</time>
      </trkpt>
      <trkpt lat="44.744740538299084" lon="5.575839718803763">
        <ele>1128.800048828125</ele>
        <time>2014-05-19T12:52:33Z</time>
      </trkpt>
      <trkpt lat="44.744961149990559" lon="5.575593374669552">
        <ele>1127.5999755859375</ele>
        <time>2014-05-19T12:52:36Z</time>
      </trkpt>
      <trkpt lat="44.745176732540131" lon="5.575329177081585">
        <ele>1126</ele>
        <time>2014-05-19T12:52:39Z</time>
      </trkpt>
      <trkpt lat="44.745323583483696" lon="5.575171010568738">
        <ele>1124.5999755859375</ele>
        <time>2014-05-19T12:52:41Z</time>
      </trkpt>
      <trkpt lat="44.745477391406894" lon="5.575075289234519">
        <ele>1123.5999755859375</ele>
        <time>2014-05-19T12:52:43Z</time>
      </trkpt>
      <trkpt lat="44.74556221626699" lon="5.575052741914988">
        <ele>1123.199951171875</ele>
        <time>2014-05-19T12:52:44Z</time>
      </trkpt>
      <trkpt lat="44.745739409700036" lon="5.575060620903969">
        <ele>1122.5999755859375</ele>
        <time>2014-05-19T12:52:46Z</time>
      </trkpt>
      <trkpt lat="44.745825156569481" lon="5.57506313547492">
        <ele>1122.199951171875</ele>
        <time>2014-05-19T12:52:47Z</time>
      </trkpt>
      <trkpt lat="44.74590914323926" lon="5.57507436722517">
        <ele>1121.4000244140625</ele>
        <time>2014-05-19T12:52:48Z</time>
      </trkpt>
      <trkpt lat="44.746081391349435" lon="5.575102362781763">
        <ele>1120.199951171875</ele>
        <time>2014-05-19T12:52:50Z</time>
      </trkpt>
      <trkpt lat="44.746330920606852" lon="5.575114851817489">
        <ele>1118.800048828125</ele>
        <time>2014-05-19T12:52:53Z</time>
      </trkpt>
      <trkpt lat="44.746420439332724" lon="5.575097166001797">
        <ele>1118.5999755859375</ele>
        <time>2014-05-19T12:52:54Z</time>
      </trkpt>
      <trkpt lat="44.746642224490643" lon="5.575041007250547">
        <ele>1119.4000244140625</ele>
        <time>2014-05-19T12:52:57Z</time>
      </trkpt>
      <trkpt lat="44.746699724346399" lon="5.575004294514656">
        <ele>1119.4000244140625</ele>
        <time>2014-05-19T12:52:58Z</time>
      </trkpt>
      <trkpt lat="44.746831320226192" lon="5.574828945100308">
        <ele>1119.4000244140625</ele>
        <time>2014-05-19T12:53:01Z</time>
      </trkpt>
      <trkpt lat="44.746849592775106" lon="5.574561143293977">
        <ele>1117.5999755859375</ele>
        <time>2014-05-19T12:53:04Z</time>
      </trkpt>
      <trkpt lat="44.746795780956745" lon="5.574396187439561">
        <ele>1116.800048828125</ele>
        <time>2014-05-19T12:53:06Z</time>
      </trkpt>
      <trkpt lat="44.746754541993141" lon="5.574319073930383">
        <ele>1116.199951171875</ele>
        <time>2014-05-19T12:53:07Z</time>
      </trkpt>
      <trkpt lat="44.74667876958847" lon="5.574139952659607">
        <ele>1114.800048828125</ele>
        <time>2014-05-19T12:53:09Z</time>
      </trkpt>
      <trkpt lat="44.746587658300996" lon="5.573962340131402">
        <ele>1113.4000244140625</ele>
        <time>2014-05-19T12:53:11Z</time>
      </trkpt>
      <trkpt lat="44.746546419337392" lon="5.57386452332139">
        <ele>1111.800048828125</ele>
        <time>2014-05-19T12:53:12Z</time>
      </trkpt>
      <trkpt lat="44.746458996087313" lon="5.573664614930749">
        <ele>1110</ele>
        <time>2014-05-19T12:53:14Z</time>
      </trkpt>
      <trkpt lat="44.746368052437901" lon="5.573463113978505">
        <ele>1108.5999755859375</ele>
        <time>2014-05-19T12:53:16Z</time>
      </trkpt>
      <trkpt lat="44.746277611702681" lon="5.573257422074676">
        <ele>1107.199951171875</ele>
        <time>2014-05-19T12:53:18Z</time>
      </trkpt>
      <trkpt lat="44.746232768520713" lon="5.573155581951141">
        <ele>1105.800048828125</ele>
        <time>2014-05-19T12:53:19Z</time>
      </trkpt>
      <trkpt lat="44.746188260614872" lon="5.573054412379861">
        <ele>1105</ele>
        <time>2014-05-19T12:53:20Z</time>
      </trkpt>
      <trkpt lat="44.74614467471838" lon="5.57294980622828">
        <ele>1104.4000244140625</ele>
        <time>2014-05-19T12:53:21Z</time>
      </trkpt>
      <trkpt lat="44.745951052755117" lon="5.572523418813944">
        <ele>1106.199951171875</ele>
        <time>2014-05-19T12:53:25Z</time>
      </trkpt>
      <trkpt lat="44.745838986709714" lon="5.57229358702898">
        <ele>1104.4000244140625</ele>
        <time>2014-05-19T12:53:27Z</time>
      </trkpt>
      <trkpt lat="44.745781235396862" lon="5.572185544297099">
        <ele>1102.199951171875</ele>
        <time>2014-05-19T12:53:28Z</time>
      </trkpt>
      <trkpt lat="44.74572247825563" lon="5.57207859121263">
        <ele>1101</ele>
        <time>2014-05-19T12:53:29Z</time>
      </trkpt>
      <trkpt lat="44.745400194078684" lon="5.571526978164911">
        <ele>1101.4000244140625</ele>
        <time>2014-05-19T12:53:34Z</time>
      </trkpt>
      <trkpt lat="44.745264323428273" lon="5.571279460564256">
        <ele>1099.199951171875</ele>
        <time>2014-05-19T12:53:36Z</time>
      </trkpt>
      <trkpt lat="44.745129961520433" lon="5.571017693728209">
        <ele>1097.4000244140625</ele>
        <time>2014-05-19T12:53:38Z</time>
      </trkpt>
      <trkpt lat="44.744984116405249" lon="5.57076271623373">
        <ele>1097</ele>
        <time>2014-05-19T12:53:40Z</time>
      </trkpt>
      <trkpt lat="44.74490356631577" lon="5.570636736229062">
        <ele>1096.199951171875</ele>
        <time>2014-05-19T12:53:41Z</time>
      </trkpt>
      <trkpt lat="44.744735425338149" lon="5.570382429286838">
        <ele>1094.5999755859375</ele>
        <time>2014-05-19T12:53:43Z</time>
      </trkpt>
      <trkpt lat="44.744636099785566" lon="5.570268854498863">
        <ele>1094.199951171875</ele>
        <time>2014-05-19T12:53:44Z</time>
      </trkpt>
      <trkpt lat="44.744534343481064" lon="5.570158548653126">
        <ele>1093.5999755859375</ele>
        <time>2014-05-19T12:53:45Z</time>
      </trkpt>
      <trkpt lat="44.744431329891086" lon="5.570037513971329">
        <ele>1093</ele>
        <time>2014-05-19T12:53:46Z</time>
      </trkpt>
      <trkpt lat="44.744219100102782" lon="5.569786475971341">
        <ele>1092</ele>
        <time>2014-05-19T12:53:48Z</time>
      </trkpt>
      <trkpt lat="44.744029752910137" lon="5.569543316960335">
        <ele>1091</ele>
        <time>2014-05-19T12:53:50Z</time>
      </trkpt>
      <trkpt lat="44.74395708180964" lon="5.569431837648153">
        <ele>1090.800048828125</ele>
        <time>2014-05-19T12:53:51Z</time>
      </trkpt>
      <trkpt lat="44.743833364918828" lon="5.569228157401085">
        <ele>1090.5999755859375</ele>
        <time>2014-05-19T12:53:53Z</time>
      </trkpt>
      <trkpt lat="44.743729680776596" lon="5.568894054740667">
        <ele>1089.199951171875</ele>
        <time>2014-05-19T12:53:56Z</time>
      </trkpt>
      <trkpt lat="44.74371719174087" lon="5.568780479952693">
        <ele>1088.5999755859375</ele>
        <time>2014-05-19T12:53:57Z</time>
      </trkpt>
      <trkpt lat="44.743713168427348" lon="5.568664558231831">
        <ele>1088.199951171875</ele>
        <time>2014-05-19T12:53:58Z</time>
      </trkpt>
      <trkpt lat="44.743723226711154" lon="5.568451825529337">
        <ele>1086.5999755859375</ele>
        <time>2014-05-19T12:54:00Z</time>
      </trkpt>
      <trkpt lat="44.743750467896461" lon="5.56835082359612">
        <ele>1086</ele>
        <time>2014-05-19T12:54:01Z</time>
      </trkpt>
      <trkpt lat="44.743775026872754" lon="5.568277901038528">
        <ele>1085.199951171875</ele>
        <time>2014-05-19T12:54:02Z</time>
      </trkpt>
      <trkpt lat="44.743895391002297" lon="5.568129876628518">
        <ele>1083.800048828125</ele>
        <time>2014-05-19T12:54:04Z</time>
      </trkpt>
      <trkpt lat="44.744037967175245" lon="5.568016553297639">
        <ele>1082.800048828125</ele>
        <time>2014-05-19T12:54:06Z</time>
      </trkpt>
      <trkpt lat="44.744192697107792" lon="5.567925190553069">
        <ele>1081.800048828125</ele>
        <time>2014-05-19T12:54:08Z</time>
      </trkpt>
      <trkpt lat="44.744368549436331" lon="5.567853609099984">
        <ele>1080.199951171875</ele>
        <time>2014-05-19T12:54:10Z</time>
      </trkpt>
      <trkpt lat="44.744538031518459" lon="5.567799545824528">
        <ele>1079.199951171875</ele>
        <time>2014-05-19T12:54:12Z</time>
      </trkpt>
      <trkpt lat="44.744627214968204" lon="5.567780854180455">
        <ele>1079</ele>
        <time>2014-05-19T12:54:13Z</time>
      </trkpt>
      <trkpt lat="44.744835840538144" lon="5.567661579698324">
        <ele>1078.199951171875</ele>
        <time>2014-05-19T12:54:16Z</time>
      </trkpt>
      <trkpt lat="44.744858639314771" lon="5.567428646609187">
        <ele>1078.199951171875</ele>
        <time>2014-05-19T12:54:18Z</time>
      </trkpt>
      <trkpt lat="44.744780687615275" lon="5.567105440422893">
        <ele>1078</ele>
        <time>2014-05-19T12:54:21Z</time>
      </trkpt>
      <trkpt lat="44.744744393974543" lon="5.567010389640927">
        <ele>1077.800048828125</ele>
        <time>2014-05-19T12:54:22Z</time>
      </trkpt>
      <trkpt lat="44.744644230231643" lon="5.566733703017235">
        <ele>1077</ele>
        <time>2014-05-19T12:54:25Z</time>
      </trkpt>
      <trkpt lat="44.744622521102428" lon="5.566633455455303">
        <ele>1076.800048828125</ele>
        <time>2014-05-19T12:54:26Z</time>
      </trkpt>
      <trkpt lat="44.744566781446338" lon="5.566189466044307">
        <ele>1076.199951171875</ele>
        <time>2014-05-19T12:54:30Z</time>
      </trkpt>
      <trkpt lat="44.74454834125936" lon="5.566072538495064">
        <ele>1075.5999755859375</ele>
        <time>2014-05-19T12:54:31Z</time>
      </trkpt>
      <trkpt lat="44.744507353752851" lon="5.565847232937813">
        <ele>1074.199951171875</ele>
        <time>2014-05-19T12:54:33Z</time>
      </trkpt>
      <trkpt lat="44.74448530934751" lon="5.565733574330807">
        <ele>1073.199951171875</ele>
        <time>2014-05-19T12:54:34Z</time>
      </trkpt>
      <trkpt lat="44.744464522227645" lon="5.565508268773556">
        <ele>1072.4000244140625</ele>
        <time>2014-05-19T12:54:36Z</time>
      </trkpt>
      <trkpt lat="44.744465444236994" lon="5.565399220213294">
        <ele>1072.199951171875</ele>
        <time>2014-05-19T12:54:37Z</time>
      </trkpt>
      <trkpt lat="44.7444789391011" lon="5.565287824720144">
        <ele>1072</ele>
        <time>2014-05-19T12:54:38Z</time>
      </trkpt>
      <trkpt lat="44.744531912729144" lon="5.565080540254712">
        <ele>1072.199951171875</ele>
        <time>2014-05-19T12:54:40Z</time>
      </trkpt>
      <trkpt lat="44.744563596323133" lon="5.564969815313816">
        <ele>1072</ele>
        <time>2014-05-19T12:54:41Z</time>
      </trkpt>
      <trkpt lat="44.744657054543495" lon="5.564673850312829">
        <ele>1070.5999755859375</ele>
        <time>2014-05-19T12:54:44Z</time>
      </trkpt>
      <trkpt lat="44.744712626561522" lon="5.564527250826359">
        <ele>1070.4000244140625</ele>
        <time>2014-05-19T12:54:46Z</time>
      </trkpt>
      <trkpt lat="44.744760738685727" lon="5.564358523115516">
        <ele>1070</ele>
        <time>2014-05-19T12:54:48Z</time>
      </trkpt>
      <trkpt lat="44.744807928800583" lon="5.564190549775958">
        <ele>1069.5999755859375</ele>
        <time>2014-05-19T12:54:50Z</time>
      </trkpt>
      <trkpt lat="44.74484053440392" lon="5.564013104885817">
        <ele>1068.800048828125</ele>
        <time>2014-05-19T12:54:52Z</time>
      </trkpt>
      <trkpt lat="44.744861824437976" lon="5.563919143751264">
        <ele>1068.4000244140625</ele>
        <time>2014-05-19T12:54:53Z</time>
      </trkpt>
      <trkpt lat="44.744920749217272" lon="5.563518572598696">
        <ele>1067</ele>
        <time>2014-05-19T12:54:57Z</time>
      </trkpt>
      <trkpt lat="44.744940027594566" lon="5.563404075801373">
        <ele>1066.199951171875</ele>
        <time>2014-05-19T12:54:58Z</time>
      </trkpt>
      <trkpt lat="44.744967520236969" lon="5.563292428851128">
        <ele>1065.5999755859375</ele>
        <time>2014-05-19T12:54:59Z</time>
      </trkpt>
      <trkpt lat="44.745030552148819" lon="5.563065279275179">
        <ele>1063.800048828125</ele>
        <time>2014-05-19T12:55:01Z</time>
      </trkpt>
      <trkpt lat="44.745091656222939" lon="5.562825556844473">
        <ele>1061.800048828125</ele>
        <time>2014-05-19T12:55:03Z</time>
      </trkpt>
      <trkpt lat="44.745146473869681" lon="5.562578625977039">
        <ele>1060.5999755859375</ele>
        <time>2014-05-19T12:55:05Z</time>
      </trkpt>
      <trkpt lat="44.745157118886709" lon="5.56244719773531">
        <ele>1060.4000244140625</ele>
        <time>2014-05-19T12:55:06Z</time>
      </trkpt>
      <trkpt lat="44.745152173563838" lon="5.562176546081901">
        <ele>1059.5999755859375</ele>
        <time>2014-05-19T12:55:08Z</time>
      </trkpt>
      <trkpt lat="44.745060559362173" lon="5.561776561662555">
        <ele>1058.4000244140625</ele>
        <time>2014-05-19T12:55:11Z</time>
      </trkpt>
      <trkpt lat="44.745008172467351" lon="5.561648067086935">
        <ele>1057</ele>
        <time>2014-05-19T12:55:12Z</time>
      </trkpt>
      <trkpt lat="44.744959808886051" lon="5.561520159244537">
        <ele>1056.5999755859375</ele>
        <time>2014-05-19T12:55:13Z</time>
      </trkpt>
      <trkpt lat="44.744805414229631" lon="5.561115900054574">
        <ele>1056</ele>
        <time>2014-05-19T12:55:16Z</time>
      </trkpt>
      <trkpt lat="44.744696198031306" lon="5.560840722173452">
        <ele>1054.4000244140625</ele>
        <time>2014-05-19T12:55:18Z</time>
      </trkpt>
      <trkpt lat="44.744566865265369" lon="5.560586750507355">
        <ele>1053.199951171875</ele>
        <time>2014-05-19T12:55:20Z</time>
      </trkpt>
      <trkpt lat="44.744500312954187" lon="5.560470325872302">
        <ele>1053</ele>
        <time>2014-05-19T12:55:21Z</time>
      </trkpt>
      <trkpt lat="44.744311133399606" lon="5.559978894889355">
        <ele>1051.800048828125</ele>
        <time>2014-05-19T12:55:25Z</time>
      </trkpt>
      <trkpt lat="44.744303170591593" lon="5.559695335105062">
        <ele>1050.4000244140625</ele>
        <time>2014-05-19T12:55:27Z</time>
      </trkpt>
      <trkpt lat="44.744303254410625" lon="5.559566086158156">
        <ele>1049.800048828125</ele>
        <time>2014-05-19T12:55:28Z</time>
      </trkpt>
      <trkpt lat="44.744300320744514" lon="5.559439938515425">
        <ele>1049.199951171875</ele>
        <time>2014-05-19T12:55:29Z</time>
      </trkpt>
      <trkpt lat="44.744283389300108" lon="5.559315048158169">
        <ele>1048.5999755859375</ele>
        <time>2014-05-19T12:55:30Z</time>
      </trkpt>
      <trkpt lat="44.744231589138508" lon="5.559207424521446">
        <ele>1048.199951171875</ele>
        <time>2014-05-19T12:55:31Z</time>
      </trkpt>
      <trkpt lat="44.744153385981917" lon="5.559133663773537">
        <ele>1048</ele>
        <time>2014-05-19T12:55:32Z</time>
      </trkpt>
      <trkpt lat="44.743866557255387" lon="5.559029895812273">
        <ele>1047.199951171875</ele>
        <time>2014-05-19T12:55:35Z</time>
      </trkpt>
      <trkpt lat="44.743770333006978" lon="5.558993937447667">
        <ele>1046.4000244140625</ele>
        <time>2014-05-19T12:55:36Z</time>
      </trkpt>
      <trkpt lat="44.743677880614996" lon="5.558925541117787">
        <ele>1045.800048828125</ele>
        <time>2014-05-19T12:55:37Z</time>
      </trkpt>
      <trkpt lat="44.743519546464086" lon="5.558722950518131">
        <ele>1044.800048828125</ele>
        <time>2014-05-19T12:55:39Z</time>
      </trkpt>
      <trkpt lat="44.743369845673442" lon="5.558496974408627">
        <ele>1043.4000244140625</ele>
        <time>2014-05-19T12:55:41Z</time>
      </trkpt>
      <trkpt lat="44.743307651951909" lon="5.558364121243358">
        <ele>1042.800048828125</ele>
        <time>2014-05-19T12:55:42Z</time>
      </trkpt>
      <trkpt lat="44.743261886760592" lon="5.558215510100126">
        <ele>1042</ele>
        <time>2014-05-19T12:55:43Z</time>
      </trkpt>
      <trkpt lat="44.743176223710179" lon="5.557922227308154">
        <ele>1040.800048828125</ele>
        <time>2014-05-19T12:55:45Z</time>
      </trkpt>
      <trkpt lat="44.743096679449081" lon="5.557620897889137">
        <ele>1039.199951171875</ele>
        <time>2014-05-19T12:55:47Z</time>
      </trkpt>
      <trkpt lat="44.743056278675795" lon="5.557464575394988">
        <ele>1038</ele>
        <time>2014-05-19T12:55:48Z</time>
      </trkpt>
      <trkpt lat="44.742974974215031" lon="5.557165676727891">
        <ele>1036.800048828125</ele>
        <time>2014-05-19T12:55:50Z</time>
      </trkpt>
      <trkpt lat="44.742801636457443" lon="5.556750101968646">
        <ele>1035.4000244140625</ele>
        <time>2014-05-19T12:55:53Z</time>
      </trkpt>
      <trkpt lat="44.742655456066132" lon="5.556311141699553">
        <ele>1034.4000244140625</ele>
        <time>2014-05-19T12:55:56Z</time>
      </trkpt>
      <trkpt lat="44.742588065564632" lon="5.556004364043474">
        <ele>1033</ele>
        <time>2014-05-19T12:55:58Z</time>
      </trkpt>
      <trkpt lat="44.742534840479493" lon="5.555686689913273">
        <ele>1031.199951171875</ele>
        <time>2014-05-19T12:56:00Z</time>
      </trkpt>
      <trkpt lat="44.74247851409018" lon="5.555189643055201">
        <ele>1030</ele>
        <time>2014-05-19T12:56:03Z</time>
      </trkpt>
      <trkpt lat="44.742461750283837" lon="5.555020999163389">
        <ele>1028.4000244140625</ele>
        <time>2014-05-19T12:56:04Z</time>
      </trkpt>
      <trkpt lat="44.74245797842741" lon="5.554857132956386">
        <ele>1027.4000244140625</ele>
        <time>2014-05-19T12:56:05Z</time>
      </trkpt>
      <trkpt lat="44.742478681728244" lon="5.554540799930692">
        <ele>1026</ele>
        <time>2014-05-19T12:56:07Z</time>
      </trkpt>
      <trkpt lat="44.742497373372316" lon="5.554384561255574">
        <ele>1025.199951171875</ele>
        <time>2014-05-19T12:56:08Z</time>
      </trkpt>
      <trkpt lat="44.742519250139594" lon="5.55422748439014">
        <ele>1024.5999755859375</ele>
        <time>2014-05-19T12:56:09Z</time>
      </trkpt>
      <trkpt lat="44.742562081664801" lon="5.553903942927718">
        <ele>1023.5999755859375</ele>
        <time>2014-05-19T12:56:11Z</time>
      </trkpt>
      <trkpt lat="44.742716895416379" lon="5.553271695971489">
        <ele>1019.7999877929687</ele>
        <time>2014-05-19T12:56:13Z</time>
      </trkpt>
      <trkpt lat="44.742840696126223" lon="5.552786886692047">
        <ele>1018.5999755859375</ele>
        <time>2014-05-19T12:56:18Z</time>
      </trkpt>
      <trkpt lat="44.742883779108524" lon="5.552625954151154">
        <ele>1017.5999755859375</ele>
        <time>2014-05-19T12:56:19Z</time>
      </trkpt>
      <trkpt lat="44.742934573441744" lon="5.552280284464359">
        <ele>1016</ele>
        <time>2014-05-19T12:56:21Z</time>
      </trkpt>
      <trkpt lat="44.742947481572628" lon="5.552114909514785">
        <ele>1015.2000122070312</ele>
        <time>2014-05-19T12:56:22Z</time>
      </trkpt>
      <trkpt lat="44.742952510714531" lon="5.551964286714792">
        <ele>1014.4000244140625</ele>
        <time>2014-05-19T12:56:23Z</time>
      </trkpt>
      <trkpt lat="44.742930633947253" lon="5.551680307835341">
        <ele>1013.5999755859375</ele>
        <time>2014-05-19T12:56:25Z</time>
      </trkpt>
      <trkpt lat="44.74286844022572" lon="5.551415104418993">
        <ele>1013.2000122070312</ele>
        <time>2014-05-19T12:56:27Z</time>
      </trkpt>
      <trkpt lat="44.742828626185656" lon="5.551294991746545">
        <ele>1013</ele>
        <time>2014-05-19T12:56:28Z</time>
      </trkpt>
      <trkpt lat="44.742788644507527" lon="5.551185356453061">
        <ele>1012.4000244140625</ele>
        <time>2014-05-19T12:56:29Z</time>
      </trkpt>
      <trkpt lat="44.742763331159949" lon="5.551082426682115">
        <ele>1011.7999877929687</ele>
        <time>2014-05-19T12:56:30Z</time>
      </trkpt>
      <trkpt lat="44.742748411372304" lon="5.550977233797312">
        <ele>1011.4000244140625</ele>
        <time>2014-05-19T12:56:31Z</time>
      </trkpt>
      <trkpt lat="44.742754530161619" lon="5.550773469731212">
        <ele>1010.7999877929687</ele>
        <time>2014-05-19T12:56:33Z</time>
      </trkpt>
      <trkpt lat="44.742787722498178" lon="5.550585631281138">
        <ele>1009.5999755859375</ele>
        <time>2014-05-19T12:56:35Z</time>
      </trkpt>
      <trkpt lat="44.742812197655439" lon="5.55048312060535">
        <ele>1009</ele>
        <time>2014-05-19T12:56:36Z</time>
      </trkpt>
      <trkpt lat="44.742836505174637" lon="5.550379101186991">
        <ele>1008.4000244140625</ele>
        <time>2014-05-19T12:56:37Z</time>
      </trkpt>
      <trkpt lat="44.742890065535903" lon="5.55017919279635">
        <ele>1006.7999877929687</ele>
        <time>2014-05-19T12:56:39Z</time>
      </trkpt>
      <trkpt lat="44.742944128811359" lon="5.55008246563375">
        <ele>1006.2000122070312</ele>
        <time>2014-05-19T12:56:40Z</time>
      </trkpt>
      <trkpt lat="44.743013447150588" lon="5.549997137859464">
        <ele>1005.4000244140625</ele>
        <time>2014-05-19T12:56:41Z</time>
      </trkpt>
      <trkpt lat="44.743188293650746" lon="5.549897979944944">
        <ele>1004</ele>
        <time>2014-05-19T12:56:43Z</time>
      </trkpt>
      <trkpt lat="44.743268257007003" lon="5.549832098186016">
        <ele>1003.4000244140625</ele>
        <time>2014-05-19T12:56:44Z</time>
      </trkpt>
      <trkpt lat="44.74341276101768" lon="5.549655240029097">
        <ele>1002.2000122070312</ele>
        <time>2014-05-19T12:56:46Z</time>
      </trkpt>
      <trkpt lat="44.743481744080782" lon="5.549552058801055">
        <ele>1001.4000244140625</ele>
        <time>2014-05-19T12:56:47Z</time>
      </trkpt>
      <trkpt lat="44.743552654981613" lon="5.549444267526269">
        <ele>999.79998779296875</ele>
        <time>2014-05-19T12:56:48Z</time>
      </trkpt>
      <trkpt lat="44.743620464578271" lon="5.549334632232785">
        <ele>999</ele>
        <time>2014-05-19T12:56:49Z</time>
      </trkpt>
      <trkpt lat="44.743687687441707" lon="5.549220386892557">
        <ele>998.20001220703125</ele>
        <time>2014-05-19T12:56:50Z</time>
      </trkpt>
      <trkpt lat="44.74375138990581" lon="5.549095747992396">
        <ele>997.5999755859375</ele>
        <time>2014-05-19T12:56:51Z</time>
      </trkpt>
      <trkpt lat="44.743807883933187" lon="5.548963733017445">
        <ele>997</ele>
        <time>2014-05-19T12:56:52Z</time>
      </trkpt>
      <trkpt lat="44.743867814540863" lon="5.548836076632142">
        <ele>996.5999755859375</ele>
        <time>2014-05-19T12:56:53Z</time>
      </trkpt>
      <trkpt lat="44.743934450671077" lon="5.548718478530645">
        <ele>995.79998779296875</ele>
        <time>2014-05-19T12:56:54Z</time>
      </trkpt>
      <trkpt lat="44.744030758738518" lon="5.548629127442837">
        <ele>994.79998779296875</ele>
        <time>2014-05-19T12:56:55Z</time>
      </trkpt>
      <trkpt lat="44.744126815348864" lon="5.548552181571722">
        <ele>994</ele>
        <time>2014-05-19T12:56:56Z</time>
      </trkpt>
      <trkpt lat="44.744220608845353" lon="5.548457633703947">
        <ele>993</ele>
        <time>2014-05-19T12:56:57Z</time>
      </trkpt>
      <trkpt lat="44.744313145056367" lon="5.548360655084252">
        <ele>992.4000244140625</ele>
        <time>2014-05-19T12:56:58Z</time>
      </trkpt>
      <trkpt lat="44.744494026526809" lon="5.548163847997785">
        <ele>991.20001220703125</ele>
        <time>2014-05-19T12:57:00Z</time>
      </trkpt>
      <trkpt lat="44.74466753192246" lon="5.547940973192453">
        <ele>989.79998779296875</ele>
        <time>2014-05-19T12:57:02Z</time>
      </trkpt>
      <trkpt lat="44.744763001799583" lon="5.547838294878602">
        <ele>988.79998779296875</ele>
        <time>2014-05-19T12:57:03Z</time>
      </trkpt>
      <trkpt lat="44.744962742552161" lon="5.54764861240983">
        <ele>987.20001220703125</ele>
        <time>2014-05-19T12:57:05Z</time>
      </trkpt>
      <trkpt lat="44.745057793334126" lon="5.547541407868266">
        <ele>986.4000244140625</ele>
        <time>2014-05-19T12:57:06Z</time>
      </trkpt>
      <trkpt lat="44.745145048946142" lon="5.54742137901485">
        <ele>985</ele>
        <time>2014-05-19T12:57:07Z</time>
      </trkpt>
      <trkpt lat="44.745229119434953" lon="5.547295147553086">
        <ele>984</ele>
        <time>2014-05-19T12:57:08Z</time>
      </trkpt>
      <trkpt lat="44.745399188250303" lon="5.547051150351763">
        <ele>982.4000244140625</ele>
        <time>2014-05-19T12:57:10Z</time>
      </trkpt>
      <trkpt lat="44.745567413046956" lon="5.546793155372143">
        <ele>980.4000244140625</ele>
        <time>2014-05-19T12:57:12Z</time>
      </trkpt>
      <trkpt lat="44.745647544041276" lon="5.546657955273986">
        <ele>979.5999755859375</ele>
        <time>2014-05-19T12:57:13Z</time>
      </trkpt>
      <trkpt lat="44.74572591483593" lon="5.546523006632924">
        <ele>979</ele>
        <time>2014-05-19T12:57:14Z</time>
      </trkpt>
      <trkpt lat="44.74588131532073" lon="5.546252941712737">
        <ele>978</ele>
        <time>2014-05-19T12:57:16Z</time>
      </trkpt>
      <trkpt lat="44.746007295325398" lon="5.546038448810577">
        <ele>977.79998779296875</ele>
        <time>2014-05-19T12:57:18Z</time>
      </trkpt>
      <trkpt lat="44.74616227671504" lon="5.545869721099734">
        <ele>976</ele>
        <time>2014-05-19T12:57:20Z</time>
      </trkpt>
      <trkpt lat="44.746252465993166" lon="5.545778106898069">
        <ele>975</ele>
        <time>2014-05-19T12:57:21Z</time>
      </trkpt>
      <trkpt lat="44.746341733261943" lon="5.545674590393901">
        <ele>974.20001220703125</ele>
        <time>2014-05-19T12:57:22Z</time>
      </trkpt>
      <trkpt lat="44.746430749073625" lon="5.545559842139483">
        <ele>973.4000244140625</ele>
        <time>2014-05-19T12:57:23Z</time>
      </trkpt>
      <trkpt lat="44.746515154838562" lon="5.545440400019288">
        <ele>972.20001220703125</ele>
        <time>2014-05-19T12:57:24Z</time>
      </trkpt>
      <trkpt lat="44.746583383530378" lon="5.545320454984903">
        <ele>971.4000244140625</ele>
        <time>2014-05-19T12:57:25Z</time>
      </trkpt>
      <trkpt lat="44.746639290824533" lon="5.545193301513791">
        <ele>971</ele>
        <time>2014-05-19T12:57:26Z</time>
      </trkpt>
      <trkpt lat="44.746683798730373" lon="5.545067070052028">
        <ele>970.79998779296875</ele>
        <time>2014-05-19T12:57:27Z</time>
      </trkpt>
      <trkpt lat="44.746741885319352" lon="5.544838411733508">
        <ele>970.4000244140625</ele>
        <time>2014-05-19T12:57:29Z</time>
      </trkpt>
      <trkpt lat="44.746739203110337" lon="5.544730704277754">
        <ele>970.5999755859375</ele>
        <time>2014-05-19T12:57:30Z</time>
      </trkpt>
      <trkpt lat="44.746709782630205" lon="5.54462349973619">
        <ele>970.4000244140625</ele>
        <time>2014-05-19T12:57:31Z</time>
      </trkpt>
      <trkpt lat="44.746611211448908" lon="5.54446080699563">
        <ele>969.5999755859375</ele>
        <time>2014-05-19T12:57:33Z</time>
      </trkpt>
      <trkpt lat="44.746559746563435" lon="5.544385369867086">
        <ele>969.20001220703125</ele>
        <time>2014-05-19T12:57:34Z</time>
      </trkpt>
      <trkpt lat="44.746508868411183" lon="5.544309010729194">
        <ele>969</ele>
        <time>2014-05-19T12:57:35Z</time>
      </trkpt>
      <trkpt lat="44.746394287794828" lon="5.544168530032039">
        <ele>968.79998779296875</ele>
        <time>2014-05-19T12:57:37Z</time>
      </trkpt>
      <trkpt lat="44.746253388002515" lon="5.54409091360867">
        <ele>968.79998779296875</ele>
        <time>2014-05-19T12:57:39Z</time>
      </trkpt>
      <trkpt lat="44.746097819879651" lon="5.544062834233046">
        <ele>968</ele>
        <time>2014-05-19T12:57:41Z</time>
      </trkpt>
      <trkpt lat="44.746023220941424" lon="5.544032072648406">
        <ele>967.5999755859375</ele>
        <time>2014-05-19T12:57:42Z</time>
      </trkpt>
      <trkpt lat="44.745950633659959" lon="5.543982787057757">
        <ele>967.4000244140625</ele>
        <time>2014-05-19T12:57:43Z</time>
      </trkpt>
      <trkpt lat="44.745879722759128" lon="5.543923275545239">
        <ele>966.79998779296875</ele>
        <time>2014-05-19T12:57:44Z</time>
      </trkpt>
      <trkpt lat="44.745729267597198" lon="5.543816322460771">
        <ele>965.79998779296875</ele>
        <time>2014-05-19T12:57:46Z</time>
      </trkpt>
      <trkpt lat="44.745647460222244" lon="5.543782878667116">
        <ele>965.4000244140625</ele>
        <time>2014-05-19T12:57:47Z</time>
      </trkpt>
      <trkpt lat="44.745474038645625" lon="5.543751027435064">
        <ele>965</ele>
        <time>2014-05-19T12:57:49Z</time>
      </trkpt>
      <trkpt lat="44.74538485519588" lon="5.543742226436734">
        <ele>964.4000244140625</ele>
        <time>2014-05-19T12:57:50Z</time>
      </trkpt>
      <trkpt lat="44.745288966223598" lon="5.543761840090156">
        <ele>963.79998779296875</ele>
        <time>2014-05-19T12:57:51Z</time>
      </trkpt>
      <trkpt lat="44.745192574337125" lon="5.543801486492157">
        <ele>963.20001220703125</ele>
        <time>2014-05-19T12:57:52Z</time>
      </trkpt>
      <trkpt lat="44.745001802220941" lon="5.543857142329216">
        <ele>961.5999755859375</ele>
        <time>2014-05-19T12:57:54Z</time>
      </trkpt>
      <trkpt lat="44.744824944064021" lon="5.543920760974288">
        <ele>960.4000244140625</ele>
        <time>2014-05-19T12:57:56Z</time>
      </trkpt>
      <trkpt lat="44.744748082011938" lon="5.543976668268442">
        <ele>960</ele>
        <time>2014-05-19T12:57:57Z</time>
      </trkpt>
      <trkpt lat="44.744592513889074" lon="5.544118909165263">
        <ele>958.5999755859375</ele>
        <time>2014-05-19T12:57:59Z</time>
      </trkpt>
      <trkpt lat="44.744500396773219" lon="5.544184036552906">
        <ele>956.79998779296875</ele>
        <time>2014-05-19T12:58:00Z</time>
      </trkpt>
      <trkpt lat="44.74440224468708" lon="5.54423013702035">
        <ele>956.20001220703125</ele>
        <time>2014-05-19T12:58:01Z</time>
      </trkpt>
      <trkpt lat="44.744299566373229" lon="5.544261652976275">
        <ele>955.4000244140625</ele>
        <time>2014-05-19T12:58:02Z</time>
      </trkpt>
      <trkpt lat="44.744089599698782" lon="5.544246817007661">
        <ele>953.79998779296875</ele>
        <time>2014-05-19T12:58:04Z</time>
      </trkpt>
      <trkpt lat="44.743889020755887" lon="5.544144557788968">
        <ele>952.20001220703125</ele>
        <time>2014-05-19T12:58:06Z</time>
      </trkpt>
      <trkpt lat="44.743792209774256" lon="5.544091584160924">
        <ele>951.5999755859375</ele>
        <time>2014-05-19T12:58:07Z</time>
      </trkpt>
      <trkpt lat="44.74369129166007" lon="5.54405914619565">
        <ele>951</ele>
        <time>2014-05-19T12:58:08Z</time>
      </trkpt>
      <trkpt lat="44.743478307500482" lon="5.544054703786969">
        <ele>949.5999755859375</ele>
        <time>2014-05-19T12:58:10Z</time>
      </trkpt>
      <trkpt lat="44.743150239810348" lon="5.544148413464427">
        <ele>948.5999755859375</ele>
        <time>2014-05-19T12:58:13Z</time>
      </trkpt>
      <trkpt lat="44.74303943105042" lon="5.544176325201988">
        <ele>947.79998779296875</ele>
        <time>2014-05-19T12:58:14Z</time>
      </trkpt>
      <trkpt lat="44.742932226508856" lon="5.544208846986294">
        <ele>947</ele>
        <time>2014-05-19T12:58:15Z</time>
      </trkpt>
      <trkpt lat="44.742726283147931" lon="5.544267017394304">
        <ele>945.4000244140625</ele>
        <time>2014-05-19T12:58:17Z</time>
      </trkpt>
      <trkpt lat="44.742633495479822" lon="5.544276405125856">
        <ele>945</ele>
        <time>2014-05-19T12:58:18Z</time>
      </trkpt>
      <trkpt lat="44.742453368380666" lon="5.544268693774939">
        <ele>944.20001220703125</ele>
        <time>2014-05-19T12:58:20Z</time>
      </trkpt>
      <trkpt lat="44.742360161617398" lon="5.544269364327192">
        <ele>943.79998779296875</ele>
        <time>2014-05-19T12:58:21Z</time>
      </trkpt>
      <trkpt lat="44.742266703397036" lon="5.544282272458077">
        <ele>943.20001220703125</ele>
        <time>2014-05-19T12:58:22Z</time>
      </trkpt>
      <trkpt lat="44.742173412814736" lon="5.544311860576272">
        <ele>943</ele>
        <time>2014-05-19T12:58:23Z</time>
      </trkpt>
      <trkpt lat="44.742007786408067" lon="5.544429291039705">
        <ele>942.4000244140625</ele>
        <time>2014-05-19T12:58:25Z</time>
      </trkpt>
      <trkpt lat="44.741936456412077" lon="5.544507158920169">
        <ele>942.4000244140625</ele>
        <time>2014-05-19T12:58:26Z</time>
      </trkpt>
      <trkpt lat="44.741863952949643" lon="5.544576141983271">
        <ele>942.20001220703125</ele>
        <time>2014-05-19T12:58:27Z</time>
      </trkpt>
      <trkpt lat="44.741786168888211" lon="5.544624337926507">
        <ele>941.79998779296875</ele>
        <time>2014-05-19T12:58:28Z</time>
      </trkpt>
      <trkpt lat="44.741705534979701" lon="5.544642442837358">
        <ele>941.5999755859375</ele>
        <time>2014-05-19T12:58:29Z</time>
      </trkpt>
      <trkpt lat="44.741625487804413" lon="5.544617716223002">
        <ele>940.79998779296875</ele>
        <time>2014-05-19T12:58:30Z</time>
      </trkpt>
      <trkpt lat="44.741546530276537" lon="5.544563066214323">
        <ele>940</ele>
        <time>2014-05-19T12:58:31Z</time>
      </trkpt>
      <trkpt lat="44.741464890539646" lon="5.544506320729852">
        <ele>939.4000244140625</ele>
        <time>2014-05-19T12:58:32Z</time>
      </trkpt>
      <trkpt lat="44.741377467289567" lon="5.54446323774755">
        <ele>938.5999755859375</ele>
        <time>2014-05-19T12:58:33Z</time>
      </trkpt>
      <trkpt lat="44.741287529468536" lon="5.544436415657401">
        <ele>938</ele>
        <time>2014-05-19T12:58:34Z</time>
      </trkpt>
      <trkpt lat="44.741196082904935" lon="5.544427447021008">
        <ele>937.20001220703125</ele>
        <time>2014-05-19T12:58:35Z</time>
      </trkpt>
      <trkpt lat="44.741103714331985" lon="5.544436667114496">
        <ele>936.5999755859375</ele>
        <time>2014-05-19T12:58:36Z</time>
      </trkpt>
      <trkpt lat="44.740916965529323" lon="5.544507494196296">
        <ele>935.79998779296875</ele>
        <time>2014-05-19T12:58:38Z</time>
      </trkpt>
      <trkpt lat="44.740825099870563" lon="5.544560048729181">
        <ele>935.20001220703125</ele>
        <time>2014-05-19T12:58:39Z</time>
      </trkpt>
      <trkpt lat="44.740641117095947" lon="5.544692482799292">
        <ele>933.5999755859375</ele>
        <time>2014-05-19T12:58:41Z</time>
      </trkpt>
      <trkpt lat="44.740548497065902" lon="5.544762723147869">
        <ele>933</ele>
        <time>2014-05-19T12:58:42Z</time>
      </trkpt>
      <trkpt lat="44.740454452112317" lon="5.544833466410637">
        <ele>932.20001220703125</ele>
        <time>2014-05-19T12:58:43Z</time>
      </trkpt>
      <trkpt lat="44.740257225930691" lon="5.544953998178244">
        <ele>931.4000244140625</ele>
        <time>2014-05-19T12:58:45Z</time>
      </trkpt>
      <trkpt lat="44.740154715254903" lon="5.544998003169894">
        <ele>930.79998779296875</ele>
        <time>2014-05-19T12:58:46Z</time>
      </trkpt>
      <trkpt lat="44.740053378045559" lon="5.545030944049358">
        <ele>930.20001220703125</ele>
        <time>2014-05-19T12:58:47Z</time>
      </trkpt>
      <trkpt lat="44.739958327263594" lon="5.545057849958539">
        <ele>929.5999755859375</ele>
        <time>2014-05-19T12:58:48Z</time>
      </trkpt>
      <trkpt lat="44.739792449399829" lon="5.545085929334164">
        <ele>929.5999755859375</ele>
        <time>2014-05-19T12:58:50Z</time>
      </trkpt>
      <trkpt lat="44.739598408341408" lon="5.545072434470058">
        <ele>930</ele>
        <time>2014-05-19T12:58:53Z</time>
      </trkpt>
      <trkpt lat="44.739501513540745" lon="5.545206880196929">
        <ele>929.79998779296875</ele>
        <time>2014-05-19T12:58:56Z</time>
      </trkpt>
      <trkpt lat="44.739488773047924" lon="5.545278796926141">
        <ele>929.79998779296875</ele>
        <time>2014-05-19T12:58:57Z</time>
      </trkpt>
      <trkpt lat="44.739477457478642" lon="5.545428330078721">
        <ele>929.79998779296875</ele>
        <time>2014-05-19T12:59:00Z</time>
      </trkpt>
      <trkpt lat="44.739634618163109" lon="5.54531391710043">
        <ele>929</ele>
        <time>2014-05-19T13:00:05Z</time>
      </trkpt>
      <trkpt lat="44.739661021158099" lon="5.54529681801796">
        <ele>929</ele>
        <time>2014-05-19T13:00:06Z</time>
      </trkpt>
      <trkpt lat="44.739720951765776" lon="5.545263709500432">
        <ele>928.4000244140625</ele>
        <time>2014-05-19T13:00:08Z</time>
      </trkpt>
      <trkpt lat="44.739752467721701" lon="5.545257842168212">
        <ele>927.79998779296875</ele>
        <time>2014-05-19T13:00:09Z</time>
      </trkpt>
      <trkpt lat="44.739782558754086" lon="5.545262703672051">
        <ele>927.4000244140625</ele>
        <time>2014-05-19T13:00:10Z</time>
      </trkpt>
      <trkpt lat="44.739809297025204" lon="5.545281311497092">
        <ele>927</ele>
        <time>2014-05-19T13:00:11Z</time>
      </trkpt>
      <trkpt lat="44.7398423217237" lon="5.545343505218625">
        <ele>926.4000244140625</ele>
        <time>2014-05-19T13:00:13Z</time>
      </trkpt>
      <trkpt lat="44.73985455930233" lon="5.545373428612948">
        <ele>926</ele>
        <time>2014-05-19T13:00:14Z</time>
      </trkpt>
      <trkpt lat="44.739863527938724" lon="5.545407123863697">
        <ele>925.20001220703125</ele>
        <time>2014-05-19T13:00:15Z</time>
      </trkpt>
      <trkpt lat="44.739864533767104" lon="5.545450458303094">
        <ele>924.5999755859375</ele>
        <time>2014-05-19T13:00:16Z</time>
      </trkpt>
      <trkpt lat="44.739856570959091" lon="5.545501336455345">
        <ele>924</ele>
        <time>2014-05-19T13:00:17Z</time>
      </trkpt>
      <trkpt lat="44.739816170185804" lon="5.545624298974872">
        <ele>923</ele>
        <time>2014-05-19T13:00:19Z</time>
      </trkpt>
      <trkpt lat="44.739786749705672" lon="5.545692108571529">
        <ele>922.5999755859375</ele>
        <time>2014-05-19T13:00:20Z</time>
      </trkpt>
      <trkpt lat="44.73973335698247" lon="5.54578791372478">
        <ele>921.5999755859375</ele>
        <time>2014-05-19T13:00:21Z</time>
      </trkpt>
      <trkpt lat="44.739609137177467" lon="5.546008441597223">
        <ele>920.4000244140625</ele>
        <time>2014-05-19T13:00:23Z</time>
      </trkpt>
      <trkpt lat="44.739488856866956" lon="5.54624916985631">
        <ele>918.79998779296875</ele>
        <time>2014-05-19T13:00:25Z</time>
      </trkpt>
      <trkpt lat="44.739431608468294" lon="5.546381268650293">
        <ele>918.20001220703125</ele>
        <time>2014-05-19T13:00:26Z</time>
      </trkpt>
      <trkpt lat="44.739378718659282" lon="5.546525605022907">
        <ele>917.79998779296875</ele>
        <time>2014-05-19T13:00:27Z</time>
      </trkpt>
      <trkpt lat="44.739332450553775" lon="5.54668553173542">
        <ele>917.20001220703125</ele>
        <time>2014-05-19T13:00:28Z</time>
      </trkpt>
      <trkpt lat="44.739291127771139" lon="5.546858282759786">
        <ele>916.79998779296875</ele>
        <time>2014-05-19T13:00:29Z</time>
      </trkpt>
      <trkpt lat="44.739251397550106" lon="5.547039499506354">
        <ele>916.4000244140625</ele>
        <time>2014-05-19T13:00:30Z</time>
      </trkpt>
      <trkpt lat="44.739136900752783" lon="5.547607289627194">
        <ele>914.5999755859375</ele>
        <time>2014-05-19T13:00:33Z</time>
      </trkpt>
      <trkpt lat="44.739104127511382" lon="5.547782219946384">
        <ele>914</ele>
        <time>2014-05-19T13:00:34Z</time>
      </trkpt>
      <trkpt lat="44.739052662625909" lon="5.547961257398129">
        <ele>913.20001220703125</ele>
        <time>2014-05-19T13:00:35Z</time>
      </trkpt>
      <trkpt lat="44.738985020667315" lon="5.548147922381759">
        <ele>912.5999755859375</ele>
        <time>2014-05-19T13:00:36Z</time>
      </trkpt>
      <trkpt lat="44.738904973492026" lon="5.548340789973736">
        <ele>911.79998779296875</ele>
        <time>2014-05-19T13:00:37Z</time>
      </trkpt>
      <trkpt lat="44.738728031516075" lon="5.548700792714953">
        <ele>910.5999755859375</ele>
        <time>2014-05-19T13:00:39Z</time>
      </trkpt>
      <trkpt lat="44.738627197220922" lon="5.548871196806431">
        <ele>909.79998779296875</ele>
        <time>2014-05-19T13:00:40Z</time>
      </trkpt>
      <trkpt lat="44.738521249964833" lon="5.54903581738472">
        <ele>908.79998779296875</ele>
        <time>2014-05-19T13:00:41Z</time>
      </trkpt>
      <trkpt lat="44.738403568044305" lon="5.54921074770391">
        <ele>907.5999755859375</ele>
        <time>2014-05-19T13:00:42Z</time>
      </trkpt>
      <trkpt lat="44.738274151459336" lon="5.549390623345971">
        <ele>906.5999755859375</ele>
        <time>2014-05-19T13:00:43Z</time>
      </trkpt>
      <trkpt lat="44.738119505345821" lon="5.549595057964325">
        <ele>906.4000244140625</ele>
        <time>2014-05-19T13:00:44Z</time>
      </trkpt>
      <trkpt lat="44.737945999950171" lon="5.549819022417069">
        <ele>906.79998779296875</ele>
        <time>2014-05-19T13:00:45Z</time>
      </trkpt>
      <trkpt lat="44.737550541758537" lon="5.550336018204689">
        <ele>907.20001220703125</ele>
        <time>2014-05-19T13:00:47Z</time>
      </trkpt>
      <trkpt lat="44.737327247858047" lon="5.550645058974624">
        <ele>907.4000244140625</ele>
        <time>2014-05-19T13:00:48Z</time>
      </trkpt>
      <trkpt lat="44.737080149352551" lon="5.550983855500817">
        <ele>907.20001220703125</ele>
        <time>2014-05-19T13:00:49Z</time>
      </trkpt>
      <trkpt lat="44.736525770276785" lon="5.551727917045355">
        <ele>906.5999755859375</ele>
        <time>2014-05-19T13:00:51Z</time>
      </trkpt>
      <trkpt lat="44.736226201057434" lon="5.552120357751846">
        <ele>906.20001220703125</ele>
        <time>2014-05-19T13:00:52Z</time>
      </trkpt>
      <trkpt lat="44.735590936616063" lon="5.552941029891372">
        <ele>905.5999755859375</ele>
        <time>2014-05-19T13:00:54Z</time>
      </trkpt>
      <trkpt lat="44.735255409032106" lon="5.553375128656626">
        <ele>905.5999755859375</ele>
        <time>2014-05-19T13:00:55Z</time>
      </trkpt>
      <trkpt lat="44.734901189804077" lon="5.553829343989492">
        <ele>905.20001220703125</ele>
        <time>2014-05-19T13:00:56Z</time>
      </trkpt>
      <trkpt lat="44.734168108552694" lon="5.554754035547376">
        <ele>904.4000244140625</ele>
        <time>2014-05-19T13:00:58Z</time>
      </trkpt>
      <trkpt lat="44.733770973980427" lon="5.555246388539672">
        <ele>904</ele>
        <time>2014-05-19T13:00:59Z</time>
      </trkpt>
      <trkpt lat="44.732939237728715" lon="5.556231597438455">
        <ele>902.79998779296875</ele>
        <time>2014-05-19T13:01:01Z</time>
      </trkpt>
      <trkpt lat="44.732498014345765" lon="5.556726381182671">
        <ele>902.20001220703125</ele>
        <time>2014-05-19T13:01:02Z</time>
      </trkpt>
      <trkpt lat="44.732043882831931" lon="5.557239856570959">
        <ele>901.79998779296875</ele>
        <time>2014-05-19T13:01:03Z</time>
      </trkpt>
      <trkpt lat="44.731570389121771" lon="5.557762552052736">
        <ele>901.20001220703125</ele>
        <time>2014-05-19T13:01:04Z</time>
      </trkpt>
      <trkpt lat="44.731065966188908" lon="5.558274602517486">
        <ele>900.5999755859375</ele>
        <time>2014-05-19T13:01:05Z</time>
      </trkpt>
      <trkpt lat="44.730524914339185" lon="5.558787491172552">
        <ele>899.79998779296875</ele>
        <time>2014-05-19T13:01:06Z</time>
      </trkpt>
      <trkpt lat="44.729972295463085" lon="5.559267187491059">
        <ele>899</ele>
        <time>2014-05-19T13:01:07Z</time>
      </trkpt>
      <trkpt lat="44.729423280805349" lon="5.559716960415244">
        <ele>898.20001220703125</ele>
        <time>2014-05-19T13:01:08Z</time>
      </trkpt>
      <trkpt lat="44.728866973891854" lon="5.560185089707375">
        <ele>897.5999755859375</ele>
        <time>2014-05-19T13:01:09Z</time>
      </trkpt>
      <trkpt lat="44.72830287180841" lon="5.560694960877299">
        <ele>897.4000244140625</ele>
        <time>2014-05-19T13:01:10Z</time>
      </trkpt>
      <trkpt lat="44.727736841887236" lon="5.561230564489961">
        <ele>897.4000244140625</ele>
        <time>2014-05-19T13:01:11Z</time>
      </trkpt>
      <trkpt lat="44.727161759510636" lon="5.561778573319316">
        <ele>897.20001220703125</ele>
        <time>2014-05-19T13:01:12Z</time>
      </trkpt>
      <trkpt lat="44.726579301059246" lon="5.562327923253179">
        <ele>896.5999755859375</ele>
        <time>2014-05-19T13:01:13Z</time>
      </trkpt>
      <trkpt lat="44.726039757952094" lon="5.562821282073855">
        <ele>895.79998779296875</ele>
        <time>2014-05-19T13:01:14Z</time>
      </trkpt>
      <trkpt lat="44.725513625890017" lon="5.563299553468823">
        <ele>895.20001220703125</ele>
        <time>2014-05-19T13:01:15Z</time>
      </trkpt>
      <trkpt lat="44.725014567375183" lon="5.56374303996563">
        <ele>894.79998779296875</ele>
        <time>2014-05-19T13:01:16Z</time>
      </trkpt>
      <trkpt lat="44.724523220211267" lon="5.564166996628046">
        <ele>894.4000244140625</ele>
        <time>2014-05-19T13:01:17Z</time>
      </trkpt>
      <trkpt lat="44.724031705409288" lon="5.564582487568259">
        <ele>894</ele>
        <time>2014-05-19T13:01:18Z</time>
      </trkpt>
      <trkpt lat="44.723556451499462" lon="5.56498758494854">
        <ele>893.79998779296875</ele>
        <time>2014-05-19T13:01:19Z</time>
      </trkpt>
      <trkpt lat="44.723062673583627" lon="5.565433921292424">
        <ele>893.4000244140625</ele>
        <time>2014-05-19T13:01:20Z</time>
      </trkpt>
      <trkpt lat="44.722574008628726" lon="5.565894339233637">
        <ele>893.4000244140625</ele>
        <time>2014-05-19T13:01:21Z</time>
      </trkpt>
      <trkpt lat="44.722052654251456" lon="5.566397840157151">
        <ele>893.20001220703125</ele>
        <time>2014-05-19T13:01:22Z</time>
      </trkpt>
      <trkpt lat="44.72151730209589" lon="5.566911231726408">
        <ele>892.79998779296875</ele>
        <time>2014-05-19T13:01:23Z</time>
      </trkpt>
      <trkpt lat="44.720973568037152" lon="5.567424958571792">
        <ele>892.4000244140625</ele>
        <time>2014-05-19T13:01:24Z</time>
      </trkpt>
      <trkpt lat="44.720432600006461" lon="5.567924855276942">
        <ele>891.79998779296875</ele>
        <time>2014-05-19T13:01:25Z</time>
      </trkpt>
      <trkpt lat="44.719897080212831" lon="5.568420728668571">
        <ele>891.4000244140625</ele>
        <time>2014-05-19T13:01:26Z</time>
      </trkpt>
      <trkpt lat="44.719356196001172" lon="5.568936970084906">
        <ele>891</ele>
        <time>2014-05-19T13:01:27Z</time>
      </trkpt>
      <trkpt lat="44.718798128888011" lon="5.569490343332291">
        <ele>890.20001220703125</ele>
        <time>2014-05-19T13:01:28Z</time>
      </trkpt>
      <trkpt lat="44.718246180564165" lon="5.570037262514234">
        <ele>889</ele>
        <time>2014-05-19T13:01:29Z</time>
      </trkpt>
      <trkpt lat="44.717696076259017" lon="5.570574374869466">
        <ele>888.5999755859375</ele>
        <time>2014-05-19T13:01:30Z</time>
      </trkpt>
      <trkpt lat="44.717131722718477" lon="5.571111990138888">
        <ele>888.20001220703125</ele>
        <time>2014-05-19T13:01:31Z</time>
      </trkpt>
      <trkpt lat="44.71658849157393" lon="5.571617670357227">
        <ele>888.20001220703125</ele>
        <time>2014-05-19T13:01:32Z</time>
      </trkpt>
      <trkpt lat="44.71606076695025" lon="5.572108766064048">
        <ele>886.4000244140625</ele>
        <time>2014-05-19T13:01:33Z</time>
      </trkpt>
      <trkpt lat="44.715536395087838" lon="5.572602627798915">
        <ele>885.5999755859375</ele>
        <time>2014-05-19T13:01:34Z</time>
      </trkpt>
      <trkpt lat="44.714999450370669" lon="5.573115851730108">
        <ele>885.4000244140625</ele>
        <time>2014-05-19T13:01:35Z</time>
      </trkpt>
      <trkpt lat="44.714429061859846" lon="5.573675846680999">
        <ele>885.5999755859375</ele>
        <time>2014-05-19T13:01:36Z</time>
      </trkpt>
      <trkpt lat="44.713812740519643" lon="5.574284875765443">
        <ele>885</ele>
        <time>2014-05-19T13:01:37Z</time>
      </trkpt>
      <trkpt lat="44.713169597089291" lon="5.574901448562741">
        <ele>884.20001220703125</ele>
        <time>2014-05-19T13:01:38Z</time>
      </trkpt>
      <trkpt lat="44.712558640167117" lon="5.575455827638507">
        <ele>883.4000244140625</ele>
        <time>2014-05-19T13:01:39Z</time>
      </trkpt>
      <trkpt lat="44.711967380717397" lon="5.575973158702254">
        <ele>882.79998779296875</ele>
        <time>2014-05-19T13:01:40Z</time>
      </trkpt>
      <trkpt lat="44.711368326097727" lon="5.576488561928272">
        <ele>882.4000244140625</ele>
        <time>2014-05-19T13:01:41Z</time>
      </trkpt>
      <trkpt lat="44.710767259821296" lon="5.576996169984341">
        <ele>881.79998779296875</ele>
        <time>2014-05-19T13:01:42Z</time>
      </trkpt>
      <trkpt lat="44.71016057766974" lon="5.577498581260443">
        <ele>880.79998779296875</ele>
        <time>2014-05-19T13:01:43Z</time>
      </trkpt>
      <trkpt lat="44.709559846669436" lon="5.577988419681788">
        <ele>880</ele>
        <time>2014-05-19T13:01:44Z</time>
      </trkpt>
      <trkpt lat="44.708962384611368" lon="5.578469624742866">
        <ele>879.4000244140625</ele>
        <time>2014-05-19T13:01:45Z</time>
      </trkpt>
      <trkpt lat="44.708350338041782" lon="5.57897069491446">
        <ele>879.4000244140625</ele>
        <time>2014-05-19T13:01:46Z</time>
      </trkpt>
      <trkpt lat="44.707750026136637" lon="5.579472435638309">
        <ele>879</ele>
        <time>2014-05-19T13:01:47Z</time>
      </trkpt>
      <trkpt lat="44.707130016759038" lon="5.580012733116746">
        <ele>878.4000244140625</ele>
        <time>2014-05-19T13:01:48Z</time>
      </trkpt>
      <trkpt lat="44.706509755924344" lon="5.580569626763463">
        <ele>877.79998779296875</ele>
        <time>2014-05-19T13:01:49Z</time>
      </trkpt>
      <trkpt lat="44.705872563645244" lon="5.581145044416189">
        <ele>877</ele>
        <time>2014-05-19T13:01:50Z</time>
      </trkpt>
      <trkpt lat="44.705234030261636" lon="5.581715181469917">
        <ele>876.4000244140625</ele>
        <time>2014-05-19T13:01:51Z</time>
      </trkpt>
      <trkpt lat="44.704596167430282" lon="5.582277774810791">
        <ele>875.79998779296875</ele>
        <time>2014-05-19T13:01:52Z</time>
      </trkpt>
      <trkpt lat="44.703958975151181" lon="5.582828130573034">
        <ele>875.20001220703125</ele>
        <time>2014-05-19T13:01:53Z</time>
      </trkpt>
      <trkpt lat="44.703297223895788" lon="5.583389801904559">
        <ele>874.4000244140625</ele>
        <time>2014-05-19T13:01:54Z</time>
      </trkpt>
      <trkpt lat="44.702639663591981" lon="5.583937810733914">
        <ele>873.79998779296875</ele>
        <time>2014-05-19T13:01:55Z</time>
      </trkpt>
      <trkpt lat="44.701944049447775" lon="5.584515323862433">
        <ele>873.20001220703125</ele>
        <time>2014-05-19T13:01:56Z</time>
      </trkpt>
      <trkpt lat="44.701279448345304" lon="5.585059309378266">
        <ele>872.4000244140625</ele>
        <time>2014-05-19T13:01:57Z</time>
      </trkpt>
      <trkpt lat="44.700603196397424" lon="5.585605558007956">
        <ele>872</ele>
        <time>2014-05-19T13:01:58Z</time>
      </trkpt>
      <trkpt lat="44.699929961934686" lon="5.586133869364858">
        <ele>871.4000244140625</ele>
        <time>2014-05-19T13:01:59Z</time>
      </trkpt>
      <trkpt lat="44.699243484064937" lon="5.58666167780757">
        <ele>870.4000244140625</ele>
        <time>2014-05-19T13:02:00Z</time>
      </trkpt>
      <trkpt lat="44.69854049384594" lon="5.587194012477994">
        <ele>870.20001220703125</ele>
        <time>2014-05-19T13:02:01Z</time>
      </trkpt>
      <trkpt lat="44.697863319888711" lon="5.587697681039572">
        <ele>869.5999755859375</ele>
        <time>2014-05-19T13:02:02Z</time>
      </trkpt>
      <trkpt lat="44.697184385731816" lon="5.588203864172101">
        <ele>869.4000244140625</ele>
        <time>2014-05-19T13:02:03Z</time>
      </trkpt>
      <trkpt lat="44.696491453796625" lon="5.588730163872242">
        <ele>869.20001220703125</ele>
        <time>2014-05-19T13:02:04Z</time>
      </trkpt>
      <trkpt lat="44.695767089724541" lon="5.589302312582731">
        <ele>869.20001220703125</ele>
        <time>2014-05-19T13:02:05Z</time>
      </trkpt>
      <trkpt lat="44.69501749612391" lon="5.589921064674854">
        <ele>869.20001220703125</ele>
        <time>2014-05-19T13:02:06Z</time>
      </trkpt>
      <trkpt lat="44.694271758198738" lon="5.590556832030416">
        <ele>869</ele>
        <time>2014-05-19T13:02:07Z</time>
      </trkpt>
      <trkpt lat="44.693524511530995" lon="5.591203831136227">
        <ele>868.79998779296875</ele>
        <time>2014-05-19T13:02:08Z</time>
      </trkpt>
      <trkpt lat="44.69275027513504" lon="5.591880921274424">
        <ele>868.4000244140625</ele>
        <time>2014-05-19T13:02:09Z</time>
      </trkpt>
      <trkpt lat="44.691998502239585" lon="5.592541415244341">
        <ele>868.20001220703125</ele>
        <time>2014-05-19T13:02:10Z</time>
      </trkpt>
      <trkpt lat="44.691264079883695" lon="5.593189587816596">
        <ele>868.20001220703125</ele>
        <time>2014-05-19T13:02:11Z</time>
      </trkpt>
      <trkpt lat="44.690531166270375" lon="5.593834491446614">
        <ele>868.20001220703125</ele>
        <time>2014-05-19T13:02:12Z</time>
      </trkpt>
      <trkpt lat="44.689848879352212" lon="5.594427175819874">
        <ele>868.4000244140625</ele>
        <time>2014-05-19T13:02:13Z</time>
      </trkpt>
      <trkpt lat="44.689396172761917" lon="5.594810731709003">
        <ele>868.4000244140625</ele>
        <time>2014-05-19T13:02:14Z</time>
      </trkpt>
      <trkpt lat="44.737617094069719" lon="5.552488155663014">
        <ele>868.4000244140625</ele>
        <time>2014-05-19T13:02:45Z</time>
      </trkpt>
      <trkpt lat="44.737631427124143" lon="5.552590079605579">
        <ele>868.20001220703125</ele>
        <time>2014-05-19T13:02:47Z</time>
      </trkpt>
      <trkpt lat="44.737643077969551" lon="5.552759477868676">
        <ele>867</ele>
        <time>2014-05-19T13:02:50Z</time>
      </trkpt>
      <trkpt lat="44.737650537863374" lon="5.552828880026937">
        <ele>866.5999755859375</ele>
        <time>2014-05-19T13:02:51Z</time>
      </trkpt>
      <trkpt lat="44.737669061869383" lon="5.552978664636612">
        <ele>865.79998779296875</ele>
        <time>2014-05-19T13:02:53Z</time>
      </trkpt>
      <trkpt lat="44.737676773220301" lon="5.55305628105998">
        <ele>865.4000244140625</ele>
        <time>2014-05-19T13:02:54Z</time>
      </trkpt>
      <trkpt lat="44.737685574218631" lon="5.553236156702042">
        <ele>864.5999755859375</ele>
        <time>2014-05-19T13:02:56Z</time>
      </trkpt>
      <trkpt lat="44.73771340213716" lon="5.553597752004862">
        <ele>863.4000244140625</ele>
        <time>2014-05-19T13:03:00Z</time>
      </trkpt>
      <trkpt lat="44.737737542018294" lon="5.553778298199177">
        <ele>862.4000244140625</ele>
        <time>2014-05-19T13:03:02Z</time>
      </trkpt>
      <trkpt lat="44.737747516483068" lon="5.553866643458605">
        <ele>862.4000244140625</ele>
        <time>2014-05-19T13:03:03Z</time>
      </trkpt>
      <trkpt lat="44.737774338573217" lon="5.554050207138062">
        <ele>862.20001220703125</ele>
        <time>2014-05-19T13:03:05Z</time>
      </trkpt>
      <trkpt lat="44.73781356588006" lon="5.554233267903328">
        <ele>861.4000244140625</ele>
        <time>2014-05-19T13:03:07Z</time>
      </trkpt>
      <trkpt lat="44.737849105149508" lon="5.554403588175774">
        <ele>860.5999755859375</ele>
        <time>2014-05-19T13:03:09Z</time>
      </trkpt>
      <trkpt lat="44.737904341891408" lon="5.554620428010821">
        <ele>860.20001220703125</ele>
        <time>2014-05-19T13:03:12Z</time>
      </trkpt>
      <trkpt lat="44.737925883382559" lon="5.554679939523339">
        <ele>860.20001220703125</ele>
        <time>2014-05-19T13:03:13Z</time>
      </trkpt>
      <trkpt lat="44.737996878102422" lon="5.554814385250211">
        <ele>859.5999755859375</ele>
        <time>2014-05-19T13:03:16Z</time>
      </trkpt>
      <trkpt lat="44.738037614151835" lon="5.554867275059223">
        <ele>859.20001220703125</ele>
        <time>2014-05-19T13:03:18Z</time>
      </trkpt>
      <trkpt lat="44.738081535324454" lon="5.554871968924999">
        <ele>859.20001220703125</ele>
        <time>2014-05-19T13:03:20Z</time>
      </trkpt>
      <trkpt lat="44.738134508952498" lon="5.554891834035516">
        <ele>859.20001220703125</ele>
        <time>2014-05-19T13:03:24Z</time>
      </trkpt>
      <trkpt lat="44.738144399598241" lon="5.554897030815482">
        <ele>859.20001220703125</ele>
        <time>2014-05-19T13:03:25Z</time>
      </trkpt>
      <trkpt lat="44.737435039132833" lon="5.554822348058224">
        <ele>855.4000244140625</ele>
        <time>2014-05-20T07:19:48Z</time>
      </trkpt>
      <trkpt lat="44.737211242318153" lon="5.554516911506653">
        <ele>854.20001220703125</ele>
        <time>2014-05-20T07:19:53Z</time>
      </trkpt>
      <trkpt lat="44.737168410792947" lon="5.554441139101982">
        <ele>853.79998779296875</ele>
        <time>2014-05-20T07:19:54Z</time>
      </trkpt>
      <trkpt lat="44.737040502950549" lon="5.554207619279623">
        <ele>853</ele>
        <time>2014-05-20T07:19:57Z</time>
      </trkpt>
      <trkpt lat="44.736915361136198" lon="5.553959934040904">
        <ele>852</ele>
        <time>2014-05-20T07:20:00Z</time>
      </trkpt>
      <trkpt lat="44.736829698085785" lon="5.553787434473634">
        <ele>851.4000244140625</ele>
        <time>2014-05-20T07:20:02Z</time>
      </trkpt>
      <trkpt lat="44.736781418323517" lon="5.553700933232904">
        <ele>850.79998779296875</ele>
        <time>2014-05-20T07:20:03Z</time>
      </trkpt>
      <trkpt lat="44.736646888777614" lon="5.55340320803225">
        <ele>849.4000244140625</ele>
        <time>2014-05-20T07:20:06Z</time>
      </trkpt>
      <trkpt lat="44.736607410013676" lon="5.553293153643608">
        <ele>848.5999755859375</ele>
        <time>2014-05-20T07:20:07Z</time>
      </trkpt>
      <trkpt lat="44.736570278182626" lon="5.553180668503046">
        <ele>847.79998779296875</ele>
        <time>2014-05-20T07:20:08Z</time>
      </trkpt>
      <trkpt lat="44.736505234614015" lon="5.552951171994209">
        <ele>846.4000244140625</ele>
        <time>2014-05-20T07:20:10Z</time>
      </trkpt>
      <trkpt lat="44.73645125515759" lon="5.552565520629287">
        <ele>844.20001220703125</ele>
        <time>2014-05-20T07:20:12Z</time>
      </trkpt>
      <trkpt lat="44.736437844112515" lon="5.552321188151836">
        <ele>843</ele>
        <time>2014-05-20T07:20:15Z</time>
      </trkpt>
      <trkpt lat="44.736434575170279" lon="5.552128320559859">
        <ele>843</ele>
        <time>2014-05-20T07:20:17Z</time>
      </trkpt>
      <trkpt lat="44.736445220187306" lon="5.552040729671717">
        <ele>843</ele>
        <time>2014-05-20T07:20:18Z</time>
      </trkpt>
      <trkpt lat="44.736540103331208" lon="5.551805952563882">
        <ele>842</ele>
        <time>2014-05-20T07:20:21Z</time>
      </trkpt>
      <trkpt lat="44.736595675349236" lon="5.551753733307123">
        <ele>841.5999755859375</ele>
        <time>2014-05-20T07:20:22Z</time>
      </trkpt>
      <trkpt lat="44.736732887104154" lon="5.551710817962885">
        <ele>841</ele>
        <time>2014-05-20T07:20:24Z</time>
      </trkpt>
      <trkpt lat="44.736807402223349" lon="5.551722384989262">
        <ele>840.4000244140625</ele>
        <time>2014-05-20T07:20:25Z</time>
      </trkpt>
      <trkpt lat="44.736884599551558" lon="5.551731521263719">
        <ele>839.79998779296875</ele>
        <time>2014-05-20T07:20:26Z</time>
      </trkpt>
      <trkpt lat="44.736963473260403" lon="5.551734706386924">
        <ele>838.79998779296875</ele>
        <time>2014-05-20T07:20:27Z</time>
      </trkpt>
      <trkpt lat="44.737125243991613" lon="5.551722887903452">
        <ele>837.4000244140625</ele>
        <time>2014-05-20T07:20:29Z</time>
      </trkpt>
      <trkpt lat="44.737279722467065" lon="5.551637308672071">
        <ele>836.20001220703125</ele>
        <time>2014-05-20T07:20:31Z</time>
      </trkpt>
      <trkpt lat="44.737353231757879" lon="5.551577713340521">
        <ele>836</ele>
        <time>2014-05-20T07:20:32Z</time>
      </trkpt>
      <trkpt lat="44.737423891201615" lon="5.551508897915483">
        <ele>835.20001220703125</ele>
        <time>2014-05-20T07:20:33Z</time>
      </trkpt>
      <trkpt lat="44.737492119893432" lon="5.55143010802567">
        <ele>834.5999755859375</ele>
        <time>2014-05-20T07:20:34Z</time>
      </trkpt>
      <trkpt lat="44.737559426575899" lon="5.551344528794289">
        <ele>833.79998779296875</ele>
        <time>2014-05-20T07:20:35Z</time>
      </trkpt>
      <trkpt lat="44.737694710493088" lon="5.551162222400308">
        <ele>833.4000244140625</ele>
        <time>2014-05-20T07:20:37Z</time>
      </trkpt>
      <trkpt lat="44.737839717417955" lon="5.550973545759916">
        <ele>832.5999755859375</ele>
        <time>2014-05-20T07:20:39Z</time>
      </trkpt>
      <trkpt lat="44.737998638302088" lon="5.550797441974282">
        <ele>831.20001220703125</ele>
        <time>2014-05-20T07:20:41Z</time>
      </trkpt>
      <trkpt lat="44.738073069602251" lon="5.550707336515188">
        <ele>830.4000244140625</ele>
        <time>2014-05-20T07:20:42Z</time>
      </trkpt>
      <trkpt lat="44.738141801208258" lon="5.550614884123206">
        <ele>829.5999755859375</ele>
        <time>2014-05-20T07:20:43Z</time>
      </trkpt>
      <trkpt lat="44.738335004076362" lon="5.550350015982986">
        <ele>828.4000244140625</ele>
        <time>2014-05-20T07:20:46Z</time>
      </trkpt>
      <trkpt lat="44.738392503932118" lon="5.550253456458449">
        <ele>828.20001220703125</ele>
        <time>2014-05-20T07:20:47Z</time>
      </trkpt>
      <trkpt lat="44.738497445359826" lon="5.550043573603034">
        <ele>827</ele>
        <time>2014-05-20T07:20:49Z</time>
      </trkpt>
      <trkpt lat="44.738594843074679" lon="5.549813322722912">
        <ele>826</ele>
        <time>2014-05-20T07:20:51Z</time>
      </trkpt>
      <trkpt lat="44.738641194999218" lon="5.549691198393703">
        <ele>825.5999755859375</ele>
        <time>2014-05-20T07:20:52Z</time>
      </trkpt>
      <trkpt lat="44.738731551915407" lon="5.549447536468506">
        <ele>824.5999755859375</ele>
        <time>2014-05-20T07:20:54Z</time>
      </trkpt>
      <trkpt lat="44.738886868581176" lon="5.549096670001745">
        <ele>823.4000244140625</ele>
        <time>2014-05-20T07:20:57Z</time>
      </trkpt>
      <trkpt lat="44.73895057104528" lon="5.548990052193403">
        <ele>822.79998779296875</ele>
        <time>2014-05-20T07:20:58Z</time>
      </trkpt>
      <trkpt lat="44.739088704809546" lon="5.548793496564031">
        <ele>822</ele>
        <time>2014-05-20T07:21:00Z</time>
      </trkpt>
      <trkpt lat="44.739225748926401" lon="5.548639604821801">
        <ele>821.5999755859375</ele>
        <time>2014-05-20T07:21:02Z</time>
      </trkpt>
      <trkpt lat="44.739291043952107" lon="5.548515133559704">
        <ele>821.79998779296875</ele>
        <time>2014-05-20T07:21:04Z</time>
      </trkpt>
      <trkpt lat="44.739285176619887" lon="5.54844313301146">
        <ele>821.79998779296875</ele>
        <time>2014-05-20T07:21:05Z</time>
      </trkpt>
      <trkpt lat="44.739179899916053" lon="5.548238530755043">
        <ele>821.4000244140625</ele>
        <time>2014-05-20T07:21:08Z</time>
      </trkpt>
      <trkpt lat="44.738990971818566" lon="5.54811330512166">
        <ele>820.5999755859375</ele>
        <time>2014-05-20T07:21:11Z</time>
      </trkpt>
      <trkpt lat="44.738924503326416" lon="5.548097547143698">
        <ele>819.79998779296875</ele>
        <time>2014-05-20T07:21:12Z</time>
      </trkpt>
      <trkpt lat="44.73885384388268" lon="5.548082878813148">
        <ele>819</ele>
        <time>2014-05-20T07:21:13Z</time>
      </trkpt>
      <trkpt lat="44.738700203597546" lon="5.548054212704301">
        <ele>817.4000244140625</ele>
        <time>2014-05-20T07:21:15Z</time>
      </trkpt>
      <trkpt lat="44.738609679043293" lon="5.548045746982098">
        <ele>817</ele>
        <time>2014-05-20T07:21:16Z</time>
      </trkpt>
      <trkpt lat="44.738520160317421" lon="5.548048513010144">
        <ele>816.20001220703125</ele>
        <time>2014-05-20T07:21:17Z</time>
      </trkpt>
      <trkpt lat="44.738348163664341" lon="5.548085812479258">
        <ele>815.20001220703125</ele>
        <time>2014-05-20T07:21:19Z</time>
      </trkpt>
      <trkpt lat="44.738173149526119" lon="5.548183713108301">
        <ele>814.4000244140625</ele>
        <time>2014-05-20T07:21:21Z</time>
      </trkpt>
      <trkpt lat="44.738080529496074" lon="5.548242051154375">
        <ele>814</ele>
        <time>2014-05-20T07:21:22Z</time>
      </trkpt>
      <trkpt lat="44.737892858684063" lon="5.548359816893935">
        <ele>812.79998779296875</ele>
        <time>2014-05-20T07:21:24Z</time>
      </trkpt>
      <trkpt lat="44.737689346075058" lon="5.548444557935">
        <ele>811.5999755859375</ele>
        <time>2014-05-20T07:21:26Z</time>
      </trkpt>
      <trkpt lat="44.737463621422648" lon="5.548462411388755">
        <ele>810.20001220703125</ele>
        <time>2014-05-20T07:21:28Z</time>
      </trkpt>
      <trkpt lat="44.737352645024657" lon="5.548457885161042">
        <ele>809.5999755859375</ele>
        <time>2014-05-20T07:21:29Z</time>
      </trkpt>
      <trkpt lat="44.737240243703127" lon="5.548454700037837">
        <ele>808.79998779296875</ele>
        <time>2014-05-20T07:21:30Z</time>
      </trkpt>
      <trkpt lat="44.737127339467406" lon="5.548458052799106">
        <ele>807.79998779296875</ele>
        <time>2014-05-20T07:21:31Z</time>
      </trkpt>
      <trkpt lat="44.737013513222337" lon="5.548471631482244">
        <ele>806.5999755859375</ele>
        <time>2014-05-20T07:21:32Z</time>
      </trkpt>
      <trkpt lat="44.736903291195631" lon="5.54849686101079">
        <ele>805.4000244140625</ele>
        <time>2014-05-20T07:21:33Z</time>
      </trkpt>
      <trkpt lat="44.73680354654789" lon="5.548531310632825">
        <ele>804.4000244140625</ele>
        <time>2014-05-20T07:21:34Z</time>
      </trkpt>
      <trkpt lat="44.736706987023354" lon="5.548580847680569">
        <ele>803.79998779296875</ele>
        <time>2014-05-20T07:21:35Z</time>
      </trkpt>
      <trkpt lat="44.736511772498488" lon="5.548657458275557">
        <ele>804.20001220703125</ele>
        <time>2014-05-20T07:21:37Z</time>
      </trkpt>
      <trkpt lat="44.736308511346579" lon="5.548674054443836">
        <ele>802.20001220703125</ele>
        <time>2014-05-20T07:21:39Z</time>
      </trkpt>
      <trkpt lat="44.736215136945248" lon="5.548656787723303">
        <ele>801</ele>
        <time>2014-05-20T07:21:40Z</time>
      </trkpt>
      <trkpt lat="44.736118074506521" lon="5.548611106351018">
        <ele>799.79998779296875</ele>
        <time>2014-05-20T07:21:41Z</time>
      </trkpt>
      <trkpt lat="44.736020592972636" lon="5.54855209775269">
        <ele>799.4000244140625</ele>
        <time>2014-05-20T07:21:42Z</time>
      </trkpt>
      <trkpt lat="44.735849183052778" lon="5.548372389748693">
        <ele>798.4000244140625</ele>
        <time>2014-05-20T07:21:44Z</time>
      </trkpt>
      <trkpt lat="44.735664948821068" lon="5.548217575997114">
        <ele>797.5999755859375</ele>
        <time>2014-05-20T07:21:46Z</time>
      </trkpt>
      <trkpt lat="44.735582135617733" lon="5.548115819692612">
        <ele>797.20001220703125</ele>
        <time>2014-05-20T07:21:47Z</time>
      </trkpt>
      <trkpt lat="44.735497394576669" lon="5.548027725890279">
        <ele>796.79998779296875</ele>
        <time>2014-05-20T07:21:48Z</time>
      </trkpt>
      <trkpt lat="44.735317770391703" lon="5.547874085605145">
        <ele>796</ele>
        <time>2014-05-20T07:21:50Z</time>
      </trkpt>
      <trkpt lat="44.735223473981023" lon="5.547813819721341">
        <ele>795.20001220703125</ele>
        <time>2014-05-20T07:21:51Z</time>
      </trkpt>
      <trkpt lat="44.735124986618757" lon="5.547764785587788">
        <ele>794.4000244140625</ele>
        <time>2014-05-20T07:21:52Z</time>
      </trkpt>
      <trkpt lat="44.734924910590053" lon="5.547680715098977">
        <ele>793.20001220703125</ele>
        <time>2014-05-20T07:21:54Z</time>
      </trkpt>
      <trkpt lat="44.734714943915606" lon="5.547612234950066">
        <ele>792.4000244140625</ele>
        <time>2014-05-20T07:21:56Z</time>
      </trkpt>
      <trkpt lat="44.734500451013446" lon="5.547559596598148">
        <ele>791.79998779296875</ele>
        <time>2014-05-20T07:21:58Z</time>
      </trkpt>
      <trkpt lat="44.734281934797764" lon="5.547550795599818">
        <ele>789.5999755859375</ele>
        <time>2014-05-20T07:22:00Z</time>
      </trkpt>
      <trkpt lat="44.734177412465215" lon="5.547550125047565">
        <ele>788.79998779296875</ele>
        <time>2014-05-20T07:22:01Z</time>
      </trkpt>
      <trkpt lat="44.734077248722315" lon="5.547541994601488">
        <ele>788</ele>
        <time>2014-05-20T07:22:02Z</time>
      </trkpt>
      <trkpt lat="44.733789581805468" lon="5.547505700960755">
        <ele>787.5999755859375</ele>
        <time>2014-05-20T07:22:05Z</time>
      </trkpt>
      <trkpt lat="44.733695453032851" lon="5.547503940761089">
        <ele>786.79998779296875</ele>
        <time>2014-05-20T07:22:06Z</time>
      </trkpt>
      <trkpt lat="44.733603922650218" lon="5.54751668125391">
        <ele>786</ele>
        <time>2014-05-20T07:22:07Z</time>
      </trkpt>
      <trkpt lat="44.733513901010156" lon="5.547544090077281">
        <ele>785.4000244140625</ele>
        <time>2014-05-20T07:22:08Z</time>
      </trkpt>
      <trkpt lat="44.733424801379442" lon="5.547587843611836">
        <ele>784.5999755859375</ele>
        <time>2014-05-20T07:22:09Z</time>
      </trkpt>
      <trkpt lat="44.733338551595807" lon="5.54764517582953">
        <ele>784.20001220703125</ele>
        <time>2014-05-20T07:22:10Z</time>
      </trkpt>
      <trkpt lat="44.73317644558847" lon="5.547846760600805">
        <ele>783.20001220703125</ele>
        <time>2014-05-20T07:22:12Z</time>
      </trkpt>
      <trkpt lat="44.733090028166771" lon="5.547923035919666">
        <ele>782.5999755859375</ele>
        <time>2014-05-20T07:22:13Z</time>
      </trkpt>
      <trkpt lat="44.732904871925712" lon="5.548037951812148">
        <ele>781.20001220703125</ele>
        <time>2014-05-20T07:22:15Z</time>
      </trkpt>
      <trkpt lat="44.73281292244792" lon="5.548095116391778">
        <ele>780.79998779296875</ele>
        <time>2014-05-20T07:22:16Z</time>
      </trkpt>
      <trkpt lat="44.732633884996176" lon="5.548231238499284">
        <ele>779.79998779296875</ele>
        <time>2014-05-20T07:22:18Z</time>
      </trkpt>
      <trkpt lat="44.73256079480052" lon="5.548305250704289">
        <ele>779.20001220703125</ele>
        <time>2014-05-20T07:22:19Z</time>
      </trkpt>
      <trkpt lat="44.732497595250607" lon="5.548381945118308">
        <ele>778.79998779296875</ele>
        <time>2014-05-20T07:22:20Z</time>
      </trkpt>
      <trkpt lat="44.732439927756786" lon="5.54846266284585">
        <ele>778.79998779296875</ele>
        <time>2014-05-20T07:22:21Z</time>
      </trkpt>
      <trkpt lat="44.732320485636592" lon="5.548598198220134">
        <ele>778.20001220703125</ele>
        <time>2014-05-20T07:22:23Z</time>
      </trkpt>
      <trkpt lat="44.732246557250619" lon="5.548630384728313">
        <ele>777.79998779296875</ele>
        <time>2014-05-20T07:22:24Z</time>
      </trkpt>
      <trkpt lat="44.731999877840281" lon="5.548588642850518">
        <ele>775.5999755859375</ele>
        <time>2014-05-20T07:22:27Z</time>
      </trkpt>
      <trkpt lat="44.731847913935781" lon="5.548446904867888">
        <ele>774.4000244140625</ele>
        <time>2014-05-20T07:22:29Z</time>
      </trkpt>
      <trkpt lat="44.731777086853981" lon="5.548350680619478">
        <ele>774</ele>
        <time>2014-05-20T07:22:30Z</time>
      </trkpt>
      <trkpt lat="44.731629732996225" lon="5.548173738643527">
        <ele>772.79998779296875</ele>
        <time>2014-05-20T07:22:32Z</time>
      </trkpt>
      <trkpt lat="44.731464693322778" lon="5.548012806102634">
        <ele>771.4000244140625</ele>
        <time>2014-05-20T07:22:34Z</time>
      </trkpt>
      <trkpt lat="44.73119705915451" lon="5.547793619334698">
        <ele>770.4000244140625</ele>
        <time>2014-05-20T07:22:37Z</time>
      </trkpt>
      <trkpt lat="44.731100164353848" lon="5.547728156670928">
        <ele>770</ele>
        <time>2014-05-20T07:22:38Z</time>
      </trkpt>
      <trkpt lat="44.73100209608674" lon="5.547678116708994">
        <ele>769.4000244140625</ele>
        <time>2014-05-20T07:22:39Z</time>
      </trkpt>
      <trkpt lat="44.730900172144175" lon="5.547648025676608">
        <ele>768.4000244140625</ele>
        <time>2014-05-20T07:22:40Z</time>
      </trkpt>
      <trkpt lat="44.730796320363879" lon="5.547631680965424">
        <ele>767.5999755859375</ele>
        <time>2014-05-20T07:22:41Z</time>
      </trkpt>
      <trkpt lat="44.730590377002954" lon="5.547667723149061">
        <ele>766.4000244140625</ele>
        <time>2014-05-20T07:22:43Z</time>
      </trkpt>
      <trkpt lat="44.730487447232008" lon="5.547704938799143">
        <ele>766</ele>
        <time>2014-05-20T07:22:44Z</time>
      </trkpt>
      <trkpt lat="44.730274043977261" lon="5.547772832214832">
        <ele>764.4000244140625</ele>
        <time>2014-05-20T07:22:46Z</time>
      </trkpt>
      <trkpt lat="44.730058796703815" lon="5.547841815277934">
        <ele>762.5999755859375</ele>
        <time>2014-05-20T07:22:48Z</time>
      </trkpt>
      <trkpt lat="44.729955699294806" lon="5.547876348719001">
        <ele>761.5999755859375</ele>
        <time>2014-05-20T07:22:49Z</time>
      </trkpt>
      <trkpt lat="44.729859726503491" lon="5.547921610996127">
        <ele>760.5999755859375</ele>
        <time>2014-05-20T07:22:50Z</time>
      </trkpt>
      <trkpt lat="44.72968278452754" lon="5.548030156642199">
        <ele>759.5999755859375</ele>
        <time>2014-05-20T07:22:52Z</time>
      </trkpt>
      <trkpt lat="44.729590164497495" lon="5.548073071986437">
        <ele>759.20001220703125</ele>
        <time>2014-05-20T07:22:53Z</time>
      </trkpt>
      <trkpt lat="44.729492599144578" lon="5.548098972067237">
        <ele>758.5999755859375</ele>
        <time>2014-05-20T07:22:54Z</time>
      </trkpt>
      <trkpt lat="44.729393105953932" lon="5.548105258494616">
        <ele>757.79998779296875</ele>
        <time>2014-05-20T07:22:55Z</time>
      </trkpt>
      <trkpt lat="44.729292774572968" lon="5.548101151362062">
        <ele>757.20001220703125</ele>
        <time>2014-05-20T07:22:56Z</time>
      </trkpt>
      <trkpt lat="44.729194119572639" lon="5.548089919611812">
        <ele>756.5999755859375</ele>
        <time>2014-05-20T07:22:57Z</time>
      </trkpt>
      <trkpt lat="44.728888599202037" lon="5.548007106408477">
        <ele>755.5999755859375</ele>
        <time>2014-05-20T07:23:00Z</time>
      </trkpt>
      <trkpt lat="44.728786507621408" lon="5.547973494976759">
        <ele>756</ele>
        <time>2014-05-20T07:23:01Z</time>
      </trkpt>
      <trkpt lat="44.728467995300889" lon="5.54789780639112">
        <ele>754.20001220703125</ele>
        <time>2014-05-20T07:23:04Z</time>
      </trkpt>
      <trkpt lat="44.728355593979359" lon="5.547877689823508">
        <ele>752.79998779296875</ele>
        <time>2014-05-20T07:23:05Z</time>
      </trkpt>
      <trkpt lat="44.728246964514256" lon="5.547856232151389">
        <ele>751.20001220703125</ele>
        <time>2014-05-20T07:23:06Z</time>
      </trkpt>
      <trkpt lat="44.728144286200404" lon="5.547834103927016">
        <ele>750.20001220703125</ele>
        <time>2014-05-20T07:23:07Z</time>
      </trkpt>
      <trkpt lat="44.72804537974298" lon="5.547801246866584">
        <ele>750</ele>
        <time>2014-05-20T07:23:08Z</time>
      </trkpt>
      <trkpt lat="44.727856619283557" lon="5.5476916115731">
        <ele>750.20001220703125</ele>
        <time>2014-05-20T07:23:10Z</time>
      </trkpt>
      <trkpt lat="44.727616226300597" lon="5.547478878870606">
        <ele>749.79998779296875</ele>
        <time>2014-05-20T07:23:13Z</time>
      </trkpt>
      <trkpt lat="44.727539028972387" lon="5.547420876100659">
        <ele>749.79998779296875</ele>
        <time>2014-05-20T07:23:14Z</time>
      </trkpt>
      <trkpt lat="44.727145414799452" lon="5.547208562493324">
        <ele>749.5999755859375</ele>
        <time>2014-05-20T07:23:19Z</time>
      </trkpt>
      <trkpt lat="44.726911392062902" lon="5.547104962170124">
        <ele>749</ele>
        <time>2014-05-20T07:23:22Z</time>
      </trkpt>
      <trkpt lat="44.72668407484889" lon="5.547043271362782">
        <ele>748.5999755859375</ele>
        <time>2014-05-20T07:23:25Z</time>
      </trkpt>
      <trkpt lat="44.726604530587792" lon="5.547039415687323">
        <ele>748.4000244140625</ele>
        <time>2014-05-20T07:23:26Z</time>
      </trkpt>
      <trkpt lat="44.726451644673944" lon="5.547061376273632">
        <ele>748</ele>
        <time>2014-05-20T07:23:28Z</time>
      </trkpt>
      <trkpt lat="44.726288700476289" lon="5.547080403193831">
        <ele>746.79998779296875</ele>
        <time>2014-05-20T07:23:30Z</time>
      </trkpt>
      <trkpt lat="44.726118128746748" lon="5.54706372320652">
        <ele>745.5999755859375</ele>
        <time>2014-05-20T07:23:32Z</time>
      </trkpt>
      <trkpt lat="44.726031711325049" lon="5.547046540305018">
        <ele>745</ele>
        <time>2014-05-20T07:23:33Z</time>
      </trkpt>
      <trkpt lat="44.725945545360446" lon="5.547028603032231">
        <ele>744.20001220703125</ele>
        <time>2014-05-20T07:23:34Z</time>
      </trkpt>
      <trkpt lat="44.725858792662621" lon="5.547004798427224">
        <ele>743.5999755859375</ele>
        <time>2014-05-20T07:23:35Z</time>
      </trkpt>
      <trkpt lat="44.725770698860288" lon="5.546971438452601">
        <ele>743</ele>
        <time>2014-05-20T07:23:36Z</time>
      </trkpt>
      <trkpt lat="44.725686544552445" lon="5.546918213367462">
        <ele>743</ele>
        <time>2014-05-20T07:23:37Z</time>
      </trkpt>
      <trkpt lat="44.725526953116059" lon="5.546765075996518">
        <ele>741.5999755859375</ele>
        <time>2014-05-20T07:23:39Z</time>
      </trkpt>
      <trkpt lat="44.72537700086832" lon="5.54659266024828">
        <ele>740.20001220703125</ele>
        <time>2014-05-20T07:23:41Z</time>
      </trkpt>
      <trkpt lat="44.725220678374171" lon="5.546433487907052">
        <ele>738.79998779296875</ele>
        <time>2014-05-20T07:23:43Z</time>
      </trkpt>
      <trkpt lat="44.725060248747468" lon="5.546276913955808">
        <ele>737.5999755859375</ele>
        <time>2014-05-20T07:23:45Z</time>
      </trkpt>
      <trkpt lat="44.724896801635623" lon="5.546111706644297">
        <ele>736</ele>
        <time>2014-05-20T07:23:47Z</time>
      </trkpt>
      <trkpt lat="44.724820107221603" lon="5.546014728024602">
        <ele>735.4000244140625</ele>
        <time>2014-05-20T07:23:48Z</time>
      </trkpt>
      <trkpt lat="44.72475690767169" lon="5.545902661979199">
        <ele>734.5999755859375</ele>
        <time>2014-05-20T07:23:49Z</time>
      </trkpt>
      <trkpt lat="44.724709214642644" lon="5.545776262879372">
        <ele>734.20001220703125</ele>
        <time>2014-05-20T07:23:50Z</time>
      </trkpt>
      <trkpt lat="44.724675770848989" lon="5.545643996447325">
        <ele>733.4000244140625</ele>
        <time>2014-05-20T07:23:51Z</time>
      </trkpt>
      <trkpt lat="44.72464450635016" lon="5.545370830222964">
        <ele>732.20001220703125</ele>
        <time>2014-05-20T07:23:53Z</time>
      </trkpt>
      <trkpt lat="44.724631933495402" lon="5.545097915455699">
        <ele>731.5999755859375</ele>
        <time>2014-05-20T07:23:55Z</time>
      </trkpt>
      <trkpt lat="44.724620869383216" lon="5.54481653496623">
        <ele>731.20001220703125</ele>
        <time>2014-05-20T07:23:57Z</time>
      </trkpt>
      <trkpt lat="44.724608296528459" lon="5.544674880802631">
        <ele>730.79998779296875</ele>
        <time>2014-05-20T07:23:58Z</time>
      </trkpt>
      <trkpt lat="44.724592957645655" lon="5.544393416494131">
        <ele>730.20001220703125</ele>
        <time>2014-05-20T07:24:00Z</time>
      </trkpt>
      <trkpt lat="44.724579211324453" lon="5.54411681368947">
        <ele>729</ele>
        <time>2014-05-20T07:24:02Z</time>
      </trkpt>
      <trkpt lat="44.724553059786558" lon="5.543986978009343">
        <ele>728.20001220703125</ele>
        <time>2014-05-20T07:24:03Z</time>
      </trkpt>
      <trkpt lat="44.724517604336143" lon="5.543861668556929">
        <ele>727.79998779296875</ele>
        <time>2014-05-20T07:24:04Z</time>
      </trkpt>
      <trkpt lat="44.724425654858351" lon="5.543616497889161">
        <ele>726.5999755859375</ele>
        <time>2014-05-20T07:24:06Z</time>
      </trkpt>
      <trkpt lat="44.724376704543829" lon="5.543488506227732">
        <ele>725.79998779296875</ele>
        <time>2014-05-20T07:24:07Z</time>
      </trkpt>
      <trkpt lat="44.724339069798589" lon="5.543360933661461">
        <ele>725.20001220703125</ele>
        <time>2014-05-20T07:24:08Z</time>
      </trkpt>
      <trkpt lat="44.724237397313118" lon="5.543022304773331">
        <ele>724.20001220703125</ele>
        <time>2014-05-20T07:24:11Z</time>
      </trkpt>
      <trkpt lat="44.724186100065708" lon="5.542930690571666">
        <ele>724</ele>
        <time>2014-05-20T07:24:12Z</time>
      </trkpt>
      <trkpt lat="44.724062802270055" lon="5.542757688090205">
        <ele>723</ele>
        <time>2014-05-20T07:24:14Z</time>
      </trkpt>
      <trkpt lat="44.723939253017306" lon="5.54256440140307">
        <ele>721.79998779296875</ele>
        <time>2014-05-20T07:24:16Z</time>
      </trkpt>
      <trkpt lat="44.723883764818311" lon="5.542455017566681">
        <ele>721.20001220703125</ele>
        <time>2014-05-20T07:24:17Z</time>
      </trkpt>
      <trkpt lat="44.723833641037345" lon="5.542336748912931">
        <ele>720.5999755859375</ele>
        <time>2014-05-20T07:24:18Z</time>
      </trkpt>
      <trkpt lat="44.723739931359887" lon="5.542085459455848">
        <ele>719.5999755859375</ele>
        <time>2014-05-20T07:24:20Z</time>
      </trkpt>
      <trkpt lat="44.72363842651248" lon="5.541833247989416">
        <ele>717.79998779296875</ele>
        <time>2014-05-20T07:24:22Z</time>
      </trkpt>
      <trkpt lat="44.723574807867408" lon="5.541716990992427">
        <ele>716.79998779296875</ele>
        <time>2014-05-20T07:24:23Z</time>
      </trkpt>
      <trkpt lat="44.723508171737194" lon="5.541605763137341">
        <ele>716</ele>
        <time>2014-05-20T07:24:24Z</time>
      </trkpt>
      <trkpt lat="44.723274065181613" lon="5.541198989376426">
        <ele>715</ele>
        <time>2014-05-20T07:24:28Z</time>
      </trkpt>
      <trkpt lat="44.723108103498816" lon="5.540921799838543">
        <ele>714.20001220703125</ele>
        <time>2014-05-20T07:24:32Z</time>
      </trkpt>
      <trkpt lat="44.723019758239388" lon="5.540958344936371">
        <ele>714.5999755859375</ele>
        <time>2014-05-20T07:24:34Z</time>
      </trkpt>
      <trkpt lat="44.723026715219021" lon="5.541105698794127">
        <ele>714.20001220703125</ele>
        <time>2014-05-20T07:24:36Z</time>
      </trkpt>
      <trkpt lat="44.723062003031373" lon="5.541172083467245">
        <ele>713.79998779296875</ele>
        <time>2014-05-20T07:24:37Z</time>
      </trkpt>
      <trkpt lat="44.723097961395979" lon="5.541233774274588">
        <ele>713.20001220703125</ele>
        <time>2014-05-20T07:24:38Z</time>
      </trkpt>
      <trkpt lat="44.723135512322187" lon="5.541300913318992">
        <ele>712.79998779296875</ele>
        <time>2014-05-20T07:24:39Z</time>
      </trkpt>
      <trkpt lat="44.723208183422685" lon="5.541451452299953">
        <ele>711.79998779296875</ele>
        <time>2014-05-20T07:24:41Z</time>
      </trkpt>
      <trkpt lat="44.723242716863751" lon="5.541539043188095">
        <ele>711.20001220703125</ele>
        <time>2014-05-20T07:24:42Z</time>
      </trkpt>
      <trkpt lat="44.723278004676104" lon="5.541628897190094">
        <ele>710.4000244140625</ele>
        <time>2014-05-20T07:24:43Z</time>
      </trkpt>
      <trkpt lat="44.723315052688122" lon="5.541722271591425">
        <ele>710</ele>
        <time>2014-05-20T07:24:44Z</time>
      </trkpt>
      <trkpt lat="44.723392250016332" lon="5.541923437267542">
        <ele>708.5999755859375</ele>
        <time>2014-05-20T07:24:46Z</time>
      </trkpt>
      <trkpt lat="44.723428124561906" lon="5.542045226320624">
        <ele>708</ele>
        <time>2014-05-20T07:24:47Z</time>
      </trkpt>
      <trkpt lat="44.723454862833023" lon="5.542175313457847">
        <ele>707.4000244140625</ele>
        <time>2014-05-20T07:24:48Z</time>
      </trkpt>
      <trkpt lat="44.723510770127177" lon="5.542441606521606">
        <ele>706.20001220703125</ele>
        <time>2014-05-20T07:24:50Z</time>
      </trkpt>
      <trkpt lat="44.723548740148544" lon="5.542575716972351">
        <ele>704.5999755859375</ele>
        <time>2014-05-20T07:24:51Z</time>
      </trkpt>
      <trkpt lat="44.723595846444368" lon="5.542704546824098">
        <ele>704.4000244140625</ele>
        <time>2014-05-20T07:24:52Z</time>
      </trkpt>
      <trkpt lat="44.72364823333919" lon="5.542822061106563">
        <ele>703.79998779296875</ele>
        <time>2014-05-20T07:24:53Z</time>
      </trkpt>
      <trkpt lat="44.723700201138854" lon="5.542943850159645">
        <ele>703.4000244140625</ele>
        <time>2014-05-20T07:24:54Z</time>
      </trkpt>
      <trkpt lat="44.723742948845029" lon="5.543072931468487">
        <ele>702.5999755859375</ele>
        <time>2014-05-20T07:24:55Z</time>
      </trkpt>
      <trkpt lat="44.723781170323491" lon="5.543208466842771">
        <ele>701.79998779296875</ele>
        <time>2014-05-20T07:24:56Z</time>
      </trkpt>
      <trkpt lat="44.723806986585259" lon="5.54335649125278">
        <ele>701</ele>
        <time>2014-05-20T07:24:57Z</time>
      </trkpt>
      <trkpt lat="44.723827186971903" lon="5.543504431843758">
        <ele>700.20001220703125</ele>
        <time>2014-05-20T07:24:58Z</time>
      </trkpt>
      <trkpt lat="44.723865240812302" lon="5.543809281662107">
        <ele>699</ele>
        <time>2014-05-20T07:25:00Z</time>
      </trkpt>
      <trkpt lat="44.723911257460713" lon="5.544094434008002">
        <ele>697.79998779296875</ele>
        <time>2014-05-20T07:25:02Z</time>
      </trkpt>
      <trkpt lat="44.723995327949524" lon="5.54444563575089">
        <ele>696.79998779296875</ele>
        <time>2014-05-20T07:25:05Z</time>
      </trkpt>
      <trkpt lat="44.724026340991259" lon="5.54453557357192">
        <ele>696.79998779296875</ele>
        <time>2014-05-20T07:25:06Z</time>
      </trkpt>
      <trkpt lat="44.724043272435665" lon="5.544611429795623">
        <ele>696.79998779296875</ele>
        <time>2014-05-20T07:25:07Z</time>
      </trkpt>
      <trkpt lat="44.723995998501778" lon="5.544709917157888">
        <ele>696.79998779296875</ele>
        <time>2014-05-20T07:25:09Z</time>
      </trkpt>
      <trkpt lat="44.72391108982265" lon="5.544649818912149">
        <ele>696.20001220703125</ele>
        <time>2014-05-20T07:25:11Z</time>
      </trkpt>
      <trkpt lat="44.723884267732501" lon="5.544566921889782">
        <ele>695.79998779296875</ele>
        <time>2014-05-20T07:25:12Z</time>
      </trkpt>
      <trkpt lat="44.723844118416309" lon="5.544395763427019">
        <ele>695</ele>
        <time>2014-05-20T07:25:14Z</time>
      </trkpt>
      <trkpt lat="44.723822576925159" lon="5.544305657967925">
        <ele>694</ele>
        <time>2014-05-20T07:25:15Z</time>
      </trkpt>
      <trkpt lat="44.723769938573241" lon="5.544108180329204">
        <ele>692.79998779296875</ele>
        <time>2014-05-20T07:25:17Z</time>
      </trkpt>
      <trkpt lat="44.723705649375916" lon="5.543897794559598">
        <ele>691</ele>
        <time>2014-05-20T07:25:19Z</time>
      </trkpt>
      <trkpt lat="44.723668601363897" lon="5.543791092932224">
        <ele>690.20001220703125</ele>
        <time>2014-05-20T07:25:20Z</time>
      </trkpt>
      <trkpt lat="44.723631553351879" lon="5.543681709095836">
        <ele>689.5999755859375</ele>
        <time>2014-05-20T07:25:21Z</time>
      </trkpt>
      <trkpt lat="44.72355343401432" lon="5.543462773784995">
        <ele>688.20001220703125</ele>
        <time>2014-05-20T07:25:23Z</time>
      </trkpt>
      <trkpt lat="44.723441703245044" lon="5.543123641982675">
        <ele>687</ele>
        <time>2014-05-20T07:25:26Z</time>
      </trkpt>
      <trkpt lat="44.723359476774931" lon="5.542892888188362">
        <ele>686</ele>
        <time>2014-05-20T07:25:28Z</time>
      </trkpt>
      <trkpt lat="44.723311783745885" lon="5.542779145762324">
        <ele>685.4000244140625</ele>
        <time>2014-05-20T07:25:29Z</time>
      </trkpt>
      <trkpt lat="44.723198628053069" lon="5.542574711143971">
        <ele>684.4000244140625</ele>
        <time>2014-05-20T07:25:31Z</time>
      </trkpt>
      <trkpt lat="44.723135009407997" lon="5.542480666190386">
        <ele>683.79998779296875</ele>
        <time>2014-05-20T07:25:32Z</time>
      </trkpt>
      <trkpt lat="44.723068960011005" lon="5.542390141636133">
        <ele>683.20001220703125</ele>
        <time>2014-05-20T07:25:33Z</time>
      </trkpt>
      <trkpt lat="44.722952451556921" lon="5.542173888534308">
        <ele>682.20001220703125</ele>
        <time>2014-05-20T07:25:35Z</time>
      </trkpt>
      <trkpt lat="44.722901741042733" lon="5.542056709527969">
        <ele>682</ele>
        <time>2014-05-20T07:25:36Z</time>
      </trkpt>
      <trkpt lat="44.722754638642073" lon="5.54171908646822">
        <ele>680.79998779296875</ele>
        <time>2014-05-20T07:25:39Z</time>
      </trkpt>
      <trkpt lat="44.722645003348589" lon="5.541523117572069">
        <ele>680.5999755859375</ele>
        <time>2014-05-20T07:25:41Z</time>
      </trkpt>
      <trkpt lat="44.722395641729236" lon="5.54115230217576">
        <ele>679.4000244140625</ele>
        <time>2014-05-20T07:25:45Z</time>
      </trkpt>
      <trkpt lat="44.722254909574986" lon="5.541004193946719">
        <ele>678.4000244140625</ele>
        <time>2014-05-20T07:25:47Z</time>
      </trkpt>
      <trkpt lat="44.722118703648448" lon="5.540863210335374">
        <ele>677.79998779296875</ele>
        <time>2014-05-20T07:25:49Z</time>
      </trkpt>
      <trkpt lat="44.722055839374661" lon="5.540771679952741">
        <ele>677.4000244140625</ele>
        <time>2014-05-20T07:25:50Z</time>
      </trkpt>
      <trkpt lat="44.721994064748287" lon="5.540667828172445">
        <ele>676.79998779296875</ele>
        <time>2014-05-20T07:25:51Z</time>
      </trkpt>
      <trkpt lat="44.721932709217072" lon="5.540562719106674">
        <ele>676.20001220703125</ele>
        <time>2014-05-20T07:25:52Z</time>
      </trkpt>
      <trkpt lat="44.721802789717913" lon="5.540366414934397">
        <ele>675</ele>
        <time>2014-05-20T07:25:54Z</time>
      </trkpt>
      <trkpt lat="44.721666416153312" lon="5.540176900103688">
        <ele>673.79998779296875</ele>
        <time>2014-05-20T07:25:56Z</time>
      </trkpt>
      <trkpt lat="44.721603384241462" lon="5.540071958675981">
        <ele>673.4000244140625</ele>
        <time>2014-05-20T07:25:57Z</time>
      </trkpt>
      <trkpt lat="44.721545884385705" lon="5.539956204593182">
        <ele>672.79998779296875</ele>
        <time>2014-05-20T07:25:58Z</time>
      </trkpt>
      <trkpt lat="44.721395429223776" lon="5.539595782756805">
        <ele>672</ele>
        <time>2014-05-20T07:26:01Z</time>
      </trkpt>
      <trkpt lat="44.721351088955998" lon="5.539468210190535">
        <ele>671.79998779296875</ele>
        <time>2014-05-20T07:26:02Z</time>
      </trkpt>
      <trkpt lat="44.721291409805417" lon="5.539196636527777">
        <ele>670.4000244140625</ele>
        <time>2014-05-20T07:26:04Z</time>
      </trkpt>
      <trkpt lat="44.721277998760343" lon="5.539060514420271">
        <ele>670.20001220703125</ele>
        <time>2014-05-20T07:26:05Z</time>
      </trkpt>
      <trkpt lat="44.721247740089893" lon="5.538656758144498">
        <ele>669.4000244140625</ele>
        <time>2014-05-20T07:26:08Z</time>
      </trkpt>
      <trkpt lat="44.721252433955669" lon="5.538392057642341">
        <ele>668.79998779296875</ele>
        <time>2014-05-20T07:26:10Z</time>
      </trkpt>
      <trkpt lat="44.721263665705919" lon="5.538261802867055">
        <ele>668.79998779296875</ele>
        <time>2014-05-20T07:26:11Z</time>
      </trkpt>
      <trkpt lat="44.721284620463848" lon="5.538135822862387">
        <ele>668.5999755859375</ele>
        <time>2014-05-20T07:26:12Z</time>
      </trkpt>
      <trkpt lat="44.721351759508252" lon="5.537755703553557">
        <ele>668.4000244140625</ele>
        <time>2014-05-20T07:26:15Z</time>
      </trkpt>
      <trkpt lat="44.721357626840472" lon="5.537626035511494">
        <ele>668.20001220703125</ele>
        <time>2014-05-20T07:26:16Z</time>
      </trkpt>
      <trkpt lat="44.721323261037469" lon="5.537376590073109">
        <ele>667.5999755859375</ele>
        <time>2014-05-20T07:26:18Z</time>
      </trkpt>
      <trkpt lat="44.721288895234466" lon="5.537253627553582">
        <ele>667.4000244140625</ele>
        <time>2014-05-20T07:26:19Z</time>
      </trkpt>
      <trkpt lat="44.721133997663856" lon="5.536929918453097">
        <ele>666.5999755859375</ele>
        <time>2014-05-20T07:26:22Z</time>
      </trkpt>
      <trkpt lat="44.721074234694242" lon="5.536833526566625">
        <ele>666.4000244140625</ele>
        <time>2014-05-20T07:26:23Z</time>
      </trkpt>
      <trkpt lat="44.720884719863534" lon="5.536575866863132">
        <ele>666.20001220703125</ele>
        <time>2014-05-20T07:26:26Z</time>
      </trkpt>
      <trkpt lat="44.72081758081913" lon="5.536496490240097">
        <ele>665.79998779296875</ele>
        <time>2014-05-20T07:26:27Z</time>
      </trkpt>
      <trkpt lat="44.720494961366057" lon="5.536144198849797">
        <ele>665.4000244140625</ele>
        <time>2014-05-20T07:26:32Z</time>
      </trkpt>
      <trkpt lat="44.720425894483924" lon="5.536104887723923">
        <ele>665</ele>
        <time>2014-05-20T07:26:33Z</time>
      </trkpt>
      <trkpt lat="44.720194553956389" lon="5.536004891619086">
        <ele>664</ele>
        <time>2014-05-20T07:26:36Z</time>
      </trkpt>
      <trkpt lat="44.72011542879045" lon="5.535975974053145">
        <ele>663.5999755859375</ele>
        <time>2014-05-20T07:26:37Z</time>
      </trkpt>
      <trkpt lat="44.719970086589456" lon="5.535885952413082">
        <ele>663</ele>
        <time>2014-05-20T07:26:39Z</time>
      </trkpt>
      <trkpt lat="44.719907222315669" lon="5.535825518891215">
        <ele>662.79998779296875</ele>
        <time>2014-05-20T07:26:40Z</time>
      </trkpt>
      <trkpt lat="44.719754504039884" lon="5.535559644922614">
        <ele>661.5999755859375</ele>
        <time>2014-05-20T07:26:43Z</time>
      </trkpt>
      <trkpt lat="44.719705889001489" lon="5.535462414845824">
        <ele>661.4000244140625</ele>
        <time>2014-05-20T07:26:44Z</time>
      </trkpt>
      <trkpt lat="44.719603965058923" lon="5.535272648558021">
        <ele>660.4000244140625</ele>
        <time>2014-05-20T07:26:45Z</time>
      </trkpt>
      <trkpt lat="44.719485444948077" lon="5.535099729895592">
        <ele>659.79998779296875</ele>
        <time>2014-05-20T07:26:48Z</time>
      </trkpt>
      <trkpt lat="44.719341527670622" lon="5.534983221441507">
        <ele>659.4000244140625</ele>
        <time>2014-05-20T07:26:50Z</time>
      </trkpt>
      <trkpt lat="44.719264917075634" lon="5.534935779869556">
        <ele>659</ele>
        <time>2014-05-20T07:26:51Z</time>
      </trkpt>
      <trkpt lat="44.719019746407866" lon="5.534785911440849">
        <ele>657.79998779296875</ele>
        <time>2014-05-20T07:26:54Z</time>
      </trkpt>
      <trkpt lat="44.718846324831247" lon="5.534716928377748">
        <ele>656.79998779296875</ele>
        <time>2014-05-20T07:26:56Z</time>
      </trkpt>
      <trkpt lat="44.718759153038263" lon="5.534683736041188">
        <ele>656.4000244140625</ele>
        <time>2014-05-20T07:26:57Z</time>
      </trkpt>
      <trkpt lat="44.71849269233644" lon="5.53460611961782">
        <ele>655.20001220703125</ele>
        <time>2014-05-20T07:27:00Z</time>
      </trkpt>
      <trkpt lat="44.718320108950138" lon="5.534567898139358">
        <ele>654.79998779296875</ele>
        <time>2014-05-20T07:27:02Z</time>
      </trkpt>
      <trkpt lat="44.718159092590213" lon="5.534507632255554">
        <ele>654.20001220703125</ele>
        <time>2014-05-20T07:27:04Z</time>
      </trkpt>
      <trkpt lat="44.718088936060667" lon="5.534452311694622">
        <ele>653.79998779296875</ele>
        <time>2014-05-20T07:27:05Z</time>
      </trkpt>
      <trkpt lat="44.718026993796229" lon="5.534385927021503">
        <ele>653.79998779296875</ele>
        <time>2014-05-20T07:27:06Z</time>
      </trkpt>
      <trkpt lat="44.71787947230041" lon="5.534151736646891">
        <ele>655</ele>
        <time>2014-05-20T07:27:09Z</time>
      </trkpt>
      <trkpt lat="44.717836137861013" lon="5.534076048061252">
        <ele>655</ele>
        <time>2014-05-20T07:27:10Z</time>
      </trkpt>
      <trkpt lat="44.717517122626305" lon="5.533489482477307">
        <ele>655.4000244140625</ele>
        <time>2014-05-20T07:27:18Z</time>
      </trkpt>
      <trkpt lat="44.7173395100981" lon="5.533181028440595">
        <ele>653.4000244140625</ele>
        <time>2014-05-20T07:27:22Z</time>
      </trkpt>
      <trkpt lat="44.71728335134685" lon="5.533112045377493">
        <ele>652.79998779296875</ele>
        <time>2014-05-20T07:27:23Z</time>
      </trkpt>
      <trkpt lat="44.717224929481745" lon="5.533039122819901">
        <ele>652</ele>
        <time>2014-05-20T07:27:24Z</time>
      </trkpt>
      <trkpt lat="44.717098865658045" lon="5.532894367352128">
        <ele>650.5999755859375</ele>
        <time>2014-05-20T07:27:26Z</time>
      </trkpt>
      <trkpt lat="44.716845732182264" lon="5.532588930800557">
        <ele>649.79998779296875</ele>
        <time>2014-05-20T07:27:30Z</time>
      </trkpt>
      <trkpt lat="44.716784711927176" lon="5.532504022121429">
        <ele>649.4000244140625</ele>
        <time>2014-05-20T07:27:31Z</time>
      </trkpt>
      <trkpt lat="44.71659092232585" lon="5.532234711572528">
        <ele>647.79998779296875</ele>
        <time>2014-05-20T07:27:34Z</time>
      </trkpt>
      <trkpt lat="44.716517748311162" lon="5.532150473445654">
        <ele>647.20001220703125</ele>
        <time>2014-05-20T07:27:35Z</time>
      </trkpt>
      <trkpt lat="44.716440299525857" lon="5.532077383249998">
        <ele>646.5999755859375</ele>
        <time>2014-05-20T07:27:36Z</time>
      </trkpt>
      <trkpt lat="44.716279953718185" lon="5.531967831775546">
        <ele>645.4000244140625</ele>
        <time>2014-05-20T07:27:38Z</time>
      </trkpt>
      <trkpt lat="44.716203259304166" lon="5.53191477432847">
        <ele>645.20001220703125</ele>
        <time>2014-05-20T07:27:39Z</time>
      </trkpt>
      <trkpt lat="44.7161306720227" lon="5.531850149855018">
        <ele>644.4000244140625</ele>
        <time>2014-05-20T07:27:40Z</time>
      </trkpt>
      <trkpt lat="44.716065628454089" lon="5.53177110850811">
        <ele>643.5999755859375</ele>
        <time>2014-05-20T07:27:41Z</time>
      </trkpt>
      <trkpt lat="44.716012235730886" lon="5.531682595610619">
        <ele>643</ele>
        <time>2014-05-20T07:27:42Z</time>
      </trkpt>
      <trkpt lat="44.715970912948251" lon="5.531583689153194">
        <ele>642.20001220703125</ele>
        <time>2014-05-20T07:27:43Z</time>
      </trkpt>
      <trkpt lat="44.715915760025382" lon="5.531358551234007">
        <ele>641.4000244140625</ele>
        <time>2014-05-20T07:27:45Z</time>
      </trkpt>
      <trkpt lat="44.715891117230058" lon="5.531238857656717">
        <ele>641</ele>
        <time>2014-05-20T07:27:46Z</time>
      </trkpt>
      <trkpt lat="44.71584283746779" lon="5.531004332005978">
        <ele>639.79998779296875</ele>
        <time>2014-05-20T07:27:48Z</time>
      </trkpt>
      <trkpt lat="44.715737979859114" lon="5.530589427798986">
        <ele>639.20001220703125</ele>
        <time>2014-05-20T07:27:52Z</time>
      </trkpt>
      <trkpt lat="44.715659189969301" lon="5.530235040932894">
        <ele>639.20001220703125</ele>
        <time>2014-05-20T07:27:56Z</time>
      </trkpt>
      <trkpt lat="44.715639743953943" lon="5.530144767835736">
        <ele>639</ele>
        <time>2014-05-20T07:27:57Z</time>
      </trkpt>
      <trkpt lat="44.715624237433076" lon="5.530049633234739">
        <ele>638.4000244140625</ele>
        <time>2014-05-20T07:27:58Z</time>
      </trkpt>
      <trkpt lat="44.715572772547603" lon="5.529757775366306">
        <ele>637.20001220703125</ele>
        <time>2014-05-20T07:28:01Z</time>
      </trkpt>
      <trkpt lat="44.715503705665469" lon="5.52947798743844">
        <ele>636.5999755859375</ele>
        <time>2014-05-20T07:28:04Z</time>
      </trkpt>
      <trkpt lat="44.715458611026406" lon="5.529297022148967">
        <ele>636</ele>
        <time>2014-05-20T07:28:06Z</time>
      </trkpt>
      <trkpt lat="44.715343276038766" lon="5.528837023302913">
        <ele>636</ele>
        <time>2014-05-20T07:28:11Z</time>
      </trkpt>
      <trkpt lat="44.715177146717906" lon="5.52836143411696">
        <ele>635.4000244140625</ele>
        <time>2014-05-20T07:28:17Z</time>
      </trkpt>
      <trkpt lat="44.715038677677512" lon="5.528267724439502">
        <ele>636</ele>
        <time>2014-05-20T07:28:20Z</time>
      </trkpt>
      <trkpt lat="44.714988889172673" lon="5.528268730267882">
        <ele>636.20001220703125</ele>
        <time>2014-05-20T07:28:21Z</time>
      </trkpt>
      <trkpt lat="44.714841786772013" lon="5.528267808258534">
        <ele>636.79998779296875</ele>
        <time>2014-05-20T07:28:24Z</time>
      </trkpt>
      <trkpt lat="44.714750340208411" lon="5.528255319222808">
        <ele>637.20001220703125</ele>
        <time>2014-05-20T07:28:26Z</time>
      </trkpt>
      <trkpt lat="44.714661324396729" lon="5.528237046673894">
        <ele>637.5999755859375</ele>
        <time>2014-05-20T07:28:28Z</time>
      </trkpt>
      <trkpt lat="44.714573062956333" lon="5.528211062774062">
        <ele>637.5999755859375</ele>
        <time>2014-05-20T07:28:30Z</time>
      </trkpt>
      <trkpt lat="44.714350188151002" lon="5.528148030862212">
        <ele>638.20001220703125</ele>
        <time>2014-05-20T07:28:35Z</time>
      </trkpt>
      <trkpt lat="44.714223453775048" lon="5.528114754706621">
        <ele>638.5999755859375</ele>
        <time>2014-05-20T07:28:38Z</time>
      </trkpt>
      <trkpt lat="44.714085320010781" lon="5.528095392510295">
        <ele>639</ele>
        <time>2014-05-20T07:28:41Z</time>
      </trkpt>
      <trkpt lat="44.713991526514292" lon="5.528097655624151">
        <ele>639</ele>
        <time>2014-05-20T07:28:43Z</time>
      </trkpt>
      <trkpt lat="44.713813327252865" lon="5.528107294812799">
        <ele>639.20001220703125</ele>
        <time>2014-05-20T07:28:47Z</time>
      </trkpt>
      <trkpt lat="44.713768400251865" lon="5.528104947879911">
        <ele>639.4000244140625</ele>
        <time>2014-05-20T07:28:48Z</time>
      </trkpt>
      <trkpt lat="44.713724227622151" lon="5.528111318126321">
        <ele>639.4000244140625</ele>
        <time>2014-05-20T07:28:49Z</time>
      </trkpt>
      <trkpt lat="44.713504202663898" lon="5.528140487149358">
        <ele>640</ele>
        <time>2014-05-20T07:28:54Z</time>
      </trkpt>
      <trkpt lat="44.713226677849889" lon="5.528171248733997">
        <ele>640.4000244140625</ele>
        <time>2014-05-20T07:29:01Z</time>
      </trkpt>
      <trkpt lat="44.713012939319015" lon="5.528221121057868">
        <ele>640</ele>
        <time>2014-05-20T07:29:06Z</time>
      </trkpt>
      <trkpt lat="44.712966838851571" lon="5.528241656720638">
        <ele>639.79998779296875</ele>
        <time>2014-05-20T07:29:07Z</time>
      </trkpt>
      <trkpt lat="44.712595855817199" lon="5.528356237336993">
        <ele>639.4000244140625</ele>
        <time>2014-05-20T07:29:14Z</time>
      </trkpt>
      <trkpt lat="44.712538607418537" lon="5.52835707552731">
        <ele>639.20001220703125</ele>
        <time>2014-05-20T07:29:15Z</time>
      </trkpt>
      <trkpt lat="44.712194949388504" lon="5.528364032506943">
        <ele>639</ele>
        <time>2014-05-20T07:29:21Z</time>
      </trkpt>
      <trkpt lat="44.711776692420244" lon="5.528408959507942">
        <ele>639</ele>
        <time>2014-05-20T07:29:28Z</time>
      </trkpt>
      <trkpt lat="44.711373271420598" lon="5.528408037498593">
        <ele>639</ele>
        <time>2014-05-20T07:29:35Z</time>
      </trkpt>
      <trkpt lat="44.710960043594241" lon="5.528411474078894">
        <ele>638.5999755859375</ele>
        <time>2014-05-20T07:29:42Z</time>
      </trkpt>
      <trkpt lat="44.710618061944842" lon="5.528320530429483">
        <ele>638.79998779296875</ele>
        <time>2014-05-20T07:29:48Z</time>
      </trkpt>
      <trkpt lat="44.710283204913139" lon="5.528168985620141">
        <ele>639</ele>
        <time>2014-05-20T07:29:54Z</time>
      </trkpt>
      <trkpt lat="44.710229979828" lon="5.528153479099274">
        <ele>639</ele>
        <time>2014-05-20T07:29:55Z</time>
      </trkpt>
      <trkpt lat="44.709944156929851" lon="5.528115006163716">
        <ele>638</ele>
        <time>2014-05-20T07:30:00Z</time>
      </trkpt>
      <trkpt lat="44.709769394248724" lon="5.52808977663517">
        <ele>637.5999755859375</ele>
        <time>2014-05-20T07:30:03Z</time>
      </trkpt>
      <trkpt lat="44.709604773670435" lon="5.528011657297611">
        <ele>637.5999755859375</ele>
        <time>2014-05-20T07:30:06Z</time>
      </trkpt>
      <trkpt lat="44.709498323500156" lon="5.527932783588767">
        <ele>637.4000244140625</ele>
        <time>2014-05-20T07:30:08Z</time>
      </trkpt>
      <trkpt lat="44.709286093711853" lon="5.527726756408811">
        <ele>637</ele>
        <time>2014-05-20T07:30:12Z</time>
      </trkpt>
      <trkpt lat="44.709174446761608" lon="5.527618043124676">
        <ele>636.79998779296875</ele>
        <time>2014-05-20T07:30:14Z</time>
      </trkpt>
      <trkpt lat="44.709056681022048" lon="5.527518801391125">
        <ele>635.79998779296875</ele>
        <time>2014-05-20T07:30:16Z</time>
      </trkpt>
      <trkpt lat="44.708876637741923" lon="5.527452165260911">
        <ele>635.20001220703125</ele>
        <time>2014-05-20T07:30:19Z</time>
      </trkpt>
      <trkpt lat="44.708699276670814" lon="5.527453338727355">
        <ele>635.20001220703125</ele>
        <time>2014-05-20T07:30:22Z</time>
      </trkpt>
      <trkpt lat="44.708582600578666" lon="5.527471359819174">
        <ele>634.79998779296875</ele>
        <time>2014-05-20T07:30:24Z</time>
      </trkpt>
      <trkpt lat="44.708217987790704" lon="5.527520813047886">
        <ele>634.20001220703125</ele>
        <time>2014-05-20T07:30:30Z</time>
      </trkpt>
      <trkpt lat="44.708152608945966" lon="5.527519891038537">
        <ele>634.4000244140625</ele>
        <time>2014-05-20T07:30:31Z</time>
      </trkpt>
      <trkpt lat="44.707972398027778" lon="5.527501869946718">
        <ele>633.79998779296875</ele>
        <time>2014-05-20T07:30:34Z</time>
      </trkpt>
      <trkpt lat="44.707914311438799" lon="5.527489129453898">
        <ele>633.79998779296875</ele>
        <time>2014-05-20T07:30:35Z</time>
      </trkpt>
      <trkpt lat="44.707510303705931" lon="5.527386199682951">
        <ele>634.20001220703125</ele>
        <time>2014-05-20T07:30:42Z</time>
      </trkpt>
      <trkpt lat="44.707198664546013" lon="5.52730648778379">
        <ele>633.79998779296875</ele>
        <time>2014-05-20T07:30:48Z</time>
      </trkpt>
      <trkpt lat="44.706863723695278" lon="5.527208251878619">
        <ele>634</ele>
        <time>2014-05-20T07:30:55Z</time>
      </trkpt>
      <trkpt lat="44.70658041536808" lon="5.527176065370441">
        <ele>633.20001220703125</ele>
        <time>2014-05-20T07:31:00Z</time>
      </trkpt>
      <trkpt lat="44.706517970189452" lon="5.527169611304998">
        <ele>632.79998779296875</ele>
        <time>2014-05-20T07:31:01Z</time>
      </trkpt>
      <trkpt lat="44.706320827826858" lon="5.527184279635549">
        <ele>631.20001220703125</ele>
        <time>2014-05-20T07:31:04Z</time>
      </trkpt>
      <trkpt lat="44.706255365163088" lon="5.527208251878619">
        <ele>630.5999755859375</ele>
        <time>2014-05-20T07:31:05Z</time>
      </trkpt>
      <trkpt lat="44.706188729032874" lon="5.527239600196481">
        <ele>630</ele>
        <time>2014-05-20T07:31:06Z</time>
      </trkpt>
      <trkpt lat="44.705908019095659" lon="5.527403885498643">
        <ele>628.79998779296875</ele>
        <time>2014-05-20T07:31:10Z</time>
      </trkpt>
      <trkpt lat="44.705759575590491" lon="5.527500445023179">
        <ele>627.4000244140625</ele>
        <time>2014-05-20T07:31:12Z</time>
      </trkpt>
      <trkpt lat="44.705519769340754" lon="5.52764318883419">
        <ele>626.20001220703125</ele>
        <time>2014-05-20T07:31:15Z</time>
      </trkpt>
      <trkpt lat="44.705355735495687" lon="5.527711417526007">
        <ele>625</ele>
        <time>2014-05-20T07:31:17Z</time>
      </trkpt>
      <trkpt lat="44.705269485712051" lon="5.527721308171749">
        <ele>624.4000244140625</ele>
        <time>2014-05-20T07:31:18Z</time>
      </trkpt>
      <trkpt lat="44.705093884840608" lon="5.527669843286276">
        <ele>624</ele>
        <time>2014-05-20T07:31:20Z</time>
      </trkpt>
      <trkpt lat="44.705013167113066" lon="5.527630029246211">
        <ele>623.5999755859375</ele>
        <time>2014-05-20T07:31:21Z</time>
      </trkpt>
      <trkpt lat="44.704870758578181" lon="5.527515951544046">
        <ele>623.5999755859375</ele>
        <time>2014-05-20T07:31:23Z</time>
      </trkpt>
      <trkpt lat="44.704798841848969" lon="5.527472114190459">
        <ele>623.5999755859375</ele>
        <time>2014-05-20T07:31:24Z</time>
      </trkpt>
      <trkpt lat="44.704727008938789" lon="5.527445878833532">
        <ele>623.79998779296875</ele>
        <time>2014-05-20T07:31:25Z</time>
      </trkpt>
      <trkpt lat="44.704447388648987" lon="5.527412099763751">
        <ele>624.20001220703125</ele>
        <time>2014-05-20T07:31:29Z</time>
      </trkpt>
      <trkpt lat="44.704083111137152" lon="5.527343284338713">
        <ele>623.5999755859375</ele>
        <time>2014-05-20T07:31:35Z</time>
      </trkpt>
      <trkpt lat="44.703760743141174" lon="5.527261896058917">
        <ele>624.4000244140625</ele>
        <time>2014-05-20T07:31:41Z</time>
      </trkpt>
      <trkpt lat="44.70353770069778" lon="5.527159720659256">
        <ele>623.79998779296875</ele>
        <time>2014-05-20T07:31:45Z</time>
      </trkpt>
      <trkpt lat="44.703484307974577" lon="5.527116302400827">
        <ele>623.5999755859375</ele>
        <time>2014-05-20T07:31:46Z</time>
      </trkpt>
      <trkpt lat="44.703251626342535" lon="5.526816733181477">
        <ele>623</ele>
        <time>2014-05-20T07:31:51Z</time>
      </trkpt>
      <trkpt lat="44.703142577782273" lon="5.526710785925388">
        <ele>622.4000244140625</ele>
        <time>2014-05-20T07:31:53Z</time>
      </trkpt>
      <trkpt lat="44.702958427369595" lon="5.526601737365127">
        <ele>622.20001220703125</ele>
        <time>2014-05-20T07:31:56Z</time>
      </trkpt>
      <trkpt lat="44.702772265300155" lon="5.526558319106698">
        <ele>622.4000244140625</ele>
        <time>2014-05-20T07:31:59Z</time>
      </trkpt>
      <trkpt lat="44.702713005244732" lon="5.526544405147433">
        <ele>622.4000244140625</ele>
        <time>2014-05-20T07:32:00Z</time>
      </trkpt>
      <trkpt lat="44.702388206496835" lon="5.526435356587172">
        <ele>622.4000244140625</ele>
        <time>2014-05-20T07:32:06Z</time>
      </trkpt>
      <trkpt lat="44.70205619931221" lon="5.526249781250954">
        <ele>623.20001220703125</ele>
        <time>2014-05-20T07:32:13Z</time>
      </trkpt>
      <trkpt lat="44.701674403622746" lon="5.526039311662316">
        <ele>622.4000244140625</ele>
        <time>2014-05-20T07:32:21Z</time>
      </trkpt>
      <trkpt lat="44.701364021748304" lon="5.525816939771175">
        <ele>622.5999755859375</ele>
        <time>2014-05-20T07:32:28Z</time>
      </trkpt>
      <trkpt lat="44.701062440872192" lon="5.525532122701407">
        <ele>624</ele>
        <time>2014-05-20T07:32:36Z</time>
      </trkpt>
      <trkpt lat="44.700791202485561" lon="5.52529483102262">
        <ele>623.5999755859375</ele>
        <time>2014-05-20T07:32:42Z</time>
      </trkpt>
      <trkpt lat="44.700692715123296" lon="5.525197014212608">
        <ele>622.79998779296875</ele>
        <time>2014-05-20T07:32:44Z</time>
      </trkpt>
      <trkpt lat="44.700529351830482" lon="5.525029711425304">
        <ele>621.79998779296875</ele>
        <time>2014-05-20T07:32:47Z</time>
      </trkpt>
      <trkpt lat="44.700405886396766" lon="5.524912783876061">
        <ele>620.79998779296875</ele>
        <time>2014-05-20T07:32:49Z</time>
      </trkpt>
      <trkpt lat="44.700144622474909" lon="5.524667445570231">
        <ele>619.20001220703125</ele>
        <time>2014-05-20T07:32:53Z</time>
      </trkpt>
      <trkpt lat="44.70000640489161" lon="5.524542303755879">
        <ele>617.5999755859375</ele>
        <time>2014-05-20T07:32:55Z</time>
      </trkpt>
      <trkpt lat="44.699937673285604" lon="5.5244807805866">
        <ele>617.5999755859375</ele>
        <time>2014-05-20T07:32:56Z</time>
      </trkpt>
      <trkpt lat="44.69949284568429" lon="5.524152629077435">
        <ele>616.5999755859375</ele>
        <time>2014-05-20T07:33:02Z</time>
      </trkpt>
      <trkpt lat="44.699327973648906" lon="5.524062188342214">
        <ele>615.4000244140625</ele>
        <time>2014-05-20T07:33:04Z</time>
      </trkpt>
      <trkpt lat="44.699086155742407" lon="5.523876529186964">
        <ele>613.79998779296875</ele>
        <time>2014-05-20T07:33:07Z</time>
      </trkpt>
      <trkpt lat="44.69901155680418" lon="5.523791620507836">
        <ele>613</ele>
        <time>2014-05-20T07:33:08Z</time>
      </trkpt>
      <trkpt lat="44.698940310627222" lon="5.523703191429377">
        <ele>612.20001220703125</ele>
        <time>2014-05-20T07:33:09Z</time>
      </trkpt>
      <trkpt lat="44.698803937062621" lon="5.523534128442407">
        <ele>611.20001220703125</ele>
        <time>2014-05-20T07:33:11Z</time>
      </trkpt>
      <trkpt lat="44.698732942342758" lon="5.523460200056434">
        <ele>610.4000244140625</ele>
        <time>2014-05-20T07:33:12Z</time>
      </trkpt>
      <trkpt lat="44.698657421395183" lon="5.523394905030727">
        <ele>610</ele>
        <time>2014-05-20T07:33:13Z</time>
      </trkpt>
      <trkpt lat="44.698495734483004" lon="5.523297088220716">
        <ele>609.4000244140625</ele>
        <time>2014-05-20T07:33:15Z</time>
      </trkpt>
      <trkpt lat="44.698041770607233" lon="5.523091061040759">
        <ele>610</ele>
        <time>2014-05-20T07:33:21Z</time>
      </trkpt>
      <trkpt lat="44.697968512773514" lon="5.5230578687042">
        <ele>610.5999755859375</ele>
        <time>2014-05-20T07:33:22Z</time>
      </trkpt>
      <trkpt lat="44.697539191693068" lon="5.522908084094524">
        <ele>611</ele>
        <time>2014-05-20T07:33:28Z</time>
      </trkpt>
      <trkpt lat="44.697117330506444" lon="5.522882770746946">
        <ele>610.5999755859375</ele>
        <time>2014-05-20T07:33:34Z</time>
      </trkpt>
      <trkpt lat="44.696780797094107" lon="5.522952256724238">
        <ele>610.4000244140625</ele>
        <time>2014-05-20T07:33:39Z</time>
      </trkpt>
      <trkpt lat="44.696637382730842" lon="5.522961644455791">
        <ele>609.4000244140625</ele>
        <time>2014-05-20T07:33:41Z</time>
      </trkpt>
      <trkpt lat="44.696566639468074" lon="5.522949239239097">
        <ele>609.20001220703125</ele>
        <time>2014-05-20T07:33:42Z</time>
      </trkpt>
      <trkpt lat="44.696502685546875" lon="5.522928955033422">
        <ele>608.79998779296875</ele>
        <time>2014-05-20T07:33:43Z</time>
      </trkpt>
      <trkpt lat="44.696215353906155" lon="5.522804399952292">
        <ele>609.20001220703125</ele>
        <time>2014-05-20T07:33:48Z</time>
      </trkpt>
      <trkpt lat="44.695920227095485" lon="5.522793922573328">
        <ele>609.5999755859375</ele>
        <time>2014-05-20T07:33:53Z</time>
      </trkpt>
      <trkpt lat="44.695860967040062" lon="5.522817308083177">
        <ele>609.4000244140625</ele>
        <time>2014-05-20T07:33:54Z</time>
      </trkpt>
      <trkpt lat="44.695667596533895" lon="5.522875394672155">
        <ele>608</ele>
        <time>2014-05-20T07:33:57Z</time>
      </trkpt>
      <trkpt lat="44.695542203262448" lon="5.522854188457131">
        <ele>606.5999755859375</ele>
        <time>2014-05-20T07:33:59Z</time>
      </trkpt>
      <trkpt lat="44.695427874103189" lon="5.522805992513895">
        <ele>605.79998779296875</ele>
        <time>2014-05-20T07:34:01Z</time>
      </trkpt>
      <trkpt lat="44.695321172475815" lon="5.522746983915567">
        <ele>606.4000244140625</ele>
        <time>2014-05-20T07:34:03Z</time>
      </trkpt>
      <trkpt lat="44.695084048435092" lon="5.522559648379684">
        <ele>607.4000244140625</ele>
        <time>2014-05-20T07:34:08Z</time>
      </trkpt>
      <trkpt lat="44.695037696510553" lon="5.522520840167999">
        <ele>607.79998779296875</ele>
        <time>2014-05-20T07:34:09Z</time>
      </trkpt>
      <trkpt lat="44.694721028208733" lon="5.522224539890885">
        <ele>607.4000244140625</ele>
        <time>2014-05-20T07:34:16Z</time>
      </trkpt>
      <trkpt lat="44.694483568891883" lon="5.522010466083884">
        <ele>606.5999755859375</ele>
        <time>2014-05-20T07:34:21Z</time>
      </trkpt>
      <trkpt lat="44.694372424855828" lon="5.521935364231467">
        <ele>606.4000244140625</ele>
        <time>2014-05-20T07:34:23Z</time>
      </trkpt>
      <trkpt lat="44.694311236962676" lon="5.521906614303589">
        <ele>606.20001220703125</ele>
        <time>2014-05-20T07:34:24Z</time>
      </trkpt>
      <trkpt lat="44.694184167310596" lon="5.521859088912606">
        <ele>605</ele>
        <time>2014-05-20T07:34:26Z</time>
      </trkpt>
      <trkpt lat="44.694057516753674" lon="5.521836457774043">
        <ele>603.5999755859375</ele>
        <time>2014-05-20T07:34:28Z</time>
      </trkpt>
      <trkpt lat="44.693996915593743" lon="5.521834446117282">
        <ele>603</ele>
        <time>2014-05-20T07:34:29Z</time>
      </trkpt>
      <trkpt lat="44.693934721872211" lon="5.521834949031472">
        <ele>602.4000244140625</ele>
        <time>2014-05-20T07:34:30Z</time>
      </trkpt>
      <trkpt lat="44.693674715235829" lon="5.521839307621121">
        <ele>601.20001220703125</ele>
        <time>2014-05-20T07:34:34Z</time>
      </trkpt>
      <trkpt lat="44.693614197894931" lon="5.521831344813108">
        <ele>601.20001220703125</ele>
        <time>2014-05-20T07:34:35Z</time>
      </trkpt>
      <trkpt lat="44.693558709695935" lon="5.521819358691573">
        <ele>601.20001220703125</ele>
        <time>2014-05-20T07:34:36Z</time>
      </trkpt>
      <trkpt lat="44.693460389971733" lon="5.521772000938654">
        <ele>602.4000244140625</ele>
        <time>2014-05-20T07:34:38Z</time>
      </trkpt>
      <trkpt lat="44.693412445485592" lon="5.521738389506936">
        <ele>602.79998779296875</ele>
        <time>2014-05-20T07:34:39Z</time>
      </trkpt>
      <trkpt lat="44.693169621750712" lon="5.521481903269887">
        <ele>601.5999755859375</ele>
        <time>2014-05-20T07:34:45Z</time>
      </trkpt>
      <trkpt lat="44.692926798015833" lon="5.521042859181762">
        <ele>602.79998779296875</ele>
        <time>2014-05-20T07:34:53Z</time>
      </trkpt>
      <trkpt lat="44.692745162174106" lon="5.520732561126351">
        <ele>602.20001220703125</ele>
        <time>2014-05-20T07:34:59Z</time>
      </trkpt>
      <trkpt lat="44.692702665925026" lon="5.520688556134701">
        <ele>602.20001220703125</ele>
        <time>2014-05-20T07:35:00Z</time>
      </trkpt>
      <trkpt lat="44.692561430856586" lon="5.520575400441885">
        <ele>602.5999755859375</ele>
        <time>2014-05-20T07:35:03Z</time>
      </trkpt>
      <trkpt lat="44.692416759207845" lon="5.520468028262258">
        <ele>602.79998779296875</ele>
        <time>2014-05-20T07:35:06Z</time>
      </trkpt>
      <trkpt lat="44.692119956016541" lon="5.520279770717025">
        <ele>601.20001220703125</ele>
        <time>2014-05-20T07:35:12Z</time>
      </trkpt>
      <trkpt lat="44.692071005702019" lon="5.520255379378796">
        <ele>601.20001220703125</ele>
        <time>2014-05-20T07:35:13Z</time>
      </trkpt>
      <trkpt lat="44.691821644082665" lon="5.520053962245584">
        <ele>601</ele>
        <time>2014-05-20T07:35:19Z</time>
      </trkpt>
      <trkpt lat="44.691750900819898" lon="5.519972741603851">
        <ele>600.20001220703125</ele>
        <time>2014-05-20T07:35:21Z</time>
      </trkpt>
      <trkpt lat="44.691526768729091" lon="5.519768055528402">
        <ele>601.20001220703125</ele>
        <time>2014-05-20T07:35:27Z</time>
      </trkpt>
      <trkpt lat="44.691201634705067" lon="5.519577199593186">
        <ele>601.5999755859375</ele>
        <time>2014-05-20T07:35:34Z</time>
      </trkpt>
      <trkpt lat="44.690782707184553" lon="5.51932037808001">
        <ele>600.20001220703125</ele>
        <time>2014-05-20T07:35:42Z</time>
      </trkpt>
      <trkpt lat="44.690619092434645" lon="5.519275283440948">
        <ele>600</ele>
        <time>2014-05-20T07:35:45Z</time>
      </trkpt>
      <trkpt lat="44.690442150458694" lon="5.519236894324422">
        <ele>599.79998779296875</ele>
        <time>2014-05-20T07:35:48Z</time>
      </trkpt>
      <trkpt lat="44.689981229603291" lon="5.519139161333442">
        <ele>598.5999755859375</ele>
        <time>2014-05-20T07:35:56Z</time>
      </trkpt>
      <trkpt lat="44.689867487177253" lon="5.51909951493144">
        <ele>597</ele>
        <time>2014-05-20T07:35:58Z</time>
      </trkpt>
      <trkpt lat="44.689669674262404" lon="5.519010499119759">
        <ele>597.79998779296875</ele>
        <time>2014-05-20T07:36:02Z</time>
      </trkpt>
      <trkpt lat="44.689625082537532" lon="5.518986107781529">
        <ele>597.20001220703125</ele>
        <time>2014-05-20T07:36:03Z</time>
      </trkpt>
      <trkpt lat="44.689424922689795" lon="5.518869096413255">
        <ele>595.79998779296875</ele>
        <time>2014-05-20T07:36:07Z</time>
      </trkpt>
      <trkpt lat="44.689321322366595" lon="5.518806064501405">
        <ele>595.79998779296875</ele>
        <time>2014-05-20T07:36:09Z</time>
      </trkpt>
      <trkpt lat="44.688934246078134" lon="5.518486797809601">
        <ele>595.79998779296875</ele>
        <time>2014-05-20T07:36:17Z</time>
      </trkpt>
      <trkpt lat="44.688812457025051" lon="5.518337516114116">
        <ele>594.20001220703125</ele>
        <time>2014-05-20T07:36:20Z</time>
      </trkpt>
      <trkpt lat="44.688742719590664" lon="5.518232239410281">
        <ele>593</ele>
        <time>2014-05-20T07:36:22Z</time>
      </trkpt>
      <trkpt lat="44.688674071803689" lon="5.51811589859426">
        <ele>593.5999755859375</ele>
        <time>2014-05-20T07:36:24Z</time>
      </trkpt>
      <trkpt lat="44.68852068297565" lon="5.517882211133838">
        <ele>591.79998779296875</ele>
        <time>2014-05-20T07:36:28Z</time>
      </trkpt>
      <trkpt lat="44.688441893085837" lon="5.517765954136848">
        <ele>589.79998779296875</ele>
        <time>2014-05-20T07:36:30Z</time>
      </trkpt>
      <trkpt lat="44.688365869224072" lon="5.517650283873081">
        <ele>588.79998779296875</ele>
        <time>2014-05-20T07:36:32Z</time>
      </trkpt>
      <trkpt lat="44.688266795128584" lon="5.517458505928516">
        <ele>589.20001220703125</ele>
        <time>2014-05-20T07:36:35Z</time>
      </trkpt>
      <trkpt lat="44.688194543123245" lon="5.517242588102818">
        <ele>589</ele>
        <time>2014-05-20T07:36:38Z</time>
      </trkpt>
      <trkpt lat="44.688134444877505" lon="5.517020635306835">
        <ele>588.5999755859375</ele>
        <time>2014-05-20T07:36:41Z</time>
      </trkpt>
      <trkpt lat="44.68809706158936" lon="5.516863223165274">
        <ele>586.79998779296875</ele>
        <time>2014-05-20T07:36:43Z</time>
      </trkpt>
      <trkpt lat="44.688046267256141" lon="5.516622746363282">
        <ele>586.79998779296875</ele>
        <time>2014-05-20T07:36:46Z</time>
      </trkpt>
      <trkpt lat="44.687965465709567" lon="5.516120670363307">
        <ele>588.20001220703125</ele>
        <time>2014-05-20T07:36:52Z</time>
      </trkpt>
      <trkpt lat="44.687957419082522" lon="5.516029307618737">
        <ele>588.4000244140625</ele>
        <time>2014-05-20T07:36:53Z</time>
      </trkpt>
      <trkpt lat="44.687945516780019" lon="5.515507617965341">
        <ele>589.20001220703125</ele>
        <time>2014-05-20T07:36:58Z</time>
      </trkpt>
      <trkpt lat="44.68805305659771" lon="5.515082739293575">
        <ele>589.5999755859375</ele>
        <time>2014-05-20T07:37:02Z</time>
      </trkpt>
      <trkpt lat="44.688219521194696" lon="5.514830527827144">
        <ele>590.20001220703125</ele>
        <time>2014-05-20T07:37:05Z</time>
      </trkpt>
      <trkpt lat="44.688274255022407" lon="5.514745954424143">
        <ele>590.4000244140625</ele>
        <time>2014-05-20T07:37:06Z</time>
      </trkpt>
      <trkpt lat="44.688593605533242" lon="5.514280423521996">
        <ele>590.5999755859375</ele>
        <time>2014-05-20T07:37:12Z</time>
      </trkpt>
      <trkpt lat="44.68863501213491" lon="5.514193754643202">
        <ele>590.4000244140625</ele>
        <time>2014-05-20T07:37:13Z</time>
      </trkpt>
      <trkpt lat="44.688728302717209" lon="5.513905500993133">
        <ele>589</ele>
        <time>2014-05-20T07:37:16Z</time>
      </trkpt>
      <trkpt lat="44.68875621445477" lon="5.513699138537049">
        <ele>589.20001220703125</ele>
        <time>2014-05-20T07:37:18Z</time>
      </trkpt>
      <trkpt lat="44.688788820058107" lon="5.513492859899998">
        <ele>590.5999755859375</ele>
        <time>2014-05-20T07:37:20Z</time>
      </trkpt>
      <trkpt lat="44.688813798129559" lon="5.513394707813859">
        <ele>591.4000244140625</ele>
        <time>2014-05-20T07:37:21Z</time>
      </trkpt>
      <trkpt lat="44.688841458410025" lon="5.513294879347086">
        <ele>591.79998779296875</ele>
        <time>2014-05-20T07:37:22Z</time>
      </trkpt>
      <trkpt lat="44.68901907093823" lon="5.512722479179502">
        <ele>593</ele>
        <time>2014-05-20T07:37:28Z</time>
      </trkpt>
      <trkpt lat="44.689053855836391" lon="5.512633547186852">
        <ele>593.20001220703125</ele>
        <time>2014-05-20T07:37:29Z</time>
      </trkpt>
      <trkpt lat="44.689284861087799" lon="5.512259881943464">
        <ele>593.79998779296875</ele>
        <time>2014-05-20T07:37:34Z</time>
      </trkpt>
      <trkpt lat="44.689726000651717" lon="5.511711202561855">
        <ele>594.20001220703125</ele>
        <time>2014-05-20T07:37:43Z</time>
      </trkpt>
      <trkpt lat="44.689936470240355" lon="5.511286156252027">
        <ele>593.79998779296875</ele>
        <time>2014-05-20T07:37:49Z</time>
      </trkpt>
      <trkpt lat="44.690119698643684" lon="5.510885082185268">
        <ele>593.4000244140625</ele>
        <time>2014-05-20T07:37:54Z</time>
      </trkpt>
      <trkpt lat="44.690214246511459" lon="5.510739572346211">
        <ele>593</ele>
        <time>2014-05-20T07:37:56Z</time>
      </trkpt>
      <trkpt lat="44.690405772998929" lon="5.510483840480447">
        <ele>592.79998779296875</ele>
        <time>2014-05-20T07:38:00Z</time>
      </trkpt>
      <trkpt lat="44.690710790455341" lon="5.510040940716863">
        <ele>592</ele>
        <time>2014-05-20T07:38:07Z</time>
      </trkpt>
      <trkpt lat="44.690742390230298" lon="5.509974220767617">
        <ele>591.5999755859375</ele>
        <time>2014-05-20T07:38:08Z</time>
      </trkpt>
      <trkpt lat="44.690790083259344" lon="5.509821502491832">
        <ele>591.20001220703125</ele>
        <time>2014-05-20T07:38:10Z</time>
      </trkpt>
      <trkpt lat="44.690818414092064" lon="5.509651182219386">
        <ele>591</ele>
        <time>2014-05-20T07:38:12Z</time>
      </trkpt>
      <trkpt lat="44.690811121836305" lon="5.509377596899867">
        <ele>591</ele>
        <time>2014-05-20T07:38:15Z</time>
      </trkpt>
      <trkpt lat="44.69080944545567" lon="5.50928539596498">
        <ele>591</ele>
        <time>2014-05-20T07:38:16Z</time>
      </trkpt>
      <trkpt lat="44.690823191776872" lon="5.509091941639781">
        <ele>591</ele>
        <time>2014-05-20T07:38:18Z</time>
      </trkpt>
      <trkpt lat="44.690877003595233" lon="5.508910221979022">
        <ele>591</ele>
        <time>2014-05-20T07:38:20Z</time>
      </trkpt>
      <trkpt lat="44.691052855923772" lon="5.508261881768704">
        <ele>591.20001220703125</ele>
        <time>2014-05-20T07:38:27Z</time>
      </trkpt>
      <trkpt lat="44.691156037151814" lon="5.507666850462556">
        <ele>589.79998779296875</ele>
        <time>2014-05-20T07:38:33Z</time>
      </trkpt>
      <trkpt lat="44.691230216994882" lon="5.50729176029563">
        <ele>590</ele>
        <time>2014-05-20T07:38:37Z</time>
      </trkpt>
      <trkpt lat="44.691414115950465" lon="5.506787337362766">
        <ele>590</ele>
        <time>2014-05-20T07:38:43Z</time>
      </trkpt>
      <trkpt lat="44.691689210012555" lon="5.506160454824567">
        <ele>589.4000244140625</ele>
        <time>2014-05-20T07:38:51Z</time>
      </trkpt>
      <trkpt lat="44.691804712638259" lon="5.505725517868996">
        <ele>589.4000244140625</ele>
        <time>2014-05-20T07:38:56Z</time>
      </trkpt>
      <trkpt lat="44.691879311576486" lon="5.505146915093064">
        <ele>589</ele>
        <time>2014-05-20T07:39:02Z</time>
      </trkpt>
      <trkpt lat="44.69193572178483" lon="5.50484717823565">
        <ele>588.5999755859375</ele>
        <time>2014-05-20T07:39:05Z</time>
      </trkpt>
      <trkpt lat="44.691983750090003" lon="5.504658669233322">
        <ele>588</ele>
        <time>2014-05-20T07:39:07Z</time>
      </trkpt>
      <trkpt lat="44.692013757303357" lon="5.504569988697767">
        <ele>588.20001220703125</ele>
        <time>2014-05-20T07:39:08Z</time>
      </trkpt>
      <trkpt lat="44.692238140851259" lon="5.503942770883441">
        <ele>588</ele>
        <time>2014-05-20T07:39:15Z</time>
      </trkpt>
      <trkpt lat="44.692275943234563" lon="5.503748059272766">
        <ele>589</ele>
        <time>2014-05-20T07:39:17Z</time>
      </trkpt>
      <trkpt lat="44.692263789474964" lon="5.503546139225364">
        <ele>588.5999755859375</ele>
        <time>2014-05-20T07:39:19Z</time>
      </trkpt>
      <trkpt lat="44.692151974886656" lon="5.503155374899507">
        <ele>587.79998779296875</ele>
        <time>2014-05-20T07:39:23Z</time>
      </trkpt>
      <trkpt lat="44.692041082307696" lon="5.502646761015058">
        <ele>588.20001220703125</ele>
        <time>2014-05-20T07:39:28Z</time>
      </trkpt>
      <trkpt lat="44.692063294351101" lon="5.502263372763991">
        <ele>588.79998779296875</ele>
        <time>2014-05-20T07:39:32Z</time>
      </trkpt>
      <trkpt lat="44.69208768568933" lon="5.50216706469655">
        <ele>589</ele>
        <time>2014-05-20T07:39:33Z</time>
      </trkpt>
      <trkpt lat="44.692155243828893" lon="5.501895658671856">
        <ele>588</ele>
        <time>2014-05-20T07:39:36Z</time>
      </trkpt>
      <trkpt lat="44.692253731191158" lon="5.501359552145004">
        <ele>587.5999755859375</ele>
        <time>2014-05-20T07:39:42Z</time>
      </trkpt>
      <trkpt lat="44.6922601852566" lon="5.501266680657864">
        <ele>587.5999755859375</ele>
        <time>2014-05-20T07:39:43Z</time>
      </trkpt>
      <trkpt lat="44.692257922142744" lon="5.500663435086608">
        <ele>587</ele>
        <time>2014-05-20T07:39:49Z</time>
      </trkpt>
      <trkpt lat="44.692189609631896" lon="5.500133279711008">
        <ele>586.4000244140625</ele>
        <time>2014-05-20T07:39:54Z</time>
      </trkpt>
      <trkpt lat="44.692174773663282" lon="5.500018196180463">
        <ele>586.20001220703125</ele>
        <time>2014-05-20T07:39:55Z</time>
      </trkpt>
      <trkpt lat="44.692131690680981" lon="5.499654170125723">
        <ele>586.20001220703125</ele>
        <time>2014-05-20T07:39:58Z</time>
      </trkpt>
      <trkpt lat="44.692168235778809" lon="5.499398102983832">
        <ele>586.79998779296875</ele>
        <time>2014-05-20T07:40:00Z</time>
      </trkpt>
      <trkpt lat="44.692302849143744" lon="5.499052265658975">
        <ele>585.79998779296875</ele>
        <time>2014-05-20T07:40:03Z</time>
      </trkpt>
      <trkpt lat="44.692398905754089" lon="5.49882922321558">
        <ele>585</ele>
        <time>2014-05-20T07:40:05Z</time>
      </trkpt>
      <trkpt lat="44.692498734220862" lon="5.498612048104405">
        <ele>583.5999755859375</ele>
        <time>2014-05-20T07:40:07Z</time>
      </trkpt>
      <trkpt lat="44.692595796659589" lon="5.498397555202246">
        <ele>582.20001220703125</ele>
        <time>2014-05-20T07:40:09Z</time>
      </trkpt>
      <trkpt lat="44.692694116383791" lon="5.498191528022289">
        <ele>580.5999755859375</ele>
        <time>2014-05-20T07:40:11Z</time>
      </trkpt>
      <trkpt lat="44.692975580692291" lon="5.497623151168227">
        <ele>580.5999755859375</ele>
        <time>2014-05-20T07:40:17Z</time>
      </trkpt>
      <trkpt lat="44.693272886797786" lon="5.496981097385287">
        <ele>579.4000244140625</ele>
        <time>2014-05-20T07:40:24Z</time>
      </trkpt>
      <trkpt lat="44.693313287571073" lon="5.496894596144557">
        <ele>579.20001220703125</ele>
        <time>2014-05-20T07:40:25Z</time>
      </trkpt>
      <trkpt lat="44.69347539357841" lon="5.496556386351585">
        <ele>578</ele>
        <time>2014-05-20T07:40:29Z</time>
      </trkpt>
      <trkpt lat="44.693576730787754" lon="5.496297804638743">
        <ele>577.79998779296875</ele>
        <time>2014-05-20T07:40:32Z</time>
      </trkpt>
      <trkpt lat="44.693599278107285" lon="5.496203424409032">
        <ele>577.79998779296875</ele>
        <time>2014-05-20T07:40:33Z</time>
      </trkpt>
      <trkpt lat="44.693638337776065" lon="5.495896395295858">
        <ele>577</ele>
        <time>2014-05-20T07:40:36Z</time>
      </trkpt>
      <trkpt lat="44.693709751591086" lon="5.495129954069853">
        <ele>575.5999755859375</ele>
        <time>2014-05-20T07:40:43Z</time>
      </trkpt>
      <trkpt lat="44.693720061331987" lon="5.495012439787388">
        <ele>575.4000244140625</ele>
        <time>2014-05-20T07:40:44Z</time>
      </trkpt>
      <trkpt lat="44.693754343315959" lon="5.494644390419126">
        <ele>574.4000244140625</ele>
        <time>2014-05-20T07:40:47Z</time>
      </trkpt>
      <trkpt lat="44.693790804594755" lon="5.494263935834169">
        <ele>573.20001220703125</ele>
        <time>2014-05-20T07:40:50Z</time>
      </trkpt>
      <trkpt lat="44.693802874535322" lon="5.494135525077581">
        <ele>573</ele>
        <time>2014-05-20T07:40:51Z</time>
      </trkpt>
      <trkpt lat="44.693870767951012" lon="5.493341255933046">
        <ele>571.79998779296875</ele>
        <time>2014-05-20T07:40:57Z</time>
      </trkpt>
      <trkpt lat="44.693892309442163" lon="5.493083344772458">
        <ele>570.5999755859375</ele>
        <time>2014-05-20T07:40:59Z</time>
      </trkpt>
      <trkpt lat="44.6939508151263" lon="5.492491498589516">
        <ele>569.5999755859375</ele>
        <time>2014-05-20T07:41:04Z</time>
      </trkpt>
      <trkpt lat="44.693972021341324" lon="5.492252614349127">
        <ele>568.4000244140625</ele>
        <time>2014-05-20T07:41:06Z</time>
      </trkpt>
      <trkpt lat="44.694028683006763" lon="5.491559179499745">
        <ele>567.4000244140625</ele>
        <time>2014-05-20T07:41:12Z</time>
      </trkpt>
      <trkpt lat="44.694062881171703" lon="5.491065820679069">
        <ele>566.5999755859375</ele>
        <time>2014-05-20T07:41:17Z</time>
      </trkpt>
      <trkpt lat="44.694106802344322" lon="5.490688635036349">
        <ele>566.5999755859375</ele>
        <time>2014-05-20T07:41:22Z</time>
      </trkpt>
      <trkpt lat="44.694110658019781" lon="5.490619400516152">
        <ele>566.5999755859375</ele>
        <time>2014-05-20T07:41:23Z</time>
      </trkpt>
      <trkpt lat="44.694115854799747" lon="5.490553099662066">
        <ele>566.4000244140625</ele>
        <time>2014-05-20T07:41:24Z</time>
      </trkpt>
      <trkpt lat="44.694130942225456" lon="5.490488056093454">
        <ele>566.20001220703125</ele>
        <time>2014-05-20T07:41:25Z</time>
      </trkpt>
      <trkpt lat="44.694208474829793" lon="5.490317987278104">
        <ele>565.79998779296875</ele>
        <time>2014-05-20T07:41:28Z</time>
      </trkpt>
      <trkpt lat="44.694238398224115" lon="5.490262163802981">
        <ele>565.79998779296875</ele>
        <time>2014-05-20T07:41:29Z</time>
      </trkpt>
      <trkpt lat="44.694347530603409" lon="5.490054627880454">
        <ele>566</ele>
        <time>2014-05-20T07:41:33Z</time>
      </trkpt>
      <trkpt lat="44.694395642727613" lon="5.489983297884464">
        <ele>566.20001220703125</ele>
        <time>2014-05-20T07:41:35Z</time>
      </trkpt>
      <trkpt lat="44.694439060986042" lon="5.489956056699157">
        <ele>566.79998779296875</ele>
        <time>2014-05-20T07:41:39Z</time>
      </trkpt>
      <trkpt lat="44.694409472867846" lon="5.489902328699827">
        <ele>566.4000244140625</ele>
        <time>2014-05-20T07:42:24Z</time>
      </trkpt>
      <trkpt lat="44.69438910484314" lon="5.489834100008011">
        <ele>566.4000244140625</ele>
        <time>2014-05-20T07:42:26Z</time>
      </trkpt>
      <trkpt lat="44.694415759295225" lon="5.489709293469787">
        <ele>566.20001220703125</ele>
        <time>2014-05-20T07:42:29Z</time>
      </trkpt>
      <trkpt lat="44.694423219189048" lon="5.48966302536428">
        <ele>566.20001220703125</ele>
        <time>2014-05-20T07:42:30Z</time>
      </trkpt>
      <trkpt lat="44.694484490901232" lon="5.489346189424396">
        <ele>566.4000244140625</ele>
        <time>2014-05-20T07:42:37Z</time>
      </trkpt>
      <trkpt lat="44.694535369053483" lon="5.489026000723243">
        <ele>566</ele>
        <time>2014-05-20T07:42:43Z</time>
      </trkpt>
      <trkpt lat="44.694549702107906" lon="5.488906977698207">
        <ele>565.79998779296875</ele>
        <time>2014-05-20T07:42:45Z</time>
      </trkpt>
      <trkpt lat="44.694555317983031" lon="5.488704387098551">
        <ele>566.4000244140625</ele>
        <time>2014-05-20T07:42:48Z</time>
      </trkpt>
      <trkpt lat="44.694536374881864" lon="5.488272719085217">
        <ele>566.4000244140625</ele>
        <time>2014-05-20T07:42:54Z</time>
      </trkpt>
      <trkpt lat="44.694502092897892" lon="5.487625217065215">
        <ele>566.5999755859375</ele>
        <time>2014-05-20T07:43:03Z</time>
      </trkpt>
      <trkpt lat="44.694497901946306" lon="5.487497057765722">
        <ele>566.79998779296875</ele>
        <time>2014-05-20T07:43:05Z</time>
      </trkpt>
      <trkpt lat="44.694477869197726" lon="5.487299831584096">
        <ele>566.5999755859375</ele>
        <time>2014-05-20T07:43:08Z</time>
      </trkpt>
      <trkpt lat="44.694454902783036" lon="5.487040327861905">
        <ele>567.4000244140625</ele>
        <time>2014-05-20T07:43:12Z</time>
      </trkpt>
      <trkpt lat="44.694441240280867" lon="5.486845951527357">
        <ele>568</ele>
        <time>2014-05-20T07:43:15Z</time>
      </trkpt>
      <trkpt lat="44.694424644112587" lon="5.486652664840221">
        <ele>568.4000244140625</ele>
        <time>2014-05-20T07:43:18Z</time>
      </trkpt>
      <trkpt lat="44.694405533373356" lon="5.486448733136058">
        <ele>569</ele>
        <time>2014-05-20T07:43:22Z</time>
      </trkpt>
      <trkpt lat="44.694410311058164" lon="5.486411266028881">
        <ele>568.4000244140625</ele>
        <time>2014-05-20T07:54:49Z</time>
      </trkpt>
      <trkpt lat="44.694418692961335" lon="5.486395759508014">
        <ele>568.5999755859375</ele>
        <time>2014-05-20T07:54:50Z</time>
      </trkpt>
      <trkpt lat="44.69440477900207" lon="5.48629442229867">
        <ele>568.4000244140625</ele>
        <time>2014-05-20T07:54:54Z</time>
      </trkpt>
      <trkpt lat="44.694385165348649" lon="5.486048497259617">
        <ele>568.5999755859375</ele>
        <time>2014-05-20T07:55:00Z</time>
      </trkpt>
      <trkpt lat="44.694353230297565" lon="5.485675670206547">
        <ele>569</ele>
        <time>2014-05-20T07:55:08Z</time>
      </trkpt>
      <trkpt lat="44.694316182285547" lon="5.485374759882689">
        <ele>569.4000244140625</ele>
        <time>2014-05-20T07:55:15Z</time>
      </trkpt>
      <trkpt lat="44.694316266104579" lon="5.485333520919085">
        <ele>569.5999755859375</ele>
        <time>2014-05-20T07:55:16Z</time>
      </trkpt>
      <trkpt lat="44.6942547429353" lon="5.485009560361505">
        <ele>569.79998779296875</ele>
        <time>2014-05-20T07:55:23Z</time>
      </trkpt>
      <trkpt lat="44.694211408495903" lon="5.484775202348828">
        <ele>570</ele>
        <time>2014-05-20T07:55:28Z</time>
      </trkpt>
      <trkpt lat="44.694201936945319" lon="5.484379073604941">
        <ele>570</ele>
        <time>2014-05-20T07:55:35Z</time>
      </trkpt>
      <trkpt lat="44.694187184795737" lon="5.484317298978567">
        <ele>569.79998779296875</ele>
        <time>2014-05-20T07:55:36Z</time>
      </trkpt>
      <trkpt lat="44.694131361320615" lon="5.484022255986929">
        <ele>568.5999755859375</ele>
        <time>2014-05-20T07:55:40Z</time>
      </trkpt>
      <trkpt lat="44.694112585857511" lon="5.483945058658719">
        <ele>568.4000244140625</ele>
        <time>2014-05-20T07:55:41Z</time>
      </trkpt>
      <trkpt lat="44.694092888385057" lon="5.483858557417989">
        <ele>567.79998779296875</ele>
        <time>2014-05-20T07:55:42Z</time>
      </trkpt>
      <trkpt lat="44.694055086001754" lon="5.483686979860067">
        <ele>567.4000244140625</ele>
        <time>2014-05-20T07:55:44Z</time>
      </trkpt>
      <trkpt lat="44.693989790976048" lon="5.483429152518511">
        <ele>567</ele>
        <time>2014-05-20T07:55:47Z</time>
      </trkpt>
      <trkpt lat="44.693838749080896" lon="5.482835797592998">
        <ele>567.4000244140625</ele>
        <time>2014-05-20T07:55:55Z</time>
      </trkpt>
      <trkpt lat="44.693698938935995" lon="5.482299607247114">
        <ele>568.20001220703125</ele>
        <time>2014-05-20T07:56:03Z</time>
      </trkpt>
      <trkpt lat="44.693579915910959" lon="5.481878835707903">
        <ele>568.4000244140625</ele>
        <time>2014-05-20T07:56:09Z</time>
      </trkpt>
      <trkpt lat="44.693561475723982" lon="5.481813289225102">
        <ele>568.20001220703125</ele>
        <time>2014-05-20T07:56:10Z</time>
      </trkpt>
      <trkpt lat="44.693381851539016" lon="5.481136450544">
        <ele>568.79998779296875</ele>
        <time>2014-05-20T07:56:20Z</time>
      </trkpt>
      <trkpt lat="44.693184792995453" lon="5.480412421748042">
        <ele>568</ele>
        <time>2014-05-20T07:56:30Z</time>
      </trkpt>
      <trkpt lat="44.693090664222836" lon="5.480083599686623">
        <ele>566.79998779296875</ele>
        <time>2014-05-20T07:56:34Z</time>
      </trkpt>
      <trkpt lat="44.692989410832524" lon="5.479714628309012">
        <ele>566.20001220703125</ele>
        <time>2014-05-20T07:56:38Z</time>
      </trkpt>
      <trkpt lat="44.692934174090624" lon="5.479513797909021">
        <ele>565.79998779296875</ele>
        <time>2014-05-20T07:56:40Z</time>
      </trkpt>
      <trkpt lat="44.692876674234867" lon="5.479314140975475">
        <ele>564.79998779296875</ele>
        <time>2014-05-20T07:56:42Z</time>
      </trkpt>
      <trkpt lat="44.692814731970429" lon="5.47910668887198">
        <ele>563.5999755859375</ele>
        <time>2014-05-20T07:56:44Z</time>
      </trkpt>
      <trkpt lat="44.69278447329998" lon="5.478999400511384">
        <ele>563.20001220703125</ele>
        <time>2014-05-20T07:56:45Z</time>
      </trkpt>
      <trkpt lat="44.692724710330367" lon="5.478782812133431">
        <ele>562.5999755859375</ele>
        <time>2014-05-20T07:56:47Z</time>
      </trkpt>
      <trkpt lat="44.69263301230967" lon="5.478443009778857">
        <ele>561.5999755859375</ele>
        <time>2014-05-20T07:56:50Z</time>
      </trkpt>
      <trkpt lat="44.692523125559092" lon="5.47808594070375">
        <ele>560.79998779296875</ele>
        <time>2014-05-20T07:56:53Z</time>
      </trkpt>
      <trkpt lat="44.69248054549098" lon="5.477967085316777">
        <ele>559.4000244140625</ele>
        <time>2014-05-20T07:56:54Z</time>
      </trkpt>
      <trkpt lat="44.692393206059933" lon="5.47772878780961">
        <ele>558</ele>
        <time>2014-05-20T07:56:56Z</time>
      </trkpt>
      <trkpt lat="44.692201595753431" lon="5.477228304371238">
        <ele>556.79998779296875</ele>
        <time>2014-05-20T07:57:00Z</time>
      </trkpt>
      <trkpt lat="44.692153399810195" lon="5.477100564166904">
        <ele>556.20001220703125</ele>
        <time>2014-05-20T07:57:01Z</time>
      </trkpt>
      <trkpt lat="44.692106796428561" lon="5.476975254714489">
        <ele>555.20001220703125</ele>
        <time>2014-05-20T07:57:02Z</time>
      </trkpt>
      <trkpt lat="44.691812759265304" lon="5.476208059117198">
        <ele>555</ele>
        <time>2014-05-20T07:57:08Z</time>
      </trkpt>
      <trkpt lat="44.691707398742437" lon="5.475939083844423">
        <ele>554.20001220703125</ele>
        <time>2014-05-20T07:57:10Z</time>
      </trkpt>
      <trkpt lat="44.691600780934095" lon="5.475657200440764">
        <ele>553.20001220703125</ele>
        <time>2014-05-20T07:57:12Z</time>
      </trkpt>
      <trkpt lat="44.691497683525085" lon="5.475378585979343">
        <ele>552</ele>
        <time>2014-05-20T07:57:14Z</time>
      </trkpt>
      <trkpt lat="44.691389137879014" lon="5.475101228803396">
        <ele>551</ele>
        <time>2014-05-20T07:57:16Z</time>
      </trkpt>
      <trkpt lat="44.691335912793875" lon="5.474959407001734">
        <ele>550.4000244140625</ele>
        <time>2014-05-20T07:57:17Z</time>
      </trkpt>
      <trkpt lat="44.691283777356148" lon="5.474820602685213">
        <ele>549.5999755859375</ele>
        <time>2014-05-20T07:57:18Z</time>
      </trkpt>
      <trkpt lat="44.691177159547806" lon="5.474549867212772">
        <ele>548.4000244140625</ele>
        <time>2014-05-20T07:57:20Z</time>
      </trkpt>
      <trkpt lat="44.690976496785879" lon="5.474029937759042">
        <ele>548.4000244140625</ele>
        <time>2014-05-20T07:57:24Z</time>
      </trkpt>
      <trkpt lat="44.690696289762855" lon="5.473301969468594">
        <ele>548.5999755859375</ele>
        <time>2014-05-20T07:57:30Z</time>
      </trkpt>
      <trkpt lat="44.690652871504426" lon="5.473184874281287">
        <ele>548.5999755859375</ele>
        <time>2014-05-20T07:57:31Z</time>
      </trkpt>
      <trkpt lat="44.690549438819289" lon="5.472901565954089">
        <ele>549</ele>
        <time>2014-05-20T07:57:34Z</time>
      </trkpt>
      <trkpt lat="44.69050451181829" lon="5.472773658111692">
        <ele>549.5999755859375</ele>
        <time>2014-05-20T07:57:36Z</time>
      </trkpt>
      <trkpt lat="44.690457824617624" lon="5.472697131335735">
        <ele>550.20001220703125</ele>
        <time>2014-05-20T07:57:38Z</time>
      </trkpt>
      <trkpt lat="44.690404767170548" lon="5.472673242911696">
        <ele>550.4000244140625</ele>
        <time>2014-05-20T07:57:40Z</time>
      </trkpt>
      <trkpt lat="44.690355649217963" lon="5.472642816603184">
        <ele>550.20001220703125</ele>
        <time>2014-05-20T07:57:42Z</time>
      </trkpt>
      <trkpt lat="44.690249869599938" lon="5.472507197409868">
        <ele>549.4000244140625</ele>
        <time>2014-05-20T07:57:46Z</time>
      </trkpt>
      <trkpt lat="44.69016345217824" lon="5.472356155514717">
        <ele>548.4000244140625</ele>
        <time>2014-05-20T07:57:49Z</time>
      </trkpt>
      <trkpt lat="44.690074855461717" lon="5.47217259183526">
        <ele>548.20001220703125</ele>
        <time>2014-05-20T07:57:52Z</time>
      </trkpt>
      <trkpt lat="44.689895985648036" lon="5.471804961562157">
        <ele>547.4000244140625</ele>
        <time>2014-05-20T07:57:58Z</time>
      </trkpt>
      <trkpt lat="44.689840581268072" lon="5.471681747585535">
        <ele>546.79998779296875</ele>
        <time>2014-05-20T07:58:00Z</time>
      </trkpt>
      <trkpt lat="44.689601697027683" lon="5.471272291615605">
        <ele>546.79998779296875</ele>
        <time>2014-05-20T07:58:07Z</time>
      </trkpt>
      <trkpt lat="44.689511172473431" lon="5.471168607473373">
        <ele>546.20001220703125</ele>
        <time>2014-05-20T07:58:09Z</time>
      </trkpt>
      <trkpt lat="44.68936356715858" lon="5.471043381839991">
        <ele>545.5999755859375</ele>
        <time>2014-05-20T07:58:12Z</time>
      </trkpt>
      <trkpt lat="44.689167011529207" lon="5.470851268619299">
        <ele>546.4000244140625</ele>
        <time>2014-05-20T07:58:17Z</time>
      </trkpt>
      <trkpt lat="44.689137674868107" lon="5.470815226435661">
        <ele>546.4000244140625</ele>
        <time>2014-05-20T07:58:18Z</time>
      </trkpt>
      <trkpt lat="44.689054694026709" lon="5.470686899498105">
        <ele>547</ele>
        <time>2014-05-20T07:58:21Z</time>
      </trkpt>
      <trkpt lat="44.688998702913523" lon="5.470591010525823">
        <ele>547.20001220703125</ele>
        <time>2014-05-20T07:58:23Z</time>
      </trkpt>
      <trkpt lat="44.688947489485145" lon="5.470487577840686">
        <ele>547</ele>
        <time>2014-05-20T07:58:25Z</time>
      </trkpt>
      <trkpt lat="44.688678849488497" lon="5.469948453828692">
        <ele>546.5999755859375</ele>
        <time>2014-05-20T07:58:35Z</time>
      </trkpt>
      <trkpt lat="44.688633000478148" lon="5.46983839944005">
        <ele>546.20001220703125</ele>
        <time>2014-05-20T07:58:37Z</time>
      </trkpt>
      <trkpt lat="44.688588492572308" lon="5.469671348109841">
        <ele>545.4000244140625</ele>
        <time>2014-05-20T07:58:40Z</time>
      </trkpt>
      <trkpt lat="44.688563849776983" lon="5.469584763050079">
        <ele>545</ele>
        <time>2014-05-20T07:58:42Z</time>
      </trkpt>
      <trkpt lat="44.68852311372757" lon="5.469498261809349">
        <ele>544.20001220703125</ele>
        <time>2014-05-20T07:58:45Z</time>
      </trkpt>
      <trkpt lat="44.688496626913548" lon="5.469476217404008">
        <ele>543.79998779296875</ele>
        <time>2014-05-20T07:58:46Z</time>
      </trkpt>
      <trkpt lat="44.688422447070479" lon="5.46946506947279">
        <ele>543</ele>
        <time>2014-05-20T07:58:48Z</time>
      </trkpt>
      <trkpt lat="44.68837752006948" lon="5.469478480517864">
        <ele>542.5999755859375</ele>
        <time>2014-05-20T07:58:49Z</time>
      </trkpt>
      <trkpt lat="44.688273835927248" lon="5.469509745016694">
        <ele>541.4000244140625</ele>
        <time>2014-05-20T07:58:51Z</time>
      </trkpt>
      <trkpt lat="44.688215916976333" lon="5.469525838270783">
        <ele>541</ele>
        <time>2014-05-20T07:58:52Z</time>
      </trkpt>
      <trkpt lat="44.688090775161982" lon="5.469559114426374">
        <ele>540.20001220703125</ele>
        <time>2014-05-20T07:58:54Z</time>
      </trkpt>
      <trkpt lat="44.687951467931271" lon="5.46959356404841">
        <ele>539</ele>
        <time>2014-05-20T07:58:56Z</time>
      </trkpt>
      <trkpt lat="44.687806125730276" lon="5.469633629545569">
        <ele>538.4000244140625</ele>
        <time>2014-05-20T07:58:58Z</time>
      </trkpt>
      <trkpt lat="44.687732448801398" lon="5.469654081389308">
        <ele>538</ele>
        <time>2014-05-20T07:58:59Z</time>
      </trkpt>
      <trkpt lat="44.687423910945654" lon="5.469735553488135">
        <ele>536.79998779296875</ele>
        <time>2014-05-20T07:59:03Z</time>
      </trkpt>
      <trkpt lat="44.687270438298583" lon="5.46977486461401">
        <ele>536.5999755859375</ele>
        <time>2014-05-20T07:59:05Z</time>
      </trkpt>
      <trkpt lat="44.686765847727656" lon="5.469922637566924">
        <ele>536.79998779296875</ele>
        <time>2014-05-20T07:59:12Z</time>
      </trkpt>
      <trkpt lat="44.686407186090946" lon="5.470034368336201">
        <ele>538</ele>
        <time>2014-05-20T07:59:18Z</time>
      </trkpt>
      <trkpt lat="44.686353541910648" lon="5.470052557066083">
        <ele>537.5999755859375</ele>
        <time>2014-05-20T07:59:19Z</time>
      </trkpt>
      <trkpt lat="44.686206188052893" lon="5.470111314207315">
        <ele>538.79998779296875</ele>
        <time>2014-05-20T07:59:22Z</time>
      </trkpt>
      <trkpt lat="44.686162015423179" lon="5.470136879011989">
        <ele>539.20001220703125</ele>
        <time>2014-05-20T07:59:23Z</time>
      </trkpt>
      <trkpt lat="44.686078196391463" lon="5.470191780477762">
        <ele>540</ele>
        <time>2014-05-20T07:59:25Z</time>
      </trkpt>
      <trkpt lat="44.685999741777778" lon="5.470246598124504">
        <ele>540.5999755859375</ele>
        <time>2014-05-20T07:59:27Z</time>
      </trkpt>
      <trkpt lat="44.685819782316685" lon="5.470409793779254">
        <ele>540.79998779296875</ele>
        <time>2014-05-20T07:59:32Z</time>
      </trkpt>
      <trkpt lat="44.685686845332384" lon="5.470542730763555">
        <ele>541.79998779296875</ele>
        <time>2014-05-20T07:59:36Z</time>
      </trkpt>
      <trkpt lat="44.685543850064278" lon="5.470673153176904">
        <ele>542.5999755859375</ele>
        <time>2014-05-20T07:59:40Z</time>
      </trkpt>
      <trkpt lat="44.685473358258605" lon="5.470738196745515">
        <ele>542.79998779296875</ele>
        <time>2014-05-20T07:59:42Z</time>
      </trkpt>
      <trkpt lat="44.685434801504016" lon="5.470769545063376">
        <ele>543.5999755859375</ele>
        <time>2014-05-20T07:59:43Z</time>
      </trkpt>
      <trkpt lat="44.685394400730729" lon="5.470789493992925">
        <ele>543.79998779296875</ele>
        <time>2014-05-20T07:59:44Z</time>
      </trkpt>
      <trkpt lat="44.685351653024554" lon="5.470801899209619">
        <ele>544</ele>
        <time>2014-05-20T07:59:45Z</time>
      </trkpt>
      <trkpt lat="44.68522734940052" lon="5.470783123746514">
        <ele>544.79998779296875</ele>
        <time>2014-05-20T07:59:48Z</time>
      </trkpt>
      <trkpt lat="44.685189798474312" lon="5.470772394910455">
        <ele>545.20001220703125</ele>
        <time>2014-05-20T07:59:49Z</time>
      </trkpt>
      <trkpt lat="44.684977401047945" lon="5.470648510381579">
        <ele>545.79998779296875</ele>
        <time>2014-05-20T07:59:55Z</time>
      </trkpt>
      <trkpt lat="44.684880254790187" lon="5.470555890351534">
        <ele>546.20001220703125</ele>
        <time>2014-05-20T07:59:58Z</time>
      </trkpt>
      <trkpt lat="44.684799201786518" lon="5.47046285122633">
        <ele>547.20001220703125</ele>
        <time>2014-05-20T08:00:01Z</time>
      </trkpt>
      <trkpt lat="44.684621086344123" lon="5.470227906480432">
        <ele>548.20001220703125</ele>
        <time>2014-05-20T08:00:08Z</time>
      </trkpt>
      <trkpt lat="44.684573393315077" lon="5.470163282006979">
        <ele>548.4000244140625</ele>
        <time>2014-05-20T08:00:10Z</time>
      </trkpt>
      <trkpt lat="44.684395613148808" lon="5.469954656437039">
        <ele>549.20001220703125</ele>
        <time>2014-05-20T08:00:17Z</time>
      </trkpt>
      <trkpt lat="44.684211295098066" lon="5.469756172969937">
        <ele>550.20001220703125</ele>
        <time>2014-05-20T08:00:24Z</time>
      </trkpt>
      <trkpt lat="44.684180784970522" lon="5.469733038917184">
        <ele>550.4000244140625</ele>
        <time>2014-05-20T08:00:25Z</time>
      </trkpt>
      <trkpt lat="44.683946678414941" lon="5.469630025327206">
        <ele>551.20001220703125</ele>
        <time>2014-05-20T08:00:32Z</time>
      </trkpt>
      <trkpt lat="44.683750122785568" lon="5.469548804685473">
        <ele>551.5999755859375</ele>
        <time>2014-05-20T08:00:38Z</time>
      </trkpt>
      <trkpt lat="44.683649875223637" lon="5.469506643712521">
        <ele>552.20001220703125</ele>
        <time>2014-05-20T08:00:41Z</time>
      </trkpt>
      <trkpt lat="44.683582484722137" lon="5.469476720318198">
        <ele>553</ele>
        <time>2014-05-20T08:00:43Z</time>
      </trkpt>
      <trkpt lat="44.683339241892099" lon="5.46938250772655">
        <ele>553.4000244140625</ele>
        <time>2014-05-20T08:00:50Z</time>
      </trkpt>
      <trkpt lat="44.683239329606295" lon="5.469350824132562">
        <ele>554.20001220703125</ele>
        <time>2014-05-20T08:00:53Z</time>
      </trkpt>
      <trkpt lat="44.683113601058722" lon="5.469291815534234">
        <ele>554.5999755859375</ele>
        <time>2014-05-20T08:00:57Z</time>
      </trkpt>
      <trkpt lat="44.683047970756888" lon="5.469266418367624">
        <ele>555.20001220703125</ele>
        <time>2014-05-20T08:00:59Z</time>
      </trkpt>
      <trkpt lat="44.682957530021667" lon="5.469230711460114">
        <ele>556.20001220703125</ele>
        <time>2014-05-20T08:01:02Z</time>
      </trkpt>
      <trkpt lat="44.682867173105478" lon="5.46919927932322">
        <ele>556.79998779296875</ele>
        <time>2014-05-20T08:01:05Z</time>
      </trkpt>
      <trkpt lat="44.682657960802317" lon="5.469128871336579">
        <ele>557</ele>
        <time>2014-05-20T08:01:12Z</time>
      </trkpt>
      <trkpt lat="44.682454280555248" lon="5.469092661514878">
        <ele>558.20001220703125</ele>
        <time>2014-05-20T08:01:19Z</time>
      </trkpt>
      <trkpt lat="44.682423938065767" lon="5.469087883830071">
        <ele>558.5999755859375</ele>
        <time>2014-05-20T08:01:20Z</time>
      </trkpt>
      <trkpt lat="44.682362414896488" lon="5.469077238813043">
        <ele>559.20001220703125</ele>
        <time>2014-05-20T08:01:22Z</time>
      </trkpt>
      <trkpt lat="44.682204583659768" lon="5.469081262126565">
        <ele>560.20001220703125</ele>
        <time>2014-05-20T08:01:27Z</time>
      </trkpt>
      <trkpt lat="44.682171810418367" lon="5.469083776697516">
        <ele>560.5999755859375</ele>
        <time>2014-05-20T08:01:28Z</time>
      </trkpt>
      <trkpt lat="44.681870983913541" lon="5.469158794730902">
        <ele>561</ele>
        <time>2014-05-20T08:01:37Z</time>
      </trkpt>
      <trkpt lat="44.681771071627736" lon="5.469200368970633">
        <ele>561.20001220703125</ele>
        <time>2014-05-20T08:01:40Z</time>
      </trkpt>
      <trkpt lat="44.681643331423402" lon="5.469267088919878">
        <ele>561.79998779296875</ele>
        <time>2014-05-20T08:01:44Z</time>
      </trkpt>
      <trkpt lat="44.681484326720238" lon="5.469361217692494">
        <ele>562.5999755859375</ele>
        <time>2014-05-20T08:01:49Z</time>
      </trkpt>
      <trkpt lat="44.681453229859471" lon="5.469381166622043">
        <ele>563</ele>
        <time>2014-05-20T08:01:50Z</time>
      </trkpt>
      <trkpt lat="44.681240497156978" lon="5.469510415568948">
        <ele>563</ele>
        <time>2014-05-20T08:01:57Z</time>
      </trkpt>
      <trkpt lat="44.68114485964179" lon="5.469562886282802">
        <ele>563.79998779296875</ele>
        <time>2014-05-20T08:02:00Z</time>
      </trkpt>
      <trkpt lat="44.681054251268506" lon="5.469607310369611">
        <ele>564</ele>
        <time>2014-05-20T08:02:03Z</time>
      </trkpt>
      <trkpt lat="44.680886445567012" lon="5.469682328402996">
        <ele>565</ele>
        <time>2014-05-20T08:02:09Z</time>
      </trkpt>
      <trkpt lat="44.680685363709927" lon="5.469790371134877">
        <ele>566</ele>
        <time>2014-05-20T08:02:16Z</time>
      </trkpt>
      <trkpt lat="44.680628115311265" lon="5.469819623976946">
        <ele>566.4000244140625</ele>
        <time>2014-05-20T08:02:18Z</time>
      </trkpt>
      <trkpt lat="44.680471625179052" lon="5.469934288412333">
        <ele>567</ele>
        <time>2014-05-20T08:02:24Z</time>
      </trkpt>
      <trkpt lat="44.680385207757354" lon="5.469982819631696">
        <ele>567.79998779296875</ele>
        <time>2014-05-20T08:02:27Z</time>
      </trkpt>
      <trkpt lat="44.68027607537806" lon="5.470034116879106">
        <ele>568.79998779296875</ele>
        <time>2014-05-20T08:02:31Z</time>
      </trkpt>
      <trkpt lat="44.680137857794762" lon="5.47011936083436">
        <ele>569.5999755859375</ele>
        <time>2014-05-20T08:02:36Z</time>
      </trkpt>
      <trkpt lat="44.680027803406119" lon="5.470183733850718">
        <ele>570</ele>
        <time>2014-05-20T08:02:40Z</time>
      </trkpt>
      <trkpt lat="44.679952785372734" lon="5.470236791297793">
        <ele>570.79998779296875</ele>
        <time>2014-05-20T08:02:43Z</time>
      </trkpt>
      <trkpt lat="44.679879108443856" lon="5.470284149050713">
        <ele>571.20001220703125</ele>
        <time>2014-05-20T08:02:46Z</time>
      </trkpt>
      <trkpt lat="44.679766707122326" lon="5.470353215932846">
        <ele>572.20001220703125</ele>
        <time>2014-05-20T08:02:51Z</time>
      </trkpt>
      <trkpt lat="44.679745836183429" lon="5.470368890091777">
        <ele>572.4000244140625</ele>
        <time>2014-05-20T08:02:52Z</time>
      </trkpt>
      <trkpt lat="44.679599823430181" lon="5.470451954752207">
        <ele>573.20001220703125</ele>
        <time>2014-05-20T08:02:58Z</time>
      </trkpt>
      <trkpt lat="44.679549783468246" lon="5.470486991107464">
        <ele>573.4000244140625</ele>
        <time>2014-05-20T08:03:00Z</time>
      </trkpt>
      <trkpt lat="44.679331853985786" lon="5.470661502331495">
        <ele>574.4000244140625</ele>
        <time>2014-05-20T08:03:09Z</time>
      </trkpt>
      <trkpt lat="44.679281311109662" lon="5.470703411847353">
        <ele>574.5999755859375</ele>
        <time>2014-05-20T08:03:11Z</time>
      </trkpt>
      <trkpt lat="44.679148877039552" lon="5.470823608338833">
        <ele>575.5999755859375</ele>
        <time>2014-05-20T08:03:17Z</time>
      </trkpt>
      <trkpt lat="44.679125491529703" lon="5.470842970535159">
        <ele>576</ele>
        <time>2014-05-20T08:03:18Z</time>
      </trkpt>
      <trkpt lat="44.679025076329708" lon="5.470917066559196">
        <ele>576.5999755859375</ele>
        <time>2014-05-20T08:03:22Z</time>
      </trkpt>
      <trkpt lat="44.678904544562101" lon="5.471018236130476">
        <ele>577</ele>
        <time>2014-05-20T08:03:27Z</time>
      </trkpt>
      <trkpt lat="44.678785186260939" lon="5.471112364903092">
        <ele>577.79998779296875</ele>
        <time>2014-05-20T08:03:32Z</time>
      </trkpt>
      <trkpt lat="44.678737828508019" lon="5.471152933314443">
        <ele>578.20001220703125</ele>
        <time>2014-05-20T08:03:34Z</time>
      </trkpt>
      <trkpt lat="44.678668929263949" lon="5.471210768446326">
        <ele>578.79998779296875</ele>
        <time>2014-05-20T08:03:37Z</time>
      </trkpt>
      <trkpt lat="44.678531717509031" lon="5.471323672682047">
        <ele>579</ele>
        <time>2014-05-20T08:03:43Z</time>
      </trkpt>
      <trkpt lat="44.678343627601862" lon="5.471480581909418">
        <ele>579.5999755859375</ele>
        <time>2014-05-20T08:03:51Z</time>
      </trkpt>
      <trkpt lat="44.678320828825235" lon="5.471501033753157">
        <ele>580</ele>
        <time>2014-05-20T08:03:52Z</time>
      </trkpt>
      <trkpt lat="44.678250253200531" lon="5.471548475325108">
        <ele>581</ele>
        <time>2014-05-20T08:03:55Z</time>
      </trkpt>
      <trkpt lat="44.678161488845944" lon="5.471631539985538">
        <ele>581.4000244140625</ele>
        <time>2014-05-20T08:03:59Z</time>
      </trkpt>
      <trkpt lat="44.678068784996867" lon="5.471705468371511">
        <ele>582.20001220703125</ele>
        <time>2014-05-20T08:04:03Z</time>
      </trkpt>
      <trkpt lat="44.677950767800212" lon="5.471800519153476">
        <ele>583.4000244140625</ele>
        <time>2014-05-20T08:04:08Z</time>
      </trkpt>
      <trkpt lat="44.677798300981522" lon="5.471921218559146">
        <ele>583.4000244140625</ele>
        <time>2014-05-20T08:04:14Z</time>
      </trkpt>
      <trkpt lat="44.677598811686039" lon="5.472089359536767">
        <ele>583.79998779296875</ele>
        <time>2014-05-20T08:04:22Z</time>
      </trkpt>
      <trkpt lat="44.677525050938129" lon="5.472147781401873">
        <ele>584.5999755859375</ele>
        <time>2014-05-20T08:04:25Z</time>
      </trkpt>
      <trkpt lat="44.67738339677453" lon="5.472264960408211">
        <ele>585.4000244140625</ele>
        <time>2014-05-20T08:04:31Z</time>
      </trkpt>
      <trkpt lat="44.677330339327455" lon="5.472302259877324">
        <ele>585.79998779296875</ele>
        <time>2014-05-20T08:04:33Z</time>
      </trkpt>
      <trkpt lat="44.677152642980218" lon="5.472455313429236">
        <ele>586.5999755859375</ele>
        <time>2014-05-20T08:04:40Z</time>
      </trkpt>
      <trkpt lat="44.677127497270703" lon="5.472477693110704">
        <ele>586.79998779296875</ele>
        <time>2014-05-20T08:04:41Z</time>
      </trkpt>
      <trkpt lat="44.676939575001597" lon="5.472615407779813">
        <ele>587.79998779296875</ele>
        <time>2014-05-20T08:04:48Z</time>
      </trkpt>
      <trkpt lat="44.676914596930146" lon="5.472634853795171">
        <ele>588</ele>
        <time>2014-05-20T08:04:49Z</time>
      </trkpt>
      <trkpt lat="44.676694488152862" lon="5.472815399989486">
        <ele>588.79998779296875</ele>
        <time>2014-05-20T08:04:57Z</time>
      </trkpt>
      <trkpt lat="44.676666408777237" lon="5.472838366404176">
        <ele>589</ele>
        <time>2014-05-20T08:04:58Z</time>
      </trkpt>
      <trkpt lat="44.67647940851748" lon="5.472988486289978">
        <ele>590</ele>
        <time>2014-05-20T08:05:05Z</time>
      </trkpt>
      <trkpt lat="44.67639684677124" lon="5.473050093278289">
        <ele>590.4000244140625</ele>
        <time>2014-05-20T08:05:08Z</time>
      </trkpt>
      <trkpt lat="44.676270112395287" lon="5.473174229264259">
        <ele>591</ele>
        <time>2014-05-20T08:05:13Z</time>
      </trkpt>
      <trkpt lat="44.67621261253953" lon="5.473216138780117">
        <ele>591.5999755859375</ele>
        <time>2014-05-20T08:05:15Z</time>
      </trkpt>
      <trkpt lat="44.676065510138869" lon="5.473312195390463">
        <ele>592.20001220703125</ele>
        <time>2014-05-20T08:05:20Z</time>
      </trkpt>
      <trkpt lat="44.675979092717171" lon="5.473373383283615">
        <ele>592.5999755859375</ele>
        <time>2014-05-20T08:05:23Z</time>
      </trkpt>
      <trkpt lat="44.675734089687467" lon="5.473485868424177">
        <ele>593.20001220703125</ele>
        <time>2014-05-20T08:05:31Z</time>
      </trkpt>
      <trkpt lat="44.675348941236734" lon="5.473618470132351">
        <ele>593.79998779296875</ele>
        <time>2014-05-20T08:05:43Z</time>
      </trkpt>
      <trkpt lat="44.675283646211028" lon="5.473646046593785">
        <ele>594.20001220703125</ele>
        <time>2014-05-20T08:05:45Z</time>
      </trkpt>
      <trkpt lat="44.675056328997016" lon="5.473713772371411">
        <ele>593.79998779296875</ele>
        <time>2014-05-20T08:05:52Z</time>
      </trkpt>
      <trkpt lat="44.674855582416058" lon="5.473786359652877">
        <ele>595.20001220703125</ele>
        <time>2014-05-20T08:05:58Z</time>
      </trkpt>
      <trkpt lat="44.67479070648551" lon="5.473809242248535">
        <ele>595.79998779296875</ele>
        <time>2014-05-20T08:06:00Z</time>
      </trkpt>
      <trkpt lat="44.674725327640772" lon="5.47382365912199">
        <ele>596.4000244140625</ele>
        <time>2014-05-20T08:06:02Z</time>
      </trkpt>
      <trkpt lat="44.674602197483182" lon="5.473872441798449">
        <ele>595.79998779296875</ele>
        <time>2014-05-20T08:06:06Z</time>
      </trkpt>
      <trkpt lat="44.674420394003391" lon="5.473924661055207">
        <ele>597.4000244140625</ele>
        <time>2014-05-20T08:06:12Z</time>
      </trkpt>
      <trkpt lat="44.67433481477201" lon="5.473959529772401">
        <ele>597.4000244140625</ele>
        <time>2014-05-20T08:06:15Z</time>
      </trkpt>
      <trkpt lat="44.674161812290549" lon="5.474013173952699">
        <ele>598.5999755859375</ele>
        <time>2014-05-20T08:06:21Z</time>
      </trkpt>
      <trkpt lat="44.674079502001405" lon="5.474038319662213">
        <ele>599.79998779296875</ele>
        <time>2014-05-20T08:06:24Z</time>
      </trkpt>
      <trkpt lat="44.674051757901907" lon="5.47404888086021">
        <ele>599.79998779296875</ele>
        <time>2014-05-20T08:06:25Z</time>
      </trkpt>
      <trkpt lat="44.673965591937304" lon="5.474076373502612">
        <ele>600.79998779296875</ele>
        <time>2014-05-20T08:06:28Z</time>
      </trkpt>
      <trkpt lat="44.673796193674207" lon="5.474131610244513">
        <ele>601.79998779296875</ele>
        <time>2014-05-20T08:06:34Z</time>
      </trkpt>
      <trkpt lat="44.673770042136312" lon="5.47414175234735">
        <ele>601.5999755859375</ele>
        <time>2014-05-20T08:06:35Z</time>
      </trkpt>
      <trkpt lat="44.673598799854517" lon="5.474186846986413">
        <ele>603.5999755859375</ele>
        <time>2014-05-20T08:06:41Z</time>
      </trkpt>
      <trkpt lat="44.673544904217124" lon="5.474210400134325">
        <ele>604.20001220703125</ele>
        <time>2014-05-20T08:06:43Z</time>
      </trkpt>
      <trkpt lat="44.673319095745683" lon="5.474278461188078">
        <ele>603.20001220703125</ele>
        <time>2014-05-20T08:06:52Z</time>
      </trkpt>
      <trkpt lat="44.673028662800789" lon="5.474379546940327">
        <ele>604.4000244140625</ele>
        <time>2014-05-20T08:07:04Z</time>
      </trkpt>
      <trkpt lat="44.672981724143028" lon="5.474395724013448">
        <ele>604.5999755859375</ele>
        <time>2014-05-20T08:07:06Z</time>
      </trkpt>
      <trkpt lat="44.672822803258896" lon="5.474424473941326">
        <ele>605.20001220703125</ele>
        <time>2014-05-20T08:07:12Z</time>
      </trkpt>
      <trkpt lat="44.672639071941376" lon="5.474416092038155">
        <ele>604.4000244140625</ele>
        <time>2014-05-20T08:07:18Z</time>
      </trkpt>
      <trkpt lat="44.672596324235201" lon="5.474401256069541">
        <ele>603.79998779296875</ele>
        <time>2014-05-20T08:07:19Z</time>
      </trkpt>
      <trkpt lat="44.672393817454576" lon="5.474324394017458">
        <ele>603.4000244140625</ele>
        <time>2014-05-20T08:07:23Z</time>
      </trkpt>
      <trkpt lat="44.672214444726706" lon="5.474231522530317">
        <ele>602.20001220703125</ele>
        <time>2014-05-20T08:07:26Z</time>
      </trkpt>
      <trkpt lat="44.672085950151086" lon="5.474150134250522">
        <ele>601</ele>
        <time>2014-05-20T08:07:28Z</time>
      </trkpt>
      <trkpt lat="44.671945888549089" lon="5.474071763455868">
        <ele>600</ele>
        <time>2014-05-20T08:07:30Z</time>
      </trkpt>
      <trkpt lat="44.671641960740089" lon="5.473895911127329">
        <ele>598.5999755859375</ele>
        <time>2014-05-20T08:07:34Z</time>
      </trkpt>
      <trkpt lat="44.671483961865306" lon="5.473808236420155">
        <ele>597</ele>
        <time>2014-05-20T08:07:36Z</time>
      </trkpt>
      <trkpt lat="44.671331411227584" lon="5.473721902817488">
        <ele>595.5999755859375</ele>
        <time>2014-05-20T08:07:38Z</time>
      </trkpt>
      <trkpt lat="44.671186236664653" lon="5.473638335242868">
        <ele>595.20001220703125</ele>
        <time>2014-05-20T08:07:40Z</time>
      </trkpt>
      <trkpt lat="44.670888008549809" lon="5.473465668037534">
        <ele>594</ele>
        <time>2014-05-20T08:07:44Z</time>
      </trkpt>
      <trkpt lat="44.670738475397229" lon="5.47337950207293">
        <ele>592.79998779296875</ele>
        <time>2014-05-20T08:07:46Z</time>
      </trkpt>
      <trkpt lat="44.670592043548822" lon="5.473290318623185">
        <ele>592.4000244140625</ele>
        <time>2014-05-20T08:07:48Z</time>
      </trkpt>
      <trkpt lat="44.670519372448325" lon="5.473241033032537">
        <ele>591.79998779296875</ele>
        <time>2014-05-20T08:07:49Z</time>
      </trkpt>
      <trkpt lat="44.670368917286396" lon="5.47314983792603">
        <ele>590.5999755859375</ele>
        <time>2014-05-20T08:07:51Z</time>
      </trkpt>
      <trkpt lat="44.670214522629976" lon="5.473063504323363">
        <ele>589.5999755859375</ele>
        <time>2014-05-20T08:07:53Z</time>
      </trkpt>
      <trkpt lat="44.670061301440001" lon="5.472976081073284">
        <ele>589.4000244140625</ele>
        <time>2014-05-20T08:07:55Z</time>
      </trkpt>
      <trkpt lat="44.669905481860042" lon="5.472889579832554">
        <ele>591</ele>
        <time>2014-05-20T08:07:57Z</time>
      </trkpt>
      <trkpt lat="44.669421426951885" lon="5.472622280940414">
        <ele>589</ele>
        <time>2014-05-20T08:08:03Z</time>
      </trkpt>
      <trkpt lat="44.669175334274769" lon="5.472478112205863">
        <ele>587.79998779296875</ele>
        <time>2014-05-20T08:08:06Z</time>
      </trkpt>
      <trkpt lat="44.668935779482126" lon="5.472345175221562">
        <ele>586.5999755859375</ele>
        <time>2014-05-20T08:08:09Z</time>
      </trkpt>
      <trkpt lat="44.668697481974959" lon="5.472210478037596">
        <ele>585.20001220703125</ele>
        <time>2014-05-20T08:08:12Z</time>
      </trkpt>
      <trkpt lat="44.668537471443415" lon="5.472119366750121">
        <ele>584.4000244140625</ele>
        <time>2014-05-20T08:08:14Z</time>
      </trkpt>
      <trkpt lat="44.668458430096507" lon="5.472078043967485">
        <ele>584.20001220703125</ele>
        <time>2014-05-20T08:08:15Z</time>
      </trkpt>
      <trkpt lat="44.668097337707877" lon="5.471866987645626">
        <ele>585</ele>
        <time>2014-05-20T08:08:20Z</time>
      </trkpt>
      <trkpt lat="44.668028019368649" lon="5.471825078129768">
        <ele>585.20001220703125</ele>
        <time>2014-05-20T08:08:21Z</time>
      </trkpt>
      <trkpt lat="44.667458552867174" lon="5.471541937440634">
        <ele>584.4000244140625</ele>
        <time>2014-05-20T08:08:29Z</time>
      </trkpt>
      <trkpt lat="44.667384624481201" lon="5.47152416780591">
        <ele>584.20001220703125</ele>
        <time>2014-05-20T08:08:30Z</time>
      </trkpt>
      <trkpt lat="44.667023699730635" lon="5.471487119793892">
        <ele>583.79998779296875</ele>
        <time>2014-05-20T08:08:35Z</time>
      </trkpt>
      <trkpt lat="44.66681188903749" lon="5.471467506140471">
        <ele>583.20001220703125</ele>
        <time>2014-05-20T08:08:38Z</time>
      </trkpt>
      <trkpt lat="44.666411904618144" lon="5.471425428986549">
        <ele>583.4000244140625</ele>
        <time>2014-05-20T08:08:44Z</time>
      </trkpt>
      <trkpt lat="44.66582290828228" lon="5.47136633656919">
        <ele>583.5999755859375</ele>
        <time>2014-05-20T08:08:53Z</time>
      </trkpt>
      <trkpt lat="44.665757613256574" lon="5.471358876675367">
        <ele>584.20001220703125</ele>
        <time>2014-05-20T08:08:54Z</time>
      </trkpt>
      <trkpt lat="44.66569097712636" lon="5.471348147839308">
        <ele>585.5999755859375</ele>
        <time>2014-05-20T08:08:55Z</time>
      </trkpt>
      <trkpt lat="44.665476232767105" lon="5.471318811178207">
        <ele>586.79998779296875</ele>
        <time>2014-05-20T08:08:58Z</time>
      </trkpt>
      <trkpt lat="44.66526048257947" lon="5.471271704882383">
        <ele>585.5999755859375</ele>
        <time>2014-05-20T08:09:01Z</time>
      </trkpt>
      <trkpt lat="44.665193427354097" lon="5.471249576658011">
        <ele>583.79998779296875</ele>
        <time>2014-05-20T08:09:02Z</time>
      </trkpt>
      <trkpt lat="44.665130311623216" lon="5.471222754567862">
        <ele>582.5999755859375</ele>
        <time>2014-05-20T08:09:03Z</time>
      </trkpt>
      <trkpt lat="44.664909699931741" lon="5.471096942201257">
        <ele>583.4000244140625</ele>
        <time>2014-05-20T08:09:07Z</time>
      </trkpt>
      <trkpt lat="44.664859240874648" lon="5.471064168959856">
        <ele>584</ele>
        <time>2014-05-20T08:09:08Z</time>
      </trkpt>
      <trkpt lat="44.664764609187841" lon="5.471005411818624">
        <ele>585.4000244140625</ele>
        <time>2014-05-20T08:09:10Z</time>
      </trkpt>
      <trkpt lat="44.664671067148447" lon="5.470947660505772">
        <ele>587</ele>
        <time>2014-05-20T08:09:12Z</time>
      </trkpt>
      <trkpt lat="44.66457786038518" lon="5.47089820727706">
        <ele>586.79998779296875</ele>
        <time>2014-05-20T08:09:14Z</time>
      </trkpt>
      <trkpt lat="44.664291283115745" lon="5.47072621062398">
        <ele>587.5999755859375</ele>
        <time>2014-05-20T08:09:21Z</time>
      </trkpt>
      <trkpt lat="44.664217522367835" lon="5.470679691061378">
        <ele>588.4000244140625</ele>
        <time>2014-05-20T08:09:23Z</time>
      </trkpt>
      <trkpt lat="44.664025660604239" lon="5.470571648329496">
        <ele>588.4000244140625</ele>
        <time>2014-05-20T08:09:28Z</time>
      </trkpt>
      <trkpt lat="44.663911582902074" lon="5.470509706065059">
        <ele>588.79998779296875</ele>
        <time>2014-05-20T08:09:31Z</time>
      </trkpt>
      <trkpt lat="44.663778729736805" lon="5.470425887033343">
        <ele>589.79998779296875</ele>
        <time>2014-05-20T08:09:35Z</time>
      </trkpt>
      <trkpt lat="44.66367487795651" lon="5.47037442214787">
        <ele>590</ele>
        <time>2014-05-20T08:09:38Z</time>
      </trkpt>
      <trkpt lat="44.663412189111114" lon="5.470247603952885">
        <ele>590.5999755859375</ele>
        <time>2014-05-20T08:09:45Z</time>
      </trkpt>
      <trkpt lat="44.663175148889422" lon="5.470143416896462">
        <ele>590.79998779296875</ele>
        <time>2014-05-20T08:09:51Z</time>
      </trkpt>
      <trkpt lat="44.663097616285086" lon="5.470109134912491">
        <ele>591.20001220703125</ele>
        <time>2014-05-20T08:09:53Z</time>
      </trkpt>
      <trkpt lat="44.662776254117489" lon="5.469984579831362">
        <ele>591.5999755859375</ele>
        <time>2014-05-20T08:10:01Z</time>
      </trkpt>
      <trkpt lat="44.662696626037359" lon="5.469950716942549">
        <ele>591.79998779296875</ele>
        <time>2014-05-20T08:10:03Z</time>
      </trkpt>
      <trkpt lat="44.662486240267754" lon="5.469864467158914">
        <ele>592.79998779296875</ele>
        <time>2014-05-20T08:10:08Z</time>
      </trkpt>
      <trkpt lat="44.662220617756248" lon="5.469759944826365">
        <ele>593</ele>
        <time>2014-05-20T08:10:14Z</time>
      </trkpt>
      <trkpt lat="44.662177283316851" lon="5.469739157706499">
        <ele>593</ele>
        <time>2014-05-20T08:10:15Z</time>
      </trkpt>
      <trkpt lat="44.661778640002012" lon="5.469567747786641">
        <ele>593.20001220703125</ele>
        <time>2014-05-20T08:10:24Z</time>
      </trkpt>
      <trkpt lat="44.661509329453111" lon="5.469459453597665">
        <ele>593.79998779296875</ele>
        <time>2014-05-20T08:10:30Z</time>
      </trkpt>
      <trkpt lat="44.661417966708541" lon="5.469417460262775">
        <ele>594</ele>
        <time>2014-05-20T08:10:32Z</time>
      </trkpt>
      <trkpt lat="44.661327777430415" lon="5.469372197985649">
        <ele>594.20001220703125</ele>
        <time>2014-05-20T08:10:34Z</time>
      </trkpt>
      <trkpt lat="44.660975486040115" lon="5.469185281544924">
        <ele>595</ele>
        <time>2014-05-20T08:10:42Z</time>
      </trkpt>
      <trkpt lat="44.660933744162321" lon="5.469162901863456">
        <ele>595.20001220703125</ele>
        <time>2014-05-20T08:10:43Z</time>
      </trkpt>
      <trkpt lat="44.66058480553329" lon="5.468983529135585">
        <ele>596.4000244140625</ele>
        <time>2014-05-20T08:10:51Z</time>
      </trkpt>
      <trkpt lat="44.660538705065846" lon="5.468956707045436">
        <ele>596.4000244140625</ele>
        <time>2014-05-20T08:10:52Z</time>
      </trkpt>
      <trkpt lat="44.660133691504598" lon="5.468752104789019">
        <ele>597.20001220703125</ele>
        <time>2014-05-20T08:11:01Z</time>
      </trkpt>
      <trkpt lat="44.660042244940996" lon="5.468707596883178">
        <ele>597.5999755859375</ele>
        <time>2014-05-20T08:11:03Z</time>
      </trkpt>
      <trkpt lat="44.659835463389754" lon="5.468588825315237">
        <ele>598</ele>
        <time>2014-05-20T08:11:08Z</time>
      </trkpt>
      <trkpt lat="44.659533463418484" lon="5.468410793691874">
        <ele>598.4000244140625</ele>
        <time>2014-05-20T08:11:16Z</time>
      </trkpt>
      <trkpt lat="44.659498175606132" lon="5.468393610790372">
        <ele>598.79998779296875</ele>
        <time>2014-05-20T08:11:17Z</time>
      </trkpt>
      <trkpt lat="44.659355264157057" lon="5.468319347128272">
        <ele>600</ele>
        <time>2014-05-20T08:11:21Z</time>
      </trkpt>
      <trkpt lat="44.659253507852554" lon="5.468264948576689">
        <ele>600.5999755859375</ele>
        <time>2014-05-20T08:11:24Z</time>
      </trkpt>
      <trkpt lat="44.659188380464911" lon="5.468224799260497">
        <ele>601</ele>
        <time>2014-05-20T08:11:26Z</time>
      </trkpt>
      <trkpt lat="44.659045385196805" lon="5.468156989663839">
        <ele>601.4000244140625</ele>
        <time>2014-05-20T08:11:30Z</time>
      </trkpt>
      <trkpt lat="44.658936336636543" lon="5.468097981065512">
        <ele>602.20001220703125</ele>
        <time>2014-05-20T08:11:33Z</time>
      </trkpt>
      <trkpt lat="44.658836591988802" lon="5.468032350763679">
        <ele>603</ele>
        <time>2014-05-20T08:11:36Z</time>
      </trkpt>
      <trkpt lat="44.658737517893314" lon="5.467978790402412">
        <ele>603.4000244140625</ele>
        <time>2014-05-20T08:11:39Z</time>
      </trkpt>
      <trkpt lat="44.658538531512022" lon="5.467877956107259">
        <ele>604.20001220703125</ele>
        <time>2014-05-20T08:11:45Z</time>
      </trkpt>
      <trkpt lat="44.658479355275631" lon="5.467838980257511">
        <ele>604.4000244140625</ele>
        <time>2014-05-20T08:11:47Z</time>
      </trkpt>
      <trkpt lat="44.658327978104353" lon="5.467750299721956">
        <ele>605.20001220703125</ele>
        <time>2014-05-20T08:11:52Z</time>
      </trkpt>
      <trkpt lat="44.658297467976809" lon="5.467735463753343">
        <ele>605.4000244140625</ele>
        <time>2014-05-20T08:11:53Z</time>
      </trkpt>
      <trkpt lat="44.658112311735749" lon="5.467622056603432">
        <ele>606</ele>
        <time>2014-05-20T08:12:00Z</time>
      </trkpt>
      <trkpt lat="44.657997312024236" lon="5.467592971399427">
        <ele>606.5999755859375</ele>
        <time>2014-05-20T08:12:04Z</time>
      </trkpt>
      <trkpt lat="44.657874517142773" lon="5.467580817639828">
        <ele>607</ele>
        <time>2014-05-20T08:12:08Z</time>
      </trkpt>
      <trkpt lat="44.657567823305726" lon="5.467590456828475">
        <ele>607.5999755859375</ele>
        <time>2014-05-20T08:12:17Z</time>
      </trkpt>
      <trkpt lat="44.657359784469008" lon="5.467606214806438">
        <ele>607.79998779296875</ele>
        <time>2014-05-20T08:12:23Z</time>
      </trkpt>
      <trkpt lat="44.65728560462594" lon="5.467613255605102">
        <ele>608</ele>
        <time>2014-05-20T08:12:25Z</time>
      </trkpt>
      <trkpt lat="44.656932055950165" lon="5.467629935592413">
        <ele>607.5999755859375</ele>
        <time>2014-05-20T08:12:34Z</time>
      </trkpt>
      <trkpt lat="44.656778834760189" lon="5.467629348859191">
        <ele>606.5999755859375</ele>
        <time>2014-05-20T08:12:38Z</time>
      </trkpt>
      <trkpt lat="44.656590577214956" lon="5.467646615579724">
        <ele>608</ele>
        <time>2014-05-20T08:12:43Z</time>
      </trkpt>
      <trkpt lat="44.656468201428652" lon="5.467653321102262">
        <ele>609</ele>
        <time>2014-05-20T08:12:46Z</time>
      </trkpt>
      <trkpt lat="44.656288661062717" lon="5.467666061595082">
        <ele>608.4000244140625</ele>
        <time>2014-05-20T08:12:51Z</time>
      </trkpt>
      <trkpt lat="44.656141810119152" lon="5.467674108222127">
        <ele>610.5999755859375</ele>
        <time>2014-05-20T08:12:55Z</time>
      </trkpt>
      <trkpt lat="44.655993115156889" lon="5.467681819573045">
        <ele>611.5999755859375</ele>
        <time>2014-05-20T08:12:59Z</time>
      </trkpt>
      <trkpt lat="44.655957743525505" lon="5.467683495953679">
        <ele>611.79998779296875</ele>
        <time>2014-05-20T08:13:00Z</time>
      </trkpt>
      <trkpt lat="44.655661443248391" lon="5.467702522873879">
        <ele>612.20001220703125</ele>
        <time>2014-05-20T08:13:08Z</time>
      </trkpt>
      <trkpt lat="44.655592041090131" lon="5.467702271416783">
        <ele>612.79998779296875</ele>
        <time>2014-05-20T08:13:10Z</time>
      </trkpt>
      <trkpt lat="44.655489362776279" lon="5.467710150405765">
        <ele>614</ele>
        <time>2014-05-20T08:13:13Z</time>
      </trkpt>
      <trkpt lat="44.655348379164934" lon="5.467718113213778">
        <ele>614.20001220703125</ele>
        <time>2014-05-20T08:13:17Z</time>
      </trkpt>
      <trkpt lat="44.655211921781301" lon="5.46771677210927">
        <ele>615</ele>
        <time>2014-05-20T08:13:21Z</time>
      </trkpt>
      <trkpt lat="44.655147045850754" lon="5.467720879241824">
        <ele>615.5999755859375</ele>
        <time>2014-05-20T08:13:23Z</time>
      </trkpt>
      <trkpt lat="44.654991813004017" lon="5.467729512602091">
        <ele>616.20001220703125</ele>
        <time>2014-05-20T08:13:28Z</time>
      </trkpt>
      <trkpt lat="44.65493481606245" lon="5.46773437410593">
        <ele>616.4000244140625</ele>
        <time>2014-05-20T08:13:30Z</time>
      </trkpt>
      <trkpt lat="44.654846135526896" lon="5.46774024143815">
        <ele>617.4000244140625</ele>
        <time>2014-05-20T08:13:33Z</time>
      </trkpt>
      <trkpt lat="44.654735075309873" lon="5.467749964445829">
        <ele>618</ele>
        <time>2014-05-20T08:13:37Z</time>
      </trkpt>
      <trkpt lat="44.654645808041096" lon="5.467745857313275">
        <ele>618.5999755859375</ele>
        <time>2014-05-20T08:13:40Z</time>
      </trkpt>
      <trkpt lat="44.654551846906543" lon="5.4677514731884">
        <ele>619.20001220703125</ele>
        <time>2014-05-20T08:13:43Z</time>
      </trkpt>
      <trkpt lat="44.654408767819405" lon="5.467758011072874">
        <ele>619.79998779296875</ele>
        <time>2014-05-20T08:13:48Z</time>
      </trkpt>
      <trkpt lat="44.654351687058806" lon="5.467755077406764">
        <ele>620.20001220703125</ele>
        <time>2014-05-20T08:13:50Z</time>
      </trkpt>
      <trkpt lat="44.654218750074506" lon="5.467753736302257">
        <ele>621</ele>
        <time>2014-05-20T08:13:55Z</time>
      </trkpt>
      <trkpt lat="44.654142810031772" lon="5.467765303328633">
        <ele>621</ele>
        <time>2014-05-20T08:13:58Z</time>
      </trkpt>
      <trkpt lat="44.653976848348975" lon="5.467772847041488">
        <ele>621.79998779296875</ele>
        <time>2014-05-20T08:14:05Z</time>
      </trkpt>
      <trkpt lat="44.653952037915587" lon="5.46776806935668">
        <ele>622</ele>
        <time>2014-05-20T08:14:06Z</time>
      </trkpt>
      <trkpt lat="44.653800241649151" lon="5.467765973880887">
        <ele>622.4000244140625</ele>
        <time>2014-05-20T08:14:12Z</time>
      </trkpt>
      <trkpt lat="44.653670573607087" lon="5.467787096276879">
        <ele>623.20001220703125</ele>
        <time>2014-05-20T08:14:17Z</time>
      </trkpt>
      <trkpt lat="44.653622880578041" lon="5.467791203409433">
        <ele>623.4000244140625</ele>
        <time>2014-05-20T08:14:19Z</time>
      </trkpt>
      <trkpt lat="44.653512323275208" lon="5.467758430168033">
        <ele>624.20001220703125</ele>
        <time>2014-05-20T08:14:24Z</time>
      </trkpt>
      <trkpt lat="44.653469240292907" lon="5.467731524258852">
        <ele>624.5999755859375</ele>
        <time>2014-05-20T08:14:26Z</time>
      </trkpt>
      <trkpt lat="44.653369411826134" lon="5.467566987499595">
        <ele>624.79998779296875</ele>
        <time>2014-05-20T08:14:32Z</time>
      </trkpt>
      <trkpt lat="44.653304703533649" lon="5.467382669448853">
        <ele>624.20001220703125</ele>
        <time>2014-05-20T08:14:36Z</time>
      </trkpt>
      <trkpt lat="44.653273606672883" lon="5.467255348339677">
        <ele>623.20001220703125</ele>
        <time>2014-05-20T08:14:38Z</time>
      </trkpt>
      <trkpt lat="44.653254915028811" lon="5.467186197638512">
        <ele>622.5999755859375</ele>
        <time>2014-05-20T08:14:39Z</time>
      </trkpt>
      <trkpt lat="44.653214765712619" lon="5.467036329209805">
        <ele>620.79998779296875</ele>
        <time>2014-05-20T08:14:41Z</time>
      </trkpt>
      <trkpt lat="44.65317377820611" lon="5.466868104413152">
        <ele>619.5999755859375</ele>
        <time>2014-05-20T08:14:43Z</time>
      </trkpt>
      <trkpt lat="44.653148800134659" lon="5.466779004782438">
        <ele>619.5999755859375</ele>
        <time>2014-05-20T08:14:44Z</time>
      </trkpt>
      <trkpt lat="44.653047127649188" lon="5.466389581561089">
        <ele>618.4000244140625</ele>
        <time>2014-05-20T08:14:48Z</time>
      </trkpt>
      <trkpt lat="44.652989963069558" lon="5.46617073006928">
        <ele>617.5999755859375</ele>
        <time>2014-05-20T08:14:50Z</time>
      </trkpt>
      <trkpt lat="44.652959369122982" lon="5.466055143624544">
        <ele>616.5999755859375</ele>
        <time>2014-05-20T08:14:51Z</time>
      </trkpt>
      <trkpt lat="44.652897762134671" lon="5.465813660994172">
        <ele>614.79998779296875</ele>
        <time>2014-05-20T08:14:53Z</time>
      </trkpt>
      <trkpt lat="44.652836490422487" lon="5.465563545003533">
        <ele>613</ele>
        <time>2014-05-20T08:14:55Z</time>
      </trkpt>
      <trkpt lat="44.652803046628833" lon="5.465433038771153">
        <ele>612.5999755859375</ele>
        <time>2014-05-20T08:14:56Z</time>
      </trkpt>
      <trkpt lat="44.652727525681257" lon="5.465172361582518">
        <ele>611</ele>
        <time>2014-05-20T08:14:58Z</time>
      </trkpt>
      <trkpt lat="44.652613280341029" lon="5.464933896437287">
        <ele>609.79998779296875</ele>
        <time>2014-05-20T08:15:00Z</time>
      </trkpt>
      <trkpt lat="44.652398787438869" lon="5.464621419087052">
        <ele>608.4000244140625</ele>
        <time>2014-05-20T08:15:03Z</time>
      </trkpt>
      <trkpt lat="44.652325278148055" lon="5.464521339163184">
        <ele>607.4000244140625</ele>
        <time>2014-05-20T08:15:04Z</time>
      </trkpt>
      <trkpt lat="44.652254283428192" lon="5.464421175420284">
        <ele>606.4000244140625</ele>
        <time>2014-05-20T08:15:05Z</time>
      </trkpt>
      <trkpt lat="44.652111204341054" lon="5.464214645326138">
        <ele>604.5999755859375</ele>
        <time>2014-05-20T08:15:07Z</time>
      </trkpt>
      <trkpt lat="44.651974746957421" lon="5.464004008099437">
        <ele>603.20001220703125</ele>
        <time>2014-05-20T08:15:09Z</time>
      </trkpt>
      <trkpt lat="44.651858825236559" lon="5.463775685057044">
        <ele>602.79998779296875</ele>
        <time>2014-05-20T08:15:11Z</time>
      </trkpt>
      <trkpt lat="44.651610050350428" lon="5.463163806125522">
        <ele>601.79998779296875</ele>
        <time>2014-05-20T08:15:16Z</time>
      </trkpt>
      <trkpt lat="44.651513658463955" lon="5.462901368737221">
        <ele>601</ele>
        <time>2014-05-20T08:15:18Z</time>
      </trkpt>
      <trkpt lat="44.651482477784157" lon="5.462759798392654">
        <ele>600.4000244140625</ele>
        <time>2014-05-20T08:15:19Z</time>
      </trkpt>
      <trkpt lat="44.651472335681319" lon="5.462616216391325">
        <ele>598.79998779296875</ele>
        <time>2014-05-20T08:15:20Z</time>
      </trkpt>
      <trkpt lat="44.651485327631235" lon="5.462470958009362">
        <ele>598.4000244140625</ele>
        <time>2014-05-20T08:15:21Z</time>
      </trkpt>
      <trkpt lat="44.651508964598179" lon="5.462326873093844">
        <ele>597.5999755859375</ele>
        <time>2014-05-20T08:15:22Z</time>
      </trkpt>
      <trkpt lat="44.651538887992501" lon="5.462180692702532">
        <ele>597.4000244140625</ele>
        <time>2014-05-20T08:15:23Z</time>
      </trkpt>
      <trkpt lat="44.651607368141413" lon="5.461880620568991">
        <ele>596</ele>
        <time>2014-05-20T08:15:25Z</time>
      </trkpt>
      <trkpt lat="44.651643745601177" lon="5.461728740483522">
        <ele>594.79998779296875</ele>
        <time>2014-05-20T08:15:26Z</time>
      </trkpt>
      <trkpt lat="44.651685068383813" lon="5.461577028036118">
        <ele>593.5999755859375</ele>
        <time>2014-05-20T08:15:27Z</time>
      </trkpt>
      <trkpt lat="44.651783388108015" lon="5.461280392482877">
        <ele>592.20001220703125</ele>
        <time>2014-05-20T08:15:29Z</time>
      </trkpt>
      <trkpt lat="44.651836445555091" lon="5.461133122444153">
        <ele>591.79998779296875</ele>
        <time>2014-05-20T08:15:30Z</time>
      </trkpt>
      <trkpt lat="44.65188623405993" lon="5.460984008386731">
        <ele>591.20001220703125</ele>
        <time>2014-05-20T08:15:31Z</time>
      </trkpt>
      <trkpt lat="44.651923114433885" lon="5.460832547396421">
        <ele>590.5999755859375</ele>
        <time>2014-05-20T08:15:32Z</time>
      </trkpt>
      <trkpt lat="44.651938285678625" lon="5.460676643997431">
        <ele>590</ele>
        <time>2014-05-20T08:15:33Z</time>
      </trkpt>
      <trkpt lat="44.651926131919026" lon="5.460523003712297">
        <ele>589.5999755859375</ele>
        <time>2014-05-20T08:15:34Z</time>
      </trkpt>
      <trkpt lat="44.651893442496657" lon="5.460375398397446">
        <ele>589</ele>
        <time>2014-05-20T08:15:35Z</time>
      </trkpt>
      <trkpt lat="44.651799062266946" lon="5.460101896896958">
        <ele>588.20001220703125</ele>
        <time>2014-05-20T08:15:37Z</time>
      </trkpt>
      <trkpt lat="44.651751955971122" lon="5.459965607151389">
        <ele>587.79998779296875</ele>
        <time>2014-05-20T08:15:38Z</time>
      </trkpt>
      <trkpt lat="44.651605021208525" lon="5.459579536691308">
        <ele>586.4000244140625</ele>
        <time>2014-05-20T08:15:41Z</time>
      </trkpt>
      <trkpt lat="44.651556992903352" lon="5.459452886134386">
        <ele>586</ele>
        <time>2014-05-20T08:15:42Z</time>
      </trkpt>
      <trkpt lat="44.651460517197847" lon="5.459198327735066">
        <ele>585</ele>
        <time>2014-05-20T08:15:44Z</time>
      </trkpt>
      <trkpt lat="44.651371166110039" lon="5.458945780992508">
        <ele>583.5999755859375</ele>
        <time>2014-05-20T08:15:46Z</time>
      </trkpt>
      <trkpt lat="44.651242922991514" lon="5.458573708310723">
        <ele>582.79998779296875</ele>
        <time>2014-05-20T08:15:49Z</time>
      </trkpt>
      <trkpt lat="44.651197576895356" lon="5.458452925086021">
        <ele>582.5999755859375</ele>
        <time>2014-05-20T08:15:50Z</time>
      </trkpt>
      <trkpt lat="44.650934217497706" lon="5.457760915160179">
        <ele>582</ele>
        <time>2014-05-20T08:15:56Z</time>
      </trkpt>
      <trkpt lat="44.650895493105054" lon="5.457655638456345">
        <ele>581.4000244140625</ele>
        <time>2014-05-20T08:15:57Z</time>
      </trkpt>
      <trkpt lat="44.650713941082358" lon="5.45718340203166">
        <ele>582</ele>
        <time>2014-05-20T08:16:02Z</time>
      </trkpt>
      <trkpt lat="44.650606401264668" lon="5.456860866397619">
        <ele>582.4000244140625</ele>
        <time>2014-05-20T08:16:06Z</time>
      </trkpt>
      <trkpt lat="44.650594918057323" lon="5.456803701817989">
        <ele>582.79998779296875</ele>
        <time>2014-05-20T08:16:07Z</time>
      </trkpt>
      <trkpt lat="44.650642108172178" lon="5.456563057377935">
        <ele>583.20001220703125</ele>
        <time>2014-05-20T08:16:11Z</time>
      </trkpt>
      <trkpt lat="44.650677479803562" lon="5.456435065716505">
        <ele>582.5999755859375</ele>
        <time>2014-05-20T08:16:13Z</time>
      </trkpt>
      <trkpt lat="44.650710755959153" lon="5.456205569207668">
        <ele>582.20001220703125</ele>
        <time>2014-05-20T08:16:16Z</time>
      </trkpt>
      <trkpt lat="44.650748558342457" lon="5.455876830965281">
        <ele>581.4000244140625</ele>
        <time>2014-05-20T08:16:20Z</time>
      </trkpt>
      <trkpt lat="44.650775045156479" lon="5.455600395798683">
        <ele>580.4000244140625</ele>
        <time>2014-05-20T08:16:23Z</time>
      </trkpt>
      <trkpt lat="44.650795161724091" lon="5.455303089693189">
        <ele>579.20001220703125</ele>
        <time>2014-05-20T08:16:26Z</time>
      </trkpt>
      <trkpt lat="44.650820894166827" lon="5.454895393922925">
        <ele>579.20001220703125</ele>
        <time>2014-05-20T08:16:30Z</time>
      </trkpt>
      <trkpt lat="44.650826677680016" lon="5.454671261832118">
        <ele>577.79998779296875</ele>
        <time>2014-05-20T08:16:32Z</time>
      </trkpt>
      <trkpt lat="44.650838412344456" lon="5.454440088942647">
        <ele>576.4000244140625</ele>
        <time>2014-05-20T08:16:34Z</time>
      </trkpt>
      <trkpt lat="44.650858277454972" lon="5.45408058911562">
        <ele>575.4000244140625</ele>
        <time>2014-05-20T08:16:37Z</time>
      </trkpt>
      <trkpt lat="44.650879986584187" lon="5.453716479241848">
        <ele>574.4000244140625</ele>
        <time>2014-05-20T08:16:40Z</time>
      </trkpt>
      <trkpt lat="44.650875376537442" lon="5.45359343290329">
        <ele>574.4000244140625</ele>
        <time>2014-05-20T08:16:41Z</time>
      </trkpt>
      <trkpt lat="44.65082885697484" lon="5.453361505642533">
        <ele>573.5999755859375</ele>
        <time>2014-05-20T08:16:43Z</time>
      </trkpt>
      <trkpt lat="44.650662895292044" lon="5.453071910887957">
        <ele>573.5999755859375</ele>
        <time>2014-05-20T08:16:46Z</time>
      </trkpt>
      <trkpt lat="44.650590475648642" lon="5.452998150140047">
        <ele>573.20001220703125</ele>
        <time>2014-05-20T08:16:47Z</time>
      </trkpt>
      <trkpt lat="44.650513865053654" lon="5.452929083257914">
        <ele>572.5999755859375</ele>
        <time>2014-05-20T08:16:48Z</time>
      </trkpt>
      <trkpt lat="44.6504389308393" lon="5.452858172357082">
        <ele>572</ele>
        <time>2014-05-20T08:16:49Z</time>
      </trkpt>
      <trkpt lat="44.650363158434629" lon="5.452792039141059">
        <ele>571.20001220703125</ele>
        <time>2014-05-20T08:16:50Z</time>
      </trkpt>
      <trkpt lat="44.6502869669348" lon="5.452728336676955">
        <ele>570.5999755859375</ele>
        <time>2014-05-20T08:16:51Z</time>
      </trkpt>
      <trkpt lat="44.650133326649666" lon="5.452601350843906">
        <ele>569.4000244140625</ele>
        <time>2014-05-20T08:16:53Z</time>
      </trkpt>
      <trkpt lat="44.649825543165207" lon="5.452344110235572">
        <ele>568.4000244140625</ele>
        <time>2014-05-20T08:16:57Z</time>
      </trkpt>
      <trkpt lat="44.649752536788583" lon="5.45227856375277">
        <ele>568.20001220703125</ele>
        <time>2014-05-20T08:16:58Z</time>
      </trkpt>
      <trkpt lat="44.649313995614648" lon="5.451889056712389">
        <ele>567.79998779296875</ele>
        <time>2014-05-20T08:17:04Z</time>
      </trkpt>
      <trkpt lat="44.649246269837022" lon="5.451810853555799">
        <ele>567.4000244140625</ele>
        <time>2014-05-20T08:17:05Z</time>
      </trkpt>
      <trkpt lat="44.649185836315155" lon="5.451722843572497">
        <ele>566.79998779296875</ele>
        <time>2014-05-20T08:17:06Z</time>
      </trkpt>
      <trkpt lat="44.649134036153555" lon="5.45162720605731">
        <ele>566.4000244140625</ele>
        <time>2014-05-20T08:17:07Z</time>
      </trkpt>
      <trkpt lat="44.649091120809317" lon="5.451523689553142">
        <ele>566</ele>
        <time>2014-05-20T08:17:08Z</time>
      </trkpt>
      <trkpt lat="44.648934127762914" lon="5.450996719300747">
        <ele>565.79998779296875</ele>
        <time>2014-05-20T08:17:13Z</time>
      </trkpt>
      <trkpt lat="44.648728016763926" lon="5.45027319341898">
        <ele>566</ele>
        <time>2014-05-20T08:17:20Z</time>
      </trkpt>
      <trkpt lat="44.648700272664428" lon="5.450172275304794">
        <ele>565.79998779296875</ele>
        <time>2014-05-20T08:17:21Z</time>
      </trkpt>
      <trkpt lat="44.648524504154921" lon="5.44956517405808">
        <ele>565.20001220703125</ele>
        <time>2014-05-20T08:17:27Z</time>
      </trkpt>
      <trkpt lat="44.648434482514858" lon="5.449260994791985">
        <ele>564.5999755859375</ele>
        <time>2014-05-20T08:17:30Z</time>
      </trkpt>
      <trkpt lat="44.64837446808815" lon="5.449056224897504">
        <ele>564</ele>
        <time>2014-05-20T08:17:32Z</time>
      </trkpt>
      <trkpt lat="44.648211942985654" lon="5.448430348187685">
        <ele>562.79998779296875</ele>
        <time>2014-05-20T08:17:38Z</time>
      </trkpt>
      <trkpt lat="44.64815653860569" lon="5.448106806725264">
        <ele>562.5999755859375</ele>
        <time>2014-05-20T08:17:41Z</time>
      </trkpt>
      <trkpt lat="44.648143965750933" lon="5.447887619957328">
        <ele>562.20001220703125</ele>
        <time>2014-05-20T08:17:43Z</time>
      </trkpt>
      <trkpt lat="44.648143211379647" lon="5.447777733206749">
        <ele>561.20001220703125</ele>
        <time>2014-05-20T08:17:44Z</time>
      </trkpt>
      <trkpt lat="44.648149581626058" lon="5.447669941931963">
        <ele>561</ele>
        <time>2014-05-20T08:17:45Z</time>
      </trkpt>
      <trkpt lat="44.648184953257442" lon="5.447357380762696">
        <ele>561</ele>
        <time>2014-05-20T08:17:48Z</time>
      </trkpt>
      <trkpt lat="44.648197190836072" lon="5.447075748816133">
        <ele>561</ele>
        <time>2014-05-20T08:17:51Z</time>
      </trkpt>
      <trkpt lat="44.648179337382317" lon="5.446892688050866">
        <ele>561.20001220703125</ele>
        <time>2014-05-20T08:17:53Z</time>
      </trkpt>
      <trkpt lat="44.648172128945589" lon="5.446615414693952">
        <ele>560</ele>
        <time>2014-05-20T08:17:56Z</time>
      </trkpt>
      <trkpt lat="44.648189814761281" lon="5.446434449404478">
        <ele>559.79998779296875</ele>
        <time>2014-05-20T08:17:58Z</time>
      </trkpt>
      <trkpt lat="44.648256450891495" lon="5.445814356207848">
        <ele>559.79998779296875</ele>
        <time>2014-05-20T08:18:05Z</time>
      </trkpt>
      <trkpt lat="44.648325685411692" lon="5.445226198062301">
        <ele>560</ele>
        <time>2014-05-20T08:18:12Z</time>
      </trkpt>
      <trkpt lat="44.648376479744911" lon="5.444635106250644">
        <ele>560.4000244140625</ele>
        <time>2014-05-20T08:18:20Z</time>
      </trkpt>
      <trkpt lat="44.648302216082811" lon="5.444383984431624">
        <ele>560.5999755859375</ele>
        <time>2014-05-20T08:18:24Z</time>
      </trkpt>
      <trkpt lat="44.648276651278138" lon="5.444323886185885">
        <ele>560.79998779296875</ele>
        <time>2014-05-20T08:18:25Z</time>
      </trkpt>
      <trkpt lat="44.648136422038078" lon="5.444080978631973">
        <ele>561</ele>
        <time>2014-05-20T08:18:30Z</time>
      </trkpt>
      <trkpt lat="44.648106331005692" lon="5.444043595343828">
        <ele>561</ele>
        <time>2014-05-20T08:18:31Z</time>
      </trkpt>
      <trkpt lat="44.647826040163636" lon="5.443755006417632">
        <ele>560</ele>
        <time>2014-05-20T08:18:40Z</time>
      </trkpt>
      <trkpt lat="44.647554885596037" lon="5.443579908460379">
        <ele>559.20001220703125</ele>
        <time>2014-05-20T08:18:48Z</time>
      </trkpt>
      <trkpt lat="44.647220782935619" lon="5.443394081667066">
        <ele>559.5999755859375</ele>
        <time>2014-05-20T08:18:56Z</time>
      </trkpt>
      <trkpt lat="44.646948371082544" lon="5.443093003705144">
        <ele>560.20001220703125</ele>
        <time>2014-05-20T08:19:03Z</time>
      </trkpt>
      <trkpt lat="44.646723987534642" lon="5.442752446979284">
        <ele>559.20001220703125</ele>
        <time>2014-05-20T08:19:10Z</time>
      </trkpt>
      <trkpt lat="44.646515445783734" lon="5.442441310733557">
        <ele>558.79998779296875</ele>
        <time>2014-05-20T08:19:17Z</time>
      </trkpt>
      <trkpt lat="44.646487617865205" lon="5.44239747337997">
        <ele>558.5999755859375</ele>
        <time>2014-05-20T08:19:18Z</time>
      </trkpt>
      <trkpt lat="44.646399775519967" lon="5.442261770367622">
        <ele>560</ele>
        <time>2014-05-20T08:19:21Z</time>
      </trkpt>
      <trkpt lat="44.646278405562043" lon="5.442052390426397">
        <ele>559.79998779296875</ele>
        <time>2014-05-20T08:19:25Z</time>
      </trkpt>
      <trkpt lat="44.64611554518342" lon="5.441772853955627">
        <ele>559</ele>
        <time>2014-05-20T08:19:31Z</time>
      </trkpt>
      <trkpt lat="44.646083861589432" lon="5.441709905862808">
        <ele>558.79998779296875</ele>
        <time>2014-05-20T08:19:32Z</time>
      </trkpt>
      <trkpt lat="44.645938351750374" lon="5.441293157637119">
        <ele>559.79998779296875</ele>
        <time>2014-05-20T08:19:38Z</time>
      </trkpt>
      <trkpt lat="44.64591521769762" lon="5.441147312521935">
        <ele>560.4000244140625</ele>
        <time>2014-05-20T08:19:40Z</time>
      </trkpt>
      <trkpt lat="44.645902309566736" lon="5.440854029729962">
        <ele>559.20001220703125</ele>
        <time>2014-05-20T08:19:44Z</time>
      </trkpt>
      <trkpt lat="44.645909601822495" lon="5.440711537376046">
        <ele>559.20001220703125</ele>
        <time>2014-05-20T08:19:46Z</time>
      </trkpt>
      <trkpt lat="44.645919911563396" lon="5.440508695319295">
        <ele>559.20001220703125</ele>
        <time>2014-05-20T08:19:49Z</time>
      </trkpt>
      <trkpt lat="44.645921587944031" lon="5.440370813012123">
        <ele>559</ele>
        <time>2014-05-20T08:19:51Z</time>
      </trkpt>
      <trkpt lat="44.645915888249874" lon="5.440088761970401">
        <ele>558.79998779296875</ele>
        <time>2014-05-20T08:19:55Z</time>
      </trkpt>
      <trkpt lat="44.645903147757053" lon="5.439861277118325">
        <ele>558.20001220703125</ele>
        <time>2014-05-20T08:19:58Z</time>
      </trkpt>
      <trkpt lat="44.645885126665235" lon="5.439479565247893">
        <ele>557.79998779296875</ele>
        <time>2014-05-20T08:20:03Z</time>
      </trkpt>
      <trkpt lat="44.645882109180093" lon="5.439330032095313">
        <ele>557.79998779296875</ele>
        <time>2014-05-20T08:20:05Z</time>
      </trkpt>
      <trkpt lat="44.645874397829175" lon="5.439173625782132">
        <ele>557.79998779296875</ele>
        <time>2014-05-20T08:20:07Z</time>
      </trkpt>
      <trkpt lat="44.645815640687943" lon="5.438564093783498">
        <ele>558</ele>
        <time>2014-05-20T08:20:15Z</time>
      </trkpt>
      <trkpt lat="44.645810946822166" lon="5.438417410477996">
        <ele>557.79998779296875</ele>
        <time>2014-05-20T08:20:17Z</time>
      </trkpt>
      <trkpt lat="44.645803906023502" lon="5.438186824321747">
        <ele>557.4000244140625</ele>
        <time>2014-05-20T08:20:20Z</time>
      </trkpt>
      <trkpt lat="44.645792758092284" lon="5.437959590926766">
        <ele>557</ele>
        <time>2014-05-20T08:20:23Z</time>
      </trkpt>
      <trkpt lat="44.645754788070917" lon="5.43766756542027">
        <ele>556.4000244140625</ele>
        <time>2014-05-20T08:20:27Z</time>
      </trkpt>
      <trkpt lat="44.645734755322337" lon="5.437598498538137">
        <ele>556.20001220703125</ele>
        <time>2014-05-20T08:20:28Z</time>
      </trkpt>
      <trkpt lat="44.64570801705122" lon="5.437529096379876">
        <ele>556</ele>
        <time>2014-05-20T08:20:29Z</time>
      </trkpt>
      <trkpt lat="44.645626964047551" lon="5.437319297343493">
        <ele>555.5999755859375</ele>
        <time>2014-05-20T08:20:32Z</time>
      </trkpt>
      <trkpt lat="44.645441137254238" lon="5.436841109767556">
        <ele>555.20001220703125</ele>
        <time>2014-05-20T08:20:39Z</time>
      </trkpt>
      <trkpt lat="44.645322533324361" lon="5.436560651287437">
        <ele>555</ele>
        <time>2014-05-20T08:20:43Z</time>
      </trkpt>
      <trkpt lat="44.645282132551074" lon="5.436492254957557">
        <ele>554.79998779296875</ele>
        <time>2014-05-20T08:20:44Z</time>
      </trkpt>
      <trkpt lat="44.645193954929709" lon="5.436358898878098">
        <ele>554.5999755859375</ele>
        <time>2014-05-20T08:20:46Z</time>
      </trkpt>
      <trkpt lat="44.645097814500332" lon="5.436251275241375">
        <ele>554.4000244140625</ele>
        <time>2014-05-20T08:20:48Z</time>
      </trkpt>
      <trkpt lat="44.644992118701339" lon="5.436153542250395">
        <ele>553.4000244140625</ele>
        <time>2014-05-20T08:20:50Z</time>
      </trkpt>
      <trkpt lat="44.644658686593175" lon="5.435823881998658">
        <ele>552</ele>
        <time>2014-05-20T08:20:56Z</time>
      </trkpt>
      <trkpt lat="44.64447470381856" lon="5.435664458200336">
        <ele>550.79998779296875</ele>
        <time>2014-05-20T08:20:59Z</time>
      </trkpt>
      <trkpt lat="44.644354842603207" lon="5.435544680804014">
        <ele>549.79998779296875</ele>
        <time>2014-05-20T08:21:01Z</time>
      </trkpt>
      <trkpt lat="44.644294576719403" lon="5.435484582558274">
        <ele>549.4000244140625</ele>
        <time>2014-05-20T08:21:02Z</time>
      </trkpt>
      <trkpt lat="44.644169267266989" lon="5.435367990285158">
        <ele>548.20001220703125</ele>
        <time>2014-05-20T08:21:04Z</time>
      </trkpt>
      <trkpt lat="44.644043287262321" lon="5.435267072170973">
        <ele>547.20001220703125</ele>
        <time>2014-05-20T08:21:06Z</time>
      </trkpt>
      <trkpt lat="44.64397975243628" lon="5.435230610892177">
        <ele>546.5999755859375</ele>
        <time>2014-05-20T08:21:07Z</time>
      </trkpt>
      <trkpt lat="44.643916049972177" lon="5.435200519859791">
        <ele>546.4000244140625</ele>
        <time>2014-05-20T08:21:08Z</time>
      </trkpt>
      <trkpt lat="44.643571637570858" lon="5.435161795467138">
        <ele>547.20001220703125</ele>
        <time>2014-05-20T08:21:13Z</time>
      </trkpt>
      <trkpt lat="44.643378350883722" lon="5.435261875391007">
        <ele>546.79998779296875</ele>
        <time>2014-05-20T08:21:16Z</time>
      </trkpt>
      <trkpt lat="44.643318168818951" lon="5.435302779078484">
        <ele>547</ele>
        <time>2014-05-20T08:21:17Z</time>
      </trkpt>
      <trkpt lat="44.64326192624867" lon="5.435350388288498">
        <ele>547</ele>
        <time>2014-05-20T08:21:18Z</time>
      </trkpt>
      <trkpt lat="44.643050786107779" lon="5.435569491237402">
        <ele>546.4000244140625</ele>
        <time>2014-05-20T08:21:22Z</time>
      </trkpt>
      <trkpt lat="44.642846938222647" lon="5.435793288052082">
        <ele>546.20001220703125</ele>
        <time>2014-05-20T08:21:26Z</time>
      </trkpt>
      <trkpt lat="44.642702015116811" lon="5.435953047126532">
        <ele>546.4000244140625</ele>
        <time>2014-05-20T08:21:29Z</time>
      </trkpt>
      <trkpt lat="44.642563378438354" lon="5.436097718775272">
        <ele>547.5999755859375</ele>
        <time>2014-05-20T08:21:32Z</time>
      </trkpt>
      <trkpt lat="44.642369505017996" lon="5.436284719035029">
        <ele>547.5999755859375</ele>
        <time>2014-05-20T08:21:36Z</time>
      </trkpt>
      <trkpt lat="44.642222570255399" lon="5.436420422047377">
        <ele>546.5999755859375</ele>
        <time>2014-05-20T08:21:39Z</time>
      </trkpt>
      <trkpt lat="44.64195879176259" lon="5.436610523611307">
        <ele>546.4000244140625</ele>
        <time>2014-05-20T08:21:44Z</time>
      </trkpt>
      <trkpt lat="44.641903722658753" lon="5.436646565794945">
        <ele>545.20001220703125</ele>
        <time>2014-05-20T08:21:45Z</time>
      </trkpt>
      <trkpt lat="44.641527710482478" lon="5.436898022890091">
        <ele>544.20001220703125</ele>
        <time>2014-05-20T08:21:52Z</time>
      </trkpt>
      <trkpt lat="44.641474401578307" lon="5.436931131407619">
        <ele>544</ele>
        <time>2014-05-20T08:21:53Z</time>
      </trkpt>
      <trkpt lat="44.641205510124564" lon="5.437085023149848">
        <ele>545</ele>
        <time>2014-05-20T08:21:58Z</time>
      </trkpt>
      <trkpt lat="44.641153290867805" lon="5.4371203109622">
        <ele>544.79998779296875</ele>
        <time>2014-05-20T08:21:59Z</time>
      </trkpt>
      <trkpt lat="44.641045499593019" lon="5.437185354530811">
        <ele>543.5999755859375</ele>
        <time>2014-05-20T08:22:01Z</time>
      </trkpt>
      <trkpt lat="44.640526827424765" lon="5.43747503310442">
        <ele>544.5999755859375</ele>
        <time>2014-05-20T08:22:11Z</time>
      </trkpt>
      <trkpt lat="44.640472764149308" lon="5.437499508261681">
        <ele>544.79998779296875</ele>
        <time>2014-05-20T08:22:12Z</time>
      </trkpt>
      <trkpt lat="44.640139834955335" lon="5.437578968703747">
        <ele>544</ele>
        <time>2014-05-20T08:22:18Z</time>
      </trkpt>
      <trkpt lat="44.640084430575371" lon="5.437571341171861">
        <ele>543.79998779296875</ele>
        <time>2014-05-20T08:22:19Z</time>
      </trkpt>
      <trkpt lat="44.63998518884182" lon="5.43754200451076">
        <ele>543.5999755859375</ele>
        <time>2014-05-20T08:22:21Z</time>
      </trkpt>
      <trkpt lat="44.639898017048836" lon="5.437500011175871">
        <ele>544.5999755859375</ele>
        <time>2014-05-20T08:22:23Z</time>
      </trkpt>
      <trkpt lat="44.639811348170042" lon="5.437476206570864">
        <ele>544.4000244140625</ele>
        <time>2014-05-20T08:22:25Z</time>
      </trkpt>
      <trkpt lat="44.639670448377728" lon="5.437521301209927">
        <ele>543.5999755859375</ele>
        <time>2014-05-20T08:22:28Z</time>
      </trkpt>
      <trkpt lat="44.639619989320636" lon="5.437549380585551">
        <ele>543.5999755859375</ele>
        <time>2014-05-20T08:22:29Z</time>
      </trkpt>
      <trkpt lat="44.639380937442183" lon="5.437654489651322">
        <ele>542.4000244140625</ele>
        <time>2014-05-20T08:22:33Z</time>
      </trkpt>
      <trkpt lat="44.639241294935346" lon="5.437679970636964">
        <ele>541</ele>
        <time>2014-05-20T08:22:35Z</time>
      </trkpt>
      <trkpt lat="44.63902747258544" lon="5.437702937051654">
        <ele>540.79998779296875</ele>
        <time>2014-05-20T08:22:38Z</time>
      </trkpt>
      <trkpt lat="44.638876095414162" lon="5.437714671716094">
        <ele>539.20001220703125</ele>
        <time>2014-05-20T08:22:40Z</time>
      </trkpt>
      <trkpt lat="44.638718599453568" lon="5.437731938436627">
        <ele>538</ele>
        <time>2014-05-20T08:22:42Z</time>
      </trkpt>
      <trkpt lat="44.638550123199821" lon="5.437750965356827">
        <ele>537.4000244140625</ele>
        <time>2014-05-20T08:22:44Z</time>
      </trkpt>
      <trkpt lat="44.638464124873281" lon="5.437760772183538">
        <ele>536.4000244140625</ele>
        <time>2014-05-20T08:22:45Z</time>
      </trkpt>
      <trkpt lat="44.638290954753757" lon="5.437781643122435">
        <ele>534.79998779296875</ele>
        <time>2014-05-20T08:22:47Z</time>
      </trkpt>
      <trkpt lat="44.637672370299697" lon="5.437852218747139">
        <ele>534</ele>
        <time>2014-05-20T08:22:54Z</time>
      </trkpt>
      <trkpt lat="44.637397527694702" lon="5.437886919826269">
        <ele>533.5999755859375</ele>
        <time>2014-05-20T08:22:57Z</time>
      </trkpt>
      <trkpt lat="44.637034926563501" lon="5.437935534864664">
        <ele>532.5999755859375</ele>
        <time>2014-05-20T08:23:01Z</time>
      </trkpt>
      <trkpt lat="44.63676368817687" lon="5.437963111326098">
        <ele>531.20001220703125</ele>
        <time>2014-05-20T08:23:04Z</time>
      </trkpt>
      <trkpt lat="44.636408630758524" lon="5.438005523756146">
        <ele>530</ele>
        <time>2014-05-20T08:23:08Z</time>
      </trkpt>
      <trkpt lat="44.636060362681746" lon="5.438047181814909">
        <ele>529.20001220703125</ele>
        <time>2014-05-20T08:23:12Z</time>
      </trkpt>
      <trkpt lat="44.635973693802953" lon="5.438058665022254">
        <ele>528.4000244140625</ele>
        <time>2014-05-20T08:23:13Z</time>
      </trkpt>
      <trkpt lat="44.635807983577251" lon="5.438073836266995">
        <ele>527.20001220703125</ele>
        <time>2014-05-20T08:23:15Z</time>
      </trkpt>
      <trkpt lat="44.635564656928182" lon="5.438104178756475">
        <ele>527</ele>
        <time>2014-05-20T08:23:18Z</time>
      </trkpt>
      <trkpt lat="44.635408334434032" lon="5.438123540952802">
        <ele>528.20001220703125</ele>
        <time>2014-05-20T08:23:20Z</time>
      </trkpt>
      <trkpt lat="44.635258885100484" lon="5.438146004453301">
        <ele>527.20001220703125</ele>
        <time>2014-05-20T08:23:22Z</time>
      </trkpt>
      <trkpt lat="44.635110609233379" lon="5.438161510974169">
        <ele>528.20001220703125</ele>
        <time>2014-05-20T08:23:24Z</time>
      </trkpt>
      <trkpt lat="44.63496208190918" lon="5.4381806217134">
        <ele>528.4000244140625</ele>
        <time>2014-05-20T08:23:26Z</time>
      </trkpt>
      <trkpt lat="44.634464364498854" lon="5.438239462673664">
        <ele>529.4000244140625</ele>
        <time>2014-05-20T08:23:33Z</time>
      </trkpt>
      <trkpt lat="44.634391525760293" lon="5.438251364976168">
        <ele>529.79998779296875</ele>
        <time>2014-05-20T08:23:34Z</time>
      </trkpt>
      <trkpt lat="44.634098159149289" lon="5.438274750486016">
        <ele>528.20001220703125</ele>
        <time>2014-05-20T08:23:38Z</time>
      </trkpt>
      <trkpt lat="44.633885677903891" lon="5.438294867053628">
        <ele>528.79998779296875</ele>
        <time>2014-05-20T08:23:41Z</time>
      </trkpt>
      <trkpt lat="44.633570685982704" lon="5.438350858166814">
        <ele>529.20001220703125</ele>
        <time>2014-05-20T08:23:46Z</time>
      </trkpt>
      <trkpt lat="44.633510001003742" lon="5.438371393829584">
        <ele>530</ele>
        <time>2014-05-20T08:23:47Z</time>
      </trkpt>
      <trkpt lat="44.633449399843812" lon="5.438383463770151">
        <ele>530.79998779296875</ele>
        <time>2014-05-20T08:23:48Z</time>
      </trkpt>
      <trkpt lat="44.63339458219707" lon="5.438404837623239">
        <ele>531.4000244140625</ele>
        <time>2014-05-20T08:23:49Z</time>
      </trkpt>
      <trkpt lat="44.633230632171035" lon="5.438483208417893">
        <ele>530.79998779296875</ele>
        <time>2014-05-20T08:23:52Z</time>
      </trkpt>
      <trkpt lat="44.63278672657907" lon="5.438703903928399">
        <ele>530.79998779296875</ele>
        <time>2014-05-20T08:24:00Z</time>
      </trkpt>
      <trkpt lat="44.632358578965068" lon="5.438924683257937">
        <ele>532.5999755859375</ele>
        <time>2014-05-20T08:24:09Z</time>
      </trkpt>
      <trkpt lat="44.632148947566748" lon="5.439026774838567">
        <ele>533.79998779296875</ele>
        <time>2014-05-20T08:24:14Z</time>
      </trkpt>
      <trkpt lat="44.632023219019175" lon="5.439076814800501">
        <ele>534.5999755859375</ele>
        <time>2014-05-20T08:24:17Z</time>
      </trkpt>
      <trkpt lat="44.631773270666599" lon="5.439198184758425">
        <ele>535</ele>
        <time>2014-05-20T08:24:24Z</time>
      </trkpt>
      <trkpt lat="44.63155441917479" lon="5.439289882779121">
        <ele>535.79998779296875</ele>
        <time>2014-05-20T08:24:31Z</time>
      </trkpt>
      <trkpt lat="44.631459368392825" lon="5.439330283552408">
        <ele>536</ele>
        <time>2014-05-20T08:24:34Z</time>
      </trkpt>
      <trkpt lat="44.631335735321045" lon="5.439392477273941">
        <ele>536.4000244140625</ele>
        <time>2014-05-20T08:24:38Z</time>
      </trkpt>
      <trkpt lat="44.631099114194512" lon="5.439509991556406">
        <ele>537.20001220703125</ele>
        <time>2014-05-20T08:24:46Z</time>
      </trkpt>
      <trkpt lat="44.631070448085666" lon="5.439524156972766">
        <ele>537.5999755859375</ele>
        <time>2014-05-20T08:24:47Z</time>
      </trkpt>
      <trkpt lat="44.630862912163138" lon="5.439617447555065">
        <ele>538.4000244140625</ele>
        <time>2014-05-20T08:24:54Z</time>
      </trkpt>
      <trkpt lat="44.630835251882672" lon="5.439628008753061">
        <ele>538.20001220703125</ele>
        <time>2014-05-20T08:24:55Z</time>
      </trkpt>
      <trkpt lat="44.630607347935438" lon="5.439724819734693">
        <ele>539</ele>
        <time>2014-05-20T08:25:03Z</time>
      </trkpt>
      <trkpt lat="44.630487654358149" lon="5.439787348732352">
        <ele>539.5999755859375</ele>
        <time>2014-05-20T08:25:07Z</time>
      </trkpt>
      <trkpt lat="44.630330828949809" lon="5.439860271289945">
        <ele>539.5999755859375</ele>
        <time>2014-05-20T08:25:12Z</time>
      </trkpt>
      <trkpt lat="44.630101751536131" lon="5.439971499145031">
        <ele>540.5999755859375</ele>
        <time>2014-05-20T08:25:19Z</time>
      </trkpt>
      <trkpt lat="44.6300636138767" lon="5.439990945160389">
        <ele>540.79998779296875</ele>
        <time>2014-05-20T08:25:20Z</time>
      </trkpt>
      <trkpt lat="44.62977971881628" lon="5.440149530768395">
        <ele>541.79998779296875</ele>
        <time>2014-05-20T08:25:28Z</time>
      </trkpt>
      <trkpt lat="44.629746358841658" lon="5.440178113058209">
        <ele>542</ele>
        <time>2014-05-20T08:25:29Z</time>
      </trkpt>
      <trkpt lat="44.629616355523467" lon="5.44029051437974">
        <ele>542.4000244140625</ele>
        <time>2014-05-20T08:25:33Z</time>
      </trkpt>
      <trkpt lat="44.629438910633326" lon="5.44048547744751">
        <ele>542.4000244140625</ele>
        <time>2014-05-20T08:25:39Z</time>
      </trkpt>
      <trkpt lat="44.629193153232336" lon="5.440774653106928">
        <ele>542.4000244140625</ele>
        <time>2014-05-20T08:25:47Z</time>
      </trkpt>
      <trkpt lat="44.629127187654376" lon="5.440851347520948">
        <ele>542.20001220703125</ele>
        <time>2014-05-20T08:25:49Z</time>
      </trkpt>
      <trkpt lat="44.628952005878091" lon="5.440977998077869">
        <ele>542.20001220703125</ele>
        <time>2014-05-20T08:25:53Z</time>
      </trkpt>
      <trkpt lat="44.628751259297132" lon="5.44105863198638">
        <ele>540.79998779296875</ele>
        <time>2014-05-20T08:25:57Z</time>
      </trkpt>
      <trkpt lat="44.628702141344547" lon="5.441065253689885">
        <ele>541</ele>
        <time>2014-05-20T08:25:58Z</time>
      </trkpt>
      <trkpt lat="44.628652771934867" lon="5.44107330031693">
        <ele>541.4000244140625</ele>
        <time>2014-05-20T08:25:59Z</time>
      </trkpt>
      <trkpt lat="44.62838270701468" lon="5.441108420491219">
        <ele>542</ele>
        <time>2014-05-20T08:26:05Z</time>
      </trkpt>
      <trkpt lat="44.628337863832712" lon="5.441120825707912">
        <ele>541.79998779296875</ele>
        <time>2014-05-20T08:26:06Z</time>
      </trkpt>
      <trkpt lat="44.628161173313856" lon="5.441198442131281">
        <ele>541.4000244140625</ele>
        <time>2014-05-20T08:26:10Z</time>
      </trkpt>
      <trkpt lat="44.628071906045079" lon="5.441257450729609">
        <ele>541.20001220703125</ele>
        <time>2014-05-20T08:26:12Z</time>
      </trkpt>
      <trkpt lat="44.62802748195827" lon="5.441293995827436">
        <ele>541.20001220703125</ele>
        <time>2014-05-20T08:26:13Z</time>
      </trkpt>
      <trkpt lat="44.627859173342586" lon="5.441490635275841">
        <ele>540.4000244140625</ele>
        <time>2014-05-20T08:26:17Z</time>
      </trkpt>
      <trkpt lat="44.62782028131187" lon="5.441550062969327">
        <ele>540.20001220703125</ele>
        <time>2014-05-20T08:26:18Z</time>
      </trkpt>
      <trkpt lat="44.627481568604708" lon="5.441954154521227">
        <ele>539.5999755859375</ele>
        <time>2014-05-20T08:26:26Z</time>
      </trkpt>
      <trkpt lat="44.627325162291527" lon="5.442060939967632">
        <ele>539.20001220703125</ele>
        <time>2014-05-20T08:26:29Z</time>
      </trkpt>
      <trkpt lat="44.627216197550297" lon="5.442116260528565">
        <ele>538.5999755859375</ele>
        <time>2014-05-20T08:26:31Z</time>
      </trkpt>
      <trkpt lat="44.626924507319927" lon="5.442237546667457">
        <ele>538.20001220703125</ele>
        <time>2014-05-20T08:26:36Z</time>
      </trkpt>
      <trkpt lat="44.626803221181035" lon="5.442289346829057">
        <ele>537.5999755859375</ele>
        <time>2014-05-20T08:26:38Z</time>
      </trkpt>
      <trkpt lat="44.626487139612436" lon="5.442422786727548">
        <ele>537</ele>
        <time>2014-05-20T08:26:43Z</time>
      </trkpt>
      <trkpt lat="44.626419497653842" lon="5.442448267713189">
        <ele>537</ele>
        <time>2014-05-20T08:26:44Z</time>
      </trkpt>
      <trkpt lat="44.626150857657194" lon="5.442537032067776">
        <ele>536</ele>
        <time>2014-05-20T08:26:48Z</time>
      </trkpt>
      <trkpt lat="44.625891353935003" lon="5.442640297114849">
        <ele>535.79998779296875</ele>
        <time>2014-05-20T08:26:52Z</time>
      </trkpt>
      <trkpt lat="44.625473264604807" lon="5.442820088937879">
        <ele>536.79998779296875</ele>
        <time>2014-05-20T08:26:59Z</time>
      </trkpt>
      <trkpt lat="44.625367736443877" lon="5.442889491096139">
        <ele>537.20001220703125</ele>
        <time>2014-05-20T08:27:01Z</time>
      </trkpt>
      <trkpt lat="44.625216778367758" lon="5.442985380068421">
        <ele>537</ele>
        <time>2014-05-20T08:27:04Z</time>
      </trkpt>
      <trkpt lat="44.625172521919012" lon="5.443020248785615">
        <ele>537.20001220703125</ele>
        <time>2014-05-20T08:27:05Z</time>
      </trkpt>
      <trkpt lat="44.625132456421852" lon="5.443059224635363">
        <ele>537.4000244140625</ele>
        <time>2014-05-20T08:27:06Z</time>
      </trkpt>
      <trkpt lat="44.624940175563097" lon="5.443265838548541">
        <ele>538.4000244140625</ele>
        <time>2014-05-20T08:27:11Z</time>
      </trkpt>
      <trkpt lat="44.624620825052261" lon="5.443592984229326">
        <ele>539</ele>
        <time>2014-05-20T08:27:19Z</time>
      </trkpt>
      <trkpt lat="44.624363835901022" lon="5.443816864863038">
        <ele>539.4000244140625</ele>
        <time>2014-05-20T08:27:25Z</time>
      </trkpt>
      <trkpt lat="44.624227127060294" lon="5.44390395283699">
        <ele>539.79998779296875</ele>
        <time>2014-05-20T08:27:28Z</time>
      </trkpt>
      <trkpt lat="44.623803589493036" lon="5.444128504022956">
        <ele>539.79998779296875</ele>
        <time>2014-05-20T08:27:37Z</time>
      </trkpt>
      <trkpt lat="44.623618181794882" lon="5.444218441843987">
        <ele>540.4000244140625</ele>
        <time>2014-05-20T08:27:41Z</time>
      </trkpt>
      <trkpt lat="44.623519359156489" lon="5.444257669150829">
        <ele>540.20001220703125</ele>
        <time>2014-05-20T08:27:43Z</time>
      </trkpt>
      <trkpt lat="44.623325737193227" lon="5.444336710497737">
        <ele>540.20001220703125</ele>
        <time>2014-05-20T08:27:47Z</time>
      </trkpt>
      <trkpt lat="44.623187687247992" lon="5.444400077685714">
        <ele>540</ele>
        <time>2014-05-20T08:27:50Z</time>
      </trkpt>
      <trkpt lat="44.623010326176882" lon="5.444461852312088">
        <ele>540.5999755859375</ele>
        <time>2014-05-20T08:27:54Z</time>
      </trkpt>
      <trkpt lat="44.622884262353182" lon="5.444530583918095">
        <ele>541.4000244140625</ele>
        <time>2014-05-20T08:27:57Z</time>
      </trkpt>
      <trkpt lat="44.622755851596594" lon="5.444614486768842">
        <ele>541.5999755859375</ele>
        <time>2014-05-20T08:28:00Z</time>
      </trkpt>
      <trkpt lat="44.622596008703113" lon="5.444765025749803">
        <ele>541.4000244140625</ele>
        <time>2014-05-20T08:28:04Z</time>
      </trkpt>
      <trkpt lat="44.622328039258718" lon="5.445079179480672">
        <ele>541.20001220703125</ele>
        <time>2014-05-20T08:28:11Z</time>
      </trkpt>
      <trkpt lat="44.622065015137196" lon="5.445446725934744">
        <ele>541.79998779296875</ele>
        <time>2014-05-20T08:28:19Z</time>
      </trkpt>
      <trkpt lat="44.621870722621679" lon="5.445770686492324">
        <ele>542.20001220703125</ele>
        <time>2014-05-20T08:28:26Z</time>
      </trkpt>
      <trkpt lat="44.621668215841055" lon="5.446108058094978">
        <ele>542.79998779296875</ele>
        <time>2014-05-20T08:28:33Z</time>
      </trkpt>
      <trkpt lat="44.621445341035724" lon="5.446458421647549">
        <ele>543</ele>
        <time>2014-05-20T08:28:40Z</time>
      </trkpt>
      <trkpt lat="44.621222885325551" lon="5.446759080514312">
        <ele>543.79998779296875</ele>
        <time>2014-05-20T08:28:47Z</time>
      </trkpt>
      <trkpt lat="44.62119203992188" lon="5.446794033050537">
        <ele>544</ele>
        <time>2014-05-20T08:28:48Z</time>
      </trkpt>
      <trkpt lat="44.620985761284828" lon="5.447040712460876">
        <ele>544.79998779296875</ele>
        <time>2014-05-20T08:28:55Z</time>
      </trkpt>
      <trkpt lat="44.620955586433411" lon="5.447079604491592">
        <ele>545</ele>
        <time>2014-05-20T08:28:56Z</time>
      </trkpt>
      <trkpt lat="44.620767161250114" lon="5.447298120707274">
        <ele>545.79998779296875</ele>
        <time>2014-05-20T08:29:02Z</time>
      </trkpt>
      <trkpt lat="44.620625087991357" lon="5.447482187300921">
        <ele>546.20001220703125</ele>
        <time>2014-05-20T08:29:07Z</time>
      </trkpt>
      <trkpt lat="44.620535569265485" lon="5.447598109021783">
        <ele>547</ele>
        <time>2014-05-20T08:29:10Z</time>
      </trkpt>
      <trkpt lat="44.620475051924586" lon="5.44767958112061">
        <ele>547.4000244140625</ele>
        <time>2014-05-20T08:29:12Z</time>
      </trkpt>
      <trkpt lat="44.620337588712573" lon="5.447858786210418">
        <ele>548</ele>
        <time>2014-05-20T08:29:17Z</time>
      </trkpt>
      <trkpt lat="44.620212698355317" lon="5.448018293827772">
        <ele>548.5999755859375</ele>
        <time>2014-05-20T08:29:22Z</time>
      </trkpt>
      <trkpt lat="44.620167268440127" lon="5.44807679951191">
        <ele>549</ele>
        <time>2014-05-20T08:29:24Z</time>
      </trkpt>
      <trkpt lat="44.619959648698568" lon="5.448321383446455">
        <ele>549</ele>
        <time>2014-05-20T08:29:32Z</time>
      </trkpt>
      <trkpt lat="44.619700480252504" lon="5.44860452413559">
        <ele>548.5999755859375</ele>
        <time>2014-05-20T08:29:40Z</time>
      </trkpt>
      <trkpt lat="44.619435779750347" lon="5.448895879089832">
        <ele>549.4000244140625</ele>
        <time>2014-05-20T08:29:48Z</time>
      </trkpt>
      <trkpt lat="44.619332933798432" lon="5.448992270976305">
        <ele>549.5999755859375</ele>
        <time>2014-05-20T08:29:51Z</time>
      </trkpt>
      <trkpt lat="44.619203433394432" lon="5.449129734188318">
        <ele>550.4000244140625</ele>
        <time>2014-05-20T08:29:55Z</time>
      </trkpt>
      <trkpt lat="44.619172168895602" lon="5.449164938181639">
        <ele>550.79998779296875</ele>
        <time>2014-05-20T08:29:56Z</time>
      </trkpt>
      <trkpt lat="44.61895658634603" lon="5.449390495195985">
        <ele>551.79998779296875</ele>
        <time>2014-05-20T08:30:03Z</time>
      </trkpt>
      <trkpt lat="44.618838066235185" lon="5.449493005871773">
        <ele>552.79998779296875</ele>
        <time>2014-05-20T08:30:07Z</time>
      </trkpt>
      <trkpt lat="44.618782997131348" lon="5.449548242613673">
        <ele>553</ele>
        <time>2014-05-20T08:30:09Z</time>
      </trkpt>
      <trkpt lat="44.618665399029851" lon="5.449675647541881">
        <ele>553.79998779296875</ele>
        <time>2014-05-20T08:30:14Z</time>
      </trkpt>
      <trkpt lat="44.61861552670598" lon="5.44971814379096">
        <ele>554.20001220703125</ele>
        <time>2014-05-20T08:30:16Z</time>
      </trkpt>
      <trkpt lat="44.618438752368093" lon="5.449814954772592">
        <ele>554.20001220703125</ele>
        <time>2014-05-20T08:30:22Z</time>
      </trkpt>
      <trkpt lat="44.618241274729371" lon="5.44993607327342">
        <ele>554.79998779296875</ele>
        <time>2014-05-20T08:30:29Z</time>
      </trkpt>
      <trkpt lat="44.618213530629873" lon="5.449953423812985">
        <ele>555.20001220703125</ele>
        <time>2014-05-20T08:30:30Z</time>
      </trkpt>
      <trkpt lat="44.618099201470613" lon="5.450024418532848">
        <ele>556</ele>
        <time>2014-05-20T08:30:34Z</time>
      </trkpt>
      <trkpt lat="44.618042875081301" lon="5.450063478201628">
        <ele>556.4000244140625</ele>
        <time>2014-05-20T08:30:36Z</time>
      </trkpt>
      <trkpt lat="44.617826286703348" lon="5.450198845937848">
        <ele>557</ele>
        <time>2014-05-20T08:30:44Z</time>
      </trkpt>
      <trkpt lat="44.617666779085994" lon="5.450287442654371">
        <ele>558.20001220703125</ele>
        <time>2014-05-20T08:30:50Z</time>
      </trkpt>
      <trkpt lat="44.617498889565468" lon="5.450373189523816">
        <ele>559</ele>
        <time>2014-05-20T08:30:56Z</time>
      </trkpt>
      <trkpt lat="44.617452202364802" lon="5.450387774035335">
        <ele>559.4000244140625</ele>
        <time>2014-05-20T08:30:58Z</time>
      </trkpt>
      <trkpt lat="44.617370646446943" lon="5.450429180637002">
        <ele>559.5999755859375</ele>
        <time>2014-05-20T08:31:01Z</time>
      </trkpt>
      <trkpt lat="44.617258831858635" lon="5.45049799606204">
        <ele>560.4000244140625</ele>
        <time>2014-05-20T08:31:05Z</time>
      </trkpt>
      <trkpt lat="44.617137461900711" lon="5.450560357421637">
        <ele>561</ele>
        <time>2014-05-20T08:31:09Z</time>
      </trkpt>
      <trkpt lat="44.617076022550464" lon="5.450597992166877">
        <ele>561.5999755859375</ele>
        <time>2014-05-20T08:31:11Z</time>
      </trkpt>
      <trkpt lat="44.616860523819923" lon="5.450724894180894">
        <ele>560.79998779296875</ele>
        <time>2014-05-20T08:31:17Z</time>
      </trkpt>
      <trkpt lat="44.61668492294848" lon="5.450813909992576">
        <ele>561</ele>
        <time>2014-05-20T08:31:22Z</time>
      </trkpt>
      <trkpt lat="44.616432376205921" lon="5.45093092136085">
        <ele>560.5999755859375</ele>
        <time>2014-05-20T08:31:28Z</time>
      </trkpt>
      <trkpt lat="44.616397758945823" lon="5.450951121747494">
        <ele>560.5999755859375</ele>
        <time>2014-05-20T08:31:29Z</time>
      </trkpt>
      <trkpt lat="44.616322405636311" lon="5.450971154496074">
        <ele>561.20001220703125</ele>
        <time>2014-05-20T08:31:32Z</time>
      </trkpt>
      <trkpt lat="44.616177650168538" lon="5.451032677665353">
        <ele>561.20001220703125</ele>
        <time>2014-05-20T08:31:38Z</time>
      </trkpt>
      <trkpt lat="44.616069523617625" lon="5.451179193332791">
        <ele>561.4000244140625</ele>
        <time>2014-05-20T08:31:43Z</time>
      </trkpt>
      <trkpt lat="44.615973047912121" lon="5.451315734535456">
        <ele>561.79998779296875</ele>
        <time>2014-05-20T08:31:47Z</time>
      </trkpt>
      <trkpt lat="44.615887133404613" lon="5.451421262696385">
        <ele>562</ele>
        <time>2014-05-20T08:31:50Z</time>
      </trkpt>
      <trkpt lat="44.615747490897775" lon="5.451594013720751">
        <ele>562.5999755859375</ele>
        <time>2014-05-20T08:31:56Z</time>
      </trkpt>
      <trkpt lat="44.615740869194269" lon="5.451625278219581">
        <ele>562.5999755859375</ele>
        <time>2014-05-20T08:31:57Z</time>
      </trkpt>
      <trkpt lat="44.615766517817974" lon="5.451674312353134">
        <ele>562.5999755859375</ele>
        <time>2014-05-20T08:31:59Z</time>
      </trkpt>
      <trkpt lat="44.615782694891095" lon="5.451688477769494">
        <ele>562.4000244140625</ele>
        <time>2014-05-20T08:32:00Z</time>
      </trkpt>
      <trkpt lat="44.615818234160542" lon="5.451654195785523">
        <ele>562.20001220703125</ele>
        <time>2014-05-20T08:32:03Z</time>
      </trkpt>
      <trkpt lat="44.615837931632996" lon="5.451603317633271">
        <ele>563</ele>
        <time>2014-05-20T08:32:25Z</time>
      </trkpt>
      <trkpt lat="44.615853354334831" lon="5.451562413945794">
        <ele>562.20001220703125</ele>
        <time>2014-05-20T08:32:30Z</time>
      </trkpt>
      <trkpt lat="44.61585913784802" lon="5.451482953503728">
        <ele>561.79998779296875</ele>
        <time>2014-05-20T08:32:33Z</time>
      </trkpt>
      <trkpt lat="44.615856036543846" lon="5.451364349573851">
        <ele>561.20001220703125</ele>
        <time>2014-05-20T08:32:36Z</time>
      </trkpt>
      <trkpt lat="44.615827118977904" lon="5.451252032071352">
        <ele>560.79998779296875</ele>
        <time>2014-05-20T08:32:39Z</time>
      </trkpt>
      <trkpt lat="44.615808594971895" lon="5.451155891641974">
        <ele>560.20001220703125</ele>
        <time>2014-05-20T08:32:41Z</time>
      </trkpt>
      <trkpt lat="44.615775737911463" lon="5.450966879725456">
        <ele>559.79998779296875</ele>
        <time>2014-05-20T08:32:44Z</time>
      </trkpt>
      <trkpt lat="44.615730810910463" lon="5.450761187821627">
        <ele>558.5999755859375</ele>
        <time>2014-05-20T08:32:47Z</time>
      </trkpt>
      <trkpt lat="44.61569007486105" lon="5.450542587786913">
        <ele>557.4000244140625</ele>
        <time>2014-05-20T08:32:50Z</time>
      </trkpt>
      <trkpt lat="44.615650596097112" lon="5.450304960832">
        <ele>557</ele>
        <time>2014-05-20T08:32:53Z</time>
      </trkpt>
      <trkpt lat="44.615637017413974" lon="5.450228014960885">
        <ele>555.5999755859375</ele>
        <time>2014-05-20T08:32:54Z</time>
      </trkpt>
      <trkpt lat="44.615625282749534" lon="5.450152661651373">
        <ele>554.20001220703125</ele>
        <time>2014-05-20T08:32:55Z</time>
      </trkpt>
      <trkpt lat="44.615558562800288" lon="5.449770279228687">
        <ele>554</ele>
        <time>2014-05-20T08:33:00Z</time>
      </trkpt>
      <trkpt lat="44.615508690476418" lon="5.449538938701153">
        <ele>553.20001220703125</ele>
        <time>2014-05-20T08:33:03Z</time>
      </trkpt>
      <trkpt lat="44.61546384729445" lon="5.449285553768277">
        <ele>552.20001220703125</ele>
        <time>2014-05-20T08:33:06Z</time>
      </trkpt>
      <trkpt lat="44.615452950820327" lon="5.449202070012689">
        <ele>551.5999755859375</ele>
        <time>2014-05-20T08:33:07Z</time>
      </trkpt>
      <trkpt lat="44.615420512855053" lon="5.449037868529558">
        <ele>550.5999755859375</ele>
        <time>2014-05-20T08:33:09Z</time>
      </trkpt>
      <trkpt lat="44.615366952493787" lon="5.448742406442761">
        <ele>550</ele>
        <time>2014-05-20T08:33:13Z</time>
      </trkpt>
      <trkpt lat="44.615341387689114" lon="5.448603853583336">
        <ele>549.4000244140625</ele>
        <time>2014-05-20T08:33:15Z</time>
      </trkpt>
      <trkpt lat="44.615272907540202" lon="5.44820730574429">
        <ele>548.4000244140625</ele>
        <time>2014-05-20T08:33:20Z</time>
      </trkpt>
      <trkpt lat="44.615238374099135" lon="5.44804117642343">
        <ele>547.4000244140625</ele>
        <time>2014-05-20T08:33:22Z</time>
      </trkpt>
      <trkpt lat="44.615151872858405" lon="5.447679162025452">
        <ele>547.5999755859375</ele>
        <time>2014-05-20T08:33:26Z</time>
      </trkpt>
      <trkpt lat="44.615128235891461" lon="5.447582853958011">
        <ele>547</ele>
        <time>2014-05-20T08:33:27Z</time>
      </trkpt>
      <trkpt lat="44.615066964179277" lon="5.447298958897591">
        <ele>545.79998779296875</ele>
        <time>2014-05-20T08:33:30Z</time>
      </trkpt>
      <trkpt lat="44.614994460716844" lon="5.447007184848189">
        <ele>545.4000244140625</ele>
        <time>2014-05-20T08:33:33Z</time>
      </trkpt>
      <trkpt lat="44.614921370521188" lon="5.44671599753201">
        <ele>544.5999755859375</ele>
        <time>2014-05-20T08:33:36Z</time>
      </trkpt>
      <trkpt lat="44.614846436306834" lon="5.446427660062909">
        <ele>543.4000244140625</ele>
        <time>2014-05-20T08:33:39Z</time>
      </trkpt>
      <trkpt lat="44.614782817661762" lon="5.446254489943385">
        <ele>542.79998779296875</ele>
        <time>2014-05-20T08:33:41Z</time>
      </trkpt>
      <trkpt lat="44.614555835723877" lon="5.445798514410853">
        <ele>543.20001220703125</ele>
        <time>2014-05-20T08:33:47Z</time>
      </trkpt>
      <trkpt lat="44.614351065829396" lon="5.445406828075647">
        <ele>543.5999755859375</ele>
        <time>2014-05-20T08:33:53Z</time>
      </trkpt>
      <trkpt lat="44.614209746941924" lon="5.44514212757349">
        <ele>544.5999755859375</ele>
        <time>2014-05-20T08:33:58Z</time>
      </trkpt>
      <trkpt lat="44.614184936508536" lon="5.445089656859636">
        <ele>544.79998779296875</ele>
        <time>2014-05-20T08:33:59Z</time>
      </trkpt>
      <trkpt lat="44.614122323691845" lon="5.444978261366487">
        <ele>544.79998779296875</ele>
        <time>2014-05-20T08:34:01Z</time>
      </trkpt>
      <trkpt lat="44.61400531232357" lon="5.444868039339781">
        <ele>544.4000244140625</ele>
        <time>2014-05-20T08:34:04Z</time>
      </trkpt>
      <trkpt lat="44.613914284855127" lon="5.444826046004891">
        <ele>545.20001220703125</ele>
        <time>2014-05-20T08:34:06Z</time>
      </trkpt>
      <trkpt lat="44.613782856613398" lon="5.444752285256982">
        <ele>545.5999755859375</ele>
        <time>2014-05-20T08:34:09Z</time>
      </trkpt>
      <trkpt lat="44.613742036744952" lon="5.444722780957818">
        <ele>546</ele>
        <time>2014-05-20T08:34:10Z</time>
      </trkpt>
      <trkpt lat="44.613700127229095" lon="5.444685062393546">
        <ele>546.20001220703125</ele>
        <time>2014-05-20T08:34:11Z</time>
      </trkpt>
      <trkpt lat="44.613627623766661" lon="5.444601410999894">
        <ele>546.79998779296875</ele>
        <time>2014-05-20T08:34:13Z</time>
      </trkpt>
      <trkpt lat="44.61351765319705" lon="5.444482723250985">
        <ele>546.79998779296875</ele>
        <time>2014-05-20T08:34:16Z</time>
      </trkpt>
      <trkpt lat="44.613451352342963" lon="5.444400161504746">
        <ele>546.5999755859375</ele>
        <time>2014-05-20T08:34:18Z</time>
      </trkpt>
      <trkpt lat="44.613367030397058" lon="5.444278791546822">
        <ele>547</ele>
        <time>2014-05-20T08:34:21Z</time>
      </trkpt>
      <trkpt lat="44.613344315439463" lon="5.444234786555171">
        <ele>547</ele>
        <time>2014-05-20T08:34:22Z</time>
      </trkpt>
      <trkpt lat="44.613307267427444" lon="5.444151218980551">
        <ele>548.20001220703125</ele>
        <time>2014-05-20T08:34:24Z</time>
      </trkpt>
      <trkpt lat="44.613279271870852" lon="5.44408374466002">
        <ele>549.79998779296875</ele>
        <time>2014-05-20T08:34:26Z</time>
      </trkpt>
      <trkpt lat="44.613256389275193" lon="5.444008642807603">
        <ele>549.79998779296875</ele>
        <time>2014-05-20T08:34:28Z</time>
      </trkpt>
      <trkpt lat="44.613230740651488" lon="5.443903701379895">
        <ele>551</ele>
        <time>2014-05-20T08:34:31Z</time>
      </trkpt>
      <trkpt lat="44.613212887197733" lon="5.443801525980234">
        <ele>551.4000244140625</ele>
        <time>2014-05-20T08:34:34Z</time>
      </trkpt>
      <trkpt lat="44.613194111734629" lon="5.443707816302776">
        <ele>552.4000244140625</ele>
        <time>2014-05-20T08:34:37Z</time>
      </trkpt>
      <trkpt lat="44.613161003217101" lon="5.443580243736506">
        <ele>553.20001220703125</ele>
        <time>2014-05-20T08:34:41Z</time>
      </trkpt>
      <trkpt lat="44.613150274381042" lon="5.443549230694771">
        <ele>553.4000244140625</ele>
        <time>2014-05-20T08:34:42Z</time>
      </trkpt>
      <trkpt lat="44.613111549988389" lon="5.443378994241357">
        <ele>554.20001220703125</ele>
        <time>2014-05-20T08:34:47Z</time>
      </trkpt>
      <trkpt lat="44.613084979355335" lon="5.443302886560559">
        <ele>554.79998779296875</ele>
        <time>2014-05-20T08:34:49Z</time>
      </trkpt>
      <trkpt lat="44.613040219992399" lon="5.443118317052722">
        <ele>555.5999755859375</ele>
        <time>2014-05-20T08:34:54Z</time>
      </trkpt>
      <trkpt lat="44.613018091768026" lon="5.443047070875764">
        <ele>555.79998779296875</ele>
        <time>2014-05-20T08:34:56Z</time>
      </trkpt>
      <trkpt lat="44.612984731793404" lon="5.442933663725853">
        <ele>557.4000244140625</ele>
        <time>2014-05-20T08:34:59Z</time>
      </trkpt>
      <trkpt lat="44.612965369597077" lon="5.442857639864087">
        <ele>557.79998779296875</ele>
        <time>2014-05-20T08:35:01Z</time>
      </trkpt>
      <trkpt lat="44.61287853308022" lon="5.442535523325205">
        <ele>558.4000244140625</ele>
        <time>2014-05-20T08:35:09Z</time>
      </trkpt>
      <trkpt lat="44.612864116206765" lon="5.442449105903506">
        <ele>558.20001220703125</ele>
        <time>2014-05-20T08:35:11Z</time>
      </trkpt>
      <trkpt lat="44.612750709056854" lon="5.44207694940269">
        <ele>559.4000244140625</ele>
        <time>2014-05-20T08:35:20Z</time>
      </trkpt>
      <trkpt lat="44.612677367404103" lon="5.441853236407042">
        <ele>560.79998779296875</ele>
        <time>2014-05-20T08:35:26Z</time>
      </trkpt>
      <trkpt lat="44.612664794549346" lon="5.441817194223404">
        <ele>560.79998779296875</ele>
        <time>2014-05-20T08:35:27Z</time>
      </trkpt>
      <trkpt lat="44.612586675211787" lon="5.441570095717907">
        <ele>561.79998779296875</ele>
        <time>2014-05-20T08:35:34Z</time>
      </trkpt>
      <trkpt lat="44.612576365470886" lon="5.441539501771331">
        <ele>562.20001220703125</ele>
        <time>2014-05-20T08:35:35Z</time>
      </trkpt>
      <trkpt lat="44.612528420984745" lon="5.441403212025762">
        <ele>563</ele>
        <time>2014-05-20T08:35:39Z</time>
      </trkpt>
      <trkpt lat="44.612491875886917" lon="5.441307406872511">
        <ele>563.5999755859375</ele>
        <time>2014-05-20T08:35:42Z</time>
      </trkpt>
      <trkpt lat="44.612461114302278" lon="5.441215625032783">
        <ele>564.20001220703125</ele>
        <time>2014-05-20T08:35:45Z</time>
      </trkpt>
      <trkpt lat="44.612417193129659" lon="5.441115880385041">
        <ele>565.20001220703125</ele>
        <time>2014-05-20T08:35:49Z</time>
      </trkpt>
      <trkpt lat="44.612411325797439" lon="5.441093165427446">
        <ele>565.4000244140625</ele>
        <time>2014-05-20T08:35:50Z</time>
      </trkpt>
      <trkpt lat="44.612362710759044" lon="5.440997779369354">
        <ele>566.4000244140625</ele>
        <time>2014-05-20T08:35:54Z</time>
      </trkpt>
      <trkpt lat="44.612335888668895" lon="5.440942458808422">
        <ele>566.79998779296875</ele>
        <time>2014-05-20T08:35:56Z</time>
      </trkpt>
      <trkpt lat="44.612231031060219" lon="5.440747495740652">
        <ele>567.5999755859375</ele>
        <time>2014-05-20T08:36:03Z</time>
      </trkpt>
      <trkpt lat="44.612096752971411" lon="5.440557058900595">
        <ele>568.5999755859375</ele>
        <time>2014-05-20T08:36:10Z</time>
      </trkpt>
      <trkpt lat="44.612075127661228" lon="5.440533086657524">
        <ele>568.79998779296875</ele>
        <time>2014-05-20T08:36:11Z</time>
      </trkpt>
      <trkpt lat="44.612016873434186" lon="5.440465696156025">
        <ele>569.79998779296875</ele>
        <time>2014-05-20T08:36:14Z</time>
      </trkpt>
      <trkpt lat="44.611948896199465" lon="5.440390929579735">
        <ele>571</ele>
        <time>2014-05-20T08:36:18Z</time>
      </trkpt>
      <trkpt lat="44.611934227868915" lon="5.440366957336664">
        <ele>571.20001220703125</ele>
        <time>2014-05-20T08:36:19Z</time>
      </trkpt>
      <trkpt lat="44.611832974478602" lon="5.440247179940343">
        <ele>572.20001220703125</ele>
        <time>2014-05-20T08:36:25Z</time>
      </trkpt>
      <trkpt lat="44.611705234274268" lon="5.440078116953373">
        <ele>572.4000244140625</ele>
        <time>2014-05-20T08:36:31Z</time>
      </trkpt>
      <trkpt lat="44.61163348518312" lon="5.439846441149712">
        <ele>572.5999755859375</ele>
        <time>2014-05-20T08:36:36Z</time>
      </trkpt>
      <trkpt lat="44.611592749133706" lon="5.439610239118338">
        <ele>573.20001220703125</ele>
        <time>2014-05-20T08:36:41Z</time>
      </trkpt>
      <trkpt lat="44.611562322825193" lon="5.439452743157744">
        <ele>573.79998779296875</ele>
        <time>2014-05-20T08:36:45Z</time>
      </trkpt>
      <trkpt lat="44.611544134095311" lon="5.439378563314676">
        <ele>574.20001220703125</ele>
        <time>2014-05-20T08:36:47Z</time>
      </trkpt>
      <trkpt lat="44.611485209316015" lon="5.43919793330133">
        <ele>575.4000244140625</ele>
        <time>2014-05-20T08:36:52Z</time>
      </trkpt>
      <trkpt lat="44.611442042514682" lon="5.439064912497997">
        <ele>576.5999755859375</ele>
        <time>2014-05-20T08:36:56Z</time>
      </trkpt>
      <trkpt lat="44.611430643126369" lon="5.438961060717702">
        <ele>576.5999755859375</ele>
        <time>2014-05-20T08:36:58Z</time>
      </trkpt>
      <trkpt lat="44.611399210989475" lon="5.438672974705696">
        <ele>575.20001220703125</ele>
        <time>2014-05-20T08:37:02Z</time>
      </trkpt>
      <trkpt lat="44.611392337828875" lon="5.438595693558455">
        <ele>575</ele>
        <time>2014-05-20T08:37:03Z</time>
      </trkpt>
      <trkpt lat="44.611392505466938" lon="5.438517909497023">
        <ele>575.20001220703125</ele>
        <time>2014-05-20T08:37:04Z</time>
      </trkpt>
      <trkpt lat="44.611366605386138" lon="5.438183806836605">
        <ele>575.4000244140625</ele>
        <time>2014-05-20T08:37:08Z</time>
      </trkpt>
      <trkpt lat="44.611358642578125" lon="5.437887171283364">
        <ele>576.5999755859375</ele>
        <time>2014-05-20T08:37:12Z</time>
      </trkpt>
      <trkpt lat="44.611352942883968" lon="5.437822630628943">
        <ele>576.79998779296875</ele>
        <time>2014-05-20T08:37:13Z</time>
      </trkpt>
      <trkpt lat="44.611350428313017" lon="5.437634875997901">
        <ele>577.79998779296875</ele>
        <time>2014-05-20T08:37:16Z</time>
      </trkpt>
      <trkpt lat="44.611337771639228" lon="5.437368750572205">
        <ele>577.79998779296875</ele>
        <time>2014-05-20T08:37:20Z</time>
      </trkpt>
      <trkpt lat="44.611328719183803" lon="5.43725760653615">
        <ele>578.79998779296875</ele>
        <time>2014-05-20T08:37:22Z</time>
      </trkpt>
      <trkpt lat="44.611300639808178" lon="5.43711050413549">
        <ele>579.5999755859375</ele>
        <time>2014-05-20T08:37:25Z</time>
      </trkpt>
      <trkpt lat="44.611280523240566" lon="5.437017967924476">
        <ele>580</ele>
        <time>2014-05-20T08:37:27Z</time>
      </trkpt>
      <trkpt lat="44.611204164102674" lon="5.436725439503789">
        <ele>579.79998779296875</ele>
        <time>2014-05-20T08:37:33Z</time>
      </trkpt>
      <trkpt lat="44.61114389821887" lon="5.436377506703138">
        <ele>580.20001220703125</ele>
        <time>2014-05-20T08:37:40Z</time>
      </trkpt>
      <trkpt lat="44.611065862700343" lon="5.436027143150568">
        <ele>578.5999755859375</ele>
        <time>2014-05-20T08:37:46Z</time>
      </trkpt>
      <trkpt lat="44.610995035618544" lon="5.435782223939896">
        <ele>578.5999755859375</ele>
        <time>2014-05-20T08:37:50Z</time>
      </trkpt>
      <trkpt lat="44.610964190214872" lon="5.435723550617695">
        <ele>578.5999755859375</ele>
        <time>2014-05-20T08:37:51Z</time>
      </trkpt>
      <trkpt lat="44.610803090035915" lon="5.435450132936239">
        <ele>578.4000244140625</ele>
        <time>2014-05-20T08:37:56Z</time>
      </trkpt>
      <trkpt lat="44.610635954886675" lon="5.435162466019392">
        <ele>577.79998779296875</ele>
        <time>2014-05-20T08:38:02Z</time>
      </trkpt>
      <trkpt lat="44.610518524423242" lon="5.434973957017064">
        <ele>579.5999755859375</ele>
        <time>2014-05-20T08:38:07Z</time>
      </trkpt>
      <trkpt lat="44.610453732311726" lon="5.434881336987019">
        <ele>580.5999755859375</ele>
        <time>2014-05-20T08:38:10Z</time>
      </trkpt>
      <trkpt lat="44.610436130315065" lon="5.434852335602045">
        <ele>580.79998779296875</ele>
        <time>2014-05-20T08:38:11Z</time>
      </trkpt>
      <trkpt lat="44.610327081754804" lon="5.434725433588028">
        <ele>581.5999755859375</ele>
        <time>2014-05-20T08:38:16Z</time>
      </trkpt>
      <trkpt lat="44.610281987115741" lon="5.434694001451135">
        <ele>582</ele>
        <time>2014-05-20T08:38:18Z</time>
      </trkpt>
      <trkpt lat="44.610196826979518" lon="5.434628035873175">
        <ele>583</ele>
        <time>2014-05-20T08:38:22Z</time>
      </trkpt>
      <trkpt lat="44.610173525288701" lon="5.434602722525597">
        <ele>583.20001220703125</ele>
        <time>2014-05-20T08:38:23Z</time>
      </trkpt>
      <trkpt lat="44.610075121745467" lon="5.434471629559994">
        <ele>584.20001220703125</ele>
        <time>2014-05-20T08:38:28Z</time>
      </trkpt>
      <trkpt lat="44.610046204179525" lon="5.434419410303235">
        <ele>585</ele>
        <time>2014-05-20T08:38:30Z</time>
      </trkpt>
      <trkpt lat="44.61003178730607" lon="5.434395521879196">
        <ele>585.20001220703125</ele>
        <time>2014-05-20T08:38:31Z</time>
      </trkpt>
      <trkpt lat="44.609959786757827" lon="5.434265602380037">
        <ele>586.4000244140625</ele>
        <time>2014-05-20T08:38:36Z</time>
      </trkpt>
      <trkpt lat="44.609898431226611" lon="5.434074327349663">
        <ele>587.5999755859375</ele>
        <time>2014-05-20T08:38:42Z</time>
      </trkpt>
      <trkpt lat="44.609903628006577" lon="5.434052953496575">
        <ele>587.79998779296875</ele>
        <time>2014-05-20T08:38:43Z</time>
      </trkpt>
      <trkpt lat="44.609900778159499" lon="5.433999476954341">
        <ele>588.5999755859375</ele>
        <time>2014-05-20T08:38:46Z</time>
      </trkpt>
      <trkpt lat="44.609883930534124" lon="5.433968883007765">
        <ele>589</ele>
        <time>2014-05-20T08:38:48Z</time>
      </trkpt>
      <trkpt lat="44.609877895563841" lon="5.433963350951672">
        <ele>589.20001220703125</ele>
        <time>2014-05-20T08:38:49Z</time>
      </trkpt>
      <trkpt lat="44.609882673248649" lon="5.433870647102594">
        <ele>588.79998779296875</ele>
        <time>2014-05-20T08:41:04Z</time>
      </trkpt>
      <trkpt lat="44.609878063201904" lon="5.433813566341996">
        <ele>588.79998779296875</ele>
        <time>2014-05-20T08:41:06Z</time>
      </trkpt>
      <trkpt lat="44.609865993261337" lon="5.433737123385072">
        <ele>588.79998779296875</ele>
        <time>2014-05-20T08:41:08Z</time>
      </trkpt>
      <trkpt lat="44.6098299510777" lon="5.433562025427818">
        <ele>588.4000244140625</ele>
        <time>2014-05-20T08:41:12Z</time>
      </trkpt>
      <trkpt lat="44.609767170622945" lon="5.433385502547026">
        <ele>587.4000244140625</ele>
        <time>2014-05-20T08:41:15Z</time>
      </trkpt>
      <trkpt lat="44.609737331047654" lon="5.433321632444859">
        <ele>587.4000244140625</ele>
        <time>2014-05-20T08:41:16Z</time>
      </trkpt>
      <trkpt lat="44.609626354649663" lon="5.433118287473917">
        <ele>587.79998779296875</ele>
        <time>2014-05-20T08:41:19Z</time>
      </trkpt>
      <trkpt lat="44.609586205333471" lon="5.433052405714989">
        <ele>587.5999755859375</ele>
        <time>2014-05-20T08:41:20Z</time>
      </trkpt>
      <trkpt lat="44.609508421272039" lon="5.432952912524343">
        <ele>587.79998779296875</ele>
        <time>2014-05-20T08:41:22Z</time>
      </trkpt>
      <trkpt lat="44.609476067125797" lon="5.432917037978768">
        <ele>588.5999755859375</ele>
        <time>2014-05-20T08:41:23Z</time>
      </trkpt>
      <trkpt lat="44.60944052785635" lon="5.432878816500306">
        <ele>589.4000244140625</ele>
        <time>2014-05-20T08:41:24Z</time>
      </trkpt>
      <trkpt lat="44.609407335519791" lon="5.432848306372762">
        <ele>590.20001220703125</ele>
        <time>2014-05-20T08:41:25Z</time>
      </trkpt>
      <trkpt lat="44.609341537579894" lon="5.432799775153399">
        <ele>591.5999755859375</ele>
        <time>2014-05-20T08:41:27Z</time>
      </trkpt>
      <trkpt lat="44.609285043552518" lon="5.432759625837207">
        <ele>592.20001220703125</ele>
        <time>2014-05-20T08:41:29Z</time>
      </trkpt>
      <trkpt lat="44.609085218980908" lon="5.432660216465592">
        <ele>592.79998779296875</ele>
        <time>2014-05-20T08:41:36Z</time>
      </trkpt>
      <trkpt lat="44.60884440690279" lon="5.432506240904331">
        <ele>592.79998779296875</ele>
        <time>2014-05-20T08:41:44Z</time>
      </trkpt>
      <trkpt lat="44.608638295903802" lon="5.432360647246242">
        <ele>592.5999755859375</ele>
        <time>2014-05-20T08:41:49Z</time>
      </trkpt>
      <trkpt lat="44.608550956472754" lon="5.432282024994493">
        <ele>592.79998779296875</ele>
        <time>2014-05-20T08:41:51Z</time>
      </trkpt>
      <trkpt lat="44.608386503532529" lon="5.432098964229226">
        <ele>592.79998779296875</ele>
        <time>2014-05-20T08:41:55Z</time>
      </trkpt>
      <trkpt lat="44.608350545167923" lon="5.432039201259613">
        <ele>592.79998779296875</ele>
        <time>2014-05-20T08:41:56Z</time>
      </trkpt>
      <trkpt lat="44.608226576820016" lon="5.431838789954782">
        <ele>593.4000244140625</ele>
        <time>2014-05-20T08:42:00Z</time>
      </trkpt>
      <trkpt lat="44.608065309002995" lon="5.431607868522406">
        <ele>594</ele>
        <time>2014-05-20T08:42:05Z</time>
      </trkpt>
      <trkpt lat="44.608039995655417" lon="5.431551793590188">
        <ele>594.4000244140625</ele>
        <time>2014-05-20T08:42:06Z</time>
      </trkpt>
      <trkpt lat="44.608024824410677" lon="5.431496724486351">
        <ele>594.5999755859375</ele>
        <time>2014-05-20T08:42:07Z</time>
      </trkpt>
      <trkpt lat="44.608046784996986" lon="5.431263037025929">
        <ele>593.20001220703125</ele>
        <time>2014-05-20T08:42:11Z</time>
      </trkpt>
      <trkpt lat="44.608047036454082" lon="5.431199921295047">
        <ele>592.5999755859375</ele>
        <time>2014-05-20T08:42:12Z</time>
      </trkpt>
      <trkpt lat="44.608015939593315" lon="5.431052651256323">
        <ele>590.79998779296875</ele>
        <time>2014-05-20T08:42:14Z</time>
      </trkpt>
      <trkpt lat="44.607987608760595" lon="5.43098165653646">
        <ele>590.20001220703125</ele>
        <time>2014-05-20T08:42:15Z</time>
      </trkpt>
      <trkpt lat="44.607907980680466" lon="5.430850898846984">
        <ele>589.5999755859375</ele>
        <time>2014-05-20T08:42:17Z</time>
      </trkpt>
      <trkpt lat="44.607833214104176" lon="5.430745454505086">
        <ele>589.4000244140625</ele>
        <time>2014-05-20T08:42:19Z</time>
      </trkpt>
      <trkpt lat="44.60761796683073" lon="5.43045099824667">
        <ele>591</ele>
        <time>2014-05-20T08:42:25Z</time>
      </trkpt>
      <trkpt lat="44.607456279918551" lon="5.430181939154863">
        <ele>592.20001220703125</ele>
        <time>2014-05-20T08:42:30Z</time>
      </trkpt>
      <trkpt lat="44.607394589111209" lon="5.430094012990594">
        <ele>592.5999755859375</ele>
        <time>2014-05-20T08:42:32Z</time>
      </trkpt>
      <trkpt lat="44.607312446460128" lon="5.429971888661385">
        <ele>593.5999755859375</ele>
        <time>2014-05-20T08:42:35Z</time>
      </trkpt>
      <trkpt lat="44.607244385406375" lon="5.429811123758555">
        <ele>594</ele>
        <time>2014-05-20T08:42:38Z</time>
      </trkpt>
      <trkpt lat="44.607230387628078" lon="5.42973518371582">
        <ele>593.4000244140625</ele>
        <time>2014-05-20T08:42:39Z</time>
      </trkpt>
      <trkpt lat="44.607217982411385" lon="5.429578945040703">
        <ele>592.20001220703125</ele>
        <time>2014-05-20T08:42:41Z</time>
      </trkpt>
      <trkpt lat="44.607200045138597" lon="5.429492276161909">
        <ele>591.79998779296875</ele>
        <time>2014-05-20T08:42:42Z</time>
      </trkpt>
      <trkpt lat="44.60717816837132" lon="5.429409882053733">
        <ele>591.4000244140625</ele>
        <time>2014-05-20T08:42:43Z</time>
      </trkpt>
      <trkpt lat="44.607155453413725" lon="5.429327068850398">
        <ele>591</ele>
        <time>2014-05-20T08:42:44Z</time>
      </trkpt>
      <trkpt lat="44.60712444037199" lon="5.429247608408332">
        <ele>590.5999755859375</ele>
        <time>2014-05-20T08:42:45Z</time>
      </trkpt>
      <trkpt lat="44.607022432610393" lon="5.429029511287808">
        <ele>590.20001220703125</ele>
        <time>2014-05-20T08:42:48Z</time>
      </trkpt>
      <trkpt lat="44.606960909441113" lon="5.42886296287179">
        <ele>590</ele>
        <time>2014-05-20T08:42:50Z</time>
      </trkpt>
      <trkpt lat="44.606942301616073" lon="5.428776042535901">
        <ele>589.5999755859375</ele>
        <time>2014-05-20T08:42:51Z</time>
      </trkpt>
      <trkpt lat="44.606917491182685" lon="5.428611757233739">
        <ele>588.20001220703125</ele>
        <time>2014-05-20T08:42:53Z</time>
      </trkpt>
      <trkpt lat="44.60690600797534" lon="5.42844520881772">
        <ele>588.20001220703125</ele>
        <time>2014-05-20T08:42:55Z</time>
      </trkpt>
      <trkpt lat="44.606848424300551" lon="5.428134659305215">
        <ele>587.5999755859375</ele>
        <time>2014-05-20T08:42:59Z</time>
      </trkpt>
      <trkpt lat="44.606766114011407" lon="5.427829306572676">
        <ele>587.5999755859375</ele>
        <time>2014-05-20T08:43:04Z</time>
      </trkpt>
      <trkpt lat="44.606766533106565" lon="5.427775075659156">
        <ele>588.79998779296875</ele>
        <time>2014-05-20T08:43:08Z</time>
      </trkpt>
      <trkpt lat="44.606774998828769" lon="5.427748672664166">
        <ele>588.5999755859375</ele>
        <time>2014-05-20T08:43:13Z</time>
      </trkpt>
      <trkpt lat="44.606782123446465" lon="5.42770684696734">
        <ele>588.79998779296875</ele>
        <time>2014-05-20T08:43:15Z</time>
      </trkpt>
      <trkpt lat="44.606785560026765" lon="5.427627386525273">
        <ele>589.20001220703125</ele>
        <time>2014-05-20T08:43:18Z</time>
      </trkpt>
      <trkpt lat="44.606804084032774" lon="5.427562929689884">
        <ele>589.4000244140625</ele>
        <time>2014-05-20T08:43:20Z</time>
      </trkpt>
      <trkpt lat="44.606885723769665" lon="5.427358914166689">
        <ele>590</ele>
        <time>2014-05-20T08:43:25Z</time>
      </trkpt>
      <trkpt lat="44.60699544288218" lon="5.427071750164032">
        <ele>590.5999755859375</ele>
        <time>2014-05-20T08:43:31Z</time>
      </trkpt>
      <trkpt lat="44.607008267194033" lon="5.427019782364368">
        <ele>590.79998779296875</ele>
        <time>2014-05-20T08:43:32Z</time>
      </trkpt>
      <trkpt lat="44.607076160609722" lon="5.426799673587084">
        <ele>591.4000244140625</ele>
        <time>2014-05-20T08:43:38Z</time>
      </trkpt>
      <trkpt lat="44.607090828940272" lon="5.4267608653754">
        <ele>591.5999755859375</ele>
        <time>2014-05-20T08:43:39Z</time>
      </trkpt>
      <trkpt lat="44.607055708765984" lon="5.426626168191433">
        <ele>591.4000244140625</ele>
        <time>2014-05-20T08:43:42Z</time>
      </trkpt>
      <trkpt lat="44.606988234445453" lon="5.426557436585426">
        <ele>590.5999755859375</ele>
        <time>2014-05-20T08:43:44Z</time>
      </trkpt>
      <trkpt lat="44.606933668255806" lon="5.4264828376472">
        <ele>590.20001220703125</ele>
        <time>2014-05-20T08:43:46Z</time>
      </trkpt>
      <trkpt lat="44.606698555871844" lon="5.42614865116775">
        <ele>590.5999755859375</ele>
        <time>2014-05-20T08:43:55Z</time>
      </trkpt>
      <trkpt lat="44.606529492884874" lon="5.425874898210168">
        <ele>591</ele>
        <time>2014-05-20T08:44:02Z</time>
      </trkpt>
      <trkpt lat="44.606442656368017" lon="5.425716144964099">
        <ele>591.79998779296875</ele>
        <time>2014-05-20T08:44:06Z</time>
      </trkpt>
      <trkpt lat="44.60636118426919" lon="5.425527635961771">
        <ele>592.5999755859375</ele>
        <time>2014-05-20T08:44:11Z</time>
      </trkpt>
      <trkpt lat="44.606343414634466" lon="5.425492348149419">
        <ele>593</ele>
        <time>2014-05-20T08:44:12Z</time>
      </trkpt>
      <trkpt lat="44.606269234791398" lon="5.425303671509028">
        <ele>594.20001220703125</ele>
        <time>2014-05-20T08:44:17Z</time>
      </trkpt>
      <trkpt lat="44.606239227578044" lon="5.425222283229232">
        <ele>594.20001220703125</ele>
        <time>2014-05-20T08:44:19Z</time>
      </trkpt>
      <trkpt lat="44.606132945045829" lon="5.42494123801589">
        <ele>595.20001220703125</ele>
        <time>2014-05-20T08:44:26Z</time>
      </trkpt>
      <trkpt lat="44.606101848185062" lon="5.424862364307046">
        <ele>595.4000244140625</ele>
        <time>2014-05-20T08:44:28Z</time>
      </trkpt>
      <trkpt lat="44.6060601901263" lon="5.424739150330424">
        <ele>596.4000244140625</ele>
        <time>2014-05-20T08:44:31Z</time>
      </trkpt>
      <trkpt lat="44.605994811281562" lon="5.424581822007895">
        <ele>596.79998779296875</ele>
        <time>2014-05-20T08:44:35Z</time>
      </trkpt>
      <trkpt lat="44.605885343626142" lon="5.424330616369844">
        <ele>597.20001220703125</ele>
        <time>2014-05-20T08:44:42Z</time>
      </trkpt>
      <trkpt lat="44.605820802971721" lon="5.424192734062672">
        <ele>597.5999755859375</ele>
        <time>2014-05-20T08:44:46Z</time>
      </trkpt>
      <trkpt lat="44.605759279802442" lon="5.424095168709755">
        <ele>598.5999755859375</ele>
        <time>2014-05-20T08:44:49Z</time>
      </trkpt>
      <trkpt lat="44.60573622956872" lon="5.424057869240642">
        <ele>599.20001220703125</ele>
        <time>2014-05-20T08:44:50Z</time>
      </trkpt>
      <trkpt lat="44.605573872104287" lon="5.423841364681721">
        <ele>599.5999755859375</ele>
        <time>2014-05-20T08:44:57Z</time>
      </trkpt>
      <trkpt lat="44.605504972860217" lon="5.423749499022961">
        <ele>599.79998779296875</ele>
        <time>2014-05-20T08:45:00Z</time>
      </trkpt>
      <trkpt lat="44.605397935956717" lon="5.423604073002935">
        <ele>600.79998779296875</ele>
        <time>2014-05-20T08:45:05Z</time>
      </trkpt>
      <trkpt lat="44.605231387540698" lon="5.423399470746517">
        <ele>600.79998779296875</ele>
        <time>2014-05-20T08:45:12Z</time>
      </trkpt>
      <trkpt lat="44.605002226307988" lon="5.423089591786265">
        <ele>600.5999755859375</ele>
        <time>2014-05-20T08:45:21Z</time>
      </trkpt>
      <trkpt lat="44.604736184701324" lon="5.42283377610147">
        <ele>601</ele>
        <time>2014-05-20T08:45:29Z</time>
      </trkpt>
      <trkpt lat="44.604428317397833" lon="5.422575529664755">
        <ele>600.4000244140625</ele>
        <time>2014-05-20T08:45:37Z</time>
      </trkpt>
      <trkpt lat="44.604144338518381" lon="5.422351397573948">
        <ele>601.5999755859375</ele>
        <time>2014-05-20T08:45:44Z</time>
      </trkpt>
      <trkpt lat="44.604101171717048" lon="5.422327173873782">
        <ele>602</ele>
        <time>2014-05-20T08:45:45Z</time>
      </trkpt>
      <trkpt lat="44.60380126722157" lon="5.42220345698297">
        <ele>600.79998779296875</ele>
        <time>2014-05-20T08:45:52Z</time>
      </trkpt>
      <trkpt lat="44.603722728788853" lon="5.422167917713523">
        <ele>602</ele>
        <time>2014-05-20T08:45:54Z</time>
      </trkpt>
      <trkpt lat="44.603680148720741" lon="5.422161379829049">
        <ele>602.20001220703125</ele>
        <time>2014-05-20T08:45:55Z</time>
      </trkpt>
      <trkpt lat="44.603558108210564" lon="5.422145202755928">
        <ele>603.20001220703125</ele>
        <time>2014-05-20T08:45:58Z</time>
      </trkpt>
      <trkpt lat="44.603270357474685" lon="5.422121314331889">
        <ele>604.20001220703125</ele>
        <time>2014-05-20T08:46:05Z</time>
      </trkpt>
      <trkpt lat="44.603193076327443" lon="5.422120308503509">
        <ele>604.79998779296875</ele>
        <time>2014-05-20T08:46:07Z</time>
      </trkpt>
      <trkpt lat="44.60307665169239" lon="5.422130031511188">
        <ele>605.4000244140625</ele>
        <time>2014-05-20T08:46:10Z</time>
      </trkpt>
      <trkpt lat="44.602882442995906" lon="5.422146543860436">
        <ele>605.5999755859375</ele>
        <time>2014-05-20T08:46:15Z</time>
      </trkpt>
      <trkpt lat="44.602672392502427" lon="5.422176299616695">
        <ele>605.4000244140625</ele>
        <time>2014-05-20T08:46:21Z</time>
      </trkpt>
      <trkpt lat="44.602564852684736" lon="5.422193566337228">
        <ele>606.5999755859375</ele>
        <time>2014-05-20T08:46:24Z</time>
      </trkpt>
      <trkpt lat="44.602270647883415" lon="5.422222902998328">
        <ele>607</ele>
        <time>2014-05-20T08:46:32Z</time>
      </trkpt>
      <trkpt lat="44.602160090580583" lon="5.42222592048347">
        <ele>608.20001220703125</ele>
        <time>2014-05-20T08:46:35Z</time>
      </trkpt>
      <trkpt lat="44.601972419768572" lon="5.42222248390317">
        <ele>608.79998779296875</ele>
        <time>2014-05-20T08:46:40Z</time>
      </trkpt>
      <trkpt lat="44.601750383153558" lon="5.422192392870784">
        <ele>609.4000244140625</ele>
        <time>2014-05-20T08:46:46Z</time>
      </trkpt>
      <trkpt lat="44.601462548598647" lon="5.422119805589318">
        <ele>610.5999755859375</ele>
        <time>2014-05-20T08:46:54Z</time>
      </trkpt>
      <trkpt lat="44.601357271894813" lon="5.422097928822041">
        <ele>611</ele>
        <time>2014-05-20T08:46:57Z</time>
      </trkpt>
      <trkpt lat="44.601219892501831" lon="5.422056270763278">
        <ele>611.5999755859375</ele>
        <time>2014-05-20T08:47:01Z</time>
      </trkpt>
      <trkpt lat="44.601050494238734" lon="5.422013774514198">
        <ele>612</ele>
        <time>2014-05-20T08:47:06Z</time>
      </trkpt>
      <trkpt lat="44.600851843133569" lon="5.421943366527557">
        <ele>612.79998779296875</ele>
        <time>2014-05-20T08:47:12Z</time>
      </trkpt>
      <trkpt lat="44.600780429318547" lon="5.421931128948927">
        <ele>613.20001220703125</ele>
        <time>2014-05-20T08:47:14Z</time>
      </trkpt>
      <trkpt lat="44.600670961663127" lon="5.421919142827392">
        <ele>614</ele>
        <time>2014-05-20T08:47:17Z</time>
      </trkpt>
      <trkpt lat="44.600535845384002" lon="5.42186826467514">
        <ele>615.20001220703125</ele>
        <time>2014-05-20T08:47:21Z</time>
      </trkpt>
      <trkpt lat="44.600428221747279" lon="5.42183649726212">
        <ele>615.79998779296875</ele>
        <time>2014-05-20T08:47:24Z</time>
      </trkpt>
      <trkpt lat="44.600320179015398" lon="5.421810178086162">
        <ele>616.20001220703125</ele>
        <time>2014-05-20T08:47:27Z</time>
      </trkpt>
      <trkpt lat="44.600146757438779" lon="5.421759802848101">
        <ele>617.4000244140625</ele>
        <time>2014-05-20T08:47:32Z</time>
      </trkpt>
      <trkpt lat="44.600043576210737" lon="5.421730466187">
        <ele>617.79998779296875</ele>
        <time>2014-05-20T08:47:35Z</time>
      </trkpt>
      <trkpt lat="44.599876776337624" lon="5.421675564721227">
        <ele>618.4000244140625</ele>
        <time>2014-05-20T08:47:40Z</time>
      </trkpt>
      <trkpt lat="44.599747192114592" lon="5.421621166169643">
        <ele>619</ele>
        <time>2014-05-20T08:47:44Z</time>
      </trkpt>
      <trkpt lat="44.599617691710591" lon="5.421571964398027">
        <ele>619.5999755859375</ele>
        <time>2014-05-20T08:47:48Z</time>
      </trkpt>
      <trkpt lat="44.599399091675878" lon="5.421498287469149">
        <ele>619.79998779296875</ele>
        <time>2014-05-20T08:47:55Z</time>
      </trkpt>
      <trkpt lat="44.599150903522968" lon="5.421410780400038">
        <ele>620.4000244140625</ele>
        <time>2014-05-20T08:48:03Z</time>
      </trkpt>
      <trkpt lat="44.599118633195758" lon="5.421398375183344">
        <ele>620.5999755859375</ele>
        <time>2014-05-20T08:48:04Z</time>
      </trkpt>
      <trkpt lat="44.598888214677572" lon="5.421320591121912">
        <ele>621.79998779296875</ele>
        <time>2014-05-20T08:48:11Z</time>
      </trkpt>
      <trkpt lat="44.598583951592445" lon="5.421240711584687">
        <ele>622.20001220703125</ele>
        <time>2014-05-20T08:48:20Z</time>
      </trkpt>
      <trkpt lat="44.598415978252888" lon="5.421206681057811">
        <ele>622.79998779296875</ele>
        <time>2014-05-20T08:48:25Z</time>
      </trkpt>
      <trkpt lat="44.598278012126684" lon="5.421179188415408">
        <ele>623.20001220703125</ele>
        <time>2014-05-20T08:48:29Z</time>
      </trkpt>
      <trkpt lat="44.598075589165092" lon="5.421159407123923">
        <ele>624</ele>
        <time>2014-05-20T08:48:35Z</time>
      </trkpt>
      <trkpt lat="44.598008282482624" lon="5.421153036877513">
        <ele>623.5999755859375</ele>
        <time>2014-05-20T08:48:37Z</time>
      </trkpt>
      <trkpt lat="44.597745761275291" lon="5.421118168160319">
        <ele>625</ele>
        <time>2014-05-20T08:48:45Z</time>
      </trkpt>
      <trkpt lat="44.59771491587162" lon="5.421112552285194">
        <ele>625.20001220703125</ele>
        <time>2014-05-20T08:48:46Z</time>
      </trkpt>
      <trkpt lat="44.597526071593165" lon="5.421086400747299">
        <ele>626</ele>
        <time>2014-05-20T08:48:52Z</time>
      </trkpt>
      <trkpt lat="44.597393050789833" lon="5.421062931418419">
        <ele>626.4000244140625</ele>
        <time>2014-05-20T08:48:56Z</time>
      </trkpt>
      <trkpt lat="44.597288360819221" lon="5.421046586707234">
        <ele>627.20001220703125</ele>
        <time>2014-05-20T08:48:59Z</time>
      </trkpt>
      <trkpt lat="44.597126673907042" lon="5.421018088236451">
        <ele>627.5999755859375</ele>
        <time>2014-05-20T08:49:04Z</time>
      </trkpt>
      <trkpt lat="44.597060456871986" lon="5.420998223125935">
        <ele>628.20001220703125</ele>
        <time>2014-05-20T08:49:06Z</time>
      </trkpt>
      <trkpt lat="44.596868762746453" lon="5.42094768024981">
        <ele>629.4000244140625</ele>
        <time>2014-05-20T08:49:12Z</time>
      </trkpt>
      <trkpt lat="44.596837162971497" lon="5.420939465984702">
        <ele>629.5999755859375</ele>
        <time>2014-05-20T08:49:13Z</time>
      </trkpt>
      <trkpt lat="44.596644882112741" lon="5.420884815976024">
        <ele>630.5999755859375</ele>
        <time>2014-05-20T08:49:19Z</time>
      </trkpt>
      <trkpt lat="44.596581682562828" lon="5.420865705236793">
        <ele>630.5999755859375</ele>
        <time>2014-05-20T08:49:21Z</time>
      </trkpt>
      <trkpt lat="44.596361154690385" lon="5.420757830142975">
        <ele>631.4000244140625</ele>
        <time>2014-05-20T08:49:28Z</time>
      </trkpt>
      <trkpt lat="44.596328716725111" lon="5.420744251459837">
        <ele>631.79998779296875</ele>
        <time>2014-05-20T08:49:29Z</time>
      </trkpt>
      <trkpt lat="44.596212962642312" lon="5.420679040253162">
        <ele>632.79998779296875</ele>
        <time>2014-05-20T08:49:33Z</time>
      </trkpt>
      <trkpt lat="44.596156971529126" lon="5.420649368315935">
        <ele>633.20001220703125</ele>
        <time>2014-05-20T08:49:35Z</time>
      </trkpt>
      <trkpt lat="44.596075415611267" lon="5.420582229271531">
        <ele>634</ele>
        <time>2014-05-20T08:49:38Z</time>
      </trkpt>
      <trkpt lat="44.595946585759521" lon="5.420470079407096">
        <ele>633.79998779296875</ele>
        <time>2014-05-20T08:49:43Z</time>
      </trkpt>
      <trkpt lat="44.595794538035989" lon="5.420302860438824">
        <ele>634.79998779296875</ele>
        <time>2014-05-20T08:49:50Z</time>
      </trkpt>
      <trkpt lat="44.595732763409615" lon="5.420231781899929">
        <ele>635.20001220703125</ele>
        <time>2014-05-20T08:49:53Z</time>
      </trkpt>
      <trkpt lat="44.59563972428441" lon="5.420148130506277">
        <ele>635.79998779296875</ele>
        <time>2014-05-20T08:49:57Z</time>
      </trkpt>
      <trkpt lat="44.595545176416636" lon="5.420048972591758">
        <ele>636.4000244140625</ele>
        <time>2014-05-20T08:50:01Z</time>
      </trkpt>
      <trkpt lat="44.595481473952532" lon="5.419958028942347">
        <ele>636.79998779296875</ele>
        <time>2014-05-20T08:50:04Z</time>
      </trkpt>
      <trkpt lat="44.595385920256376" lon="5.419863313436508">
        <ele>637.4000244140625</ele>
        <time>2014-05-20T08:50:08Z</time>
      </trkpt>
      <trkpt lat="44.595319535583258" lon="5.419789217412472">
        <ele>637.20001220703125</ele>
        <time>2014-05-20T08:50:11Z</time>
      </trkpt>
      <trkpt lat="44.595210487022996" lon="5.419669188559055">
        <ele>638.4000244140625</ele>
        <time>2014-05-20T08:50:16Z</time>
      </trkpt>
      <trkpt lat="44.595137815922499" lon="5.419596685096622">
        <ele>639.5999755859375</ele>
        <time>2014-05-20T08:50:19Z</time>
      </trkpt>
      <trkpt lat="44.594952659681439" lon="5.419449079781771">
        <ele>640</ele>
        <time>2014-05-20T08:50:26Z</time>
      </trkpt>
      <trkpt lat="44.594817711040378" lon="5.419362913817167">
        <ele>640.5999755859375</ele>
        <time>2014-05-20T08:50:31Z</time>
      </trkpt>
      <trkpt lat="44.594769096001983" lon="5.419326620176435">
        <ele>640.5999755859375</ele>
        <time>2014-05-20T08:50:33Z</time>
      </trkpt>
      <trkpt lat="44.594616713002324" lon="5.419220170006156">
        <ele>641.5999755859375</ele>
        <time>2014-05-20T08:50:39Z</time>
      </trkpt>
      <trkpt lat="44.594507748261094" lon="5.419159904122353">
        <ele>641.79998779296875</ele>
        <time>2014-05-20T08:50:43Z</time>
      </trkpt>
      <trkpt lat="44.594303481280804" lon="5.419046077877283">
        <ele>642.79998779296875</ele>
        <time>2014-05-20T08:50:51Z</time>
      </trkpt>
      <trkpt lat="44.594278167933226" lon="5.419033085927367">
        <ele>643.20001220703125</ele>
        <time>2014-05-20T08:50:52Z</time>
      </trkpt>
      <trkpt lat="44.59420507773757" lon="5.418993188068271">
        <ele>644</ele>
        <time>2014-05-20T08:50:55Z</time>
      </trkpt>
      <trkpt lat="44.594103237614036" lon="5.418929485604167">
        <ele>645.20001220703125</ele>
        <time>2014-05-20T08:50:59Z</time>
      </trkpt>
      <trkpt lat="44.594075828790665" lon="5.418913643807173">
        <ele>645.4000244140625</ele>
        <time>2014-05-20T08:51:00Z</time>
      </trkpt>
      <trkpt lat="44.593974240124226" lon="5.418864944949746">
        <ele>646.20001220703125</ele>
        <time>2014-05-20T08:51:04Z</time>
      </trkpt>
      <trkpt lat="44.593871142715216" lon="5.418819850310683">
        <ele>646.5999755859375</ele>
        <time>2014-05-20T08:51:08Z</time>
      </trkpt>
      <trkpt lat="44.593800650909543" lon="5.418779030442238">
        <ele>647.20001220703125</ele>
        <time>2014-05-20T08:51:11Z</time>
      </trkpt>
      <trkpt lat="44.593702498823404" lon="5.418725637719035">
        <ele>648</ele>
        <time>2014-05-20T08:51:15Z</time>
      </trkpt>
      <trkpt lat="44.593613147735596" lon="5.418666712939739">
        <ele>648.4000244140625</ele>
        <time>2014-05-20T08:51:19Z</time>
      </trkpt>
      <trkpt lat="44.593521868810058" lon="5.418612565845251">
        <ele>649.5999755859375</ele>
        <time>2014-05-20T08:51:23Z</time>
      </trkpt>
      <trkpt lat="44.59349948912859" lon="5.418600412085652">
        <ele>649.79998779296875</ele>
        <time>2014-05-20T08:51:24Z</time>
      </trkpt>
      <trkpt lat="44.593307711184025" lon="5.418502930551767">
        <ele>650.5999755859375</ele>
        <time>2014-05-20T08:51:32Z</time>
      </trkpt>
      <trkpt lat="44.593283738940954" lon="5.418489519506693">
        <ele>650.79998779296875</ele>
        <time>2014-05-20T08:51:33Z</time>
      </trkpt>
      <trkpt lat="44.593133367598057" lon="5.418413579463959">
        <ele>651.79998779296875</ele>
        <time>2014-05-20T08:51:39Z</time>
      </trkpt>
      <trkpt lat="44.593082321807742" lon="5.418387511745095">
        <ele>652</ele>
        <time>2014-05-20T08:51:41Z</time>
      </trkpt>
      <trkpt lat="44.59291317500174" lon="5.418292209506035">
        <ele>652.79998779296875</ele>
        <time>2014-05-20T08:51:48Z</time>
      </trkpt>
      <trkpt lat="44.592888029292226" lon="5.41828173212707">
        <ele>653</ele>
        <time>2014-05-20T08:51:49Z</time>
      </trkpt>
      <trkpt lat="44.592773113399744" lon="5.418223645538092">
        <ele>654</ele>
        <time>2014-05-20T08:51:54Z</time>
      </trkpt>
      <trkpt lat="44.592726090922952" lon="5.418207887560129">
        <ele>654.5999755859375</ele>
        <time>2014-05-20T08:51:56Z</time>
      </trkpt>
      <trkpt lat="44.592539425939322" lon="5.418105544522405">
        <ele>655</ele>
        <time>2014-05-20T08:52:04Z</time>
      </trkpt>
      <trkpt lat="44.59249977953732" lon="5.418083500117064">
        <ele>655</ele>
        <time>2014-05-20T08:52:06Z</time>
      </trkpt>
      <trkpt lat="44.592479411512613" lon="5.418068245053291">
        <ele>655.20001220703125</ele>
        <time>2014-05-20T08:52:07Z</time>
      </trkpt>
      <trkpt lat="44.592435238882899" lon="5.418041339144111">
        <ele>655.5999755859375</ele>
        <time>2014-05-20T08:52:09Z</time>
      </trkpt>
      <trkpt lat="44.592386372387409" lon="5.418015522882342">
        <ele>656.20001220703125</ele>
        <time>2014-05-20T08:52:11Z</time>
      </trkpt>
      <trkpt lat="44.592242203652859" lon="5.417907815426588">
        <ele>657</ele>
        <time>2014-05-20T08:52:17Z</time>
      </trkpt>
      <trkpt lat="44.592122007161379" lon="5.417801113799214">
        <ele>657.4000244140625</ele>
        <time>2014-05-20T08:52:22Z</time>
      </trkpt>
      <trkpt lat="44.592051012441516" lon="5.417746128514409">
        <ele>657.5999755859375</ele>
        <time>2014-05-20T08:52:25Z</time>
      </trkpt>
      <trkpt lat="44.591944981366396" lon="5.417639678344131">
        <ele>658.79998779296875</ele>
        <time>2014-05-20T08:52:30Z</time>
      </trkpt>
      <trkpt lat="44.591903323307633" lon="5.417593577876687">
        <ele>659</ele>
        <time>2014-05-20T08:52:32Z</time>
      </trkpt>
      <trkpt lat="44.591770805418491" lon="5.417470196262002">
        <ele>660</ele>
        <time>2014-05-20T08:52:38Z</time>
      </trkpt>
      <trkpt lat="44.591687405481935" lon="5.417388556525111">
        <ele>660.5999755859375</ele>
        <time>2014-05-20T08:52:42Z</time>
      </trkpt>
      <trkpt lat="44.591582044959068" lon="5.417288476601243">
        <ele>661</ele>
        <time>2014-05-20T08:52:47Z</time>
      </trkpt>
      <trkpt lat="44.591496549546719" lon="5.41719694621861">
        <ele>662</ele>
        <time>2014-05-20T08:52:51Z</time>
      </trkpt>
      <trkpt lat="44.591451454907656" lon="5.417155707255006">
        <ele>662.20001220703125</ele>
        <time>2014-05-20T08:52:53Z</time>
      </trkpt>
      <trkpt lat="44.591344753280282" lon="5.417046071961522">
        <ele>663</ele>
        <time>2014-05-20T08:52:58Z</time>
      </trkpt>
      <trkpt lat="44.591323714703321" lon="5.417029224336147">
        <ele>663.20001220703125</ele>
        <time>2014-05-20T08:52:59Z</time>
      </trkpt>
      <trkpt lat="44.591169068589807" lon="5.416877176612616">
        <ele>664.4000244140625</ele>
        <time>2014-05-20T08:53:06Z</time>
      </trkpt>
      <trkpt lat="44.591020038351417" lon="5.416731415316463">
        <ele>665</ele>
        <time>2014-05-20T08:53:13Z</time>
      </trkpt>
      <trkpt lat="44.590973434969783" lon="5.416695037856698">
        <ele>665.5999755859375</ele>
        <time>2014-05-20T08:53:15Z</time>
      </trkpt>
      <trkpt lat="44.590891292318702" lon="5.41661448776722">
        <ele>666</ele>
        <time>2014-05-20T08:53:19Z</time>
      </trkpt>
      <trkpt lat="44.590802360326052" lon="5.416529159992933">
        <ele>667</ele>
        <time>2014-05-20T08:53:23Z</time>
      </trkpt>
      <trkpt lat="44.590738909319043" lon="5.41646596044302">
        <ele>667.4000244140625</ele>
        <time>2014-05-20T08:53:26Z</time>
      </trkpt>
      <trkpt lat="44.590609241276979" lon="5.416338471695781">
        <ele>667.79998779296875</ele>
        <time>2014-05-20T08:53:32Z</time>
      </trkpt>
      <trkpt lat="44.590586442500353" lon="5.416318606585264">
        <ele>668.20001220703125</ele>
        <time>2014-05-20T08:53:33Z</time>
      </trkpt>
      <trkpt lat="44.590473789721727" lon="5.416208636015654">
        <ele>669.20001220703125</ele>
        <time>2014-05-20T08:53:38Z</time>
      </trkpt>
      <trkpt lat="44.590410338714719" lon="5.416140742599964">
        <ele>669.5999755859375</ele>
        <time>2014-05-20T08:53:41Z</time>
      </trkpt>
      <trkpt lat="44.590382762253284" lon="5.415978385135531">
        <ele>670.4000244140625</ele>
        <time>2014-05-20T08:53:46Z</time>
      </trkpt>
      <trkpt lat="44.590393155813217" lon="5.415948880836368">
        <ele>671</ele>
        <time>2014-05-20T08:53:47Z</time>
      </trkpt>
      <trkpt lat="44.590419810265303" lon="5.415894649922848">
        <ele>671.5999755859375</ele>
        <time>2014-05-20T08:53:49Z</time>
      </trkpt>
      <trkpt lat="44.590437328442931" lon="5.415872354060412">
        <ele>672</ele>
        <time>2014-05-20T08:53:50Z</time>
      </trkpt>
      <trkpt lat="44.590559620410204" lon="5.415796833112836">
        <ele>672.79998779296875</ele>
        <time>2014-05-20T08:53:55Z</time>
      </trkpt>
      <trkpt lat="44.590584682300687" lon="5.415785685181618">
        <ele>673</ele>
        <time>2014-05-20T08:53:56Z</time>
      </trkpt>
      <trkpt lat="44.590687612071633" lon="5.415722569450736">
        <ele>673.4000244140625</ele>
        <time>2014-05-20T08:54:00Z</time>
      </trkpt>
      <trkpt lat="44.590741088613868" lon="5.415691388770938">
        <ele>673.79998779296875</ele>
        <time>2014-05-20T08:54:02Z</time>
      </trkpt>
      <trkpt lat="44.590793559327722" lon="5.415654256939888">
        <ele>674</ele>
        <time>2014-05-20T08:54:04Z</time>
      </trkpt>
      <trkpt lat="44.590963209047914" lon="5.415538083761931">
        <ele>675.20001220703125</ele>
        <time>2014-05-20T08:54:11Z</time>
      </trkpt>
      <trkpt lat="44.591097738593817" lon="5.415381342172623">
        <ele>676.4000244140625</ele>
        <time>2014-05-20T08:54:18Z</time>
      </trkpt>
      <trkpt lat="44.591093882918358" lon="5.415190905332565">
        <ele>677.20001220703125</ele>
        <time>2014-05-20T08:54:23Z</time>
      </trkpt>
      <trkpt lat="44.59104903973639" lon="5.415130220353603">
        <ele>677.4000244140625</ele>
        <time>2014-05-20T08:54:25Z</time>
      </trkpt>
      <trkpt lat="44.590991958975792" lon="5.415085377171636">
        <ele>677.4000244140625</ele>
        <time>2014-05-20T08:54:27Z</time>
      </trkpt>
      <trkpt lat="44.590755086392164" lon="5.414945231750608">
        <ele>679.20001220703125</ele>
        <time>2014-05-20T08:54:35Z</time>
      </trkpt>
      <trkpt lat="44.590724660083652" lon="5.414930060505867">
        <ele>679.4000244140625</ele>
        <time>2014-05-20T08:54:36Z</time>
      </trkpt>
      <trkpt lat="44.590555932372808" lon="5.414801398292184">
        <ele>680.20001220703125</ele>
        <time>2014-05-20T08:54:42Z</time>
      </trkpt>
      <trkpt lat="44.59053061902523" lon="5.41477482765913">
        <ele>680.5999755859375</ele>
        <time>2014-05-20T08:54:43Z</time>
      </trkpt>
      <trkpt lat="44.590380247682333" lon="5.41465169750154">
        <ele>681.20001220703125</ele>
        <time>2014-05-20T08:54:49Z</time>
      </trkpt>
      <trkpt lat="44.590307911857963" lon="5.414598556235433">
        <ele>681.79998779296875</ele>
        <time>2014-05-20T08:54:52Z</time>
      </trkpt>
      <trkpt lat="44.590257704257965" lon="5.414565950632095">
        <ele>682.20001220703125</ele>
        <time>2014-05-20T08:54:54Z</time>
      </trkpt>
      <trkpt lat="44.590142453089356" lon="5.414474839344621">
        <ele>683</ele>
        <time>2014-05-20T08:54:59Z</time>
      </trkpt>
      <trkpt lat="44.590118648484349" lon="5.414456985890865">
        <ele>683.5999755859375</ele>
        <time>2014-05-20T08:55:00Z</time>
      </trkpt>
      <trkpt lat="44.589942209422588" lon="5.414339220151305">
        <ele>684.5999755859375</ele>
        <time>2014-05-20T08:55:07Z</time>
      </trkpt>
      <trkpt lat="44.589892672374845" lon="5.414305021986365">
        <ele>684.79998779296875</ele>
        <time>2014-05-20T08:55:09Z</time>
      </trkpt>
      <trkpt lat="44.589768536388874" lon="5.414222627878189">
        <ele>685.5999755859375</ele>
        <time>2014-05-20T08:55:14Z</time>
      </trkpt>
      <trkpt lat="44.589717658236623" lon="5.414205444976687">
        <ele>686</ele>
        <time>2014-05-20T08:55:16Z</time>
      </trkpt>
      <trkpt lat="44.589567705988884" lon="5.414138976484537">
        <ele>686.79998779296875</ele>
        <time>2014-05-20T08:55:22Z</time>
      </trkpt>
      <trkpt lat="44.589543733745813" lon="5.414125062525272">
        <ele>687</ele>
        <time>2014-05-20T08:55:23Z</time>
      </trkpt>
      <trkpt lat="44.589414400979877" lon="5.41409170255065">
        <ele>687.79998779296875</ele>
        <time>2014-05-20T08:55:28Z</time>
      </trkpt>
      <trkpt lat="44.589343070983887" lon="5.414072424173355">
        <ele>688.4000244140625</ele>
        <time>2014-05-20T08:55:31Z</time>
      </trkpt>
      <trkpt lat="44.589271740987897" lon="5.414051134139299">
        <ele>689</ele>
        <time>2014-05-20T08:55:34Z</time>
      </trkpt>
      <trkpt lat="44.589180545881391" lon="5.414026994258165">
        <ele>689.79998779296875</ele>
        <time>2014-05-20T08:55:38Z</time>
      </trkpt>
      <trkpt lat="44.58911114372313" lon="5.414004363119602">
        <ele>690</ele>
        <time>2014-05-20T08:55:41Z</time>
      </trkpt>
      <trkpt lat="44.588970327749848" lon="5.413950886577368">
        <ele>691.20001220703125</ele>
        <time>2014-05-20T08:55:47Z</time>
      </trkpt>
      <trkpt lat="44.588826410472393" lon="5.413859859108925">
        <ele>692.20001220703125</ele>
        <time>2014-05-20T08:55:53Z</time>
      </trkpt>
      <trkpt lat="44.588780645281076" lon="5.413825744763017">
        <ele>692.5999755859375</ele>
        <time>2014-05-20T08:55:55Z</time>
      </trkpt>
      <trkpt lat="44.588715098798275" lon="5.413763634860516">
        <ele>693.20001220703125</ele>
        <time>2014-05-20T08:55:58Z</time>
      </trkpt>
      <trkpt lat="44.588571852073073" lon="5.41363094933331">
        <ele>694.20001220703125</ele>
        <time>2014-05-20T08:56:04Z</time>
      </trkpt>
      <trkpt lat="44.588548047468066" lon="5.413609324023128">
        <ele>694.4000244140625</ele>
        <time>2014-05-20T08:56:05Z</time>
      </trkpt>
      <trkpt lat="44.588388204574585" lon="5.413475297391415">
        <ele>695.5999755859375</ele>
        <time>2014-05-20T08:56:12Z</time>
      </trkpt>
      <trkpt lat="44.588367501273751" lon="5.413451325148344">
        <ele>695.5999755859375</ele>
        <time>2014-05-20T08:56:13Z</time>
      </trkpt>
      <trkpt lat="44.588230205699801" lon="5.413321824744344">
        <ele>696.5999755859375</ele>
        <time>2014-05-20T08:56:19Z</time>
      </trkpt>
      <trkpt lat="44.58821059204638" lon="5.413300199434161">
        <ele>696.79998779296875</ele>
        <time>2014-05-20T08:56:20Z</time>
      </trkpt>
      <trkpt lat="44.588070781901479" lon="5.413182182237506">
        <ele>697.5999755859375</ele>
        <time>2014-05-20T08:56:26Z</time>
      </trkpt>
      <trkpt lat="44.588026693090796" lon="5.413139099255204">
        <ele>698</ele>
        <time>2014-05-20T08:56:28Z</time>
      </trkpt>
      <trkpt lat="44.587949411943555" lon="5.413069194182754">
        <ele>698.5999755859375</ele>
        <time>2014-05-20T08:56:32Z</time>
      </trkpt>
      <trkpt lat="44.587930636480451" lon="5.413052095100284">
        <ele>698.79998779296875</ele>
        <time>2014-05-20T08:56:33Z</time>
      </trkpt>
      <trkpt lat="44.587819911539555" lon="5.412978837266564">
        <ele>699.79998779296875</ele>
        <time>2014-05-20T08:56:38Z</time>
      </trkpt>
      <trkpt lat="44.587768111377954" lon="5.412942711263895">
        <ele>700</ele>
        <time>2014-05-20T08:56:40Z</time>
      </trkpt>
      <trkpt lat="44.587696781381965" lon="5.412864675745368">
        <ele>700.79998779296875</ele>
        <time>2014-05-20T08:56:43Z</time>
      </trkpt>
      <trkpt lat="44.587658476084471" lon="5.412761494517326">
        <ele>701.79998779296875</ele>
        <time>2014-05-20T08:56:46Z</time>
      </trkpt>
      <trkpt lat="44.587660823017359" lon="5.412722015753388">
        <ele>702</ele>
        <time>2014-05-20T08:56:47Z</time>
      </trkpt>
      <trkpt lat="44.587675156071782" lon="5.412687985226512">
        <ele>702.4000244140625</ele>
        <time>2014-05-20T08:56:48Z</time>
      </trkpt>
      <trkpt lat="44.587698290124536" lon="5.412663007155061">
        <ele>702.79998779296875</ele>
        <time>2014-05-20T08:56:49Z</time>
      </trkpt>
      <trkpt lat="44.587754448875785" lon="5.412640124559403">
        <ele>703.20001220703125</ele>
        <time>2014-05-20T08:56:51Z</time>
      </trkpt>
      <trkpt lat="44.587813625112176" lon="5.412649596109986">
        <ele>703.5999755859375</ele>
        <time>2014-05-20T08:56:53Z</time>
      </trkpt>
      <trkpt lat="44.587917979806662" lon="5.412663007155061">
        <ele>704.4000244140625</ele>
        <time>2014-05-20T08:56:57Z</time>
      </trkpt>
      <trkpt lat="44.587973468005657" lon="5.412645908072591">
        <ele>704.5999755859375</ele>
        <time>2014-05-20T08:56:59Z</time>
      </trkpt>
      <trkpt lat="44.588050497695804" lon="5.412578014656901">
        <ele>705.20001220703125</ele>
        <time>2014-05-20T08:57:02Z</time>
      </trkpt>
      <trkpt lat="44.588076649233699" lon="5.412550438195467">
        <ele>705.5999755859375</ele>
        <time>2014-05-20T08:57:03Z</time>
      </trkpt>
      <trkpt lat="44.58810213021934" lon="5.412525124847889">
        <ele>705.79998779296875</ele>
        <time>2014-05-20T08:57:04Z</time>
      </trkpt>
      <trkpt lat="44.588263817131519" lon="5.412409789860249">
        <ele>706.5999755859375</ele>
        <time>2014-05-20T08:57:10Z</time>
      </trkpt>
      <trkpt lat="44.588290052488446" lon="5.412396630272269">
        <ele>706.79998779296875</ele>
        <time>2014-05-20T08:57:11Z</time>
      </trkpt>
      <trkpt lat="44.588462887331843" lon="5.412366958335042">
        <ele>707.79998779296875</ele>
        <time>2014-05-20T08:57:17Z</time>
      </trkpt>
      <trkpt lat="44.588491385802627" lon="5.412368047982454">
        <ele>708</ele>
        <time>2014-05-20T08:57:18Z</time>
      </trkpt>
      <trkpt lat="44.588590040802956" lon="5.412409119307995">
        <ele>708.79998779296875</ele>
        <time>2014-05-20T08:57:22Z</time>
      </trkpt>
      <trkpt lat="44.588658101856709" lon="5.412462595850229">
        <ele>709.4000244140625</ele>
        <time>2014-05-20T08:57:25Z</time>
      </trkpt>
      <trkpt lat="44.588679224252701" lon="5.412481455132365">
        <ele>709.79998779296875</ele>
        <time>2014-05-20T08:57:26Z</time>
      </trkpt>
      <trkpt lat="44.588794056326151" lon="5.412598131224513">
        <ele>710.79998779296875</ele>
        <time>2014-05-20T08:57:32Z</time>
      </trkpt>
      <trkpt lat="44.588815597817302" lon="5.412613302469254">
        <ele>711</ele>
        <time>2014-05-20T08:57:33Z</time>
      </trkpt>
      <trkpt lat="44.588900003582239" lon="5.412592431530356">
        <ele>711.79998779296875</ele>
        <time>2014-05-20T08:57:37Z</time>
      </trkpt>
      <trkpt lat="44.588913582265377" lon="5.412561669945717">
        <ele>712</ele>
        <time>2014-05-20T08:57:38Z</time>
      </trkpt>
      <trkpt lat="44.588913163170218" lon="5.412459494546056">
        <ele>712.4000244140625</ele>
        <time>2014-05-20T08:57:41Z</time>
      </trkpt>
      <trkpt lat="44.588849544525146" lon="5.412365365773439">
        <ele>712.5999755859375</ele>
        <time>2014-05-20T08:57:44Z</time>
      </trkpt>
      <trkpt lat="44.588821716606617" lon="5.412333765998483">
        <ele>712.5999755859375</ele>
        <time>2014-05-20T08:57:45Z</time>
      </trkpt>
      <trkpt lat="44.588735802099109" lon="5.412264615297318">
        <ele>713.20001220703125</ele>
        <time>2014-05-20T08:57:48Z</time>
      </trkpt>
      <trkpt lat="44.588683834299445" lon="5.412212982773781">
        <ele>713.4000244140625</ele>
        <time>2014-05-20T08:57:50Z</time>
      </trkpt>
      <trkpt lat="44.588540671393275" lon="5.412018522620201">
        <ele>713.79998779296875</ele>
        <time>2014-05-20T08:57:57Z</time>
      </trkpt>
      <trkpt lat="44.588492307811975" lon="5.411943001672626">
        <ele>714.20001220703125</ele>
        <time>2014-05-20T08:58:00Z</time>
      </trkpt>
      <trkpt lat="44.588441932573915" lon="5.411866642534733">
        <ele>715.5999755859375</ele>
        <time>2014-05-20T08:58:03Z</time>
      </trkpt>
      <trkpt lat="44.588426845148206" lon="5.411839485168457">
        <ele>716</ele>
        <time>2014-05-20T08:58:04Z</time>
      </trkpt>
      <trkpt lat="44.588339757174253" lon="5.411681905388832">
        <ele>716.79998779296875</ele>
        <time>2014-05-20T08:58:10Z</time>
      </trkpt>
      <trkpt lat="44.588258871808648" lon="5.411535389721394">
        <ele>717.79998779296875</ele>
        <time>2014-05-20T08:58:16Z</time>
      </trkpt>
      <trkpt lat="44.588245879858732" lon="5.411510998383164">
        <ele>718</ele>
        <time>2014-05-20T08:58:17Z</time>
      </trkpt>
      <trkpt lat="44.588179495185614" lon="5.411410750821233">
        <ele>719</ele>
        <time>2014-05-20T08:58:21Z</time>
      </trkpt>
      <trkpt lat="44.588124258443713" lon="5.411336654797196">
        <ele>719.4000244140625</ele>
        <time>2014-05-20T08:58:24Z</time>
      </trkpt>
      <trkpt lat="44.587983693927526" lon="5.411209836602211">
        <ele>720</ele>
        <time>2014-05-20T08:58:30Z</time>
      </trkpt>
      <trkpt lat="44.587963744997978" lon="5.411189133301377">
        <ele>720.4000244140625</ele>
        <time>2014-05-20T08:58:31Z</time>
      </trkpt>
      <trkpt lat="44.587854947894812" lon="5.411101458594203">
        <ele>721.20001220703125</ele>
        <time>2014-05-20T08:58:36Z</time>
      </trkpt>
      <trkpt lat="44.587836340069771" lon="5.411081928759813">
        <ele>721.4000244140625</ele>
        <time>2014-05-20T08:58:37Z</time>
      </trkpt>
      <trkpt lat="44.58765939809382" lon="5.4109220020473">
        <ele>722.4000244140625</ele>
        <time>2014-05-20T08:58:45Z</time>
      </trkpt>
      <trkpt lat="44.587640203535557" lon="5.410899454727769">
        <ele>722.5999755859375</ele>
        <time>2014-05-20T08:58:46Z</time>
      </trkpt>
      <trkpt lat="44.587539788335562" lon="5.410790657624602">
        <ele>723.5999755859375</ele>
        <time>2014-05-20T08:58:51Z</time>
      </trkpt>
      <trkpt lat="44.587516989558935" lon="5.410769367590547">
        <ele>723.79998779296875</ele>
        <time>2014-05-20T08:58:52Z</time>
      </trkpt>
      <trkpt lat="44.58739017136395" lon="5.410630060359836">
        <ele>724.5999755859375</ele>
        <time>2014-05-20T08:58:58Z</time>
      </trkpt>
      <trkpt lat="44.58737013861537" lon="5.410606842488051">
        <ele>724.79998779296875</ele>
        <time>2014-05-20T08:58:59Z</time>
      </trkpt>
      <trkpt lat="44.587261760607362" lon="5.410498715937138">
        <ele>725.79998779296875</ele>
        <time>2014-05-20T08:59:04Z</time>
      </trkpt>
      <trkpt lat="44.587203003466129" lon="5.410434845834971">
        <ele>726.4000244140625</ele>
        <time>2014-05-20T08:59:07Z</time>
      </trkpt>
      <trkpt lat="44.587126895785332" lon="5.410351026803255">
        <ele>726.79998779296875</ele>
        <time>2014-05-20T08:59:11Z</time>
      </trkpt>
      <trkpt lat="44.587049782276154" lon="5.410275254398584">
        <ele>727.5999755859375</ele>
        <time>2014-05-20T08:59:15Z</time>
      </trkpt>
      <trkpt lat="44.586996892467141" lon="5.410220688208938">
        <ele>728</ele>
        <time>2014-05-20T08:59:18Z</time>
      </trkpt>
      <trkpt lat="44.586935872212052" lon="5.410139886662364">
        <ele>728.79998779296875</ele>
        <time>2014-05-20T08:59:22Z</time>
      </trkpt>
      <trkpt lat="44.586860099807382" lon="5.410057660192251">
        <ele>729</ele>
        <time>2014-05-20T08:59:26Z</time>
      </trkpt>
      <trkpt lat="44.586785333231091" lon="5.409978283569217">
        <ele>729.5999755859375</ele>
        <time>2014-05-20T08:59:30Z</time>
      </trkpt>
      <trkpt lat="44.586749207228422" lon="5.409937044605613">
        <ele>730.20001220703125</ele>
        <time>2014-05-20T08:59:32Z</time>
      </trkpt>
      <trkpt lat="44.586640326306224" lon="5.409781476482749">
        <ele>731.4000244140625</ele>
        <time>2014-05-20T08:59:39Z</time>
      </trkpt>
      <trkpt lat="44.586596908047795" lon="5.409635296091437">
        <ele>732.4000244140625</ele>
        <time>2014-05-20T08:59:45Z</time>
      </trkpt>
      <trkpt lat="44.586608642712235" lon="5.409610569477081">
        <ele>732.5999755859375</ele>
        <time>2014-05-20T08:59:46Z</time>
      </trkpt>
      <trkpt lat="44.586677458137274" lon="5.409589782357216">
        <ele>733.20001220703125</ele>
        <time>2014-05-20T08:59:49Z</time>
      </trkpt>
      <trkpt lat="44.586784495040774" lon="5.409656167030335">
        <ele>733.5999755859375</ele>
        <time>2014-05-20T08:59:53Z</time>
      </trkpt>
      <trkpt lat="44.586831014603376" lon="5.409703776240349">
        <ele>733.79998779296875</ele>
        <time>2014-05-20T08:59:55Z</time>
      </trkpt>
      <trkpt lat="44.586926400661469" lon="5.40982699021697">
        <ele>734.79998779296875</ele>
        <time>2014-05-20T09:00:00Z</time>
      </trkpt>
      <trkpt lat="44.586956743150949" lon="5.409874431788921">
        <ele>735</ele>
        <time>2014-05-20T09:00:02Z</time>
      </trkpt>
      <trkpt lat="44.587016087025404" lon="5.409957244992256">
        <ele>735.79998779296875</ele>
        <time>2014-05-20T09:00:06Z</time>
      </trkpt>
      <trkpt lat="44.587091105058789" lon="5.409983228892088">
        <ele>736.4000244140625</ele>
        <time>2014-05-20T09:00:10Z</time>
      </trkpt>
      <trkpt lat="44.587139720097184" lon="5.409940481185913">
        <ele>737</ele>
        <time>2014-05-20T09:00:13Z</time>
      </trkpt>
      <trkpt lat="44.587152628228068" lon="5.409881975501776">
        <ele>737</ele>
        <time>2014-05-20T09:00:15Z</time>
      </trkpt>
      <trkpt lat="44.587149024009705" lon="5.409851716831327">
        <ele>737</ele>
        <time>2014-05-20T09:00:16Z</time>
      </trkpt>
      <trkpt lat="44.58711801096797" lon="5.409765215590596">
        <ele>736.79998779296875</ele>
        <time>2014-05-20T09:00:19Z</time>
      </trkpt>
      <trkpt lat="44.587007202208042" lon="5.409627920016646">
        <ele>736.79998779296875</ele>
        <time>2014-05-20T09:00:25Z</time>
      </trkpt>
      <trkpt lat="44.586904607713223" lon="5.409460281953216">
        <ele>738</ele>
        <time>2014-05-20T09:00:32Z</time>
      </trkpt>
      <trkpt lat="44.586876193061471" lon="5.40941116400063">
        <ele>738.5999755859375</ele>
        <time>2014-05-20T09:00:34Z</time>
      </trkpt>
      <trkpt lat="44.586818609386683" lon="5.409306976944208">
        <ele>739</ele>
        <time>2014-05-20T09:00:38Z</time>
      </trkpt>
      <trkpt lat="44.586777621880174" lon="5.409209746867418">
        <ele>739.5999755859375</ele>
        <time>2014-05-20T09:00:42Z</time>
      </trkpt>
      <trkpt lat="44.586750883609056" lon="5.409162053838372">
        <ele>740.20001220703125</ele>
        <time>2014-05-20T09:00:44Z</time>
      </trkpt>
      <trkpt lat="44.586699334904552" lon="5.409057531505823">
        <ele>741</ele>
        <time>2014-05-20T09:00:48Z</time>
      </trkpt>
      <trkpt lat="44.586646193638444" lon="5.408955523744226">
        <ele>741.4000244140625</ele>
        <time>2014-05-20T09:00:52Z</time>
      </trkpt>
      <trkpt lat="44.586612833663821" lon="5.408882349729538">
        <ele>742</ele>
        <time>2014-05-20T09:00:55Z</time>
      </trkpt>
      <trkpt lat="44.586575366556644" lon="5.408805822953582">
        <ele>742.4000244140625</ele>
        <time>2014-05-20T09:00:58Z</time>
      </trkpt>
      <trkpt lat="44.586548879742622" lon="5.408757459372282">
        <ele>743</ele>
        <time>2014-05-20T09:01:00Z</time>
      </trkpt>
      <trkpt lat="44.586525410413742" lon="5.408714208751917">
        <ele>743.20001220703125</ele>
        <time>2014-05-20T09:01:02Z</time>
      </trkpt>
      <trkpt lat="44.586510993540287" lon="5.408693673089147">
        <ele>743.4000244140625</ele>
        <time>2014-05-20T09:01:03Z</time>
      </trkpt>
      <trkpt lat="44.586447793990374" lon="5.408574398607016">
        <ele>744.5999755859375</ele>
        <time>2014-05-20T09:01:08Z</time>
      </trkpt>
      <trkpt lat="44.586420301347971" lon="5.408520754426718">
        <ele>744.79998779296875</ele>
        <time>2014-05-20T09:01:10Z</time>
      </trkpt>
      <trkpt lat="44.586322484537959" lon="5.408340208232403">
        <ele>745.5999755859375</ele>
        <time>2014-05-20T09:01:17Z</time>
      </trkpt>
      <trkpt lat="44.586231205612421" lon="5.408162092790008">
        <ele>746.79998779296875</ele>
        <time>2014-05-20T09:01:23Z</time>
      </trkpt>
      <trkpt lat="44.586218548938632" lon="5.408131247386336">
        <ele>747</ele>
        <time>2014-05-20T09:01:24Z</time>
      </trkpt>
      <trkpt lat="44.586102711036801" lon="5.407897895202041">
        <ele>747.5999755859375</ele>
        <time>2014-05-20T09:01:31Z</time>
      </trkpt>
      <trkpt lat="44.586060885339975" lon="5.407826313748956">
        <ele>747.79998779296875</ele>
        <time>2014-05-20T09:01:33Z</time>
      </trkpt>
      <trkpt lat="44.585939347743988" lon="5.407603355124593">
        <ele>748.4000244140625</ele>
        <time>2014-05-20T09:01:39Z</time>
      </trkpt>
      <trkpt lat="44.585804734379053" lon="5.407362123951316">
        <ele>748.5999755859375</ele>
        <time>2014-05-20T09:01:45Z</time>
      </trkpt>
      <trkpt lat="44.585729716345668" lon="5.407324992120266">
        <ele>748.5999755859375</ele>
        <time>2014-05-20T09:01:47Z</time>
      </trkpt>
      <trkpt lat="44.585647406056523" lon="5.407326333224773">
        <ele>748.4000244140625</ele>
        <time>2014-05-20T09:01:49Z</time>
      </trkpt>
      <trkpt lat="44.585515474900603" lon="5.407323651015759">
        <ele>748.4000244140625</ele>
        <time>2014-05-20T09:01:52Z</time>
      </trkpt>
      <trkpt lat="44.58542738109827" lon="5.407289955765009">
        <ele>748.79998779296875</ele>
        <time>2014-05-20T09:01:54Z</time>
      </trkpt>
      <trkpt lat="44.585386645048857" lon="5.407265480607748">
        <ele>749.20001220703125</ele>
        <time>2014-05-20T09:01:55Z</time>
      </trkpt>
      <trkpt lat="44.585304753854871" lon="5.407167160883546">
        <ele>750</ele>
        <time>2014-05-20T09:01:58Z</time>
      </trkpt>
      <trkpt lat="44.585288995876908" lon="5.40712877176702">
        <ele>750.20001220703125</ele>
        <time>2014-05-20T09:01:59Z</time>
      </trkpt>
      <trkpt lat="44.5852773450315" lon="5.406969012692571">
        <ele>751.20001220703125</ele>
        <time>2014-05-20T09:02:03Z</time>
      </trkpt>
      <trkpt lat="44.585281368345022" lon="5.406931042671204">
        <ele>751.4000244140625</ele>
        <time>2014-05-20T09:02:04Z</time>
      </trkpt>
      <trkpt lat="44.58528614602983" lon="5.40689617395401">
        <ele>751.5999755859375</ele>
        <time>2014-05-20T09:02:05Z</time>
      </trkpt>
      <trkpt lat="44.585312381386757" lon="5.406788801774383">
        <ele>752.20001220703125</ele>
        <time>2014-05-20T09:02:08Z</time>
      </trkpt>
      <trkpt lat="44.585356637835503" lon="5.406646393239498">
        <ele>753.4000244140625</ele>
        <time>2014-05-20T09:02:12Z</time>
      </trkpt>
      <trkpt lat="44.585367785766721" lon="5.406611608341336">
        <ele>753.5999755859375</ele>
        <time>2014-05-20T09:02:13Z</time>
      </trkpt>
      <trkpt lat="44.585449928417802" lon="5.406332323327661">
        <ele>754.5999755859375</ele>
        <time>2014-05-20T09:02:21Z</time>
      </trkpt>
      <trkpt lat="44.585460238158703" lon="5.406305082142353">
        <ele>754.79998779296875</ele>
        <time>2014-05-20T09:02:22Z</time>
      </trkpt>
      <trkpt lat="44.585508937016129" lon="5.406164769083262">
        <ele>755.5999755859375</ele>
        <time>2014-05-20T09:02:27Z</time>
      </trkpt>
      <trkpt lat="44.585538189858198" lon="5.40607525035739">
        <ele>756</ele>
        <time>2014-05-20T09:02:30Z</time>
      </trkpt>
      <trkpt lat="44.585545230656862" lon="5.406005177646875">
        <ele>756.20001220703125</ele>
        <time>2014-05-20T09:02:32Z</time>
      </trkpt>
      <trkpt lat="44.58552997559309" lon="5.405933177098632">
        <ele>756.79998779296875</ele>
        <time>2014-05-20T09:02:34Z</time>
      </trkpt>
      <trkpt lat="44.585513630881906" lon="5.405903672799468">
        <ele>757.20001220703125</ele>
        <time>2014-05-20T09:02:35Z</time>
      </trkpt>
      <trkpt lat="44.585463926196098" lon="5.405865199863911">
        <ele>758</ele>
        <time>2014-05-20T09:02:37Z</time>
      </trkpt>
      <trkpt lat="44.585417406633496" lon="5.405881544575095">
        <ele>758.20001220703125</ele>
        <time>2014-05-20T09:02:39Z</time>
      </trkpt>
      <trkpt lat="44.585337778553367" lon="5.405990174040198">
        <ele>758.5999755859375</ele>
        <time>2014-05-20T09:02:43Z</time>
      </trkpt>
      <trkpt lat="44.585319506004453" lon="5.406019762158394">
        <ele>758.79998779296875</ele>
        <time>2014-05-20T09:02:44Z</time>
      </trkpt>
      <trkpt lat="44.585288073867559" lon="5.406083129346371">
        <ele>759</ele>
        <time>2014-05-20T09:02:46Z</time>
      </trkpt>
      <trkpt lat="44.58523434586823" lon="5.406198631972075">
        <ele>759.5999755859375</ele>
        <time>2014-05-20T09:02:50Z</time>
      </trkpt>
      <trkpt lat="44.585198052227497" lon="5.406307429075241">
        <ele>760</ele>
        <time>2014-05-20T09:02:53Z</time>
      </trkpt>
      <trkpt lat="44.585147593170404" lon="5.406441707164049">
        <ele>760.5999755859375</ele>
        <time>2014-05-20T09:02:57Z</time>
      </trkpt>
      <trkpt lat="44.585098475217819" lon="5.406539272516966">
        <ele>761.20001220703125</ele>
        <time>2014-05-20T09:03:00Z</time>
      </trkpt>
      <trkpt lat="44.58502815105021" lon="5.406583026051521">
        <ele>761.79998779296875</ele>
        <time>2014-05-20T09:03:03Z</time>
      </trkpt>
      <trkpt lat="44.584961263462901" lon="5.406526029109955">
        <ele>762.4000244140625</ele>
        <time>2014-05-20T09:03:06Z</time>
      </trkpt>
      <trkpt lat="44.584951708093286" lon="5.406491328030825">
        <ele>762.5999755859375</ele>
        <time>2014-05-20T09:03:07Z</time>
      </trkpt>
      <trkpt lat="44.584970651194453" lon="5.406358810141683">
        <ele>763.4000244140625</ele>
        <time>2014-05-20T09:03:11Z</time>
      </trkpt>
      <trkpt lat="44.585013315081596" lon="5.406203744933009">
        <ele>764.5999755859375</ele>
        <time>2014-05-20T09:03:16Z</time>
      </trkpt>
      <trkpt lat="44.585019182413816" lon="5.406169714406133">
        <ele>764.79998779296875</ele>
        <time>2014-05-20T09:03:17Z</time>
      </trkpt>
      <trkpt lat="44.585026977583766" lon="5.406047506257892">
        <ele>765.5999755859375</ele>
        <time>2014-05-20T09:03:21Z</time>
      </trkpt>
      <trkpt lat="44.58503644913435" lon="5.405993610620499">
        <ele>766</ele>
        <time>2014-05-20T09:03:23Z</time>
      </trkpt>
      <trkpt lat="44.585039969533682" lon="5.405963938683271">
        <ele>766.20001220703125</ele>
        <time>2014-05-20T09:03:24Z</time>
      </trkpt>
      <trkpt lat="44.58505597896874" lon="5.405847178772092">
        <ele>767</ele>
        <time>2014-05-20T09:03:28Z</time>
      </trkpt>
      <trkpt lat="44.585081711411476" lon="5.405699908733368">
        <ele>767.79998779296875</ele>
        <time>2014-05-20T09:03:33Z</time>
      </trkpt>
      <trkpt lat="44.585084309801459" lon="5.405669650062919">
        <ele>768</ele>
        <time>2014-05-20T09:03:34Z</time>
      </trkpt>
      <trkpt lat="44.585106186568737" lon="5.4055221285671">
        <ele>769</ele>
        <time>2014-05-20T09:03:39Z</time>
      </trkpt>
      <trkpt lat="44.585115322843194" lon="5.405467143282294">
        <ele>769.20001220703125</ele>
        <time>2014-05-20T09:03:41Z</time>
      </trkpt>
      <trkpt lat="44.585121776908636" lon="5.405317861586809">
        <ele>769.79998779296875</ele>
        <time>2014-05-20T09:03:46Z</time>
      </trkpt>
      <trkpt lat="44.585115322843194" lon="5.405257595703006">
        <ele>770.4000244140625</ele>
        <time>2014-05-20T09:03:48Z</time>
      </trkpt>
      <trkpt lat="44.585089255124331" lon="5.405203951522708">
        <ele>770.5999755859375</ele>
        <time>2014-05-20T09:03:50Z</time>
      </trkpt>
      <trkpt lat="44.585050027817488" lon="5.405176291242242">
        <ele>770.79998779296875</ele>
        <time>2014-05-20T09:03:52Z</time>
      </trkpt>
      <trkpt lat="44.584974255412817" lon="5.405180566012859">
        <ele>771.4000244140625</ele>
        <time>2014-05-20T09:03:56Z</time>
      </trkpt>
      <trkpt lat="44.584956234320998" lon="5.405194563791156">
        <ele>771.79998779296875</ele>
        <time>2014-05-20T09:03:57Z</time>
      </trkpt>
      <trkpt lat="44.584938632324338" lon="5.405209399759769">
        <ele>772</ele>
        <time>2014-05-20T09:03:58Z</time>
      </trkpt>
      <trkpt lat="44.584886413067579" lon="5.405258350074291">
        <ele>772.4000244140625</ele>
        <time>2014-05-20T09:04:01Z</time>
      </trkpt>
      <trkpt lat="44.584832349792123" lon="5.405300594866276">
        <ele>772.79998779296875</ele>
        <time>2014-05-20T09:04:04Z</time>
      </trkpt>
      <trkpt lat="44.584723049774766" lon="5.405378630384803">
        <ele>773.5999755859375</ele>
        <time>2014-05-20T09:04:10Z</time>
      </trkpt>
      <trkpt lat="44.584685331210494" lon="5.405397992581129">
        <ele>774</ele>
        <time>2014-05-20T09:04:12Z</time>
      </trkpt>
      <trkpt lat="44.584588184952736" lon="5.405459767207503">
        <ele>774.5999755859375</ele>
        <time>2014-05-20T09:04:17Z</time>
      </trkpt>
      <trkpt lat="44.584547029808164" lon="5.405460605397821">
        <ele>775</ele>
        <time>2014-05-20T09:04:19Z</time>
      </trkpt>
      <trkpt lat="44.584494810551405" lon="5.405430682003498">
        <ele>776</ele>
        <time>2014-05-20T09:04:22Z</time>
      </trkpt>
      <trkpt lat="44.58447452634573" lon="5.405398160219193">
        <ele>776.4000244140625</ele>
        <time>2014-05-20T09:04:24Z</time>
      </trkpt>
      <trkpt lat="44.584479974582791" lon="5.405302690342069">
        <ele>777.20001220703125</ele>
        <time>2014-05-20T09:04:28Z</time>
      </trkpt>
      <trkpt lat="44.584489110857248" lon="5.405278047546744">
        <ele>777.4000244140625</ele>
        <time>2014-05-20T09:04:29Z</time>
      </trkpt>
      <trkpt lat="44.584527248516679" lon="5.405187606811523">
        <ele>777.79998779296875</ele>
        <time>2014-05-20T09:04:33Z</time>
      </trkpt>
      <trkpt lat="44.584557758644223" lon="5.405115690082312">
        <ele>778.20001220703125</ele>
        <time>2014-05-20T09:04:36Z</time>
      </trkpt>
      <trkpt lat="44.584573097527027" lon="5.405092472210527">
        <ele>778.20001220703125</ele>
        <time>2014-05-20T09:04:37Z</time>
      </trkpt>
      <trkpt lat="44.584692623466253" lon="5.404892396181822">
        <ele>779</ele>
        <time>2014-05-20T09:04:45Z</time>
      </trkpt>
      <trkpt lat="44.584705196321011" lon="5.404866328462958">
        <ele>779.20001220703125</ele>
        <time>2014-05-20T09:04:46Z</time>
      </trkpt>
      <trkpt lat="44.584781974554062" lon="5.404708329588175">
        <ele>780.20001220703125</ele>
        <time>2014-05-20T09:04:52Z</time>
      </trkpt>
      <trkpt lat="44.58479362539947" lon="5.40467731654644">
        <ele>780.4000244140625</ele>
        <time>2014-05-20T09:04:53Z</time>
      </trkpt>
      <trkpt lat="44.584821369498968" lon="5.404512947425246">
        <ele>781.4000244140625</ele>
        <time>2014-05-20T09:04:59Z</time>
      </trkpt>
      <trkpt lat="44.584819106385112" lon="5.40448478423059">
        <ele>781.79998779296875</ele>
        <time>2014-05-20T09:05:00Z</time>
      </trkpt>
      <trkpt lat="44.584807036444545" lon="5.404429882764816">
        <ele>782</ele>
        <time>2014-05-20T09:05:02Z</time>
      </trkpt>
      <trkpt lat="44.584751212969422" lon="5.404328797012568">
        <ele>782.4000244140625</ele>
        <time>2014-05-20T09:05:06Z</time>
      </trkpt>
      <trkpt lat="44.584731431677938" lon="5.404307087883353">
        <ele>782.5999755859375</ele>
        <time>2014-05-20T09:05:07Z</time>
      </trkpt>
      <trkpt lat="44.58462649025023" lon="5.404286300763488">
        <ele>783.5999755859375</ele>
        <time>2014-05-20T09:05:12Z</time>
      </trkpt>
      <trkpt lat="44.584470419213176" lon="5.404360983520746">
        <ele>784.5999755859375</ele>
        <time>2014-05-20T09:05:19Z</time>
      </trkpt>
      <trkpt lat="44.584450051188469" lon="5.404382692649961">
        <ele>784.5999755859375</ele>
        <time>2014-05-20T09:05:20Z</time>
      </trkpt>
      <trkpt lat="44.584373943507671" lon="5.404448909685016">
        <ele>785.79998779296875</ele>
        <time>2014-05-20T09:05:24Z</time>
      </trkpt>
      <trkpt lat="44.58434502594173" lon="5.404484616592526">
        <ele>786.20001220703125</ele>
        <time>2014-05-20T09:05:26Z</time>
      </trkpt>
      <trkpt lat="44.584293812513351" lon="5.40453708730638">
        <ele>786.79998779296875</ele>
        <time>2014-05-20T09:05:30Z</time>
      </trkpt>
      <trkpt lat="44.584267325699329" lon="5.40457371622324">
        <ele>787</ele>
        <time>2014-05-20T09:05:32Z</time>
      </trkpt>
      <trkpt lat="44.584215190261602" lon="5.404671700671315">
        <ele>787.79998779296875</ele>
        <time>2014-05-20T09:05:37Z</time>
      </trkpt>
      <trkpt lat="44.584207395091653" lon="5.404692739248276">
        <ele>787.79998779296875</ele>
        <time>2014-05-20T09:05:38Z</time>
      </trkpt>
      <trkpt lat="44.584123995155096" lon="5.404806062579155">
        <ele>788.5999755859375</ele>
        <time>2014-05-20T09:05:44Z</time>
      </trkpt>
      <trkpt lat="44.584080828353763" lon="5.404894491657615">
        <ele>789</ele>
        <time>2014-05-20T09:05:48Z</time>
      </trkpt>
      <trkpt lat="44.58403866738081" lon="5.404945034533739">
        <ele>789.79998779296875</ele>
        <time>2014-05-20T09:05:51Z</time>
      </trkpt>
      <trkpt lat="44.584014276042581" lon="5.404990799725056">
        <ele>790.20001220703125</ele>
        <time>2014-05-20T09:05:53Z</time>
      </trkpt>
      <trkpt lat="44.583941772580147" lon="5.405133794993162">
        <ele>791</ele>
        <time>2014-05-20T09:05:59Z</time>
      </trkpt>
      <trkpt lat="44.583915453404188" lon="5.405174195766449">
        <ele>791.20001220703125</ele>
        <time>2014-05-20T09:06:01Z</time>
      </trkpt>
      <trkpt lat="44.583822917193174" lon="5.405240161344409">
        <ele>792</ele>
        <time>2014-05-20T09:06:06Z</time>
      </trkpt>
      <trkpt lat="44.583780588582158" lon="5.405232114717364">
        <ele>792.20001220703125</ele>
        <time>2014-05-20T09:06:08Z</time>
      </trkpt>
      <trkpt lat="44.583755526691675" lon="5.405189199373126">
        <ele>792.5999755859375</ele>
        <time>2014-05-20T09:06:10Z</time>
      </trkpt>
      <trkpt lat="44.583776984363794" lon="5.405095824971795">
        <ele>793.4000244140625</ele>
        <time>2014-05-20T09:06:14Z</time>
      </trkpt>
      <trkpt lat="44.583801962435246" lon="5.405060620978475">
        <ele>793.5999755859375</ele>
        <time>2014-05-20T09:06:16Z</time>
      </trkpt>
      <trkpt lat="44.58383297547698" lon="5.404998427256942">
        <ele>794.4000244140625</ele>
        <time>2014-05-20T09:06:19Z</time>
      </trkpt>
      <trkpt lat="44.583841441199183" lon="5.404977472499013">
        <ele>794.5999755859375</ele>
        <time>2014-05-20T09:06:20Z</time>
      </trkpt>
      <trkpt lat="44.583900449797511" lon="5.404876135289669">
        <ele>795.4000244140625</ele>
        <time>2014-05-20T09:06:25Z</time>
      </trkpt>
      <trkpt lat="44.583931379020214" lon="5.404838835820556">
        <ele>795.79998779296875</ele>
        <time>2014-05-20T09:06:27Z</time>
      </trkpt>
      <trkpt lat="44.584013102576137" lon="5.404707072302699">
        <ele>796.5999755859375</ele>
        <time>2014-05-20T09:06:33Z</time>
      </trkpt>
      <trkpt lat="44.584033554419875" lon="5.404655188322067">
        <ele>796.79998779296875</ele>
        <time>2014-05-20T09:06:35Z</time>
      </trkpt>
      <trkpt lat="44.58404503762722" lon="5.404605567455292">
        <ele>797.5999755859375</ele>
        <time>2014-05-20T09:06:37Z</time>
      </trkpt>
      <trkpt lat="44.584030453115702" lon="5.40447061881423">
        <ele>798.4000244140625</ele>
        <time>2014-05-20T09:06:42Z</time>
      </trkpt>
      <trkpt lat="44.58401377312839" lon="5.404409850016236">
        <ele>798.79998779296875</ele>
        <time>2014-05-20T09:06:44Z</time>
      </trkpt>
      <trkpt lat="44.583956943824887" lon="5.404207343235612">
        <ele>799.79998779296875</ele>
        <time>2014-05-20T09:06:50Z</time>
      </trkpt>
      <trkpt lat="44.583947388455272" lon="5.40417205542326">
        <ele>800</ele>
        <time>2014-05-20T09:06:51Z</time>
      </trkpt>
      <trkpt lat="44.583905478939414" lon="5.403916742652655">
        <ele>801</ele>
        <time>2014-05-20T09:06:58Z</time>
      </trkpt>
      <trkpt lat="44.583888798952103" lon="5.403836276382208">
        <ele>801.20001220703125</ele>
        <time>2014-05-20T09:07:00Z</time>
      </trkpt>
      <trkpt lat="44.583845967426896" lon="5.403674757108092">
        <ele>802</ele>
        <time>2014-05-20T09:07:04Z</time>
      </trkpt>
      <trkpt lat="44.583806656301022" lon="5.40355104021728">
        <ele>802.4000244140625</ele>
        <time>2014-05-20T09:07:07Z</time>
      </trkpt>
      <trkpt lat="44.583768434822559" lon="5.403434531763196">
        <ele>803.20001220703125</ele>
        <time>2014-05-20T09:07:10Z</time>
      </trkpt>
      <trkpt lat="44.583682771772146" lon="5.403261948376894">
        <ele>804.5999755859375</ele>
        <time>2014-05-20T09:07:15Z</time>
      </trkpt>
      <trkpt lat="44.583665672689676" lon="5.40323143824935">
        <ele>805</ele>
        <time>2014-05-20T09:07:16Z</time>
      </trkpt>
      <trkpt lat="44.583594677969813" lon="5.403121635317802">
        <ele>805.5999755859375</ele>
        <time>2014-05-20T09:07:20Z</time>
      </trkpt>
      <trkpt lat="44.583506835624576" lon="5.402986519038677">
        <ele>806.5999755859375</ele>
        <time>2014-05-20T09:07:25Z</time>
      </trkpt>
      <trkpt lat="44.583489987999201" lon="5.40296170860529">
        <ele>806.79998779296875</ele>
        <time>2014-05-20T09:07:26Z</time>
      </trkpt>
      <trkpt lat="44.583400469273329" lon="5.402818629518151">
        <ele>808</ele>
        <time>2014-05-20T09:07:32Z</time>
      </trkpt>
      <trkpt lat="44.583369037136436" lon="5.402771271765232">
        <ele>808.20001220703125</ele>
        <time>2014-05-20T09:07:34Z</time>
      </trkpt>
      <trkpt lat="44.58326518535614" lon="5.402614949271083">
        <ele>809</ele>
        <time>2014-05-20T09:07:41Z</time>
      </trkpt>
      <trkpt lat="44.583238530904055" lon="5.402562310919166">
        <ele>809.4000244140625</ele>
        <time>2014-05-20T09:07:43Z</time>
      </trkpt>
      <trkpt lat="44.583176337182522" lon="5.402467343956232">
        <ele>810.20001220703125</ele>
        <time>2014-05-20T09:07:47Z</time>
      </trkpt>
      <trkpt lat="44.583133086562157" lon="5.402403892949224">
        <ele>810.79998779296875</ele>
        <time>2014-05-20T09:07:50Z</time>
      </trkpt>
      <trkpt lat="44.583078855648637" lon="5.402316385880113">
        <ele>811.20001220703125</ele>
        <time>2014-05-20T09:07:54Z</time>
      </trkpt>
      <trkpt lat="44.583023618906736" lon="5.402237847447395">
        <ele>812.20001220703125</ele>
        <time>2014-05-20T09:07:58Z</time>
      </trkpt>
      <trkpt lat="44.583009537309408" lon="5.402222843840718">
        <ele>812.4000244140625</ele>
        <time>2014-05-20T09:07:59Z</time>
      </trkpt>
      <trkpt lat="44.582960838451982" lon="5.40215109474957">
        <ele>813.20001220703125</ele>
        <time>2014-05-20T09:08:03Z</time>
      </trkpt>
      <trkpt lat="44.582882719114423" lon="5.402039112523198">
        <ele>813.79998779296875</ele>
        <time>2014-05-20T09:08:08Z</time>
      </trkpt>
      <trkpt lat="44.582834439352155" lon="5.401981361210346">
        <ele>814</ele>
        <time>2014-05-20T09:08:11Z</time>
      </trkpt>
      <trkpt lat="44.5827750954777" lon="5.401907516643405">
        <ele>815</ele>
        <time>2014-05-20T09:08:15Z</time>
      </trkpt>
      <trkpt lat="44.582713572308421" lon="5.401819590479136">
        <ele>815.4000244140625</ele>
        <time>2014-05-20T09:08:19Z</time>
      </trkpt>
      <trkpt lat="44.58266906440258" lon="5.401773741468787">
        <ele>816</ele>
        <time>2014-05-20T09:08:22Z</time>
      </trkpt>
      <trkpt lat="44.582629334181547" lon="5.401733089238405">
        <ele>816.79998779296875</ele>
        <time>2014-05-20T09:08:25Z</time>
      </trkpt>
      <trkpt lat="44.582608379423618" lon="5.401694197207689">
        <ele>817.20001220703125</ele>
        <time>2014-05-20T09:08:27Z</time>
      </trkpt>
      <trkpt lat="44.582529338076711" lon="5.401600571349263">
        <ele>817.5999755859375</ele>
        <time>2014-05-20T09:08:32Z</time>
      </trkpt>
      <trkpt lat="44.582500839605927" lon="5.401560422033072">
        <ele>818.20001220703125</ele>
        <time>2014-05-20T09:08:34Z</time>
      </trkpt>
      <trkpt lat="44.582443339750171" lon="5.401442069560289">
        <ele>819.4000244140625</ele>
        <time>2014-05-20T09:08:39Z</time>
      </trkpt>
      <trkpt lat="44.582419032230973" lon="5.401397896930575">
        <ele>819.5999755859375</ele>
        <time>2014-05-20T09:08:41Z</time>
      </trkpt>
      <trkpt lat="44.582337224856019" lon="5.401246687397361">
        <ele>820.4000244140625</ele>
        <time>2014-05-20T09:08:48Z</time>
      </trkpt>
      <trkpt lat="44.582294141873717" lon="5.401147697120905">
        <ele>821.20001220703125</ele>
        <time>2014-05-20T09:08:52Z</time>
      </trkpt>
      <trkpt lat="44.582279892638326" lon="5.40112447924912">
        <ele>821.4000244140625</ele>
        <time>2014-05-20T09:08:53Z</time>
      </trkpt>
      <trkpt lat="44.582200516015291" lon="5.400979137048125">
        <ele>821.79998779296875</ele>
        <time>2014-05-20T09:08:59Z</time>
      </trkpt>
      <trkpt lat="44.582179980352521" lon="5.400923145934939">
        <ele>822.5999755859375</ele>
        <time>2014-05-20T09:09:01Z</time>
      </trkpt>
      <trkpt lat="44.582166653126478" lon="5.400898084044457">
        <ele>822.79998779296875</ele>
        <time>2014-05-20T09:09:02Z</time>
      </trkpt>
      <trkpt lat="44.582085851579905" lon="5.40077218785882">
        <ele>823.4000244140625</ele>
        <time>2014-05-20T09:09:08Z</time>
      </trkpt>
      <trkpt lat="44.582053665071726" lon="5.40070571936667">
        <ele>824</ele>
        <time>2014-05-20T09:09:11Z</time>
      </trkpt>
      <trkpt lat="44.58200111053884" lon="5.400608070194721">
        <ele>824.5999755859375</ele>
        <time>2014-05-20T09:09:16Z</time>
      </trkpt>
      <trkpt lat="44.581960625946522" lon="5.40055668912828">
        <ele>825</ele>
        <time>2014-05-20T09:09:19Z</time>
      </trkpt>
      <trkpt lat="44.581902204081416" lon="5.400480749085546">
        <ele>825.5999755859375</ele>
        <time>2014-05-20T09:09:23Z</time>
      </trkpt>
      <trkpt lat="44.581867754459381" lon="5.400459710508585">
        <ele>826</ele>
        <time>2014-05-20T09:09:25Z</time>
      </trkpt>
      <trkpt lat="44.58180908113718" lon="5.400477647781372">
        <ele>826.5999755859375</ele>
        <time>2014-05-20T09:09:28Z</time>
      </trkpt>
      <trkpt lat="44.58179684355855" lon="5.400501368567348">
        <ele>826.79998779296875</ele>
        <time>2014-05-20T09:10:30Z</time>
      </trkpt>
      <trkpt lat="44.58179734647274" lon="5.400625169277191">
        <ele>827</ele>
        <time>2014-05-20T09:10:34Z</time>
      </trkpt>
      <trkpt lat="44.581797681748867" lon="5.400704964995384">
        <ele>827</ele>
        <time>2014-05-20T09:10:36Z</time>
      </trkpt>
      <trkpt lat="44.581863144412637" lon="5.400938987731934">
        <ele>828</ele>
        <time>2014-05-20T09:10:42Z</time>
      </trkpt>
      <trkpt lat="44.581878986209631" lon="5.400970838963985">
        <ele>828.20001220703125</ele>
        <time>2014-05-20T09:10:43Z</time>
      </trkpt>
      <trkpt lat="44.581964649260044" lon="5.401138979941607">
        <ele>829.20001220703125</ele>
        <time>2014-05-20T09:10:49Z</time>
      </trkpt>
      <trkpt lat="44.581997757777572" lon="5.401187259703875">
        <ele>829.4000244140625</ele>
        <time>2014-05-20T09:10:51Z</time>
      </trkpt>
      <trkpt lat="44.582067746669054" lon="5.401344923302531">
        <ele>830.4000244140625</ele>
        <time>2014-05-20T09:10:57Z</time>
      </trkpt>
      <trkpt lat="44.582079900428653" lon="5.401407787576318">
        <ele>830.5999755859375</ele>
        <time>2014-05-20T09:10:59Z</time>
      </trkpt>
      <trkpt lat="44.582065315917134" lon="5.401455815881491">
        <ele>831</ele>
        <time>2014-05-20T09:11:01Z</time>
      </trkpt>
      <trkpt lat="44.582047294825315" lon="5.401468137279153">
        <ele>831.4000244140625</ele>
        <time>2014-05-20T09:11:02Z</time>
      </trkpt>
      <trkpt lat="44.582028687000275" lon="5.401470316573978">
        <ele>831.5999755859375</ele>
        <time>2014-05-20T09:11:03Z</time>
      </trkpt>
      <trkpt lat="44.58197713829577" lon="5.401444667950273">
        <ele>831.79998779296875</ele>
        <time>2014-05-20T09:11:06Z</time>
      </trkpt>
      <trkpt lat="44.581948556005955" lon="5.401397813111544">
        <ele>831.79998779296875</ele>
        <time>2014-05-20T09:11:08Z</time>
      </trkpt>
      <trkpt lat="44.581865491345525" lon="5.401284238323569">
        <ele>832.20001220703125</ele>
        <time>2014-05-20T09:11:13Z</time>
      </trkpt>
      <trkpt lat="44.581831125542521" lon="5.401238305494189">
        <ele>832.4000244140625</ele>
        <time>2014-05-20T09:11:15Z</time>
      </trkpt>
      <trkpt lat="44.581784438341856" lon="5.401161275804043">
        <ele>833.20001220703125</ele>
        <time>2014-05-20T09:11:18Z</time>
      </trkpt>
      <trkpt lat="44.581728279590607" lon="5.401098411530256">
        <ele>833.5999755859375</ele>
        <time>2014-05-20T09:11:21Z</time>
      </trkpt>
      <trkpt lat="44.58165074698627" lon="5.401005707681179">
        <ele>834.20001220703125</ele>
        <time>2014-05-20T09:11:25Z</time>
      </trkpt>
      <trkpt lat="44.581519737839699" lon="5.400833962485194">
        <ele>834.5999755859375</ele>
        <time>2014-05-20T09:11:31Z</time>
      </trkpt>
      <trkpt lat="44.581494675949216" lon="5.400809487327933">
        <ele>835</ele>
        <time>2014-05-20T09:11:32Z</time>
      </trkpt>
      <trkpt lat="44.581382945179939" lon="5.400686273351312">
        <ele>835.5999755859375</ele>
        <time>2014-05-20T09:11:37Z</time>
      </trkpt>
      <trkpt lat="44.581294935196638" lon="5.400585439056158">
        <ele>836.4000244140625</ele>
        <time>2014-05-20T09:11:41Z</time>
      </trkpt>
      <trkpt lat="44.581255288794637" lon="5.400541936978698">
        <ele>836.79998779296875</ele>
        <time>2014-05-20T09:11:43Z</time>
      </trkpt>
      <trkpt lat="44.581104665994644" lon="5.400383770465851">
        <ele>837.5999755859375</ele>
        <time>2014-05-20T09:11:50Z</time>
      </trkpt>
      <trkpt lat="44.581059319898486" lon="5.400338927283883">
        <ele>837.79998779296875</ele>
        <time>2014-05-20T09:11:52Z</time>
      </trkpt>
      <trkpt lat="44.580917246639729" lon="5.400195848196745">
        <ele>838.79998779296875</ele>
        <time>2014-05-20T09:11:59Z</time>
      </trkpt>
      <trkpt lat="44.58083669655025" lon="5.400127284228802">
        <ele>839</ele>
        <time>2014-05-20T09:12:03Z</time>
      </trkpt>
      <trkpt lat="44.580750949680805" lon="5.400076657533646">
        <ele>840.4000244140625</ele>
        <time>2014-05-20T09:12:07Z</time>
      </trkpt>
      <trkpt lat="44.580624047666788" lon="5.399897368624806">
        <ele>841.20001220703125</ele>
        <time>2014-05-20T09:12:14Z</time>
      </trkpt>
      <trkpt lat="44.580615162849426" lon="5.399860823526979">
        <ele>841.5999755859375</ele>
        <time>2014-05-20T09:12:15Z</time>
      </trkpt>
      <trkpt lat="44.580612313002348" lon="5.399670638144016">
        <ele>841.4000244140625</ele>
        <time>2014-05-20T09:12:20Z</time>
      </trkpt>
      <trkpt lat="44.580615414306521" lon="5.399445751681924">
        <ele>842</ele>
        <time>2014-05-20T09:12:26Z</time>
      </trkpt>
      <trkpt lat="44.580599572509527" lon="5.399180380627513">
        <ele>842.5999755859375</ele>
        <time>2014-05-20T09:12:34Z</time>
      </trkpt>
      <trkpt lat="44.580596806481481" lon="5.399148361757398">
        <ele>843.4000244140625</ele>
        <time>2014-05-20T09:12:35Z</time>
      </trkpt>
      <trkpt lat="44.580565458163619" lon="5.398985669016838">
        <ele>844.5999755859375</ele>
        <time>2014-05-20T09:12:40Z</time>
      </trkpt>
      <trkpt lat="44.580560848116875" lon="5.398918194696307">
        <ele>844.79998779296875</ele>
        <time>2014-05-20T09:12:42Z</time>
      </trkpt>
      <trkpt lat="44.580538971349597" lon="5.398787017911673">
        <ele>845.79998779296875</ele>
        <time>2014-05-20T09:12:46Z</time>
      </trkpt>
      <trkpt lat="44.580527488142252" lon="5.398692721500993">
        <ele>846.5999755859375</ele>
        <time>2014-05-20T09:12:49Z</time>
      </trkpt>
      <trkpt lat="44.580522961914539" lon="5.398662965744734">
        <ele>846.5999755859375</ele>
        <time>2014-05-20T09:12:50Z</time>
      </trkpt>
      <trkpt lat="44.580512400716543" lon="5.398608315736055">
        <ele>847</ele>
        <time>2014-05-20T09:12:52Z</time>
      </trkpt>
      <trkpt lat="44.580494714900851" lon="5.398473534733057">
        <ele>848</ele>
        <time>2014-05-20T09:12:57Z</time>
      </trkpt>
      <trkpt lat="44.580487674102187" lon="5.398448137566447">
        <ele>848</ele>
        <time>2014-05-20T09:12:58Z</time>
      </trkpt>
      <trkpt lat="44.580477280542254" lon="5.398339843377471">
        <ele>848.5999755859375</ele>
        <time>2014-05-20T09:13:02Z</time>
      </trkpt>
      <trkpt lat="44.580470994114876" lon="5.398285109549761">
        <ele>849.20001220703125</ele>
        <time>2014-05-20T09:13:04Z</time>
      </trkpt>
      <trkpt lat="44.58043453283608" lon="5.39812090806663">
        <ele>850.20001220703125</ele>
        <time>2014-05-20T09:13:10Z</time>
      </trkpt>
      <trkpt lat="44.580427911132574" lon="5.398092996329069">
        <ele>850.20001220703125</ele>
        <time>2014-05-20T09:13:11Z</time>
      </trkpt>
      <trkpt lat="44.580348618328571" lon="5.397928208112717">
        <ele>851.4000244140625</ele>
        <time>2014-05-20T09:13:18Z</time>
      </trkpt>
      <trkpt lat="44.580315425992012" lon="5.397869199514389">
        <ele>851.79998779296875</ele>
        <time>2014-05-20T09:13:21Z</time>
      </trkpt>
      <trkpt lat="44.580269157886505" lon="5.397834163159132">
        <ele>852.5999755859375</ele>
        <time>2014-05-20T09:13:24Z</time>
      </trkpt>
      <trkpt lat="44.580182321369648" lon="5.397816896438599">
        <ele>853.5999755859375</ele>
        <time>2014-05-20T09:13:29Z</time>
      </trkpt>
      <trkpt lat="44.580143848434091" lon="5.39783651009202">
        <ele>853.79998779296875</ele>
        <time>2014-05-20T09:13:31Z</time>
      </trkpt>
      <trkpt lat="44.580014767125249" lon="5.39793667383492">
        <ele>854.5999755859375</ele>
        <time>2014-05-20T09:13:38Z</time>
      </trkpt>
      <trkpt lat="44.579979982227087" lon="5.397969698533416">
        <ele>854.79998779296875</ele>
        <time>2014-05-20T09:13:40Z</time>
      </trkpt>
      <trkpt lat="44.579903958365321" lon="5.398075478151441">
        <ele>855.79998779296875</ele>
        <time>2014-05-20T09:13:45Z</time>
      </trkpt>
      <trkpt lat="44.579890128225088" lon="5.398098193109036">
        <ele>856</ele>
        <time>2014-05-20T09:13:46Z</time>
      </trkpt>
      <trkpt lat="44.579823827371001" lon="5.398318218067288">
        <ele>856.79998779296875</ele>
        <time>2014-05-20T09:13:54Z</time>
      </trkpt>
      <trkpt lat="44.579830532893538" lon="5.398556850850582">
        <ele>857.5999755859375</ele>
        <time>2014-05-20T09:14:01Z</time>
      </trkpt>
      <trkpt lat="44.579836400225759" lon="5.398591300472617">
        <ele>857.79998779296875</ele>
        <time>2014-05-20T09:14:02Z</time>
      </trkpt>
      <trkpt lat="44.579861713573337" lon="5.398783916607499">
        <ele>859</ele>
        <time>2014-05-20T09:14:08Z</time>
      </trkpt>
      <trkpt lat="44.579868167638779" lon="5.398816019296646">
        <ele>859</ele>
        <time>2014-05-20T09:14:09Z</time>
      </trkpt>
      <trkpt lat="44.579891553148627" lon="5.399041911587119">
        <ele>860</ele>
        <time>2014-05-20T09:14:16Z</time>
      </trkpt>
      <trkpt lat="44.579883171245456" lon="5.399106536060572">
        <ele>860.20001220703125</ele>
        <time>2014-05-20T09:14:18Z</time>
      </trkpt>
      <trkpt lat="44.579810667783022" lon="5.39921298623085">
        <ele>861.20001220703125</ele>
        <time>2014-05-20T09:14:23Z</time>
      </trkpt>
      <trkpt lat="44.579664152115583" lon="5.39923788048327">
        <ele>862.20001220703125</ele>
        <time>2014-05-20T09:14:30Z</time>
      </trkpt>
      <trkpt lat="44.579527275636792" lon="5.399119528010488">
        <ele>863</ele>
        <time>2014-05-20T09:14:37Z</time>
      </trkpt>
      <trkpt lat="44.579508416354656" lon="5.39910058490932">
        <ele>863.4000244140625</ele>
        <time>2014-05-20T09:14:38Z</time>
      </trkpt>
      <trkpt lat="44.579413617029786" lon="5.398970749229193">
        <ele>864.4000244140625</ele>
        <time>2014-05-20T09:14:44Z</time>
      </trkpt>
      <trkpt lat="44.579398445785046" lon="5.398953817784786">
        <ele>864.5999755859375</ele>
        <time>2014-05-20T09:14:45Z</time>
      </trkpt>
      <trkpt lat="44.579287804663181" lon="5.398791879415512">
        <ele>865.5999755859375</ele>
        <time>2014-05-20T09:14:53Z</time>
      </trkpt>
      <trkpt lat="44.579212786629796" lon="5.398689452558756">
        <ele>866.20001220703125</ele>
        <time>2014-05-20T09:14:58Z</time>
      </trkpt>
      <trkpt lat="44.579168865457177" lon="5.398630611598492">
        <ele>866.5999755859375</ele>
        <time>2014-05-20T09:15:01Z</time>
      </trkpt>
      <trkpt lat="44.579105162993073" lon="5.398546038195491">
        <ele>867.4000244140625</ele>
        <time>2014-05-20T09:15:05Z</time>
      </trkpt>
      <trkpt lat="44.579051937907934" lon="5.398495579138398">
        <ele>867.79998779296875</ele>
        <time>2014-05-20T09:15:08Z</time>
      </trkpt>
      <trkpt lat="44.578955881297588" lon="5.398419220000505">
        <ele>868.5999755859375</ele>
        <time>2014-05-20T09:15:13Z</time>
      </trkpt>
      <trkpt lat="44.578870804980397" lon="5.398376137018204">
        <ele>869</ele>
        <time>2014-05-20T09:15:17Z</time>
      </trkpt>
      <trkpt lat="44.578809952363372" lon="5.398368258029223">
        <ele>869.20001220703125</ele>
        <time>2014-05-20T09:15:20Z</time>
      </trkpt>
      <trkpt lat="44.578643487766385" lon="5.398379908874631">
        <ele>870.20001220703125</ele>
        <time>2014-05-20T09:15:28Z</time>
      </trkpt>
      <trkpt lat="44.578622449189425" lon="5.398387955501676">
        <ele>870.20001220703125</ele>
        <time>2014-05-20T09:15:29Z</time>
      </trkpt>
      <trkpt lat="44.578541144728661" lon="5.398435732349753">
        <ele>871.4000244140625</ele>
        <time>2014-05-20T09:15:33Z</time>
      </trkpt>
      <trkpt lat="44.578463276848197" lon="5.398500189185143">
        <ele>872.20001220703125</ele>
        <time>2014-05-20T09:15:37Z</time>
      </trkpt>
      <trkpt lat="44.578407453373075" lon="5.398548468947411">
        <ele>872.4000244140625</ele>
        <time>2014-05-20T09:15:40Z</time>
      </trkpt>
      <trkpt lat="44.578316677361727" lon="5.398629438132048">
        <ele>873.5999755859375</ele>
        <time>2014-05-20T09:15:45Z</time>
      </trkpt>
      <trkpt lat="44.578224811702967" lon="5.398699510842562">
        <ele>874.79998779296875</ele>
        <time>2014-05-20T09:15:50Z</time>
      </trkpt>
      <trkpt lat="44.578130850568414" lon="5.398776289075613">
        <ele>875.4000244140625</ele>
        <time>2014-05-20T09:15:55Z</time>
      </trkpt>
      <trkpt lat="44.578095562756062" lon="5.398805206641555">
        <ele>876</ele>
        <time>2014-05-20T09:15:57Z</time>
      </trkpt>
      <trkpt lat="44.577998584136367" lon="5.398894054815173">
        <ele>877</ele>
        <time>2014-05-20T09:16:03Z</time>
      </trkpt>
      <trkpt lat="44.57785508595407" lon="5.399027578532696">
        <ele>877.79998779296875</ele>
        <time>2014-05-20T09:16:11Z</time>
      </trkpt>
      <trkpt lat="44.577838825061917" lon="5.399043671786785">
        <ele>878.20001220703125</ele>
        <time>2014-05-20T09:16:12Z</time>
      </trkpt>
      <trkpt lat="44.57773245871067" lon="5.399148613214493">
        <ele>879</ele>
        <time>2014-05-20T09:16:18Z</time>
      </trkpt>
      <trkpt lat="44.577718796208501" lon="5.399171411991119">
        <ele>879.20001220703125</ele>
        <time>2014-05-20T09:16:19Z</time>
      </trkpt>
      <trkpt lat="44.577620644122362" lon="5.39928968064487">
        <ele>879.79998779296875</ele>
        <time>2014-05-20T09:16:25Z</time>
      </trkpt>
      <trkpt lat="44.57752869464457" lon="5.399396130815148">
        <ele>880.20001220703125</ele>
        <time>2014-05-20T09:16:30Z</time>
      </trkpt>
      <trkpt lat="44.57749399356544" lon="5.399435609579086">
        <ele>880.4000244140625</ele>
        <time>2014-05-20T09:16:32Z</time>
      </trkpt>
      <trkpt lat="44.57735669799149" lon="5.399596458300948">
        <ele>880.79998779296875</ele>
        <time>2014-05-20T09:16:40Z</time>
      </trkpt>
      <trkpt lat="44.577303221449256" lon="5.399692095816135">
        <ele>881.20001220703125</ele>
        <time>2014-05-20T09:16:44Z</time>
      </trkpt>
      <trkpt lat="44.577250499278307" lon="5.399799970909953">
        <ele>881.79998779296875</ele>
        <time>2014-05-20T09:16:48Z</time>
      </trkpt>
      <trkpt lat="44.577202051877975" lon="5.399910360574722">
        <ele>882.4000244140625</ele>
        <time>2014-05-20T09:16:52Z</time>
      </trkpt>
      <trkpt lat="44.577165925875306" lon="5.400004154071212">
        <ele>882.5999755859375</ele>
        <time>2014-05-20T09:16:55Z</time>
      </trkpt>
      <trkpt lat="44.57708990201354" lon="5.400227699428797">
        <ele>883.4000244140625</ele>
        <time>2014-05-20T09:17:02Z</time>
      </trkpt>
      <trkpt lat="44.577075568959117" lon="5.40025276131928">
        <ele>883.5999755859375</ele>
        <time>2014-05-20T09:17:03Z</time>
      </trkpt>
      <trkpt lat="44.576985966414213" lon="5.400416124612093">
        <ele>884.4000244140625</ele>
        <time>2014-05-20T09:17:09Z</time>
      </trkpt>
      <trkpt lat="44.576969370245934" lon="5.400439510121942">
        <ele>884.5999755859375</ele>
        <time>2014-05-20T09:17:10Z</time>
      </trkpt>
      <trkpt lat="44.576860405504704" lon="5.400536404922605">
        <ele>885</ele>
        <time>2014-05-20T09:17:15Z</time>
      </trkpt>
      <trkpt lat="44.576660497114062" lon="5.400647800415754">
        <ele>885.4000244140625</ele>
        <time>2014-05-20T09:17:22Z</time>
      </trkpt>
      <trkpt lat="44.576596124097705" lon="5.400669761002064">
        <ele>885.5999755859375</ele>
        <time>2014-05-20T09:17:24Z</time>
      </trkpt>
      <trkpt lat="44.576412811875343" lon="5.400703204795718">
        <ele>886.5999755859375</ele>
        <time>2014-05-20T09:17:30Z</time>
      </trkpt>
      <trkpt lat="44.576382553204894" lon="5.400707814842463">
        <ele>886.79998779296875</ele>
        <time>2014-05-20T09:17:31Z</time>
      </trkpt>
      <trkpt lat="44.576142998412251" lon="5.400737402960658">
        <ele>887.79998779296875</ele>
        <time>2014-05-20T09:17:39Z</time>
      </trkpt>
      <trkpt lat="44.575906209647655" lon="5.400795908644795">
        <ele>888.4000244140625</ele>
        <time>2014-05-20T09:17:47Z</time>
      </trkpt>
      <trkpt lat="44.575709151104093" lon="5.400911411270499">
        <ele>888.20001220703125</ele>
        <time>2014-05-20T09:17:54Z</time>
      </trkpt>
      <trkpt lat="44.575624074786901" lon="5.40095885284245">
        <ele>889</ele>
        <time>2014-05-20T09:17:57Z</time>
      </trkpt>
      <trkpt lat="44.575451491400599" lon="5.401040324941278">
        <ele>889.5999755859375</ele>
        <time>2014-05-20T09:18:03Z</time>
      </trkpt>
      <trkpt lat="44.575296845287085" lon="5.401100842282176">
        <ele>889.4000244140625</ele>
        <time>2014-05-20T09:18:07Z</time>
      </trkpt>
      <trkpt lat="44.575248397886753" lon="5.401115845888853">
        <ele>889.4000244140625</ele>
        <time>2014-05-20T09:18:08Z</time>
      </trkpt>
      <trkpt lat="44.574920497834682" lon="5.401198323816061">
        <ele>887.79998779296875</ele>
        <time>2014-05-20T09:18:14Z</time>
      </trkpt>
      <trkpt lat="44.574492266401649" lon="5.401278538629413">
        <ele>888.79998779296875</ele>
        <time>2014-05-20T09:18:22Z</time>
      </trkpt>
      <trkpt lat="44.57417325116694" lon="5.401323046535254">
        <ele>889.4000244140625</ele>
        <time>2014-05-20T09:18:29Z</time>
      </trkpt>
      <trkpt lat="44.574090018868446" lon="5.401330338791013">
        <ele>890.20001220703125</ele>
        <time>2014-05-20T09:18:31Z</time>
      </trkpt>
      <trkpt lat="44.573886087164283" lon="5.401394041255117">
        <ele>891</ele>
        <time>2014-05-20T09:18:36Z</time>
      </trkpt>
      <trkpt lat="44.573847111314535" lon="5.401415498927236">
        <ele>891.4000244140625</ele>
        <time>2014-05-20T09:18:37Z</time>
      </trkpt>
      <trkpt lat="44.573699338361621" lon="5.401516165584326">
        <ele>892.5999755859375</ele>
        <time>2014-05-20T09:18:41Z</time>
      </trkpt>
      <trkpt lat="44.573632534593344" lon="5.401573497802019">
        <ele>892.5999755859375</ele>
        <time>2014-05-20T09:18:43Z</time>
      </trkpt>
      <trkpt lat="44.573368337005377" lon="5.401843814179301">
        <ele>893.20001220703125</ele>
        <time>2014-05-20T09:18:51Z</time>
      </trkpt>
      <trkpt lat="44.573336988687515" lon="5.401888824999332">
        <ele>893.20001220703125</ele>
        <time>2014-05-20T09:18:52Z</time>
      </trkpt>
      <trkpt lat="44.573218217119575" lon="5.402054870501161">
        <ele>892.5999755859375</ele>
        <time>2014-05-20T09:18:56Z</time>
      </trkpt>
      <trkpt lat="44.573128279298544" lon="5.402183532714844">
        <ele>892.4000244140625</ele>
        <time>2014-05-20T09:18:59Z</time>
      </trkpt>
      <trkpt lat="44.572978746145964" lon="5.402409005910158">
        <ele>892.5999755859375</ele>
        <time>2014-05-20T09:19:04Z</time>
      </trkpt>
      <trkpt lat="44.572922335937619" lon="5.402501793578267">
        <ele>892.5999755859375</ele>
        <time>2014-05-20T09:19:06Z</time>
      </trkpt>
      <trkpt lat="44.572892496362329" lon="5.402550408616662">
        <ele>892.5999755859375</ele>
        <time>2014-05-20T09:19:07Z</time>
      </trkpt>
      <trkpt lat="44.572755871340632" lon="5.40276532061398">
        <ele>893.5999755859375</ele>
        <time>2014-05-20T09:19:12Z</time>
      </trkpt>
      <trkpt lat="44.572682278230786" lon="5.402889372780919">
        <ele>894.4000244140625</ele>
        <time>2014-05-20T09:19:15Z</time>
      </trkpt>
      <trkpt lat="44.572658892720938" lon="5.402929605916143">
        <ele>894.79998779296875</ele>
        <time>2014-05-20T09:19:16Z</time>
      </trkpt>
      <trkpt lat="44.572441633790731" lon="5.403284579515457">
        <ele>895.79998779296875</ele>
        <time>2014-05-20T09:19:25Z</time>
      </trkpt>
      <trkpt lat="44.572365861386061" lon="5.403406536206603">
        <ele>896.5999755859375</ele>
        <time>2014-05-20T09:19:28Z</time>
      </trkpt>
      <trkpt lat="44.572243737056851" lon="5.403609210625291">
        <ele>896.79998779296875</ele>
        <time>2014-05-20T09:19:33Z</time>
      </trkpt>
      <trkpt lat="44.572110967710614" lon="5.403834851458669">
        <ele>897.79998779296875</ele>
        <time>2014-05-20T09:19:40Z</time>
      </trkpt>
      <trkpt lat="44.57209805957973" lon="5.403858991339803">
        <ele>898</ele>
        <time>2014-05-20T09:19:41Z</time>
      </trkpt>
      <trkpt lat="44.572008457034826" lon="5.403993520885706">
        <ele>898.79998779296875</ele>
        <time>2014-05-20T09:19:47Z</time>
      </trkpt>
      <trkpt lat="44.571923380717635" lon="5.404073148965836">
        <ele>898.5999755859375</ele>
        <time>2014-05-20T09:19:51Z</time>
      </trkpt>
      <trkpt lat="44.571891445666552" lon="5.404084213078022">
        <ele>898.4000244140625</ele>
        <time>2014-05-20T09:19:52Z</time>
      </trkpt>
      <trkpt lat="44.571737218648195" lon="5.404167026281357">
        <ele>896.79998779296875</ele>
        <time>2014-05-20T09:19:56Z</time>
      </trkpt>
      <trkpt lat="44.571694890037179" lon="5.404192674905062">
        <ele>896.20001220703125</ele>
        <time>2014-05-20T09:19:57Z</time>
      </trkpt>
      <trkpt lat="44.571647113189101" lon="5.404215892776847">
        <ele>895.79998779296875</ele>
        <time>2014-05-20T09:19:58Z</time>
      </trkpt>
      <trkpt lat="44.571486096829176" lon="5.404284121468663">
        <ele>894.4000244140625</ele>
        <time>2014-05-20T09:20:01Z</time>
      </trkpt>
      <trkpt lat="44.571428513154387" lon="5.404301220551133">
        <ele>893.79998779296875</ele>
        <time>2014-05-20T09:20:02Z</time>
      </trkpt>
      <trkpt lat="44.571311082690954" lon="5.404346063733101">
        <ele>893.20001220703125</ele>
        <time>2014-05-20T09:20:04Z</time>
      </trkpt>
      <trkpt lat="44.571129949763417" lon="5.404404066503048">
        <ele>892.20001220703125</ele>
        <time>2014-05-20T09:20:07Z</time>
      </trkpt>
      <trkpt lat="44.571006400510669" lon="5.404419992119074">
        <ele>891.4000244140625</ele>
        <time>2014-05-20T09:20:09Z</time>
      </trkpt>
      <trkpt lat="44.570938590914011" lon="5.404415801167488">
        <ele>891</ele>
        <time>2014-05-20T09:20:10Z</time>
      </trkpt>
      <trkpt lat="44.570803139358759" lon="5.404359055683017">
        <ele>890</ele>
        <time>2014-05-20T09:20:12Z</time>
      </trkpt>
      <trkpt lat="44.570736167952418" lon="5.404309183359146">
        <ele>889.4000244140625</ele>
        <time>2014-05-20T09:20:13Z</time>
      </trkpt>
      <trkpt lat="44.570670453831553" lon="5.404247995465994">
        <ele>888.20001220703125</ele>
        <time>2014-05-20T09:20:14Z</time>
      </trkpt>
      <trkpt lat="44.570539779961109" lon="5.404114136472344">
        <ele>887</ele>
        <time>2014-05-20T09:20:16Z</time>
      </trkpt>
      <trkpt lat="44.570473227649927" lon="5.404039872810245">
        <ele>886.4000244140625</ele>
        <time>2014-05-20T09:20:17Z</time>
      </trkpt>
      <trkpt lat="44.570406088605523" lon="5.403968961909413">
        <ele>885.79998779296875</ele>
        <time>2014-05-20T09:20:18Z</time>
      </trkpt>
      <trkpt lat="44.570262003690004" lon="5.403839042410255">
        <ele>884.79998779296875</ele>
        <time>2014-05-20T09:20:20Z</time>
      </trkpt>
      <trkpt lat="44.570101574063301" lon="5.403761258348823">
        <ele>883.20001220703125</ele>
        <time>2014-05-20T09:20:22Z</time>
      </trkpt>
      <trkpt lat="44.569835616275668" lon="5.403781374916434">
        <ele>882.20001220703125</ele>
        <time>2014-05-20T09:20:25Z</time>
      </trkpt>
      <trkpt lat="44.569649705663323" lon="5.403840802609921">
        <ele>880.79998779296875</ele>
        <time>2014-05-20T09:20:27Z</time>
      </trkpt>
      <trkpt lat="44.569564964622259" lon="5.403868881985545">
        <ele>880</ele>
        <time>2014-05-20T09:20:28Z</time>
      </trkpt>
      <trkpt lat="44.569480726495385" lon="5.403886064887047">
        <ele>879.5999755859375</ele>
        <time>2014-05-20T09:20:29Z</time>
      </trkpt>
      <trkpt lat="44.569236896932125" lon="5.403961753472686">
        <ele>878</ele>
        <time>2014-05-20T09:20:32Z</time>
      </trkpt>
      <trkpt lat="44.569096751511097" lon="5.404096283018589">
        <ele>876.5999755859375</ele>
        <time>2014-05-20T09:20:34Z</time>
      </trkpt>
      <trkpt lat="44.568978566676378" lon="5.404409766197205">
        <ele>875.79998779296875</ele>
        <time>2014-05-20T09:20:37Z</time>
      </trkpt>
      <trkpt lat="44.569010585546494" lon="5.404596012085676">
        <ele>876.4000244140625</ele>
        <time>2014-05-20T09:20:39Z</time>
      </trkpt>
      <trkpt lat="44.569113934412599" lon="5.404665665701032">
        <ele>877</ele>
        <time>2014-05-20T09:20:41Z</time>
      </trkpt>
      <trkpt lat="44.56932264380157" lon="5.404681675136089">
        <ele>877.20001220703125</ele>
        <time>2014-05-20T09:20:45Z</time>
      </trkpt>
      <trkpt lat="44.569416185840964" lon="5.404706317931414">
        <ele>877.20001220703125</ele>
        <time>2014-05-20T09:20:47Z</time>
      </trkpt>
      <trkpt lat="44.569527497515082" lon="5.404746802523732">
        <ele>877</ele>
        <time>2014-05-20T09:20:49Z</time>
      </trkpt>
      <trkpt lat="44.569719610735774" lon="5.404958445578814">
        <ele>876.4000244140625</ele>
        <time>2014-05-20T09:20:53Z</time>
      </trkpt>
      <trkpt lat="44.570032674819231" lon="5.405425820499659">
        <ele>876.4000244140625</ele>
        <time>2014-05-20T09:21:01Z</time>
      </trkpt>
      <trkpt lat="44.570140466094017" lon="5.405670236796141">
        <ele>876.79998779296875</ele>
        <time>2014-05-20T09:21:05Z</time>
      </trkpt>
      <trkpt lat="44.570185476914048" lon="5.405802335590124">
        <ele>877</ele>
        <time>2014-05-20T09:21:07Z</time>
      </trkpt>
      <trkpt lat="44.57041472196579" lon="5.406411364674568">
        <ele>877</ele>
        <time>2014-05-20T09:21:16Z</time>
      </trkpt>
      <trkpt lat="44.570449171587825" lon="5.406474648043513">
        <ele>877</ele>
        <time>2014-05-20T09:21:17Z</time>
      </trkpt>
      <trkpt lat="44.57060432061553" lon="5.406713029369712">
        <ele>876.5999755859375</ele>
        <time>2014-05-20T09:21:21Z</time>
      </trkpt>
      <trkpt lat="44.570639859884977" lon="5.40677497163415">
        <ele>876.5999755859375</ele>
        <time>2014-05-20T09:21:22Z</time>
      </trkpt>
      <trkpt lat="44.570840103551745" lon="5.407224828377366">
        <ele>877</ele>
        <time>2014-05-20T09:21:29Z</time>
      </trkpt>
      <trkpt lat="44.570881761610508" lon="5.407453486695886">
        <ele>876</ele>
        <time>2014-05-20T09:21:32Z</time>
      </trkpt>
      <trkpt lat="44.570855861529708" lon="5.407526660710573">
        <ele>875.5999755859375</ele>
        <time>2014-05-20T09:21:33Z</time>
      </trkpt>
      <trkpt lat="44.570809006690979" lon="5.407574437558651">
        <ele>875.20001220703125</ele>
        <time>2014-05-20T09:21:34Z</time>
      </trkpt>
      <trkpt lat="44.570755111053586" lon="5.407590949907899">
        <ele>875.20001220703125</ele>
        <time>2014-05-20T09:21:35Z</time>
      </trkpt>
      <trkpt lat="44.57058378495276" lon="5.407532108947635">
        <ele>876</ele>
        <time>2014-05-20T09:21:38Z</time>
      </trkpt>
      <trkpt lat="44.570473143830895" lon="5.407495647668839">
        <ele>876.4000244140625</ele>
        <time>2014-05-20T09:21:40Z</time>
      </trkpt>
      <trkpt lat="44.570255549624562" lon="5.407424066215754">
        <ele>875</ele>
        <time>2014-05-20T09:21:44Z</time>
      </trkpt>
      <trkpt lat="44.57020559348166" lon="5.40739263407886">
        <ele>874.79998779296875</ele>
        <time>2014-05-20T09:21:45Z</time>
      </trkpt>
      <trkpt lat="44.570032255724072" lon="5.407244944944978">
        <ele>875.4000244140625</ele>
        <time>2014-05-20T09:21:49Z</time>
      </trkpt>
      <trkpt lat="44.569996884092689" lon="5.40720010176301">
        <ele>875.5999755859375</ele>
        <time>2014-05-20T09:21:50Z</time>
      </trkpt>
      <trkpt lat="44.569957153871655" lon="5.407163724303246">
        <ele>876</ele>
        <time>2014-05-20T09:21:51Z</time>
      </trkpt>
      <trkpt lat="44.569819355383515" lon="5.407104631885886">
        <ele>877</ele>
        <time>2014-05-20T09:21:54Z</time>
      </trkpt>
      <trkpt lat="44.569681053981185" lon="5.407093819230795">
        <ele>876.79998779296875</ele>
        <time>2014-05-20T09:21:57Z</time>
      </trkpt>
      <trkpt lat="44.569636210799217" lon="5.407094405964017">
        <ele>877</ele>
        <time>2014-05-20T09:21:58Z</time>
      </trkpt>
      <trkpt lat="44.569547362625599" lon="5.407100105658174">
        <ele>877.20001220703125</ele>
        <time>2014-05-20T09:22:00Z</time>
      </trkpt>
      <trkpt lat="44.569373270496726" lon="5.407136650756002">
        <ele>877.20001220703125</ele>
        <time>2014-05-20T09:22:04Z</time>
      </trkpt>
      <trkpt lat="44.569288277998567" lon="5.407172692939639">
        <ele>876.5999755859375</ele>
        <time>2014-05-20T09:22:06Z</time>
      </trkpt>
      <trkpt lat="44.569250140339136" lon="5.407205717638135">
        <ele>876.4000244140625</ele>
        <time>2014-05-20T09:22:07Z</time>
      </trkpt>
      <trkpt lat="44.569152910262346" lon="5.407411325722933">
        <ele>876</ele>
        <time>2014-05-20T09:22:11Z</time>
      </trkpt>
      <trkpt lat="44.569133883342147" lon="5.407471675425768">
        <ele>876</ele>
        <time>2014-05-20T09:22:12Z</time>
      </trkpt>
      <trkpt lat="44.56909691914916" lon="5.407582484185696">
        <ele>875.4000244140625</ele>
        <time>2014-05-20T09:22:14Z</time>
      </trkpt>
      <trkpt lat="44.569017877802253" lon="5.407743081450462">
        <ele>875</ele>
        <time>2014-05-20T09:22:17Z</time>
      </trkpt>
      <trkpt lat="44.568983595818281" lon="5.407791528850794">
        <ele>875</ele>
        <time>2014-05-20T09:22:18Z</time>
      </trkpt>
      <trkpt lat="44.568913104012609" lon="5.407884567975998">
        <ele>874.79998779296875</ele>
        <time>2014-05-20T09:22:20Z</time>
      </trkpt>
      <trkpt lat="44.568832889199257" lon="5.407971991226077">
        <ele>874.5999755859375</ele>
        <time>2014-05-20T09:22:22Z</time>
      </trkpt>
      <trkpt lat="44.568788800388575" lon="5.408013984560967">
        <ele>874.20001220703125</ele>
        <time>2014-05-20T09:22:23Z</time>
      </trkpt>
      <trkpt lat="44.568739011883736" lon="5.40804298594594">
        <ele>873.79998779296875</ele>
        <time>2014-05-20T09:22:24Z</time>
      </trkpt>
      <trkpt lat="44.568585455417633" lon="5.408054050058126">
        <ele>873</ele>
        <time>2014-05-20T09:22:27Z</time>
      </trkpt>
      <trkpt lat="44.568535415455699" lon="5.408054972067475">
        <ele>873</ele>
        <time>2014-05-20T09:22:28Z</time>
      </trkpt>
      <trkpt lat="44.568486213684082" lon="5.408033430576325">
        <ele>873.20001220703125</ele>
        <time>2014-05-20T09:22:29Z</time>
      </trkpt>
      <trkpt lat="44.56834833137691" lon="5.407968387007713">
        <ele>872.79998779296875</ele>
        <time>2014-05-20T09:22:32Z</time>
      </trkpt>
      <trkpt lat="44.568303069099784" lon="5.407942989841104">
        <ele>872.79998779296875</ele>
        <time>2014-05-20T09:22:33Z</time>
      </trkpt>
      <trkpt lat="44.568165773525834" lon="5.407876186072826">
        <ele>873</ele>
        <time>2014-05-20T09:22:36Z</time>
      </trkpt>
      <trkpt lat="44.568120511248708" lon="5.407854476943612">
        <ele>872.5999755859375</ele>
        <time>2014-05-20T09:22:37Z</time>
      </trkpt>
      <trkpt lat="44.567976761609316" lon="5.407797144725919">
        <ele>872.4000244140625</ele>
        <time>2014-05-20T09:22:40Z</time>
      </trkpt>
      <trkpt lat="44.567711390554905" lon="5.407749786973">
        <ele>871.5999755859375</ele>
        <time>2014-05-20T09:22:45Z</time>
      </trkpt>
      <trkpt lat="44.567555151879787" lon="5.40774542838335">
        <ele>871</ele>
        <time>2014-05-20T09:22:48Z</time>
      </trkpt>
      <trkpt lat="44.567289277911186" lon="5.407761437818408">
        <ele>870.5999755859375</ele>
        <time>2014-05-20T09:22:53Z</time>
      </trkpt>
      <trkpt lat="44.567125746980309" lon="5.40778205730021">
        <ele>870.4000244140625</ele>
        <time>2014-05-20T09:22:56Z</time>
      </trkpt>
      <trkpt lat="44.566806312650442" lon="5.407846681773663">
        <ele>869.4000244140625</ele>
        <time>2014-05-20T09:23:02Z</time>
      </trkpt>
      <trkpt lat="44.566703885793686" lon="5.40786269120872">
        <ele>869.4000244140625</ele>
        <time>2014-05-20T09:23:04Z</time>
      </trkpt>
      <trkpt lat="44.56626383587718" lon="5.407927818596363">
        <ele>869</ele>
        <time>2014-05-20T09:23:13Z</time>
      </trkpt>
      <trkpt lat="44.566051438450813" lon="5.407976768910885">
        <ele>868.20001220703125</ele>
        <time>2014-05-20T09:23:17Z</time>
      </trkpt>
      <trkpt lat="44.565942976623774" lon="5.408010883256793">
        <ele>868</ele>
        <time>2014-05-20T09:23:19Z</time>
      </trkpt>
      <trkpt lat="44.56577374599874" lon="5.408039381727576">
        <ele>868</ele>
        <time>2014-05-20T09:23:22Z</time>
      </trkpt>
      <trkpt lat="44.565601162612438" lon="5.408016080036759">
        <ele>867.5999755859375</ele>
        <time>2014-05-20T09:23:25Z</time>
      </trkpt>
      <trkpt lat="44.565442325547338" lon="5.407961262390018">
        <ele>867.4000244140625</ele>
        <time>2014-05-20T09:23:28Z</time>
      </trkpt>
      <trkpt lat="44.565292792394757" lon="5.407899906858802">
        <ele>867.79998779296875</ele>
        <time>2014-05-20T09:23:31Z</time>
      </trkpt>
      <trkpt lat="44.564904039725661" lon="5.407815417274833">
        <ele>868.4000244140625</ele>
        <time>2014-05-20T09:23:39Z</time>
      </trkpt>
      <trkpt lat="44.564559627324343" lon="5.407916503027082">
        <ele>868.4000244140625</ele>
        <time>2014-05-20T09:23:46Z</time>
      </trkpt>
      <trkpt lat="44.564232397824526" lon="5.40810844860971">
        <ele>868</ele>
        <time>2014-05-20T09:23:53Z</time>
      </trkpt>
      <trkpt lat="44.564151931554079" lon="5.408176509663463">
        <ele>868</ele>
        <time>2014-05-20T09:23:55Z</time>
      </trkpt>
      <trkpt lat="44.564087642356753" lon="5.408270889893174">
        <ele>867.79998779296875</ele>
        <time>2014-05-20T09:23:57Z</time>
      </trkpt>
      <trkpt lat="44.564013965427876" lon="5.40834934450686">
        <ele>867.5999755859375</ele>
        <time>2014-05-20T09:23:59Z</time>
      </trkpt>
      <trkpt lat="44.5639159809798" lon="5.408387230709195">
        <ele>867.4000244140625</ele>
        <time>2014-05-20T09:24:01Z</time>
      </trkpt>
      <trkpt lat="44.56372587941587" lon="5.408331826329231">
        <ele>868.20001220703125</ele>
        <time>2014-05-20T09:24:05Z</time>
      </trkpt>
      <trkpt lat="44.563572909682989" lon="5.408268040046096">
        <ele>869.20001220703125</ele>
        <time>2014-05-20T09:24:09Z</time>
      </trkpt>
      <trkpt lat="44.5635050162673" lon="5.408242559060454">
        <ele>869.5999755859375</ele>
        <time>2014-05-20T09:24:11Z</time>
      </trkpt>
      <trkpt lat="44.563353890553117" lon="5.408183885738254">
        <ele>870.4000244140625</ele>
        <time>2014-05-20T09:24:16Z</time>
      </trkpt>
      <trkpt lat="44.563297899439931" lon="5.408173743635416">
        <ele>871</ele>
        <time>2014-05-20T09:24:18Z</time>
      </trkpt>
      <trkpt lat="44.563274346292019" lon="5.408160919323564">
        <ele>871.5999755859375</ele>
        <time>2014-05-20T09:24:19Z</time>
      </trkpt>
      <trkpt lat="44.563165465369821" lon="5.408123284578323">
        <ele>872.20001220703125</ele>
        <time>2014-05-20T09:24:23Z</time>
      </trkpt>
      <trkpt lat="44.563093548640609" lon="5.408102916553617">
        <ele>872.5999755859375</ele>
        <time>2014-05-20T09:24:26Z</time>
      </trkpt>
      <trkpt lat="44.563022721558809" lon="5.408056732267141">
        <ele>873.20001220703125</ele>
        <time>2014-05-20T09:24:29Z</time>
      </trkpt>
      <trkpt lat="44.562943177297711" lon="5.408042399212718">
        <ele>873.79998779296875</ele>
        <time>2014-05-20T09:24:32Z</time>
      </trkpt>
      <trkpt lat="44.56289129331708" lon="5.408013146370649">
        <ele>874.5999755859375</ele>
        <time>2014-05-20T09:24:34Z</time>
      </trkpt>
      <trkpt lat="44.562788866460323" lon="5.407979870215058">
        <ele>875</ele>
        <time>2014-05-20T09:24:38Z</time>
      </trkpt>
      <trkpt lat="44.562704628333449" lon="5.407933434471488">
        <ele>875.5999755859375</ele>
        <time>2014-05-20T09:24:41Z</time>
      </trkpt>
      <trkpt lat="44.562621898949146" lon="5.407893201336265">
        <ele>876</ele>
        <time>2014-05-20T09:24:44Z</time>
      </trkpt>
      <trkpt lat="44.562485441565514" lon="5.407872330397368">
        <ele>877</ele>
        <time>2014-05-20T09:24:49Z</time>
      </trkpt>
      <trkpt lat="44.562322329729795" lon="5.407863529399037">
        <ele>877.5999755859375</ele>
        <time>2014-05-20T09:24:55Z</time>
      </trkpt>
      <trkpt lat="44.562235325574875" lon="5.407847100868821">
        <ele>878.20001220703125</ele>
        <time>2014-05-20T09:24:58Z</time>
      </trkpt>
      <trkpt lat="44.562102388590574" lon="5.407815668731928">
        <ele>879.20001220703125</ele>
        <time>2014-05-20T09:25:03Z</time>
      </trkpt>
      <trkpt lat="44.562077829614282" lon="5.40780745446682">
        <ele>879.20001220703125</ele>
        <time>2014-05-20T09:25:04Z</time>
      </trkpt>
      <trkpt lat="44.561943467706442" lon="5.407784739509225">
        <ele>880.20001220703125</ele>
        <time>2014-05-20T09:25:09Z</time>
      </trkpt>
      <trkpt lat="44.56189502030611" lon="5.407777866348624">
        <ele>880.79998779296875</ele>
        <time>2014-05-20T09:25:11Z</time>
      </trkpt>
      <trkpt lat="44.561807177960873" lon="5.407741237431765">
        <ele>881.4000244140625</ele>
        <time>2014-05-20T09:25:15Z</time>
      </trkpt>
      <trkpt lat="44.561727298423648" lon="5.407738303765655">
        <ele>881.5999755859375</ele>
        <time>2014-05-20T09:25:18Z</time>
      </trkpt>
      <trkpt lat="44.561678767204285" lon="5.407723048701882">
        <ele>882.4000244140625</ele>
        <time>2014-05-20T09:25:20Z</time>
      </trkpt>
      <trkpt lat="44.561566784977913" lon="5.40769262239337">
        <ele>883</ele>
        <time>2014-05-20T09:25:25Z</time>
      </trkpt>
      <trkpt lat="44.561522109434009" lon="5.407678037881851">
        <ele>883.4000244140625</ele>
        <time>2014-05-20T09:25:27Z</time>
      </trkpt>
      <trkpt lat="44.561415491625667" lon="5.407652137801051">
        <ele>884.20001220703125</ele>
        <time>2014-05-20T09:25:31Z</time>
      </trkpt>
      <trkpt lat="44.561343491077423" lon="5.407630931586027">
        <ele>884.5999755859375</ele>
        <time>2014-05-20T09:25:34Z</time>
      </trkpt>
      <trkpt lat="44.56127543002367" lon="5.407605869695544">
        <ele>885</ele>
        <time>2014-05-20T09:25:37Z</time>
      </trkpt>
      <trkpt lat="44.56118306145072" lon="5.407584328204393">
        <ele>885.5999755859375</ele>
        <time>2014-05-20T09:25:41Z</time>
      </trkpt>
      <trkpt lat="44.561070324853063" lon="5.40756999514997">
        <ele>886.79998779296875</ele>
        <time>2014-05-20T09:25:46Z</time>
      </trkpt>
      <trkpt lat="44.560916600748897" lon="5.407529678195715">
        <ele>888</ele>
        <time>2014-05-20T09:25:53Z</time>
      </trkpt>
      <trkpt lat="44.560896484181285" lon="5.407538563013077">
        <ele>888.20001220703125</ele>
        <time>2014-05-20T09:25:54Z</time>
      </trkpt>
      <trkpt lat="44.560747286304832" lon="5.407524649053812">
        <ele>889</ele>
        <time>2014-05-20T09:26:01Z</time>
      </trkpt>
      <trkpt lat="44.560723230242729" lon="5.407518781721592">
        <ele>888.79998779296875</ele>
        <time>2014-05-20T09:26:02Z</time>
      </trkpt>
      <trkpt lat="44.560608984902501" lon="5.407519200816751">
        <ele>890</ele>
        <time>2014-05-20T09:26:07Z</time>
      </trkpt>
      <trkpt lat="44.560532961040735" lon="5.407510232180357">
        <ele>890.4000244140625</ele>
        <time>2014-05-20T09:26:10Z</time>
      </trkpt>
      <trkpt lat="44.560408154502511" lon="5.407514171674848">
        <ele>891.4000244140625</ele>
        <time>2014-05-20T09:26:15Z</time>
      </trkpt>
      <trkpt lat="44.560315115377307" lon="5.407517189159989">
        <ele>892.4000244140625</ele>
        <time>2014-05-20T09:26:19Z</time>
      </trkpt>
      <trkpt lat="44.560176227241755" lon="5.407509561628103">
        <ele>893</ele>
        <time>2014-05-20T09:26:25Z</time>
      </trkpt>
      <trkpt lat="44.560095174238086" lon="5.407514087855816">
        <ele>893.5999755859375</ele>
        <time>2014-05-20T09:26:29Z</time>
      </trkpt>
      <trkpt lat="44.560029208660126" lon="5.407502017915249">
        <ele>894</ele>
        <time>2014-05-20T09:26:32Z</time>
      </trkpt>
      <trkpt lat="44.559907419607043" lon="5.407533450052142">
        <ele>894.79998779296875</ele>
        <time>2014-05-20T09:26:38Z</time>
      </trkpt>
      <trkpt lat="44.559882776811719" lon="5.407532947137952">
        <ele>895.20001220703125</ele>
        <time>2014-05-20T09:26:39Z</time>
      </trkpt>
      <trkpt lat="44.55980658531189" lon="5.407507214695215">
        <ele>895.4000244140625</ele>
        <time>2014-05-20T09:26:42Z</time>
      </trkpt>
      <trkpt lat="44.559753695502877" lon="5.407503359019756">
        <ele>896.20001220703125</ele>
        <time>2014-05-20T09:26:44Z</time>
      </trkpt>
      <trkpt lat="44.559647412970662" lon="5.407491205260158">
        <ele>896.79998779296875</ele>
        <time>2014-05-20T09:26:49Z</time>
      </trkpt>
      <trkpt lat="44.559557642787695" lon="5.407477542757988">
        <ele>897.20001220703125</ele>
        <time>2014-05-20T09:26:53Z</time>
      </trkpt>
      <trkpt lat="44.559491761028767" lon="5.407479889690876">
        <ele>897.5999755859375</ele>
        <time>2014-05-20T09:26:56Z</time>
      </trkpt>
      <trkpt lat="44.559385562315583" lon="5.407486092299223">
        <ele>898.4000244140625</ele>
        <time>2014-05-20T09:27:01Z</time>
      </trkpt>
      <trkpt lat="44.55929939635098" lon="5.407493300735951">
        <ele>899.20001220703125</ele>
        <time>2014-05-20T09:27:05Z</time>
      </trkpt>
      <trkpt lat="44.559252373874187" lon="5.407505203038454">
        <ele>899.4000244140625</ele>
        <time>2014-05-20T09:27:07Z</time>
      </trkpt>
      <trkpt lat="44.559109294787049" lon="5.407578628510237">
        <ele>900.4000244140625</ele>
        <time>2014-05-20T09:27:13Z</time>
      </trkpt>
      <trkpt lat="44.559085741639137" lon="5.407593548297882">
        <ele>900.4000244140625</ele>
        <time>2014-05-20T09:27:14Z</time>
      </trkpt>
      <trkpt lat="44.558926234021783" lon="5.407721288502216">
        <ele>901.4000244140625</ele>
        <time>2014-05-20T09:27:21Z</time>
      </trkpt>
      <trkpt lat="44.558859933167696" lon="5.407790439203382">
        <ele>901.5999755859375</ele>
        <time>2014-05-20T09:27:24Z</time>
      </trkpt>
      <trkpt lat="44.558780053630471" lon="5.40788758546114">
        <ele>902.4000244140625</ele>
        <time>2014-05-20T09:27:28Z</time>
      </trkpt>
      <trkpt lat="44.558737305924296" lon="5.407936619594693">
        <ele>902.5999755859375</ele>
        <time>2014-05-20T09:27:30Z</time>
      </trkpt>
      <trkpt lat="44.558626748621464" lon="5.408057486638427">
        <ele>903.5999755859375</ele>
        <time>2014-05-20T09:27:35Z</time>
      </trkpt>
      <trkpt lat="44.558605458587408" lon="5.408074669539928">
        <ele>903.79998779296875</ele>
        <time>2014-05-20T09:27:36Z</time>
      </trkpt>
      <trkpt lat="44.55846187658608" lon="5.408230237662792">
        <ele>904.79998779296875</ele>
        <time>2014-05-20T09:27:43Z</time>
      </trkpt>
      <trkpt lat="44.558440335094929" lon="5.408251443877816">
        <ele>904.79998779296875</ele>
        <time>2014-05-20T09:27:44Z</time>
      </trkpt>
      <trkpt lat="44.558360874652863" lon="5.408331323415041">
        <ele>905.79998779296875</ele>
        <time>2014-05-20T09:27:48Z</time>
      </trkpt>
      <trkpt lat="44.558301446959376" lon="5.408426374197006">
        <ele>906.5999755859375</ele>
        <time>2014-05-20T09:27:52Z</time>
      </trkpt>
      <trkpt lat="44.558289041742682" lon="5.408446909859777">
        <ele>907</ele>
        <time>2014-05-20T09:27:53Z</time>
      </trkpt>
      <trkpt lat="44.558231122791767" lon="5.408623348921537">
        <ele>907.5999755859375</ele>
        <time>2014-05-20T09:27:59Z</time>
      </trkpt>
      <trkpt lat="44.558219220489264" lon="5.408684788271785">
        <ele>908</ele>
        <time>2014-05-20T09:28:01Z</time>
      </trkpt>
      <trkpt lat="44.558217208832502" lon="5.408892491832376">
        <ele>908.4000244140625</ele>
        <time>2014-05-20T09:28:07Z</time>
      </trkpt>
      <trkpt lat="44.558245288208127" lon="5.409066583961248">
        <ele>909.20001220703125</ele>
        <time>2014-05-20T09:28:12Z</time>
      </trkpt>
      <trkpt lat="44.558251490816474" lon="5.409223409369588">
        <ele>910</ele>
        <time>2014-05-20T09:28:16Z</time>
      </trkpt>
      <trkpt lat="44.558254508301616" lon="5.409264732152224">
        <ele>910.20001220703125</ele>
        <time>2014-05-20T09:28:17Z</time>
      </trkpt>
      <trkpt lat="44.558275965973735" lon="5.409491630271077">
        <ele>911.20001220703125</ele>
        <time>2014-05-20T09:28:23Z</time>
      </trkpt>
      <trkpt lat="44.558277977630496" lon="5.409531192854047">
        <ele>911.4000244140625</ele>
        <time>2014-05-20T09:28:24Z</time>
      </trkpt>
      <trkpt lat="44.558259956538677" lon="5.409752558916807">
        <ele>912.4000244140625</ele>
        <time>2014-05-20T09:28:30Z</time>
      </trkpt>
      <trkpt lat="44.558248892426491" lon="5.409815926104784">
        <ele>912.4000244140625</ele>
        <time>2014-05-20T09:28:32Z</time>
      </trkpt>
      <trkpt lat="44.558213772252202" lon="5.409987922757864">
        <ele>913.5999755859375</ele>
        <time>2014-05-20T09:28:37Z</time>
      </trkpt>
      <trkpt lat="44.55819365568459" lon="5.410091523081064">
        <ele>914.4000244140625</ele>
        <time>2014-05-20T09:28:40Z</time>
      </trkpt>
      <trkpt lat="44.558179825544357" lon="5.410151034593582">
        <ele>914.5999755859375</ele>
        <time>2014-05-20T09:28:42Z</time>
      </trkpt>
      <trkpt lat="44.558142190799117" lon="5.410335352644324">
        <ele>915.5999755859375</ele>
        <time>2014-05-20T09:28:48Z</time>
      </trkpt>
      <trkpt lat="44.558127103373408" lon="5.410404084250331">
        <ele>915.79998779296875</ele>
        <time>2014-05-20T09:28:50Z</time>
      </trkpt>
      <trkpt lat="44.558095000684261" lon="5.410570297390223">
        <ele>916.5999755859375</ele>
        <time>2014-05-20T09:28:55Z</time>
      </trkpt>
      <trkpt lat="44.558092737570405" lon="5.410600723698735">
        <ele>916.79998779296875</ele>
        <time>2014-05-20T09:28:56Z</time>
      </trkpt>
      <trkpt lat="44.558040183037519" lon="5.410785712301731">
        <ele>917.5999755859375</ele>
        <time>2014-05-20T09:29:02Z</time>
      </trkpt>
      <trkpt lat="44.55800305120647" lon="5.410875147208571">
        <ele>917.79998779296875</ele>
        <time>2014-05-20T09:29:05Z</time>
      </trkpt>
      <trkpt lat="44.557951418682933" lon="5.410934491083026">
        <ele>918.20001220703125</ele>
        <time>2014-05-20T09:29:08Z</time>
      </trkpt>
      <trkpt lat="44.557799957692623" lon="5.410988386720419">
        <ele>919</ele>
        <time>2014-05-20T09:29:14Z</time>
      </trkpt>
      <trkpt lat="44.557669283822179" lon="5.410997103899717">
        <ele>920</ele>
        <time>2014-05-20T09:29:20Z</time>
      </trkpt>
      <trkpt lat="44.557521007955074" lon="5.410978244617581">
        <ele>920.79998779296875</ele>
        <time>2014-05-20T09:29:26Z</time>
      </trkpt>
      <trkpt lat="44.557498460635543" lon="5.410970617085695">
        <ele>921.20001220703125</ele>
        <time>2014-05-20T09:29:27Z</time>
      </trkpt>
      <trkpt lat="44.557306263595819" lon="5.410960223525763">
        <ele>922</ele>
        <time>2014-05-20T09:29:34Z</time>
      </trkpt>
      <trkpt lat="44.557255050167441" lon="5.410963492468">
        <ele>922.4000244140625</ele>
        <time>2014-05-20T09:29:36Z</time>
      </trkpt>
      <trkpt lat="44.557135608047247" lon="5.41096449829638">
        <ele>923.4000244140625</ele>
        <time>2014-05-20T09:29:41Z</time>
      </trkpt>
      <trkpt lat="44.557109959423542" lon="5.410963827744126">
        <ele>923.5999755859375</ele>
        <time>2014-05-20T09:29:42Z</time>
      </trkpt>
      <trkpt lat="44.556931257247925" lon="5.411022501066327">
        <ele>924.5999755859375</ele>
        <time>2014-05-20T09:29:49Z</time>
      </trkpt>
      <trkpt lat="44.556906865909696" lon="5.411039516329765">
        <ele>924.5999755859375</ele>
        <time>2014-05-20T09:29:50Z</time>
      </trkpt>
      <trkpt lat="44.556784154847264" lon="5.411121910437942">
        <ele>925.5999755859375</ele>
        <time>2014-05-20T09:29:55Z</time>
      </trkpt>
      <trkpt lat="44.556720536202192" lon="5.411176644265652">
        <ele>926.20001220703125</ele>
        <time>2014-05-20T09:29:58Z</time>
      </trkpt>
      <trkpt lat="44.556637974455953" lon="5.411239927634597">
        <ele>926.79998779296875</ele>
        <time>2014-05-20T09:30:02Z</time>
      </trkpt>
      <trkpt lat="44.556537978351116" lon="5.411311341449618">
        <ele>927.4000244140625</ele>
        <time>2014-05-20T09:30:07Z</time>
      </trkpt>
      <trkpt lat="44.556520795449615" lon="5.411328272894025">
        <ele>927.79998779296875</ele>
        <time>2014-05-20T09:30:08Z</time>
      </trkpt>
      <trkpt lat="44.556405963376164" lon="5.411396082490683">
        <ele>928.79998779296875</ele>
        <time>2014-05-20T09:30:14Z</time>
      </trkpt>
      <trkpt lat="44.55638769082725" lon="5.411409493535757">
        <ele>929</ele>
        <time>2014-05-20T09:30:15Z</time>
      </trkpt>
      <trkpt lat="44.556248467415571" lon="5.411531366407871">
        <ele>929.79998779296875</ele>
        <time>2014-05-20T09:30:22Z</time>
      </trkpt>
      <trkpt lat="44.556210329756141" lon="5.411572773009539">
        <ele>930.20001220703125</ele>
        <time>2014-05-20T09:30:24Z</time>
      </trkpt>
      <trkpt lat="44.556114776059985" lon="5.411671595647931">
        <ele>930.79998779296875</ele>
        <time>2014-05-20T09:30:29Z</time>
      </trkpt>
      <trkpt lat="44.556046463549137" lon="5.411787265911698">
        <ele>931.20001220703125</ele>
        <time>2014-05-20T09:30:33Z</time>
      </trkpt>
      <trkpt lat="44.556015115231276" lon="5.411840407177806">
        <ele>931.4000244140625</ele>
        <time>2014-05-20T09:30:35Z</time>
      </trkpt>
      <trkpt lat="44.555965326726437" lon="5.41194467805326">
        <ele>932.4000244140625</ele>
        <time>2014-05-20T09:30:39Z</time>
      </trkpt>
      <trkpt lat="44.555936325341463" lon="5.412004943937063">
        <ele>932.5999755859375</ele>
        <time>2014-05-20T09:30:41Z</time>
      </trkpt>
      <trkpt lat="44.555855356156826" lon="5.412153722718358">
        <ele>933.5999755859375</ele>
        <time>2014-05-20T09:30:46Z</time>
      </trkpt>
      <trkpt lat="44.555834820494056" lon="5.412179119884968">
        <ele>933.5999755859375</ele>
        <time>2014-05-20T09:30:47Z</time>
      </trkpt>
      <trkpt lat="44.55569526180625" lon="5.412376178428531">
        <ele>934.79998779296875</ele>
        <time>2014-05-20T09:30:55Z</time>
      </trkpt>
      <trkpt lat="44.555677240714431" lon="5.412398055195808">
        <ele>935</ele>
        <time>2014-05-20T09:30:56Z</time>
      </trkpt>
      <trkpt lat="44.55554137006402" lon="5.412488328292966">
        <ele>935.5999755859375</ele>
        <time>2014-05-20T09:31:03Z</time>
      </trkpt>
      <trkpt lat="44.555517314001918" lon="5.412504002451897">
        <ele>935.79998779296875</ele>
        <time>2014-05-20T09:31:04Z</time>
      </trkpt>
      <trkpt lat="44.555370463058352" lon="5.412568375468254">
        <ele>937</ele>
        <time>2014-05-20T09:31:10Z</time>
      </trkpt>
      <trkpt lat="44.555324027314782" lon="5.412584887817502">
        <ele>937.20001220703125</ele>
        <time>2014-05-20T09:31:12Z</time>
      </trkpt>
      <trkpt lat="44.555115317925811" lon="5.41259553283453">
        <ele>938.20001220703125</ele>
        <time>2014-05-20T09:31:20Z</time>
      </trkpt>
      <trkpt lat="44.554942147806287" lon="5.412528142333031">
        <ele>939.5999755859375</ele>
        <time>2014-05-20T09:31:27Z</time>
      </trkpt>
      <trkpt lat="44.554919181391597" lon="5.412505175918341">
        <ele>940</ele>
        <time>2014-05-20T09:31:28Z</time>
      </trkpt>
      <trkpt lat="44.554776940494776" lon="5.412414316087961">
        <ele>940.79998779296875</ele>
        <time>2014-05-20T09:31:34Z</time>
      </trkpt>
      <trkpt lat="44.554733773693442" lon="5.412377854809165">
        <ele>941</ele>
        <time>2014-05-20T09:31:36Z</time>
      </trkpt>
      <trkpt lat="44.554538140073419" lon="5.412209127098322">
        <ele>941.5999755859375</ele>
        <time>2014-05-20T09:31:44Z</time>
      </trkpt>
      <trkpt lat="44.554398832842708" lon="5.41212547570467">
        <ele>941.79998779296875</ele>
        <time>2014-05-20T09:31:49Z</time>
      </trkpt>
      <trkpt lat="44.554331107065082" lon="5.412102676928043">
        <ele>941.5999755859375</ele>
        <time>2014-05-20T09:31:51Z</time>
      </trkpt>
      <trkpt lat="44.554129438474774" lon="5.412107454612851">
        <ele>942.20001220703125</ele>
        <time>2014-05-20T09:31:57Z</time>
      </trkpt>
      <trkpt lat="44.553889213129878" lon="5.412173587828875">
        <ele>942</ele>
        <time>2014-05-20T09:32:04Z</time>
      </trkpt>
      <trkpt lat="44.553806483745575" lon="5.412207534536719">
        <ele>941.79998779296875</ele>
        <time>2014-05-20T09:32:06Z</time>
      </trkpt>
      <trkpt lat="44.553676564246416" lon="5.412281211465597">
        <ele>941.5999755859375</ele>
        <time>2014-05-20T09:32:09Z</time>
      </trkpt>
      <trkpt lat="44.553234167397022" lon="5.412532165646553">
        <ele>941.79998779296875</ele>
        <time>2014-05-20T09:32:19Z</time>
      </trkpt>
      <trkpt lat="44.552874583750963" lon="5.412743138149381">
        <ele>942.79998779296875</ele>
        <time>2014-05-20T09:32:27Z</time>
      </trkpt>
      <trkpt lat="44.55259932205081" lon="5.412886720150709">
        <ele>943</ele>
        <time>2014-05-20T09:32:33Z</time>
      </trkpt>
      <trkpt lat="44.55255389213562" lon="5.412906752899289">
        <ele>943.20001220703125</ele>
        <time>2014-05-20T09:32:34Z</time>
      </trkpt>
      <trkpt lat="44.552298495545983" lon="5.413040528073907">
        <ele>944.20001220703125</ele>
        <time>2014-05-20T09:32:40Z</time>
      </trkpt>
      <trkpt lat="44.552178550511599" lon="5.413108002394438">
        <ele>945.20001220703125</ele>
        <time>2014-05-20T09:32:43Z</time>
      </trkpt>
      <trkpt lat="44.551961375400424" lon="5.41324152611196">
        <ele>945.79998779296875</ele>
        <time>2014-05-20T09:32:50Z</time>
      </trkpt>
      <trkpt lat="44.551859702914953" lon="5.413306234404445">
        <ele>946.4000244140625</ele>
        <time>2014-05-20T09:32:54Z</time>
      </trkpt>
      <trkpt lat="44.551769094541669" lon="5.413382844999433">
        <ele>947.4000244140625</ele>
        <time>2014-05-20T09:32:58Z</time>
      </trkpt>
      <trkpt lat="44.551661219447851" lon="5.413494743406773">
        <ele>948</ele>
        <time>2014-05-20T09:33:03Z</time>
      </trkpt>
      <trkpt lat="44.551513027399778" lon="5.413678558543325">
        <ele>947.4000244140625</ele>
        <time>2014-05-20T09:33:10Z</time>
      </trkpt>
      <trkpt lat="44.551396854221821" lon="5.413901768624783">
        <ele>946.5999755859375</ele>
        <time>2014-05-20T09:33:16Z</time>
      </trkpt>
      <trkpt lat="44.551263162866235" lon="5.414049122482538">
        <ele>946.79998779296875</ele>
        <time>2014-05-20T09:33:22Z</time>
      </trkpt>
      <trkpt lat="44.551226617768407" lon="5.414087511599064">
        <ele>946.4000244140625</ele>
        <time>2014-05-20T09:33:24Z</time>
      </trkpt>
      <trkpt lat="44.551174063235521" lon="5.414182897657156">
        <ele>946.20001220703125</ele>
        <time>2014-05-20T09:33:28Z</time>
      </trkpt>
      <trkpt lat="44.55116668716073" lon="5.414243498817086">
        <ele>946.20001220703125</ele>
        <time>2014-05-20T09:39:45Z</time>
      </trkpt>
      <trkpt lat="44.551145061850548" lon="5.414326312020421">
        <ele>945.20001220703125</ele>
        <time>2014-05-20T09:39:48Z</time>
      </trkpt>
      <trkpt lat="44.551126873120666" lon="5.414404347538948">
        <ele>944.79998779296875</ele>
        <time>2014-05-20T09:39:50Z</time>
      </trkpt>
      <trkpt lat="44.551127878949046" lon="5.414568297564983">
        <ele>944</ele>
        <time>2014-05-20T09:39:54Z</time>
      </trkpt>
      <trkpt lat="44.551125532016158" lon="5.414616828784347">
        <ele>943.79998779296875</ele>
        <time>2014-05-20T09:39:55Z</time>
      </trkpt>
      <trkpt lat="44.551089238375425" lon="5.414765775203705">
        <ele>943</ele>
        <time>2014-05-20T09:39:58Z</time>
      </trkpt>
      <trkpt lat="44.551072474569082" lon="5.41482562199235">
        <ele>942.79998779296875</ele>
        <time>2014-05-20T09:39:59Z</time>
      </trkpt>
      <trkpt lat="44.550993768498302" lon="5.415034666657448">
        <ele>941.4000244140625</ele>
        <time>2014-05-20T09:40:02Z</time>
      </trkpt>
      <trkpt lat="44.550957474857569" lon="5.415111444890499">
        <ele>940.4000244140625</ele>
        <time>2014-05-20T09:40:03Z</time>
      </trkpt>
      <trkpt lat="44.55091405659914" lon="5.415185624733567">
        <ele>939.4000244140625</ele>
        <time>2014-05-20T09:40:04Z</time>
      </trkpt>
      <trkpt lat="44.550804924219847" lon="5.415305905044079">
        <ele>938</ele>
        <time>2014-05-20T09:40:06Z</time>
      </trkpt>
      <trkpt lat="44.550741305574775" lon="5.415355693548918">
        <ele>937.5999755859375</ele>
        <time>2014-05-20T09:40:07Z</time>
      </trkpt>
      <trkpt lat="44.550675842911005" lon="5.415398022159934">
        <ele>937</ele>
        <time>2014-05-20T09:40:08Z</time>
      </trkpt>
      <trkpt lat="44.55060669220984" lon="5.415436243638396">
        <ele>936.4000244140625</ele>
        <time>2014-05-20T09:40:09Z</time>
      </trkpt>
      <trkpt lat="44.550533937290311" lon="5.415469100698829">
        <ele>935.79998779296875</ele>
        <time>2014-05-20T09:40:10Z</time>
      </trkpt>
      <trkpt lat="44.550380548462272" lon="5.415525930002332">
        <ele>935.5999755859375</ele>
        <time>2014-05-20T09:40:12Z</time>
      </trkpt>
      <trkpt lat="44.550219364464283" lon="5.415570437908173">
        <ele>934.20001220703125</ele>
        <time>2014-05-20T09:40:14Z</time>
      </trkpt>
      <trkpt lat="44.550048876553774" lon="5.415597259998322">
        <ele>932</ele>
        <time>2014-05-20T09:40:16Z</time>
      </trkpt>
      <trkpt lat="44.549877801910043" lon="5.415606899186969">
        <ele>931</ele>
        <time>2014-05-20T09:40:18Z</time>
      </trkpt>
      <trkpt lat="44.54979314468801" lon="5.415613353252411">
        <ele>930.79998779296875</ele>
        <time>2014-05-20T09:40:19Z</time>
      </trkpt>
      <trkpt lat="44.549531629309058" lon="5.415622238069773">
        <ele>929.5999755859375</ele>
        <time>2014-05-20T09:40:22Z</time>
      </trkpt>
      <trkpt lat="44.54935141839087" lon="5.415630619972944">
        <ele>928.4000244140625</ele>
        <time>2014-05-20T09:40:24Z</time>
      </trkpt>
      <trkpt lat="44.549166429787874" lon="5.415636990219355">
        <ele>927.79998779296875</ele>
        <time>2014-05-20T09:40:26Z</time>
      </trkpt>
      <trkpt lat="44.549069702625275" lon="5.415638666599989">
        <ele>926.79998779296875</ele>
        <time>2014-05-20T09:40:27Z</time>
      </trkpt>
      <trkpt lat="44.548973813652992" lon="5.415639085695148">
        <ele>925.5999755859375</ele>
        <time>2014-05-20T09:40:28Z</time>
      </trkpt>
      <trkpt lat="44.548786142840981" lon="5.41564604267478">
        <ele>924.4000244140625</ele>
        <time>2014-05-20T09:40:30Z</time>
      </trkpt>
      <trkpt lat="44.548498811200261" lon="5.415648641064763">
        <ele>923</ele>
        <time>2014-05-20T09:40:33Z</time>
      </trkpt>
      <trkpt lat="44.548401329666376" lon="5.415649060159922">
        <ele>922.5999755859375</ele>
        <time>2014-05-20T09:40:34Z</time>
      </trkpt>
      <trkpt lat="44.548103185370564" lon="5.415643192827702">
        <ele>921.4000244140625</ele>
        <time>2014-05-20T09:40:37Z</time>
      </trkpt>
      <trkpt lat="44.547903193160892" lon="5.415639169514179">
        <ele>920.20001220703125</ele>
        <time>2014-05-20T09:40:39Z</time>
      </trkpt>
      <trkpt lat="44.547807807102799" lon="5.415649143978953">
        <ele>918.4000244140625</ele>
        <time>2014-05-20T09:40:40Z</time>
      </trkpt>
      <trkpt lat="44.547712169587612" lon="5.415675882250071">
        <ele>917.79998779296875</ele>
        <time>2014-05-20T09:40:41Z</time>
      </trkpt>
      <trkpt lat="44.547618040814996" lon="5.415717624127865">
        <ele>917</ele>
        <time>2014-05-20T09:40:42Z</time>
      </trkpt>
      <trkpt lat="44.547443529590964" lon="5.415840335190296">
        <ele>914.79998779296875</ele>
        <time>2014-05-20T09:40:44Z</time>
      </trkpt>
      <trkpt lat="44.547186205163598" lon="5.41605549864471">
        <ele>913.79998779296875</ele>
        <time>2014-05-20T09:40:47Z</time>
      </trkpt>
      <trkpt lat="44.547002892941236" lon="5.416188687086105">
        <ele>912.20001220703125</ele>
        <time>2014-05-20T09:40:49Z</time>
      </trkpt>
      <trkpt lat="44.546910859644413" lon="5.416247863322496">
        <ele>911.4000244140625</ele>
        <time>2014-05-20T09:40:50Z</time>
      </trkpt>
      <trkpt lat="44.546818826347589" lon="5.416306788101792">
        <ele>911.20001220703125</ele>
        <time>2014-05-20T09:40:51Z</time>
      </trkpt>
      <trkpt lat="44.546636017039418" lon="5.416429499164224">
        <ele>910</ele>
        <time>2014-05-20T09:40:53Z</time>
      </trkpt>
      <trkpt lat="44.54645236954093" lon="5.416555982083082">
        <ele>908.5999755859375</ele>
        <time>2014-05-20T09:40:55Z</time>
      </trkpt>
      <trkpt lat="44.546267716214061" lon="5.416676513850689">
        <ele>907.20001220703125</ele>
        <time>2014-05-20T09:40:57Z</time>
      </trkpt>
      <trkpt lat="44.546176521107554" lon="5.416739881038666">
        <ele>906.79998779296875</ele>
        <time>2014-05-20T09:40:58Z</time>
      </trkpt>
      <trkpt lat="44.545999160036445" lon="5.416871225461364">
        <ele>905.79998779296875</ele>
        <time>2014-05-20T09:41:00Z</time>
      </trkpt>
      <trkpt lat="44.545635301619768" lon="5.417132824659348">
        <ele>903.4000244140625</ele>
        <time>2014-05-20T09:41:04Z</time>
      </trkpt>
      <trkpt lat="44.545347467064857" lon="5.41732544079423">
        <ele>902</ele>
        <time>2014-05-20T09:41:07Z</time>
      </trkpt>
      <trkpt lat="44.544987296685576" lon="5.417493833228946">
        <ele>900.79998779296875</ele>
        <time>2014-05-20T09:41:11Z</time>
      </trkpt>
      <trkpt lat="44.544846145436168" lon="5.417565749958158">
        <ele>899.4000244140625</ele>
        <time>2014-05-20T09:41:13Z</time>
      </trkpt>
      <trkpt lat="44.544782945886254" lon="5.41761084459722">
        <ele>899.5999755859375</ele>
        <time>2014-05-20T09:41:14Z</time>
      </trkpt>
      <trkpt lat="44.544683871790767" lon="5.4177500680089">
        <ele>899.79998779296875</ele>
        <time>2014-05-20T09:41:16Z</time>
      </trkpt>
      <trkpt lat="44.544624779373407" lon="5.417946120724082">
        <ele>898.20001220703125</ele>
        <time>2014-05-20T09:41:18Z</time>
      </trkpt>
      <trkpt lat="44.544603489339352" lon="5.418052487075329">
        <ele>897.5999755859375</ele>
        <time>2014-05-20T09:41:19Z</time>
      </trkpt>
      <trkpt lat="44.544582702219486" lon="5.418162625283003">
        <ele>897</ele>
        <time>2014-05-20T09:41:20Z</time>
      </trkpt>
      <trkpt lat="44.544548252597451" lon="5.418384745717049">
        <ele>896</ele>
        <time>2014-05-20T09:41:22Z</time>
      </trkpt>
      <trkpt lat="44.54452813602984" lon="5.418606447055936">
        <ele>894.79998779296875</ele>
        <time>2014-05-20T09:41:24Z</time>
      </trkpt>
      <trkpt lat="44.544513467699289" lon="5.418844409286976">
        <ele>894.20001220703125</ele>
        <time>2014-05-20T09:41:26Z</time>
      </trkpt>
      <trkpt lat="44.5444939378649" lon="5.419092932716012">
        <ele>893</ele>
        <time>2014-05-20T09:41:28Z</time>
      </trkpt>
      <trkpt lat="44.544474240392447" lon="5.419219164177775">
        <ele>892.79998779296875</ele>
        <time>2014-05-20T09:41:29Z</time>
      </trkpt>
      <trkpt lat="44.544441802427173" lon="5.41934153996408">
        <ele>892</ele>
        <time>2014-05-20T09:41:30Z</time>
      </trkpt>
      <trkpt lat="44.544350020587444" lon="5.419570198282599">
        <ele>890.20001220703125</ele>
        <time>2014-05-20T09:41:32Z</time>
      </trkpt>
      <trkpt lat="44.544245162978768" lon="5.419787373393774">
        <ele>889.20001220703125</ele>
        <time>2014-05-20T09:41:34Z</time>
      </trkpt>
      <trkpt lat="44.544177772477269" lon="5.420037908479571">
        <ele>887.20001220703125</ele>
        <time>2014-05-20T09:41:36Z</time>
      </trkpt>
      <trkpt lat="44.544164696708322" lon="5.420169420540333">
        <ele>886.20001220703125</ele>
        <time>2014-05-20T09:41:37Z</time>
      </trkpt>
      <trkpt lat="44.544162852689624" lon="5.420301519334316">
        <ele>885.5999755859375</ele>
        <time>2014-05-20T09:41:38Z</time>
      </trkpt>
      <trkpt lat="44.544177101925015" lon="5.420573092997074">
        <ele>885</ele>
        <time>2014-05-20T09:41:40Z</time>
      </trkpt>
      <trkpt lat="44.544187411665916" lon="5.420712316408753">
        <ele>884.79998779296875</ele>
        <time>2014-05-20T09:41:41Z</time>
      </trkpt>
      <trkpt lat="44.544196631759405" lon="5.420850114896894">
        <ele>884.20001220703125</ele>
        <time>2014-05-20T09:41:42Z</time>
      </trkpt>
      <trkpt lat="44.544202331453562" lon="5.420978358015418">
        <ele>883.20001220703125</ele>
        <time>2014-05-20T09:41:43Z</time>
      </trkpt>
      <trkpt lat="44.544200403615832" lon="5.421100398525596">
        <ele>882.5999755859375</ele>
        <time>2014-05-20T09:41:44Z</time>
      </trkpt>
      <trkpt lat="44.544185483828187" lon="5.4212193377316">
        <ele>882.4000244140625</ele>
        <time>2014-05-20T09:41:45Z</time>
      </trkpt>
      <trkpt lat="44.544116919860244" lon="5.421439865604043">
        <ele>881.5999755859375</ele>
        <time>2014-05-20T09:41:47Z</time>
      </trkpt>
      <trkpt lat="44.544062353670597" lon="5.421532653272152">
        <ele>880.5999755859375</ele>
        <time>2014-05-20T09:41:48Z</time>
      </trkpt>
      <trkpt lat="44.544000076130033" lon="5.421617897227407">
        <ele>880</ele>
        <time>2014-05-20T09:41:49Z</time>
      </trkpt>
      <trkpt lat="44.543889351189137" lon="5.421812189742923">
        <ele>879.20001220703125</ele>
        <time>2014-05-20T09:41:51Z</time>
      </trkpt>
      <trkpt lat="44.543847274035215" lon="5.421920651569963">
        <ele>878.5999755859375</ele>
        <time>2014-05-20T09:41:52Z</time>
      </trkpt>
      <trkpt lat="44.54377862624824" lon="5.422142939642072">
        <ele>878.20001220703125</ele>
        <time>2014-05-20T09:41:54Z</time>
      </trkpt>
      <trkpt lat="44.543734872713685" lon="5.42236958630383">
        <ele>877.20001220703125</ele>
        <time>2014-05-20T09:41:56Z</time>
      </trkpt>
      <trkpt lat="44.543702267110348" lon="5.422600088641048">
        <ele>876</ele>
        <time>2014-05-20T09:41:58Z</time>
      </trkpt>
      <trkpt lat="44.54366572201252" lon="5.422836877405644">
        <ele>874.79998779296875</ele>
        <time>2014-05-20T09:42:00Z</time>
      </trkpt>
      <trkpt lat="44.543632613494992" lon="5.422954894602299">
        <ele>874.20001220703125</ele>
        <time>2014-05-20T09:42:01Z</time>
      </trkpt>
      <trkpt lat="44.543583411723375" lon="5.423069810494781">
        <ele>873.79998779296875</ele>
        <time>2014-05-20T09:42:02Z</time>
      </trkpt>
      <trkpt lat="44.543525408953428" lon="5.423177434131503">
        <ele>873.4000244140625</ele>
        <time>2014-05-20T09:42:03Z</time>
      </trkpt>
      <trkpt lat="44.543402027338743" lon="5.423391340300441">
        <ele>872</ele>
        <time>2014-05-20T09:42:05Z</time>
      </trkpt>
      <trkpt lat="44.543349388986826" lon="5.423505585640669">
        <ele>870.79998779296875</ele>
        <time>2014-05-20T09:42:06Z</time>
      </trkpt>
      <trkpt lat="44.543236400932074" lon="5.423872293904424">
        <ele>869.79998779296875</ele>
        <time>2014-05-20T09:42:09Z</time>
      </trkpt>
      <trkpt lat="44.543181834742427" lon="5.423980671912432">
        <ele>869.4000244140625</ele>
        <time>2014-05-20T09:42:10Z</time>
      </trkpt>
      <trkpt lat="44.543036241084337" lon="5.42417211458087">
        <ele>868</ele>
        <time>2014-05-20T09:42:12Z</time>
      </trkpt>
      <trkpt lat="44.542961809784174" lon="5.424262639135122">
        <ele>867</ele>
        <time>2014-05-20T09:42:13Z</time>
      </trkpt>
      <trkpt lat="44.542883858084679" lon="5.424346793442965">
        <ele>866.4000244140625</ele>
        <time>2014-05-20T09:42:14Z</time>
      </trkpt>
      <trkpt lat="44.542725021019578" lon="5.42450537905097">
        <ele>864.4000244140625</ele>
        <time>2014-05-20T09:42:16Z</time>
      </trkpt>
      <trkpt lat="44.54264204017818" lon="5.424577966332436">
        <ele>863.5999755859375</ele>
        <time>2014-05-20T09:42:17Z</time>
      </trkpt>
      <trkpt lat="44.542558137327433" lon="5.424643680453301">
        <ele>863.20001220703125</ele>
        <time>2014-05-20T09:42:18Z</time>
      </trkpt>
      <trkpt lat="44.542117835953832" lon="5.424935622140765">
        <ele>862.79998779296875</ele>
        <time>2014-05-20T09:42:23Z</time>
      </trkpt>
      <trkpt lat="44.542030580341816" lon="5.424993205815554">
        <ele>862</ele>
        <time>2014-05-20T09:42:24Z</time>
      </trkpt>
      <trkpt lat="44.541856655851007" lon="5.425115833058953">
        <ele>860.5999755859375</ele>
        <time>2014-05-20T09:42:26Z</time>
      </trkpt>
      <trkpt lat="44.541599582880735" lon="5.42528866790235">
        <ele>859</ele>
        <time>2014-05-20T09:42:29Z</time>
      </trkpt>
      <trkpt lat="44.541519032791257" lon="5.425349017605186">
        <ele>858.4000244140625</ele>
        <time>2014-05-20T09:42:30Z</time>
      </trkpt>
      <trkpt lat="44.541187193244696" lon="5.425601061433554">
        <ele>857.79998779296875</ele>
        <time>2014-05-20T09:42:34Z</time>
      </trkpt>
      <trkpt lat="44.541005473583937" lon="5.425715055316687">
        <ele>857</ele>
        <time>2014-05-20T09:42:36Z</time>
      </trkpt>
      <trkpt lat="44.540910171344876" lon="5.425765598192811">
        <ele>856.5999755859375</ele>
        <time>2014-05-20T09:42:37Z</time>
      </trkpt>
      <trkpt lat="44.540712106972933" lon="5.425848327577114">
        <ele>855</ele>
        <time>2014-05-20T09:42:39Z</time>
      </trkpt>
      <trkpt lat="44.540608003735542" lon="5.425877161324024">
        <ele>853.4000244140625</ele>
        <time>2014-05-20T09:42:40Z</time>
      </trkpt>
      <trkpt lat="44.540503565222025" lon="5.425901049748063">
        <ele>852.5999755859375</ele>
        <time>2014-05-20T09:42:41Z</time>
      </trkpt>
      <trkpt lat="44.540399042889476" lon="5.425923261791468">
        <ele>851.5999755859375</ele>
        <time>2014-05-20T09:42:42Z</time>
      </trkpt>
      <trkpt lat="44.540190836414695" lon="5.425968943163753">
        <ele>850.20001220703125</ele>
        <time>2014-05-20T09:42:44Z</time>
      </trkpt>
      <trkpt lat="44.53987886197865" lon="5.426026023924351">
        <ele>849.20001220703125</ele>
        <time>2014-05-20T09:42:47Z</time>
      </trkpt>
      <trkpt lat="44.539663530886173" lon="5.426038848236203">
        <ele>848.20001220703125</ele>
        <time>2014-05-20T09:42:49Z</time>
      </trkpt>
      <trkpt lat="44.539552386850119" lon="5.42604262009263">
        <ele>847.79998779296875</ele>
        <time>2014-05-20T09:42:50Z</time>
      </trkpt>
      <trkpt lat="44.539331691339612" lon="5.426048403605819">
        <ele>845.79998779296875</ele>
        <time>2014-05-20T09:42:52Z</time>
      </trkpt>
      <trkpt lat="44.539108648896217" lon="5.426074638962746">
        <ele>844.4000244140625</ele>
        <time>2014-05-20T09:42:54Z</time>
      </trkpt>
      <trkpt lat="44.538906058296561" lon="5.426129205152392">
        <ele>843.20001220703125</ele>
        <time>2014-05-20T09:42:56Z</time>
      </trkpt>
      <trkpt lat="44.538729451596737" lon="5.426195841282606">
        <ele>843</ele>
        <time>2014-05-20T09:42:58Z</time>
      </trkpt>
      <trkpt lat="44.538506660610437" lon="5.426398934796453">
        <ele>842.4000244140625</ele>
        <time>2014-05-20T09:43:01Z</time>
      </trkpt>
      <trkpt lat="44.538445807993412" lon="5.426492560654879">
        <ele>842</ele>
        <time>2014-05-20T09:43:02Z</time>
      </trkpt>
      <trkpt lat="44.538349835202098" lon="5.426690457388759">
        <ele>841</ele>
        <time>2014-05-20T09:43:04Z</time>
      </trkpt>
      <trkpt lat="44.538260400295258" lon="5.426979046314955">
        <ele>840.5999755859375</ele>
        <time>2014-05-20T09:43:07Z</time>
      </trkpt>
      <trkpt lat="44.538235003128648" lon="5.427072504535317">
        <ele>840</ele>
        <time>2014-05-20T09:43:08Z</time>
      </trkpt>
      <trkpt lat="44.538187813013792" lon="5.427243914455175">
        <ele>838.5999755859375</ele>
        <time>2014-05-20T09:43:10Z</time>
      </trkpt>
      <trkpt lat="44.53812662512064" lon="5.427450863644481">
        <ele>838.4000244140625</ele>
        <time>2014-05-20T09:43:13Z</time>
      </trkpt>
      <trkpt lat="44.538015145808458" lon="5.427766023203731">
        <ele>837.5999755859375</ele>
        <time>2014-05-20T09:43:19Z</time>
      </trkpt>
      <trkpt lat="44.537964267656207" lon="5.427829558029771">
        <ele>837.20001220703125</ele>
        <time>2014-05-20T09:43:21Z</time>
      </trkpt>
      <trkpt lat="44.5379145629704" lon="5.42784565128386">
        <ele>837</ele>
        <time>2014-05-20T09:43:22Z</time>
      </trkpt>
      <trkpt lat="44.537769891321659" lon="5.427807262167335">
        <ele>836.79998779296875</ele>
        <time>2014-05-20T09:43:25Z</time>
      </trkpt>
      <trkpt lat="44.537726724520326" lon="5.427777925506234">
        <ele>836.5999755859375</ele>
        <time>2014-05-20T09:43:26Z</time>
      </trkpt>
      <trkpt lat="44.537608874961734" lon="5.427719419822097">
        <ele>835.4000244140625</ele>
        <time>2014-05-20T09:43:29Z</time>
      </trkpt>
      <trkpt lat="44.53743813559413" lon="5.427824109792709">
        <ele>834.4000244140625</ele>
        <time>2014-05-20T09:43:33Z</time>
      </trkpt>
      <trkpt lat="44.537358507514" lon="5.427898038178682">
        <ele>834</ele>
        <time>2014-05-20T09:43:35Z</time>
      </trkpt>
      <trkpt lat="44.537275359034538" lon="5.427968529984355">
        <ele>833.4000244140625</ele>
        <time>2014-05-20T09:43:37Z</time>
      </trkpt>
      <trkpt lat="44.537181900814176" lon="5.428032903000712">
        <ele>832.79998779296875</ele>
        <time>2014-05-20T09:43:39Z</time>
      </trkpt>
      <trkpt lat="44.537071092054248" lon="5.428073722869158">
        <ele>832.20001220703125</ele>
        <time>2014-05-20T09:43:41Z</time>
      </trkpt>
      <trkpt lat="44.537011245265603" lon="5.428095180541277">
        <ele>832</ele>
        <time>2014-05-20T09:43:42Z</time>
      </trkpt>
      <trkpt lat="44.53694804571569" lon="5.428119488060474">
        <ele>831.5999755859375</ele>
        <time>2014-05-20T09:43:43Z</time>
      </trkpt>
      <trkpt lat="44.536818042397499" lon="5.428168941289187">
        <ele>830.79998779296875</ele>
        <time>2014-05-20T09:43:45Z</time>
      </trkpt>
      <trkpt lat="44.536500703543425" lon="5.428304895758629">
        <ele>830</ele>
        <time>2014-05-20T09:43:50Z</time>
      </trkpt>
      <trkpt lat="44.536435576155782" lon="5.428330795839429">
        <ele>829.79998779296875</ele>
        <time>2014-05-20T09:43:51Z</time>
      </trkpt>
      <trkpt lat="44.536059061065316" lon="5.428508659824729">
        <ele>828.79998779296875</ele>
        <time>2014-05-20T09:43:57Z</time>
      </trkpt>
      <trkpt lat="44.535938361659646" lon="5.428564148023725">
        <ele>828</ele>
        <time>2014-05-20T09:43:59Z</time>
      </trkpt>
      <trkpt lat="44.53587943688035" lon="5.428594406694174">
        <ele>827.5999755859375</ele>
        <time>2014-05-20T09:44:00Z</time>
      </trkpt>
      <trkpt lat="44.535465370863676" lon="5.428747879341245">
        <ele>827.79998779296875</ele>
        <time>2014-05-20T09:44:07Z</time>
      </trkpt>
      <trkpt lat="44.535045940428972" lon="5.428820131346583">
        <ele>827.5999755859375</ele>
        <time>2014-05-20T09:44:14Z</time>
      </trkpt>
      <trkpt lat="44.534698510542512" lon="5.429033953696489">
        <ele>826.5999755859375</ele>
        <time>2014-05-20T09:44:20Z</time>
      </trkpt>
      <trkpt lat="44.534329706802964" lon="5.429360847920179">
        <ele>827.20001220703125</ele>
        <time>2014-05-20T09:44:27Z</time>
      </trkpt>
      <trkpt lat="44.533976074308157" lon="5.429716911166906">
        <ele>825.4000244140625</ele>
        <time>2014-05-20T09:44:34Z</time>
      </trkpt>
      <trkpt lat="44.533926453441381" lon="5.429769800975919">
        <ele>825.4000244140625</ele>
        <time>2014-05-20T09:44:35Z</time>
      </trkpt>
      <trkpt lat="44.533684635534883" lon="5.430082781240344">
        <ele>824.5999755859375</ele>
        <time>2014-05-20T09:44:40Z</time>
      </trkpt>
      <trkpt lat="44.533633505925536" lon="5.430147321894765">
        <ele>824.20001220703125</ele>
        <time>2014-05-20T09:44:41Z</time>
      </trkpt>
      <trkpt lat="44.533471064642072" lon="5.430349074304104">
        <ele>822.79998779296875</ele>
        <time>2014-05-20T09:44:44Z</time>
      </trkpt>
      <trkpt lat="44.533295463770628" lon="5.430553341284394">
        <ele>822</ele>
        <time>2014-05-20T09:44:47Z</time>
      </trkpt>
      <trkpt lat="44.533178620040417" lon="5.430686110630631">
        <ele>821.20001220703125</ele>
        <time>2014-05-20T09:44:49Z</time>
      </trkpt>
      <trkpt lat="44.533001678064466" lon="5.430841259658337">
        <ele>820.79998779296875</ele>
        <time>2014-05-20T09:44:52Z</time>
      </trkpt>
      <trkpt lat="44.532551569864154" lon="5.431134793907404">
        <ele>819.79998779296875</ele>
        <time>2014-05-20T09:44:59Z</time>
      </trkpt>
      <trkpt lat="44.532166672870517" lon="5.431328415870667">
        <ele>820.20001220703125</ele>
        <time>2014-05-20T09:45:05Z</time>
      </trkpt>
      <trkpt lat="44.531764592975378" lon="5.431518601253629">
        <ele>819.20001220703125</ele>
        <time>2014-05-20T09:45:11Z</time>
      </trkpt>
      <trkpt lat="44.531568288803101" lon="5.43159588240087">
        <ele>818.5999755859375</ele>
        <time>2014-05-20T09:45:14Z</time>
      </trkpt>
      <trkpt lat="44.531433340162039" lon="5.431647514924407">
        <ele>819</ele>
        <time>2014-05-20T09:45:16Z</time>
      </trkpt>
      <trkpt lat="44.531223541125655" lon="5.431701829656959">
        <ele>819.4000244140625</ele>
        <time>2014-05-20T09:45:19Z</time>
      </trkpt>
      <trkpt lat="44.530772510915995" lon="5.43177860789001">
        <ele>818.5999755859375</ele>
        <time>2014-05-20T09:45:26Z</time>
      </trkpt>
      <trkpt lat="44.530343189835548" lon="5.431901067495346">
        <ele>818.20001220703125</ele>
        <time>2014-05-20T09:45:33Z</time>
      </trkpt>
      <trkpt lat="44.530152585357428" lon="5.431954124942422">
        <ele>817.5999755859375</ele>
        <time>2014-05-20T09:45:36Z</time>
      </trkpt>
      <trkpt lat="44.529956867918372" lon="5.432008104398847">
        <ele>817</ele>
        <time>2014-05-20T09:45:39Z</time>
      </trkpt>
      <trkpt lat="44.529822841286659" lon="5.432036435231566">
        <ele>817</ele>
        <time>2014-05-20T09:45:41Z</time>
      </trkpt>
      <trkpt lat="44.529618909582496" lon="5.432064179331064">
        <ele>816.4000244140625</ele>
        <time>2014-05-20T09:45:44Z</time>
      </trkpt>
      <trkpt lat="44.529548501595855" lon="5.432077255100012">
        <ele>816</ele>
        <time>2014-05-20T09:45:45Z</time>
      </trkpt>
      <trkpt lat="44.529332332313061" lon="5.432105753570795">
        <ele>815.20001220703125</ele>
        <time>2014-05-20T09:45:48Z</time>
      </trkpt>
      <trkpt lat="44.529108786955476" lon="5.43213190510869">
        <ele>813.79998779296875</ele>
        <time>2014-05-20T09:45:51Z</time>
      </trkpt>
      <trkpt lat="44.528883984312415" lon="5.432162582874298">
        <ele>812.79998779296875</ele>
        <time>2014-05-20T09:45:54Z</time>
      </trkpt>
      <trkpt lat="44.528433792293072" lon="5.43216560035944">
        <ele>811.79998779296875</ele>
        <time>2014-05-20T09:46:00Z</time>
      </trkpt>
      <trkpt lat="44.528358271345496" lon="5.432158894836903">
        <ele>811.79998779296875</ele>
        <time>2014-05-20T09:46:01Z</time>
      </trkpt>
      <trkpt lat="44.527973793447018" lon="5.432105837389827">
        <ele>811.5999755859375</ele>
        <time>2014-05-20T09:46:06Z</time>
      </trkpt>
      <trkpt lat="44.52764849178493" lon="5.432041799649596">
        <ele>810.20001220703125</ele>
        <time>2014-05-20T09:46:10Z</time>
      </trkpt>
      <trkpt lat="44.527568444609642" lon="5.432012211531401">
        <ele>809.20001220703125</ele>
        <time>2014-05-20T09:46:11Z</time>
      </trkpt>
      <trkpt lat="44.527491666376591" lon="5.43197357095778">
        <ele>809</ele>
        <time>2014-05-20T09:46:12Z</time>
      </trkpt>
      <trkpt lat="44.527416229248047" lon="5.4319310747087">
        <ele>809.20001220703125</ele>
        <time>2014-05-20T09:46:13Z</time>
      </trkpt>
      <trkpt lat="44.527052538469434" lon="5.431734602898359">
        <ele>807.79998779296875</ele>
        <time>2014-05-20T09:46:18Z</time>
      </trkpt>
      <trkpt lat="44.526828657835722" lon="5.431653214618564">
        <ele>807.4000244140625</ele>
        <time>2014-05-20T09:46:21Z</time>
      </trkpt>
      <trkpt lat="44.526524981483817" lon="5.431564282625914">
        <ele>806.4000244140625</ele>
        <time>2014-05-20T09:46:25Z</time>
      </trkpt>
      <trkpt lat="44.52622901648283" lon="5.43148348107934">
        <ele>805.79998779296875</ele>
        <time>2014-05-20T09:46:29Z</time>
      </trkpt>
      <trkpt lat="44.526084177196026" lon="5.431427909061313">
        <ele>805.20001220703125</ele>
        <time>2014-05-20T09:46:31Z</time>
      </trkpt>
      <trkpt lat="44.525666423141956" lon="5.43126504868269">
        <ele>804.20001220703125</ele>
        <time>2014-05-20T09:46:37Z</time>
      </trkpt>
      <trkpt lat="44.525324944406748" lon="5.431140242144465">
        <ele>804</ele>
        <time>2014-05-20T09:46:42Z</time>
      </trkpt>
      <trkpt lat="44.525060243904591" lon="5.431021805852652">
        <ele>804</ele>
        <time>2014-05-20T09:46:46Z</time>
      </trkpt>
      <trkpt lat="44.524740055203438" lon="5.430851820856333">
        <ele>803</ele>
        <time>2014-05-20T09:46:51Z</time>
      </trkpt>
      <trkpt lat="44.524616254493594" lon="5.430779485031962">
        <ele>802</ele>
        <time>2014-05-20T09:46:53Z</time>
      </trkpt>
      <trkpt lat="44.524390278384089" lon="5.430628946051002">
        <ele>801.79998779296875</ele>
        <time>2014-05-20T09:46:57Z</time>
      </trkpt>
      <trkpt lat="44.524234291166067" lon="5.43051746673882">
        <ele>801.4000244140625</ele>
        <time>2014-05-20T09:47:00Z</time>
      </trkpt>
      <trkpt lat="44.523957436904311" lon="5.4303855355829">
        <ele>800.79998779296875</ele>
        <time>2014-05-20T09:47:05Z</time>
      </trkpt>
      <trkpt lat="44.523900775238872" lon="5.430361982434988">
        <ele>800.79998779296875</ele>
        <time>2014-05-20T09:47:06Z</time>
      </trkpt>
      <trkpt lat="44.523595254868269" lon="5.430304063484073">
        <ele>800.5999755859375</ele>
        <time>2014-05-20T09:47:11Z</time>
      </trkpt>
      <trkpt lat="44.523531636223197" lon="5.43031370267272">
        <ele>800.20001220703125</ele>
        <time>2014-05-20T09:47:12Z</time>
      </trkpt>
      <trkpt lat="44.523469777777791" lon="5.430319234728813">
        <ele>799.5999755859375</ele>
        <time>2014-05-20T09:47:13Z</time>
      </trkpt>
      <trkpt lat="44.523164005950093" lon="5.430390145629644">
        <ele>798.79998779296875</ele>
        <time>2014-05-20T09:47:18Z</time>
      </trkpt>
      <trkpt lat="44.522977005690336" lon="5.430461307987571">
        <ele>798.5999755859375</ele>
        <time>2014-05-20T09:47:21Z</time>
      </trkpt>
      <trkpt lat="44.522594036534429" lon="5.430611008778215">
        <ele>798.4000244140625</ele>
        <time>2014-05-20T09:47:27Z</time>
      </trkpt>
      <trkpt lat="44.522306537255645" lon="5.430756015703082">
        <ele>797.20001220703125</ele>
        <time>2014-05-20T09:47:31Z</time>
      </trkpt>
      <trkpt lat="44.522079136222601" lon="5.430870847776532">
        <ele>796.20001220703125</ele>
        <time>2014-05-20T09:47:34Z</time>
      </trkpt>
      <trkpt lat="44.521926334127784" lon="5.430952487513423">
        <ele>795</ele>
        <time>2014-05-20T09:47:36Z</time>
      </trkpt>
      <trkpt lat="44.521778728812933" lon="5.431033540517092">
        <ele>793.79998779296875</ele>
        <time>2014-05-20T09:47:38Z</time>
      </trkpt>
      <trkpt lat="44.5214834343642" lon="5.431189527735114">
        <ele>792.5999755859375</ele>
        <time>2014-05-20T09:47:42Z</time>
      </trkpt>
      <trkpt lat="44.521408164873719" lon="5.43122598901391">
        <ele>792.20001220703125</ele>
        <time>2014-05-20T09:47:43Z</time>
      </trkpt>
      <trkpt lat="44.521032655611634" lon="5.431426148861647">
        <ele>791.5999755859375</ele>
        <time>2014-05-20T09:47:48Z</time>
      </trkpt>
      <trkpt lat="44.520817995071411" lon="5.431545339524746">
        <ele>791.4000244140625</ele>
        <time>2014-05-20T09:47:51Z</time>
      </trkpt>
      <trkpt lat="44.520315416157246" lon="5.431823534891009">
        <ele>790.79998779296875</ele>
        <time>2014-05-20T09:47:58Z</time>
      </trkpt>
      <trkpt lat="44.520245846360922" lon="5.431864438578486">
        <ele>790.5999755859375</ele>
        <time>2014-05-20T09:47:59Z</time>
      </trkpt>
      <trkpt lat="44.519966226071119" lon="5.432025203481317">
        <ele>790.4000244140625</ele>
        <time>2014-05-20T09:48:03Z</time>
      </trkpt>
      <trkpt lat="44.519827421754599" lon="5.432106927037239">
        <ele>789.20001220703125</ele>
        <time>2014-05-20T09:48:05Z</time>
      </trkpt>
      <trkpt lat="44.519757097586989" lon="5.432147830724716">
        <ele>788</ele>
        <time>2014-05-20T09:48:06Z</time>
      </trkpt>
      <trkpt lat="44.519689539447427" lon="5.432189237326384">
        <ele>787.20001220703125</ele>
        <time>2014-05-20T09:48:07Z</time>
      </trkpt>
      <trkpt lat="44.519623573869467" lon="5.43223106302321">
        <ele>786.5999755859375</ele>
        <time>2014-05-20T09:48:08Z</time>
      </trkpt>
      <trkpt lat="44.519325848668814" lon="5.432457709684968">
        <ele>787.5999755859375</ele>
        <time>2014-05-20T09:48:13Z</time>
      </trkpt>
      <trkpt lat="44.519268181174994" lon="5.432508923113346">
        <ele>787.79998779296875</ele>
        <time>2014-05-20T09:48:14Z</time>
      </trkpt>
      <trkpt lat="44.51901831664145" lon="5.432673124596477">
        <ele>786.4000244140625</ele>
        <time>2014-05-20T09:48:18Z</time>
      </trkpt>
      <trkpt lat="44.518944891169667" lon="5.432691313326359">
        <ele>786.4000244140625</ele>
        <time>2014-05-20T09:48:19Z</time>
      </trkpt>
      <trkpt lat="44.518655631691217" lon="5.432683769613504">
        <ele>786.4000244140625</ele>
        <time>2014-05-20T09:48:23Z</time>
      </trkpt>
      <trkpt lat="44.518512468785048" lon="5.432634316384792">
        <ele>786</ele>
        <time>2014-05-20T09:48:25Z</time>
      </trkpt>
      <trkpt lat="44.518234441056848" lon="5.432536751031876">
        <ele>786.4000244140625</ele>
        <time>2014-05-20T09:48:29Z</time>
      </trkpt>
      <trkpt lat="44.51796043664217" lon="5.432441448792815">
        <ele>785</ele>
        <time>2014-05-20T09:48:33Z</time>
      </trkpt>
      <trkpt lat="44.517746781930327" lon="5.432416973635554">
        <ele>784.20001220703125</ele>
        <time>2014-05-20T09:48:36Z</time>
      </trkpt>
      <trkpt lat="44.517675703391433" lon="5.432416554540396">
        <ele>783.4000244140625</ele>
        <time>2014-05-20T09:48:37Z</time>
      </trkpt>
      <trkpt lat="44.517395831644535" lon="5.432394929230213">
        <ele>782.4000244140625</ele>
        <time>2014-05-20T09:48:41Z</time>
      </trkpt>
      <trkpt lat="44.517199695110321" lon="5.432354863733053">
        <ele>782.20001220703125</ele>
        <time>2014-05-20T09:48:44Z</time>
      </trkpt>
      <trkpt lat="44.516655877232552" lon="5.432145651429892">
        <ele>781.79998779296875</ele>
        <time>2014-05-20T09:48:53Z</time>
      </trkpt>
      <trkpt lat="44.516334095969796" lon="5.432011038064957">
        <ele>781</ele>
        <time>2014-05-20T09:48:58Z</time>
      </trkpt>
      <trkpt lat="44.516125051304698" lon="5.431933086365461">
        <ele>782.20001220703125</ele>
        <time>2014-05-20T09:49:01Z</time>
      </trkpt>
      <trkpt lat="44.515992114320397" lon="5.431898636743426">
        <ele>781.79998779296875</ele>
        <time>2014-05-20T09:49:03Z</time>
      </trkpt>
      <trkpt lat="44.515865715220571" lon="5.431913891807199">
        <ele>781</ele>
        <time>2014-05-20T09:49:05Z</time>
      </trkpt>
      <trkpt lat="44.515694640576839" lon="5.432022605091333">
        <ele>780.79998779296875</ele>
        <time>2014-05-20T09:49:08Z</time>
      </trkpt>
      <trkpt lat="44.515640828758478" lon="5.432064682245255">
        <ele>780.5999755859375</ele>
        <time>2014-05-20T09:49:09Z</time>
      </trkpt>
      <trkpt lat="44.515248220413923" lon="5.432370537891984">
        <ele>781</ele>
        <time>2014-05-20T09:49:17Z</time>
      </trkpt>
      <trkpt lat="44.514948567375541" lon="5.432563656941056">
        <ele>780</ele>
        <time>2014-05-20T09:49:24Z</time>
      </trkpt>
      <trkpt lat="44.514903472736478" lon="5.432584108784795">
        <ele>780</ele>
        <time>2014-05-20T09:49:25Z</time>
      </trkpt>
      <trkpt lat="44.514570627361536" lon="5.432751998305321">
        <ele>780</ele>
        <time>2014-05-20T09:49:32Z</time>
      </trkpt>
      <trkpt lat="44.514409862458706" lon="5.43284771963954">
        <ele>779</ele>
        <time>2014-05-20T09:49:35Z</time>
      </trkpt>
      <trkpt lat="44.514175169169903" lon="5.433008819818497">
        <ele>777.5999755859375</ele>
        <time>2014-05-20T09:49:39Z</time>
      </trkpt>
      <trkpt lat="44.514045417308807" lon="5.433089369907975">
        <ele>776.4000244140625</ele>
        <time>2014-05-20T09:49:41Z</time>
      </trkpt>
      <trkpt lat="44.513842239975929" lon="5.433176290243864">
        <ele>775.5999755859375</ele>
        <time>2014-05-20T09:49:44Z</time>
      </trkpt>
      <trkpt lat="44.513637302443385" lon="5.433233035728335">
        <ele>775.4000244140625</ele>
        <time>2014-05-20T09:49:47Z</time>
      </trkpt>
      <trkpt lat="44.513235557824373" lon="5.433333870023489">
        <ele>775</ele>
        <time>2014-05-20T09:49:53Z</time>
      </trkpt>
      <trkpt lat="44.513043696060777" lon="5.433379383757711">
        <ele>774.20001220703125</ele>
        <time>2014-05-20T09:49:56Z</time>
      </trkpt>
      <trkpt lat="44.512715544551611" lon="5.433456748723984">
        <ele>773</ele>
        <time>2014-05-20T09:50:01Z</time>
      </trkpt>
      <trkpt lat="44.512397367507219" lon="5.433598905801773">
        <ele>773.20001220703125</ele>
        <time>2014-05-20T09:50:06Z</time>
      </trkpt>
      <trkpt lat="44.512337520718575" lon="5.433640982955694">
        <ele>772.79998779296875</ele>
        <time>2014-05-20T09:50:07Z</time>
      </trkpt>
      <trkpt lat="44.511855645105243" lon="5.434050522744656">
        <ele>772.4000244140625</ele>
        <time>2014-05-20T09:50:15Z</time>
      </trkpt>
      <trkpt lat="44.511794205754995" lon="5.434106513857842">
        <ele>771.5999755859375</ele>
        <time>2014-05-20T09:50:16Z</time>
      </trkpt>
      <trkpt lat="44.511368656530976" lon="5.434537511318922">
        <ele>771.20001220703125</ele>
        <time>2014-05-20T09:50:23Z</time>
      </trkpt>
      <trkpt lat="44.511147039011121" lon="5.434809336438775">
        <ele>770.20001220703125</ele>
        <time>2014-05-20T09:50:27Z</time>
      </trkpt>
      <trkpt lat="44.511047378182411" lon="5.43495467863977">
        <ele>770.20001220703125</ele>
        <time>2014-05-20T09:50:29Z</time>
      </trkpt>
      <trkpt lat="44.510851493105292" lon="5.435389028862119">
        <ele>769.4000244140625</ele>
        <time>2014-05-20T09:50:34Z</time>
      </trkpt>
      <trkpt lat="44.510819977149367" lon="5.435481984168291">
        <ele>769.20001220703125</ele>
        <time>2014-05-20T09:50:35Z</time>
      </trkpt>
      <trkpt lat="44.510698523372412" lon="5.435851961374283">
        <ele>767.79998779296875</ele>
        <time>2014-05-20T09:50:39Z</time>
      </trkpt>
      <trkpt lat="44.510654602199793" lon="5.436027478426695">
        <ele>768</ele>
        <time>2014-05-20T09:50:41Z</time>
      </trkpt>
      <trkpt lat="44.510561311617494" lon="5.436469372361898">
        <ele>766.79998779296875</ele>
        <time>2014-05-20T09:50:46Z</time>
      </trkpt>
      <trkpt lat="44.510532142594457" lon="5.436644637957215">
        <ele>766.5999755859375</ele>
        <time>2014-05-20T09:50:48Z</time>
      </trkpt>
      <trkpt lat="44.510459471493959" lon="5.43699617497623">
        <ele>765.4000244140625</ele>
        <time>2014-05-20T09:50:52Z</time>
      </trkpt>
      <trkpt lat="44.510399624705315" lon="5.437164232134819">
        <ele>764.4000244140625</ele>
        <time>2014-05-20T09:50:54Z</time>
      </trkpt>
      <trkpt lat="44.510362409055233" lon="5.437241178005934">
        <ele>764</ele>
        <time>2014-05-20T09:50:55Z</time>
      </trkpt>
      <trkpt lat="44.510227795690298" lon="5.437440499663353">
        <ele>763.4000244140625</ele>
        <time>2014-05-20T09:50:58Z</time>
      </trkpt>
      <trkpt lat="44.510012296959758" lon="5.437624733895063">
        <ele>763.5999755859375</ele>
        <time>2014-05-20T09:51:02Z</time>
      </trkpt>
      <trkpt lat="44.509952114894986" lon="5.437651220709086">
        <ele>763.4000244140625</ele>
        <time>2014-05-20T09:51:03Z</time>
      </trkpt>
      <trkpt lat="44.50976712629199" lon="5.43769933283329">
        <ele>763.20001220703125</ele>
        <time>2014-05-20T09:51:06Z</time>
      </trkpt>
      <trkpt lat="44.509642822667956" lon="5.43771886266768">
        <ele>763.4000244140625</ele>
        <time>2014-05-20T09:51:08Z</time>
      </trkpt>
      <trkpt lat="44.509315006434917" lon="5.437734704464674">
        <ele>763</ele>
        <time>2014-05-20T09:51:13Z</time>
      </trkpt>
      <trkpt lat="44.50924769975245" lon="5.437738727778196">
        <ele>762.5999755859375</ele>
        <time>2014-05-20T09:51:14Z</time>
      </trkpt>
      <trkpt lat="44.509048210456967" lon="5.437758257612586">
        <ele>761.79998779296875</ele>
        <time>2014-05-20T09:51:17Z</time>
      </trkpt>
      <trkpt lat="44.508665995672345" lon="5.43782439082861">
        <ele>762.20001220703125</ele>
        <time>2014-05-20T09:51:23Z</time>
      </trkpt>
      <trkpt lat="44.508309848606586" lon="5.437931343913078">
        <ele>762.79998779296875</ele>
        <time>2014-05-20T09:51:29Z</time>
      </trkpt>
      <trkpt lat="44.508252432569861" lon="5.437955232337117">
        <ele>763</ele>
        <time>2014-05-20T09:51:30Z</time>
      </trkpt>
      <trkpt lat="44.507875917479396" lon="5.438146507367492">
        <ele>763.4000244140625</ele>
        <time>2014-05-20T09:51:37Z</time>
      </trkpt>
      <trkpt lat="44.507668800652027" lon="5.438264776021242">
        <ele>763.79998779296875</ele>
        <time>2014-05-20T09:51:42Z</time>
      </trkpt>
      <trkpt lat="44.507489008828998" lon="5.43833845295012">
        <ele>764.4000244140625</ele>
        <time>2014-05-20T09:51:47Z</time>
      </trkpt>
      <trkpt lat="44.507225481793284" lon="5.438405927270651">
        <ele>762.20001220703125</ele>
        <time>2014-05-20T09:51:52Z</time>
      </trkpt>
      <trkpt lat="44.507029429078102" lon="5.438433336094022">
        <ele>761</ele>
        <time>2014-05-20T09:51:55Z</time>
      </trkpt>
      <trkpt lat="44.506813511252403" lon="5.438430067151785">
        <ele>759.20001220703125</ele>
        <time>2014-05-20T09:51:58Z</time>
      </trkpt>
      <trkpt lat="44.506672192364931" lon="5.438403077423573">
        <ele>758.20001220703125</ele>
        <time>2014-05-20T09:52:00Z</time>
      </trkpt>
      <trkpt lat="44.506531208753586" lon="5.438368292525411">
        <ele>757.20001220703125</ele>
        <time>2014-05-20T09:52:02Z</time>
      </trkpt>
      <trkpt lat="44.506324259564281" lon="5.438319174572825">
        <ele>756.5999755859375</ele>
        <time>2014-05-20T09:52:05Z</time>
      </trkpt>
      <trkpt lat="44.50619668699801" lon="5.43827248737216">
        <ele>756.5999755859375</ele>
        <time>2014-05-20T09:52:07Z</time>
      </trkpt>
      <trkpt lat="44.505969872698188" lon="5.438201073557138">
        <ele>756.4000244140625</ele>
        <time>2014-05-20T09:52:11Z</time>
      </trkpt>
      <trkpt lat="44.505768707022071" lon="5.438136616721749">
        <ele>758.4000244140625</ele>
        <time>2014-05-20T09:52:15Z</time>
      </trkpt>
      <trkpt lat="44.505629651248455" lon="5.438101999461651">
        <ele>758.79998779296875</ele>
        <time>2014-05-20T09:52:18Z</time>
      </trkpt>
      <trkpt lat="44.505586316809058" lon="5.438095545396209">
        <ele>758.79998779296875</ele>
        <time>2014-05-20T09:52:19Z</time>
      </trkpt>
      <trkpt lat="44.505425887182355" lon="5.438109124079347">
        <ele>758.79998779296875</ele>
        <time>2014-05-20T09:52:23Z</time>
      </trkpt>
      <trkpt lat="44.505301499739289" lon="5.438148602843285">
        <ele>758.4000244140625</ele>
        <time>2014-05-20T09:52:26Z</time>
      </trkpt>
      <trkpt lat="44.50511927716434" lon="5.438196631148458">
        <ele>757.20001220703125</ele>
        <time>2014-05-20T09:52:30Z</time>
      </trkpt>
      <trkpt lat="44.504969324916601" lon="5.438201827928424">
        <ele>756.4000244140625</ele>
        <time>2014-05-20T09:52:33Z</time>
      </trkpt>
      <trkpt lat="44.504919033497572" lon="5.438201660290361">
        <ele>756.20001220703125</ele>
        <time>2014-05-20T09:52:34Z</time>
      </trkpt>
      <trkpt lat="44.50471711345017" lon="5.438180956989527">
        <ele>756.4000244140625</ele>
        <time>2014-05-20T09:52:38Z</time>
      </trkpt>
      <trkpt lat="44.504663469269872" lon="5.438181878998876">
        <ele>756.5999755859375</ele>
        <time>2014-05-20T09:52:39Z</time>
      </trkpt>
      <trkpt lat="44.504456436261535" lon="5.438236948102713">
        <ele>755.4000244140625</ele>
        <time>2014-05-20T09:52:43Z</time>
      </trkpt>
      <trkpt lat="44.504406144842505" lon="5.43826368637383">
        <ele>755.4000244140625</ele>
        <time>2014-05-20T09:52:44Z</time>
      </trkpt>
      <trkpt lat="44.504232807084918" lon="5.43843375518918">
        <ele>755.79998779296875</ele>
        <time>2014-05-20T09:52:48Z</time>
      </trkpt>
      <trkpt lat="44.504193747416139" lon="5.438480190932751">
        <ele>756.20001220703125</ele>
        <time>2014-05-20T09:52:49Z</time>
      </trkpt>
      <trkpt lat="44.504160135984421" lon="5.438528303056955">
        <ele>756.20001220703125</ele>
        <time>2014-05-20T09:52:50Z</time>
      </trkpt>
      <trkpt lat="44.50409266166389" lon="5.438616396859288">
        <ele>756.4000244140625</ele>
        <time>2014-05-20T09:52:52Z</time>
      </trkpt>
      <trkpt lat="44.504027785733342" lon="5.43871027417481">
        <ele>756.79998779296875</ele>
        <time>2014-05-20T09:52:54Z</time>
      </trkpt>
      <trkpt lat="44.503794433549047" lon="5.439110090956092">
        <ele>755.5999755859375</ele>
        <time>2014-05-20T09:53:01Z</time>
      </trkpt>
      <trkpt lat="44.50371983461082" lon="5.43923850171268">
        <ele>755</ele>
        <time>2014-05-20T09:53:03Z</time>
      </trkpt>
      <trkpt lat="44.503635680302978" lon="5.439370768144727">
        <ele>753.5999755859375</ele>
        <time>2014-05-20T09:53:05Z</time>
      </trkpt>
      <trkpt lat="44.503549514338374" lon="5.439518205821514">
        <ele>752.79998779296875</ele>
        <time>2014-05-20T09:53:07Z</time>
      </trkpt>
      <trkpt lat="44.503503665328026" lon="5.439594145864248">
        <ele>752.4000244140625</ele>
        <time>2014-05-20T09:53:08Z</time>
      </trkpt>
      <trkpt lat="44.503198061138391" lon="5.440125055611134">
        <ele>751.4000244140625</ele>
        <time>2014-05-20T09:53:15Z</time>
      </trkpt>
      <trkpt lat="44.503153804689646" lon="5.440196385607123">
        <ele>751.20001220703125</ele>
        <time>2014-05-20T09:53:16Z</time>
      </trkpt>
      <trkpt lat="44.502948531880975" lon="5.44056904502213">
        <ele>750.5999755859375</ele>
        <time>2014-05-20T09:53:21Z</time>
      </trkpt>
      <trkpt lat="44.502900587394834" lon="5.440629310905933">
        <ele>750.5999755859375</ele>
        <time>2014-05-20T09:53:22Z</time>
      </trkpt>
      <trkpt lat="44.50260235927999" lon="5.440877750515938">
        <ele>750.79998779296875</ele>
        <time>2014-05-20T09:53:28Z</time>
      </trkpt>
      <trkpt lat="44.502245374023914" lon="5.44109333306551">
        <ele>750.5999755859375</ele>
        <time>2014-05-20T09:53:35Z</time>
      </trkpt>
      <trkpt lat="44.502194076776505" lon="5.441118562594056">
        <ele>750.20001220703125</ele>
        <time>2014-05-20T09:53:36Z</time>
      </trkpt>
      <trkpt lat="44.501931807026267" lon="5.441243872046471">
        <ele>751</ele>
        <time>2014-05-20T09:53:41Z</time>
      </trkpt>
      <trkpt lat="44.501589071005583" lon="5.441357530653477">
        <ele>750.4000244140625</ele>
        <time>2014-05-20T09:53:48Z</time>
      </trkpt>
      <trkpt lat="44.50126058422029" lon="5.441358536481857">
        <ele>750.5999755859375</ele>
        <time>2014-05-20T09:53:54Z</time>
      </trkpt>
      <trkpt lat="44.501206688582897" lon="5.441373120993376">
        <ele>750.79998779296875</ele>
        <time>2014-05-20T09:53:55Z</time>
      </trkpt>
      <trkpt lat="44.501025136560202" lon="5.441443612799048">
        <ele>750.20001220703125</ele>
        <time>2014-05-20T09:53:58Z</time>
      </trkpt>
      <trkpt lat="44.500889349728823" lon="5.441513685509563">
        <ele>749</ele>
        <time>2014-05-20T09:54:00Z</time>
      </trkpt>
      <trkpt lat="44.500661110505462" lon="5.441645197570324">
        <ele>747.4000244140625</ele>
        <time>2014-05-20T09:54:03Z</time>
      </trkpt>
      <trkpt lat="44.500583074986935" lon="5.441691884770989">
        <ele>746.79998779296875</ele>
        <time>2014-05-20T09:54:04Z</time>
      </trkpt>
      <trkpt lat="44.500503111630678" lon="5.441737398505211">
        <ele>746</ele>
        <time>2014-05-20T09:54:05Z</time>
      </trkpt>
      <trkpt lat="44.500339832156897" lon="5.441825492307544">
        <ele>744.5999755859375</ele>
        <time>2014-05-20T09:54:07Z</time>
      </trkpt>
      <trkpt lat="44.499992066994309" lon="5.441973097622395">
        <ele>743.5999755859375</ele>
        <time>2014-05-20T09:54:11Z</time>
      </trkpt>
      <trkpt lat="44.499628208577633" lon="5.442104777321219">
        <ele>742.4000244140625</ele>
        <time>2014-05-20T09:54:15Z</time>
      </trkpt>
      <trkpt lat="44.499545898288488" lon="5.442158924415708">
        <ele>742.4000244140625</ele>
        <time>2014-05-20T09:54:16Z</time>
      </trkpt>
      <trkpt lat="44.499468700960279" lon="5.4422318469733">
        <ele>742.4000244140625</ele>
        <time>2014-05-20T09:54:17Z</time>
      </trkpt>
      <trkpt lat="44.499328723177314" lon="5.442410297691822">
        <ele>741</ele>
        <time>2014-05-20T09:54:19Z</time>
      </trkpt>
      <trkpt lat="44.49919855222106" lon="5.442601572722197">
        <ele>740</ele>
        <time>2014-05-20T09:54:21Z</time>
      </trkpt>
      <trkpt lat="44.499129233881831" lon="5.442687319591641">
        <ele>739.79998779296875</ele>
        <time>2014-05-20T09:54:22Z</time>
      </trkpt>
      <trkpt lat="44.49898456223309" lon="5.442834254354239">
        <ele>739.4000244140625</ele>
        <time>2014-05-20T09:54:24Z</time>
      </trkpt>
      <trkpt lat="44.498900827020407" lon="5.442883288487792">
        <ele>739.5999755859375</ele>
        <time>2014-05-20T09:54:25Z</time>
      </trkpt>
      <trkpt lat="44.498644089326262" lon="5.442922348156571">
        <ele>739</ele>
        <time>2014-05-20T09:54:28Z</time>
      </trkpt>
      <trkpt lat="44.498561276122928" lon="5.4429105296731">
        <ele>738.20001220703125</ele>
        <time>2014-05-20T09:54:29Z</time>
      </trkpt>
      <trkpt lat="44.498483156785369" lon="5.442895358428359">
        <ele>737.79998779296875</ele>
        <time>2014-05-20T09:54:30Z</time>
      </trkpt>
      <trkpt lat="44.498257599771023" lon="5.442869374528527">
        <ele>738.20001220703125</ele>
        <time>2014-05-20T09:54:33Z</time>
      </trkpt>
      <trkpt lat="44.497987786307931" lon="5.442889323458076">
        <ele>739.4000244140625</ele>
        <time>2014-05-20T09:54:37Z</time>
      </trkpt>
      <trkpt lat="44.497865494340658" lon="5.442910362035036">
        <ele>739.5999755859375</ele>
        <time>2014-05-20T09:54:39Z</time>
      </trkpt>
      <trkpt lat="44.49774881824851" lon="5.442930646240711">
        <ele>740.5999755859375</ele>
        <time>2014-05-20T09:54:41Z</time>
      </trkpt>
      <trkpt lat="44.497582102194428" lon="5.442929221317172">
        <ele>741.4000244140625</ele>
        <time>2014-05-20T09:54:44Z</time>
      </trkpt>
      <trkpt lat="44.497527871280909" lon="5.442918408662081">
        <ele>741.5999755859375</ele>
        <time>2014-05-20T09:54:45Z</time>
      </trkpt>
      <trkpt lat="44.497428797185421" lon="5.442899381741881">
        <ele>741.79998779296875</ele>
        <time>2014-05-20T09:54:47Z</time>
      </trkpt>
      <trkpt lat="44.497193684801459" lon="5.442851185798645">
        <ele>743</ele>
        <time>2014-05-20T09:54:52Z</time>
      </trkpt>
      <trkpt lat="44.497053204104304" lon="5.44284900650382">
        <ele>743.20001220703125</ele>
        <time>2014-05-20T09:54:55Z</time>
      </trkpt>
      <trkpt lat="44.496928816661239" lon="5.442907009273768">
        <ele>743.4000244140625</ele>
        <time>2014-05-20T09:54:58Z</time>
      </trkpt>
      <trkpt lat="44.496891098096967" lon="5.442937351763248">
        <ele>743.5999755859375</ele>
        <time>2014-05-20T09:54:59Z</time>
      </trkpt>
      <trkpt lat="44.496763441711664" lon="5.443066265434027">
        <ele>744.20001220703125</ele>
        <time>2014-05-20T09:55:03Z</time>
      </trkpt>
      <trkpt lat="44.496736032888293" lon="5.44310406781733">
        <ele>744.4000244140625</ele>
        <time>2014-05-20T09:55:04Z</time>
      </trkpt>
      <trkpt lat="44.496508212760091" lon="5.44345292262733">
        <ele>744.5999755859375</ele>
        <time>2014-05-20T09:55:12Z</time>
      </trkpt>
      <trkpt lat="44.49638407677412" lon="5.443618968129158">
        <ele>745.20001220703125</ele>
        <time>2014-05-20T09:55:16Z</time>
      </trkpt>
      <trkpt lat="44.496288103982806" lon="5.44373488985002">
        <ele>745.79998779296875</ele>
        <time>2014-05-20T09:55:19Z</time>
      </trkpt>
      <trkpt lat="44.496134715154767" lon="5.443840753287077">
        <ele>746.4000244140625</ele>
        <time>2014-05-20T09:55:23Z</time>
      </trkpt>
      <trkpt lat="44.496057350188494" lon="5.443883333355188">
        <ele>746.4000244140625</ele>
        <time>2014-05-20T09:55:25Z</time>
      </trkpt>
      <trkpt lat="44.495945535600185" lon="5.443949550390244">
        <ele>746.5999755859375</ele>
        <time>2014-05-20T09:55:28Z</time>
      </trkpt>
      <trkpt lat="44.495841264724731" lon="5.444037644192576">
        <ele>747.20001220703125</ele>
        <time>2014-05-20T09:55:31Z</time>
      </trkpt>
      <trkpt lat="44.495808072388172" lon="5.444072177633643">
        <ele>747.4000244140625</ele>
        <time>2014-05-20T09:55:32Z</time>
      </trkpt>
      <trkpt lat="44.495621155947447" lon="5.444283988326788">
        <ele>747.5999755859375</ele>
        <time>2014-05-20T09:55:38Z</time>
      </trkpt>
      <trkpt lat="44.495381098240614" lon="5.444553550332785">
        <ele>748.5999755859375</ele>
        <time>2014-05-20T09:55:46Z</time>
      </trkpt>
      <trkpt lat="44.495185296982527" lon="5.444678608328104">
        <ele>749.20001220703125</ele>
        <time>2014-05-20T09:55:52Z</time>
      </trkpt>
      <trkpt lat="44.495044816285372" lon="5.444743316620588">
        <ele>749.5999755859375</ele>
        <time>2014-05-20T09:55:56Z</time>
      </trkpt>
      <trkpt lat="44.495014473795891" lon="5.444760834798217">
        <ele>749.79998779296875</ele>
        <time>2014-05-20T09:55:57Z</time>
      </trkpt>
      <trkpt lat="44.494812218472362" lon="5.444868374615908">
        <ele>750.5999755859375</ele>
        <time>2014-05-20T09:56:03Z</time>
      </trkpt>
      <trkpt lat="44.494742397218943" lon="5.444905171170831">
        <ele>750.79998779296875</ele>
        <time>2014-05-20T09:56:05Z</time>
      </trkpt>
      <trkpt lat="44.4945321790874" lon="5.444989325478673">
        <ele>750.20001220703125</ele>
        <time>2014-05-20T09:56:11Z</time>
      </trkpt>
      <trkpt lat="44.494305951520801" lon="5.445003993809223">
        <ele>750</ele>
        <time>2014-05-20T09:56:16Z</time>
      </trkpt>
      <trkpt lat="44.494251301512122" lon="5.444990415126085">
        <ele>749.5999755859375</ele>
        <time>2014-05-20T09:56:17Z</time>
      </trkpt>
      <trkpt lat="44.493967071175575" lon="5.444898214191198">
        <ele>748.4000244140625</ele>
        <time>2014-05-20T09:56:22Z</time>
      </trkpt>
      <trkpt lat="44.493900518864393" lon="5.444892095401883">
        <ele>748</ele>
        <time>2014-05-20T09:56:23Z</time>
      </trkpt>
      <trkpt lat="44.493760541081429" lon="5.444872230291367">
        <ele>747.4000244140625</ele>
        <time>2014-05-20T09:56:25Z</time>
      </trkpt>
      <trkpt lat="44.493537414819002" lon="5.444789249449968">
        <ele>745.79998779296875</ele>
        <time>2014-05-20T09:56:28Z</time>
      </trkpt>
      <trkpt lat="44.493381595239043" lon="5.444729318842292">
        <ele>744.79998779296875</ele>
        <time>2014-05-20T09:56:30Z</time>
      </trkpt>
      <trkpt lat="44.492976749315858" lon="5.444558663293719">
        <ele>743.4000244140625</ele>
        <time>2014-05-20T09:56:35Z</time>
      </trkpt>
      <trkpt lat="44.492896199226379" lon="5.44452304020524">
        <ele>743.20001220703125</ele>
        <time>2014-05-20T09:56:36Z</time>
      </trkpt>
      <trkpt lat="44.492646837607026" lon="5.444416087120771">
        <ele>742.4000244140625</ele>
        <time>2014-05-20T09:56:39Z</time>
      </trkpt>
      <trkpt lat="44.492482217028737" lon="5.444334782660008">
        <ele>740.79998779296875</ele>
        <time>2014-05-20T09:56:41Z</time>
      </trkpt>
      <trkpt lat="44.49231575243175" lon="5.444232355803251">
        <ele>739.4000244140625</ele>
        <time>2014-05-20T09:56:43Z</time>
      </trkpt>
      <trkpt lat="44.492154065519571" lon="5.444106291979551">
        <ele>738</ele>
        <time>2014-05-20T09:56:45Z</time>
      </trkpt>
      <trkpt lat="44.492080053314567" lon="5.444020964205265">
        <ele>737.5999755859375</ele>
        <time>2014-05-20T09:56:46Z</time>
      </trkpt>
      <trkpt lat="44.492009393870831" lon="5.44392985291779">
        <ele>737.4000244140625</ele>
        <time>2014-05-20T09:56:47Z</time>
      </trkpt>
      <trkpt lat="44.4918745290488" lon="5.443736901506782">
        <ele>736.79998779296875</ele>
        <time>2014-05-20T09:56:49Z</time>
      </trkpt>
      <trkpt lat="44.491754667833447" lon="5.443517798557878">
        <ele>735.4000244140625</ele>
        <time>2014-05-20T09:56:51Z</time>
      </trkpt>
      <trkpt lat="44.491698425263166" lon="5.443407827988267">
        <ele>735</ele>
        <time>2014-05-20T09:56:52Z</time>
      </trkpt>
      <trkpt lat="44.49156666174531" lon="5.443213619291782">
        <ele>734.5999755859375</ele>
        <time>2014-05-20T09:56:54Z</time>
      </trkpt>
      <trkpt lat="44.491487201303244" lon="5.443136924877763">
        <ele>734.20001220703125</ele>
        <time>2014-05-20T09:56:55Z</time>
      </trkpt>
      <trkpt lat="44.491399861872196" lon="5.443082777783275">
        <ele>733.5999755859375</ele>
        <time>2014-05-20T09:56:56Z</time>
      </trkpt>
      <trkpt lat="44.491305816918612" lon="5.443059392273426">
        <ele>733</ele>
        <time>2014-05-20T09:56:57Z</time>
      </trkpt>
      <trkpt lat="44.491118649020791" lon="5.443069869652391">
        <ele>732.4000244140625</ele>
        <time>2014-05-20T09:56:59Z</time>
      </trkpt>
      <trkpt lat="44.491024436429143" lon="5.443086046725512">
        <ele>731.79998779296875</ele>
        <time>2014-05-20T09:57:00Z</time>
      </trkpt>
      <trkpt lat="44.490931564942002" lon="5.443106414750218">
        <ele>731</ele>
        <time>2014-05-20T09:57:01Z</time>
      </trkpt>
      <trkpt lat="44.49083810672164" lon="5.443126866593957">
        <ele>730.5999755859375</ele>
        <time>2014-05-20T09:57:02Z</time>
      </trkpt>
      <trkpt lat="44.490545243024826" lon="5.443168105557561">
        <ele>730.20001220703125</ele>
        <time>2014-05-20T09:57:05Z</time>
      </trkpt>
      <trkpt lat="44.490343658253551" lon="5.443161148577929">
        <ele>729.20001220703125</ele>
        <time>2014-05-20T09:57:07Z</time>
      </trkpt>
      <trkpt lat="44.490139726549387" lon="5.443129213526845">
        <ele>728</ele>
        <time>2014-05-20T09:57:09Z</time>
      </trkpt>
      <trkpt lat="44.490036042407155" lon="5.443113539367914">
        <ele>727.4000244140625</ele>
        <time>2014-05-20T09:57:10Z</time>
      </trkpt>
      <trkpt lat="44.489932358264923" lon="5.443096943199635">
        <ele>726.4000244140625</ele>
        <time>2014-05-20T09:57:11Z</time>
      </trkpt>
      <trkpt lat="44.489727336913347" lon="5.443087387830019">
        <ele>725.4000244140625</ele>
        <time>2014-05-20T09:57:13Z</time>
      </trkpt>
      <trkpt lat="44.48962390422821" lon="5.443099122494459">
        <ele>725.20001220703125</ele>
        <time>2014-05-20T09:57:14Z</time>
      </trkpt>
      <trkpt lat="44.489522650837898" lon="5.443134494125843">
        <ele>724.4000244140625</ele>
        <time>2014-05-20T09:57:15Z</time>
      </trkpt>
      <trkpt lat="44.489324251189828" lon="5.443241950124502">
        <ele>722.4000244140625</ele>
        <time>2014-05-20T09:57:17Z</time>
      </trkpt>
      <trkpt lat="44.489143034443259" lon="5.443391231819987">
        <ele>721</ele>
        <time>2014-05-20T09:57:19Z</time>
      </trkpt>
      <trkpt lat="44.488975564017892" lon="5.44357655569911">
        <ele>720</ele>
        <time>2014-05-20T09:57:21Z</time>
      </trkpt>
      <trkpt lat="44.488804321736097" lon="5.443749725818634">
        <ele>718.5999755859375</ele>
        <time>2014-05-20T09:57:23Z</time>
      </trkpt>
      <trkpt lat="44.48871354572475" lon="5.443823402747512">
        <ele>717.5999755859375</ele>
        <time>2014-05-20T09:57:24Z</time>
      </trkpt>
      <trkpt lat="44.488624697551131" lon="5.443894313648343">
        <ele>716.5999755859375</ele>
        <time>2014-05-20T09:57:25Z</time>
      </trkpt>
      <trkpt lat="44.488457981497049" lon="5.444058515131474">
        <ele>716.4000244140625</ele>
        <time>2014-05-20T09:57:27Z</time>
      </trkpt>
      <trkpt lat="44.488308867439628" lon="5.444268397986889">
        <ele>714.5999755859375</ele>
        <time>2014-05-20T09:57:29Z</time>
      </trkpt>
      <trkpt lat="44.488171739503741" lon="5.444495212286711">
        <ele>713.5999755859375</ele>
        <time>2014-05-20T09:57:31Z</time>
      </trkpt>
      <trkpt lat="44.488016841933131" lon="5.444712303578854">
        <ele>712.20001220703125</ele>
        <time>2014-05-20T09:57:33Z</time>
      </trkpt>
      <trkpt lat="44.487934280186892" lon="5.444816742092371">
        <ele>711.20001220703125</ele>
        <time>2014-05-20T09:57:34Z</time>
      </trkpt>
      <trkpt lat="44.487772593274713" lon="5.445031402632594">
        <ele>709</ele>
        <time>2014-05-20T09:57:36Z</time>
      </trkpt>
      <trkpt lat="44.487633956596255" lon="5.445276238024235">
        <ele>707</ele>
        <time>2014-05-20T09:57:38Z</time>
      </trkpt>
      <trkpt lat="44.487516358494759" lon="5.445538843050599">
        <ele>705.79998779296875</ele>
        <time>2014-05-20T09:57:40Z</time>
      </trkpt>
      <trkpt lat="44.48734637349844" lon="5.445923069491983">
        <ele>704.4000244140625</ele>
        <time>2014-05-20T09:57:43Z</time>
      </trkpt>
      <trkpt lat="44.487102711573243" lon="5.446180058643222">
        <ele>704.4000244140625</ele>
        <time>2014-05-20T09:57:46Z</time>
      </trkpt>
      <trkpt lat="44.487015539780259" lon="5.446249628439546">
        <ele>704.4000244140625</ele>
        <time>2014-05-20T09:57:47Z</time>
      </trkpt>
      <trkpt lat="44.486839519813657" lon="5.446385750547051">
        <ele>703.20001220703125</ele>
        <time>2014-05-20T09:57:49Z</time>
      </trkpt>
      <trkpt lat="44.486508602276444" lon="5.446677105501294">
        <ele>702</ele>
        <time>2014-05-20T09:57:53Z</time>
      </trkpt>
      <trkpt lat="44.486427800729871" lon="5.446754554286599">
        <ele>701.5999755859375</ele>
        <time>2014-05-20T09:57:54Z</time>
      </trkpt>
      <trkpt lat="44.486265862360597" lon="5.44691632501781">
        <ele>700.5999755859375</ele>
        <time>2014-05-20T09:57:56Z</time>
      </trkpt>
      <trkpt lat="44.486102666705847" lon="5.447092847898603">
        <ele>699.20001220703125</ele>
        <time>2014-05-20T09:57:58Z</time>
      </trkpt>
      <trkpt lat="44.485869901254773" lon="5.447385376319289">
        <ele>698</ele>
        <time>2014-05-20T09:58:01Z</time>
      </trkpt>
      <trkpt lat="44.485736042261124" lon="5.447609508410096">
        <ele>696</ele>
        <time>2014-05-20T09:58:03Z</time>
      </trkpt>
      <trkpt lat="44.485611906275153" lon="5.447837831452489">
        <ele>694.79998779296875</ele>
        <time>2014-05-20T09:58:05Z</time>
      </trkpt>
      <trkpt lat="44.485547784715891" lon="5.447946628555656">
        <ele>694.5999755859375</ele>
        <time>2014-05-20T09:58:06Z</time>
      </trkpt>
      <trkpt lat="44.485439071431756" lon="5.448150224983692">
        <ele>693.79998779296875</ele>
        <time>2014-05-20T09:58:08Z</time>
      </trkpt>
      <trkpt lat="44.485377045348287" lon="5.448225494474173">
        <ele>693.4000244140625</ele>
        <time>2014-05-20T09:58:09Z</time>
      </trkpt>
      <trkpt lat="44.485307727009058" lon="5.448272936046124">
        <ele>692.79998779296875</ele>
        <time>2014-05-20T09:58:10Z</time>
      </trkpt>
      <trkpt lat="44.485090300440788" lon="5.448288023471832">
        <ele>691.5999755859375</ele>
        <time>2014-05-20T09:58:12Z</time>
      </trkpt>
      <trkpt lat="44.484866838902235" lon="5.44822633266449">
        <ele>690.20001220703125</ele>
        <time>2014-05-20T09:58:14Z</time>
      </trkpt>
      <trkpt lat="44.48475862853229" lon="5.448205713182688">
        <ele>689</ele>
        <time>2014-05-20T09:58:15Z</time>
      </trkpt>
      <trkpt lat="44.484532568603754" lon="5.448176125064492">
        <ele>686.5999755859375</ele>
        <time>2014-05-20T09:58:17Z</time>
      </trkpt>
      <trkpt lat="44.484300222247839" lon="5.44813203625381">
        <ele>685.20001220703125</ele>
        <time>2014-05-20T09:58:19Z</time>
      </trkpt>
      <trkpt lat="44.484183881431818" lon="5.448112338781357">
        <ele>684.5999755859375</ele>
        <time>2014-05-20T09:58:20Z</time>
      </trkpt>
      <trkpt lat="44.484066031873226" lon="5.448108064010739">
        <ele>683.79998779296875</ele>
        <time>2014-05-20T09:58:21Z</time>
      </trkpt>
      <trkpt lat="44.483946505934" lon="5.448119379580021">
        <ele>682.5999755859375</ele>
        <time>2014-05-20T09:58:22Z</time>
      </trkpt>
      <trkpt lat="44.483826225623488" lon="5.448141843080521">
        <ele>681</ele>
        <time>2014-05-20T09:58:23Z</time>
      </trkpt>
      <trkpt lat="44.483708962798119" lon="5.448179729282856">
        <ele>679.4000244140625</ele>
        <time>2014-05-20T09:58:24Z</time>
      </trkpt>
      <trkpt lat="44.483481897041202" lon="5.448292046785355">
        <ele>677.4000244140625</ele>
        <time>2014-05-20T09:58:26Z</time>
      </trkpt>
      <trkpt lat="44.483369579538703" lon="5.448359437286854">
        <ele>676.5999755859375</ele>
        <time>2014-05-20T09:58:27Z</time>
      </trkpt>
      <trkpt lat="44.483262626454234" lon="5.448435544967651">
        <ele>675.79998779296875</ele>
        <time>2014-05-20T09:58:28Z</time>
      </trkpt>
      <trkpt lat="44.483050480484962" lon="5.448592202737927">
        <ele>674.4000244140625</ele>
        <time>2014-05-20T09:58:30Z</time>
      </trkpt>
      <trkpt lat="44.482840597629547" lon="5.448712566867471">
        <ele>674.4000244140625</ele>
        <time>2014-05-20T09:58:32Z</time>
      </trkpt>
      <trkpt lat="44.482613615691662" lon="5.448744250461459">
        <ele>673.20001220703125</ele>
        <time>2014-05-20T09:58:34Z</time>
      </trkpt>
      <trkpt lat="44.482501046732068" lon="5.448732431977987">
        <ele>672.20001220703125</ele>
        <time>2014-05-20T09:58:35Z</time>
      </trkpt>
      <trkpt lat="44.48239216580987" lon="5.448722038418055">
        <ele>671</ele>
        <time>2014-05-20T09:58:36Z</time>
      </trkpt>
      <trkpt lat="44.482288062572479" lon="5.448723714798689">
        <ele>670.20001220703125</ele>
        <time>2014-05-20T09:58:37Z</time>
      </trkpt>
      <trkpt lat="44.482186641544104" lon="5.448744082823396">
        <ele>669</ele>
        <time>2014-05-20T09:58:38Z</time>
      </trkpt>
      <trkpt lat="44.482089579105377" lon="5.448781633749604">
        <ele>668.20001220703125</ele>
        <time>2014-05-20T09:58:39Z</time>
      </trkpt>
      <trkpt lat="44.481995701789856" lon="5.448841731995344">
        <ele>667.5999755859375</ele>
        <time>2014-05-20T09:58:40Z</time>
      </trkpt>
      <trkpt lat="44.48191137984395" lon="5.448918594047427">
        <ele>665</ele>
        <time>2014-05-20T09:58:41Z</time>
      </trkpt>
      <trkpt lat="44.481837283819914" lon="5.449015656486154">
        <ele>663.5999755859375</ele>
        <time>2014-05-20T09:58:42Z</time>
      </trkpt>
      <trkpt lat="44.481724044308066" lon="5.44924657791853">
        <ele>662.20001220703125</ele>
        <time>2014-05-20T09:58:44Z</time>
      </trkpt>
      <trkpt lat="44.481680626049638" lon="5.44937364757061">
        <ele>662</ele>
        <time>2014-05-20T09:58:45Z</time>
      </trkpt>
      <trkpt lat="44.481634441763163" lon="5.449504824355245">
        <ele>662</ele>
        <time>2014-05-20T09:58:46Z</time>
      </trkpt>
      <trkpt lat="44.481464372947812" lon="5.449876645579934">
        <ele>660.79998779296875</ele>
        <time>2014-05-20T09:58:49Z</time>
      </trkpt>
      <trkpt lat="44.481395641341805" lon="5.449995333328843">
        <ele>659.79998779296875</ele>
        <time>2014-05-20T09:58:50Z</time>
      </trkpt>
      <trkpt lat="44.481323137879372" lon="5.45011050067842">
        <ele>658.79998779296875</ele>
        <time>2014-05-20T09:58:51Z</time>
      </trkpt>
      <trkpt lat="44.481164216995239" lon="5.450338656082749">
        <ele>656.79998779296875</ele>
        <time>2014-05-20T09:58:53Z</time>
      </trkpt>
      <trkpt lat="44.48108023032546" lon="5.45045742765069">
        <ele>655.5999755859375</ele>
        <time>2014-05-20T09:58:54Z</time>
      </trkpt>
      <trkpt lat="44.48099372908473" lon="5.450584916397929">
        <ele>654.20001220703125</ele>
        <time>2014-05-20T09:58:55Z</time>
      </trkpt>
      <trkpt lat="44.480909071862698" lon="5.450712656602264">
        <ele>653</ele>
        <time>2014-05-20T09:58:56Z</time>
      </trkpt>
      <trkpt lat="44.480823995545506" lon="5.45083561912179">
        <ele>652</ele>
        <time>2014-05-20T09:58:57Z</time>
      </trkpt>
      <trkpt lat="44.480649316683412" lon="5.451064025983214">
        <ele>650.4000244140625</ele>
        <time>2014-05-20T09:58:59Z</time>
      </trkpt>
      <trkpt lat="44.480453850701451" lon="5.451255552470684">
        <ele>648.20001220703125</ele>
        <time>2014-05-20T09:59:01Z</time>
      </trkpt>
      <trkpt lat="44.480347568169236" lon="5.45133157633245">
        <ele>646.5999755859375</ele>
        <time>2014-05-20T09:59:02Z</time>
      </trkpt>
      <trkpt lat="44.480236172676086" lon="5.451390920206904">
        <ele>645.20001220703125</ele>
        <time>2014-05-20T09:59:03Z</time>
      </trkpt>
      <trkpt lat="44.480124609544873" lon="5.451433919370174">
        <ele>643.79998779296875</ele>
        <time>2014-05-20T09:59:04Z</time>
      </trkpt>
      <trkpt lat="44.480015560984612" lon="5.45146007090807">
        <ele>642</ele>
        <time>2014-05-20T09:59:05Z</time>
      </trkpt>
      <trkpt lat="44.479806600138545" lon="5.451479516923428">
        <ele>641</ele>
        <time>2014-05-20T09:59:07Z</time>
      </trkpt>
      <trkpt lat="44.479611469432712" lon="5.451474990695715">
        <ele>639.79998779296875</ele>
        <time>2014-05-20T09:59:09Z</time>
      </trkpt>
      <trkpt lat="44.479429498314857" lon="5.45146694406867">
        <ele>639</ele>
        <time>2014-05-20T09:59:11Z</time>
      </trkpt>
      <trkpt lat="44.47934215888381" lon="5.451480858027935">
        <ele>638.5999755859375</ele>
        <time>2014-05-20T09:59:12Z</time>
      </trkpt>
      <trkpt lat="44.479179214686155" lon="5.451568951830268">
        <ele>637.5999755859375</ele>
        <time>2014-05-20T09:59:14Z</time>
      </trkpt>
      <trkpt lat="44.479052983224392" lon="5.451726196333766">
        <ele>636.4000244140625</ele>
        <time>2014-05-20T09:59:16Z</time>
      </trkpt>
      <trkpt lat="44.479000512510538" lon="5.45181579887867">
        <ele>635.79998779296875</ele>
        <time>2014-05-20T09:59:17Z</time>
      </trkpt>
      <trkpt lat="44.478901857510209" lon="5.451981509104371">
        <ele>635</ele>
        <time>2014-05-20T09:59:19Z</time>
      </trkpt>
      <trkpt lat="44.47876213118434" lon="5.452078739181161">
        <ele>635</ele>
        <time>2014-05-20T09:59:21Z</time>
      </trkpt>
      <trkpt lat="44.478612430393696" lon="5.45212903060019">
        <ele>634.4000244140625</ele>
        <time>2014-05-20T09:59:23Z</time>
      </trkpt>
      <trkpt lat="44.478540262207389" lon="5.452148728072643">
        <ele>633.4000244140625</ele>
        <time>2014-05-20T09:59:24Z</time>
      </trkpt>
      <trkpt lat="44.478463400155306" lon="5.452165408059955">
        <ele>632.79998779296875</ele>
        <time>2014-05-20T09:59:25Z</time>
      </trkpt>
      <trkpt lat="44.478310095146298" lon="5.452170940116048">
        <ele>632.20001220703125</ele>
        <time>2014-05-20T09:59:27Z</time>
      </trkpt>
      <trkpt lat="44.478162238374352" lon="5.452138921245933">
        <ele>630</ele>
        <time>2014-05-20T09:59:29Z</time>
      </trkpt>
      <trkpt lat="44.478018991649151" lon="5.452099358662963">
        <ele>629</ele>
        <time>2014-05-20T09:59:31Z</time>
      </trkpt>
      <trkpt lat="44.477592520415783" lon="5.452015874907374">
        <ele>628.79998779296875</ele>
        <time>2014-05-20T09:59:37Z</time>
      </trkpt>
      <trkpt lat="44.477455979213119" lon="5.45203716494143">
        <ele>630.20001220703125</ele>
        <time>2014-05-20T09:59:39Z</time>
      </trkpt>
      <trkpt lat="44.477329412475228" lon="5.452116709202528">
        <ele>629.79998779296875</ele>
        <time>2014-05-20T09:59:41Z</time>
      </trkpt>
      <trkpt lat="44.477272164076567" lon="5.452169431373477">
        <ele>629.20001220703125</ele>
        <time>2014-05-20T09:59:42Z</time>
      </trkpt>
      <trkpt lat="44.477216759696603" lon="5.452224584296346">
        <ele>628.4000244140625</ele>
        <time>2014-05-20T09:59:43Z</time>
      </trkpt>
      <trkpt lat="44.477162696421146" lon="5.452280743047595">
        <ele>627.5999755859375</ele>
        <time>2014-05-20T09:59:44Z</time>
      </trkpt>
      <trkpt lat="44.477059012278914" lon="5.452385013923049">
        <ele>626.5999755859375</ele>
        <time>2014-05-20T09:59:46Z</time>
      </trkpt>
      <trkpt lat="44.476944599300623" lon="5.452457433566451">
        <ele>628.4000244140625</ele>
        <time>2014-05-20T09:59:48Z</time>
      </trkpt>
      <trkpt lat="44.476827420294285" lon="5.452515268698335">
        <ele>628.5999755859375</ele>
        <time>2014-05-20T09:59:50Z</time>
      </trkpt>
      <trkpt lat="44.476771429181099" lon="5.452554076910019">
        <ele>628</ele>
        <time>2014-05-20T09:59:51Z</time>
      </trkpt>
      <trkpt lat="44.47665810585022" lon="5.452649295330048">
        <ele>627.20001220703125</ele>
        <time>2014-05-20T09:59:53Z</time>
      </trkpt>
      <trkpt lat="44.47654184885323" lon="5.452755829319358">
        <ele>627</ele>
        <time>2014-05-20T09:59:55Z</time>
      </trkpt>
      <trkpt lat="44.476429196074605" lon="5.452890275046229">
        <ele>625.5999755859375</ele>
        <time>2014-05-20T09:59:57Z</time>
      </trkpt>
      <trkpt lat="44.476319728419185" lon="5.453040143474937">
        <ele>624.5999755859375</ele>
        <time>2014-05-20T09:59:59Z</time>
      </trkpt>
      <trkpt lat="44.476263904944062" lon="5.453114826232195">
        <ele>624.4000244140625</ele>
        <time>2014-05-20T10:00:00Z</time>
      </trkpt>
      <trkpt lat="44.476108504459262" lon="5.453365696594119">
        <ele>623.4000244140625</ele>
        <time>2014-05-20T10:00:03Z</time>
      </trkpt>
      <trkpt lat="44.476005993783474" lon="5.453537357971072">
        <ele>623.20001220703125</ele>
        <time>2014-05-20T10:00:05Z</time>
      </trkpt>
      <trkpt lat="44.475854029878974" lon="5.453800046816468">
        <ele>622.20001220703125</ele>
        <time>2014-05-20T10:00:08Z</time>
      </trkpt>
      <trkpt lat="44.475661162286997" lon="5.45414999127388">
        <ele>621.20001220703125</ele>
        <time>2014-05-20T10:00:12Z</time>
      </trkpt>
      <trkpt lat="44.475523782894015" lon="5.454417709261179">
        <ele>619.79998779296875</ele>
        <time>2014-05-20T10:00:15Z</time>
      </trkpt>
      <trkpt lat="44.475368550047278" lon="5.454659527167678">
        <ele>618.5999755859375</ele>
        <time>2014-05-20T10:00:18Z</time>
      </trkpt>
      <trkpt lat="44.475307194516063" lon="5.454722223803401">
        <ele>618.20001220703125</ele>
        <time>2014-05-20T10:00:19Z</time>
      </trkpt>
      <trkpt lat="44.475160762667656" lon="5.454793889075518">
        <ele>617.4000244140625</ele>
        <time>2014-05-20T10:00:21Z</time>
      </trkpt>
      <trkpt lat="44.474930679425597" lon="5.45477838255465">
        <ele>617.5999755859375</ele>
        <time>2014-05-20T10:00:24Z</time>
      </trkpt>
      <trkpt lat="44.474731776863337" lon="5.45464888215065">
        <ele>617.20001220703125</ele>
        <time>2014-05-20T10:00:27Z</time>
      </trkpt>
      <trkpt lat="44.474667403846979" lon="5.454603871330619">
        <ele>616.5999755859375</ele>
        <time>2014-05-20T10:00:29Z</time>
      </trkpt>
      <trkpt lat="44.474605126306415" lon="5.454563302919269">
        <ele>616.20001220703125</ele>
        <time>2014-05-20T10:00:30Z</time>
      </trkpt>
      <trkpt lat="44.474357776343822" lon="5.454408237710595">
        <ele>615</ele>
        <time>2014-05-20T10:00:34Z</time>
      </trkpt>
      <trkpt lat="44.474173123016953" lon="5.454299440607429">
        <ele>616.4000244140625</ele>
        <time>2014-05-20T10:00:37Z</time>
      </trkpt>
      <trkpt lat="44.473931221291423" lon="5.454126689583063">
        <ele>617.20001220703125</ele>
        <time>2014-05-20T10:00:41Z</time>
      </trkpt>
      <trkpt lat="44.473819909617305" lon="5.454009510576725">
        <ele>615.79998779296875</ele>
        <time>2014-05-20T10:00:43Z</time>
      </trkpt>
      <trkpt lat="44.473715722560883" lon="5.4538778308779">
        <ele>615.4000244140625</ele>
        <time>2014-05-20T10:00:45Z</time>
      </trkpt>
      <trkpt lat="44.473598543554544" lon="5.453644813969731">
        <ele>614.79998779296875</ele>
        <time>2014-05-20T10:00:48Z</time>
      </trkpt>
      <trkpt lat="44.473563255742192" lon="5.453565688803792">
        <ele>614.5999755859375</ele>
        <time>2014-05-20T10:00:49Z</time>
      </trkpt>
      <trkpt lat="44.473529644310474" lon="5.453487066552043">
        <ele>614.20001220703125</ele>
        <time>2014-05-20T10:00:50Z</time>
      </trkpt>
      <trkpt lat="44.473329400643706" lon="5.453152628615499">
        <ele>614.20001220703125</ele>
        <time>2014-05-20T10:00:55Z</time>
      </trkpt>
      <trkpt lat="44.473277684301138" lon="5.453105354681611">
        <ele>614</ele>
        <time>2014-05-20T10:00:56Z</time>
      </trkpt>
      <trkpt lat="44.47312043979764" lon="5.452982895076275">
        <ele>613</ele>
        <time>2014-05-20T10:00:59Z</time>
      </trkpt>
      <trkpt lat="44.473067801445723" lon="5.452943332493305">
        <ele>612.5999755859375</ele>
        <time>2014-05-20T10:01:00Z</time>
      </trkpt>
      <trkpt lat="44.472809722647071" lon="5.452826991677284">
        <ele>612.79998779296875</ele>
        <time>2014-05-20T10:01:05Z</time>
      </trkpt>
      <trkpt lat="44.472594391554594" lon="5.452767731621862">
        <ele>612</ele>
        <time>2014-05-20T10:01:09Z</time>
      </trkpt>
      <trkpt lat="44.472539154812694" lon="5.452744429931045">
        <ele>611.79998779296875</ele>
        <time>2014-05-20T10:01:10Z</time>
      </trkpt>
      <trkpt lat="44.472434632480145" lon="5.452685924246907">
        <ele>612.4000244140625</ele>
        <time>2014-05-20T10:01:12Z</time>
      </trkpt>
      <trkpt lat="44.472098350524902" lon="5.452381242066622">
        <ele>611.79998779296875</ele>
        <time>2014-05-20T10:01:19Z</time>
      </trkpt>
      <trkpt lat="44.471910763531923" lon="5.452194325625897">
        <ele>610.79998779296875</ele>
        <time>2014-05-20T10:01:23Z</time>
      </trkpt>
      <trkpt lat="44.471681769937277" lon="5.451954435557127">
        <ele>610.5999755859375</ele>
        <time>2014-05-20T10:01:28Z</time>
      </trkpt>
      <trkpt lat="44.471399299800396" lon="5.45163843780756">
        <ele>610.79998779296875</ele>
        <time>2014-05-20T10:01:35Z</time>
      </trkpt>
      <trkpt lat="44.471258986741304" lon="5.451400727033615">
        <ele>611.79998779296875</ele>
        <time>2014-05-20T10:01:41Z</time>
      </trkpt>
      <trkpt lat="44.471243228763342" lon="5.451369546353817">
        <ele>612</ele>
        <time>2014-05-20T10:01:42Z</time>
      </trkpt>
      <trkpt lat="44.471201486885548" lon="5.451324367895722">
        <ele>612</ele>
        <time>2014-05-20T10:01:44Z</time>
      </trkpt>
      <trkpt lat="44.471138287335634" lon="5.4513169080019">
        <ele>612</ele>
        <time>2014-05-20T10:01:46Z</time>
      </trkpt>
      <trkpt lat="44.47100124321878" lon="5.451301066204906">
        <ele>612</ele>
        <time>2014-05-20T10:01:51Z</time>
      </trkpt>
      <trkpt lat="44.470961261540651" lon="5.451244572177529">
        <ele>612.4000244140625</ele>
        <time>2014-05-20T10:01:53Z</time>
      </trkpt>
      <trkpt lat="44.470915161073208" lon="5.451139127835631">
        <ele>612.5999755859375</ele>
        <time>2014-05-20T10:01:56Z</time>
      </trkpt>
      <trkpt lat="44.470857409760356" lon="5.451029408723116">
        <ele>613</ele>
        <time>2014-05-20T10:01:59Z</time>
      </trkpt>
      <trkpt lat="44.470811896026134" lon="5.450903763994575">
        <ele>613.4000244140625</ele>
        <time>2014-05-20T10:02:02Z</time>
      </trkpt>
      <trkpt lat="44.470692286267877" lon="5.450685331597924">
        <ele>614.20001220703125</ele>
        <time>2014-05-20T10:02:08Z</time>
      </trkpt>
      <trkpt lat="44.470676109194756" lon="5.450645852833986">
        <ele>614.4000244140625</ele>
        <time>2014-05-20T10:02:09Z</time>
      </trkpt>
      <trkpt lat="44.470580471679568" lon="5.450392886996269">
        <ele>614.79998779296875</ele>
        <time>2014-05-20T10:02:15Z</time>
      </trkpt>
      <trkpt lat="44.470466142520308" lon="5.450102705508471">
        <ele>614.5999755859375</ele>
        <time>2014-05-20T10:02:22Z</time>
      </trkpt>
      <trkpt lat="44.470335133373737" lon="5.449906401336193">
        <ele>614</ele>
        <time>2014-05-20T10:02:27Z</time>
      </trkpt>
      <trkpt lat="44.47014125995338" lon="5.449756952002645">
        <ele>614.4000244140625</ele>
        <time>2014-05-20T10:02:33Z</time>
      </trkpt>
      <trkpt lat="44.469998013228178" lon="5.449842950329185">
        <ele>614.4000244140625</ele>
        <time>2014-05-20T10:02:38Z</time>
      </trkpt>
      <trkpt lat="44.469846384599805" lon="5.44999030418694">
        <ele>614.4000244140625</ele>
        <time>2014-05-20T10:02:44Z</time>
      </trkpt>
      <trkpt lat="44.469793243333697" lon="5.450082505121827">
        <ele>614.5999755859375</ele>
        <time>2014-05-20T10:02:47Z</time>
      </trkpt>
      <trkpt lat="44.469750998541713" lon="5.450138077139854">
        <ele>614.5999755859375</ele>
        <time>2014-05-20T10:02:49Z</time>
      </trkpt>
      <trkpt lat="44.469688469544053" lon="5.450382493436337">
        <ele>614.79998779296875</ele>
        <time>2014-05-20T10:02:55Z</time>
      </trkpt>
      <trkpt lat="44.469768851995468" lon="5.450586760416627">
        <ele>614.5999755859375</ele>
        <time>2014-05-20T10:03:00Z</time>
      </trkpt>
      <trkpt lat="44.469955516979098" lon="5.450901500880718">
        <ele>614.4000244140625</ele>
        <time>2014-05-20T10:03:07Z</time>
      </trkpt>
      <trkpt lat="44.470098009333014" lon="5.451161004602909">
        <ele>614.4000244140625</ele>
        <time>2014-05-20T10:03:12Z</time>
      </trkpt>
      <trkpt lat="44.470152826979756" lon="5.451266951858997">
        <ele>614.5999755859375</ele>
        <time>2014-05-20T10:03:14Z</time>
      </trkpt>
      <trkpt lat="44.470309065654874" lon="5.451597785577178">
        <ele>614.20001220703125</ele>
        <time>2014-05-20T10:03:20Z</time>
      </trkpt>
      <trkpt lat="44.470545938238502" lon="5.452060047537088">
        <ele>614.20001220703125</ele>
        <time>2014-05-20T10:03:28Z</time>
      </trkpt>
      <trkpt lat="44.470613747835159" lon="5.452240006998181">
        <ele>614.4000244140625</ele>
        <time>2014-05-20T10:03:31Z</time>
      </trkpt>
      <trkpt lat="44.470696812495589" lon="5.452414015308023">
        <ele>614.5999755859375</ele>
        <time>2014-05-20T10:03:34Z</time>
      </trkpt>
      <trkpt lat="44.470906276255846" lon="5.452888095751405">
        <ele>614.79998779296875</ele>
        <time>2014-05-20T10:03:42Z</time>
      </trkpt>
      <trkpt lat="44.470940642058849" lon="5.453004185110331">
        <ele>615.20001220703125</ele>
        <time>2014-05-20T10:03:44Z</time>
      </trkpt>
      <trkpt lat="44.471052372828126" lon="5.45335790142417">
        <ele>615.5999755859375</ele>
        <time>2014-05-20T10:03:50Z</time>
      </trkpt>
      <trkpt lat="44.47116008028388" lon="5.453736009076238">
        <ele>616</ele>
        <time>2014-05-20T10:03:57Z</time>
      </trkpt>
      <trkpt lat="44.471169970929623" lon="5.453784707933664">
        <ele>616.20001220703125</ele>
        <time>2014-05-20T10:03:58Z</time>
      </trkpt>
      <trkpt lat="44.471209114417434" lon="5.453916722908616">
        <ele>616.5999755859375</ele>
        <time>2014-05-20T10:04:02Z</time>
      </trkpt>
      <trkpt lat="44.471223782747984" lon="5.454093748703599">
        <ele>616.5999755859375</ele>
        <time>2014-05-20T10:08:11Z</time>
      </trkpt>
      <trkpt lat="44.471228728070855" lon="5.454271612688899">
        <ele>616.4000244140625</ele>
        <time>2014-05-20T10:08:16Z</time>
      </trkpt>
      <trkpt lat="44.471227219328284" lon="5.454371189698577">
        <ele>616.5999755859375</ele>
        <time>2014-05-20T10:08:18Z</time>
      </trkpt>
      <trkpt lat="44.471225459128618" lon="5.45460588298738">
        <ele>616.79998779296875</ele>
        <time>2014-05-20T10:08:22Z</time>
      </trkpt>
      <trkpt lat="44.471230739727616" lon="5.454664891585708">
        <ele>616.79998779296875</ele>
        <time>2014-05-20T10:08:23Z</time>
      </trkpt>
      <trkpt lat="44.47129444219172" lon="5.454915091395378">
        <ele>616</ele>
        <time>2014-05-20T10:08:27Z</time>
      </trkpt>
      <trkpt lat="44.471487896516919" lon="5.455636437982321">
        <ele>617</ele>
        <time>2014-05-20T10:08:38Z</time>
      </trkpt>
      <trkpt lat="44.47153827175498" lon="5.455836849287152">
        <ele>617.4000244140625</ele>
        <time>2014-05-20T10:08:41Z</time>
      </trkpt>
      <trkpt lat="44.471627622842789" lon="5.456076487898827">
        <ele>617.5999755859375</ele>
        <time>2014-05-20T10:08:45Z</time>
      </trkpt>
      <trkpt lat="44.471808671951294" lon="5.456419559195638">
        <ele>617.5999755859375</ele>
        <time>2014-05-20T10:08:51Z</time>
      </trkpt>
      <trkpt lat="44.472066750749946" lon="5.456906883046031">
        <ele>617</ele>
        <time>2014-05-20T10:09:00Z</time>
      </trkpt>
      <trkpt lat="44.472088878974319" lon="5.456966562196612">
        <ele>617.4000244140625</ele>
        <time>2014-05-20T10:09:01Z</time>
      </trkpt>
      <trkpt lat="44.472214356064796" lon="5.457159010693431">
        <ele>616.4000244140625</ele>
        <time>2014-05-20T10:09:05Z</time>
      </trkpt>
      <trkpt lat="44.472245955839753" lon="5.457201423123479">
        <ele>615.79998779296875</ele>
        <time>2014-05-20T10:09:06Z</time>
      </trkpt>
      <trkpt lat="44.472280740737915" lon="5.457239309325814">
        <ele>616</ele>
        <time>2014-05-20T10:09:07Z</time>
      </trkpt>
      <trkpt lat="44.472435554489493" lon="5.45738423243165">
        <ele>616.5999755859375</ele>
        <time>2014-05-20T10:09:11Z</time>
      </trkpt>
      <trkpt lat="44.472777117043734" lon="5.457700733095408">
        <ele>616.79998779296875</ele>
        <time>2014-05-20T10:09:20Z</time>
      </trkpt>
      <trkpt lat="44.472896056249738" lon="5.457812128588557">
        <ele>617.20001220703125</ele>
        <time>2014-05-20T10:09:23Z</time>
      </trkpt>
      <trkpt lat="44.473062520846725" lon="5.458010779693723">
        <ele>618</ele>
        <time>2014-05-20T10:09:28Z</time>
      </trkpt>
      <trkpt lat="44.473092192783952" lon="5.45805118046701">
        <ele>618.20001220703125</ele>
        <time>2014-05-20T10:09:29Z</time>
      </trkpt>
      <trkpt lat="44.473209958523512" lon="5.458210436627269">
        <ele>619.5999755859375</ele>
        <time>2014-05-20T10:09:33Z</time>
      </trkpt>
      <trkpt lat="44.473269386216998" lon="5.458286879584193">
        <ele>620</ele>
        <time>2014-05-20T10:09:35Z</time>
      </trkpt>
      <trkpt lat="44.473349181935191" lon="5.458389054983854">
        <ele>620.79998779296875</ele>
        <time>2014-05-20T10:09:38Z</time>
      </trkpt>
      <trkpt lat="44.4734678696841" lon="5.458497432991862">
        <ele>621.4000244140625</ele>
        <time>2014-05-20T10:09:42Z</time>
      </trkpt>
      <trkpt lat="44.473527716472745" lon="5.458538504317403">
        <ele>622</ele>
        <time>2014-05-20T10:09:44Z</time>
      </trkpt>
      <trkpt lat="44.473648751154542" lon="5.458608996123076">
        <ele>622.20001220703125</ele>
        <time>2014-05-20T10:09:48Z</time>
      </trkpt>
      <trkpt lat="44.473773892968893" lon="5.458673620596528">
        <ele>623</ele>
        <time>2014-05-20T10:09:52Z</time>
      </trkpt>
      <trkpt lat="44.473866848275065" lon="5.458750650286675">
        <ele>623</ele>
        <time>2014-05-20T10:09:55Z</time>
      </trkpt>
      <trkpt lat="44.474026439711452" lon="5.458967825397849">
        <ele>624</ele>
        <time>2014-05-20T10:10:01Z</time>
      </trkpt>
      <trkpt lat="44.474071534350514" lon="5.459242919459939">
        <ele>625</ele>
        <time>2014-05-20T10:10:07Z</time>
      </trkpt>
      <trkpt lat="44.474023254588246" lon="5.459474427625537">
        <ele>625.5999755859375</ele>
        <time>2014-05-20T10:10:12Z</time>
      </trkpt>
      <trkpt lat="44.473905740305781" lon="5.459902994334698">
        <ele>625.79998779296875</ele>
        <time>2014-05-20T10:10:20Z</time>
      </trkpt>
      <trkpt lat="44.473856957629323" lon="5.460014808923006">
        <ele>625.79998779296875</ele>
        <time>2014-05-20T10:10:22Z</time>
      </trkpt>
      <trkpt lat="44.47373466566205" lon="5.460212789475918">
        <ele>625.5999755859375</ele>
        <time>2014-05-20T10:10:26Z</time>
      </trkpt>
      <trkpt lat="44.473427552729845" lon="5.460591986775398">
        <ele>625.5999755859375</ele>
        <time>2014-05-20T10:10:34Z</time>
      </trkpt>
      <trkpt lat="44.47332764044404" lon="5.460756523534656">
        <ele>625.20001220703125</ele>
        <time>2014-05-20T10:10:37Z</time>
      </trkpt>
      <trkpt lat="44.473239546641707" lon="5.460942937061191">
        <ele>625.20001220703125</ele>
        <time>2014-05-20T10:10:40Z</time>
      </trkpt>
      <trkpt lat="44.473137287423015" lon="5.461126416921616">
        <ele>624.5999755859375</ele>
        <time>2014-05-20T10:10:43Z</time>
      </trkpt>
      <trkpt lat="44.473011894151568" lon="5.46129715628922">
        <ele>624.5999755859375</ele>
        <time>2014-05-20T10:10:46Z</time>
      </trkpt>
      <trkpt lat="44.472964787855744" lon="5.461344933137298">
        <ele>624.5999755859375</ele>
        <time>2014-05-20T10:10:47Z</time>
      </trkpt>
      <trkpt lat="44.472716767340899" lon="5.461552301421762">
        <ele>624.20001220703125</ele>
        <time>2014-05-20T10:10:52Z</time>
      </trkpt>
      <trkpt lat="44.472429687157273" lon="5.461758747696877">
        <ele>624.5999755859375</ele>
        <time>2014-05-20T10:10:58Z</time>
      </trkpt>
      <trkpt lat="44.472384676337242" lon="5.461793448776007">
        <ele>624.79998779296875</ele>
        <time>2014-05-20T10:10:59Z</time>
      </trkpt>
      <trkpt lat="44.471888802945614" lon="5.462094778195024">
        <ele>625.20001220703125</ele>
        <time>2014-05-20T10:11:09Z</time>
      </trkpt>
      <trkpt lat="44.471831303089857" lon="5.462105423212051">
        <ele>625</ele>
        <time>2014-05-20T10:11:10Z</time>
      </trkpt>
      <trkpt lat="44.471615133807063" lon="5.462098801508546">
        <ele>624.79998779296875</ele>
        <time>2014-05-20T10:11:14Z</time>
      </trkpt>
      <trkpt lat="44.471233505755663" lon="5.46204281039536">
        <ele>625.5999755859375</ele>
        <time>2014-05-20T10:11:21Z</time>
      </trkpt>
      <trkpt lat="44.470815835520625" lon="5.461974330246449">
        <ele>625.4000244140625</ele>
        <time>2014-05-20T10:11:29Z</time>
      </trkpt>
      <trkpt lat="44.470769315958023" lon="5.46198908239603">
        <ele>625.4000244140625</ele>
        <time>2014-05-20T10:11:30Z</time>
      </trkpt>
      <trkpt lat="44.470687424764037" lon="5.462070889770985">
        <ele>625.5999755859375</ele>
        <time>2014-05-20T10:11:32Z</time>
      </trkpt>
      <trkpt lat="44.470624560490251" lon="5.462266439571977">
        <ele>625.20001220703125</ele>
        <time>2014-05-20T10:11:35Z</time>
      </trkpt>
      <trkpt lat="44.470611233264208" lon="5.462331986054778">
        <ele>625.20001220703125</ele>
        <time>2014-05-20T10:11:36Z</time>
      </trkpt>
      <trkpt lat="44.470566054806113" lon="5.462660305202007">
        <ele>626</ele>
        <time>2014-05-20T10:11:41Z</time>
      </trkpt>
      <trkpt lat="44.470533616840839" lon="5.462971106171608">
        <ele>627.4000244140625</ele>
        <time>2014-05-20T10:11:46Z</time>
      </trkpt>
      <trkpt lat="44.470532108098269" lon="5.463033383712173">
        <ele>627.79998779296875</ele>
        <time>2014-05-20T10:11:47Z</time>
      </trkpt>
      <trkpt lat="44.470525989308953" lon="5.463159531354904">
        <ele>628.20001220703125</ele>
        <time>2014-05-20T10:11:49Z</time>
      </trkpt>
      <trkpt lat="44.470520792528987" lon="5.463221222162247">
        <ele>628.4000244140625</ele>
        <time>2014-05-20T10:11:50Z</time>
      </trkpt>
      <trkpt lat="44.470469411462545" lon="5.463523305952549">
        <ele>628.5999755859375</ele>
        <time>2014-05-20T10:11:55Z</time>
      </trkpt>
      <trkpt lat="44.470325913280249" lon="5.463884565979242">
        <ele>629.20001220703125</ele>
        <time>2014-05-20T10:12:02Z</time>
      </trkpt>
      <trkpt lat="44.470280567184091" lon="5.464030243456364">
        <ele>629.4000244140625</ele>
        <time>2014-05-20T10:12:05Z</time>
      </trkpt>
      <trkpt lat="44.470253242179751" lon="5.464184051379561">
        <ele>630</ele>
        <time>2014-05-20T10:12:08Z</time>
      </trkpt>
      <trkpt lat="44.470209153369069" lon="5.464508514851332">
        <ele>630.5999755859375</ele>
        <time>2014-05-20T10:12:14Z</time>
      </trkpt>
      <trkpt lat="44.470141343772411" lon="5.464839851483703">
        <ele>631.79998779296875</ele>
        <time>2014-05-20T10:12:20Z</time>
      </trkpt>
      <trkpt lat="44.47011586278677" lon="5.464952755719423">
        <ele>631.79998779296875</ele>
        <time>2014-05-20T10:12:22Z</time>
      </trkpt>
      <trkpt lat="44.470054171979427" lon="5.465299095958471">
        <ele>631.5999755859375</ele>
        <time>2014-05-20T10:12:28Z</time>
      </trkpt>
      <trkpt lat="44.469989463686943" lon="5.465695140883327">
        <ele>632</ele>
        <time>2014-05-20T10:12:35Z</time>
      </trkpt>
      <trkpt lat="44.46996197104454" lon="5.465890523046255">
        <ele>631.4000244140625</ele>
        <time>2014-05-20T10:12:38Z</time>
      </trkpt>
      <trkpt lat="44.469940010458231" lon="5.466083893552423">
        <ele>631.4000244140625</ele>
        <time>2014-05-20T10:12:41Z</time>
      </trkpt>
      <trkpt lat="44.469918133690953" lon="5.466451440006495">
        <ele>631.4000244140625</ele>
        <time>2014-05-20T10:12:47Z</time>
      </trkpt>
      <trkpt lat="44.469871781766415" lon="5.466850837692618">
        <ele>631.5999755859375</ele>
        <time>2014-05-20T10:12:53Z</time>
      </trkpt>
      <trkpt lat="44.469836493954062" lon="5.466980757191777">
        <ele>631.5999755859375</ele>
        <time>2014-05-20T10:12:55Z</time>
      </trkpt>
      <trkpt lat="44.469723086804152" lon="5.467385435476899">
        <ele>630.5999755859375</ele>
        <time>2014-05-20T10:13:01Z</time>
      </trkpt>
      <trkpt lat="44.469679249450564" lon="5.467524910345674">
        <ele>630.5999755859375</ele>
        <time>2014-05-20T10:13:03Z</time>
      </trkpt>
      <trkpt lat="44.46950507350266" lon="5.468053556978703">
        <ele>630.20001220703125</ele>
        <time>2014-05-20T10:13:11Z</time>
      </trkpt>
      <trkpt lat="44.469415470957756" lon="5.468553202226758">
        <ele>630.5999755859375</ele>
        <time>2014-05-20T10:13:18Z</time>
      </trkpt>
      <trkpt lat="44.4694200810045" lon="5.468624867498875">
        <ele>630.79998779296875</ele>
        <time>2014-05-20T10:13:19Z</time>
      </trkpt>
      <trkpt lat="44.469425193965435" lon="5.468985121697187">
        <ele>631</ele>
        <time>2014-05-20T10:13:24Z</time>
      </trkpt>
      <trkpt lat="44.469432737678289" lon="5.469729183241725">
        <ele>631</ele>
        <time>2014-05-20T10:13:34Z</time>
      </trkpt>
      <trkpt lat="44.469484789296985" lon="5.470163952559233">
        <ele>631.20001220703125</ele>
        <time>2014-05-20T10:13:40Z</time>
      </trkpt>
      <trkpt lat="44.469507252797484" lon="5.470229499042034">
        <ele>631.4000244140625</ele>
        <time>2014-05-20T10:13:41Z</time>
      </trkpt>
      <trkpt lat="44.469612026587129" lon="5.470474837347865">
        <ele>631.79998779296875</ele>
        <time>2014-05-20T10:13:45Z</time>
      </trkpt>
      <trkpt lat="44.469689810648561" lon="5.470646498724818">
        <ele>632.5999755859375</ele>
        <time>2014-05-20T10:13:48Z</time>
      </trkpt>
      <trkpt lat="44.469769606366754" lon="5.470809023827314">
        <ele>632.79998779296875</ele>
        <time>2014-05-20T10:13:51Z</time>
      </trkpt>
      <trkpt lat="44.469845378771424" lon="5.470949253067374">
        <ele>633</ele>
        <time>2014-05-20T10:13:54Z</time>
      </trkpt>
      <trkpt lat="44.469887036830187" lon="5.471047405153513">
        <ele>633.5999755859375</ele>
        <time>2014-05-20T10:13:56Z</time>
      </trkpt>
      <trkpt lat="44.469888126477599" lon="5.471201296895742">
        <ele>634</ele>
        <time>2014-05-20T10:13:59Z</time>
      </trkpt>
      <trkpt lat="44.469809923321009" lon="5.471425596624613">
        <ele>634.20001220703125</ele>
        <time>2014-05-20T10:14:04Z</time>
      </trkpt>
      <trkpt lat="44.469766337424517" lon="5.471499441191554">
        <ele>635</ele>
        <time>2014-05-20T10:14:06Z</time>
      </trkpt>
      <trkpt lat="44.469671454280615" lon="5.471684010699391">
        <ele>635.5999755859375</ele>
        <time>2014-05-20T10:14:10Z</time>
      </trkpt>
      <trkpt lat="44.469499792903662" lon="5.472042001783848">
        <ele>634</ele>
        <time>2014-05-20T10:14:16Z</time>
      </trkpt>
      <trkpt lat="44.469472803175449" lon="5.472102435305715">
        <ele>633.5999755859375</ele>
        <time>2014-05-20T10:14:17Z</time>
      </trkpt>
      <trkpt lat="44.469341542571783" lon="5.472412146627903">
        <ele>632.79998779296875</ele>
        <time>2014-05-20T10:14:22Z</time>
      </trkpt>
      <trkpt lat="44.46928228251636" lon="5.472599314525724">
        <ele>632.79998779296875</ele>
        <time>2014-05-20T10:14:25Z</time>
      </trkpt>
      <trkpt lat="44.469217071309686" lon="5.472997790202498">
        <ele>634</ele>
        <time>2014-05-20T10:14:31Z</time>
      </trkpt>
      <trkpt lat="44.469144651666284" lon="5.473454436287284">
        <ele>634.5999755859375</ele>
        <time>2014-05-20T10:14:38Z</time>
      </trkpt>
      <trkpt lat="44.46913224644959" lon="5.473518138751388">
        <ele>634.5999755859375</ele>
        <time>2014-05-20T10:14:39Z</time>
      </trkpt>
      <trkpt lat="44.469083799049258" lon="5.473848972469568">
        <ele>635.20001220703125</ele>
        <time>2014-05-20T10:14:44Z</time>
      </trkpt>
      <trkpt lat="44.469058904796839" lon="5.473993392661214">
        <ele>635.20001220703125</ele>
        <time>2014-05-20T10:14:46Z</time>
      </trkpt>
      <trkpt lat="44.468956394121051" lon="5.474438974633813">
        <ele>635.20001220703125</ele>
        <time>2014-05-20T10:14:53Z</time>
      </trkpt>
      <trkpt lat="44.468927308917046" lon="5.474546849727631">
        <ele>635.79998779296875</ele>
        <time>2014-05-20T10:14:55Z</time>
      </trkpt>
      <trkpt lat="44.46886545047164" lon="5.474697556346655">
        <ele>635.79998779296875</ele>
        <time>2014-05-20T10:14:58Z</time>
      </trkpt>
      <trkpt lat="44.468788420781493" lon="5.474893776699901">
        <ele>636.20001220703125</ele>
        <time>2014-05-20T10:15:02Z</time>
      </trkpt>
      <trkpt lat="44.468740560114384" lon="5.475046494975686">
        <ele>636</ele>
        <time>2014-05-20T10:15:05Z</time>
      </trkpt>
      <trkpt lat="44.468668140470982" lon="5.475340951234102">
        <ele>636.5999755859375</ele>
        <time>2014-05-20T10:15:11Z</time>
      </trkpt>
      <trkpt lat="44.468605779111385" lon="5.475688381120563">
        <ele>637.20001220703125</ele>
        <time>2014-05-20T10:15:18Z</time>
      </trkpt>
      <trkpt lat="44.468593960627913" lon="5.475736744701862">
        <ele>637.20001220703125</ele>
        <time>2014-05-20T10:15:19Z</time>
      </trkpt>
      <trkpt lat="44.468540400266647" lon="5.476096076890826">
        <ele>638</ele>
        <time>2014-05-20T10:15:26Z</time>
      </trkpt>
      <trkpt lat="44.468521121889353" lon="5.476244352757931">
        <ele>638.4000244140625</ele>
        <time>2014-05-20T10:15:29Z</time>
      </trkpt>
      <trkpt lat="44.468496227636933" lon="5.47640411183238">
        <ele>638.20001220703125</ele>
        <time>2014-05-20T10:15:32Z</time>
      </trkpt>
      <trkpt lat="44.468437470495701" lon="5.476837959140539">
        <ele>639.20001220703125</ele>
        <time>2014-05-20T10:15:40Z</time>
      </trkpt>
      <trkpt lat="44.468365050852299" lon="5.477322181686759">
        <ele>638.79998779296875</ele>
        <time>2014-05-20T10:15:49Z</time>
      </trkpt>
      <trkpt lat="44.468343844637275" lon="5.477522592991591">
        <ele>639.4000244140625</ele>
        <time>2014-05-20T10:15:53Z</time>
      </trkpt>
      <trkpt lat="44.468317274004221" lon="5.477666091173887">
        <ele>640.20001220703125</ele>
        <time>2014-05-20T10:15:56Z</time>
      </trkpt>
      <trkpt lat="44.468306126073003" lon="5.477716131135821">
        <ele>640.4000244140625</ele>
        <time>2014-05-20T10:15:57Z</time>
      </trkpt>
      <trkpt lat="44.468275280669332" lon="5.478013018146157">
        <ele>640.79998779296875</ele>
        <time>2014-05-20T10:16:03Z</time>
      </trkpt>
      <trkpt lat="44.468256756663322" lon="5.478436220437288">
        <ele>641.20001220703125</ele>
        <time>2014-05-20T10:16:11Z</time>
      </trkpt>
      <trkpt lat="44.468248877674341" lon="5.47882916405797">
        <ele>641.4000244140625</ele>
        <time>2014-05-20T10:16:18Z</time>
      </trkpt>
      <trkpt lat="44.46822389960289" lon="5.479344567283988">
        <ele>641.79998779296875</ele>
        <time>2014-05-20T10:16:26Z</time>
      </trkpt>
      <trkpt lat="44.468222726136446" lon="5.479411454871297">
        <ele>641.5999755859375</ele>
        <time>2014-05-20T10:16:27Z</time>
      </trkpt>
      <trkpt lat="44.468188360333443" lon="5.480155851691961">
        <ele>641.4000244140625</ele>
        <time>2014-05-20T10:16:38Z</time>
      </trkpt>
      <trkpt lat="44.468166567385197" lon="5.480457600206137">
        <ele>642.79998779296875</ele>
        <time>2014-05-20T10:16:43Z</time>
      </trkpt>
      <trkpt lat="44.468148211017251" lon="5.480566648766398">
        <ele>643.5999755859375</ele>
        <time>2014-05-20T10:16:45Z</time>
      </trkpt>
      <trkpt lat="44.468137733638287" lon="5.480866301804781">
        <ele>643.79998779296875</ele>
        <time>2014-05-20T10:16:51Z</time>
      </trkpt>
      <trkpt lat="44.468134129419923" lon="5.480917347595096">
        <ele>644</ele>
        <time>2014-05-20T10:16:52Z</time>
      </trkpt>
      <trkpt lat="44.468111330643296" lon="5.481141060590744">
        <ele>645</ele>
        <time>2014-05-20T10:16:57Z</time>
      </trkpt>
      <trkpt lat="44.468108061701059" lon="5.48118288628757">
        <ele>645.20001220703125</ele>
        <time>2014-05-20T10:16:58Z</time>
      </trkpt>
      <trkpt lat="44.468084676191211" lon="5.481529226526618">
        <ele>645.79998779296875</ele>
        <time>2014-05-20T10:17:06Z</time>
      </trkpt>
      <trkpt lat="44.468077635392547" lon="5.481793759390712">
        <ele>645.79998779296875</ele>
        <time>2014-05-20T10:17:12Z</time>
      </trkpt>
      <trkpt lat="44.468075707554817" lon="5.482195587828755">
        <ele>645.5999755859375</ele>
        <time>2014-05-20T10:17:19Z</time>
      </trkpt>
      <trkpt lat="44.468064308166504" lon="5.48271082341671">
        <ele>645.20001220703125</ele>
        <time>2014-05-20T10:17:27Z</time>
      </trkpt>
      <trkpt lat="44.468062380328774" lon="5.483283810317516">
        <ele>645.4000244140625</ele>
        <time>2014-05-20T10:17:35Z</time>
      </trkpt>
      <trkpt lat="44.46805140003562" lon="5.483797788619995">
        <ele>645.79998779296875</ele>
        <time>2014-05-20T10:17:42Z</time>
      </trkpt>
      <trkpt lat="44.468053998425603" lon="5.483871130272746">
        <ele>645.79998779296875</ele>
        <time>2014-05-20T10:17:43Z</time>
      </trkpt>
      <trkpt lat="44.468050561845303" lon="5.484387455508113">
        <ele>646</ele>
        <time>2014-05-20T10:17:51Z</time>
      </trkpt>
      <trkpt lat="44.468050645664334" lon="5.484446631744504">
        <ele>646.20001220703125</ele>
        <time>2014-05-20T10:17:52Z</time>
      </trkpt>
      <trkpt lat="44.468050561845303" lon="5.484747290611267">
        <ele>647.4000244140625</ele>
        <time>2014-05-20T10:17:57Z</time>
      </trkpt>
      <trkpt lat="44.468043269589543" lon="5.484803197905421">
        <ele>647.4000244140625</ele>
        <time>2014-05-20T10:17:58Z</time>
      </trkpt>
      <trkpt lat="44.468035474419594" lon="5.484855668619275">
        <ele>647.5999755859375</ele>
        <time>2014-05-20T10:17:59Z</time>
      </trkpt>
      <trkpt lat="44.468009993433952" lon="5.485008973628283">
        <ele>648.4000244140625</ele>
        <time>2014-05-20T10:18:02Z</time>
      </trkpt>
      <trkpt lat="44.467944279313087" lon="5.485197985544801">
        <ele>649</ele>
        <time>2014-05-20T10:18:06Z</time>
      </trkpt>
      <trkpt lat="44.467836236581206" lon="5.485424296930432">
        <ele>649</ele>
        <time>2014-05-20T10:18:11Z</time>
      </trkpt>
      <trkpt lat="44.467684524133801" lon="5.4857506044209">
        <ele>649.20001220703125</ele>
        <time>2014-05-20T10:18:18Z</time>
      </trkpt>
      <trkpt lat="44.467570697888732" lon="5.485989237204194">
        <ele>649.4000244140625</ele>
        <time>2014-05-20T10:18:23Z</time>
      </trkpt>
      <trkpt lat="44.467465840280056" lon="5.486212866380811">
        <ele>649.4000244140625</ele>
        <time>2014-05-20T10:18:28Z</time>
      </trkpt>
      <trkpt lat="44.46739761158824" lon="5.486410427838564">
        <ele>650.4000244140625</ele>
        <time>2014-05-20T10:18:33Z</time>
      </trkpt>
      <trkpt lat="44.467377830296755" lon="5.486498018726707">
        <ele>650.5999755859375</ele>
        <time>2014-05-20T10:18:35Z</time>
      </trkpt>
      <trkpt lat="44.467349331825972" lon="5.486738160252571">
        <ele>650.79998779296875</ele>
        <time>2014-05-20T10:18:40Z</time>
      </trkpt>
      <trkpt lat="44.467327119782567" lon="5.486887441948056">
        <ele>651.5999755859375</ele>
        <time>2014-05-20T10:18:43Z</time>
      </trkpt>
      <trkpt lat="44.467313289642334" lon="5.4870923794806">
        <ele>651.5999755859375</ele>
        <time>2014-05-20T10:18:47Z</time>
      </trkpt>
      <trkpt lat="44.467286048457026" lon="5.48743536695838">
        <ele>652.4000244140625</ele>
        <time>2014-05-20T10:18:54Z</time>
      </trkpt>
      <trkpt lat="44.467277498915792" lon="5.487534692510963">
        <ele>652.79998779296875</ele>
        <time>2014-05-20T10:18:56Z</time>
      </trkpt>
      <trkpt lat="44.467242378741503" lon="5.487803667783737">
        <ele>653.5999755859375</ele>
        <time>2014-05-20T10:19:02Z</time>
      </trkpt>
      <trkpt lat="44.467234667390585" lon="5.487847588956356">
        <ele>653.79998779296875</ele>
        <time>2014-05-20T10:19:03Z</time>
      </trkpt>
      <trkpt lat="44.467202564701438" lon="5.48824212513864">
        <ele>654.20001220703125</ele>
        <time>2014-05-20T10:19:11Z</time>
      </trkpt>
      <trkpt lat="44.467166438698769" lon="5.48856558278203">
        <ele>653.4000244140625</ele>
        <time>2014-05-20T10:19:17Z</time>
      </trkpt>
      <trkpt lat="44.467152943834662" lon="5.488678738474846">
        <ele>653.79998779296875</ele>
        <time>2014-05-20T10:19:19Z</time>
      </trkpt>
      <trkpt lat="44.467115225270391" lon="5.489137060940266">
        <ele>653.4000244140625</ele>
        <time>2014-05-20T10:19:27Z</time>
      </trkpt>
      <trkpt lat="44.467088654637337" lon="5.489595718681812">
        <ele>654.20001220703125</ele>
        <time>2014-05-20T10:19:35Z</time>
      </trkpt>
      <trkpt lat="44.467059234157205" lon="5.489851869642735">
        <ele>654.4000244140625</ele>
        <time>2014-05-20T10:19:40Z</time>
      </trkpt>
      <trkpt lat="44.467012127861381" lon="5.490269539877772">
        <ele>654</ele>
        <time>2014-05-20T10:19:47Z</time>
      </trkpt>
      <trkpt lat="44.46693048812449" lon="5.490622082725167">
        <ele>655</ele>
        <time>2014-05-20T10:19:53Z</time>
      </trkpt>
      <trkpt lat="44.466911964118481" lon="5.490678995847702">
        <ele>655</ele>
        <time>2014-05-20T10:19:54Z</time>
      </trkpt>
      <trkpt lat="44.466858822852373" lon="5.490911174565554">
        <ele>654.79998779296875</ele>
        <time>2014-05-20T10:19:58Z</time>
      </trkpt>
      <trkpt lat="44.466802915558219" lon="5.49108593724668">
        <ele>655.20001220703125</ele>
        <time>2014-05-20T10:20:01Z</time>
      </trkpt>
      <trkpt lat="44.466668134555221" lon="5.491553815081716">
        <ele>655</ele>
        <time>2014-05-20T10:20:09Z</time>
      </trkpt>
      <trkpt lat="44.466576017439365" lon="5.491898143664002">
        <ele>656</ele>
        <time>2014-05-20T10:20:15Z</time>
      </trkpt>
      <trkpt lat="44.466546010226011" lon="5.492010377347469">
        <ele>656.4000244140625</ele>
        <time>2014-05-20T10:20:17Z</time>
      </trkpt>
      <trkpt lat="44.466526648029685" lon="5.49211448058486">
        <ele>657.20001220703125</ele>
        <time>2014-05-20T10:20:19Z</time>
      </trkpt>
      <trkpt lat="44.466480882838368" lon="5.492356969043613">
        <ele>657.4000244140625</ele>
        <time>2014-05-20T10:20:23Z</time>
      </trkpt>
      <trkpt lat="44.466447439044714" lon="5.492751337587833">
        <ele>657.79998779296875</ele>
        <time>2014-05-20T10:20:30Z</time>
      </trkpt>
      <trkpt lat="44.466471998021007" lon="5.49295979551971">
        <ele>658.20001220703125</ele>
        <time>2014-05-20T10:20:34Z</time>
      </trkpt>
      <trkpt lat="44.466507704928517" lon="5.493112178519368">
        <ele>659</ele>
        <time>2014-05-20T10:20:37Z</time>
      </trkpt>
      <trkpt lat="44.466543830931187" lon="5.493257185444236">
        <ele>659.4000244140625</ele>
        <time>2014-05-20T10:20:40Z</time>
      </trkpt>
      <trkpt lat="44.466603929176927" lon="5.493432115763426">
        <ele>660</ele>
        <time>2014-05-20T10:20:44Z</time>
      </trkpt>
      <trkpt lat="44.466634355485439" lon="5.493511995300651">
        <ele>660.4000244140625</ele>
        <time>2014-05-20T10:20:46Z</time>
      </trkpt>
      <trkpt lat="44.466676265001297" lon="5.493622217327356">
        <ele>661</ele>
        <time>2014-05-20T10:20:49Z</time>
      </trkpt>
      <trkpt lat="44.466701075434685" lon="5.493693882599473">
        <ele>661.4000244140625</ele>
        <time>2014-05-20T10:20:51Z</time>
      </trkpt>
      <trkpt lat="44.466757066547871" lon="5.493865963071585">
        <ele>662</ele>
        <time>2014-05-20T10:20:56Z</time>
      </trkpt>
      <trkpt lat="44.466778775677085" lon="5.493939304724336">
        <ele>662.4000244140625</ele>
        <time>2014-05-20T10:20:58Z</time>
      </trkpt>
      <trkpt lat="44.466836862266064" lon="5.494155893102288">
        <ele>663.20001220703125</ele>
        <time>2014-05-20T10:21:04Z</time>
      </trkpt>
      <trkpt lat="44.4668625947088" lon="5.494228564202786">
        <ele>663.5999755859375</ele>
        <time>2014-05-20T10:21:06Z</time>
      </trkpt>
      <trkpt lat="44.466959070414305" lon="5.494493180885911">
        <ele>664.5999755859375</ele>
        <time>2014-05-20T10:21:13Z</time>
      </trkpt>
      <trkpt lat="44.467035848647356" lon="5.494763664901257">
        <ele>665.5999755859375</ele>
        <time>2014-05-20T10:21:20Z</time>
      </trkpt>
      <trkpt lat="44.467073148116469" lon="5.495018726214767">
        <ele>665.5999755859375</ele>
        <time>2014-05-20T10:21:26Z</time>
      </trkpt>
      <trkpt lat="44.467077003791928" lon="5.495068849995732">
        <ele>665.5999755859375</ele>
        <time>2014-05-20T10:21:27Z</time>
      </trkpt>
      <trkpt lat="44.467119416221976" lon="5.495315361768007">
        <ele>665.5999755859375</ele>
        <time>2014-05-20T10:21:32Z</time>
      </trkpt>
      <trkpt lat="44.467165684327483" lon="5.495610237121582">
        <ele>665.4000244140625</ele>
        <time>2014-05-20T10:21:38Z</time>
      </trkpt>
      <trkpt lat="44.467223770916462" lon="5.495998235419393">
        <ele>665.4000244140625</ele>
        <time>2014-05-20T10:21:45Z</time>
      </trkpt>
      <trkpt lat="44.467301135882735" lon="5.496549010276794">
        <ele>665.4000244140625</ele>
        <time>2014-05-20T10:21:54Z</time>
      </trkpt>
      <trkpt lat="44.467379758134484" lon="5.497073885053396">
        <ele>665.79998779296875</ele>
        <time>2014-05-20T10:22:03Z</time>
      </trkpt>
      <trkpt lat="44.467444214969873" lon="5.49749817699194">
        <ele>666.4000244140625</ele>
        <time>2014-05-20T10:22:11Z</time>
      </trkpt>
      <trkpt lat="44.467472294345498" lon="5.497662713751197">
        <ele>666.5999755859375</ele>
        <time>2014-05-20T10:22:14Z</time>
      </trkpt>
      <trkpt lat="44.467480592429638" lon="5.49771761521697">
        <ele>666.79998779296875</ele>
        <time>2014-05-20T10:22:15Z</time>
      </trkpt>
      <trkpt lat="44.467502804473042" lon="5.497941328212619">
        <ele>666.79998779296875</ele>
        <time>2014-05-20T10:22:19Z</time>
      </trkpt>
      <trkpt lat="44.467562148347497" lon="5.498324716463685">
        <ele>666.79998779296875</ele>
        <time>2014-05-20T10:22:26Z</time>
      </trkpt>
      <trkpt lat="44.467596430331469" lon="5.498578436672688">
        <ele>667.20001220703125</ele>
        <time>2014-05-20T10:22:31Z</time>
      </trkpt>
      <trkpt lat="44.4676414411515" lon="5.498926285654306">
        <ele>667.4000244140625</ele>
        <time>2014-05-20T10:22:38Z</time>
      </trkpt>
      <trkpt lat="44.467652421444654" lon="5.499077495187521">
        <ele>667.79998779296875</ele>
        <time>2014-05-20T10:22:41Z</time>
      </trkpt>
      <trkpt lat="44.467658121138811" lon="5.49923968501389">
        <ele>668.4000244140625</ele>
        <time>2014-05-20T10:22:44Z</time>
      </trkpt>
      <trkpt lat="44.467665581032634" lon="5.49944780766964">
        <ele>668.79998779296875</ele>
        <time>2014-05-20T10:22:48Z</time>
      </trkpt>
      <trkpt lat="44.467674801126122" lon="5.499659031629562">
        <ele>669.4000244140625</ele>
        <time>2014-05-20T10:22:52Z</time>
      </trkpt>
      <trkpt lat="44.467741353437304" lon="5.50009866245091">
        <ele>669.5999755859375</ele>
        <time>2014-05-20T10:23:00Z</time>
      </trkpt>
      <trkpt lat="44.467766331508756" lon="5.500272586941719">
        <ele>669.79998779296875</ele>
        <time>2014-05-20T10:23:03Z</time>
      </trkpt>
      <trkpt lat="44.467805894091725" lon="5.500513734295964">
        <ele>670.20001220703125</ele>
        <time>2014-05-20T10:23:07Z</time>
      </trkpt>
      <trkpt lat="44.467810001224279" lon="5.500957136973739">
        <ele>670.79998779296875</ele>
        <time>2014-05-20T10:23:14Z</time>
      </trkpt>
      <trkpt lat="44.467810839414597" lon="5.50102025270462">
        <ele>670.79998779296875</ele>
        <time>2014-05-20T10:23:15Z</time>
      </trkpt>
      <trkpt lat="44.467801032587886" lon="5.501573206856847">
        <ele>671</ele>
        <time>2014-05-20T10:23:24Z</time>
      </trkpt>
      <trkpt lat="44.467816455289721" lon="5.501750819385052">
        <ele>671.20001220703125</ele>
        <time>2014-05-20T10:23:27Z</time>
      </trkpt>
      <trkpt lat="44.467837829142809" lon="5.50197646021843">
        <ele>672</ele>
        <time>2014-05-20T10:23:31Z</time>
      </trkpt>
      <trkpt lat="44.467865824699402" lon="5.502086682245135">
        <ele>672.4000244140625</ele>
        <time>2014-05-20T10:23:33Z</time>
      </trkpt>
      <trkpt lat="44.467946877703071" lon="5.502288015559316">
        <ele>672.5999755859375</ele>
        <time>2014-05-20T10:23:37Z</time>
      </trkpt>
      <trkpt lat="44.46802256628871" lon="5.502420030534267">
        <ele>673</ele>
        <time>2014-05-20T10:23:40Z</time>
      </trkpt>
      <trkpt lat="44.468116862699389" lon="5.502590853720903">
        <ele>673.5999755859375</ele>
        <time>2014-05-20T10:23:44Z</time>
      </trkpt>
      <trkpt lat="44.468215685337782" lon="5.502760084345937">
        <ele>674.20001220703125</ele>
        <time>2014-05-20T10:23:48Z</time>
      </trkpt>
      <trkpt lat="44.468270754441619" lon="5.502880280837417">
        <ele>674.4000244140625</ele>
        <time>2014-05-20T10:23:51Z</time>
      </trkpt>
      <trkpt lat="44.468328086659312" lon="5.503113633021712">
        <ele>675.20001220703125</ele>
        <time>2014-05-20T10:23:56Z</time>
      </trkpt>
      <trkpt lat="44.468345269560814" lon="5.503207426518202">
        <ele>675.5999755859375</ele>
        <time>2014-05-20T10:23:58Z</time>
      </trkpt>
      <trkpt lat="44.468349292874336" lon="5.503455866128206">
        <ele>676.20001220703125</ele>
        <time>2014-05-20T10:24:03Z</time>
      </trkpt>
      <trkpt lat="44.46833579801023" lon="5.503561897203326">
        <ele>676.20001220703125</ele>
        <time>2014-05-20T10:24:05Z</time>
      </trkpt>
      <trkpt lat="44.468263797461987" lon="5.503990463912487">
        <ele>675.5999755859375</ele>
        <time>2014-05-20T10:24:12Z</time>
      </trkpt>
      <trkpt lat="44.468182660639286" lon="5.504412911832333">
        <ele>675.20001220703125</ele>
        <time>2014-05-20T10:24:18Z</time>
      </trkpt>
      <trkpt lat="44.468170842155814" lon="5.504489522427321">
        <ele>675.20001220703125</ele>
        <time>2014-05-20T10:24:19Z</time>
      </trkpt>
      <trkpt lat="44.468154832720757" lon="5.504934936761856">
        <ele>675.5999755859375</ele>
        <time>2014-05-20T10:24:25Z</time>
      </trkpt>
      <trkpt lat="44.468164388090372" lon="5.505365263670683">
        <ele>676.20001220703125</ele>
        <time>2014-05-20T10:24:31Z</time>
      </trkpt>
      <trkpt lat="44.46816086769104" lon="5.50543156452477">
        <ele>676.4000244140625</ele>
        <time>2014-05-20T10:24:32Z</time>
      </trkpt>
      <trkpt lat="44.468122227117419" lon="5.505736162886024">
        <ele>677.20001220703125</ele>
        <time>2014-05-20T10:24:37Z</time>
      </trkpt>
      <trkpt lat="44.468107642605901" lon="5.50579559057951">
        <ele>677.20001220703125</ele>
        <time>2014-05-20T10:24:38Z</time>
      </trkpt>
      <trkpt lat="44.467980321496725" lon="5.506158778443933">
        <ele>678.20001220703125</ele>
        <time>2014-05-20T10:24:45Z</time>
      </trkpt>
      <trkpt lat="44.467918798327446" lon="5.506305461749435">
        <ele>678.20001220703125</ele>
        <time>2014-05-20T10:24:48Z</time>
      </trkpt>
      <trkpt lat="44.467825004830956" lon="5.506548620760441">
        <ele>678.5999755859375</ele>
        <time>2014-05-20T10:24:53Z</time>
      </trkpt>
      <trkpt lat="44.467707071453333" lon="5.506832683458924">
        <ele>679.4000244140625</ele>
        <time>2014-05-20T10:24:59Z</time>
      </trkpt>
      <trkpt lat="44.467658288776875" lon="5.506977187469602">
        <ele>679.5999755859375</ele>
        <time>2014-05-20T10:25:02Z</time>
      </trkpt>
      <trkpt lat="44.467555191367865" lon="5.507278013974428">
        <ele>680.20001220703125</ele>
        <time>2014-05-20T10:25:08Z</time>
      </trkpt>
      <trkpt lat="44.467554436996579" lon="5.507456045597792">
        <ele>680.4000244140625</ele>
        <time>2014-05-20T10:25:11Z</time>
      </trkpt>
      <trkpt lat="44.467555107548833" lon="5.507510611787438">
        <ele>680.5999755859375</ele>
        <time>2014-05-20T10:25:12Z</time>
      </trkpt>
      <trkpt lat="44.467560220509768" lon="5.507626449689269">
        <ele>680.79998779296875</ele>
        <time>2014-05-20T10:25:14Z</time>
      </trkpt>
      <trkpt lat="44.46760238148272" lon="5.507789812982082">
        <ele>681.4000244140625</ele>
        <time>2014-05-20T10:25:17Z</time>
      </trkpt>
      <trkpt lat="44.467716459184885" lon="5.507929958403111">
        <ele>681.79998779296875</ele>
        <time>2014-05-20T10:25:21Z</time>
      </trkpt>
      <trkpt lat="44.467749483883381" lon="5.507951164618135">
        <ele>682</ele>
        <time>2014-05-20T10:25:22Z</time>
      </trkpt>
      <trkpt lat="44.467953834682703" lon="5.508075132966042">
        <ele>682.5999755859375</ele>
        <time>2014-05-20T10:25:28Z</time>
      </trkpt>
      <trkpt lat="44.467984177172184" lon="5.50809214822948">
        <ele>683</ele>
        <time>2014-05-20T10:25:29Z</time>
      </trkpt>
      <trkpt lat="44.468080569058657" lon="5.508163562044501">
        <ele>683.5999755859375</ele>
        <time>2014-05-20T10:25:32Z</time>
      </trkpt>
      <trkpt lat="44.468243261799216" lon="5.508290966972709">
        <ele>684.20001220703125</ele>
        <time>2014-05-20T10:25:37Z</time>
      </trkpt>
      <trkpt lat="44.468303946778178" lon="5.508339246734977">
        <ele>684.5999755859375</ele>
        <time>2014-05-20T10:25:39Z</time>
      </trkpt>
      <trkpt lat="44.468445600941777" lon="5.508464137092233">
        <ele>685.5999755859375</ele>
        <time>2014-05-20T10:25:44Z</time>
      </trkpt>
      <trkpt lat="44.468478122726083" lon="5.508479056879878">
        <ele>685.79998779296875</ele>
        <time>2014-05-20T10:25:45Z</time>
      </trkpt>
      <trkpt lat="44.46864458732307" lon="5.508598582819104">
        <ele>686.79998779296875</ele>
        <time>2014-05-20T10:25:51Z</time>
      </trkpt>
      <trkpt lat="44.468674594536424" lon="5.508608724921942">
        <ele>687</ele>
        <time>2014-05-20T10:25:52Z</time>
      </trkpt>
      <trkpt lat="44.468807280063629" lon="5.508667314425111">
        <ele>688</ele>
        <time>2014-05-20T10:25:57Z</time>
      </trkpt>
      <trkpt lat="44.468953125178814" lon="5.508744930848479">
        <ele>688.79998779296875</ele>
        <time>2014-05-20T10:26:03Z</time>
      </trkpt>
      <trkpt lat="44.468977432698011" lon="5.508762113749981">
        <ele>689</ele>
        <time>2014-05-20T10:26:04Z</time>
      </trkpt>
      <trkpt lat="44.469130989164114" lon="5.508890524506569">
        <ele>690</ele>
        <time>2014-05-20T10:26:11Z</time>
      </trkpt>
      <trkpt lat="44.469128977507353" lon="5.50909529440105">
        <ele>690.79998779296875</ele>
        <time>2014-05-20T10:26:17Z</time>
      </trkpt>
      <trkpt lat="44.469037028029561" lon="5.509244408458471">
        <ele>690.20001220703125</ele>
        <time>2014-05-20T10:26:22Z</time>
      </trkpt>
      <trkpt lat="44.468908281996846" lon="5.509442472830415">
        <ele>689.79998779296875</ele>
        <time>2014-05-20T10:26:28Z</time>
      </trkpt>
      <trkpt lat="44.468742990866303" lon="5.509746735915542">
        <ele>690</ele>
        <time>2014-05-20T10:26:36Z</time>
      </trkpt>
      <trkpt lat="44.468574598431587" lon="5.510022332891822">
        <ele>689</ele>
        <time>2014-05-20T10:26:42Z</time>
      </trkpt>
      <trkpt lat="44.468543417751789" lon="5.510071199387312">
        <ele>689</ele>
        <time>2014-05-20T10:26:43Z</time>
      </trkpt>
      <trkpt lat="44.468355495482683" lon="5.510317040607333">
        <ele>688.4000244140625</ele>
        <time>2014-05-20T10:26:49Z</time>
      </trkpt>
      <trkpt lat="44.468189030885696" lon="5.510553577914834">
        <ele>688</ele>
        <time>2014-05-20T10:26:54Z</time>
      </trkpt>
      <trkpt lat="44.468165561556816" lon="5.510615771636367">
        <ele>687.79998779296875</ele>
        <time>2014-05-20T10:26:55Z</time>
      </trkpt>
      <trkpt lat="44.468126501888037" lon="5.510802771896124">
        <ele>687.5999755859375</ele>
        <time>2014-05-20T10:26:58Z</time>
      </trkpt>
      <trkpt lat="44.468119796365499" lon="5.510939313098788">
        <ele>687.79998779296875</ele>
        <time>2014-05-20T10:27:00Z</time>
      </trkpt>
      <trkpt lat="44.468109989538789" lon="5.511076441034675">
        <ele>688</ele>
        <time>2014-05-20T10:27:02Z</time>
      </trkpt>
      <trkpt lat="44.468088448047638" lon="5.51127559505403">
        <ele>688.20001220703125</ele>
        <time>2014-05-20T10:27:05Z</time>
      </trkpt>
      <trkpt lat="44.468073695898056" lon="5.511333849281073">
        <ele>688.4000244140625</ele>
        <time>2014-05-20T10:27:06Z</time>
      </trkpt>
      <trkpt lat="44.468019213527441" lon="5.511492686346173">
        <ele>689</ele>
        <time>2014-05-20T10:27:09Z</time>
      </trkpt>
      <trkpt lat="44.467982584610581" lon="5.511631406843662">
        <ele>689.79998779296875</ele>
        <time>2014-05-20T10:27:12Z</time>
      </trkpt>
      <trkpt lat="44.467956013977528" lon="5.511716064065695">
        <ele>690</ele>
        <time>2014-05-20T10:27:14Z</time>
      </trkpt>
      <trkpt lat="44.467909913510084" lon="5.511924521997571">
        <ele>690.4000244140625</ele>
        <time>2014-05-20T10:27:19Z</time>
      </trkpt>
      <trkpt lat="44.467839254066348" lon="5.512223253026605">
        <ele>689.5999755859375</ele>
        <time>2014-05-20T10:27:25Z</time>
      </trkpt>
      <trkpt lat="44.467761386185884" lon="5.512544112280011">
        <ele>689.20001220703125</ele>
        <time>2014-05-20T10:27:31Z</time>
      </trkpt>
      <trkpt lat="44.467674633488059" lon="5.512938648462296">
        <ele>689.4000244140625</ele>
        <time>2014-05-20T10:27:38Z</time>
      </trkpt>
      <trkpt lat="44.46766247972846" lon="5.513060940429568">
        <ele>689.5999755859375</ele>
        <time>2014-05-20T10:27:40Z</time>
      </trkpt>
      <trkpt lat="44.467665581032634" lon="5.513231763616204">
        <ele>689.4000244140625</ele>
        <time>2014-05-20T10:27:43Z</time>
      </trkpt>
      <trkpt lat="44.467710424214602" lon="5.513730989769101">
        <ele>690.4000244140625</ele>
        <time>2014-05-20T10:27:52Z</time>
      </trkpt>
      <trkpt lat="44.467704389244318" lon="5.513868788257241">
        <ele>691</ele>
        <time>2014-05-20T10:27:55Z</time>
      </trkpt>
      <trkpt lat="44.467698354274035" lon="5.513949589803815">
        <ele>691.4000244140625</ele>
        <time>2014-05-20T10:27:57Z</time>
      </trkpt>
      <trkpt lat="44.467682093381882" lon="5.514092165976763">
        <ele>692.20001220703125</ele>
        <time>2014-05-20T10:28:01Z</time>
      </trkpt>
      <trkpt lat="44.467659713700414" lon="5.514156622812152">
        <ele>692.5999755859375</ele>
        <time>2014-05-20T10:28:03Z</time>
      </trkpt>
      <trkpt lat="44.467591233551502" lon="5.514339935034514">
        <ele>693.20001220703125</ele>
        <time>2014-05-20T10:28:09Z</time>
      </trkpt>
      <trkpt lat="44.467553179711103" lon="5.514499191194773">
        <ele>694.4000244140625</ele>
        <time>2014-05-20T10:28:14Z</time>
      </trkpt>
      <trkpt lat="44.467545719817281" lon="5.514531461521983">
        <ele>694.5999755859375</ele>
        <time>2014-05-20T10:28:15Z</time>
      </trkpt>
      <trkpt lat="44.467518646270037" lon="5.514719383791089">
        <ele>695.4000244140625</ele>
        <time>2014-05-20T10:28:21Z</time>
      </trkpt>
      <trkpt lat="44.467514539137483" lon="5.514783253893256">
        <ele>695.79998779296875</ele>
        <time>2014-05-20T10:28:23Z</time>
      </trkpt>
      <trkpt lat="44.467526944354177" lon="5.515031106770039">
        <ele>695.4000244140625</ele>
        <time>2014-05-20T10:28:29Z</time>
      </trkpt>
      <trkpt lat="44.46752711199224" lon="5.515394629910588">
        <ele>695.4000244140625</ele>
        <time>2014-05-20T10:28:36Z</time>
      </trkpt>
      <trkpt lat="44.467512527480721" lon="5.515448693186045">
        <ele>695.20001220703125</ele>
        <time>2014-05-20T10:28:37Z</time>
      </trkpt>
      <trkpt lat="44.467426612973213" lon="5.515726804733276">
        <ele>695.20001220703125</ele>
        <time>2014-05-20T10:28:42Z</time>
      </trkpt>
      <trkpt lat="44.467248246073723" lon="5.516176242381334">
        <ele>695.79998779296875</ele>
        <time>2014-05-20T10:28:51Z</time>
      </trkpt>
      <trkpt lat="44.467150680720806" lon="5.516431555151939">
        <ele>696.20001220703125</ele>
        <time>2014-05-20T10:28:56Z</time>
      </trkpt>
      <trkpt lat="44.467131737619638" lon="5.516480673104525">
        <ele>696.4000244140625</ele>
        <time>2014-05-20T10:28:57Z</time>
      </trkpt>
      <trkpt lat="44.467067951336503" lon="5.516635570675135">
        <ele>696.4000244140625</ele>
        <time>2014-05-20T10:29:00Z</time>
      </trkpt>
      <trkpt lat="44.467025622725487" lon="5.516737494617701">
        <ele>696.5999755859375</ele>
        <time>2014-05-20T10:29:02Z</time>
      </trkpt>
      <trkpt lat="44.466955550014973" lon="5.516872443258762">
        <ele>696.5999755859375</ele>
        <time>2014-05-20T10:29:05Z</time>
      </trkpt>
      <trkpt lat="44.466806771233678" lon="5.517130354419351">
        <ele>697.4000244140625</ele>
        <time>2014-05-20T10:29:12Z</time>
      </trkpt>
      <trkpt lat="44.466789588332176" lon="5.517166731879115">
        <ele>697.5999755859375</ele>
        <time>2014-05-20T10:29:13Z</time>
      </trkpt>
      <trkpt lat="44.466709373518825" lon="5.517317857593298">
        <ele>697.5999755859375</ele>
        <time>2014-05-20T10:29:17Z</time>
      </trkpt>
      <trkpt lat="44.466546261683106" lon="5.517547940835357">
        <ele>697</ele>
        <time>2014-05-20T10:29:23Z</time>
      </trkpt>
      <trkpt lat="44.466327242553234" lon="5.517762182280421">
        <ele>696.5999755859375</ele>
        <time>2014-05-20T10:29:29Z</time>
      </trkpt>
      <trkpt lat="44.466068493202329" lon="5.517986062914133">
        <ele>696.4000244140625</ele>
        <time>2014-05-20T10:29:35Z</time>
      </trkpt>
      <trkpt lat="44.465981991961598" lon="5.518068624660373">
        <ele>696.20001220703125</ele>
        <time>2014-05-20T10:29:37Z</time>
      </trkpt>
      <trkpt lat="44.465673202648759" lon="5.518438182771206">
        <ele>696.79998779296875</ele>
        <time>2014-05-20T10:29:45Z</time>
      </trkpt>
      <trkpt lat="44.465504894033074" lon="5.518688801676035">
        <ele>697.5999755859375</ele>
        <time>2014-05-20T10:29:50Z</time>
      </trkpt>
      <trkpt lat="44.465440521016717" lon="5.518782511353493">
        <ele>697.79998779296875</ele>
        <time>2014-05-20T10:29:52Z</time>
      </trkpt>
      <trkpt lat="44.465319402515888" lon="5.518945120275021">
        <ele>699</ele>
        <time>2014-05-20T10:29:56Z</time>
      </trkpt>
      <trkpt lat="44.465291323140264" lon="5.518989125266671">
        <ele>699</ele>
        <time>2014-05-20T10:29:57Z</time>
      </trkpt>
      <trkpt lat="44.465216640383005" lon="5.519128851592541">
        <ele>699.5999755859375</ele>
        <time>2014-05-20T10:30:00Z</time>
      </trkpt>
      <trkpt lat="44.465169450268149" lon="5.519214598461986">
        <ele>700</ele>
        <time>2014-05-20T10:30:02Z</time>
      </trkpt>
      <trkpt lat="44.465089570730925" lon="5.519389025866985">
        <ele>700.5999755859375</ele>
        <time>2014-05-20T10:30:06Z</time>
      </trkpt>
      <trkpt lat="44.465057132765651" lon="5.519479718059301">
        <ele>701.20001220703125</ele>
        <time>2014-05-20T10:30:08Z</time>
      </trkpt>
      <trkpt lat="44.464996196329594" lon="5.519650708884001">
        <ele>702.4000244140625</ele>
        <time>2014-05-20T10:30:12Z</time>
      </trkpt>
      <trkpt lat="44.464976666495204" lon="5.519693959504366">
        <ele>702.5999755859375</ele>
        <time>2014-05-20T10:30:13Z</time>
      </trkpt>
      <trkpt lat="44.46488312445581" lon="5.519900154322386">
        <ele>703.79998779296875</ele>
        <time>2014-05-20T10:30:18Z</time>
      </trkpt>
      <trkpt lat="44.464866947382689" lon="5.5199443269521">
        <ele>704.20001220703125</ele>
        <time>2014-05-20T10:30:19Z</time>
      </trkpt>
      <trkpt lat="44.464837275445461" lon="5.520035102963448">
        <ele>704.79998779296875</ele>
        <time>2014-05-20T10:30:21Z</time>
      </trkpt>
      <trkpt lat="44.464763766154647" lon="5.5202292278409">
        <ele>705.5999755859375</ele>
        <time>2014-05-20T10:30:26Z</time>
      </trkpt>
      <trkpt lat="44.464734429493546" lon="5.520299887284637">
        <ele>705.79998779296875</ele>
        <time>2014-05-20T10:30:28Z</time>
      </trkpt>
      <trkpt lat="44.464659998193383" lon="5.520500298589468">
        <ele>706.79998779296875</ele>
        <time>2014-05-20T10:30:33Z</time>
      </trkpt>
      <trkpt lat="44.464614149183035" lon="5.52062451839447">
        <ele>707</ele>
        <time>2014-05-20T10:30:36Z</time>
      </trkpt>
      <trkpt lat="44.464554637670517" lon="5.520775811746717">
        <ele>707.5999755859375</ele>
        <time>2014-05-20T10:30:40Z</time>
      </trkpt>
      <trkpt lat="44.464418180286884" lon="5.521107399836183">
        <ele>708</ele>
        <time>2014-05-20T10:30:48Z</time>
      </trkpt>
      <trkpt lat="44.464400745928288" lon="5.521150231361389">
        <ele>708</ele>
        <time>2014-05-20T10:30:49Z</time>
      </trkpt>
      <trkpt lat="44.464230928570032" lon="5.521518867462874">
        <ele>708</ele>
        <time>2014-05-20T10:30:57Z</time>
      </trkpt>
      <trkpt lat="44.464009059593081" lon="5.521814161911607">
        <ele>707.5999755859375</ele>
        <time>2014-05-20T10:31:04Z</time>
      </trkpt>
      <trkpt lat="44.463858185335994" lon="5.522012813016772">
        <ele>707</ele>
        <time>2014-05-20T10:31:08Z</time>
      </trkpt>
      <trkpt lat="44.46373488754034" lon="5.522158239036799">
        <ele>706.79998779296875</ele>
        <time>2014-05-20T10:31:11Z</time>
      </trkpt>
      <trkpt lat="44.463689122349024" lon="5.522198472172022">
        <ele>706.79998779296875</ele>
        <time>2014-05-20T10:31:12Z</time>
      </trkpt>
      <trkpt lat="44.463640674948692" lon="5.522231496870518">
        <ele>706.79998779296875</ele>
        <time>2014-05-20T10:31:13Z</time>
      </trkpt>
      <trkpt lat="44.463481418788433" lon="5.522277848795056">
        <ele>707.4000244140625</ele>
        <time>2014-05-20T10:31:16Z</time>
      </trkpt>
      <trkpt lat="44.463426433503628" lon="5.522282877936959">
        <ele>707.5999755859375</ele>
        <time>2014-05-20T10:31:17Z</time>
      </trkpt>
      <trkpt lat="44.463208420202136" lon="5.522333588451147">
        <ele>707.4000244140625</ele>
        <time>2014-05-20T10:31:21Z</time>
      </trkpt>
      <trkpt lat="44.463158212602139" lon="5.522366864606738">
        <ele>707.4000244140625</ele>
        <time>2014-05-20T10:31:22Z</time>
      </trkpt>
      <trkpt lat="44.463019240647554" lon="5.522492257878184">
        <ele>707.20001220703125</ele>
        <time>2014-05-20T10:31:25Z</time>
      </trkpt>
      <trkpt lat="44.462892254814506" lon="5.52262594923377">
        <ele>707.20001220703125</ele>
        <time>2014-05-20T10:31:28Z</time>
      </trkpt>
      <trkpt lat="44.462527306750417" lon="5.523012271150947">
        <ele>708</ele>
        <time>2014-05-20T10:31:37Z</time>
      </trkpt>
      <trkpt lat="44.46248983964324" lon="5.523055186495185">
        <ele>708</ele>
        <time>2014-05-20T10:31:38Z</time>
      </trkpt>
      <trkpt lat="44.462239556014538" lon="5.523314941674471">
        <ele>709.4000244140625</ele>
        <time>2014-05-20T10:31:45Z</time>
      </trkpt>
      <trkpt lat="44.462081640958786" lon="5.523477550595999">
        <ele>710.4000244140625</ele>
        <time>2014-05-20T10:31:50Z</time>
      </trkpt>
      <trkpt lat="44.461998408660293" lon="5.523574110120535">
        <ele>710.79998779296875</ele>
        <time>2014-05-20T10:31:53Z</time>
      </trkpt>
      <trkpt lat="44.461912829428911" lon="5.523669077083468">
        <ele>711.4000244140625</ele>
        <time>2014-05-20T10:31:56Z</time>
      </trkpt>
      <trkpt lat="44.461758267134428" lon="5.523824896663427">
        <ele>712</ele>
        <time>2014-05-20T10:32:01Z</time>
      </trkpt>
      <trkpt lat="44.461697917431593" lon="5.523888515308499">
        <ele>712.4000244140625</ele>
        <time>2014-05-20T10:32:03Z</time>
      </trkpt>
      <trkpt lat="44.461543187499046" lon="5.524042323231697">
        <ele>713.20001220703125</ele>
        <time>2014-05-20T10:32:08Z</time>
      </trkpt>
      <trkpt lat="44.461444867774844" lon="5.524130836129189">
        <ele>713.5999755859375</ele>
        <time>2014-05-20T10:32:11Z</time>
      </trkpt>
      <trkpt lat="44.461298435926437" lon="5.524295959621668">
        <ele>713.79998779296875</ele>
        <time>2014-05-20T10:32:16Z</time>
      </trkpt>
      <trkpt lat="44.461157536134124" lon="5.524451108649373">
        <ele>714.5999755859375</ele>
        <time>2014-05-20T10:32:21Z</time>
      </trkpt>
      <trkpt lat="44.461102718487382" lon="5.524511709809303">
        <ele>715</ele>
        <time>2014-05-20T10:32:23Z</time>
      </trkpt>
      <trkpt lat="44.46102250367403" lon="5.524605670943856">
        <ele>715.79998779296875</ele>
        <time>2014-05-20T10:32:26Z</time>
      </trkpt>
      <trkpt lat="44.460850590839982" lon="5.524805076420307">
        <ele>716.20001220703125</ele>
        <time>2014-05-20T10:32:32Z</time>
      </trkpt>
      <trkpt lat="44.460690831765532" lon="5.525015881285071">
        <ele>717</ele>
        <time>2014-05-20T10:32:38Z</time>
      </trkpt>
      <trkpt lat="44.460581196472049" lon="5.525233224034309">
        <ele>717.20001220703125</ele>
        <time>2014-05-20T10:32:43Z</time>
      </trkpt>
      <trkpt lat="44.460521098226309" lon="5.525370687246323">
        <ele>718</ele>
        <time>2014-05-20T10:32:46Z</time>
      </trkpt>
      <trkpt lat="44.460426466539502" lon="5.525607895106077">
        <ele>718.4000244140625</ele>
        <time>2014-05-20T10:32:51Z</time>
      </trkpt>
      <trkpt lat="44.460299480706453" lon="5.525897154584527">
        <ele>718.5999755859375</ele>
        <time>2014-05-20T10:32:57Z</time>
      </trkpt>
      <trkpt lat="44.460277436301112" lon="5.525942081585527">
        <ele>718.4000244140625</ele>
        <time>2014-05-20T10:32:58Z</time>
      </trkpt>
      <trkpt lat="44.460123460739851" lon="5.526284566149116">
        <ele>719</ele>
        <time>2014-05-20T10:33:05Z</time>
      </trkpt>
      <trkpt lat="44.460100326687098" lon="5.526336953043938">
        <ele>719.20001220703125</ele>
        <time>2014-05-20T10:33:06Z</time>
      </trkpt>
      <trkpt lat="44.459922211244702" lon="5.526650687679648">
        <ele>718.4000244140625</ele>
        <time>2014-05-20T10:33:12Z</time>
      </trkpt>
      <trkpt lat="44.459533542394638" lon="5.527232978492975">
        <ele>719.20001220703125</ele>
        <time>2014-05-20T10:33:24Z</time>
      </trkpt>
      <trkpt lat="44.459236403927207" lon="5.527618043124676">
        <ele>720</ele>
        <time>2014-05-20T10:33:33Z</time>
      </trkpt>
      <trkpt lat="44.45895460434258" lon="5.52795491181314">
        <ele>718.79998779296875</ele>
        <time>2014-05-20T10:33:40Z</time>
      </trkpt>
      <trkpt lat="44.458639025688171" lon="5.528304856270552">
        <ele>719.79998779296875</ele>
        <time>2014-05-20T10:33:47Z</time>
      </trkpt>
      <trkpt lat="44.458353035151958" lon="5.528643233701587">
        <ele>720</ele>
        <time>2014-05-20T10:33:54Z</time>
      </trkpt>
      <trkpt lat="44.458312131464481" lon="5.528687071055174">
        <ele>720.4000244140625</ele>
        <time>2014-05-20T10:33:55Z</time>
      </trkpt>
      <trkpt lat="44.458128903061152" lon="5.528902066871524">
        <ele>721.4000244140625</ele>
        <time>2014-05-20T10:34:00Z</time>
      </trkpt>
      <trkpt lat="44.457992278039455" lon="5.52907339297235">
        <ele>722.20001220703125</ele>
        <time>2014-05-20T10:34:04Z</time>
      </trkpt>
      <trkpt lat="44.457923211157322" lon="5.529152266681194">
        <ele>722.5999755859375</ele>
        <time>2014-05-20T10:34:06Z</time>
      </trkpt>
      <trkpt lat="44.457767978310585" lon="5.529337506741285">
        <ele>722.79998779296875</ele>
        <time>2014-05-20T10:34:11Z</time>
      </trkpt>
      <trkpt lat="44.457583911716938" lon="5.529555268585682">
        <ele>723.79998779296875</ele>
        <time>2014-05-20T10:34:18Z</time>
      </trkpt>
      <trkpt lat="44.457496320828795" lon="5.529669430106878">
        <ele>724.79998779296875</ele>
        <time>2014-05-20T10:34:22Z</time>
      </trkpt>
      <trkpt lat="44.457476958632469" lon="5.529697258025408">
        <ele>725.20001220703125</ele>
        <time>2014-05-20T10:34:23Z</time>
      </trkpt>
      <trkpt lat="44.457430271431804" lon="5.529746375977993">
        <ele>726</ele>
        <time>2014-05-20T10:34:25Z</time>
      </trkpt>
      <trkpt lat="44.457284091040492" lon="5.52991284057498">
        <ele>726.4000244140625</ele>
        <time>2014-05-20T10:34:31Z</time>
      </trkpt>
      <trkpt lat="44.457139167934656" lon="5.530096404254437">
        <ele>726.5999755859375</ele>
        <time>2014-05-20T10:34:38Z</time>
      </trkpt>
      <trkpt lat="44.457027269527316" lon="5.530231520533562">
        <ele>727</ele>
        <time>2014-05-20T10:34:43Z</time>
      </trkpt>
      <trkpt lat="44.456977648660541" lon="5.530284242704511">
        <ele>727.5999755859375</ele>
        <time>2014-05-20T10:34:45Z</time>
      </trkpt>
      <trkpt lat="44.456785870715976" lon="5.530505105853081">
        <ele>727.5999755859375</ele>
        <time>2014-05-20T10:34:51Z</time>
      </trkpt>
      <trkpt lat="44.45647532120347" lon="5.530866701155901">
        <ele>726.5999755859375</ele>
        <time>2014-05-20T10:35:00Z</time>
      </trkpt>
      <trkpt lat="44.456206429749727" lon="5.531174736097455">
        <ele>727.5999755859375</ele>
        <time>2014-05-20T10:35:08Z</time>
      </trkpt>
      <trkpt lat="44.455994535237551" lon="5.531399538740516">
        <ele>728.20001220703125</ele>
        <time>2014-05-20T10:35:15Z</time>
      </trkpt>
      <trkpt lat="44.455968802794814" lon="5.531429126858711">
        <ele>728.4000244140625</ele>
        <time>2014-05-20T10:35:16Z</time>
      </trkpt>
      <trkpt lat="44.455808373168111" lon="5.531607577577233">
        <ele>729.5999755859375</ele>
        <time>2014-05-20T10:35:23Z</time>
      </trkpt>
      <trkpt lat="44.455711478367448" lon="5.53171880543232">
        <ele>730.5999755859375</ele>
        <time>2014-05-20T10:35:27Z</time>
      </trkpt>
      <trkpt lat="44.455630425363779" lon="5.531798684969544">
        <ele>730.79998779296875</ele>
        <time>2014-05-20T10:35:30Z</time>
      </trkpt>
      <trkpt lat="44.455527998507023" lon="5.531909493729472">
        <ele>731.5999755859375</ele>
        <time>2014-05-20T10:35:34Z</time>
      </trkpt>
      <trkpt lat="44.455402437597513" lon="5.532065816223621">
        <ele>731.79998779296875</ele>
        <time>2014-05-20T10:35:39Z</time>
      </trkpt>
      <trkpt lat="44.455216862261295" lon="5.532269747927785">
        <ele>732.79998779296875</ele>
        <time>2014-05-20T10:35:46Z</time>
      </trkpt>
      <trkpt lat="44.455191800370812" lon="5.532299755141139">
        <ele>733</ele>
        <time>2014-05-20T10:35:47Z</time>
      </trkpt>
      <trkpt lat="44.454999770969152" lon="5.532515002414584">
        <ele>733.5999755859375</ele>
        <time>2014-05-20T10:35:54Z</time>
      </trkpt>
      <trkpt lat="44.454883178696036" lon="5.53263645619154">
        <ele>733.79998779296875</ele>
        <time>2014-05-20T10:35:58Z</time>
      </trkpt>
      <trkpt lat="44.454762730747461" lon="5.532766710966826">
        <ele>733.79998779296875</ele>
        <time>2014-05-20T10:36:02Z</time>
      </trkpt>
      <trkpt lat="44.454502807930112" lon="5.533015066757798">
        <ele>734.4000244140625</ele>
        <time>2014-05-20T10:36:10Z</time>
      </trkpt>
      <trkpt lat="44.454369200393558" lon="5.533149763941765">
        <ele>735</ele>
        <time>2014-05-20T10:36:14Z</time>
      </trkpt>
      <trkpt lat="44.454201981425285" lon="5.533314384520054">
        <ele>735</ele>
        <time>2014-05-20T10:36:19Z</time>
      </trkpt>
      <trkpt lat="44.454020848497748" lon="5.533493338152766">
        <ele>736</ele>
        <time>2014-05-20T10:36:24Z</time>
      </trkpt>
      <trkpt lat="44.453910961747169" lon="5.533614624291658">
        <ele>736.4000244140625</ele>
        <time>2014-05-20T10:36:27Z</time>
      </trkpt>
      <trkpt lat="44.453624384477735" lon="5.533892484381795">
        <ele>737</ele>
        <time>2014-05-20T10:36:35Z</time>
      </trkpt>
      <trkpt lat="44.453345099464059" lon="5.534132290631533">
        <ele>737</ele>
        <time>2014-05-20T10:36:43Z</time>
      </trkpt>
      <trkpt lat="44.45310671813786" lon="5.53437352180481">
        <ele>737.5999755859375</ele>
        <time>2014-05-20T10:36:51Z</time>
      </trkpt>
      <trkpt lat="44.452967075631022" lon="5.534512409940362">
        <ele>738.4000244140625</ele>
        <time>2014-05-20T10:36:56Z</time>
      </trkpt>
      <trkpt lat="44.452827936038375" lon="5.534676695242524">
        <ele>738.20001220703125</ele>
        <time>2014-05-20T10:37:01Z</time>
      </trkpt>
      <trkpt lat="44.452574551105499" lon="5.534969558939338">
        <ele>739.4000244140625</ele>
        <time>2014-05-20T10:37:10Z</time>
      </trkpt>
      <trkpt lat="44.452522667124867" lon="5.535035692155361">
        <ele>739.79998779296875</ele>
        <time>2014-05-20T10:37:12Z</time>
      </trkpt>
      <trkpt lat="44.452382437884808" lon="5.535201570019126">
        <ele>739.79998779296875</ele>
        <time>2014-05-20T10:37:17Z</time>
      </trkpt>
      <trkpt lat="44.452268863096833" lon="5.535341799259186">
        <ele>740.79998779296875</ele>
        <time>2014-05-20T10:37:21Z</time>
      </trkpt>
      <trkpt lat="44.452152354642749" lon="5.535490829497576">
        <ele>741.20001220703125</ele>
        <time>2014-05-20T10:37:25Z</time>
      </trkpt>
      <trkpt lat="44.451980525627732" lon="5.535740023478866">
        <ele>742</ele>
        <time>2014-05-20T10:37:32Z</time>
      </trkpt>
      <trkpt lat="44.451854294165969" lon="5.535960048437119">
        <ele>743</ele>
        <time>2014-05-20T10:37:38Z</time>
      </trkpt>
      <trkpt lat="44.451818754896522" lon="5.536029785871506">
        <ele>743.20001220703125</ele>
        <time>2014-05-20T10:37:40Z</time>
      </trkpt>
      <trkpt lat="44.451762847602367" lon="5.536133050918579">
        <ele>744</ele>
        <time>2014-05-20T10:37:43Z</time>
      </trkpt>
      <trkpt lat="44.451666790992022" lon="5.536319296807051">
        <ele>744.79998779296875</ele>
        <time>2014-05-20T10:37:48Z</time>
      </trkpt>
      <trkpt lat="44.451569225639105" lon="5.53650931455195">
        <ele>745</ele>
        <time>2014-05-20T10:37:53Z</time>
      </trkpt>
      <trkpt lat="44.451519688591361" lon="5.536637390032411">
        <ele>746</ele>
        <time>2014-05-20T10:37:56Z</time>
      </trkpt>
      <trkpt lat="44.451434276998043" lon="5.536929583176971">
        <ele>746.5999755859375</ele>
        <time>2014-05-20T10:38:03Z</time>
      </trkpt>
      <trkpt lat="44.451405527070165" lon="5.537063106894493">
        <ele>747.20001220703125</ele>
        <time>2014-05-20T10:38:06Z</time>
      </trkpt>
      <trkpt lat="44.451369820162654" lon="5.537288580089808">
        <ele>747.20001220703125</ele>
        <time>2014-05-20T10:38:11Z</time>
      </trkpt>
      <trkpt lat="44.451357163488865" lon="5.537499720230699">
        <ele>747.79998779296875</ele>
        <time>2014-05-20T10:38:16Z</time>
      </trkpt>
      <trkpt lat="44.451360600069165" lon="5.53763416595757">
        <ele>748.20001220703125</ele>
        <time>2014-05-20T10:38:19Z</time>
      </trkpt>
      <trkpt lat="44.451348027214408" lon="5.537812616676092">
        <ele>749.20001220703125</ele>
        <time>2014-05-20T10:38:23Z</time>
      </trkpt>
      <trkpt lat="44.451345596462488" lon="5.537855364382267">
        <ele>749.4000244140625</ele>
        <time>2014-05-20T10:38:24Z</time>
      </trkpt>
      <trkpt lat="44.451328497380018" lon="5.53810128942132">
        <ele>750.4000244140625</ele>
        <time>2014-05-20T10:38:30Z</time>
      </trkpt>
      <trkpt lat="44.451325312256813" lon="5.538140097633004">
        <ele>750.5999755859375</ele>
        <time>2014-05-20T10:38:31Z</time>
      </trkpt>
      <trkpt lat="44.451313996687531" lon="5.538280243054032">
        <ele>751.4000244140625</ele>
        <time>2014-05-20T10:38:35Z</time>
      </trkpt>
      <trkpt lat="44.451308296993375" lon="5.538411419838667">
        <ele>752</ele>
        <time>2014-05-20T10:38:39Z</time>
      </trkpt>
      <trkpt lat="44.451291700825095" lon="5.538555001839995">
        <ele>752.79998779296875</ele>
        <time>2014-05-20T10:38:44Z</time>
      </trkpt>
      <trkpt lat="44.451285330578685" lon="5.53858358412981">
        <ele>753</ele>
        <time>2014-05-20T10:38:45Z</time>
      </trkpt>
      <trkpt lat="44.451269153505564" lon="5.538758849725127">
        <ele>753.4000244140625</ele>
        <time>2014-05-20T10:38:51Z</time>
      </trkpt>
      <trkpt lat="44.451271500438452" lon="5.538819953799248">
        <ele>754</ele>
        <time>2014-05-20T10:38:53Z</time>
      </trkpt>
      <trkpt lat="44.451258508488536" lon="5.538942245766521">
        <ele>754.79998779296875</ele>
        <time>2014-05-20T10:38:57Z</time>
      </trkpt>
      <trkpt lat="44.451248617842793" lon="5.539000919088721">
        <ele>755.20001220703125</ele>
        <time>2014-05-20T10:38:59Z</time>
      </trkpt>
      <trkpt lat="44.451242331415415" lon="5.539139388129115">
        <ele>756.20001220703125</ele>
        <time>2014-05-20T10:39:04Z</time>
      </trkpt>
      <trkpt lat="44.451238308101892" lon="5.539166461676359">
        <ele>756.4000244140625</ele>
        <time>2014-05-20T10:39:05Z</time>
      </trkpt>
      <trkpt lat="44.451229004189372" lon="5.539282215759158">
        <ele>757.4000244140625</ele>
        <time>2014-05-20T10:39:09Z</time>
      </trkpt>
      <trkpt lat="44.451226321980357" lon="5.539308618754149">
        <ele>757.5999755859375</ele>
        <time>2014-05-20T10:39:10Z</time>
      </trkpt>
      <trkpt lat="44.451205283403397" lon="5.539466449990869">
        <ele>758.20001220703125</ele>
        <time>2014-05-20T10:39:16Z</time>
      </trkpt>
      <trkpt lat="44.451204612851143" lon="5.539498720318079">
        <ele>758.4000244140625</ele>
        <time>2014-05-20T10:39:17Z</time>
      </trkpt>
      <trkpt lat="44.451192123815417" lon="5.539622101932764">
        <ele>759.5999755859375</ele>
        <time>2014-05-20T10:39:21Z</time>
      </trkpt>
      <trkpt lat="44.451185334473848" lon="5.539651019498706">
        <ele>759.79998779296875</ele>
        <time>2014-05-20T10:39:22Z</time>
      </trkpt>
      <trkpt lat="44.45115021429956" lon="5.539841037243605">
        <ele>760.5999755859375</ele>
        <time>2014-05-20T10:39:28Z</time>
      </trkpt>
      <trkpt lat="44.451145688071847" lon="5.539873475208879">
        <ele>760.5999755859375</ele>
        <time>2014-05-20T10:39:29Z</time>
      </trkpt>
      <trkpt lat="44.451120290905237" lon="5.540025439113379">
        <ele>761.79998779296875</ele>
        <time>2014-05-20T10:39:34Z</time>
      </trkpt>
      <trkpt lat="44.451087098568678" lon="5.540159801021218">
        <ele>762.79998779296875</ele>
        <time>2014-05-20T10:39:39Z</time>
      </trkpt>
      <trkpt lat="44.451072011142969" lon="5.540211433544755">
        <ele>763.4000244140625</ele>
        <time>2014-05-20T10:39:41Z</time>
      </trkpt>
      <trkpt lat="44.451042674481869" lon="5.540338419377804">
        <ele>764</ele>
        <time>2014-05-20T10:39:46Z</time>
      </trkpt>
      <trkpt lat="44.451027838513255" lon="5.540410922840238">
        <ele>764.4000244140625</ele>
        <time>2014-05-20T10:39:49Z</time>
      </trkpt>
      <trkpt lat="44.451000262051821" lon="5.540532879531384">
        <ele>765</ele>
        <time>2014-05-20T10:39:53Z</time>
      </trkpt>
      <trkpt lat="44.450969500467181" lon="5.540621811524034">
        <ele>765.4000244140625</ele>
        <time>2014-05-20T10:39:56Z</time>
      </trkpt>
      <trkpt lat="44.450925914570689" lon="5.540819456800818">
        <ele>766</ele>
        <time>2014-05-20T10:40:02Z</time>
      </trkpt>
      <trkpt lat="44.450908228754997" lon="5.540850721299648">
        <ele>766.20001220703125</ele>
        <time>2014-05-20T10:40:03Z</time>
      </trkpt>
      <trkpt lat="44.450830444693565" lon="5.541049791499972">
        <ele>767</ele>
        <time>2014-05-20T10:40:09Z</time>
      </trkpt>
      <trkpt lat="44.450797503814101" lon="5.541150122880936">
        <ele>767.20001220703125</ele>
        <time>2014-05-20T10:40:12Z</time>
      </trkpt>
      <trkpt lat="44.450750313699245" lon="5.541277192533016">
        <ele>767.4000244140625</ele>
        <time>2014-05-20T10:40:16Z</time>
      </trkpt>
      <trkpt lat="44.450711673125625" lon="5.541450446471572">
        <ele>768.4000244140625</ele>
        <time>2014-05-20T10:40:21Z</time>
      </trkpt>
      <trkpt lat="44.450704799965024" lon="5.541489087045193">
        <ele>768.5999755859375</ele>
        <time>2014-05-20T10:40:22Z</time>
      </trkpt>
      <trkpt lat="44.450603295117617" lon="5.541758816689253">
        <ele>768.79998779296875</ele>
        <time>2014-05-20T10:40:30Z</time>
      </trkpt>
      <trkpt lat="44.450567252933979" lon="5.541900554671884">
        <ele>769.5999755859375</ele>
        <time>2014-05-20T10:40:34Z</time>
      </trkpt>
      <trkpt lat="44.450537580996752" lon="5.542010441422463">
        <ele>769.5999755859375</ele>
        <time>2014-05-20T10:40:37Z</time>
      </trkpt>
      <trkpt lat="44.450437417253852" lon="5.542309759184718">
        <ele>770</ele>
        <time>2014-05-20T10:40:45Z</time>
      </trkpt>
      <trkpt lat="44.450357286259532" lon="5.542560126632452">
        <ele>769.79998779296875</ele>
        <time>2014-05-20T10:40:52Z</time>
      </trkpt>
      <trkpt lat="44.45028243586421" lon="5.542687112465501">
        <ele>769.79998779296875</ele>
        <time>2014-05-20T10:40:57Z</time>
      </trkpt>
      <trkpt lat="44.450225858017802" lon="5.542804207652807">
        <ele>771.5999755859375</ele>
        <time>2014-05-20T11:03:20Z</time>
      </trkpt>
      <trkpt lat="44.450214710086584" lon="5.542882075533271">
        <ele>771.4000244140625</ele>
        <time>2014-05-20T11:03:23Z</time>
      </trkpt>
      <trkpt lat="44.450168525800109" lon="5.543114254251123">
        <ele>771.79998779296875</ele>
        <time>2014-05-20T11:03:30Z</time>
      </trkpt>
      <trkpt lat="44.450065763667226" lon="5.543326148763299">
        <ele>772</ele>
        <time>2014-05-20T11:03:36Z</time>
      </trkpt>
      <trkpt lat="44.449966857209802" lon="5.543569559231401">
        <ele>771.4000244140625</ele>
        <time>2014-05-20T11:03:41Z</time>
      </trkpt>
      <trkpt lat="44.449792010709643" lon="5.543979266658425">
        <ele>770.5999755859375</ele>
        <time>2014-05-20T11:03:49Z</time>
      </trkpt>
      <trkpt lat="44.449726128950715" lon="5.54413391277194">
        <ele>770.4000244140625</ele>
        <time>2014-05-20T11:03:52Z</time>
      </trkpt>
      <trkpt lat="44.449701150879264" lon="5.544181941077113">
        <ele>770.4000244140625</ele>
        <time>2014-05-20T11:03:53Z</time>
      </trkpt>
      <trkpt lat="44.449631664901972" lon="5.544319488108158">
        <ele>771.20001220703125</ele>
        <time>2014-05-20T11:03:56Z</time>
      </trkpt>
      <trkpt lat="44.44960618391633" lon="5.544366929680109">
        <ele>771.4000244140625</ele>
        <time>2014-05-20T11:03:57Z</time>
      </trkpt>
      <trkpt lat="44.449513396248221" lon="5.544551834464073">
        <ele>771.5999755859375</ele>
        <time>2014-05-20T11:04:01Z</time>
      </trkpt>
      <trkpt lat="44.449472073465586" lon="5.544638000428677">
        <ele>772</ele>
        <time>2014-05-20T11:04:03Z</time>
      </trkpt>
      <trkpt lat="44.449380375444889" lon="5.544802621006966">
        <ele>772.5999755859375</ele>
        <time>2014-05-20T11:04:07Z</time>
      </trkpt>
      <trkpt lat="44.449303345754743" lon="5.544929271563888">
        <ele>772.5999755859375</ele>
        <time>2014-05-20T11:04:10Z</time>
      </trkpt>
      <trkpt lat="44.449178874492645" lon="5.545156756415963">
        <ele>773</ele>
        <time>2014-05-20T11:04:15Z</time>
      </trkpt>
      <trkpt lat="44.44912338629365" lon="5.545309642329812">
        <ele>773.4000244140625</ele>
        <time>2014-05-20T11:04:18Z</time>
      </trkpt>
      <trkpt lat="44.449076615273952" lon="5.545466216281056">
        <ele>773.79998779296875</ele>
        <time>2014-05-20T11:04:21Z</time>
      </trkpt>
      <trkpt lat="44.449040405452251" lon="5.545669142156839">
        <ele>774.4000244140625</ele>
        <time>2014-05-20T11:04:25Z</time>
      </trkpt>
      <trkpt lat="44.449019953608513" lon="5.545823704451323">
        <ele>775</ele>
        <time>2014-05-20T11:04:28Z</time>
      </trkpt>
      <trkpt lat="44.449008302763104" lon="5.545980278402567">
        <ele>775.20001220703125</ele>
        <time>2014-05-20T11:04:31Z</time>
      </trkpt>
      <trkpt lat="44.448979971930385" lon="5.546166440472007">
        <ele>776</ele>
        <time>2014-05-20T11:04:35Z</time>
      </trkpt>
      <trkpt lat="44.448968069627881" lon="5.546258054673672">
        <ele>776.4000244140625</ele>
        <time>2014-05-20T11:04:37Z</time>
      </trkpt>
      <trkpt lat="44.448948288336396" lon="5.546381939202547">
        <ele>777</ele>
        <time>2014-05-20T11:04:40Z</time>
      </trkpt>
      <trkpt lat="44.448906714096665" lon="5.546537339687347">
        <ele>777.79998779296875</ele>
        <time>2014-05-20T11:04:44Z</time>
      </trkpt>
      <trkpt lat="44.448879892006516" lon="5.546608837321401">
        <ele>778.20001220703125</ele>
        <time>2014-05-20T11:04:46Z</time>
      </trkpt>
      <trkpt lat="44.44883119314909" lon="5.546777062118053">
        <ele>779</ele>
        <time>2014-05-20T11:04:51Z</time>
      </trkpt>
      <trkpt lat="44.448824822902679" lon="5.546814696863294">
        <ele>779.20001220703125</ele>
        <time>2014-05-20T11:04:52Z</time>
      </trkpt>
      <trkpt lat="44.448766903951764" lon="5.547013934701681">
        <ele>780.20001220703125</ele>
        <time>2014-05-20T11:04:58Z</time>
      </trkpt>
      <trkpt lat="44.448758354410529" lon="5.547044025734067">
        <ele>780.4000244140625</ele>
        <time>2014-05-20T11:04:59Z</time>
      </trkpt>
      <trkpt lat="44.448694903403521" lon="5.547224739566445">
        <ele>781.5999755859375</ele>
        <time>2014-05-20T11:05:05Z</time>
      </trkpt>
      <trkpt lat="44.448672691360116" lon="5.547287603840232">
        <ele>782</ele>
        <time>2014-05-20T11:05:07Z</time>
      </trkpt>
      <trkpt lat="44.448645953088999" lon="5.547384917736054">
        <ele>782.5999755859375</ele>
        <time>2014-05-20T11:05:10Z</time>
      </trkpt>
      <trkpt lat="44.448614018037915" lon="5.547472508624196">
        <ele>783.4000244140625</ele>
        <time>2014-05-20T11:05:13Z</time>
      </trkpt>
      <trkpt lat="44.448591386899352" lon="5.547528499737382">
        <ele>783.79998779296875</ele>
        <time>2014-05-20T11:05:15Z</time>
      </trkpt>
      <trkpt lat="44.448535814881325" lon="5.547630088403821">
        <ele>784.4000244140625</ele>
        <time>2014-05-20T11:05:19Z</time>
      </trkpt>
      <trkpt lat="44.448521649464965" lon="5.547651126980782">
        <ele>784.79998779296875</ele>
        <time>2014-05-20T11:05:20Z</time>
      </trkpt>
      <trkpt lat="44.448428777977824" lon="5.547720529139042">
        <ele>785.79998779296875</ele>
        <time>2014-05-20T11:05:25Z</time>
      </trkpt>
      <trkpt lat="44.448409583419561" lon="5.547723043709993">
        <ele>786</ele>
        <time>2014-05-20T11:05:26Z</time>
      </trkpt>
      <trkpt lat="44.448250159621239" lon="5.547764617949724">
        <ele>786.5999755859375</ele>
        <time>2014-05-20T11:05:33Z</time>
      </trkpt>
      <trkpt lat="44.448177237063646" lon="5.547775682061911">
        <ele>787.20001220703125</ele>
        <time>2014-05-20T11:05:36Z</time>
      </trkpt>
      <trkpt lat="44.448074642568827" lon="5.547804515808821">
        <ele>788</ele>
        <time>2014-05-20T11:05:40Z</time>
      </trkpt>
      <trkpt lat="44.44803767837584" lon="5.54782697930932">
        <ele>788.20001220703125</ele>
        <time>2014-05-20T11:05:42Z</time>
      </trkpt>
      <trkpt lat="44.447969449684024" lon="5.547870900481939">
        <ele>788.5999755859375</ele>
        <time>2014-05-20T11:05:45Z</time>
      </trkpt>
      <trkpt lat="44.447870040312409" lon="5.547995623201132">
        <ele>788.79998779296875</ele>
        <time>2014-05-20T11:05:50Z</time>
      </trkpt>
      <trkpt lat="44.447796866297722" lon="5.548157561570406">
        <ele>789.4000244140625</ele>
        <time>2014-05-20T11:05:55Z</time>
      </trkpt>
      <trkpt lat="44.447762835770845" lon="5.548213049769402">
        <ele>789.5999755859375</ele>
        <time>2014-05-20T11:05:57Z</time>
      </trkpt>
      <trkpt lat="44.447659403085709" lon="5.548432320356369">
        <ele>790.4000244140625</ele>
        <time>2014-05-20T11:06:04Z</time>
      </trkpt>
      <trkpt lat="44.447624702006578" lon="5.548497280105948">
        <ele>791.20001220703125</ele>
        <time>2014-05-20T11:06:06Z</time>
      </trkpt>
      <trkpt lat="44.447609363123775" lon="5.548526281490922">
        <ele>791.4000244140625</ele>
        <time>2014-05-20T11:06:07Z</time>
      </trkpt>
      <trkpt lat="44.44750358350575" lon="5.548670450225473">
        <ele>792</ele>
        <time>2014-05-20T11:06:13Z</time>
      </trkpt>
      <trkpt lat="44.447445245459676" lon="5.548747396096587">
        <ele>792.5999755859375</ele>
        <time>2014-05-20T11:06:16Z</time>
      </trkpt>
      <trkpt lat="44.447373915463686" lon="5.548854852095246">
        <ele>793.20001220703125</ele>
        <time>2014-05-20T11:06:20Z</time>
      </trkpt>
      <trkpt lat="44.447333430871367" lon="5.548894749954343">
        <ele>793.79998779296875</ele>
        <time>2014-05-20T11:06:22Z</time>
      </trkpt>
      <trkpt lat="44.447246426716447" lon="5.549005474895239">
        <ele>795</ele>
        <time>2014-05-20T11:06:27Z</time>
      </trkpt>
      <trkpt lat="44.447149531915784" lon="5.549164479598403">
        <ele>795.5999755859375</ele>
        <time>2014-05-20T11:06:33Z</time>
      </trkpt>
      <trkpt lat="44.44708289578557" lon="5.549326334148645">
        <ele>796</ele>
        <time>2014-05-20T11:06:38Z</time>
      </trkpt>
      <trkpt lat="44.44704526104033" lon="5.549425575882196">
        <ele>796.20001220703125</ele>
        <time>2014-05-20T11:06:41Z</time>
      </trkpt>
      <trkpt lat="44.446947779506445" lon="5.549577455967665">
        <ele>796.79998779296875</ele>
        <time>2014-05-20T11:06:46Z</time>
      </trkpt>
      <trkpt lat="44.446907211095095" lon="5.549638476222754">
        <ele>797.20001220703125</ele>
        <time>2014-05-20T11:06:48Z</time>
      </trkpt>
      <trkpt lat="44.446782236918807" lon="5.549789518117905">
        <ele>798.20001220703125</ele>
        <time>2014-05-20T11:06:54Z</time>
      </trkpt>
      <trkpt lat="44.446628764271736" lon="5.549906529486179">
        <ele>799.4000244140625</ele>
        <time>2014-05-20T11:07:01Z</time>
      </trkpt>
      <trkpt lat="44.446467831730843" lon="5.549977943301201">
        <ele>800.20001220703125</ele>
        <time>2014-05-20T11:07:08Z</time>
      </trkpt>
      <trkpt lat="44.446415025740862" lon="5.550031000748277">
        <ele>800.4000244140625</ele>
        <time>2014-05-20T11:07:11Z</time>
      </trkpt>
      <trkpt lat="44.446363393217325" lon="5.550056900829077">
        <ele>801.20001220703125</ele>
        <time>2014-05-20T11:07:13Z</time>
      </trkpt>
      <trkpt lat="44.4462317135185" lon="5.550099313259125">
        <ele>801.5999755859375</ele>
        <time>2014-05-20T11:07:18Z</time>
      </trkpt>
      <trkpt lat="44.446193911135197" lon="5.550103085115552">
        <ele>801.79998779296875</ele>
        <time>2014-05-20T11:07:19Z</time>
      </trkpt>
      <trkpt lat="44.44596198387444" lon="5.550155388191342">
        <ele>802.5999755859375</ele>
        <time>2014-05-20T11:07:25Z</time>
      </trkpt>
      <trkpt lat="44.445901298895478" lon="5.550183719024062">
        <ele>802.79998779296875</ele>
        <time>2014-05-20T11:07:27Z</time>
      </trkpt>
      <trkpt lat="44.445798955857754" lon="5.550336940214038">
        <ele>803</ele>
        <time>2014-05-20T11:07:32Z</time>
      </trkpt>
      <trkpt lat="44.445694936439395" lon="5.550477169454098">
        <ele>803.79998779296875</ele>
        <time>2014-05-20T11:07:36Z</time>
      </trkpt>
      <trkpt lat="44.445595191791654" lon="5.550572052598">
        <ele>804.79998779296875</ele>
        <time>2014-05-20T11:07:40Z</time>
      </trkpt>
      <trkpt lat="44.445534506812692" lon="5.550603987649083">
        <ele>805</ele>
        <time>2014-05-20T11:07:42Z</time>
      </trkpt>
      <trkpt lat="44.445607177913189" lon="5.550752682611346">
        <ele>805.4000244140625</ele>
        <time>2014-05-20T11:07:45Z</time>
      </trkpt>
      <trkpt lat="44.445513468235731" lon="5.550850415602326">
        <ele>806</ele>
        <time>2014-05-20T11:07:50Z</time>
      </trkpt>
      <trkpt lat="44.445470469072461" lon="5.55087455548346">
        <ele>806.4000244140625</ele>
        <time>2014-05-20T11:07:52Z</time>
      </trkpt>
      <trkpt lat="44.445361504331231" lon="5.55094538256526">
        <ele>807.20001220703125</ele>
        <time>2014-05-20T11:07:58Z</time>
      </trkpt>
      <trkpt lat="44.445343567058444" lon="5.550958123058081">
        <ele>807.4000244140625</ele>
        <time>2014-05-20T11:07:59Z</time>
      </trkpt>
      <trkpt lat="44.445254635065794" lon="5.551083600148559">
        <ele>808.4000244140625</ele>
        <time>2014-05-20T11:08:05Z</time>
      </trkpt>
      <trkpt lat="44.445221526548266" lon="5.551123330369592">
        <ele>809</ele>
        <time>2014-05-20T11:08:07Z</time>
      </trkpt>
      <trkpt lat="44.445212977007031" lon="5.551137495785952">
        <ele>809.20001220703125</ele>
        <time>2014-05-20T11:08:08Z</time>
      </trkpt>
      <trkpt lat="44.445176599547267" lon="5.551179740577936">
        <ele>809.4000244140625</ele>
        <time>2014-05-20T11:08:10Z</time>
      </trkpt>
      <trkpt lat="44.445155644789338" lon="5.551199438050389">
        <ele>809.5999755859375</ele>
        <time>2014-05-20T11:08:11Z</time>
      </trkpt>
      <trkpt lat="44.44504433311522" lon="5.551292644813657">
        <ele>810.5999755859375</ele>
        <time>2014-05-20T11:08:17Z</time>
      </trkpt>
      <trkpt lat="44.445017846301198" lon="5.551326088607311">
        <ele>810.79998779296875</ele>
        <time>2014-05-20T11:08:19Z</time>
      </trkpt>
      <trkpt lat="44.444917598739266" lon="5.551417367532849">
        <ele>811.79998779296875</ele>
        <time>2014-05-20T11:08:25Z</time>
      </trkpt>
      <trkpt lat="44.444898990914226" lon="5.551433376967907">
        <ele>811.79998779296875</ele>
        <time>2014-05-20T11:08:26Z</time>
      </trkpt>
      <trkpt lat="44.444873929023743" lon="5.551473526284099">
        <ele>812</ele>
        <time>2014-05-20T11:08:28Z</time>
      </trkpt>
      <trkpt lat="44.444814585149288" lon="5.551559524610639">
        <ele>812.79998779296875</ele>
        <time>2014-05-20T11:08:32Z</time>
      </trkpt>
      <trkpt lat="44.444765634834766" lon="5.55171643383801">
        <ele>813.4000244140625</ele>
        <time>2014-05-20T11:08:37Z</time>
      </trkpt>
      <trkpt lat="44.44475213997066" lon="5.5519431643188">
        <ele>813.79998779296875</ele>
        <time>2014-05-20T11:08:42Z</time>
      </trkpt>
      <trkpt lat="44.444737555459142" lon="5.551983984187245">
        <ele>813.79998779296875</ele>
        <time>2014-05-20T11:08:43Z</time>
      </trkpt>
      <trkpt lat="44.444637391716242" lon="5.552318003028631">
        <ele>814.79998779296875</ele>
        <time>2014-05-20T11:08:51Z</time>
      </trkpt>
      <trkpt lat="44.444625405594707" lon="5.552360583096743">
        <ele>815</ele>
        <time>2014-05-20T11:08:52Z</time>
      </trkpt>
      <trkpt lat="44.444516524672508" lon="5.552655793726444">
        <ele>815.5999755859375</ele>
        <time>2014-05-20T11:08:59Z</time>
      </trkpt>
      <trkpt lat="44.444397920742631" lon="5.55296634323895">
        <ele>815.79998779296875</ele>
        <time>2014-05-20T11:09:06Z</time>
      </trkpt>
      <trkpt lat="44.444344192743301" lon="5.553056532517076">
        <ele>816</ele>
        <time>2014-05-20T11:09:08Z</time>
      </trkpt>
      <trkpt lat="44.444191390648484" lon="5.553349899128079">
        <ele>816.4000244140625</ele>
        <time>2014-05-20T11:09:14Z</time>
      </trkpt>
      <trkpt lat="44.444076307117939" lon="5.553537989035249">
        <ele>817</ele>
        <time>2014-05-20T11:09:18Z</time>
      </trkpt>
      <trkpt lat="44.443934233859181" lon="5.553790703415871">
        <ele>817.4000244140625</ele>
        <time>2014-05-20T11:09:23Z</time>
      </trkpt>
      <trkpt lat="44.443739019334316" lon="5.554050877690315">
        <ele>818.20001220703125</ele>
        <time>2014-05-20T11:09:29Z</time>
      </trkpt>
      <trkpt lat="44.443704653531313" lon="5.554086919873953">
        <ele>818.20001220703125</ele>
        <time>2014-05-20T11:09:30Z</time>
      </trkpt>
      <trkpt lat="44.443543469533324" lon="5.554290181025863">
        <ele>818.79998779296875</ele>
        <time>2014-05-20T11:09:36Z</time>
      </trkpt>
      <trkpt lat="44.443500386551023" lon="5.554352207109332">
        <ele>819.20001220703125</ele>
        <time>2014-05-20T11:09:38Z</time>
      </trkpt>
      <trkpt lat="44.443411203101277" lon="5.554466536268592">
        <ele>820.4000244140625</ele>
        <time>2014-05-20T11:09:42Z</time>
      </trkpt>
      <trkpt lat="44.443368790671229" lon="5.554522275924683">
        <ele>820.5999755859375</ele>
        <time>2014-05-20T11:09:44Z</time>
      </trkpt>
      <trkpt lat="44.443243565037847" lon="5.554694021120668">
        <ele>821.4000244140625</ele>
        <time>2014-05-20T11:09:50Z</time>
      </trkpt>
      <trkpt lat="44.443138036876917" lon="5.554835004732013">
        <ele>822.4000244140625</ele>
        <time>2014-05-20T11:09:56Z</time>
      </trkpt>
      <trkpt lat="44.443103168159723" lon="5.55487347766757">
        <ele>822.5999755859375</ele>
        <time>2014-05-20T11:09:58Z</time>
      </trkpt>
      <trkpt lat="44.443047009408474" lon="5.554928882047534">
        <ele>823.5999755859375</ele>
        <time>2014-05-20T11:10:01Z</time>
      </trkpt>
      <trkpt lat="44.442991269752383" lon="5.55498143658042">
        <ele>824.4000244140625</ele>
        <time>2014-05-20T11:10:04Z</time>
      </trkpt>
      <trkpt lat="44.44287627004087" lon="5.555066261440516">
        <ele>825</ele>
        <time>2014-05-20T11:10:10Z</time>
      </trkpt>
      <trkpt lat="44.442836372181773" lon="5.555090233683586">
        <ele>825</ele>
        <time>2014-05-20T11:10:12Z</time>
      </trkpt>
      <trkpt lat="44.442741489037871" lon="5.555139603093267">
        <ele>826.20001220703125</ele>
        <time>2014-05-20T11:10:17Z</time>
      </trkpt>
      <trkpt lat="44.442721623927355" lon="5.55514857172966">
        <ele>826.4000244140625</ele>
        <time>2014-05-20T11:10:18Z</time>
      </trkpt>
      <trkpt lat="44.44266420789063" lon="5.555178830400109">
        <ele>827.4000244140625</ele>
        <time>2014-05-20T11:10:21Z</time>
      </trkpt>
      <trkpt lat="44.442571336403489" lon="5.555227361619473">
        <ele>828.5999755859375</ele>
        <time>2014-05-20T11:10:26Z</time>
      </trkpt>
      <trkpt lat="44.442479303106666" lon="5.555302379652858">
        <ele>829.79998779296875</ele>
        <time>2014-05-20T11:10:31Z</time>
      </trkpt>
      <trkpt lat="44.442443763837218" lon="5.55533423088491">
        <ele>830</ele>
        <time>2014-05-20T11:10:33Z</time>
      </trkpt>
      <trkpt lat="44.44233538582921" lon="5.555406147614121">
        <ele>829.79998779296875</ele>
        <time>2014-05-20T11:10:39Z</time>
      </trkpt>
      <trkpt lat="44.442276377230883" lon="5.555427437648177">
        <ele>830.79998779296875</ele>
        <time>2014-05-20T11:10:42Z</time>
      </trkpt>
      <trkpt lat="44.442221391946077" lon="5.55545249953866">
        <ele>831.5999755859375</ele>
        <time>2014-05-20T11:10:45Z</time>
      </trkpt>
      <trkpt lat="44.442201610654593" lon="5.555456355214119">
        <ele>832</ele>
        <time>2014-05-20T11:10:46Z</time>
      </trkpt>
      <trkpt lat="44.442104967311025" lon="5.555494409054518">
        <ele>832.79998779296875</ele>
        <time>2014-05-20T11:10:51Z</time>
      </trkpt>
      <trkpt lat="44.442064482718706" lon="5.555505976080895">
        <ele>833</ele>
        <time>2014-05-20T11:10:53Z</time>
      </trkpt>
      <trkpt lat="44.441983932629228" lon="5.555528691038489">
        <ele>834.20001220703125</ele>
        <time>2014-05-20T11:10:57Z</time>
      </trkpt>
      <trkpt lat="44.441963816061616" lon="5.5555419344455">
        <ele>834.20001220703125</ele>
        <time>2014-05-20T11:10:58Z</time>
      </trkpt>
      <trkpt lat="44.441809002310038" lon="5.555622316896915">
        <ele>835.4000244140625</ele>
        <time>2014-05-20T11:11:06Z</time>
      </trkpt>
      <trkpt lat="44.441773295402527" lon="5.555635392665863">
        <ele>835.5999755859375</ele>
        <time>2014-05-20T11:11:08Z</time>
      </trkpt>
      <trkpt lat="44.441686123609543" lon="5.555734550580382">
        <ele>836.4000244140625</ele>
        <time>2014-05-20T11:11:13Z</time>
      </trkpt>
      <trkpt lat="44.441668605431914" lon="5.555752236396074">
        <ele>836.5999755859375</ele>
        <time>2014-05-20T11:11:14Z</time>
      </trkpt>
      <trkpt lat="44.44160440005362" lon="5.555808059871197">
        <ele>837.5999755859375</ele>
        <time>2014-05-20T11:11:18Z</time>
      </trkpt>
      <trkpt lat="44.441561819985509" lon="5.555844688788056">
        <ele>838</ele>
        <time>2014-05-20T11:11:21Z</time>
      </trkpt>
      <trkpt lat="44.441525107249618" lon="5.55590009316802">
        <ele>838.4000244140625</ele>
        <time>2014-05-20T11:11:24Z</time>
      </trkpt>
      <trkpt lat="44.441493004560471" lon="5.555929513648152">
        <ele>838.79998779296875</ele>
        <time>2014-05-20T11:11:26Z</time>
      </trkpt>
      <trkpt lat="44.441480096429586" lon="5.555947870016098">
        <ele>838.79998779296875</ele>
        <time>2014-05-20T11:11:27Z</time>
      </trkpt>
      <trkpt lat="44.4414690323174" lon="5.555962705984712">
        <ele>839</ele>
        <time>2014-05-20T11:11:28Z</time>
      </trkpt>
      <trkpt lat="44.441395606845617" lon="5.556017020717263">
        <ele>840</ele>
        <time>2014-05-20T11:11:33Z</time>
      </trkpt>
      <trkpt lat="44.441349674016237" lon="5.556046776473522">
        <ele>840.4000244140625</ele>
        <time>2014-05-20T11:11:36Z</time>
      </trkpt>
      <trkpt lat="44.44125697016716" lon="5.556094301864505">
        <ele>841</ele>
        <time>2014-05-20T11:11:42Z</time>
      </trkpt>
      <trkpt lat="44.44123744033277" lon="5.55610092356801">
        <ele>841.20001220703125</ele>
        <time>2014-05-20T11:11:43Z</time>
      </trkpt>
      <trkpt lat="44.441136689856648" lon="5.556170744821429">
        <ele>842</ele>
        <time>2014-05-20T11:11:49Z</time>
      </trkpt>
      <trkpt lat="44.441098133102059" lon="5.556185580790043">
        <ele>842.5999755859375</ele>
        <time>2014-05-20T11:11:51Z</time>
      </trkpt>
      <trkpt lat="44.441028479486704" lon="5.55623821914196">
        <ele>843.20001220703125</ele>
        <time>2014-05-20T11:11:55Z</time>
      </trkpt>
      <trkpt lat="44.440984977409244" lon="5.556298233568668">
        <ele>843.5999755859375</ele>
        <time>2014-05-20T11:11:58Z</time>
      </trkpt>
      <trkpt lat="44.440972153097391" lon="5.556316925212741">
        <ele>843.79998779296875</ele>
        <time>2014-05-20T11:11:59Z</time>
      </trkpt>
      <trkpt lat="44.440937116742134" lon="5.556385908275843">
        <ele>844.4000244140625</ele>
        <time>2014-05-20T11:12:02Z</time>
      </trkpt>
      <trkpt lat="44.440892357379198" lon="5.556432930752635">
        <ele>845.20001220703125</ele>
        <time>2014-05-20T11:12:05Z</time>
      </trkpt>
      <trkpt lat="44.440856482833624" lon="5.556533178314567">
        <ele>845.4000244140625</ele>
        <time>2014-05-20T11:12:09Z</time>
      </trkpt>
      <trkpt lat="44.440830079838634" lon="5.556596126407385">
        <ele>846</ele>
        <time>2014-05-20T11:12:12Z</time>
      </trkpt>
      <trkpt lat="44.440810130909085" lon="5.556715652346611">
        <ele>846.5999755859375</ele>
        <time>2014-05-20T11:12:17Z</time>
      </trkpt>
      <trkpt lat="44.440795043483377" lon="5.556761752814055">
        <ele>847.20001220703125</ele>
        <time>2014-05-20T11:12:19Z</time>
      </trkpt>
      <trkpt lat="44.440788421779871" lon="5.556786479428411">
        <ele>847.5999755859375</ele>
        <time>2014-05-20T11:12:20Z</time>
      </trkpt>
      <trkpt lat="44.440740058198571" lon="5.556853283196688">
        <ele>848.5999755859375</ele>
        <time>2014-05-20T11:12:24Z</time>
      </trkpt>
      <trkpt lat="44.440721953287721" lon="5.556889409199357">
        <ele>848.79998779296875</ele>
        <time>2014-05-20T11:12:26Z</time>
      </trkpt>
      <trkpt lat="44.440671242773533" lon="5.557050677016377">
        <ele>849.5999755859375</ele>
        <time>2014-05-20T11:12:34Z</time>
      </trkpt>
      <trkpt lat="44.440657496452332" lon="5.557065680623055">
        <ele>849.79998779296875</ele>
        <time>2014-05-20T11:12:35Z</time>
      </trkpt>
      <trkpt lat="44.440627824515104" lon="5.557140279561281">
        <ele>850.20001220703125</ele>
        <time>2014-05-20T11:12:39Z</time>
      </trkpt>
      <trkpt lat="44.440588597208261" lon="5.557197444140911">
        <ele>851.20001220703125</ele>
        <time>2014-05-20T11:12:43Z</time>
      </trkpt>
      <trkpt lat="44.440546687692404" lon="5.557228708639741">
        <ele>852</ele>
        <time>2014-05-20T11:12:46Z</time>
      </trkpt>
      <trkpt lat="44.440530175343156" lon="5.557236336171627">
        <ele>852.4000244140625</ele>
        <time>2014-05-20T11:12:47Z</time>
      </trkpt>
      <trkpt lat="44.440452726557851" lon="5.557281682267785">
        <ele>853.4000244140625</ele>
        <time>2014-05-20T11:12:52Z</time>
      </trkpt>
      <trkpt lat="44.440413750708103" lon="5.557323005050421">
        <ele>853.20001220703125</ele>
        <time>2014-05-20T11:12:55Z</time>
      </trkpt>
      <trkpt lat="44.440341247245669" lon="5.55739383213222">
        <ele>854.5999755859375</ele>
        <time>2014-05-20T11:13:00Z</time>
      </trkpt>
      <trkpt lat="44.440327333286405" lon="5.557394670322537">
        <ele>854.79998779296875</ele>
        <time>2014-05-20T11:13:01Z</time>
      </trkpt>
      <trkpt lat="44.440313503146172" lon="5.557402884587646">
        <ele>855</ele>
        <time>2014-05-20T11:13:02Z</time>
      </trkpt>
      <trkpt lat="44.440267821773887" lon="5.557428281754255">
        <ele>855.5999755859375</ele>
        <time>2014-05-20T11:13:05Z</time>
      </trkpt>
      <trkpt lat="44.440221218392253" lon="5.557454349473119">
        <ele>856</ele>
        <time>2014-05-20T11:13:08Z</time>
      </trkpt>
      <trkpt lat="44.440204370766878" lon="5.557451080530882">
        <ele>856</ele>
        <time>2014-05-20T11:13:09Z</time>
      </trkpt>
      <trkpt lat="44.440159611403942" lon="5.557481590658426">
        <ele>856.79998779296875</ele>
        <time>2014-05-20T11:13:12Z</time>
      </trkpt>
      <trkpt lat="44.440148295834661" lon="5.557495336979628">
        <ele>857</ele>
        <time>2014-05-20T11:13:13Z</time>
      </trkpt>
      <trkpt lat="44.440073696896434" lon="5.557543616741896">
        <ele>857.4000244140625</ele>
        <time>2014-05-20T11:13:18Z</time>
      </trkpt>
      <trkpt lat="44.44004176184535" lon="5.557555938139558">
        <ele>857.5999755859375</ele>
        <time>2014-05-20T11:13:20Z</time>
      </trkpt>
      <trkpt lat="44.440025500953197" lon="5.557561554014683">
        <ele>857.79998779296875</ele>
        <time>2014-05-20T11:13:21Z</time>
      </trkpt>
      <trkpt lat="44.439953835681081" lon="5.557571863755584">
        <ele>859</ele>
        <time>2014-05-20T11:13:25Z</time>
      </trkpt>
      <trkpt lat="44.439898766577244" lon="5.557597260922194">
        <ele>859.20001220703125</ele>
        <time>2014-05-20T11:13:28Z</time>
      </trkpt>
      <trkpt lat="44.439784688875079" lon="5.557623244822025">
        <ele>860.20001220703125</ele>
        <time>2014-05-20T11:13:35Z</time>
      </trkpt>
      <trkpt lat="44.43976859562099" lon="5.557634392753243">
        <ele>860.5999755859375</ele>
        <time>2014-05-20T11:13:36Z</time>
      </trkpt>
      <trkpt lat="44.439748311415315" lon="5.55763372220099">
        <ele>860.79998779296875</ele>
        <time>2014-05-20T11:13:37Z</time>
      </trkpt>
      <trkpt lat="44.4397197291255" lon="5.557636236771941">
        <ele>861.20001220703125</ele>
        <time>2014-05-20T11:13:39Z</time>
      </trkpt>
      <trkpt lat="44.439701959490776" lon="5.557645205408335">
        <ele>861.20001220703125</ele>
        <time>2014-05-20T11:13:40Z</time>
      </trkpt>
      <trkpt lat="44.439596682786942" lon="5.557699939236045">
        <ele>862.4000244140625</ele>
        <time>2014-05-20T11:13:47Z</time>
      </trkpt>
      <trkpt lat="44.439580421894789" lon="5.557710332795978">
        <ele>862.79998779296875</ele>
        <time>2014-05-20T11:13:48Z</time>
      </trkpt>
      <trkpt lat="44.439505822956562" lon="5.557759534567595">
        <ele>863.4000244140625</ele>
        <time>2014-05-20T11:13:53Z</time>
      </trkpt>
      <trkpt lat="44.439454441890121" lon="5.557807730510831">
        <ele>864.79998779296875</ele>
        <time>2014-05-20T11:13:57Z</time>
      </trkpt>
      <trkpt lat="44.439371125772595" lon="5.557876126840711">
        <ele>865.79998779296875</ele>
        <time>2014-05-20T11:14:03Z</time>
      </trkpt>
      <trkpt lat="44.439363246783614" lon="5.557891549542546">
        <ele>866</ele>
        <time>2014-05-20T11:14:04Z</time>
      </trkpt>
      <trkpt lat="44.439338352531195" lon="5.557922227308154">
        <ele>866.4000244140625</ele>
        <time>2014-05-20T11:14:06Z</time>
      </trkpt>
      <trkpt lat="44.439293341711164" lon="5.557950222864747">
        <ele>866.79998779296875</ele>
        <time>2014-05-20T11:14:09Z</time>
      </trkpt>
      <trkpt lat="44.439241709187627" lon="5.557983750477433">
        <ele>867.20001220703125</ele>
        <time>2014-05-20T11:14:12Z</time>
      </trkpt>
      <trkpt lat="44.439148083329201" lon="5.558072431012988">
        <ele>868</ele>
        <time>2014-05-20T11:14:18Z</time>
      </trkpt>
      <trkpt lat="44.439112627878785" lon="5.558098079636693">
        <ele>868.4000244140625</ele>
        <time>2014-05-20T11:14:20Z</time>
      </trkpt>
      <trkpt lat="44.439035765826702" lon="5.558179970830679">
        <ele>869.20001220703125</ele>
        <time>2014-05-20T11:14:25Z</time>
      </trkpt>
      <trkpt lat="44.439010368660092" lon="5.558211570605636">
        <ele>869.5999755859375</ele>
        <time>2014-05-20T11:14:27Z</time>
      </trkpt>
      <trkpt lat="44.438964771106839" lon="5.558247528970242">
        <ele>870.20001220703125</ele>
        <time>2014-05-20T11:14:30Z</time>
      </trkpt>
      <trkpt lat="44.438911713659763" lon="5.55830754339695">
        <ele>871</ele>
        <time>2014-05-20T11:14:34Z</time>
      </trkpt>
      <trkpt lat="44.438886819407344" lon="5.558340651914477">
        <ele>871.20001220703125</ele>
        <time>2014-05-20T11:14:36Z</time>
      </trkpt>
      <trkpt lat="44.438810208812356" lon="5.558399995788932">
        <ele>872.20001220703125</ele>
        <time>2014-05-20T11:14:41Z</time>
      </trkpt>
      <trkpt lat="44.438796378672123" lon="5.558411227539182">
        <ele>872.4000244140625</ele>
        <time>2014-05-20T11:14:42Z</time>
      </trkpt>
      <trkpt lat="44.438718594610691" lon="5.558453472331166">
        <ele>873.20001220703125</ele>
        <time>2014-05-20T11:14:47Z</time>
      </trkpt>
      <trkpt lat="44.438703171908855" lon="5.558462692424655">
        <ele>873.4000244140625</ele>
        <time>2014-05-20T11:14:48Z</time>
      </trkpt>
      <trkpt lat="44.438609965145588" lon="5.558534944429994">
        <ele>874.5999755859375</ele>
        <time>2014-05-20T11:14:54Z</time>
      </trkpt>
      <trkpt lat="44.438558164983988" lon="5.558585319668055">
        <ele>875</ele>
        <time>2014-05-20T11:14:58Z</time>
      </trkpt>
      <trkpt lat="44.438517764210701" lon="5.55861541070044">
        <ele>875.5999755859375</ele>
        <time>2014-05-20T11:15:01Z</time>
      </trkpt>
      <trkpt lat="44.438461354002357" lon="5.558626810088754">
        <ele>876.20001220703125</ele>
        <time>2014-05-20T11:15:04Z</time>
      </trkpt>
      <trkpt lat="44.438408128917217" lon="5.558646339923143">
        <ele>876.79998779296875</ele>
        <time>2014-05-20T11:15:07Z</time>
      </trkpt>
      <trkpt lat="44.438342247158289" lon="5.558596299961209">
        <ele>877.20001220703125</ele>
        <time>2014-05-20T11:15:11Z</time>
      </trkpt>
      <trkpt lat="44.438363537192345" lon="5.558486161753535">
        <ele>877.4000244140625</ele>
        <time>2014-05-20T11:15:15Z</time>
      </trkpt>
      <trkpt lat="44.438417265191674" lon="5.55844048038125">
        <ele>877.79998779296875</ele>
        <time>2014-05-20T11:15:18Z</time>
      </trkpt>
      <trkpt lat="44.438456241041422" lon="5.558427153155208">
        <ele>878.20001220703125</ele>
        <time>2014-05-20T11:15:20Z</time>
      </trkpt>
      <trkpt lat="44.438514914363623" lon="5.558424470946193">
        <ele>879</ele>
        <time>2014-05-20T11:15:23Z</time>
      </trkpt>
      <trkpt lat="44.438578197732568" lon="5.558375604450703">
        <ele>879.4000244140625</ele>
        <time>2014-05-20T11:15:27Z</time>
      </trkpt>
      <trkpt lat="44.438647767528892" lon="5.558234369382262">
        <ele>880</ele>
        <time>2014-05-20T11:15:33Z</time>
      </trkpt>
      <trkpt lat="44.438656317070127" lon="5.558210648596287">
        <ele>880.20001220703125</ele>
        <time>2014-05-20T11:15:34Z</time>
      </trkpt>
      <trkpt lat="44.438695292919874" lon="5.558057427406311">
        <ele>881.4000244140625</ele>
        <time>2014-05-20T11:15:40Z</time>
      </trkpt>
      <trkpt lat="44.438786404207349" lon="5.557886185124517">
        <ele>882.20001220703125</ele>
        <time>2014-05-20T11:15:47Z</time>
      </trkpt>
      <trkpt lat="44.438795289024711" lon="5.557860285043716">
        <ele>882.4000244140625</ele>
        <time>2014-05-20T11:15:48Z</time>
      </trkpt>
      <trkpt lat="44.438865194097161" lon="5.557709410786629">
        <ele>883.4000244140625</ele>
        <time>2014-05-20T11:15:54Z</time>
      </trkpt>
      <trkpt lat="44.438918670639396" lon="5.557552501559258">
        <ele>884.4000244140625</ele>
        <time>2014-05-20T11:16:00Z</time>
      </trkpt>
      <trkpt lat="44.438998466357589" lon="5.557371871545911">
        <ele>885.4000244140625</ele>
        <time>2014-05-20T11:16:08Z</time>
      </trkpt>
      <trkpt lat="44.439026210457087" lon="5.557195013388991">
        <ele>886</ele>
        <time>2014-05-20T11:16:15Z</time>
      </trkpt>
      <trkpt lat="44.439000813290477" lon="5.557156121358275">
        <ele>886.20001220703125</ele>
        <time>2014-05-20T11:16:17Z</time>
      </trkpt>
      <trkpt lat="44.43894037976861" lon="5.55717196315527">
        <ele>886.20001220703125</ele>
        <time>2014-05-20T11:16:20Z</time>
      </trkpt>
      <trkpt lat="44.438880532979965" lon="5.55726969614625">
        <ele>885.20001220703125</ele>
        <time>2014-05-20T11:16:24Z</time>
      </trkpt>
      <trkpt lat="44.43886904977262" lon="5.55729852989316">
        <ele>885.79998779296875</ele>
        <time>2014-05-20T11:16:25Z</time>
      </trkpt>
      <trkpt lat="44.438855890184641" lon="5.557324513792992">
        <ele>886.4000244140625</ele>
        <time>2014-05-20T11:16:26Z</time>
      </trkpt>
      <trkpt lat="44.438810292631388" lon="5.557441441342235">
        <ele>887.79998779296875</ele>
        <time>2014-05-20T11:16:30Z</time>
      </trkpt>
      <trkpt lat="44.438752206042409" lon="5.557528948411346">
        <ele>888.20001220703125</ele>
        <time>2014-05-20T11:16:34Z</time>
      </trkpt>
      <trkpt lat="44.438691101968288" lon="5.557615701109171">
        <ele>889.20001220703125</ele>
        <time>2014-05-20T11:16:38Z</time>
      </trkpt>
      <trkpt lat="44.438640726730227" lon="5.557708404958248">
        <ele>890.20001220703125</ele>
        <time>2014-05-20T11:16:42Z</time>
      </trkpt>
      <trkpt lat="44.438627986237407" lon="5.557732293382287">
        <ele>890.4000244140625</ele>
        <time>2014-05-20T11:16:43Z</time>
      </trkpt>
      <trkpt lat="44.438530169427395" lon="5.557949971407652">
        <ele>891.5999755859375</ele>
        <time>2014-05-20T11:16:52Z</time>
      </trkpt>
      <trkpt lat="44.438398908823729" lon="5.558079387992621">
        <ele>890.5999755859375</ele>
        <time>2014-05-20T11:17:00Z</time>
      </trkpt>
      <trkpt lat="44.438342163339257" lon="5.558083914220333">
        <ele>891.5999755859375</ele>
        <time>2014-05-20T11:17:03Z</time>
      </trkpt>
      <trkpt lat="44.438265804201365" lon="5.558082154020667">
        <ele>893.4000244140625</ele>
        <time>2014-05-20T11:17:07Z</time>
      </trkpt>
      <trkpt lat="44.438239568844438" lon="5.558063965290785">
        <ele>894.4000244140625</ele>
        <time>2014-05-20T11:17:09Z</time>
      </trkpt>
      <trkpt lat="44.438177794218063" lon="5.558034209534526">
        <ele>894.20001220703125</ele>
        <time>2014-05-20T11:17:13Z</time>
      </trkpt>
      <trkpt lat="44.438082911074162" lon="5.557987354695797">
        <ele>895.4000244140625</ele>
        <time>2014-05-20T11:17:19Z</time>
      </trkpt>
      <trkpt lat="44.438053239136934" lon="5.557979308068752">
        <ele>895.79998779296875</ele>
        <time>2014-05-20T11:17:21Z</time>
      </trkpt>
      <trkpt lat="44.437968581914902" lon="5.557946870103478">
        <ele>896.4000244140625</ele>
        <time>2014-05-20T11:17:26Z</time>
      </trkpt>
      <trkpt lat="44.437951985746622" lon="5.557945864275098">
        <ele>896.5999755859375</ele>
        <time>2014-05-20T11:17:27Z</time>
      </trkpt>
      <trkpt lat="44.437868082895875" lon="5.557940332219005">
        <ele>897.4000244140625</ele>
        <time>2014-05-20T11:17:32Z</time>
      </trkpt>
      <trkpt lat="44.437848720699549" lon="5.557932537049055">
        <ele>897.5999755859375</ele>
        <time>2014-05-20T11:17:33Z</time>
      </trkpt>
      <trkpt lat="44.437779989093542" lon="5.557932956144214">
        <ele>898.5999755859375</ele>
        <time>2014-05-20T11:17:37Z</time>
      </trkpt>
      <trkpt lat="44.437705390155315" lon="5.557950725778937">
        <ele>899.79998779296875</ele>
        <time>2014-05-20T11:17:41Z</time>
      </trkpt>
      <trkpt lat="44.437654847279191" lon="5.557958353310823">
        <ele>900.20001220703125</ele>
        <time>2014-05-20T11:17:44Z</time>
      </trkpt>
      <trkpt lat="44.437548397108912" lon="5.558036556467414">
        <ele>900.4000244140625</ele>
        <time>2014-05-20T11:17:50Z</time>
      </trkpt>
      <trkpt lat="44.437479330226779" lon="5.558104617521167">
        <ele>900.79998779296875</ele>
        <time>2014-05-20T11:17:55Z</time>
      </trkpt>
      <trkpt lat="44.437433481216431" lon="5.558141246438026">
        <ele>902.20001220703125</ele>
        <time>2014-05-20T11:17:58Z</time>
      </trkpt>
      <trkpt lat="44.437421998009086" lon="5.558155663311482">
        <ele>902.5999755859375</ele>
        <time>2014-05-20T11:17:59Z</time>
      </trkpt>
      <trkpt lat="44.437397187575698" lon="5.558191202580929">
        <ele>902.79998779296875</ele>
        <time>2014-05-20T11:18:01Z</time>
      </trkpt>
      <trkpt lat="44.437365252524614" lon="5.558249540627003">
        <ele>903.20001220703125</ele>
        <time>2014-05-20T11:18:04Z</time>
      </trkpt>
      <trkpt lat="44.437277661636472" lon="5.558374933898449">
        <ele>903.79998779296875</ele>
        <time>2014-05-20T11:18:11Z</time>
      </trkpt>
      <trkpt lat="44.43725410848856" lon="5.558415837585926">
        <ele>904.4000244140625</ele>
        <time>2014-05-20T11:18:13Z</time>
      </trkpt>
      <trkpt lat="44.437233908101916" lon="5.558452969416976">
        <ele>904.79998779296875</ele>
        <time>2014-05-20T11:18:15Z</time>
      </trkpt>
      <trkpt lat="44.437199207022786" lon="5.558500830084086">
        <ele>905.20001220703125</ele>
        <time>2014-05-20T11:18:18Z</time>
      </trkpt>
      <trkpt lat="44.437188562005758" lon="5.558518599718809">
        <ele>905.4000244140625</ele>
        <time>2014-05-20T11:18:19Z</time>
      </trkpt>
      <trkpt lat="44.437126619741321" lon="5.558570232242346">
        <ele>906.4000244140625</ele>
        <time>2014-05-20T11:18:23Z</time>
      </trkpt>
      <trkpt lat="44.437097618356347" lon="5.558607950806618">
        <ele>907</ele>
        <time>2014-05-20T11:18:25Z</time>
      </trkpt>
      <trkpt lat="44.436987731605768" lon="5.558713646605611">
        <ele>907.4000244140625</ele>
        <time>2014-05-20T11:18:32Z</time>
      </trkpt>
      <trkpt lat="44.436970129609108" lon="5.558724207803607">
        <ele>907.5999755859375</ele>
        <time>2014-05-20T11:18:33Z</time>
      </trkpt>
      <trkpt lat="44.436896871775389" lon="5.558748180046678">
        <ele>908.5999755859375</ele>
        <time>2014-05-20T11:18:37Z</time>
      </trkpt>
      <trkpt lat="44.436848592013121" lon="5.558748599141836">
        <ele>909.5999755859375</ele>
        <time>2014-05-20T11:18:40Z</time>
      </trkpt>
      <trkpt lat="44.436834175139666" lon="5.558745916932821">
        <ele>910</ele>
        <time>2014-05-20T11:18:41Z</time>
      </trkpt>
      <trkpt lat="44.436789583414793" lon="5.558725548908114">
        <ele>910.5999755859375</ele>
        <time>2014-05-20T11:18:44Z</time>
      </trkpt>
      <trkpt lat="44.436755301430821" lon="5.558687495067716">
        <ele>910.79998779296875</ele>
        <time>2014-05-20T11:18:47Z</time>
      </trkpt>
      <trkpt lat="44.436726300045848" lon="5.558640891686082">
        <ele>911.79998779296875</ele>
        <time>2014-05-20T11:18:50Z</time>
      </trkpt>
      <trkpt lat="44.436700148507953" lon="5.558577440679073">
        <ele>912.79998779296875</ele>
        <time>2014-05-20T11:18:53Z</time>
      </trkpt>
      <trkpt lat="44.436690174043179" lon="5.55855480954051">
        <ele>912.79998779296875</ele>
        <time>2014-05-20T11:18:54Z</time>
      </trkpt>
      <trkpt lat="44.436663938686252" lon="5.558402175083756">
        <ele>913.5999755859375</ele>
        <time>2014-05-20T11:19:00Z</time>
      </trkpt>
      <trkpt lat="44.436649773269892" lon="5.558357834815979">
        <ele>914</ele>
        <time>2014-05-20T11:19:02Z</time>
      </trkpt>
      <trkpt lat="44.436639295890927" lon="5.558314500376582">
        <ele>914.5999755859375</ele>
        <time>2014-05-20T11:19:04Z</time>
      </trkpt>
      <trkpt lat="44.436631668359041" lon="5.55829044431448">
        <ele>915</ele>
        <time>2014-05-20T11:19:05Z</time>
      </trkpt>
      <trkpt lat="44.43662722595036" lon="5.558266472071409">
        <ele>915.20001220703125</ele>
        <time>2014-05-20T11:19:06Z</time>
      </trkpt>
      <trkpt lat="44.436609875410795" lon="5.558214168995619">
        <ele>915.4000244140625</ele>
        <time>2014-05-20T11:19:08Z</time>
      </trkpt>
      <trkpt lat="44.436577437445521" lon="5.558145688846707">
        <ele>915.79998779296875</ele>
        <time>2014-05-20T11:19:11Z</time>
      </trkpt>
      <trkpt lat="44.436556398868561" lon="5.55809791199863">
        <ele>916.79998779296875</ele>
        <time>2014-05-20T11:19:13Z</time>
      </trkpt>
      <trkpt lat="44.436550363898277" lon="5.558073855936527">
        <ele>917</ele>
        <time>2014-05-20T11:19:14Z</time>
      </trkpt>
      <trkpt lat="44.436531504616141" lon="5.558027252554894">
        <ele>917.20001220703125</ele>
        <time>2014-05-20T11:19:16Z</time>
      </trkpt>
      <trkpt lat="44.43648406304419" lon="5.55795768275857">
        <ele>918</ele>
        <time>2014-05-20T11:19:19Z</time>
      </trkpt>
      <trkpt lat="44.436441985890269" lon="5.55787218734622">
        <ele>918.5999755859375</ele>
        <time>2014-05-20T11:19:23Z</time>
      </trkpt>
      <trkpt lat="44.436435364186764" lon="5.557850645855069">
        <ele>919</ele>
        <time>2014-05-20T11:19:24Z</time>
      </trkpt>
      <trkpt lat="44.436423797160387" lon="5.55782868526876">
        <ele>919</ele>
        <time>2014-05-20T11:19:25Z</time>
      </trkpt>
      <trkpt lat="44.436382558196783" lon="5.557774035260081">
        <ele>919.5999755859375</ele>
        <time>2014-05-20T11:19:28Z</time>
      </trkpt>
      <trkpt lat="44.43634626455605" lon="5.557709997519851">
        <ele>920.20001220703125</ele>
        <time>2014-05-20T11:19:32Z</time>
      </trkpt>
      <trkpt lat="44.436329584568739" lon="5.557681499049068">
        <ele>920.4000244140625</ele>
        <time>2014-05-20T11:19:34Z</time>
      </trkpt>
      <trkpt lat="44.43630619905889" lon="5.557639757171273">
        <ele>921.20001220703125</ele>
        <time>2014-05-20T11:19:37Z</time>
      </trkpt>
      <trkpt lat="44.436288177967072" lon="5.557625843212009">
        <ele>921.4000244140625</ele>
        <time>2014-05-20T11:19:38Z</time>
      </trkpt>
      <trkpt lat="44.436277700588107" lon="5.557615952566266">
        <ele>921.5999755859375</ele>
        <time>2014-05-20T11:19:39Z</time>
      </trkpt>
      <trkpt lat="44.436204107478261" lon="5.557546801865101">
        <ele>922.20001220703125</ele>
        <time>2014-05-20T11:19:44Z</time>
      </trkpt>
      <trkpt lat="44.436181811615825" lon="5.557522410526872">
        <ele>922.4000244140625</ele>
        <time>2014-05-20T11:19:46Z</time>
      </trkpt>
      <trkpt lat="44.436160856857896" lon="5.557500952854753">
        <ele>922.79998779296875</ele>
        <time>2014-05-20T11:19:48Z</time>
      </trkpt>
      <trkpt lat="44.436128837987781" lon="5.557507993653417">
        <ele>923.20001220703125</ele>
        <time>2014-05-20T11:19:50Z</time>
      </trkpt>
      <trkpt lat="44.436095729470253" lon="5.557493744418025">
        <ele>923.20001220703125</ele>
        <time>2014-05-20T11:19:52Z</time>
      </trkpt>
      <trkpt lat="44.436083408072591" lon="5.557486787438393">
        <ele>923.4000244140625</ele>
        <time>2014-05-20T11:19:53Z</time>
      </trkpt>
      <trkpt lat="44.436070416122675" lon="5.557486619800329">
        <ele>923.5999755859375</ele>
        <time>2014-05-20T11:19:54Z</time>
      </trkpt>
      <trkpt lat="44.436041498556733" lon="5.557500198483467">
        <ele>923.79998779296875</ele>
        <time>2014-05-20T11:19:56Z</time>
      </trkpt>
      <trkpt lat="44.435964217409492" lon="5.557539341971278">
        <ele>924.5999755859375</ele>
        <time>2014-05-20T11:20:01Z</time>
      </trkpt>
      <trkpt lat="44.435948794707656" lon="5.557556189596653">
        <ele>924.79998779296875</ele>
        <time>2014-05-20T11:20:02Z</time>
      </trkpt>
      <trkpt lat="44.435910908505321" lon="5.557612683624029">
        <ele>924.5999755859375</ele>
        <time>2014-05-20T11:20:05Z</time>
      </trkpt>
      <trkpt lat="44.435885762795806" lon="5.557655012235045">
        <ele>925</ele>
        <time>2014-05-20T11:20:07Z</time>
      </trkpt>
      <trkpt lat="44.435806386172771" lon="5.557745369151235">
        <ele>925.5999755859375</ele>
        <time>2014-05-20T11:20:12Z</time>
      </trkpt>
      <trkpt lat="44.435772942379117" lon="5.557785769924521">
        <ele>926</ele>
        <time>2014-05-20T11:20:14Z</time>
      </trkpt>
      <trkpt lat="44.435735223814845" lon="5.557854920625687">
        <ele>926.79998779296875</ele>
        <time>2014-05-20T11:20:17Z</time>
      </trkpt>
      <trkpt lat="44.435666911303997" lon="5.557951983064413">
        <ele>928</ele>
        <time>2014-05-20T11:20:22Z</time>
      </trkpt>
      <trkpt lat="44.435609495267272" lon="5.558059103786945">
        <ele>929</ele>
        <time>2014-05-20T11:20:27Z</time>
      </trkpt>
      <trkpt lat="44.435600275173783" lon="5.558080729097128">
        <ele>929.20001220703125</ele>
        <time>2014-05-20T11:20:28Z</time>
      </trkpt>
      <trkpt lat="44.435531375929713" lon="5.558229926973581">
        <ele>930</ele>
        <time>2014-05-20T11:20:35Z</time>
      </trkpt>
      <trkpt lat="44.435516456142068" lon="5.55824400857091">
        <ele>930</ele>
        <time>2014-05-20T11:20:36Z</time>
      </trkpt>
      <trkpt lat="44.43549457937479" lon="5.558284325525165">
        <ele>930.4000244140625</ele>
        <time>2014-05-20T11:20:38Z</time>
      </trkpt>
      <trkpt lat="44.435472367331386" lon="5.558346770703793">
        <ele>930.79998779296875</ele>
        <time>2014-05-20T11:20:41Z</time>
      </trkpt>
      <trkpt lat="44.435445293784142" lon="5.558408545330167">
        <ele>931.20001220703125</ele>
        <time>2014-05-20T11:20:44Z</time>
      </trkpt>
      <trkpt lat="44.435413861647248" lon="5.558459339663386">
        <ele>932.4000244140625</ele>
        <time>2014-05-20T11:20:47Z</time>
      </trkpt>
      <trkpt lat="44.435403719544411" lon="5.55850544013083">
        <ele>933</ele>
        <time>2014-05-20T11:20:49Z</time>
      </trkpt>
      <trkpt lat="44.435383267700672" lon="5.558590767905116">
        <ele>933.5999755859375</ele>
        <time>2014-05-20T11:20:53Z</time>
      </trkpt>
      <trkpt lat="44.435365833342075" lon="5.558657152578235">
        <ele>934</ele>
        <time>2014-05-20T11:20:56Z</time>
      </trkpt>
      <trkpt lat="44.435320319607854" lon="5.558784641325474">
        <ele>934.4000244140625</ele>
        <time>2014-05-20T11:21:03Z</time>
      </trkpt>
      <trkpt lat="44.435312189161777" lon="5.558805763721466">
        <ele>934.79998779296875</ele>
        <time>2014-05-20T11:21:04Z</time>
      </trkpt>
      <trkpt lat="44.435266759246588" lon="5.558907687664032">
        <ele>935.4000244140625</ele>
        <time>2014-05-20T11:21:09Z</time>
      </trkpt>
      <trkpt lat="44.435210516676307" lon="5.55897943675518">
        <ele>936.4000244140625</ele>
        <time>2014-05-20T11:21:13Z</time>
      </trkpt>
      <trkpt lat="44.435163326561451" lon="5.559038110077381">
        <ele>937</ele>
        <time>2014-05-20T11:21:16Z</time>
      </trkpt>
      <trkpt lat="44.435091158375144" lon="5.559106003493071">
        <ele>937.5999755859375</ele>
        <time>2014-05-20T11:21:20Z</time>
      </trkpt>
      <trkpt lat="44.435036927461624" lon="5.559160318225622">
        <ele>938.4000244140625</ele>
        <time>2014-05-20T11:21:23Z</time>
      </trkpt>
      <trkpt lat="44.435018738731742" lon="5.559174818918109">
        <ele>938.5999755859375</ele>
        <time>2014-05-20T11:21:24Z</time>
      </trkpt>
      <trkpt lat="44.434932405129075" lon="5.55927162989974">
        <ele>939.79998779296875</ele>
        <time>2014-05-20T11:21:29Z</time>
      </trkpt>
      <trkpt lat="44.434898709878325" lon="5.559310102835298">
        <ele>940</ele>
        <time>2014-05-20T11:21:31Z</time>
      </trkpt>
      <trkpt lat="44.434846071526408" lon="5.559411440044642">
        <ele>940.79998779296875</ele>
        <time>2014-05-20T11:21:35Z</time>
      </trkpt>
      <trkpt lat="44.434818830341101" lon="5.55950959213078">
        <ele>941.20001220703125</ele>
        <time>2014-05-20T11:21:38Z</time>
      </trkpt>
      <trkpt lat="44.434807430952787" lon="5.559725761413574">
        <ele>942</ele>
        <time>2014-05-20T11:21:44Z</time>
      </trkpt>
      <trkpt lat="44.434814304113388" lon="5.559759456664324">
        <ele>942.4000244140625</ele>
        <time>2014-05-20T11:21:45Z</time>
      </trkpt>
      <trkpt lat="44.434828469529748" lon="5.55982818827033">
        <ele>943</ele>
        <time>2014-05-20T11:21:47Z</time>
      </trkpt>
      <trkpt lat="44.434872977435589" lon="5.560013931244612">
        <ele>943.5999755859375</ele>
        <time>2014-05-20T11:21:53Z</time>
      </trkpt>
      <trkpt lat="44.434884209185839" lon="5.560068916529417">
        <ele>944.20001220703125</ele>
        <time>2014-05-20T11:21:55Z</time>
      </trkpt>
      <trkpt lat="44.434904241934419" lon="5.56013991124928">
        <ele>945.20001220703125</ele>
        <time>2014-05-20T11:21:58Z</time>
      </trkpt>
      <trkpt lat="44.434911534190178" lon="5.560165056958795">
        <ele>945.20001220703125</ele>
        <time>2014-05-20T11:21:59Z</time>
      </trkpt>
      <trkpt lat="44.434947157278657" lon="5.56026890873909">
        <ele>946.20001220703125</ele>
        <time>2014-05-20T11:22:03Z</time>
      </trkpt>
      <trkpt lat="44.434964926913381" lon="5.560317104682326">
        <ele>947</ele>
        <time>2014-05-20T11:22:05Z</time>
      </trkpt>
      <trkpt lat="44.434983367100358" lon="5.560389859601855">
        <ele>947.4000244140625</ele>
        <time>2014-05-20T11:22:08Z</time>
      </trkpt>
      <trkpt lat="44.435000130906701" lon="5.560438558459282">
        <ele>948</ele>
        <time>2014-05-20T11:22:10Z</time>
      </trkpt>
      <trkpt lat="44.435043213889003" lon="5.560574764385819">
        <ele>948.4000244140625</ele>
        <time>2014-05-20T11:22:16Z</time>
      </trkpt>
      <trkpt lat="44.435066264122725" lon="5.560618685558438">
        <ele>948.5999755859375</ele>
        <time>2014-05-20T11:22:18Z</time>
      </trkpt>
      <trkpt lat="44.435072466731071" lon="5.560643328353763">
        <ele>948.79998779296875</ele>
        <time>2014-05-20T11:22:19Z</time>
      </trkpt>
      <trkpt lat="44.435085039585829" lon="5.560727817937732">
        <ele>949.4000244140625</ele>
        <time>2014-05-20T11:22:22Z</time>
      </trkpt>
      <trkpt lat="44.435090823099017" lon="5.560755897313356">
        <ele>949.5999755859375</ele>
        <time>2014-05-20T11:22:23Z</time>
      </trkpt>
      <trkpt lat="44.435106748715043" lon="5.560838459059596">
        <ele>950.79998779296875</ele>
        <time>2014-05-20T11:22:26Z</time>
      </trkpt>
      <trkpt lat="44.435128625482321" lon="5.560945244506002">
        <ele>950.79998779296875</ele>
        <time>2014-05-20T11:22:30Z</time>
      </trkpt>
      <trkpt lat="44.435182940214872" lon="5.561170214787126">
        <ele>951.4000244140625</ele>
        <time>2014-05-20T11:22:38Z</time>
      </trkpt>
      <trkpt lat="44.435189981013536" lon="5.561197120696306">
        <ele>951.79998779296875</ele>
        <time>2014-05-20T11:22:39Z</time>
      </trkpt>
      <trkpt lat="44.435219736769795" lon="5.561417816206813">
        <ele>952.20001220703125</ele>
        <time>2014-05-20T11:22:46Z</time>
      </trkpt>
      <trkpt lat="44.435234656557441" lon="5.56171084754169">
        <ele>952</ele>
        <time>2014-05-20T11:22:54Z</time>
      </trkpt>
      <trkpt lat="44.435249492526054" lon="5.561908995732665">
        <ele>950.4000244140625</ele>
        <time>2014-05-20T11:22:58Z</time>
      </trkpt>
      <trkpt lat="44.435246055945754" lon="5.562073951587081">
        <ele>949.4000244140625</ele>
        <time>2014-05-20T11:23:01Z</time>
      </trkpt>
      <trkpt lat="44.435244128108025" lon="5.562329599633813">
        <ele>948.79998779296875</ele>
        <time>2014-05-20T11:23:05Z</time>
      </trkpt>
      <trkpt lat="44.435251001268625" lon="5.562393888831139">
        <ele>947.79998779296875</ele>
        <time>2014-05-20T11:23:06Z</time>
      </trkpt>
      <trkpt lat="44.435262316837907" lon="5.562461530789733">
        <ele>947.5999755859375</ele>
        <time>2014-05-20T11:23:07Z</time>
      </trkpt>
      <trkpt lat="44.435295509174466" lon="5.562598407268524">
        <ele>948</ele>
        <time>2014-05-20T11:23:09Z</time>
      </trkpt>
      <trkpt lat="44.435332641005516" lon="5.562723884359002">
        <ele>947.79998779296875</ele>
        <time>2014-05-20T11:23:11Z</time>
      </trkpt>
      <trkpt lat="44.435375975444913" lon="5.562837794423103">
        <ele>948.4000244140625</ele>
        <time>2014-05-20T11:23:13Z</time>
      </trkpt>
      <trkpt lat="44.435445964336395" lon="5.563008198514581">
        <ele>946.20001220703125</ele>
        <time>2014-05-20T11:23:16Z</time>
      </trkpt>
      <trkpt lat="44.435468595474958" lon="5.563065446913242">
        <ele>945</ele>
        <time>2014-05-20T11:23:17Z</time>
      </trkpt>
      <trkpt lat="44.435558784753084" lon="5.563299050554633">
        <ele>944.79998779296875</ele>
        <time>2014-05-20T11:23:21Z</time>
      </trkpt>
      <trkpt lat="44.435764728114009" lon="5.563829205930233">
        <ele>944.79998779296875</ele>
        <time>2014-05-20T11:23:30Z</time>
      </trkpt>
      <trkpt lat="44.435900347307324" lon="5.564050571992993">
        <ele>946.20001220703125</ele>
        <time>2014-05-20T11:23:35Z</time>
      </trkpt>
      <trkpt lat="44.435924738645554" lon="5.564086111262441">
        <ele>946.5999755859375</ele>
        <time>2014-05-20T11:23:36Z</time>
      </trkpt>
      <trkpt lat="44.435996823012829" lon="5.564294066280127">
        <ele>946.5999755859375</ele>
        <time>2014-05-20T11:23:41Z</time>
      </trkpt>
      <trkpt lat="44.436035044491291" lon="5.564411664381623">
        <ele>947.4000244140625</ele>
        <time>2014-05-20T11:23:44Z</time>
      </trkpt>
      <trkpt lat="44.436083324253559" lon="5.564625570550561">
        <ele>947</ele>
        <time>2014-05-20T11:23:50Z</time>
      </trkpt>
      <trkpt lat="44.436121881008148" lon="5.564843667671084">
        <ele>948.5999755859375</ele>
        <time>2014-05-20T11:23:57Z</time>
      </trkpt>
      <trkpt lat="44.436130849644542" lon="5.56487375870347">
        <ele>948.5999755859375</ele>
        <time>2014-05-20T11:23:58Z</time>
      </trkpt>
      <trkpt lat="44.436174100264907" lon="5.565025974065065">
        <ele>949.79998779296875</ele>
        <time>2014-05-20T11:24:03Z</time>
      </trkpt>
      <trkpt lat="44.436205197125673" lon="5.565120354294777">
        <ele>949.5999755859375</ele>
        <time>2014-05-20T11:24:06Z</time>
      </trkpt>
      <trkpt lat="44.436233276501298" lon="5.565251531079412">
        <ele>951</ele>
        <time>2014-05-20T11:24:10Z</time>
      </trkpt>
      <trkpt lat="44.436255320906639" lon="5.56536577641964">
        <ele>952</ele>
        <time>2014-05-20T11:24:13Z</time>
      </trkpt>
      <trkpt lat="44.436258506029844" lon="5.565404752269387">
        <ele>951.79998779296875</ele>
        <time>2014-05-20T11:24:14Z</time>
      </trkpt>
      <trkpt lat="44.436281053349376" lon="5.565742626786232">
        <ele>952.79998779296875</ele>
        <time>2014-05-20T11:24:23Z</time>
      </trkpt>
      <trkpt lat="44.436278874054551" lon="5.565818147733808">
        <ele>953.5999755859375</ele>
        <time>2014-05-20T11:24:25Z</time>
      </trkpt>
      <trkpt lat="44.436271414160728" lon="5.566057451069355">
        <ele>953.79998779296875</ele>
        <time>2014-05-20T11:24:32Z</time>
      </trkpt>
      <trkpt lat="44.436257919296622" lon="5.566184353083372">
        <ele>955</ele>
        <time>2014-05-20T11:24:36Z</time>
      </trkpt>
      <trkpt lat="44.436244005337358" lon="5.566241936758161">
        <ele>955.20001220703125</ele>
        <time>2014-05-20T11:24:38Z</time>
      </trkpt>
      <trkpt lat="44.436235958710313" lon="5.566350482404232">
        <ele>956</ele>
        <time>2014-05-20T11:24:42Z</time>
      </trkpt>
      <trkpt lat="44.436213662847877" lon="5.566499764099717">
        <ele>956.4000244140625</ele>
        <time>2014-05-20T11:24:47Z</time>
      </trkpt>
      <trkpt lat="44.436185583472252" lon="5.566623983904719">
        <ele>957.20001220703125</ele>
        <time>2014-05-20T11:24:51Z</time>
      </trkpt>
      <trkpt lat="44.436162197962403" lon="5.566720627248287">
        <ele>958</ele>
        <time>2014-05-20T11:24:54Z</time>
      </trkpt>
      <trkpt lat="44.436151217669249" lon="5.566752394661307">
        <ele>958.20001220703125</ele>
        <time>2014-05-20T11:24:55Z</time>
      </trkpt>
      <trkpt lat="44.436083827167749" lon="5.56696118786931">
        <ele>958.79998779296875</ele>
        <time>2014-05-20T11:25:01Z</time>
      </trkpt>
      <trkpt lat="44.436030350625515" lon="5.567254219204187">
        <ele>959.4000244140625</ele>
        <time>2014-05-20T11:25:09Z</time>
      </trkpt>
      <trkpt lat="44.436014592647552" lon="5.567491762340069">
        <ele>960</ele>
        <time>2014-05-20T11:25:15Z</time>
      </trkpt>
      <trkpt lat="44.436000427231193" lon="5.567521769553423">
        <ele>960.4000244140625</ele>
        <time>2014-05-20T11:25:16Z</time>
      </trkpt>
      <trkpt lat="44.435938987880945" lon="5.567645654082298">
        <ele>961.5999755859375</ele>
        <time>2014-05-20T11:25:20Z</time>
      </trkpt>
      <trkpt lat="44.435894228518009" lon="5.567740201950073">
        <ele>961.5999755859375</ele>
        <time>2014-05-20T11:25:23Z</time>
      </trkpt>
      <trkpt lat="44.435871345922351" lon="5.567938685417175">
        <ele>962.4000244140625</ele>
        <time>2014-05-20T11:25:29Z</time>
      </trkpt>
      <trkpt lat="44.435870591551065" lon="5.568028371781111">
        <ele>962.79998779296875</ele>
        <time>2014-05-20T11:25:32Z</time>
      </trkpt>
      <trkpt lat="44.435893474146724" lon="5.568144209682941">
        <ele>964</ele>
        <time>2014-05-20T11:25:36Z</time>
      </trkpt>
      <trkpt lat="44.435920044779778" lon="5.568235740065575">
        <ele>965</ele>
        <time>2014-05-20T11:25:39Z</time>
      </trkpt>
      <trkpt lat="44.435939742252231" lon="5.568330120295286">
        <ele>965.20001220703125</ele>
        <time>2014-05-20T11:25:42Z</time>
      </trkpt>
      <trkpt lat="44.435945777222514" lon="5.568543104454875">
        <ele>966</ele>
        <time>2014-05-20T11:25:49Z</time>
      </trkpt>
      <trkpt lat="44.435941502451897" lon="5.568570178002119">
        <ele>966.4000244140625</ele>
        <time>2014-05-20T11:25:50Z</time>
      </trkpt>
      <trkpt lat="44.435943178832531" lon="5.568742509931326">
        <ele>967.79998779296875</ele>
        <time>2014-05-20T11:25:56Z</time>
      </trkpt>
      <trkpt lat="44.435949213802814" lon="5.568771343678236">
        <ele>968</ele>
        <time>2014-05-20T11:25:57Z</time>
      </trkpt>
      <trkpt lat="44.436051724478602" lon="5.568909728899598">
        <ele>967.79998779296875</ele>
        <time>2014-05-20T11:26:04Z</time>
      </trkpt>
      <trkpt lat="44.436168987303972" lon="5.568967061117292">
        <ele>966.5999755859375</ele>
        <time>2014-05-20T11:26:10Z</time>
      </trkpt>
      <trkpt lat="44.436299744993448" lon="5.569060351699591">
        <ele>967.79998779296875</ele>
        <time>2014-05-20T11:26:17Z</time>
      </trkpt>
      <trkpt lat="44.436355819925666" lon="5.569114582613111">
        <ele>969.20001220703125</ele>
        <time>2014-05-20T11:26:20Z</time>
      </trkpt>
      <trkpt lat="44.436388341709971" lon="5.569155151024461">
        <ele>970.4000244140625</ele>
        <time>2014-05-20T11:26:22Z</time>
      </trkpt>
      <trkpt lat="44.43642052821815" lon="5.569195719435811">
        <ele>971.4000244140625</ele>
        <time>2014-05-20T11:26:24Z</time>
      </trkpt>
      <trkpt lat="44.436437543481588" lon="5.569216087460518">
        <ele>972</ele>
        <time>2014-05-20T11:26:25Z</time>
      </trkpt>
      <trkpt lat="44.436513818800449" lon="5.56936277076602">
        <ele>972</ele>
        <time>2014-05-20T11:26:31Z</time>
      </trkpt>
      <trkpt lat="44.436572240665555" lon="5.569485733285546">
        <ele>972.5999755859375</ele>
        <time>2014-05-20T11:26:36Z</time>
      </trkpt>
      <trkpt lat="44.436593279242516" lon="5.569536611437798">
        <ele>973</ele>
        <time>2014-05-20T11:26:38Z</time>
      </trkpt>
      <trkpt lat="44.436612725257874" lon="5.569694945588708">
        <ele>973.4000244140625</ele>
        <time>2014-05-20T11:26:44Z</time>
      </trkpt>
      <trkpt lat="44.436629489064217" lon="5.569795360788703">
        <ele>973.79998779296875</ele>
        <time>2014-05-20T11:26:48Z</time>
      </trkpt>
      <trkpt lat="44.436657819896936" lon="5.569897284731269">
        <ele>974.4000244140625</ele>
        <time>2014-05-20T11:26:52Z</time>
      </trkpt>
      <trkpt lat="44.436676176264882" lon="5.569937685504556">
        <ele>974.79998779296875</ele>
        <time>2014-05-20T11:26:54Z</time>
      </trkpt>
      <trkpt lat="44.436746584251523" lon="5.570009686052799">
        <ele>973.79998779296875</ele>
        <time>2014-05-20T11:26:59Z</time>
      </trkpt>
      <trkpt lat="44.43688228726387" lon="5.57010792195797">
        <ele>975.79998779296875</ele>
        <time>2014-05-20T11:27:07Z</time>
      </trkpt>
      <trkpt lat="44.436898799613118" lon="5.570123177021742">
        <ele>976</ele>
        <time>2014-05-20T11:27:08Z</time>
      </trkpt>
      <trkpt lat="44.436974320560694" lon="5.570249492302537">
        <ele>975.20001220703125</ele>
        <time>2014-05-20T11:27:14Z</time>
      </trkpt>
      <trkpt lat="44.436984295025468" lon="5.570272961631417">
        <ele>975</ele>
        <time>2014-05-20T11:27:15Z</time>
      </trkpt>
      <trkpt lat="44.43703031167388" lon="5.570388045161963">
        <ele>974.4000244140625</ele>
        <time>2014-05-20T11:27:20Z</time>
      </trkpt>
      <trkpt lat="44.437111616134644" lon="5.570546463131905">
        <ele>975.79998779296875</ele>
        <time>2014-05-20T11:27:27Z</time>
      </trkpt>
      <trkpt lat="44.437126535922289" lon="5.57056431658566">
        <ele>976.20001220703125</ele>
        <time>2014-05-20T11:27:28Z</time>
      </trkpt>
      <trkpt lat="44.437198452651501" lon="5.570604130625725">
        <ele>977.20001220703125</ele>
        <time>2014-05-20T11:27:32Z</time>
      </trkpt>
      <trkpt lat="44.437242625281215" lon="5.570604549720883">
        <ele>977.4000244140625</ele>
        <time>2014-05-20T11:27:34Z</time>
      </trkpt>
      <trkpt lat="44.437339184805751" lon="5.57052182033658">
        <ele>977.5999755859375</ele>
        <time>2014-05-20T11:27:39Z</time>
      </trkpt>
      <trkpt lat="44.437395595014095" lon="5.570470774546266">
        <ele>978.20001220703125</ele>
        <time>2014-05-20T11:27:42Z</time>
      </trkpt>
      <trkpt lat="44.437455190345645" lon="5.570391062647104">
        <ele>978.4000244140625</ele>
        <time>2014-05-20T11:27:46Z</time>
      </trkpt>
      <trkpt lat="44.437552336603403" lon="5.570249995216727">
        <ele>979</ele>
        <time>2014-05-20T11:27:53Z</time>
      </trkpt>
      <trkpt lat="44.437576811760664" lon="5.570204900577664">
        <ele>979.20001220703125</ele>
        <time>2014-05-20T11:27:55Z</time>
      </trkpt>
      <trkpt lat="44.437640514224768" lon="5.570081016048789">
        <ele>980.20001220703125</ele>
        <time>2014-05-20T11:28:00Z</time>
      </trkpt>
      <trkpt lat="44.437658786773682" lon="5.5699872225523">
        <ele>980.4000244140625</ele>
        <time>2014-05-20T11:28:03Z</time>
      </trkpt>
      <trkpt lat="44.43767043761909" lon="5.569880604743958">
        <ele>980.4000244140625</ele>
        <time>2014-05-20T11:28:06Z</time>
      </trkpt>
      <trkpt lat="44.437689296901226" lon="5.569667369127274">
        <ele>981.4000244140625</ele>
        <time>2014-05-20T11:28:12Z</time>
      </trkpt>
      <trkpt lat="44.437692984938622" lon="5.569597128778696">
        <ele>981.5999755859375</ele>
        <time>2014-05-20T11:28:14Z</time>
      </trkpt>
      <trkpt lat="44.437712766230106" lon="5.569392358884215">
        <ele>982.5999755859375</ele>
        <time>2014-05-20T11:28:20Z</time>
      </trkpt>
      <trkpt lat="44.437779821455479" lon="5.569089101627469">
        <ele>983.4000244140625</ele>
        <time>2014-05-20T11:28:29Z</time>
      </trkpt>
      <trkpt lat="44.437786024063826" lon="5.569057334214449">
        <ele>983.79998779296875</ele>
        <time>2014-05-20T11:28:30Z</time>
      </trkpt>
      <trkpt lat="44.437782922759652" lon="5.569024896249175">
        <ele>983.79998779296875</ele>
        <time>2014-05-20T11:28:31Z</time>
      </trkpt>
      <trkpt lat="44.437765991315246" lon="5.568917859345675">
        <ele>984.20001220703125</ele>
        <time>2014-05-20T11:28:34Z</time>
      </trkpt>
      <trkpt lat="44.437747886404395" lon="5.568851474672556">
        <ele>984.4000244140625</ele>
        <time>2014-05-20T11:28:36Z</time>
      </trkpt>
      <trkpt lat="44.437705306336284" lon="5.568779893219471">
        <ele>984.79998779296875</ele>
        <time>2014-05-20T11:28:39Z</time>
      </trkpt>
      <trkpt lat="44.437666414305568" lon="5.568749718368053">
        <ele>985.20001220703125</ele>
        <time>2014-05-20T11:28:41Z</time>
      </trkpt>
      <trkpt lat="44.43759617395699" lon="5.568727254867554">
        <ele>986</ele>
        <time>2014-05-20T11:28:44Z</time>
      </trkpt>
      <trkpt lat="44.437573961913586" lon="5.568729769438505">
        <ele>986.4000244140625</ele>
        <time>2014-05-20T11:28:45Z</time>
      </trkpt>
      <trkpt lat="44.437489891424775" lon="5.568699091672897">
        <ele>987.20001220703125</ele>
        <time>2014-05-20T11:28:49Z</time>
      </trkpt>
      <trkpt lat="44.437454268336296" lon="5.568663217127323">
        <ele>987.4000244140625</ele>
        <time>2014-05-20T11:28:51Z</time>
      </trkpt>
      <trkpt lat="44.437401043251157" lon="5.568598425015807">
        <ele>988.4000244140625</ele>
        <time>2014-05-20T11:28:54Z</time>
      </trkpt>
      <trkpt lat="44.437352176755667" lon="5.568521814420819">
        <ele>989.5999755859375</ele>
        <time>2014-05-20T11:28:57Z</time>
      </trkpt>
      <trkpt lat="44.437338346615434" lon="5.568496752530336">
        <ele>989.79998779296875</ele>
        <time>2014-05-20T11:28:58Z</time>
      </trkpt>
      <trkpt lat="44.437314793467522" lon="5.568442018702626">
        <ele>990.5999755859375</ele>
        <time>2014-05-20T11:29:00Z</time>
      </trkpt>
      <trkpt lat="44.437268944457173" lon="5.568326432257891">
        <ele>991.5999755859375</ele>
        <time>2014-05-20T11:29:04Z</time>
      </trkpt>
      <trkpt lat="44.437244553118944" lon="5.568273207172751">
        <ele>992</ele>
        <time>2014-05-20T11:29:06Z</time>
      </trkpt>
      <trkpt lat="44.437214294448495" lon="5.568190393969417">
        <ele>992.79998779296875</ele>
        <time>2014-05-20T11:29:09Z</time>
      </trkpt>
      <trkpt lat="44.437198368832469" lon="5.568100539967418">
        <ele>993.5999755859375</ele>
        <time>2014-05-20T11:29:12Z</time>
      </trkpt>
      <trkpt lat="44.437193004414439" lon="5.56806793436408">
        <ele>993.79998779296875</ele>
        <time>2014-05-20T11:29:13Z</time>
      </trkpt>
      <trkpt lat="44.437151597812772" lon="5.567884622141719">
        <ele>994.79998779296875</ele>
        <time>2014-05-20T11:29:19Z</time>
      </trkpt>
      <trkpt lat="44.43715101107955" lon="5.567853190004826">
        <ele>995.20001220703125</ele>
        <time>2014-05-20T11:29:20Z</time>
      </trkpt>
      <trkpt lat="44.437174899503589" lon="5.567643055692315">
        <ele>996.20001220703125</ele>
        <time>2014-05-20T11:29:27Z</time>
      </trkpt>
      <trkpt lat="44.43717397749424" lon="5.567580945789814">
        <ele>996.79998779296875</ele>
        <time>2014-05-20T11:29:29Z</time>
      </trkpt>
      <trkpt lat="44.437187975272536" lon="5.567490169778466">
        <ele>997.4000244140625</ele>
        <time>2014-05-20T11:29:32Z</time>
      </trkpt>
      <trkpt lat="44.437210606411099" lon="5.567377768456936">
        <ele>998.4000244140625</ele>
        <time>2014-05-20T11:29:36Z</time>
      </trkpt>
      <trkpt lat="44.437287217006087" lon="5.567190516740084">
        <ele>998.5999755859375</ele>
        <time>2014-05-20T11:29:43Z</time>
      </trkpt>
      <trkpt lat="44.437375478446484" lon="5.566975018009543">
        <ele>998.5999755859375</ele>
        <time>2014-05-20T11:29:51Z</time>
      </trkpt>
      <trkpt lat="44.437403222545981" lon="5.566848535090685">
        <ele>999.5999755859375</ele>
        <time>2014-05-20T11:29:55Z</time>
      </trkpt>
      <trkpt lat="44.437408503144979" lon="5.566819785162807">
        <ele>999.5999755859375</ele>
        <time>2014-05-20T11:29:56Z</time>
      </trkpt>
      <trkpt lat="44.437429374083877" lon="5.56665969081223">
        <ele>1001.2000122070312</ele>
        <time>2014-05-20T11:30:01Z</time>
      </trkpt>
      <trkpt lat="44.437447478994727" lon="5.566535806283355">
        <ele>1001.5999755859375</ele>
        <time>2014-05-20T11:30:05Z</time>
      </trkpt>
      <trkpt lat="44.437462482601404" lon="5.566363055258989">
        <ele>1002.5999755859375</ele>
        <time>2014-05-20T11:30:11Z</time>
      </trkpt>
      <trkpt lat="44.437466841191053" lon="5.566333718597889">
        <ele>1002.7999877929687</ele>
        <time>2014-05-20T11:30:12Z</time>
      </trkpt>
      <trkpt lat="44.437480419874191" lon="5.566229363903403">
        <ele>1003.7999877929687</ele>
        <time>2014-05-20T11:30:16Z</time>
      </trkpt>
      <trkpt lat="44.43749257363379" lon="5.566147807985544">
        <ele>1003.5999755859375</ele>
        <time>2014-05-20T11:30:19Z</time>
      </trkpt>
      <trkpt lat="44.437511265277863" lon="5.565905319526792">
        <ele>1003.4000244140625</ele>
        <time>2014-05-20T11:30:27Z</time>
      </trkpt>
      <trkpt lat="44.437567424029112" lon="5.56562528014183">
        <ele>1004</ele>
        <time>2014-05-20T11:30:36Z</time>
      </trkpt>
      <trkpt lat="44.437695667147636" lon="5.565509777516127">
        <ele>1004.7999877929687</ele>
        <time>2014-05-20T11:30:43Z</time>
      </trkpt>
      <trkpt lat="44.437714610248804" lon="5.56551044806838">
        <ele>1005</ele>
        <time>2014-05-20T11:30:44Z</time>
      </trkpt>
      <trkpt lat="44.437753921374679" lon="5.565573731437326">
        <ele>1006.7999877929687</ele>
        <time>2014-05-20T11:34:09Z</time>
      </trkpt>
      <trkpt lat="44.437771271914244" lon="5.565636847168207">
        <ele>1006.7999877929687</ele>
        <time>2014-05-20T11:34:12Z</time>
      </trkpt>
      <trkpt lat="44.437734307721257" lon="5.565824350342155">
        <ele>1007.4000244140625</ele>
        <time>2014-05-20T11:34:19Z</time>
      </trkpt>
      <trkpt lat="44.437704971060157" lon="5.56590280495584">
        <ele>1007.7999877929687</ele>
        <time>2014-05-20T11:34:22Z</time>
      </trkpt>
      <trkpt lat="44.437688542529941" lon="5.565963238477707">
        <ele>1008.2000122070312</ele>
        <time>2014-05-20T11:34:24Z</time>
      </trkpt>
      <trkpt lat="44.437684351578355" lon="5.566057451069355">
        <ele>1008.7999877929687</ele>
        <time>2014-05-20T11:34:27Z</time>
      </trkpt>
      <trkpt lat="44.437675047665834" lon="5.566110676154494">
        <ele>1009.2000122070312</ele>
        <time>2014-05-20T11:34:29Z</time>
      </trkpt>
      <trkpt lat="44.437667420133948" lon="5.566252833232284">
        <ele>1010</ele>
        <time>2014-05-20T11:34:34Z</time>
      </trkpt>
      <trkpt lat="44.437666833400726" lon="5.566338580101728">
        <ele>1010.5999755859375</ele>
        <time>2014-05-20T11:34:37Z</time>
      </trkpt>
      <trkpt lat="44.437665911391377" lon="5.566454837098718">
        <ele>1011</ele>
        <time>2014-05-20T11:34:41Z</time>
      </trkpt>
      <trkpt lat="44.437665408477187" lon="5.56653555482626">
        <ele>1011.4000244140625</ele>
        <time>2014-05-20T11:34:44Z</time>
      </trkpt>
      <trkpt lat="44.437668928876519" lon="5.566634461283684">
        <ele>1012.2000122070312</ele>
        <time>2014-05-20T11:34:47Z</time>
      </trkpt>
      <trkpt lat="44.437669012695551" lon="5.566728170961142">
        <ele>1013.7999877929687</ele>
        <time>2014-05-20T11:34:50Z</time>
      </trkpt>
      <trkpt lat="44.437663229182363" lon="5.566817438229919">
        <ele>1014</ele>
        <time>2014-05-20T11:34:53Z</time>
      </trkpt>
      <trkpt lat="44.437664486467838" lon="5.567161850631237">
        <ele>1014.2000122070312</ele>
        <time>2014-05-20T11:35:03Z</time>
      </trkpt>
      <trkpt lat="44.437669767066836" lon="5.567393274977803">
        <ele>1015</ele>
        <time>2014-05-20T11:35:10Z</time>
      </trkpt>
      <trkpt lat="44.437673706561327" lon="5.567425880581141">
        <ele>1015.2000122070312</ele>
        <time>2014-05-20T11:35:11Z</time>
      </trkpt>
      <trkpt lat="44.437698181718588" lon="5.567613132297993">
        <ele>1016.4000244140625</ele>
        <time>2014-05-20T11:35:17Z</time>
      </trkpt>
      <trkpt lat="44.437721986323595" lon="5.567712876945734">
        <ele>1017.2000122070312</ele>
        <time>2014-05-20T11:35:20Z</time>
      </trkpt>
      <trkpt lat="44.437730703502893" lon="5.567745734006167">
        <ele>1017.5999755859375</ele>
        <time>2014-05-20T11:35:21Z</time>
      </trkpt>
      <trkpt lat="44.437801782041788" lon="5.567934829741716">
        <ele>1018</ele>
        <time>2014-05-20T11:35:27Z</time>
      </trkpt>
      <trkpt lat="44.437952237203717" lon="5.568125769495964">
        <ele>1018.4000244140625</ele>
        <time>2014-05-20T11:35:35Z</time>
      </trkpt>
      <trkpt lat="44.43797486834228" lon="5.568138426169753">
        <ele>1018.5999755859375</ele>
        <time>2014-05-20T11:35:36Z</time>
      </trkpt>
      <trkpt lat="44.43806329742074" lon="5.568195171654224">
        <ele>1019.7999877929687</ele>
        <time>2014-05-20T11:35:40Z</time>
      </trkpt>
      <trkpt lat="44.438101937994361" lon="5.568220317363739">
        <ele>1019.7999877929687</ele>
        <time>2014-05-20T11:35:42Z</time>
      </trkpt>
      <trkpt lat="44.438194306567311" lon="5.568274799734354">
        <ele>1021</ele>
        <time>2014-05-20T11:35:47Z</time>
      </trkpt>
      <trkpt lat="44.438235713168979" lon="5.568297766149044">
        <ele>1021.2000122070312</ele>
        <time>2014-05-20T11:35:49Z</time>
      </trkpt>
      <trkpt lat="44.438361106440425" lon="5.568397678434849">
        <ele>1021.7999877929687</ele>
        <time>2014-05-20T11:35:56Z</time>
      </trkpt>
      <trkpt lat="44.438497815281153" lon="5.56853991933167">
        <ele>1020.2000122070312</ele>
        <time>2014-05-20T11:36:04Z</time>
      </trkpt>
      <trkpt lat="44.438573168590665" lon="5.568641759455204">
        <ele>1020.7999877929687</ele>
        <time>2014-05-20T11:36:10Z</time>
      </trkpt>
      <trkpt lat="44.438633183017373" lon="5.568709233775735">
        <ele>1022.2000122070312</ele>
        <time>2014-05-20T11:36:14Z</time>
      </trkpt>
      <trkpt lat="44.43868724629283" lon="5.568750975653529">
        <ele>1022.7999877929687</ele>
        <time>2014-05-20T11:36:17Z</time>
      </trkpt>
      <trkpt lat="44.438709206879139" lon="5.568763129413128">
        <ele>1023.2000122070312</ele>
        <time>2014-05-20T11:36:18Z</time>
      </trkpt>
      <trkpt lat="44.438851363956928" lon="5.568875363096595">
        <ele>1024.199951171875</ele>
        <time>2014-05-20T11:36:25Z</time>
      </trkpt>
      <trkpt lat="44.438983714208007" lon="5.569028835743666">
        <ele>1025.199951171875</ele>
        <time>2014-05-20T11:36:33Z</time>
      </trkpt>
      <trkpt lat="44.439119417220354" lon="5.569228241220117">
        <ele>1026</ele>
        <time>2014-05-20T11:36:42Z</time>
      </trkpt>
      <trkpt lat="44.439132492989302" lon="5.56925187818706">
        <ele>1026.199951171875</ele>
        <time>2014-05-20T11:36:43Z</time>
      </trkpt>
      <trkpt lat="44.439219748601317" lon="5.569416582584381">
        <ele>1027</ele>
        <time>2014-05-20T11:36:49Z</time>
      </trkpt>
      <trkpt lat="44.439246235415339" lon="5.569476513192058">
        <ele>1027.4000244140625</ele>
        <time>2014-05-20T11:36:51Z</time>
      </trkpt>
      <trkpt lat="44.439297281205654" lon="5.569670889526606">
        <ele>1028.4000244140625</ele>
        <time>2014-05-20T11:36:57Z</time>
      </trkpt>
      <trkpt lat="44.439302058890462" lon="5.569806424900889">
        <ele>1029.5999755859375</ele>
        <time>2014-05-20T11:37:01Z</time>
      </trkpt>
      <trkpt lat="44.439294766634703" lon="5.569875072687864">
        <ele>1030.4000244140625</ele>
        <time>2014-05-20T11:37:03Z</time>
      </trkpt>
      <trkpt lat="44.439290324226022" lon="5.569907343015075">
        <ele>1030.5999755859375</ele>
        <time>2014-05-20T11:37:04Z</time>
      </trkpt>
      <trkpt lat="44.439229890704155" lon="5.570094846189022">
        <ele>1031.800048828125</ele>
        <time>2014-05-20T11:37:10Z</time>
      </trkpt>
      <trkpt lat="44.439217401668429" lon="5.570125356316567">
        <ele>1031.800048828125</ele>
        <time>2014-05-20T11:37:11Z</time>
      </trkpt>
      <trkpt lat="44.439152022823691" lon="5.570310177281499">
        <ele>1033</ele>
        <time>2014-05-20T11:37:17Z</time>
      </trkpt>
      <trkpt lat="44.439120590686798" lon="5.570406233891845">
        <ele>1033.4000244140625</ele>
        <time>2014-05-20T11:37:20Z</time>
      </trkpt>
      <trkpt lat="44.439038280397654" lon="5.570701779797673">
        <ele>1033.5999755859375</ele>
        <time>2014-05-20T11:37:29Z</time>
      </trkpt>
      <trkpt lat="44.439010703936219" lon="5.570793896913528">
        <ele>1034.4000244140625</ele>
        <time>2014-05-20T11:37:32Z</time>
      </trkpt>
      <trkpt lat="44.439002322033048" lon="5.570916859433055">
        <ele>1035</ele>
        <time>2014-05-20T11:37:36Z</time>
      </trkpt>
      <trkpt lat="44.43900047801435" lon="5.570977795869112">
        <ele>1035.4000244140625</ele>
        <time>2014-05-20T11:37:38Z</time>
      </trkpt>
      <trkpt lat="44.438998969271779" lon="5.571097992360592">
        <ele>1036.199951171875</ele>
        <time>2014-05-20T11:37:42Z</time>
      </trkpt>
      <trkpt lat="44.438986480236053" lon="5.571158928796649">
        <ele>1036.5999755859375</ele>
        <time>2014-05-20T11:37:44Z</time>
      </trkpt>
      <trkpt lat="44.438980612903833" lon="5.571283148601651">
        <ele>1037.800048828125</ele>
        <time>2014-05-20T11:37:48Z</time>
      </trkpt>
      <trkpt lat="44.438979271799326" lon="5.571349700912833">
        <ele>1038.199951171875</ele>
        <time>2014-05-20T11:37:50Z</time>
      </trkpt>
      <trkpt lat="44.438970470800996" lon="5.571479955688119">
        <ele>1038.800048828125</ele>
        <time>2014-05-20T11:37:54Z</time>
      </trkpt>
      <trkpt lat="44.438946414738894" lon="5.571562685072422">
        <ele>1039</ele>
        <time>2014-05-20T11:37:57Z</time>
      </trkpt>
      <trkpt lat="44.438877096399665" lon="5.571724874898791">
        <ele>1039.800048828125</ele>
        <time>2014-05-20T11:38:04Z</time>
      </trkpt>
      <trkpt lat="44.43886075168848" lon="5.57174826040864">
        <ele>1040.199951171875</ele>
        <time>2014-05-20T11:38:05Z</time>
      </trkpt>
      <trkpt lat="44.438827056437731" lon="5.571852196007967">
        <ele>1040.4000244140625</ele>
        <time>2014-05-20T11:38:09Z</time>
      </trkpt>
      <trkpt lat="44.438796462491155" lon="5.57193836197257">
        <ele>1041.199951171875</ele>
        <time>2014-05-20T11:38:12Z</time>
      </trkpt>
      <trkpt lat="44.438784224912524" lon="5.572023941203952">
        <ele>1042.4000244140625</ele>
        <time>2014-05-20T11:38:15Z</time>
      </trkpt>
      <trkpt lat="44.438768466934562" lon="5.572325270622969">
        <ele>1042.800048828125</ele>
        <time>2014-05-20T11:38:25Z</time>
      </trkpt>
      <trkpt lat="44.438779195770621" lon="5.572461560368538">
        <ele>1043.5999755859375</ele>
        <time>2014-05-20T11:38:29Z</time>
      </trkpt>
      <trkpt lat="44.438792606815696" lon="5.572550827637315">
        <ele>1043.199951171875</ele>
        <time>2014-05-20T11:38:32Z</time>
      </trkpt>
      <trkpt lat="44.438860500231385" lon="5.572731038555503">
        <ele>1044.5999755859375</ele>
        <time>2014-05-20T11:38:39Z</time>
      </trkpt>
      <trkpt lat="44.438873492181301" lon="5.572757441550493">
        <ele>1044.800048828125</ele>
        <time>2014-05-20T11:38:40Z</time>
      </trkpt>
      <trkpt lat="44.438936524093151" lon="5.572895156219602">
        <ele>1045.5999755859375</ele>
        <time>2014-05-20T11:38:45Z</time>
      </trkpt>
      <trkpt lat="44.438942391425371" lon="5.572926169261336">
        <ele>1045.5999755859375</ele>
        <time>2014-05-20T11:38:46Z</time>
      </trkpt>
      <trkpt lat="44.438947839662433" lon="5.573122892528772">
        <ele>1046.800048828125</ele>
        <time>2014-05-20T11:38:52Z</time>
      </trkpt>
      <trkpt lat="44.438943648710847" lon="5.573156168684363">
        <ele>1047</ele>
        <time>2014-05-20T11:38:53Z</time>
      </trkpt>
      <trkpt lat="44.43889738060534" lon="5.573409888893366">
        <ele>1048.199951171875</ele>
        <time>2014-05-20T11:39:01Z</time>
      </trkpt>
      <trkpt lat="44.43888371810317" lon="5.573437381535769">
        <ele>1048.5999755859375</ele>
        <time>2014-05-20T11:39:02Z</time>
      </trkpt>
      <trkpt lat="44.43880844861269" lon="5.573547352105379">
        <ele>1049.4000244140625</ele>
        <time>2014-05-20T11:39:07Z</time>
      </trkpt>
      <trkpt lat="44.438787410035729" lon="5.573598816990852">
        <ele>1049.5999755859375</ele>
        <time>2014-05-20T11:39:09Z</time>
      </trkpt>
      <trkpt lat="44.438721444457769" lon="5.573808951303363">
        <ele>1050.4000244140625</ele>
        <time>2014-05-20T11:39:17Z</time>
      </trkpt>
      <trkpt lat="44.43871314637363" lon="5.573834767565131">
        <ele>1050.4000244140625</ele>
        <time>2014-05-20T11:39:18Z</time>
      </trkpt>
      <trkpt lat="44.438619017601013" lon="5.573990335687995">
        <ele>1051.4000244140625</ele>
        <time>2014-05-20T11:39:25Z</time>
      </trkpt>
      <trkpt lat="44.438468730077147" lon="5.574132744222879">
        <ele>1052.5999755859375</ele>
        <time>2014-05-20T11:39:32Z</time>
      </trkpt>
      <trkpt lat="44.438446434214711" lon="5.574145149439573">
        <ele>1052.5999755859375</ele>
        <time>2014-05-20T11:39:33Z</time>
      </trkpt>
      <trkpt lat="44.438323555514216" lon="5.574192758649588">
        <ele>1053.5999755859375</ele>
        <time>2014-05-20T11:39:38Z</time>
      </trkpt>
      <trkpt lat="44.438255913555622" lon="5.574237434193492">
        <ele>1053.800048828125</ele>
        <time>2014-05-20T11:39:41Z</time>
      </trkpt>
      <trkpt lat="44.438142841681838" lon="5.574334999546409">
        <ele>1054.5999755859375</ele>
        <time>2014-05-20T11:39:46Z</time>
      </trkpt>
      <trkpt lat="44.438075702637434" lon="5.574390068650246">
        <ele>1055.5999755859375</ele>
        <time>2014-05-20T11:39:49Z</time>
      </trkpt>
      <trkpt lat="44.438056256622076" lon="5.574404569342732">
        <ele>1055.800048828125</ele>
        <time>2014-05-20T11:39:50Z</time>
      </trkpt>
      <trkpt lat="44.437906974926591" lon="5.574464919045568">
        <ele>1057</ele>
        <time>2014-05-20T11:39:57Z</time>
      </trkpt>
      <trkpt lat="44.437820557504892" lon="5.574505068361759">
        <ele>1058</ele>
        <time>2014-05-20T11:40:02Z</time>
      </trkpt>
      <trkpt lat="44.437782922759652" lon="5.574525101110339">
        <ele>1058</ele>
        <time>2014-05-20T11:40:04Z</time>
      </trkpt>
      <trkpt lat="44.437693990767002" lon="5.574602633714676">
        <ele>1059</ele>
        <time>2014-05-20T11:40:09Z</time>
      </trkpt>
      <trkpt lat="44.437659373506904" lon="5.574631383642554">
        <ele>1059.800048828125</ele>
        <time>2014-05-20T11:40:11Z</time>
      </trkpt>
      <trkpt lat="44.437611596658826" lon="5.574676059186459">
        <ele>1060.199951171875</ele>
        <time>2014-05-20T11:40:14Z</time>
      </trkpt>
      <trkpt lat="44.437520066276193" lon="5.574740851297975">
        <ele>1061</ele>
        <time>2014-05-20T11:40:19Z</time>
      </trkpt>
      <trkpt lat="44.437497686594725" lon="5.574751496315002">
        <ele>1061.199951171875</ele>
        <time>2014-05-20T11:40:20Z</time>
      </trkpt>
      <trkpt lat="44.437360223382711" lon="5.574847972020507">
        <ele>1061.800048828125</ele>
        <time>2014-05-20T11:40:28Z</time>
      </trkpt>
      <trkpt lat="44.437270201742649" lon="5.574871273711324">
        <ele>1062.4000244140625</ele>
        <time>2014-05-20T11:40:32Z</time>
      </trkpt>
      <trkpt lat="44.437224520370364" lon="5.574878063052893">
        <ele>1062.4000244140625</ele>
        <time>2014-05-20T11:40:34Z</time>
      </trkpt>
      <trkpt lat="44.437091667205095" lon="5.574898095801473">
        <ele>1062.199951171875</ele>
        <time>2014-05-20T11:40:40Z</time>
      </trkpt>
      <trkpt lat="44.437039280310273" lon="5.574902789667249">
        <ele>1063.5999755859375</ele>
        <time>2014-05-20T11:40:43Z</time>
      </trkpt>
      <trkpt lat="44.436956634745002" lon="5.574906477704644">
        <ele>1065</ele>
        <time>2014-05-20T11:40:47Z</time>
      </trkpt>
      <trkpt lat="44.436936434358358" lon="5.574909746646881">
        <ele>1065.199951171875</ele>
        <time>2014-05-20T11:40:48Z</time>
      </trkpt>
      <trkpt lat="44.436764186248183" lon="5.574937155470252">
        <ele>1066</ele>
        <time>2014-05-20T11:40:56Z</time>
      </trkpt>
      <trkpt lat="44.436742560938001" lon="5.574939334765077">
        <ele>1066</ele>
        <time>2014-05-20T11:40:57Z</time>
      </trkpt>
      <trkpt lat="44.436627896502614" lon="5.574956350028515">
        <ele>1067</ele>
        <time>2014-05-20T11:41:02Z</time>
      </trkpt>
      <trkpt lat="44.436605013906956" lon="5.574959367513657">
        <ele>1067.199951171875</ele>
        <time>2014-05-20T11:41:03Z</time>
      </trkpt>
      <trkpt lat="44.436513651162386" lon="5.57498887181282">
        <ele>1068</ele>
        <time>2014-05-20T11:41:07Z</time>
      </trkpt>
      <trkpt lat="44.436466544866562" lon="5.574997505173087">
        <ele>1068.800048828125</ele>
        <time>2014-05-20T11:41:09Z</time>
      </trkpt>
      <trkpt lat="44.436441902071238" lon="5.57500253431499">
        <ele>1069</ele>
        <time>2014-05-20T11:41:10Z</time>
      </trkpt>
      <trkpt lat="44.436329081654549" lon="5.575006222352386">
        <ele>1070.4000244140625</ele>
        <time>2014-05-20T11:41:15Z</time>
      </trkpt>
      <trkpt lat="44.436285076662898" lon="5.575004713609815">
        <ele>1071</ele>
        <time>2014-05-20T11:41:17Z</time>
      </trkpt>
      <trkpt lat="44.436244424432516" lon="5.574997756630182">
        <ele>1071.4000244140625</ele>
        <time>2014-05-20T11:41:19Z</time>
      </trkpt>
      <trkpt lat="44.436179883778095" lon="5.574997253715992">
        <ele>1072.4000244140625</ele>
        <time>2014-05-20T11:41:22Z</time>
      </trkpt>
      <trkpt lat="44.4361571688205" lon="5.574994571506977">
        <ele>1072.5999755859375</ele>
        <time>2014-05-20T11:41:23Z</time>
      </trkpt>
      <trkpt lat="44.435966061428189" lon="5.574994990602136">
        <ele>1073</ele>
        <time>2014-05-20T11:41:32Z</time>
      </trkpt>
      <trkpt lat="44.435916105285287" lon="5.575000857934356">
        <ele>1073.5999755859375</ele>
        <time>2014-05-20T11:41:34Z</time>
      </trkpt>
      <trkpt lat="44.435824323445559" lon="5.575055088847876">
        <ele>1074.5999755859375</ele>
        <time>2014-05-20T11:41:38Z</time>
      </trkpt>
      <trkpt lat="44.435709491372108" lon="5.575122395530343">
        <ele>1075.5999755859375</ele>
        <time>2014-05-20T11:41:43Z</time>
      </trkpt>
      <trkpt lat="44.435684429481626" lon="5.575130106881261">
        <ele>1075.800048828125</ele>
        <time>2014-05-20T11:41:44Z</time>
      </trkpt>
      <trkpt lat="44.435633970424533" lon="5.57514276355505">
        <ele>1076.5999755859375</ele>
        <time>2014-05-20T11:41:46Z</time>
      </trkpt>
      <trkpt lat="44.435558030381799" lon="5.575121389701963">
        <ele>1077.800048828125</ele>
        <time>2014-05-20T11:41:49Z</time>
      </trkpt>
      <trkpt lat="44.435534980148077" lon="5.575104709714651">
        <ele>1077.800048828125</ele>
        <time>2014-05-20T11:41:50Z</time>
      </trkpt>
      <trkpt lat="44.435403971001506" lon="5.574973784387112">
        <ele>1078.800048828125</ele>
        <time>2014-05-20T11:41:56Z</time>
      </trkpt>
      <trkpt lat="44.435384441167116" lon="5.574950147420168">
        <ele>1079.199951171875</ele>
        <time>2014-05-20T11:41:57Z</time>
      </trkpt>
      <trkpt lat="44.435328533872962" lon="5.574866160750389">
        <ele>1080</ele>
        <time>2014-05-20T11:42:00Z</time>
      </trkpt>
      <trkpt lat="44.435222502797842" lon="5.574744958430529">
        <ele>1081</ele>
        <time>2014-05-20T11:42:05Z</time>
      </trkpt>
      <trkpt lat="44.435124099254608" lon="5.574579332023859">
        <ele>1082.199951171875</ele>
        <time>2014-05-20T11:42:11Z</time>
      </trkpt>
      <trkpt lat="44.43511345423758" lon="5.574549157172442">
        <ele>1082.199951171875</ele>
        <time>2014-05-20T11:42:12Z</time>
      </trkpt>
      <trkpt lat="44.43502108566463" lon="5.574359809979796">
        <ele>1083.199951171875</ele>
        <time>2014-05-20T11:42:19Z</time>
      </trkpt>
      <trkpt lat="44.43495025858283" lon="5.574221508577466">
        <ele>1084.199951171875</ele>
        <time>2014-05-20T11:42:24Z</time>
      </trkpt>
      <trkpt lat="44.434934332966805" lon="5.574193596839905">
        <ele>1084.199951171875</ele>
        <time>2014-05-20T11:42:25Z</time>
      </trkpt>
      <trkpt lat="44.434816567227244" lon="5.574005339294672">
        <ele>1085.4000244140625</ele>
        <time>2014-05-20T11:42:32Z</time>
      </trkpt>
      <trkpt lat="44.434797875583172" lon="5.573979858309031">
        <ele>1085.4000244140625</ele>
        <time>2014-05-20T11:42:33Z</time>
      </trkpt>
      <trkpt lat="44.434670554473996" lon="5.573811633512378">
        <ele>1086.4000244140625</ele>
        <time>2014-05-20T11:42:40Z</time>
      </trkpt>
      <trkpt lat="44.434650437906384" lon="5.573786990717053">
        <ele>1086.4000244140625</ele>
        <time>2014-05-20T11:42:41Z</time>
      </trkpt>
      <trkpt lat="44.434495372697711" lon="5.573621867224574">
        <ele>1087.4000244140625</ele>
        <time>2014-05-20T11:42:48Z</time>
      </trkpt>
      <trkpt lat="44.43440685980022" lon="5.573528995737433">
        <ele>1088.5999755859375</ele>
        <time>2014-05-20T11:42:52Z</time>
      </trkpt>
      <trkpt lat="44.434352712705731" lon="5.573459761217237">
        <ele>1089</ele>
        <time>2014-05-20T11:42:55Z</time>
      </trkpt>
      <trkpt lat="44.434301415458322" lon="5.573391616344452">
        <ele>1089.5999755859375</ele>
        <time>2014-05-20T11:42:58Z</time>
      </trkpt>
      <trkpt lat="44.434226481243968" lon="5.573312658816576">
        <ele>1090</ele>
        <time>2014-05-20T11:43:02Z</time>
      </trkpt>
      <trkpt lat="44.434151714667678" lon="5.573232276365161">
        <ele>1090.5999755859375</ele>
        <time>2014-05-20T11:43:06Z</time>
      </trkpt>
      <trkpt lat="44.434109972789884" lon="5.573191288858652">
        <ele>1090.800048828125</ele>
        <time>2014-05-20T11:43:08Z</time>
      </trkpt>
      <trkpt lat="44.434026489034295" lon="5.573094058781862">
        <ele>1091.800048828125</ele>
        <time>2014-05-20T11:43:12Z</time>
      </trkpt>
      <trkpt lat="44.433962367475033" lon="5.57303479872644">
        <ele>1092</ele>
        <time>2014-05-20T11:43:15Z</time>
      </trkpt>
      <trkpt lat="44.433857761323452" lon="5.572876716032624">
        <ele>1093</ele>
        <time>2014-05-20T11:43:21Z</time>
      </trkpt>
      <trkpt lat="44.43377461284399" lon="5.572752160951495">
        <ele>1093.800048828125</ele>
        <time>2014-05-20T11:43:26Z</time>
      </trkpt>
      <trkpt lat="44.433747371658683" lon="5.572702204808593">
        <ele>1094.199951171875</ele>
        <time>2014-05-20T11:43:28Z</time>
      </trkpt>
      <trkpt lat="44.433675119653344" lon="5.572579996660352">
        <ele>1094.5999755859375</ele>
        <time>2014-05-20T11:43:33Z</time>
      </trkpt>
      <trkpt lat="44.433635557070374" lon="5.57250564917922">
        <ele>1095.199951171875</ele>
        <time>2014-05-20T11:43:36Z</time>
      </trkpt>
      <trkpt lat="44.433596329763532" lon="5.572439767420292">
        <ele>1095.800048828125</ele>
        <time>2014-05-20T11:43:39Z</time>
      </trkpt>
      <trkpt lat="44.433512007817626" lon="5.572273721918464">
        <ele>1096.199951171875</ele>
        <time>2014-05-20T11:43:46Z</time>
      </trkpt>
      <trkpt lat="44.433503039181232" lon="5.572255868464708">
        <ele>1096.4000244140625</ele>
        <time>2014-05-20T11:43:47Z</time>
      </trkpt>
      <trkpt lat="44.433432212099433" lon="5.572085632011294">
        <ele>1097.199951171875</ele>
        <time>2014-05-20T11:43:54Z</time>
      </trkpt>
      <trkpt lat="44.433416035026312" lon="5.572059229016304">
        <ele>1097.4000244140625</ele>
        <time>2014-05-20T11:43:55Z</time>
      </trkpt>
      <trkpt lat="44.433312015607953" lon="5.571906343102455">
        <ele>1098.4000244140625</ele>
        <time>2014-05-20T11:44:01Z</time>
      </trkpt>
      <trkpt lat="44.433238757774234" lon="5.571811711415649">
        <ele>1099.4000244140625</ele>
        <time>2014-05-20T11:44:05Z</time>
      </trkpt>
      <trkpt lat="44.433156447485089" lon="5.571712469682097">
        <ele>1099.5999755859375</ele>
        <time>2014-05-20T11:44:10Z</time>
      </trkpt>
      <trkpt lat="44.433065336197615" lon="5.571571988984942">
        <ele>1100.5999755859375</ele>
        <time>2014-05-20T11:44:16Z</time>
      </trkpt>
      <trkpt lat="44.433038765564561" lon="5.571529408916831">
        <ele>1100.800048828125</ele>
        <time>2014-05-20T11:44:18Z</time>
      </trkpt>
      <trkpt lat="44.432984450832009" lon="5.571432681754232">
        <ele>1101.5999755859375</ele>
        <time>2014-05-20T11:44:22Z</time>
      </trkpt>
      <trkpt lat="44.432910773903131" lon="5.571294212713838">
        <ele>1102.4000244140625</ele>
        <time>2014-05-20T11:44:27Z</time>
      </trkpt>
      <trkpt lat="44.432882023975253" lon="5.571229001507163">
        <ele>1102.800048828125</ele>
        <time>2014-05-20T11:44:29Z</time>
      </trkpt>
      <trkpt lat="44.432833325117826" lon="5.571114420890808">
        <ele>1103.199951171875</ele>
        <time>2014-05-20T11:44:33Z</time>
      </trkpt>
      <trkpt lat="44.432774903252721" lon="5.570983830839396">
        <ele>1104</ele>
        <time>2014-05-20T11:44:37Z</time>
      </trkpt>
      <trkpt lat="44.432716816663742" lon="5.570865143090487">
        <ele>1104.4000244140625</ele>
        <time>2014-05-20T11:44:41Z</time>
      </trkpt>
      <trkpt lat="44.432671470567584" lon="5.570750394836068">
        <ele>1105</ele>
        <time>2014-05-20T11:44:45Z</time>
      </trkpt>
      <trkpt lat="44.432623945176601" lon="5.570668755099177">
        <ele>1105.199951171875</ele>
        <time>2014-05-20T11:44:48Z</time>
      </trkpt>
      <trkpt lat="44.432559572160244" lon="5.570526598021388">
        <ele>1106.199951171875</ele>
        <time>2014-05-20T11:44:53Z</time>
      </trkpt>
      <trkpt lat="44.432534845545888" lon="5.570470523089171">
        <ele>1106.4000244140625</ele>
        <time>2014-05-20T11:44:55Z</time>
      </trkpt>
      <trkpt lat="44.432416157796979" lon="5.570276062935591">
        <ele>1107</ele>
        <time>2014-05-20T11:45:02Z</time>
      </trkpt>
      <trkpt lat="44.432310294359922" lon="5.57022275403142">
        <ele>1107.199951171875</ele>
        <time>2014-05-20T11:45:07Z</time>
      </trkpt>
      <trkpt lat="44.432271737605333" lon="5.570235075429082">
        <ele>1107.5999755859375</ele>
        <time>2014-05-20T11:45:09Z</time>
      </trkpt>
      <trkpt lat="44.432191690430045" lon="5.570277823135257">
        <ele>1108.5999755859375</ele>
        <time>2014-05-20T11:45:14Z</time>
      </trkpt>
      <trkpt lat="44.432087922468781" lon="5.570346051827073">
        <ele>1109</ele>
        <time>2014-05-20T11:45:20Z</time>
      </trkpt>
      <trkpt lat="44.431974180042744" lon="5.570422243326902">
        <ele>1108.4000244140625</ele>
        <time>2014-05-20T11:45:27Z</time>
      </trkpt>
      <trkpt lat="44.431892959401011" lon="5.570493908599019">
        <ele>1108.199951171875</ele>
        <time>2014-05-20T11:45:33Z</time>
      </trkpt>
      <trkpt lat="44.431814840063453" lon="5.570602035149932">
        <ele>1107.5999755859375</ele>
        <time>2014-05-20T11:45:39Z</time>
      </trkpt>
      <trkpt lat="44.431808637455106" lon="5.570738157257438">
        <ele>1106.199951171875</ele>
        <time>2014-05-20T11:45:43Z</time>
      </trkpt>
      <trkpt lat="44.431811738759279" lon="5.5707729421556">
        <ele>1106</ele>
        <time>2014-05-20T11:45:44Z</time>
      </trkpt>
      <trkpt lat="44.431832022964954" lon="5.570863466709852">
        <ele>1105.199951171875</ele>
        <time>2014-05-20T11:45:47Z</time>
      </trkpt>
      <trkpt lat="44.431834453716874" lon="5.570892635732889">
        <ele>1104.800048828125</ele>
        <time>2014-05-20T11:45:48Z</time>
      </trkpt>
      <trkpt lat="44.431833950802684" lon="5.570939825847745">
        <ele>1104.800048828125</ele>
        <time>2014-05-20T11:45:50Z</time>
      </trkpt>
      <trkpt lat="44.431849122047424" lon="5.57097963988781">
        <ele>1105.199951171875</ele>
        <time>2014-05-20T11:49:24Z</time>
      </trkpt>
      <trkpt lat="44.431870579719543" lon="5.571032697334886">
        <ele>1104.5999755859375</ele>
        <time>2014-05-20T11:49:26Z</time>
      </trkpt>
      <trkpt lat="44.43189044483006" lon="5.571121629327536">
        <ele>1103.4000244140625</ele>
        <time>2014-05-20T11:49:28Z</time>
      </trkpt>
      <trkpt lat="44.431912405416369" lon="5.57124643586576">
        <ele>1102.5999755859375</ele>
        <time>2014-05-20T11:49:30Z</time>
      </trkpt>
      <trkpt lat="44.431946435943246" lon="5.57139890268445">
        <ele>1102.4000244140625</ele>
        <time>2014-05-20T11:49:32Z</time>
      </trkpt>
      <trkpt lat="44.431980634108186" lon="5.571581544354558">
        <ele>1100.5999755859375</ele>
        <time>2014-05-20T11:49:34Z</time>
      </trkpt>
      <trkpt lat="44.432032434269786" lon="5.571762090548873">
        <ele>1099.199951171875</ele>
        <time>2014-05-20T11:49:36Z</time>
      </trkpt>
      <trkpt lat="44.432113319635391" lon="5.571944564580917">
        <ele>1098.800048828125</ele>
        <time>2014-05-20T11:49:38Z</time>
      </trkpt>
      <trkpt lat="44.43216210231185" lon="5.572042046114802">
        <ele>1097.199951171875</ele>
        <time>2014-05-20T11:49:39Z</time>
      </trkpt>
      <trkpt lat="44.432249944657087" lon="5.572255030274391">
        <ele>1096</ele>
        <time>2014-05-20T11:49:41Z</time>
      </trkpt>
      <trkpt lat="44.432284310460091" lon="5.572376316413283">
        <ele>1095.4000244140625</ele>
        <time>2014-05-20T11:49:42Z</time>
      </trkpt>
      <trkpt lat="44.432313395664096" lon="5.572504894807935">
        <ele>1094.5999755859375</ele>
        <time>2014-05-20T11:49:43Z</time>
      </trkpt>
      <trkpt lat="44.43235270678997" lon="5.57277244515717">
        <ele>1092.5999755859375</ele>
        <time>2014-05-20T11:49:45Z</time>
      </trkpt>
      <trkpt lat="44.432358238846064" lon="5.572905214503408">
        <ele>1091.199951171875</ele>
        <time>2014-05-20T11:49:46Z</time>
      </trkpt>
      <trkpt lat="44.432358909398317" lon="5.573040330782533">
        <ele>1090</ele>
        <time>2014-05-20T11:49:47Z</time>
      </trkpt>
      <trkpt lat="44.432344073429704" lon="5.573173519223929">
        <ele>1088.800048828125</ele>
        <time>2014-05-20T11:49:48Z</time>
      </trkpt>
      <trkpt lat="44.432323705404997" lon="5.573306540027261">
        <ele>1087.5999755859375</ele>
        <time>2014-05-20T11:49:49Z</time>
      </trkpt>
      <trkpt lat="44.432292021811008" lon="5.573438555002213">
        <ele>1086.5999755859375</ele>
        <time>2014-05-20T11:49:50Z</time>
      </trkpt>
      <trkpt lat="44.432215997949243" lon="5.573713565245271">
        <ele>1084.4000244140625</ele>
        <time>2014-05-20T11:49:52Z</time>
      </trkpt>
      <trkpt lat="44.432188840582967" lon="5.573858739808202">
        <ele>1083</ele>
        <time>2014-05-20T11:49:53Z</time>
      </trkpt>
      <trkpt lat="44.432167718186975" lon="5.574007602408528">
        <ele>1081.5999755859375</ele>
        <time>2014-05-20T11:49:54Z</time>
      </trkpt>
      <trkpt lat="44.432155229151249" lon="5.574159733951092">
        <ele>1080.4000244140625</ele>
        <time>2014-05-20T11:49:55Z</time>
      </trkpt>
      <trkpt lat="44.432145925238729" lon="5.574316056445241">
        <ele>1079.4000244140625</ele>
        <time>2014-05-20T11:49:56Z</time>
      </trkpt>
      <trkpt lat="44.432145170867443" lon="5.574625767767429">
        <ele>1077.800048828125</ele>
        <time>2014-05-20T11:49:58Z</time>
      </trkpt>
      <trkpt lat="44.432153468951583" lon="5.575084844604135">
        <ele>1076.5999755859375</ele>
        <time>2014-05-20T11:50:01Z</time>
      </trkpt>
      <trkpt lat="44.432137878611684" lon="5.57524292729795">
        <ele>1076</ele>
        <time>2014-05-20T11:50:02Z</time>
      </trkpt>
      <trkpt lat="44.432135112583637" lon="5.575404949486256">
        <ele>1074.5999755859375</ele>
        <time>2014-05-20T11:50:03Z</time>
      </trkpt>
      <trkpt lat="44.432111559435725" lon="5.575808957219124">
        <ele>1073</ele>
        <time>2014-05-20T11:50:06Z</time>
      </trkpt>
      <trkpt lat="44.432001085951924" lon="5.576038789004087">
        <ele>1071</ele>
        <time>2014-05-20T11:50:08Z</time>
      </trkpt>
      <trkpt lat="44.431878039613366" lon="5.576269961893559">
        <ele>1069.4000244140625</ele>
        <time>2014-05-20T11:50:10Z</time>
      </trkpt>
      <trkpt lat="44.431785084307194" lon="5.576356546953321">
        <ele>1068.199951171875</ele>
        <time>2014-05-20T11:50:11Z</time>
      </trkpt>
      <trkpt lat="44.431679472327232" lon="5.576409520581365">
        <ele>1066.800048828125</ele>
        <time>2014-05-20T11:50:12Z</time>
      </trkpt>
      <trkpt lat="44.431574949994683" lon="5.576464422047138">
        <ele>1065.199951171875</ele>
        <time>2014-05-20T11:50:13Z</time>
      </trkpt>
      <trkpt lat="44.431465230882168" lon="5.576506666839123">
        <ele>1064.199951171875</ele>
        <time>2014-05-20T11:50:14Z</time>
      </trkpt>
      <trkpt lat="44.431326594203711" lon="5.576476156711578">
        <ele>1063.4000244140625</ele>
        <time>2014-05-20T11:50:15Z</time>
      </trkpt>
      <trkpt lat="44.431201536208391" lon="5.576435253024101">
        <ele>1063</ele>
        <time>2014-05-20T11:50:16Z</time>
      </trkpt>
      <trkpt lat="44.43099525757134" lon="5.576371382921934">
        <ele>1061.800048828125</ele>
        <time>2014-05-20T11:50:18Z</time>
      </trkpt>
      <trkpt lat="44.430897189304233" lon="5.576378842815757">
        <ele>1061.199951171875</ele>
        <time>2014-05-20T11:50:19Z</time>
      </trkpt>
      <trkpt lat="44.430811274796724" lon="5.576429972425103">
        <ele>1060.5999755859375</ele>
        <time>2014-05-20T11:50:20Z</time>
      </trkpt>
      <trkpt lat="44.430739190429449" lon="5.576513204723597">
        <ele>1059.800048828125</ele>
        <time>2014-05-20T11:50:21Z</time>
      </trkpt>
      <trkpt lat="44.430678505450487" lon="5.576614709571004">
        <ele>1058.800048828125</ele>
        <time>2014-05-20T11:50:22Z</time>
      </trkpt>
      <trkpt lat="44.430566774681211" lon="5.57684076949954">
        <ele>1057.199951171875</ele>
        <time>2014-05-20T11:50:24Z</time>
      </trkpt>
      <trkpt lat="44.430481363087893" lon="5.577100357040763">
        <ele>1055.4000244140625</ele>
        <time>2014-05-20T11:50:26Z</time>
      </trkpt>
      <trkpt lat="44.430441046133637" lon="5.577242597937584">
        <ele>1054</ele>
        <time>2014-05-20T11:50:27Z</time>
      </trkpt>
      <trkpt lat="44.430399388074875" lon="5.577392634004355">
        <ele>1052.800048828125</ele>
        <time>2014-05-20T11:50:28Z</time>
      </trkpt>
      <trkpt lat="44.430357059463859" lon="5.577543843537569">
        <ele>1051.4000244140625</ele>
        <time>2014-05-20T11:50:29Z</time>
      </trkpt>
      <trkpt lat="44.430314730852842" lon="5.577694131061435">
        <ele>1050</ele>
        <time>2014-05-20T11:50:30Z</time>
      </trkpt>
      <trkpt lat="44.430268965661526" lon="5.577847687527537">
        <ele>1048.800048828125</ele>
        <time>2014-05-20T11:50:31Z</time>
      </trkpt>
      <trkpt lat="44.430219596251845" lon="5.578008117154241">
        <ele>1047.5999755859375</ele>
        <time>2014-05-20T11:50:32Z</time>
      </trkpt>
      <trkpt lat="44.430163605138659" lon="5.578168882057071">
        <ele>1046.4000244140625</ele>
        <time>2014-05-20T11:50:33Z</time>
      </trkpt>
      <trkpt lat="44.430108871310949" lon="5.578328976407647">
        <ele>1045.4000244140625</ele>
        <time>2014-05-20T11:50:34Z</time>
      </trkpt>
      <trkpt lat="44.430053718388081" lon="5.578491585329175">
        <ele>1044.199951171875</ele>
        <time>2014-05-20T11:50:35Z</time>
      </trkpt>
      <trkpt lat="44.430000074207783" lon="5.578659055754542">
        <ele>1042.800048828125</ele>
        <time>2014-05-20T11:50:36Z</time>
      </trkpt>
      <trkpt lat="44.429946513846517" lon="5.578826945275068">
        <ele>1041.5999755859375</ele>
        <time>2014-05-20T11:50:37Z</time>
      </trkpt>
      <trkpt lat="44.429851546883583" lon="5.579133974388242">
        <ele>1040.4000244140625</ele>
        <time>2014-05-20T11:50:39Z</time>
      </trkpt>
      <trkpt lat="44.429811397567391" lon="5.579271605238318">
        <ele>1040</ele>
        <time>2014-05-20T11:50:40Z</time>
      </trkpt>
      <trkpt lat="44.429729674011469" lon="5.57951551862061">
        <ele>1038.800048828125</ele>
        <time>2014-05-20T11:50:42Z</time>
      </trkpt>
      <trkpt lat="44.429703103378415" lon="5.5796317756176">
        <ele>1038.199951171875</ele>
        <time>2014-05-20T11:50:43Z</time>
      </trkpt>
      <trkpt lat="44.429692961275578" lon="5.579745434224606">
        <ele>1037.5999755859375</ele>
        <time>2014-05-20T11:50:44Z</time>
      </trkpt>
      <trkpt lat="44.429724477231503" lon="5.58004466816783">
        <ele>1036.800048828125</ele>
        <time>2014-05-20T11:50:47Z</time>
      </trkpt>
      <trkpt lat="44.429757166653872" lon="5.580122284591198">
        <ele>1037</ele>
        <time>2014-05-20T11:50:48Z</time>
      </trkpt>
      <trkpt lat="44.429754232987761" lon="5.580239547416568">
        <ele>1037.199951171875</ele>
        <time>2014-05-20T11:50:50Z</time>
      </trkpt>
      <trkpt lat="44.429660271853209" lon="5.580256227403879">
        <ele>1036</ele>
        <time>2014-05-20T11:50:52Z</time>
      </trkpt>
      <trkpt lat="44.429597491398454" lon="5.580092277377844">
        <ele>1035.199951171875</ele>
        <time>2014-05-20T11:50:54Z</time>
      </trkpt>
      <trkpt lat="44.429579805582762" lon="5.580004015937448">
        <ele>1034.800048828125</ele>
        <time>2014-05-20T11:50:55Z</time>
      </trkpt>
      <trkpt lat="44.429556420072913" lon="5.579790277406573">
        <ele>1033.4000244140625</ele>
        <time>2014-05-20T11:50:57Z</time>
      </trkpt>
      <trkpt lat="44.429541416466236" lon="5.579675612971187">
        <ele>1032.5999755859375</ele>
        <time>2014-05-20T11:50:58Z</time>
      </trkpt>
      <trkpt lat="44.429538231343031" lon="5.579553069546819">
        <ele>1031.800048828125</ele>
        <time>2014-05-20T11:50:59Z</time>
      </trkpt>
      <trkpt lat="44.429545942693949" lon="5.579421976581216">
        <ele>1030.5999755859375</ele>
        <time>2014-05-20T11:51:00Z</time>
      </trkpt>
      <trkpt lat="44.429553234949708" lon="5.579291470348835">
        <ele>1029.5999755859375</ele>
        <time>2014-05-20T11:51:01Z</time>
      </trkpt>
      <trkpt lat="44.429555414244533" lon="5.57901025749743">
        <ele>1028</ele>
        <time>2014-05-20T11:51:03Z</time>
      </trkpt>
      <trkpt lat="44.429551810026169" lon="5.578720746561885">
        <ele>1026.800048828125</ele>
        <time>2014-05-20T11:51:05Z</time>
      </trkpt>
      <trkpt lat="44.429546445608139" lon="5.578568698838353">
        <ele>1026.199951171875</ele>
        <time>2014-05-20T11:51:06Z</time>
      </trkpt>
      <trkpt lat="44.429537057876587" lon="5.578412795439363">
        <ele>1025</ele>
        <time>2014-05-20T11:51:07Z</time>
      </trkpt>
      <trkpt lat="44.429527502506971" lon="5.578252533450723">
        <ele>1024</ele>
        <time>2014-05-20T11:51:08Z</time>
      </trkpt>
      <trkpt lat="44.429518785327673" lon="5.57808774523437">
        <ele>1022.7999877929687</ele>
        <time>2014-05-20T11:51:09Z</time>
      </trkpt>
      <trkpt lat="44.429508643224835" lon="5.577921364456415">
        <ele>1021.5999755859375</ele>
        <time>2014-05-20T11:51:10Z</time>
      </trkpt>
      <trkpt lat="44.429495315998793" lon="5.577746015042067">
        <ele>1020.5999755859375</ele>
        <time>2014-05-20T11:51:11Z</time>
      </trkpt>
      <trkpt lat="44.429478384554386" lon="5.577403865754604">
        <ele>1019</ele>
        <time>2014-05-20T11:51:13Z</time>
      </trkpt>
      <trkpt lat="44.429492047056556" lon="5.577117120847106">
        <ele>1017.2000122070312</ele>
        <time>2014-05-20T11:51:15Z</time>
      </trkpt>
      <trkpt lat="44.42953135818243" lon="5.576902879402041">
        <ele>1017.5999755859375</ele>
        <time>2014-05-20T11:51:17Z</time>
      </trkpt>
      <trkpt lat="44.429545775055885" lon="5.576818725094199">
        <ele>1017.5999755859375</ele>
        <time>2014-05-20T11:51:18Z</time>
      </trkpt>
      <trkpt lat="44.429540913552046" lon="5.576747059822083">
        <ele>1017.7999877929687</ele>
        <time>2014-05-20T11:51:19Z</time>
      </trkpt>
      <trkpt lat="44.429452987387776" lon="5.576671371236444">
        <ele>1018.4000244140625</ele>
        <time>2014-05-20T11:51:21Z</time>
      </trkpt>
      <trkpt lat="44.429344525560737" lon="5.57676306925714">
        <ele>1017.4000244140625</ele>
        <time>2014-05-20T11:51:23Z</time>
      </trkpt>
      <trkpt lat="44.429319882765412" lon="5.576859712600708">
        <ele>1016.5999755859375</ele>
        <time>2014-05-20T11:51:24Z</time>
      </trkpt>
      <trkpt lat="44.429310159757733" lon="5.576973538845778">
        <ele>1015.5999755859375</ele>
        <time>2014-05-20T11:51:25Z</time>
      </trkpt>
      <trkpt lat="44.429302867501974" lon="5.577092058956623">
        <ele>1014.4000244140625</ele>
        <time>2014-05-20T11:51:26Z</time>
      </trkpt>
      <trkpt lat="44.429293228313327" lon="5.577211501076818">
        <ele>1013.2000122070312</ele>
        <time>2014-05-20T11:51:27Z</time>
      </trkpt>
      <trkpt lat="44.429280320182443" lon="5.577333373948932">
        <ele>1011.7999877929687</ele>
        <time>2014-05-20T11:51:28Z</time>
      </trkpt>
      <trkpt lat="44.429267412051558" lon="5.577461700886488">
        <ele>1010.7999877929687</ele>
        <time>2014-05-20T11:51:29Z</time>
      </trkpt>
      <trkpt lat="44.42924746312201" lon="5.577598325908184">
        <ele>1009.5999755859375</ele>
        <time>2014-05-20T11:51:30Z</time>
      </trkpt>
      <trkpt lat="44.429215108975768" lon="5.577735118567944">
        <ele>1009</ele>
        <time>2014-05-20T11:51:31Z</time>
      </trkpt>
      <trkpt lat="44.42916096188128" lon="5.577872581779957">
        <ele>1008.2000122070312</ele>
        <time>2014-05-20T11:51:32Z</time>
      </trkpt>
      <trkpt lat="44.429095163941383" lon="5.578002752736211">
        <ele>1007.2000122070312</ele>
        <time>2014-05-20T11:51:33Z</time>
      </trkpt>
      <trkpt lat="44.42901972681284" lon="5.578129654750228">
        <ele>1005.5999755859375</ele>
        <time>2014-05-20T11:51:34Z</time>
      </trkpt>
      <trkpt lat="44.428942194208503" lon="5.578258065506816">
        <ele>1003.7999877929687</ele>
        <time>2014-05-20T11:51:35Z</time>
      </trkpt>
      <trkpt lat="44.428865415975451" lon="5.578391253948212">
        <ele>1002</ele>
        <time>2014-05-20T11:51:36Z</time>
      </trkpt>
      <trkpt lat="44.428783189505339" lon="5.578526621684432">
        <ele>1000.5999755859375</ele>
        <time>2014-05-20T11:51:37Z</time>
      </trkpt>
      <trkpt lat="44.428698029369116" lon="5.578663917258382">
        <ele>999.4000244140625</ele>
        <time>2014-05-20T11:51:38Z</time>
      </trkpt>
      <trkpt lat="44.428613791242242" lon="5.578803475946188">
        <ele>998</ele>
        <time>2014-05-20T11:51:39Z</time>
      </trkpt>
      <trkpt lat="44.428525948897004" lon="5.57893892750144">
        <ele>994.79998779296875</ele>
        <time>2014-05-20T11:51:40Z</time>
      </trkpt>
      <trkpt lat="44.428443554788828" lon="5.579076558351517">
        <ele>994</ele>
        <time>2014-05-20T11:51:41Z</time>
      </trkpt>
      <trkpt lat="44.428367614746094" lon="5.579213686287403">
        <ele>992.79998779296875</ele>
        <time>2014-05-20T11:51:42Z</time>
      </trkpt>
      <trkpt lat="44.42829854786396" lon="5.579351736232638">
        <ele>991.5999755859375</ele>
        <time>2014-05-20T11:51:43Z</time>
      </trkpt>
      <trkpt lat="44.428239455446601" lon="5.579491881653667">
        <ele>990.20001220703125</ele>
        <time>2014-05-20T11:51:44Z</time>
      </trkpt>
      <trkpt lat="44.428189164027572" lon="5.57963621802628">
        <ele>989.5999755859375</ele>
        <time>2014-05-20T11:51:45Z</time>
      </trkpt>
      <trkpt lat="44.42814365029335" lon="5.579778710380197">
        <ele>989</ele>
        <time>2014-05-20T11:51:46Z</time>
      </trkpt>
      <trkpt lat="44.428038457408547" lon="5.580003848299384">
        <ele>987.5999755859375</ele>
        <time>2014-05-20T11:51:48Z</time>
      </trkpt>
      <trkpt lat="44.427961511537433" lon="5.580085571855307">
        <ele>987</ele>
        <time>2014-05-20T11:51:49Z</time>
      </trkpt>
      <trkpt lat="44.427866376936436" lon="5.580136366188526">
        <ele>986.4000244140625</ele>
        <time>2014-05-20T11:51:50Z</time>
      </trkpt>
      <trkpt lat="44.42777912132442" lon="5.580166289582849">
        <ele>985.4000244140625</ele>
        <time>2014-05-20T11:51:51Z</time>
      </trkpt>
      <trkpt lat="44.427699409425259" lon="5.580205097794533">
        <ele>984.79998779296875</ele>
        <time>2014-05-20T11:51:52Z</time>
      </trkpt>
      <trkpt lat="44.42755825817585" lon="5.580366952344775">
        <ele>983.79998779296875</ele>
        <time>2014-05-20T11:51:54Z</time>
      </trkpt>
      <trkpt lat="44.427508721128106" lon="5.580480778589845">
        <ele>982.4000244140625</ele>
        <time>2014-05-20T11:51:55Z</time>
      </trkpt>
      <trkpt lat="44.427475528791547" lon="5.580594772472978">
        <ele>981.4000244140625</ele>
        <time>2014-05-20T11:51:56Z</time>
      </trkpt>
      <trkpt lat="44.427456334233284" lon="5.580714046955109">
        <ele>980.4000244140625</ele>
        <time>2014-05-20T11:51:57Z</time>
      </trkpt>
      <trkpt lat="44.42744736559689" lon="5.580840026959777">
        <ele>979.79998779296875</ele>
        <time>2014-05-20T11:51:58Z</time>
      </trkpt>
      <trkpt lat="44.4274658896029" lon="5.581075390800834">
        <ele>978.5999755859375</ele>
        <time>2014-05-20T11:52:00Z</time>
      </trkpt>
      <trkpt lat="44.427496483549476" lon="5.581253757700324">
        <ele>978.4000244140625</ele>
        <time>2014-05-20T11:52:02Z</time>
      </trkpt>
      <trkpt lat="44.427482318133116" lon="5.581334810703993">
        <ele>978.5999755859375</ele>
        <time>2014-05-20T11:52:03Z</time>
      </trkpt>
      <trkpt lat="44.427431188523769" lon="5.581401698291302">
        <ele>977</ele>
        <time>2014-05-20T11:52:04Z</time>
      </trkpt>
      <trkpt lat="44.427358182147145" lon="5.581443188712001">
        <ele>975.4000244140625</ele>
        <time>2014-05-20T11:52:05Z</time>
      </trkpt>
      <trkpt lat="44.427275117486715" lon="5.581459365785122">
        <ele>973.79998779296875</ele>
        <time>2014-05-20T11:52:06Z</time>
      </trkpt>
      <trkpt lat="44.427189454436302" lon="5.581476632505655">
        <ele>972.79998779296875</ele>
        <time>2014-05-20T11:52:07Z</time>
      </trkpt>
      <trkpt lat="44.427100857719779" lon="5.581503203138709">
        <ele>971.79998779296875</ele>
        <time>2014-05-20T11:52:08Z</time>
      </trkpt>
      <trkpt lat="44.427012512460351" lon="5.581547291949391">
        <ele>970.79998779296875</ele>
        <time>2014-05-20T11:52:09Z</time>
      </trkpt>
      <trkpt lat="44.42685023881495" lon="5.581704704090953">
        <ele>969.20001220703125</ele>
        <time>2014-05-20T11:52:11Z</time>
      </trkpt>
      <trkpt lat="44.426720151677728" lon="5.581914084032178">
        <ele>967.5999755859375</ele>
        <time>2014-05-20T11:52:13Z</time>
      </trkpt>
      <trkpt lat="44.426634991541505" lon="5.581997400149703">
        <ele>966.5999755859375</ele>
        <time>2014-05-20T11:52:14Z</time>
      </trkpt>
      <trkpt lat="44.426441118121147" lon="5.582125727087259">
        <ele>964.5999755859375</ele>
        <time>2014-05-20T11:52:16Z</time>
      </trkpt>
      <trkpt lat="44.42634204402566" lon="5.582171157002449">
        <ele>963.79998779296875</ele>
        <time>2014-05-20T11:52:17Z</time>
      </trkpt>
      <trkpt lat="44.426239114254713" lon="5.58220929466188">
        <ele>963.4000244140625</ele>
        <time>2014-05-20T11:52:18Z</time>
      </trkpt>
      <trkpt lat="44.426133753731847" lon="5.582245588302612">
        <ele>962.79998779296875</ele>
        <time>2014-05-20T11:52:19Z</time>
      </trkpt>
      <trkpt lat="44.42603032104671" lon="5.582274002954364">
        <ele>962.20001220703125</ele>
        <time>2014-05-20T11:52:20Z</time>
      </trkpt>
      <trkpt lat="44.425822617486119" lon="5.582294538617134">
        <ele>960.79998779296875</ele>
        <time>2014-05-20T11:52:22Z</time>
      </trkpt>
      <trkpt lat="44.425607537850738" lon="5.582257406786084">
        <ele>959</ele>
        <time>2014-05-20T11:52:24Z</time>
      </trkpt>
      <trkpt lat="44.425412993878126" lon="5.582200074568391">
        <ele>957.5999755859375</ele>
        <time>2014-05-20T11:52:26Z</time>
      </trkpt>
      <trkpt lat="44.425256587564945" lon="5.582141317427158">
        <ele>956.5999755859375</ele>
        <time>2014-05-20T11:52:28Z</time>
      </trkpt>
      <trkpt lat="44.425128344446421" lon="5.582061689347029">
        <ele>955.79998779296875</ele>
        <time>2014-05-20T11:52:30Z</time>
      </trkpt>
      <trkpt lat="44.42507503554225" lon="5.581984240561724">
        <ele>955.4000244140625</ele>
        <time>2014-05-20T11:52:31Z</time>
      </trkpt>
      <trkpt lat="44.425024073570967" lon="5.581765975803137">
        <ele>954</ele>
        <time>2014-05-20T11:52:33Z</time>
      </trkpt>
      <trkpt lat="44.425042849034071" lon="5.581514602527022">
        <ele>952.4000244140625</ele>
        <time>2014-05-20T11:52:35Z</time>
      </trkpt>
      <trkpt lat="44.425060283392668" lon="5.5813810788095">
        <ele>951.79998779296875</ele>
        <time>2014-05-20T11:52:36Z</time>
      </trkpt>
      <trkpt lat="44.425065480172634" lon="5.581243196502328">
        <ele>951</ele>
        <time>2014-05-20T11:52:37Z</time>
      </trkpt>
      <trkpt lat="44.425053494051099" lon="5.581004982814193">
        <ele>949.4000244140625</ele>
        <time>2014-05-20T11:52:39Z</time>
      </trkpt>
      <trkpt lat="44.424991384148598" lon="5.580746987834573">
        <ele>948.4000244140625</ele>
        <time>2014-05-20T11:52:42Z</time>
      </trkpt>
      <trkpt lat="44.424850149080157" lon="5.580639699473977">
        <ele>947.5999755859375</ele>
        <time>2014-05-20T11:52:45Z</time>
      </trkpt>
      <trkpt lat="44.424788877367973" lon="5.58068823069334">
        <ele>946.5999755859375</ele>
        <time>2014-05-20T11:52:46Z</time>
      </trkpt>
      <trkpt lat="44.424750655889511" lon="5.580774648115039">
        <ele>945.20001220703125</ele>
        <time>2014-05-20T11:52:47Z</time>
      </trkpt>
      <trkpt lat="44.424728276208043" lon="5.580876404419541">
        <ele>943.5999755859375</ele>
        <time>2014-05-20T11:52:48Z</time>
      </trkpt>
      <trkpt lat="44.424697095528245" lon="5.580980088561773">
        <ele>942.4000244140625</ele>
        <time>2014-05-20T11:52:49Z</time>
      </trkpt>
      <trkpt lat="44.424638589844108" lon="5.581062063574791">
        <ele>941.5999755859375</ele>
        <time>2014-05-20T11:52:50Z</time>
      </trkpt>
      <trkpt lat="44.424560889601707" lon="5.581115707755089">
        <ele>941</ele>
        <time>2014-05-20T11:52:51Z</time>
      </trkpt>
      <trkpt lat="44.424474639818072" lon="5.581146804615855">
        <ele>939</ele>
        <time>2014-05-20T11:52:52Z</time>
      </trkpt>
      <trkpt lat="44.424387300387025" lon="5.581173878163099">
        <ele>937.79998779296875</ele>
        <time>2014-05-20T11:52:53Z</time>
      </trkpt>
      <trkpt lat="44.424304738640785" lon="5.581220230087638">
        <ele>936.5999755859375</ele>
        <time>2014-05-20T11:52:54Z</time>
      </trkpt>
      <trkpt lat="44.424149421975017" lon="5.581352077424526">
        <ele>935</ele>
        <time>2014-05-20T11:52:56Z</time>
      </trkpt>
      <trkpt lat="44.424069710075855" lon="5.581419887021184">
        <ele>934</ele>
        <time>2014-05-20T11:52:57Z</time>
      </trkpt>
      <trkpt lat="44.423991171643138" lon="5.581499096006155">
        <ele>933</ele>
        <time>2014-05-20T11:52:58Z</time>
      </trkpt>
      <trkpt lat="44.42390525713563" lon="5.581564391031861">
        <ele>932</ele>
        <time>2014-05-20T11:52:59Z</time>
      </trkpt>
      <trkpt lat="44.42371423356235" lon="5.581651479005814">
        <ele>930.5999755859375</ele>
        <time>2014-05-20T11:53:01Z</time>
      </trkpt>
      <trkpt lat="44.423531759530306" lon="5.581681234762073">
        <ele>930.20001220703125</ele>
        <time>2014-05-20T11:53:03Z</time>
      </trkpt>
      <trkpt lat="44.423451041802764" lon="5.581705374643207">
        <ele>930.4000244140625</ele>
        <time>2014-05-20T11:53:04Z</time>
      </trkpt>
      <trkpt lat="44.423378705978394" lon="5.581743512302637">
        <ele>930.20001220703125</ele>
        <time>2014-05-20T11:53:05Z</time>
      </trkpt>
      <trkpt lat="44.423308046534657" lon="5.581802604719997">
        <ele>929.5999755859375</ele>
        <time>2014-05-20T11:53:06Z</time>
      </trkpt>
      <trkpt lat="44.423245266079903" lon="5.581885250285268">
        <ele>928.5999755859375</ele>
        <time>2014-05-20T11:53:07Z</time>
      </trkpt>
      <trkpt lat="44.423190951347351" lon="5.581984743475914">
        <ele>927.79998779296875</ele>
        <time>2014-05-20T11:53:08Z</time>
      </trkpt>
      <trkpt lat="44.423133283853531" lon="5.582079458981752">
        <ele>926.4000244140625</ele>
        <time>2014-05-20T11:53:09Z</time>
      </trkpt>
      <trkpt lat="44.42307511344552" lon="5.582177191972733">
        <ele>925</ele>
        <time>2014-05-20T11:53:10Z</time>
      </trkpt>
      <trkpt lat="44.423006968572736" lon="5.582269979640842">
        <ele>923.79998779296875</ele>
        <time>2014-05-20T11:53:11Z</time>
      </trkpt>
      <trkpt lat="44.422924658283591" lon="5.582352122291923">
        <ele>922.4000244140625</ele>
        <time>2014-05-20T11:53:12Z</time>
      </trkpt>
      <trkpt lat="44.422831116244197" lon="5.582418842241168">
        <ele>921.4000244140625</ele>
        <time>2014-05-20T11:53:13Z</time>
      </trkpt>
      <trkpt lat="44.42273355089128" lon="5.582463936880231">
        <ele>920.20001220703125</ele>
        <time>2014-05-20T11:53:14Z</time>
      </trkpt>
      <trkpt lat="44.422527439892292" lon="5.582532249391079">
        <ele>919</ele>
        <time>2014-05-20T11:53:16Z</time>
      </trkpt>
      <trkpt lat="44.422418978065252" lon="5.582566279917955">
        <ele>917.79998779296875</ele>
        <time>2014-05-20T11:53:17Z</time>
      </trkpt>
      <trkpt lat="44.422308672219515" lon="5.582598717883229">
        <ele>916.5999755859375</ele>
        <time>2014-05-20T11:53:18Z</time>
      </trkpt>
      <trkpt lat="44.422195516526699" lon="5.582631826400757">
        <ele>915.5999755859375</ele>
        <time>2014-05-20T11:53:19Z</time>
      </trkpt>
      <trkpt lat="44.421964762732387" lon="5.582700055092573">
        <ele>913.79998779296875</ele>
        <time>2014-05-20T11:53:21Z</time>
      </trkpt>
      <trkpt lat="44.421846577897668" lon="5.582736600190401">
        <ele>912.4000244140625</ele>
        <time>2014-05-20T11:53:22Z</time>
      </trkpt>
      <trkpt lat="44.421729482710361" lon="5.582773312926292">
        <ele>911.20001220703125</ele>
        <time>2014-05-20T11:53:23Z</time>
      </trkpt>
      <trkpt lat="44.421611297875643" lon="5.582808768376708">
        <ele>910.20001220703125</ele>
        <time>2014-05-20T11:53:24Z</time>
      </trkpt>
      <trkpt lat="44.421376772224903" lon="5.58287724852562">
        <ele>908.5999755859375</ele>
        <time>2014-05-20T11:53:26Z</time>
      </trkpt>
      <trkpt lat="44.421258671209216" lon="5.582917733117938">
        <ele>907.4000244140625</ele>
        <time>2014-05-20T11:53:27Z</time>
      </trkpt>
      <trkpt lat="44.421138726174831" lon="5.582954864948988">
        <ele>906.4000244140625</ele>
        <time>2014-05-20T11:53:28Z</time>
      </trkpt>
      <trkpt lat="44.421016601845622" lon="5.582988057285547">
        <ele>904.79998779296875</ele>
        <time>2014-05-20T11:53:29Z</time>
      </trkpt>
      <trkpt lat="44.420893639326096" lon="5.583025943487883">
        <ele>903.79998779296875</ele>
        <time>2014-05-20T11:53:30Z</time>
      </trkpt>
      <trkpt lat="44.420644026249647" lon="5.583100710064173">
        <ele>902</ele>
        <time>2014-05-20T11:53:32Z</time>
      </trkpt>
      <trkpt lat="44.420392736792564" lon="5.583174889907241">
        <ele>900</ele>
        <time>2014-05-20T11:53:34Z</time>
      </trkpt>
      <trkpt lat="44.420144381001592" lon="5.583253679797053">
        <ele>898.4000244140625</ele>
        <time>2014-05-20T11:53:36Z</time>
      </trkpt>
      <trkpt lat="44.42001773044467" lon="5.583294834941626">
        <ele>897.20001220703125</ele>
        <time>2014-05-20T11:53:37Z</time>
      </trkpt>
      <trkpt lat="44.419890576973557" lon="5.583332637324929">
        <ele>895.79998779296875</ele>
        <time>2014-05-20T11:53:38Z</time>
      </trkpt>
      <trkpt lat="44.419762501493096" lon="5.583369685336947">
        <ele>894.5999755859375</ele>
        <time>2014-05-20T11:53:39Z</time>
      </trkpt>
      <trkpt lat="44.419634928926826" lon="5.583410589024425">
        <ele>892.5999755859375</ele>
        <time>2014-05-20T11:53:40Z</time>
      </trkpt>
      <trkpt lat="44.419506182894111" lon="5.583451827988029">
        <ele>891.5999755859375</ele>
        <time>2014-05-20T11:53:41Z</time>
      </trkpt>
      <trkpt lat="44.419376347213984" lon="5.583490468561649">
        <ele>890.20001220703125</ele>
        <time>2014-05-20T11:53:42Z</time>
      </trkpt>
      <trkpt lat="44.419253133237362" lon="5.583525504916906">
        <ele>889</ele>
        <time>2014-05-20T11:53:43Z</time>
      </trkpt>
      <trkpt lat="44.418951971456409" lon="5.583615945652127">
        <ele>888</ele>
        <time>2014-05-20T11:53:46Z</time>
      </trkpt>
      <trkpt lat="44.418669166043401" lon="5.583674954250455">
        <ele>887.20001220703125</ele>
        <time>2014-05-20T11:53:50Z</time>
      </trkpt>
      <trkpt lat="44.418602278456092" lon="5.58362583629787">
        <ele>886.79998779296875</ele>
        <time>2014-05-20T11:53:51Z</time>
      </trkpt>
      <trkpt lat="44.418549053370953" lon="5.583542184904218">
        <ele>886.20001220703125</ele>
        <time>2014-05-20T11:53:52Z</time>
      </trkpt>
      <trkpt lat="44.418522985652089" lon="5.583435650914908">
        <ele>885.5999755859375</ele>
        <time>2014-05-20T11:53:53Z</time>
      </trkpt>
      <trkpt lat="44.418517872691154" lon="5.583318723365665">
        <ele>885.20001220703125</ele>
        <time>2014-05-20T11:53:54Z</time>
      </trkpt>
      <trkpt lat="44.418512508273125" lon="5.583205902948976">
        <ele>884.79998779296875</ele>
        <time>2014-05-20T11:53:55Z</time>
      </trkpt>
      <trkpt lat="44.418501695618033" lon="5.583116468042135">
        <ele>884.5999755859375</ele>
        <time>2014-05-20T11:53:56Z</time>
      </trkpt>
      <trkpt lat="44.418466910719872" lon="5.583041701465845">
        <ele>884.4000244140625</ele>
        <time>2014-05-20T11:53:57Z</time>
      </trkpt>
      <trkpt lat="44.418412428349257" lon="5.583004737272859">
        <ele>884.20001220703125</ele>
        <time>2014-05-20T11:53:58Z</time>
      </trkpt>
      <trkpt lat="44.418282341212034" lon="5.583058129996061">
        <ele>882.5999755859375</ele>
        <time>2014-05-20T11:54:00Z</time>
      </trkpt>
      <trkpt lat="44.418223416432738" lon="5.583121664822102">
        <ele>881.4000244140625</ele>
        <time>2014-05-20T11:54:01Z</time>
      </trkpt>
      <trkpt lat="44.41816683858633" lon="5.583187462761998">
        <ele>880.20001220703125</ele>
        <time>2014-05-20T11:54:02Z</time>
      </trkpt>
      <trkpt lat="44.418106907978654" lon="5.583255775272846">
        <ele>879.20001220703125</ele>
        <time>2014-05-20T11:54:03Z</time>
      </trkpt>
      <trkpt lat="44.418048234656453" lon="5.583332553505898">
        <ele>877.5999755859375</ele>
        <time>2014-05-20T11:54:04Z</time>
      </trkpt>
      <trkpt lat="44.417925691232085" lon="5.583496587350965">
        <ele>876</ele>
        <time>2014-05-20T11:54:06Z</time>
      </trkpt>
      <trkpt lat="44.417809015139937" lon="5.58368006721139">
        <ele>874.5999755859375</ele>
        <time>2014-05-20T11:54:08Z</time>
      </trkpt>
      <trkpt lat="44.417750174179673" lon="5.583780314773321">
        <ele>873.5999755859375</ele>
        <time>2014-05-20T11:54:09Z</time>
      </trkpt>
      <trkpt lat="44.417689489200711" lon="5.583879053592682">
        <ele>872.5999755859375</ele>
        <time>2014-05-20T11:54:10Z</time>
      </trkpt>
      <trkpt lat="44.417625954374671" lon="5.58397963643074">
        <ele>871.4000244140625</ele>
        <time>2014-05-20T11:54:11Z</time>
      </trkpt>
      <trkpt lat="44.417556719854474" lon="5.584080554544926">
        <ele>870.4000244140625</ele>
        <time>2014-05-20T11:54:12Z</time>
      </trkpt>
      <trkpt lat="44.417481869459152" lon="5.584181975573301">
        <ele>869.20001220703125</ele>
        <time>2014-05-20T11:54:13Z</time>
      </trkpt>
      <trkpt lat="44.417394949123263" lon="5.584272081032395">
        <ele>868.20001220703125</ele>
        <time>2014-05-20T11:54:14Z</time>
      </trkpt>
      <trkpt lat="44.417295958846807" lon="5.584345506504178">
        <ele>866.79998779296875</ele>
        <time>2014-05-20T11:54:15Z</time>
      </trkpt>
      <trkpt lat="44.417094709351659" lon="5.584457656368613">
        <ele>866</ele>
        <time>2014-05-20T11:54:17Z</time>
      </trkpt>
      <trkpt lat="44.416993372142315" lon="5.584515407681465">
        <ele>865.79998779296875</ele>
        <time>2014-05-20T11:54:18Z</time>
      </trkpt>
      <trkpt lat="44.416789188981056" lon="5.584627725183964">
        <ele>864.4000244140625</ele>
        <time>2014-05-20T11:54:20Z</time>
      </trkpt>
      <trkpt lat="44.416584754362702" lon="5.584740210324526">
        <ele>863.20001220703125</ele>
        <time>2014-05-20T11:54:22Z</time>
      </trkpt>
      <trkpt lat="44.416384343057871" lon="5.584845989942551">
        <ele>862</ele>
        <time>2014-05-20T11:54:24Z</time>
      </trkpt>
      <trkpt lat="44.416287951171398" lon="5.58489678427577">
        <ele>861.5999755859375</ele>
        <time>2014-05-20T11:54:25Z</time>
      </trkpt>
      <trkpt lat="44.415955357253551" lon="5.585087137296796">
        <ele>862.20001220703125</ele>
        <time>2014-05-20T11:54:29Z</time>
      </trkpt>
      <trkpt lat="44.415769195184112" lon="5.585189312696457">
        <ele>862.5999755859375</ele>
        <time>2014-05-20T11:54:32Z</time>
      </trkpt>
      <trkpt lat="44.415723765268922" lon="5.585221331566572">
        <ele>862.5999755859375</ele>
        <time>2014-05-20T11:54:33Z</time>
      </trkpt>
      <trkpt lat="44.415691578760743" lon="5.5852613132447">
        <ele>862.5999755859375</ele>
        <time>2014-05-20T11:54:34Z</time>
      </trkpt>
      <trkpt lat="44.415662074461579" lon="5.585384862497449">
        <ele>862.20001220703125</ele>
        <time>2014-05-20T11:54:36Z</time>
      </trkpt>
      <trkpt lat="44.415697194635868" lon="5.585638331249356">
        <ele>861.20001220703125</ele>
        <time>2014-05-20T11:54:40Z</time>
      </trkpt>
      <trkpt lat="44.415775062516332" lon="5.586182232946158">
        <ele>860.79998779296875</ele>
        <time>2014-05-20T11:54:48Z</time>
      </trkpt>
      <trkpt lat="44.415787803009152" lon="5.586258172988892">
        <ele>860.4000244140625</ele>
        <time>2014-05-20T11:54:49Z</time>
      </trkpt>
      <trkpt lat="44.415837591513991" lon="5.586575763300061">
        <ele>859.4000244140625</ele>
        <time>2014-05-20T11:54:53Z</time>
      </trkpt>
      <trkpt lat="44.415869694203138" lon="5.586834512650967">
        <ele>858.79998779296875</ele>
        <time>2014-05-20T11:54:56Z</time>
      </trkpt>
      <trkpt lat="44.415910849347711" lon="5.587104493752122">
        <ele>858.4000244140625</ele>
        <time>2014-05-20T11:54:59Z</time>
      </trkpt>
      <trkpt lat="44.415968852117658" lon="5.5874855350703">
        <ele>857</ele>
        <time>2014-05-20T11:55:03Z</time>
      </trkpt>
      <trkpt lat="44.415981508791447" lon="5.587582178413868">
        <ele>856.5999755859375</ele>
        <time>2014-05-20T11:55:04Z</time>
      </trkpt>
      <trkpt lat="44.416020233184099" lon="5.587872192263603">
        <ele>855.79998779296875</ele>
        <time>2014-05-20T11:55:07Z</time>
      </trkpt>
      <trkpt lat="44.41611704416573" lon="5.588500835001469">
        <ele>854.5999755859375</ele>
        <time>2014-05-20T11:55:14Z</time>
      </trkpt>
      <trkpt lat="44.41620790399611" lon="5.589053118601441">
        <ele>854.4000244140625</ele>
        <time>2014-05-20T11:55:21Z</time>
      </trkpt>
      <trkpt lat="44.416263056918979" lon="5.589502304792404">
        <ele>855.4000244140625</ele>
        <time>2014-05-20T11:55:28Z</time>
      </trkpt>
      <trkpt lat="44.416275294497609" lon="5.589562738314271">
        <ele>855.5999755859375</ele>
        <time>2014-05-20T11:55:29Z</time>
      </trkpt>
      <trkpt lat="44.416297674179077" lon="5.589763652533293">
        <ele>856.79998779296875</ele>
        <time>2014-05-20T11:55:34Z</time>
      </trkpt>
      <trkpt lat="44.41632223315537" lon="5.589827857911587">
        <ele>856.79998779296875</ele>
        <time>2014-05-20T11:57:35Z</time>
      </trkpt>
      <trkpt lat="44.416330195963383" lon="5.589853338897228">
        <ele>856.5999755859375</ele>
        <time>2014-05-20T11:57:36Z</time>
      </trkpt>
      <trkpt lat="44.416354084387422" lon="5.590065401047468">
        <ele>856.20001220703125</ele>
        <time>2014-05-20T11:57:42Z</time>
      </trkpt>
      <trkpt lat="44.416390964761376" lon="5.590371340513229">
        <ele>856.20001220703125</ele>
        <time>2014-05-20T11:57:49Z</time>
      </trkpt>
      <trkpt lat="44.416403286159039" lon="5.590492878109217">
        <ele>855.5999755859375</ele>
        <time>2014-05-20T11:57:51Z</time>
      </trkpt>
      <trkpt lat="44.416435305029154" lon="5.590753303840756">
        <ele>855</ele>
        <time>2014-05-20T11:57:55Z</time>
      </trkpt>
      <trkpt lat="44.416467072442174" lon="5.590955810621381">
        <ele>854</ele>
        <time>2014-05-20T11:57:58Z</time>
      </trkpt>
      <trkpt lat="44.416526416316628" lon="5.591370211914182">
        <ele>854.5999755859375</ele>
        <time>2014-05-20T11:58:04Z</time>
      </trkpt>
      <trkpt lat="44.416616354137659" lon="5.591980582103133">
        <ele>854.20001220703125</ele>
        <time>2014-05-20T11:58:12Z</time>
      </trkpt>
      <trkpt lat="44.416656838729978" lon="5.592241175472736">
        <ele>853</ele>
        <time>2014-05-20T11:58:15Z</time>
      </trkpt>
      <trkpt lat="44.416736718267202" lon="5.592707712203264">
        <ele>852.4000244140625</ele>
        <time>2014-05-20T11:58:20Z</time>
      </trkpt>
      <trkpt lat="44.416773514822125" lon="5.592911140993238">
        <ele>851.5999755859375</ele>
        <time>2014-05-20T11:58:22Z</time>
      </trkpt>
      <trkpt lat="44.41682992503047" lon="5.59323912486434">
        <ele>850.20001220703125</ele>
        <time>2014-05-20T11:58:25Z</time>
      </trkpt>
      <trkpt lat="44.416879629716277" lon="5.593462083488703">
        <ele>848.5999755859375</ele>
        <time>2014-05-20T11:58:27Z</time>
      </trkpt>
      <trkpt lat="44.416903099045157" lon="5.593575993552804">
        <ele>847</ele>
        <time>2014-05-20T11:58:28Z</time>
      </trkpt>
      <trkpt lat="44.417030336335301" lon="5.594198266044259">
        <ele>845.79998779296875</ele>
        <time>2014-05-20T11:58:33Z</time>
      </trkpt>
      <trkpt lat="44.417057996615767" lon="5.594333885237575">
        <ele>845.20001220703125</ele>
        <time>2014-05-20T11:58:34Z</time>
      </trkpt>
      <trkpt lat="44.417086159810424" lon="5.594472270458937">
        <ele>844</ele>
        <time>2014-05-20T11:58:35Z</time>
      </trkpt>
      <trkpt lat="44.417110551148653" lon="5.594615517184138">
        <ele>842.5999755859375</ele>
        <time>2014-05-20T11:58:36Z</time>
      </trkpt>
      <trkpt lat="44.417147850617766" lon="5.5949024297297">
        <ele>841</ele>
        <time>2014-05-20T11:58:38Z</time>
      </trkpt>
      <trkpt lat="44.417172744870186" lon="5.595188336446881">
        <ele>840.20001220703125</ele>
        <time>2014-05-20T11:58:40Z</time>
      </trkpt>
      <trkpt lat="44.417182300239801" lon="5.595326637849212">
        <ele>839.79998779296875</ele>
        <time>2014-05-20T11:58:41Z</time>
      </trkpt>
      <trkpt lat="44.417201997712255" lon="5.596128785982728">
        <ele>839.79998779296875</ele>
        <time>2014-05-20T11:58:47Z</time>
      </trkpt>
      <trkpt lat="44.417185401543975" lon="5.596511252224445">
        <ele>838.5999755859375</ele>
        <time>2014-05-20T11:58:50Z</time>
      </trkpt>
      <trkpt lat="44.417140139266849" lon="5.597123634070158">
        <ele>838.79998779296875</ele>
        <time>2014-05-20T11:58:55Z</time>
      </trkpt>
      <trkpt lat="44.417093116790056" lon="5.597754959017038">
        <ele>837.5999755859375</ele>
        <time>2014-05-20T11:59:00Z</time>
      </trkpt>
      <trkpt lat="44.417056236416101" lon="5.598138263449073">
        <ele>836.20001220703125</ele>
        <time>2014-05-20T11:59:03Z</time>
      </trkpt>
      <trkpt lat="44.417046345770359" lon="5.598266171291471">
        <ele>835.20001220703125</ele>
        <time>2014-05-20T11:59:04Z</time>
      </trkpt>
      <trkpt lat="44.416957329958677" lon="5.599013417959213">
        <ele>834.20001220703125</ele>
        <time>2014-05-20T11:59:10Z</time>
      </trkpt>
      <trkpt lat="44.416938805952668" lon="5.599135542288423">
        <ele>833.79998779296875</ele>
        <time>2014-05-20T11:59:11Z</time>
      </trkpt>
      <trkpt lat="44.41691692918539" lon="5.599254062399268">
        <ele>833.5999755859375</ele>
        <time>2014-05-20T11:59:12Z</time>
      </trkpt>
      <trkpt lat="44.416838055476546" lon="5.599726215004921">
        <ele>832.20001220703125</ele>
        <time>2014-05-20T11:59:16Z</time>
      </trkpt>
      <trkpt lat="44.416763288900256" lon="5.600188560783863">
        <ele>831.20001220703125</ele>
        <time>2014-05-20T11:59:20Z</time>
      </trkpt>
      <trkpt lat="44.416745016351342" lon="5.600299285724759">
        <ele>830.4000244140625</ele>
        <time>2014-05-20T11:59:21Z</time>
      </trkpt>
      <trkpt lat="44.416668070480227" lon="5.60073321685195">
        <ele>830</ele>
        <time>2014-05-20T11:59:25Z</time>
      </trkpt>
      <trkpt lat="44.41659732721746" lon="5.601166058331728">
        <ele>829.79998779296875</ele>
        <time>2014-05-20T11:59:29Z</time>
      </trkpt>
      <trkpt lat="44.416464390233159" lon="5.601930236443877">
        <ele>829.20001220703125</ele>
        <time>2014-05-20T11:59:36Z</time>
      </trkpt>
      <trkpt lat="44.416445698589087" lon="5.602038446813822">
        <ele>828.79998779296875</ele>
        <time>2014-05-20T11:59:37Z</time>
      </trkpt>
      <trkpt lat="44.416429772973061" lon="5.602147160097957">
        <ele>828.4000244140625</ele>
        <time>2014-05-20T11:59:38Z</time>
      </trkpt>
      <trkpt lat="44.416317204013467" lon="5.602782675996423">
        <ele>827.79998779296875</ele>
        <time>2014-05-20T11:59:44Z</time>
      </trkpt>
      <trkpt lat="44.416282838210464" lon="5.602989792823792">
        <ele>827.4000244140625</ele>
        <time>2014-05-20T11:59:46Z</time>
      </trkpt>
      <trkpt lat="44.416177393868566" lon="5.603616759181023">
        <ele>826.4000244140625</ele>
        <time>2014-05-20T11:59:52Z</time>
      </trkpt>
      <trkpt lat="44.416140345856547" lon="5.603818176314235">
        <ele>825.4000244140625</ele>
        <time>2014-05-20T11:59:54Z</time>
      </trkpt>
      <trkpt lat="44.416123330593109" lon="5.603913897648454">
        <ele>825</ele>
        <time>2014-05-20T11:59:55Z</time>
      </trkpt>
      <trkpt lat="44.415993075817823" lon="5.604678243398666">
        <ele>824.79998779296875</ele>
        <time>2014-05-20T12:00:03Z</time>
      </trkpt>
      <trkpt lat="44.415912106633186" lon="5.605148551985622">
        <ele>824.20001220703125</ele>
        <time>2014-05-20T12:00:08Z</time>
      </trkpt>
      <trkpt lat="44.415867011994123" lon="5.605424316599965">
        <ele>823.4000244140625</ele>
        <time>2014-05-20T12:00:11Z</time>
      </trkpt>
      <trkpt lat="44.415854774415493" lon="5.605518026277423">
        <ele>823.5999755859375</ele>
        <time>2014-05-20T12:00:12Z</time>
      </trkpt>
      <trkpt lat="44.415776403620839" lon="5.606285976245999">
        <ele>823.4000244140625</ele>
        <time>2014-05-20T12:00:20Z</time>
      </trkpt>
      <trkpt lat="44.415760142728686" lon="5.606593675911427">
        <ele>823.20001220703125</ele>
        <time>2014-05-20T12:00:23Z</time>
      </trkpt>
      <trkpt lat="44.415759053081274" lon="5.606912272050977">
        <ele>821.79998779296875</ele>
        <time>2014-05-20T12:00:26Z</time>
      </trkpt>
      <trkpt lat="44.415757544338703" lon="5.607021739706397">
        <ele>821.20001220703125</ele>
        <time>2014-05-20T12:00:27Z</time>
      </trkpt>
      <trkpt lat="44.415757460519671" lon="5.607132883742452">
        <ele>820.4000244140625</ele>
        <time>2014-05-20T12:00:28Z</time>
      </trkpt>
      <trkpt lat="44.415752179920673" lon="5.60790485702455">
        <ele>819.20001220703125</ele>
        <time>2014-05-20T12:00:35Z</time>
      </trkpt>
      <trkpt lat="44.415741367265582" lon="5.608539786189795">
        <ele>817.5999755859375</ele>
        <time>2014-05-20T12:00:41Z</time>
      </trkpt>
      <trkpt lat="44.415741534903646" lon="5.608648080378771">
        <ele>817.20001220703125</ele>
        <time>2014-05-20T12:00:42Z</time>
      </trkpt>
      <trkpt lat="44.415739523246884" lon="5.608756374567747">
        <ele>816.5999755859375</ele>
        <time>2014-05-20T12:00:43Z</time>
      </trkpt>
      <trkpt lat="44.415734326466918" lon="5.609081173315644">
        <ele>815.5999755859375</ele>
        <time>2014-05-20T12:00:46Z</time>
      </trkpt>
      <trkpt lat="44.415726447477937" lon="5.60952658765018">
        <ele>814.4000244140625</ele>
        <time>2014-05-20T12:00:50Z</time>
      </trkpt>
      <trkpt lat="44.415728962048888" lon="5.609751809388399">
        <ele>812.79998779296875</ele>
        <time>2014-05-20T12:00:52Z</time>
      </trkpt>
      <trkpt lat="44.415718652307987" lon="5.6100885104388">
        <ele>811.4000244140625</ele>
        <time>2014-05-20T12:00:55Z</time>
      </trkpt>
      <trkpt lat="44.41569778136909" lon="5.610541049391031">
        <ele>810.20001220703125</ele>
        <time>2014-05-20T12:00:59Z</time>
      </trkpt>
      <trkpt lat="44.41568847745657" lon="5.610651774331927">
        <ele>810</ele>
        <time>2014-05-20T12:01:00Z</time>
      </trkpt>
      <trkpt lat="44.415641203522682" lon="5.611099535599351">
        <ele>810.4000244140625</ele>
        <time>2014-05-20T12:01:05Z</time>
      </trkpt>
      <trkpt lat="44.415574064478278" lon="5.611261641606689">
        <ele>810.79998779296875</ele>
        <time>2014-05-20T12:01:09Z</time>
      </trkpt>
      <trkpt lat="44.415534418076277" lon="5.611254181712866">
        <ele>810.79998779296875</ele>
        <time>2014-05-20T12:04:39Z</time>
      </trkpt>
      <trkpt lat="44.415492257103324" lon="5.611295504495502">
        <ele>810.5999755859375</ele>
        <time>2014-05-20T12:04:41Z</time>
      </trkpt>
      <trkpt lat="44.415438864380121" lon="5.611325344070792">
        <ele>810.4000244140625</ele>
        <time>2014-05-20T12:04:43Z</time>
      </trkpt>
      <trkpt lat="44.41534448415041" lon="5.611398601904512">
        <ele>809.5999755859375</ele>
        <time>2014-05-20T12:04:46Z</time>
      </trkpt>
      <trkpt lat="44.415217749774456" lon="5.611463896930218">
        <ele>809</ele>
        <time>2014-05-20T12:04:49Z</time>
      </trkpt>
      <trkpt lat="44.415121525526047" lon="5.611483845859766">
        <ele>808.4000244140625</ele>
        <time>2014-05-20T12:04:51Z</time>
      </trkpt>
      <trkpt lat="44.4149184320122" lon="5.611492982134223">
        <ele>807.79998779296875</ele>
        <time>2014-05-20T12:04:55Z</time>
      </trkpt>
      <trkpt lat="44.414812149479985" lon="5.611487198621035">
        <ele>807.20001220703125</ele>
        <time>2014-05-20T12:04:57Z</time>
      </trkpt>
      <trkpt lat="44.414646606892347" lon="5.611469093710184">
        <ele>806.79998779296875</ele>
        <time>2014-05-20T12:05:00Z</time>
      </trkpt>
      <trkpt lat="44.414592711254954" lon="5.611452916637063">
        <ele>807</ele>
        <time>2014-05-20T12:05:01Z</time>
      </trkpt>
      <trkpt lat="44.414493385702372" lon="5.611380413174629">
        <ele>807.5999755859375</ele>
        <time>2014-05-20T12:05:03Z</time>
      </trkpt>
      <trkpt lat="44.414308145642281" lon="5.611092494800687">
        <ele>807.5999755859375</ele>
        <time>2014-05-20T12:05:08Z</time>
      </trkpt>
      <trkpt lat="44.414292806759477" lon="5.610781107097864">
        <ele>807.4000244140625</ele>
        <time>2014-05-20T12:05:12Z</time>
      </trkpt>
      <trkpt lat="44.414295656606555" lon="5.610703239217401">
        <ele>807.4000244140625</ele>
        <time>2014-05-20T12:05:13Z</time>
      </trkpt>
      <trkpt lat="44.414307475090027" lon="5.610554879531264">
        <ele>807.79998779296875</ele>
        <time>2014-05-20T12:05:15Z</time>
      </trkpt>
      <trkpt lat="44.414348546415567" lon="5.610268637537956">
        <ele>807.79998779296875</ele>
        <time>2014-05-20T12:05:19Z</time>
      </trkpt>
      <trkpt lat="44.41437360830605" lon="5.610077446326613">
        <ele>809</ele>
        <time>2014-05-20T12:05:22Z</time>
      </trkpt>
      <trkpt lat="44.414361622184515" lon="5.609952555969358">
        <ele>809.4000244140625</ele>
        <time>2014-05-20T12:05:24Z</time>
      </trkpt>
      <trkpt lat="44.414343601092696" lon="5.609761197119951">
        <ele>809.5999755859375</ele>
        <time>2014-05-20T12:05:27Z</time>
      </trkpt>
      <trkpt lat="44.414305714890361" lon="5.609501106664538">
        <ele>810</ele>
        <time>2014-05-20T12:05:31Z</time>
      </trkpt>
      <trkpt lat="44.414295321330428" lon="5.609433883801103">
        <ele>810.20001220703125</ele>
        <time>2014-05-20T12:05:32Z</time>
      </trkpt>
      <trkpt lat="44.414259782060981" lon="5.609237244352698">
        <ele>810.4000244140625</ele>
        <time>2014-05-20T12:05:35Z</time>
      </trkpt>
      <trkpt lat="44.414223320782185" lon="5.608972124755383">
        <ele>810.4000244140625</ele>
        <time>2014-05-20T12:05:39Z</time>
      </trkpt>
      <trkpt lat="44.41415760666132" lon="5.608572391793132">
        <ele>811.20001220703125</ele>
        <time>2014-05-20T12:05:45Z</time>
      </trkpt>
      <trkpt lat="44.414135394617915" lon="5.608446830883622">
        <ele>811.5999755859375</ele>
        <time>2014-05-20T12:05:47Z</time>
      </trkpt>
      <trkpt lat="44.414090719074011" lon="5.608206102624536">
        <ele>812</ele>
        <time>2014-05-20T12:05:51Z</time>
      </trkpt>
      <trkpt lat="44.414053419604897" lon="5.608092527836561">
        <ele>812.20001220703125</ele>
        <time>2014-05-20T12:05:53Z</time>
      </trkpt>
      <trkpt lat="44.414036320522428" lon="5.608034357428551">
        <ele>812.20001220703125</ele>
        <time>2014-05-20T12:05:54Z</time>
      </trkpt>
      <trkpt lat="44.414014276117086" lon="5.607983898371458">
        <ele>812.4000244140625</ele>
        <time>2014-05-20T12:05:55Z</time>
      </trkpt>
      <trkpt lat="44.4139738753438" lon="5.607858337461948">
        <ele>813.4000244140625</ele>
        <time>2014-05-20T12:05:58Z</time>
      </trkpt>
      <trkpt lat="44.413960548117757" lon="5.607820032164455">
        <ele>813.79998779296875</ele>
        <time>2014-05-20T12:05:59Z</time>
      </trkpt>
      <trkpt lat="44.413912435993552" lon="5.60766882263124">
        <ele>814.4000244140625</ele>
        <time>2014-05-20T12:06:03Z</time>
      </trkpt>
      <trkpt lat="44.413848984986544" lon="5.607497747987509">
        <ele>815.5999755859375</ele>
        <time>2014-05-20T12:06:08Z</time>
      </trkpt>
      <trkpt lat="44.413789641112089" lon="5.607321644201875">
        <ele>816.79998779296875</ele>
        <time>2014-05-20T12:06:14Z</time>
      </trkpt>
      <trkpt lat="44.413757957518101" lon="5.607272358611226">
        <ele>817.4000244140625</ele>
        <time>2014-05-20T12:06:16Z</time>
      </trkpt>
      <trkpt lat="44.413727363571525" lon="5.60718409717083">
        <ele>818</ele>
        <time>2014-05-20T12:06:19Z</time>
      </trkpt>
      <trkpt lat="44.413698613643646" lon="5.607129028066993">
        <ele>818</ele>
        <time>2014-05-20T12:06:21Z</time>
      </trkpt>
      <trkpt lat="44.413600545376539" lon="5.606983350589871">
        <ele>818.79998779296875</ele>
        <time>2014-05-20T12:06:27Z</time>
      </trkpt>
      <trkpt lat="44.413554947823286" lon="5.606948314234614">
        <ele>819.20001220703125</ele>
        <time>2014-05-20T12:06:29Z</time>
      </trkpt>
      <trkpt lat="44.41344472579658" lon="5.606870949268341">
        <ele>819.5999755859375</ele>
        <time>2014-05-20T12:06:34Z</time>
      </trkpt>
      <trkpt lat="44.413354117423296" lon="5.606814539059997">
        <ele>820.20001220703125</ele>
        <time>2014-05-20T12:06:38Z</time>
      </trkpt>
      <trkpt lat="44.413286307826638" lon="5.606783609837294">
        <ele>820.20001220703125</ele>
        <time>2014-05-20T12:06:41Z</time>
      </trkpt>
      <trkpt lat="44.413118837401271" lon="5.606704568490386">
        <ele>821.4000244140625</ele>
        <time>2014-05-20T12:06:48Z</time>
      </trkpt>
      <trkpt lat="44.413090338930488" lon="5.606701970100403">
        <ele>821.5999755859375</ele>
        <time>2014-05-20T12:06:49Z</time>
      </trkpt>
      <trkpt lat="44.412904009222984" lon="5.606681853532791">
        <ele>822.5999755859375</ele>
        <time>2014-05-20T12:06:56Z</time>
      </trkpt>
      <trkpt lat="44.41288179717958" lon="5.606680680066347">
        <ele>822.79998779296875</ele>
        <time>2014-05-20T12:06:57Z</time>
      </trkpt>
      <trkpt lat="44.412744669243693" lon="5.606692163273692">
        <ele>823.5999755859375</ele>
        <time>2014-05-20T12:07:03Z</time>
      </trkpt>
      <trkpt lat="44.412677865475416" lon="5.606680428609252">
        <ele>824</ele>
        <time>2014-05-20T12:07:06Z</time>
      </trkpt>
      <trkpt lat="44.412587424740195" lon="5.606659222394228">
        <ele>824.79998779296875</ele>
        <time>2014-05-20T12:07:10Z</time>
      </trkpt>
      <trkpt lat="44.412472760304809" lon="5.606659641489387">
        <ele>825.4000244140625</ele>
        <time>2014-05-20T12:07:15Z</time>
      </trkpt>
      <trkpt lat="44.412427498027682" lon="5.606644554063678">
        <ele>825.79998779296875</ele>
        <time>2014-05-20T12:07:17Z</time>
      </trkpt>
      <trkpt lat="44.412269666790962" lon="5.606625024229288">
        <ele>826.79998779296875</ele>
        <time>2014-05-20T12:07:24Z</time>
      </trkpt>
      <trkpt lat="44.412134550511837" lon="5.606592250987887">
        <ele>827.79998779296875</ele>
        <time>2014-05-20T12:07:31Z</time>
      </trkpt>
      <trkpt lat="44.412116026505828" lon="5.606588143855333">
        <ele>828.20001220703125</ele>
        <time>2014-05-20T12:07:32Z</time>
      </trkpt>
      <trkpt lat="44.412003792822361" lon="5.606597531586886">
        <ele>829</ele>
        <time>2014-05-20T12:07:38Z</time>
      </trkpt>
      <trkpt lat="44.41198174841702" lon="5.606588814407587">
        <ele>829.20001220703125</ele>
        <time>2014-05-20T12:07:39Z</time>
      </trkpt>
      <trkpt lat="44.411887368187308" lon="5.6065743137151">
        <ele>830.20001220703125</ele>
        <time>2014-05-20T12:07:43Z</time>
      </trkpt>
      <trkpt lat="44.411816541105509" lon="5.606561070308089">
        <ele>830.4000244140625</ele>
        <time>2014-05-20T12:07:46Z</time>
      </trkpt>
      <trkpt lat="44.411671282723546" lon="5.606523938477039">
        <ele>831.20001220703125</ele>
        <time>2014-05-20T12:07:52Z</time>
      </trkpt>
      <trkpt lat="44.411571705713868" lon="5.606520585715771">
        <ele>831.5999755859375</ele>
        <time>2014-05-20T12:07:56Z</time>
      </trkpt>
      <trkpt lat="44.411413203924894" lon="5.606469120830298">
        <ele>832.4000244140625</ele>
        <time>2014-05-20T12:08:02Z</time>
      </trkpt>
      <trkpt lat="44.411196699365973" lon="5.606377925723791">
        <ele>833.20001220703125</ele>
        <time>2014-05-20T12:08:10Z</time>
      </trkpt>
      <trkpt lat="44.41107390448451" lon="5.606343559920788">
        <ele>833.4000244140625</ele>
        <time>2014-05-20T12:08:14Z</time>
      </trkpt>
      <trkpt lat="44.410986145958304" lon="5.606302488595247">
        <ele>833.4000244140625</ele>
        <time>2014-05-20T12:08:17Z</time>
      </trkpt>
      <trkpt lat="44.410727312788367" lon="5.606195703148842">
        <ele>834</ele>
        <time>2014-05-20T12:08:25Z</time>
      </trkpt>
      <trkpt lat="44.410615749657154" lon="5.606248257681727">
        <ele>834.5999755859375</ele>
        <time>2014-05-20T12:08:29Z</time>
      </trkpt>
      <trkpt lat="44.410598399117589" lon="5.606277091428638">
        <ele>834.79998779296875</ele>
        <time>2014-05-20T12:08:30Z</time>
      </trkpt>
      <trkpt lat="44.410570487380028" lon="5.606384882703424">
        <ele>835.79998779296875</ele>
        <time>2014-05-20T12:08:33Z</time>
      </trkpt>
      <trkpt lat="44.410571744665504" lon="5.60642528347671">
        <ele>836</ele>
        <time>2014-05-20T12:08:34Z</time>
      </trkpt>
      <trkpt lat="44.41065170802176" lon="5.606595352292061">
        <ele>836.79998779296875</ele>
        <time>2014-05-20T12:08:39Z</time>
      </trkpt>
      <trkpt lat="44.410701496526599" lon="5.606643799692392">
        <ele>837.20001220703125</ele>
        <time>2014-05-20T12:08:41Z</time>
      </trkpt>
      <trkpt lat="44.410848850384355" lon="5.606681853532791">
        <ele>837.5999755859375</ele>
        <time>2014-05-20T12:08:46Z</time>
      </trkpt>
      <trkpt lat="44.411034341901541" lon="5.606693588197231">
        <ele>837.5999755859375</ele>
        <time>2014-05-20T12:08:52Z</time>
      </trkpt>
      <trkpt lat="44.411063846200705" lon="5.606699204072356">
        <ele>837.79998779296875</ele>
        <time>2014-05-20T12:08:53Z</time>
      </trkpt>
      <trkpt lat="44.411272639408708" lon="5.606762655079365">
        <ele>838.79998779296875</ele>
        <time>2014-05-20T12:09:00Z</time>
      </trkpt>
      <trkpt lat="44.411539100110531" lon="5.606877822428942">
        <ele>840</ele>
        <time>2014-05-20T12:09:09Z</time>
      </trkpt>
      <trkpt lat="44.411703636869788" lon="5.606963401660323">
        <ele>841.20001220703125</ele>
        <time>2014-05-20T12:09:15Z</time>
      </trkpt>
      <trkpt lat="44.411773290485144" lon="5.607033055275679">
        <ele>841.4000244140625</ele>
        <time>2014-05-20T12:09:18Z</time>
      </trkpt>
      <trkpt lat="44.411873118951917" lon="5.607133051380515">
        <ele>842.20001220703125</ele>
        <time>2014-05-20T12:09:23Z</time>
      </trkpt>
      <trkpt lat="44.411946209147573" lon="5.607284177094698">
        <ele>843.20001220703125</ele>
        <time>2014-05-20T12:09:29Z</time>
      </trkpt>
      <trkpt lat="44.411956267431378" lon="5.607311921194196">
        <ele>843.4000244140625</ele>
        <time>2014-05-20T12:09:30Z</time>
      </trkpt>
      <trkpt lat="44.411952244117856" lon="5.607500597834587">
        <ele>844.4000244140625</ele>
        <time>2014-05-20T12:09:36Z</time>
      </trkpt>
      <trkpt lat="44.411947214975953" lon="5.607531191781163">
        <ele>844.5999755859375</ele>
        <time>2014-05-20T12:09:37Z</time>
      </trkpt>
      <trkpt lat="44.411921398714185" lon="5.607652394101024">
        <ele>845.79998779296875</ele>
        <time>2014-05-20T12:09:41Z</time>
      </trkpt>
      <trkpt lat="44.411891559138894" lon="5.607774518430233">
        <ele>846.4000244140625</ele>
        <time>2014-05-20T12:09:45Z</time>
      </trkpt>
      <trkpt lat="44.411871107295156" lon="5.607852889224887">
        <ele>847.20001220703125</ele>
        <time>2014-05-20T12:09:48Z</time>
      </trkpt>
      <trkpt lat="44.411835819482803" lon="5.607949700206518">
        <ele>848</ele>
        <time>2014-05-20T12:09:52Z</time>
      </trkpt>
      <trkpt lat="44.411816205829382" lon="5.60799814760685">
        <ele>848.20001220703125</ele>
        <time>2014-05-20T12:09:54Z</time>
      </trkpt>
      <trkpt lat="44.411763986572623" lon="5.608109124004841">
        <ele>849.20001220703125</ele>
        <time>2014-05-20T12:09:59Z</time>
      </trkpt>
      <trkpt lat="44.411748563870788" lon="5.608123540878296">
        <ele>849.20001220703125</ele>
        <time>2014-05-20T12:10:00Z</time>
      </trkpt>
      <trkpt lat="44.411678574979305" lon="5.608246922492981">
        <ele>850</ele>
        <time>2014-05-20T12:10:06Z</time>
      </trkpt>
      <trkpt lat="44.411648735404015" lon="5.608281875029206">
        <ele>850.4000244140625</ele>
        <time>2014-05-20T12:10:08Z</time>
      </trkpt>
      <trkpt lat="44.411603724583983" lon="5.608343901112676">
        <ele>851</ele>
        <time>2014-05-20T12:10:12Z</time>
      </trkpt>
      <trkpt lat="44.411593750119209" lon="5.608360162004829">
        <ele>851.20001220703125</ele>
        <time>2014-05-20T12:10:13Z</time>
      </trkpt>
      <trkpt lat="44.411587547510862" lon="5.608382122591138">
        <ele>851.4000244140625</ele>
        <time>2014-05-20T12:10:14Z</time>
      </trkpt>
      <trkpt lat="44.411564581096172" lon="5.608447836712003">
        <ele>851.79998779296875</ele>
        <time>2014-05-20T12:10:17Z</time>
      </trkpt>
      <trkpt lat="44.41152099519968" lon="5.608541546389461">
        <ele>852.5999755859375</ele>
        <time>2014-05-20T12:10:22Z</time>
      </trkpt>
      <trkpt lat="44.411511775106192" lon="5.60855814255774">
        <ele>852.79998779296875</ele>
        <time>2014-05-20T12:10:23Z</time>
      </trkpt>
      <trkpt lat="44.411463746801019" lon="5.60868663713336">
        <ele>853.79998779296875</ele>
        <time>2014-05-20T12:10:29Z</time>
      </trkpt>
      <trkpt lat="44.411455364897847" lon="5.608705244958401">
        <ele>853.79998779296875</ele>
        <time>2014-05-20T12:10:30Z</time>
      </trkpt>
      <trkpt lat="44.411408761516213" lon="5.608813371509314">
        <ele>854.79998779296875</ele>
        <time>2014-05-20T12:10:36Z</time>
      </trkpt>
      <trkpt lat="44.4113748986274" lon="5.60894513502717">
        <ele>855.79998779296875</ele>
        <time>2014-05-20T12:10:42Z</time>
      </trkpt>
      <trkpt lat="44.411363331601024" lon="5.608979249373078">
        <ele>856</ele>
        <time>2014-05-20T12:10:44Z</time>
      </trkpt>
      <trkpt lat="44.411330223083496" lon="5.609091315418482">
        <ele>857</ele>
        <time>2014-05-20T12:10:49Z</time>
      </trkpt>
      <trkpt lat="44.41131480038166" lon="5.609135990962386">
        <ele>857.20001220703125</ele>
        <time>2014-05-20T12:10:51Z</time>
      </trkpt>
      <trkpt lat="44.411278087645769" lon="5.609230203554034">
        <ele>858</ele>
        <time>2014-05-20T12:10:56Z</time>
      </trkpt>
      <trkpt lat="44.411271968856454" lon="5.609249146655202">
        <ele>858.4000244140625</ele>
        <time>2014-05-20T12:10:57Z</time>
      </trkpt>
      <trkpt lat="44.411247074604034" lon="5.609388537704945">
        <ele>859.20001220703125</ele>
        <time>2014-05-20T12:11:03Z</time>
      </trkpt>
      <trkpt lat="44.411244560033083" lon="5.609410498291254">
        <ele>859.4000244140625</ele>
        <time>2014-05-20T12:11:04Z</time>
      </trkpt>
      <trkpt lat="44.4112160615623" lon="5.609576543793082">
        <ele>860.4000244140625</ele>
        <time>2014-05-20T12:11:11Z</time>
      </trkpt>
      <trkpt lat="44.411201477050781" lon="5.609742505475879">
        <ele>861.5999755859375</ele>
        <time>2014-05-20T12:11:17Z</time>
      </trkpt>
      <trkpt lat="44.411203907802701" lon="5.60977041721344">
        <ele>861.5999755859375</ele>
        <time>2014-05-20T12:11:18Z</time>
      </trkpt>
      <trkpt lat="44.411207009106874" lon="5.609796065837145">
        <ele>861.79998779296875</ele>
        <time>2014-05-20T12:11:19Z</time>
      </trkpt>
      <trkpt lat="44.411196615546942" lon="5.609972421079874">
        <ele>862.5999755859375</ele>
        <time>2014-05-20T12:11:25Z</time>
      </trkpt>
      <trkpt lat="44.411193765699863" lon="5.610000500455499">
        <ele>862.79998779296875</ele>
        <time>2014-05-20T12:11:26Z</time>
      </trkpt>
      <trkpt lat="44.411180857568979" lon="5.610214658081532">
        <ele>863.79998779296875</ele>
        <time>2014-05-20T12:11:34Z</time>
      </trkpt>
      <trkpt lat="44.411169625818729" lon="5.610394030809403">
        <ele>865</ele>
        <time>2014-05-20T12:11:41Z</time>
      </trkpt>
      <trkpt lat="44.411165937781334" lon="5.610419511795044">
        <ele>865.20001220703125</ele>
        <time>2014-05-20T12:11:42Z</time>
      </trkpt>
      <trkpt lat="44.411149509251118" lon="5.610563764348626">
        <ele>866</ele>
        <time>2014-05-20T12:11:47Z</time>
      </trkpt>
      <trkpt lat="44.411145569756627" lon="5.610640961676836">
        <ele>866.5999755859375</ele>
        <time>2014-05-20T12:11:50Z</time>
      </trkpt>
      <trkpt lat="44.411144061014056" lon="5.610691839829087">
        <ele>867.20001220703125</ele>
        <time>2014-05-20T12:11:52Z</time>
      </trkpt>
      <trkpt lat="44.411117406561971" lon="5.610824525356293">
        <ele>867.5999755859375</ele>
        <time>2014-05-20T12:11:57Z</time>
      </trkpt>
      <trkpt lat="44.41109636798501" lon="5.610902477055788">
        <ele>868.20001220703125</ele>
        <time>2014-05-20T12:12:00Z</time>
      </trkpt>
      <trkpt lat="44.411087147891521" lon="5.611015716567636">
        <ele>869</ele>
        <time>2014-05-20T12:12:04Z</time>
      </trkpt>
      <trkpt lat="44.411078933626413" lon="5.611042873933911">
        <ele>869.5999755859375</ele>
        <time>2014-05-20T12:12:05Z</time>
      </trkpt>
      <trkpt lat="44.411023780703545" lon="5.611189221963286">
        <ele>870.4000244140625</ele>
        <time>2014-05-20T12:12:11Z</time>
      </trkpt>
      <trkpt lat="44.411016823723912" lon="5.611217217519879">
        <ele>870.5999755859375</ele>
        <time>2014-05-20T12:12:12Z</time>
      </trkpt>
      <trkpt lat="44.410934848710895" lon="5.611418299376965">
        <ele>871.79998779296875</ele>
        <time>2014-05-20T12:12:20Z</time>
      </trkpt>
      <trkpt lat="44.410812640562654" lon="5.611576130613685">
        <ele>872.79998779296875</ele>
        <time>2014-05-20T12:12:28Z</time>
      </trkpt>
      <trkpt lat="44.410795960575342" lon="5.611595157533884">
        <ele>872.79998779296875</ele>
        <time>2014-05-20T12:12:29Z</time>
      </trkpt>
      <trkpt lat="44.410718344151974" lon="5.611663553863764">
        <ele>874</ele>
        <time>2014-05-20T12:12:33Z</time>
      </trkpt>
      <trkpt lat="44.410613235086203" lon="5.611747205257416">
        <ele>874.20001220703125</ele>
        <time>2014-05-20T12:12:38Z</time>
      </trkpt>
      <trkpt lat="44.410550203174353" lon="5.611793221905828">
        <ele>875.20001220703125</ele>
        <time>2014-05-20T12:12:41Z</time>
      </trkpt>
      <trkpt lat="44.410505192354321" lon="5.611801519989967">
        <ele>875.4000244140625</ele>
        <time>2014-05-20T12:12:43Z</time>
      </trkpt>
      <trkpt lat="44.410363454371691" lon="5.611828174442053">
        <ele>876.20001220703125</ele>
        <time>2014-05-20T12:12:49Z</time>
      </trkpt>
      <trkpt lat="44.410314755514264" lon="5.611838568001986">
        <ele>876.4000244140625</ele>
        <time>2014-05-20T12:12:51Z</time>
      </trkpt>
      <trkpt lat="44.410199169069529" lon="5.611851224675775">
        <ele>877.4000244140625</ele>
        <time>2014-05-20T12:12:56Z</time>
      </trkpt>
      <trkpt lat="44.410152565687895" lon="5.611854325979948">
        <ele>877.5999755859375</ele>
        <time>2014-05-20T12:12:58Z</time>
      </trkpt>
      <trkpt lat="44.410039829090238" lon="5.611862121149898">
        <ele>878.4000244140625</ele>
        <time>2014-05-20T12:13:03Z</time>
      </trkpt>
      <trkpt lat="44.410019293427467" lon="5.611859019845724">
        <ele>878.5999755859375</ele>
        <time>2014-05-20T12:13:04Z</time>
      </trkpt>
      <trkpt lat="44.409849140793085" lon="5.611874694004655">
        <ele>879.5999755859375</ele>
        <time>2014-05-20T12:13:12Z</time>
      </trkpt>
      <trkpt lat="44.409741433337331" lon="5.611876202747226">
        <ele>880.79998779296875</ele>
        <time>2014-05-20T12:13:17Z</time>
      </trkpt>
      <trkpt lat="44.409669265151024" lon="5.611870503053069">
        <ele>881</ele>
        <time>2014-05-20T12:13:20Z</time>
      </trkpt>
      <trkpt lat="44.409564323723316" lon="5.611889949068427">
        <ele>881.79998779296875</ele>
        <time>2014-05-20T12:13:25Z</time>
      </trkpt>
      <trkpt lat="44.409502800554037" lon="5.611897744238377">
        <ele>882</ele>
        <time>2014-05-20T12:13:28Z</time>
      </trkpt>
      <trkpt lat="44.409446725621819" lon="5.611913921311498">
        <ele>882.79998779296875</ele>
        <time>2014-05-20T12:13:31Z</time>
      </trkpt>
      <trkpt lat="44.409373551607132" lon="5.61193747445941">
        <ele>883.4000244140625</ele>
        <time>2014-05-20T12:13:36Z</time>
      </trkpt>
      <trkpt lat="44.409341951832175" lon="5.611941581591964">
        <ele>884</ele>
        <time>2014-05-20T12:13:38Z</time>
      </trkpt>
      <trkpt lat="44.40925913862884" lon="5.611967230215669">
        <ele>884.79998779296875</ele>
        <time>2014-05-20T12:13:43Z</time>
      </trkpt>
      <trkpt lat="44.409245979040861" lon="5.611976115033031">
        <ele>885</ele>
        <time>2014-05-20T12:13:44Z</time>
      </trkpt>
      <trkpt lat="44.409145563840866" lon="5.612003020942211">
        <ele>886</ele>
        <time>2014-05-20T12:13:50Z</time>
      </trkpt>
      <trkpt lat="44.409126956015825" lon="5.612006122246385">
        <ele>886.20001220703125</ele>
        <time>2014-05-20T12:13:51Z</time>
      </trkpt>
      <trkpt lat="44.409014638513327" lon="5.612027077004314">
        <ele>887.20001220703125</ele>
        <time>2014-05-20T12:13:57Z</time>
      </trkpt>
      <trkpt lat="44.408977925777435" lon="5.612028418108821">
        <ele>887.4000244140625</ele>
        <time>2014-05-20T12:13:59Z</time>
      </trkpt>
      <trkpt lat="44.408857980743051" lon="5.612037051469088">
        <ele>888.20001220703125</ele>
        <time>2014-05-20T12:14:05Z</time>
      </trkpt>
      <trkpt lat="44.408840881660581" lon="5.612030597403646">
        <ele>888.4000244140625</ele>
        <time>2014-05-20T12:14:06Z</time>
      </trkpt>
      <trkpt lat="44.40871674567461" lon="5.611975025385618">
        <ele>889.20001220703125</ele>
        <time>2014-05-20T12:14:13Z</time>
      </trkpt>
      <trkpt lat="44.408680452033877" lon="5.611947868019342">
        <ele>889.4000244140625</ele>
        <time>2014-05-20T12:14:15Z</time>
      </trkpt>
      <trkpt lat="44.408520273864269" lon="5.611872095614672">
        <ele>890.4000244140625</ele>
        <time>2014-05-20T12:14:23Z</time>
      </trkpt>
      <trkpt lat="44.40849881619215" lon="5.611864635720849">
        <ele>890.5999755859375</ele>
        <time>2014-05-20T12:14:24Z</time>
      </trkpt>
      <trkpt lat="44.408366298303008" lon="5.611858600750566">
        <ele>891.4000244140625</ele>
        <time>2014-05-20T12:14:30Z</time>
      </trkpt>
      <trkpt lat="44.408344002440572" lon="5.611866060644388">
        <ele>891.79998779296875</ele>
        <time>2014-05-20T12:14:31Z</time>
      </trkpt>
      <trkpt lat="44.408300668001175" lon="5.61188081279397">
        <ele>892.4000244140625</ele>
        <time>2014-05-20T12:14:33Z</time>
      </trkpt>
      <trkpt lat="44.408143507316709" lon="5.611927667632699">
        <ele>893.20001220703125</ele>
        <time>2014-05-20T12:14:40Z</time>
      </trkpt>
      <trkpt lat="44.408121043816209" lon="5.611933870241046">
        <ele>893.4000244140625</ele>
        <time>2014-05-20T12:14:41Z</time>
      </trkpt>
      <trkpt lat="44.40800185315311" lon="5.61197024770081">
        <ele>894.5999755859375</ele>
        <time>2014-05-20T12:14:47Z</time>
      </trkpt>
      <trkpt lat="44.407983412966132" lon="5.611977372318506">
        <ele>894.79998779296875</ele>
        <time>2014-05-20T12:14:48Z</time>
      </trkpt>
      <trkpt lat="44.407863803207874" lon="5.611989358440042">
        <ele>895.5999755859375</ele>
        <time>2014-05-20T12:14:54Z</time>
      </trkpt>
      <trkpt lat="44.40782155841589" lon="5.611996483057737">
        <ele>896</ele>
        <time>2014-05-20T12:14:56Z</time>
      </trkpt>
      <trkpt lat="44.407624416053295" lon="5.612027244642377">
        <ele>896.5999755859375</ele>
        <time>2014-05-20T12:15:06Z</time>
      </trkpt>
      <trkpt lat="44.407605724409223" lon="5.612028418108821">
        <ele>896.79998779296875</ele>
        <time>2014-05-20T12:15:07Z</time>
      </trkpt>
      <trkpt lat="44.407532047480345" lon="5.612042248249054">
        <ele>898</ele>
        <time>2014-05-20T12:15:11Z</time>
      </trkpt>
      <trkpt lat="44.407457113265991" lon="5.612039398401976">
        <ele>898.20001220703125</ele>
        <time>2014-05-20T12:15:15Z</time>
      </trkpt>
      <trkpt lat="44.407334066927433" lon="5.612033866345882">
        <ele>899</ele>
        <time>2014-05-20T12:15:21Z</time>
      </trkpt>
      <trkpt lat="44.407177241519094" lon="5.612043170258403">
        <ele>899.5999755859375</ele>
        <time>2014-05-20T12:15:28Z</time>
      </trkpt>
      <trkpt lat="44.407095601782203" lon="5.612070746719837">
        <ele>900</ele>
        <time>2014-05-20T12:15:32Z</time>
      </trkpt>
      <trkpt lat="44.406993677839637" lon="5.612129000946879">
        <ele>901</ele>
        <time>2014-05-20T12:15:38Z</time>
      </trkpt>
      <trkpt lat="44.406931651756167" lon="5.612175604328513">
        <ele>902.20001220703125</ele>
        <time>2014-05-20T12:15:42Z</time>
      </trkpt>
      <trkpt lat="44.406873397529125" lon="5.612221956253052">
        <ele>903</ele>
        <time>2014-05-20T12:15:46Z</time>
      </trkpt>
      <trkpt lat="44.406857388094068" lon="5.612229499965906">
        <ele>903.20001220703125</ele>
        <time>2014-05-20T12:15:47Z</time>
      </trkpt>
      <trkpt lat="44.406797541305423" lon="5.612308541312814">
        <ele>903.5999755859375</ele>
        <time>2014-05-20T12:15:52Z</time>
      </trkpt>
      <trkpt lat="44.406744483858347" lon="5.612327316775918">
        <ele>904.20001220703125</ele>
        <time>2014-05-20T12:15:55Z</time>
      </trkpt>
      <trkpt lat="44.406680781394243" lon="5.612361934036017">
        <ele>905</ele>
        <time>2014-05-20T12:15:59Z</time>
      </trkpt>
      <trkpt lat="44.406645745038986" lon="5.612375261262059">
        <ele>905.4000244140625</ele>
        <time>2014-05-20T12:16:01Z</time>
      </trkpt>
      <trkpt lat="44.406588496640325" lon="5.612379787489772">
        <ele>906</ele>
        <time>2014-05-20T12:16:04Z</time>
      </trkpt>
      <trkpt lat="44.406555639579892" lon="5.612396551296115">
        <ele>906.5999755859375</ele>
        <time>2014-05-20T12:16:06Z</time>
      </trkpt>
      <trkpt lat="44.406432677060366" lon="5.612434940412641">
        <ele>907.4000244140625</ele>
        <time>2014-05-20T12:16:12Z</time>
      </trkpt>
      <trkpt lat="44.406365705654025" lon="5.61243980191648">
        <ele>907.5999755859375</ele>
        <time>2014-05-20T12:16:15Z</time>
      </trkpt>
      <trkpt lat="44.406261518597603" lon="5.612459667026997">
        <ele>908</ele>
        <time>2014-05-20T12:16:20Z</time>
      </trkpt>
      <trkpt lat="44.406147776171565" lon="5.612449022009969">
        <ele>908.5999755859375</ele>
        <time>2014-05-20T12:16:25Z</time>
      </trkpt>
      <trkpt lat="44.406125480309129" lon="5.612438963726163">
        <ele>908.79998779296875</ele>
        <time>2014-05-20T12:16:26Z</time>
      </trkpt>
      <trkpt lat="44.405989861115813" lon="5.612384900450707">
        <ele>910</ele>
        <time>2014-05-20T12:16:32Z</time>
      </trkpt>
      <trkpt lat="44.40585776232183" lon="5.612211059778929">
        <ele>910.79998779296875</ele>
        <time>2014-05-20T12:16:40Z</time>
      </trkpt>
      <trkpt lat="44.405849631875753" lon="5.612148446962237">
        <ele>911</ele>
        <time>2014-05-20T12:16:42Z</time>
      </trkpt>
      <trkpt lat="44.405820211395621" lon="5.612042415887117">
        <ele>911.79998779296875</ele>
        <time>2014-05-20T12:16:46Z</time>
      </trkpt>
      <trkpt lat="44.405799172818661" lon="5.611960776150227">
        <ele>912.20001220703125</ele>
        <time>2014-05-20T12:16:49Z</time>
      </trkpt>
      <trkpt lat="44.405782325193286" lon="5.611853403970599">
        <ele>912.79998779296875</ele>
        <time>2014-05-20T12:16:53Z</time>
      </trkpt>
      <trkpt lat="44.405781654641032" lon="5.611826749518514">
        <ele>913.20001220703125</ele>
        <time>2014-05-20T12:16:54Z</time>
      </trkpt>
      <trkpt lat="44.405767321586609" lon="5.611650142818689">
        <ele>914</ele>
        <time>2014-05-20T12:17:00Z</time>
      </trkpt>
      <trkpt lat="44.40576053224504" lon="5.611620638519526">
        <ele>914.4000244140625</ele>
        <time>2014-05-20T12:17:01Z</time>
      </trkpt>
      <trkpt lat="44.405729686841369" lon="5.611476972699165">
        <ele>915.20001220703125</ele>
        <time>2014-05-20T12:17:06Z</time>
      </trkpt>
      <trkpt lat="44.405701607465744" lon="5.611388962715864">
        <ele>915.5999755859375</ele>
        <time>2014-05-20T12:17:09Z</time>
      </trkpt>
      <trkpt lat="44.405656512826681" lon="5.611241608858109">
        <ele>916.4000244140625</ele>
        <time>2014-05-20T12:17:14Z</time>
      </trkpt>
      <trkpt lat="44.405634552240372" lon="5.611191065981984">
        <ele>916.5999755859375</ele>
        <time>2014-05-20T12:17:16Z</time>
      </trkpt>
      <trkpt lat="44.405582249164581" lon="5.611054440960288">
        <ele>917.5999755859375</ele>
        <time>2014-05-20T12:17:21Z</time>
      </trkpt>
      <trkpt lat="44.405568670481443" lon="5.611025020480156">
        <ele>917.79998779296875</ele>
        <time>2014-05-20T12:17:22Z</time>
      </trkpt>
      <trkpt lat="44.405498011037707" lon="5.610809940844774">
        <ele>918.79998779296875</ele>
        <time>2014-05-20T12:17:30Z</time>
      </trkpt>
      <trkpt lat="44.405442187562585" lon="5.610693683847785">
        <ele>919.79998779296875</ele>
        <time>2014-05-20T12:17:35Z</time>
      </trkpt>
      <trkpt lat="44.405429027974606" lon="5.610668873414397">
        <ele>920</ele>
        <time>2014-05-20T12:17:36Z</time>
      </trkpt>
      <trkpt lat="44.405357781797647" lon="5.610526548698545">
        <ele>920.79998779296875</ele>
        <time>2014-05-20T12:17:42Z</time>
      </trkpt>
      <trkpt lat="44.405346801504493" lon="5.610499978065491">
        <ele>921</ele>
        <time>2014-05-20T12:17:43Z</time>
      </trkpt>
      <trkpt lat="44.405272537842393" lon="5.610323874279857">
        <ele>921.79998779296875</ele>
        <time>2014-05-20T12:17:50Z</time>
      </trkpt>
      <trkpt lat="44.40520497970283" lon="5.610133102163672">
        <ele>922.5999755859375</ele>
        <time>2014-05-20T12:17:57Z</time>
      </trkpt>
      <trkpt lat="44.405189473181963" lon="5.610110387206078">
        <ele>922.79998779296875</ele>
        <time>2014-05-20T12:17:58Z</time>
      </trkpt>
      <trkpt lat="44.405084867030382" lon="5.60999765060842">
        <ele>924</ele>
        <time>2014-05-20T12:18:04Z</time>
      </trkpt>
      <trkpt lat="44.40506475046277" lon="5.609981641173363">
        <ele>924</ele>
        <time>2014-05-20T12:18:05Z</time>
      </trkpt>
      <trkpt lat="44.40494891256094" lon="5.60991894453764">
        <ele>925</ele>
        <time>2014-05-20T12:18:10Z</time>
      </trkpt>
      <trkpt lat="44.404901303350925" lon="5.609900923445821">
        <ele>925.4000244140625</ele>
        <time>2014-05-20T12:18:12Z</time>
      </trkpt>
      <trkpt lat="44.404805330559611" lon="5.609889188781381">
        <ele>926</ele>
        <time>2014-05-20T12:18:16Z</time>
      </trkpt>
      <trkpt lat="44.40476031973958" lon="5.609890194609761">
        <ele>926.20001220703125</ele>
        <time>2014-05-20T12:18:18Z</time>
      </trkpt>
      <trkpt lat="44.404621180146933" lon="5.609886422753334">
        <ele>927</ele>
        <time>2014-05-20T12:18:25Z</time>
      </trkpt>
      <trkpt lat="44.404562842100859" lon="5.609906204044819">
        <ele>927.20001220703125</ele>
        <time>2014-05-20T12:18:28Z</time>
      </trkpt>
      <trkpt lat="44.404547587037086" lon="5.609916346147656">
        <ele>927.4000244140625</ele>
        <time>2014-05-20T12:18:29Z</time>
      </trkpt>
      <trkpt lat="44.404515232890844" lon="5.609928332269192">
        <ele>927.79998779296875</ele>
        <time>2014-05-20T12:18:31Z</time>
      </trkpt>
      <trkpt lat="44.404456056654453" lon="5.609923135489225">
        <ele>928.4000244140625</ele>
        <time>2014-05-20T12:18:34Z</time>
      </trkpt>
      <trkpt lat="44.404392605647445" lon="5.609912490472198">
        <ele>928.79998779296875</ele>
        <time>2014-05-20T12:18:37Z</time>
      </trkpt>
      <trkpt lat="44.404303757473826" lon="5.609836047515273">
        <ele>929.4000244140625</ele>
        <time>2014-05-20T12:18:42Z</time>
      </trkpt>
      <trkpt lat="44.404292274266481" lon="5.609809895977378">
        <ele>929.79998779296875</ele>
        <time>2014-05-20T12:18:43Z</time>
      </trkpt>
      <trkpt lat="44.404285401105881" lon="5.609661117196083">
        <ele>930.5999755859375</ele>
        <time>2014-05-20T12:18:48Z</time>
      </trkpt>
      <trkpt lat="44.404286658391356" lon="5.609628595411778">
        <ele>930.5999755859375</ele>
        <time>2014-05-20T12:18:49Z</time>
      </trkpt>
      <trkpt lat="44.404293866828084" lon="5.609502531588078">
        <ele>931.79998779296875</ele>
        <time>2014-05-20T12:18:53Z</time>
      </trkpt>
      <trkpt lat="44.404288502410054" lon="5.609420137479901">
        <ele>932</ele>
        <time>2014-05-20T12:18:56Z</time>
      </trkpt>
      <trkpt lat="44.40427559427917" lon="5.609387028962374">
        <ele>932</ele>
        <time>2014-05-20T12:19:34Z</time>
      </trkpt>
      <trkpt lat="44.404268469661474" lon="5.609371522441506">
        <ele>932</ele>
        <time>2014-05-20T12:19:35Z</time>
      </trkpt>
      <trkpt lat="44.404197223484516" lon="5.609256187453866">
        <ele>932</ele>
        <time>2014-05-20T12:19:40Z</time>
      </trkpt>
      <trkpt lat="44.404133018106222" lon="5.609207153320313">
        <ele>932.4000244140625</ele>
        <time>2014-05-20T12:19:43Z</time>
      </trkpt>
      <trkpt lat="44.404090773314238" lon="5.609226515516639">
        <ele>932.5999755859375</ele>
        <time>2014-05-20T12:19:45Z</time>
      </trkpt>
      <trkpt lat="44.404069734737277" lon="5.609242944046855">
        <ele>932.79998779296875</ele>
        <time>2014-05-20T12:19:46Z</time>
      </trkpt>
      <trkpt lat="44.404027657583356" lon="5.609355177730322">
        <ele>934</ele>
        <time>2014-05-20T12:19:50Z</time>
      </trkpt>
      <trkpt lat="44.404032938182354" lon="5.609389627352357">
        <ele>934.4000244140625</ele>
        <time>2014-05-20T12:19:51Z</time>
      </trkpt>
      <trkpt lat="44.404075769707561" lon="5.609524240717292">
        <ele>935.20001220703125</ele>
        <time>2014-05-20T12:19:55Z</time>
      </trkpt>
      <trkpt lat="44.404078954830766" lon="5.609733620658517">
        <ele>935.79998779296875</ele>
        <time>2014-05-20T12:20:01Z</time>
      </trkpt>
      <trkpt lat="44.404061520472169" lon="5.609835544601083">
        <ele>936.4000244140625</ele>
        <time>2014-05-20T12:20:04Z</time>
      </trkpt>
      <trkpt lat="44.404028076678514" lon="5.609951047226787">
        <ele>936.5999755859375</ele>
        <time>2014-05-20T12:20:08Z</time>
      </trkpt>
      <trkpt lat="44.404002763330936" lon="5.610003350302577">
        <ele>937.4000244140625</ele>
        <time>2014-05-20T12:20:10Z</time>
      </trkpt>
      <trkpt lat="44.40394283272326" lon="5.610124636441469">
        <ele>938.20001220703125</ele>
        <time>2014-05-20T12:20:15Z</time>
      </trkpt>
      <trkpt lat="44.403924392536283" lon="5.61017450876534">
        <ele>938.5999755859375</ele>
        <time>2014-05-20T12:20:17Z</time>
      </trkpt>
      <trkpt lat="44.403908299282193" lon="5.610251622274518">
        <ele>939.4000244140625</ele>
        <time>2014-05-20T12:20:20Z</time>
      </trkpt>
      <trkpt lat="44.40389790572226" lon="5.610358407720923">
        <ele>939.79998779296875</ele>
        <time>2014-05-20T12:20:24Z</time>
      </trkpt>
      <trkpt lat="44.40390519797802" lon="5.610416997224093">
        <ele>940</ele>
        <time>2014-05-20T12:20:26Z</time>
      </trkpt>
      <trkpt lat="44.403922967612743" lon="5.610489752143621">
        <ele>940</ele>
        <time>2014-05-20T12:20:28Z</time>
      </trkpt>
      <trkpt lat="44.403965966776013" lon="5.610562339425087">
        <ele>940.4000244140625</ele>
        <time>2014-05-20T12:20:31Z</time>
      </trkpt>
      <trkpt lat="44.404038051143289" lon="5.610609613358975">
        <ele>940.79998779296875</ele>
        <time>2014-05-20T12:20:35Z</time>
      </trkpt>
      <trkpt lat="44.404118433594704" lon="5.610663676634431">
        <ele>941.5999755859375</ele>
        <time>2014-05-20T12:20:39Z</time>
      </trkpt>
      <trkpt lat="44.404201414436102" lon="5.610763253644109">
        <ele>942</ele>
        <time>2014-05-20T12:20:44Z</time>
      </trkpt>
      <trkpt lat="44.40422329120338" lon="5.610823687165976">
        <ele>942.20001220703125</ele>
        <time>2014-05-20T12:20:46Z</time>
      </trkpt>
      <trkpt lat="44.404239468276501" lon="5.611028959974647">
        <ele>943.20001220703125</ele>
        <time>2014-05-20T12:20:53Z</time>
      </trkpt>
      <trkpt lat="44.404234858229756" lon="5.611056704074144">
        <ele>943.5999755859375</ele>
        <time>2014-05-20T12:20:54Z</time>
      </trkpt>
      <trkpt lat="44.404221447184682" lon="5.611143708229065">
        <ele>944.20001220703125</ele>
        <time>2014-05-20T12:20:57Z</time>
      </trkpt>
      <trkpt lat="44.404208958148956" lon="5.611265664920211">
        <ele>945.20001220703125</ele>
        <time>2014-05-20T12:21:01Z</time>
      </trkpt>
      <trkpt lat="44.404199821874499" lon="5.611323332414031">
        <ele>945.20001220703125</ele>
        <time>2014-05-20T12:21:03Z</time>
      </trkpt>
      <trkpt lat="44.404180124402046" lon="5.611412851139903">
        <ele>946.4000244140625</ele>
        <time>2014-05-20T12:21:06Z</time>
      </trkpt>
      <trkpt lat="44.404139891266823" lon="5.611548805609345">
        <ele>946</ele>
        <time>2014-05-20T12:21:11Z</time>
      </trkpt>
      <trkpt lat="44.404020616784692" lon="5.611721305176616">
        <ele>947.4000244140625</ele>
        <time>2014-05-20T12:21:19Z</time>
      </trkpt>
      <trkpt lat="44.404003182426095" lon="5.611739242449403">
        <ele>947.5999755859375</ele>
        <time>2014-05-20T12:21:20Z</time>
      </trkpt>
      <trkpt lat="44.403940318152308" lon="5.611775787547231">
        <ele>949.20001220703125</ele>
        <time>2014-05-20T12:21:23Z</time>
      </trkpt>
      <trkpt lat="44.403893128037453" lon="5.611768746748567">
        <ele>949.4000244140625</ele>
        <time>2014-05-20T12:21:25Z</time>
      </trkpt>
      <trkpt lat="44.403872927650809" lon="5.611753072589636">
        <ele>949.5999755859375</ele>
        <time>2014-05-20T12:21:26Z</time>
      </trkpt>
      <trkpt lat="44.403842249885201" lon="5.611704960465431">
        <ele>950.5999755859375</ele>
        <time>2014-05-20T12:21:28Z</time>
      </trkpt>
      <trkpt lat="44.403828838840127" lon="5.611674198880792">
        <ele>950.79998779296875</ele>
        <time>2014-05-20T12:21:29Z</time>
      </trkpt>
      <trkpt lat="44.403743343427777" lon="5.611487114802003">
        <ele>951.5999755859375</ele>
        <time>2014-05-20T12:21:36Z</time>
      </trkpt>
      <trkpt lat="44.403695650398731" lon="5.611424166709185">
        <ele>952.4000244140625</ele>
        <time>2014-05-20T12:21:39Z</time>
      </trkpt>
      <trkpt lat="44.403665810823441" lon="5.611386196687818">
        <ele>952.79998779296875</ele>
        <time>2014-05-20T12:21:41Z</time>
      </trkpt>
      <trkpt lat="44.403555756434798" lon="5.611264072358608">
        <ele>953.79998779296875</ele>
        <time>2014-05-20T12:21:48Z</time>
      </trkpt>
      <trkpt lat="44.403458023443818" lon="5.611168602481484">
        <ele>954.79998779296875</ele>
        <time>2014-05-20T12:21:54Z</time>
      </trkpt>
      <trkpt lat="44.403419634327292" lon="5.611156532540917">
        <ele>955</ele>
        <time>2014-05-20T12:21:56Z</time>
      </trkpt>
      <trkpt lat="44.403338329866529" lon="5.61116642318666">
        <ele>955.5999755859375</ele>
        <time>2014-05-20T12:22:00Z</time>
      </trkpt>
      <trkpt lat="44.40324948169291" lon="5.611167848110199">
        <ele>956</ele>
        <time>2014-05-20T12:22:04Z</time>
      </trkpt>
      <trkpt lat="44.403151832520962" lon="5.611165417358279">
        <ele>957.20001220703125</ele>
        <time>2014-05-20T12:22:08Z</time>
      </trkpt>
      <trkpt lat="44.403013698756695" lon="5.611121915280819">
        <ele>957.5999755859375</ele>
        <time>2014-05-20T12:22:14Z</time>
      </trkpt>
      <trkpt lat="44.402972124516964" lon="5.611090734601021">
        <ele>958.4000244140625</ele>
        <time>2014-05-20T12:22:16Z</time>
      </trkpt>
      <trkpt lat="44.402911607176065" lon="5.61101546511054">
        <ele>959.20001220703125</ele>
        <time>2014-05-20T12:22:20Z</time>
      </trkpt>
      <trkpt lat="44.402898782864213" lon="5.610995935276151">
        <ele>959.4000244140625</ele>
        <time>2014-05-20T12:22:21Z</time>
      </trkpt>
      <trkpt lat="44.402768276631832" lon="5.610850593075156">
        <ele>960.5999755859375</ele>
        <time>2014-05-20T12:22:29Z</time>
      </trkpt>
      <trkpt lat="44.402675656601787" lon="5.610771803185344">
        <ele>961.5999755859375</ele>
        <time>2014-05-20T12:22:34Z</time>
      </trkpt>
      <trkpt lat="44.402637351304293" lon="5.610753614455462">
        <ele>961.79998779296875</ele>
        <time>2014-05-20T12:22:36Z</time>
      </trkpt>
      <trkpt lat="44.402498882263899" lon="5.610680440440774">
        <ele>962.5999755859375</ele>
        <time>2014-05-20T12:22:43Z</time>
      </trkpt>
      <trkpt lat="44.402480190619826" lon="5.610671723261476">
        <ele>962.79998779296875</ele>
        <time>2014-05-20T12:22:44Z</time>
      </trkpt>
      <trkpt lat="44.402407687157393" lon="5.610629562288523">
        <ele>963.79998779296875</ele>
        <time>2014-05-20T12:22:48Z</time>
      </trkpt>
      <trkpt lat="44.402331914752722" lon="5.610605254769325">
        <ele>964.79998779296875</ele>
        <time>2014-05-20T12:22:52Z</time>
      </trkpt>
      <trkpt lat="44.402313558384776" lon="5.610597878694534">
        <ele>965</ele>
        <time>2014-05-20T12:22:53Z</time>
      </trkpt>
      <trkpt lat="44.402192188426852" lon="5.610574409365654">
        <ele>966</ele>
        <time>2014-05-20T12:22:59Z</time>
      </trkpt>
      <trkpt lat="44.402170814573765" lon="5.610574493184686">
        <ele>966.20001220703125</ele>
        <time>2014-05-20T12:23:00Z</time>
      </trkpt>
      <trkpt lat="44.402084900066257" lon="5.610584132373333">
        <ele>967.20001220703125</ele>
        <time>2014-05-20T12:23:04Z</time>
      </trkpt>
      <trkpt lat="44.402040727436543" lon="5.610586730763316">
        <ele>967.5999755859375</ele>
        <time>2014-05-20T12:23:06Z</time>
      </trkpt>
      <trkpt lat="44.401911813765764" lon="5.610598884522915">
        <ele>968</ele>
        <time>2014-05-20T12:23:12Z</time>
      </trkpt>
      <trkpt lat="44.401889769360423" lon="5.610601147636771">
        <ele>968.20001220703125</ele>
        <time>2014-05-20T12:23:13Z</time>
      </trkpt>
      <trkpt lat="44.401795892044902" lon="5.61058497056365">
        <ele>969.20001220703125</ele>
        <time>2014-05-20T12:23:18Z</time>
      </trkpt>
      <trkpt lat="44.40175867639482" lon="5.610567200928927">
        <ele>969.5999755859375</ele>
        <time>2014-05-20T12:23:20Z</time>
      </trkpt>
      <trkpt lat="44.401731267571449" lon="5.610534427687526">
        <ele>970.20001220703125</ele>
        <time>2014-05-20T12:23:22Z</time>
      </trkpt>
      <trkpt lat="44.401721209287643" lon="5.610511880367994">
        <ele>970.4000244140625</ele>
        <time>2014-05-20T12:23:23Z</time>
      </trkpt>
      <trkpt lat="44.401704864576459" lon="5.610432671383023">
        <ele>970.5999755859375</ele>
        <time>2014-05-20T12:23:26Z</time>
      </trkpt>
      <trkpt lat="44.401675947010517" lon="5.610303170979023">
        <ele>971.4000244140625</ele>
        <time>2014-05-20T12:23:31Z</time>
      </trkpt>
      <trkpt lat="44.40165557898581" lon="5.610252041369677">
        <ele>971.5999755859375</ele>
        <time>2014-05-20T12:23:33Z</time>
      </trkpt>
      <trkpt lat="44.401578214019537" lon="5.61011684127152">
        <ele>972.5999755859375</ele>
        <time>2014-05-20T12:23:39Z</time>
      </trkpt>
      <trkpt lat="44.401541501283646" lon="5.610081972554326">
        <ele>973</ele>
        <time>2014-05-20T12:23:41Z</time>
      </trkpt>
      <trkpt lat="44.401486851274967" lon="5.610033022239804">
        <ele>973.79998779296875</ele>
        <time>2014-05-20T12:23:44Z</time>
      </trkpt>
      <trkpt lat="44.401407558470964" lon="5.609979713335633">
        <ele>974.4000244140625</ele>
        <time>2014-05-20T12:23:48Z</time>
      </trkpt>
      <trkpt lat="44.401331702247262" lon="5.609944593161345">
        <ele>974.79998779296875</ele>
        <time>2014-05-20T12:23:52Z</time>
      </trkpt>
      <trkpt lat="44.401236986741424" lon="5.609884662553668">
        <ele>975.4000244140625</ele>
        <time>2014-05-20T12:23:57Z</time>
      </trkpt>
      <trkpt lat="44.401199854910374" lon="5.609857924282551">
        <ele>975.79998779296875</ele>
        <time>2014-05-20T12:23:59Z</time>
      </trkpt>
      <trkpt lat="44.401114862412214" lon="5.609821546822786">
        <ele>976.79998779296875</ele>
        <time>2014-05-20T12:24:04Z</time>
      </trkpt>
      <trkpt lat="44.401085861027241" lon="5.609804196283221">
        <ele>977.20001220703125</ele>
        <time>2014-05-20T12:24:06Z</time>
      </trkpt>
      <trkpt lat="44.401037413626909" lon="5.609734123572707">
        <ele>977.79998779296875</ele>
        <time>2014-05-20T12:24:10Z</time>
      </trkpt>
      <trkpt lat="44.400998689234257" lon="5.609681820496917">
        <ele>978.20001220703125</ele>
        <time>2014-05-20T12:24:13Z</time>
      </trkpt>
      <trkpt lat="44.400969604030252" lon="5.609621973708272">
        <ele>978.79998779296875</ele>
        <time>2014-05-20T12:24:16Z</time>
      </trkpt>
      <trkpt lat="44.400956863537431" lon="5.609552906826139">
        <ele>979.4000244140625</ele>
        <time>2014-05-20T12:24:19Z</time>
      </trkpt>
      <trkpt lat="44.40092165954411" lon="5.60944939032197">
        <ele>980</ele>
        <time>2014-05-20T12:24:24Z</time>
      </trkpt>
      <trkpt lat="44.400916881859303" lon="5.60942642390728">
        <ele>980</ele>
        <time>2014-05-20T12:24:25Z</time>
      </trkpt>
      <trkpt lat="44.400881929323077" lon="5.60928275808692">
        <ele>981</ele>
        <time>2014-05-20T12:24:31Z</time>
      </trkpt>
      <trkpt lat="44.400877235457301" lon="5.609257528558374">
        <ele>981.20001220703125</ele>
        <time>2014-05-20T12:24:32Z</time>
      </trkpt>
      <trkpt lat="44.40084395930171" lon="5.609095841646195">
        <ele>982</ele>
        <time>2014-05-20T12:24:38Z</time>
      </trkpt>
      <trkpt lat="44.400837756693363" lon="5.609067846089602">
        <ele>982.20001220703125</ele>
        <time>2014-05-20T12:24:39Z</time>
      </trkpt>
      <trkpt lat="44.400797355920076" lon="5.608889982104302">
        <ele>983</ele>
        <time>2014-05-20T12:24:45Z</time>
      </trkpt>
      <trkpt lat="44.40078335814178" lon="5.608836086466909">
        <ele>983.4000244140625</ele>
        <time>2014-05-20T12:24:47Z</time>
      </trkpt>
      <trkpt lat="44.400744214653969" lon="5.60869594104588">
        <ele>984.20001220703125</ele>
        <time>2014-05-20T12:24:52Z</time>
      </trkpt>
      <trkpt lat="44.400729043409228" lon="5.608635758981109">
        <ele>984.5999755859375</ele>
        <time>2014-05-20T12:24:54Z</time>
      </trkpt>
      <trkpt lat="44.400704232975841" lon="5.608520759269595">
        <ele>985.20001220703125</ele>
        <time>2014-05-20T12:24:58Z</time>
      </trkpt>
      <trkpt lat="44.400694007053971" lon="5.608431408181787">
        <ele>985.5999755859375</ele>
        <time>2014-05-20T12:25:01Z</time>
      </trkpt>
      <trkpt lat="44.40066609531641" lon="5.608314229175448">
        <ele>986.20001220703125</ele>
        <time>2014-05-20T12:25:05Z</time>
      </trkpt>
      <trkpt lat="44.400642542168498" lon="5.608229907229543">
        <ele>986.5999755859375</ele>
        <time>2014-05-20T12:25:08Z</time>
      </trkpt>
      <trkpt lat="44.400578923523426" lon="5.608023963868618">
        <ele>987.5999755859375</ele>
        <time>2014-05-20T12:25:15Z</time>
      </trkpt>
      <trkpt lat="44.400570457801223" lon="5.607993705198169">
        <ele>988</ele>
        <time>2014-05-20T12:25:16Z</time>
      </trkpt>
      <trkpt lat="44.400479095056653" lon="5.60781835578382">
        <ele>988.79998779296875</ele>
        <time>2014-05-20T12:25:23Z</time>
      </trkpt>
      <trkpt lat="44.400461409240961" lon="5.607796227559447">
        <ele>989</ele>
        <time>2014-05-20T12:25:24Z</time>
      </trkpt>
      <trkpt lat="44.400353031232953" lon="5.607682066038251">
        <ele>990</ele>
        <time>2014-05-20T12:25:30Z</time>
      </trkpt>
      <trkpt lat="44.400333082303405" lon="5.607671337202191">
        <ele>990.20001220703125</ele>
        <time>2014-05-20T12:25:31Z</time>
      </trkpt>
      <trkpt lat="44.40023023635149" lon="5.607616771012545">
        <ele>991.4000244140625</ele>
        <time>2014-05-20T12:25:36Z</time>
      </trkpt>
      <trkpt lat="44.400107944384217" lon="5.60759992338717">
        <ele>992.4000244140625</ele>
        <time>2014-05-20T12:25:42Z</time>
      </trkpt>
      <trkpt lat="44.400059999898076" lon="5.607612831518054">
        <ele>992.79998779296875</ele>
        <time>2014-05-20T12:25:44Z</time>
      </trkpt>
      <trkpt lat="44.399931002408266" lon="5.607652729377151">
        <ele>993.5999755859375</ele>
        <time>2014-05-20T12:25:50Z</time>
      </trkpt>
      <trkpt lat="44.399832766503096" lon="5.60774601995945">
        <ele>994.20001220703125</ele>
        <time>2014-05-20T12:25:56Z</time>
      </trkpt>
      <trkpt lat="44.3997997418046" lon="5.60778122395277">
        <ele>994.5999755859375</ele>
        <time>2014-05-20T12:25:58Z</time>
      </trkpt>
      <trkpt lat="44.399709049612284" lon="5.607865378260613">
        <ele>995.20001220703125</ele>
        <time>2014-05-20T12:26:03Z</time>
      </trkpt>
      <trkpt lat="44.399623470380902" lon="5.607999656349421">
        <ele>995.4000244140625</ele>
        <time>2014-05-20T12:26:47Z</time>
      </trkpt>
      <trkpt lat="44.399591200053692" lon="5.608040727674961">
        <ele>995.20001220703125</ele>
        <time>2014-05-20T12:26:49Z</time>
      </trkpt>
      <trkpt lat="44.399550631642342" lon="5.608077943325043">
        <ele>995</ele>
        <time>2014-05-20T12:26:51Z</time>
      </trkpt>
      <trkpt lat="44.399436386302114" lon="5.608174670487642">
        <ele>993.79998779296875</ele>
        <time>2014-05-20T12:26:55Z</time>
      </trkpt>
      <trkpt lat="44.39939958974719" lon="5.608206437900662">
        <ele>993.4000244140625</ele>
        <time>2014-05-20T12:26:56Z</time>
      </trkpt>
      <trkpt lat="44.399262545630336" lon="5.608316995203495">
        <ele>992</ele>
        <time>2014-05-20T12:26:59Z</time>
      </trkpt>
      <trkpt lat="44.399150144308805" lon="5.608412884175777">
        <ele>990.20001220703125</ele>
        <time>2014-05-20T12:27:01Z</time>
      </trkpt>
      <trkpt lat="44.398953672498465" lon="5.608537187799811">
        <ele>988.79998779296875</ele>
        <time>2014-05-20T12:27:04Z</time>
      </trkpt>
      <trkpt lat="44.398886281996965" lon="5.608553448691964">
        <ele>988.4000244140625</ele>
        <time>2014-05-20T12:27:05Z</time>
      </trkpt>
      <trkpt lat="44.398814784362912" lon="5.608552694320679">
        <ele>987.5999755859375</ele>
        <time>2014-05-20T12:27:06Z</time>
      </trkpt>
      <trkpt lat="44.39873993396759" lon="5.608529644086957">
        <ele>986.79998779296875</ele>
        <time>2014-05-20T12:27:07Z</time>
      </trkpt>
      <trkpt lat="44.398666676133871" lon="5.608484633266926">
        <ele>986</ele>
        <time>2014-05-20T12:27:08Z</time>
      </trkpt>
      <trkpt lat="44.39859283156693" lon="5.60842914506793">
        <ele>985.20001220703125</ele>
        <time>2014-05-20T12:27:09Z</time>
      </trkpt>
      <trkpt lat="44.398511443287134" lon="5.608385559171438">
        <ele>984.4000244140625</ele>
        <time>2014-05-20T12:27:10Z</time>
      </trkpt>
      <trkpt lat="44.398331232368946" lon="5.608335016295314">
        <ele>982.4000244140625</ele>
        <time>2014-05-20T12:27:12Z</time>
      </trkpt>
      <trkpt lat="44.398234086111188" lon="5.60832847841084">
        <ele>981.5999755859375</ele>
        <time>2014-05-20T12:27:13Z</time>
      </trkpt>
      <trkpt lat="44.398134341463447" lon="5.608328226953745">
        <ele>980.79998779296875</ele>
        <time>2014-05-20T12:27:14Z</time>
      </trkpt>
      <trkpt lat="44.397931080311537" lon="5.608335351571441">
        <ele>979.20001220703125</ele>
        <time>2014-05-20T12:27:16Z</time>
      </trkpt>
      <trkpt lat="44.397725639864802" lon="5.608346750959754">
        <ele>977.4000244140625</ele>
        <time>2014-05-20T12:27:18Z</time>
      </trkpt>
      <trkpt lat="44.397628074511886" lon="5.608361084014177">
        <ele>977.4000244140625</ele>
        <time>2014-05-20T12:27:19Z</time>
      </trkpt>
      <trkpt lat="44.397449707612395" lon="5.608424786478281">
        <ele>976.20001220703125</ele>
        <time>2014-05-20T12:27:21Z</time>
      </trkpt>
      <trkpt lat="44.397367732599378" lon="5.608485387638211">
        <ele>975.20001220703125</ele>
        <time>2014-05-20T12:27:22Z</time>
      </trkpt>
      <trkpt lat="44.39720562659204" lon="5.608644559979439">
        <ele>973.79998779296875</ele>
        <time>2014-05-20T12:27:24Z</time>
      </trkpt>
      <trkpt lat="44.397029355168343" lon="5.608803983777762">
        <ele>972.5999755859375</ele>
        <time>2014-05-20T12:27:26Z</time>
      </trkpt>
      <trkpt lat="44.396936735138297" lon="5.608873972669244">
        <ele>971.4000244140625</ele>
        <time>2014-05-20T12:27:27Z</time>
      </trkpt>
      <trkpt lat="44.396742861717939" lon="5.609005400910974">
        <ele>970.20001220703125</ele>
        <time>2014-05-20T12:27:29Z</time>
      </trkpt>
      <trkpt lat="44.396538091823459" lon="5.609120903536677">
        <ele>968</ele>
        <time>2014-05-20T12:27:31Z</time>
      </trkpt>
      <trkpt lat="44.39633097499609" lon="5.609226264059544">
        <ele>966.79998779296875</ele>
        <time>2014-05-20T12:27:33Z</time>
      </trkpt>
      <trkpt lat="44.396125031635165" lon="5.609318884089589">
        <ele>965.4000244140625</ele>
        <time>2014-05-20T12:27:35Z</time>
      </trkpt>
      <trkpt lat="44.396017324179411" lon="5.609318297356367">
        <ele>964.79998779296875</ele>
        <time>2014-05-20T12:27:36Z</time>
      </trkpt>
      <trkpt lat="44.395910454913974" lon="5.609297510236502">
        <ele>964.4000244140625</ele>
        <time>2014-05-20T12:27:37Z</time>
      </trkpt>
      <trkpt lat="44.395699817687273" lon="5.609268760308623">
        <ele>963.4000244140625</ele>
        <time>2014-05-20T12:27:39Z</time>
      </trkpt>
      <trkpt lat="44.395595462992787" lon="5.60927739366889">
        <ele>962.79998779296875</ele>
        <time>2014-05-20T12:27:40Z</time>
      </trkpt>
      <trkpt lat="44.3953927885741" lon="5.609355177730322">
        <ele>961</ele>
        <time>2014-05-20T12:27:42Z</time>
      </trkpt>
      <trkpt lat="44.395294217392802" lon="5.609414940699935">
        <ele>960.5999755859375</ele>
        <time>2014-05-20T12:27:43Z</time>
      </trkpt>
      <trkpt lat="44.395195562392473" lon="5.609470428898931">
        <ele>960.20001220703125</ele>
        <time>2014-05-20T12:27:44Z</time>
      </trkpt>
      <trkpt lat="44.395095817744732" lon="5.609522396698594">
        <ele>959.4000244140625</ele>
        <time>2014-05-20T12:27:45Z</time>
      </trkpt>
      <trkpt lat="44.394697677344084" lon="5.609682826325297">
        <ele>958</ele>
        <time>2014-05-20T12:27:49Z</time>
      </trkpt>
      <trkpt lat="44.394313283264637" lon="5.609848285093904">
        <ele>956.4000244140625</ele>
        <time>2014-05-20T12:27:53Z</time>
      </trkpt>
      <trkpt lat="44.394223177805543" lon="5.609904527664185">
        <ele>955.4000244140625</ele>
        <time>2014-05-20T12:27:54Z</time>
      </trkpt>
      <trkpt lat="44.394134664908051" lon="5.609963284805417">
        <ele>954.79998779296875</ele>
        <time>2014-05-20T12:27:55Z</time>
      </trkpt>
      <trkpt lat="44.393958225846291" lon="5.610067052766681">
        <ele>955.79998779296875</ele>
        <time>2014-05-20T12:27:57Z</time>
      </trkpt>
      <trkpt lat="44.393701236695051" lon="5.610204767435789">
        <ele>955.4000244140625</ele>
        <time>2014-05-20T12:28:00Z</time>
      </trkpt>
      <trkpt lat="44.393619429320097" lon="5.610248856246471">
        <ele>954.79998779296875</ele>
        <time>2014-05-20T12:28:01Z</time>
      </trkpt>
      <trkpt lat="44.393290774896741" lon="5.610351366922259">
        <ele>955.20001220703125</ele>
        <time>2014-05-20T12:28:05Z</time>
      </trkpt>
      <trkpt lat="44.392837146297097" lon="5.61040953733027">
        <ele>955</ele>
        <time>2014-05-20T12:28:11Z</time>
      </trkpt>
      <trkpt lat="44.39258367754519" lon="5.610437113791704">
        <ele>956</ele>
        <time>2014-05-20T12:28:15Z</time>
      </trkpt>
      <trkpt lat="44.39240631647408" lon="5.610447339713574">
        <ele>956</ele>
        <time>2014-05-20T12:28:18Z</time>
      </trkpt>
      <trkpt lat="44.392195930704474" lon="5.610429905354977">
        <ele>957</ele>
        <time>2014-05-20T12:28:22Z</time>
      </trkpt>
      <trkpt lat="44.392094006761909" lon="5.610411297529936">
        <ele>957.20001220703125</ele>
        <time>2014-05-20T12:28:24Z</time>
      </trkpt>
      <trkpt lat="44.391801143065095" lon="5.61036603525281">
        <ele>958</ele>
        <time>2014-05-20T12:28:30Z</time>
      </trkpt>
      <trkpt lat="44.391714055091143" lon="5.610340218991041">
        <ele>957.79998779296875</ele>
        <time>2014-05-20T12:28:32Z</time>
      </trkpt>
      <trkpt lat="44.39139780588448" lon="5.61027416959405">
        <ele>957.79998779296875</ele>
        <time>2014-05-20T12:28:39Z</time>
      </trkpt>
      <trkpt lat="44.39105230383575" lon="5.610239552333951">
        <ele>958.79998779296875</ele>
        <time>2014-05-20T12:28:47Z</time>
      </trkpt>
      <trkpt lat="44.390734545886517" lon="5.61019797809422">
        <ele>959.4000244140625</ele>
        <time>2014-05-20T12:28:55Z</time>
      </trkpt>
      <trkpt lat="44.390554251149297" lon="5.61014081351459">
        <ele>960.5999755859375</ele>
        <time>2014-05-20T12:29:00Z</time>
      </trkpt>
      <trkpt lat="44.390459703281522" lon="5.610110135748982">
        <ele>961</ele>
        <time>2014-05-20T12:29:03Z</time>
      </trkpt>
      <trkpt lat="44.390363898128271" lon="5.610089935362339">
        <ele>961.5999755859375</ele>
        <time>2014-05-20T12:29:06Z</time>
      </trkpt>
      <trkpt lat="44.39019332639873" lon="5.610058754682541">
        <ele>961.5999755859375</ele>
        <time>2014-05-20T12:29:11Z</time>
      </trkpt>
      <trkpt lat="44.38992602750659" lon="5.610043918713927">
        <ele>961.20001220703125</ele>
        <time>2014-05-20T12:29:18Z</time>
      </trkpt>
      <trkpt lat="44.389879256486893" lon="5.610050037503243">
        <ele>960.4000244140625</ele>
        <time>2014-05-20T12:29:19Z</time>
      </trkpt>
      <trkpt lat="44.389744307845831" lon="5.610094126313925">
        <ele>960</ele>
        <time>2014-05-20T12:29:22Z</time>
      </trkpt>
      <trkpt lat="44.389612041413784" lon="5.61016864143312">
        <ele>958.79998779296875</ele>
        <time>2014-05-20T12:29:25Z</time>
      </trkpt>
      <trkpt lat="44.389465777203441" lon="5.610259836539626">
        <ele>957.5999755859375</ele>
        <time>2014-05-20T12:29:28Z</time>
      </trkpt>
      <trkpt lat="44.389289170503616" lon="5.610344912856817">
        <ele>957.5999755859375</ele>
        <time>2014-05-20T12:29:31Z</time>
      </trkpt>
      <trkpt lat="44.389156484976411" lon="5.610407525673509">
        <ele>956.5999755859375</ele>
        <time>2014-05-20T12:29:33Z</time>
      </trkpt>
      <trkpt lat="44.389016088098288" lon="5.610529230907559">
        <ele>955</ele>
        <time>2014-05-20T12:29:35Z</time>
      </trkpt>
      <trkpt lat="44.38886814750731" lon="5.6106929294765">
        <ele>952.5999755859375</ele>
        <time>2014-05-20T12:29:37Z</time>
      </trkpt>
      <trkpt lat="44.388715093955398" lon="5.610810611397028">
        <ele>950.79998779296875</ele>
        <time>2014-05-20T12:29:39Z</time>
      </trkpt>
      <trkpt lat="44.388484507799149" lon="5.610763756558299">
        <ele>950.20001220703125</ele>
        <time>2014-05-20T12:29:42Z</time>
      </trkpt>
      <trkpt lat="44.388361796736717" lon="5.610618330538273">
        <ele>949.5999755859375</ele>
        <time>2014-05-20T12:29:44Z</time>
      </trkpt>
      <trkpt lat="44.388307062909007" lon="5.610545575618744">
        <ele>949.5999755859375</ele>
        <time>2014-05-20T12:29:45Z</time>
      </trkpt>
      <trkpt lat="44.388192314654589" lon="5.610428312793374">
        <ele>950.20001220703125</ele>
        <time>2014-05-20T12:29:47Z</time>
      </trkpt>
      <trkpt lat="44.388074968010187" lon="5.610369723290205">
        <ele>950.4000244140625</ele>
        <time>2014-05-20T12:29:49Z</time>
      </trkpt>
      <trkpt lat="44.388023167848587" lon="5.610354384407401">
        <ele>950.5999755859375</ele>
        <time>2014-05-20T12:29:50Z</time>
      </trkpt>
      <trkpt lat="44.387975977733731" lon="5.610347427427769">
        <ele>951.20001220703125</ele>
        <time>2014-05-20T12:29:51Z</time>
      </trkpt>
      <trkpt lat="44.387931386008859" lon="5.610341560095549">
        <ele>951.5999755859375</ele>
        <time>2014-05-20T12:29:52Z</time>
      </trkpt>
      <trkpt lat="44.387891739606857" lon="5.610344745218754">
        <ele>952.20001220703125</ele>
        <time>2014-05-20T12:29:53Z</time>
      </trkpt>
      <trkpt lat="44.387854356318712" lon="5.610350277274847">
        <ele>952.79998779296875</ele>
        <time>2014-05-20T12:29:54Z</time>
      </trkpt>
      <trkpt lat="44.387732483446598" lon="5.610357150435448">
        <ele>953.20001220703125</ele>
        <time>2014-05-20T12:29:57Z</time>
      </trkpt>
      <trkpt lat="44.387687724083662" lon="5.610360587015748">
        <ele>953.20001220703125</ele>
        <time>2014-05-20T12:29:58Z</time>
      </trkpt>
      <trkpt lat="44.387508435174823" lon="5.610368130728602">
        <ele>953</ele>
        <time>2014-05-20T12:30:02Z</time>
      </trkpt>
      <trkpt lat="44.387384550645947" lon="5.610379949212074">
        <ele>953.20001220703125</ele>
        <time>2014-05-20T12:30:05Z</time>
      </trkpt>
      <trkpt lat="44.387298719957471" lon="5.61039486899972">
        <ele>953.4000244140625</ele>
        <time>2014-05-20T12:30:07Z</time>
      </trkpt>
      <trkpt lat="44.387056063860655" lon="5.610411046072841">
        <ele>952.20001220703125</ele>
        <time>2014-05-20T12:30:12Z</time>
      </trkpt>
      <trkpt lat="44.386725565418601" lon="5.61041884124279">
        <ele>951.79998779296875</ele>
        <time>2014-05-20T12:30:18Z</time>
      </trkpt>
      <trkpt lat="44.386666808277369" lon="5.61043300665915">
        <ele>951.4000244140625</ele>
        <time>2014-05-20T12:30:19Z</time>
      </trkpt>
      <trkpt lat="44.386396072804928" lon="5.610476844012737">
        <ele>950</ele>
        <time>2014-05-20T12:30:23Z</time>
      </trkpt>
      <trkpt lat="44.38630823045969" lon="5.610470976680517">
        <ele>948.79998779296875</ele>
        <time>2014-05-20T12:30:24Z</time>
      </trkpt>
      <trkpt lat="44.386214017868042" lon="5.610459912568331">
        <ele>947.4000244140625</ele>
        <time>2014-05-20T12:30:25Z</time>
      </trkpt>
      <trkpt lat="44.386114776134491" lon="5.610451195389032">
        <ele>946</ele>
        <time>2014-05-20T12:30:26Z</time>
      </trkpt>
      <trkpt lat="44.386010253801942" lon="5.610451782122254">
        <ele>944.5999755859375</ele>
        <time>2014-05-20T12:30:27Z</time>
      </trkpt>
      <trkpt lat="44.385901289060712" lon="5.610464354977012">
        <ele>943.4000244140625</ele>
        <time>2014-05-20T12:30:28Z</time>
      </trkpt>
      <trkpt lat="44.385789055377245" lon="5.610490087419748">
        <ele>942.20001220703125</ele>
        <time>2014-05-20T12:30:29Z</time>
      </trkpt>
      <trkpt lat="44.385674223303795" lon="5.610531661659479">
        <ele>940.5999755859375</ele>
        <time>2014-05-20T12:30:30Z</time>
      </trkpt>
      <trkpt lat="44.385557882487774" lon="5.610581366345286">
        <ele>938.4000244140625</ele>
        <time>2014-05-20T12:30:31Z</time>
      </trkpt>
      <trkpt lat="44.385328469797969" lon="5.610675076022744">
        <ele>936.79998779296875</ele>
        <time>2014-05-20T12:30:33Z</time>
      </trkpt>
      <trkpt lat="44.385096961632371" lon="5.610729139298201">
        <ele>935.20001220703125</ele>
        <time>2014-05-20T12:30:35Z</time>
      </trkpt>
      <trkpt lat="44.384989757090807" lon="5.610748920589685">
        <ele>935.4000244140625</ele>
        <time>2014-05-20T12:30:36Z</time>
      </trkpt>
      <trkpt lat="44.384789010509849" lon="5.610776580870152">
        <ele>936.5999755859375</ele>
        <time>2014-05-20T12:30:38Z</time>
      </trkpt>
      <trkpt lat="44.384618522599339" lon="5.61080189421773">
        <ele>938.4000244140625</ele>
        <time>2014-05-20T12:30:40Z</time>
      </trkpt>
      <trkpt lat="44.384479466825724" lon="5.610819747671485">
        <ele>940.20001220703125</ele>
        <time>2014-05-20T12:30:42Z</time>
      </trkpt>
      <trkpt lat="44.384419955313206" lon="5.610819244757295">
        <ele>941.4000244140625</ele>
        <time>2014-05-20T12:30:43Z</time>
      </trkpt>
      <trkpt lat="44.384364215657115" lon="5.610815389081836">
        <ele>942.4000244140625</ele>
        <time>2014-05-20T12:30:44Z</time>
      </trkpt>
      <trkpt lat="44.384314343333244" lon="5.610804492607713">
        <ele>943.20001220703125</ele>
        <time>2014-05-20T12:30:45Z</time>
      </trkpt>
      <trkpt lat="44.384268159046769" lon="5.610794434323907">
        <ele>943.79998779296875</ele>
        <time>2014-05-20T12:30:46Z</time>
      </trkpt>
      <trkpt lat="44.384183334186673" lon="5.610772222280502">
        <ele>944.5999755859375</ele>
        <time>2014-05-20T12:30:48Z</time>
      </trkpt>
      <trkpt lat="44.384142765775323" lon="5.610760068520904">
        <ele>944.79998779296875</ele>
        <time>2014-05-20T12:30:49Z</time>
      </trkpt>
      <trkpt lat="44.383971774950624" lon="5.61072519980371">
        <ele>945.4000244140625</ele>
        <time>2014-05-20T12:30:53Z</time>
      </trkpt>
      <trkpt lat="44.38388217240572" lon="5.610729642212391">
        <ele>945</ele>
        <time>2014-05-20T12:30:55Z</time>
      </trkpt>
      <trkpt lat="44.383792066946626" lon="5.610745316371322">
        <ele>945.20001220703125</ele>
        <time>2014-05-20T12:30:57Z</time>
      </trkpt>
      <trkpt lat="44.383616968989372" lon="5.610806755721569">
        <ele>945.79998779296875</ele>
        <time>2014-05-20T12:31:01Z</time>
      </trkpt>
      <trkpt lat="44.383574137464166" lon="5.610828967764974">
        <ele>946.20001220703125</ele>
        <time>2014-05-20T12:31:02Z</time>
      </trkpt>
      <trkpt lat="44.383307844400406" lon="5.610987553372979">
        <ele>946.5999755859375</ele>
        <time>2014-05-20T12:31:09Z</time>
      </trkpt>
      <trkpt lat="44.383124448359013" lon="5.611111018806696">
        <ele>947</ele>
        <time>2014-05-20T12:31:14Z</time>
      </trkpt>
      <trkpt lat="44.383052196353674" lon="5.611163154244423">
        <ele>947.4000244140625</ele>
        <time>2014-05-20T12:31:16Z</time>
      </trkpt>
      <trkpt lat="44.38294742256403" lon="5.611233143135905">
        <ele>948</ele>
        <time>2014-05-20T12:31:19Z</time>
      </trkpt>
      <trkpt lat="44.382763355970383" lon="5.611361218616366">
        <ele>947.79998779296875</ele>
        <time>2014-05-20T12:31:24Z</time>
      </trkpt>
      <trkpt lat="44.382368149235845" lon="5.6115529127419">
        <ele>947.4000244140625</ele>
        <time>2014-05-20T12:31:33Z</time>
      </trkpt>
      <trkpt lat="44.38200730830431" lon="5.611663637682796">
        <ele>948</ele>
        <time>2014-05-20T12:31:41Z</time>
      </trkpt>
      <trkpt lat="44.381716623902321" lon="5.611750222742558">
        <ele>948.4000244140625</ele>
        <time>2014-05-20T12:31:48Z</time>
      </trkpt>
      <trkpt lat="44.381395932286978" lon="5.611880477517843">
        <ele>947.4000244140625</ele>
        <time>2014-05-20T12:31:56Z</time>
      </trkpt>
      <trkpt lat="44.381046574562788" lon="5.612044343724847">
        <ele>948.4000244140625</ele>
        <time>2014-05-20T12:32:06Z</time>
      </trkpt>
      <trkpt lat="44.380899304524064" lon="5.612125732004643">
        <ele>949.20001220703125</ele>
        <time>2014-05-20T12:32:10Z</time>
      </trkpt>
      <trkpt lat="44.380751783028245" lon="5.612200666218996">
        <ele>948.4000244140625</ele>
        <time>2014-05-20T12:32:14Z</time>
      </trkpt>
      <trkpt lat="44.380714567378163" lon="5.61222086660564">
        <ele>948.4000244140625</ele>
        <time>2014-05-20T12:32:15Z</time>
      </trkpt>
      <trkpt lat="44.380676932632923" lon="5.612246096134186">
        <ele>948.20001220703125</ele>
        <time>2014-05-20T12:32:16Z</time>
      </trkpt>
      <trkpt lat="44.380541648715734" lon="5.612311977893114">
        <ele>947.4000244140625</ele>
        <time>2014-05-20T12:32:19Z</time>
      </trkpt>
      <trkpt lat="44.380491441115737" lon="5.612341230735183">
        <ele>946.5999755859375</ele>
        <time>2014-05-20T12:32:20Z</time>
      </trkpt>
      <trkpt lat="44.380438970401883" lon="5.612371824681759">
        <ele>945.4000244140625</ele>
        <time>2014-05-20T12:32:21Z</time>
      </trkpt>
      <trkpt lat="44.380326736718416" lon="5.612447932362557">
        <ele>944</ele>
        <time>2014-05-20T12:32:23Z</time>
      </trkpt>
      <trkpt lat="44.380269823595881" lon="5.612492356449366">
        <ele>943.79998779296875</ele>
        <time>2014-05-20T12:32:24Z</time>
      </trkpt>
      <trkpt lat="44.380100844427943" lon="5.61263233423233">
        <ele>942.79998779296875</ele>
        <time>2014-05-20T12:32:27Z</time>
      </trkpt>
      <trkpt lat="44.379918538033962" lon="5.612796870991588">
        <ele>941.20001220703125</ele>
        <time>2014-05-20T12:32:30Z</time>
      </trkpt>
      <trkpt lat="44.379553087055683" lon="5.613165255635977">
        <ele>940.20001220703125</ele>
        <time>2014-05-20T12:32:36Z</time>
      </trkpt>
      <trkpt lat="44.379489049315453" lon="5.613226527348161">
        <ele>940</ele>
        <time>2014-05-20T12:32:37Z</time>
      </trkpt>
      <trkpt lat="44.379423251375556" lon="5.613286541774869">
        <ele>939.20001220703125</ele>
        <time>2014-05-20T12:32:38Z</time>
      </trkpt>
      <trkpt lat="44.379160394892097" lon="5.613545877858996">
        <ele>937.79998779296875</ele>
        <time>2014-05-20T12:32:42Z</time>
      </trkpt>
      <trkpt lat="44.379095267504454" lon="5.613613687455654">
        <ele>936.5999755859375</ele>
        <time>2014-05-20T12:32:43Z</time>
      </trkpt>
      <trkpt lat="44.379030643031001" lon="5.613690298050642">
        <ele>935.5999755859375</ele>
        <time>2014-05-20T12:32:44Z</time>
      </trkpt>
      <trkpt lat="44.378966353833675" lon="5.613765902817249">
        <ele>934.79998779296875</ele>
        <time>2014-05-20T12:32:45Z</time>
      </trkpt>
      <trkpt lat="44.378837356343865" lon="5.613929685205221">
        <ele>933.5999755859375</ele>
        <time>2014-05-20T12:32:47Z</time>
      </trkpt>
      <trkpt lat="44.378703748807311" lon="5.614100340753794">
        <ele>932.4000244140625</ele>
        <time>2014-05-20T12:32:49Z</time>
      </trkpt>
      <trkpt lat="44.378630826249719" lon="5.614179885014892">
        <ele>932</ele>
        <time>2014-05-20T12:32:50Z</time>
      </trkpt>
      <trkpt lat="44.378387918695807" lon="5.614380547776818">
        <ele>931</ele>
        <time>2014-05-20T12:32:53Z</time>
      </trkpt>
      <trkpt lat="44.378303680568933" lon="5.61443829908967">
        <ele>930.5999755859375</ele>
        <time>2014-05-20T12:32:54Z</time>
      </trkpt>
      <trkpt lat="44.378130594268441" lon="5.614546928554773">
        <ele>928.5999755859375</ele>
        <time>2014-05-20T12:32:56Z</time>
      </trkpt>
      <trkpt lat="44.377953568473458" lon="5.614678021520376">
        <ele>927</ele>
        <time>2014-05-20T12:32:58Z</time>
      </trkpt>
      <trkpt lat="44.377863798290491" lon="5.614745412021875">
        <ele>925.79998779296875</ele>
        <time>2014-05-20T12:32:59Z</time>
      </trkpt>
      <trkpt lat="44.377774782478809" lon="5.614815400913358">
        <ele>924.5999755859375</ele>
        <time>2014-05-20T12:33:00Z</time>
      </trkpt>
      <trkpt lat="44.377599097788334" lon="5.61495034955442">
        <ele>923.4000244140625</ele>
        <time>2014-05-20T12:33:02Z</time>
      </trkpt>
      <trkpt lat="44.377246638759971" lon="5.61514338478446">
        <ele>924.5999755859375</ele>
        <time>2014-05-20T12:33:06Z</time>
      </trkpt>
      <trkpt lat="44.376871045678854" lon="5.615315800532699">
        <ele>924.20001220703125</ele>
        <time>2014-05-20T12:33:11Z</time>
      </trkpt>
      <trkpt lat="44.376689828932285" lon="5.615392830222845">
        <ele>924.4000244140625</ele>
        <time>2014-05-20T12:33:15Z</time>
      </trkpt>
      <trkpt lat="44.376575164496899" lon="5.615285374224186">
        <ele>924</ele>
        <time>2014-05-20T12:33:18Z</time>
      </trkpt>
      <trkpt lat="44.376514898613095" lon="5.615153610706329">
        <ele>922.5999755859375</ele>
        <time>2014-05-20T12:33:20Z</time>
      </trkpt>
      <trkpt lat="44.37648631632328" lon="5.615069037303329">
        <ele>921.79998779296875</ele>
        <time>2014-05-20T12:33:21Z</time>
      </trkpt>
      <trkpt lat="44.376453291624784" lon="5.614974237978458">
        <ele>921</ele>
        <time>2014-05-20T12:33:22Z</time>
      </trkpt>
      <trkpt lat="44.376417836174369" lon="5.614873738959432">
        <ele>920</ele>
        <time>2014-05-20T12:33:23Z</time>
      </trkpt>
      <trkpt lat="44.376340555027127" lon="5.614654719829559">
        <ele>917.79998779296875</ele>
        <time>2014-05-20T12:33:25Z</time>
      </trkpt>
      <trkpt lat="44.376303590834141" lon="5.614548940211535">
        <ele>916.79998779296875</ele>
        <time>2014-05-20T12:33:26Z</time>
      </trkpt>
      <trkpt lat="44.376265117898583" lon="5.614448776468635">
        <ele>915.5999755859375</ele>
        <time>2014-05-20T12:33:27Z</time>
      </trkpt>
      <trkpt lat="44.376187920570374" lon="5.614266050979495">
        <ele>914.20001220703125</ele>
        <time>2014-05-20T12:33:29Z</time>
      </trkpt>
      <trkpt lat="44.376094378530979" lon="5.61400294303894">
        <ele>912.5999755859375</ele>
        <time>2014-05-20T12:33:32Z</time>
      </trkpt>
      <trkpt lat="44.376075183972716" lon="5.613910490646958">
        <ele>912</ele>
        <time>2014-05-20T12:33:33Z</time>
      </trkpt>
      <trkpt lat="44.376072166487575" lon="5.613813009113073">
        <ele>911.4000244140625</ele>
        <time>2014-05-20T12:33:34Z</time>
      </trkpt>
      <trkpt lat="44.376105358824134" lon="5.613624164834619">
        <ele>910.4000244140625</ele>
        <time>2014-05-20T12:33:36Z</time>
      </trkpt>
      <trkpt lat="44.376133773475885" lon="5.613530958071351">
        <ele>909.79998779296875</ele>
        <time>2014-05-20T12:33:37Z</time>
      </trkpt>
      <trkpt lat="44.376161601394415" lon="5.613437164574862">
        <ele>909.20001220703125</ele>
        <time>2014-05-20T12:33:38Z</time>
      </trkpt>
      <trkpt lat="44.376238631084561" lon="5.613169949501753">
        <ele>909.20001220703125</ele>
        <time>2014-05-20T12:33:41Z</time>
      </trkpt>
      <trkpt lat="44.376295208930969" lon="5.613018069416285">
        <ele>909</ele>
        <time>2014-05-20T12:33:43Z</time>
      </trkpt>
      <trkpt lat="44.376356648281217" lon="5.61287809163332">
        <ele>907.79998779296875</ele>
        <time>2014-05-20T12:33:45Z</time>
      </trkpt>
      <trkpt lat="44.376389672979712" lon="5.612805923447013">
        <ele>907.20001220703125</ele>
        <time>2014-05-20T12:33:46Z</time>
      </trkpt>
      <trkpt lat="44.376425547525287" lon="5.61273543164134">
        <ele>906.5999755859375</ele>
        <time>2014-05-20T12:33:47Z</time>
      </trkpt>
      <trkpt lat="44.376485394313931" lon="5.612599812448025">
        <ele>905.5999755859375</ele>
        <time>2014-05-20T12:33:49Z</time>
      </trkpt>
      <trkpt lat="44.376545995473862" lon="5.612473245710135">
        <ele>904.5999755859375</ele>
        <time>2014-05-20T12:33:51Z</time>
      </trkpt>
      <trkpt lat="44.376572063192725" lon="5.612406609579921">
        <ele>904.4000244140625</ele>
        <time>2014-05-20T12:33:52Z</time>
      </trkpt>
      <trkpt lat="44.376632077619433" lon="5.612180633470416">
        <ele>903.20001220703125</ele>
        <time>2014-05-20T12:33:55Z</time>
      </trkpt>
      <trkpt lat="44.376668455079198" lon="5.612002350389957">
        <ele>902</ele>
        <time>2014-05-20T12:33:57Z</time>
      </trkpt>
      <trkpt lat="44.376697959378362" lon="5.61182021163404">
        <ele>901</ele>
        <time>2014-05-20T12:33:59Z</time>
      </trkpt>
      <trkpt lat="44.376729894429445" lon="5.61164335347712">
        <ele>899.5999755859375</ele>
        <time>2014-05-20T12:34:01Z</time>
      </trkpt>
      <trkpt lat="44.376757051795721" lon="5.611559618264437">
        <ele>899.20001220703125</ele>
        <time>2014-05-20T12:34:02Z</time>
      </trkpt>
      <trkpt lat="44.376789405941963" lon="5.611477894708514">
        <ele>898.79998779296875</ele>
        <time>2014-05-20T12:34:03Z</time>
      </trkpt>
      <trkpt lat="44.376830141991377" lon="5.611402709037066">
        <ele>898.4000244140625</ele>
        <time>2014-05-20T12:34:04Z</time>
      </trkpt>
      <trkpt lat="44.376925025135279" lon="5.611254097893834">
        <ele>897</ele>
        <time>2014-05-20T12:34:06Z</time>
      </trkpt>
      <trkpt lat="44.377014627680182" lon="5.611091069877148">
        <ele>896</ele>
        <time>2014-05-20T12:34:08Z</time>
      </trkpt>
      <trkpt lat="44.377123173326254" lon="5.61079753562808">
        <ele>895</ele>
        <time>2014-05-20T12:34:11Z</time>
      </trkpt>
      <trkpt lat="44.377153431996703" lon="5.610689576715231">
        <ele>894.20001220703125</ele>
        <time>2014-05-20T12:34:12Z</time>
      </trkpt>
      <trkpt lat="44.377184947952628" lon="5.610577929764986">
        <ele>893.79998779296875</ele>
        <time>2014-05-20T12:34:13Z</time>
      </trkpt>
      <trkpt lat="44.377298438921571" lon="5.610261596739292">
        <ele>892.5999755859375</ele>
        <time>2014-05-20T12:34:16Z</time>
      </trkpt>
      <trkpt lat="44.377396423369646" lon="5.610081469640136">
        <ele>892</ele>
        <time>2014-05-20T12:34:18Z</time>
      </trkpt>
      <trkpt lat="44.377565821632743" lon="5.60975817963481">
        <ele>892.20001220703125</ele>
        <time>2014-05-20T12:34:22Z</time>
      </trkpt>
      <trkpt lat="44.377581244334579" lon="5.609668577089906">
        <ele>892.20001220703125</ele>
        <time>2014-05-20T12:34:23Z</time>
      </trkpt>
      <trkpt lat="44.377512848004699" lon="5.609442433342338">
        <ele>891.5999755859375</ele>
        <time>2014-05-20T12:34:26Z</time>
      </trkpt>
      <trkpt lat="44.37735116109252" lon="5.609354004263878">
        <ele>890.5999755859375</ele>
        <time>2014-05-20T12:34:29Z</time>
      </trkpt>
      <trkpt lat="44.37718310393393" lon="5.609452659264207">
        <ele>888.79998779296875</ele>
        <time>2014-05-20T12:34:32Z</time>
      </trkpt>
      <trkpt lat="44.377087382599711" lon="5.609573610126972">
        <ele>887.5999755859375</ele>
        <time>2014-05-20T12:34:34Z</time>
      </trkpt>
      <trkpt lat="44.377040443941951" lon="5.609643682837486">
        <ele>887.20001220703125</ele>
        <time>2014-05-20T12:34:35Z</time>
      </trkpt>
      <trkpt lat="44.376994259655476" lon="5.609718030318618">
        <ele>886.5999755859375</ele>
        <time>2014-05-20T12:34:36Z</time>
      </trkpt>
      <trkpt lat="44.376885462552309" lon="5.609864043071866">
        <ele>885.5999755859375</ele>
        <time>2014-05-20T12:34:38Z</time>
      </trkpt>
      <trkpt lat="44.376820670440793" lon="5.609932187944651">
        <ele>885.20001220703125</ele>
        <time>2014-05-20T12:34:39Z</time>
      </trkpt>
      <trkpt lat="44.376753447577357" lon="5.610003853216767">
        <ele>884.4000244140625</ele>
        <time>2014-05-20T12:34:40Z</time>
      </trkpt>
      <trkpt lat="44.376681866124272" lon="5.610075183212757">
        <ele>883.20001220703125</ele>
        <time>2014-05-20T12:34:41Z</time>
      </trkpt>
      <trkpt lat="44.376612547785044" lon="5.61015204526484">
        <ele>882</ele>
        <time>2014-05-20T12:34:42Z</time>
      </trkpt>
      <trkpt lat="44.37647650949657" lon="5.610305517911911">
        <ele>880.4000244140625</ele>
        <time>2014-05-20T12:34:44Z</time>
      </trkpt>
      <trkpt lat="44.376352960243821" lon="5.610472736880183">
        <ele>879.20001220703125</ele>
        <time>2014-05-20T12:34:46Z</time>
      </trkpt>
      <trkpt lat="44.376240726560354" lon="5.610661916434765">
        <ele>877.79998779296875</ele>
        <time>2014-05-20T12:34:48Z</time>
      </trkpt>
      <trkpt lat="44.376135198399425" lon="5.610877331346273">
        <ele>876.79998779296875</ele>
        <time>2014-05-20T12:34:50Z</time>
      </trkpt>
      <trkpt lat="44.37608222477138" lon="5.610991911962628">
        <ele>875.5999755859375</ele>
        <time>2014-05-20T12:34:51Z</time>
      </trkpt>
      <trkpt lat="44.376029083505273" lon="5.611108168959618">
        <ele>874.20001220703125</ele>
        <time>2014-05-20T12:34:52Z</time>
      </trkpt>
      <trkpt lat="44.375921878963709" lon="5.611349819228053">
        <ele>873</ele>
        <time>2014-05-20T12:34:54Z</time>
      </trkpt>
      <trkpt lat="44.375802604481578" lon="5.611599599942565">
        <ele>870.79998779296875</ele>
        <time>2014-05-20T12:34:56Z</time>
      </trkpt>
      <trkpt lat="44.375743176788092" lon="5.611727675423026">
        <ele>870.4000244140625</ele>
        <time>2014-05-20T12:34:57Z</time>
      </trkpt>
      <trkpt lat="44.37568349763751" lon="5.6118568405509">
        <ele>869.4000244140625</ele>
        <time>2014-05-20T12:34:58Z</time>
      </trkpt>
      <trkpt lat="44.37562482431531" lon="5.611984161660075">
        <ele>868.20001220703125</ele>
        <time>2014-05-20T12:34:59Z</time>
      </trkpt>
      <trkpt lat="44.375512339174747" lon="5.612235954031348">
        <ele>866.5999755859375</ele>
        <time>2014-05-20T12:35:01Z</time>
      </trkpt>
      <trkpt lat="44.375348389148712" lon="5.612584138289094">
        <ele>865.4000244140625</ele>
        <time>2014-05-20T12:35:04Z</time>
      </trkpt>
      <trkpt lat="44.375160299241543" lon="5.612917570397258">
        <ele>864.4000244140625</ele>
        <time>2014-05-20T12:35:07Z</time>
      </trkpt>
      <trkpt lat="44.375079162418842" lon="5.6130017247051">
        <ele>864</ele>
        <time>2014-05-20T12:35:08Z</time>
      </trkpt>
      <trkpt lat="44.374996181577444" lon="5.613083280622959">
        <ele>863.20001220703125</ele>
        <time>2014-05-20T12:35:09Z</time>
      </trkpt>
      <trkpt lat="44.37490900978446" lon="5.613147066906095">
        <ele>861.79998779296875</ele>
        <time>2014-05-20T12:35:10Z</time>
      </trkpt>
      <trkpt lat="44.374821586534381" lon="5.613212026655674">
        <ele>860.4000244140625</ele>
        <time>2014-05-20T12:35:11Z</time>
      </trkpt>
      <trkpt lat="44.374733408913016" lon="5.613272879272699">
        <ele>859.4000244140625</ele>
        <time>2014-05-20T12:35:12Z</time>
      </trkpt>
      <trkpt lat="44.374651350080967" lon="5.613335156813264">
        <ele>858.79998779296875</ele>
        <time>2014-05-20T12:35:13Z</time>
      </trkpt>
      <trkpt lat="44.374499805271626" lon="5.613460717722774">
        <ele>857.20001220703125</ele>
        <time>2014-05-20T12:35:15Z</time>
      </trkpt>
      <trkpt lat="44.374350439757109" lon="5.613581836223602">
        <ele>856</ele>
        <time>2014-05-20T12:35:17Z</time>
      </trkpt>
      <trkpt lat="44.374268129467964" lon="5.61362131498754">
        <ele>855.4000244140625</ele>
        <time>2014-05-20T12:35:18Z</time>
      </trkpt>
      <trkpt lat="44.374096719548106" lon="5.613628523424268">
        <ele>854</ele>
        <time>2014-05-20T12:35:20Z</time>
      </trkpt>
      <trkpt lat="44.373932685703039" lon="5.613585440441966">
        <ele>853.5999755859375</ele>
        <time>2014-05-20T12:35:22Z</time>
      </trkpt>
      <trkpt lat="44.373774938285351" lon="5.613573202863336">
        <ele>853.79998779296875</ele>
        <time>2014-05-20T12:35:24Z</time>
      </trkpt>
      <trkpt lat="44.373551895841956" lon="5.613671103492379">
        <ele>853.5999755859375</ele>
        <time>2014-05-20T12:35:27Z</time>
      </trkpt>
      <trkpt lat="44.373410074040294" lon="5.613739164546132">
        <ele>853.20001220703125</ele>
        <time>2014-05-20T12:35:29Z</time>
      </trkpt>
      <trkpt lat="44.37327110208571" lon="5.613807057961822">
        <ele>852.79998779296875</ele>
        <time>2014-05-20T12:35:31Z</time>
      </trkpt>
      <trkpt lat="44.373134477064013" lon="5.613864893093705">
        <ele>852.4000244140625</ele>
        <time>2014-05-20T12:35:33Z</time>
      </trkpt>
      <trkpt lat="44.372722422704101" lon="5.613921219483018">
        <ele>852.4000244140625</ele>
        <time>2014-05-20T12:35:39Z</time>
      </trkpt>
      <trkpt lat="44.372465014457703" lon="5.613928260281682">
        <ele>851.79998779296875</ele>
        <time>2014-05-20T12:35:43Z</time>
      </trkpt>
      <trkpt lat="44.372339956462383" lon="5.61391250230372">
        <ele>851.79998779296875</ele>
        <time>2014-05-20T12:35:45Z</time>
      </trkpt>
      <trkpt lat="44.37227918766439" lon="5.613895738497376">
        <ele>852</ele>
        <time>2014-05-20T12:35:46Z</time>
      </trkpt>
      <trkpt lat="44.372031586244702" lon="5.613871430978179">
        <ele>851.20001220703125</ele>
        <time>2014-05-20T12:35:50Z</time>
      </trkpt>
      <trkpt lat="44.371970733627677" lon="5.613896492868662">
        <ele>851.20001220703125</ele>
        <time>2014-05-20T12:35:51Z</time>
      </trkpt>
      <trkpt lat="44.371801503002644" lon="5.614011408761144">
        <ele>850.5999755859375</ele>
        <time>2014-05-20T12:35:54Z</time>
      </trkpt>
      <trkpt lat="44.371690275147557" lon="5.614114757627249">
        <ele>850</ele>
        <time>2014-05-20T12:35:56Z</time>
      </trkpt>
      <trkpt lat="44.37158533371985" lon="5.614213915541768">
        <ele>849.5999755859375</ele>
        <time>2014-05-20T12:35:58Z</time>
      </trkpt>
      <trkpt lat="44.371376959607005" lon="5.614406950771809">
        <ele>848.5999755859375</ele>
        <time>2014-05-20T12:36:02Z</time>
      </trkpt>
      <trkpt lat="44.371320800855756" lon="5.614447267726064">
        <ele>848.4000244140625</ele>
        <time>2014-05-20T12:36:03Z</time>
      </trkpt>
      <trkpt lat="44.371020896360278" lon="5.614665700122714">
        <ele>846.4000244140625</ele>
        <time>2014-05-20T12:36:08Z</time>
      </trkpt>
      <trkpt lat="44.370602387934923" lon="5.614862171933055">
        <ele>846.5999755859375</ele>
        <time>2014-05-20T12:36:14Z</time>
      </trkpt>
      <trkpt lat="44.370369454845786" lon="5.61495034955442">
        <ele>845.20001220703125</ele>
        <time>2014-05-20T12:36:17Z</time>
      </trkpt>
      <trkpt lat="44.370119171217084" lon="5.615005251020193">
        <ele>843.5999755859375</ele>
        <time>2014-05-20T12:36:20Z</time>
      </trkpt>
      <trkpt lat="44.370030742138624" lon="5.61501438729465">
        <ele>842.79998779296875</ele>
        <time>2014-05-20T12:36:21Z</time>
      </trkpt>
      <trkpt lat="44.369942145422101" lon="5.615024613216519">
        <ele>842</ele>
        <time>2014-05-20T12:36:22Z</time>
      </trkpt>
      <trkpt lat="44.369671661406755" lon="5.615047328174114">
        <ele>840.79998779296875</ele>
        <time>2014-05-20T12:36:25Z</time>
      </trkpt>
      <trkpt lat="44.369293386116624" lon="5.61507984995842">
        <ele>839.4000244140625</ele>
        <time>2014-05-20T12:36:29Z</time>
      </trkpt>
      <trkpt lat="44.369205879047513" lon="5.61510231345892">
        <ele>839</ele>
        <time>2014-05-20T12:36:30Z</time>
      </trkpt>
      <trkpt lat="44.36898778192699" lon="5.615184623748064">
        <ele>838.4000244140625</ele>
        <time>2014-05-20T12:36:33Z</time>
      </trkpt>
      <trkpt lat="44.36877672560513" lon="5.615129387006164">
        <ele>837.4000244140625</ele>
        <time>2014-05-20T12:36:36Z</time>
      </trkpt>
      <trkpt lat="44.368641693145037" lon="5.614991756156087">
        <ele>835.20001220703125</ele>
        <time>2014-05-20T12:36:38Z</time>
      </trkpt>
      <trkpt lat="44.368569105863571" lon="5.614916570484638">
        <ele>834</ele>
        <time>2014-05-20T12:36:39Z</time>
      </trkpt>
      <trkpt lat="44.3684898968786" lon="5.614848341792822">
        <ele>832.5999755859375</ele>
        <time>2014-05-20T12:36:40Z</time>
      </trkpt>
      <trkpt lat="44.368409430608153" lon="5.614790003746748">
        <ele>831.4000244140625</ele>
        <time>2014-05-20T12:36:41Z</time>
      </trkpt>
      <trkpt lat="44.36825537122786" lon="5.614678356796503">
        <ele>830.5999755859375</ele>
        <time>2014-05-20T12:36:43Z</time>
      </trkpt>
      <trkpt lat="44.368195021525025" lon="5.614602835848928">
        <ele>830.20001220703125</ele>
        <time>2014-05-20T12:36:44Z</time>
      </trkpt>
      <trkpt lat="44.368121596053243" lon="5.614413572475314">
        <ele>828.5999755859375</ele>
        <time>2014-05-20T12:36:46Z</time>
      </trkpt>
      <trkpt lat="44.368069628253579" lon="5.614228416234255">
        <ele>827.5999755859375</ele>
        <time>2014-05-20T12:36:48Z</time>
      </trkpt>
      <trkpt lat="44.367961753159761" lon="5.61395600438118">
        <ele>826.20001220703125</ele>
        <time>2014-05-20T12:36:51Z</time>
      </trkpt>
      <trkpt lat="44.367864774540067" lon="5.613785851746798">
        <ele>824.20001220703125</ele>
        <time>2014-05-20T12:36:53Z</time>
      </trkpt>
      <trkpt lat="44.367694957181811" lon="5.613518636673689">
        <ele>823</ele>
        <time>2014-05-20T12:36:56Z</time>
      </trkpt>
      <trkpt lat="44.36762941069901" lon="5.613427944481373">
        <ele>821.79998779296875</ele>
        <time>2014-05-20T12:36:57Z</time>
      </trkpt>
      <trkpt lat="44.367482308298349" lon="5.613244716078043">
        <ele>820.20001220703125</ele>
        <time>2014-05-20T12:36:59Z</time>
      </trkpt>
      <trkpt lat="44.367313161492348" lon="5.61306525953114">
        <ele>818.20001220703125</ele>
        <time>2014-05-20T12:37:01Z</time>
      </trkpt>
      <trkpt lat="44.367150133475661" lon="5.612876415252686">
        <ele>816.5999755859375</ele>
        <time>2014-05-20T12:37:03Z</time>
      </trkpt>
      <trkpt lat="44.366960870102048" lon="5.612553125247359">
        <ele>815.5999755859375</ele>
        <time>2014-05-20T12:37:06Z</time>
      </trkpt>
      <trkpt lat="44.366832040250301" lon="5.612339386716485">
        <ele>814</ele>
        <time>2014-05-20T12:37:08Z</time>
      </trkpt>
      <trkpt lat="44.36675232835114" lon="5.612257076427341">
        <ele>812.79998779296875</ele>
        <time>2014-05-20T12:37:09Z</time>
      </trkpt>
      <trkpt lat="44.366660211235285" lon="5.612191697582603">
        <ele>811.79998779296875</ele>
        <time>2014-05-20T12:37:10Z</time>
      </trkpt>
      <trkpt lat="44.36656222678721" lon="5.612144088372588">
        <ele>811</ele>
        <time>2014-05-20T12:37:11Z</time>
      </trkpt>
      <trkpt lat="44.366353936493397" lon="5.612071165814996">
        <ele>810</ele>
        <time>2014-05-20T12:37:13Z</time>
      </trkpt>
      <trkpt lat="44.366243295371532" lon="5.612039314582944">
        <ele>809.4000244140625</ele>
        <time>2014-05-20T12:37:14Z</time>
      </trkpt>
      <trkpt lat="44.366133995354176" lon="5.611998829990625">
        <ele>808.4000244140625</ele>
        <time>2014-05-20T12:37:15Z</time>
      </trkpt>
      <trkpt lat="44.365919586271048" lon="5.611926158890128">
        <ele>806.5999755859375</ele>
        <time>2014-05-20T12:37:17Z</time>
      </trkpt>
      <trkpt lat="44.365816572681069" lon="5.611890619620681">
        <ele>805.79998779296875</ele>
        <time>2014-05-20T12:37:18Z</time>
      </trkpt>
      <trkpt lat="44.365713642910123" lon="5.611853152513504">
        <ele>805.20001220703125</ele>
        <time>2014-05-20T12:37:19Z</time>
      </trkpt>
      <trkpt lat="44.365503005683422" lon="5.611759945750237">
        <ele>803</ele>
        <time>2014-05-20T12:37:21Z</time>
      </trkpt>
      <trkpt lat="44.365400746464729" lon="5.611694063991308">
        <ele>802</ele>
        <time>2014-05-20T12:37:22Z</time>
      </trkpt>
      <trkpt lat="44.365304606035352" lon="5.611612256616354">
        <ele>800.79998779296875</ele>
        <time>2014-05-20T12:37:23Z</time>
      </trkpt>
      <trkpt lat="44.365079132840037" lon="5.611267341300845">
        <ele>799.79998779296875</ele>
        <time>2014-05-20T12:37:26Z</time>
      </trkpt>
      <trkpt lat="44.364976873621345" lon="5.610987050458789">
        <ele>798.5999755859375</ele>
        <time>2014-05-20T12:37:28Z</time>
      </trkpt>
      <trkpt lat="44.364873608574271" lon="5.610707513988018">
        <ele>797.5999755859375</ele>
        <time>2014-05-20T12:37:30Z</time>
      </trkpt>
      <trkpt lat="44.364823652431369" lon="5.610568625852466">
        <ele>797.4000244140625</ele>
        <time>2014-05-20T12:37:31Z</time>
      </trkpt>
      <trkpt lat="44.36472256667912" lon="5.610296297818422">
        <ele>795.79998779296875</ele>
        <time>2014-05-20T12:37:33Z</time>
      </trkpt>
      <trkpt lat="44.364498015493155" lon="5.609784498810768">
        <ele>794.4000244140625</ele>
        <time>2014-05-20T12:37:37Z</time>
      </trkpt>
      <trkpt lat="44.364366168156266" lon="5.60954418964684">
        <ele>793.20001220703125</ele>
        <time>2014-05-20T12:37:39Z</time>
      </trkpt>
      <trkpt lat="44.364232057705522" lon="5.609305305406451">
        <ele>792.20001220703125</ele>
        <time>2014-05-20T12:37:41Z</time>
      </trkpt>
      <trkpt lat="44.364015469327569" lon="5.608953516930342">
        <ele>790.5999755859375</ele>
        <time>2014-05-20T12:37:44Z</time>
      </trkpt>
      <trkpt lat="44.36393634416163" lon="5.608847318217158">
        <ele>789.5999755859375</ele>
        <time>2014-05-20T12:37:45Z</time>
      </trkpt>
      <trkpt lat="44.363856548443437" lon="5.608744053170085">
        <ele>789.20001220703125</ele>
        <time>2014-05-20T12:37:46Z</time>
      </trkpt>
      <trkpt lat="44.363701231777668" lon="5.608527967706323">
        <ele>788.20001220703125</ele>
        <time>2014-05-20T12:37:48Z</time>
      </trkpt>
      <trkpt lat="44.363485984504223" lon="5.608179112896323">
        <ele>786.5999755859375</ele>
        <time>2014-05-20T12:37:51Z</time>
      </trkpt>
      <trkpt lat="44.363361429423094" lon="5.607934361323714">
        <ele>784.79998779296875</ele>
        <time>2014-05-20T12:37:53Z</time>
      </trkpt>
      <trkpt lat="44.363169483840466" lon="5.60759992338717">
        <ele>783.79998779296875</ele>
        <time>2014-05-20T12:37:56Z</time>
      </trkpt>
      <trkpt lat="44.363099243491888" lon="5.607507973909378">
        <ele>783.20001220703125</ele>
        <time>2014-05-20T12:37:57Z</time>
      </trkpt>
      <trkpt lat="44.362728176638484" lon="5.607116455212236">
        <ele>784.5999755859375</ele>
        <time>2014-05-20T12:38:02Z</time>
      </trkpt>
      <trkpt lat="44.3624182138592" lon="5.606808755546808">
        <ele>785</ele>
        <time>2014-05-20T12:38:07Z</time>
      </trkpt>
      <trkpt lat="44.36222811229527" lon="5.60655034147203">
        <ele>784.4000244140625</ele>
        <time>2014-05-20T12:38:12Z</time>
      </trkpt>
      <trkpt lat="44.362144377082586" lon="5.606430061161518">
        <ele>783.79998779296875</ele>
        <time>2014-05-20T12:38:14Z</time>
      </trkpt>
      <trkpt lat="44.362006997689605" lon="5.606230404227972">
        <ele>782.4000244140625</ele>
        <time>2014-05-20T12:38:17Z</time>
      </trkpt>
      <trkpt lat="44.361903565004468" lon="5.606112889945507">
        <ele>782.4000244140625</ele>
        <time>2014-05-20T12:38:19Z</time>
      </trkpt>
      <trkpt lat="44.361723521724343" lon="5.605979366227984">
        <ele>781.20001220703125</ele>
        <time>2014-05-20T12:38:22Z</time>
      </trkpt>
      <trkpt lat="44.361387994140387" lon="5.605885069817305">
        <ele>780</ele>
        <time>2014-05-20T12:38:27Z</time>
      </trkpt>
      <trkpt lat="44.361197473481297" lon="5.60580569319427">
        <ele>779.20001220703125</ele>
        <time>2014-05-20T12:38:30Z</time>
      </trkpt>
      <trkpt lat="44.361134273931384" lon="5.60577929019928">
        <ele>779</ele>
        <time>2014-05-20T12:38:31Z</time>
      </trkpt>
      <trkpt lat="44.361073086038232" lon="5.60574559494853">
        <ele>778.5999755859375</ele>
        <time>2014-05-20T12:38:32Z</time>
      </trkpt>
      <trkpt lat="44.360955152660608" lon="5.605661440640688">
        <ele>777.79998779296875</ele>
        <time>2014-05-20T12:38:34Z</time>
      </trkpt>
      <trkpt lat="44.360708054155111" lon="5.605518529191613">
        <ele>777.79998779296875</ele>
        <time>2014-05-20T12:38:38Z</time>
      </trkpt>
      <trkpt lat="44.36042457818985" lon="5.605385927483439">
        <ele>777.4000244140625</ele>
        <time>2014-05-20T12:38:43Z</time>
      </trkpt>
      <trkpt lat="44.360142778605223" lon="5.60530973598361">
        <ele>777.4000244140625</ele>
        <time>2014-05-20T12:38:49Z</time>
      </trkpt>
      <trkpt lat="44.359999615699053" lon="5.605297079309821">
        <ele>778</ele>
        <time>2014-05-20T12:38:54Z</time>
      </trkpt>
      <trkpt lat="44.359954269602895" lon="5.605344353243709">
        <ele>778.4000244140625</ele>
        <time>2014-05-20T12:38:57Z</time>
      </trkpt>
      <trkpt lat="44.359943708404899" lon="5.605367738753557">
        <ele>778.4000244140625</ele>
        <time>2014-05-20T12:38:58Z</time>
      </trkpt>
      <trkpt lat="44.359915796667337" lon="5.605476703494787">
        <ele>777.4000244140625</ele>
        <time>2014-05-20T12:39:01Z</time>
      </trkpt>
      <trkpt lat="44.35989492572844" lon="5.605561444535852">
        <ele>777</ele>
        <time>2014-05-20T12:39:03Z</time>
      </trkpt>
      <trkpt lat="44.359880425035954" lon="5.605605281889439">
        <ele>776.5999755859375</ele>
        <time>2014-05-20T12:39:04Z</time>
      </trkpt>
      <trkpt lat="44.359806161373854" lon="5.605791192501783">
        <ele>776.20001220703125</ele>
        <time>2014-05-20T12:39:09Z</time>
      </trkpt>
      <trkpt lat="44.359753355383873" lon="5.605954891070724">
        <ele>776.79998779296875</ele>
        <time>2014-05-20T12:39:13Z</time>
      </trkpt>
      <trkpt lat="44.359678169712424" lon="5.606260998174548">
        <ele>776.79998779296875</ele>
        <time>2014-05-20T12:39:20Z</time>
      </trkpt>
      <trkpt lat="44.359565349295735" lon="5.606534415856004">
        <ele>777</ele>
        <time>2014-05-20T12:39:27Z</time>
      </trkpt>
      <trkpt lat="44.359441297128797" lon="5.606740107759833">
        <ele>776.79998779296875</ele>
        <time>2014-05-20T12:39:33Z</time>
      </trkpt>
      <trkpt lat="44.359282879158854" lon="5.606958121061325">
        <ele>776.20001220703125</ele>
        <time>2014-05-20T12:39:39Z</time>
      </trkpt>
      <trkpt lat="44.359089341014624" lon="5.607223324477673">
        <ele>775.4000244140625</ele>
        <time>2014-05-20T12:39:45Z</time>
      </trkpt>
      <trkpt lat="44.359056064859033" lon="5.607280991971493">
        <ele>775</ele>
        <time>2014-05-20T12:39:46Z</time>
      </trkpt>
      <trkpt lat="44.358946681022644" lon="5.607538735494018">
        <ele>775</ele>
        <time>2014-05-20T12:39:50Z</time>
      </trkpt>
      <trkpt lat="44.358903178945184" lon="5.607740320265293">
        <ele>775.20001220703125</ele>
        <time>2014-05-20T12:39:53Z</time>
      </trkpt>
      <trkpt lat="44.358867136761546" lon="5.608002590015531">
        <ele>775.20001220703125</ele>
        <time>2014-05-20T12:39:57Z</time>
      </trkpt>
      <trkpt lat="44.35886487364769" lon="5.60806998051703">
        <ele>775.20001220703125</ele>
        <time>2014-05-20T12:39:58Z</time>
      </trkpt>
      <trkpt lat="44.358861520886421" lon="5.608139131218195">
        <ele>775.4000244140625</ele>
        <time>2014-05-20T12:39:59Z</time>
      </trkpt>
      <trkpt lat="44.35886244289577" lon="5.608490081503987">
        <ele>775.79998779296875</ele>
        <time>2014-05-20T12:40:04Z</time>
      </trkpt>
      <trkpt lat="44.358872249722481" lon="5.608618156984448">
        <ele>775.5999755859375</ele>
        <time>2014-05-20T12:40:06Z</time>
      </trkpt>
      <trkpt lat="44.358871411532164" lon="5.608681943267584">
        <ele>775.20001220703125</ele>
        <time>2014-05-20T12:40:07Z</time>
      </trkpt>
      <trkpt lat="44.358862778171897" lon="5.608996767550707">
        <ele>775</ele>
        <time>2014-05-20T12:40:12Z</time>
      </trkpt>
      <trkpt lat="44.358823550865054" lon="5.609435476362705">
        <ele>776.20001220703125</ele>
        <time>2014-05-20T12:40:19Z</time>
      </trkpt>
      <trkpt lat="44.358818689361215" lon="5.60949825681746">
        <ele>776.4000244140625</ele>
        <time>2014-05-20T12:40:20Z</time>
      </trkpt>
      <trkpt lat="44.358818689361215" lon="5.609562210738659">
        <ele>776.4000244140625</ele>
        <time>2014-05-20T12:40:21Z</time>
      </trkpt>
      <trkpt lat="44.35884241014719" lon="5.609825821593404">
        <ele>776.79998779296875</ele>
        <time>2014-05-20T12:40:25Z</time>
      </trkpt>
      <trkpt lat="44.358895048499107" lon="5.610281461849809">
        <ele>777</ele>
        <time>2014-05-20T12:40:32Z</time>
      </trkpt>
      <trkpt lat="44.358944417908788" lon="5.610718997195363">
        <ele>777</ele>
        <time>2014-05-20T12:40:39Z</time>
      </trkpt>
      <trkpt lat="44.359007198363543" lon="5.611160472035408">
        <ele>776.4000244140625</ele>
        <time>2014-05-20T12:40:46Z</time>
      </trkpt>
      <trkpt lat="44.359024045988917" lon="5.611223671585321">
        <ele>776.4000244140625</ele>
        <time>2014-05-20T12:40:47Z</time>
      </trkpt>
      <trkpt lat="44.359097806736827" lon="5.611559031531215">
        <ele>775.5999755859375</ele>
        <time>2014-05-20T12:40:52Z</time>
      </trkpt>
      <trkpt lat="44.359131250530481" lon="5.611702278256416">
        <ele>775.4000244140625</ele>
        <time>2014-05-20T12:40:54Z</time>
      </trkpt>
      <trkpt lat="44.359214315190911" lon="5.612068567425013">
        <ele>774.4000244140625</ele>
        <time>2014-05-20T12:40:59Z</time>
      </trkpt>
      <trkpt lat="44.359225379303098" lon="5.612143334001303">
        <ele>774.20001220703125</ele>
        <time>2014-05-20T12:41:00Z</time>
      </trkpt>
      <trkpt lat="44.359224960207939" lon="5.612218603491783">
        <ele>774.20001220703125</ele>
        <time>2014-05-20T12:41:01Z</time>
      </trkpt>
      <trkpt lat="44.359186738729477" lon="5.612529153004289">
        <ele>773.79998779296875</ele>
        <time>2014-05-20T12:41:05Z</time>
      </trkpt>
      <trkpt lat="44.359166538342834" lon="5.612612133845687">
        <ele>773.4000244140625</ele>
        <time>2014-05-20T12:41:06Z</time>
      </trkpt>
      <trkpt lat="44.359147679060698" lon="5.612780442461371">
        <ele>773.20001220703125</ele>
        <time>2014-05-20T12:41:08Z</time>
      </trkpt>
      <trkpt lat="44.359156731516123" lon="5.612959144636989">
        <ele>772.20001220703125</ele>
        <time>2014-05-20T12:41:10Z</time>
      </trkpt>
      <trkpt lat="44.359176428988576" lon="5.613056123256683">
        <ele>771.5999755859375</ele>
        <time>2014-05-20T12:41:11Z</time>
      </trkpt>
      <trkpt lat="44.35924893245101" lon="5.613237759098411">
        <ele>770.4000244140625</ele>
        <time>2014-05-20T12:41:13Z</time>
      </trkpt>
      <trkpt lat="44.359291680157185" lon="5.613318476825953">
        <ele>769.79998779296875</ele>
        <time>2014-05-20T12:41:14Z</time>
      </trkpt>
      <trkpt lat="44.35938379727304" lon="5.613472871482372">
        <ele>769.20001220703125</ele>
        <time>2014-05-20T12:41:16Z</time>
      </trkpt>
      <trkpt lat="44.35959099791944" lon="5.613763723522425">
        <ele>768.20001220703125</ele>
        <time>2014-05-20T12:41:20Z</time>
      </trkpt>
      <trkpt lat="44.359643803909421" lon="5.613826168701053">
        <ele>768</ele>
        <time>2014-05-20T12:41:21Z</time>
      </trkpt>
      <trkpt lat="44.35974589549005" lon="5.613957596942782">
        <ele>768.79998779296875</ele>
        <time>2014-05-20T12:41:24Z</time>
      </trkpt>
      <trkpt lat="44.359751176089048" lon="5.613965559750795">
        <ele>769.20001220703125</ele>
        <time>2014-05-20T12:41:25Z</time>
      </trkpt>
      <trkpt lat="44.359753439202905" lon="5.613980982452631">
        <ele>769.4000244140625</ele>
        <time>2014-05-20T12:43:29Z</time>
      </trkpt>
      <trkpt lat="44.359863409772515" lon="5.614174604415894">
        <ele>768.4000244140625</ele>
        <time>2014-05-20T12:43:35Z</time>
      </trkpt>
      <trkpt lat="44.359930548816919" lon="5.614331094548106">
        <ele>768</ele>
        <time>2014-05-20T12:43:39Z</time>
      </trkpt>
      <trkpt lat="44.359961561858654" lon="5.614417009055615">
        <ele>767.79998779296875</ele>
        <time>2014-05-20T12:43:41Z</time>
      </trkpt>
      <trkpt lat="44.360032472759485" lon="5.614697718992829">
        <ele>767.5999755859375</ele>
        <time>2014-05-20T12:43:46Z</time>
      </trkpt>
      <trkpt lat="44.360059294849634" lon="5.614921348169446">
        <ele>767</ele>
        <time>2014-05-20T12:43:49Z</time>
      </trkpt>
      <trkpt lat="44.360053762793541" lon="5.61514925211668">
        <ele>766.79998779296875</ele>
        <time>2014-05-20T12:43:52Z</time>
      </trkpt>
      <trkpt lat="44.360038423910737" lon="5.615226365625858">
        <ele>766.79998779296875</ele>
        <time>2014-05-20T12:43:53Z</time>
      </trkpt>
      <trkpt lat="44.360003806650639" lon="5.615530796349049">
        <ele>766.20001220703125</ele>
        <time>2014-05-20T12:43:57Z</time>
      </trkpt>
      <trkpt lat="44.359990479424596" lon="5.615878729149699">
        <ele>765.79998779296875</ele>
        <time>2014-05-20T12:44:01Z</time>
      </trkpt>
      <trkpt lat="44.35997212305665" lon="5.616078218445182">
        <ele>764.5999755859375</ele>
        <time>2014-05-20T12:44:03Z</time>
      </trkpt>
      <trkpt lat="44.359869696199894" lon="5.616666041314602">
        <ele>763.79998779296875</ele>
        <time>2014-05-20T12:44:09Z</time>
      </trkpt>
      <trkpt lat="44.359736926853657" lon="5.617422005161643">
        <ele>763.5999755859375</ele>
        <time>2014-05-20T12:44:17Z</time>
      </trkpt>
      <trkpt lat="44.359750421717763" lon="5.618132036179304">
        <ele>763.5999755859375</ele>
        <time>2014-05-20T12:44:24Z</time>
      </trkpt>
      <trkpt lat="44.359889477491379" lon="5.618829829618335">
        <ele>762.79998779296875</ele>
        <time>2014-05-20T12:44:31Z</time>
      </trkpt>
      <trkpt lat="44.359910348430276" lon="5.618931921198964">
        <ele>762.5999755859375</ele>
        <time>2014-05-20T12:44:32Z</time>
      </trkpt>
      <trkpt lat="44.360063821077347" lon="5.619644299149513">
        <ele>761.5999755859375</ele>
        <time>2014-05-20T12:44:39Z</time>
      </trkpt>
      <trkpt lat="44.360094834119081" lon="5.619744127616286">
        <ele>761.4000244140625</ele>
        <time>2014-05-20T12:44:40Z</time>
      </trkpt>
      <trkpt lat="44.360285019502044" lon="5.620224662125111">
        <ele>760.5999755859375</ele>
        <time>2014-05-20T12:44:45Z</time>
      </trkpt>
      <trkpt lat="44.360328605398536" lon="5.620320802554488">
        <ele>760.20001220703125</ele>
        <time>2014-05-20T12:44:46Z</time>
      </trkpt>
      <trkpt lat="44.360548546537757" lon="5.620809970423579">
        <ele>759.20001220703125</ele>
        <time>2014-05-20T12:44:51Z</time>
      </trkpt>
      <trkpt lat="44.360635215416551" lon="5.62100694514811">
        <ele>759</ele>
        <time>2014-05-20T12:44:53Z</time>
      </trkpt>
      <trkpt lat="44.360759267583489" lon="5.621305759996176">
        <ele>758</ele>
        <time>2014-05-20T12:44:56Z</time>
      </trkpt>
      <trkpt lat="44.360881643369794" lon="5.621723178774118">
        <ele>757.79998779296875</ele>
        <time>2014-05-20T12:45:00Z</time>
      </trkpt>
      <trkpt lat="44.360977029427886" lon="5.62215811572969">
        <ele>757</ele>
        <time>2014-05-20T12:45:04Z</time>
      </trkpt>
      <trkpt lat="44.361025309190154" lon="5.622609816491604">
        <ele>756.5999755859375</ele>
        <time>2014-05-20T12:45:08Z</time>
      </trkpt>
      <trkpt lat="44.361029667779803" lon="5.622834200039506">
        <ele>755.5999755859375</ele>
        <time>2014-05-20T12:45:10Z</time>
      </trkpt>
      <trkpt lat="44.361041402444243" lon="5.623260671272874">
        <ele>755.4000244140625</ele>
        <time>2014-05-20T12:45:14Z</time>
      </trkpt>
      <trkpt lat="44.361023213714361" lon="5.623538615182042">
        <ele>755.20001220703125</ele>
        <time>2014-05-20T12:45:17Z</time>
      </trkpt>
      <trkpt lat="44.361005108803511" lon="5.623629810288549">
        <ele>755.4000244140625</ele>
        <time>2014-05-20T12:45:18Z</time>
      </trkpt>
      <trkpt lat="44.36094886623323" lon="5.623809937387705">
        <ele>754.5999755859375</ele>
        <time>2014-05-20T12:45:20Z</time>
      </trkpt>
      <trkpt lat="44.360916595906019" lon="5.623898115009069">
        <ele>753.79998779296875</ele>
        <time>2014-05-20T12:45:21Z</time>
      </trkpt>
      <trkpt lat="44.360882565379143" lon="5.623985873535276">
        <ele>753.5999755859375</ele>
        <time>2014-05-20T12:45:22Z</time>
      </trkpt>
      <trkpt lat="44.360849624499679" lon="5.624071788042784">
        <ele>753.4000244140625</ele>
        <time>2014-05-20T12:45:23Z</time>
      </trkpt>
      <trkpt lat="44.36075977049768" lon="5.624335901811719">
        <ele>752.20001220703125</ele>
        <time>2014-05-20T12:45:26Z</time>
      </trkpt>
      <trkpt lat="44.360707802698016" lon="5.62461543828249">
        <ele>751.79998779296875</ele>
        <time>2014-05-20T12:45:29Z</time>
      </trkpt>
      <trkpt lat="44.360691625624895" lon="5.62493110075593">
        <ele>750.79998779296875</ele>
        <time>2014-05-20T12:45:32Z</time>
      </trkpt>
      <trkpt lat="44.360701683908701" lon="5.625149449333549">
        <ele>750.20001220703125</ele>
        <time>2014-05-20T12:45:34Z</time>
      </trkpt>
      <trkpt lat="44.360708724707365" lon="5.625259000808001">
        <ele>749.5999755859375</ele>
        <time>2014-05-20T12:45:35Z</time>
      </trkpt>
      <trkpt lat="44.36072557233274" lon="5.625588996335864">
        <ele>748.20001220703125</ele>
        <time>2014-05-20T12:45:38Z</time>
      </trkpt>
      <trkpt lat="44.360753148794174" lon="5.626035667955875">
        <ele>748.5999755859375</ele>
        <time>2014-05-20T12:45:42Z</time>
      </trkpt>
      <trkpt lat="44.360780976712704" lon="5.626484183594585">
        <ele>747.20001220703125</ele>
        <time>2014-05-20T12:45:46Z</time>
      </trkpt>
      <trkpt lat="44.360794555395842" lon="5.626705884933472">
        <ele>746.79998779296875</ele>
        <time>2014-05-20T12:45:48Z</time>
      </trkpt>
      <trkpt lat="44.360905196517706" lon="5.627332767471671">
        <ele>746.20001220703125</ele>
        <time>2014-05-20T12:45:54Z</time>
      </trkpt>
      <trkpt lat="44.360933694988489" lon="5.627433937042952">
        <ele>746.20001220703125</ele>
        <time>2014-05-20T12:45:55Z</time>
      </trkpt>
      <trkpt lat="44.360969234257936" lon="5.627527814358473">
        <ele>746</ele>
        <time>2014-05-20T12:45:56Z</time>
      </trkpt>
      <trkpt lat="44.361119102686644" lon="5.627891169860959">
        <ele>745.79998779296875</ele>
        <time>2014-05-20T12:46:00Z</time>
      </trkpt>
      <trkpt lat="44.36143116094172" lon="5.628615533933044">
        <ele>745.20001220703125</ele>
        <time>2014-05-20T12:46:08Z</time>
      </trkpt>
      <trkpt lat="44.361462844535708" lon="5.628711674362421">
        <ele>744.79998779296875</ele>
        <time>2014-05-20T12:46:09Z</time>
      </trkpt>
      <trkpt lat="44.361558565869927" lon="5.629006968811154">
        <ele>743.79998779296875</ele>
        <time>2014-05-20T12:46:12Z</time>
      </trkpt>
      <trkpt lat="44.361621011048555" lon="5.629204111173749">
        <ele>743.5999755859375</ele>
        <time>2014-05-20T12:46:14Z</time>
      </trkpt>
      <trkpt lat="44.361809603869915" lon="5.629999050870538">
        <ele>744</ele>
        <time>2014-05-20T12:46:22Z</time>
      </trkpt>
      <trkpt lat="44.361986881121993" lon="5.630784016102552">
        <ele>743</ele>
        <time>2014-05-20T12:46:30Z</time>
      </trkpt>
      <trkpt lat="44.362127026543021" lon="5.631558671593666">
        <ele>742.79998779296875</ele>
        <time>2014-05-20T12:46:38Z</time>
      </trkpt>
      <trkpt lat="44.362129708752036" lon="5.631660595536232">
        <ele>742.5999755859375</ele>
        <time>2014-05-20T12:46:39Z</time>
      </trkpt>
      <trkpt lat="44.362183101475239" lon="5.63204649835825">
        <ele>743</ele>
        <time>2014-05-20T12:46:43Z</time>
      </trkpt>
      <trkpt lat="44.362267926335335" lon="5.632432484999299">
        <ele>741.5999755859375</ele>
        <time>2014-05-20T12:46:47Z</time>
      </trkpt>
      <trkpt lat="44.362334394827485" lon="5.632607163861394">
        <ele>741.4000244140625</ele>
        <time>2014-05-20T12:46:49Z</time>
      </trkpt>
      <trkpt lat="44.362579230219126" lon="5.633168835192919">
        <ele>741.20001220703125</ele>
        <time>2014-05-20T12:46:56Z</time>
      </trkpt>
      <trkpt lat="44.362801350653172" lon="5.633771829307079">
        <ele>741.5999755859375</ele>
        <time>2014-05-20T12:47:03Z</time>
      </trkpt>
      <trkpt lat="44.363127239048481" lon="5.634422767907381">
        <ele>740.79998779296875</ele>
        <time>2014-05-20T12:47:11Z</time>
      </trkpt>
      <trkpt lat="44.363161437213421" lon="5.634504659101367">
        <ele>740.5999755859375</ele>
        <time>2014-05-20T12:47:12Z</time>
      </trkpt>
      <trkpt lat="44.363194042816758" lon="5.634584538638592">
        <ele>740.4000244140625</ele>
        <time>2014-05-20T12:47:13Z</time>
      </trkpt>
      <trkpt lat="44.363272581249475" lon="5.634903553873301">
        <ele>740.4000244140625</ele>
        <time>2014-05-20T12:47:17Z</time>
      </trkpt>
      <trkpt lat="44.363281633704901" lon="5.634988797828555">
        <ele>740.5999755859375</ele>
        <time>2014-05-20T12:47:18Z</time>
      </trkpt>
      <trkpt lat="44.363313736394048" lon="5.635471260175109">
        <ele>741</ele>
        <time>2014-05-20T12:47:24Z</time>
      </trkpt>
      <trkpt lat="44.363334607332945" lon="5.635845679789782">
        <ele>741.5999755859375</ele>
        <time>2014-05-20T12:47:29Z</time>
      </trkpt>
      <trkpt lat="44.363359082490206" lon="5.636061429977417">
        <ele>741.5999755859375</ele>
        <time>2014-05-20T12:47:32Z</time>
      </trkpt>
      <trkpt lat="44.363422868773341" lon="5.636609271168709">
        <ele>740.4000244140625</ele>
        <time>2014-05-20T12:47:39Z</time>
      </trkpt>
      <trkpt lat="44.363402081653476" lon="5.637057619169354">
        <ele>740</ele>
        <time>2014-05-20T12:47:44Z</time>
      </trkpt>
      <trkpt lat="44.363271323964" lon="5.637691374868155">
        <ele>739.4000244140625</ele>
        <time>2014-05-20T12:47:51Z</time>
      </trkpt>
      <trkpt lat="44.363252967596054" lon="5.637783827260137">
        <ele>739.4000244140625</ele>
        <time>2014-05-20T12:47:52Z</time>
      </trkpt>
      <trkpt lat="44.36315699480474" lon="5.638286825269461">
        <ele>738.79998779296875</ele>
        <time>2014-05-20T12:47:58Z</time>
      </trkpt>
      <trkpt lat="44.363140147179365" lon="5.638583712279797">
        <ele>738.20001220703125</ele>
        <time>2014-05-20T12:48:01Z</time>
      </trkpt>
      <trkpt lat="44.36314232647419" lon="5.638801055029035">
        <ele>737.4000244140625</ele>
        <time>2014-05-20T12:48:03Z</time>
      </trkpt>
      <trkpt lat="44.363148026168346" lon="5.638915551826358">
        <ele>737</ele>
        <time>2014-05-20T12:48:04Z</time>
      </trkpt>
      <trkpt lat="44.363164622336626" lon="5.639261389151216">
        <ele>735.79998779296875</ele>
        <time>2014-05-20T12:48:07Z</time>
      </trkpt>
      <trkpt lat="44.363170489668846" lon="5.639488371089101">
        <ele>735.4000244140625</ele>
        <time>2014-05-20T12:48:09Z</time>
      </trkpt>
      <trkpt lat="44.363174345344305" lon="5.639825239777565">
        <ele>734.5999755859375</ele>
        <time>2014-05-20T12:48:12Z</time>
      </trkpt>
      <trkpt lat="44.363177698105574" lon="5.640353383496404">
        <ele>734.4000244140625</ele>
        <time>2014-05-20T12:48:17Z</time>
      </trkpt>
      <trkpt lat="44.363196976482868" lon="5.641037095338106">
        <ele>735.20001220703125</ele>
        <time>2014-05-20T12:48:24Z</time>
      </trkpt>
      <trkpt lat="44.363178452476859" lon="5.641828514635563">
        <ele>733.79998779296875</ele>
        <time>2014-05-20T12:48:32Z</time>
      </trkpt>
      <trkpt lat="44.363115504384041" lon="5.642389515414834">
        <ele>734</ele>
        <time>2014-05-20T12:48:38Z</time>
      </trkpt>
      <trkpt lat="44.36303042806685" lon="5.643090577796102">
        <ele>734.20001220703125</ele>
        <time>2014-05-20T12:48:46Z</time>
      </trkpt>
      <trkpt lat="44.362872010096908" lon="5.643653087317944">
        <ele>734.5999755859375</ele>
        <time>2014-05-20T12:48:53Z</time>
      </trkpt>
      <trkpt lat="44.362730942666531" lon="5.644157426431775">
        <ele>735.20001220703125</ele>
        <time>2014-05-20T12:49:00Z</time>
      </trkpt>
      <trkpt lat="44.362699761986732" lon="5.644292710348964">
        <ele>735.79998779296875</ele>
        <time>2014-05-20T12:49:02Z</time>
      </trkpt>
      <trkpt lat="44.362627007067204" lon="5.64471666701138">
        <ele>735.20001220703125</ele>
        <time>2014-05-20T12:49:08Z</time>
      </trkpt>
      <trkpt lat="44.362547965720296" lon="5.645245648920536">
        <ele>734.5999755859375</ele>
        <time>2014-05-20T12:49:15Z</time>
      </trkpt>
      <trkpt lat="44.362534889951348" lon="5.64533181488514">
        <ele>734.4000244140625</ele>
        <time>2014-05-20T12:49:16Z</time>
      </trkpt>
      <trkpt lat="44.362435229122639" lon="5.646061124280095">
        <ele>733.5999755859375</ele>
        <time>2014-05-20T12:49:24Z</time>
      </trkpt>
      <trkpt lat="44.362320061773062" lon="5.646822117269039">
        <ele>732.79998779296875</ele>
        <time>2014-05-20T12:49:32Z</time>
      </trkpt>
      <trkpt lat="44.362277649343014" lon="5.647103833034635">
        <ele>732.5999755859375</ele>
        <time>2014-05-20T12:49:35Z</time>
      </trkpt>
      <trkpt lat="44.36226331628859" lon="5.647198297083378">
        <ele>732.5999755859375</ele>
        <time>2014-05-20T12:49:36Z</time>
      </trkpt>
      <trkpt lat="44.362184861674905" lon="5.647762063890696">
        <ele>732.79998779296875</ele>
        <time>2014-05-20T12:49:42Z</time>
      </trkpt>
      <trkpt lat="44.36210255138576" lon="5.64835499972105">
        <ele>733.20001220703125</ele>
        <time>2014-05-20T12:49:49Z</time>
      </trkpt>
      <trkpt lat="44.362068939954042" lon="5.648595979437232">
        <ele>733.79998779296875</ele>
        <time>2014-05-20T12:49:52Z</time>
      </trkpt>
      <trkpt lat="44.362018229439855" lon="5.64889932051301">
        <ele>733.5999755859375</ele>
        <time>2014-05-20T12:49:56Z</time>
      </trkpt>
      <trkpt lat="44.361939020454884" lon="5.649487730115652">
        <ele>734.79998779296875</ele>
        <time>2014-05-20T12:50:04Z</time>
      </trkpt>
      <trkpt lat="44.361915551126003" lon="5.649634413421154">
        <ele>735</ele>
        <time>2014-05-20T12:50:06Z</time>
      </trkpt>
      <trkpt lat="44.361872468143702" lon="5.649855611845851">
        <ele>735</ele>
        <time>2014-05-20T12:50:09Z</time>
      </trkpt>
      <trkpt lat="44.361812537536025" lon="5.650061471387744">
        <ele>735</ele>
        <time>2014-05-20T12:50:12Z</time>
      </trkpt>
      <trkpt lat="44.361710362136364" lon="5.650285519659519">
        <ele>736</ele>
        <time>2014-05-20T12:50:16Z</time>
      </trkpt>
      <trkpt lat="44.361658142879605" lon="5.650376630946994">
        <ele>736.4000244140625</ele>
        <time>2014-05-20T12:50:18Z</time>
      </trkpt>
      <trkpt lat="44.361551692709327" lon="5.650541754439473">
        <ele>737</ele>
        <time>2014-05-20T12:50:22Z</time>
      </trkpt>
      <trkpt lat="44.361521350219846" lon="5.650584753602743">
        <ele>737</ele>
        <time>2014-05-20T12:50:23Z</time>
      </trkpt>
      <trkpt lat="44.36128699220717" lon="5.650817938148975">
        <ele>736.5999755859375</ele>
        <time>2014-05-20T12:50:30Z</time>
      </trkpt>
      <trkpt lat="44.361167969182134" lon="5.650892117992044">
        <ele>736.4000244140625</ele>
        <time>2014-05-20T12:50:33Z</time>
      </trkpt>
      <trkpt lat="44.361001839861274" lon="5.650953724980354">
        <ele>736</ele>
        <time>2014-05-20T12:50:37Z</time>
      </trkpt>
      <trkpt lat="44.360961019992828" lon="5.650957999750972">
        <ele>736</ele>
        <time>2014-05-20T12:50:38Z</time>
      </trkpt>
      <trkpt lat="44.360918523743749" lon="5.650970153510571">
        <ele>735.79998779296875</ele>
        <time>2014-05-20T12:50:39Z</time>
      </trkpt>
      <trkpt lat="44.360791286453605" lon="5.6510238815099">
        <ele>735.79998779296875</ele>
        <time>2014-05-20T12:50:42Z</time>
      </trkpt>
      <trkpt lat="44.360614512115717" lon="5.6511465087533">
        <ele>735.4000244140625</ele>
        <time>2014-05-20T12:50:46Z</time>
      </trkpt>
      <trkpt lat="44.360521975904703" lon="5.651230495423079">
        <ele>734.5999755859375</ele>
        <time>2014-05-20T12:50:48Z</time>
      </trkpt>
      <trkpt lat="44.360385853797197" lon="5.65139134414494">
        <ele>733.4000244140625</ele>
        <time>2014-05-20T12:50:51Z</time>
      </trkpt>
      <trkpt lat="44.360346458852291" lon="5.651457393541932">
        <ele>733</ele>
        <time>2014-05-20T12:50:52Z</time>
      </trkpt>
      <trkpt lat="44.360312093049288" lon="5.651532579213381">
        <ele>732.5999755859375</ele>
        <time>2014-05-20T12:50:53Z</time>
      </trkpt>
      <trkpt lat="44.360276386141777" lon="5.651606088504195">
        <ele>732</ele>
        <time>2014-05-20T12:50:54Z</time>
      </trkpt>
      <trkpt lat="44.360036915168166" lon="5.652015376836062">
        <ele>731.20001220703125</ele>
        <time>2014-05-20T12:51:00Z</time>
      </trkpt>
      <trkpt lat="44.359985534101725" lon="5.652071367949247">
        <ele>731.20001220703125</ele>
        <time>2014-05-20T12:51:01Z</time>
      </trkpt>
      <trkpt lat="44.359831809997559" lon="5.652227438986301">
        <ele>730.79998779296875</ele>
        <time>2014-05-20T12:51:04Z</time>
      </trkpt>
      <trkpt lat="44.359691580757499" lon="5.652404632419348">
        <ele>730.20001220703125</ele>
        <time>2014-05-20T12:51:07Z</time>
      </trkpt>
      <trkpt lat="44.359578173607588" lon="5.652622058987618">
        <ele>729.5999755859375</ele>
        <time>2014-05-20T12:51:10Z</time>
      </trkpt>
      <trkpt lat="44.359503658488393" lon="5.652793804183602">
        <ele>728.5999755859375</ele>
        <time>2014-05-20T12:51:12Z</time>
      </trkpt>
      <trkpt lat="44.359395783394575" lon="5.653070155531168">
        <ele>727</ele>
        <time>2014-05-20T12:51:15Z</time>
      </trkpt>
      <trkpt lat="44.359248261898756" lon="5.653433930128813">
        <ele>726.20001220703125</ele>
        <time>2014-05-20T12:51:19Z</time>
      </trkpt>
      <trkpt lat="44.359095124527812" lon="5.653775911778212">
        <ele>725.79998779296875</ele>
        <time>2014-05-20T12:51:23Z</time>
      </trkpt>
      <trkpt lat="44.358920697122812" lon="5.654108002781868">
        <ele>724.5999755859375</ele>
        <time>2014-05-20T12:51:27Z</time>
      </trkpt>
      <trkpt lat="44.358796142041683" lon="5.654371865093708">
        <ele>723.5999755859375</ele>
        <time>2014-05-20T12:51:30Z</time>
      </trkpt>
      <trkpt lat="44.358728751540184" lon="5.65456984564662">
        <ele>723</ele>
        <time>2014-05-20T12:51:32Z</time>
      </trkpt>
      <trkpt lat="44.358696062117815" lon="5.654673026874661">
        <ele>722.4000244140625</ele>
        <time>2014-05-20T12:51:33Z</time>
      </trkpt>
      <trkpt lat="44.358610482886434" lon="5.654990533366799">
        <ele>721</ele>
        <time>2014-05-20T12:51:36Z</time>
      </trkpt>
      <trkpt lat="44.35852331109345" lon="5.655318517237902">
        <ele>720.4000244140625</ele>
        <time>2014-05-20T12:51:39Z</time>
      </trkpt>
      <trkpt lat="44.358494561165571" lon="5.655426308512688">
        <ele>719.20001220703125</ele>
        <time>2014-05-20T12:51:40Z</time>
      </trkpt>
      <trkpt lat="44.358395487070084" lon="5.655967025086284">
        <ele>717.5999755859375</ele>
        <time>2014-05-20T12:51:45Z</time>
      </trkpt>
      <trkpt lat="44.358387272804976" lon="5.65607238560915">
        <ele>717</ele>
        <time>2014-05-20T12:51:46Z</time>
      </trkpt>
      <trkpt lat="44.358355086296797" lon="5.656470190733671">
        <ele>717</ele>
        <time>2014-05-20T12:51:50Z</time>
      </trkpt>
      <trkpt lat="44.358344860374928" lon="5.656560799106956">
        <ele>717.4000244140625</ele>
        <time>2014-05-20T12:51:51Z</time>
      </trkpt>
      <trkpt lat="44.358280738815665" lon="5.657089194282889">
        <ele>718.5999755859375</ele>
        <time>2014-05-20T12:51:57Z</time>
      </trkpt>
      <trkpt lat="44.358150232583284" lon="5.657823365181685">
        <ele>717.79998779296875</ele>
        <time>2014-05-20T12:52:05Z</time>
      </trkpt>
      <trkpt lat="44.358135731890798" lon="5.657919002696872">
        <ele>717.4000244140625</ele>
        <time>2014-05-20T12:52:06Z</time>
      </trkpt>
      <trkpt lat="44.358051409944892" lon="5.658562732860446">
        <ele>716.4000244140625</ele>
        <time>2014-05-20T12:52:13Z</time>
      </trkpt>
      <trkpt lat="44.357902714982629" lon="5.65917176194489">
        <ele>717.4000244140625</ele>
        <time>2014-05-20T12:52:20Z</time>
      </trkpt>
      <trkpt lat="44.357655281201005" lon="5.659699318930507">
        <ele>716.79998779296875</ele>
        <time>2014-05-20T12:52:27Z</time>
      </trkpt>
      <trkpt lat="44.35750306583941" lon="5.659995032474399">
        <ele>716.20001220703125</ele>
        <time>2014-05-20T12:52:31Z</time>
      </trkpt>
      <trkpt lat="44.357367614284158" lon="5.6603127066046">
        <ele>715.20001220703125</ele>
        <time>2014-05-20T12:52:35Z</time>
      </trkpt>
      <trkpt lat="44.357338445261121" lon="5.660396693274379">
        <ele>715</ele>
        <time>2014-05-20T12:52:36Z</time>
      </trkpt>
      <trkpt lat="44.357197294011712" lon="5.660861637443304">
        <ele>715</ele>
        <time>2014-05-20T12:52:42Z</time>
      </trkpt>
      <trkpt lat="44.356997134163976" lon="5.661564543843269">
        <ele>714.79998779296875</ele>
        <time>2014-05-20T12:52:52Z</time>
      </trkpt>
      <trkpt lat="44.356841146945953" lon="5.661966875195503">
        <ele>713.5999755859375</ele>
        <time>2014-05-20T12:52:58Z</time>
      </trkpt>
      <trkpt lat="44.3568180128932" lon="5.662042647600174">
        <ele>713.4000244140625</ele>
        <time>2014-05-20T12:52:59Z</time>
      </trkpt>
      <trkpt lat="44.356689853593707" lon="5.662326626479626">
        <ele>712.5999755859375</ele>
        <time>2014-05-20T12:53:03Z</time>
      </trkpt>
      <trkpt lat="44.356653559952974" lon="5.662391670048237">
        <ele>712.4000244140625</ele>
        <time>2014-05-20T12:53:04Z</time>
      </trkpt>
      <trkpt lat="44.356454322114587" lon="5.662846388295293">
        <ele>711.4000244140625</ele>
        <time>2014-05-20T12:53:10Z</time>
      </trkpt>
      <trkpt lat="44.356417441740632" lon="5.662926435470581">
        <ele>711.20001220703125</ele>
        <time>2014-05-20T12:53:11Z</time>
      </trkpt>
      <trkpt lat="44.356306800618768" lon="5.663177473470569">
        <ele>710</ele>
        <time>2014-05-20T12:53:14Z</time>
      </trkpt>
      <trkpt lat="44.356225160881877" lon="5.663348296657205">
        <ele>708.79998779296875</ele>
        <time>2014-05-20T12:53:16Z</time>
      </trkpt>
      <trkpt lat="44.356188029050827" lon="5.663436055183411">
        <ele>708.5999755859375</ele>
        <time>2014-05-20T12:53:17Z</time>
      </trkpt>
      <trkpt lat="44.35605039820075" lon="5.663809720426798">
        <ele>707</ele>
        <time>2014-05-20T12:53:21Z</time>
      </trkpt>
      <trkpt lat="44.355963477864861" lon="5.664082886651158">
        <ele>706.20001220703125</ele>
        <time>2014-05-20T12:53:24Z</time>
      </trkpt>
      <trkpt lat="44.355855099856853" lon="5.664430987089872">
        <ele>706</ele>
        <time>2014-05-20T12:53:28Z</time>
      </trkpt>
      <trkpt lat="44.355751583352685" lon="5.664797108620405">
        <ele>706.4000244140625</ele>
        <time>2014-05-20T12:53:32Z</time>
      </trkpt>
      <trkpt lat="44.355567935854197" lon="5.665355008095503">
        <ele>706.20001220703125</ele>
        <time>2014-05-20T12:53:39Z</time>
      </trkpt>
      <trkpt lat="44.35549727641046" lon="5.665480652824044">
        <ele>706.20001220703125</ele>
        <time>2014-05-20T12:53:41Z</time>
      </trkpt>
      <trkpt lat="44.355335338041186" lon="5.665740240365267">
        <ele>706.5999755859375</ele>
        <time>2014-05-20T12:53:45Z</time>
      </trkpt>
      <trkpt lat="44.355209860950708" lon="5.665948782116175">
        <ele>704.79998779296875</ele>
        <time>2014-05-20T12:53:48Z</time>
      </trkpt>
      <trkpt lat="44.355123611167073" lon="5.666094711050391">
        <ele>703.79998779296875</ele>
        <time>2014-05-20T12:53:50Z</time>
      </trkpt>
      <trkpt lat="44.355003163218498" lon="5.666324542835355">
        <ele>703.4000244140625</ele>
        <time>2014-05-20T12:53:53Z</time>
      </trkpt>
      <trkpt lat="44.354838542640209" lon="5.66665118560195">
        <ele>702.5999755859375</ele>
        <time>2014-05-20T12:53:57Z</time>
      </trkpt>
      <trkpt lat="44.354769727215171" lon="5.666821422055364">
        <ele>702</ele>
        <time>2014-05-20T12:53:59Z</time>
      </trkpt>
      <trkpt lat="44.354672413319349" lon="5.667098024860025">
        <ele>701.4000244140625</ele>
        <time>2014-05-20T12:54:02Z</time>
      </trkpt>
      <trkpt lat="44.354595132172108" lon="5.667397091165185">
        <ele>700.79998779296875</ele>
        <time>2014-05-20T12:54:05Z</time>
      </trkpt>
      <trkpt lat="44.35453805141151" lon="5.667902017012239">
        <ele>700.5999755859375</ele>
        <time>2014-05-20T12:54:10Z</time>
      </trkpt>
      <trkpt lat="44.354554647579789" lon="5.668099410831928">
        <ele>701</ele>
        <time>2014-05-20T12:54:12Z</time>
      </trkpt>
      <trkpt lat="44.354587588459253" lon="5.668304013088346">
        <ele>700.4000244140625</ele>
        <time>2014-05-20T12:54:14Z</time>
      </trkpt>
      <trkpt lat="44.354606028646231" lon="5.668407194316387">
        <ele>700.4000244140625</ele>
        <time>2014-05-20T12:54:15Z</time>
      </trkpt>
      <trkpt lat="44.354788921773434" lon="5.669119991362095">
        <ele>700.20001220703125</ele>
        <time>2014-05-20T12:54:22Z</time>
      </trkpt>
      <trkpt lat="44.35501984320581" lon="5.669665234163404">
        <ele>699.4000244140625</ele>
        <time>2014-05-20T12:54:28Z</time>
      </trkpt>
      <trkpt lat="44.355106595903635" lon="5.669846367090941">
        <ele>699.4000244140625</ele>
        <time>2014-05-20T12:54:30Z</time>
      </trkpt>
      <trkpt lat="44.355258895084262" lon="5.670350957661867">
        <ele>698.4000244140625</ele>
        <time>2014-05-20T12:54:35Z</time>
      </trkpt>
      <trkpt lat="44.355284376069903" lon="5.670769633725286">
        <ele>698.5999755859375</ele>
        <time>2014-05-20T12:54:39Z</time>
      </trkpt>
      <trkpt lat="44.355277419090271" lon="5.67087734118104">
        <ele>698.4000244140625</ele>
        <time>2014-05-20T12:54:40Z</time>
      </trkpt>
      <trkpt lat="44.355239532887936" lon="5.671192081645131">
        <ele>698</ele>
        <time>2014-05-20T12:54:43Z</time>
      </trkpt>
      <trkpt lat="44.355180440470576" lon="5.671500787138939">
        <ele>698</ele>
        <time>2014-05-20T12:54:46Z</time>
      </trkpt>
      <trkpt lat="44.355114726349711" lon="5.671689128503203">
        <ele>697.79998779296875</ele>
        <time>2014-05-20T12:54:48Z</time>
      </trkpt>
      <trkpt lat="44.355030488222837" lon="5.671861544251442">
        <ele>697.5999755859375</ele>
        <time>2014-05-20T12:54:50Z</time>
      </trkpt>
      <trkpt lat="44.35498321428895" lon="5.671942345798016">
        <ele>697.4000244140625</ele>
        <time>2014-05-20T12:54:51Z</time>
      </trkpt>
      <trkpt lat="44.354933593422174" lon="5.67201828584075">
        <ele>697</ele>
        <time>2014-05-20T12:54:52Z</time>
      </trkpt>
      <trkpt lat="44.35476042330265" lon="5.672235880047083">
        <ele>696.4000244140625</ele>
        <time>2014-05-20T12:54:55Z</time>
      </trkpt>
      <trkpt lat="44.354649111628532" lon="5.672382228076458">
        <ele>696</ele>
        <time>2014-05-20T12:54:57Z</time>
      </trkpt>
      <trkpt lat="44.35446479357779" lon="5.672714905813336">
        <ele>695</ele>
        <time>2014-05-20T12:55:01Z</time>
      </trkpt>
      <trkpt lat="44.354422800242901" lon="5.672804173082113">
        <ele>694.79998779296875</ele>
        <time>2014-05-20T12:55:02Z</time>
      </trkpt>
      <trkpt lat="44.354302855208516" lon="5.673174653202295">
        <ele>695</ele>
        <time>2014-05-20T12:55:06Z</time>
      </trkpt>
      <trkpt lat="44.354289947077632" lon="5.673273224383593">
        <ele>694.5999755859375</ele>
        <time>2014-05-20T12:55:07Z</time>
      </trkpt>
      <trkpt lat="44.354273686185479" lon="5.673471121117473">
        <ele>693.79998779296875</ele>
        <time>2014-05-20T12:55:09Z</time>
      </trkpt>
      <trkpt lat="44.354268237948418" lon="5.673777731135488">
        <ele>694</ele>
        <time>2014-05-20T12:55:12Z</time>
      </trkpt>
      <trkpt lat="44.354256670922041" lon="5.673880577087402">
        <ele>693.5999755859375</ele>
        <time>2014-05-20T12:55:13Z</time>
      </trkpt>
      <trkpt lat="44.354234794154763" lon="5.673977639526129">
        <ele>693.4000244140625</ele>
        <time>2014-05-20T12:55:14Z</time>
      </trkpt>
      <trkpt lat="44.354190286248922" lon="5.674156676977873">
        <ele>693.20001220703125</ele>
        <time>2014-05-20T12:55:16Z</time>
      </trkpt>
      <trkpt lat="44.354116274043918" lon="5.674430513754487">
        <ele>692.4000244140625</ele>
        <time>2014-05-20T12:55:19Z</time>
      </trkpt>
      <trkpt lat="44.354036897420883" lon="5.67472237162292">
        <ele>691</ele>
        <time>2014-05-20T12:55:22Z</time>
      </trkpt>
      <trkpt lat="44.353979816660285" lon="5.674920352175832">
        <ele>690.5999755859375</ele>
        <time>2014-05-20T12:55:24Z</time>
      </trkpt>
      <trkpt lat="44.353837408125401" lon="5.67530625499785">
        <ele>689.5999755859375</ele>
        <time>2014-05-20T12:55:28Z</time>
      </trkpt>
      <trkpt lat="44.353754259645939" lon="5.675484957173467">
        <ele>689.5999755859375</ele>
        <time>2014-05-20T12:55:30Z</time>
      </trkpt>
      <trkpt lat="44.353414792567492" lon="5.676168501377106">
        <ele>689.5999755859375</ele>
        <time>2014-05-20T12:55:38Z</time>
      </trkpt>
      <trkpt lat="44.353372799232602" lon="5.676253661513329">
        <ele>689.79998779296875</ele>
        <time>2014-05-20T12:55:39Z</time>
      </trkpt>
      <trkpt lat="44.353114049881697" lon="5.676875598728657">
        <ele>689.4000244140625</ele>
        <time>2014-05-20T12:55:46Z</time>
      </trkpt>
      <trkpt lat="44.353084713220596" lon="5.677200229838491">
        <ele>688.5999755859375</ele>
        <time>2014-05-20T12:55:49Z</time>
      </trkpt>
      <trkpt lat="44.35309074819088" lon="5.67730818875134">
        <ele>688.4000244140625</ele>
        <time>2014-05-20T12:55:50Z</time>
      </trkpt>
      <trkpt lat="44.353091167286038" lon="5.677416566759348">
        <ele>688.4000244140625</ele>
        <time>2014-05-20T12:55:51Z</time>
      </trkpt>
      <trkpt lat="44.353139530867338" lon="5.67788670770824">
        <ele>689</ele>
        <time>2014-05-20T12:55:56Z</time>
      </trkpt>
      <trkpt lat="44.353208262473345" lon="5.678478302434087">
        <ele>688.4000244140625</ele>
        <time>2014-05-20T12:56:03Z</time>
      </trkpt>
      <trkpt lat="44.353152774274349" lon="5.678967051208019">
        <ele>687.5999755859375</ele>
        <time>2014-05-20T12:56:09Z</time>
      </trkpt>
      <trkpt lat="44.352947250008583" lon="5.679429480805993">
        <ele>686.79998779296875</ele>
        <time>2014-05-20T12:56:15Z</time>
      </trkpt>
      <trkpt lat="44.352709287777543" lon="5.679859472438693">
        <ele>687.4000244140625</ele>
        <time>2014-05-20T12:56:21Z</time>
      </trkpt>
      <trkpt lat="44.352457411587238" lon="5.680287284776568">
        <ele>688.4000244140625</ele>
        <time>2014-05-20T12:56:28Z</time>
      </trkpt>
      <trkpt lat="44.352358588948846" lon="5.680455509573221">
        <ele>688.79998779296875</ele>
        <time>2014-05-20T12:56:31Z</time>
      </trkpt>
      <trkpt lat="44.352215761318803" lon="5.680711744353175">
        <ele>687.5999755859375</ele>
        <time>2014-05-20T12:56:35Z</time>
      </trkpt>
      <trkpt lat="44.35217653401196" lon="5.68078231997788">
        <ele>687.5999755859375</ele>
        <time>2014-05-20T12:56:36Z</time>
      </trkpt>
      <trkpt lat="44.351987605914474" lon="5.681136287748814">
        <ele>686.5999755859375</ele>
        <time>2014-05-20T12:56:41Z</time>
      </trkpt>
      <trkpt lat="44.351872522383928" lon="5.681411549448967">
        <ele>686.4000244140625</ele>
        <time>2014-05-20T12:56:45Z</time>
      </trkpt>
      <trkpt lat="44.351848047226667" lon="5.681564519181848">
        <ele>686.79998779296875</ele>
        <time>2014-05-20T12:56:47Z</time>
      </trkpt>
      <trkpt lat="44.35172114521265" lon="5.682166675105691">
        <ele>685.4000244140625</ele>
        <time>2014-05-20T12:56:54Z</time>
      </trkpt>
      <trkpt lat="44.351514531299472" lon="5.682683419436216">
        <ele>685</ele>
        <time>2014-05-20T12:57:00Z</time>
      </trkpt>
      <trkpt lat="44.351439094170928" lon="5.682863295078278">
        <ele>684.4000244140625</ele>
        <time>2014-05-20T12:57:02Z</time>
      </trkpt>
      <trkpt lat="44.351307414472103" lon="5.683202762156725">
        <ele>684.20001220703125</ele>
        <time>2014-05-20T12:57:06Z</time>
      </trkpt>
      <trkpt lat="44.351215548813343" lon="5.683631412684917">
        <ele>684.4000244140625</ele>
        <time>2014-05-20T12:57:11Z</time>
      </trkpt>
      <trkpt lat="44.351185457780957" lon="5.684159472584724">
        <ele>683.5999755859375</ele>
        <time>2014-05-20T12:57:17Z</time>
      </trkpt>
      <trkpt lat="44.351060315966606" lon="5.684625338762999">
        <ele>683.4000244140625</ele>
        <time>2014-05-20T12:57:23Z</time>
      </trkpt>
      <trkpt lat="44.350964846089482" lon="5.684876209124923">
        <ele>683.79998779296875</ele>
        <time>2014-05-20T12:57:27Z</time>
      </trkpt>
      <trkpt lat="44.350901981815696" lon="5.684991292655468">
        <ele>683.4000244140625</ele>
        <time>2014-05-20T12:57:29Z</time>
      </trkpt>
      <trkpt lat="44.350868621841073" lon="5.685051307082176">
        <ele>683.4000244140625</ele>
        <time>2014-05-20T12:57:30Z</time>
      </trkpt>
      <trkpt lat="44.350681453943253" lon="5.685330759733915">
        <ele>682.20001220703125</ele>
        <time>2014-05-20T12:57:35Z</time>
      </trkpt>
      <trkpt lat="44.350639544427395" lon="5.685375100001693">
        <ele>682.20001220703125</ele>
        <time>2014-05-20T12:57:36Z</time>
      </trkpt>
      <trkpt lat="44.350364785641432" lon="5.685610631480813">
        <ele>682.4000244140625</ele>
        <time>2014-05-20T12:57:42Z</time>
      </trkpt>
      <trkpt lat="44.350125398486853" lon="5.685873571783304">
        <ele>682.79998779296875</ele>
        <time>2014-05-20T12:57:48Z</time>
      </trkpt>
      <trkpt lat="44.350087093189359" lon="5.685930820181966">
        <ele>682.79998779296875</ele>
        <time>2014-05-20T12:57:49Z</time>
      </trkpt>
      <trkpt lat="44.350029844790697" lon="5.686057638376951">
        <ele>682.79998779296875</ele>
        <time>2014-05-20T12:57:51Z</time>
      </trkpt>
      <trkpt lat="44.350008554756641" lon="5.686135506257415">
        <ele>682.79998779296875</ele>
        <time>2014-05-20T12:57:52Z</time>
      </trkpt>
      <trkpt lat="44.349981984123588" lon="5.686480421572924">
        <ele>682.20001220703125</ele>
        <time>2014-05-20T12:57:56Z</time>
      </trkpt>
      <trkpt lat="44.34997427277267" lon="5.686777895316482">
        <ele>681</ele>
        <time>2014-05-20T12:57:59Z</time>
      </trkpt>
      <trkpt lat="44.349976619705558" lon="5.686996160075069">
        <ele>680</ele>
        <time>2014-05-20T12:58:01Z</time>
      </trkpt>
      <trkpt lat="44.34997770935297" lon="5.687108226120472">
        <ele>679.5999755859375</ele>
        <time>2014-05-20T12:58:02Z</time>
      </trkpt>
      <trkpt lat="44.349979385733604" lon="5.687337554991245">
        <ele>678.4000244140625</ele>
        <time>2014-05-20T12:58:04Z</time>
      </trkpt>
      <trkpt lat="44.349967483431101" lon="5.687684817239642">
        <ele>677.20001220703125</ele>
        <time>2014-05-20T12:58:07Z</time>
      </trkpt>
      <trkpt lat="44.349934039637446" lon="5.687921606004238">
        <ele>676.5999755859375</ele>
        <time>2014-05-20T12:58:09Z</time>
      </trkpt>
      <trkpt lat="44.349901098757982" lon="5.688039287924767">
        <ele>676</ele>
        <time>2014-05-20T12:58:10Z</time>
      </trkpt>
      <trkpt lat="44.349791463464499" lon="5.688384706154466">
        <ele>674.79998779296875</ele>
        <time>2014-05-20T12:58:13Z</time>
      </trkpt>
      <trkpt lat="44.349750224500895" lon="5.688620069995523">
        <ele>674.20001220703125</ele>
        <time>2014-05-20T12:58:15Z</time>
      </trkpt>
      <trkpt lat="44.349736897274852" lon="5.688857864588499">
        <ele>674.20001220703125</ele>
        <time>2014-05-20T12:58:17Z</time>
      </trkpt>
      <trkpt lat="44.349728766828775" lon="5.689216274768114">
        <ele>673.5999755859375</ele>
        <time>2014-05-20T12:58:20Z</time>
      </trkpt>
      <trkpt lat="44.349715271964669" lon="5.689578289166093">
        <ele>672.5999755859375</ele>
        <time>2014-05-20T12:58:23Z</time>
      </trkpt>
      <trkpt lat="44.349685683846474" lon="5.689807618036866">
        <ele>672</ele>
        <time>2014-05-20T12:58:25Z</time>
      </trkpt>
      <trkpt lat="44.349598260596395" lon="5.690129986032844">
        <ele>671.5999755859375</ele>
        <time>2014-05-20T12:58:28Z</time>
      </trkpt>
      <trkpt lat="44.349568840116262" lon="5.690237022936344">
        <ele>671.4000244140625</ele>
        <time>2014-05-20T12:58:29Z</time>
      </trkpt>
      <trkpt lat="44.349348982796073" lon="5.690951747819781">
        <ele>670.4000244140625</ele>
        <time>2014-05-20T12:58:36Z</time>
      </trkpt>
      <trkpt lat="44.349116384983063" lon="5.691723302006722">
        <ele>669.5999755859375</ele>
        <time>2014-05-20T12:58:44Z</time>
      </trkpt>
      <trkpt lat="44.349084701389074" lon="5.691816927865148">
        <ele>669.5999755859375</ele>
        <time>2014-05-20T12:58:45Z</time>
      </trkpt>
      <trkpt lat="44.349053939804435" lon="5.691909966990352">
        <ele>669.20001220703125</ele>
        <time>2014-05-20T12:58:46Z</time>
      </trkpt>
      <trkpt lat="44.348865011706948" lon="5.692367367446423">
        <ele>668</ele>
        <time>2014-05-20T12:58:51Z</time>
      </trkpt>
      <trkpt lat="44.348824610933661" lon="5.692451102659106">
        <ele>668</ele>
        <time>2014-05-20T12:58:52Z</time>
      </trkpt>
      <trkpt lat="44.348575919866562" lon="5.692948736250401">
        <ele>668</ele>
        <time>2014-05-20T12:58:58Z</time>
      </trkpt>
      <trkpt lat="44.348516911268234" lon="5.693234894424677">
        <ele>667.79998779296875</ele>
        <time>2014-05-20T12:59:01Z</time>
      </trkpt>
      <trkpt lat="44.348505092784762" lon="5.693442178890109">
        <ele>666.79998779296875</ele>
        <time>2014-05-20T12:59:03Z</time>
      </trkpt>
      <trkpt lat="44.348492436110973" lon="5.694169476628304">
        <ele>666</ele>
        <time>2014-05-20T12:59:10Z</time>
      </trkpt>
      <trkpt lat="44.348488161340356" lon="5.694273412227631">
        <ele>665.79998779296875</ele>
        <time>2014-05-20T12:59:11Z</time>
      </trkpt>
      <trkpt lat="44.348483383655548" lon="5.694676162675023">
        <ele>664.5999755859375</ele>
        <time>2014-05-20T12:59:15Z</time>
      </trkpt>
      <trkpt lat="44.348471481353045" lon="5.694950334727764">
        <ele>665.5999755859375</ele>
        <time>2014-05-20T12:59:18Z</time>
      </trkpt>
      <trkpt lat="44.348394786939025" lon="5.69551007822156">
        <ele>664.79998779296875</ele>
        <time>2014-05-20T12:59:24Z</time>
      </trkpt>
      <trkpt lat="44.348351033404469" lon="5.69579791277647">
        <ele>664.5999755859375</ele>
        <time>2014-05-20T12:59:27Z</time>
      </trkpt>
      <trkpt lat="44.348317589610815" lon="5.696085076779127">
        <ele>664.4000244140625</ele>
        <time>2014-05-20T12:59:30Z</time>
      </trkpt>
      <trkpt lat="44.348275680094957" lon="5.696574579924345">
        <ele>663.4000244140625</ele>
        <time>2014-05-20T12:59:35Z</time>
      </trkpt>
      <trkpt lat="44.348238212987781" lon="5.69696081802249">
        <ele>663.4000244140625</ele>
        <time>2014-05-20T12:59:39Z</time>
      </trkpt>
      <trkpt lat="44.348244750872254" lon="5.697531122714281">
        <ele>662.5999755859375</ele>
        <time>2014-05-20T12:59:45Z</time>
      </trkpt>
      <trkpt lat="44.348298981785774" lon="5.698180301114917">
        <ele>662.79998779296875</ele>
        <time>2014-05-20T12:59:52Z</time>
      </trkpt>
      <trkpt lat="44.3483149074018" lon="5.698274932801724">
        <ele>662.4000244140625</ele>
        <time>2014-05-20T12:59:53Z</time>
      </trkpt>
      <trkpt lat="44.348454549908638" lon="5.698705092072487">
        <ele>661.79998779296875</ele>
        <time>2014-05-20T12:59:58Z</time>
      </trkpt>
      <trkpt lat="44.348643478006124" lon="5.698951939120889">
        <ele>661.4000244140625</ele>
        <time>2014-05-20T13:00:02Z</time>
      </trkpt>
      <trkpt lat="44.34870089404285" lon="5.698998793959618">
        <ele>661.20001220703125</ele>
        <time>2014-05-20T13:00:03Z</time>
      </trkpt>
      <trkpt lat="44.348897952586412" lon="5.699106333777309">
        <ele>661</ele>
        <time>2014-05-20T13:00:06Z</time>
      </trkpt>
      <trkpt lat="44.3491006270051" lon="5.699207670986652">
        <ele>660.20001220703125</ele>
        <time>2014-05-20T13:00:09Z</time>
      </trkpt>
      <trkpt lat="44.349327273666859" lon="5.699390145018697">
        <ele>660.4000244140625</ele>
        <time>2014-05-20T13:00:13Z</time>
      </trkpt>
      <trkpt lat="44.349597422406077" lon="5.699589299038053">
        <ele>660.5999755859375</ele>
        <time>2014-05-20T13:00:18Z</time>
      </trkpt>
      <trkpt lat="44.350110478699207" lon="5.69988333620131">
        <ele>660</ele>
        <time>2014-05-20T13:00:27Z</time>
      </trkpt>
      <trkpt lat="44.350161943584681" lon="5.699919629842043">
        <ele>660.20001220703125</ele>
        <time>2014-05-20T13:00:28Z</time>
      </trkpt>
      <trkpt lat="44.350319439545274" lon="5.70001719519496">
        <ele>661.20001220703125</ele>
        <time>2014-05-20T13:00:31Z</time>
      </trkpt>
      <trkpt lat="44.350540805608034" lon="5.700167566537857">
        <ele>661.4000244140625</ele>
        <time>2014-05-20T13:00:35Z</time>
      </trkpt>
      <trkpt lat="44.350734762847424" lon="5.70034702308476">
        <ele>661</ele>
        <time>2014-05-20T13:00:39Z</time>
      </trkpt>
      <trkpt lat="44.35080005787313" lon="5.700451377779245">
        <ele>661.4000244140625</ele>
        <time>2014-05-20T13:00:41Z</time>
      </trkpt>
      <trkpt lat="44.350706683471799" lon="5.700878016650677">
        <ele>661.4000244140625</ele>
        <time>2014-05-20T13:00:45Z</time>
      </trkpt>
      <trkpt lat="44.350730068981647" lon="5.701395431533456">
        <ele>662.4000244140625</ele>
        <time>2014-05-20T13:00:52Z</time>
      </trkpt>
      <trkpt lat="44.350779941305518" lon="5.701853502541781">
        <ele>663.4000244140625</ele>
        <time>2014-05-20T13:00:59Z</time>
      </trkpt>
      <trkpt lat="44.350792765617371" lon="5.701978141441941">
        <ele>663.79998779296875</ele>
        <time>2014-05-20T13:01:01Z</time>
      </trkpt>
      <trkpt lat="44.350825035944581" lon="5.70245155133307">
        <ele>664</ele>
        <time>2014-05-20T13:01:08Z</time>
      </trkpt>
      <trkpt lat="44.350832244381309" lon="5.702521372586489">
        <ele>664</ele>
        <time>2014-05-20T13:01:09Z</time>
      </trkpt>
      <trkpt lat="44.350899886339903" lon="5.703258644789457">
        <ele>663.5999755859375</ele>
        <time>2014-05-20T13:01:20Z</time>
      </trkpt>
      <trkpt lat="44.350945316255093" lon="5.703785698860884">
        <ele>663.20001220703125</ele>
        <time>2014-05-20T13:01:28Z</time>
      </trkpt>
      <trkpt lat="44.351004827767611" lon="5.704244021326304">
        <ele>663.79998779296875</ele>
        <time>2014-05-20T13:01:35Z</time>
      </trkpt>
      <trkpt lat="44.351046150550246" lon="5.704495729878545">
        <ele>663.79998779296875</ele>
        <time>2014-05-20T13:01:39Z</time>
      </trkpt>
      <trkpt lat="44.351091496646404" lon="5.704674096778035">
        <ele>663.79998779296875</ele>
        <time>2014-05-20T13:01:42Z</time>
      </trkpt>
      <trkpt lat="44.351238096132874" lon="5.705054886639118">
        <ele>664.20001220703125</ele>
        <time>2014-05-20T13:01:49Z</time>
      </trkpt>
      <trkpt lat="44.351398022845387" lon="5.705457301810384">
        <ele>664.5999755859375</ele>
        <time>2014-05-20T13:01:56Z</time>
      </trkpt>
      <trkpt lat="44.351442866027355" lon="5.705569200217724">
        <ele>665</ele>
        <time>2014-05-20T13:01:58Z</time>
      </trkpt>
      <trkpt lat="44.351545376703143" lon="5.705823339521885">
        <ele>665.5999755859375</ele>
        <time>2014-05-20T13:02:03Z</time>
      </trkpt>
      <trkpt lat="44.351606899872422" lon="5.705988463014364">
        <ele>665.20001220703125</ele>
        <time>2014-05-20T13:02:06Z</time>
      </trkpt>
      <trkpt lat="44.351780656725168" lon="5.706428932026029">
        <ele>665</ele>
        <time>2014-05-20T13:02:13Z</time>
      </trkpt>
      <trkpt lat="44.351803455501795" lon="5.706500262022018">
        <ele>664.79998779296875</ele>
        <time>2014-05-20T13:02:14Z</time>
      </trkpt>
      <trkpt lat="44.351971680298448" lon="5.706954896450043">
        <ele>665</ele>
        <time>2014-05-20T13:02:21Z</time>
      </trkpt>
      <trkpt lat="44.352119117975235" lon="5.707302829250693">
        <ele>665.5999755859375</ele>
        <time>2014-05-20T13:02:28Z</time>
      </trkpt>
      <trkpt lat="44.352280888706446" lon="5.707676662132144">
        <ele>666.79998779296875</ele>
        <time>2014-05-20T13:02:36Z</time>
      </trkpt>
      <trkpt lat="44.352356493473053" lon="5.707874391227961">
        <ele>667.79998779296875</ele>
        <time>2014-05-20T13:02:41Z</time>
      </trkpt>
      <trkpt lat="44.352373592555523" lon="5.707907751202583">
        <ele>668</ele>
        <time>2014-05-20T13:02:42Z</time>
      </trkpt>
      <trkpt lat="44.35248825699091" lon="5.708040855824947">
        <ele>669</ele>
        <time>2014-05-20T13:02:47Z</time>
      </trkpt>
      <trkpt lat="44.352545673027635" lon="5.708072455599904">
        <ele>669.20001220703125</ele>
        <time>2014-05-20T13:02:49Z</time>
      </trkpt>
      <trkpt lat="44.35270182788372" lon="5.708076227456331">
        <ele>669.79998779296875</ele>
        <time>2014-05-20T13:02:54Z</time>
      </trkpt>
      <trkpt lat="44.35273309238255" lon="5.708018308505416">
        <ele>670</ele>
        <time>2014-05-20T13:02:56Z</time>
      </trkpt>
      <trkpt lat="44.352721609175205" lon="5.70799894630909">
        <ele>670</ele>
        <time>2014-05-20T13:02:58Z</time>
      </trkpt>
      <trkpt lat="44.352673161774874" lon="5.707962233573198">
        <ele>669.79998779296875</ele>
        <time>2014-05-20T13:03:02Z</time>
      </trkpt>
      <trkpt lat="44.352672072127461" lon="5.707960221916437">
        <ele>669.5999755859375</ele>
        <time>2014-05-20T13:03:41Z</time>
      </trkpt>
      <trkpt lat="44.352739043533802" lon="5.708017637953162">
        <ele>669.4000244140625</ele>
        <time>2014-05-20T13:03:46Z</time>
      </trkpt>
      <trkpt lat="44.352936437353492" lon="5.70804588496685">
        <ele>669.79998779296875</ele>
        <time>2014-05-20T13:03:53Z</time>
      </trkpt>
      <trkpt lat="44.353125281631947" lon="5.708195753395557">
        <ele>670</ele>
        <time>2014-05-20T13:04:00Z</time>
      </trkpt>
      <trkpt lat="44.353293087333441" lon="5.708248978480697">
        <ele>671.20001220703125</ele>
        <time>2014-05-20T13:05:36Z</time>
      </trkpt>
      <trkpt lat="44.353378918021917" lon="5.708287367597222">
        <ele>671</ele>
        <time>2014-05-20T13:05:39Z</time>
      </trkpt>
      <trkpt lat="44.353575222194195" lon="5.708375042304397">
        <ele>670.79998779296875</ele>
        <time>2014-05-20T13:05:46Z</time>
      </trkpt>
      <trkpt lat="44.353756522759795" lon="5.708480235189199">
        <ele>671.4000244140625</ele>
        <time>2014-05-20T13:05:53Z</time>
      </trkpt>
      <trkpt lat="44.353921394795179" lon="5.70859506726265">
        <ele>669.5999755859375</ele>
        <time>2014-05-20T13:05:57Z</time>
      </trkpt>
      <trkpt lat="44.354006219655275" lon="5.708687100559473">
        <ele>668.5999755859375</ele>
        <time>2014-05-20T13:05:59Z</time>
      </trkpt>
      <trkpt lat="44.354056930169463" lon="5.708728088065982">
        <ele>668.4000244140625</ele>
        <time>2014-05-20T13:06:00Z</time>
      </trkpt>
      <trkpt lat="44.354180144146085" lon="5.70878810249269">
        <ele>668.20001220703125</ele>
        <time>2014-05-20T13:06:02Z</time>
      </trkpt>
      <trkpt lat="44.354369239881635" lon="5.708895726129413">
        <ele>667.4000244140625</ele>
        <time>2014-05-20T13:06:05Z</time>
      </trkpt>
      <trkpt lat="44.354546098038554" lon="5.709022041410208">
        <ele>666.79998779296875</ele>
        <time>2014-05-20T13:06:08Z</time>
      </trkpt>
      <trkpt lat="44.354767883196473" lon="5.70922295562923">
        <ele>666.20001220703125</ele>
        <time>2014-05-20T13:06:12Z</time>
      </trkpt>
      <trkpt lat="44.354917667806149" lon="5.709396796301007">
        <ele>665.20001220703125</ele>
        <time>2014-05-20T13:06:15Z</time>
      </trkpt>
      <trkpt lat="44.354951614513993" lon="5.709465444087982">
        <ele>664.79998779296875</ele>
        <time>2014-05-20T13:06:16Z</time>
      </trkpt>
      <trkpt lat="44.354908196255565" lon="5.709625789895654">
        <ele>664.4000244140625</ele>
        <time>2014-05-20T13:06:17Z</time>
      </trkpt>
      <trkpt lat="44.354864610359073" lon="5.710199698805809">
        <ele>663.79998779296875</ele>
        <time>2014-05-20T13:06:22Z</time>
      </trkpt>
      <trkpt lat="44.354852372780442" lon="5.710305813699961">
        <ele>663.79998779296875</ele>
        <time>2014-05-20T13:06:23Z</time>
      </trkpt>
      <trkpt lat="44.354812307283282" lon="5.710816942155361">
        <ele>663.4000244140625</ele>
        <time>2014-05-20T13:06:28Z</time>
      </trkpt>
      <trkpt lat="44.354818761348724" lon="5.710915010422468">
        <ele>662.79998779296875</ele>
        <time>2014-05-20T13:06:29Z</time>
      </trkpt>
      <trkpt lat="44.354832004755735" lon="5.711011905223131">
        <ele>662.20001220703125</ele>
        <time>2014-05-20T13:06:30Z</time>
      </trkpt>
      <trkpt lat="44.35487668029964" lon="5.711196726188064">
        <ele>661.5999755859375</ele>
        <time>2014-05-20T13:06:32Z</time>
      </trkpt>
      <trkpt lat="44.354904592037201" lon="5.71128549054265">
        <ele>661.20001220703125</ele>
        <time>2014-05-20T13:06:33Z</time>
      </trkpt>
      <trkpt lat="44.355079773813486" lon="5.711778765544295">
        <ele>661</ele>
        <time>2014-05-20T13:06:39Z</time>
      </trkpt>
      <trkpt lat="44.355309521779418" lon="5.712319649755955">
        <ele>660.20001220703125</ele>
        <time>2014-05-20T13:06:46Z</time>
      </trkpt>
      <trkpt lat="44.355347407981753" lon="5.712406067177653">
        <ele>660</ele>
        <time>2014-05-20T13:06:47Z</time>
      </trkpt>
      <trkpt lat="44.355464000254869" lon="5.712667498737574">
        <ele>659</ele>
        <time>2014-05-20T13:06:50Z</time>
      </trkpt>
      <trkpt lat="44.355588890612125" lon="5.712926583364606">
        <ele>658.20001220703125</ele>
        <time>2014-05-20T13:06:53Z</time>
      </trkpt>
      <trkpt lat="44.35562769882381" lon="5.713018700480461">
        <ele>658</ele>
        <time>2014-05-20T13:06:54Z</time>
      </trkpt>
      <trkpt lat="44.355658041313291" lon="5.713118696585298">
        <ele>657.79998779296875</ele>
        <time>2014-05-20T13:06:55Z</time>
      </trkpt>
      <trkpt lat="44.355683773756027" lon="5.713343750685453">
        <ele>657.4000244140625</ele>
        <time>2014-05-20T13:06:57Z</time>
      </trkpt>
      <trkpt lat="44.355691317468882" lon="5.713591687381268">
        <ele>655.79998779296875</ele>
        <time>2014-05-20T13:06:59Z</time>
      </trkpt>
      <trkpt lat="44.355690060183406" lon="5.713853873312473">
        <ele>654.79998779296875</ele>
        <time>2014-05-20T13:07:01Z</time>
      </trkpt>
      <trkpt lat="44.355688551440835" lon="5.713992593809962">
        <ele>654</ele>
        <time>2014-05-20T13:07:02Z</time>
      </trkpt>
      <trkpt lat="44.35568880289793" lon="5.714133493602276">
        <ele>653</ele>
        <time>2014-05-20T13:07:03Z</time>
      </trkpt>
      <trkpt lat="44.35569366440177" lon="5.714416466653347">
        <ele>651.4000244140625</ele>
        <time>2014-05-20T13:07:05Z</time>
      </trkpt>
      <trkpt lat="44.355704309418797" lon="5.714707989245653">
        <ele>650</ele>
        <time>2014-05-20T13:07:07Z</time>
      </trkpt>
      <trkpt lat="44.355713780969381" lon="5.71500051766634">
        <ele>649</ele>
        <time>2014-05-20T13:07:09Z</time>
      </trkpt>
      <trkpt lat="44.355723084881902" lon="5.715297153219581">
        <ele>648.79998779296875</ele>
        <time>2014-05-20T13:07:11Z</time>
      </trkpt>
      <trkpt lat="44.355741692706943" lon="5.715739885345101">
        <ele>647</ele>
        <time>2014-05-20T13:07:14Z</time>
      </trkpt>
      <trkpt lat="44.355750242248178" lon="5.716022187843919">
        <ele>645.4000244140625</ele>
        <time>2014-05-20T13:07:16Z</time>
      </trkpt>
      <trkpt lat="44.355755858123302" lon="5.716160237789154">
        <ele>644.79998779296875</ele>
        <time>2014-05-20T13:07:17Z</time>
      </trkpt>
      <trkpt lat="44.355782764032483" lon="5.716962218284607">
        <ele>645.79998779296875</ele>
        <time>2014-05-20T13:07:23Z</time>
      </trkpt>
      <trkpt lat="44.355793409049511" lon="5.71723454631865">
        <ele>645.79998779296875</ele>
        <time>2014-05-20T13:07:25Z</time>
      </trkpt>
      <trkpt lat="44.355815453454852" lon="5.718037867918611">
        <ele>646</ele>
        <time>2014-05-20T13:07:31Z</time>
      </trkpt>
      <trkpt lat="44.355830624699593" lon="5.718573722988367">
        <ele>643.79998779296875</ele>
        <time>2014-05-20T13:07:35Z</time>
      </trkpt>
      <trkpt lat="44.35584026388824" lon="5.718836411833763">
        <ele>642.79998779296875</ele>
        <time>2014-05-20T13:07:37Z</time>
      </trkpt>
      <trkpt lat="44.355871444568038" lon="5.719703687354922">
        <ele>642.4000244140625</ele>
        <time>2014-05-20T13:07:44Z</time>
      </trkpt>
      <trkpt lat="44.355891812592745" lon="5.72030458599329">
        <ele>641.5999755859375</ele>
        <time>2014-05-20T13:07:49Z</time>
      </trkpt>
      <trkpt lat="44.355910588055849" lon="5.720777995884419">
        <ele>641.20001220703125</ele>
        <time>2014-05-20T13:07:53Z</time>
      </trkpt>
      <trkpt lat="44.355932883918285" lon="5.721596321091056">
        <ele>640.79998779296875</ele>
        <time>2014-05-20T13:08:00Z</time>
      </trkpt>
      <trkpt lat="44.355938835069537" lon="5.721824476495385">
        <ele>640.5999755859375</ele>
        <time>2014-05-20T13:08:02Z</time>
      </trkpt>
      <trkpt lat="44.355965154245496" lon="5.722606927156448">
        <ele>640.20001220703125</ele>
        <time>2014-05-20T13:08:09Z</time>
      </trkpt>
      <trkpt lat="44.355971524491906" lon="5.722823264077306">
        <ele>640.5999755859375</ele>
        <time>2014-05-20T13:08:11Z</time>
      </trkpt>
      <trkpt lat="44.35600102879107" lon="5.723680313676596">
        <ele>640</ele>
        <time>2014-05-20T13:08:19Z</time>
      </trkpt>
      <trkpt lat="44.356006477028131" lon="5.723898997530341">
        <ele>639.4000244140625</ele>
        <time>2014-05-20T13:08:21Z</time>
      </trkpt>
      <trkpt lat="44.356032963842154" lon="5.724676670506597">
        <ele>638.79998779296875</ele>
        <time>2014-05-20T13:08:28Z</time>
      </trkpt>
      <trkpt lat="44.356037490069866" lon="5.724792340770364">
        <ele>638.5999755859375</ele>
        <time>2014-05-20T13:08:29Z</time>
      </trkpt>
      <trkpt lat="44.356042854487896" lon="5.724909603595734">
        <ele>638.4000244140625</ele>
        <time>2014-05-20T13:08:30Z</time>
      </trkpt>
      <trkpt lat="44.356062635779381" lon="5.72551335208118">
        <ele>637.20001220703125</ele>
        <time>2014-05-20T13:08:35Z</time>
      </trkpt>
      <trkpt lat="44.356074286624789" lon="5.725756008177996">
        <ele>637</ele>
        <time>2014-05-20T13:08:37Z</time>
      </trkpt>
      <trkpt lat="44.356104796752334" lon="5.72660693898797">
        <ele>636.20001220703125</ele>
        <time>2014-05-20T13:08:44Z</time>
      </trkpt>
      <trkpt lat="44.356109071522951" lon="5.726730236783624">
        <ele>636</ele>
        <time>2014-05-20T13:08:45Z</time>
      </trkpt>
      <trkpt lat="44.356116950511932" lon="5.72697389870882">
        <ele>635.5999755859375</ele>
        <time>2014-05-20T13:08:47Z</time>
      </trkpt>
      <trkpt lat="44.356147544458508" lon="5.727719636633992">
        <ele>634.79998779296875</ele>
        <time>2014-05-20T13:08:53Z</time>
      </trkpt>
      <trkpt lat="44.356162967160344" lon="5.728100845590234">
        <ele>633.5999755859375</ele>
        <time>2014-05-20T13:08:56Z</time>
      </trkpt>
      <trkpt lat="44.356172187253833" lon="5.72847593575716">
        <ele>632.5999755859375</ele>
        <time>2014-05-20T13:08:59Z</time>
      </trkpt>
      <trkpt lat="44.356167828664184" lon="5.728817330673337">
        <ele>633.20001220703125</ele>
        <time>2014-05-20T13:09:02Z</time>
      </trkpt>
      <trkpt lat="44.356153998523951" lon="5.728922607377172">
        <ele>633.4000244140625</ele>
        <time>2014-05-20T13:09:03Z</time>
      </trkpt>
      <trkpt lat="44.356134720146656" lon="5.729023441672325">
        <ele>633.79998779296875</ele>
        <time>2014-05-20T13:09:04Z</time>
      </trkpt>
      <trkpt lat="44.356046626344323" lon="5.729295769706368">
        <ele>634.20001220703125</ele>
        <time>2014-05-20T13:09:07Z</time>
      </trkpt>
      <trkpt lat="44.355766167864203" lon="5.729973530396819">
        <ele>633.5999755859375</ele>
        <time>2014-05-20T13:09:15Z</time>
      </trkpt>
      <trkpt lat="44.355480847880244" lon="5.730686075985432">
        <ele>632.79998779296875</ele>
        <time>2014-05-20T13:09:23Z</time>
      </trkpt>
      <trkpt lat="44.35544497333467" lon="5.730773666873574">
        <ele>632.4000244140625</ele>
        <time>2014-05-20T13:09:24Z</time>
      </trkpt>
      <trkpt lat="44.355408092960715" lon="5.73086142539978">
        <ele>632.20001220703125</ele>
        <time>2014-05-20T13:09:25Z</time>
      </trkpt>
      <trkpt lat="44.355121180415154" lon="5.731578832492232">
        <ele>631.79998779296875</ele>
        <time>2014-05-20T13:09:33Z</time>
      </trkpt>
      <trkpt lat="44.355010036379099" lon="5.73185526765883">
        <ele>631.4000244140625</ele>
        <time>2014-05-20T13:09:36Z</time>
      </trkpt>
      <trkpt lat="44.354973575100303" lon="5.731946965679526">
        <ele>631</ele>
        <time>2014-05-20T13:09:37Z</time>
      </trkpt>
      <trkpt lat="44.354824377223849" lon="5.732322139665484">
        <ele>630.20001220703125</ele>
        <time>2014-05-20T13:09:41Z</time>
      </trkpt>
      <trkpt lat="44.354604352265596" lon="5.732866209000349">
        <ele>628.4000244140625</ele>
        <time>2014-05-20T13:09:47Z</time>
      </trkpt>
      <trkpt lat="44.354569567367435" lon="5.732952961698175">
        <ele>628.20001220703125</ele>
        <time>2014-05-20T13:09:48Z</time>
      </trkpt>
      <trkpt lat="44.354428416118026" lon="5.733305588364601">
        <ele>627.20001220703125</ele>
        <time>2014-05-20T13:09:52Z</time>
      </trkpt>
      <trkpt lat="44.354285672307014" lon="5.733667351305485">
        <ele>626</ele>
        <time>2014-05-20T13:09:56Z</time>
      </trkpt>
      <trkpt lat="44.354178383946419" lon="5.73393733240664">
        <ele>626</ele>
        <time>2014-05-20T13:09:59Z</time>
      </trkpt>
      <trkpt lat="44.354038322344422" lon="5.73429498821497">
        <ele>625</ele>
        <time>2014-05-20T13:10:03Z</time>
      </trkpt>
      <trkpt lat="44.353860625997186" lon="5.734738977625966">
        <ele>624.5999755859375</ele>
        <time>2014-05-20T13:10:08Z</time>
      </trkpt>
      <trkpt lat="44.353590309619904" lon="5.735423443838954">
        <ele>624.4000244140625</ele>
        <time>2014-05-20T13:10:16Z</time>
      </trkpt>
      <trkpt lat="44.353558206930757" lon="5.735507179051638">
        <ele>624.4000244140625</ele>
        <time>2014-05-20T13:10:17Z</time>
      </trkpt>
      <trkpt lat="44.353289231657982" lon="5.736168846487999">
        <ele>624.5999755859375</ele>
        <time>2014-05-20T13:10:25Z</time>
      </trkpt>
      <trkpt lat="44.353150175884366" lon="5.736518036574125">
        <ele>624</ele>
        <time>2014-05-20T13:10:29Z</time>
      </trkpt>
      <trkpt lat="44.353011455386877" lon="5.736868316307664">
        <ele>622.5999755859375</ele>
        <time>2014-05-20T13:10:33Z</time>
      </trkpt>
      <trkpt lat="44.352771397680044" lon="5.737486397847533">
        <ele>622.20001220703125</ele>
        <time>2014-05-20T13:10:41Z</time>
      </trkpt>
      <trkpt lat="44.352596802636981" lon="5.737912869080901">
        <ele>621.4000244140625</ele>
        <time>2014-05-20T13:10:47Z</time>
      </trkpt>
      <trkpt lat="44.352570232003927" lon="5.737983528524637">
        <ele>620.79998779296875</ele>
        <time>2014-05-20T13:10:48Z</time>
      </trkpt>
      <trkpt lat="44.352395804598927" lon="5.738428356125951">
        <ele>620</ele>
        <time>2014-05-20T13:10:54Z</time>
      </trkpt>
      <trkpt lat="44.352302346378565" lon="5.738661959767342">
        <ele>619.79998779296875</ele>
        <time>2014-05-20T13:10:57Z</time>
      </trkpt>
      <trkpt lat="44.35203823260963" lon="5.73932052589953">
        <ele>619.20001220703125</ele>
        <time>2014-05-20T13:11:05Z</time>
      </trkpt>
      <trkpt lat="44.352003028616309" lon="5.739405769854784">
        <ele>619.20001220703125</ele>
        <time>2014-05-20T13:11:06Z</time>
      </trkpt>
      <trkpt lat="44.351721815764904" lon="5.740105742588639">
        <ele>619.20001220703125</ele>
        <time>2014-05-20T13:11:14Z</time>
      </trkpt>
      <trkpt lat="44.351687198504806" lon="5.740194004029036">
        <ele>618.79998779296875</ele>
        <time>2014-05-20T13:11:15Z</time>
      </trkpt>
      <trkpt lat="44.351652329787612" lon="5.740280756726861">
        <ele>618.5999755859375</ele>
        <time>2014-05-20T13:11:16Z</time>
      </trkpt>
      <trkpt lat="44.351412188261747" lon="5.740889869630337">
        <ele>617.79998779296875</ele>
        <time>2014-05-20T13:11:23Z</time>
      </trkpt>
      <trkpt lat="44.351377068087459" lon="5.740978717803955">
        <ele>617.5999755859375</ele>
        <time>2014-05-20T13:11:24Z</time>
      </trkpt>
      <trkpt lat="44.351198533549905" lon="5.741427401080728">
        <ele>616.5999755859375</ele>
        <time>2014-05-20T13:11:29Z</time>
      </trkpt>
      <trkpt lat="44.35102385468781" lon="5.741868373006582">
        <ele>616.20001220703125</ele>
        <time>2014-05-20T13:11:34Z</time>
      </trkpt>
      <trkpt lat="44.350755549967289" lon="5.742530543357134">
        <ele>616.5999755859375</ele>
        <time>2014-05-20T13:11:42Z</time>
      </trkpt>
      <trkpt lat="44.350724620744586" lon="5.7426100037992">
        <ele>616.5999755859375</ele>
        <time>2014-05-20T13:11:43Z</time>
      </trkpt>
      <trkpt lat="44.350457992404699" lon="5.743266809731722">
        <ele>616.4000244140625</ele>
        <time>2014-05-20T13:11:52Z</time>
      </trkpt>
      <trkpt lat="44.350256575271487" lon="5.743775004521012">
        <ele>617.5999755859375</ele>
        <time>2014-05-20T13:12:00Z</time>
      </trkpt>
      <trkpt lat="44.350233944132924" lon="5.743835773319006">
        <ele>617.5999755859375</ele>
        <time>2014-05-20T13:12:01Z</time>
      </trkpt>
      <trkpt lat="44.349996400997043" lon="5.74442820623517">
        <ele>618</ele>
        <time>2014-05-20T13:12:10Z</time>
      </trkpt>
      <trkpt lat="44.349730694666505" lon="5.745091466233134">
        <ele>616.5999755859375</ele>
        <time>2014-05-20T13:12:19Z</time>
      </trkpt>
      <trkpt lat="44.349487787112594" lon="5.745705692097545">
        <ele>616</ele>
        <time>2014-05-20T13:12:27Z</time>
      </trkpt>
      <trkpt lat="44.349219566211104" lon="5.746380183845758">
        <ele>617</ele>
        <time>2014-05-20T13:12:36Z</time>
      </trkpt>
      <trkpt lat="44.348940197378397" lon="5.747076133266091">
        <ele>616.5999755859375</ele>
        <time>2014-05-20T13:12:45Z</time>
      </trkpt>
      <trkpt lat="44.348874231800437" lon="5.74723438359797">
        <ele>615</ele>
        <time>2014-05-20T13:12:47Z</time>
      </trkpt>
      <trkpt lat="44.34862663038075" lon="5.747850872576237">
        <ele>614.20001220703125</ele>
        <time>2014-05-20T13:12:55Z</time>
      </trkpt>
      <trkpt lat="44.348596120253205" lon="5.74792480096221">
        <ele>613.79998779296875</ele>
        <time>2014-05-20T13:12:56Z</time>
      </trkpt>
      <trkpt lat="44.348396295681596" lon="5.748435342684388">
        <ele>612.5999755859375</ele>
        <time>2014-05-20T13:13:03Z</time>
      </trkpt>
      <trkpt lat="44.348341897130013" lon="5.748570375144482">
        <ele>612.20001220703125</ele>
        <time>2014-05-20T13:13:05Z</time>
      </trkpt>
      <trkpt lat="44.348124973475933" lon="5.749102290719748">
        <ele>611.5999755859375</ele>
        <time>2014-05-20T13:13:13Z</time>
      </trkpt>
      <trkpt lat="44.348098486661911" lon="5.74916934594512">
        <ele>611.4000244140625</ele>
        <time>2014-05-20T13:13:14Z</time>
      </trkpt>
      <trkpt lat="44.347827499732375" lon="5.749842748045921">
        <ele>611.79998779296875</ele>
        <time>2014-05-20T13:13:24Z</time>
      </trkpt>
      <trkpt lat="44.347576377913356" lon="5.750471977517009">
        <ele>611.4000244140625</ele>
        <time>2014-05-20T13:13:33Z</time>
      </trkpt>
      <trkpt lat="44.347376972436905" lon="5.750972125679255">
        <ele>610.20001220703125</ele>
        <time>2014-05-20T13:13:40Z</time>
      </trkpt>
      <trkpt lat="44.347319807857275" lon="5.751108918339014">
        <ele>609.20001220703125</ele>
        <time>2014-05-20T13:13:42Z</time>
      </trkpt>
      <trkpt lat="44.347052257508039" lon="5.75178206898272">
        <ele>608.5999755859375</ele>
        <time>2014-05-20T13:13:52Z</time>
      </trkpt>
      <trkpt lat="44.346774313598871" lon="5.75247542001307">
        <ele>609</ele>
        <time>2014-05-20T13:14:02Z</time>
      </trkpt>
      <trkpt lat="44.346514390781522" lon="5.753138177096844">
        <ele>607.79998779296875</ele>
        <time>2014-05-20T13:14:11Z</time>
      </trkpt>
      <trkpt lat="44.346246086061001" lon="5.75381132774055">
        <ele>607.5999755859375</ele>
        <time>2014-05-20T13:14:20Z</time>
      </trkpt>
      <trkpt lat="44.346186993643641" lon="5.753956334665418">
        <ele>607.5999755859375</ele>
        <time>2014-05-20T13:14:22Z</time>
      </trkpt>
      <trkpt lat="44.346099486574531" lon="5.754180382937193">
        <ele>606.5999755859375</ele>
        <time>2014-05-20T13:14:25Z</time>
      </trkpt>
      <trkpt lat="44.345923131331801" lon="5.754628898575902">
        <ele>607</ele>
        <time>2014-05-20T13:14:31Z</time>
      </trkpt>
      <trkpt lat="44.345891447737813" lon="5.754706347361207">
        <ele>606.79998779296875</ele>
        <time>2014-05-20T13:14:32Z</time>
      </trkpt>
      <trkpt lat="44.345603194087744" lon="5.755418809130788">
        <ele>605.79998779296875</ele>
        <time>2014-05-20T13:14:41Z</time>
      </trkpt>
      <trkpt lat="44.345570001751184" lon="5.755498185753822">
        <ele>605.5999755859375</ele>
        <time>2014-05-20T13:14:42Z</time>
      </trkpt>
      <trkpt lat="44.345445111393929" lon="5.755806723609567">
        <ele>604.5999755859375</ele>
        <time>2014-05-20T13:14:46Z</time>
      </trkpt>
      <trkpt lat="44.345358358696103" lon="5.756030017510057">
        <ele>604.20001220703125</ele>
        <time>2014-05-20T13:14:49Z</time>
      </trkpt>
      <trkpt lat="44.345127604901791" lon="5.756623120978475">
        <ele>604.4000244140625</ele>
        <time>2014-05-20T13:14:57Z</time>
      </trkpt>
      <trkpt lat="44.34483633376658" lon="5.757350586354733">
        <ele>603</ele>
        <time>2014-05-20T13:15:07Z</time>
      </trkpt>
      <trkpt lat="44.344556294381618" lon="5.758050894364715">
        <ele>602.5999755859375</ele>
        <time>2014-05-20T13:15:17Z</time>
      </trkpt>
      <trkpt lat="44.34452754445374" lon="5.758122727274895">
        <ele>602.4000244140625</ele>
        <time>2014-05-20T13:15:18Z</time>
      </trkpt>
      <trkpt lat="44.344472391530871" lon="5.758262872695923">
        <ele>601.79998779296875</ele>
        <time>2014-05-20T13:15:20Z</time>
      </trkpt>
      <trkpt lat="44.344307519495487" lon="5.758661851286888">
        <ele>602.20001220703125</ele>
        <time>2014-05-20T13:15:26Z</time>
      </trkpt>
      <trkpt lat="44.344159495085478" lon="5.759080024436116">
        <ele>602.20001220703125</ele>
        <time>2014-05-20T13:15:32Z</time>
      </trkpt>
      <trkpt lat="44.344117166474462" lon="5.759230814874172">
        <ele>601.79998779296875</ele>
        <time>2014-05-20T13:15:34Z</time>
      </trkpt>
      <trkpt lat="44.344074921682477" lon="5.759541699662805">
        <ele>601.4000244140625</ele>
        <time>2014-05-20T13:15:38Z</time>
      </trkpt>
      <trkpt lat="44.344071820378304" lon="5.759707996621728">
        <ele>601.5999755859375</ele>
        <time>2014-05-20T13:15:40Z</time>
      </trkpt>
      <trkpt lat="44.344068886712193" lon="5.760071938857436">
        <ele>601</ele>
        <time>2014-05-20T13:15:44Z</time>
      </trkpt>
      <trkpt lat="44.344067713245749" lon="5.760166402906179">
        <ele>600.4000244140625</ele>
        <time>2014-05-20T13:15:45Z</time>
      </trkpt>
      <trkpt lat="44.344073245301843" lon="5.760657247155905">
        <ele>600.20001220703125</ele>
        <time>2014-05-20T13:15:50Z</time>
      </trkpt>
      <trkpt lat="44.34407458640635" lon="5.761188575997949">
        <ele>599.20001220703125</ele>
        <time>2014-05-20T13:15:55Z</time>
      </trkpt>
      <trkpt lat="44.344079280272126" lon="5.761417988687754">
        <ele>598</ele>
        <time>2014-05-20T13:15:57Z</time>
      </trkpt>
      <trkpt lat="44.344071568921208" lon="5.761649664491415">
        <ele>596.5999755859375</ele>
        <time>2014-05-20T13:15:59Z</time>
      </trkpt>
      <trkpt lat="44.344046423211694" lon="5.761759132146835">
        <ele>595.5999755859375</ele>
        <time>2014-05-20T13:16:00Z</time>
      </trkpt>
      <trkpt lat="44.34392748400569" lon="5.761924926191568">
        <ele>594</ele>
        <time>2014-05-20T13:16:02Z</time>
      </trkpt>
      <trkpt lat="44.343750793486834" lon="5.761949568986893">
        <ele>593.4000244140625</ele>
        <time>2014-05-20T13:16:04Z</time>
      </trkpt>
      <trkpt lat="44.343575024977326" lon="5.761861307546496">
        <ele>593</ele>
        <time>2014-05-20T13:16:06Z</time>
      </trkpt>
      <trkpt lat="44.343487517908216" lon="5.761812273412943">
        <ele>592.4000244140625</ele>
        <time>2014-05-20T13:16:07Z</time>
      </trkpt>
      <trkpt lat="44.343404034152627" lon="5.761764915660024">
        <ele>592</ele>
        <time>2014-05-20T13:16:08Z</time>
      </trkpt>
      <trkpt lat="44.343026513233781" lon="5.761563079431653">
        <ele>592.4000244140625</ele>
        <time>2014-05-20T13:16:13Z</time>
      </trkpt>
      <trkpt lat="44.342825431376696" lon="5.76147984713316">
        <ele>593</ele>
        <time>2014-05-20T13:16:16Z</time>
      </trkpt>
      <trkpt lat="44.342762567102909" lon="5.761459479108453">
        <ele>593.4000244140625</ele>
        <time>2014-05-20T13:16:17Z</time>
      </trkpt>
      <trkpt lat="44.342706575989723" lon="5.761442547664046">
        <ele>594</ele>
        <time>2014-05-20T13:16:18Z</time>
      </trkpt>
      <trkpt lat="44.342653183266521" lon="5.761428633704782">
        <ele>594.5999755859375</ele>
        <time>2014-05-20T13:16:19Z</time>
      </trkpt>
      <trkpt lat="44.34247775003314" lon="5.761428130790591">
        <ele>595.5999755859375</ele>
        <time>2014-05-20T13:16:23Z</time>
      </trkpt>
      <trkpt lat="44.342404408380389" lon="5.761451683938503">
        <ele>596</ele>
        <time>2014-05-20T13:16:25Z</time>
      </trkpt>
      <trkpt lat="44.342320840805769" lon="5.761492503806949">
        <ele>597</ele>
        <time>2014-05-20T13:16:29Z</time>
      </trkpt>
      <trkpt lat="44.342303238809109" lon="5.761511363089085">
        <ele>597.4000244140625</ele>
        <time>2014-05-20T13:17:46Z</time>
      </trkpt>
      <trkpt lat="44.342292090877891" lon="5.761530641466379">
        <ele>597.4000244140625</ele>
        <time>2014-05-20T13:17:47Z</time>
      </trkpt>
      <trkpt lat="44.342193100601435" lon="5.761611443012953">
        <ele>596.79998779296875</ele>
        <time>2014-05-20T13:17:51Z</time>
      </trkpt>
      <trkpt lat="44.341973410919309" lon="5.761806406080723">
        <ele>596.20001220703125</ele>
        <time>2014-05-20T13:17:58Z</time>
      </trkpt>
      <trkpt lat="44.341907780617476" lon="5.761885279789567">
        <ele>596</ele>
        <time>2014-05-20T13:18:00Z</time>
      </trkpt>
      <trkpt lat="44.341877773404121" lon="5.761935235932469">
        <ele>595.79998779296875</ele>
        <time>2014-05-20T13:18:01Z</time>
      </trkpt>
      <trkpt lat="44.341823039576411" lon="5.762046799063683">
        <ele>594.79998779296875</ele>
        <time>2014-05-20T13:18:03Z</time>
      </trkpt>
      <trkpt lat="44.341796385124326" lon="5.762110333889723">
        <ele>594.4000244140625</ele>
        <time>2014-05-20T13:18:04Z</time>
      </trkpt>
      <trkpt lat="44.341773167252541" lon="5.76218350790441">
        <ele>594.20001220703125</ele>
        <time>2014-05-20T13:18:05Z</time>
      </trkpt>
      <trkpt lat="44.341720193624496" lon="5.762348379939795">
        <ele>593</ele>
        <time>2014-05-20T13:18:07Z</time>
      </trkpt>
      <trkpt lat="44.341693874448538" lon="5.762434126809239">
        <ele>592.4000244140625</ele>
        <time>2014-05-20T13:18:08Z</time>
      </trkpt>
      <trkpt lat="44.341640146449208" lon="5.762611571699381">
        <ele>591.5999755859375</ele>
        <time>2014-05-20T13:18:10Z</time>
      </trkpt>
      <trkpt lat="44.341470915824175" lon="5.763236861675978">
        <ele>591</ele>
        <time>2014-05-20T13:18:17Z</time>
      </trkpt>
      <trkpt lat="44.341442249715328" lon="5.763314226642251">
        <ele>591.20001220703125</ele>
        <time>2014-05-20T13:18:18Z</time>
      </trkpt>
      <trkpt lat="44.3413539044559" lon="5.763428052887321">
        <ele>591.20001220703125</ele>
        <time>2014-05-20T13:18:20Z</time>
      </trkpt>
      <trkpt lat="44.341211076825857" lon="5.763554116711021">
        <ele>591.5999755859375</ele>
        <time>2014-05-20T13:18:23Z</time>
      </trkpt>
      <trkpt lat="44.341173442080617" lon="5.763776237145066">
        <ele>592.20001220703125</ele>
        <time>2014-05-20T13:18:26Z</time>
      </trkpt>
      <trkpt lat="44.341164976358414" lon="5.763857457786799">
        <ele>592.20001220703125</ele>
        <time>2014-05-20T13:18:27Z</time>
      </trkpt>
      <trkpt lat="44.341134550049901" lon="5.764015540480614">
        <ele>591.79998779296875</ele>
        <time>2014-05-20T13:18:29Z</time>
      </trkpt>
      <trkpt lat="44.341085767373443" lon="5.764156859368086">
        <ele>591.5999755859375</ele>
        <time>2014-05-20T13:18:31Z</time>
      </trkpt>
      <trkpt lat="44.341024328023195" lon="5.764285856857896">
        <ele>591.5999755859375</ele>
        <time>2014-05-20T13:18:33Z</time>
      </trkpt>
      <trkpt lat="44.340880662202835" lon="5.764544187113643">
        <ele>592</ele>
        <time>2014-05-20T13:18:37Z</time>
      </trkpt>
      <trkpt lat="44.34060825034976" lon="5.765077695250511">
        <ele>591.5999755859375</ele>
        <time>2014-05-20T13:18:45Z</time>
      </trkpt>
      <trkpt lat="44.340331144630909" lon="5.765610197558999">
        <ele>592</ele>
        <time>2014-05-20T13:18:53Z</time>
      </trkpt>
      <trkpt lat="44.340322092175484" lon="5.765689322724938">
        <ele>592.20001220703125</ele>
        <time>2014-05-20T13:18:54Z</time>
      </trkpt>
      <trkpt lat="44.340330809354782" lon="5.765767861157656">
        <ele>592.20001220703125</ele>
        <time>2014-05-20T13:18:55Z</time>
      </trkpt>
      <trkpt lat="44.34041571803391" lon="5.766082182526588">
        <ele>591.79998779296875</ele>
        <time>2014-05-20T13:18:59Z</time>
      </trkpt>
      <trkpt lat="44.340444970875978" lon="5.766161559149623">
        <ele>591.5999755859375</ele>
        <time>2014-05-20T13:19:00Z</time>
      </trkpt>
      <trkpt lat="44.340565335005522" lon="5.766372783109546">
        <ele>590.5999755859375</ele>
        <time>2014-05-20T13:19:03Z</time>
      </trkpt>
      <trkpt lat="44.340600119903684" lon="5.766448471695185">
        <ele>590.5999755859375</ele>
        <time>2014-05-20T13:19:04Z</time>
      </trkpt>
      <trkpt lat="44.340613028034568" lon="5.766621809452772">
        <ele>590.20001220703125</ele>
        <time>2014-05-20T13:19:06Z</time>
      </trkpt>
      <trkpt lat="44.340514624491334" lon="5.766767486929894">
        <ele>589.20001220703125</ele>
        <time>2014-05-20T13:19:08Z</time>
      </trkpt>
      <trkpt lat="44.340329635888338" lon="5.766873769462109">
        <ele>588.5999755859375</ele>
        <time>2014-05-20T13:19:11Z</time>
      </trkpt>
      <trkpt lat="44.340220503509045" lon="5.7669622823596">
        <ele>588.79998779296875</ele>
        <time>2014-05-20T13:19:13Z</time>
      </trkpt>
      <trkpt lat="44.340173816308379" lon="5.76701894402504">
        <ele>589</ele>
        <time>2014-05-20T13:19:14Z</time>
      </trkpt>
      <trkpt lat="44.340130062773824" lon="5.767091028392315">
        <ele>589.4000244140625</ele>
        <time>2014-05-20T13:19:15Z</time>
      </trkpt>
      <trkpt lat="44.340083710849285" lon="5.767344664782286">
        <ele>589.79998779296875</ele>
        <time>2014-05-20T13:19:18Z</time>
      </trkpt>
      <trkpt lat="44.340088991448283" lon="5.767426555976272">
        <ele>590.20001220703125</ele>
        <time>2014-05-20T13:19:19Z</time>
      </trkpt>
      <trkpt lat="44.340106341987848" lon="5.767575083300471">
        <ele>591</ele>
        <time>2014-05-20T13:19:21Z</time>
      </trkpt>
      <trkpt lat="44.340113131329417" lon="5.767648592591286">
        <ele>591.5999755859375</ele>
        <time>2014-05-20T13:19:22Z</time>
      </trkpt>
      <trkpt lat="44.340117406100035" lon="5.767718330025673">
        <ele>591.79998779296875</ele>
        <time>2014-05-20T13:19:23Z</time>
      </trkpt>
      <trkpt lat="44.340139618143439" lon="5.767909521237016">
        <ele>592.5999755859375</ele>
        <time>2014-05-20T13:19:26Z</time>
      </trkpt>
      <trkpt lat="44.340156549587846" lon="5.768019240349531">
        <ele>592.79998779296875</ele>
        <time>2014-05-20T13:19:28Z</time>
      </trkpt>
      <trkpt lat="44.340152442455292" lon="5.768138933926821">
        <ele>593.4000244140625</ele>
        <time>2014-05-20T13:19:30Z</time>
      </trkpt>
      <trkpt lat="44.340147497132421" lon="5.768204731866717">
        <ele>593.5999755859375</ele>
        <time>2014-05-20T13:19:31Z</time>
      </trkpt>
      <trkpt lat="44.340083878487349" lon="5.768650146201253">
        <ele>594.4000244140625</ele>
        <time>2014-05-20T13:19:38Z</time>
      </trkpt>
      <trkpt lat="44.340057391673326" lon="5.76877654530108">
        <ele>594.79998779296875</ele>
        <time>2014-05-20T13:19:40Z</time>
      </trkpt>
      <trkpt lat="44.339988827705383" lon="5.769117772579193">
        <ele>595.20001220703125</ele>
        <time>2014-05-20T13:19:45Z</time>
      </trkpt>
      <trkpt lat="44.339943984523416" lon="5.769484061747789">
        <ele>595.79998779296875</ele>
        <time>2014-05-20T13:19:50Z</time>
      </trkpt>
      <trkpt lat="44.339926214888692" lon="5.769622027873993">
        <ele>596</ele>
        <time>2014-05-20T13:19:52Z</time>
      </trkpt>
      <trkpt lat="44.339891513809562" lon="5.769966021180153">
        <ele>597</ele>
        <time>2014-05-20T13:19:57Z</time>
      </trkpt>
      <trkpt lat="44.339881287887692" lon="5.770028717815876">
        <ele>597.4000244140625</ele>
        <time>2014-05-20T13:19:58Z</time>
      </trkpt>
      <trkpt lat="44.339869217947125" lon="5.770094264298677">
        <ele>597.5999755859375</ele>
        <time>2014-05-20T13:19:59Z</time>
      </trkpt>
      <trkpt lat="44.339853627607226" lon="5.77021068893373">
        <ele>598.20001220703125</ele>
        <time>2014-05-20T13:20:01Z</time>
      </trkpt>
      <trkpt lat="44.339838204905391" lon="5.770355947315693">
        <ele>599.4000244140625</ele>
        <time>2014-05-20T13:20:04Z</time>
      </trkpt>
      <trkpt lat="44.339834600687027" lon="5.77040028758347">
        <ele>599.5999755859375</ele>
        <time>2014-05-20T13:20:05Z</time>
      </trkpt>
      <trkpt lat="44.339814651757479" lon="5.77052291482687">
        <ele>600.4000244140625</ele>
        <time>2014-05-20T13:20:08Z</time>
      </trkpt>
      <trkpt lat="44.339810963720083" lon="5.770604638382793">
        <ele>600.79998779296875</ele>
        <time>2014-05-20T13:20:10Z</time>
      </trkpt>
      <trkpt lat="44.339804342016578" lon="5.770684853196144">
        <ele>601.5999755859375</ele>
        <time>2014-05-20T13:20:12Z</time>
      </trkpt>
      <trkpt lat="44.339778944849968" lon="5.77091770246625">
        <ele>602.5999755859375</ele>
        <time>2014-05-20T13:20:18Z</time>
      </trkpt>
      <trkpt lat="44.33977609500289" lon="5.771109396591783">
        <ele>603.79998779296875</ele>
        <time>2014-05-20T13:20:23Z</time>
      </trkpt>
      <trkpt lat="44.339775592088699" lon="5.771188521757722">
        <ele>604.20001220703125</ele>
        <time>2014-05-20T13:20:25Z</time>
      </trkpt>
      <trkpt lat="44.339771987870336" lon="5.771363703534007">
        <ele>605</ele>
        <time>2014-05-20T13:20:30Z</time>
      </trkpt>
      <trkpt lat="44.339779028669" lon="5.771508794277906">
        <ele>605.79998779296875</ele>
        <time>2014-05-20T13:20:34Z</time>
      </trkpt>
      <trkpt lat="44.339781543239951" lon="5.771545171737671">
        <ele>606</ele>
        <time>2014-05-20T13:20:35Z</time>
      </trkpt>
      <trkpt lat="44.339790008962154" lon="5.771740805357695">
        <ele>607.20001220703125</ele>
        <time>2014-05-20T13:20:41Z</time>
      </trkpt>
      <trkpt lat="44.339794116094708" lon="5.771928643807769">
        <ele>608.20001220703125</ele>
        <time>2014-05-20T13:20:48Z</time>
      </trkpt>
      <trkpt lat="44.339789003133774" lon="5.772097036242485">
        <ele>609.20001220703125</ele>
        <time>2014-05-20T13:20:54Z</time>
      </trkpt>
      <trkpt lat="44.339790679514408" lon="5.772124193608761">
        <ele>609.4000244140625</ele>
        <time>2014-05-20T13:20:55Z</time>
      </trkpt>
      <trkpt lat="44.339785650372505" lon="5.77225754968822">
        <ele>610.5999755859375</ele>
        <time>2014-05-20T13:21:00Z</time>
      </trkpt>
      <trkpt lat="44.339780285954475" lon="5.772303398698568">
        <ele>611</ele>
        <time>2014-05-20T13:21:02Z</time>
      </trkpt>
      <trkpt lat="44.339778861030936" lon="5.772433904930949">
        <ele>611.79998779296875</ele>
        <time>2014-05-20T13:21:07Z</time>
      </trkpt>
      <trkpt lat="44.339776346459985" lon="5.772482519969344">
        <ele>611.79998779296875</ele>
        <time>2014-05-20T13:21:09Z</time>
      </trkpt>
      <trkpt lat="44.339770395308733" lon="5.772627359256148">
        <ele>612.5999755859375</ele>
        <time>2014-05-20T13:21:15Z</time>
      </trkpt>
      <trkpt lat="44.339771149680018" lon="5.772686954587698">
        <ele>612.79998779296875</ele>
        <time>2014-05-20T13:21:17Z</time>
      </trkpt>
      <trkpt lat="44.339791350066662" lon="5.772856855764985">
        <ele>613.5999755859375</ele>
        <time>2014-05-20T13:21:22Z</time>
      </trkpt>
      <trkpt lat="44.339799731969833" lon="5.77289080247283">
        <ele>614</ele>
        <time>2014-05-20T13:21:23Z</time>
      </trkpt>
      <trkpt lat="44.339837534353137" lon="5.77302809804678">
        <ele>615.20001220703125</ele>
        <time>2014-05-20T13:21:27Z</time>
      </trkpt>
      <trkpt lat="44.339852873235941" lon="5.773172518238425">
        <ele>615.79998779296875</ele>
        <time>2014-05-20T13:21:31Z</time>
      </trkpt>
      <trkpt lat="44.339856645092368" lon="5.773241333663464">
        <ele>616.20001220703125</ele>
        <time>2014-05-20T13:21:33Z</time>
      </trkpt>
      <trkpt lat="44.339868212118745" lon="5.773418778553605">
        <ele>617</ele>
        <time>2014-05-20T13:21:39Z</time>
      </trkpt>
      <trkpt lat="44.33986502699554" lon="5.773473177105188">
        <ele>617.4000244140625</ele>
        <time>2014-05-20T13:21:41Z</time>
      </trkpt>
      <trkpt lat="44.339838121086359" lon="5.773597564548254">
        <ele>618.20001220703125</ele>
        <time>2014-05-20T13:21:45Z</time>
      </trkpt>
      <trkpt lat="44.339820016175508" lon="5.773698147386313">
        <ele>618.79998779296875</ele>
        <time>2014-05-20T13:21:48Z</time>
      </trkpt>
      <trkpt lat="44.339785063639283" lon="5.773871820420027">
        <ele>620</ele>
        <time>2014-05-20T13:21:54Z</time>
      </trkpt>
      <trkpt lat="44.339788500219584" lon="5.774074327200651">
        <ele>620.79998779296875</ele>
        <time>2014-05-20T13:22:00Z</time>
      </trkpt>
      <trkpt lat="44.339794870465994" lon="5.774138364940882">
        <ele>621</ele>
        <time>2014-05-20T13:22:02Z</time>
      </trkpt>
      <trkpt lat="44.339855806902051" lon="5.774305164813995">
        <ele>621.79998779296875</ele>
        <time>2014-05-20T13:22:07Z</time>
      </trkpt>
      <trkpt lat="44.339891849085689" lon="5.774399042129517">
        <ele>622.20001220703125</ele>
        <time>2014-05-20T13:22:10Z</time>
      </trkpt>
      <trkpt lat="44.339928645640612" lon="5.774523178115487">
        <ele>623.20001220703125</ele>
        <time>2014-05-20T13:22:14Z</time>
      </trkpt>
      <trkpt lat="44.339937446638942" lon="5.774552850052714">
        <ele>623.4000244140625</ele>
        <time>2014-05-20T13:22:15Z</time>
      </trkpt>
      <trkpt lat="44.339994862675667" lon="5.774713447317481">
        <ele>624.4000244140625</ele>
        <time>2014-05-20T13:22:21Z</time>
      </trkpt>
      <trkpt lat="44.340074826031923" lon="5.774930538609624">
        <ele>625.4000244140625</ele>
        <time>2014-05-20T13:22:29Z</time>
      </trkpt>
      <trkpt lat="44.340085722506046" lon="5.774959959089756">
        <ele>625.5999755859375</ele>
        <time>2014-05-20T13:22:30Z</time>
      </trkpt>
      <trkpt lat="44.340108102187514" lon="5.775146037340164">
        <ele>625.4000244140625</ele>
        <time>2014-05-20T13:22:35Z</time>
      </trkpt>
      <trkpt lat="44.340036604553461" lon="5.775364134460688">
        <ele>625</ele>
        <time>2014-05-20T13:22:40Z</time>
      </trkpt>
      <trkpt lat="44.339940883219242" lon="5.77561785466969">
        <ele>624.4000244140625</ele>
        <time>2014-05-20T13:22:46Z</time>
      </trkpt>
      <trkpt lat="44.339918671175838" lon="5.775679713115096">
        <ele>624.20001220703125</ele>
        <time>2014-05-20T13:22:47Z</time>
      </trkpt>
      <trkpt lat="44.339773328974843" lon="5.776010043919087">
        <ele>623.5999755859375</ele>
        <time>2014-05-20T13:22:52Z</time>
      </trkpt>
      <trkpt lat="44.339732760563493" lon="5.776074081659317">
        <ele>622.79998779296875</ele>
        <time>2014-05-20T13:22:53Z</time>
      </trkpt>
      <trkpt lat="44.339638883247972" lon="5.776189584285021">
        <ele>621.4000244140625</ele>
        <time>2014-05-20T13:22:55Z</time>
      </trkpt>
      <trkpt lat="44.339588675647974" lon="5.776244234293699">
        <ele>620.79998779296875</ele>
        <time>2014-05-20T13:22:56Z</time>
      </trkpt>
      <trkpt lat="44.33953519910574" lon="5.776298549026251">
        <ele>620.20001220703125</ele>
        <time>2014-05-20T13:22:57Z</time>
      </trkpt>
      <trkpt lat="44.339480549097061" lon="5.776351606473327">
        <ele>619.79998779296875</ele>
        <time>2014-05-20T13:22:58Z</time>
      </trkpt>
      <trkpt lat="44.339298829436302" lon="5.776499630883336">
        <ele>619</ele>
        <time>2014-05-20T13:23:01Z</time>
      </trkpt>
      <trkpt lat="44.339160276576877" lon="5.776563417166472">
        <ele>618.4000244140625</ele>
        <time>2014-05-20T13:23:03Z</time>
      </trkpt>
      <trkpt lat="44.339090622961521" lon="5.776585713028908">
        <ele>618</ele>
        <time>2014-05-20T13:23:04Z</time>
      </trkpt>
      <trkpt lat="44.338947292417288" lon="5.776605242863298">
        <ele>617</ele>
        <time>2014-05-20T13:23:06Z</time>
      </trkpt>
      <trkpt lat="44.338876716792583" lon="5.776598704978824">
        <ele>616.79998779296875</ele>
        <time>2014-05-20T13:23:07Z</time>
      </trkpt>
      <trkpt lat="44.338808823376894" lon="5.776583533734083">
        <ele>616.5999755859375</ele>
        <time>2014-05-20T13:23:08Z</time>
      </trkpt>
      <trkpt lat="44.338628696277738" lon="5.776490326970816">
        <ele>615.20001220703125</ele>
        <time>2014-05-20T13:23:11Z</time>
      </trkpt>
      <trkpt lat="44.338577147573233" lon="5.776442550122738">
        <ele>615</ele>
        <time>2014-05-20T13:23:12Z</time>
      </trkpt>
      <trkpt lat="44.338527023792267" lon="5.776390330865979">
        <ele>615.20001220703125</ele>
        <time>2014-05-20T13:23:13Z</time>
      </trkpt>
      <trkpt lat="44.338288977742195" lon="5.776095036417246">
        <ele>615.20001220703125</ele>
        <time>2014-05-20T13:23:18Z</time>
      </trkpt>
      <trkpt lat="44.338131146505475" lon="5.775933600962162">
        <ele>614.79998779296875</ele>
        <time>2014-05-20T13:23:21Z</time>
      </trkpt>
      <trkpt lat="44.338007932528853" lon="5.775854475796223">
        <ele>614.20001220703125</ele>
        <time>2014-05-20T13:23:23Z</time>
      </trkpt>
      <trkpt lat="44.337813556194305" lon="5.775725729763508">
        <ele>613</ele>
        <time>2014-05-20T13:23:26Z</time>
      </trkpt>
      <trkpt lat="44.337671818211675" lon="5.775638055056334">
        <ele>611.4000244140625</ele>
        <time>2014-05-20T13:23:28Z</time>
      </trkpt>
      <trkpt lat="44.337594620883465" lon="5.77559094876051">
        <ele>610.5999755859375</ele>
        <time>2014-05-20T13:23:29Z</time>
      </trkpt>
      <trkpt lat="44.337513316422701" lon="5.775539483875036">
        <ele>609.4000244140625</ele>
        <time>2014-05-20T13:23:30Z</time>
      </trkpt>
      <trkpt lat="44.337428156286478" lon="5.775487348437309">
        <ele>608</ele>
        <time>2014-05-20T13:23:31Z</time>
      </trkpt>
      <trkpt lat="44.337246855720878" lon="5.775381401181221">
        <ele>606.4000244140625</ele>
        <time>2014-05-20T13:23:33Z</time>
      </trkpt>
      <trkpt lat="44.337146272882819" lon="5.775337312370539">
        <ele>606</ele>
        <time>2014-05-20T13:23:34Z</time>
      </trkpt>
      <trkpt lat="44.337040325626731" lon="5.775300767272711">
        <ele>605</ele>
        <time>2014-05-20T13:23:35Z</time>
      </trkpt>
      <trkpt lat="44.336934126913548" lon="5.775262461975217">
        <ele>603.79998779296875</ele>
        <time>2014-05-20T13:23:36Z</time>
      </trkpt>
      <trkpt lat="44.336830275133252" lon="5.775228012353182">
        <ele>602.79998779296875</ele>
        <time>2014-05-20T13:23:37Z</time>
      </trkpt>
      <trkpt lat="44.336619721725583" lon="5.775144780054689">
        <ele>601.20001220703125</ele>
        <time>2014-05-20T13:23:39Z</time>
      </trkpt>
      <trkpt lat="44.336421573534608" lon="5.775062218308449">
        <ele>599.20001220703125</ele>
        <time>2014-05-20T13:23:41Z</time>
      </trkpt>
      <trkpt lat="44.336170367896557" lon="5.775000192224979">
        <ele>598.4000244140625</ele>
        <time>2014-05-20T13:23:44Z</time>
      </trkpt>
      <trkpt lat="44.336098032072186" lon="5.775034809485078">
        <ele>598</ele>
        <time>2014-05-20T13:23:45Z</time>
      </trkpt>
      <trkpt lat="44.336032401770353" lon="5.775100942701101">
        <ele>597.79998779296875</ele>
        <time>2014-05-20T13:23:46Z</time>
      </trkpt>
      <trkpt lat="44.335978422313929" lon="5.775174954906106">
        <ele>597</ele>
        <time>2014-05-20T13:23:47Z</time>
      </trkpt>
      <trkpt lat="44.335930896922946" lon="5.775248045101762">
        <ele>596.20001220703125</ele>
        <time>2014-05-20T13:23:48Z</time>
      </trkpt>
      <trkpt lat="44.335872558876872" lon="5.775300934910774">
        <ele>595.5999755859375</ele>
        <time>2014-05-20T13:23:49Z</time>
      </trkpt>
      <trkpt lat="44.335723025724292" lon="5.775338988751173">
        <ele>594.4000244140625</ele>
        <time>2014-05-20T13:23:51Z</time>
      </trkpt>
      <trkpt lat="44.335643397644162" lon="5.775332702323794">
        <ele>593.79998779296875</ele>
        <time>2014-05-20T13:23:52Z</time>
      </trkpt>
      <trkpt lat="44.335564356297255" lon="5.775320800021291">
        <ele>593</ele>
        <time>2014-05-20T13:23:53Z</time>
      </trkpt>
      <trkpt lat="44.335392275825143" lon="5.775285260751844">
        <ele>591.79998779296875</ele>
        <time>2014-05-20T13:23:55Z</time>
      </trkpt>
      <trkpt lat="44.335302840918303" lon="5.775262545794249">
        <ele>590.79998779296875</ele>
        <time>2014-05-20T13:23:56Z</time>
      </trkpt>
      <trkpt lat="44.335208628326654" lon="5.775241171941161">
        <ele>589.5999755859375</ele>
        <time>2014-05-20T13:23:57Z</time>
      </trkpt>
      <trkpt lat="44.335025986656547" lon="5.7752098236233">
        <ele>588.4000244140625</ele>
        <time>2014-05-20T13:23:59Z</time>
      </trkpt>
      <trkpt lat="44.334695572033525" lon="5.775137152522802">
        <ele>588.20001220703125</ele>
        <time>2014-05-20T13:24:03Z</time>
      </trkpt>
      <trkpt lat="44.33448133058846" lon="5.775092309340835">
        <ele>589.4000244140625</ele>
        <time>2014-05-20T13:24:06Z</time>
      </trkpt>
      <trkpt lat="44.334351578727365" lon="5.77507353387773">
        <ele>590</ele>
        <time>2014-05-20T13:24:08Z</time>
      </trkpt>
      <trkpt lat="44.334232555702329" lon="5.775041012093425">
        <ele>590.79998779296875</ele>
        <time>2014-05-20T13:24:10Z</time>
      </trkpt>
      <trkpt lat="44.334074892103672" lon="5.775011088699102">
        <ele>591.5999755859375</ele>
        <time>2014-05-20T13:24:13Z</time>
      </trkpt>
      <trkpt lat="44.33402887545526" lon="5.775010166689754">
        <ele>591.79998779296875</ele>
        <time>2014-05-20T13:24:14Z</time>
      </trkpt>
      <trkpt lat="44.333807760849595" lon="5.775003796443343">
        <ele>591.4000244140625</ele>
        <time>2014-05-20T13:24:19Z</time>
      </trkpt>
      <trkpt lat="44.333622017875314" lon="5.77499239705503">
        <ele>590.79998779296875</ele>
        <time>2014-05-20T13:24:23Z</time>
      </trkpt>
      <trkpt lat="44.333516154438257" lon="5.774983763694763">
        <ele>590.20001220703125</ele>
        <time>2014-05-20T13:24:25Z</time>
      </trkpt>
      <trkpt lat="44.333399813622236" lon="5.774977309629321">
        <ele>589.5999755859375</ele>
        <time>2014-05-20T13:24:27Z</time>
      </trkpt>
      <trkpt lat="44.333091024309397" lon="5.774960713461042">
        <ele>588.4000244140625</ele>
        <time>2014-05-20T13:24:32Z</time>
      </trkpt>
      <trkpt lat="44.332959679886699" lon="5.774957528337836">
        <ele>587.5999755859375</ele>
        <time>2014-05-20T13:24:34Z</time>
      </trkpt>
      <trkpt lat="44.332893881946802" lon="5.77495182864368">
        <ele>587</ele>
        <time>2014-05-20T13:24:35Z</time>
      </trkpt>
      <trkpt lat="44.332522563636303" lon="5.774992648512125">
        <ele>586.5999755859375</ele>
        <time>2014-05-20T13:24:41Z</time>
      </trkpt>
      <trkpt lat="44.33236313983798" lon="5.775026679039002">
        <ele>586.5999755859375</ele>
        <time>2014-05-20T13:24:44Z</time>
      </trkpt>
      <trkpt lat="44.332223916426301" lon="5.775100942701101">
        <ele>587.20001220703125</ele>
        <time>2014-05-20T13:24:47Z</time>
      </trkpt>
      <trkpt lat="44.332139007747173" lon="5.77517269179225">
        <ele>587.5999755859375</ele>
        <time>2014-05-20T13:24:49Z</time>
      </trkpt>
      <trkpt lat="44.331946140155196" lon="5.775378383696079">
        <ele>588.20001220703125</ele>
        <time>2014-05-20T13:24:54Z</time>
      </trkpt>
      <trkpt lat="44.331656629219651" lon="5.775625733658671">
        <ele>588.20001220703125</ele>
        <time>2014-05-20T13:25:01Z</time>
      </trkpt>
      <trkpt lat="44.33133996091783" lon="5.775835700333118">
        <ele>587.4000244140625</ele>
        <time>2014-05-20T13:25:08Z</time>
      </trkpt>
      <trkpt lat="44.33128958567977" lon="5.775867719203234">
        <ele>587.20001220703125</ele>
        <time>2014-05-20T13:25:09Z</time>
      </trkpt>
      <trkpt lat="44.331235606223345" lon="5.775893619284034">
        <ele>587</ele>
        <time>2014-05-20T13:25:10Z</time>
      </trkpt>
      <trkpt lat="44.331061346456409" lon="5.775929493829608">
        <ele>586.4000244140625</ele>
        <time>2014-05-20T13:25:13Z</time>
      </trkpt>
      <trkpt lat="44.331004600971937" lon="5.775936618447304">
        <ele>586.20001220703125</ele>
        <time>2014-05-20T13:25:14Z</time>
      </trkpt>
      <trkpt lat="44.330948023125529" lon="5.775940055027604">
        <ele>586.20001220703125</ele>
        <time>2014-05-20T13:25:15Z</time>
      </trkpt>
      <trkpt lat="44.330545105040073" lon="5.77592664398253">
        <ele>586.79998779296875</ele>
        <time>2014-05-20T13:25:22Z</time>
      </trkpt>
      <trkpt lat="44.330278057605028" lon="5.775937456637621">
        <ele>587.20001220703125</ele>
        <time>2014-05-20T13:25:27Z</time>
      </trkpt>
      <trkpt lat="44.330186359584332" lon="5.775938127189875">
        <ele>588</ele>
        <time>2014-05-20T13:25:29Z</time>
      </trkpt>
      <trkpt lat="44.330140510573983" lon="5.775945084169507">
        <ele>588.4000244140625</ele>
        <time>2014-05-20T13:25:30Z</time>
      </trkpt>
      <trkpt lat="44.32997664436698" lon="5.775962015613914">
        <ele>589.4000244140625</ele>
        <time>2014-05-20T13:25:34Z</time>
      </trkpt>
      <trkpt lat="44.329941105097532" lon="5.775965200737119">
        <ele>589.5999755859375</ele>
        <time>2014-05-20T13:25:35Z</time>
      </trkpt>
      <trkpt lat="44.329670369625092" lon="5.775972492992878">
        <ele>590.79998779296875</ele>
        <time>2014-05-20T13:25:42Z</time>
      </trkpt>
      <trkpt lat="44.329625610262156" lon="5.775969978421927">
        <ele>590.79998779296875</ele>
        <time>2014-05-20T13:25:43Z</time>
      </trkpt>
      <trkpt lat="44.329232163727283" lon="5.77595841139555">
        <ele>590.4000244140625</ele>
        <time>2014-05-20T13:25:52Z</time>
      </trkpt>
      <trkpt lat="44.328820277005434" lon="5.775932092219591">
        <ele>591</ele>
        <time>2014-05-20T13:26:01Z</time>
      </trkpt>
      <trkpt lat="44.328413000330329" lon="5.775910215452313">
        <ele>591</ele>
        <time>2014-05-20T13:26:10Z</time>
      </trkpt>
      <trkpt lat="44.328275285661221" lon="5.775891104713082">
        <ele>591.4000244140625</ele>
        <time>2014-05-20T13:26:13Z</time>
      </trkpt>
      <trkpt lat="44.328146791085601" lon="5.775839556008577">
        <ele>591.5999755859375</ele>
        <time>2014-05-20T13:26:16Z</time>
      </trkpt>
      <trkpt lat="44.328105552121997" lon="5.775819355621934">
        <ele>591.4000244140625</ele>
        <time>2014-05-20T13:26:17Z</time>
      </trkpt>
      <trkpt lat="44.327946631237864" lon="5.775757413357496">
        <ele>592</ele>
        <time>2014-05-20T13:26:21Z</time>
      </trkpt>
      <trkpt lat="44.327838672325015" lon="5.775736542418599">
        <ele>592.20001220703125</ele>
        <time>2014-05-20T13:26:24Z</time>
      </trkpt>
      <trkpt lat="44.327678494155407" lon="5.77576344832778">
        <ele>593</ele>
        <time>2014-05-20T13:26:29Z</time>
      </trkpt>
      <trkpt lat="44.327644295990467" lon="5.775774260982871">
        <ele>593</ele>
        <time>2014-05-20T13:26:30Z</time>
      </trkpt>
      <trkpt lat="44.327413374558091" lon="5.775851123034954">
        <ele>592.79998779296875</ele>
        <time>2014-05-20T13:26:36Z</time>
      </trkpt>
      <trkpt lat="44.327157475054264" lon="5.775933684781194">
        <ele>592</ele>
        <time>2014-05-20T13:26:42Z</time>
      </trkpt>
      <trkpt lat="44.327066531404853" lon="5.775962434709072">
        <ele>592</ele>
        <time>2014-05-20T13:26:44Z</time>
      </trkpt>
      <trkpt lat="44.326864527538419" lon="5.776086570695043">
        <ele>591.4000244140625</ele>
        <time>2014-05-20T13:26:49Z</time>
      </trkpt>
      <trkpt lat="44.326835693791509" lon="5.776134179905057">
        <ele>591.4000244140625</ele>
        <time>2014-05-20T13:26:50Z</time>
      </trkpt>
      <trkpt lat="44.32675807736814" lon="5.776363927870989">
        <ele>591.79998779296875</ele>
        <time>2014-05-20T13:26:54Z</time>
      </trkpt>
      <trkpt lat="44.326741732656956" lon="5.776427043601871">
        <ele>592.20001220703125</ele>
        <time>2014-05-20T13:26:55Z</time>
      </trkpt>
      <trkpt lat="44.326624553650618" lon="5.776924258098006">
        <ele>592.5999755859375</ele>
        <time>2014-05-20T13:27:03Z</time>
      </trkpt>
      <trkpt lat="44.326555989682674" lon="5.77710472047329">
        <ele>592</ele>
        <time>2014-05-20T13:27:06Z</time>
      </trkpt>
      <trkpt lat="44.326474349945784" lon="5.777276549488306">
        <ele>591.79998779296875</ele>
        <time>2014-05-20T13:27:09Z</time>
      </trkpt>
      <trkpt lat="44.326208308339119" lon="5.777696566656232">
        <ele>592.20001220703125</ele>
        <time>2014-05-20T13:27:17Z</time>
      </trkpt>
      <trkpt lat="44.325924580916762" lon="5.777963781729341">
        <ele>592</ele>
        <time>2014-05-20T13:27:24Z</time>
      </trkpt>
      <trkpt lat="44.325559297576547" lon="5.778264356777072">
        <ele>592.79998779296875</ele>
        <time>2014-05-20T13:27:33Z</time>
      </trkpt>
      <trkpt lat="44.325442034751177" lon="5.778366113081574">
        <ele>593.20001220703125</ele>
        <time>2014-05-20T13:27:36Z</time>
      </trkpt>
      <trkpt lat="44.325256878510118" lon="5.778545737266541">
        <ele>593.79998779296875</ele>
        <time>2014-05-20T13:27:41Z</time>
      </trkpt>
      <trkpt lat="44.324921434745193" lon="5.778849245980382">
        <ele>594</ele>
        <time>2014-05-20T13:27:50Z</time>
      </trkpt>
      <trkpt lat="44.324887320399284" lon="5.778884030878544">
        <ele>594.20001220703125</ele>
        <time>2014-05-20T13:27:51Z</time>
      </trkpt>
      <trkpt lat="44.324682885780931" lon="5.779069857671857">
        <ele>594.5999755859375</ele>
        <time>2014-05-20T13:27:57Z</time>
      </trkpt>
      <trkpt lat="44.324436960741878" lon="5.779236992821097">
        <ele>594.79998779296875</ele>
        <time>2014-05-20T13:28:04Z</time>
      </trkpt>
      <trkpt lat="44.32418935932219" lon="5.779395578429103">
        <ele>595.20001220703125</ele>
        <time>2014-05-20T13:28:11Z</time>
      </trkpt>
      <trkpt lat="44.324087183922529" lon="5.77945894561708">
        <ele>595.4000244140625</ele>
        <time>2014-05-20T13:28:14Z</time>
      </trkpt>
      <trkpt lat="44.32376129552722" lon="5.779647035524249">
        <ele>595.79998779296875</ele>
        <time>2014-05-20T13:28:23Z</time>
      </trkpt>
      <trkpt lat="44.32342660613358" lon="5.779842417687178">
        <ele>596</ele>
        <time>2014-05-20T13:28:32Z</time>
      </trkpt>
      <trkpt lat="44.323314959183335" lon="5.779916010797024">
        <ele>596.20001220703125</ele>
        <time>2014-05-20T13:28:35Z</time>
      </trkpt>
      <trkpt lat="44.323099544271827" lon="5.780053390190005">
        <ele>597</ele>
        <time>2014-05-20T13:28:41Z</time>
      </trkpt>
      <trkpt lat="44.322775835171342" lon="5.780263440683484">
        <ele>597.4000244140625</ele>
        <time>2014-05-20T13:28:50Z</time>
      </trkpt>
      <trkpt lat="44.322738284245133" lon="5.780280875042081">
        <ele>597.5999755859375</ele>
        <time>2014-05-20T13:28:51Z</time>
      </trkpt>
      <trkpt lat="44.322437709197402" lon="5.780466366559267">
        <ele>597.5999755859375</ele>
        <time>2014-05-20T13:28:59Z</time>
      </trkpt>
      <trkpt lat="44.322071503847837" lon="5.780692342668772">
        <ele>597.5999755859375</ele>
        <time>2014-05-20T13:29:08Z</time>
      </trkpt>
      <trkpt lat="44.321694653481245" lon="5.780975231900811">
        <ele>597.20001220703125</ele>
        <time>2014-05-20T13:29:17Z</time>
      </trkpt>
      <trkpt lat="44.321310259401798" lon="5.7813401799649">
        <ele>597.20001220703125</ele>
        <time>2014-05-20T13:29:26Z</time>
      </trkpt>
      <trkpt lat="44.320910526439548" lon="5.781742595136166">
        <ele>596.79998779296875</ele>
        <time>2014-05-20T13:29:35Z</time>
      </trkpt>
      <trkpt lat="44.320584554225206" lon="5.782096730545163">
        <ele>596.79998779296875</ele>
        <time>2014-05-20T13:29:42Z</time>
      </trkpt>
      <trkpt lat="44.320296468213201" lon="5.782384062185884">
        <ele>596.4000244140625</ele>
        <time>2014-05-20T13:29:48Z</time>
      </trkpt>
      <trkpt lat="44.32024760171771" lon="5.782425384968519">
        <ele>596.20001220703125</ele>
        <time>2014-05-20T13:29:49Z</time>
      </trkpt>
      <trkpt lat="44.319959012791514" lon="5.782688828185201">
        <ele>597.20001220703125</ele>
        <time>2014-05-20T13:29:56Z</time>
      </trkpt>
      <trkpt lat="44.319733958691359" lon="5.782875912263989">
        <ele>597.20001220703125</ele>
        <time>2014-05-20T13:30:02Z</time>
      </trkpt>
      <trkpt lat="44.319616947323084" lon="5.782964006066322">
        <ele>597.4000244140625</ele>
        <time>2014-05-20T13:30:05Z</time>
      </trkpt>
      <trkpt lat="44.319471856579185" lon="5.783055368810892">
        <ele>597.20001220703125</ele>
        <time>2014-05-20T13:30:08Z</time>
      </trkpt>
      <trkpt lat="44.31941200979054" lon="5.783069618046284">
        <ele>596.5999755859375</ele>
        <time>2014-05-20T13:30:09Z</time>
      </trkpt>
      <trkpt lat="44.319346295669675" lon="5.78307774849236">
        <ele>596.20001220703125</ele>
        <time>2014-05-20T13:30:10Z</time>
      </trkpt>
      <trkpt lat="44.319128952920437" lon="5.783037934452295">
        <ele>594.5999755859375</ele>
        <time>2014-05-20T13:30:13Z</time>
      </trkpt>
      <trkpt lat="44.319053934887052" lon="5.782990576699376">
        <ele>592.5999755859375</ele>
        <time>2014-05-20T13:30:14Z</time>
      </trkpt>
      <trkpt lat="44.318893505260348" lon="5.78289452008903">
        <ele>591.5999755859375</ele>
        <time>2014-05-20T13:30:16Z</time>
      </trkpt>
      <trkpt lat="44.318802645429969" lon="5.782864512875676">
        <ele>591</ele>
        <time>2014-05-20T13:30:17Z</time>
      </trkpt>
      <trkpt lat="44.318710947409272" lon="5.782835343852639">
        <ele>590.5999755859375</ele>
        <time>2014-05-20T13:30:18Z</time>
      </trkpt>
      <trkpt lat="44.318533418700099" lon="5.782746411859989">
        <ele>589</ele>
        <time>2014-05-20T13:30:20Z</time>
      </trkpt>
      <trkpt lat="44.318453706800938" lon="5.782689834013581">
        <ele>588.4000244140625</ele>
        <time>2014-05-20T13:30:21Z</time>
      </trkpt>
      <trkpt lat="44.318385981023312" lon="5.782634261995554">
        <ele>588</ele>
        <time>2014-05-20T13:30:22Z</time>
      </trkpt>
      <trkpt lat="44.318317836150527" lon="5.782606014981866">
        <ele>588</ele>
        <time>2014-05-20T13:30:23Z</time>
      </trkpt>
      <trkpt lat="44.318193532526493" lon="5.782645493745804">
        <ele>587.4000244140625</ele>
        <time>2014-05-20T13:30:25Z</time>
      </trkpt>
      <trkpt lat="44.318130668252707" lon="5.782794104889035">
        <ele>586.79998779296875</ele>
        <time>2014-05-20T13:30:27Z</time>
      </trkpt>
      <trkpt lat="44.318135445937514" lon="5.783037096261978">
        <ele>587</ele>
        <time>2014-05-20T13:30:30Z</time>
      </trkpt>
      <trkpt lat="44.318148102611303" lon="5.783160980790854">
        <ele>587.5999755859375</ele>
        <time>2014-05-20T13:30:32Z</time>
      </trkpt>
      <trkpt lat="44.318157574161887" lon="5.783214373514056">
        <ele>588.20001220703125</ele>
        <time>2014-05-20T13:30:33Z</time>
      </trkpt>
      <trkpt lat="44.318161262199283" lon="5.783318979665637">
        <ele>589.20001220703125</ele>
        <time>2014-05-20T13:30:35Z</time>
      </trkpt>
      <trkpt lat="44.318150701001287" lon="5.783421322703362">
        <ele>590.4000244140625</ele>
        <time>2014-05-20T13:30:37Z</time>
      </trkpt>
      <trkpt lat="44.318132512271404" lon="5.783542692661285">
        <ele>591</ele>
        <time>2014-05-20T13:30:40Z</time>
      </trkpt>
      <trkpt lat="44.31812153197825" lon="5.783569430932403">
        <ele>591.4000244140625</ele>
        <time>2014-05-20T13:30:41Z</time>
      </trkpt>
      <trkpt lat="44.318092782050371" lon="5.783664481714368">
        <ele>592.4000244140625</ele>
        <time>2014-05-20T13:30:44Z</time>
      </trkpt>
      <trkpt lat="44.318066127598286" lon="5.783730195835233">
        <ele>593.20001220703125</ele>
        <time>2014-05-20T13:30:46Z</time>
      </trkpt>
      <trkpt lat="44.318003179505467" lon="5.783867659047246">
        <ele>593.79998779296875</ele>
        <time>2014-05-20T13:30:50Z</time>
      </trkpt>
      <trkpt lat="44.317956576123834" lon="5.78394552692771">
        <ele>594.20001220703125</ele>
        <time>2014-05-20T13:30:53Z</time>
      </trkpt>
      <trkpt lat="44.31791047565639" lon="5.784019120037556">
        <ele>594.79998779296875</ele>
        <time>2014-05-20T13:30:56Z</time>
      </trkpt>
      <trkpt lat="44.317837217822671" lon="5.784159516915679">
        <ele>595.20001220703125</ele>
        <time>2014-05-20T13:31:01Z</time>
      </trkpt>
      <trkpt lat="44.317729761824012" lon="5.784363197162747">
        <ele>594.79998779296875</ele>
        <time>2014-05-20T13:31:07Z</time>
      </trkpt>
      <trkpt lat="44.317593639716506" lon="5.784626975655556">
        <ele>593.79998779296875</ele>
        <time>2014-05-20T13:31:13Z</time>
      </trkpt>
      <trkpt lat="44.317468330264091" lon="5.784836690872908">
        <ele>592.79998779296875</ele>
        <time>2014-05-20T13:31:17Z</time>
      </trkpt>
      <trkpt lat="44.317427342757583" lon="5.784888071939349">
        <ele>592.5999755859375</ele>
        <time>2014-05-20T13:31:18Z</time>
      </trkpt>
      <trkpt lat="44.317381745204329" lon="5.784936938434839">
        <ele>592.5999755859375</ele>
        <time>2014-05-20T13:31:19Z</time>
      </trkpt>
      <trkpt lat="44.317172532901168" lon="5.785074904561043">
        <ele>592.5999755859375</ele>
        <time>2014-05-20T13:31:23Z</time>
      </trkpt>
      <trkpt lat="44.31711645796895" lon="5.785101726651192">
        <ele>592.79998779296875</ele>
        <time>2014-05-20T13:31:24Z</time>
      </trkpt>
      <trkpt lat="44.316906742751598" lon="5.785188060253859">
        <ele>594</ele>
        <time>2014-05-20T13:31:28Z</time>
      </trkpt>
      <trkpt lat="44.316769195720553" lon="5.785249918699265">
        <ele>594.4000244140625</ele>
        <time>2014-05-20T13:31:31Z</time>
      </trkpt>
      <trkpt lat="44.316651681438088" lon="5.785297695547342">
        <ele>595</ele>
        <time>2014-05-20T13:31:34Z</time>
      </trkpt>
      <trkpt lat="44.316539028659463" lon="5.785346059128642">
        <ele>596</ele>
        <time>2014-05-20T13:31:37Z</time>
      </trkpt>
      <trkpt lat="44.316463256254792" lon="5.785378748551011">
        <ele>596.20001220703125</ele>
        <time>2014-05-20T13:31:39Z</time>
      </trkpt>
      <trkpt lat="44.316290086135268" lon="5.785458879545331">
        <ele>597.4000244140625</ele>
        <time>2014-05-20T13:31:44Z</time>
      </trkpt>
      <trkpt lat="44.316254798322916" lon="5.78547396697104">
        <ele>597.4000244140625</ele>
        <time>2014-05-20T13:31:45Z</time>
      </trkpt>
      <trkpt lat="44.316134350374341" lon="5.785558540374041">
        <ele>598.4000244140625</ele>
        <time>2014-05-20T13:31:49Z</time>
      </trkpt>
      <trkpt lat="44.316062433645129" lon="5.785642862319946">
        <ele>599.4000244140625</ele>
        <time>2014-05-20T13:31:52Z</time>
      </trkpt>
      <trkpt lat="44.316044915467501" lon="5.785672953352332">
        <ele>599.5999755859375</ele>
        <time>2014-05-20T13:31:53Z</time>
      </trkpt>
      <trkpt lat="44.315992947667837" lon="5.785810835659504">
        <ele>600.79998779296875</ele>
        <time>2014-05-20T13:31:57Z</time>
      </trkpt>
      <trkpt lat="44.315983057022095" lon="5.785845872014761">
        <ele>601.20001220703125</ele>
        <time>2014-05-20T13:31:58Z</time>
      </trkpt>
      <trkpt lat="44.315977776423097" lon="5.786127503961325">
        <ele>600.5999755859375</ele>
        <time>2014-05-20T13:32:04Z</time>
      </trkpt>
      <trkpt lat="44.31597551330924" lon="5.786266643553972">
        <ele>599.5999755859375</ele>
        <time>2014-05-20T13:32:06Z</time>
      </trkpt>
      <trkpt lat="44.315979788079858" lon="5.786344343796372">
        <ele>599.20001220703125</ele>
        <time>2014-05-20T13:32:07Z</time>
      </trkpt>
      <trkpt lat="44.3159896787256" lon="5.786514496430755">
        <ele>598.5999755859375</ele>
        <time>2014-05-20T13:32:09Z</time>
      </trkpt>
      <trkpt lat="44.315991103649139" lon="5.78669018112123">
        <ele>597.79998779296875</ele>
        <time>2014-05-20T13:32:11Z</time>
      </trkpt>
      <trkpt lat="44.315995210781693" lon="5.786784226074815">
        <ele>597.20001220703125</ele>
        <time>2014-05-20T13:32:12Z</time>
      </trkpt>
      <trkpt lat="44.315996048972011" lon="5.786983631551266">
        <ele>595.5999755859375</ele>
        <time>2014-05-20T13:32:14Z</time>
      </trkpt>
      <trkpt lat="44.315987415611744" lon="5.787312034517527">
        <ele>594.4000244140625</ele>
        <time>2014-05-20T13:32:17Z</time>
      </trkpt>
      <trkpt lat="44.315981715917587" lon="5.787428459152579">
        <ele>593.4000244140625</ele>
        <time>2014-05-20T13:32:18Z</time>
      </trkpt>
      <trkpt lat="44.315972998738289" lon="5.787550248205662">
        <ele>592.4000244140625</ele>
        <time>2014-05-20T13:32:19Z</time>
      </trkpt>
      <trkpt lat="44.315966293215752" lon="5.787675222381949">
        <ele>591.79998779296875</ele>
        <time>2014-05-20T13:32:20Z</time>
      </trkpt>
      <trkpt lat="44.315950786694884" lon="5.788087947294116">
        <ele>589.5999755859375</ele>
        <time>2014-05-20T13:32:23Z</time>
      </trkpt>
      <trkpt lat="44.31594274006784" lon="5.788231110200286">
        <ele>588.20001220703125</ele>
        <time>2014-05-20T13:32:24Z</time>
      </trkpt>
      <trkpt lat="44.315919522196054" lon="5.788380894809961">
        <ele>586.20001220703125</ele>
        <time>2014-05-20T13:32:25Z</time>
      </trkpt>
      <trkpt lat="44.315893789753318" lon="5.788529170677066">
        <ele>584.79998779296875</ele>
        <time>2014-05-20T13:32:26Z</time>
      </trkpt>
      <trkpt lat="44.31586847640574" lon="5.788678368553519">
        <ele>583.5999755859375</ele>
        <time>2014-05-20T13:32:27Z</time>
      </trkpt>
      <trkpt lat="44.315847102552652" lon="5.788828236982226">
        <ele>582.5999755859375</ele>
        <time>2014-05-20T13:32:28Z</time>
      </trkpt>
      <trkpt lat="44.315829500555992" lon="5.788976596668363">
        <ele>582.20001220703125</ele>
        <time>2014-05-20T13:32:29Z</time>
      </trkpt>
      <trkpt lat="44.315762110054493" lon="5.789545979350805">
        <ele>580.5999755859375</ele>
        <time>2014-05-20T13:32:33Z</time>
      </trkpt>
      <trkpt lat="44.315739730373025" lon="5.789679083973169">
        <ele>580.4000244140625</ele>
        <time>2014-05-20T13:32:34Z</time>
      </trkpt>
      <trkpt lat="44.315658425912261" lon="5.79006071202457">
        <ele>579.20001220703125</ele>
        <time>2014-05-20T13:32:37Z</time>
      </trkpt>
      <trkpt lat="44.31558164767921" lon="5.790288699790835">
        <ele>578.79998779296875</ele>
        <time>2014-05-20T13:32:39Z</time>
      </trkpt>
      <trkpt lat="44.31535885669291" lon="5.790804689750075">
        <ele>579.4000244140625</ele>
        <time>2014-05-20T13:32:44Z</time>
      </trkpt>
      <trkpt lat="44.315256346017122" lon="5.791090680286288">
        <ele>580.20001220703125</ele>
        <time>2014-05-20T13:32:47Z</time>
      </trkpt>
      <trkpt lat="44.315171521157026" lon="5.791377425193787">
        <ele>580.79998779296875</ele>
        <time>2014-05-20T13:32:50Z</time>
      </trkpt>
      <trkpt lat="44.315085355192423" lon="5.791656794026494">
        <ele>581.5999755859375</ele>
        <time>2014-05-20T13:32:53Z</time>
      </trkpt>
      <trkpt lat="44.314952418208122" lon="5.79196147620678">
        <ele>582.79998779296875</ele>
        <time>2014-05-20T13:32:57Z</time>
      </trkpt>
      <trkpt lat="44.314853344112635" lon="5.792130958288908">
        <ele>584</ele>
        <time>2014-05-20T13:33:00Z</time>
      </trkpt>
      <trkpt lat="44.314799951389432" lon="5.792243694886565">
        <ele>585.5999755859375</ele>
        <time>2014-05-20T13:33:02Z</time>
      </trkpt>
      <trkpt lat="44.314737506210804" lon="5.792430695146322">
        <ele>585.79998779296875</ele>
        <time>2014-05-20T13:33:05Z</time>
      </trkpt>
      <trkpt lat="44.314691573381424" lon="5.79261383973062">
        <ele>586.20001220703125</ele>
        <time>2014-05-20T13:33:08Z</time>
      </trkpt>
      <trkpt lat="44.314672546461225" lon="5.792723307386041">
        <ele>586.79998779296875</ele>
        <time>2014-05-20T13:33:10Z</time>
      </trkpt>
      <trkpt lat="44.314632397145033" lon="5.792925814166665">
        <ele>587.79998779296875</ele>
        <time>2014-05-20T13:33:14Z</time>
      </trkpt>
      <trkpt lat="44.314612196758389" lon="5.793077275156975">
        <ele>589</ele>
        <time>2014-05-20T13:33:17Z</time>
      </trkpt>
      <trkpt lat="44.314577914774418" lon="5.793292270973325">
        <ele>589.79998779296875</ele>
        <time>2014-05-20T13:33:22Z</time>
      </trkpt>
      <trkpt lat="44.314570538699627" lon="5.793331414461136">
        <ele>590</ele>
        <time>2014-05-20T13:33:23Z</time>
      </trkpt>
      <trkpt lat="44.314559809863567" lon="5.793452700600028">
        <ele>591.20001220703125</ele>
        <time>2014-05-20T13:33:26Z</time>
      </trkpt>
      <trkpt lat="44.314554696902633" lon="5.793574573472142">
        <ele>591.79998779296875</ele>
        <time>2014-05-20T13:33:29Z</time>
      </trkpt>
      <trkpt lat="44.314558636397123" lon="5.793694518506527">
        <ele>592.20001220703125</ele>
        <time>2014-05-20T13:33:32Z</time>
      </trkpt>
      <trkpt lat="44.314589314162731" lon="5.793856540694833">
        <ele>592.5999755859375</ele>
        <time>2014-05-20T13:33:36Z</time>
      </trkpt>
      <trkpt lat="44.314606245607138" lon="5.793973468244076">
        <ele>593.4000244140625</ele>
        <time>2014-05-20T13:33:39Z</time>
      </trkpt>
      <trkpt lat="44.314611861482263" lon="5.794142698869109">
        <ele>594.5999755859375</ele>
        <time>2014-05-20T13:33:44Z</time>
      </trkpt>
      <trkpt lat="44.314605826511979" lon="5.794394994154573">
        <ele>595.5999755859375</ele>
        <time>2014-05-20T13:33:50Z</time>
      </trkpt>
      <trkpt lat="44.314601803198457" lon="5.794512592256069">
        <ele>596.4000244140625</ele>
        <time>2014-05-20T13:33:53Z</time>
      </trkpt>
      <trkpt lat="44.314601635560393" lon="5.794550227001309">
        <ele>596.5999755859375</ele>
        <time>2014-05-20T13:33:54Z</time>
      </trkpt>
      <trkpt lat="44.314583027735353" lon="5.794725492596626">
        <ele>597.20001220703125</ele>
        <time>2014-05-20T13:33:59Z</time>
      </trkpt>
      <trkpt lat="44.314565258100629" lon="5.794793218374252">
        <ele>597.79998779296875</ele>
        <time>2014-05-20T13:34:01Z</time>
      </trkpt>
      <trkpt lat="44.314534664154053" lon="5.794946188107133">
        <ele>598.79998779296875</ele>
        <time>2014-05-20T13:34:06Z</time>
      </trkpt>
      <trkpt lat="44.314463920891285" lon="5.795181468129158">
        <ele>599.79998779296875</ele>
        <time>2014-05-20T13:34:13Z</time>
      </trkpt>
      <trkpt lat="44.31446073576808" lon="5.795214576646686">
        <ele>600</ele>
        <time>2014-05-20T13:34:14Z</time>
      </trkpt>
      <trkpt lat="44.31444950401783" lon="5.795241817831993">
        <ele>600.5999755859375</ele>
        <time>2014-05-20T13:34:15Z</time>
      </trkpt>
      <trkpt lat="44.314419580623507" lon="5.795361008495092">
        <ele>600.79998779296875</ele>
        <time>2014-05-20T13:34:19Z</time>
      </trkpt>
      <trkpt lat="44.314409773796797" lon="5.79538875259459">
        <ele>601</ele>
        <time>2014-05-20T13:34:20Z</time>
      </trkpt>
      <trkpt lat="44.314350597560406" lon="5.795558905228972">
        <ele>602</ele>
        <time>2014-05-20T13:34:26Z</time>
      </trkpt>
      <trkpt lat="44.314300725236535" lon="5.795717490836978">
        <ele>603.20001220703125</ele>
        <time>2014-05-20T13:34:32Z</time>
      </trkpt>
      <trkpt lat="44.314265353605151" lon="5.795891582965851">
        <ele>604.4000244140625</ele>
        <time>2014-05-20T13:34:38Z</time>
      </trkpt>
      <trkpt lat="44.314259150996804" lon="5.795918405056">
        <ele>604.79998779296875</ele>
        <time>2014-05-20T13:34:39Z</time>
      </trkpt>
      <trkpt lat="44.314227802678943" lon="5.796015718951821">
        <ele>605.4000244140625</ele>
        <time>2014-05-20T13:34:43Z</time>
      </trkpt>
      <trkpt lat="44.314217157661915" lon="5.79610263928771">
        <ele>606</ele>
        <time>2014-05-20T13:34:46Z</time>
      </trkpt>
      <trkpt lat="44.314190754666924" lon="5.796208083629608">
        <ele>606.79998779296875</ele>
        <time>2014-05-20T13:34:50Z</time>
      </trkpt>
      <trkpt lat="44.314172733575106" lon="5.796294333413243">
        <ele>607</ele>
        <time>2014-05-20T13:34:53Z</time>
      </trkpt>
      <trkpt lat="44.314143480733037" lon="5.796478064730763">
        <ele>608</ele>
        <time>2014-05-20T13:34:59Z</time>
      </trkpt>
      <trkpt lat="44.314134176820517" lon="5.796541934832931">
        <ele>608.20001220703125</ele>
        <time>2014-05-20T13:35:01Z</time>
      </trkpt>
      <trkpt lat="44.314086819067597" lon="5.796716446056962">
        <ele>609.20001220703125</ele>
        <time>2014-05-20T13:35:06Z</time>
      </trkpt>
      <trkpt lat="44.314059829339385" lon="5.796825494617224">
        <ele>609.79998779296875</ele>
        <time>2014-05-20T13:35:09Z</time>
      </trkpt>
      <trkpt lat="44.314041640609503" lon="5.796897830441594">
        <ele>610.20001220703125</ele>
        <time>2014-05-20T13:35:11Z</time>
      </trkpt>
      <trkpt lat="44.31399310939014" lon="5.797044932842255">
        <ele>611</ele>
        <time>2014-05-20T13:35:15Z</time>
      </trkpt>
      <trkpt lat="44.313879366964102" lon="5.797326816245914">
        <ele>610.79998779296875</ele>
        <time>2014-05-20T13:35:22Z</time>
      </trkpt>
      <trkpt lat="44.313683984801173" lon="5.797652369365096">
        <ele>609.79998779296875</ele>
        <time>2014-05-20T13:35:28Z</time>
      </trkpt>
      <trkpt lat="44.31354065425694" lon="5.79790860414505">
        <ele>609</ele>
        <time>2014-05-20T13:35:32Z</time>
      </trkpt>
      <trkpt lat="44.313462283462286" lon="5.798030728474259">
        <ele>609.20001220703125</ele>
        <time>2014-05-20T13:35:34Z</time>
      </trkpt>
      <trkpt lat="44.313130611553788" lon="5.798543533310294">
        <ele>609</ele>
        <time>2014-05-20T13:35:42Z</time>
      </trkpt>
      <trkpt lat="44.312863564118743" lon="5.798946786671877">
        <ele>609.5999755859375</ele>
        <time>2014-05-20T13:35:49Z</time>
      </trkpt>
      <trkpt lat="44.312788462266326" lon="5.799043849110603">
        <ele>610.5999755859375</ele>
        <time>2014-05-20T13:35:51Z</time>
      </trkpt>
      <trkpt lat="44.31265183724463" lon="5.799218444153667">
        <ele>611.20001220703125</ele>
        <time>2014-05-20T13:35:55Z</time>
      </trkpt>
      <trkpt lat="44.312562569975853" lon="5.799339059740305">
        <ele>611.5999755859375</ele>
        <time>2014-05-20T13:35:58Z</time>
      </trkpt>
      <trkpt lat="44.312404822558165" lon="5.79955724067986">
        <ele>611.5999755859375</ele>
        <time>2014-05-20T13:36:03Z</time>
      </trkpt>
      <trkpt lat="44.31234447285533" lon="5.799689590930939">
        <ele>611.4000244140625</ele>
        <time>2014-05-20T13:36:05Z</time>
      </trkpt>
      <trkpt lat="44.312309101223946" lon="5.799860246479511">
        <ele>610.79998779296875</ele>
        <time>2014-05-20T13:36:07Z</time>
      </trkpt>
      <trkpt lat="44.312297618016601" lon="5.799944484606385">
        <ele>610.5999755859375</ele>
        <time>2014-05-20T13:36:08Z</time>
      </trkpt>
      <trkpt lat="44.312298120930791" lon="5.800025872886181">
        <ele>610.4000244140625</ele>
        <time>2014-05-20T13:36:09Z</time>
      </trkpt>
      <trkpt lat="44.312301641330123" lon="5.80024816095829">
        <ele>610.79998779296875</ele>
        <time>2014-05-20T13:36:12Z</time>
      </trkpt>
      <trkpt lat="44.312272304669023" lon="5.800445806235075">
        <ele>611.5999755859375</ele>
        <time>2014-05-20T13:36:15Z</time>
      </trkpt>
      <trkpt lat="44.312216313555837" lon="5.800628699362278">
        <ele>611.79998779296875</ele>
        <time>2014-05-20T13:36:18Z</time>
      </trkpt>
      <trkpt lat="44.31210651062429" lon="5.800844114273787">
        <ele>611.4000244140625</ele>
        <time>2014-05-20T13:36:22Z</time>
      </trkpt>
      <trkpt lat="44.312077006325126" lon="5.800886191427708">
        <ele>611.5999755859375</ele>
        <time>2014-05-20T13:36:23Z</time>
      </trkpt>
      <trkpt lat="44.311909954994917" lon="5.801125662401319">
        <ele>611.5999755859375</ele>
        <time>2014-05-20T13:36:29Z</time>
      </trkpt>
      <trkpt lat="44.311803421005607" lon="5.801495052874088">
        <ele>612</ele>
        <time>2014-05-20T13:36:35Z</time>
      </trkpt>
      <trkpt lat="44.311734354123473" lon="5.801718514412642">
        <ele>613</ele>
        <time>2014-05-20T13:36:39Z</time>
      </trkpt>
      <trkpt lat="44.311700072139502" lon="5.801820773631334">
        <ele>614</ele>
        <time>2014-05-20T13:36:41Z</time>
      </trkpt>
      <trkpt lat="44.311681129038334" lon="5.801869807764888">
        <ele>614.20001220703125</ele>
        <time>2014-05-20T13:36:42Z</time>
      </trkpt>
      <trkpt lat="44.311611894518137" lon="5.802065776661038">
        <ele>615</ele>
        <time>2014-05-20T13:36:46Z</time>
      </trkpt>
      <trkpt lat="44.311544168740511" lon="5.802208604291081">
        <ele>615.79998779296875</ele>
        <time>2014-05-20T13:36:49Z</time>
      </trkpt>
      <trkpt lat="44.311497900635004" lon="5.802299967035651">
        <ele>616.20001220703125</ele>
        <time>2014-05-20T13:36:51Z</time>
      </trkpt>
      <trkpt lat="44.31139362975955" lon="5.802516303956509">
        <ele>616.4000244140625</ele>
        <time>2014-05-20T13:36:56Z</time>
      </trkpt>
      <trkpt lat="44.31122750043869" lon="5.802877983078361">
        <ele>617.20001220703125</ele>
        <time>2014-05-20T13:37:03Z</time>
      </trkpt>
      <trkpt lat="44.311175784096122" lon="5.803045956417918">
        <ele>618</ele>
        <time>2014-05-20T13:37:06Z</time>
      </trkpt>
      <trkpt lat="44.311164636164904" lon="5.803104462102056">
        <ele>618.20001220703125</ele>
        <time>2014-05-20T13:37:07Z</time>
      </trkpt>
      <trkpt lat="44.311150889843702" lon="5.803219964727759">
        <ele>618.5999755859375</ele>
        <time>2014-05-20T13:37:09Z</time>
      </trkpt>
      <trkpt lat="44.311148123815656" lon="5.803278721868992">
        <ele>618.79998779296875</ele>
        <time>2014-05-20T13:37:10Z</time>
      </trkpt>
      <trkpt lat="44.311154074966908" lon="5.803395733237267">
        <ele>618.5999755859375</ele>
        <time>2014-05-20T13:37:12Z</time>
      </trkpt>
      <trkpt lat="44.311165641993284" lon="5.803570915013552">
        <ele>618.5999755859375</ele>
        <time>2014-05-20T13:37:15Z</time>
      </trkpt>
      <trkpt lat="44.311174442991614" lon="5.803630761802197">
        <ele>618.4000244140625</ele>
        <time>2014-05-20T13:37:16Z</time>
      </trkpt>
      <trkpt lat="44.311173018068075" lon="5.803861683234572">
        <ele>618.79998779296875</ele>
        <time>2014-05-20T13:37:20Z</time>
      </trkpt>
      <trkpt lat="44.311206629499793" lon="5.80437557771802">
        <ele>618.5999755859375</ele>
        <time>2014-05-20T13:37:29Z</time>
      </trkpt>
      <trkpt lat="44.311208389699459" lon="5.804432909935713">
        <ele>618.4000244140625</ele>
        <time>2014-05-20T13:37:30Z</time>
      </trkpt>
      <trkpt lat="44.311205958947539" lon="5.804611863568425">
        <ele>617.5999755859375</ele>
        <time>2014-05-20T13:37:33Z</time>
      </trkpt>
      <trkpt lat="44.311192212626338" lon="5.804736837744713">
        <ele>618.4000244140625</ele>
        <time>2014-05-20T13:37:35Z</time>
      </trkpt>
      <trkpt lat="44.311178214848042" lon="5.80479827709496">
        <ele>618.20001220703125</ele>
        <time>2014-05-20T13:37:36Z</time>
      </trkpt>
      <trkpt lat="44.311095317825675" lon="5.805077897384763">
        <ele>618.4000244140625</ele>
        <time>2014-05-20T13:37:40Z</time>
      </trkpt>
      <trkpt lat="44.310952993109822" lon="5.805577039718628">
        <ele>617.20001220703125</ele>
        <time>2014-05-20T13:37:46Z</time>
      </trkpt>
      <trkpt lat="44.3108522426337" lon="5.806000242009759">
        <ele>618.79998779296875</ele>
        <time>2014-05-20T13:37:52Z</time>
      </trkpt>
      <trkpt lat="44.31080823764205" lon="5.806173579767346">
        <ele>619.5999755859375</ele>
        <time>2014-05-20T13:37:55Z</time>
      </trkpt>
      <trkpt lat="44.310800107195973" lon="5.806230744346976">
        <ele>620</ele>
        <time>2014-05-20T13:37:56Z</time>
      </trkpt>
      <trkpt lat="44.310770770534873" lon="5.80634574405849">
        <ele>620.20001220703125</ele>
        <time>2014-05-20T13:37:58Z</time>
      </trkpt>
      <trkpt lat="44.31072567589581" lon="5.806531403213739">
        <ele>620.20001220703125</ele>
        <time>2014-05-20T13:38:01Z</time>
      </trkpt>
      <trkpt lat="44.310678988695145" lon="5.806730473414064">
        <ele>620.20001220703125</ele>
        <time>2014-05-20T13:38:04Z</time>
      </trkpt>
      <trkpt lat="44.310555942356586" lon="5.807207571342588">
        <ele>619</ele>
        <time>2014-05-20T13:38:10Z</time>
      </trkpt>
      <trkpt lat="44.310498777776957" lon="5.807396834716201">
        <ele>618.20001220703125</ele>
        <time>2014-05-20T13:38:12Z</time>
      </trkpt>
      <trkpt lat="44.310431554913521" lon="5.807589869946241">
        <ele>617.20001220703125</ele>
        <time>2014-05-20T13:38:14Z</time>
      </trkpt>
      <trkpt lat="44.31035041809082" lon="5.807781899347901">
        <ele>615.5999755859375</ele>
        <time>2014-05-20T13:38:16Z</time>
      </trkpt>
      <trkpt lat="44.3102116137743" lon="5.808080965653062">
        <ele>614.20001220703125</ele>
        <time>2014-05-20T13:38:19Z</time>
      </trkpt>
      <trkpt lat="44.3101148866117" lon="5.808286909013987">
        <ele>613.20001220703125</ele>
        <time>2014-05-20T13:38:21Z</time>
      </trkpt>
      <trkpt lat="44.310075240209699" lon="5.808401154354215">
        <ele>612.79998779296875</ele>
        <time>2014-05-20T13:38:22Z</time>
      </trkpt>
      <trkpt lat="44.310047412291169" lon="5.80851967446506">
        <ele>612.5999755859375</ele>
        <time>2014-05-20T13:38:23Z</time>
      </trkpt>
      <trkpt lat="44.310021596029401" lon="5.808753278106451">
        <ele>612.5999755859375</ele>
        <time>2014-05-20T13:38:25Z</time>
      </trkpt>
      <trkpt lat="44.3099663592875" lon="5.809092158451676">
        <ele>612</ele>
        <time>2014-05-20T13:38:28Z</time>
      </trkpt>
      <trkpt lat="44.309899052605033" lon="5.809310674667358">
        <ele>611.20001220703125</ele>
        <time>2014-05-20T13:38:30Z</time>
      </trkpt>
      <trkpt lat="44.309860495850444" lon="5.809419639408588">
        <ele>610.5999755859375</ele>
        <time>2014-05-20T13:38:31Z</time>
      </trkpt>
      <trkpt lat="44.309765277430415" lon="5.809631869196892">
        <ele>608.79998779296875</ele>
        <time>2014-05-20T13:38:33Z</time>
      </trkpt>
      <trkpt lat="44.30964776314795" lon="5.809826832264662">
        <ele>608</ele>
        <time>2014-05-20T13:38:35Z</time>
      </trkpt>
      <trkpt lat="44.309588922187686" lon="5.809929929673672">
        <ele>607.79998779296875</ele>
        <time>2014-05-20T13:38:36Z</time>
      </trkpt>
      <trkpt lat="44.309343416243792" lon="5.810465281829238">
        <ele>607.20001220703125</ele>
        <time>2014-05-20T13:38:41Z</time>
      </trkpt>
      <trkpt lat="44.309177454560995" lon="5.811035251244903">
        <ele>606.5999755859375</ele>
        <time>2014-05-20T13:38:46Z</time>
      </trkpt>
      <trkpt lat="44.309150967746973" lon="5.811148826032877">
        <ele>606.4000244140625</ele>
        <time>2014-05-20T13:38:47Z</time>
      </trkpt>
      <trkpt lat="44.308986766263843" lon="5.811732625588775">
        <ele>607.5999755859375</ele>
        <time>2014-05-20T13:38:53Z</time>
      </trkpt>
      <trkpt lat="44.308848464861512" lon="5.812269821763039">
        <ele>607.4000244140625</ele>
        <time>2014-05-20T13:38:59Z</time>
      </trkpt>
      <trkpt lat="44.30868124589324" lon="5.812863511964679">
        <ele>607</ele>
        <time>2014-05-20T13:39:06Z</time>
      </trkpt>
      <trkpt lat="44.30863481014967" lon="5.813033413141966">
        <ele>606.79998779296875</ele>
        <time>2014-05-20T13:39:08Z</time>
      </trkpt>
      <trkpt lat="44.308531796559691" lon="5.81330138258636">
        <ele>605.5999755859375</ele>
        <time>2014-05-20T13:39:11Z</time>
      </trkpt>
      <trkpt lat="44.308464825153351" lon="5.813498441129923">
        <ele>604.79998779296875</ele>
        <time>2014-05-20T13:39:13Z</time>
      </trkpt>
      <trkpt lat="44.308443535119295" lon="5.813611429184675">
        <ele>604.4000244140625</ele>
        <time>2014-05-20T13:39:14Z</time>
      </trkpt>
      <trkpt lat="44.308421155437827" lon="5.813845871016383">
        <ele>603.20001220703125</ele>
        <time>2014-05-20T13:39:16Z</time>
      </trkpt>
      <trkpt lat="44.308417635038495" lon="5.813967743888497">
        <ele>602.79998779296875</ele>
        <time>2014-05-20T13:39:17Z</time>
      </trkpt>
      <trkpt lat="44.308404810726643" lon="5.814091796055436">
        <ele>602</ele>
        <time>2014-05-20T13:39:18Z</time>
      </trkpt>
      <trkpt lat="44.308365918695927" lon="5.814355406910181">
        <ele>600.20001220703125</ele>
        <time>2014-05-20T13:39:20Z</time>
      </trkpt>
      <trkpt lat="44.308340270072222" lon="5.814496306702495">
        <ele>599.4000244140625</ele>
        <time>2014-05-20T13:39:21Z</time>
      </trkpt>
      <trkpt lat="44.30831772275269" lon="5.814643492922187">
        <ele>598.79998779296875</ele>
        <time>2014-05-20T13:39:22Z</time>
      </trkpt>
      <trkpt lat="44.308283608406782" lon="5.814791433513165">
        <ele>597.4000244140625</ele>
        <time>2014-05-20T13:39:23Z</time>
      </trkpt>
      <trkpt lat="44.308248069137335" lon="5.814939960837364">
        <ele>596.4000244140625</ele>
        <time>2014-05-20T13:39:24Z</time>
      </trkpt>
      <trkpt lat="44.308207584545016" lon="5.815093852579594">
        <ele>595</ele>
        <time>2014-05-20T13:39:25Z</time>
      </trkpt>
      <trkpt lat="44.308174811303616" lon="5.815252438187599">
        <ele>593.79998779296875</ele>
        <time>2014-05-20T13:39:26Z</time>
      </trkpt>
      <trkpt lat="44.308141535148025" lon="5.815411107614636">
        <ele>591.79998779296875</ele>
        <time>2014-05-20T13:39:27Z</time>
      </trkpt>
      <trkpt lat="44.308099457994103" lon="5.815745880827308">
        <ele>590</ele>
        <time>2014-05-20T13:39:29Z</time>
      </trkpt>
      <trkpt lat="44.308077665045857" lon="5.815916201099753">
        <ele>589</ele>
        <time>2014-05-20T13:39:30Z</time>
      </trkpt>
      <trkpt lat="44.308056375011802" lon="5.816091131418943">
        <ele>587.5999755859375</ele>
        <time>2014-05-20T13:39:31Z</time>
      </trkpt>
      <trkpt lat="44.308033157140017" lon="5.816269079223275">
        <ele>586.20001220703125</ele>
        <time>2014-05-20T13:39:32Z</time>
      </trkpt>
      <trkpt lat="44.308005245402455" lon="5.816445183008909">
        <ele>585</ele>
        <time>2014-05-20T13:39:33Z</time>
      </trkpt>
      <trkpt lat="44.307933496311307" lon="5.816796300932765">
        <ele>583.4000244140625</ele>
        <time>2014-05-20T13:39:35Z</time>
      </trkpt>
      <trkpt lat="44.307885887101293" lon="5.816966872662306">
        <ele>582.79998779296875</ele>
        <time>2014-05-20T13:39:36Z</time>
      </trkpt>
      <trkpt lat="44.307828303426504" lon="5.81713761202991">
        <ele>581.79998779296875</ele>
        <time>2014-05-20T13:39:37Z</time>
      </trkpt>
      <trkpt lat="44.307707101106644" lon="5.817473055794835">
        <ele>579.79998779296875</ele>
        <time>2014-05-20T13:39:39Z</time>
      </trkpt>
      <trkpt lat="44.307651529088616" lon="5.817642873153091">
        <ele>578.79998779296875</ele>
        <time>2014-05-20T13:39:40Z</time>
      </trkpt>
      <trkpt lat="44.307595705613494" lon="5.817816378548741">
        <ele>578</ele>
        <time>2014-05-20T13:39:41Z</time>
      </trkpt>
      <trkpt lat="44.307498475536704" lon="5.818174118176103">
        <ele>576</ele>
        <time>2014-05-20T13:39:43Z</time>
      </trkpt>
      <trkpt lat="44.307445585727692" lon="5.818351982161403">
        <ele>574.5999755859375</ele>
        <time>2014-05-20T13:39:44Z</time>
      </trkpt>
      <trkpt lat="44.30739663541317" lon="5.81853412091732">
        <ele>573.79998779296875</ele>
        <time>2014-05-20T13:39:45Z</time>
      </trkpt>
      <trkpt lat="44.307354725897312" lon="5.818713074550033">
        <ele>572.79998779296875</ele>
        <time>2014-05-20T13:39:46Z</time>
      </trkpt>
      <trkpt lat="44.307274762541056" lon="5.819082465022802">
        <ele>571.4000244140625</ele>
        <time>2014-05-20T13:39:48Z</time>
      </trkpt>
      <trkpt lat="44.307206030935049" lon="5.819454789161682">
        <ele>569.4000244140625</ele>
        <time>2014-05-20T13:39:50Z</time>
      </trkpt>
      <trkpt lat="44.307173006236553" lon="5.819633742794395">
        <ele>567.4000244140625</ele>
        <time>2014-05-20T13:39:51Z</time>
      </trkpt>
      <trkpt lat="44.30711374618113" lon="5.819964241236448">
        <ele>566.20001220703125</ele>
        <time>2014-05-20T13:39:53Z</time>
      </trkpt>
      <trkpt lat="44.307092120870948" lon="5.8201187197119">
        <ele>565.79998779296875</ele>
        <time>2014-05-20T13:39:54Z</time>
      </trkpt>
      <trkpt lat="44.307080302387476" lon="5.820271270349622">
        <ele>565.20001220703125</ele>
        <time>2014-05-20T13:39:55Z</time>
      </trkpt>
      <trkpt lat="44.30708491243422" lon="5.820419462397695">
        <ele>564.4000244140625</ele>
        <time>2014-05-20T13:39:56Z</time>
      </trkpt>
      <trkpt lat="44.3070980720222" lon="5.820562206208706">
        <ele>563.5999755859375</ele>
        <time>2014-05-20T13:39:57Z</time>
      </trkpt>
      <trkpt lat="44.30713813751936" lon="5.820824895054102">
        <ele>562.5999755859375</ele>
        <time>2014-05-20T13:39:59Z</time>
      </trkpt>
      <trkpt lat="44.307160936295986" lon="5.82093964330852">
        <ele>562</ele>
        <time>2014-05-20T13:40:00Z</time>
      </trkpt>
      <trkpt lat="44.307182058691978" lon="5.821043830364943">
        <ele>561.5999755859375</ele>
        <time>2014-05-20T13:40:01Z</time>
      </trkpt>
      <trkpt lat="44.307196894660592" lon="5.821146424859762">
        <ele>561.4000244140625</ele>
        <time>2014-05-20T13:40:02Z</time>
      </trkpt>
      <trkpt lat="44.307195134460926" lon="5.821258407086134">
        <ele>561.4000244140625</ele>
        <time>2014-05-20T13:40:03Z</time>
      </trkpt>
      <trkpt lat="44.30715867318213" lon="5.821486478671432">
        <ele>560</ele>
        <time>2014-05-20T13:40:05Z</time>
      </trkpt>
      <trkpt lat="44.307112488895655" lon="5.821697115898132">
        <ele>558.5999755859375</ele>
        <time>2014-05-20T13:40:07Z</time>
      </trkpt>
      <trkpt lat="44.307076781988144" lon="5.82178839482367">
        <ele>558.20001220703125</ele>
        <time>2014-05-20T13:40:08Z</time>
      </trkpt>
      <trkpt lat="44.307044511660933" lon="5.821867352351546">
        <ele>558</ele>
        <time>2014-05-20T13:40:09Z</time>
      </trkpt>
      <trkpt lat="44.306914424523711" lon="5.822109170258045">
        <ele>557.5999755859375</ele>
        <time>2014-05-20T13:40:13Z</time>
      </trkpt>
      <trkpt lat="44.306893469765782" lon="5.822226516902447">
        <ele>557.20001220703125</ele>
        <time>2014-05-20T13:40:15Z</time>
      </trkpt>
      <trkpt lat="44.306872682645917" lon="5.822338499128819">
        <ele>556.20001220703125</ele>
        <time>2014-05-20T13:40:17Z</time>
      </trkpt>
      <trkpt lat="44.306855415925384" lon="5.822397340089083">
        <ele>556</ele>
        <time>2014-05-20T13:40:18Z</time>
      </trkpt>
      <trkpt lat="44.306762460619211" lon="5.822524493560195">
        <ele>556.4000244140625</ele>
        <time>2014-05-20T13:40:21Z</time>
      </trkpt>
      <trkpt lat="44.306726586073637" lon="5.822567073628306">
        <ele>556.5999755859375</ele>
        <time>2014-05-20T13:40:22Z</time>
      </trkpt>
      <trkpt lat="44.306498682126403" lon="5.822763629257679">
        <ele>555.5999755859375</ele>
        <time>2014-05-20T13:40:27Z</time>
      </trkpt>
      <trkpt lat="44.306087549775839" lon="5.822967644780874">
        <ele>555.20001220703125</ele>
        <time>2014-05-20T13:40:34Z</time>
      </trkpt>
      <trkpt lat="44.305888060480356" lon="5.822999160736799">
        <ele>554.79998779296875</ele>
        <time>2014-05-20T13:40:37Z</time>
      </trkpt>
      <trkpt lat="44.305618917569518" lon="5.823046686127782">
        <ele>555</ele>
        <time>2014-05-20T13:40:41Z</time>
      </trkpt>
      <trkpt lat="44.305342566221952" lon="5.823091110214591">
        <ele>553.79998779296875</ele>
        <time>2014-05-20T13:40:45Z</time>
      </trkpt>
      <trkpt lat="44.30494518019259" lon="5.823131510987878">
        <ele>553.4000244140625</ele>
        <time>2014-05-20T13:40:51Z</time>
      </trkpt>
      <trkpt lat="44.304682910442352" lon="5.823139054700732">
        <ele>554.79998779296875</ele>
        <time>2014-05-20T13:40:55Z</time>
      </trkpt>
      <trkpt lat="44.304425669834018" lon="5.823134947568178">
        <ele>554.5999755859375</ele>
        <time>2014-05-20T13:40:59Z</time>
      </trkpt>
      <trkpt lat="44.303862741217017" lon="5.823181383311749">
        <ele>555.4000244140625</ele>
        <time>2014-05-20T13:41:08Z</time>
      </trkpt>
      <trkpt lat="44.303737599402666" lon="5.823199488222599">
        <ele>555.20001220703125</ele>
        <time>2014-05-20T13:41:10Z</time>
      </trkpt>
      <trkpt lat="44.303169893100858" lon="5.823312476277351">
        <ele>555</ele>
        <time>2014-05-20T13:41:19Z</time>
      </trkpt>
      <trkpt lat="44.302608640864491" lon="5.823425548151135">
        <ele>555.4000244140625</ele>
        <time>2014-05-20T13:41:28Z</time>
      </trkpt>
      <trkpt lat="44.30248349905014" lon="5.823446586728096">
        <ele>555</ele>
        <time>2014-05-20T13:41:30Z</time>
      </trkpt>
      <trkpt lat="44.30197773501277" lon="5.823465278372169">
        <ele>554.79998779296875</ele>
        <time>2014-05-20T13:41:38Z</time>
      </trkpt>
      <trkpt lat="44.30141044780612" lon="5.82341548986733">
        <ele>555</ele>
        <time>2014-05-20T13:41:47Z</time>
      </trkpt>
      <trkpt lat="44.301286395639181" lon="5.823407107964158">
        <ele>555.20001220703125</ele>
        <time>2014-05-20T13:41:49Z</time>
      </trkpt>
      <trkpt lat="44.30076202377677" lon="5.823393194004893">
        <ele>555</ele>
        <time>2014-05-20T13:41:58Z</time>
      </trkpt>
      <trkpt lat="44.300218624994159" lon="5.82330702804029">
        <ele>555.5999755859375</ele>
        <time>2014-05-20T13:42:08Z</time>
      </trkpt>
      <trkpt lat="44.299726691097021" lon="5.823161937296391">
        <ele>555.20001220703125</ele>
        <time>2014-05-20T13:42:17Z</time>
      </trkpt>
      <trkpt lat="44.299157308414578" lon="5.822901846840978">
        <ele>554.4000244140625</ele>
        <time>2014-05-20T13:42:27Z</time>
      </trkpt>
      <trkpt lat="44.29893602617085" lon="5.822775363922119">
        <ele>553.79998779296875</ele>
        <time>2014-05-20T13:42:31Z</time>
      </trkpt>
      <trkpt lat="44.298772495239973" lon="5.8226727694273">
        <ele>553.4000244140625</ele>
        <time>2014-05-20T13:42:34Z</time>
      </trkpt>
      <trkpt lat="44.298385754227638" lon="5.822516698390245">
        <ele>554.4000244140625</ele>
        <time>2014-05-20T13:42:41Z</time>
      </trkpt>
      <trkpt lat="44.298286009579897" lon="5.822479901835322">
        <ele>555</ele>
        <time>2014-05-20T13:42:43Z</time>
      </trkpt>
      <trkpt lat="44.298128932714462" lon="5.822420055046678">
        <ele>555.4000244140625</ele>
        <time>2014-05-20T13:42:47Z</time>
      </trkpt>
      <trkpt lat="44.298090878874063" lon="5.822432627901435">
        <ele>556.4000244140625</ele>
        <time>2014-05-20T13:44:31Z</time>
      </trkpt>
      <trkpt lat="44.298038994893432" lon="5.822461377829313">
        <ele>556.20001220703125</ele>
        <time>2014-05-20T13:44:34Z</time>
      </trkpt>
      <trkpt lat="44.298013178631663" lon="5.822447463870049">
        <ele>556.20001220703125</ele>
        <time>2014-05-20T13:44:35Z</time>
      </trkpt>
      <trkpt lat="44.297911841422319" lon="5.822433214634657">
        <ele>556.20001220703125</ele>
        <time>2014-05-20T13:44:38Z</time>
      </trkpt>
      <trkpt lat="44.297668011859059" lon="5.822373032569885">
        <ele>555.79998779296875</ele>
        <time>2014-05-20T13:44:44Z</time>
      </trkpt>
      <trkpt lat="44.297313373535872" lon="5.822236826643348">
        <ele>555.5999755859375</ele>
        <time>2014-05-20T13:44:52Z</time>
      </trkpt>
      <trkpt lat="44.296948090195656" lon="5.821974305436015">
        <ele>554.79998779296875</ele>
        <time>2014-05-20T13:45:00Z</time>
      </trkpt>
      <trkpt lat="44.296560259535909" lon="5.821571806445718">
        <ele>555</ele>
        <time>2014-05-20T13:45:09Z</time>
      </trkpt>
      <trkpt lat="44.296158095821738" lon="5.821246923878789">
        <ele>555.79998779296875</ele>
        <time>2014-05-20T13:45:18Z</time>
      </trkpt>
      <trkpt lat="44.296068493276834" lon="5.821193531155586">
        <ele>556</ele>
        <time>2014-05-20T13:45:20Z</time>
      </trkpt>
      <trkpt lat="44.295875458046794" lon="5.821103258058429">
        <ele>557</ele>
        <time>2014-05-20T13:45:24Z</time>
      </trkpt>
      <trkpt lat="44.295827262103558" lon="5.821078279986978">
        <ele>557.20001220703125</ele>
        <time>2014-05-20T13:45:25Z</time>
      </trkpt>
      <trkpt lat="44.295453680679202" lon="5.820983899757266">
        <ele>557.4000244140625</ele>
        <time>2014-05-20T13:45:32Z</time>
      </trkpt>
      <trkpt lat="44.295075740665197" lon="5.820933943614364">
        <ele>558.20001220703125</ele>
        <time>2014-05-20T13:45:39Z</time>
      </trkpt>
      <trkpt lat="44.294794443994761" lon="5.820967303588986">
        <ele>558.20001220703125</ele>
        <time>2014-05-20T13:45:44Z</time>
      </trkpt>
      <trkpt lat="44.294684138149023" lon="5.821011727675796">
        <ele>558.20001220703125</ele>
        <time>2014-05-20T13:45:46Z</time>
      </trkpt>
      <trkpt lat="44.294523959979415" lon="5.821109795942903">
        <ele>558</ele>
        <time>2014-05-20T13:45:49Z</time>
      </trkpt>
      <trkpt lat="44.294372415170074" lon="5.821241559460759">
        <ele>558.20001220703125</ele>
        <time>2014-05-20T13:45:52Z</time>
      </trkpt>
      <trkpt lat="44.294008975848556" lon="5.821654284372926">
        <ele>558.4000244140625</ele>
        <time>2014-05-20T13:46:00Z</time>
      </trkpt>
      <trkpt lat="44.293700354173779" lon="5.821977239102125">
        <ele>559</ele>
        <time>2014-05-20T13:46:07Z</time>
      </trkpt>
      <trkpt lat="44.293379914015532" lon="5.822155438363552">
        <ele>558.79998779296875</ele>
        <time>2014-05-20T13:46:13Z</time>
      </trkpt>
      <trkpt lat="44.293263321742415" lon="5.822207070887089">
        <ele>559.4000244140625</ele>
        <time>2014-05-20T13:46:15Z</time>
      </trkpt>
      <trkpt lat="44.292949503287673" lon="5.822351993992925">
        <ele>558.20001220703125</ele>
        <time>2014-05-20T13:46:20Z</time>
      </trkpt>
      <trkpt lat="44.292882783338428" lon="5.82238057628274">
        <ele>558</ele>
        <time>2014-05-20T13:46:21Z</time>
      </trkpt>
      <trkpt lat="44.292675079777837" lon="5.822469172999263">
        <ele>557</ele>
        <time>2014-05-20T13:46:24Z</time>
      </trkpt>
      <trkpt lat="44.292390514165163" lon="5.822542849928141">
        <ele>556.20001220703125</ele>
        <time>2014-05-20T13:46:28Z</time>
      </trkpt>
      <trkpt lat="44.291824232786894" lon="5.822603618726134">
        <ele>556.4000244140625</ele>
        <time>2014-05-20T13:46:36Z</time>
      </trkpt>
      <trkpt lat="44.291351996362209" lon="5.822665225714445">
        <ele>556</ele>
        <time>2014-05-20T13:46:43Z</time>
      </trkpt>
      <trkpt lat="44.291286366060376" lon="5.822675283998251">
        <ele>555.5999755859375</ele>
        <time>2014-05-20T13:46:44Z</time>
      </trkpt>
      <trkpt lat="44.290717905387282" lon="5.822740830481052">
        <ele>556.5999755859375</ele>
        <time>2014-05-20T13:46:53Z</time>
      </trkpt>
      <trkpt lat="44.290655376389623" lon="5.822744686156511">
        <ele>557.20001220703125</ele>
        <time>2014-05-20T13:46:54Z</time>
      </trkpt>
      <trkpt lat="44.290483882650733" lon="5.822759857401252">
        <ele>558.20001220703125</ele>
        <time>2014-05-20T13:46:57Z</time>
      </trkpt>
      <trkpt lat="44.290269389748573" lon="5.822773352265358">
        <ele>558.5999755859375</ele>
        <time>2014-05-20T13:47:01Z</time>
      </trkpt>
      <trkpt lat="44.29016855545342" lon="5.822782572358847">
        <ele>559.5999755859375</ele>
        <time>2014-05-20T13:47:03Z</time>
      </trkpt>
      <trkpt lat="44.289877619594336" lon="5.822802605107427">
        <ele>560.4000244140625</ele>
        <time>2014-05-20T13:47:09Z</time>
      </trkpt>
      <trkpt lat="44.289832776412368" lon="5.822807047516108">
        <ele>560.5999755859375</ele>
        <time>2014-05-20T13:47:10Z</time>
      </trkpt>
      <trkpt lat="44.289499092847109" lon="5.822827499359846">
        <ele>561.79998779296875</ele>
        <time>2014-05-20T13:47:18Z</time>
      </trkpt>
      <trkpt lat="44.289334639906883" lon="5.822824984788895">
        <ele>563</ele>
        <time>2014-05-20T13:47:22Z</time>
      </trkpt>
      <trkpt lat="44.289140766486526" lon="5.822798833251">
        <ele>563</ele>
        <time>2014-05-20T13:47:27Z</time>
      </trkpt>
      <trkpt lat="44.288894673809409" lon="5.822682995349169">
        <ele>564</ele>
        <time>2014-05-20T13:47:34Z</time>
      </trkpt>
      <trkpt lat="44.288859637454152" lon="5.822660028934479">
        <ele>564</ele>
        <time>2014-05-20T13:47:35Z</time>
      </trkpt>
      <trkpt lat="44.288593847304583" lon="5.822415109723806">
        <ele>563.79998779296875</ele>
        <time>2014-05-20T13:47:43Z</time>
      </trkpt>
      <trkpt lat="44.288307186216116" lon="5.82213674671948">
        <ele>563.20001220703125</ele>
        <time>2014-05-20T13:47:51Z</time>
      </trkpt>
      <trkpt lat="44.288142397999763" lon="5.822006994858384">
        <ele>562.79998779296875</ele>
        <time>2014-05-20T13:47:55Z</time>
      </trkpt>
      <trkpt lat="44.288004012778401" lon="5.821895934641361">
        <ele>562.79998779296875</ele>
        <time>2014-05-20T13:47:58Z</time>
      </trkpt>
      <trkpt lat="44.287786167114973" lon="5.821759477257729">
        <ele>561.79998779296875</ele>
        <time>2014-05-20T13:48:02Z</time>
      </trkpt>
      <trkpt lat="44.287665048614144" lon="5.821685800328851">
        <ele>561</ele>
        <time>2014-05-20T13:48:04Z</time>
      </trkpt>
      <trkpt lat="44.287601178511977" lon="5.821651937440038">
        <ele>560.5999755859375</ele>
        <time>2014-05-20T13:48:05Z</time>
      </trkpt>
      <trkpt lat="44.28739900700748" lon="5.821535680443049">
        <ele>559.20001220703125</ele>
        <time>2014-05-20T13:48:08Z</time>
      </trkpt>
      <trkpt lat="44.287255927920341" lon="5.821468457579613">
        <ele>558</ele>
        <time>2014-05-20T13:48:10Z</time>
      </trkpt>
      <trkpt lat="44.286942612379789" lon="5.821359911933541">
        <ele>557</ele>
        <time>2014-05-20T13:48:14Z</time>
      </trkpt>
      <trkpt lat="44.28677405230701" lon="5.82130610011518">
        <ele>555.5999755859375</ele>
        <time>2014-05-20T13:48:16Z</time>
      </trkpt>
      <trkpt lat="44.286687467247248" lon="5.821279445663095">
        <ele>555.20001220703125</ele>
        <time>2014-05-20T13:48:17Z</time>
      </trkpt>
      <trkpt lat="44.286514632403851" lon="5.821218425408006">
        <ele>554.20001220703125</ele>
        <time>2014-05-20T13:48:19Z</time>
      </trkpt>
      <trkpt lat="44.286244651302695" lon="5.821136366575956">
        <ele>552.79998779296875</ele>
        <time>2014-05-20T13:48:22Z</time>
      </trkpt>
      <trkpt lat="44.286151695996523" lon="5.821111053228378">
        <ele>552.20001220703125</ele>
        <time>2014-05-20T13:48:23Z</time>
      </trkpt>
      <trkpt lat="44.286057818681002" lon="5.821075513958931">
        <ele>551.79998779296875</ele>
        <time>2014-05-20T13:48:24Z</time>
      </trkpt>
      <trkpt lat="44.28586813621223" lon="5.821002591401339">
        <ele>550.5999755859375</ele>
        <time>2014-05-20T13:48:26Z</time>
      </trkpt>
      <trkpt lat="44.285681052133441" lon="5.820909719914198">
        <ele>549.20001220703125</ele>
        <time>2014-05-20T13:48:28Z</time>
      </trkpt>
      <trkpt lat="44.285589773207903" lon="5.820860769599676">
        <ele>549</ele>
        <time>2014-05-20T13:48:29Z</time>
      </trkpt>
      <trkpt lat="44.28531308658421" lon="5.820720624178648">
        <ele>548.20001220703125</ele>
        <time>2014-05-20T13:48:32Z</time>
      </trkpt>
      <trkpt lat="44.284943360835314" lon="5.820532701909542">
        <ele>547</ele>
        <time>2014-05-20T13:48:36Z</time>
      </trkpt>
      <trkpt lat="44.284681510180235" lon="5.820400770753622">
        <ele>546.20001220703125</ele>
        <time>2014-05-20T13:48:39Z</time>
      </trkpt>
      <trkpt lat="44.284172058105469" lon="5.820231456309557">
        <ele>546.5999755859375</ele>
        <time>2014-05-20T13:48:45Z</time>
      </trkpt>
      <trkpt lat="44.283662857487798" lon="5.820184852927923">
        <ele>546.4000244140625</ele>
        <time>2014-05-20T13:48:51Z</time>
      </trkpt>
      <trkpt lat="44.283579122275114" lon="5.820186780765653">
        <ele>545.79998779296875</ele>
        <time>2014-05-20T13:48:52Z</time>
      </trkpt>
      <trkpt lat="44.283177545294166" lon="5.820180075243115">
        <ele>545.79998779296875</ele>
        <time>2014-05-20T13:48:57Z</time>
      </trkpt>
      <trkpt lat="44.282560050487518" lon="5.820142608135939">
        <ele>544.5999755859375</ele>
        <time>2014-05-20T13:49:05Z</time>
      </trkpt>
      <trkpt lat="44.282185463234782" lon="5.820008413866162">
        <ele>543.5999755859375</ele>
        <time>2014-05-20T13:49:10Z</time>
      </trkpt>
      <trkpt lat="44.282115306705236" lon="5.819971784949303">
        <ele>543.5999755859375</ele>
        <time>2014-05-20T13:49:11Z</time>
      </trkpt>
      <trkpt lat="44.281715741381049" lon="5.819717142730951">
        <ele>543.79998779296875</ele>
        <time>2014-05-20T13:49:17Z</time>
      </trkpt>
      <trkpt lat="44.281221628189087" lon="5.81938773393631">
        <ele>543.79998779296875</ele>
        <time>2014-05-20T13:49:25Z</time>
      </trkpt>
      <trkpt lat="44.281157506629825" lon="5.819347081705928">
        <ele>543.5999755859375</ele>
        <time>2014-05-20T13:49:26Z</time>
      </trkpt>
      <trkpt lat="44.280704129487276" lon="5.819064024835825">
        <ele>542.20001220703125</ele>
        <time>2014-05-20T13:49:33Z</time>
      </trkpt>
      <trkpt lat="44.280574545264244" lon="5.81898364238441">
        <ele>542.20001220703125</ele>
        <time>2014-05-20T13:49:35Z</time>
      </trkpt>
      <trkpt lat="44.280025698244572" lon="5.818644175305963">
        <ele>542.5999755859375</ele>
        <time>2014-05-20T13:49:44Z</time>
      </trkpt>
      <trkpt lat="44.279969371855259" lon="5.818607043474913">
        <ele>542.4000244140625</ele>
        <time>2014-05-20T13:49:45Z</time>
      </trkpt>
      <trkpt lat="44.279477940872312" lon="5.81828685477376">
        <ele>542.5999755859375</ele>
        <time>2014-05-20T13:49:54Z</time>
      </trkpt>
      <trkpt lat="44.279423039406538" lon="5.818253494799137">
        <ele>542.79998779296875</ele>
        <time>2014-05-20T13:49:55Z</time>
      </trkpt>
      <trkpt lat="44.278938230127096" lon="5.817940011620522">
        <ele>542</ele>
        <time>2014-05-20T13:50:04Z</time>
      </trkpt>
      <trkpt lat="44.278454929590225" lon="5.817631054669619">
        <ele>541.20001220703125</ele>
        <time>2014-05-20T13:50:13Z</time>
      </trkpt>
      <trkpt lat="44.278400195762515" lon="5.817593084648252">
        <ele>541.20001220703125</ele>
        <time>2014-05-20T13:50:14Z</time>
      </trkpt>
      <trkpt lat="44.277928462252021" lon="5.817282283678651">
        <ele>540</ele>
        <time>2014-05-20T13:50:22Z</time>
      </trkpt>
      <trkpt lat="44.277870627120137" lon="5.817242050543428">
        <ele>540</ele>
        <time>2014-05-20T13:50:23Z</time>
      </trkpt>
      <trkpt lat="44.277341309934855" lon="5.816892944276333">
        <ele>539.20001220703125</ele>
        <time>2014-05-20T13:50:32Z</time>
      </trkpt>
      <trkpt lat="44.277284312993288" lon="5.816857824102044">
        <ele>539</ele>
        <time>2014-05-20T13:50:33Z</time>
      </trkpt>
      <trkpt lat="44.27716956473887" lon="5.816801078617573">
        <ele>539</ele>
        <time>2014-05-20T13:50:35Z</time>
      </trkpt>
      <trkpt lat="44.276992958039045" lon="5.816750787198544">
        <ele>538.5999755859375</ele>
        <time>2014-05-20T13:50:38Z</time>
      </trkpt>
      <trkpt lat="44.276730520650744" lon="5.81673595122993">
        <ele>537.79998779296875</ele>
        <time>2014-05-20T13:50:42Z</time>
      </trkpt>
      <trkpt lat="44.276661453768611" lon="5.816746009513736">
        <ele>537.5999755859375</ele>
        <time>2014-05-20T13:50:43Z</time>
      </trkpt>
      <trkpt lat="44.276234311982989" lon="5.816891016438603">
        <ele>537.20001220703125</ele>
        <time>2014-05-20T13:50:49Z</time>
      </trkpt>
      <trkpt lat="44.275677418336272" lon="5.81712001003325">
        <ele>536.79998779296875</ele>
        <time>2014-05-20T13:50:57Z</time>
      </trkpt>
      <trkpt lat="44.275294449180365" lon="5.817268369719386">
        <ele>535.4000244140625</ele>
        <time>2014-05-20T13:51:02Z</time>
      </trkpt>
      <trkpt lat="44.275134606286883" lon="5.817331317812204">
        <ele>534</ele>
        <time>2014-05-20T13:51:04Z</time>
      </trkpt>
      <trkpt lat="44.274643929675221" lon="5.817529633641243">
        <ele>532.79998779296875</ele>
        <time>2014-05-20T13:51:10Z</time>
      </trkpt>
      <trkpt lat="44.27440688945353" lon="5.817622002214193">
        <ele>531.79998779296875</ele>
        <time>2014-05-20T13:51:13Z</time>
      </trkpt>
      <trkpt lat="44.2738679330796" lon="5.817830376327038">
        <ele>531.4000244140625</ele>
        <time>2014-05-20T13:51:20Z</time>
      </trkpt>
      <trkpt lat="44.273720914497972" lon="5.817891228944063">
        <ele>531.4000244140625</ele>
        <time>2014-05-20T13:51:22Z</time>
      </trkpt>
      <trkpt lat="44.273138456046581" lon="5.818112343549728">
        <ele>531.20001220703125</ele>
        <time>2014-05-20T13:51:30Z</time>
      </trkpt>
      <trkpt lat="44.272999567911029" lon="5.8181725256145">
        <ele>531.20001220703125</ele>
        <time>2014-05-20T13:51:32Z</time>
      </trkpt>
      <trkpt lat="44.272435298189521" lon="5.81839045509696">
        <ele>530.79998779296875</ele>
        <time>2014-05-20T13:51:40Z</time>
      </trkpt>
      <trkpt lat="44.272224912419915" lon="5.818476118147373">
        <ele>530.79998779296875</ele>
        <time>2014-05-20T13:51:43Z</time>
      </trkpt>
      <trkpt lat="44.272153833881021" lon="5.818504532799125">
        <ele>530.5999755859375</ele>
        <time>2014-05-20T13:51:44Z</time>
      </trkpt>
      <trkpt lat="44.271584032103419" lon="5.818725060671568">
        <ele>530.5999755859375</ele>
        <time>2014-05-20T13:51:52Z</time>
      </trkpt>
      <trkpt lat="44.271443551406264" lon="5.818784236907959">
        <ele>530.20001220703125</ele>
        <time>2014-05-20T13:51:54Z</time>
      </trkpt>
      <trkpt lat="44.270886071026325" lon="5.818996382877231">
        <ele>530</ele>
        <time>2014-05-20T13:52:02Z</time>
      </trkpt>
      <trkpt lat="44.27081935107708" lon="5.819023456424475">
        <ele>529.79998779296875</ele>
        <time>2014-05-20T13:52:03Z</time>
      </trkpt>
      <trkpt lat="44.270680714398623" lon="5.819079028442502">
        <ele>529.5999755859375</ele>
        <time>2014-05-20T13:52:05Z</time>
      </trkpt>
      <trkpt lat="44.270138740539551" lon="5.81928757019341">
        <ele>528.79998779296875</ele>
        <time>2014-05-20T13:52:13Z</time>
      </trkpt>
      <trkpt lat="44.270006557926536" lon="5.819340627640486">
        <ele>529</ele>
        <time>2014-05-20T13:52:15Z</time>
      </trkpt>
      <trkpt lat="44.269467014819384" lon="5.819553276523948">
        <ele>529.4000244140625</ele>
        <time>2014-05-20T13:52:23Z</time>
      </trkpt>
      <trkpt lat="44.269329719245434" lon="5.819604322314262">
        <ele>529.20001220703125</ele>
        <time>2014-05-20T13:52:25Z</time>
      </trkpt>
      <trkpt lat="44.268977846950293" lon="5.819745389744639">
        <ele>528.4000244140625</ele>
        <time>2014-05-20T13:52:30Z</time>
      </trkpt>
      <trkpt lat="44.268840970471501" lon="5.81979769282043">
        <ele>528.20001220703125</ele>
        <time>2014-05-20T13:52:32Z</time>
      </trkpt>
      <trkpt lat="44.268289441242814" lon="5.820013526827097">
        <ele>527.4000244140625</ele>
        <time>2014-05-20T13:52:40Z</time>
      </trkpt>
      <trkpt lat="44.268220122903585" lon="5.820042779669166">
        <ele>527</ele>
        <time>2014-05-20T13:52:41Z</time>
      </trkpt>
      <trkpt lat="44.267673790454865" lon="5.820253835991025">
        <ele>527.5999755859375</ele>
        <time>2014-05-20T13:52:49Z</time>
      </trkpt>
      <trkpt lat="44.267605561763048" lon="5.820282334461808">
        <ele>527.4000244140625</ele>
        <time>2014-05-20T13:52:50Z</time>
      </trkpt>
      <trkpt lat="44.267130475491285" lon="5.820466903969646">
        <ele>526.20001220703125</ele>
        <time>2014-05-20T13:52:57Z</time>
      </trkpt>
      <trkpt lat="44.26671733148396" lon="5.820631440728903">
        <ele>525.79998779296875</ele>
        <time>2014-05-20T13:53:03Z</time>
      </trkpt>
      <trkpt lat="44.266376858577132" lon="5.820766389369965">
        <ele>526</ele>
        <time>2014-05-20T13:53:08Z</time>
      </trkpt>
      <trkpt lat="44.265957176685333" lon="5.820931764319539">
        <ele>524.4000244140625</ele>
        <time>2014-05-20T13:53:14Z</time>
      </trkpt>
      <trkpt lat="44.265745198354125" lon="5.821014745160937">
        <ele>523.79998779296875</ele>
        <time>2014-05-20T13:53:17Z</time>
      </trkpt>
      <trkpt lat="44.265600275248289" lon="5.821068892255426">
        <ele>523.4000244140625</ele>
        <time>2014-05-20T13:53:19Z</time>
      </trkpt>
      <trkpt lat="44.26516542211175" lon="5.82123720087111">
        <ele>522.5999755859375</ele>
        <time>2014-05-20T13:53:25Z</time>
      </trkpt>
      <trkpt lat="44.264953946694732" lon="5.821318253874779">
        <ele>522.20001220703125</ele>
        <time>2014-05-20T13:53:28Z</time>
      </trkpt>
      <trkpt lat="44.264615066349506" lon="5.821438450366259">
        <ele>521.79998779296875</ele>
        <time>2014-05-20T13:53:33Z</time>
      </trkpt>
      <trkpt lat="44.264208544045687" lon="5.821567364037037">
        <ele>521.79998779296875</ele>
        <time>2014-05-20T13:53:39Z</time>
      </trkpt>
      <trkpt lat="44.263687692582607" lon="5.821780934929848">
        <ele>521.79998779296875</ele>
        <time>2014-05-20T13:53:47Z</time>
      </trkpt>
      <trkpt lat="44.263132810592651" lon="5.822071535512805">
        <ele>523</ele>
        <time>2014-05-20T13:53:56Z</time>
      </trkpt>
      <trkpt lat="44.262771382927895" lon="5.822251494973898">
        <ele>522.5999755859375</ele>
        <time>2014-05-20T13:54:02Z</time>
      </trkpt>
      <trkpt lat="44.262654287740588" lon="5.822309833019972">
        <ele>523.20001220703125</ele>
        <time>2014-05-20T13:54:04Z</time>
      </trkpt>
      <trkpt lat="44.262206442654133" lon="5.822536395862699">
        <ele>523.79998779296875</ele>
        <time>2014-05-20T13:54:12Z</time>
      </trkpt>
      <trkpt lat="44.262037379667163" lon="5.822619628161192">
        <ele>524.4000244140625</ele>
        <time>2014-05-20T13:54:15Z</time>
      </trkpt>
      <trkpt lat="44.261591965332627" lon="5.822833366692066">
        <ele>525.20001220703125</ele>
        <time>2014-05-20T13:54:23Z</time>
      </trkpt>
      <trkpt lat="44.261053763329983" lon="5.823106616735458">
        <ele>525</ele>
        <time>2014-05-20T13:54:33Z</time>
      </trkpt>
      <trkpt lat="44.260949743911624" lon="5.823155399411917">
        <ele>525.20001220703125</ele>
        <time>2014-05-20T13:54:35Z</time>
      </trkpt>
      <trkpt lat="44.260846059769392" lon="5.823197979480028">
        <ele>525.4000244140625</ele>
        <time>2014-05-20T13:54:37Z</time>
      </trkpt>
      <trkpt lat="44.260520841926336" lon="5.823285905644298">
        <ele>526.20001220703125</ele>
        <time>2014-05-20T13:54:43Z</time>
      </trkpt>
      <trkpt lat="44.260309617966413" lon="5.823313901200891">
        <ele>526.5999755859375</ele>
        <time>2014-05-20T13:54:47Z</time>
      </trkpt>
      <trkpt lat="44.259988758713007" lon="5.823346842080355">
        <ele>526.79998779296875</ele>
        <time>2014-05-20T13:54:53Z</time>
      </trkpt>
      <trkpt lat="44.25942306406796" lon="5.823399228975177">
        <ele>527.20001220703125</ele>
        <time>2014-05-20T13:55:03Z</time>
      </trkpt>
      <trkpt lat="44.258885784074664" lon="5.823495034128428">
        <ele>526.79998779296875</ele>
        <time>2014-05-20T13:55:12Z</time>
      </trkpt>
      <trkpt lat="44.25845654681325" lon="5.823667198419571">
        <ele>526.20001220703125</ele>
        <time>2014-05-20T13:55:19Z</time>
      </trkpt>
      <trkpt lat="44.257954973727465" lon="5.823990404605866">
        <ele>525.5999755859375</ele>
        <time>2014-05-20T13:55:27Z</time>
      </trkpt>
      <trkpt lat="44.257893618196249" lon="5.824039522558451">
        <ele>525.20001220703125</ele>
        <time>2014-05-20T13:55:28Z</time>
      </trkpt>
      <trkpt lat="44.257461531087756" lon="5.824441434815526">
        <ele>524.5999755859375</ele>
        <time>2014-05-20T13:55:35Z</time>
      </trkpt>
      <trkpt lat="44.257061211392283" lon="5.824854159727693">
        <ele>524.5999755859375</ele>
        <time>2014-05-20T13:55:42Z</time>
      </trkpt>
      <trkpt lat="44.256905224174261" lon="5.82503286190331">
        <ele>524.20001220703125</ele>
        <time>2014-05-20T13:55:45Z</time>
      </trkpt>
      <trkpt lat="44.256623424589634" lon="5.825390852987766">
        <ele>523.4000244140625</ele>
        <time>2014-05-20T13:55:51Z</time>
      </trkpt>
      <trkpt lat="44.256363585591316" lon="5.825802320614457">
        <ele>522.5999755859375</ele>
        <time>2014-05-20T13:55:54Z</time>
      </trkpt>
      <trkpt lat="44.256273815408349" lon="5.825952440500259">
        <ele>521.20001220703125</ele>
        <time>2014-05-20T13:55:59Z</time>
      </trkpt>
      <trkpt lat="44.256228050217032" lon="5.826028632000089">
        <ele>520.79998779296875</ele>
        <time>2014-05-20T13:56:00Z</time>
      </trkpt>
      <trkpt lat="44.255893025547266" lon="5.826636739075184">
        <ele>521.4000244140625</ele>
        <time>2014-05-20T13:56:08Z</time>
      </trkpt>
      <trkpt lat="44.255733098834753" lon="5.826952736824751">
        <ele>520.20001220703125</ele>
        <time>2014-05-20T13:56:12Z</time>
      </trkpt>
      <trkpt lat="44.255596306174994" lon="5.827279379591346">
        <ele>519.4000244140625</ele>
        <time>2014-05-20T13:56:16Z</time>
      </trkpt>
      <trkpt lat="44.255562191829085" lon="5.827364288270474">
        <ele>519.20001220703125</ele>
        <time>2014-05-20T13:56:17Z</time>
      </trkpt>
      <trkpt lat="44.255332443863153" lon="5.827999385073781">
        <ele>518.79998779296875</ele>
        <time>2014-05-20T13:56:24Z</time>
      </trkpt>
      <trkpt lat="44.255271339789033" lon="5.828193426132202">
        <ele>518</ele>
        <time>2014-05-20T13:56:26Z</time>
      </trkpt>
      <trkpt lat="44.25510847941041" lon="5.828794995322824">
        <ele>517.20001220703125</ele>
        <time>2014-05-20T13:56:32Z</time>
      </trkpt>
      <trkpt lat="44.255081489682198" lon="5.828892476856709">
        <ele>516.5999755859375</ele>
        <time>2014-05-20T13:56:33Z</time>
      </trkpt>
      <trkpt lat="44.254914773628116" lon="5.829549701884389">
        <ele>517.5999755859375</ele>
        <time>2014-05-20T13:56:40Z</time>
      </trkpt>
      <trkpt lat="44.254891891032457" lon="5.829642741009593">
        <ele>517.79998779296875</ele>
        <time>2014-05-20T13:56:41Z</time>
      </trkpt>
      <trkpt lat="44.254675470292568" lon="5.830352604389191">
        <ele>518</ele>
        <time>2014-05-20T13:56:49Z</time>
      </trkpt>
      <trkpt lat="44.254396352916956" lon="5.830962304025888">
        <ele>517.5999755859375</ele>
        <time>2014-05-20T13:56:57Z</time>
      </trkpt>
      <trkpt lat="44.254080690443516" lon="5.831457087770104">
        <ele>518.5999755859375</ele>
        <time>2014-05-20T13:57:05Z</time>
      </trkpt>
      <trkpt lat="44.253995530307293" lon="5.831568147987127">
        <ele>519.20001220703125</ele>
        <time>2014-05-20T13:57:07Z</time>
      </trkpt>
      <trkpt lat="44.253678023815155" lon="5.83191909827292">
        <ele>519.4000244140625</ele>
        <time>2014-05-20T13:57:14Z</time>
      </trkpt>
      <trkpt lat="44.253537375479937" lon="5.83205739967525">
        <ele>520.4000244140625</ele>
        <time>2014-05-20T13:57:17Z</time>
      </trkpt>
      <trkpt lat="44.253233782947063" lon="5.832352442666888">
        <ele>520.5999755859375</ele>
        <time>2014-05-20T13:57:24Z</time>
      </trkpt>
      <trkpt lat="44.253112748265266" lon="5.832465346902609">
        <ele>521.4000244140625</ele>
        <time>2014-05-20T13:57:27Z</time>
      </trkpt>
      <trkpt lat="44.252963634207845" lon="5.832611694931984">
        <ele>522.4000244140625</ele>
        <time>2014-05-20T13:57:31Z</time>
      </trkpt>
      <trkpt lat="44.252796499058604" lon="5.832766341045499">
        <ele>523.4000244140625</ele>
        <time>2014-05-20T13:57:36Z</time>
      </trkpt>
      <trkpt lat="44.252700777724385" lon="5.832855775952339">
        <ele>524.4000244140625</ele>
        <time>2014-05-20T13:57:39Z</time>
      </trkpt>
      <trkpt lat="44.252669094130397" lon="5.832884022966027">
        <ele>524.5999755859375</ele>
        <time>2014-05-20T13:57:40Z</time>
      </trkpt>
      <trkpt lat="44.252398693934083" lon="5.833125757053495">
        <ele>525.5999755859375</ele>
        <time>2014-05-20T13:57:49Z</time>
      </trkpt>
      <trkpt lat="44.252368770539761" lon="5.833150986582041">
        <ele>525.79998779296875</ele>
        <time>2014-05-20T13:57:50Z</time>
      </trkpt>
      <trkpt lat="44.252156540751457" lon="5.83331904374063">
        <ele>526.79998779296875</ele>
        <time>2014-05-20T13:57:57Z</time>
      </trkpt>
      <trkpt lat="44.252124521881342" lon="5.833343183621764">
        <ele>526.79998779296875</ele>
        <time>2014-05-20T13:57:58Z</time>
      </trkpt>
      <trkpt lat="44.2518400400877" lon="5.833574021235108">
        <ele>527.5999755859375</ele>
        <time>2014-05-20T13:58:07Z</time>
      </trkpt>
      <trkpt lat="44.251775667071342" lon="5.833625653758645">
        <ele>528</ele>
        <time>2014-05-20T13:58:09Z</time>
      </trkpt>
      <trkpt lat="44.251537872478366" lon="5.833849618211389">
        <ele>528.79998779296875</ele>
        <time>2014-05-20T13:58:17Z</time>
      </trkpt>
      <trkpt lat="44.251341400668025" lon="5.834098225459456">
        <ele>529.20001220703125</ele>
        <time>2014-05-20T13:58:24Z</time>
      </trkpt>
      <trkpt lat="44.25131474621594" lon="5.834138877689838">
        <ele>529.4000244140625</ele>
        <time>2014-05-20T13:58:25Z</time>
      </trkpt>
      <trkpt lat="44.251234028488398" lon="5.834254967048764">
        <ele>530.20001220703125</ele>
        <time>2014-05-20T13:58:28Z</time>
      </trkpt>
      <trkpt lat="44.251111317425966" lon="5.834481110796332">
        <ele>530</ele>
        <time>2014-05-20T13:58:33Z</time>
      </trkpt>
      <trkpt lat="44.250933537259698" lon="5.834874473512173">
        <ele>530.4000244140625</ele>
        <time>2014-05-20T13:58:41Z</time>
      </trkpt>
      <trkpt lat="44.250790877267718" lon="5.835414603352547">
        <ele>530.4000244140625</ele>
        <time>2014-05-20T13:58:50Z</time>
      </trkpt>
      <trkpt lat="44.250703034922481" lon="5.835863202810288">
        <ele>530.4000244140625</ele>
        <time>2014-05-20T13:58:57Z</time>
      </trkpt>
      <trkpt lat="44.250599183142185" lon="5.836374750360847">
        <ele>531</ele>
        <time>2014-05-20T13:59:05Z</time>
      </trkpt>
      <trkpt lat="44.250574875622988" lon="5.836502574384213">
        <ele>531.20001220703125</ele>
        <time>2014-05-20T13:59:07Z</time>
      </trkpt>
      <trkpt lat="44.250487284734845" lon="5.836937259882689">
        <ele>531.79998779296875</ele>
        <time>2014-05-20T13:59:14Z</time>
      </trkpt>
      <trkpt lat="44.250427521765232" lon="5.837245043367147">
        <ele>532.4000244140625</ele>
        <time>2014-05-20T13:59:19Z</time>
      </trkpt>
      <trkpt lat="44.250355521216989" lon="5.837594652548432">
        <ele>532.79998779296875</ele>
        <time>2014-05-20T13:59:25Z</time>
      </trkpt>
      <trkpt lat="44.25031989812851" lon="5.837762374430895">
        <ele>533.4000244140625</ele>
        <time>2014-05-20T13:59:28Z</time>
      </trkpt>
      <trkpt lat="44.2502720374614" lon="5.838015004992485">
        <ele>533.79998779296875</ele>
        <time>2014-05-20T13:59:33Z</time>
      </trkpt>
      <trkpt lat="44.250220907852054" lon="5.838289763778448">
        <ele>534.4000244140625</ele>
        <time>2014-05-20T13:59:38Z</time>
      </trkpt>
      <trkpt lat="44.250198109075427" lon="5.838399650529027">
        <ele>534.79998779296875</ele>
        <time>2014-05-20T13:59:40Z</time>
      </trkpt>
      <trkpt lat="44.250149158760905" lon="5.838659321889281">
        <ele>535.5999755859375</ele>
        <time>2014-05-20T13:59:45Z</time>
      </trkpt>
      <trkpt lat="44.25012887455523" lon="5.838764263316989">
        <ele>535.79998779296875</ele>
        <time>2014-05-20T13:59:47Z</time>
      </trkpt>
      <trkpt lat="44.250044971704483" lon="5.839144214987755">
        <ele>536</ele>
        <time>2014-05-20T13:59:54Z</time>
      </trkpt>
      <trkpt lat="44.249922260642052" lon="5.839572278782725">
        <ele>536.5999755859375</ele>
        <time>2014-05-20T14:00:02Z</time>
      </trkpt>
      <trkpt lat="44.249863252043724" lon="5.839721225202084">
        <ele>537</ele>
        <time>2014-05-20T14:00:05Z</time>
      </trkpt>
      <trkpt lat="44.249709779396653" lon="5.839985171332955">
        <ele>537.20001220703125</ele>
        <time>2014-05-20T14:00:11Z</time>
      </trkpt>
      <trkpt lat="44.249652279540896" lon="5.840063709765673">
        <ele>537.20001220703125</ele>
        <time>2014-05-20T14:00:13Z</time>
      </trkpt>
      <trkpt lat="44.249562928453088" lon="5.840169908478856">
        <ele>537.5999755859375</ele>
        <time>2014-05-20T14:00:16Z</time>
      </trkpt>
      <trkpt lat="44.249433679506183" lon="5.840285997837782">
        <ele>538</ele>
        <time>2014-05-20T14:00:20Z</time>
      </trkpt>
      <trkpt lat="44.249233938753605" lon="5.840462269261479">
        <ele>538.79998779296875</ele>
        <time>2014-05-20T14:00:26Z</time>
      </trkpt>
      <trkpt lat="44.249127404764295" lon="5.840540137141943">
        <ele>538.79998779296875</ele>
        <time>2014-05-20T14:00:29Z</time>
      </trkpt>
      <trkpt lat="44.24880612641573" lon="5.840799054130912">
        <ele>538.20001220703125</ele>
        <time>2014-05-20T14:00:38Z</time>
      </trkpt>
      <trkpt lat="44.248664975166321" lon="5.840910617262125">
        <ele>540</ele>
        <time>2014-05-20T14:00:42Z</time>
      </trkpt>
      <trkpt lat="44.24848610535264" lon="5.84106232970953">
        <ele>540</ele>
        <time>2014-05-20T14:00:47Z</time>
      </trkpt>
      <trkpt lat="44.248224757611752" lon="5.841274727135897">
        <ele>539</ele>
        <time>2014-05-20T14:00:54Z</time>
      </trkpt>
      <trkpt lat="44.248188715428114" lon="5.841304231435061">
        <ele>539</ele>
        <time>2014-05-20T14:00:55Z</time>
      </trkpt>
      <trkpt lat="44.248150242492557" lon="5.841333316639066">
        <ele>539</ele>
        <time>2014-05-20T14:00:56Z</time>
      </trkpt>
      <trkpt lat="44.247786467894912" lon="5.841625258326531">
        <ele>538.20001220703125</ele>
        <time>2014-05-20T14:01:05Z</time>
      </trkpt>
      <trkpt lat="44.247745983302593" lon="5.841662976890802">
        <ele>538</ele>
        <time>2014-05-20T14:01:06Z</time>
      </trkpt>
      <trkpt lat="44.247453538700938" lon="5.841905381530523">
        <ele>538</ele>
        <time>2014-05-20T14:01:13Z</time>
      </trkpt>
      <trkpt lat="44.247021954506636" lon="5.842256667092443">
        <ele>537.79998779296875</ele>
        <time>2014-05-20T14:01:23Z</time>
      </trkpt>
      <trkpt lat="44.246552484109998" lon="5.842641983181238">
        <ele>538.5999755859375</ele>
        <time>2014-05-20T14:01:33Z</time>
      </trkpt>
      <trkpt lat="44.246150990948081" lon="5.842950772494078">
        <ele>537.79998779296875</ele>
        <time>2014-05-20T14:01:41Z</time>
      </trkpt>
      <trkpt lat="44.245731057599187" lon="5.843297699466348">
        <ele>537</ele>
        <time>2014-05-20T14:01:49Z</time>
      </trkpt>
      <trkpt lat="44.24567699432373" lon="5.843339692801237">
        <ele>536.79998779296875</ele>
        <time>2014-05-20T14:01:50Z</time>
      </trkpt>
      <trkpt lat="44.245282793417573" lon="5.843655522912741">
        <ele>536.20001220703125</ele>
        <time>2014-05-20T14:01:57Z</time>
      </trkpt>
      <trkpt lat="44.245042568072677" lon="5.843841936439276">
        <ele>535.79998779296875</ele>
        <time>2014-05-20T14:02:01Z</time>
      </trkpt>
      <trkpt lat="44.244801169261336" lon="5.844031535089016">
        <ele>535.4000244140625</ele>
        <time>2014-05-20T14:02:05Z</time>
      </trkpt>
      <trkpt lat="44.244428006932139" lon="5.844330433756113">
        <ele>534.4000244140625</ele>
        <time>2014-05-20T14:02:11Z</time>
      </trkpt>
      <trkpt lat="44.244236648082733" lon="5.844475943595171">
        <ele>533.20001220703125</ele>
        <time>2014-05-20T14:02:14Z</time>
      </trkpt>
      <trkpt lat="44.243985107168555" lon="5.84468062967062">
        <ele>532</ele>
        <time>2014-05-20T14:02:18Z</time>
      </trkpt>
      <trkpt lat="44.243594175204635" lon="5.84498992189765">
        <ele>531</ele>
        <time>2014-05-20T14:02:24Z</time>
      </trkpt>
      <trkpt lat="44.243530221283436" lon="5.845042727887631">
        <ele>530.79998779296875</ele>
        <time>2014-05-20T14:02:25Z</time>
      </trkpt>
      <trkpt lat="44.243071060627699" lon="5.845413375645876">
        <ele>529.5999755859375</ele>
        <time>2014-05-20T14:02:32Z</time>
      </trkpt>
      <trkpt lat="44.242934519425035" lon="5.845522591844201">
        <ele>528.79998779296875</ele>
        <time>2014-05-20T14:02:34Z</time>
      </trkpt>
      <trkpt lat="44.24286637455225" lon="5.845575649291277">
        <ele>528.4000244140625</ele>
        <time>2014-05-20T14:02:35Z</time>
      </trkpt>
      <trkpt lat="44.242593627423048" lon="5.845790058374405">
        <ele>527.4000244140625</ele>
        <time>2014-05-20T14:02:39Z</time>
      </trkpt>
      <trkpt lat="44.242325238883495" lon="5.846011256799102">
        <ele>526.20001220703125</ele>
        <time>2014-05-20T14:02:43Z</time>
      </trkpt>
      <trkpt lat="44.242190206423402" lon="5.846120389178395">
        <ele>525.5999755859375</ele>
        <time>2014-05-20T14:02:45Z</time>
      </trkpt>
      <trkpt lat="44.242057353258133" lon="5.84622667171061">
        <ele>525.20001220703125</ele>
        <time>2014-05-20T14:02:47Z</time>
      </trkpt>
      <trkpt lat="44.241717550903559" lon="5.846505872905254">
        <ele>524.20001220703125</ele>
        <time>2014-05-20T14:02:52Z</time>
      </trkpt>
      <trkpt lat="44.241575477644801" lon="5.846617436036468">
        <ele>524</ele>
        <time>2014-05-20T14:02:54Z</time>
      </trkpt>
      <trkpt lat="44.241290241479874" lon="5.846839221194387">
        <ele>523.5999755859375</ele>
        <time>2014-05-20T14:02:58Z</time>
      </trkpt>
      <trkpt lat="44.24107700586319" lon="5.847001746296883">
        <ele>522.79998779296875</ele>
        <time>2014-05-20T14:03:01Z</time>
      </trkpt>
      <trkpt lat="44.240648103877902" lon="5.847340542823076">
        <ele>522.20001220703125</ele>
        <time>2014-05-20T14:03:07Z</time>
      </trkpt>
      <trkpt lat="44.240576857700944" lon="5.84739787504077">
        <ele>521.5999755859375</ele>
        <time>2014-05-20T14:03:08Z</time>
      </trkpt>
      <trkpt lat="44.240154158324003" lon="5.847729714587331">
        <ele>520.5999755859375</ele>
        <time>2014-05-20T14:03:14Z</time>
      </trkpt>
      <trkpt lat="44.239951819181442" lon="5.847899029031396">
        <ele>520.79998779296875</ele>
        <time>2014-05-20T14:03:17Z</time>
      </trkpt>
      <trkpt lat="44.239477319642901" lon="5.848297085613012">
        <ele>521</ele>
        <time>2014-05-20T14:03:24Z</time>
      </trkpt>
      <trkpt lat="44.239201135933399" lon="5.848522810265422">
        <ele>520.4000244140625</ele>
        <time>2014-05-20T14:03:28Z</time>
      </trkpt>
      <trkpt lat="44.238727306947112" lon="5.848903264850378">
        <ele>520.20001220703125</ele>
        <time>2014-05-20T14:03:35Z</time>
      </trkpt>
      <trkpt lat="44.238655893132091" lon="5.848959507420659">
        <ele>520</ele>
        <time>2014-05-20T14:03:36Z</time>
      </trkpt>
      <trkpt lat="44.238438215106726" lon="5.849135611206293">
        <ele>519.5999755859375</ele>
        <time>2014-05-20T14:03:39Z</time>
      </trkpt>
      <trkpt lat="44.237924488261342" lon="5.849552107974887">
        <ele>519.5999755859375</ele>
        <time>2014-05-20T14:03:46Z</time>
      </trkpt>
      <trkpt lat="44.237851398065686" lon="5.84960944019258">
        <ele>519.4000244140625</ele>
        <time>2014-05-20T14:03:47Z</time>
      </trkpt>
      <trkpt lat="44.237354099750519" lon="5.85000816732645">
        <ele>519</ele>
        <time>2014-05-20T14:03:54Z</time>
      </trkpt>
      <trkpt lat="44.237284027040005" lon="5.850064912810922">
        <ele>519</ele>
        <time>2014-05-20T14:03:55Z</time>
      </trkpt>
      <trkpt lat="44.236758481711149" lon="5.850495239719749">
        <ele>519.20001220703125</ele>
        <time>2014-05-20T14:04:03Z</time>
      </trkpt>
      <trkpt lat="44.236696707084775" lon="5.850544609129429">
        <ele>519.4000244140625</ele>
        <time>2014-05-20T14:04:04Z</time>
      </trkpt>
      <trkpt lat="44.23643896356225" lon="5.850828588008881">
        <ele>520.20001220703125</ele>
        <time>2014-05-20T14:04:09Z</time>
      </trkpt>
      <trkpt lat="44.236359586939216" lon="5.850963788107038">
        <ele>520.20001220703125</ele>
        <time>2014-05-20T14:04:11Z</time>
      </trkpt>
      <trkpt lat="44.236256573349237" lon="5.851176856085658">
        <ele>519.5999755859375</ele>
        <time>2014-05-20T14:04:14Z</time>
      </trkpt>
      <trkpt lat="44.236164791509509" lon="5.851482627913356">
        <ele>520.5999755859375</ele>
        <time>2014-05-20T14:04:18Z</time>
      </trkpt>
      <trkpt lat="44.236124139279127" lon="5.851645572111011">
        <ele>520.79998779296875</ele>
        <time>2014-05-20T14:04:20Z</time>
      </trkpt>
      <trkpt lat="44.235948538407683" lon="5.852395165711641">
        <ele>521.4000244140625</ele>
        <time>2014-05-20T14:04:29Z</time>
      </trkpt>
      <trkpt lat="44.235872933641076" lon="5.85273128002882">
        <ele>521.5999755859375</ele>
        <time>2014-05-20T14:04:33Z</time>
      </trkpt>
      <trkpt lat="44.235771680250764" lon="5.853148698806763">
        <ele>521.20001220703125</ele>
        <time>2014-05-20T14:04:38Z</time>
      </trkpt>
      <trkpt lat="44.235636563971639" lon="5.853718165308237">
        <ele>521.5999755859375</ele>
        <time>2014-05-20T14:04:45Z</time>
      </trkpt>
      <trkpt lat="44.235438331961632" lon="5.854246392846108">
        <ele>521.5999755859375</ele>
        <time>2014-05-20T14:04:52Z</time>
      </trkpt>
      <trkpt lat="44.235317716374993" lon="5.854441607370973">
        <ele>521.5999755859375</ele>
        <time>2014-05-20T14:04:55Z</time>
      </trkpt>
      <trkpt lat="44.235176984220743" lon="5.854603881016374">
        <ele>521.5999755859375</ele>
        <time>2014-05-20T14:04:58Z</time>
      </trkpt>
      <trkpt lat="44.23484506085515" lon="5.854846034198999">
        <ele>521.20001220703125</ele>
        <time>2014-05-20T14:05:04Z</time>
      </trkpt>
      <trkpt lat="44.234645403921604" lon="5.854911580681801">
        <ele>520.4000244140625</ele>
        <time>2014-05-20T14:05:07Z</time>
      </trkpt>
      <trkpt lat="44.234430743381381" lon="5.854956675320864">
        <ele>519.5999755859375</ele>
        <time>2014-05-20T14:05:10Z</time>
      </trkpt>
      <trkpt lat="44.234356647357345" lon="5.854975869879127">
        <ele>519.20001220703125</ele>
        <time>2014-05-20T14:05:11Z</time>
      </trkpt>
      <trkpt lat="44.234200827777386" lon="5.854998668655753">
        <ele>518.20001220703125</ele>
        <time>2014-05-20T14:05:13Z</time>
      </trkpt>
      <trkpt lat="44.234039140865207" lon="5.854997076094151">
        <ele>517.5999755859375</ele>
        <time>2014-05-20T14:05:15Z</time>
      </trkpt>
      <trkpt lat="44.233956327661872" lon="5.854985928162932">
        <ele>517</ele>
        <time>2014-05-20T14:05:16Z</time>
      </trkpt>
      <trkpt lat="44.233793215826154" lon="5.854963380843401">
        <ele>515.4000244140625</ele>
        <time>2014-05-20T14:05:18Z</time>
      </trkpt>
      <trkpt lat="44.233551733195782" lon="5.854937061667442">
        <ele>514.5999755859375</ele>
        <time>2014-05-20T14:05:21Z</time>
      </trkpt>
      <trkpt lat="44.233468836173415" lon="5.854927841573954">
        <ele>514</ele>
        <time>2014-05-20T14:05:22Z</time>
      </trkpt>
      <trkpt lat="44.233295163139701" lon="5.854922812432051">
        <ele>512.79998779296875</ele>
        <time>2014-05-20T14:05:24Z</time>
      </trkpt>
      <trkpt lat="44.233034402132034" lon="5.854956088587642">
        <ele>512.4000244140625</ele>
        <time>2014-05-20T14:05:27Z</time>
      </trkpt>
      <trkpt lat="44.2328582983464" lon="5.855001853778958">
        <ele>511.20001220703125</ele>
        <time>2014-05-20T14:05:29Z</time>
      </trkpt>
      <trkpt lat="44.232522184029222" lon="5.855080224573612">
        <ele>510.79998779296875</ele>
        <time>2014-05-20T14:05:33Z</time>
      </trkpt>
      <trkpt lat="44.232147177681327" lon="5.85523403249681">
        <ele>512.4000244140625</ele>
        <time>2014-05-20T14:05:38Z</time>
      </trkpt>
      <trkpt lat="44.23200267367065" lon="5.855401838198304">
        <ele>513.5999755859375</ele>
        <time>2014-05-20T14:05:41Z</time>
      </trkpt>
      <trkpt lat="44.231895050033927" lon="5.855541648343206">
        <ele>515.20001220703125</ele>
        <time>2014-05-20T14:05:44Z</time>
      </trkpt>
      <trkpt lat="44.231845093891025" lon="5.855623539537191">
        <ele>516.20001220703125</ele>
        <time>2014-05-20T14:05:46Z</time>
      </trkpt>
      <trkpt lat="44.231746271252632" lon="5.855749770998955">
        <ele>517.20001220703125</ele>
        <time>2014-05-20T14:05:51Z</time>
      </trkpt>
      <trkpt lat="44.231722634285688" lon="5.855775251984596">
        <ele>517.4000244140625</ele>
        <time>2014-05-20T14:05:52Z</time>
      </trkpt>
      <trkpt lat="44.231609730049968" lon="5.855859071016312">
        <ele>517.5999755859375</ele>
        <time>2014-05-20T14:05:56Z</time>
      </trkpt>
      <trkpt lat="44.231517361477017" lon="5.85592252202332">
        <ele>518.4000244140625</ele>
        <time>2014-05-20T14:05:59Z</time>
      </trkpt>
      <trkpt lat="44.23143639229238" lon="5.855986140668392">
        <ele>519</ele>
        <time>2014-05-20T14:06:02Z</time>
      </trkpt>
      <trkpt lat="44.231416611000896" lon="5.856059398502111">
        <ele>519.5999755859375</ele>
        <time>2014-05-20T14:06:04Z</time>
      </trkpt>
      <trkpt lat="44.231378808617592" lon="5.856167944148183">
        <ele>519.4000244140625</ele>
        <time>2014-05-20T14:06:07Z</time>
      </trkpt>
      <trkpt lat="44.231343353167176" lon="5.856384700164199">
        <ele>519</ele>
        <time>2014-05-20T14:06:13Z</time>
      </trkpt>
      <trkpt lat="44.231376042589545" lon="5.856618471443653">
        <ele>519.5999755859375</ele>
        <time>2014-05-20T14:08:57Z</time>
      </trkpt>
      <trkpt lat="44.231367325410247" lon="5.856707822531462">
        <ele>519.5999755859375</ele>
        <time>2014-05-20T14:09:00Z</time>
      </trkpt>
      <trkpt lat="44.231326505541801" lon="5.85688459686935">
        <ele>519.4000244140625</ele>
        <time>2014-05-20T14:09:06Z</time>
      </trkpt>
      <trkpt lat="44.231272023171186" lon="5.85705659352243">
        <ele>519</ele>
        <time>2014-05-20T14:09:11Z</time>
      </trkpt>
      <trkpt lat="44.231221731752157" lon="5.857173353433609">
        <ele>518.4000244140625</ele>
        <time>2014-05-20T14:09:14Z</time>
      </trkpt>
      <trkpt lat="44.231156520545483" lon="5.857295142486692">
        <ele>517.79998779296875</ele>
        <time>2014-05-20T14:09:17Z</time>
      </trkpt>
      <trkpt lat="44.231123831123114" lon="5.857385918498039">
        <ele>517.20001220703125</ele>
        <time>2014-05-20T14:09:19Z</time>
      </trkpt>
      <trkpt lat="44.231122238561511" lon="5.85756529122591">
        <ele>516.20001220703125</ele>
        <time>2014-05-20T14:09:22Z</time>
      </trkpt>
      <trkpt lat="44.231125507503748" lon="5.857617426663637">
        <ele>515.79998779296875</ele>
        <time>2014-05-20T14:09:23Z</time>
      </trkpt>
      <trkpt lat="44.231160962954164" lon="5.857762601226568">
        <ele>515</ele>
        <time>2014-05-20T14:09:26Z</time>
      </trkpt>
      <trkpt lat="44.231190802529454" lon="5.85781934671104">
        <ele>514.4000244140625</ele>
        <time>2014-05-20T14:09:27Z</time>
      </trkpt>
      <trkpt lat="44.231225168332458" lon="5.857862681150436">
        <ele>514</ele>
        <time>2014-05-20T14:09:28Z</time>
      </trkpt>
      <trkpt lat="44.231268251314759" lon="5.857892353087664">
        <ele>513</ele>
        <time>2014-05-20T14:09:29Z</time>
      </trkpt>
      <trkpt lat="44.231314770877361" lon="5.857899393886328">
        <ele>512.79998779296875</ele>
        <time>2014-05-20T14:09:30Z</time>
      </trkpt>
      <trkpt lat="44.231408648192883" lon="5.857791434973478">
        <ele>511.60000610351562</ele>
        <time>2014-05-20T14:09:33Z</time>
      </trkpt>
      <trkpt lat="44.231450138613582" lon="5.857671070843935">
        <ele>510.60000610351562</ele>
        <time>2014-05-20T14:09:35Z</time>
      </trkpt>
      <trkpt lat="44.231514511629939" lon="5.857467306777835">
        <ele>510</ele>
        <time>2014-05-20T14:09:38Z</time>
      </trkpt>
      <trkpt lat="44.231540579348803" lon="5.857399078086019">
        <ele>509.79998779296875</ele>
        <time>2014-05-20T14:09:39Z</time>
      </trkpt>
      <trkpt lat="44.23157125711441" lon="5.857333280146122">
        <ele>509.60000610351563</ele>
        <time>2014-05-20T14:09:40Z</time>
      </trkpt>
      <trkpt lat="44.231604281812906" lon="5.857268236577511">
        <ele>509.39999389648437</ele>
        <time>2014-05-20T14:09:41Z</time>
      </trkpt>
      <trkpt lat="44.231715425848961" lon="5.857087355107069">
        <ele>509</ele>
        <time>2014-05-20T14:09:44Z</time>
      </trkpt>
      <trkpt lat="44.231844758614898" lon="5.856905048713088">
        <ele>508.20001220703125</ele>
        <time>2014-05-20T14:09:47Z</time>
      </trkpt>
      <trkpt lat="44.231900330632925" lon="5.856853248551488">
        <ele>507.79998779296875</ele>
        <time>2014-05-20T14:09:48Z</time>
      </trkpt>
      <trkpt lat="44.23196847550571" lon="5.856814440339804">
        <ele>507</ele>
        <time>2014-05-20T14:09:49Z</time>
      </trkpt>
      <trkpt lat="44.232120858505368" lon="5.856786528602243">
        <ele>505.79998779296875</ele>
        <time>2014-05-20T14:09:51Z</time>
      </trkpt>
      <trkpt lat="44.232199313119054" lon="5.856784768402576">
        <ele>505.39999389648438</ele>
        <time>2014-05-20T14:09:52Z</time>
      </trkpt>
      <trkpt lat="44.232278103008866" lon="5.856789210811257">
        <ele>504.60000610351562</ele>
        <time>2014-05-20T14:09:53Z</time>
      </trkpt>
      <trkpt lat="44.232605332508683" lon="5.856825672090054">
        <ele>503.79998779296875</ele>
        <time>2014-05-20T14:09:57Z</time>
      </trkpt>
      <trkpt lat="44.232682529836893" lon="5.85686850361526">
        <ele>503.60000610351562</ele>
        <time>2014-05-20T14:09:58Z</time>
      </trkpt>
      <trkpt lat="44.232753524556756" lon="5.856928266584873">
        <ele>503.20001220703125</ele>
        <time>2014-05-20T14:09:59Z</time>
      </trkpt>
      <trkpt lat="44.232874056324363" lon="5.857086181640625">
        <ele>502.39999389648437</ele>
        <time>2014-05-20T14:10:01Z</time>
      </trkpt>
      <trkpt lat="44.232920156791806" lon="5.857182238250971">
        <ele>502.20001220703125</ele>
        <time>2014-05-20T14:10:02Z</time>
      </trkpt>
      <trkpt lat="44.232962401583791" lon="5.857281731441617">
        <ele>501.60000610351562</ele>
        <time>2014-05-20T14:10:03Z</time>
      </trkpt>
      <trkpt lat="44.233035743236542" lon="5.85749052464962">
        <ele>501</ele>
        <time>2014-05-20T14:10:05Z</time>
      </trkpt>
      <trkpt lat="44.233151664957404" lon="5.857807863503695">
        <ele>500.39999389648438</ele>
        <time>2014-05-20T14:10:08Z</time>
      </trkpt>
      <trkpt lat="44.233228694647551" lon="5.858021015301347">
        <ele>499.79998779296875</ele>
        <time>2014-05-20T14:10:10Z</time>
      </trkpt>
      <trkpt lat="44.233345119282603" lon="5.858346987515688">
        <ele>498.39999389648438</ele>
        <time>2014-05-20T14:10:13Z</time>
      </trkpt>
      <trkpt lat="44.233420137315989" lon="5.858565252274275">
        <ele>497.60000610351562</ele>
        <time>2014-05-20T14:10:15Z</time>
      </trkpt>
      <trkpt lat="44.233492724597454" lon="5.858785528689623">
        <ele>497.39999389648437</ele>
        <time>2014-05-20T14:10:17Z</time>
      </trkpt>
      <trkpt lat="44.233659775927663" lon="5.859317947179079">
        <ele>496.60000610351562</ele>
        <time>2014-05-20T14:10:22Z</time>
      </trkpt>
      <trkpt lat="44.233877873048186" lon="5.859977435320616">
        <ele>498</ele>
        <time>2014-05-20T14:10:29Z</time>
      </trkpt>
      <trkpt lat="44.234056323766708" lon="5.860643964260817">
        <ele>497.79998779296875</ele>
        <time>2014-05-20T14:10:36Z</time>
      </trkpt>
      <trkpt lat="44.234059508889914" lon="5.860741613432765">
        <ele>497.79998779296875</ele>
        <time>2014-05-20T14:10:37Z</time>
      </trkpt>
      <trkpt lat="44.234053557738662" lon="5.861030872911215">
        <ele>497.79998779296875</ele>
        <time>2014-05-20T14:10:40Z</time>
      </trkpt>
      <trkpt lat="44.233979294076562" lon="5.861586341634393">
        <ele>498.39999389648438</ele>
        <time>2014-05-20T14:10:46Z</time>
      </trkpt>
      <trkpt lat="44.233964458107948" lon="5.86167317815125">
        <ele>498.39999389648438</ele>
        <time>2014-05-20T14:10:47Z</time>
      </trkpt>
      <trkpt lat="44.23395230434835" lon="5.861835535615683">
        <ele>498.79998779296875</ele>
        <time>2014-05-20T14:10:49Z</time>
      </trkpt>
      <trkpt lat="44.233989687636495" lon="5.861992780119181">
        <ele>498.79998779296875</ele>
        <time>2014-05-20T14:10:51Z</time>
      </trkpt>
      <trkpt lat="44.234139053151011" lon="5.862223785370588">
        <ele>499.39999389648437</ele>
        <time>2014-05-20T14:10:55Z</time>
      </trkpt>
      <trkpt lat="44.234177609905601" lon="5.862276507541537">
        <ele>499.60000610351562</ele>
        <time>2014-05-20T14:10:56Z</time>
      </trkpt>
      <trkpt lat="44.234363352879882" lon="5.862505836412311">
        <ele>500.20001220703125</ele>
        <time>2014-05-20T14:11:01Z</time>
      </trkpt>
      <trkpt lat="44.234397551044822" lon="5.862555373460054">
        <ele>500.39999389648438</ele>
        <time>2014-05-20T14:11:02Z</time>
      </trkpt>
      <trkpt lat="44.234717404469848" lon="5.862978072836995">
        <ele>500</ele>
        <time>2014-05-20T14:11:11Z</time>
      </trkpt>
      <trkpt lat="44.234959976747632" lon="5.863267667591572">
        <ele>499.39999389648437</ele>
        <time>2014-05-20T14:11:17Z</time>
      </trkpt>
      <trkpt lat="44.235011357814074" lon="5.863304296508431">
        <ele>499.20001220703125</ele>
        <time>2014-05-20T14:11:18Z</time>
      </trkpt>
      <trkpt lat="44.235231298953295" lon="5.8634078130126">
        <ele>498.39999389648438</ele>
        <time>2014-05-20T14:11:22Z</time>
      </trkpt>
      <trkpt lat="44.235289553180337" lon="5.863433042541146">
        <ele>498.20001220703125</ele>
        <time>2014-05-20T14:11:23Z</time>
      </trkpt>
      <trkpt lat="44.23540648072958" lon="5.863465312868357">
        <ele>498.20001220703125</ele>
        <time>2014-05-20T14:11:25Z</time>
      </trkpt>
      <trkpt lat="44.235524497926235" lon="5.863460451364517">
        <ele>498.20001220703125</ele>
        <time>2014-05-20T14:11:27Z</time>
      </trkpt>
      <trkpt lat="44.235984580591321" lon="5.863371770828962">
        <ele>498.20001220703125</ele>
        <time>2014-05-20T14:11:35Z</time>
      </trkpt>
      <trkpt lat="44.236506773158908" lon="5.863276552408934">
        <ele>499.39999389648437</ele>
        <time>2014-05-20T14:11:45Z</time>
      </trkpt>
      <trkpt lat="44.236707771196961" lon="5.863287197425962">
        <ele>499.39999389648437</ele>
        <time>2014-05-20T14:11:49Z</time>
      </trkpt>
      <trkpt lat="44.236808521673083" lon="5.863335393369198">
        <ele>499.60000610351562</ele>
        <time>2014-05-20T14:11:51Z</time>
      </trkpt>
      <trkpt lat="44.23698278144002" lon="5.863484675064683">
        <ele>499.79998779296875</ele>
        <time>2014-05-20T14:11:55Z</time>
      </trkpt>
      <trkpt lat="44.237024942412972" lon="5.863533709198237">
        <ele>499.79998779296875</ele>
        <time>2014-05-20T14:11:56Z</time>
      </trkpt>
      <trkpt lat="44.237319817766547" lon="5.863884827122092">
        <ele>499.39999389648437</ele>
        <time>2014-05-20T14:12:03Z</time>
      </trkpt>
      <trkpt lat="44.237669426947832" lon="5.86429076269269">
        <ele>500.20001220703125</ele>
        <time>2014-05-20T14:12:11Z</time>
      </trkpt>
      <trkpt lat="44.237789791077375" lon="5.864427722990513">
        <ele>500.79998779296875</ele>
        <time>2014-05-20T14:12:14Z</time>
      </trkpt>
      <trkpt lat="44.237898839637637" lon="5.864548422396183">
        <ele>502.20001220703125</ele>
        <time>2014-05-20T14:12:17Z</time>
      </trkpt>
      <trkpt lat="44.237929852679372" lon="5.864590248093009">
        <ele>502.60000610351562</ele>
        <time>2014-05-20T14:12:18Z</time>
      </trkpt>
      <trkpt lat="44.237993806600571" lon="5.864670043811202">
        <ele>503.20001220703125</ele>
        <time>2014-05-20T14:12:20Z</time>
      </trkpt>
      <trkpt lat="44.238084498792887" lon="5.864778673276305">
        <ele>504.60000610351562</ele>
        <time>2014-05-20T14:12:23Z</time>
      </trkpt>
      <trkpt lat="44.238140909001231" lon="5.864835670217872">
        <ele>505.20001220703125</ele>
        <time>2014-05-20T14:12:25Z</time>
      </trkpt>
      <trkpt lat="44.238214418292046" lon="5.864926362410188">
        <ele>505.79998779296875</ele>
        <time>2014-05-20T14:12:28Z</time>
      </trkpt>
      <trkpt lat="44.238292453810573" lon="5.865019652992487">
        <ele>506.60000610351562</ele>
        <time>2014-05-20T14:12:31Z</time>
      </trkpt>
      <trkpt lat="44.238339643925428" lon="5.865088636055589">
        <ele>506.79998779296875</ele>
        <time>2014-05-20T14:12:33Z</time>
      </trkpt>
      <trkpt lat="44.238360682502389" lon="5.865178573876619">
        <ele>507.20001220703125</ele>
        <time>2014-05-20T14:12:35Z</time>
      </trkpt>
      <trkpt lat="44.238351378589869" lon="5.865222997963429">
        <ele>507.20001220703125</ele>
        <time>2014-05-20T14:12:36Z</time>
      </trkpt>
      <trkpt lat="44.23829379491508" lon="5.865328526124358">
        <ele>507.20001220703125</ele>
        <time>2014-05-20T14:12:39Z</time>
      </trkpt>
      <trkpt lat="44.238276947289705" lon="5.865367334336042">
        <ele>507.39999389648437</ele>
        <time>2014-05-20T14:12:40Z</time>
      </trkpt>
      <trkpt lat="44.238107046112418" lon="5.865631364285946">
        <ele>506.60000610351562</ele>
        <time>2014-05-20T14:12:46Z</time>
      </trkpt>
      <trkpt lat="44.237830778583884" lon="5.866020452231169">
        <ele>506.60000610351562</ele>
        <time>2014-05-20T14:12:54Z</time>
      </trkpt>
      <trkpt lat="44.237509500235319" lon="5.866388669237495">
        <ele>506.39999389648438</ele>
        <time>2014-05-20T14:13:02Z</time>
      </trkpt>
      <trkpt lat="44.237439343705773" lon="5.866486905142665">
        <ele>506.20001220703125</ele>
        <time>2014-05-20T14:13:04Z</time>
      </trkpt>
      <trkpt lat="44.237366672605276" lon="5.866661500185728">
        <ele>507</ele>
        <time>2014-05-20T14:13:07Z</time>
      </trkpt>
      <trkpt lat="44.237310262396932" lon="5.866911532357335">
        <ele>508</ele>
        <time>2014-05-20T14:13:11Z</time>
      </trkpt>
      <trkpt lat="44.23729307949543" lon="5.867011528462172">
        <ele>508.39999389648437</ele>
        <time>2014-05-20T14:13:14Z</time>
      </trkpt>
      <trkpt lat="44.237276399508119" lon="5.867093252018094">
        <ele>509</ele>
        <time>2014-05-20T14:13:16Z</time>
      </trkpt>
      <trkpt lat="44.23724957741797" lon="5.867213113233447">
        <ele>510.39999389648437</ele>
        <time>2014-05-20T14:13:19Z</time>
      </trkpt>
      <trkpt lat="44.237239519134164" lon="5.867250999435782">
        <ele>510.60000610351562</ele>
        <time>2014-05-20T14:13:20Z</time>
      </trkpt>
      <trkpt lat="44.237212361767888" lon="5.86736130528152">
        <ele>511.39999389648438</ele>
        <time>2014-05-20T14:13:23Z</time>
      </trkpt>
      <trkpt lat="44.237180929630995" lon="5.86749273352325">
        <ele>512.4000244140625</ele>
        <time>2014-05-20T14:13:27Z</time>
      </trkpt>
      <trkpt lat="44.237174978479743" lon="5.867524584755302">
        <ele>512.79998779296875</ele>
        <time>2014-05-20T14:13:28Z</time>
      </trkpt>
      <trkpt lat="44.237153520807624" lon="5.867622150108218">
        <ele>513.5999755859375</ele>
        <time>2014-05-20T14:13:31Z</time>
      </trkpt>
      <trkpt lat="44.237133571878076" lon="5.867718877270818">
        <ele>514.20001220703125</ele>
        <time>2014-05-20T14:13:34Z</time>
      </trkpt>
      <trkpt lat="44.237087806686759" lon="5.867837984114885">
        <ele>514.5999755859375</ele>
        <time>2014-05-20T14:13:38Z</time>
      </trkpt>
      <trkpt lat="44.237037012353539" lon="5.867924904450774">
        <ele>514.79998779296875</ele>
        <time>2014-05-20T14:13:41Z</time>
      </trkpt>
      <trkpt lat="44.236914301291108" lon="5.868091369047761">
        <ele>514.5999755859375</ele>
        <time>2014-05-20T14:13:47Z</time>
      </trkpt>
      <trkpt lat="44.236737778410316" lon="5.868293289095163">
        <ele>514.20001220703125</ele>
        <time>2014-05-20T14:13:54Z</time>
      </trkpt>
      <trkpt lat="44.236632501706481" lon="5.868457490578294">
        <ele>514</ele>
        <time>2014-05-20T14:13:58Z</time>
      </trkpt>
      <trkpt lat="44.236570810899138" lon="5.868547344580293">
        <ele>513.79998779296875</ele>
        <time>2014-05-20T14:14:00Z</time>
      </trkpt>
      <trkpt lat="44.236380374059081" lon="5.86883157491684">
        <ele>513.4000244140625</ele>
        <time>2014-05-20T14:14:06Z</time>
      </trkpt>
      <trkpt lat="44.236305188387632" lon="5.868927547708154">
        <ele>513.4000244140625</ele>
        <time>2014-05-20T14:14:08Z</time>
      </trkpt>
      <trkpt lat="44.236020958051085" lon="5.869323005899787">
        <ele>512.79998779296875</ele>
        <time>2014-05-20T14:14:16Z</time>
      </trkpt>
      <trkpt lat="44.235947113484144" lon="5.869416212663055">
        <ele>512.4000244140625</ele>
        <time>2014-05-20T14:14:18Z</time>
      </trkpt>
      <trkpt lat="44.235721975564957" lon="5.869671190157533">
        <ele>513</ele>
        <time>2014-05-20T14:14:24Z</time>
      </trkpt>
      <trkpt lat="44.235344370827079" lon="5.870109647512436">
        <ele>513.4000244140625</ele>
        <time>2014-05-20T14:14:34Z</time>
      </trkpt>
      <trkpt lat="44.23508545383811" lon="5.870433440431953">
        <ele>512.4000244140625</ele>
        <time>2014-05-20T14:14:41Z</time>
      </trkpt>
      <trkpt lat="44.234767109155655" lon="5.870843566954136">
        <ele>511.79998779296875</ele>
        <time>2014-05-20T14:14:50Z</time>
      </trkpt>
      <trkpt lat="44.234732491895556" lon="5.870891092345119">
        <ele>511.39999389648438</ele>
        <time>2014-05-20T14:14:51Z</time>
      </trkpt>
      <trkpt lat="44.234531158581376" lon="5.871187476441264">
        <ele>512.4000244140625</ele>
        <time>2014-05-20T14:14:57Z</time>
      </trkpt>
      <trkpt lat="44.234468378126621" lon="5.871284622699022">
        <ele>512.20001220703125</ele>
        <time>2014-05-20T14:14:59Z</time>
      </trkpt>
      <trkpt lat="44.234216753393412" lon="5.871689217165113">
        <ele>511.79998779296875</ele>
        <time>2014-05-20T14:15:07Z</time>
      </trkpt>
      <trkpt lat="44.233952555805445" lon="5.872184671461582">
        <ele>512.5999755859375</ele>
        <time>2014-05-20T14:15:16Z</time>
      </trkpt>
      <trkpt lat="44.233704283833504" lon="5.872607538476586">
        <ele>512.79998779296875</ele>
        <time>2014-05-20T14:15:24Z</time>
      </trkpt>
      <trkpt lat="44.233449222519994" lon="5.872860755771399">
        <ele>513.20001220703125</ele>
        <time>2014-05-20T14:15:30Z</time>
      </trkpt>
      <trkpt lat="44.233125178143382" lon="5.873110201209784">
        <ele>512.79998779296875</ele>
        <time>2014-05-20T14:15:37Z</time>
      </trkpt>
      <trkpt lat="44.232789147645235" lon="5.873346403241158">
        <ele>512.5999755859375</ele>
        <time>2014-05-20T14:15:44Z</time>
      </trkpt>
      <trkpt lat="44.232454709708691" lon="5.873580845072866">
        <ele>513</ele>
        <time>2014-05-20T14:15:51Z</time>
      </trkpt>
      <trkpt lat="44.232275588437915" lon="5.873717470094562">
        <ele>513.4000244140625</ele>
        <time>2014-05-20T14:15:55Z</time>
      </trkpt>
      <trkpt lat="44.232149608433247" lon="5.873844204470515">
        <ele>513.4000244140625</ele>
        <time>2014-05-20T14:15:58Z</time>
      </trkpt>
      <trkpt lat="44.231828330084682" lon="5.874227425083518">
        <ele>512.79998779296875</ele>
        <time>2014-05-20T14:16:06Z</time>
      </trkpt>
      <trkpt lat="44.231517612934113" lon="5.874565886333585">
        <ele>512.4000244140625</ele>
        <time>2014-05-20T14:16:13Z</time>
      </trkpt>
      <trkpt lat="44.231074461713433" lon="5.874992022290826">
        <ele>512.4000244140625</ele>
        <time>2014-05-20T14:16:23Z</time>
      </trkpt>
      <trkpt lat="44.230752009898424" lon="5.875212298706174">
        <ele>513.20001220703125</ele>
        <time>2014-05-20T14:16:30Z</time>
      </trkpt>
      <trkpt lat="44.230301985517144" lon="5.875504659488797">
        <ele>513.4000244140625</ele>
        <time>2014-05-20T14:16:40Z</time>
      </trkpt>
      <trkpt lat="44.230260914191604" lon="5.875527206808329">
        <ele>513.5999755859375</ele>
        <time>2014-05-20T14:16:41Z</time>
      </trkpt>
      <trkpt lat="44.230021359398961" lon="5.875672213733196">
        <ele>514.4000244140625</ele>
        <time>2014-05-20T14:16:47Z</time>
      </trkpt>
      <trkpt lat="44.229909963905811" lon="5.87575301527977">
        <ele>514.79998779296875</ele>
        <time>2014-05-20T14:16:50Z</time>
      </trkpt>
      <trkpt lat="44.22971298918128" lon="5.875883102416992">
        <ele>515.20001220703125</ele>
        <time>2014-05-20T14:16:55Z</time>
      </trkpt>
      <trkpt lat="44.229671247303486" lon="5.875920066609979">
        <ele>514.79998779296875</ele>
        <time>2014-05-20T14:16:56Z</time>
      </trkpt>
      <trkpt lat="44.229440661147237" lon="5.876079658046365">
        <ele>514.20001220703125</ele>
        <time>2014-05-20T14:17:01Z</time>
      </trkpt>
      <trkpt lat="44.229176882654428" lon="5.876242518424988">
        <ele>515.4000244140625</ele>
        <time>2014-05-20T14:17:07Z</time>
      </trkpt>
      <trkpt lat="44.228926179930568" lon="5.876444019377232">
        <ele>516.4000244140625</ele>
        <time>2014-05-20T14:17:14Z</time>
      </trkpt>
      <trkpt lat="44.228892652317882" lon="5.876474697142839">
        <ele>516.5999755859375</ele>
        <time>2014-05-20T14:17:15Z</time>
      </trkpt>
      <trkpt lat="44.228757536038756" lon="5.876599587500095">
        <ele>517.79998779296875</ele>
        <time>2014-05-20T14:17:19Z</time>
      </trkpt>
      <trkpt lat="44.22863214276731" lon="5.876705870032311">
        <ele>518.5999755859375</ele>
        <time>2014-05-20T14:17:23Z</time>
      </trkpt>
      <trkpt lat="44.228598950430751" lon="5.876727998256683">
        <ele>519</ele>
        <time>2014-05-20T14:17:24Z</time>
      </trkpt>
      <trkpt lat="44.228457631543279" lon="5.876788767054677">
        <ele>520</ele>
        <time>2014-05-20T14:17:29Z</time>
      </trkpt>
      <trkpt lat="44.228356629610062" lon="5.876842914149165">
        <ele>521</ele>
        <time>2014-05-20T14:17:33Z</time>
      </trkpt>
      <trkpt lat="44.228329304605722" lon="5.876859510317445">
        <ele>521.4000244140625</ele>
        <time>2014-05-20T14:17:34Z</time>
      </trkpt>
      <trkpt lat="44.228234170004725" lon="5.876919943839312">
        <ele>522.20001220703125</ele>
        <time>2014-05-20T14:17:38Z</time>
      </trkpt>
      <trkpt lat="44.228180274367332" lon="5.876991944387555">
        <ele>523</ele>
        <time>2014-05-20T14:17:41Z</time>
      </trkpt>
      <trkpt lat="44.228145154193044" lon="5.877042235806584">
        <ele>523.4000244140625</ele>
        <time>2014-05-20T14:17:43Z</time>
      </trkpt>
      <trkpt lat="44.228090839460492" lon="5.877139884978533">
        <ele>524.5999755859375</ele>
        <time>2014-05-20T14:17:47Z</time>
      </trkpt>
      <trkpt lat="44.228062005713582" lon="5.877187661826611">
        <ele>525.20001220703125</ele>
        <time>2014-05-20T14:17:49Z</time>
      </trkpt>
      <trkpt lat="44.22803208231926" lon="5.877257399260998">
        <ele>525.79998779296875</ele>
        <time>2014-05-20T14:17:52Z</time>
      </trkpt>
      <trkpt lat="44.227989418432117" lon="5.877319760620594">
        <ele>526.79998779296875</ele>
        <time>2014-05-20T14:17:56Z</time>
      </trkpt>
      <trkpt lat="44.227976845577359" lon="5.877334931865335">
        <ele>527</ele>
        <time>2014-05-20T14:17:57Z</time>
      </trkpt>
      <trkpt lat="44.227895541116595" lon="5.877423025667667">
        <ele>527.79998779296875</ele>
        <time>2014-05-20T14:18:02Z</time>
      </trkpt>
      <trkpt lat="44.227870395407081" lon="5.877459403127432">
        <ele>528.20001220703125</ele>
        <time>2014-05-20T14:18:04Z</time>
      </trkpt>
      <trkpt lat="44.227841394022107" lon="5.87754238396883">
        <ele>529</ele>
        <time>2014-05-20T14:18:08Z</time>
      </trkpt>
      <trkpt lat="44.227806776762009" lon="5.877574319019914">
        <ele>529.20001220703125</ele>
        <time>2014-05-20T14:18:10Z</time>
      </trkpt>
      <trkpt lat="44.227731507271528" lon="5.877669788897038">
        <ele>530</ele>
        <time>2014-05-20T14:18:14Z</time>
      </trkpt>
      <trkpt lat="44.227701080963016" lon="5.877714296802878">
        <ele>530.4000244140625</ele>
        <time>2014-05-20T14:18:16Z</time>
      </trkpt>
      <trkpt lat="44.227639138698578" lon="5.877831894904375">
        <ele>531.4000244140625</ele>
        <time>2014-05-20T14:18:21Z</time>
      </trkpt>
      <trkpt lat="44.22762899659574" lon="5.87785117328167">
        <ele>531.5999755859375</ele>
        <time>2014-05-20T14:18:22Z</time>
      </trkpt>
      <trkpt lat="44.227603431791067" lon="5.877922419458628">
        <ele>532.4000244140625</ele>
        <time>2014-05-20T14:18:26Z</time>
      </trkpt>
      <trkpt lat="44.227470997720957" lon="5.878180582076311">
        <ele>535.5999755859375</ele>
        <time>2014-05-20T14:18:44Z</time>
      </trkpt>
      <trkpt lat="44.227449623867869" lon="5.878207990899682">
        <ele>536</ele>
        <time>2014-05-20T14:18:46Z</time>
      </trkpt>
      <trkpt lat="44.227433446794748" lon="5.878216121345758">
        <ele>536.20001220703125</ele>
        <time>2014-05-20T14:18:47Z</time>
      </trkpt>
      <trkpt lat="44.227409390732646" lon="5.878242356702685">
        <ele>536.5999755859375</ele>
        <time>2014-05-20T14:18:49Z</time>
      </trkpt>
      <trkpt lat="44.227384831756353" lon="5.878262221813202">
        <ele>536.79998779296875</ele>
        <time>2014-05-20T14:18:51Z</time>
      </trkpt>
      <trkpt lat="44.227291708812118" lon="5.878279153257608">
        <ele>537.79998779296875</ele>
        <time>2014-05-20T14:18:56Z</time>
      </trkpt>
      <trkpt lat="44.227272933349013" lon="5.878283511847258">
        <ele>537.79998779296875</ele>
        <time>2014-05-20T14:18:57Z</time>
      </trkpt>
      <trkpt lat="44.22717017121613" lon="5.878347381949425">
        <ele>539</ele>
        <time>2014-05-20T14:19:03Z</time>
      </trkpt>
      <trkpt lat="44.227043269202113" lon="5.878395074978471">
        <ele>539.4000244140625</ele>
        <time>2014-05-20T14:19:10Z</time>
      </trkpt>
      <trkpt lat="44.22697814181447" lon="5.878439163789153">
        <ele>540.20001220703125</ele>
        <time>2014-05-20T14:19:14Z</time>
      </trkpt>
      <trkpt lat="44.226935813203454" lon="5.878474535420537">
        <ele>540.79998779296875</ele>
        <time>2014-05-20T14:19:17Z</time>
      </trkpt>
      <trkpt lat="44.226906057447195" lon="5.878489958122373">
        <ele>541.4000244140625</ele>
        <time>2014-05-20T14:19:19Z</time>
      </trkpt>
      <trkpt lat="44.226831458508968" lon="5.87850496172905">
        <ele>542</ele>
        <time>2014-05-20T14:19:23Z</time>
      </trkpt>
      <trkpt lat="44.226764570921659" lon="5.87849473580718">
        <ele>542.5999755859375</ele>
        <time>2014-05-20T14:19:26Z</time>
      </trkpt>
      <trkpt lat="44.226707741618156" lon="5.878478726372123">
        <ele>543.79998779296875</ele>
        <time>2014-05-20T14:19:29Z</time>
      </trkpt>
      <trkpt lat="44.22669030725956" lon="5.878472775220871">
        <ele>544</ele>
        <time>2014-05-20T14:19:30Z</time>
      </trkpt>
      <trkpt lat="44.226630041375756" lon="5.878424076363444">
        <ele>544.79998779296875</ele>
        <time>2014-05-20T14:19:34Z</time>
      </trkpt>
      <trkpt lat="44.226602213457227" lon="5.87841359898448">
        <ele>545.20001220703125</ele>
        <time>2014-05-20T14:19:36Z</time>
      </trkpt>
      <trkpt lat="44.226569943130016" lon="5.878396918997169">
        <ele>545.79998779296875</ele>
        <time>2014-05-20T14:19:39Z</time>
      </trkpt>
      <trkpt lat="44.22654127702117" lon="5.878370767459273">
        <ele>546.4000244140625</ele>
        <time>2014-05-20T14:19:42Z</time>
      </trkpt>
      <trkpt lat="44.226531470194459" lon="5.878364983946085">
        <ele>546.4000244140625</ele>
        <time>2014-05-20T14:19:43Z</time>
      </trkpt>
      <trkpt lat="44.226492829620838" lon="5.878350147977471">
        <ele>547</ele>
        <time>2014-05-20T14:19:46Z</time>
      </trkpt>
      <trkpt lat="44.226422673091292" lon="5.878335563465953">
        <ele>548.20001220703125</ele>
        <time>2014-05-20T14:19:51Z</time>
      </trkpt>
      <trkpt lat="44.226408340036869" lon="5.878340508788824">
        <ele>548.4000244140625</ele>
        <time>2014-05-20T14:19:52Z</time>
      </trkpt>
      <trkpt lat="44.226366598159075" lon="5.878357607871294">
        <ele>549.20001220703125</ele>
        <time>2014-05-20T14:19:55Z</time>
      </trkpt>
      <trkpt lat="44.226306919008493" lon="5.878391722217202">
        <ele>549.79998779296875</ele>
        <time>2014-05-20T14:19:59Z</time>
      </trkpt>
      <trkpt lat="44.226240366697311" lon="5.87843170389533">
        <ele>550.4000244140625</ele>
        <time>2014-05-20T14:20:03Z</time>
      </trkpt>
      <trkpt lat="44.226169204339385" lon="5.878477552905679">
        <ele>551</ele>
        <time>2014-05-20T14:20:07Z</time>
      </trkpt>
      <trkpt lat="44.226136347278953" lon="5.878501273691654">
        <ele>551.5999755859375</ele>
        <time>2014-05-20T14:20:09Z</time>
      </trkpt>
      <trkpt lat="44.226060239598155" lon="5.878548882901669">
        <ele>552.79998779296875</ele>
        <time>2014-05-20T14:20:14Z</time>
      </trkpt>
      <trkpt lat="44.225915065035224" lon="5.87858802638948">
        <ele>553.20001220703125</ele>
        <time>2014-05-20T14:20:22Z</time>
      </trkpt>
      <trkpt lat="44.22582252882421" lon="5.878630271181464">
        <ele>553.79998779296875</ele>
        <time>2014-05-20T14:20:27Z</time>
      </trkpt>
      <trkpt lat="44.225805765017867" lon="5.878642927855253">
        <ele>554</ele>
        <time>2014-05-20T14:20:28Z</time>
      </trkpt>
      <trkpt lat="44.225699063390493" lon="5.87872976437211">
        <ele>554.79998779296875</ele>
        <time>2014-05-20T14:20:35Z</time>
      </trkpt>
      <trkpt lat="44.22568523325026" lon="5.878746779635549">
        <ele>554.79998779296875</ele>
        <time>2014-05-20T14:20:36Z</time>
      </trkpt>
      <trkpt lat="44.225569311529398" lon="5.878848787397146">
        <ele>555.5999755859375</ele>
        <time>2014-05-20T14:20:43Z</time>
      </trkpt>
      <trkpt lat="44.225461939349771" lon="5.878927828744054">
        <ele>555.5999755859375</ele>
        <time>2014-05-20T14:20:49Z</time>
      </trkpt>
      <trkpt lat="44.225434865802526" lon="5.878955908119679">
        <ele>556</ele>
        <time>2014-05-20T14:20:51Z</time>
      </trkpt>
      <trkpt lat="44.225381724536419" lon="5.878999745473266">
        <ele>556.4000244140625</ele>
        <time>2014-05-20T14:20:54Z</time>
      </trkpt>
      <trkpt lat="44.225269658491015" lon="5.879083396866918">
        <ele>557</ele>
        <time>2014-05-20T14:21:00Z</time>
      </trkpt>
      <trkpt lat="44.225248787552118" lon="5.879098316654563">
        <ele>557</ele>
        <time>2014-05-20T14:21:01Z</time>
      </trkpt>
      <trkpt lat="44.225083915516734" lon="5.879233349114656">
        <ele>557.79998779296875</ele>
        <time>2014-05-20T14:21:09Z</time>
      </trkpt>
      <trkpt lat="44.225034043192863" lon="5.879266541451216">
        <ele>558</ele>
        <time>2014-05-20T14:21:11Z</time>
      </trkpt>
      <trkpt lat="44.22489020973444" lon="5.879378020763397">
        <ele>558</ele>
        <time>2014-05-20T14:21:17Z</time>
      </trkpt>
      <trkpt lat="44.224732629954815" lon="5.879499055445194">
        <ele>558.79998779296875</ele>
        <time>2014-05-20T14:21:23Z</time>
      </trkpt>
      <trkpt lat="44.224475976079702" lon="5.879680858924985">
        <ele>559</ele>
        <time>2014-05-20T14:21:31Z</time>
      </trkpt>
      <trkpt lat="44.224313534796238" lon="5.879810275509954">
        <ele>559.4000244140625</ele>
        <time>2014-05-20T14:21:36Z</time>
      </trkpt>
      <trkpt lat="44.224216220900416" lon="5.879901638254523">
        <ele>560.4000244140625</ele>
        <time>2014-05-20T14:21:39Z</time>
      </trkpt>
      <trkpt lat="44.22395302914083" lon="5.880106491968036">
        <ele>560.5999755859375</ele>
        <time>2014-05-20T14:21:47Z</time>
      </trkpt>
      <trkpt lat="44.223665948957205" lon="5.88035099208355">
        <ele>561.4000244140625</ele>
        <time>2014-05-20T14:21:56Z</time>
      </trkpt>
      <trkpt lat="44.223631918430328" lon="5.88037739507854">
        <ele>561.5999755859375</ele>
        <time>2014-05-20T14:21:57Z</time>
      </trkpt>
      <trkpt lat="44.223414659500122" lon="5.880555175244808">
        <ele>561.5999755859375</ele>
        <time>2014-05-20T14:22:04Z</time>
      </trkpt>
      <trkpt lat="44.223172003403306" lon="5.880759609863162">
        <ele>562.79998779296875</ele>
        <time>2014-05-20T14:22:12Z</time>
      </trkpt>
      <trkpt lat="44.222890036180615" lon="5.880988352000713">
        <ele>563.79998779296875</ele>
        <time>2014-05-20T14:22:21Z</time>
      </trkpt>
      <trkpt lat="44.222858771681786" lon="5.881013246253133">
        <ele>563.5999755859375</ele>
        <time>2014-05-20T14:22:22Z</time>
      </trkpt>
      <trkpt lat="44.222657354548573" lon="5.881192702800036">
        <ele>563.5999755859375</ele>
        <time>2014-05-20T14:22:29Z</time>
      </trkpt>
      <trkpt lat="44.222486699000001" lon="5.881320694461465">
        <ele>564.20001220703125</ele>
        <time>2014-05-20T14:22:35Z</time>
      </trkpt>
      <trkpt lat="44.222198696807027" lon="5.881568798795342">
        <ele>564.5999755859375</ele>
        <time>2014-05-20T14:22:45Z</time>
      </trkpt>
      <trkpt lat="44.222139185294509" lon="5.881625879555941">
        <ele>565</ele>
        <time>2014-05-20T14:22:47Z</time>
      </trkpt>
      <trkpt lat="44.221938690170646" lon="5.881804833188653">
        <ele>565.5999755859375</ele>
        <time>2014-05-20T14:22:54Z</time>
      </trkpt>
      <trkpt lat="44.221706092357635" lon="5.881973644718528">
        <ele>565.79998779296875</ele>
        <time>2014-05-20T14:23:02Z</time>
      </trkpt>
      <trkpt lat="44.221678012982011" lon="5.881997616961598">
        <ele>566</ele>
        <time>2014-05-20T14:23:03Z</time>
      </trkpt>
      <trkpt lat="44.221567204222083" lon="5.882097948342562">
        <ele>567</ele>
        <time>2014-05-20T14:23:07Z</time>
      </trkpt>
      <trkpt lat="44.221480954438448" lon="5.882169529795647">
        <ele>566.79998779296875</ele>
        <time>2014-05-20T14:23:10Z</time>
      </trkpt>
      <trkpt lat="44.221292193979025" lon="5.882330294698477">
        <ele>568.20001220703125</ele>
        <time>2014-05-20T14:23:17Z</time>
      </trkpt>
      <trkpt lat="44.221056327223778" lon="5.882526934146881">
        <ele>568.4000244140625</ele>
        <time>2014-05-20T14:23:25Z</time>
      </trkpt>
      <trkpt lat="44.220907548442483" lon="5.882632629945874">
        <ele>569.20001220703125</ele>
        <time>2014-05-20T14:23:30Z</time>
      </trkpt>
      <trkpt lat="44.220847450196743" lon="5.882677054032683">
        <ele>569.5999755859375</ele>
        <time>2014-05-20T14:23:32Z</time>
      </trkpt>
      <trkpt lat="44.220699677243829" lon="5.882792891934514">
        <ele>570.20001220703125</ele>
        <time>2014-05-20T14:23:37Z</time>
      </trkpt>
      <trkpt lat="44.22064108774066" lon="5.882845865562558">
        <ele>570.4000244140625</ele>
        <time>2014-05-20T14:23:39Z</time>
      </trkpt>
      <trkpt lat="44.220508234575391" lon="5.882972851395607">
        <ele>571.4000244140625</ele>
        <time>2014-05-20T14:23:44Z</time>
      </trkpt>
      <trkpt lat="44.220418129116297" lon="5.88301501236856">
        <ele>571.79998779296875</ele>
        <time>2014-05-20T14:23:47Z</time>
      </trkpt>
      <trkpt lat="44.220268931239843" lon="5.883153481408954">
        <ele>572</ele>
        <time>2014-05-20T14:23:53Z</time>
      </trkpt>
      <trkpt lat="44.2202228307724" lon="5.883197737857699">
        <ele>572.5999755859375</ele>
        <time>2014-05-20T14:23:55Z</time>
      </trkpt>
      <trkpt lat="44.220031388103962" lon="5.883388258516789">
        <ele>573.5999755859375</ele>
        <time>2014-05-20T14:24:02Z</time>
      </trkpt>
      <trkpt lat="44.219889398664236" lon="5.883639045059681">
        <ele>572.79998779296875</ele>
        <time>2014-05-20T14:24:08Z</time>
      </trkpt>
      <trkpt lat="44.219849919900298" lon="5.883741555735469">
        <ele>573</ele>
        <time>2014-05-20T14:24:10Z</time>
      </trkpt>
      <trkpt lat="44.219773812219501" lon="5.883957054466009">
        <ele>573.5999755859375</ele>
        <time>2014-05-20T14:24:14Z</time>
      </trkpt>
      <trkpt lat="44.219633499160409" lon="5.884350165724754">
        <ele>573.4000244140625</ele>
        <time>2014-05-20T14:24:22Z</time>
      </trkpt>
      <trkpt lat="44.219564516097307" lon="5.884620482102037">
        <ele>572.79998779296875</ele>
        <time>2014-05-20T14:24:28Z</time>
      </trkpt>
      <trkpt lat="44.219509614631534" lon="5.884878560900688">
        <ele>572.5999755859375</ele>
        <time>2014-05-20T14:24:33Z</time>
      </trkpt>
      <trkpt lat="44.219495868310332" lon="5.884983334690332">
        <ele>572.4000244140625</ele>
        <time>2014-05-20T14:24:35Z</time>
      </trkpt>
      <trkpt lat="44.219460831955075" lon="5.885387426242232">
        <ele>572.4000244140625</ele>
        <time>2014-05-20T14:24:42Z</time>
      </trkpt>
      <trkpt lat="44.219449684023857" lon="5.885645756497979">
        <ele>572</ele>
        <time>2014-05-20T14:24:46Z</time>
      </trkpt>
      <trkpt lat="44.219444990158081" lon="5.885846419259906">
        <ele>572</ele>
        <time>2014-05-20T14:24:49Z</time>
      </trkpt>
      <trkpt lat="44.219436943531036" lon="5.886099217459559">
        <ele>571.20001220703125</ele>
        <time>2014-05-20T14:24:53Z</time>
      </trkpt>
      <trkpt lat="44.219419090077281" lon="5.886309770867229">
        <ele>571.4000244140625</ele>
        <time>2014-05-20T14:24:57Z</time>
      </trkpt>
      <trkpt lat="44.219449181109667" lon="5.886437762528658">
        <ele>572</ele>
        <time>2014-05-20T14:25:00Z</time>
      </trkpt>
      <trkpt lat="44.219469549134374" lon="5.886469362303615">
        <ele>572.4000244140625</ele>
        <time>2014-05-20T14:25:01Z</time>
      </trkpt>
      <trkpt lat="44.219597456976771" lon="5.886620571836829">
        <ele>572.79998779296875</ele>
        <time>2014-05-20T14:25:06Z</time>
      </trkpt>
      <trkpt lat="44.21981630846858" lon="5.886836322024465">
        <ele>573.4000244140625</ele>
        <time>2014-05-20T14:25:13Z</time>
      </trkpt>
      <trkpt lat="44.22003616578877" lon="5.886929361149669">
        <ele>573.4000244140625</ele>
        <time>2014-05-20T14:25:19Z</time>
      </trkpt>
      <trkpt lat="44.220318552106619" lon="5.886979401111603">
        <ele>573.4000244140625</ele>
        <time>2014-05-20T14:25:26Z</time>
      </trkpt>
      <trkpt lat="44.220359204337001" lon="5.887003121897578">
        <ele>573.5999755859375</ele>
        <time>2014-05-20T14:25:27Z</time>
      </trkpt>
      <trkpt lat="44.220468504354358" lon="5.887109907343984">
        <ele>573.20001220703125</ele>
        <time>2014-05-20T14:25:30Z</time>
      </trkpt>
      <trkpt lat="44.220500439405441" lon="5.887151984497905">
        <ele>573</ele>
        <time>2014-05-20T14:25:31Z</time>
      </trkpt>
      <trkpt lat="44.220564058050513" lon="5.88723236694932">
        <ele>572.4000244140625</ele>
        <time>2014-05-20T14:25:33Z</time>
      </trkpt>
      <trkpt lat="44.220626335591078" lon="5.887341750785708">
        <ele>572</ele>
        <time>2014-05-20T14:25:35Z</time>
      </trkpt>
      <trkpt lat="44.220654750242829" lon="5.887403273954988">
        <ele>571.5999755859375</ele>
        <time>2014-05-20T14:25:36Z</time>
      </trkpt>
      <trkpt lat="44.220672268420458" lon="5.88747569359839">
        <ele>571.20001220703125</ele>
        <time>2014-05-20T14:25:37Z</time>
      </trkpt>
      <trkpt lat="44.220711831003428" lon="5.887636290863156">
        <ele>570.20001220703125</ele>
        <time>2014-05-20T14:25:39Z</time>
      </trkpt>
      <trkpt lat="44.220729684457183" lon="5.887715499848127">
        <ele>570</ele>
        <time>2014-05-20T14:25:40Z</time>
      </trkpt>
      <trkpt lat="44.220815850421786" lon="5.88794432580471">
        <ele>569.20001220703125</ele>
        <time>2014-05-20T14:25:43Z</time>
      </trkpt>
      <trkpt lat="44.220897741615772" lon="5.888079106807709">
        <ele>568.5999755859375</ele>
        <time>2014-05-20T14:25:45Z</time>
      </trkpt>
      <trkpt lat="44.221171578392386" lon="5.888480264693499">
        <ele>569.4000244140625</ele>
        <time>2014-05-20T14:25:52Z</time>
      </trkpt>
      <trkpt lat="44.22134667634964" lon="5.888741109520197">
        <ele>569.79998779296875</ele>
        <time>2014-05-20T14:25:57Z</time>
      </trkpt>
      <trkpt lat="44.221403002738953" lon="5.888832807540894">
        <ele>570</ele>
        <time>2014-05-20T14:25:59Z</time>
      </trkpt>
      <trkpt lat="44.221482966095209" lon="5.888960212469101">
        <ele>570</ele>
        <time>2014-05-20T14:26:02Z</time>
      </trkpt>
      <trkpt lat="44.221507357433438" lon="5.889002457261086">
        <ele>570.20001220703125</ele>
        <time>2014-05-20T14:26:03Z</time>
      </trkpt>
      <trkpt lat="44.221584387123585" lon="5.889133047312498">
        <ele>570.4000244140625</ele>
        <time>2014-05-20T14:26:06Z</time>
      </trkpt>
      <trkpt lat="44.2216457426548" lon="5.889217453077436">
        <ele>570.5999755859375</ele>
        <time>2014-05-20T14:26:08Z</time>
      </trkpt>
      <trkpt lat="44.221792509779334" lon="5.889361621811986">
        <ele>570.20001220703125</ele>
        <time>2014-05-20T14:26:12Z</time>
      </trkpt>
      <trkpt lat="44.222070453688502" lon="5.889641828835011">
        <ele>569.5999755859375</ele>
        <time>2014-05-20T14:26:19Z</time>
      </trkpt>
      <trkpt lat="44.22241679392755" lon="5.889991605654359">
        <ele>569.5999755859375</ele>
        <time>2014-05-20T14:26:28Z</time>
      </trkpt>
      <trkpt lat="44.222665904089808" lon="5.890236189588904">
        <ele>569.5999755859375</ele>
        <time>2014-05-20T14:26:35Z</time>
      </trkpt>
      <trkpt lat="44.222880313172936" lon="5.890483958646655">
        <ele>569.79998779296875</ele>
        <time>2014-05-20T14:26:42Z</time>
      </trkpt>
      <trkpt lat="44.222915433347225" lon="5.890528047457337">
        <ele>569</ele>
        <time>2014-05-20T14:26:43Z</time>
      </trkpt>
      <trkpt lat="44.223044011741877" lon="5.890686130151153">
        <ele>567.4000244140625</ele>
        <time>2014-05-20T14:26:46Z</time>
      </trkpt>
      <trkpt lat="44.223094889894128" lon="5.890750419348478">
        <ele>566.5999755859375</ele>
        <time>2014-05-20T14:26:47Z</time>
      </trkpt>
      <trkpt lat="44.223158592358232" lon="5.890816720202565">
        <ele>565.79998779296875</ele>
        <time>2014-05-20T14:26:48Z</time>
      </trkpt>
      <trkpt lat="44.223300833255053" lon="5.890946052968502">
        <ele>564.5999755859375</ele>
        <time>2014-05-20T14:26:50Z</time>
      </trkpt>
      <trkpt lat="44.223376521840692" lon="5.891012940555811">
        <ele>564.5999755859375</ele>
        <time>2014-05-20T14:26:51Z</time>
      </trkpt>
      <trkpt lat="44.223540807142854" lon="5.891164820641279">
        <ele>563.4000244140625</ele>
        <time>2014-05-20T14:26:53Z</time>
      </trkpt>
      <trkpt lat="44.223702326416969" lon="5.891317119821906">
        <ele>561.5999755859375</ele>
        <time>2014-05-20T14:26:55Z</time>
      </trkpt>
      <trkpt lat="44.223855212330818" lon="5.8914780523628">
        <ele>562</ele>
        <time>2014-05-20T14:26:57Z</time>
      </trkpt>
      <trkpt lat="44.224048415198922" lon="5.891716768965125">
        <ele>563</ele>
        <time>2014-05-20T14:27:00Z</time>
      </trkpt>
      <trkpt lat="44.2240996286273" lon="5.891789356246591">
        <ele>563.5999755859375</ele>
        <time>2014-05-20T14:27:01Z</time>
      </trkpt>
      <trkpt lat="44.224149081856012" lon="5.891852220520377">
        <ele>564.4000244140625</ele>
        <time>2014-05-20T14:27:02Z</time>
      </trkpt>
      <trkpt lat="44.224240528419614" lon="5.891963029280305">
        <ele>566</ele>
        <time>2014-05-20T14:27:04Z</time>
      </trkpt>
      <trkpt lat="44.224311020225286" lon="5.892053386196494">
        <ele>567.4000244140625</ele>
        <time>2014-05-20T14:27:06Z</time>
      </trkpt>
      <trkpt lat="44.224371453747153" lon="5.892130248248577">
        <ele>568.5999755859375</ele>
        <time>2014-05-20T14:27:08Z</time>
      </trkpt>
      <trkpt lat="44.224459631368518" lon="5.892227478325367">
        <ele>569.79998779296875</ele>
        <time>2014-05-20T14:27:11Z</time>
      </trkpt>
      <trkpt lat="44.224486369639635" lon="5.892258239910007">
        <ele>570.20001220703125</ele>
        <time>2014-05-20T14:27:12Z</time>
      </trkpt>
      <trkpt lat="44.224557029083371" lon="5.892350692301989">
        <ele>571</ele>
        <time>2014-05-20T14:27:15Z</time>
      </trkpt>
      <trkpt lat="44.224644871428609" lon="5.892442306503654">
        <ele>571.79998779296875</ele>
        <time>2014-05-20T14:27:19Z</time>
      </trkpt>
      <trkpt lat="44.224702455103397" lon="5.892512546852231">
        <ele>572</ele>
        <time>2014-05-20T14:27:22Z</time>
      </trkpt>
      <trkpt lat="44.224797338247299" lon="5.892607513815165">
        <ele>572.79998779296875</ele>
        <time>2014-05-20T14:27:27Z</time>
      </trkpt>
      <trkpt lat="44.224847545847297" lon="5.892665684223175">
        <ele>573</ele>
        <time>2014-05-20T14:27:30Z</time>
      </trkpt>
      <trkpt lat="44.224886018782854" lon="5.892737517133355">
        <ele>573</ele>
        <time>2014-05-20T14:27:33Z</time>
      </trkpt>
      <trkpt lat="44.224892724305391" lon="5.892755957320333">
        <ele>573</ele>
        <time>2014-05-20T14:27:34Z</time>
      </trkpt>
      <trkpt lat="44.224933963268995" lon="5.892796274274588">
        <ele>573</ele>
        <time>2014-05-20T14:28:20Z</time>
      </trkpt>
      <trkpt lat="44.225060110911727" lon="5.892929965630174">
        <ele>573</ele>
        <time>2014-05-20T14:28:26Z</time>
      </trkpt>
      <trkpt lat="44.225229844450951" lon="5.893095005303621">
        <ele>573</ele>
        <time>2014-05-20T14:28:33Z</time>
      </trkpt>
      <trkpt lat="44.22537786886096" lon="5.893237330019474">
        <ele>572.4000244140625</ele>
        <time>2014-05-20T14:28:38Z</time>
      </trkpt>
      <trkpt lat="44.225410390645266" lon="5.893281418830156">
        <ele>572.4000244140625</ele>
        <time>2014-05-20T14:28:39Z</time>
      </trkpt>
      <trkpt lat="44.225483061745763" lon="5.893370937556028">
        <ele>571.79998779296875</ele>
        <time>2014-05-20T14:28:41Z</time>
      </trkpt>
      <trkpt lat="44.225562606006861" lon="5.893478393554688">
        <ele>571.20001220703125</ele>
        <time>2014-05-20T14:28:43Z</time>
      </trkpt>
      <trkpt lat="44.225649274885654" lon="5.893603703007102">
        <ele>570.5999755859375</ele>
        <time>2014-05-20T14:28:45Z</time>
      </trkpt>
      <trkpt lat="44.225745666772127" lon="5.893761869519949">
        <ele>569.20001220703125</ele>
        <time>2014-05-20T14:28:47Z</time>
      </trkpt>
      <trkpt lat="44.225799143314362" lon="5.893849125131965">
        <ele>568.20001220703125</ele>
        <time>2014-05-20T14:28:48Z</time>
      </trkpt>
      <trkpt lat="44.225858906283975" lon="5.893940320238471">
        <ele>567.4000244140625</ele>
        <time>2014-05-20T14:28:49Z</time>
      </trkpt>
      <trkpt lat="44.225986562669277" lon="5.894140731543303">
        <ele>565.4000244140625</ele>
        <time>2014-05-20T14:28:51Z</time>
      </trkpt>
      <trkpt lat="44.226052528247237" lon="5.894248774275184">
        <ele>564</ele>
        <time>2014-05-20T14:28:52Z</time>
      </trkpt>
      <trkpt lat="44.226122014224529" lon="5.894355559721589">
        <ele>563.4000244140625</ele>
        <time>2014-05-20T14:28:53Z</time>
      </trkpt>
      <trkpt lat="44.226194266229868" lon="5.894460082054138">
        <ele>562.5999755859375</ele>
        <time>2014-05-20T14:28:54Z</time>
      </trkpt>
      <trkpt lat="44.226545132696629" lon="5.894920667633414">
        <ele>561.79998779296875</ele>
        <time>2014-05-20T14:28:59Z</time>
      </trkpt>
      <trkpt lat="44.22683640383184" lon="5.895284358412027">
        <ele>563</ele>
        <time>2014-05-20T14:29:04Z</time>
      </trkpt>
      <trkpt lat="44.226905722171068" lon="5.895417798310518">
        <ele>562.79998779296875</ele>
        <time>2014-05-20T14:29:06Z</time>
      </trkpt>
      <trkpt lat="44.226915696635842" lon="5.89548678137362">
        <ele>563.4000244140625</ele>
        <time>2014-05-20T14:29:07Z</time>
      </trkpt>
      <trkpt lat="44.226907566189766" lon="5.89553908444941">
        <ele>563.79998779296875</ele>
        <time>2014-05-20T14:29:08Z</time>
      </trkpt>
      <trkpt lat="44.226871775463223" lon="5.895630950108171">
        <ele>564.5999755859375</ele>
        <time>2014-05-20T14:29:10Z</time>
      </trkpt>
      <trkpt lat="44.226846126839519" lon="5.895680487155914">
        <ele>564.79998779296875</ele>
        <time>2014-05-20T14:29:11Z</time>
      </trkpt>
      <trkpt lat="44.226821400225163" lon="5.895727844908834">
        <ele>565</ele>
        <time>2014-05-20T14:29:12Z</time>
      </trkpt>
      <trkpt lat="44.226702293381095" lon="5.895974859595299">
        <ele>565.79998779296875</ele>
        <time>2014-05-20T14:29:17Z</time>
      </trkpt>
      <trkpt lat="44.226680332794785" lon="5.896026324480772">
        <ele>565.79998779296875</ele>
        <time>2014-05-20T14:29:18Z</time>
      </trkpt>
      <trkpt lat="44.226559549570084" lon="5.896338550373912">
        <ele>566.79998779296875</ele>
        <time>2014-05-20T14:29:24Z</time>
      </trkpt>
      <trkpt lat="44.226425355300307" lon="5.89662822894752">
        <ele>568.20001220703125</ele>
        <time>2014-05-20T14:29:30Z</time>
      </trkpt>
      <trkpt lat="44.226406579837203" lon="5.896671731024981">
        <ele>568.5999755859375</ele>
        <time>2014-05-20T14:29:31Z</time>
      </trkpt>
      <trkpt lat="44.226351259276271" lon="5.896801985800266">
        <ele>569.4000244140625</ele>
        <time>2014-05-20T14:29:34Z</time>
      </trkpt>
      <trkpt lat="44.226266602054238" lon="5.896994937211275">
        <ele>570.4000244140625</ele>
        <time>2014-05-20T14:29:39Z</time>
      </trkpt>
      <trkpt lat="44.226250257343054" lon="5.897028632462025">
        <ele>570.4000244140625</ele>
        <time>2014-05-20T14:29:40Z</time>
      </trkpt>
      <trkpt lat="44.226190578192472" lon="5.897161988541484">
        <ele>571.4000244140625</ele>
        <time>2014-05-20T14:29:44Z</time>
      </trkpt>
      <trkpt lat="44.226122600957751" lon="5.897299200296402">
        <ele>572</ele>
        <time>2014-05-20T14:29:48Z</time>
      </trkpt>
      <trkpt lat="44.22608002088964" lon="5.897391485050321">
        <ele>572.4000244140625</ele>
        <time>2014-05-20T14:29:51Z</time>
      </trkpt>
      <trkpt lat="44.226019503548741" lon="5.897503048181534">
        <ele>573.20001220703125</ele>
        <time>2014-05-20T14:29:55Z</time>
      </trkpt>
      <trkpt lat="44.226000811904669" lon="5.897529283538461">
        <ele>573.4000244140625</ele>
        <time>2014-05-20T14:29:56Z</time>
      </trkpt>
      <trkpt lat="44.225926296785474" lon="5.89764797128737">
        <ele>574.5999755859375</ele>
        <time>2014-05-20T14:30:01Z</time>
      </trkpt>
      <trkpt lat="44.225844740867615" lon="5.8977828361094">
        <ele>575.20001220703125</ele>
        <time>2014-05-20T14:30:07Z</time>
      </trkpt>
      <trkpt lat="44.225777015089989" lon="5.897914180532098">
        <ele>575.5999755859375</ele>
        <time>2014-05-20T14:30:11Z</time>
      </trkpt>
      <trkpt lat="44.225721694529057" lon="5.898011745885015">
        <ele>575.5999755859375</ele>
        <time>2014-05-20T14:30:14Z</time>
      </trkpt>
      <trkpt lat="44.225611640140414" lon="5.898189777508378">
        <ele>576.5999755859375</ele>
        <time>2014-05-20T14:30:20Z</time>
      </trkpt>
      <trkpt lat="44.225574927404523" lon="5.898244511336088">
        <ele>576.5999755859375</ele>
        <time>2014-05-20T14:30:22Z</time>
      </trkpt>
      <trkpt lat="44.225419107824564" lon="5.898490017279983">
        <ele>577.79998779296875</ele>
        <time>2014-05-20T14:30:31Z</time>
      </trkpt>
      <trkpt lat="44.225404690951109" lon="5.898520946502686">
        <ele>578</ele>
        <time>2014-05-20T14:30:32Z</time>
      </trkpt>
      <trkpt lat="44.225251469761133" lon="5.898782461881638">
        <ele>578.5999755859375</ele>
        <time>2014-05-20T14:30:41Z</time>
      </trkpt>
      <trkpt lat="44.225233867764473" lon="5.898813726380467">
        <ele>578.79998779296875</ele>
        <time>2014-05-20T14:30:42Z</time>
      </trkpt>
      <trkpt lat="44.225134961307049" lon="5.899014556780458">
        <ele>579.5999755859375</ele>
        <time>2014-05-20T14:30:49Z</time>
      </trkpt>
      <trkpt lat="44.225107049569488" lon="5.899068117141724">
        <ele>579.79998779296875</ele>
        <time>2014-05-20T14:30:51Z</time>
      </trkpt>
      <trkpt lat="44.225022727623582" lon="5.899275317788124">
        <ele>580.79998779296875</ele>
        <time>2014-05-20T14:30:57Z</time>
      </trkpt>
      <trkpt lat="44.22499624080956" lon="5.899355951696634">
        <ele>581</ele>
        <time>2014-05-20T14:30:59Z</time>
      </trkpt>
      <trkpt lat="44.224920552223921" lon="5.899615958333015">
        <ele>581.4000244140625</ele>
        <time>2014-05-20T14:31:05Z</time>
      </trkpt>
      <trkpt lat="44.224834050983191" lon="5.899887615814805">
        <ele>582.20001220703125</ele>
        <time>2014-05-20T14:31:11Z</time>
      </trkpt>
      <trkpt lat="44.224803540855646" lon="5.899967830628157">
        <ele>582.5999755859375</ele>
        <time>2014-05-20T14:31:13Z</time>
      </trkpt>
      <trkpt lat="44.224718632176518" lon="5.900132702663541">
        <ele>583.20001220703125</ele>
        <time>2014-05-20T14:31:18Z</time>
      </trkpt>
      <trkpt lat="44.224699353799224" lon="5.900165224447846">
        <ele>583.4000244140625</ele>
        <time>2014-05-20T14:31:19Z</time>
      </trkpt>
      <trkpt lat="44.224513778463006" lon="5.900422213599086">
        <ele>583.4000244140625</ele>
        <time>2014-05-20T14:31:27Z</time>
      </trkpt>
      <trkpt lat="44.22434639185667" lon="5.900643160566688">
        <ele>583.5999755859375</ele>
        <time>2014-05-20T14:31:34Z</time>
      </trkpt>
      <trkpt lat="44.224101724103093" lon="5.900979107245803">
        <ele>583.79998779296875</ele>
        <time>2014-05-20T14:31:44Z</time>
      </trkpt>
      <trkpt lat="44.223872730508447" lon="5.901297284290195">
        <ele>583.5999755859375</ele>
        <time>2014-05-20T14:31:52Z</time>
      </trkpt>
      <trkpt lat="44.223586907610297" lon="5.901674805209041">
        <ele>582.20001220703125</ele>
        <time>2014-05-20T14:31:59Z</time>
      </trkpt>
      <trkpt lat="44.223380042240024" lon="5.901912515982986">
        <ele>581.20001220703125</ele>
        <time>2014-05-20T14:32:03Z</time>
      </trkpt>
      <trkpt lat="44.223285410553217" lon="5.902043776586652">
        <ele>580.4000244140625</ele>
        <time>2014-05-20T14:32:05Z</time>
      </trkpt>
      <trkpt lat="44.223245596513152" lon="5.902118124067783">
        <ele>580</ele>
        <time>2014-05-20T14:32:06Z</time>
      </trkpt>
      <trkpt lat="44.22310771420598" lon="5.902337897568941">
        <ele>579</ele>
        <time>2014-05-20T14:32:09Z</time>
      </trkpt>
      <trkpt lat="44.22300461679697" lon="5.902485754340887">
        <ele>578.5999755859375</ele>
        <time>2014-05-20T14:32:11Z</time>
      </trkpt>
      <trkpt lat="44.222833123058081" lon="5.90270821005106">
        <ele>578</ele>
        <time>2014-05-20T14:32:14Z</time>
      </trkpt>
      <trkpt lat="44.222647296264768" lon="5.90293737128377">
        <ele>577</ele>
        <time>2014-05-20T14:32:17Z</time>
      </trkpt>
      <trkpt lat="44.22252232208848" lon="5.903103249147534">
        <ele>575.4000244140625</ele>
        <time>2014-05-20T14:32:19Z</time>
      </trkpt>
      <trkpt lat="44.22233322635293" lon="5.903367446735501">
        <ele>574.20001220703125</ele>
        <time>2014-05-20T14:32:22Z</time>
      </trkpt>
      <trkpt lat="44.2222208250314" lon="5.903555201366544">
        <ele>573.20001220703125</ele>
        <time>2014-05-20T14:32:24Z</time>
      </trkpt>
      <trkpt lat="44.222045978531241" lon="5.903847562149167">
        <ele>571.79998779296875</ele>
        <time>2014-05-20T14:32:27Z</time>
      </trkpt>
      <trkpt lat="44.221875490620732" lon="5.90417361818254">
        <ele>570.5999755859375</ele>
        <time>2014-05-20T14:32:30Z</time>
      </trkpt>
      <trkpt lat="44.221751186996698" lon="5.904391380026937">
        <ele>569.5999755859375</ele>
        <time>2014-05-20T14:32:32Z</time>
      </trkpt>
      <trkpt lat="44.221604922786355" lon="5.90458064340055">
        <ele>568.5999755859375</ele>
        <time>2014-05-20T14:32:34Z</time>
      </trkpt>
      <trkpt lat="44.221525378525257" lon="5.9046661388129">
        <ele>568.20001220703125</ele>
        <time>2014-05-20T14:32:35Z</time>
      </trkpt>
      <trkpt lat="44.221369894221425" lon="5.904841991141439">
        <ele>567.4000244140625</ele>
        <time>2014-05-20T14:32:37Z</time>
      </trkpt>
      <trkpt lat="44.220904028043151" lon="5.905338702723384">
        <ele>565.5999755859375</ele>
        <time>2014-05-20T14:32:43Z</time>
      </trkpt>
      <trkpt lat="44.220831608399749" lon="5.905407434329391">
        <ele>565</ele>
        <time>2014-05-20T14:32:44Z</time>
      </trkpt>
      <trkpt lat="44.220608314499259" lon="5.905645564198494">
        <ele>566.20001220703125</ele>
        <time>2014-05-20T14:32:48Z</time>
      </trkpt>
      <trkpt lat="44.22058928757906" lon="5.905698286369443">
        <ele>566.5999755859375</ele>
        <time>2014-05-20T14:32:49Z</time>
      </trkpt>
      <trkpt lat="44.220601608976722" lon="5.905825523659587">
        <ele>566.5999755859375</ele>
        <time>2014-05-20T14:32:51Z</time>
      </trkpt>
      <trkpt lat="44.220699593424797" lon="5.906074633821845">
        <ele>566.20001220703125</ele>
        <time>2014-05-20T14:32:55Z</time>
      </trkpt>
      <trkpt lat="44.220717111602426" lon="5.906148562207818">
        <ele>565.79998779296875</ele>
        <time>2014-05-20T14:32:56Z</time>
      </trkpt>
      <trkpt lat="44.220761954784393" lon="5.906288120895624">
        <ele>565.4000244140625</ele>
        <time>2014-05-20T14:32:58Z</time>
      </trkpt>
      <trkpt lat="44.220807803794742" lon="5.906441509723663">
        <ele>565.20001220703125</ele>
        <time>2014-05-20T14:33:00Z</time>
      </trkpt>
      <trkpt lat="44.220860525965691" lon="5.906602693721652">
        <ele>564.4000244140625</ele>
        <time>2014-05-20T14:33:02Z</time>
      </trkpt>
      <trkpt lat="44.220956834033132" lon="5.906867058947682">
        <ele>563.4000244140625</ele>
        <time>2014-05-20T14:33:05Z</time>
      </trkpt>
      <trkpt lat="44.220995223149657" lon="5.906956242397428">
        <ele>563</ele>
        <time>2014-05-20T14:33:06Z</time>
      </trkpt>
      <trkpt lat="44.221125477924943" lon="5.907318592071533">
        <ele>562.4000244140625</ele>
        <time>2014-05-20T14:33:10Z</time>
      </trkpt>
      <trkpt lat="44.221132015809417" lon="5.907417247071862">
        <ele>562.20001220703125</ele>
        <time>2014-05-20T14:33:11Z</time>
      </trkpt>
      <trkpt lat="44.221073258668184" lon="5.907682031393051">
        <ele>562.5999755859375</ele>
        <time>2014-05-20T14:33:14Z</time>
      </trkpt>
      <trkpt lat="44.220966473221779" lon="5.907885879278183">
        <ele>562.4000244140625</ele>
        <time>2014-05-20T14:33:17Z</time>
      </trkpt>
      <trkpt lat="44.220924479886889" lon="5.907941032201052">
        <ele>562.79998779296875</ele>
        <time>2014-05-20T14:33:18Z</time>
      </trkpt>
      <trkpt lat="44.220824567601085" lon="5.908109089359641">
        <ele>562.5999755859375</ele>
        <time>2014-05-20T14:33:21Z</time>
      </trkpt>
      <trkpt lat="44.220752231776714" lon="5.908227106556296">
        <ele>562.5999755859375</ele>
        <time>2014-05-20T14:33:23Z</time>
      </trkpt>
      <trkpt lat="44.220630023628473" lon="5.908424248918891">
        <ele>562</ele>
        <time>2014-05-20T14:33:26Z</time>
      </trkpt>
      <trkpt lat="44.220505133271217" lon="5.908554755151272">
        <ele>560.5999755859375</ele>
        <time>2014-05-20T14:33:28Z</time>
      </trkpt>
      <trkpt lat="44.220429360866547" lon="5.908608650788665">
        <ele>559.5999755859375</ele>
        <time>2014-05-20T14:33:29Z</time>
      </trkpt>
      <trkpt lat="44.220347469672561" lon="5.90867780148983">
        <ele>558.4000244140625</ele>
        <time>2014-05-20T14:33:30Z</time>
      </trkpt>
      <trkpt lat="44.220266165211797" lon="5.908741923049092">
        <ele>556.79998779296875</ele>
        <time>2014-05-20T14:33:31Z</time>
      </trkpt>
      <trkpt lat="44.220187542960048" lon="5.908805038779974">
        <ele>556.4000244140625</ele>
        <time>2014-05-20T14:33:32Z</time>
      </trkpt>
      <trkpt lat="44.22004203312099" lon="5.908944513648748">
        <ele>556.20001220703125</ele>
        <time>2014-05-20T14:33:34Z</time>
      </trkpt>
      <trkpt lat="44.219928625971079" lon="5.909146266058087">
        <ele>555.4000244140625</ele>
        <time>2014-05-20T14:33:36Z</time>
      </trkpt>
      <trkpt lat="44.2198221758008" lon="5.909375427290797">
        <ele>553.79998779296875</ele>
        <time>2014-05-20T14:33:38Z</time>
      </trkpt>
      <trkpt lat="44.219775153324008" lon="5.909496294334531">
        <ele>552.79998779296875</ele>
        <time>2014-05-20T14:33:39Z</time>
      </trkpt>
      <trkpt lat="44.219735423102975" lon="5.90962135232985">
        <ele>551.5999755859375</ele>
        <time>2014-05-20T14:33:40Z</time>
      </trkpt>
      <trkpt lat="44.219694435596466" lon="5.909749176353216">
        <ele>550.5999755859375</ele>
        <time>2014-05-20T14:33:41Z</time>
      </trkpt>
      <trkpt lat="44.219626458361745" lon="5.910063413903117">
        <ele>548.79998779296875</ele>
        <time>2014-05-20T14:33:43Z</time>
      </trkpt>
      <trkpt lat="44.219575161114335" lon="5.910206073895097">
        <ele>548</ele>
        <time>2014-05-20T14:33:44Z</time>
      </trkpt>
      <trkpt lat="44.219521097838879" lon="5.910350326448679">
        <ele>547.4000244140625</ele>
        <time>2014-05-20T14:33:45Z</time>
      </trkpt>
      <trkpt lat="44.219396961852908" lon="5.910626510158181">
        <ele>546</ele>
        <time>2014-05-20T14:33:47Z</time>
      </trkpt>
      <trkpt lat="44.219249691814184" lon="5.910878553986549">
        <ele>545</ele>
        <time>2014-05-20T14:33:49Z</time>
      </trkpt>
      <trkpt lat="44.219166124239564" lon="5.911000343039632">
        <ele>544.4000244140625</ele>
        <time>2014-05-20T14:33:50Z</time>
      </trkpt>
      <trkpt lat="44.21909018419683" lon="5.911128334701061">
        <ele>543.5999755859375</ele>
        <time>2014-05-20T14:33:51Z</time>
      </trkpt>
      <trkpt lat="44.21894358471036" lon="5.911416839808226">
        <ele>542</ele>
        <time>2014-05-20T14:33:53Z</time>
      </trkpt>
      <trkpt lat="44.218802517279983" lon="5.911703500896692">
        <ele>539</ele>
        <time>2014-05-20T14:33:55Z</time>
      </trkpt>
      <trkpt lat="44.218668658286333" lon="5.911993347108364">
        <ele>537.20001220703125</ele>
        <time>2014-05-20T14:33:57Z</time>
      </trkpt>
      <trkpt lat="44.218598753213882" lon="5.912127457559109">
        <ele>535.79998779296875</ele>
        <time>2014-05-20T14:33:58Z</time>
      </trkpt>
      <trkpt lat="44.218521220609546" lon="5.912255952134728">
        <ele>534.4000244140625</ele>
        <time>2014-05-20T14:33:59Z</time>
      </trkpt>
      <trkpt lat="44.218430360779166" lon="5.912386709824204">
        <ele>532.79998779296875</ele>
        <time>2014-05-20T14:34:00Z</time>
      </trkpt>
      <trkpt lat="44.218347379937768" lon="5.912509504705668">
        <ele>531.5999755859375</ele>
        <time>2014-05-20T14:34:01Z</time>
      </trkpt>
      <trkpt lat="44.218265656381845" lon="5.91264788992703">
        <ele>530</ele>
        <time>2014-05-20T14:34:02Z</time>
      </trkpt>
      <trkpt lat="44.218181418254972" lon="5.912788035348058">
        <ele>529</ele>
        <time>2014-05-20T14:34:03Z</time>
      </trkpt>
      <trkpt lat="44.218093827366829" lon="5.912925750017166">
        <ele>527.5999755859375</ele>
        <time>2014-05-20T14:34:04Z</time>
      </trkpt>
      <trkpt lat="44.218019144609571" lon="5.913069499656558">
        <ele>526.4000244140625</ele>
        <time>2014-05-20T14:34:05Z</time>
      </trkpt>
      <trkpt lat="44.217946054413915" lon="5.91321618296206">
        <ele>524.5999755859375</ele>
        <time>2014-05-20T14:34:06Z</time>
      </trkpt>
      <trkpt lat="44.217881010845304" lon="5.913367476314306">
        <ele>523</ele>
        <time>2014-05-20T14:34:07Z</time>
      </trkpt>
      <trkpt lat="44.217813117429614" lon="5.913494881242514">
        <ele>521.5999755859375</ele>
        <time>2014-05-20T14:34:08Z</time>
      </trkpt>
      <trkpt lat="44.217761401087046" lon="5.913643576204777">
        <ele>520.4000244140625</ele>
        <time>2014-05-20T14:34:09Z</time>
      </trkpt>
      <trkpt lat="44.217718401923776" lon="5.913811214268208">
        <ele>519</ele>
        <time>2014-05-20T14:34:10Z</time>
      </trkpt>
      <trkpt lat="44.217686885967851" lon="5.913985390216112">
        <ele>517.20001220703125</ele>
        <time>2014-05-20T14:34:11Z</time>
      </trkpt>
      <trkpt lat="44.21764531172812" lon="5.914154956117272">
        <ele>515.20001220703125</ele>
        <time>2014-05-20T14:34:12Z</time>
      </trkpt>
      <trkpt lat="44.217584040015936" lon="5.914302729070187">
        <ele>513.79998779296875</ele>
        <time>2014-05-20T14:34:13Z</time>
      </trkpt>
      <trkpt lat="44.217517990618944" lon="5.914438683539629">
        <ele>512.79998779296875</ele>
        <time>2014-05-20T14:34:14Z</time>
      </trkpt>
      <trkpt lat="44.217466190457344" lon="5.914577068760991">
        <ele>512.4000244140625</ele>
        <time>2014-05-20T14:34:15Z</time>
      </trkpt>
      <trkpt lat="44.21740441583097" lon="5.914877643808723">
        <ele>512.20001220703125</ele>
        <time>2014-05-20T14:34:17Z</time>
      </trkpt>
      <trkpt lat="44.217396369203925" lon="5.915205962955952">
        <ele>510.60000610351562</ele>
        <time>2014-05-20T14:34:19Z</time>
      </trkpt>
      <trkpt lat="44.217395698651671" lon="5.915360441431403">
        <ele>508</ele>
        <time>2014-05-20T14:34:20Z</time>
      </trkpt>
      <trkpt lat="44.217429896816611" lon="5.915514836087823">
        <ele>507</ele>
        <time>2014-05-20T14:34:21Z</time>
      </trkpt>
      <trkpt lat="44.217498796060681" lon="5.915825050324202">
        <ele>505.39999389648438</ele>
        <time>2014-05-20T14:34:23Z</time>
      </trkpt>
      <trkpt lat="44.217523690313101" lon="5.916175078600645">
        <ele>503.79998779296875</ele>
        <time>2014-05-20T14:34:25Z</time>
      </trkpt>
      <trkpt lat="44.217525534331799" lon="5.916354786604643">
        <ele>502.79998779296875</ele>
        <time>2014-05-20T14:34:26Z</time>
      </trkpt>
      <trkpt lat="44.21752511523664" lon="5.91653248295188">
        <ele>501.79998779296875</ele>
        <time>2014-05-20T14:34:27Z</time>
      </trkpt>
      <trkpt lat="44.217516900971532" lon="5.916881337761879">
        <ele>500</ele>
        <time>2014-05-20T14:34:29Z</time>
      </trkpt>
      <trkpt lat="44.217507848516107" lon="5.917213596403599">
        <ele>499</ele>
        <time>2014-05-20T14:34:31Z</time>
      </trkpt>
      <trkpt lat="44.217498376965523" lon="5.917523307725787">
        <ele>498.60000610351562</ele>
        <time>2014-05-20T14:34:33Z</time>
      </trkpt>
      <trkpt lat="44.217456970363855" lon="5.918355295434594">
        <ele>498.79998779296875</ele>
        <time>2014-05-20T14:34:39Z</time>
      </trkpt>
      <trkpt lat="44.217411205172539" lon="5.919114192947745">
        <ele>498.60000610351562</ele>
        <time>2014-05-20T14:34:45Z</time>
      </trkpt>
      <trkpt lat="44.217363595962524" lon="5.919560445472598">
        <ele>498.60000610351562</ele>
        <time>2014-05-20T14:34:49Z</time>
      </trkpt>
      <trkpt lat="44.217352950945497" lon="5.91965826228261">
        <ele>498.79998779296875</ele>
        <time>2014-05-20T14:34:50Z</time>
      </trkpt>
      <trkpt lat="44.217326547950506" lon="5.920151704922319">
        <ele>499.20001220703125</ele>
        <time>2014-05-20T14:34:56Z</time>
      </trkpt>
      <trkpt lat="44.217295618727803" lon="5.920605501160026">
        <ele>499.39999389648437</ele>
        <time>2014-05-20T14:35:02Z</time>
      </trkpt>
      <trkpt lat="44.217305760830641" lon="5.921028284355998">
        <ele>499.60000610351562</ele>
        <time>2014-05-20T14:35:08Z</time>
      </trkpt>
      <trkpt lat="44.217280363664031" lon="5.921278232708573">
        <ele>500.20001220703125</ele>
        <time>2014-05-20T14:35:13Z</time>
      </trkpt>
      <trkpt lat="44.217285225167871" lon="5.921329194679856">
        <ele>500.39999389648438</ele>
        <time>2014-05-20T14:35:14Z</time>
      </trkpt>
      <trkpt lat="44.217279190197587" lon="5.921382838860154">
        <ele>500.39999389648438</ele>
        <time>2014-05-20T14:35:15Z</time>
      </trkpt>
      <trkpt lat="44.21729008667171" lon="5.921557266265154">
        <ele>500</ele>
        <time>2014-05-20T14:35:18Z</time>
      </trkpt>
      <trkpt lat="44.217236610129476" lon="5.921664470806718">
        <ele>499.60000610351562</ele>
        <time>2014-05-20T14:35:20Z</time>
      </trkpt>
      <trkpt lat="44.217094453051686" lon="5.921749463304877">
        <ele>499.20001220703125</ele>
        <time>2014-05-20T14:35:23Z</time>
      </trkpt>
      <trkpt lat="44.216999989002943" lon="5.921810735017061">
        <ele>499.20001220703125</ele>
        <time>2014-05-20T14:35:25Z</time>
      </trkpt>
      <trkpt lat="44.216615678742528" lon="5.922188172116876">
        <ele>498.79998779296875</ele>
        <time>2014-05-20T14:35:34Z</time>
      </trkpt>
      <trkpt lat="44.216283168643713" lon="5.92253434471786">
        <ele>499</ele>
        <time>2014-05-20T14:35:42Z</time>
      </trkpt>
      <trkpt lat="44.215991226956248" lon="5.922845313325524">
        <ele>498.79998779296875</ele>
        <time>2014-05-20T14:35:49Z</time>
      </trkpt>
      <trkpt lat="44.215637929737568" lon="5.923275053501129">
        <ele>498.79998779296875</ele>
        <time>2014-05-20T14:35:57Z</time>
      </trkpt>
      <trkpt lat="44.21538638882339" lon="5.923589626327157">
        <ele>499</ele>
        <time>2014-05-20T14:36:03Z</time>
      </trkpt>
      <trkpt lat="44.215323608368635" lon="5.923673864454031">
        <ele>499.60000610351562</ele>
        <time>2014-05-20T14:36:05Z</time>
      </trkpt>
      <trkpt lat="44.215302653610706" lon="5.923738488927484">
        <ele>499.60000610351562</ele>
        <time>2014-05-20T14:36:07Z</time>
      </trkpt>
      <trkpt lat="44.215334756299853" lon="5.923790959641337">
        <ele>499.79998779296875</ele>
        <time>2014-05-20T14:36:10Z</time>
      </trkpt>
      <trkpt lat="44.215356968343258" lon="5.923828678205609">
        <ele>500</ele>
        <time>2014-05-20T14:36:13Z</time>
      </trkpt>
      <trkpt lat="44.215351268649101" lon="5.923846699297428">
        <ele>500</ele>
        <time>2014-05-20T14:36:14Z</time>
      </trkpt>
      <trkpt lat="44.215318914502859" lon="5.923830103129149">
        <ele>499.79998779296875</ele>
        <time>2014-05-20T14:36:19Z</time>
      </trkpt>
      <trkpt lat="44.215372055768967" lon="5.923820128664374">
        <ele>499.79998779296875</ele>
        <time>2014-05-20T14:36:23Z</time>
      </trkpt>
      <trkpt lat="44.215425783768296" lon="5.923871677368879">
        <ele>500</ele>
        <time>2014-05-20T14:36:28Z</time>
      </trkpt>
      <trkpt lat="44.215403068810701" lon="5.923834461718798">
        <ele>501</ele>
        <time>2014-05-21T07:10:20Z</time>
      </trkpt>
      <trkpt lat="44.215385299175978" lon="5.92380378395319">
        <ele>500.79998779296875</ele>
        <time>2014-05-21T07:10:54Z</time>
      </trkpt>
      <trkpt lat="44.215347832068801" lon="5.923785679042339">
        <ele>501</ele>
        <time>2014-05-21T07:10:57Z</time>
      </trkpt>
      <trkpt lat="44.215310532599688" lon="5.923738237470388">
        <ele>501</ele>
        <time>2014-05-21T07:11:00Z</time>
      </trkpt>
      <trkpt lat="44.215257978066802" lon="5.923678725957871">
        <ele>501.20001220703125</ele>
        <time>2014-05-21T07:11:04Z</time>
      </trkpt>
      <trkpt lat="44.215154629200697" lon="5.923712169751525">
        <ele>501.39999389648438</ele>
        <time>2014-05-21T07:11:09Z</time>
      </trkpt>
      <trkpt lat="44.215121269226074" lon="5.9237358905375">
        <ele>501.39999389648438</ele>
        <time>2014-05-21T07:11:19Z</time>
      </trkpt>
      <trkpt lat="44.215038204565644" lon="5.923850135877729">
        <ele>501</ele>
        <time>2014-05-21T07:11:24Z</time>
      </trkpt>
      <trkpt lat="44.214851371943951" lon="5.924052139744163">
        <ele>500.60000610351562</ele>
        <time>2014-05-21T07:11:29Z</time>
      </trkpt>
      <trkpt lat="44.214573092758656" lon="5.92435497790575">
        <ele>500</ele>
        <time>2014-05-21T07:11:35Z</time>
      </trkpt>
      <trkpt lat="44.214374022558331" lon="5.924576511606574">
        <ele>499.79998779296875</ele>
        <time>2014-05-21T07:11:39Z</time>
      </trkpt>
      <trkpt lat="44.214215269312263" lon="5.924746999517083">
        <ele>499.39999389648437</ele>
        <time>2014-05-21T07:11:42Z</time>
      </trkpt>
      <trkpt lat="44.213845040649176" lon="5.925145391374826">
        <ele>499.20001220703125</ele>
        <time>2014-05-21T07:11:49Z</time>
      </trkpt>
      <trkpt lat="44.213578831404448" lon="5.925419228151441">
        <ele>499</ele>
        <time>2014-05-21T07:11:54Z</time>
      </trkpt>
      <trkpt lat="44.213473722338676" lon="5.925531880930066">
        <ele>498.79998779296875</ele>
        <time>2014-05-21T07:11:56Z</time>
      </trkpt>
      <trkpt lat="44.213049095124006" lon="5.925983916968107">
        <ele>498.79998779296875</ele>
        <time>2014-05-21T07:12:04Z</time>
      </trkpt>
      <trkpt lat="44.212617762386799" lon="5.926442155614495">
        <ele>498.39999389648438</ele>
        <time>2014-05-21T07:12:12Z</time>
      </trkpt>
      <trkpt lat="44.21256453730166" lon="5.926499152556062">
        <ele>498.39999389648438</ele>
        <time>2014-05-21T07:12:13Z</time>
      </trkpt>
      <trkpt lat="44.212138904258609" lon="5.926954876631498">
        <ele>498.60000610351562</ele>
        <time>2014-05-21T07:12:21Z</time>
      </trkpt>
      <trkpt lat="44.211657280102372" lon="5.927464663982391">
        <ele>498.39999389648438</ele>
        <time>2014-05-21T07:12:30Z</time>
      </trkpt>
      <trkpt lat="44.21160195954144" lon="5.927522666752338">
        <ele>498.60000610351562</ele>
        <time>2014-05-21T07:12:31Z</time>
      </trkpt>
      <trkpt lat="44.211322842165828" lon="5.927818464115262">
        <ele>497.79998779296875</ele>
        <time>2014-05-21T07:12:36Z</time>
      </trkpt>
      <trkpt lat="44.211043221876025" lon="5.928114512935281">
        <ele>498.39999389648438</ele>
        <time>2014-05-21T07:12:41Z</time>
      </trkpt>
      <trkpt lat="44.210575092583895" lon="5.928604602813721">
        <ele>497.39999389648437</ele>
        <time>2014-05-21T07:12:49Z</time>
      </trkpt>
      <trkpt lat="44.210408041253686" lon="5.928786909207702">
        <ele>497</ele>
        <time>2014-05-21T07:12:52Z</time>
      </trkpt>
      <trkpt lat="44.20994695276022" lon="5.929275155067444">
        <ele>496.60000610351562</ele>
        <time>2014-05-21T07:13:00Z</time>
      </trkpt>
      <trkpt lat="44.209458623081446" lon="5.929794078692794">
        <ele>495.60000610351562</ele>
        <time>2014-05-21T07:13:08Z</time>
      </trkpt>
      <trkpt lat="44.209396177902818" lon="5.929862475022674">
        <ele>495.39999389648438</ele>
        <time>2014-05-21T07:13:09Z</time>
      </trkpt>
      <trkpt lat="44.208964006975293" lon="5.930328676477075">
        <ele>494.39999389648437</ele>
        <time>2014-05-21T07:13:16Z</time>
      </trkpt>
      <trkpt lat="44.208842385560274" lon="5.930453566834331">
        <ele>494.20001220703125</ele>
        <time>2014-05-21T07:13:18Z</time>
      </trkpt>
      <trkpt lat="44.208538038656116" lon="5.93077065423131">
        <ele>494.20001220703125</ele>
        <time>2014-05-21T07:13:23Z</time>
      </trkpt>
      <trkpt lat="44.208093881607056" lon="5.9312201756984">
        <ele>493.79998779296875</ele>
        <time>2014-05-21T07:13:30Z</time>
      </trkpt>
      <trkpt lat="44.207970080897212" lon="5.93134917318821">
        <ele>494</ele>
        <time>2014-05-21T07:13:32Z</time>
      </trkpt>
      <trkpt lat="44.207519637420774" lon="5.931835826486349">
        <ele>493.79998779296875</ele>
        <time>2014-05-21T07:13:39Z</time>
      </trkpt>
      <trkpt lat="44.207454929128289" lon="5.931906150653958">
        <ele>493.60000610351562</ele>
        <time>2014-05-21T07:13:40Z</time>
      </trkpt>
      <trkpt lat="44.206995433196425" lon="5.93239582143724">
        <ele>494.20001220703125</ele>
        <time>2014-05-21T07:13:47Z</time>
      </trkpt>
      <trkpt lat="44.206798290833831" lon="5.93260251916945">
        <ele>494</ele>
        <time>2014-05-21T07:13:50Z</time>
      </trkpt>
      <trkpt lat="44.206348350271583" lon="5.933085987344384">
        <ele>493.39999389648437</ele>
        <time>2014-05-21T07:13:57Z</time>
      </trkpt>
      <trkpt lat="44.206093540415168" lon="5.933362422510982">
        <ele>493.39999389648437</ele>
        <time>2014-05-21T07:14:01Z</time>
      </trkpt>
      <trkpt lat="44.205665392801166" lon="5.933834491297603">
        <ele>493.60000610351562</ele>
        <time>2014-05-21T07:14:08Z</time>
      </trkpt>
      <trkpt lat="44.205370768904686" lon="5.934135736897588">
        <ele>494.20001220703125</ele>
        <time>2014-05-21T07:14:14Z</time>
      </trkpt>
      <trkpt lat="44.205333972349763" lon="5.934178568422794">
        <ele>495.20001220703125</ele>
        <time>2014-05-21T07:14:59Z</time>
      </trkpt>
      <trkpt lat="44.205206064507365" lon="5.934309409931302">
        <ele>494.79998779296875</ele>
        <time>2014-05-21T07:15:04Z</time>
      </trkpt>
      <trkpt lat="44.204961564391851" lon="5.934571847319603">
        <ele>493.60000610351562</ele>
        <time>2014-05-21T07:15:10Z</time>
      </trkpt>
      <trkpt lat="44.204860730096698" lon="5.934674190357328">
        <ele>493.20001220703125</ele>
        <time>2014-05-21T07:15:12Z</time>
      </trkpt>
      <trkpt lat="44.204588402062654" lon="5.934965796768665">
        <ele>492</ele>
        <time>2014-05-21T07:15:17Z</time>
      </trkpt>
      <trkpt lat="44.204229405149817" lon="5.935347760096192">
        <ele>491</ele>
        <time>2014-05-21T07:15:23Z</time>
      </trkpt>
      <trkpt lat="44.204164696857333" lon="5.935412803664804">
        <ele>490.79998779296875</ele>
        <time>2014-05-21T07:15:24Z</time>
      </trkpt>
      <trkpt lat="44.203909887000918" lon="5.935686640441418">
        <ele>489.79998779296875</ele>
        <time>2014-05-21T07:15:28Z</time>
      </trkpt>
      <trkpt lat="44.203599840402603" lon="5.936016300693154">
        <ele>489</ele>
        <time>2014-05-21T07:15:33Z</time>
      </trkpt>
      <trkpt lat="44.203538149595261" lon="5.936081595718861">
        <ele>488.60000610351562</ele>
        <time>2014-05-21T07:15:34Z</time>
      </trkpt>
      <trkpt lat="44.203268671408296" lon="5.936360126361251">
        <ele>487.39999389648437</ele>
        <time>2014-05-21T07:15:38Z</time>
      </trkpt>
      <trkpt lat="44.203120982274413" lon="5.93651351518929">
        <ele>486.20001220703125</ele>
        <time>2014-05-21T07:15:40Z</time>
      </trkpt>
      <trkpt lat="44.2028867918998" lon="5.93677343800664">
        <ele>484.60000610351562</ele>
        <time>2014-05-21T07:15:43Z</time>
      </trkpt>
      <trkpt lat="44.202720997855067" lon="5.93695180490613">
        <ele>483</ele>
        <time>2014-05-21T07:15:45Z</time>
      </trkpt>
      <trkpt lat="44.202636508271098" lon="5.93704903498292">
        <ele>481.20001220703125</ele>
        <time>2014-05-21T07:15:46Z</time>
      </trkpt>
      <trkpt lat="44.202559143304825" lon="5.937159173190594">
        <ele>480.39999389648437</ele>
        <time>2014-05-21T07:15:47Z</time>
      </trkpt>
      <trkpt lat="44.202489322051406" lon="5.937288170680404">
        <ele>479.39999389648437</ele>
        <time>2014-05-21T07:15:48Z</time>
      </trkpt>
      <trkpt lat="44.202427798882127" lon="5.937425717711449">
        <ele>478.60000610351562</ele>
        <time>2014-05-21T07:15:49Z</time>
      </trkpt>
      <trkpt lat="44.202373903244734" lon="5.937569886445999">
        <ele>477.60000610351562</ele>
        <time>2014-05-21T07:15:50Z</time>
      </trkpt>
      <trkpt lat="44.202276421710849" lon="5.937873562797904">
        <ele>476</ele>
        <time>2014-05-21T07:15:52Z</time>
      </trkpt>
      <trkpt lat="44.202226968482137" lon="5.93802728690207">
        <ele>475.39999389648437</ele>
        <time>2014-05-21T07:15:53Z</time>
      </trkpt>
      <trkpt lat="44.202180951833725" lon="5.938179418444634">
        <ele>474.60000610351562</ele>
        <time>2014-05-21T07:15:54Z</time>
      </trkpt>
      <trkpt lat="44.202079949900508" lon="5.938493739813566">
        <ele>473</ele>
        <time>2014-05-21T07:15:56Z</time>
      </trkpt>
      <trkpt lat="44.20197986997664" lon="5.938815688714385">
        <ele>471.39999389648437</ele>
        <time>2014-05-21T07:15:58Z</time>
      </trkpt>
      <trkpt lat="44.201929578557611" lon="5.938977207988501">
        <ele>470.39999389648437</ele>
        <time>2014-05-21T07:15:59Z</time>
      </trkpt>
      <trkpt lat="44.201880879700184" lon="5.939138811081648">
        <ele>469.60000610351562</ele>
        <time>2014-05-21T07:16:00Z</time>
      </trkpt>
      <trkpt lat="44.201818434521556" lon="5.939295552670956">
        <ele>468.79998779296875</ele>
        <time>2014-05-21T07:16:01Z</time>
      </trkpt>
      <trkpt lat="44.20174241065979" lon="5.939439637586474">
        <ele>468.39999389648437</ele>
        <time>2014-05-21T07:16:02Z</time>
      </trkpt>
      <trkpt lat="44.20164761133492" lon="5.9395557269454">
        <ele>468</ele>
        <time>2014-05-21T07:16:03Z</time>
      </trkpt>
      <trkpt lat="44.201432866975665" lon="5.939677348360419">
        <ele>468.20001220703125</ele>
        <time>2014-05-21T07:16:05Z</time>
      </trkpt>
      <trkpt lat="44.201327338814735" lon="5.939718084409833">
        <ele>468.79998779296875</ele>
        <time>2014-05-21T07:16:06Z</time>
      </trkpt>
      <trkpt lat="44.201128017157316" lon="5.939788827672601">
        <ele>469.60000610351562</ele>
        <time>2014-05-21T07:16:08Z</time>
      </trkpt>
      <trkpt lat="44.200949566438794" lon="5.93987382017076">
        <ele>470</ele>
        <time>2014-05-21T07:16:10Z</time>
      </trkpt>
      <trkpt lat="44.200878487899899" lon="5.939937690272927">
        <ele>470.39999389648437</ele>
        <time>2014-05-21T07:16:11Z</time>
      </trkpt>
      <trkpt lat="44.200828531756997" lon="5.940023688599467">
        <ele>471</ele>
        <time>2014-05-21T07:16:12Z</time>
      </trkpt>
      <trkpt lat="44.20079592615366" lon="5.940120248124003">
        <ele>471.60000610351562</ele>
        <time>2014-05-21T07:16:13Z</time>
      </trkpt>
      <trkpt lat="44.200782096013427" lon="5.940220579504967">
        <ele>472.39999389648437</ele>
        <time>2014-05-21T07:16:14Z</time>
      </trkpt>
      <trkpt lat="44.200778407976031" lon="5.940416716039181">
        <ele>473.60000610351562</ele>
        <time>2014-05-21T07:16:16Z</time>
      </trkpt>
      <trkpt lat="44.20077882707119" lon="5.940507911145687">
        <ele>474.20001220703125</ele>
        <time>2014-05-21T07:16:17Z</time>
      </trkpt>
      <trkpt lat="44.200780754908919" lon="5.940595921128988">
        <ele>474.79998779296875</ele>
        <time>2014-05-21T07:16:18Z</time>
      </trkpt>
      <trkpt lat="44.200785448774695" lon="5.94075433909893">
        <ele>476</ele>
        <time>2014-05-21T07:16:20Z</time>
      </trkpt>
      <trkpt lat="44.200789472088218" lon="5.940830446779728">
        <ele>476.39999389648437</ele>
        <time>2014-05-21T07:16:21Z</time>
      </trkpt>
      <trkpt lat="44.200794752687216" lon="5.94097419641912">
        <ele>477.20001220703125</ele>
        <time>2014-05-21T07:16:23Z</time>
      </trkpt>
      <trkpt lat="44.200800368562341" lon="5.941180475056171">
        <ele>478.20001220703125</ele>
        <time>2014-05-21T07:16:26Z</time>
      </trkpt>
      <trkpt lat="44.200800871476531" lon="5.941247111186385">
        <ele>478.60000610351562</ele>
        <time>2014-05-21T07:16:27Z</time>
      </trkpt>
      <trkpt lat="44.200802883133292" lon="5.941506279632449">
        <ele>479.39999389648437</ele>
        <time>2014-05-21T07:16:31Z</time>
      </trkpt>
      <trkpt lat="44.200802966952324" lon="5.941752288490534">
        <ele>480.39999389648437</ele>
        <time>2014-05-21T07:16:35Z</time>
      </trkpt>
      <trkpt lat="44.200803553685546" lon="5.94181171618402">
        <ele>480.60000610351562</ele>
        <time>2014-05-21T07:16:36Z</time>
      </trkpt>
      <trkpt lat="44.200798021629453" lon="5.942113716155291">
        <ele>481.60000610351562</ele>
        <time>2014-05-21T07:16:41Z</time>
      </trkpt>
      <trkpt lat="44.200771618634462" lon="5.942280264571309">
        <ele>482.20001220703125</ele>
        <time>2014-05-21T07:16:44Z</time>
      </trkpt>
      <trkpt lat="44.200683357194066" lon="5.942398197948933">
        <ele>482.79998779296875</ele>
        <time>2014-05-21T07:16:47Z</time>
      </trkpt>
      <trkpt lat="44.200644381344318" lon="5.942429043352604">
        <ele>482.79998779296875</ele>
        <time>2014-05-21T07:16:48Z</time>
      </trkpt>
      <trkpt lat="44.200610350817442" lon="5.942481178790331">
        <ele>482.60000610351562</ele>
        <time>2014-05-21T07:16:49Z</time>
      </trkpt>
      <trkpt lat="44.200556455180049" lon="5.942594837397337">
        <ele>482.60000610351562</ele>
        <time>2014-05-21T07:16:51Z</time>
      </trkpt>
      <trkpt lat="44.200531896203756" lon="5.942789297550917">
        <ele>482.60000610351562</ele>
        <time>2014-05-21T07:16:54Z</time>
      </trkpt>
      <trkpt lat="44.200519490987062" lon="5.942847551777959">
        <ele>482.79998779296875</ele>
        <time>2014-05-21T07:16:55Z</time>
      </trkpt>
      <trkpt lat="44.200488394126296" lon="5.942975962534547">
        <ele>483.20001220703125</ele>
        <time>2014-05-21T07:16:57Z</time>
      </trkpt>
      <trkpt lat="44.200464086607099" lon="5.943158520385623">
        <ele>483.60000610351562</ele>
        <time>2014-05-21T07:17:00Z</time>
      </trkpt>
      <trkpt lat="44.20045729726553" lon="5.943212080746889">
        <ele>484</ele>
        <time>2014-05-21T07:17:01Z</time>
      </trkpt>
      <trkpt lat="44.200408263131976" lon="5.9433963149786">
        <ele>485</ele>
        <time>2014-05-21T07:17:05Z</time>
      </trkpt>
      <trkpt lat="44.20032000169158" lon="5.943581471219659">
        <ele>486.20001220703125</ele>
        <time>2014-05-21T07:17:10Z</time>
      </trkpt>
      <trkpt lat="44.200169630348682" lon="5.943791773170233">
        <ele>487.20001220703125</ele>
        <time>2014-05-21T07:17:16Z</time>
      </trkpt>
      <trkpt lat="44.199996795505285" lon="5.944055635482073">
        <ele>488.20001220703125</ele>
        <time>2014-05-21T07:17:23Z</time>
      </trkpt>
      <trkpt lat="44.199968129396439" lon="5.944094443693757">
        <ele>488.20001220703125</ele>
        <time>2014-05-21T07:17:24Z</time>
      </trkpt>
      <trkpt lat="44.199786745011806" lon="5.944350427016616">
        <ele>488.60000610351562</ele>
        <time>2014-05-21T07:17:30Z</time>
      </trkpt>
      <trkpt lat="44.199669566005468" lon="5.944500463083386">
        <ele>489.39999389648437</ele>
        <time>2014-05-21T07:17:34Z</time>
      </trkpt>
      <trkpt lat="44.199550207704306" lon="5.944641446694732">
        <ele>490</ele>
        <time>2014-05-21T07:17:38Z</time>
      </trkpt>
      <trkpt lat="44.199437303468585" lon="5.944782262668014">
        <ele>490.20001220703125</ele>
        <time>2014-05-21T07:17:42Z</time>
      </trkpt>
      <trkpt lat="44.199397154152393" lon="5.944803301244974">
        <ele>490.39999389648437</ele>
        <time>2014-05-21T07:17:43Z</time>
      </trkpt>
      <trkpt lat="44.199262708425522" lon="5.944853341206908">
        <ele>490.60000610351562</ele>
        <time>2014-05-21T07:17:46Z</time>
      </trkpt>
      <trkpt lat="44.19913362711668" lon="5.94485929235816">
        <ele>490.20001220703125</ele>
        <time>2014-05-21T07:17:49Z</time>
      </trkpt>
      <trkpt lat="44.198885438963771" lon="5.944909835234284">
        <ele>490.20001220703125</ele>
        <time>2014-05-21T07:17:55Z</time>
      </trkpt>
      <trkpt lat="44.198775384575129" lon="5.944951241835952">
        <ele>490</ele>
        <time>2014-05-21T07:17:59Z</time>
      </trkpt>
      <trkpt lat="44.198620403185487" lon="5.945024415850639">
        <ele>490</ele>
        <time>2014-05-21T07:18:05Z</time>
      </trkpt>
      <trkpt lat="44.198455531150103" lon="5.945052830502391">
        <ele>489.39999389648437</ele>
        <time>2014-05-21T07:18:10Z</time>
      </trkpt>
      <trkpt lat="44.198427451774478" lon="5.945058027282357">
        <ele>489.39999389648437</ele>
        <time>2014-05-21T07:18:11Z</time>
      </trkpt>
      <trkpt lat="44.198253024369478" lon="5.945032713934779">
        <ele>489.20001220703125</ele>
        <time>2014-05-21T07:18:17Z</time>
      </trkpt>
      <trkpt lat="44.198038028553128" lon="5.944985607638955">
        <ele>489.39999389648437</ele>
        <time>2014-05-21T07:18:25Z</time>
      </trkpt>
      <trkpt lat="44.197887489572167" lon="5.944962976500392">
        <ele>488.79998779296875</ele>
        <time>2014-05-21T07:18:32Z</time>
      </trkpt>
      <trkpt lat="44.197864942252636" lon="5.944934729486704">
        <ele>489</ele>
        <time>2014-05-21T07:18:33Z</time>
      </trkpt>
      <trkpt lat="44.197802664712071" lon="5.9448969271034">
        <ele>489.60000610351562</ele>
        <time>2014-05-21T07:18:37Z</time>
      </trkpt>
      <trkpt lat="44.197684396058321" lon="5.944862058386207">
        <ele>489.79998779296875</ele>
        <time>2014-05-21T07:18:44Z</time>
      </trkpt>
      <trkpt lat="44.197605438530445" lon="5.944804977625608">
        <ele>490.39999389648437</ele>
        <time>2014-05-21T07:18:48Z</time>
      </trkpt>
      <trkpt lat="44.197551961988211" lon="5.944805312901735">
        <ele>490.39999389648437</ele>
        <time>2014-05-21T07:18:50Z</time>
      </trkpt>
      <trkpt lat="44.197535114362836" lon="5.944820903241634">
        <ele>490.39999389648437</ele>
        <time>2014-05-21T07:18:51Z</time>
      </trkpt>
      <trkpt lat="44.197414917871356" lon="5.944882594048977">
        <ele>490</ele>
        <time>2014-05-21T07:18:58Z</time>
      </trkpt>
      <trkpt lat="44.197337133809924" lon="5.944874966517091">
        <ele>489.20001220703125</ele>
        <time>2014-05-21T07:19:02Z</time>
      </trkpt>
      <trkpt lat="44.197270916774869" lon="5.944876810535789">
        <ele>489.60000610351562</ele>
        <time>2014-05-21T07:19:06Z</time>
      </trkpt>
      <trkpt lat="44.197076372802258" lon="5.944780586287379">
        <ele>489.20001220703125</ele>
        <time>2014-05-21T07:19:13Z</time>
      </trkpt>
      <trkpt lat="44.196979058906436" lon="5.944772120565176">
        <ele>489.20001220703125</ele>
        <time>2014-05-21T07:19:18Z</time>
      </trkpt>
      <trkpt lat="44.1969601996243" lon="5.944755272939801">
        <ele>489.39999389648437</ele>
        <time>2014-05-21T07:19:19Z</time>
      </trkpt>
      <trkpt lat="44.196866154670715" lon="5.944656450301409">
        <ele>489.79998779296875</ele>
        <time>2014-05-21T07:19:27Z</time>
      </trkpt>
      <trkpt lat="44.196785353124142" lon="5.944670531898737">
        <ele>489.39999389648437</ele>
        <time>2014-05-21T07:19:32Z</time>
      </trkpt>
      <trkpt lat="44.196651661768556" lon="5.944683942943811">
        <ele>488.20001220703125</ele>
        <time>2014-05-21T07:19:38Z</time>
      </trkpt>
      <trkpt lat="44.196609333157539" lon="5.944686038419604">
        <ele>487.60000610351562</ele>
        <time>2014-05-21T07:19:40Z</time>
      </trkpt>
      <trkpt lat="44.196572285145521" lon="5.944697186350822">
        <ele>487</ele>
        <time>2014-05-21T07:19:42Z</time>
      </trkpt>
      <trkpt lat="44.196469690650702" lon="5.944722751155496">
        <ele>485.60000610351562</ele>
        <time>2014-05-21T07:19:47Z</time>
      </trkpt>
      <trkpt lat="44.196362905204296" lon="5.944636166095734">
        <ele>484.39999389648437</ele>
        <time>2014-05-21T07:19:52Z</time>
      </trkpt>
      <trkpt lat="44.196181688457727" lon="5.944465762004256">
        <ele>484.39999389648437</ele>
        <time>2014-05-21T07:20:00Z</time>
      </trkpt>
      <trkpt lat="44.19597121886909" lon="5.944161331281066">
        <ele>489</ele>
        <time>2014-05-21T07:20:32Z</time>
      </trkpt>
      <trkpt lat="44.19594774954021" lon="5.94414590857923">
        <ele>489.20001220703125</ele>
        <time>2014-05-21T07:20:33Z</time>
      </trkpt>
      <trkpt lat="44.195893686264753" lon="5.944173149764538">
        <ele>490.60000610351562</ele>
        <time>2014-05-21T07:20:35Z</time>
      </trkpt>
      <trkpt lat="44.195814309641719" lon="5.944176334887743">
        <ele>490.79998779296875</ele>
        <time>2014-05-21T07:20:37Z</time>
      </trkpt>
      <trkpt lat="44.195709452033043" lon="5.944120511412621">
        <ele>491.79998779296875</ele>
        <time>2014-05-21T07:20:40Z</time>
      </trkpt>
      <trkpt lat="44.195681624114513" lon="5.94409896992147">
        <ele>492</ele>
        <time>2014-05-21T07:20:41Z</time>
      </trkpt>
      <trkpt lat="44.195659412071109" lon="5.944079020991921">
        <ele>492.20001220703125</ele>
        <time>2014-05-21T07:20:42Z</time>
      </trkpt>
      <trkpt lat="44.195594536140561" lon="5.943962680175901">
        <ele>492.20001220703125</ele>
        <time>2014-05-21T07:20:46Z</time>
      </trkpt>
      <trkpt lat="44.195568300783634" lon="5.944036357104778">
        <ele>492.39999389648437</ele>
        <time>2014-05-21T07:20:47Z</time>
      </trkpt>
      <trkpt lat="44.195521110668778" lon="5.944034932181239">
        <ele>492.79998779296875</ele>
        <time>2014-05-21T07:20:51Z</time>
      </trkpt>
      <trkpt lat="44.195511303842068" lon="5.944043146446347">
        <ele>493.20001220703125</ele>
        <time>2014-05-21T07:20:52Z</time>
      </trkpt>
      <trkpt lat="44.195568384602666" lon="5.943963099271059">
        <ele>493.20001220703125</ele>
        <time>2014-05-21T07:21:26Z</time>
      </trkpt>
      <trkpt lat="44.195603337138891" lon="5.943898390978575">
        <ele>493.20001220703125</ele>
        <time>2014-05-21T07:21:28Z</time>
      </trkpt>
      <trkpt lat="44.19559495523572" lon="5.943806692957878">
        <ele>493.39999389648437</ele>
        <time>2014-05-21T07:21:31Z</time>
      </trkpt>
      <trkpt lat="44.195588165894151" lon="5.943733099848032">
        <ele>493.60000610351562</ele>
        <time>2014-05-21T07:21:33Z</time>
      </trkpt>
      <trkpt lat="44.195562181994319" lon="5.943552805110812">
        <ele>494</ele>
        <time>2014-05-21T07:21:39Z</time>
      </trkpt>
      <trkpt lat="44.195551369339228" lon="5.943521959707141">
        <ele>494.20001220703125</ele>
        <time>2014-05-21T07:21:40Z</time>
      </trkpt>
      <trkpt lat="44.195498060435057" lon="5.943351723253727">
        <ele>494.39999389648437</ele>
        <time>2014-05-21T07:21:45Z</time>
      </trkpt>
      <trkpt lat="44.195489678531885" lon="5.943327248096466">
        <ele>494.60000610351562</ele>
        <time>2014-05-21T07:21:46Z</time>
      </trkpt>
      <trkpt lat="44.195433100685477" lon="5.943305287510157">
        <ele>494.60000610351562</ele>
        <time>2014-05-21T07:21:49Z</time>
      </trkpt>
      <trkpt lat="44.195320280268788" lon="5.943344430997968">
        <ele>494.39999389648437</ele>
        <time>2014-05-21T07:21:53Z</time>
      </trkpt>
      <trkpt lat="44.195286082103848" lon="5.9433479513973">
        <ele>494.39999389648437</ele>
        <time>2014-05-21T07:21:54Z</time>
      </trkpt>
      <trkpt lat="44.195137973874807" lon="5.943461861461401">
        <ele>493.79998779296875</ele>
        <time>2014-05-21T07:21:59Z</time>
      </trkpt>
      <trkpt lat="44.195124311372638" lon="5.94350921921432">
        <ele>493.60000610351562</ele>
        <time>2014-05-21T07:22:00Z</time>
      </trkpt>
      <trkpt lat="44.195106793195009" lon="5.943622794002295">
        <ele>493.39999389648437</ele>
        <time>2014-05-21T07:22:02Z</time>
      </trkpt>
      <trkpt lat="44.195069829002023" lon="5.943879196420312">
        <ele>492.79998779296875</ele>
        <time>2014-05-21T07:22:06Z</time>
      </trkpt>
      <trkpt lat="44.195041917264462" lon="5.944022610783577">
        <ele>492.20001220703125</ele>
        <time>2014-05-21T07:22:08Z</time>
      </trkpt>
      <trkpt lat="44.195027416571975" lon="5.944162588566542">
        <ele>491.79998779296875</ele>
        <time>2014-05-21T07:22:10Z</time>
      </trkpt>
      <trkpt lat="44.194999085739255" lon="5.944324778392911">
        <ele>491.20001220703125</ele>
        <time>2014-05-21T07:22:13Z</time>
      </trkpt>
      <trkpt lat="44.194976957514882" lon="5.944431480020285">
        <ele>490.79998779296875</ele>
        <time>2014-05-21T07:22:15Z</time>
      </trkpt>
      <trkpt lat="44.194944184273481" lon="5.944618145003915">
        <ele>489.60000610351562</ele>
        <time>2014-05-21T07:22:18Z</time>
      </trkpt>
      <trkpt lat="44.194922642782331" lon="5.944677824154496">
        <ele>489.39999389648437</ele>
        <time>2014-05-21T07:22:19Z</time>
      </trkpt>
      <trkpt lat="44.194836895912886" lon="5.944766504690051">
        <ele>488.60000610351562</ele>
        <time>2014-05-21T07:22:21Z</time>
      </trkpt>
      <trkpt lat="44.194782329723239" lon="5.944786369800568">
        <ele>488.39999389648437</ele>
        <time>2014-05-21T07:22:22Z</time>
      </trkpt>
      <trkpt lat="44.194637658074498" lon="5.944778574630618">
        <ele>488.20001220703125</ele>
        <time>2014-05-21T07:22:25Z</time>
      </trkpt>
      <trkpt lat="44.194592479616404" lon="5.944778406992555">
        <ele>488.20001220703125</ele>
        <time>2014-05-21T07:22:26Z</time>
      </trkpt>
      <trkpt lat="44.194323336705565" lon="5.944776898249984">
        <ele>488.39999389648437</ele>
        <time>2014-05-21T07:22:33Z</time>
      </trkpt>
      <trkpt lat="44.194269441068172" lon="5.944807073101401">
        <ele>488.60000610351562</ele>
        <time>2014-05-21T07:22:37Z</time>
      </trkpt>
      <trkpt lat="44.194218730553985" lon="5.944840181618929">
        <ele>488.79998779296875</ele>
        <time>2014-05-21T07:22:51Z</time>
      </trkpt>
      <trkpt lat="44.194185705855489" lon="5.944837415590882">
        <ele>488.79998779296875</ele>
        <time>2014-05-21T07:22:53Z</time>
      </trkpt>
      <trkpt lat="44.194065928459167" lon="5.944846719503403">
        <ele>488.60000610351562</ele>
        <time>2014-05-21T07:22:58Z</time>
      </trkpt>
      <trkpt lat="44.193893680348992" lon="5.944929951801896">
        <ele>488.20001220703125</ele>
        <time>2014-05-21T07:23:03Z</time>
      </trkpt>
      <trkpt lat="44.193734927102923" lon="5.944958282634616">
        <ele>487.39999389648437</ele>
        <time>2014-05-21T07:23:07Z</time>
      </trkpt>
      <trkpt lat="44.193638535216451" lon="5.94498292542994">
        <ele>486.79998779296875</ele>
        <time>2014-05-21T07:23:09Z</time>
      </trkpt>
      <trkpt lat="44.193542897701263" lon="5.945020308718085">
        <ele>486.20001220703125</ele>
        <time>2014-05-21T07:23:11Z</time>
      </trkpt>
      <trkpt lat="44.19344893656671" lon="5.94507185742259">
        <ele>485.79998779296875</ele>
        <time>2014-05-21T07:23:13Z</time>
      </trkpt>
      <trkpt lat="44.193352041766047" lon="5.945141678676009">
        <ele>485.20001220703125</ele>
        <time>2014-05-21T07:23:15Z</time>
      </trkpt>
      <trkpt lat="44.193303007632494" lon="5.945179229602218">
        <ele>484.79998779296875</ele>
        <time>2014-05-21T07:23:16Z</time>
      </trkpt>
      <trkpt lat="44.193255482241511" lon="5.945228347554803">
        <ele>484.60000610351562</ele>
        <time>2014-05-21T07:23:17Z</time>
      </trkpt>
      <trkpt lat="44.193158252164721" lon="5.945345610380173">
        <ele>483.79998779296875</ele>
        <time>2014-05-21T07:23:19Z</time>
      </trkpt>
      <trkpt lat="44.193109218031168" lon="5.945406127721071">
        <ele>483.39999389648437</ele>
        <time>2014-05-21T07:23:20Z</time>
      </trkpt>
      <trkpt lat="44.192815599963069" lon="5.945733273401856">
        <ele>483.20001220703125</ele>
        <time>2014-05-21T07:23:26Z</time>
      </trkpt>
      <trkpt lat="44.192728009074926" lon="5.945824887603521">
        <ele>483.20001220703125</ele>
        <time>2014-05-21T07:23:28Z</time>
      </trkpt>
      <trkpt lat="44.192543355748057" lon="5.945983557030559">
        <ele>483.39999389648437</ele>
        <time>2014-05-21T07:23:32Z</time>
      </trkpt>
      <trkpt lat="44.1922820918262" lon="5.946263344958425">
        <ele>483.39999389648437</ele>
        <time>2014-05-21T07:23:38Z</time>
      </trkpt>
      <trkpt lat="44.192244289442897" lon="5.946314474567771">
        <ele>483.39999389648437</ele>
        <time>2014-05-21T07:23:39Z</time>
      </trkpt>
      <trkpt lat="44.192082518711686" lon="5.94657288864255">
        <ele>484.20001220703125</ele>
        <time>2014-05-21T07:23:44Z</time>
      </trkpt>
      <trkpt lat="44.191915886476636" lon="5.946999024599791">
        <ele>484.79998779296875</ele>
        <time>2014-05-21T07:23:51Z</time>
      </trkpt>
      <trkpt lat="44.191876323893666" lon="5.947128022089601">
        <ele>484.79998779296875</ele>
        <time>2014-05-21T07:23:53Z</time>
      </trkpt>
      <trkpt lat="44.191807843744755" lon="5.947302281856537">
        <ele>485</ele>
        <time>2014-05-21T07:23:56Z</time>
      </trkpt>
      <trkpt lat="44.191767107695341" lon="5.947333797812462">
        <ele>485.20001220703125</ele>
        <time>2014-05-21T07:23:57Z</time>
      </trkpt>
      <trkpt lat="44.19159259647131" lon="5.94740848056972">
        <ele>485.79998779296875</ele>
        <time>2014-05-21T07:24:01Z</time>
      </trkpt>
      <trkpt lat="44.191303756088018" lon="5.947536136955023">
        <ele>486</ele>
        <time>2014-05-21T07:24:07Z</time>
      </trkpt>
      <trkpt lat="44.190975017845631" lon="5.947653986513615">
        <ele>485</ele>
        <time>2014-05-21T07:24:13Z</time>
      </trkpt>
      <trkpt lat="44.190569585189223" lon="5.947823720052838">
        <ele>485</ele>
        <time>2014-05-21T07:24:20Z</time>
      </trkpt>
      <trkpt lat="44.190507894381881" lon="5.947836376726627">
        <ele>485</ele>
        <time>2014-05-21T07:24:21Z</time>
      </trkpt>
      <trkpt lat="44.190262975171208" lon="5.947824222967029">
        <ele>484.79998779296875</ele>
        <time>2014-05-21T07:24:25Z</time>
      </trkpt>
      <trkpt lat="44.190201535820961" lon="5.947819529101253">
        <ele>484.79998779296875</ele>
        <time>2014-05-21T07:24:26Z</time>
      </trkpt>
      <trkpt lat="44.189955359324813" lon="5.947791114449501">
        <ele>484.20001220703125</ele>
        <time>2014-05-21T07:24:30Z</time>
      </trkpt>
      <trkpt lat="44.189834911376238" lon="5.947788096964359">
        <ele>484.60000610351562</ele>
        <time>2014-05-21T07:24:32Z</time>
      </trkpt>
      <trkpt lat="44.189480356872082" lon="5.947735207155347">
        <ele>485.20001220703125</ele>
        <time>2014-05-21T07:24:38Z</time>
      </trkpt>
      <trkpt lat="44.189031254500151" lon="5.947630098089576">
        <ele>485.60000610351562</ele>
        <time>2014-05-21T07:24:46Z</time>
      </trkpt>
      <trkpt lat="44.188914662227035" lon="5.947643173858523">
        <ele>485.60000610351562</ele>
        <time>2014-05-21T07:24:48Z</time>
      </trkpt>
      <trkpt lat="44.188741911202669" lon="5.947713833302259">
        <ele>485.79998779296875</ele>
        <time>2014-05-21T07:24:51Z</time>
      </trkpt>
      <trkpt lat="44.188264477998018" lon="5.947978449985385">
        <ele>485.20001220703125</ele>
        <time>2014-05-21T07:24:59Z</time>
      </trkpt>
      <trkpt lat="44.187838761135936" lon="5.948205515742302">
        <ele>485</ele>
        <time>2014-05-21T07:25:06Z</time>
      </trkpt>
      <trkpt lat="44.187653185799718" lon="5.948300482705236">
        <ele>484.79998779296875</ele>
        <time>2014-05-21T07:25:09Z</time>
      </trkpt>
      <trkpt lat="44.187394352629781" lon="5.948430737480521">
        <ele>484.60000610351562</ele>
        <time>2014-05-21T07:25:13Z</time>
      </trkpt>
      <trkpt lat="44.186924127861857" lon="5.948659898713231">
        <ele>483.79998779296875</ele>
        <time>2014-05-21T07:25:20Z</time>
      </trkpt>
      <trkpt lat="44.186659259721637" lon="5.948780598118901">
        <ele>483.79998779296875</ele>
        <time>2014-05-21T07:25:24Z</time>
      </trkpt>
      <trkpt lat="44.186528082937002" lon="5.94883524812758">
        <ele>483.60000610351562</ele>
        <time>2014-05-21T07:25:26Z</time>
      </trkpt>
      <trkpt lat="44.186057606711984" lon="5.949023840948939">
        <ele>483.60000610351562</ele>
        <time>2014-05-21T07:25:33Z</time>
      </trkpt>
      <trkpt lat="44.185490654781461" lon="5.949234729632735">
        <ele>483.20001220703125</ele>
        <time>2014-05-21T07:25:41Z</time>
      </trkpt>
      <trkpt lat="44.185288902372122" lon="5.949309077113867">
        <ele>483.60000610351562</ele>
        <time>2014-05-21T07:25:44Z</time>
      </trkpt>
      <trkpt lat="44.18510215356946" lon="5.949362134560943">
        <ele>484.79998779296875</ele>
        <time>2014-05-21T07:25:47Z</time>
      </trkpt>
      <trkpt lat="44.184878608211875" lon="5.94942893832922">
        <ele>485.79998779296875</ele>
        <time>2014-05-21T07:25:51Z</time>
      </trkpt>
      <trkpt lat="44.184494549408555" lon="5.949543016031385">
        <ele>486.79998779296875</ele>
        <time>2014-05-21T07:25:58Z</time>
      </trkpt>
      <trkpt lat="44.184047961607575" lon="5.949638150632381">
        <ele>486.60000610351562</ele>
        <time>2014-05-21T07:26:06Z</time>
      </trkpt>
      <trkpt lat="44.183935476467013" lon="5.949675282463431">
        <ele>486.79998779296875</ele>
        <time>2014-05-21T07:26:08Z</time>
      </trkpt>
      <trkpt lat="44.183661555871367" lon="5.94972163438797">
        <ele>486.79998779296875</ele>
        <time>2014-05-21T07:26:13Z</time>
      </trkpt>
      <trkpt lat="44.183138608932495" lon="5.949826659634709">
        <ele>487</ele>
        <time>2014-05-21T07:26:22Z</time>
      </trkpt>
      <trkpt lat="44.182744910940528" lon="5.949885081499815">
        <ele>487.60000610351562</ele>
        <time>2014-05-21T07:26:29Z</time>
      </trkpt>
      <trkpt lat="44.182377615943551" lon="5.949923889711499">
        <ele>487.39999389648437</ele>
        <time>2014-05-21T07:26:36Z</time>
      </trkpt>
      <trkpt lat="44.181909738108516" lon="5.949951382353902">
        <ele>487.60000610351562</ele>
        <time>2014-05-21T07:26:44Z</time>
      </trkpt>
      <trkpt lat="44.181439513340592" lon="5.949966050684452">
        <ele>487.39999389648437</ele>
        <time>2014-05-21T07:26:52Z</time>
      </trkpt>
      <trkpt lat="44.180916231125593" lon="5.949959009885788">
        <ele>486.60000610351562</ele>
        <time>2014-05-21T07:27:00Z</time>
      </trkpt>
      <trkpt lat="44.18031751178205" lon="5.94993612729013">
        <ele>486.39999389648437</ele>
        <time>2014-05-21T07:27:09Z</time>
      </trkpt>
      <trkpt lat="44.180251881480217" lon="5.949930679053068">
        <ele>486.39999389648437</ele>
        <time>2014-05-21T07:27:10Z</time>
      </trkpt>
      <trkpt lat="44.179772604256868" lon="5.949890026822686">
        <ele>486.39999389648437</ele>
        <time>2014-05-21T07:27:18Z</time>
      </trkpt>
      <trkpt lat="44.179558614268899" lon="5.949875358492136">
        <ele>486.20001220703125</ele>
        <time>2014-05-21T07:27:22Z</time>
      </trkpt>
      <trkpt lat="44.179407907649875" lon="5.94987309537828">
        <ele>486.20001220703125</ele>
        <time>2014-05-21T07:27:25Z</time>
      </trkpt>
      <trkpt lat="44.178986214101315" lon="5.949873682111502">
        <ele>486</ele>
        <time>2014-05-21T07:27:33Z</time>
      </trkpt>
      <trkpt lat="44.178881607949734" lon="5.949856247752905">
        <ele>486</ele>
        <time>2014-05-21T07:27:35Z</time>
      </trkpt>
      <trkpt lat="44.178711120039225" lon="5.949783492833376">
        <ele>486.39999389648437</ele>
        <time>2014-05-21T07:27:39Z</time>
      </trkpt>
      <trkpt lat="44.178524119779468" lon="5.94975826330483">
        <ele>487</ele>
        <time>2014-05-21T07:27:44Z</time>
      </trkpt>
      <trkpt lat="44.178223125636578" lon="5.949683329090476">
        <ele>486.20001220703125</ele>
        <time>2014-05-21T07:27:50Z</time>
      </trkpt>
      <trkpt lat="44.177938476204872" lon="5.949649382382631">
        <ele>485.79998779296875</ele>
        <time>2014-05-21T07:27:55Z</time>
      </trkpt>
      <trkpt lat="44.177761282771826" lon="5.949612250551581">
        <ele>485.79998779296875</ele>
        <time>2014-05-21T07:27:58Z</time>
      </trkpt>
      <trkpt lat="44.177351072430611" lon="5.949543099850416">
        <ele>485.60000610351562</ele>
        <time>2014-05-21T07:28:05Z</time>
      </trkpt>
      <trkpt lat="44.177115876227617" lon="5.949493311345577">
        <ele>484.79998779296875</ele>
        <time>2014-05-21T07:28:09Z</time>
      </trkpt>
      <trkpt lat="44.176893336698413" lon="5.949447797611356">
        <ele>483.79998779296875</ele>
        <time>2014-05-21T07:28:13Z</time>
      </trkpt>
      <trkpt lat="44.1767075099051" lon="5.949400356039405">
        <ele>482.20001220703125</ele>
        <time>2014-05-21T07:28:17Z</time>
      </trkpt>
      <trkpt lat="44.176612040027976" lon="5.949362888932228">
        <ele>480.79998779296875</ele>
        <time>2014-05-21T07:28:19Z</time>
      </trkpt>
      <trkpt lat="44.176471391692758" lon="5.949292061850429">
        <ele>479.39999389648437</ele>
        <time>2014-05-21T07:28:22Z</time>
      </trkpt>
      <trkpt lat="44.176421854645014" lon="5.949278986081481">
        <ele>479</ele>
        <time>2014-05-21T07:28:23Z</time>
      </trkpt>
      <trkpt lat="44.176330659538507" lon="5.949252834543586">
        <ele>478</ele>
        <time>2014-05-21T07:28:25Z</time>
      </trkpt>
      <trkpt lat="44.176164446398616" lon="5.949211260303855">
        <ele>477</ele>
        <time>2014-05-21T07:28:28Z</time>
      </trkpt>
      <trkpt lat="44.176053972914815" lon="5.949204135686159">
        <ele>476.39999389648437</ele>
        <time>2014-05-21T07:28:30Z</time>
      </trkpt>
      <trkpt lat="44.175904775038362" lon="5.949246548116207">
        <ele>476.20001220703125</ele>
        <time>2014-05-21T07:28:33Z</time>
      </trkpt>
      <trkpt lat="44.175866637378931" lon="5.949281416833401">
        <ele>475.79998779296875</ele>
        <time>2014-05-21T07:28:34Z</time>
      </trkpt>
      <trkpt lat="44.17582699097693" lon="5.949320644140244">
        <ele>474.79998779296875</ele>
        <time>2014-05-21T07:28:35Z</time>
      </trkpt>
      <trkpt lat="44.175751302391291" lon="5.949437404051423">
        <ele>472.79998779296875</ele>
        <time>2014-05-21T07:28:37Z</time>
      </trkpt>
      <trkpt lat="44.175717942416668" lon="5.949509991332889">
        <ele>471.60000610351562</ele>
        <time>2014-05-21T07:28:38Z</time>
      </trkpt>
      <trkpt lat="44.175695478916168" lon="5.949592469260097">
        <ele>470.60000610351562</ele>
        <time>2014-05-21T07:28:39Z</time>
      </trkpt>
      <trkpt lat="44.175651054829359" lon="5.94975583255291">
        <ele>469.20001220703125</ele>
        <time>2014-05-21T07:28:41Z</time>
      </trkpt>
      <trkpt lat="44.175569163635373" lon="5.950048109516501">
        <ele>470</ele>
        <time>2014-05-21T07:28:46Z</time>
      </trkpt>
      <trkpt lat="44.175559105351567" lon="5.950079541653395">
        <ele>470.39999389648437</ele>
        <time>2014-05-21T07:28:47Z</time>
      </trkpt>
      <trkpt lat="44.175535049289465" lon="5.950096556916833">
        <ele>470.79998779296875</ele>
        <time>2014-05-21T07:28:48Z</time>
      </trkpt>
      <trkpt lat="44.175506383180618" lon="5.950088426470757">
        <ele>471</ele>
        <time>2014-05-21T07:28:49Z</time>
      </trkpt>
      <trkpt lat="44.17547520250082" lon="5.950004775077105">
        <ele>471.39999389648437</ele>
        <time>2014-05-21T07:28:52Z</time>
      </trkpt>
      <trkpt lat="44.175472687929869" lon="5.949965380132198">
        <ele>471.39999389648437</ele>
        <time>2014-05-21T07:28:53Z</time>
      </trkpt>
      <trkpt lat="44.175442513078451" lon="5.949845602735877">
        <ele>471.79998779296875</ele>
        <time>2014-05-21T07:28:56Z</time>
      </trkpt>
      <trkpt lat="44.175415355712175" lon="5.949756251648068">
        <ele>472</ele>
        <time>2014-05-21T07:28:58Z</time>
      </trkpt>
      <trkpt lat="44.1753139346838" lon="5.94957553781569">
        <ele>472.60000610351562</ele>
        <time>2014-05-21T07:29:02Z</time>
      </trkpt>
      <trkpt lat="44.175285520032048" lon="5.949536729604006">
        <ele>472.60000610351562</ele>
        <time>2014-05-21T07:29:03Z</time>
      </trkpt>
      <trkpt lat="44.175157696008682" lon="5.949399434030056">
        <ele>473.60000610351562</ele>
        <time>2014-05-21T07:29:07Z</time>
      </trkpt>
      <trkpt lat="44.175084438174963" lon="5.949340173974633">
        <ele>474.20001220703125</ele>
        <time>2014-05-21T07:29:09Z</time>
      </trkpt>
      <trkpt lat="44.175047725439072" lon="5.949314776808024">
        <ele>474.39999389648437</ele>
        <time>2014-05-21T07:29:10Z</time>
      </trkpt>
      <trkpt lat="44.174970695748925" lon="5.949272280558944">
        <ele>474.60000610351562</ele>
        <time>2014-05-21T07:29:12Z</time>
      </trkpt>
      <trkpt lat="44.174765422940254" lon="5.949228946119547">
        <ele>475.60000610351562</ele>
        <time>2014-05-21T07:29:17Z</time>
      </trkpt>
      <trkpt lat="44.174725692719221" lon="5.949225006625056">
        <ele>475.79998779296875</ele>
        <time>2014-05-21T07:29:18Z</time>
      </trkpt>
      <trkpt lat="44.174450347200036" lon="5.949223749339581">
        <ele>476.79998779296875</ele>
        <time>2014-05-21T07:29:25Z</time>
      </trkpt>
      <trkpt lat="44.174261502921581" lon="5.949226766824722">
        <ele>478</ele>
        <time>2014-05-21T07:29:30Z</time>
      </trkpt>
      <trkpt lat="44.174154130741954" lon="5.94920321367681">
        <ele>478.39999389648438</ele>
        <time>2014-05-21T07:29:33Z</time>
      </trkpt>
      <trkpt lat="44.174008788540959" lon="5.949162561446428">
        <ele>479.20001220703125</ele>
        <time>2014-05-21T07:29:37Z</time>
      </trkpt>
      <trkpt lat="44.173874678090215" lon="5.949099780991674">
        <ele>480</ele>
        <time>2014-05-21T07:29:41Z</time>
      </trkpt>
      <trkpt lat="44.173816256225109" lon="5.949052255600691">
        <ele>480.20001220703125</ele>
        <time>2014-05-21T07:29:43Z</time>
      </trkpt>
      <trkpt lat="44.173639230430126" lon="5.948896687477827">
        <ele>481.20001220703125</ele>
        <time>2014-05-21T07:29:49Z</time>
      </trkpt>
      <trkpt lat="44.173607211560011" lon="5.948867350816727">
        <ele>481.20001220703125</ele>
        <time>2014-05-21T07:29:50Z</time>
      </trkpt>
      <trkpt lat="44.173469329252839" lon="5.948645062744618">
        <ele>481.60000610351562</ele>
        <time>2014-05-21T07:29:56Z</time>
      </trkpt>
      <trkpt lat="44.17348894290626" lon="5.948488069698215">
        <ele>482.20001220703125</ele>
        <time>2014-05-21T07:29:59Z</time>
      </trkpt>
      <trkpt lat="44.173493469133973" lon="5.94842872582376">
        <ele>482.20001220703125</ele>
        <time>2014-05-21T07:30:00Z</time>
      </trkpt>
      <trkpt lat="44.1733970772475" lon="5.948204761371017">
        <ele>481.39999389648438</ele>
        <time>2014-05-21T07:30:04Z</time>
      </trkpt>
      <trkpt lat="44.173238826915622" lon="5.948187913745642">
        <ele>481.79998779296875</ele>
        <time>2014-05-21T07:30:07Z</time>
      </trkpt>
      <trkpt lat="44.173130616545677" lon="5.948238875716925">
        <ele>481.39999389648438</ele>
        <time>2014-05-21T07:30:09Z</time>
      </trkpt>
      <trkpt lat="44.173074709251523" lon="5.948254382237792">
        <ele>481.20001220703125</ele>
        <time>2014-05-21T07:30:10Z</time>
      </trkpt>
      <trkpt lat="44.17301838286221" lon="5.948257148265839">
        <ele>481.20001220703125</ele>
        <time>2014-05-21T07:30:11Z</time>
      </trkpt>
      <trkpt lat="44.172668606042862" lon="5.948216244578362">
        <ele>481.20001220703125</ele>
        <time>2014-05-21T07:30:17Z</time>
      </trkpt>
      <trkpt lat="44.172120010480285" lon="5.948187997564673">
        <ele>481.20001220703125</ele>
        <time>2014-05-21T07:30:26Z</time>
      </trkpt>
      <trkpt lat="44.171647019684315" lon="5.948263769969344">
        <ele>481</ele>
        <time>2014-05-21T07:30:33Z</time>
      </trkpt>
      <trkpt lat="44.171302188187838" lon="5.948372231796384">
        <ele>480.20001220703125</ele>
        <time>2014-05-21T07:30:38Z</time>
      </trkpt>
      <trkpt lat="44.171024411916733" lon="5.948474910110235">
        <ele>479.79998779296875</ele>
        <time>2014-05-21T07:30:42Z</time>
      </trkpt>
      <trkpt lat="44.170953501015902" lon="5.948499385267496">
        <ele>479</ele>
        <time>2014-05-21T07:30:43Z</time>
      </trkpt>
      <trkpt lat="44.170361654832959" lon="5.948692755773664">
        <ele>478.79998779296875</ele>
        <time>2014-05-21T07:30:51Z</time>
      </trkpt>
      <trkpt lat="44.169892771169543" lon="5.948855532333255">
        <ele>477.79998779296875</ele>
        <time>2014-05-21T07:30:57Z</time>
      </trkpt>
      <trkpt lat="44.169812556356192" lon="5.948888892307878">
        <ele>477.79998779296875</ele>
        <time>2014-05-21T07:30:58Z</time>
      </trkpt>
      <trkpt lat="44.16927301324904" lon="5.949070695787668">
        <ele>477.79998779296875</ele>
        <time>2014-05-21T07:31:05Z</time>
      </trkpt>
      <trkpt lat="44.168705809861422" lon="5.949271693825722">
        <ele>478.39999389648438</ele>
        <time>2014-05-21T07:31:13Z</time>
      </trkpt>
      <trkpt lat="44.168127877637744" lon="5.94945190474391">
        <ele>477.39999389648437</ele>
        <time>2014-05-21T07:31:21Z</time>
      </trkpt>
      <trkpt lat="44.168050931766629" lon="5.949476128444076">
        <ele>477</ele>
        <time>2014-05-21T07:31:22Z</time>
      </trkpt>
      <trkpt lat="44.16797230951488" lon="5.949500855058432">
        <ele>476.60000610351562</ele>
        <time>2014-05-21T07:31:23Z</time>
      </trkpt>
      <trkpt lat="44.167727725580335" lon="5.949593307450414">
        <ele>475.39999389648437</ele>
        <time>2014-05-21T07:31:26Z</time>
      </trkpt>
      <trkpt lat="44.167480710893869" lon="5.949673773720861">
        <ele>474.60000610351562</ele>
        <time>2014-05-21T07:31:29Z</time>
      </trkpt>
      <trkpt lat="44.167226320132613" lon="5.949758682399988">
        <ele>474.39999389648437</ele>
        <time>2014-05-21T07:31:32Z</time>
      </trkpt>
      <trkpt lat="44.166962960734963" lon="5.949819954112172">
        <ele>473.20001220703125</ele>
        <time>2014-05-21T07:31:35Z</time>
      </trkpt>
      <trkpt lat="44.166783839464188" lon="5.94983302988112">
        <ele>472.39999389648437</ele>
        <time>2014-05-21T07:31:37Z</time>
      </trkpt>
      <trkpt lat="44.166694236919284" lon="5.949839232489467">
        <ele>472</ele>
        <time>2014-05-21T07:31:38Z</time>
      </trkpt>
      <trkpt lat="44.166328953579068" lon="5.949833365157247">
        <ele>470.60000610351562</ele>
        <time>2014-05-21T07:31:42Z</time>
      </trkpt>
      <trkpt lat="44.166144216433167" lon="5.949830850586295">
        <ele>469.39999389648437</ele>
        <time>2014-05-21T07:31:44Z</time>
      </trkpt>
      <trkpt lat="44.165956042706966" lon="5.949835712090135">
        <ele>468.79998779296875</ele>
        <time>2014-05-21T07:31:46Z</time>
      </trkpt>
      <trkpt lat="44.165861662477255" lon="5.949838645756245">
        <ele>468.20001220703125</ele>
        <time>2014-05-21T07:31:47Z</time>
      </trkpt>
      <trkpt lat="44.165567792952061" lon="5.94984132796526">
        <ele>467</ele>
        <time>2014-05-21T07:31:50Z</time>
      </trkpt>
      <trkpt lat="44.165367800742388" lon="5.949844177812338">
        <ele>466</ele>
        <time>2014-05-21T07:31:52Z</time>
      </trkpt>
      <trkpt lat="44.165266798809171" lon="5.949847027659416">
        <ele>464.79998779296875</ele>
        <time>2014-05-21T07:31:53Z</time>
      </trkpt>
      <trkpt lat="44.165166215971112" lon="5.949845099821687">
        <ele>464</ele>
        <time>2014-05-21T07:31:54Z</time>
      </trkpt>
      <trkpt lat="44.165063956752419" lon="5.949843591079116">
        <ele>463.20001220703125</ele>
        <time>2014-05-21T07:31:55Z</time>
      </trkpt>
      <trkpt lat="44.164546877145767" lon="5.949838059023023">
        <ele>461.79998779296875</ele>
        <time>2014-05-21T07:32:00Z</time>
      </trkpt>
      <trkpt lat="44.164338083937764" lon="5.949841411784291">
        <ele>461</ele>
        <time>2014-05-21T07:32:02Z</time>
      </trkpt>
      <trkpt lat="44.164234064519405" lon="5.949849542230368">
        <ele>460.79998779296875</ele>
        <time>2014-05-21T07:32:03Z</time>
      </trkpt>
      <trkpt lat="44.163924939930439" lon="5.949843926355243">
        <ele>459.39999389648437</ele>
        <time>2014-05-21T07:32:06Z</time>
      </trkpt>
      <trkpt lat="44.163718828931451" lon="5.949852475896478">
        <ele>458.39999389648438</ele>
        <time>2014-05-21T07:32:08Z</time>
      </trkpt>
      <trkpt lat="44.163097646087408" lon="5.949881058186293">
        <ele>457.79998779296875</ele>
        <time>2014-05-21T07:32:14Z</time>
      </trkpt>
      <trkpt lat="44.162889439612627" lon="5.949885249137878">
        <ele>457.60000610351562</ele>
        <time>2014-05-21T07:32:16Z</time>
      </trkpt>
      <trkpt lat="44.16278793476522" lon="5.949888098984957">
        <ele>457.20001220703125</ele>
        <time>2014-05-21T07:32:17Z</time>
      </trkpt>
      <trkpt lat="44.162313519045711" lon="5.94989606179297">
        <ele>458.20001220703125</ele>
        <time>2014-05-21T07:32:22Z</time>
      </trkpt>
      <trkpt lat="44.162226766347885" lon="5.949895223602653">
        <ele>458.79998779296875</ele>
        <time>2014-05-21T07:32:23Z</time>
      </trkpt>
      <trkpt lat="44.16207111440599" lon="5.949891367927194">
        <ele>460.20001220703125</ele>
        <time>2014-05-21T07:32:25Z</time>
      </trkpt>
      <trkpt lat="44.161926610395312" lon="5.949894469231367">
        <ele>461</ele>
        <time>2014-05-21T07:32:27Z</time>
      </trkpt>
      <trkpt lat="44.161861231550574" lon="5.949892709031701">
        <ele>461.60000610351562</ele>
        <time>2014-05-21T07:32:28Z</time>
      </trkpt>
      <trkpt lat="44.161686468869448" lon="5.949898157268763">
        <ele>462.79998779296875</ele>
        <time>2014-05-21T07:32:31Z</time>
      </trkpt>
      <trkpt lat="44.161631735041738" lon="5.949910646304488">
        <ele>463</ele>
        <time>2014-05-21T07:32:32Z</time>
      </trkpt>
      <trkpt lat="44.16147205978632" lon="5.949986167252064">
        <ele>464</ele>
        <time>2014-05-21T07:32:35Z</time>
      </trkpt>
      <trkpt lat="44.161272067576647" lon="5.950084822252393">
        <ele>464.79998779296875</ele>
        <time>2014-05-21T07:32:39Z</time>
      </trkpt>
      <trkpt lat="44.161224458366632" lon="5.950103597715497">
        <ele>465</ele>
        <time>2014-05-21T07:32:40Z</time>
      </trkpt>
      <trkpt lat="44.160951627418399" lon="5.9502122271806">
        <ele>466</ele>
        <time>2014-05-21T07:32:46Z</time>
      </trkpt>
      <trkpt lat="44.160904353484511" lon="5.950229996815324">
        <ele>466.39999389648437</ele>
        <time>2014-05-21T07:32:47Z</time>
      </trkpt>
      <trkpt lat="44.16062431409955" lon="5.950337117537856">
        <ele>467.39999389648437</ele>
        <time>2014-05-21T07:32:53Z</time>
      </trkpt>
      <trkpt lat="44.160528257489204" lon="5.950369471684098">
        <ele>467.79998779296875</ele>
        <time>2014-05-21T07:32:55Z</time>
      </trkpt>
      <trkpt lat="44.160285852849483" lon="5.950441556051374">
        <ele>468.60000610351562</ele>
        <time>2014-05-21T07:33:00Z</time>
      </trkpt>
      <trkpt lat="44.160149563103914" lon="5.950492015108466">
        <ele>469</ele>
        <time>2014-05-21T07:33:03Z</time>
      </trkpt>
      <trkpt lat="44.159917300567031" lon="5.950542725622654">
        <ele>469.79998779296875</ele>
        <time>2014-05-21T07:33:08Z</time>
      </trkpt>
      <trkpt lat="44.159730970859528" lon="5.950561920180917">
        <ele>470.39999389648437</ele>
        <time>2014-05-21T07:33:12Z</time>
      </trkpt>
      <trkpt lat="44.159393180161715" lon="5.950565608218312">
        <ele>470.79998779296875</ele>
        <time>2014-05-21T07:33:19Z</time>
      </trkpt>
      <trkpt lat="44.159246329218149" lon="5.950573068112135">
        <ele>471</ele>
        <time>2014-05-21T07:33:22Z</time>
      </trkpt>
      <trkpt lat="44.158758837729692" lon="5.950566111132503">
        <ele>471.79998779296875</ele>
        <time>2014-05-21T07:33:32Z</time>
      </trkpt>
      <trkpt lat="44.158606622368097" lon="5.950564853847027">
        <ele>471.79998779296875</ele>
        <time>2014-05-21T07:33:35Z</time>
      </trkpt>
      <trkpt lat="44.158230191096663" lon="5.950620425865054">
        <ele>472</ele>
        <time>2014-05-21T07:33:42Z</time>
      </trkpt>
      <trkpt lat="44.157868344336748" lon="5.950695276260376">
        <ele>471.20001220703125</ele>
        <time>2014-05-21T07:33:48Z</time>
      </trkpt>
      <trkpt lat="44.157481519505382" lon="5.950852353125811">
        <ele>470.60000610351562</ele>
        <time>2014-05-21T07:33:54Z</time>
      </trkpt>
      <trkpt lat="44.156925631687045" lon="5.951084028929472">
        <ele>470</ele>
        <time>2014-05-21T07:34:02Z</time>
      </trkpt>
      <trkpt lat="44.156724298372865" lon="5.951176397502422">
        <ele>469.60000610351562</ele>
        <time>2014-05-21T07:34:05Z</time>
      </trkpt>
      <trkpt lat="44.156391452997923" lon="5.951307155191898">
        <ele>469.79998779296875</ele>
        <time>2014-05-21T07:34:10Z</time>
      </trkpt>
      <trkpt lat="44.155946122482419" lon="5.951468506827951">
        <ele>470.20001220703125</ele>
        <time>2014-05-21T07:34:17Z</time>
      </trkpt>
      <trkpt lat="44.155382020398974" lon="5.951689034700394">
        <ele>470.20001220703125</ele>
        <time>2014-05-21T07:34:26Z</time>
      </trkpt>
      <trkpt lat="44.155212957412004" lon="5.951798167079687">
        <ele>470.20001220703125</ele>
        <time>2014-05-21T07:34:29Z</time>
      </trkpt>
      <trkpt lat="44.155102903023362" lon="5.951884919777513">
        <ele>470.39999389648437</ele>
        <time>2014-05-21T07:34:31Z</time>
      </trkpt>
      <trkpt lat="44.154943730682135" lon="5.952037638053298">
        <ele>470.60000610351562</ele>
        <time>2014-05-21T07:34:34Z</time>
      </trkpt>
      <trkpt lat="44.15480375289917" lon="5.952207455411553">
        <ele>470.20001220703125</ele>
        <time>2014-05-21T07:34:37Z</time>
      </trkpt>
      <trkpt lat="44.154475182294846" lon="5.952614732086659">
        <ele>470.39999389648437</ele>
        <time>2014-05-21T07:34:44Z</time>
      </trkpt>
      <trkpt lat="44.154039826244116" lon="5.953142875805497">
        <ele>470</ele>
        <time>2014-05-21T07:34:53Z</time>
      </trkpt>
      <trkpt lat="44.153852909803391" lon="5.953361727297306">
        <ele>470.39999389648437</ele>
        <time>2014-05-21T07:34:57Z</time>
      </trkpt>
      <trkpt lat="44.15372340939939" lon="5.953520145267248">
        <ele>471</ele>
        <time>2014-05-21T07:35:00Z</time>
      </trkpt>
      <trkpt lat="44.153440352529287" lon="5.95386715605855">
        <ele>472</ele>
        <time>2014-05-21T07:35:07Z</time>
      </trkpt>
      <trkpt lat="44.153198031708598" lon="5.954164545983076">
        <ele>473</ele>
        <time>2014-05-21T07:35:14Z</time>
      </trkpt>
      <trkpt lat="44.153163246810436" lon="5.954203018918634">
        <ele>473.39999389648437</ele>
        <time>2014-05-21T07:35:15Z</time>
      </trkpt>
      <trkpt lat="44.153030226007104" lon="5.954354982823134">
        <ele>474.20001220703125</ele>
        <time>2014-05-21T07:35:19Z</time>
      </trkpt>
      <trkpt lat="44.152935342863202" lon="5.954476268962026">
        <ele>474.60000610351562</ele>
        <time>2014-05-21T07:35:22Z</time>
      </trkpt>
      <trkpt lat="44.152903826907277" lon="5.954517424106598">
        <ele>475.39999389648437</ele>
        <time>2014-05-21T07:35:23Z</time>
      </trkpt>
      <trkpt lat="44.152754545211792" lon="5.954738454893231">
        <ele>476.39999389648437</ele>
        <time>2014-05-21T07:35:28Z</time>
      </trkpt>
      <trkpt lat="44.152673743665218" lon="5.954893017187715">
        <ele>476.60000610351562</ele>
        <time>2014-05-21T07:35:31Z</time>
      </trkpt>
      <trkpt lat="44.152394039556384" lon="5.955460723489523">
        <ele>476.79998779296875</ele>
        <time>2014-05-21T07:35:41Z</time>
      </trkpt>
      <trkpt lat="44.152161022648215" lon="5.9558798186481">
        <ele>475</ele>
        <time>2014-05-21T07:35:47Z</time>
      </trkpt>
      <trkpt lat="44.151894729584455" lon="5.956272762268782">
        <ele>474</ele>
        <time>2014-05-21T07:35:52Z</time>
      </trkpt>
      <trkpt lat="44.15183387696743" lon="5.956357503309846">
        <ele>473.79998779296875</ele>
        <time>2014-05-21T07:35:53Z</time>
      </trkpt>
      <trkpt lat="44.151647128164768" lon="5.956616504117847">
        <ele>472.79998779296875</ele>
        <time>2014-05-21T07:35:56Z</time>
      </trkpt>
      <trkpt lat="44.15121965110302" lon="5.957218492403626">
        <ele>472.39999389648437</ele>
        <time>2014-05-21T07:36:03Z</time>
      </trkpt>
      <trkpt lat="44.150855289772153" lon="5.957716209813952">
        <ele>471.79998779296875</ele>
        <time>2014-05-21T07:36:09Z</time>
      </trkpt>
      <trkpt lat="44.150676922872663" lon="5.957941263914108">
        <ele>471.79998779296875</ele>
        <time>2014-05-21T07:36:12Z</time>
      </trkpt>
      <trkpt lat="44.150265036150813" lon="5.958302021026611">
        <ele>471.39999389648437</ele>
        <time>2014-05-21T07:36:18Z</time>
      </trkpt>
      <trkpt lat="44.149757008999586" lon="5.958611313253641">
        <ele>471.39999389648437</ele>
        <time>2014-05-21T07:36:25Z</time>
      </trkpt>
      <trkpt lat="44.149463893845677" lon="5.958718853071332">
        <ele>471.79998779296875</ele>
        <time>2014-05-21T07:36:29Z</time>
      </trkpt>
      <trkpt lat="44.149392228573561" lon="5.958733437582851">
        <ele>471.60000610351562</ele>
        <time>2014-05-21T07:36:30Z</time>
      </trkpt>
      <trkpt lat="44.14900079369545" lon="5.958741400390863">
        <ele>472.39999389648437</ele>
        <time>2014-05-21T07:36:36Z</time>
      </trkpt>
      <trkpt lat="44.148885793983936" lon="5.958720529451966">
        <ele>473</ele>
        <time>2014-05-21T07:36:38Z</time>
      </trkpt>
      <trkpt lat="44.148686639964581" lon="5.958654647693038">
        <ele>474.39999389648437</ele>
        <time>2014-05-21T07:36:42Z</time>
      </trkpt>
      <trkpt lat="44.148308364674449" lon="5.9584925416857">
        <ele>475.20001220703125</ele>
        <time>2014-05-21T07:36:50Z</time>
      </trkpt>
      <trkpt lat="44.147943165153265" lon="5.958389109000564">
        <ele>475.39999389648437</ele>
        <time>2014-05-21T07:36:57Z</time>
      </trkpt>
      <trkpt lat="44.14760235697031" lon="5.958401095122099">
        <ele>474.60000610351562</ele>
        <time>2014-05-21T07:37:03Z</time>
      </trkpt>
      <trkpt lat="44.147168593481183" lon="5.958500672131777">
        <ele>474.79998779296875</ele>
        <time>2014-05-21T07:37:11Z</time>
      </trkpt>
      <trkpt lat="44.146819738671184" lon="5.958725977689028">
        <ele>475.20001220703125</ele>
        <time>2014-05-21T07:37:18Z</time>
      </trkpt>
      <trkpt lat="44.146565347909927" lon="5.958948349580169">
        <ele>476.39999389648437</ele>
        <time>2014-05-21T07:37:24Z</time>
      </trkpt>
      <trkpt lat="44.146529221907258" lon="5.95897575840354">
        <ele>476.60000610351562</ele>
        <time>2014-05-21T07:37:25Z</time>
      </trkpt>
      <trkpt lat="44.146315483376384" lon="5.95914289355278">
        <ele>477.60000610351562</ele>
        <time>2014-05-21T07:37:31Z</time>
      </trkpt>
      <trkpt lat="44.146276926621795" lon="5.959161836653948">
        <ele>477.79998779296875</ele>
        <time>2014-05-21T07:37:32Z</time>
      </trkpt>
      <trkpt lat="44.146104343235493" lon="5.959238195791841">
        <ele>478.79998779296875</ele>
        <time>2014-05-21T07:37:37Z</time>
      </trkpt>
      <trkpt lat="44.146040137857199" lon="5.959260324016213">
        <ele>479.20001220703125</ele>
        <time>2014-05-21T07:37:39Z</time>
      </trkpt>
      <trkpt lat="44.145920779556036" lon="5.959297120571137">
        <ele>480</ele>
        <time>2014-05-21T07:37:43Z</time>
      </trkpt>
      <trkpt lat="44.145803013816476" lon="5.959329642355442">
        <ele>480.39999389648437</ele>
        <time>2014-05-21T07:37:47Z</time>
      </trkpt>
      <trkpt lat="44.145523896440864" lon="5.959412874653935">
        <ele>480.20001220703125</ele>
        <time>2014-05-21T07:37:54Z</time>
      </trkpt>
      <trkpt lat="44.145219549536705" lon="5.959504069760442">
        <ele>480.20001220703125</ele>
        <time>2014-05-21T07:38:01Z</time>
      </trkpt>
      <trkpt lat="44.144887626171112" lon="5.959553774446249">
        <ele>480.20001220703125</ele>
        <time>2014-05-21T07:38:08Z</time>
      </trkpt>
      <trkpt lat="44.144794000312686" lon="5.959585877135396">
        <ele>480.20001220703125</ele>
        <time>2014-05-21T07:38:10Z</time>
      </trkpt>
      <trkpt lat="44.144443972036242" lon="5.959610603749752">
        <ele>480.60000610351562</ele>
        <time>2014-05-21T07:38:17Z</time>
      </trkpt>
      <trkpt lat="44.144031750038266" lon="5.959586296230555">
        <ele>480.20001220703125</ele>
        <time>2014-05-21T07:38:25Z</time>
      </trkpt>
      <trkpt lat="44.143646685406566" lon="5.959481773898006">
        <ele>480.60000610351562</ele>
        <time>2014-05-21T07:38:32Z</time>
      </trkpt>
      <trkpt lat="44.143084511160851" lon="5.959272813051939">
        <ele>480.79998779296875</ele>
        <time>2014-05-21T07:38:42Z</time>
      </trkpt>
      <trkpt lat="44.143030531704426" lon="5.959260743111372">
        <ele>481</ele>
        <time>2014-05-21T07:38:43Z</time>
      </trkpt>
      <trkpt lat="44.142868341878057" lon="5.95923769287765">
        <ele>481</ele>
        <time>2014-05-21T07:38:46Z</time>
      </trkpt>
      <trkpt lat="44.142658291384578" lon="5.959252193570137">
        <ele>481.79998779296875</ele>
        <time>2014-05-21T07:38:50Z</time>
      </trkpt>
      <trkpt lat="44.142451258376241" lon="5.959283458068967">
        <ele>482.20001220703125</ele>
        <time>2014-05-21T07:38:54Z</time>
      </trkpt>
      <trkpt lat="44.142303401604295" lon="5.959310615435243">
        <ele>482.60000610351562</ele>
        <time>2014-05-21T07:38:57Z</time>
      </trkpt>
      <trkpt lat="44.142168117687106" lon="5.959346238523722">
        <ele>483.60000610351562</ele>
        <time>2014-05-21T07:39:00Z</time>
      </trkpt>
      <trkpt lat="44.14200852625072" lon="5.959430225193501">
        <ele>483.79998779296875</ele>
        <time>2014-05-21T07:39:04Z</time>
      </trkpt>
      <trkpt lat="44.141967203468084" lon="5.959455035626888">
        <ele>483.79998779296875</ele>
        <time>2014-05-21T07:39:05Z</time>
      </trkpt>
      <trkpt lat="44.14171289652586" lon="5.959640862420201">
        <ele>483.79998779296875</ele>
        <time>2014-05-21T07:39:11Z</time>
      </trkpt>
      <trkpt lat="44.141373261809349" lon="5.959814954549074">
        <ele>482.60000610351562</ele>
        <time>2014-05-21T07:39:17Z</time>
      </trkpt>
      <trkpt lat="44.141307296231389" lon="5.959838842973113">
        <ele>482.39999389648437</ele>
        <time>2014-05-21T07:39:18Z</time>
      </trkpt>
      <trkpt lat="44.140899935737252" lon="5.959937749430537">
        <ele>481.39999389648438</ele>
        <time>2014-05-21T07:39:24Z</time>
      </trkpt>
      <trkpt lat="44.140439685434103" lon="5.959926852956414">
        <ele>481.20001220703125</ele>
        <time>2014-05-21T07:39:31Z</time>
      </trkpt>
      <trkpt lat="44.140330133959651" lon="5.959880584850907">
        <ele>481.39999389648438</ele>
        <time>2014-05-21T07:39:33Z</time>
      </trkpt>
      <trkpt lat="44.140110025182366" lon="5.959754437208176">
        <ele>481.39999389648438</ele>
        <time>2014-05-21T07:39:37Z</time>
      </trkpt>
      <trkpt lat="44.139852449297905" lon="5.95959878526628">
        <ele>482.60000610351562</ele>
        <time>2014-05-21T07:39:42Z</time>
      </trkpt>
      <trkpt lat="44.139678776264191" lon="5.959497448056936">
        <ele>483.60000610351562</ele>
        <time>2014-05-21T07:39:46Z</time>
      </trkpt>
      <trkpt lat="44.139358755201101" lon="5.95928899012506">
        <ele>484.60000610351562</ele>
        <time>2014-05-21T07:39:54Z</time>
      </trkpt>
      <trkpt lat="44.13909774273634" lon="5.959113305434585">
        <ele>485.20001220703125</ele>
        <time>2014-05-21T07:40:01Z</time>
      </trkpt>
      <trkpt lat="44.139020629227161" lon="5.959057649597526">
        <ele>485.60000610351562</ele>
        <time>2014-05-21T07:40:03Z</time>
      </trkpt>
      <trkpt lat="44.138891715556383" lon="5.958943907171488">
        <ele>486.20001220703125</ele>
        <time>2014-05-21T07:40:07Z</time>
      </trkpt>
      <trkpt lat="44.138800352811813" lon="5.958863440901041">
        <ele>486.79998779296875</ele>
        <time>2014-05-21T07:40:10Z</time>
      </trkpt>
      <trkpt lat="44.138695914298296" lon="5.958769144490361">
        <ele>487.79998779296875</ele>
        <time>2014-05-21T07:40:14Z</time>
      </trkpt>
      <trkpt lat="44.138672612607479" lon="5.958754643797875">
        <ele>488</ele>
        <time>2014-05-21T07:40:15Z</time>
      </trkpt>
      <trkpt lat="44.138592816889286" lon="5.958650540560484">
        <ele>489</ele>
        <time>2014-05-21T07:40:45Z</time>
      </trkpt>
      <trkpt lat="44.13857102394104" lon="5.958620365709066">
        <ele>489.20001220703125</ele>
        <time>2014-05-21T07:40:47Z</time>
      </trkpt>
      <trkpt lat="44.138561049476266" lon="5.958598656579852">
        <ele>489.20001220703125</ele>
        <time>2014-05-21T07:40:48Z</time>
      </trkpt>
      <trkpt lat="44.138528695330024" lon="5.958469910547137">
        <ele>489.60000610351562</ele>
        <time>2014-05-21T07:40:52Z</time>
      </trkpt>
      <trkpt lat="44.138475889340043" lon="5.958263715729117">
        <ele>490.20001220703125</ele>
        <time>2014-05-21T07:40:57Z</time>
      </trkpt>
      <trkpt lat="44.138465411961079" lon="5.958219962194562">
        <ele>490.20001220703125</ele>
        <time>2014-05-21T07:40:58Z</time>
      </trkpt>
      <trkpt lat="44.138405565172434" lon="5.957947801798582">
        <ele>491.20001220703125</ele>
        <time>2014-05-21T07:41:04Z</time>
      </trkpt>
      <trkpt lat="44.138389891013503" lon="5.957852331921458">
        <ele>491.60000610351562</ele>
        <time>2014-05-21T07:41:06Z</time>
      </trkpt>
      <trkpt lat="44.138363990932703" lon="5.957656530663371">
        <ele>492.39999389648437</ele>
        <time>2014-05-21T07:41:10Z</time>
      </trkpt>
      <trkpt lat="44.138326523825526" lon="5.957460813224316">
        <ele>492.79998779296875</ele>
        <time>2014-05-21T07:41:14Z</time>
      </trkpt>
      <trkpt lat="44.138310849666595" lon="5.957357380539179">
        <ele>493.39999389648437</ele>
        <time>2014-05-21T07:41:16Z</time>
      </trkpt>
      <trkpt lat="44.138274807482958" lon="5.957053788006306">
        <ele>494.39999389648437</ele>
        <time>2014-05-21T07:41:22Z</time>
      </trkpt>
      <trkpt lat="44.138267012313008" lon="5.957009196281433">
        <ele>494.60000610351562</ele>
        <time>2014-05-21T07:41:23Z</time>
      </trkpt>
      <trkpt lat="44.138241615146399" lon="5.956836529076099">
        <ele>495.79998779296875</ele>
        <time>2014-05-21T07:41:27Z</time>
      </trkpt>
      <trkpt lat="44.138219989836216" lon="5.956755811348558">
        <ele>496.20001220703125</ele>
        <time>2014-05-21T07:41:29Z</time>
      </trkpt>
      <trkpt lat="44.138179002329707" lon="5.956593370065093">
        <ele>497</ele>
        <time>2014-05-21T07:41:33Z</time>
      </trkpt>
      <trkpt lat="44.138127872720361" lon="5.956433275714517">
        <ele>497.39999389648437</ele>
        <time>2014-05-21T07:41:37Z</time>
      </trkpt>
      <trkpt lat="44.138082610443234" lon="5.956270750612021">
        <ele>498</ele>
        <time>2014-05-21T07:41:41Z</time>
      </trkpt>
      <trkpt lat="44.138011950999498" lon="5.956103447824717">
        <ele>498</ele>
        <time>2014-05-21T07:41:45Z</time>
      </trkpt>
      <trkpt lat="44.137860322371125" lon="5.955838244408369">
        <ele>498.60000610351562</ele>
        <time>2014-05-21T07:41:52Z</time>
      </trkpt>
      <trkpt lat="44.137757308781147" lon="5.955674713477492">
        <ele>499</ele>
        <time>2014-05-21T07:41:56Z</time>
      </trkpt>
      <trkpt lat="44.137606434524059" lon="5.955497352406383">
        <ele>499.20001220703125</ele>
        <time>2014-05-21T07:42:01Z</time>
      </trkpt>
      <trkpt lat="44.137356486171484" lon="5.955280680209398">
        <ele>499.39999389648437</ele>
        <time>2014-05-21T07:42:08Z</time>
      </trkpt>
      <trkpt lat="44.137273170053959" lon="5.955236591398716">
        <ele>499.79998779296875</ele>
        <time>2014-05-21T07:42:10Z</time>
      </trkpt>
      <trkpt lat="44.136920878663659" lon="5.95507113263011">
        <ele>499.20001220703125</ele>
        <time>2014-05-21T07:42:17Z</time>
      </trkpt>
      <trkpt lat="44.136548219248652" lon="5.955036096274853">
        <ele>498.79998779296875</ele>
        <time>2014-05-21T07:42:23Z</time>
      </trkpt>
      <trkpt lat="44.136258792132139" lon="5.955027714371681">
        <ele>497.79998779296875</ele>
        <time>2014-05-21T07:42:27Z</time>
      </trkpt>
      <trkpt lat="44.135951679199934" lon="5.955022601410747">
        <ele>496.79998779296875</ele>
        <time>2014-05-21T07:42:31Z</time>
      </trkpt>
      <trkpt lat="44.135626377537847" lon="5.955017991364002">
        <ele>495.79998779296875</ele>
        <time>2014-05-21T07:42:35Z</time>
      </trkpt>
      <trkpt lat="44.135364945977926" lon="5.955001646652818">
        <ele>494.39999389648437</ele>
        <time>2014-05-21T07:42:38Z</time>
      </trkpt>
      <trkpt lat="44.135014247149229" lon="5.954943392425776">
        <ele>493.39999389648437</ele>
        <time>2014-05-21T07:42:42Z</time>
      </trkpt>
      <trkpt lat="44.134836969897151" lon="5.95489134080708">
        <ele>493</ele>
        <time>2014-05-21T07:42:44Z</time>
      </trkpt>
      <trkpt lat="44.134231209754944" lon="5.954687157645822">
        <ele>493</ele>
        <time>2014-05-21T07:42:51Z</time>
      </trkpt>
      <trkpt lat="44.133988050743937" lon="5.954596633091569">
        <ele>493.60000610351562</ele>
        <time>2014-05-21T07:42:54Z</time>
      </trkpt>
      <trkpt lat="44.133434258401394" lon="5.954422038048506">
        <ele>493.79998779296875</ele>
        <time>2014-05-21T07:43:01Z</time>
      </trkpt>
      <trkpt lat="44.133358485996723" lon="5.954397479072213">
        <ele>494</ele>
        <time>2014-05-21T07:43:02Z</time>
      </trkpt>
      <trkpt lat="44.133139383047819" lon="5.954326651990414">
        <ele>494.39999389648437</ele>
        <time>2014-05-21T07:43:05Z</time>
      </trkpt>
      <trkpt lat="44.132930086925626" lon="5.954254819080234">
        <ele>495</ele>
        <time>2014-05-21T07:43:08Z</time>
      </trkpt>
      <trkpt lat="44.132799161598086" lon="5.95422338694334">
        <ele>495.60000610351562</ele>
        <time>2014-05-21T07:43:10Z</time>
      </trkpt>
      <trkpt lat="44.132501436397433" lon="5.954180220142007">
        <ele>496.60000610351562</ele>
        <time>2014-05-21T07:43:15Z</time>
      </trkpt>
      <trkpt lat="44.132181331515312" lon="5.954112662002444">
        <ele>497.60000610351562</ele>
        <time>2014-05-21T07:43:21Z</time>
      </trkpt>
      <trkpt lat="44.132086280733347" lon="5.954099334776402">
        <ele>498.20001220703125</ele>
        <time>2014-05-21T07:43:23Z</time>
      </trkpt>
      <trkpt lat="44.132038336247206" lon="5.954090533778071">
        <ele>498.79998779296875</ele>
        <time>2014-05-21T07:43:24Z</time>
      </trkpt>
      <trkpt lat="44.13180984556675" lon="5.954022891819477">
        <ele>499.79998779296875</ele>
        <time>2014-05-21T07:43:29Z</time>
      </trkpt>
      <trkpt lat="44.131717057898641" lon="5.954000009223819">
        <ele>500.20001220703125</ele>
        <time>2014-05-21T07:43:31Z</time>
      </trkpt>
      <trkpt lat="44.131436012685299" lon="5.953934965655208">
        <ele>501</ele>
        <time>2014-05-21T07:43:37Z</time>
      </trkpt>
      <trkpt lat="44.131293352693319" lon="5.953898755833507">
        <ele>501.20001220703125</ele>
        <time>2014-05-21T07:43:40Z</time>
      </trkpt>
      <trkpt lat="44.130846681073308" lon="5.953803872689605">
        <ele>501.39999389648438</ele>
        <time>2014-05-21T07:43:49Z</time>
      </trkpt>
      <trkpt lat="44.130382323637605" lon="5.953711085021496">
        <ele>501.20001220703125</ele>
        <time>2014-05-21T07:43:58Z</time>
      </trkpt>
      <trkpt lat="44.129938334226608" lon="5.953637324273586">
        <ele>501.79998779296875</ele>
        <time>2014-05-21T07:44:07Z</time>
      </trkpt>
      <trkpt lat="44.129893407225609" lon="5.953630199655891">
        <ele>502</ele>
        <time>2014-05-21T07:44:08Z</time>
      </trkpt>
      <trkpt lat="44.129717303439975" lon="5.953603545203805">
        <ele>503.20001220703125</ele>
        <time>2014-05-21T07:44:12Z</time>
      </trkpt>
      <trkpt lat="44.12963155657053" lon="5.953584518283606">
        <ele>503.60000610351562</ele>
        <time>2014-05-21T07:44:14Z</time>
      </trkpt>
      <trkpt lat="44.129324862733483" lon="5.953496843576431">
        <ele>504.39999389648437</ele>
        <time>2014-05-21T07:44:21Z</time>
      </trkpt>
      <trkpt lat="44.129278007894754" lon="5.953480750322342">
        <ele>504.20001220703125</ele>
        <time>2014-05-21T07:44:22Z</time>
      </trkpt>
      <trkpt lat="44.128982294350863" lon="5.953351836651564">
        <ele>503.39999389648437</ele>
        <time>2014-05-21T07:44:28Z</time>
      </trkpt>
      <trkpt lat="44.128931919112802" lon="5.953326690942049">
        <ele>503.20001220703125</ele>
        <time>2014-05-21T07:44:29Z</time>
      </trkpt>
      <trkpt lat="44.12846471183002" lon="5.95301304012537">
        <ele>503.60000610351562</ele>
        <time>2014-05-21T07:44:38Z</time>
      </trkpt>
      <trkpt lat="44.128041928634048" lon="5.952640129253268">
        <ele>502.79998779296875</ele>
        <time>2014-05-21T07:44:46Z</time>
      </trkpt>
      <trkpt lat="44.127880409359932" lon="5.952491518110037">
        <ele>502.20001220703125</ele>
        <time>2014-05-21T07:44:49Z</time>
      </trkpt>
      <trkpt lat="44.127600621432066" lon="5.952250538393855">
        <ele>502</ele>
        <time>2014-05-21T07:44:54Z</time>
      </trkpt>
      <trkpt lat="44.127129223197699" lon="5.95196639187634">
        <ele>501.79998779296875</ele>
        <time>2014-05-21T07:45:02Z</time>
      </trkpt>
      <trkpt lat="44.126723958179355" lon="5.951763298362494">
        <ele>502.39999389648437</ele>
        <time>2014-05-21T07:45:09Z</time>
      </trkpt>
      <trkpt lat="44.126276867464185" lon="5.951523827388883">
        <ele>502.79998779296875</ele>
        <time>2014-05-21T07:45:17Z</time>
      </trkpt>
      <trkpt lat="44.125956762582064" lon="5.951353423297405">
        <ele>503.20001220703125</ele>
        <time>2014-05-21T07:45:23Z</time>
      </trkpt>
      <trkpt lat="44.125747215002775" lon="5.951255690306425">
        <ele>503.39999389648437</ele>
        <time>2014-05-21T07:45:27Z</time>
      </trkpt>
      <trkpt lat="44.125395594164729" lon="5.951098697260022">
        <ele>504.39999389648437</ele>
        <time>2014-05-21T07:45:34Z</time>
      </trkpt>
      <trkpt lat="44.125346811488271" lon="5.951075814664364">
        <ele>504.39999389648437</ele>
        <time>2014-05-21T07:45:35Z</time>
      </trkpt>
      <trkpt lat="44.124937942251563" lon="5.95093147829175">
        <ele>505</ele>
        <time>2014-05-21T07:45:43Z</time>
      </trkpt>
      <trkpt lat="44.124885890632868" lon="5.950914211571217">
        <ele>505</ele>
        <time>2014-05-21T07:45:44Z</time>
      </trkpt>
      <trkpt lat="44.124734932556748" lon="5.950863836333156">
        <ele>505.39999389648438</ele>
        <time>2014-05-21T07:45:47Z</time>
      </trkpt>
      <trkpt lat="44.124638373032212" lon="5.950834499672055">
        <ele>506</ele>
        <time>2014-05-21T07:45:49Z</time>
      </trkpt>
      <trkpt lat="44.124500155448914" lon="5.950794769451022">
        <ele>506.79998779296875</ele>
        <time>2014-05-21T07:45:52Z</time>
      </trkpt>
      <trkpt lat="44.124233527109027" lon="5.950714806094766">
        <ele>507.79998779296875</ele>
        <time>2014-05-21T07:45:58Z</time>
      </trkpt>
      <trkpt lat="44.123912248760462" lon="5.950612043961883">
        <ele>508</ele>
        <time>2014-05-21T07:46:05Z</time>
      </trkpt>
      <trkpt lat="44.123536236584187" lon="5.950485225766897">
        <ele>508.39999389648437</ele>
        <time>2014-05-21T07:46:13Z</time>
      </trkpt>
      <trkpt lat="44.123361892998219" lon="5.950429234653711">
        <ele>509</ele>
        <time>2014-05-21T07:46:17Z</time>
      </trkpt>
      <trkpt lat="44.12320414558053" lon="5.950384642928839">
        <ele>509.39999389648437</ele>
        <time>2014-05-21T07:46:21Z</time>
      </trkpt>
      <trkpt lat="44.123096102848649" lon="5.950345247983933">
        <ele>510.20001220703125</ele>
        <time>2014-05-21T07:46:24Z</time>
      </trkpt>
      <trkpt lat="44.122808938845992" lon="5.950253466144204">
        <ele>510.20001220703125</ele>
        <time>2014-05-21T07:46:31Z</time>
      </trkpt>
      <trkpt lat="44.12240912206471" lon="5.950110806152225">
        <ele>510.20001220703125</ele>
        <time>2014-05-21T07:46:40Z</time>
      </trkpt>
      <trkpt lat="44.122072169557214" lon="5.950029501691461">
        <ele>509.79998779296875</ele>
        <time>2014-05-21T07:46:47Z</time>
      </trkpt>
      <trkpt lat="44.121725410223007" lon="5.950021622702479">
        <ele>509</ele>
        <time>2014-05-21T07:46:53Z</time>
      </trkpt>
      <trkpt lat="44.121347470209002" lon="5.950058167800307">
        <ele>509.20001220703125</ele>
        <time>2014-05-21T07:47:00Z</time>
      </trkpt>
      <trkpt lat="44.121248899027705" lon="5.95007099211216">
        <ele>509.60000610351563</ele>
        <time>2014-05-21T07:47:02Z</time>
      </trkpt>
      <trkpt lat="44.121110010892153" lon="5.950100496411324">
        <ele>510.20001220703125</ele>
        <time>2014-05-21T07:47:05Z</time>
      </trkpt>
      <trkpt lat="44.121064832434058" lon="5.950110303238034">
        <ele>510.39999389648437</ele>
        <time>2014-05-21T07:47:06Z</time>
      </trkpt>
      <trkpt lat="44.120759228244424" lon="5.950189512223005">
        <ele>511.60000610351562</ele>
        <time>2014-05-21T07:47:13Z</time>
      </trkpt>
      <trkpt lat="44.120672224089503" lon="5.950214574113488">
        <ele>512.20001220703125</ele>
        <time>2014-05-21T07:47:15Z</time>
      </trkpt>
      <trkpt lat="44.120546076446772" lon="5.950250029563904">
        <ele>512.79998779296875</ele>
        <time>2014-05-21T07:47:18Z</time>
      </trkpt>
      <trkpt lat="44.120464269071817" lon="5.950272660702467">
        <ele>513</ele>
        <time>2014-05-21T07:47:20Z</time>
      </trkpt>
      <trkpt lat="44.120304258540273" lon="5.950319347903132">
        <ele>513.4000244140625</ele>
        <time>2014-05-21T07:47:24Z</time>
      </trkpt>
      <trkpt lat="44.120023380964994" lon="5.950390845537186">
        <ele>513.79998779296875</ele>
        <time>2014-05-21T07:47:31Z</time>
      </trkpt>
      <trkpt lat="44.119906621053815" lon="5.950432419776917">
        <ele>514.4000244140625</ele>
        <time>2014-05-21T07:47:34Z</time>
      </trkpt>
      <trkpt lat="44.119723727926612" lon="5.950478687882423">
        <ele>514.79998779296875</ele>
        <time>2014-05-21T07:47:39Z</time>
      </trkpt>
      <trkpt lat="44.119611075147986" lon="5.95051028765738">
        <ele>515.4000244140625</ele>
        <time>2014-05-21T07:47:42Z</time>
      </trkpt>
      <trkpt lat="44.119535638019443" lon="5.95052638091147">
        <ele>516</ele>
        <time>2014-05-21T07:47:44Z</time>
      </trkpt>
      <trkpt lat="44.119316451251507" lon="5.950575079768896">
        <ele>517</ele>
        <time>2014-05-21T07:47:50Z</time>
      </trkpt>
      <trkpt lat="44.119281582534313" lon="5.950584216043353">
        <ele>517.20001220703125</ele>
        <time>2014-05-21T07:47:51Z</time>
      </trkpt>
      <trkpt lat="44.119139509275556" lon="5.950629645958543">
        <ele>518</ele>
        <time>2014-05-21T07:47:55Z</time>
      </trkpt>
      <trkpt lat="44.119031298905611" lon="5.950652360916138">
        <ele>518.4000244140625</ele>
        <time>2014-05-21T07:47:58Z</time>
      </trkpt>
      <trkpt lat="44.118925016373396" lon="5.950679518282414">
        <ele>519</ele>
        <time>2014-05-21T07:48:01Z</time>
      </trkpt>
      <trkpt lat="44.118756037205458" lon="5.950712542980909">
        <ele>520.20001220703125</ele>
        <time>2014-05-21T07:48:06Z</time>
      </trkpt>
      <trkpt lat="44.11851623095572" lon="5.950743053108454">
        <ele>521.4000244140625</ele>
        <time>2014-05-21T07:48:14Z</time>
      </trkpt>
      <trkpt lat="44.11828463897109" lon="5.950759733095765">
        <ele>521.79998779296875</ele>
        <time>2014-05-21T07:48:21Z</time>
      </trkpt>
      <trkpt lat="44.117992781102657" lon="5.950778173282743">
        <ele>521</ele>
        <time>2014-05-21T07:48:27Z</time>
      </trkpt>
      <trkpt lat="44.117506379261613" lon="5.950823854655027">
        <ele>522</ele>
        <time>2014-05-21T07:48:37Z</time>
      </trkpt>
      <trkpt lat="44.117418872192502" lon="5.950842294842005">
        <ele>522.4000244140625</ele>
        <time>2014-05-21T07:48:39Z</time>
      </trkpt>
      <trkpt lat="44.117226591333747" lon="5.950887640938163">
        <ele>523.20001220703125</ele>
        <time>2014-05-21T07:48:44Z</time>
      </trkpt>
      <trkpt lat="44.117151238024235" lon="5.950912870466709">
        <ele>523.4000244140625</ele>
        <time>2014-05-21T07:48:46Z</time>
      </trkpt>
      <trkpt lat="44.11689349450171" lon="5.950990151613951">
        <ele>524.5999755859375</ele>
        <time>2014-05-21T07:48:53Z</time>
      </trkpt>
      <trkpt lat="44.116694089025259" lon="5.951050836592913">
        <ele>525.5999755859375</ele>
        <time>2014-05-21T07:48:59Z</time>
      </trkpt>
      <trkpt lat="44.116633823141456" lon="5.95106927677989">
        <ele>526.20001220703125</ele>
        <time>2014-05-21T07:49:01Z</time>
      </trkpt>
      <trkpt lat="44.116575149819255" lon="5.951081598177552">
        <ele>526.5999755859375</ele>
        <time>2014-05-21T07:49:03Z</time>
      </trkpt>
      <trkpt lat="44.116464173421264" lon="5.951101295650005">
        <ele>527.4000244140625</ele>
        <time>2014-05-21T07:49:07Z</time>
      </trkpt>
      <trkpt lat="44.116413965821266" lon="5.951107330620289">
        <ele>527.79998779296875</ele>
        <time>2014-05-21T07:49:09Z</time>
      </trkpt>
      <trkpt lat="44.116290081292391" lon="5.951123172417283">
        <ele>528.79998779296875</ele>
        <time>2014-05-21T07:49:14Z</time>
      </trkpt>
      <trkpt lat="44.116166867315769" lon="5.951131973415613">
        <ele>530</ele>
        <time>2014-05-21T07:49:19Z</time>
      </trkpt>
      <trkpt lat="44.116114731878042" lon="5.951125686988235">
        <ele>530.20001220703125</ele>
        <time>2014-05-21T07:49:21Z</time>
      </trkpt>
      <trkpt lat="44.116003839299083" lon="5.951106240972877">
        <ele>531</ele>
        <time>2014-05-21T07:49:25Z</time>
      </trkpt>
      <trkpt lat="44.115860173478723" lon="5.95106827095151">
        <ele>532</ele>
        <time>2014-05-21T07:49:30Z</time>
      </trkpt>
      <trkpt lat="44.115583067759871" lon="5.950997695326805">
        <ele>532.79998779296875</ele>
        <time>2014-05-21T07:49:39Z</time>
      </trkpt>
      <trkpt lat="44.115490615367889" lon="5.950974225997925">
        <ele>533.20001220703125</ele>
        <time>2014-05-21T07:49:42Z</time>
      </trkpt>
      <trkpt lat="44.11533328704536" lon="5.950944051146507">
        <ele>533.4000244140625</ele>
        <time>2014-05-21T07:49:47Z</time>
      </trkpt>
      <trkpt lat="44.115110663697124" lon="5.950873978435993">
        <ele>532.79998779296875</ele>
        <time>2014-05-21T07:49:54Z</time>
      </trkpt>
      <trkpt lat="44.11495802924037" lon="5.950830979272723">
        <ele>532.79998779296875</ele>
        <time>2014-05-21T07:50:00Z</time>
      </trkpt>
      <trkpt lat="44.114798605442047" lon="5.950781442224979">
        <ele>532.20001220703125</ele>
        <time>2014-05-21T07:50:07Z</time>
      </trkpt>
      <trkpt lat="44.114776896312833" lon="5.950775910168886">
        <ele>532</ele>
        <time>2014-05-21T07:50:08Z</time>
      </trkpt>
      <trkpt lat="44.1145886387676" lon="5.950716398656368">
        <ele>532</ele>
        <time>2014-05-21T07:50:17Z</time>
      </trkpt>
      <trkpt lat="44.114463245496154" lon="5.950663173571229">
        <ele>531.5999755859375</ele>
        <time>2014-05-21T07:50:37Z</time>
      </trkpt>
      <trkpt lat="44.114330979064107" lon="5.95063048414886">
        <ele>531.20001220703125</ele>
        <time>2014-05-21T07:50:42Z</time>
      </trkpt>
      <trkpt lat="44.114244561642408" lon="5.95060802064836">
        <ele>531</ele>
        <time>2014-05-21T07:50:44Z</time>
      </trkpt>
      <trkpt lat="44.114040462300181" lon="5.950548676773906">
        <ele>530.5999755859375</ele>
        <time>2014-05-21T07:50:48Z</time>
      </trkpt>
      <trkpt lat="44.113697223365307" lon="5.950445076450706">
        <ele>531</ele>
        <time>2014-05-21T07:50:54Z</time>
      </trkpt>
      <trkpt lat="44.113166648894548" lon="5.95030409283936">
        <ele>532.20001220703125</ele>
        <time>2014-05-21T07:51:03Z</time>
      </trkpt>
      <trkpt lat="44.11284176632762" lon="5.950217423960567">
        <ele>533.4000244140625</ele>
        <time>2014-05-21T07:51:09Z</time>
      </trkpt>
      <trkpt lat="44.112792732194066" lon="5.950203007087112">
        <ele>533.5999755859375</ele>
        <time>2014-05-21T07:51:10Z</time>
      </trkpt>
      <trkpt lat="44.112510178238153" lon="5.950123043730855">
        <ele>534.4000244140625</ele>
        <time>2014-05-21T07:51:16Z</time>
      </trkpt>
      <trkpt lat="44.112364333122969" lon="5.950086666271091">
        <ele>534.79998779296875</ele>
        <time>2014-05-21T07:51:19Z</time>
      </trkpt>
      <trkpt lat="44.112060153856874" lon="5.950010810047388">
        <ele>535.4000244140625</ele>
        <time>2014-05-21T07:51:25Z</time>
      </trkpt>
      <trkpt lat="44.111906765028834" lon="5.949972337111831">
        <ele>535.79998779296875</ele>
        <time>2014-05-21T07:51:28Z</time>
      </trkpt>
      <trkpt lat="44.111763602122664" lon="5.949939396232367">
        <ele>536.5999755859375</ele>
        <time>2014-05-21T07:51:31Z</time>
      </trkpt>
      <trkpt lat="44.111650111153722" lon="5.949912657961249">
        <ele>537</ele>
        <time>2014-05-21T07:51:34Z</time>
      </trkpt>
      <trkpt lat="44.111584983766079" lon="5.949894636869431">
        <ele>537.79998779296875</ele>
        <time>2014-05-21T07:51:37Z</time>
      </trkpt>
      <trkpt lat="44.111558245494962" lon="5.949885249137878">
        <ele>537.79998779296875</ele>
        <time>2014-05-21T07:51:38Z</time>
      </trkpt>
      <trkpt lat="44.111315924674273" lon="5.949819618836045">
        <ele>538.20001220703125</ele>
        <time>2014-05-21T07:51:46Z</time>
      </trkpt>
      <trkpt lat="44.111129678785801" lon="5.949764801189303">
        <ele>538.79998779296875</ele>
        <time>2014-05-21T07:51:51Z</time>
      </trkpt>
      <trkpt lat="44.110937733203173" lon="5.949698416516185">
        <ele>539.4000244140625</ele>
        <time>2014-05-21T07:51:56Z</time>
      </trkpt>
      <trkpt lat="44.110813848674297" lon="5.949662793427706">
        <ele>539.79998779296875</ele>
        <time>2014-05-21T07:51:59Z</time>
      </trkpt>
      <trkpt lat="44.110651239752769" lon="5.949595989659429">
        <ele>540.5999755859375</ele>
        <time>2014-05-21T07:52:03Z</time>
      </trkpt>
      <trkpt lat="44.11061410792172" lon="5.949573274701834">
        <ele>540.79998779296875</ele>
        <time>2014-05-21T07:52:04Z</time>
      </trkpt>
      <trkpt lat="44.110578317195177" lon="5.949554163962603">
        <ele>540.79998779296875</ele>
        <time>2014-05-21T07:52:05Z</time>
      </trkpt>
      <trkpt lat="44.110538838431239" lon="5.949538741260767">
        <ele>541.20001220703125</ele>
        <time>2014-05-21T07:52:06Z</time>
      </trkpt>
      <trkpt lat="44.110347144305706" lon="5.94944654032588">
        <ele>542</ele>
        <time>2014-05-21T07:52:11Z</time>
      </trkpt>
      <trkpt lat="44.110169280320406" lon="5.949348052963615">
        <ele>543.20001220703125</ele>
        <time>2014-05-21T07:52:16Z</time>
      </trkpt>
      <trkpt lat="44.110069200396538" lon="5.949283596128225">
        <ele>543.79998779296875</ele>
        <time>2014-05-21T07:52:19Z</time>
      </trkpt>
      <trkpt lat="44.109979094937444" lon="5.949221989139915">
        <ele>544.20001220703125</ele>
        <time>2014-05-21T07:52:22Z</time>
      </trkpt>
      <trkpt lat="44.109841044992208" lon="5.949134146794677">
        <ele>545.20001220703125</ele>
        <time>2014-05-21T07:52:27Z</time>
      </trkpt>
      <trkpt lat="44.109660498797894" lon="5.949045214802027">
        <ele>546.4000244140625</ele>
        <time>2014-05-21T07:52:33Z</time>
      </trkpt>
      <trkpt lat="44.109595622867346" lon="5.949018811807036">
        <ele>547</ele>
        <time>2014-05-21T07:52:35Z</time>
      </trkpt>
      <trkpt lat="44.109509205445647" lon="5.948973884806037">
        <ele>547.5999755859375</ele>
        <time>2014-05-21T07:52:38Z</time>
      </trkpt>
      <trkpt lat="44.109383728355169" lon="5.948921917006373">
        <ele>548.20001220703125</ele>
        <time>2014-05-21T07:52:42Z</time>
      </trkpt>
      <trkpt lat="44.109295383095741" lon="5.948879001662135">
        <ele>548.5999755859375</ele>
        <time>2014-05-21T07:52:45Z</time>
      </trkpt>
      <trkpt lat="44.109183233231306" lon="5.948813790455461">
        <ele>549.20001220703125</ele>
        <time>2014-05-21T07:52:49Z</time>
      </trkpt>
      <trkpt lat="44.109063958749175" lon="5.948746902868152">
        <ele>549.79998779296875</ele>
        <time>2014-05-21T07:52:53Z</time>
      </trkpt>
      <trkpt lat="44.108942756429315" lon="5.948670292273164">
        <ele>550.5999755859375</ele>
        <time>2014-05-21T07:52:57Z</time>
      </trkpt>
      <trkpt lat="44.108864301815629" lon="5.948599632829428">
        <ele>551</ele>
        <time>2014-05-21T07:53:00Z</time>
      </trkpt>
      <trkpt lat="44.108722731471062" lon="5.948475748300552">
        <ele>551.79998779296875</ele>
        <time>2014-05-21T07:53:05Z</time>
      </trkpt>
      <trkpt lat="44.108694400638342" lon="5.94844875857234">
        <ele>552</ele>
        <time>2014-05-21T07:53:06Z</time>
      </trkpt>
      <trkpt lat="44.10852818749845" lon="5.948317246511579">
        <ele>551.79998779296875</ele>
        <time>2014-05-21T07:53:11Z</time>
      </trkpt>
      <trkpt lat="44.108160138130188" lon="5.948071572929621">
        <ele>551.4000244140625</ele>
        <time>2014-05-21T07:53:19Z</time>
      </trkpt>
      <trkpt lat="44.107828885316849" lon="5.947957495227456">
        <ele>552.5999755859375</ele>
        <time>2014-05-21T07:53:26Z</time>
      </trkpt>
      <trkpt lat="44.107788652181625" lon="5.947950705885887">
        <ele>553</ele>
        <time>2014-05-21T07:53:27Z</time>
      </trkpt>
      <trkpt lat="44.107685051858425" lon="5.947939809411764">
        <ele>554</ele>
        <time>2014-05-21T07:53:30Z</time>
      </trkpt>
      <trkpt lat="44.107620762661099" lon="5.947936791926622">
        <ele>554.5999755859375</ele>
        <time>2014-05-21T07:53:32Z</time>
      </trkpt>
      <trkpt lat="44.107562340795994" lon="5.947934612631798">
        <ele>555.20001220703125</ele>
        <time>2014-05-21T07:53:34Z</time>
      </trkpt>
      <trkpt lat="44.107428481802344" lon="5.947934025898576">
        <ele>556.4000244140625</ele>
        <time>2014-05-21T07:53:39Z</time>
      </trkpt>
      <trkpt lat="44.107378274202347" lon="5.947933606803417">
        <ele>556.5999755859375</ele>
        <time>2014-05-21T07:53:41Z</time>
      </trkpt>
      <trkpt lat="44.107213988900185" lon="5.947908964008093">
        <ele>557.4000244140625</ele>
        <time>2014-05-21T07:53:47Z</time>
      </trkpt>
      <trkpt lat="44.107184652239084" lon="5.947903599590063">
        <ele>557.5999755859375</ele>
        <time>2014-05-21T07:53:48Z</time>
      </trkpt>
      <trkpt lat="44.1070163436234" lon="5.947868227958679">
        <ele>558.5999755859375</ele>
        <time>2014-05-21T07:53:54Z</time>
      </trkpt>
      <trkpt lat="44.106951551511884" lon="5.947847776114941">
        <ele>558.5999755859375</ele>
        <time>2014-05-21T07:53:56Z</time>
      </trkpt>
      <trkpt lat="44.106716020032763" lon="5.947773428633809">
        <ele>559.5999755859375</ele>
        <time>2014-05-21T07:54:03Z</time>
      </trkpt>
      <trkpt lat="44.106639996170998" lon="5.947748282924295">
        <ele>559.79998779296875</ele>
        <time>2014-05-21T07:54:05Z</time>
      </trkpt>
      <trkpt lat="44.10651745274663" lon="5.947698494419456">
        <ele>560</ele>
        <time>2014-05-21T07:54:08Z</time>
      </trkpt>
      <trkpt lat="44.106377558782697" lon="5.94764007255435">
        <ele>559.5999755859375</ele>
        <time>2014-05-21T07:54:11Z</time>
      </trkpt>
      <trkpt lat="44.10610849969089" lon="5.947545859962702">
        <ele>558.4000244140625</ele>
        <time>2014-05-21T07:54:16Z</time>
      </trkpt>
      <trkpt lat="44.10593306645751" lon="5.947492215782404">
        <ele>558.79998779296875</ele>
        <time>2014-05-21T07:54:19Z</time>
      </trkpt>
      <trkpt lat="44.105403246358037" lon="5.947386687621474">
        <ele>559.5999755859375</ele>
        <time>2014-05-21T07:54:28Z</time>
      </trkpt>
      <trkpt lat="44.105217084288597" lon="5.947357770055533">
        <ele>560.5999755859375</ele>
        <time>2014-05-21T07:54:32Z</time>
      </trkpt>
      <trkpt lat="44.105178443714976" lon="5.947350058704615">
        <ele>561</ele>
        <time>2014-05-21T07:54:33Z</time>
      </trkpt>
      <trkpt lat="44.105139384046197" lon="5.947343437001109">
        <ele>561.5999755859375</ele>
        <time>2014-05-21T07:54:34Z</time>
      </trkpt>
      <trkpt lat="44.10502715036273" lon="5.947326086461544">
        <ele>563.4000244140625</ele>
        <time>2014-05-21T07:54:37Z</time>
      </trkpt>
      <trkpt lat="44.104918520897627" lon="5.947302281856537">
        <ele>564.4000244140625</ele>
        <time>2014-05-21T07:54:40Z</time>
      </trkpt>
      <trkpt lat="44.104884574189782" lon="5.947297420352697">
        <ele>564.5999755859375</ele>
        <time>2014-05-21T07:54:41Z</time>
      </trkpt>
      <trkpt lat="44.104700842872262" lon="5.947272526100278">
        <ele>565</ele>
        <time>2014-05-21T07:54:46Z</time>
      </trkpt>
      <trkpt lat="44.104628590866923" lon="5.94725844450295">
        <ele>565.4000244140625</ele>
        <time>2014-05-21T07:54:48Z</time>
      </trkpt>
      <trkpt lat="44.104449218139052" lon="5.947269005700946">
        <ele>566.5999755859375</ele>
        <time>2014-05-21T07:54:53Z</time>
      </trkpt>
      <trkpt lat="44.104105224832892" lon="5.947236232459545">
        <ele>565.5999755859375</ele>
        <time>2014-05-21T07:55:01Z</time>
      </trkpt>
      <trkpt lat="44.103826358914375" lon="5.947178564965725">
        <ele>565.5999755859375</ele>
        <time>2014-05-21T07:55:07Z</time>
      </trkpt>
      <trkpt lat="44.103730050846934" lon="5.947151659056544">
        <ele>565.4000244140625</ele>
        <time>2014-05-21T07:55:09Z</time>
      </trkpt>
      <trkpt lat="44.103322187438607" lon="5.947061469778419">
        <ele>566.20001220703125</ele>
        <time>2014-05-21T07:55:18Z</time>
      </trkpt>
      <trkpt lat="44.103238452225924" lon="5.947033809497953">
        <ele>566.5999755859375</ele>
        <time>2014-05-21T07:55:20Z</time>
      </trkpt>
      <trkpt lat="44.103054301813245" lon="5.946984104812145">
        <ele>568</ele>
        <time>2014-05-21T07:55:25Z</time>
      </trkpt>
      <trkpt lat="44.103022450581193" lon="5.946974800899625">
        <ele>568.4000244140625</ele>
        <time>2014-05-21T07:55:26Z</time>
      </trkpt>
      <trkpt lat="44.102926310151815" lon="5.94695208594203">
        <ele>569.20001220703125</ele>
        <time>2014-05-21T07:55:29Z</time>
      </trkpt>
      <trkpt lat="44.102789768949151" lon="5.946983015164733">
        <ele>569.5999755859375</ele>
        <time>2014-05-21T07:55:33Z</time>
      </trkpt>
      <trkpt lat="44.102600673213601" lon="5.947074042633176">
        <ele>570</ele>
        <time>2014-05-21T07:55:38Z</time>
      </trkpt>
      <trkpt lat="44.102263636887074" lon="5.947208823636174">
        <ele>569.5999755859375</ele>
        <time>2014-05-21T07:55:46Z</time>
      </trkpt>
      <trkpt lat="44.101862814277411" lon="5.947381658479571">
        <ele>569.5999755859375</ele>
        <time>2014-05-21T07:55:55Z</time>
      </trkpt>
      <trkpt lat="44.10146651789546" lon="5.947554241865873">
        <ele>570</ele>
        <time>2014-05-21T07:56:04Z</time>
      </trkpt>
      <trkpt lat="44.101338693872094" lon="5.947609897702932">
        <ele>570.4000244140625</ele>
        <time>2014-05-21T07:56:07Z</time>
      </trkpt>
      <trkpt lat="44.101119926199317" lon="5.94769480638206">
        <ele>570.4000244140625</ele>
        <time>2014-05-21T07:56:12Z</time>
      </trkpt>
      <trkpt lat="44.100829493254423" lon="5.947820786386728">
        <ele>571.4000244140625</ele>
        <time>2014-05-21T07:56:19Z</time>
      </trkpt>
      <trkpt lat="44.100786242634058" lon="5.947836292907596">
        <ele>571.5999755859375</ele>
        <time>2014-05-21T07:56:20Z</time>
      </trkpt>
      <trkpt lat="44.100372260436416" lon="5.948020359501243">
        <ele>572.4000244140625</ele>
        <time>2014-05-21T07:56:30Z</time>
      </trkpt>
      <trkpt lat="44.100039163604379" lon="5.948151703923941">
        <ele>572.20001220703125</ele>
        <time>2014-05-21T07:56:38Z</time>
      </trkpt>
      <trkpt lat="44.099676478654146" lon="5.948255890980363">
        <ele>571.79998779296875</ele>
        <time>2014-05-21T07:56:45Z</time>
      </trkpt>
      <trkpt lat="44.099556282162666" lon="5.948285730555654">
        <ele>571.4000244140625</ele>
        <time>2014-05-21T07:56:47Z</time>
      </trkpt>
      <trkpt lat="44.099359391257167" lon="5.94833635725081">
        <ele>570.20001220703125</ele>
        <time>2014-05-21T07:56:50Z</time>
      </trkpt>
      <trkpt lat="44.099289150908589" lon="5.948353540152311">
        <ele>569.79998779296875</ele>
        <time>2014-05-21T07:56:51Z</time>
      </trkpt>
      <trkpt lat="44.099144646897912" lon="5.948386061936617">
        <ele>569.20001220703125</ele>
        <time>2014-05-21T07:56:53Z</time>
      </trkpt>
      <trkpt lat="44.098782632499933" lon="5.94848102889955">
        <ele>568</ele>
        <time>2014-05-21T07:56:58Z</time>
      </trkpt>
      <trkpt lat="44.098635278642178" lon="5.948519082739949">
        <ele>567.5999755859375</ele>
        <time>2014-05-21T07:57:00Z</time>
      </trkpt>
      <trkpt lat="44.098251890391111" lon="5.948610529303551">
        <ele>566.79998779296875</ele>
        <time>2014-05-21T07:57:05Z</time>
      </trkpt>
      <trkpt lat="44.098019041121006" lon="5.948670627549291">
        <ele>566.20001220703125</ele>
        <time>2014-05-21T07:57:08Z</time>
      </trkpt>
      <trkpt lat="44.097698768600821" lon="5.948756961151958">
        <ele>565.79998779296875</ele>
        <time>2014-05-21T07:57:12Z</time>
      </trkpt>
      <trkpt lat="44.097295431420207" lon="5.94885821454227">
        <ele>565.20001220703125</ele>
        <time>2014-05-21T07:57:17Z</time>
      </trkpt>
      <trkpt lat="44.09676200710237" lon="5.948989391326904">
        <ele>565</ele>
        <time>2014-05-21T07:57:24Z</time>
      </trkpt>
      <trkpt lat="44.096603589132428" lon="5.949030127376318">
        <ele>564.4000244140625</ele>
        <time>2014-05-21T07:57:26Z</time>
      </trkpt>
      <trkpt lat="44.096166891977191" lon="5.949133392423391">
        <ele>564.20001220703125</ele>
        <time>2014-05-21T07:57:32Z</time>
      </trkpt>
      <trkpt lat="44.095628606155515" lon="5.949266916140914">
        <ele>564.79998779296875</ele>
        <time>2014-05-21T07:57:40Z</time>
      </trkpt>
      <trkpt lat="44.09508990123868" lon="5.949398428201675">
        <ele>563.79998779296875</ele>
        <time>2014-05-21T07:57:48Z</time>
      </trkpt>
      <trkpt lat="44.095021756365895" lon="5.94941527582705">
        <ele>563.4000244140625</ele>
        <time>2014-05-21T07:57:49Z</time>
      </trkpt>
      <trkpt lat="44.094537198543549" lon="5.949530778452754">
        <ele>562.20001220703125</ele>
        <time>2014-05-21T07:57:56Z</time>
      </trkpt>
      <trkpt lat="44.094391604885459" lon="5.949574280530214">
        <ele>561</ele>
        <time>2014-05-21T07:57:58Z</time>
      </trkpt>
      <trkpt lat="44.094319855794311" lon="5.949595989659429">
        <ele>560.79998779296875</ele>
        <time>2014-05-21T07:57:59Z</time>
      </trkpt>
      <trkpt lat="44.094174345955253" lon="5.949624571949244">
        <ele>560.79998779296875</ele>
        <time>2014-05-21T07:58:01Z</time>
      </trkpt>
      <trkpt lat="44.094033278524876" lon="5.949624571949244">
        <ele>560.5999755859375</ele>
        <time>2014-05-21T07:58:03Z</time>
      </trkpt>
      <trkpt lat="44.093966977670789" lon="5.94961317256093">
        <ele>560.79998779296875</ele>
        <time>2014-05-21T07:58:04Z</time>
      </trkpt>
      <trkpt lat="44.093784084543586" lon="5.949550643563271">
        <ele>561.5999755859375</ele>
        <time>2014-05-21T07:58:07Z</time>
      </trkpt>
      <trkpt lat="44.093731949105859" lon="5.949519379064441">
        <ele>562</ele>
        <time>2014-05-21T07:58:08Z</time>
      </trkpt>
      <trkpt lat="44.093683334067464" lon="5.949485935270786">
        <ele>562.4000244140625</ele>
        <time>2014-05-21T07:58:09Z</time>
      </trkpt>
      <trkpt lat="44.093427769839764" lon="5.949338329955936">
        <ele>563</ele>
        <time>2014-05-21T07:58:14Z</time>
      </trkpt>
      <trkpt lat="44.093295084312558" lon="5.949246129021049">
        <ele>564</ele>
        <time>2014-05-21T07:58:17Z</time>
      </trkpt>
      <trkpt lat="44.093138845637441" lon="5.949162393808365">
        <ele>565</ele>
        <time>2014-05-21T07:58:21Z</time>
      </trkpt>
      <trkpt lat="44.09303130581975" lon="5.949095506221056">
        <ele>565.4000244140625</ele>
        <time>2014-05-21T07:58:24Z</time>
      </trkpt>
      <trkpt lat="44.092925861477852" lon="5.949025098234415">
        <ele>566.4000244140625</ele>
        <time>2014-05-21T07:58:27Z</time>
      </trkpt>
      <trkpt lat="44.092887220904231" lon="5.949004897847772">
        <ele>566.5999755859375</ele>
        <time>2014-05-21T07:58:28Z</time>
      </trkpt>
      <trkpt lat="44.092679601162672" lon="5.948886126279831">
        <ele>567.5999755859375</ele>
        <time>2014-05-21T07:58:34Z</time>
      </trkpt>
      <trkpt lat="44.092647582292557" lon="5.948867937549949">
        <ele>567.5999755859375</ele>
        <time>2014-05-21T07:58:35Z</time>
      </trkpt>
      <trkpt lat="44.092552280053496" lon="5.948818819597364">
        <ele>568.79998779296875</ele>
        <time>2014-05-21T07:58:38Z</time>
      </trkpt>
      <trkpt lat="44.092396125197411" lon="5.948773892596364">
        <ele>569.4000244140625</ele>
        <time>2014-05-21T07:58:43Z</time>
      </trkpt>
      <trkpt lat="44.092305097728968" lon="5.948760397732258">
        <ele>569.79998779296875</ele>
        <time>2014-05-21T07:58:46Z</time>
      </trkpt>
      <trkpt lat="44.092204011976719" lon="5.948765259236097">
        <ele>570.4000244140625</ele>
        <time>2014-05-21T07:58:49Z</time>
      </trkpt>
      <trkpt lat="44.092137962579727" lon="5.94876928254962">
        <ele>570.79998779296875</ele>
        <time>2014-05-21T07:58:51Z</time>
      </trkpt>
      <trkpt lat="44.091942748054862" lon="5.948757883161306">
        <ele>572</ele>
        <time>2014-05-21T07:58:57Z</time>
      </trkpt>
      <trkpt lat="44.091907627880573" lon="5.948751261457801">
        <ele>572.20001220703125</ele>
        <time>2014-05-21T07:58:58Z</time>
      </trkpt>
      <trkpt lat="44.09168710000813" lon="5.948658222332597">
        <ele>573.20001220703125</ele>
        <time>2014-05-21T07:59:05Z</time>
      </trkpt>
      <trkpt lat="44.091658433899283" lon="5.948636764660478">
        <ele>573.20001220703125</ele>
        <time>2014-05-21T07:59:06Z</time>
      </trkpt>
      <trkpt lat="44.091530945152044" lon="5.948515729978681">
        <ele>574.20001220703125</ele>
        <time>2014-05-21T07:59:11Z</time>
      </trkpt>
      <trkpt lat="44.091483922675252" lon="5.948461918160319">
        <ele>574.5999755859375</ele>
        <time>2014-05-21T07:59:13Z</time>
      </trkpt>
      <trkpt lat="44.091355511918664" lon="5.948337949812412">
        <ele>575.4000244140625</ele>
        <time>2014-05-21T07:59:18Z</time>
      </trkpt>
      <trkpt lat="44.091271692886949" lon="5.948266871273518">
        <ele>575.79998779296875</ele>
        <time>2014-05-21T07:59:21Z</time>
      </trkpt>
      <trkpt lat="44.091134984046221" lon="5.948162684217095">
        <ele>576.5999755859375</ele>
        <time>2014-05-21T07:59:26Z</time>
      </trkpt>
      <trkpt lat="44.091020235791802" lon="5.948088588193059">
        <ele>577</ele>
        <time>2014-05-21T07:59:30Z</time>
      </trkpt>
      <trkpt lat="44.090885119512677" lon="5.947998818010092">
        <ele>577.5999755859375</ele>
        <time>2014-05-21T07:59:35Z</time>
      </trkpt>
      <trkpt lat="44.090803731232882" lon="5.947951627895236">
        <ele>578.79998779296875</ele>
        <time>2014-05-21T07:59:38Z</time>
      </trkpt>
      <trkpt lat="44.090774478390813" lon="5.947940228506923">
        <ele>579</ele>
        <time>2014-05-21T07:59:39Z</time>
      </trkpt>
      <trkpt lat="44.090625448152423" lon="5.947903683409095">
        <ele>579.79998779296875</ele>
        <time>2014-05-21T07:59:44Z</time>
      </trkpt>
      <trkpt lat="44.09056568518281" lon="5.947907119989395">
        <ele>580.20001220703125</ele>
        <time>2014-05-21T07:59:46Z</time>
      </trkpt>
      <trkpt lat="44.090445823967457" lon="5.947922794148326">
        <ele>581.20001220703125</ele>
        <time>2014-05-21T07:59:50Z</time>
      </trkpt>
      <trkpt lat="44.090327555313706" lon="5.947969313710928">
        <ele>581.20001220703125</ele>
        <time>2014-05-21T07:59:54Z</time>
      </trkpt>
      <trkpt lat="44.09011666662991" lon="5.948077272623777">
        <ele>582.20001220703125</ele>
        <time>2014-05-21T08:00:02Z</time>
      </trkpt>
      <trkpt lat="44.090088000521064" lon="5.948093449696899">
        <ele>582.4000244140625</ele>
        <time>2014-05-21T08:00:03Z</time>
      </trkpt>
      <trkpt lat="44.089884739369154" lon="5.948194786906242">
        <ele>583.4000244140625</ele>
        <time>2014-05-21T08:00:10Z</time>
      </trkpt>
      <trkpt lat="44.089828245341778" lon="5.948220938444138">
        <ele>583.5999755859375</ele>
        <time>2014-05-21T08:00:12Z</time>
      </trkpt>
      <trkpt lat="44.089694302529097" lon="5.948254130780697">
        <ele>584.5999755859375</ele>
        <time>2014-05-21T08:00:17Z</time>
      </trkpt>
      <trkpt lat="44.089523982256651" lon="5.948265362530947">
        <ele>585.79998779296875</ele>
        <time>2014-05-21T08:00:23Z</time>
      </trkpt>
      <trkpt lat="44.089470338076353" lon="5.948262177407742">
        <ele>586.20001220703125</ele>
        <time>2014-05-21T08:00:25Z</time>
      </trkpt>
      <trkpt lat="44.089359445497394" lon="5.948239210993052">
        <ele>587</ele>
        <time>2014-05-21T08:00:29Z</time>
      </trkpt>
      <trkpt lat="44.089214606210589" lon="5.94821716658771">
        <ele>587.5999755859375</ele>
        <time>2014-05-21T08:00:34Z</time>
      </trkpt>
      <trkpt lat="44.089133888483047" lon="5.948199229314923">
        <ele>588</ele>
        <time>2014-05-21T08:00:37Z</time>
      </trkpt>
      <trkpt lat="44.089020565152168" lon="5.948178693652153">
        <ele>588.79998779296875</ele>
        <time>2014-05-21T08:00:41Z</time>
      </trkpt>
      <trkpt lat="44.088992653414607" lon="5.948168216273189">
        <ele>589</ele>
        <time>2014-05-21T08:00:42Z</time>
      </trkpt>
      <trkpt lat="44.088835073634982" lon="5.948076853528619">
        <ele>589.5999755859375</ele>
        <time>2014-05-21T08:00:48Z</time>
      </trkpt>
      <trkpt lat="44.088742956519127" lon="5.947974007576704">
        <ele>590.20001220703125</ele>
        <time>2014-05-21T08:00:52Z</time>
      </trkpt>
      <trkpt lat="44.088690234348178" lon="5.947892870754004">
        <ele>590.79998779296875</ele>
        <time>2014-05-21T08:00:55Z</time>
      </trkpt>
      <trkpt lat="44.088648743927479" lon="5.947793796658516">
        <ele>591.4000244140625</ele>
        <time>2014-05-21T08:00:58Z</time>
      </trkpt>
      <trkpt lat="44.088609684258699" lon="5.947656333446503">
        <ele>592.5999755859375</ele>
        <time>2014-05-21T08:01:02Z</time>
      </trkpt>
      <trkpt lat="44.088580096140504" lon="5.947372270748019">
        <ele>593.5999755859375</ele>
        <time>2014-05-21T08:01:10Z</time>
      </trkpt>
      <trkpt lat="44.088583197444677" lon="5.947130033746362">
        <ele>594.5999755859375</ele>
        <time>2014-05-21T08:01:16Z</time>
      </trkpt>
      <trkpt lat="44.08858135342598" lon="5.947007741779089">
        <ele>595.20001220703125</ele>
        <time>2014-05-21T08:01:19Z</time>
      </trkpt>
      <trkpt lat="44.088568529114127" lon="5.94684605486691">
        <ele>595.79998779296875</ele>
        <time>2014-05-21T08:01:23Z</time>
      </trkpt>
      <trkpt lat="44.088522428646684" lon="5.946652516722679">
        <ele>597</ele>
        <time>2014-05-21T08:01:28Z</time>
      </trkpt>
      <trkpt lat="44.08844749443233" lon="5.946479262784123">
        <ele>598</ele>
        <time>2014-05-21T08:01:33Z</time>
      </trkpt>
      <trkpt lat="44.088407093659043" lon="5.946420505642891">
        <ele>598.4000244140625</ele>
        <time>2014-05-21T08:01:35Z</time>
      </trkpt>
      <trkpt lat="44.088244065642357" lon="5.946202827617526">
        <ele>599</ele>
        <time>2014-05-21T08:01:43Z</time>
      </trkpt>
      <trkpt lat="44.088199222460389" lon="5.946146920323372">
        <ele>599.4000244140625</ele>
        <time>2014-05-21T08:01:45Z</time>
      </trkpt>
      <trkpt lat="44.088113643229008" lon="5.946039380505681">
        <ele>600</ele>
        <time>2014-05-21T08:01:49Z</time>
      </trkpt>
      <trkpt lat="44.08802823163569" lon="5.945935780182481">
        <ele>601</ele>
        <time>2014-05-21T08:01:53Z</time>
      </trkpt>
      <trkpt lat="44.087984310463071" lon="5.945879789069295">
        <ele>601.5999755859375</ele>
        <time>2014-05-21T08:01:55Z</time>
      </trkpt>
      <trkpt lat="44.087893199175596" lon="5.945726232603192">
        <ele>602</ele>
        <time>2014-05-21T08:02:00Z</time>
      </trkpt>
      <trkpt lat="44.087867718189955" lon="5.945651298388839">
        <ele>602.5999755859375</ele>
        <time>2014-05-21T08:02:02Z</time>
      </trkpt>
      <trkpt lat="44.08786503598094" lon="5.945482905954123">
        <ele>603</ele>
        <time>2014-05-21T08:02:06Z</time>
      </trkpt>
      <trkpt lat="44.087876603007317" lon="5.945441164076328">
        <ele>603.20001220703125</ele>
        <time>2014-05-21T08:02:07Z</time>
      </trkpt>
      <trkpt lat="44.087995793670416" lon="5.945273526012898">
        <ele>603.5999755859375</ele>
        <time>2014-05-21T08:02:12Z</time>
      </trkpt>
      <trkpt lat="44.088053880259395" lon="5.945225497707725">
        <ele>604.20001220703125</ele>
        <time>2014-05-21T08:02:14Z</time>
      </trkpt>
      <trkpt lat="44.088270971551538" lon="5.945036401972175">
        <ele>604.79998779296875</ele>
        <time>2014-05-21T08:02:21Z</time>
      </trkpt>
      <trkpt lat="44.088446740061045" lon="5.944889215752482">
        <ele>605.4000244140625</ele>
        <time>2014-05-21T08:02:26Z</time>
      </trkpt>
      <trkpt lat="44.088582023978233" lon="5.94475275836885">
        <ele>605.4000244140625</ele>
        <time>2014-05-21T08:02:30Z</time>
      </trkpt>
      <trkpt lat="44.088830715045333" lon="5.94445126131177">
        <ele>606.4000244140625</ele>
        <time>2014-05-21T08:02:38Z</time>
      </trkpt>
      <trkpt lat="44.089036155492067" lon="5.944197541102767">
        <ele>607.4000244140625</ele>
        <time>2014-05-21T08:02:45Z</time>
      </trkpt>
      <trkpt lat="44.089091056957841" lon="5.944126714020968">
        <ele>607.5999755859375</ele>
        <time>2014-05-21T08:02:47Z</time>
      </trkpt>
      <trkpt lat="44.089228184893727" lon="5.943889757618308">
        <ele>608.5999755859375</ele>
        <time>2014-05-21T08:02:53Z</time>
      </trkpt>
      <trkpt lat="44.089241344481707" lon="5.943843824788928">
        <ele>608.5999755859375</ele>
        <time>2014-05-21T08:02:54Z</time>
      </trkpt>
      <trkpt lat="44.089233549311757" lon="5.943646598607302">
        <ele>609</ele>
        <time>2014-05-21T08:02:58Z</time>
      </trkpt>
      <trkpt lat="44.089121734723449" lon="5.943446522578597">
        <ele>609.4000244140625</ele>
        <time>2014-05-21T08:03:03Z</time>
      </trkpt>
      <trkpt lat="44.088903469964862" lon="5.943248961120844">
        <ele>609.20001220703125</ele>
        <time>2014-05-21T08:03:10Z</time>
      </trkpt>
      <trkpt lat="44.088847646489739" lon="5.94320135191083">
        <ele>609.79998779296875</ele>
        <time>2014-05-21T08:03:12Z</time>
      </trkpt>
      <trkpt lat="44.088746141642332" lon="5.943099427968264">
        <ele>610.79998779296875</ele>
        <time>2014-05-21T08:03:17Z</time>
      </trkpt>
      <trkpt lat="44.088694173842669" lon="5.943054752424359">
        <ele>611</ele>
        <time>2014-05-21T08:03:19Z</time>
      </trkpt>
      <trkpt lat="44.088566768914461" lon="5.942947715520859">
        <ele>611.79998779296875</ele>
        <time>2014-05-21T08:03:24Z</time>
      </trkpt>
      <trkpt lat="44.088464844971895" lon="5.942855598405004">
        <ele>612.5999755859375</ele>
        <time>2014-05-21T08:03:28Z</time>
      </trkpt>
      <trkpt lat="44.088417151942849" lon="5.942812096327543">
        <ele>613</ele>
        <time>2014-05-21T08:03:30Z</time>
      </trkpt>
      <trkpt lat="44.08825152553618" lon="5.942653762176633">
        <ele>614</ele>
        <time>2014-05-21T08:03:37Z</time>
      </trkpt>
      <trkpt lat="44.088229481130838" lon="5.942627275362611">
        <ele>614</ele>
        <time>2014-05-21T08:03:38Z</time>
      </trkpt>
      <trkpt lat="44.08810107037425" lon="5.942445388063788">
        <ele>614.5999755859375</ele>
        <time>2014-05-21T08:03:44Z</time>
      </trkpt>
      <trkpt lat="44.088057819753885" lon="5.942337093874812">
        <ele>615.20001220703125</ele>
        <time>2014-05-21T08:03:47Z</time>
      </trkpt>
      <trkpt lat="44.088002163916826" lon="5.94217574223876">
        <ele>616</ele>
        <time>2014-05-21T08:03:51Z</time>
      </trkpt>
      <trkpt lat="44.087918512523174" lon="5.941920261830092">
        <ele>616.20001220703125</ele>
        <time>2014-05-21T08:03:57Z</time>
      </trkpt>
      <trkpt lat="44.087859420105815" lon="5.941735357046127">
        <ele>617</ele>
        <time>2014-05-21T08:04:01Z</time>
      </trkpt>
      <trkpt lat="44.087846763432026" lon="5.94168808311224">
        <ele>617.20001220703125</ele>
        <time>2014-05-21T08:04:02Z</time>
      </trkpt>
      <trkpt lat="44.087681639939547" lon="5.94121266156435">
        <ele>618.20001220703125</ele>
        <time>2014-05-21T08:04:12Z</time>
      </trkpt>
      <trkpt lat="44.08765004016459" lon="5.94112079590559">
        <ele>618.4000244140625</ele>
        <time>2014-05-21T08:04:14Z</time>
      </trkpt>
      <trkpt lat="44.087546607479453" lon="5.94085106626153">
        <ele>619</ele>
        <time>2014-05-21T08:04:20Z</time>
      </trkpt>
      <trkpt lat="44.087483324110508" lon="5.940692564472556">
        <ele>619.4000244140625</ele>
        <time>2014-05-21T08:04:24Z</time>
      </trkpt>
      <trkpt lat="44.087470415979624" lon="5.940650068223476">
        <ele>619.5999755859375</ele>
        <time>2014-05-21T08:04:25Z</time>
      </trkpt>
      <trkpt lat="44.087324319407344" lon="5.940252933651209">
        <ele>620.20001220703125</ele>
        <time>2014-05-21T08:04:35Z</time>
      </trkpt>
      <trkpt lat="44.087296072393656" lon="5.940173305571079">
        <ele>620.5999755859375</ele>
        <time>2014-05-21T08:04:37Z</time>
      </trkpt>
      <trkpt lat="44.087177300825715" lon="5.939845321699977">
        <ele>621.5999755859375</ele>
        <time>2014-05-21T08:04:45Z</time>
      </trkpt>
      <trkpt lat="44.087034054100513" lon="5.939475428313017">
        <ele>622.20001220703125</ele>
        <time>2014-05-21T08:04:54Z</time>
      </trkpt>
      <trkpt lat="44.086967334151268" lon="5.939378449693322">
        <ele>622.79998779296875</ele>
        <time>2014-05-21T08:04:57Z</time>
      </trkpt>
      <trkpt lat="44.086884018033743" lon="5.939299995079637">
        <ele>622.79998779296875</ele>
        <time>2014-05-21T08:05:00Z</time>
      </trkpt>
      <trkpt lat="44.086695006117225" lon="5.939247524365783">
        <ele>623.79998779296875</ele>
        <time>2014-05-21T08:05:06Z</time>
      </trkpt>
      <trkpt lat="44.086469197645783" lon="5.939234029501677">
        <ele>624.4000244140625</ele>
        <time>2014-05-21T08:05:13Z</time>
      </trkpt>
      <trkpt lat="44.086379343643785" lon="5.939231514930725">
        <ele>625</ele>
        <time>2014-05-21T08:05:16Z</time>
      </trkpt>
      <trkpt lat="44.086193600669503" lon="5.939217852428556">
        <ele>625.4000244140625</ele>
        <time>2014-05-21T08:05:22Z</time>
      </trkpt>
      <trkpt lat="44.086046414449811" lon="5.939208548516035">
        <ele>626.20001220703125</ele>
        <time>2014-05-21T08:05:27Z</time>
      </trkpt>
      <trkpt lat="44.085986651480198" lon="5.93921466730535">
        <ele>626.20001220703125</ele>
        <time>2014-05-21T08:05:29Z</time>
      </trkpt>
      <trkpt lat="44.085716083645821" lon="5.939310388639569">
        <ele>626.79998779296875</ele>
        <time>2014-05-21T08:05:38Z</time>
      </trkpt>
      <trkpt lat="44.08559781499207" lon="5.939377024769783">
        <ele>627.20001220703125</ele>
        <time>2014-05-21T08:05:42Z</time>
      </trkpt>
      <trkpt lat="44.085416179150343" lon="5.939465370029211">
        <ele>628.20001220703125</ele>
        <time>2014-05-21T08:05:48Z</time>
      </trkpt>
      <trkpt lat="44.085389105603099" lon="5.939477607607842">
        <ele>628.4000244140625</ele>
        <time>2014-05-21T08:05:49Z</time>
      </trkpt>
      <trkpt lat="44.085234962403774" lon="5.939551368355751">
        <ele>628.5999755859375</ele>
        <time>2014-05-21T08:05:55Z</time>
      </trkpt>
      <trkpt lat="44.085094565525651" lon="5.939626386389136">
        <ele>629.4000244140625</ele>
        <time>2014-05-21T08:06:00Z</time>
      </trkpt>
      <trkpt lat="44.084977302700281" lon="5.939676761627197">
        <ele>630</ele>
        <time>2014-05-21T08:06:04Z</time>
      </trkpt>
      <trkpt lat="44.084829781204462" lon="5.939752953127027">
        <ele>630.4000244140625</ele>
        <time>2014-05-21T08:06:09Z</time>
      </trkpt>
      <trkpt lat="44.084672704339027" lon="5.939824534580112">
        <ele>631</ele>
        <time>2014-05-21T08:06:14Z</time>
      </trkpt>
      <trkpt lat="44.084551753476262" lon="5.939879519864917">
        <ele>631.5999755859375</ele>
        <time>2014-05-21T08:06:18Z</time>
      </trkpt>
      <trkpt lat="44.084346480667591" lon="5.939984880387783">
        <ele>632.20001220703125</ele>
        <time>2014-05-21T08:06:25Z</time>
      </trkpt>
      <trkpt lat="44.084289567545056" lon="5.940023856237531">
        <ele>632.79998779296875</ele>
        <time>2014-05-21T08:06:27Z</time>
      </trkpt>
      <trkpt lat="44.084106255322695" lon="5.940149752423167">
        <ele>633.20001220703125</ele>
        <time>2014-05-21T08:06:33Z</time>
      </trkpt>
      <trkpt lat="44.083893354982138" lon="5.940187806263566">
        <ele>634</ele>
        <time>2014-05-21T08:06:39Z</time>
      </trkpt>
      <trkpt lat="44.083776930347085" lon="5.940091833472252">
        <ele>634.79998779296875</ele>
        <time>2014-05-21T08:06:43Z</time>
      </trkpt>
      <trkpt lat="44.083712054416537" lon="5.939981276169419">
        <ele>635</ele>
        <time>2014-05-21T08:06:46Z</time>
      </trkpt>
      <trkpt lat="44.083673413842916" lon="5.939848171547055">
        <ele>635.79998779296875</ele>
        <time>2014-05-21T08:06:49Z</time>
      </trkpt>
      <trkpt lat="44.083623373880982" lon="5.939660500735045">
        <ele>636.20001220703125</ele>
        <time>2014-05-21T08:06:53Z</time>
      </trkpt>
      <trkpt lat="44.083573333919048" lon="5.939464196562767">
        <ele>636.5999755859375</ele>
        <time>2014-05-21T08:06:57Z</time>
      </trkpt>
      <trkpt lat="44.083557492122054" lon="5.939414575695992">
        <ele>636.79998779296875</ele>
        <time>2014-05-21T08:06:58Z</time>
      </trkpt>
      <trkpt lat="44.083530670031905" lon="5.939303683117032">
        <ele>636.79998779296875</ele>
        <time>2014-05-21T08:07:00Z</time>
      </trkpt>
      <trkpt lat="44.083462860435247" lon="5.939055327326059">
        <ele>636.4000244140625</ele>
        <time>2014-05-21T08:07:04Z</time>
      </trkpt>
      <trkpt lat="44.083318607881665" lon="5.93846214003861">
        <ele>637</ele>
        <time>2014-05-21T08:07:13Z</time>
      </trkpt>
      <trkpt lat="44.083265718072653" lon="5.9380360879004">
        <ele>636.5999755859375</ele>
        <time>2014-05-21T08:07:19Z</time>
      </trkpt>
      <trkpt lat="44.083365797996521" lon="5.937777506187558">
        <ele>636.79998779296875</ele>
        <time>2014-05-21T08:07:23Z</time>
      </trkpt>
      <trkpt lat="44.083481887355447" lon="5.937651610001922">
        <ele>637</ele>
        <time>2014-05-21T08:07:26Z</time>
      </trkpt>
      <trkpt lat="44.083525724709034" lon="5.937613807618618">
        <ele>637.4000244140625</ele>
        <time>2014-05-21T08:07:27Z</time>
      </trkpt>
      <trkpt lat="44.083570567891002" lon="5.937581285834312">
        <ele>637.5999755859375</ele>
        <time>2014-05-21T08:07:28Z</time>
      </trkpt>
      <trkpt lat="44.083857396617532" lon="5.937299653887749">
        <ele>637.5999755859375</ele>
        <time>2014-05-21T08:07:35Z</time>
      </trkpt>
      <trkpt lat="44.083937611430883" lon="5.937063284218311">
        <ele>637.4000244140625</ele>
        <time>2014-05-21T08:07:39Z</time>
      </trkpt>
      <trkpt lat="44.083908190950751" lon="5.936860777437687">
        <ele>637.20001220703125</ele>
        <time>2014-05-21T08:07:42Z</time>
      </trkpt>
      <trkpt lat="44.083757484331727" lon="5.936663215979934">
        <ele>636.79998779296875</ele>
        <time>2014-05-21T08:07:46Z</time>
      </trkpt>
      <trkpt lat="44.083606861531734" lon="5.936591383069754">
        <ele>636.5999755859375</ele>
        <time>2014-05-21T08:07:49Z</time>
      </trkpt>
      <trkpt lat="44.083501165732741" lon="5.936560370028019">
        <ele>637</ele>
        <time>2014-05-21T08:07:51Z</time>
      </trkpt>
      <trkpt lat="44.083092464134097" lon="5.936426594853401">
        <ele>638.20001220703125</ele>
        <time>2014-05-21T08:07:59Z</time>
      </trkpt>
      <trkpt lat="44.083045022562146" lon="5.936411339789629">
        <ele>638.5999755859375</ele>
        <time>2014-05-21T08:08:00Z</time>
      </trkpt>
      <trkpt lat="44.082812592387199" lon="5.936332801356912">
        <ele>639.5999755859375</ele>
        <time>2014-05-21T08:08:05Z</time>
      </trkpt>
      <trkpt lat="44.082676973193884" lon="5.936288125813007">
        <ele>640.20001220703125</ele>
        <time>2014-05-21T08:08:08Z</time>
      </trkpt>
      <trkpt lat="44.082592818886042" lon="5.936261219903827">
        <ele>640.5999755859375</ele>
        <time>2014-05-21T08:08:10Z</time>
      </trkpt>
      <trkpt lat="44.082395089790225" lon="5.936201959848404">
        <ele>641.4000244140625</ele>
        <time>2014-05-21T08:08:15Z</time>
      </trkpt>
      <trkpt lat="44.082115888595581" lon="5.936113363131881">
        <ele>641.5999755859375</ele>
        <time>2014-05-21T08:08:22Z</time>
      </trkpt>
      <trkpt lat="44.081931067630649" lon="5.936049744486809">
        <ele>642.79998779296875</ele>
        <time>2014-05-21T08:08:27Z</time>
      </trkpt>
      <trkpt lat="44.081782205030322" lon="5.935986964032054">
        <ele>643.20001220703125</ele>
        <time>2014-05-21T08:08:31Z</time>
      </trkpt>
      <trkpt lat="44.081685813143849" lon="5.935913287103176">
        <ele>643.79998779296875</ele>
        <time>2014-05-21T08:08:34Z</time>
      </trkpt>
      <trkpt lat="44.081594534218311" lon="5.935807004570961">
        <ele>644.4000244140625</ele>
        <time>2014-05-21T08:08:37Z</time>
      </trkpt>
      <trkpt lat="44.081533430144191" lon="5.935675157234073">
        <ele>645</ele>
        <time>2014-05-21T08:08:40Z</time>
      </trkpt>
      <trkpt lat="44.08150652423501" lon="5.935576502233744">
        <ele>645.4000244140625</ele>
        <time>2014-05-21T08:08:42Z</time>
      </trkpt>
      <trkpt lat="44.081499483436346" lon="5.935268802568317">
        <ele>646</ele>
        <time>2014-05-21T08:08:48Z</time>
      </trkpt>
      <trkpt lat="44.081574669107795" lon="5.9349450096488">
        <ele>647.20001220703125</ele>
        <time>2014-05-21T08:08:55Z</time>
      </trkpt>
      <trkpt lat="44.081602748483419" lon="5.934853982180357">
        <ele>647.5999755859375</ele>
        <time>2014-05-21T08:08:57Z</time>
      </trkpt>
      <trkpt lat="44.081672402098775" lon="5.934639740735292">
        <ele>648.20001220703125</ele>
        <time>2014-05-21T08:09:02Z</time>
      </trkpt>
      <trkpt lat="44.08169805072248" lon="5.934548461809754">
        <ele>648.20001220703125</ele>
        <time>2014-05-21T08:09:04Z</time>
      </trkpt>
      <trkpt lat="44.081720933318138" lon="5.934316115453839">
        <ele>649.4000244140625</ele>
        <time>2014-05-21T08:09:09Z</time>
      </trkpt>
      <trkpt lat="44.08171028830111" lon="5.934271775186062">
        <ele>649.4000244140625</ele>
        <time>2014-05-21T08:09:10Z</time>
      </trkpt>
      <trkpt lat="44.081599898636341" lon="5.934040769934654">
        <ele>649.79998779296875</ele>
        <time>2014-05-21T08:09:16Z</time>
      </trkpt>
      <trkpt lat="44.081432679668069" lon="5.933893248438835">
        <ele>650.4000244140625</ele>
        <time>2014-05-21T08:09:22Z</time>
      </trkpt>
      <trkpt lat="44.081204691901803" lon="5.933740613982081">
        <ele>651.4000244140625</ele>
        <time>2014-05-21T08:09:30Z</time>
      </trkpt>
      <trkpt lat="44.081175858154893" lon="5.933720832690597">
        <ele>651.4000244140625</ele>
        <time>2014-05-21T08:09:31Z</time>
      </trkpt>
      <trkpt lat="44.080967148765922" lon="5.933544645085931">
        <ele>652</ele>
        <time>2014-05-21T08:09:39Z</time>
      </trkpt>
      <trkpt lat="44.080916689708829" lon="5.933433752506971">
        <ele>652.5999755859375</ele>
        <time>2014-05-21T08:09:42Z</time>
      </trkpt>
      <trkpt lat="44.08091333694756" lon="5.933351023122668">
        <ele>652.79998779296875</ele>
        <time>2014-05-21T08:09:44Z</time>
      </trkpt>
      <trkpt lat="44.08097586594522" lon="5.933207608759403">
        <ele>653.5999755859375</ele>
        <time>2014-05-21T08:09:48Z</time>
      </trkpt>
      <trkpt lat="44.08099832944572" lon="5.933180954307318">
        <ele>653.5999755859375</ele>
        <time>2014-05-21T08:09:49Z</time>
      </trkpt>
      <trkpt lat="44.081130931153893" lon="5.933064362034202">
        <ele>654.5999755859375</ele>
        <time>2014-05-21T08:09:54Z</time>
      </trkpt>
      <trkpt lat="44.081158339977264" lon="5.933044077828527">
        <ele>654.5999755859375</ele>
        <time>2014-05-21T08:09:55Z</time>
      </trkpt>
      <trkpt lat="44.081351878121495" lon="5.932896472513676">
        <ele>655.4000244140625</ele>
        <time>2014-05-21T08:10:02Z</time>
      </trkpt>
      <trkpt lat="44.081402588635683" lon="5.932841403409839">
        <ele>655.79998779296875</ele>
        <time>2014-05-21T08:10:04Z</time>
      </trkpt>
      <trkpt lat="44.081517169252038" lon="5.932669574394822">
        <ele>656.4000244140625</ele>
        <time>2014-05-21T08:10:09Z</time>
      </trkpt>
      <trkpt lat="44.081614231690764" lon="5.932455668225884">
        <ele>657</ele>
        <time>2014-05-21T08:10:14Z</time>
      </trkpt>
      <trkpt lat="44.081650609150529" lon="5.932366233319044">
        <ele>657.5999755859375</ele>
        <time>2014-05-21T08:10:16Z</time>
      </trkpt>
      <trkpt lat="44.081719256937504" lon="5.932182753458619">
        <ele>658</ele>
        <time>2014-05-21T08:10:20Z</time>
      </trkpt>
      <trkpt lat="44.081763178110123" lon="5.932044871151447">
        <ele>658.5999755859375</ele>
        <time>2014-05-21T08:10:23Z</time>
      </trkpt>
      <trkpt lat="44.081812296062708" lon="5.931916628032923">
        <ele>659</ele>
        <time>2014-05-21T08:10:26Z</time>
      </trkpt>
      <trkpt lat="44.081875747069716" lon="5.931766843423247">
        <ele>659.5999755859375</ele>
        <time>2014-05-21T08:10:30Z</time>
      </trkpt>
      <trkpt lat="44.081914722919464" lon="5.931653520092368">
        <ele>660</ele>
        <time>2014-05-21T08:10:33Z</time>
      </trkpt>
      <trkpt lat="44.082000637426972" lon="5.931475153192878">
        <ele>660.5999755859375</ele>
        <time>2014-05-21T08:10:38Z</time>
      </trkpt>
      <trkpt lat="44.082058053463697" lon="5.931373899802566">
        <ele>661.20001220703125</ele>
        <time>2014-05-21T08:10:41Z</time>
      </trkpt>
      <trkpt lat="44.082213286310434" lon="5.931164855137467">
        <ele>662</ele>
        <time>2014-05-21T08:10:48Z</time>
      </trkpt>
      <trkpt lat="44.082237677648664" lon="5.931137027218938">
        <ele>662.20001220703125</ele>
        <time>2014-05-21T08:10:49Z</time>
      </trkpt>
      <trkpt lat="44.082377068698406" lon="5.93096855096519">
        <ele>663.20001220703125</ele>
        <time>2014-05-21T08:10:55Z</time>
      </trkpt>
      <trkpt lat="44.082447644323111" lon="5.930879954248667">
        <ele>663.20001220703125</ele>
        <time>2014-05-21T08:10:58Z</time>
      </trkpt>
      <trkpt lat="44.082570858299732" lon="5.930746262893081">
        <ele>664.4000244140625</ele>
        <time>2014-05-21T08:11:03Z</time>
      </trkpt>
      <trkpt lat="44.082593573257327" lon="5.930721117183566">
        <ele>664.79998779296875</ele>
        <time>2014-05-21T08:11:04Z</time>
      </trkpt>
      <trkpt lat="44.082747884094715" lon="5.930541912093759">
        <ele>665.5999755859375</ele>
        <time>2014-05-21T08:11:11Z</time>
      </trkpt>
      <trkpt lat="44.082926250994205" lon="5.930341081693769">
        <ele>666.4000244140625</ele>
        <time>2014-05-21T08:11:19Z</time>
      </trkpt>
      <trkpt lat="44.082947121933103" lon="5.930314846336842">
        <ele>666.5999755859375</ele>
        <time>2014-05-21T08:11:20Z</time>
      </trkpt>
      <trkpt lat="44.083080813288689" lon="5.930186016485095">
        <ele>667.4000244140625</ele>
        <time>2014-05-21T08:11:26Z</time>
      </trkpt>
      <trkpt lat="44.08309992402792" lon="5.930162379518151">
        <ele>667.79998779296875</ele>
        <time>2014-05-21T08:11:27Z</time>
      </trkpt>
      <trkpt lat="44.083220707252622" lon="5.930037572979927">
        <ele>668.4000244140625</ele>
        <time>2014-05-21T08:11:34Z</time>
      </trkpt>
      <trkpt lat="44.083238393068314" lon="5.929890219122171">
        <ele>669.4000244140625</ele>
        <time>2014-05-21T08:15:22Z</time>
      </trkpt>
      <trkpt lat="44.083240991458297" lon="5.929868677631021">
        <ele>669.4000244140625</ele>
        <time>2014-05-21T08:15:23Z</time>
      </trkpt>
      <trkpt lat="44.083248786628246" lon="5.929709672927856">
        <ele>669.20001220703125</ele>
        <time>2014-05-21T08:15:28Z</time>
      </trkpt>
      <trkpt lat="44.083158848807216" lon="5.929570868611336">
        <ele>668.4000244140625</ele>
        <time>2014-05-21T08:15:32Z</time>
      </trkpt>
      <trkpt lat="44.083122303709388" lon="5.929553098976612">
        <ele>668.20001220703125</ele>
        <time>2014-05-21T08:15:33Z</time>
      </trkpt>
      <trkpt lat="44.083001604303718" lon="5.92953734099865">
        <ele>668</ele>
        <time>2014-05-21T08:15:36Z</time>
      </trkpt>
      <trkpt lat="44.082700442522764" lon="5.929609425365925">
        <ele>669.20001220703125</ele>
        <time>2014-05-21T08:15:44Z</time>
      </trkpt>
      <trkpt lat="44.082662388682365" lon="5.929615460336208">
        <ele>669.4000244140625</ele>
        <time>2014-05-21T08:15:45Z</time>
      </trkpt>
      <trkpt lat="44.082477232441306" lon="5.929661560803652">
        <ele>670.5999755859375</ele>
        <time>2014-05-21T08:15:50Z</time>
      </trkpt>
      <trkpt lat="44.082376565784216" lon="5.929660135880113">
        <ele>671.4000244140625</ele>
        <time>2014-05-21T08:15:53Z</time>
      </trkpt>
      <trkpt lat="44.082311941310763" lon="5.929634654894471">
        <ele>671.5999755859375</ele>
        <time>2014-05-21T08:15:55Z</time>
      </trkpt>
      <trkpt lat="44.082192247733474" lon="5.929566426202655">
        <ele>672.4000244140625</ele>
        <time>2014-05-21T08:15:59Z</time>
      </trkpt>
      <trkpt lat="44.082113290205598" lon="5.92950071208179">
        <ele>672.79998779296875</ele>
        <time>2014-05-21T08:16:02Z</time>
      </trkpt>
      <trkpt lat="44.081995105370879" lon="5.929360734298825">
        <ele>673.4000244140625</ele>
        <time>2014-05-21T08:16:07Z</time>
      </trkpt>
      <trkpt lat="44.081924445927143" lon="5.929268952459097">
        <ele>674</ele>
        <time>2014-05-21T08:16:10Z</time>
      </trkpt>
      <trkpt lat="44.081842973828316" lon="5.929183037951589">
        <ele>674.20001220703125</ele>
        <time>2014-05-21T08:16:13Z</time>
      </trkpt>
      <trkpt lat="44.081701152026653" lon="5.929043479263783">
        <ele>675.20001220703125</ele>
        <time>2014-05-21T08:16:18Z</time>
      </trkpt>
      <trkpt lat="44.081580452620983" lon="5.928955217823386">
        <ele>675.5999755859375</ele>
        <time>2014-05-21T08:16:22Z</time>
      </trkpt>
      <trkpt lat="44.081490430980921" lon="5.92889042571187">
        <ele>676.20001220703125</ele>
        <time>2014-05-21T08:16:25Z</time>
      </trkpt>
      <trkpt lat="44.081284319981933" lon="5.928765116259456">
        <ele>677.20001220703125</ele>
        <time>2014-05-21T08:16:32Z</time>
      </trkpt>
      <trkpt lat="44.08125389367342" lon="5.928749106824398">
        <ele>677.4000244140625</ele>
        <time>2014-05-21T08:16:33Z</time>
      </trkpt>
      <trkpt lat="44.081115424633026" lon="5.92865489423275">
        <ele>678.4000244140625</ele>
        <time>2014-05-21T08:16:38Z</time>
      </trkpt>
      <trkpt lat="44.081065719947219" lon="5.928606111556292">
        <ele>678.20001220703125</ele>
        <time>2014-05-21T08:16:40Z</time>
      </trkpt>
      <trkpt lat="44.080915600061417" lon="5.928445849567652">
        <ele>679.4000244140625</ele>
        <time>2014-05-21T08:16:46Z</time>
      </trkpt>
      <trkpt lat="44.080848963931203" lon="5.928337723016739">
        <ele>679.5999755859375</ele>
        <time>2014-05-21T08:16:49Z</time>
      </trkpt>
      <trkpt lat="44.080746369436383" lon="5.928140413016081">
        <ele>680.4000244140625</ele>
        <time>2014-05-21T08:16:54Z</time>
      </trkpt>
      <trkpt lat="44.080689456313848" lon="5.928020216524601">
        <ele>681.20001220703125</ele>
        <time>2014-05-21T08:16:57Z</time>
      </trkpt>
      <trkpt lat="44.08058350905776" lon="5.927776722237468">
        <ele>681.5999755859375</ele>
        <time>2014-05-21T08:17:03Z</time>
      </trkpt>
      <trkpt lat="44.080530283972621" lon="5.927661387249827">
        <ele>682.5999755859375</ele>
        <time>2014-05-21T08:17:06Z</time>
      </trkpt>
      <trkpt lat="44.080472616478801" lon="5.927543956786394">
        <ele>682.79998779296875</ele>
        <time>2014-05-21T08:17:09Z</time>
      </trkpt>
      <trkpt lat="44.080377062782645" lon="5.927304066717625">
        <ele>683.5999755859375</ele>
        <time>2014-05-21T08:17:15Z</time>
      </trkpt>
      <trkpt lat="44.080324089154601" lon="5.92718998901546">
        <ele>683.79998779296875</ele>
        <time>2014-05-21T08:17:18Z</time>
      </trkpt>
      <trkpt lat="44.080250663682818" lon="5.927031571045518">
        <ele>684.4000244140625</ele>
        <time>2014-05-21T08:17:22Z</time>
      </trkpt>
      <trkpt lat="44.080179752781987" lon="5.926874158903956">
        <ele>684.79998779296875</ele>
        <time>2014-05-21T08:17:26Z</time>
      </trkpt>
      <trkpt lat="44.08011051826179" lon="5.926727140322328">
        <ele>685.79998779296875</ele>
        <time>2014-05-21T08:17:30Z</time>
      </trkpt>
      <trkpt lat="44.080091742798686" lon="5.926691265776753">
        <ele>686</ele>
        <time>2014-05-21T08:17:31Z</time>
      </trkpt>
      <trkpt lat="44.079970540478826" lon="5.926419273018837">
        <ele>686.79998779296875</ele>
        <time>2014-05-21T08:17:38Z</time>
      </trkpt>
      <trkpt lat="44.079954195767641" lon="5.926378117874265">
        <ele>687</ele>
        <time>2014-05-21T08:17:39Z</time>
      </trkpt>
      <trkpt lat="44.079810110852122" lon="5.926042925566435">
        <ele>687.79998779296875</ele>
        <time>2014-05-21T08:17:47Z</time>
      </trkpt>
      <trkpt lat="44.079653033986688" lon="5.925685688853264">
        <ele>687.20001220703125</ele>
        <time>2014-05-21T08:17:55Z</time>
      </trkpt>
      <trkpt lat="44.079423453658819" lon="5.925319734960794">
        <ele>686.79998779296875</ele>
        <time>2014-05-21T08:18:03Z</time>
      </trkpt>
      <trkpt lat="44.079291857779026" lon="5.925240945070982">
        <ele>686.4000244140625</ele>
        <time>2014-05-21T08:18:06Z</time>
      </trkpt>
      <trkpt lat="44.079197980463505" lon="5.925215799361467">
        <ele>686.5999755859375</ele>
        <time>2014-05-21T08:18:08Z</time>
      </trkpt>
      <trkpt lat="44.079102426767349" lon="5.925202053040266">
        <ele>686.4000244140625</ele>
        <time>2014-05-21T08:18:10Z</time>
      </trkpt>
      <trkpt lat="44.078870667144656" lon="5.925194174051285">
        <ele>686.20001220703125</ele>
        <time>2014-05-21T08:18:15Z</time>
      </trkpt>
      <trkpt lat="44.078824231401086" lon="5.925195934250951">
        <ele>685.79998779296875</ele>
        <time>2014-05-21T08:18:16Z</time>
      </trkpt>
      <trkpt lat="44.078434724360704" lon="5.925202136859298">
        <ele>685.4000244140625</ele>
        <time>2014-05-21T08:18:24Z</time>
      </trkpt>
      <trkpt lat="44.078283933922648" lon="5.925155952572823">
        <ele>684.79998779296875</ele>
        <time>2014-05-21T08:18:27Z</time>
      </trkpt>
      <trkpt lat="44.0781379211694" lon="5.925080515444279">
        <ele>684.79998779296875</ele>
        <time>2014-05-21T08:18:30Z</time>
      </trkpt>
      <trkpt lat="44.077663505449891" lon="5.924763176590204">
        <ele>684.5999755859375</ele>
        <time>2014-05-21T08:18:40Z</time>
      </trkpt>
      <trkpt lat="44.077153382822871" lon="5.924413315951824">
        <ele>684.20001220703125</ele>
        <time>2014-05-21T08:18:50Z</time>
      </trkpt>
      <trkpt lat="44.076846353709698" lon="5.924136126413941">
        <ele>684</ele>
        <time>2014-05-21T08:18:56Z</time>
      </trkpt>
      <trkpt lat="44.076739149168134" lon="5.924021461978555">
        <ele>683.79998779296875</ele>
        <time>2014-05-21T08:18:58Z</time>
      </trkpt>
      <trkpt lat="44.076695814728737" lon="5.923961531370878">
        <ele>683.79998779296875</ele>
        <time>2014-05-21T08:18:59Z</time>
      </trkpt>
      <trkpt lat="44.076604619622231" lon="5.923836221918464">
        <ele>684</ele>
        <time>2014-05-21T08:19:01Z</time>
      </trkpt>
      <trkpt lat="44.076202288269997" lon="5.923270862549543">
        <ele>683</ele>
        <time>2014-05-21T08:19:10Z</time>
      </trkpt>
      <trkpt lat="44.076028279960155" lon="5.923026027157903">
        <ele>682.79998779296875</ele>
        <time>2014-05-21T08:19:14Z</time>
      </trkpt>
      <trkpt lat="44.075944293290377" lon="5.922901807352901">
        <ele>682.5999755859375</ele>
        <time>2014-05-21T08:19:16Z</time>
      </trkpt>
      <trkpt lat="44.075687974691391" lon="5.922543816268444">
        <ele>682.5999755859375</ele>
        <time>2014-05-21T08:19:22Z</time>
      </trkpt>
      <trkpt lat="44.075555456802249" lon="5.922242570668459">
        <ele>682</ele>
        <time>2014-05-21T08:19:26Z</time>
      </trkpt>
      <trkpt lat="44.075533160939813" lon="5.922158164903522">
        <ele>681.5999755859375</ele>
        <time>2014-05-21T08:19:27Z</time>
      </trkpt>
      <trkpt lat="44.075516229495406" lon="5.922072837129235">
        <ele>681.4000244140625</ele>
        <time>2014-05-21T08:19:28Z</time>
      </trkpt>
      <trkpt lat="44.075505416840315" lon="5.92198365367949">
        <ele>681.4000244140625</ele>
        <time>2014-05-21T08:19:29Z</time>
      </trkpt>
      <trkpt lat="44.075511703267694" lon="5.921797994524241">
        <ele>681.4000244140625</ele>
        <time>2014-05-21T08:19:31Z</time>
      </trkpt>
      <trkpt lat="44.075611615553498" lon="5.921446708962321">
        <ele>681</ele>
        <time>2014-05-21T08:19:35Z</time>
      </trkpt>
      <trkpt lat="44.075707085430622" lon="5.921302791684866">
        <ele>680.5999755859375</ele>
        <time>2014-05-21T08:19:37Z</time>
      </trkpt>
      <trkpt lat="44.075820492580533" lon="5.921196509152651">
        <ele>680</ele>
        <time>2014-05-21T08:19:39Z</time>
      </trkpt>
      <trkpt lat="44.075937168672681" lon="5.921100787818432">
        <ele>679.5999755859375</ele>
        <time>2014-05-21T08:19:41Z</time>
      </trkpt>
      <trkpt lat="44.076221901923418" lon="5.920842876657844">
        <ele>679.20001220703125</ele>
        <time>2014-05-21T08:19:46Z</time>
      </trkpt>
      <trkpt lat="44.076395994052291" lon="5.92068680562079">
        <ele>678.4000244140625</ele>
        <time>2014-05-21T08:19:49Z</time>
      </trkpt>
      <trkpt lat="44.076748872175813" lon="5.920328479260206">
        <ele>677.5999755859375</ele>
        <time>2014-05-21T08:19:55Z</time>
      </trkpt>
      <trkpt lat="44.076863704249263" lon="5.920195961371064">
        <ele>677.20001220703125</ele>
        <time>2014-05-21T08:19:57Z</time>
      </trkpt>
      <trkpt lat="44.077089009806514" lon="5.919937463477254">
        <ele>676</ele>
        <time>2014-05-21T08:20:01Z</time>
      </trkpt>
      <trkpt lat="44.077200321480632" lon="5.919810896739364">
        <ele>676</ele>
        <time>2014-05-21T08:20:03Z</time>
      </trkpt>
      <trkpt lat="44.077334431931376" lon="5.919585423544049">
        <ele>676.20001220703125</ele>
        <time>2014-05-21T08:20:06Z</time>
      </trkpt>
      <trkpt lat="44.077349184080958" lon="5.919482242316008">
        <ele>676.20001220703125</ele>
        <time>2014-05-21T08:20:07Z</time>
      </trkpt>
      <trkpt lat="44.077287996187806" lon="5.919311586767435">
        <ele>676.4000244140625</ele>
        <time>2014-05-21T08:20:09Z</time>
      </trkpt>
      <trkpt lat="44.077144414186478" lon="5.91924587264657">
        <ele>675.5999755859375</ele>
        <time>2014-05-21T08:20:11Z</time>
      </trkpt>
      <trkpt lat="44.076991779729724" lon="5.919256433844566">
        <ele>675</ele>
        <time>2014-05-21T08:20:13Z</time>
      </trkpt>
      <trkpt lat="44.076915252953768" lon="5.919258864596486">
        <ele>674.79998779296875</ele>
        <time>2014-05-21T08:20:14Z</time>
      </trkpt>
      <trkpt lat="44.076614761725068" lon="5.919197676703334">
        <ele>674.20001220703125</ele>
        <time>2014-05-21T08:20:18Z</time>
      </trkpt>
      <trkpt lat="44.076542090624571" lon="5.919160125777125">
        <ele>674.4000244140625</ele>
        <time>2014-05-21T08:20:19Z</time>
      </trkpt>
      <trkpt lat="44.076288873329759" lon="5.918920738622546">
        <ele>674.4000244140625</ele>
        <time>2014-05-21T08:20:23Z</time>
      </trkpt>
      <trkpt lat="44.07622491940856" lon="5.918618571013212">
        <ele>674</ele>
        <time>2014-05-21T08:20:26Z</time>
      </trkpt>
      <trkpt lat="44.076236234977841" lon="5.918403156101704">
        <ele>673.79998779296875</ele>
        <time>2014-05-21T08:20:28Z</time>
      </trkpt>
      <trkpt lat="44.076266493648291" lon="5.918194781988859">
        <ele>673.20001220703125</ele>
        <time>2014-05-21T08:20:30Z</time>
      </trkpt>
      <trkpt lat="44.076395491138101" lon="5.917594218626618">
        <ele>672.79998779296875</ele>
        <time>2014-05-21T08:20:36Z</time>
      </trkpt>
      <trkpt lat="44.076446034014225" lon="5.917404536157847">
        <ele>672.5999755859375</ele>
        <time>2014-05-21T08:20:38Z</time>
      </trkpt>
      <trkpt lat="44.076574025675654" lon="5.916907573118806">
        <ele>671.4000244140625</ele>
        <time>2014-05-21T08:20:43Z</time>
      </trkpt>
      <trkpt lat="44.076619958505034" lon="5.916592078283429">
        <ele>670.4000244140625</ele>
        <time>2014-05-21T08:20:46Z</time>
      </trkpt>
      <trkpt lat="44.07663538120687" lon="5.915963603183627">
        <ele>669.79998779296875</ele>
        <time>2014-05-21T08:20:52Z</time>
      </trkpt>
      <trkpt lat="44.0765699185431" lon="5.915365889668465">
        <ele>669.5999755859375</ele>
        <time>2014-05-21T08:20:58Z</time>
      </trkpt>
      <trkpt lat="44.076558770611882" lon="5.915265558287501">
        <ele>669.4000244140625</ele>
        <time>2014-05-21T08:20:59Z</time>
      </trkpt>
      <trkpt lat="44.076493559405208" lon="5.914782928302884">
        <ele>669</ele>
        <time>2014-05-21T08:21:04Z</time>
      </trkpt>
      <trkpt lat="44.076445866376162" lon="5.914503475651145">
        <ele>668.4000244140625</ele>
        <time>2014-05-21T08:21:07Z</time>
      </trkpt>
      <trkpt lat="44.076367411762476" lon="5.914066107943654">
        <ele>668.4000244140625</ele>
        <time>2014-05-21T08:21:12Z</time>
      </trkpt>
      <trkpt lat="44.076295243576169" lon="5.913466634228826">
        <ele>668</ele>
        <time>2014-05-21T08:21:19Z</time>
      </trkpt>
      <trkpt lat="44.076299015432596" lon="5.913022728636861">
        <ele>667.20001220703125</ele>
        <time>2014-05-21T08:21:24Z</time>
      </trkpt>
      <trkpt lat="44.076312761753798" lon="5.912839332595468">
        <ele>666.79998779296875</ele>
        <time>2014-05-21T08:21:26Z</time>
      </trkpt>
      <trkpt lat="44.076324412599206" lon="5.912452591583133">
        <ele>665.79998779296875</ele>
        <time>2014-05-21T08:21:30Z</time>
      </trkpt>
      <trkpt lat="44.076316449791193" lon="5.912255449220538">
        <ele>665.4000244140625</ele>
        <time>2014-05-21T08:21:32Z</time>
      </trkpt>
      <trkpt lat="44.076267667114735" lon="5.911858817562461">
        <ele>664.79998779296875</ele>
        <time>2014-05-21T08:21:36Z</time>
      </trkpt>
      <trkpt lat="44.076214861124754" lon="5.911547094583511">
        <ele>664.4000244140625</ele>
        <time>2014-05-21T08:21:39Z</time>
      </trkpt>
      <trkpt lat="44.076180327683687" lon="5.911340480670333">
        <ele>663</ele>
        <time>2014-05-21T08:21:41Z</time>
      </trkpt>
      <trkpt lat="44.07605049200356" lon="5.910549145191908">
        <ele>663.20001220703125</ele>
        <time>2014-05-21T08:21:49Z</time>
      </trkpt>
      <trkpt lat="44.076033141463995" lon="5.910450657829642">
        <ele>663</ele>
        <time>2014-05-21T08:21:50Z</time>
      </trkpt>
      <trkpt lat="44.075937084853649" lon="5.909883370622993">
        <ele>664</ele>
        <time>2014-05-21T08:21:56Z</time>
      </trkpt>
      <trkpt lat="44.075891571119428" lon="5.909595787525177">
        <ele>663.5999755859375</ele>
        <time>2014-05-21T08:21:59Z</time>
      </trkpt>
      <trkpt lat="44.075775733217597" lon="5.908896485343576">
        <ele>664.20001220703125</ele>
        <time>2014-05-21T08:22:07Z</time>
      </trkpt>
      <trkpt lat="44.075706666335464" lon="5.908352835103869">
        <ele>664.5999755859375</ele>
        <time>2014-05-21T08:22:14Z</time>
      </trkpt>
      <trkpt lat="44.075694009661674" lon="5.907780518755317">
        <ele>664.4000244140625</ele>
        <time>2014-05-21T08:22:21Z</time>
      </trkpt>
      <trkpt lat="44.075740948319435" lon="5.907473154366016">
        <ele>665.4000244140625</ele>
        <time>2014-05-21T08:22:25Z</time>
      </trkpt>
      <trkpt lat="44.075751509517431" lon="5.907405009493232">
        <ele>665.5999755859375</ele>
        <time>2014-05-21T08:22:26Z</time>
      </trkpt>
      <trkpt lat="44.075758298859" lon="5.907335942611098">
        <ele>665.79998779296875</ele>
        <time>2014-05-21T08:22:27Z</time>
      </trkpt>
      <trkpt lat="44.07576316036284" lon="5.907128406688571">
        <ele>666.4000244140625</ele>
        <time>2014-05-21T08:22:30Z</time>
      </trkpt>
      <trkpt lat="44.075746396556497" lon="5.906984489411116">
        <ele>666.20001220703125</ele>
        <time>2014-05-21T08:22:32Z</time>
      </trkpt>
      <trkpt lat="44.075634079053998" lon="5.906321816146374">
        <ele>667</ele>
        <time>2014-05-21T08:22:41Z</time>
      </trkpt>
      <trkpt lat="44.075578087940812" lon="5.906040603294969">
        <ele>667.4000244140625</ele>
        <time>2014-05-21T08:22:45Z</time>
      </trkpt>
      <trkpt lat="44.075499968603253" lon="5.905703064054251">
        <ele>667.79998779296875</ele>
        <time>2014-05-21T08:22:50Z</time>
      </trkpt>
      <trkpt lat="44.075474152341485" lon="5.905636679381132">
        <ele>667.79998779296875</ele>
        <time>2014-05-21T08:22:51Z</time>
      </trkpt>
      <trkpt lat="44.075387483462691" lon="5.905374074354768">
        <ele>668</ele>
        <time>2014-05-21T08:22:55Z</time>
      </trkpt>
      <trkpt lat="44.075279105454683" lon="5.905120270326734">
        <ele>668.5999755859375</ele>
        <time>2014-05-21T08:22:59Z</time>
      </trkpt>
      <trkpt lat="44.075230322778225" lon="5.904988003894687">
        <ele>668.4000244140625</ele>
        <time>2014-05-21T08:23:01Z</time>
      </trkpt>
      <trkpt lat="44.075019601732492" lon="5.904578296467662">
        <ele>669</ele>
        <time>2014-05-21T08:23:08Z</time>
      </trkpt>
      <trkpt lat="44.074951624497771" lon="5.904465978965163">
        <ele>669.20001220703125</ele>
        <time>2014-05-21T08:23:10Z</time>
      </trkpt>
      <trkpt lat="44.074823632836342" lon="5.904239164665341">
        <ele>669.4000244140625</ele>
        <time>2014-05-21T08:23:14Z</time>
      </trkpt>
      <trkpt lat="44.07478398643434" lon="5.904185604304075">
        <ele>669.5999755859375</ele>
        <time>2014-05-21T08:23:15Z</time>
      </trkpt>
      <trkpt lat="44.074540073052049" lon="5.903870780020952">
        <ele>670.20001220703125</ele>
        <time>2014-05-21T08:23:21Z</time>
      </trkpt>
      <trkpt lat="44.0742611233145" lon="5.903501305729151">
        <ele>670.5999755859375</ele>
        <time>2014-05-21T08:23:28Z</time>
      </trkpt>
      <trkpt lat="44.07413749024272" lon="5.903347581624985">
        <ele>670.79998779296875</ele>
        <time>2014-05-21T08:23:31Z</time>
      </trkpt>
      <trkpt lat="44.073785617947578" lon="5.902903340756893">
        <ele>671.5999755859375</ele>
        <time>2014-05-21T08:23:40Z</time>
      </trkpt>
      <trkpt lat="44.073709845542908" lon="5.90280644595623">
        <ele>671.79998779296875</ele>
        <time>2014-05-21T08:23:42Z</time>
      </trkpt>
      <trkpt lat="44.073489066213369" lon="5.902523892000318">
        <ele>672.79998779296875</ele>
        <time>2014-05-21T08:23:48Z</time>
      </trkpt>
      <trkpt lat="44.0734529402107" lon="5.90248248539865">
        <ele>673</ele>
        <time>2014-05-21T08:23:49Z</time>
      </trkpt>
      <trkpt lat="44.073385717347264" lon="5.90239598415792">
        <ele>673.4000244140625</ele>
        <time>2014-05-21T08:23:51Z</time>
      </trkpt>
      <trkpt lat="44.07335814088583" lon="5.902353990823031">
        <ele>673.79998779296875</ele>
        <time>2014-05-21T08:23:52Z</time>
      </trkpt>
      <trkpt lat="44.07327264547348" lon="5.902245361357927">
        <ele>674.5999755859375</ele>
        <time>2014-05-21T08:23:55Z</time>
      </trkpt>
      <trkpt lat="44.073218666017056" lon="5.902168666943908">
        <ele>675</ele>
        <time>2014-05-21T08:23:57Z</time>
      </trkpt>
      <trkpt lat="44.073057314381003" lon="5.901957023888826">
        <ele>675.79998779296875</ele>
        <time>2014-05-21T08:24:03Z</time>
      </trkpt>
      <trkpt lat="44.073030408471823" lon="5.901927519589663">
        <ele>676</ele>
        <time>2014-05-21T08:24:04Z</time>
      </trkpt>
      <trkpt lat="44.072956312447786" lon="5.901844874024391">
        <ele>677</ele>
        <time>2014-05-21T08:24:07Z</time>
      </trkpt>
      <trkpt lat="44.072886994108558" lon="5.90176222845912">
        <ele>677.5999755859375</ele>
        <time>2014-05-21T08:24:10Z</time>
      </trkpt>
      <trkpt lat="44.072791188955307" lon="5.901667764410377">
        <ele>678.20001220703125</ele>
        <time>2014-05-21T08:24:14Z</time>
      </trkpt>
      <trkpt lat="44.072724133729935" lon="5.901605486869812">
        <ele>678.79998779296875</ele>
        <time>2014-05-21T08:24:17Z</time>
      </trkpt>
      <trkpt lat="44.072607541456819" lon="5.901532145217061">
        <ele>679.20001220703125</ele>
        <time>2014-05-21T08:24:21Z</time>
      </trkpt>
      <trkpt lat="44.072516094893217" lon="5.901479171589017">
        <ele>679.5999755859375</ele>
        <time>2014-05-21T08:24:24Z</time>
      </trkpt>
      <trkpt lat="44.072361281141639" lon="5.901422929018736">
        <ele>680.20001220703125</ele>
        <time>2014-05-21T08:24:29Z</time>
      </trkpt>
      <trkpt lat="44.07226949930191" lon="5.90138940140605">
        <ele>680.5999755859375</ele>
        <time>2014-05-21T08:24:32Z</time>
      </trkpt>
      <trkpt lat="44.072178388014436" lon="5.901356544345617">
        <ele>681.4000244140625</ele>
        <time>2014-05-21T08:24:35Z</time>
      </trkpt>
      <trkpt lat="44.072019383311272" lon="5.901305917650461">
        <ele>682.20001220703125</ele>
        <time>2014-05-21T08:24:40Z</time>
      </trkpt>
      <trkpt lat="44.071987196803093" lon="5.90129166841507">
        <ele>682.4000244140625</ele>
        <time>2014-05-21T08:24:41Z</time>
      </trkpt>
      <trkpt lat="44.071769770234823" lon="5.901202568784356">
        <ele>683.4000244140625</ele>
        <time>2014-05-21T08:24:48Z</time>
      </trkpt>
      <trkpt lat="44.071735069155693" lon="5.901195192709565">
        <ele>683.5999755859375</ele>
        <time>2014-05-21T08:24:49Z</time>
      </trkpt>
      <trkpt lat="44.071571202948689" lon="5.901136351749301">
        <ele>684.4000244140625</ele>
        <time>2014-05-21T08:24:54Z</time>
      </trkpt>
      <trkpt lat="44.071513535454869" lon="5.901111960411072">
        <ele>684.79998779296875</ele>
        <time>2014-05-21T08:24:56Z</time>
      </trkpt>
      <trkpt lat="44.071328882128" lon="5.901043647900224">
        <ele>685.5999755859375</ele>
        <time>2014-05-21T08:25:02Z</time>
      </trkpt>
      <trkpt lat="44.07117884606123" lon="5.900975754484534">
        <ele>686.4000244140625</ele>
        <time>2014-05-21T08:25:07Z</time>
      </trkpt>
      <trkpt lat="44.071150934323668" lon="5.900963433086872">
        <ele>686.5999755859375</ele>
        <time>2014-05-21T08:25:08Z</time>
      </trkpt>
      <trkpt lat="44.070976171642542" lon="5.900891264900565">
        <ele>687.5999755859375</ele>
        <time>2014-05-21T08:25:14Z</time>
      </trkpt>
      <trkpt lat="44.070947924628854" lon="5.90087978169322">
        <ele>687.79998779296875</ele>
        <time>2014-05-21T08:25:15Z</time>
      </trkpt>
      <trkpt lat="44.070744495838881" lon="5.900747431442142">
        <ele>688.79998779296875</ele>
        <time>2014-05-21T08:25:22Z</time>
      </trkpt>
      <trkpt lat="44.070715829730034" lon="5.900732846930623">
        <ele>689</ele>
        <time>2014-05-21T08:25:23Z</time>
      </trkpt>
      <trkpt lat="44.070569984614849" lon="5.900635281577706">
        <ele>690</ele>
        <time>2014-05-21T08:25:28Z</time>
      </trkpt>
      <trkpt lat="44.070484070107341" lon="5.900576943531632">
        <ele>690.5999755859375</ele>
        <time>2014-05-21T08:25:31Z</time>
      </trkpt>
      <trkpt lat="44.070401424542069" lon="5.90051768347621">
        <ele>691</ele>
        <time>2014-05-21T08:25:34Z</time>
      </trkpt>
      <trkpt lat="44.070284999907017" lon="5.900447610765696">
        <ele>691.5999755859375</ele>
        <time>2014-05-21T08:25:38Z</time>
      </trkpt>
      <trkpt lat="44.070162959396839" lon="5.900370832532644">
        <ele>692</ele>
        <time>2014-05-21T08:25:42Z</time>
      </trkpt>
      <trkpt lat="44.070041170343757" lon="5.900305286049843">
        <ele>692.79998779296875</ele>
        <time>2014-05-21T08:25:46Z</time>
      </trkpt>
      <trkpt lat="44.069951400160789" lon="5.900243679061532">
        <ele>693.20001220703125</ele>
        <time>2014-05-21T08:25:49Z</time>
      </trkpt>
      <trkpt lat="44.069827599450946" lon="5.900160446763039">
        <ele>693.79998779296875</ele>
        <time>2014-05-21T08:25:53Z</time>
      </trkpt>
      <trkpt lat="44.069742020219564" lon="5.900103198364377">
        <ele>694.20001220703125</ele>
        <time>2014-05-21T08:25:56Z</time>
      </trkpt>
      <trkpt lat="44.069628529250622" lon="5.900034718215466">
        <ele>695</ele>
        <time>2014-05-21T08:26:00Z</time>
      </trkpt>
      <trkpt lat="44.069570945575833" lon="5.900003286078572">
        <ele>695.20001220703125</ele>
        <time>2014-05-21T08:26:02Z</time>
      </trkpt>
      <trkpt lat="44.069438176229596" lon="5.899899769574404">
        <ele>696</ele>
        <time>2014-05-21T08:26:07Z</time>
      </trkpt>
      <trkpt lat="44.069379838183522" lon="5.89986733160913">
        <ele>696.5999755859375</ele>
        <time>2014-05-21T08:26:09Z</time>
      </trkpt>
      <trkpt lat="44.069217145442963" lon="5.899764150381088">
        <ele>697.4000244140625</ele>
        <time>2014-05-21T08:26:15Z</time>
      </trkpt>
      <trkpt lat="44.06916911713779" lon="5.89972173795104">
        <ele>697.79998779296875</ele>
        <time>2014-05-21T08:26:17Z</time>
      </trkpt>
      <trkpt lat="44.06905822455883" lon="5.899649318307638">
        <ele>698.4000244140625</ele>
        <time>2014-05-21T08:26:21Z</time>
      </trkpt>
      <trkpt lat="44.068977506831288" lon="5.89959810487926">
        <ele>698.79998779296875</ele>
        <time>2014-05-21T08:26:24Z</time>
      </trkpt>
      <trkpt lat="44.068928137421608" lon="5.899567175656557">
        <ele>699</ele>
        <time>2014-05-21T08:26:26Z</time>
      </trkpt>
      <trkpt lat="44.068863764405251" lon="5.899491403251886">
        <ele>699.5999755859375</ele>
        <time>2014-05-21T08:26:29Z</time>
      </trkpt>
      <trkpt lat="44.068843144923449" lon="5.899469526484609">
        <ele>699.79998779296875</ele>
        <time>2014-05-21T08:26:30Z</time>
      </trkpt>
      <trkpt lat="44.068733677268028" lon="5.899309935048223">
        <ele>700.5999755859375</ele>
        <time>2014-05-21T08:26:36Z</time>
      </trkpt>
      <trkpt lat="44.068696964532137" lon="5.89924874715507">
        <ele>700.79998779296875</ele>
        <time>2014-05-21T08:26:38Z</time>
      </trkpt>
      <trkpt lat="44.068593699485064" lon="5.899034086614847">
        <ele>701.79998779296875</ele>
        <time>2014-05-21T08:26:44Z</time>
      </trkpt>
      <trkpt lat="44.068577103316784" lon="5.899000391364098">
        <ele>702</ele>
        <time>2014-05-21T08:26:45Z</time>
      </trkpt>
      <trkpt lat="44.068459672853351" lon="5.898789167404175">
        <ele>703.20001220703125</ele>
        <time>2014-05-21T08:26:52Z</time>
      </trkpt>
      <trkpt lat="44.068296896293759" lon="5.898580374196172">
        <ele>704</ele>
        <time>2014-05-21T08:27:00Z</time>
      </trkpt>
      <trkpt lat="44.068246185779572" lon="5.898531088605523">
        <ele>704.20001220703125</ele>
        <time>2014-05-21T08:27:02Z</time>
      </trkpt>
      <trkpt lat="44.06809120438993" lon="5.898378454148769">
        <ele>704.79998779296875</ele>
        <time>2014-05-21T08:27:08Z</time>
      </trkpt>
      <trkpt lat="44.067980060353875" lon="5.898299496620894">
        <ele>705.20001220703125</ele>
        <time>2014-05-21T08:27:12Z</time>
      </trkpt>
      <trkpt lat="44.067905293777585" lon="5.898275943472982">
        <ele>706</ele>
        <time>2014-05-21T08:27:15Z</time>
      </trkpt>
      <trkpt lat="44.067877382040024" lon="5.898272255435586">
        <ele>706.20001220703125</ele>
        <time>2014-05-21T08:27:16Z</time>
      </trkpt>
      <trkpt lat="44.067714354023337" lon="5.898266136646271">
        <ele>707.4000244140625</ele>
        <time>2014-05-21T08:27:22Z</time>
      </trkpt>
      <trkpt lat="44.06753271818161" lon="5.898286420851946">
        <ele>708</ele>
        <time>2014-05-21T08:27:28Z</time>
      </trkpt>
      <trkpt lat="44.067437835037708" lon="5.89829103089869">
        <ele>708.4000244140625</ele>
        <time>2014-05-21T08:27:31Z</time>
      </trkpt>
      <trkpt lat="44.067313279956579" lon="5.898282062262297">
        <ele>709</ele>
        <time>2014-05-21T08:27:35Z</time>
      </trkpt>
      <trkpt lat="44.0672258567065" lon="5.898276194930077">
        <ele>709.4000244140625</ele>
        <time>2014-05-21T08:27:38Z</time>
      </trkpt>
      <trkpt lat="44.067091243341565" lon="5.898238895460963">
        <ele>710.4000244140625</ele>
        <time>2014-05-21T08:27:43Z</time>
      </trkpt>
      <trkpt lat="44.067039024084806" lon="5.898238476365805">
        <ele>710.4000244140625</ele>
        <time>2014-05-21T08:27:45Z</time>
      </trkpt>
      <trkpt lat="44.066909523680806" lon="5.898200087249279">
        <ele>711</ele>
        <time>2014-05-21T08:27:50Z</time>
      </trkpt>
      <trkpt lat="44.066824363544583" lon="5.898171756416559">
        <ele>711.79998779296875</ele>
        <time>2014-05-21T08:27:53Z</time>
      </trkpt>
      <trkpt lat="44.066638201475143" lon="5.898099923506379">
        <ele>712.4000244140625</ele>
        <time>2014-05-21T08:27:59Z</time>
      </trkpt>
      <trkpt lat="44.066590927541256" lon="5.898063126951456">
        <ele>713</ele>
        <time>2014-05-21T08:28:01Z</time>
      </trkpt>
      <trkpt lat="44.066528650000691" lon="5.897976122796536">
        <ele>713.4000244140625</ele>
        <time>2014-05-21T08:28:04Z</time>
      </trkpt>
      <trkpt lat="44.066436784341931" lon="5.89774226769805">
        <ele>714</ele>
        <time>2014-05-21T08:28:10Z</time>
      </trkpt>
      <trkpt lat="44.066408034414053" lon="5.897663561627269">
        <ele>714.20001220703125</ele>
        <time>2014-05-21T08:28:12Z</time>
      </trkpt>
      <trkpt lat="44.066336704418063" lon="5.897478656843305">
        <ele>715.20001220703125</ele>
        <time>2014-05-21T08:28:17Z</time>
      </trkpt>
      <trkpt lat="44.066241066902876" lon="5.897187804803252">
        <ele>715.20001220703125</ele>
        <time>2014-05-21T08:28:23Z</time>
      </trkpt>
      <trkpt lat="44.066190021112561" lon="5.896887145936489">
        <ele>715.5999755859375</ele>
        <time>2014-05-21T08:28:28Z</time>
      </trkpt>
      <trkpt lat="44.066189853474498" lon="5.896825455129147">
        <ele>715.79998779296875</ele>
        <time>2014-05-21T08:28:29Z</time>
      </trkpt>
      <trkpt lat="44.066202510148287" lon="5.896694865077734">
        <ele>715.5999755859375</ele>
        <time>2014-05-21T08:28:31Z</time>
      </trkpt>
      <trkpt lat="44.066212987527251" lon="5.896506607532501">
        <ele>715.5999755859375</ele>
        <time>2014-05-21T08:28:34Z</time>
      </trkpt>
      <trkpt lat="44.066250370815396" lon="5.896135373041034">
        <ele>716.20001220703125</ele>
        <time>2014-05-21T08:28:40Z</time>
      </trkpt>
      <trkpt lat="44.066260596737266" lon="5.896069658920169">
        <ele>716.4000244140625</ele>
        <time>2014-05-21T08:28:41Z</time>
      </trkpt>
      <trkpt lat="44.066305020824075" lon="5.895580826327205">
        <ele>715.5999755859375</ele>
        <time>2014-05-21T08:28:47Z</time>
      </trkpt>
      <trkpt lat="44.066312732174993" lon="5.895496839657426">
        <ele>715.20001220703125</ele>
        <time>2014-05-21T08:28:48Z</time>
      </trkpt>
      <trkpt lat="44.066383307799697" lon="5.894953105598688">
        <ele>714.4000244140625</ele>
        <time>2014-05-21T08:28:54Z</time>
      </trkpt>
      <trkpt lat="44.066414404660463" lon="5.894772810861468">
        <ele>714</ele>
        <time>2014-05-21T08:28:56Z</time>
      </trkpt>
      <trkpt lat="44.066461343318224" lon="5.894313650205731">
        <ele>714</ele>
        <time>2014-05-21T08:29:01Z</time>
      </trkpt>
      <trkpt lat="44.066511634737253" lon="5.893819369375706">
        <ele>714.79998779296875</ele>
        <time>2014-05-21T08:29:07Z</time>
      </trkpt>
      <trkpt lat="44.066519849002361" lon="5.89374091476202">
        <ele>715</ele>
        <time>2014-05-21T08:29:08Z</time>
      </trkpt>
      <trkpt lat="44.066525716334581" lon="5.89352197945118">
        <ele>715.4000244140625</ele>
        <time>2014-05-21T08:29:11Z</time>
      </trkpt>
      <trkpt lat="44.066508868709207" lon="5.893374877050519">
        <ele>715.79998779296875</ele>
        <time>2014-05-21T08:29:13Z</time>
      </trkpt>
      <trkpt lat="44.066493026912212" lon="5.893302876502276">
        <ele>716</ele>
        <time>2014-05-21T08:29:14Z</time>
      </trkpt>
      <trkpt lat="44.066397473216057" lon="5.893016047775745">
        <ele>716</ele>
        <time>2014-05-21T08:29:18Z</time>
      </trkpt>
      <trkpt lat="44.066156661137938" lon="5.892296964302659">
        <ele>715.79998779296875</ele>
        <time>2014-05-21T08:29:27Z</time>
      </trkpt>
      <trkpt lat="44.066017605364323" lon="5.891818776726723">
        <ele>716.20001220703125</ele>
        <time>2014-05-21T08:29:33Z</time>
      </trkpt>
      <trkpt lat="44.065863881260157" lon="5.891232714056969">
        <ele>716.5999755859375</ele>
        <time>2014-05-21T08:29:41Z</time>
      </trkpt>
      <trkpt lat="44.065793221816421" lon="5.890886373817921">
        <ele>716.79998779296875</ele>
        <time>2014-05-21T08:29:46Z</time>
      </trkpt>
      <trkpt lat="44.065657770261168" lon="5.890119597315788">
        <ele>716.4000244140625</ele>
        <time>2014-05-21T08:29:56Z</time>
      </trkpt>
      <trkpt lat="44.065641509369016" lon="5.890036700293422">
        <ele>716.20001220703125</ele>
        <time>2014-05-21T08:29:57Z</time>
      </trkpt>
      <trkpt lat="44.065597336739302" lon="5.889795469120145">
        <ele>715</ele>
        <time>2014-05-21T08:30:00Z</time>
      </trkpt>
      <trkpt lat="44.065554924309254" lon="5.889570163562894">
        <ele>716.20001220703125</ele>
        <time>2014-05-21T08:30:03Z</time>
      </trkpt>
      <trkpt lat="44.065534472465515" lon="5.889427838847041">
        <ele>716.5999755859375</ele>
        <time>2014-05-21T08:30:05Z</time>
      </trkpt>
      <trkpt lat="44.065507734194398" lon="5.88911946862936">
        <ele>717.20001220703125</ele>
        <time>2014-05-21T08:30:09Z</time>
      </trkpt>
      <trkpt lat="44.065507901832461" lon="5.889038247987628">
        <ele>717.20001220703125</ele>
        <time>2014-05-21T08:30:10Z</time>
      </trkpt>
      <trkpt lat="44.065504549071193" lon="5.888874046504498">
        <ele>716.5999755859375</ele>
        <time>2014-05-21T08:30:12Z</time>
      </trkpt>
      <trkpt lat="44.065554421395063" lon="5.888360571116209">
        <ele>716.79998779296875</ele>
        <time>2014-05-21T08:30:18Z</time>
      </trkpt>
      <trkpt lat="44.065635139122605" lon="5.887750368565321">
        <ele>717</ele>
        <time>2014-05-21T08:30:25Z</time>
      </trkpt>
      <trkpt lat="44.065592642873526" lon="5.887396149337292">
        <ele>717</ele>
        <time>2014-05-21T08:30:29Z</time>
      </trkpt>
      <trkpt lat="44.065516451373696" lon="5.886785192415118">
        <ele>716.4000244140625</ele>
        <time>2014-05-21T08:30:36Z</time>
      </trkpt>
      <trkpt lat="44.065477224066854" lon="5.886521078646183">
        <ele>716</ele>
        <time>2014-05-21T08:30:39Z</time>
      </trkpt>
      <trkpt lat="44.065449731424451" lon="5.886437511071563">
        <ele>715.5999755859375</ele>
        <time>2014-05-21T08:30:40Z</time>
      </trkpt>
      <trkpt lat="44.065361637622118" lon="5.886318990960717">
        <ele>715.5999755859375</ele>
        <time>2014-05-21T08:30:42Z</time>
      </trkpt>
      <trkpt lat="44.065243620425463" lon="5.886297952383757">
        <ele>716</ele>
        <time>2014-05-21T08:30:44Z</time>
      </trkpt>
      <trkpt lat="44.065091740339994" lon="5.886410605162382">
        <ele>717.20001220703125</ele>
        <time>2014-05-21T08:30:47Z</time>
      </trkpt>
      <trkpt lat="44.065013201907277" lon="5.886525101959705">
        <ele>717.5999755859375</ele>
        <time>2014-05-21T08:30:49Z</time>
      </trkpt>
      <trkpt lat="44.06486283056438" lon="5.886758118867874">
        <ele>717</ele>
        <time>2014-05-21T08:30:53Z</time>
      </trkpt>
      <trkpt lat="44.064579270780087" lon="5.887081157416105">
        <ele>717</ele>
        <time>2014-05-21T08:30:59Z</time>
      </trkpt>
      <trkpt lat="44.064181549474597" lon="5.887354407459498">
        <ele>717</ele>
        <time>2014-05-21T08:31:06Z</time>
      </trkpt>
      <trkpt lat="44.064054563641548" lon="5.88740536943078">
        <ele>717.20001220703125</ele>
        <time>2014-05-21T08:31:08Z</time>
      </trkpt>
      <trkpt lat="44.063867563381791" lon="5.88737309910357">
        <ele>717.20001220703125</ele>
        <time>2014-05-21T08:31:11Z</time>
      </trkpt>
      <trkpt lat="44.063709732145071" lon="5.887247789651156">
        <ele>717.20001220703125</ele>
        <time>2014-05-21T08:31:14Z</time>
      </trkpt>
      <trkpt lat="44.063366325572133" lon="5.886888708919287">
        <ele>717.4000244140625</ele>
        <time>2014-05-21T08:31:21Z</time>
      </trkpt>
      <trkpt lat="44.063186449930072" lon="5.886554187163711">
        <ele>717.5999755859375</ele>
        <time>2014-05-21T08:31:26Z</time>
      </trkpt>
      <trkpt lat="44.063158454373479" lon="5.886478498578072">
        <ele>717.79998779296875</ele>
        <time>2014-05-21T08:31:27Z</time>
      </trkpt>
      <trkpt lat="44.06313506886363" lon="5.886399960145354">
        <ele>718</ele>
        <time>2014-05-21T08:31:28Z</time>
      </trkpt>
      <trkpt lat="44.06311403028667" lon="5.886320667341352">
        <ele>718.20001220703125</ele>
        <time>2014-05-21T08:31:29Z</time>
      </trkpt>
      <trkpt lat="44.06306323595345" lon="5.886070299893618">
        <ele>717.79998779296875</ele>
        <time>2014-05-21T08:31:32Z</time>
      </trkpt>
      <trkpt lat="44.062968604266644" lon="5.885288771241903">
        <ele>717.5999755859375</ele>
        <time>2014-05-21T08:31:41Z</time>
      </trkpt>
      <trkpt lat="44.062915127724409" lon="5.884543871507049">
        <ele>717.4000244140625</ele>
        <time>2014-05-21T08:31:50Z</time>
      </trkpt>
      <trkpt lat="44.06299483962357" lon="5.884071802720428">
        <ele>718.20001220703125</ele>
        <time>2014-05-21T08:31:56Z</time>
      </trkpt>
      <trkpt lat="44.063128866255283" lon="5.883542317897081">
        <ele>717.79998779296875</ele>
        <time>2014-05-21T08:32:03Z</time>
      </trkpt>
      <trkpt lat="44.063165578991175" lon="5.883393371477723">
        <ele>717.79998779296875</ele>
        <time>2014-05-21T08:32:05Z</time>
      </trkpt>
      <trkpt lat="44.063299354165792" lon="5.882869251072407">
        <ele>717.4000244140625</ele>
        <time>2014-05-21T08:32:12Z</time>
      </trkpt>
      <trkpt lat="44.063316537067294" lon="5.882792556658387">
        <ele>717.20001220703125</ele>
        <time>2014-05-21T08:32:13Z</time>
      </trkpt>
      <trkpt lat="44.063457855954766" lon="5.882333898916841">
        <ele>716.5999755859375</ele>
        <time>2014-05-21T08:32:19Z</time>
      </trkpt>
      <trkpt lat="44.063656339421868" lon="5.881911953911185">
        <ele>717.79998779296875</ele>
        <time>2014-05-21T08:32:25Z</time>
      </trkpt>
      <trkpt lat="44.063905952498317" lon="5.881413230672479">
        <ele>716.79998779296875</ele>
        <time>2014-05-21T08:32:32Z</time>
      </trkpt>
      <trkpt lat="44.064029082655907" lon="5.881108464673162">
        <ele>716</ele>
        <time>2014-05-21T08:32:36Z</time>
      </trkpt>
      <trkpt lat="44.0640570782125" lon="5.881032021716237">
        <ele>715.79998779296875</ele>
        <time>2014-05-21T08:32:37Z</time>
      </trkpt>
      <trkpt lat="44.064131006598473" lon="5.88079615496099">
        <ele>717.20001220703125</ele>
        <time>2014-05-21T08:32:40Z</time>
      </trkpt>
      <trkpt lat="44.064335357397795" lon="5.880213277414441">
        <ele>717.20001220703125</ele>
        <time>2014-05-21T08:32:48Z</time>
      </trkpt>
      <trkpt lat="44.064503163099289" lon="5.879796361550689">
        <ele>717</ele>
        <time>2014-05-21T08:32:55Z</time>
      </trkpt>
      <trkpt lat="44.064739532768726" lon="5.879532415419817">
        <ele>718</ele>
        <time>2014-05-21T08:33:01Z</time>
      </trkpt>
      <trkpt lat="44.064931981265545" lon="5.879421774297953">
        <ele>718</ele>
        <time>2014-05-21T08:33:05Z</time>
      </trkpt>
      <trkpt lat="44.064985709264874" lon="5.879407441243529">
        <ele>717.79998779296875</ele>
        <time>2014-05-21T08:33:06Z</time>
      </trkpt>
      <trkpt lat="44.065297935158014" lon="5.879388079047203">
        <ele>716.79998779296875</ele>
        <time>2014-05-21T08:33:12Z</time>
      </trkpt>
      <trkpt lat="44.065658859908581" lon="5.879402160644531">
        <ele>717.5999755859375</ele>
        <time>2014-05-21T08:33:19Z</time>
      </trkpt>
      <trkpt lat="44.065759778022766" lon="5.879366956651211">
        <ele>717.5999755859375</ele>
        <time>2014-05-21T08:33:21Z</time>
      </trkpt>
      <trkpt lat="44.065866312012076" lon="5.879210634157062">
        <ele>717.5999755859375</ele>
        <time>2014-05-21T08:33:24Z</time>
      </trkpt>
      <trkpt lat="44.06589481048286" lon="5.878934198990464">
        <ele>717.79998779296875</ele>
        <time>2014-05-21T08:33:28Z</time>
      </trkpt>
      <trkpt lat="44.065883830189705" lon="5.87886362336576">
        <ele>717.79998779296875</ele>
        <time>2014-05-21T08:33:29Z</time>
      </trkpt>
      <trkpt lat="44.065855331718922" lon="5.878527676686645">
        <ele>718.4000244140625</ele>
        <time>2014-05-21T08:33:34Z</time>
      </trkpt>
      <trkpt lat="44.065858433023095" lon="5.878468500450254">
        <ele>718.5999755859375</ele>
        <time>2014-05-21T08:33:35Z</time>
      </trkpt>
      <trkpt lat="44.065902354195714" lon="5.878309663385153">
        <ele>719</ele>
        <time>2014-05-21T08:33:38Z</time>
      </trkpt>
      <trkpt lat="44.065921967849135" lon="5.87825333699584">
        <ele>719.20001220703125</ele>
        <time>2014-05-21T08:33:39Z</time>
      </trkpt>
      <trkpt lat="44.06601651571691" lon="5.878026522696018">
        <ele>718.4000244140625</ele>
        <time>2014-05-21T08:33:43Z</time>
      </trkpt>
      <trkpt lat="44.066044511273503" lon="5.877970363944769">
        <ele>718.4000244140625</ele>
        <time>2014-05-21T08:33:44Z</time>
      </trkpt>
      <trkpt lat="44.066142411902547" lon="5.877732150256634">
        <ele>718.5999755859375</ele>
        <time>2014-05-21T08:33:48Z</time>
      </trkpt>
      <trkpt lat="44.066217765212059" lon="5.877551855519414">
        <ele>718.4000244140625</ele>
        <time>2014-05-21T08:33:51Z</time>
      </trkpt>
      <trkpt lat="44.066408285871148" lon="5.877198139205575">
        <ele>718</ele>
        <time>2014-05-21T08:33:57Z</time>
      </trkpt>
      <trkpt lat="44.066606014966965" lon="5.876835202798247">
        <ele>718.20001220703125</ele>
        <time>2014-05-21T08:34:03Z</time>
      </trkpt>
      <trkpt lat="44.066621186211705" lon="5.87676789611578">
        <ele>718.20001220703125</ele>
        <time>2014-05-21T08:34:04Z</time>
      </trkpt>
      <trkpt lat="44.06660140492022" lon="5.876562455669045">
        <ele>718</ele>
        <time>2014-05-21T08:34:07Z</time>
      </trkpt>
      <trkpt lat="44.066465450450778" lon="5.876355674117804">
        <ele>718</ele>
        <time>2014-05-21T08:34:11Z</time>
      </trkpt>
      <trkpt lat="44.066369058564305" lon="5.876294570043683">
        <ele>718</ele>
        <time>2014-05-21T08:34:13Z</time>
      </trkpt>
      <trkpt lat="44.066212484613061" lon="5.876207398250699">
        <ele>718</ele>
        <time>2014-05-21T08:34:16Z</time>
      </trkpt>
      <trkpt lat="44.065877543762326" lon="5.876021739095449">
        <ele>717.20001220703125</ele>
        <time>2014-05-21T08:34:22Z</time>
      </trkpt>
      <trkpt lat="44.06576874665916" lon="5.875966167077422">
        <ele>717.4000244140625</ele>
        <time>2014-05-21T08:34:24Z</time>
      </trkpt>
      <trkpt lat="44.065618207678199" lon="5.875864159315825">
        <ele>717.5999755859375</ele>
        <time>2014-05-21T08:34:27Z</time>
      </trkpt>
      <trkpt lat="44.065497675910592" lon="5.875717643648386">
        <ele>717.79998779296875</ele>
        <time>2014-05-21T08:34:30Z</time>
      </trkpt>
      <trkpt lat="44.065437745302916" lon="5.875591831281781">
        <ele>718</ele>
        <time>2014-05-21T08:34:32Z</time>
      </trkpt>
      <trkpt lat="44.065393405035138" lon="5.875446237623692">
        <ele>718.20001220703125</ele>
        <time>2014-05-21T08:34:34Z</time>
      </trkpt>
      <trkpt lat="44.065385526046157" lon="5.875370968133211">
        <ele>718.4000244140625</ele>
        <time>2014-05-21T08:34:35Z</time>
      </trkpt>
      <trkpt lat="44.065407151356339" lon="5.875142980366945">
        <ele>718.5999755859375</ele>
        <time>2014-05-21T08:34:38Z</time>
      </trkpt>
      <trkpt lat="44.06544872559607" lon="5.874996213242412">
        <ele>718.5999755859375</ele>
        <time>2014-05-21T08:34:40Z</time>
      </trkpt>
      <trkpt lat="44.065564898774028" lon="5.87463989853859">
        <ele>718.4000244140625</ele>
        <time>2014-05-21T08:34:45Z</time>
      </trkpt>
      <trkpt lat="44.065608400851488" lon="5.874414928257465">
        <ele>718.79998779296875</ele>
        <time>2014-05-21T08:34:48Z</time>
      </trkpt>
      <trkpt lat="44.065618040040135" lon="5.874258605763316">
        <ele>718.79998779296875</ele>
        <time>2014-05-21T08:34:50Z</time>
      </trkpt>
      <trkpt lat="44.06557084992528" lon="5.873965155333281">
        <ele>718.5999755859375</ele>
        <time>2014-05-21T08:34:54Z</time>
      </trkpt>
      <trkpt lat="44.065551403909922" lon="5.873899692669511">
        <ele>718.5999755859375</ele>
        <time>2014-05-21T08:34:55Z</time>
      </trkpt>
      <trkpt lat="44.06547705642879" lon="5.873499289155006">
        <ele>719</ele>
        <time>2014-05-21T08:35:01Z</time>
      </trkpt>
      <trkpt lat="44.065458029508591" lon="5.873177088797092">
        <ele>718.79998779296875</ele>
        <time>2014-05-21T08:35:06Z</time>
      </trkpt>
      <trkpt lat="44.065458113327622" lon="5.873061753809452">
        <ele>719</ele>
        <time>2014-05-21T08:35:08Z</time>
      </trkpt>
      <trkpt lat="44.065459370613098" lon="5.872999811545014">
        <ele>719</ele>
        <time>2014-05-21T08:35:09Z</time>
      </trkpt>
      <trkpt lat="44.065478397533298" lon="5.872735781595111">
        <ele>719</ele>
        <time>2014-05-21T08:35:13Z</time>
      </trkpt>
      <trkpt lat="44.065493233501911" lon="5.872482396662235">
        <ele>718.79998779296875</ele>
        <time>2014-05-21T08:35:17Z</time>
      </trkpt>
      <trkpt lat="44.065511673688889" lon="5.87236387655139">
        <ele>718.5999755859375</ele>
        <time>2014-05-21T08:35:19Z</time>
      </trkpt>
      <trkpt lat="44.065553583204746" lon="5.872137732803822">
        <ele>718.79998779296875</ele>
        <time>2014-05-21T08:35:23Z</time>
      </trkpt>
      <trkpt lat="44.06559188850224" lon="5.872028600424528">
        <ele>718.79998779296875</ele>
        <time>2014-05-21T08:35:25Z</time>
      </trkpt>
      <trkpt lat="44.065774530172348" lon="5.871508503332734">
        <ele>718.79998779296875</ele>
        <time>2014-05-21T08:35:34Z</time>
      </trkpt>
      <trkpt lat="44.065806968137622" lon="5.871376069262624">
        <ele>718.79998779296875</ele>
        <time>2014-05-21T08:35:36Z</time>
      </trkpt>
      <trkpt lat="44.065822893753648" lon="5.871108518913388">
        <ele>719.20001220703125</ele>
        <time>2014-05-21T08:35:40Z</time>
      </trkpt>
      <trkpt lat="44.065799089148641" lon="5.870902994647622">
        <ele>719.20001220703125</ele>
        <time>2014-05-21T08:35:43Z</time>
      </trkpt>
      <trkpt lat="44.065779140219092" lon="5.870688082650304">
        <ele>718.5999755859375</ele>
        <time>2014-05-21T08:35:46Z</time>
      </trkpt>
      <trkpt lat="44.065795484930277" lon="5.870212158188224">
        <ele>718.4000244140625</ele>
        <time>2014-05-21T08:35:52Z</time>
      </trkpt>
      <trkpt lat="44.06584451906383" lon="5.869660461321473">
        <ele>717.5999755859375</ele>
        <time>2014-05-21T08:35:59Z</time>
      </trkpt>
      <trkpt lat="44.065849129110575" lon="5.869501121342182">
        <ele>717.79998779296875</ele>
        <time>2014-05-21T08:36:01Z</time>
      </trkpt>
      <trkpt lat="44.065870922058821" lon="5.86887314915657">
        <ele>718.4000244140625</ele>
        <time>2014-05-21T08:36:09Z</time>
      </trkpt>
      <trkpt lat="44.065955746918917" lon="5.868408707901835">
        <ele>718.20001220703125</ele>
        <time>2014-05-21T08:36:15Z</time>
      </trkpt>
      <trkpt lat="44.06597645021975" lon="5.868336288258433">
        <ele>718.20001220703125</ele>
        <time>2014-05-21T08:36:16Z</time>
      </trkpt>
      <trkpt lat="44.066101592034101" lon="5.867984918877482">
        <ele>718.5999755859375</ele>
        <time>2014-05-21T08:36:21Z</time>
      </trkpt>
      <trkpt lat="44.06613327562809" lon="5.867584431543946">
        <ele>718.20001220703125</ele>
        <time>2014-05-21T08:36:26Z</time>
      </trkpt>
      <trkpt lat="44.066125229001045" lon="5.867493823170662">
        <ele>718.4000244140625</ele>
        <time>2014-05-21T08:36:27Z</time>
      </trkpt>
      <trkpt lat="44.066052138805389" lon="5.867042122408748">
        <ele>717.5999755859375</ele>
        <time>2014-05-21T08:36:32Z</time>
      </trkpt>
      <trkpt lat="44.065963206812739" lon="5.866419598460197">
        <ele>718.20001220703125</ele>
        <time>2014-05-21T08:36:39Z</time>
      </trkpt>
      <trkpt lat="44.065961530432105" lon="5.866330331191421">
        <ele>718</ele>
        <time>2014-05-21T08:36:40Z</time>
      </trkpt>
      <trkpt lat="44.065986927598715" lon="5.865983571857214">
        <ele>717.79998779296875</ele>
        <time>2014-05-21T08:36:44Z</time>
      </trkpt>
      <trkpt lat="44.066059850156307" lon="5.865222327411175">
        <ele>717.4000244140625</ele>
        <time>2014-05-21T08:36:52Z</time>
      </trkpt>
      <trkpt lat="44.066067226231098" lon="5.865126941353083">
        <ele>717.4000244140625</ele>
        <time>2014-05-21T08:36:53Z</time>
      </trkpt>
      <trkpt lat="44.066046522930264" lon="5.864654621109366">
        <ele>717.4000244140625</ele>
        <time>2014-05-21T08:36:58Z</time>
      </trkpt>
      <trkpt lat="44.06590897589922" lon="5.864137960597873">
        <ele>717.5999755859375</ele>
        <time>2014-05-21T08:37:04Z</time>
      </trkpt>
      <trkpt lat="44.065843848511577" lon="5.863661114126444">
        <ele>717.5999755859375</ele>
        <time>2014-05-21T08:37:09Z</time>
      </trkpt>
      <trkpt lat="44.065845021978021" lon="5.862901629880071">
        <ele>717.4000244140625</ele>
        <time>2014-05-21T08:37:17Z</time>
      </trkpt>
      <trkpt lat="44.065804285928607" lon="5.862540956586599">
        <ele>718.20001220703125</ele>
        <time>2014-05-21T08:37:21Z</time>
      </trkpt>
      <trkpt lat="44.065760029479861" lon="5.862365523353219">
        <ele>718</ele>
        <time>2014-05-21T08:37:23Z</time>
      </trkpt>
      <trkpt lat="44.06559138558805" lon="5.861629089340568">
        <ele>717.20001220703125</ele>
        <time>2014-05-21T08:37:31Z</time>
      </trkpt>
      <trkpt lat="44.065584680065513" lon="5.861530601978302">
        <ele>717.4000244140625</ele>
        <time>2014-05-21T08:37:32Z</time>
      </trkpt>
      <trkpt lat="44.0656026173383" lon="5.861230529844761">
        <ele>717</ele>
        <time>2014-05-21T08:37:35Z</time>
      </trkpt>
      <trkpt lat="44.065688196569681" lon="5.860655531287193">
        <ele>717</ele>
        <time>2014-05-21T08:37:41Z</time>
      </trkpt>
      <trkpt lat="44.065693058073521" lon="5.860131913796067">
        <ele>716.20001220703125</ele>
        <time>2014-05-21T08:37:46Z</time>
      </trkpt>
      <trkpt lat="44.065690962597728" lon="5.860026804730296">
        <ele>716.20001220703125</ele>
        <time>2014-05-21T08:37:47Z</time>
      </trkpt>
      <trkpt lat="44.065691968426108" lon="5.859612822532654">
        <ele>716</ele>
        <time>2014-05-21T08:37:51Z</time>
      </trkpt>
      <trkpt lat="44.065692303702235" lon="5.859415680170059">
        <ele>716.5999755859375</ele>
        <time>2014-05-21T08:37:53Z</time>
      </trkpt>
      <trkpt lat="44.065691716969013" lon="5.859126253053546">
        <ele>717.4000244140625</ele>
        <time>2014-05-21T08:37:56Z</time>
      </trkpt>
      <trkpt lat="44.065691465511918" lon="5.858753006905317">
        <ele>717.5999755859375</ele>
        <time>2014-05-21T08:38:00Z</time>
      </trkpt>
      <trkpt lat="44.065722730010748" lon="5.858298121020198">
        <ele>717.5999755859375</ele>
        <time>2014-05-21T08:38:05Z</time>
      </trkpt>
      <trkpt lat="44.065739745274186" lon="5.858212290331721">
        <ele>717.79998779296875</ele>
        <time>2014-05-21T08:38:06Z</time>
      </trkpt>
      <trkpt lat="44.065781570971012" lon="5.858042221516371">
        <ele>718.20001220703125</ele>
        <time>2014-05-21T08:38:08Z</time>
      </trkpt>
      <trkpt lat="44.065871424973011" lon="5.85779394954443">
        <ele>718</ele>
        <time>2014-05-21T08:38:11Z</time>
      </trkpt>
      <trkpt lat="44.06592951156199" lon="5.857531595975161">
        <ele>717.4000244140625</ele>
        <time>2014-05-21T08:38:14Z</time>
      </trkpt>
      <trkpt lat="44.06592951156199" lon="5.857444675639272">
        <ele>717.20001220703125</ele>
        <time>2014-05-21T08:38:15Z</time>
      </trkpt>
      <trkpt lat="44.065877124667168" lon="5.857187602669001">
        <ele>717.20001220703125</ele>
        <time>2014-05-21T08:38:18Z</time>
      </trkpt>
      <trkpt lat="44.065764220431447" lon="5.856959950178862">
        <ele>717</ele>
        <time>2014-05-21T08:38:21Z</time>
      </trkpt>
      <trkpt lat="44.065674114972353" lon="5.856819050386548">
        <ele>717.20001220703125</ele>
        <time>2014-05-21T08:38:23Z</time>
      </trkpt>
      <trkpt lat="44.065364319831133" lon="5.856351172551513">
        <ele>717.5999755859375</ele>
        <time>2014-05-21T08:38:30Z</time>
      </trkpt>
      <trkpt lat="44.0651726257056" lon="5.855969963595271">
        <ele>717.5999755859375</ele>
        <time>2014-05-21T08:38:35Z</time>
      </trkpt>
      <trkpt lat="44.065003814175725" lon="5.855438970029354">
        <ele>717</ele>
        <time>2014-05-21T08:38:41Z</time>
      </trkpt>
      <trkpt lat="44.064821088686585" lon="5.855032950639725">
        <ele>717.20001220703125</ele>
        <time>2014-05-21T08:38:46Z</time>
      </trkpt>
      <trkpt lat="44.06452864408493" lon="5.854537580162287">
        <ele>718</ele>
        <time>2014-05-21T08:38:53Z</time>
      </trkpt>
      <trkpt lat="44.064227566123009" lon="5.854022931307554">
        <ele>718.20001220703125</ele>
        <time>2014-05-21T08:39:00Z</time>
      </trkpt>
      <trkpt lat="44.063910394906998" lon="5.853377776220441">
        <ele>717.79998779296875</ele>
        <time>2014-05-21T08:39:08Z</time>
      </trkpt>
      <trkpt lat="44.063737140968442" lon="5.852806884795427">
        <ele>717.20001220703125</ele>
        <time>2014-05-21T08:39:14Z</time>
      </trkpt>
      <trkpt lat="44.063574364408851" lon="5.852185115218163">
        <ele>717</ele>
        <time>2014-05-21T08:39:20Z</time>
      </trkpt>
      <trkpt lat="44.063555588945746" lon="5.851657893508673">
        <ele>717.4000244140625</ele>
        <time>2014-05-21T08:39:25Z</time>
      </trkpt>
      <trkpt lat="44.063566736876965" lon="5.851063868030906">
        <ele>718.20001220703125</ele>
        <time>2014-05-21T08:39:31Z</time>
      </trkpt>
      <trkpt lat="44.06357285566628" lon="5.850968146696687">
        <ele>718.20001220703125</ele>
        <time>2014-05-21T08:39:32Z</time>
      </trkpt>
      <trkpt lat="44.063584925606847" lon="5.850574281066656">
        <ele>718.5999755859375</ele>
        <time>2014-05-21T08:39:36Z</time>
      </trkpt>
      <trkpt lat="44.06359582208097" lon="5.850372696295381">
        <ele>718.5999755859375</ele>
        <time>2014-05-21T08:39:38Z</time>
      </trkpt>
      <trkpt lat="44.063595905900002" lon="5.850269682705402">
        <ele>718.79998779296875</ele>
        <time>2014-05-21T08:39:39Z</time>
      </trkpt>
      <trkpt lat="44.063580231741071" lon="5.849965671077371">
        <ele>718.79998779296875</ele>
        <time>2014-05-21T08:39:42Z</time>
      </trkpt>
      <trkpt lat="44.063546452671289" lon="5.849767439067364">
        <ele>719</ele>
        <time>2014-05-21T08:39:44Z</time>
      </trkpt>
      <trkpt lat="44.063375210389495" lon="5.849081045016646">
        <ele>718.79998779296875</ele>
        <time>2014-05-21T08:39:51Z</time>
      </trkpt>
      <trkpt lat="44.063191562891006" lon="5.84838149137795">
        <ele>718.20001220703125</ele>
        <time>2014-05-21T08:39:58Z</time>
      </trkpt>
      <trkpt lat="44.063003389164805" lon="5.84766861051321">
        <ele>718</ele>
        <time>2014-05-21T08:40:05Z</time>
      </trkpt>
      <trkpt lat="44.062981680035591" lon="5.847571799531579">
        <ele>718</ele>
        <time>2014-05-21T08:40:06Z</time>
      </trkpt>
      <trkpt lat="44.062939351424575" lon="5.847082044929266">
        <ele>718.20001220703125</ele>
        <time>2014-05-21T08:40:11Z</time>
      </trkpt>
      <trkpt lat="44.062970196828246" lon="5.846538729965687">
        <ele>718.4000244140625</ele>
        <time>2014-05-21T08:40:17Z</time>
      </trkpt>
      <trkpt lat="44.062984948977828" lon="5.845869770273566">
        <ele>718</ele>
        <time>2014-05-21T08:40:24Z</time>
      </trkpt>
      <trkpt lat="44.062903225421906" lon="5.845504067838192">
        <ele>718</ele>
        <time>2014-05-21T08:40:28Z</time>
      </trkpt>
      <trkpt lat="44.062703149393201" lon="5.844979360699654">
        <ele>717.5999755859375</ele>
        <time>2014-05-21T08:40:34Z</time>
      </trkpt>
      <trkpt lat="44.062516065314412" lon="5.844274610280991">
        <ele>717.4000244140625</ele>
        <time>2014-05-21T08:40:42Z</time>
      </trkpt>
      <trkpt lat="44.062542719766498" lon="5.843812432140112">
        <ele>718.4000244140625</ele>
        <time>2014-05-21T08:40:47Z</time>
      </trkpt>
      <trkpt lat="44.062554705888033" lon="5.843724338337779">
        <ele>718.5999755859375</ele>
        <time>2014-05-21T08:40:48Z</time>
      </trkpt>
      <trkpt lat="44.062669789418578" lon="5.8431067597121">
        <ele>718.5999755859375</ele>
        <time>2014-05-21T08:40:55Z</time>
      </trkpt>
      <trkpt lat="44.062825441360474" lon="5.842364290729165">
        <ele>718.5999755859375</ele>
        <time>2014-05-21T08:41:03Z</time>
      </trkpt>
      <trkpt lat="44.062867602333426" lon="5.842168154194951">
        <ele>718.5999755859375</ele>
        <time>2014-05-21T08:41:05Z</time>
      </trkpt>
      <trkpt lat="44.063018392771482" lon="5.841494165360928">
        <ele>718.20001220703125</ele>
        <time>2014-05-21T08:41:12Z</time>
      </trkpt>
      <trkpt lat="44.063077652826905" lon="5.840953029692173">
        <ele>718.79998779296875</ele>
        <time>2014-05-21T08:41:18Z</time>
      </trkpt>
      <trkpt lat="44.063135571777821" lon="5.840477859601378">
        <ele>719</ele>
        <time>2014-05-21T08:41:24Z</time>
      </trkpt>
      <trkpt lat="44.063172452151775" lon="5.840092711150646">
        <ele>719.5999755859375</ele>
        <time>2014-05-21T08:41:30Z</time>
      </trkpt>
      <trkpt lat="44.063220899552107" lon="5.839665653184056">
        <ele>719</ele>
        <time>2014-05-21T08:41:37Z</time>
      </trkpt>
      <trkpt lat="44.06324596144259" lon="5.839263405650854">
        <ele>718.4000244140625</ele>
        <time>2014-05-21T08:41:43Z</time>
      </trkpt>
      <trkpt lat="44.063244201242924" lon="5.839189728721976">
        <ele>718</ele>
        <time>2014-05-21T08:41:44Z</time>
      </trkpt>
      <trkpt lat="44.063242189586163" lon="5.839040111750364">
        <ele>717.4000244140625</ele>
        <time>2014-05-21T08:41:46Z</time>
      </trkpt>
      <trkpt lat="44.063239842653275" lon="5.838966434821487">
        <ele>717.20001220703125</ele>
        <time>2014-05-21T08:41:47Z</time>
      </trkpt>
      <trkpt lat="44.063217043876648" lon="5.838729813694954">
        <ele>717.20001220703125</ele>
        <time>2014-05-21T08:41:50Z</time>
      </trkpt>
      <trkpt lat="44.063130458816886" lon="5.838088933378458">
        <ele>717</ele>
        <time>2014-05-21T08:41:58Z</time>
      </trkpt>
      <trkpt lat="44.063072288408875" lon="5.837511252611876">
        <ele>717.79998779296875</ele>
        <time>2014-05-21T08:42:06Z</time>
      </trkpt>
      <trkpt lat="44.063028199598193" lon="5.837098611518741">
        <ele>718.4000244140625</ele>
        <time>2014-05-21T08:42:12Z</time>
      </trkpt>
      <trkpt lat="44.062988720834255" lon="5.836826786398888">
        <ele>718.4000244140625</ele>
        <time>2014-05-21T08:42:16Z</time>
      </trkpt>
      <trkpt lat="44.06295619904995" lon="5.836699465289712">
        <ele>718</ele>
        <time>2014-05-21T08:42:18Z</time>
      </trkpt>
      <trkpt lat="44.062833404168487" lon="5.836299229413271">
        <ele>717.5999755859375</ele>
        <time>2014-05-21T08:42:24Z</time>
      </trkpt>
      <trkpt lat="44.062660401687026" lon="5.83574702963233">
        <ele>717.4000244140625</ele>
        <time>2014-05-21T08:42:32Z</time>
      </trkpt>
      <trkpt lat="44.062578091397882" lon="5.835497165098786">
        <ele>717.4000244140625</ele>
        <time>2014-05-21T08:42:37Z</time>
      </trkpt>
      <trkpt lat="44.06252914108336" lon="5.835343273356557">
        <ele>717</ele>
        <time>2014-05-21T08:42:41Z</time>
      </trkpt>
      <trkpt lat="44.06252084299922" lon="5.835293987765908">
        <ele>716.4000244140625</ele>
        <time>2014-05-21T08:42:42Z</time>
      </trkpt>
      <trkpt lat="44.062499133870006" lon="5.835186364129186">
        <ele>715.20001220703125</ele>
        <time>2014-05-21T08:42:44Z</time>
      </trkpt>
      <trkpt lat="44.062473149970174" lon="5.835064155980945">
        <ele>714.20001220703125</ele>
        <time>2014-05-21T08:42:46Z</time>
      </trkpt>
      <trkpt lat="44.062454458326101" lon="5.83491638302803">
        <ele>713</ele>
        <time>2014-05-21T08:42:48Z</time>
      </trkpt>
      <trkpt lat="44.062437862157822" lon="5.834628632292152">
        <ele>712</ele>
        <time>2014-05-21T08:42:50Z</time>
      </trkpt>
      <trkpt lat="44.062421517446637" lon="5.834499802440405">
        <ele>712</ele>
        <time>2014-05-21T08:42:51Z</time>
      </trkpt>
      <trkpt lat="44.062361000105739" lon="5.834052544087172">
        <ele>712.5999755859375</ele>
        <time>2014-05-21T08:42:55Z</time>
      </trkpt>
      <trkpt lat="44.062310205772519" lon="5.833777785301209">
        <ele>713</ele>
        <time>2014-05-21T08:42:58Z</time>
      </trkpt>
      <trkpt lat="44.062266955152154" lon="5.833535045385361">
        <ele>714.20001220703125</ele>
        <time>2014-05-21T08:43:01Z</time>
      </trkpt>
      <trkpt lat="44.062190344557166" lon="5.833096085116267">
        <ele>715.20001220703125</ele>
        <time>2014-05-21T08:43:07Z</time>
      </trkpt>
      <trkpt lat="44.062168803066015" lon="5.8329545147717">
        <ele>715.4000244140625</ele>
        <time>2014-05-21T08:43:09Z</time>
      </trkpt>
      <trkpt lat="44.062075093388557" lon="5.832392172887921">
        <ele>715.79998779296875</ele>
        <time>2014-05-21T08:43:17Z</time>
      </trkpt>
      <trkpt lat="44.062014408409595" lon="5.832034014165402">
        <ele>716.20001220703125</ele>
        <time>2014-05-21T08:43:22Z</time>
      </trkpt>
      <trkpt lat="44.061975181102753" lon="5.831820694729686">
        <ele>716.4000244140625</ele>
        <time>2014-05-21T08:43:25Z</time>
      </trkpt>
      <trkpt lat="44.061846351251006" lon="5.831184340640903">
        <ele>716.79998779296875</ele>
        <time>2014-05-21T08:43:34Z</time>
      </trkpt>
      <trkpt lat="44.061780888587236" lon="5.830899691209197">
        <ele>717.20001220703125</ele>
        <time>2014-05-21T08:43:38Z</time>
      </trkpt>
      <trkpt lat="44.061756497249007" lon="5.830762479454279">
        <ele>717.20001220703125</ele>
        <time>2014-05-21T08:43:40Z</time>
      </trkpt>
      <trkpt lat="44.061739314347506" lon="5.830698190256953">
        <ele>717.5999755859375</ele>
        <time>2014-05-21T08:43:41Z</time>
      </trkpt>
      <trkpt lat="44.061664966866374" lon="5.830403733998537">
        <ele>718.4000244140625</ele>
        <time>2014-05-21T08:43:46Z</time>
      </trkpt>
      <trkpt lat="44.061635211110115" lon="5.830293009057641">
        <ele>718.5999755859375</ele>
        <time>2014-05-21T08:43:48Z</time>
      </trkpt>
      <trkpt lat="44.061556253582239" lon="5.829962929710746">
        <ele>719.4000244140625</ele>
        <time>2014-05-21T08:43:54Z</time>
      </trkpt>
      <trkpt lat="44.061531778424978" lon="5.829848768189549">
        <ele>719.5999755859375</ele>
        <time>2014-05-21T08:43:56Z</time>
      </trkpt>
      <trkpt lat="44.061464304104447" lon="5.829544421285391">
        <ele>719.4000244140625</ele>
        <time>2014-05-21T08:44:01Z</time>
      </trkpt>
      <trkpt lat="44.061345448717475" lon="5.8290362264961">
        <ele>719</ele>
        <time>2014-05-21T08:44:08Z</time>
      </trkpt>
      <trkpt lat="44.061166914179921" lon="5.828292835503817">
        <ele>719</ele>
        <time>2014-05-21T08:44:17Z</time>
      </trkpt>
      <trkpt lat="44.061146043241024" lon="5.828199461102486">
        <ele>718.4000244140625</ele>
        <time>2014-05-21T08:44:18Z</time>
      </trkpt>
      <trkpt lat="44.061075132340193" lon="5.827912967652082">
        <ele>717.20001220703125</ele>
        <time>2014-05-21T08:44:21Z</time>
      </trkpt>
      <trkpt lat="44.061009166762233" lon="5.827614990994334">
        <ele>717</ele>
        <time>2014-05-21T08:44:24Z</time>
      </trkpt>
      <trkpt lat="44.060842618346214" lon="5.826892890036106">
        <ele>716.79998779296875</ele>
        <time>2014-05-21T08:44:31Z</time>
      </trkpt>
      <trkpt lat="44.060770785436034" lon="5.826573371887207">
        <ele>716.79998779296875</ele>
        <time>2014-05-21T08:44:34Z</time>
      </trkpt>
      <trkpt lat="44.060683446004987" lon="5.82612787373364">
        <ele>716.20001220703125</ele>
        <time>2014-05-21T08:44:38Z</time>
      </trkpt>
      <trkpt lat="44.060591999441385" lon="5.825655134394765">
        <ele>715.79998779296875</ele>
        <time>2014-05-21T08:44:42Z</time>
      </trkpt>
      <trkpt lat="44.06052628532052" lon="5.825274847447872">
        <ele>715</ele>
        <time>2014-05-21T08:44:45Z</time>
      </trkpt>
      <trkpt lat="44.060437520965934" lon="5.824757684022188">
        <ele>713.79998779296875</ele>
        <time>2014-05-21T08:44:49Z</time>
      </trkpt>
      <trkpt lat="44.060413716360927" lon="5.824630027636886">
        <ele>713.79998779296875</ele>
        <time>2014-05-21T08:44:50Z</time>
      </trkpt>
      <trkpt lat="44.060285640880466" lon="5.823903400450945">
        <ele>714.5999755859375</ele>
        <time>2014-05-21T08:44:56Z</time>
      </trkpt>
      <trkpt lat="44.06025119125843" lon="5.823681280016899">
        <ele>715</ele>
        <time>2014-05-21T08:44:58Z</time>
      </trkpt>
      <trkpt lat="44.060210874304175" lon="5.823370143771172">
        <ele>716.20001220703125</ele>
        <time>2014-05-21T08:45:01Z</time>
      </trkpt>
      <trkpt lat="44.060196960344911" lon="5.823271740227938">
        <ele>716.4000244140625</ele>
        <time>2014-05-21T08:45:02Z</time>
      </trkpt>
      <trkpt lat="44.060159996151924" lon="5.822984743863344">
        <ele>717.20001220703125</ele>
        <time>2014-05-21T08:45:05Z</time>
      </trkpt>
      <trkpt lat="44.060128312557936" lon="5.82271090708673">
        <ele>718.4000244140625</ele>
        <time>2014-05-21T08:45:08Z</time>
      </trkpt>
      <trkpt lat="44.060116494074464" lon="5.822623986750841">
        <ele>718.4000244140625</ele>
        <time>2014-05-21T08:45:09Z</time>
      </trkpt>
      <trkpt lat="44.060027142986655" lon="5.822295667603612">
        <ele>718.5999755859375</ele>
        <time>2014-05-21T08:45:13Z</time>
      </trkpt>
      <trkpt lat="44.05999462120235" lon="5.82222567871213">
        <ele>718.79998779296875</ele>
        <time>2014-05-21T08:45:14Z</time>
      </trkpt>
      <trkpt lat="44.059875514358282" lon="5.822031637653709">
        <ele>719.79998779296875</ele>
        <time>2014-05-21T08:45:17Z</time>
      </trkpt>
      <trkpt lat="44.059790689498186" lon="5.821911860257387">
        <ele>720.4000244140625</ele>
        <time>2014-05-21T08:45:19Z</time>
      </trkpt>
      <trkpt lat="44.059752803295851" lon="5.821854276582599">
        <ele>720.79998779296875</ele>
        <time>2014-05-21T08:45:20Z</time>
      </trkpt>
      <trkpt lat="44.0596863348037" lon="5.821738019585609">
        <ele>721.20001220703125</ele>
        <time>2014-05-21T08:45:22Z</time>
      </trkpt>
      <trkpt lat="44.059661524370313" lon="5.82168186083436">
        <ele>721.4000244140625</ele>
        <time>2014-05-21T08:45:23Z</time>
      </trkpt>
      <trkpt lat="44.059638138860464" lon="5.821621846407652">
        <ele>721.5999755859375</ele>
        <time>2014-05-21T08:45:24Z</time>
      </trkpt>
      <trkpt lat="44.059496903792024" lon="5.821235943585634">
        <ele>720.4000244140625</ele>
        <time>2014-05-21T08:45:29Z</time>
      </trkpt>
      <trkpt lat="44.059465806931257" lon="5.821152543649077">
        <ele>719.5999755859375</ele>
        <time>2014-05-21T08:45:30Z</time>
      </trkpt>
      <trkpt lat="44.059272352606058" lon="5.820616185665131">
        <ele>719</ele>
        <time>2014-05-21T08:45:36Z</time>
      </trkpt>
      <trkpt lat="44.059000443667173" lon="5.819868603721261">
        <ele>719.5999755859375</ele>
        <time>2014-05-21T08:45:44Z</time>
      </trkpt>
      <trkpt lat="44.058967502787709" lon="5.819774055853486">
        <ele>719.5999755859375</ele>
        <time>2014-05-21T08:45:45Z</time>
      </trkpt>
      <trkpt lat="44.058754099532962" lon="5.819154130294919">
        <ele>718.5999755859375</ele>
        <time>2014-05-21T08:45:51Z</time>
      </trkpt>
      <trkpt lat="44.058716045692563" lon="5.819038040935993">
        <ele>718</ele>
        <time>2014-05-21T08:45:52Z</time>
      </trkpt>
      <trkpt lat="44.058639435097575" lon="5.818792199715972">
        <ele>716.5999755859375</ele>
        <time>2014-05-21T08:45:54Z</time>
      </trkpt>
      <trkpt lat="44.058559471741319" lon="5.818532863631845">
        <ele>715.4000244140625</ele>
        <time>2014-05-21T08:45:56Z</time>
      </trkpt>
      <trkpt lat="44.05847598798573" lon="5.818259110674262">
        <ele>714</ele>
        <time>2014-05-21T08:45:58Z</time>
      </trkpt>
      <trkpt lat="44.058387978002429" lon="5.817981921136379">
        <ele>712.79998779296875</ele>
        <time>2014-05-21T08:46:00Z</time>
      </trkpt>
      <trkpt lat="44.058290412649512" lon="5.817700792104006">
        <ele>711.5999755859375</ele>
        <time>2014-05-21T08:46:02Z</time>
      </trkpt>
      <trkpt lat="44.058192931115627" lon="5.817419663071632">
        <ele>710.20001220703125</ele>
        <time>2014-05-21T08:46:04Z</time>
      </trkpt>
      <trkpt lat="44.05814272351563" lon="5.81727784126997">
        <ele>709.79998779296875</ele>
        <time>2014-05-21T08:46:05Z</time>
      </trkpt>
      <trkpt lat="44.058036105707288" lon="5.81699444912374">
        <ele>709</ele>
        <time>2014-05-21T08:46:07Z</time>
      </trkpt>
      <trkpt lat="44.057928314432502" lon="5.816708793863654">
        <ele>707.79998779296875</ele>
        <time>2014-05-21T08:46:09Z</time>
      </trkpt>
      <trkpt lat="44.05776159837842" lon="5.816269163042307">
        <ele>706.79998779296875</ele>
        <time>2014-05-21T08:46:12Z</time>
      </trkpt>
      <trkpt lat="44.057708121836185" lon="5.816120551899076">
        <ele>706</ele>
        <time>2014-05-21T08:46:13Z</time>
      </trkpt>
      <trkpt lat="44.057653304189444" lon="5.8159742038697">
        <ele>705.20001220703125</ele>
        <time>2014-05-21T08:46:14Z</time>
      </trkpt>
      <trkpt lat="44.057451300323009" lon="5.815417310222983">
        <ele>704.20001220703125</ele>
        <time>2014-05-21T08:46:18Z</time>
      </trkpt>
      <trkpt lat="44.057401092723012" lon="5.815285295248032">
        <ele>704.20001220703125</ele>
        <time>2014-05-21T08:46:19Z</time>
      </trkpt>
      <trkpt lat="44.05723731033504" lon="5.814928393810988">
        <ele>705.20001220703125</ele>
        <time>2014-05-21T08:46:22Z</time>
      </trkpt>
      <trkpt lat="44.057164387777448" lon="5.814836444333196">
        <ele>705.5999755859375</ele>
        <time>2014-05-21T08:46:23Z</time>
      </trkpt>
      <trkpt lat="44.056896837428212" lon="5.814673500135541">
        <ele>705</ele>
        <time>2014-05-21T08:46:26Z</time>
      </trkpt>
      <trkpt lat="44.056722158566117" lon="5.814576353877783">
        <ele>704</ele>
        <time>2014-05-21T08:46:28Z</time>
      </trkpt>
      <trkpt lat="44.056493584066629" lon="5.814377367496491">
        <ele>704.20001220703125</ele>
        <time>2014-05-21T08:46:31Z</time>
      </trkpt>
      <trkpt lat="44.056356456130743" lon="5.81421559676528">
        <ele>705.20001220703125</ele>
        <time>2014-05-21T08:46:33Z</time>
      </trkpt>
      <trkpt lat="44.056167444214225" lon="5.81395709887147">
        <ele>705.4000244140625</ele>
        <time>2014-05-21T08:46:36Z</time>
      </trkpt>
      <trkpt lat="44.055746756494045" lon="5.813376735895872">
        <ele>706.4000244140625</ele>
        <time>2014-05-21T08:46:43Z</time>
      </trkpt>
      <trkpt lat="44.055692022666335" lon="5.813303980976343">
        <ele>706.79998779296875</ele>
        <time>2014-05-21T08:46:44Z</time>
      </trkpt>
      <trkpt lat="44.05553687363863" lon="5.813091918826103">
        <ele>707.5999755859375</ele>
        <time>2014-05-21T08:46:47Z</time>
      </trkpt>
      <trkpt lat="44.055407037958503" lon="5.812876168638468">
        <ele>708.4000244140625</ele>
        <time>2014-05-21T08:46:50Z</time>
      </trkpt>
      <trkpt lat="44.055313160642982" lon="5.812647342681885">
        <ele>709</ele>
        <time>2014-05-21T08:46:53Z</time>
      </trkpt>
      <trkpt lat="44.055274603888392" lon="5.812493450939655">
        <ele>709.5999755859375</ele>
        <time>2014-05-21T08:46:55Z</time>
      </trkpt>
      <trkpt lat="44.055256079882383" lon="5.812421031296253">
        <ele>710</ele>
        <time>2014-05-21T08:46:56Z</time>
      </trkpt>
      <trkpt lat="44.05518508516252" lon="5.812154905870557">
        <ele>711</ele>
        <time>2014-05-21T08:47:00Z</time>
      </trkpt>
      <trkpt lat="44.055162873119116" lon="5.812092125415802">
        <ele>711.20001220703125</ele>
        <time>2014-05-21T08:47:01Z</time>
      </trkpt>
      <trkpt lat="44.055136051028967" lon="5.812030769884586">
        <ele>711.4000244140625</ele>
        <time>2014-05-21T08:47:02Z</time>
      </trkpt>
      <trkpt lat="44.055025577545166" lon="5.811798255890608">
        <ele>712</ele>
        <time>2014-05-21T08:47:06Z</time>
      </trkpt>
      <trkpt lat="44.054994145408273" lon="5.811746036633849">
        <ele>712.20001220703125</ele>
        <time>2014-05-21T08:47:07Z</time>
      </trkpt>
      <trkpt lat="44.054819215089083" lon="5.811509164050221">
        <ele>712.5999755859375</ele>
        <time>2014-05-21T08:47:12Z</time>
      </trkpt>
      <trkpt lat="44.054737407714128" lon="5.811425847932696">
        <ele>712.79998779296875</ele>
        <time>2014-05-21T08:47:14Z</time>
      </trkpt>
      <trkpt lat="44.054547809064388" lon="5.811236836016178">
        <ele>713.20001220703125</ele>
        <time>2014-05-21T08:47:19Z</time>
      </trkpt>
      <trkpt lat="44.054436665028334" lon="5.811118483543396">
        <ele>713.4000244140625</ele>
        <time>2014-05-21T08:47:22Z</time>
      </trkpt>
      <trkpt lat="44.054214125499129" lon="5.810785219073296">
        <ele>713.5999755859375</ele>
        <time>2014-05-21T08:47:29Z</time>
      </trkpt>
      <trkpt lat="44.053996363654733" lon="5.810370147228241">
        <ele>714.20001220703125</ele>
        <time>2014-05-21T08:47:37Z</time>
      </trkpt>
      <trkpt lat="44.053965769708157" lon="5.81031683832407">
        <ele>714.20001220703125</ele>
        <time>2014-05-21T08:47:38Z</time>
      </trkpt>
      <trkpt lat="44.053900307044387" lon="5.810205526649952">
        <ele>713.79998779296875</ele>
        <time>2014-05-21T08:47:40Z</time>
      </trkpt>
      <trkpt lat="44.053735267370939" lon="5.809995392337441">
        <ele>713.4000244140625</ele>
        <time>2014-05-21T08:47:44Z</time>
      </trkpt>
      <trkpt lat="44.053644658997655" lon="5.809894474223256">
        <ele>713</ele>
        <time>2014-05-21T08:47:46Z</time>
      </trkpt>
      <trkpt lat="44.053404936566949" lon="5.809663720428944">
        <ele>713</ele>
        <time>2014-05-21T08:47:51Z</time>
      </trkpt>
      <trkpt lat="44.053144091740251" lon="5.809379406273365">
        <ele>711.5999755859375</ele>
        <time>2014-05-21T08:47:56Z</time>
      </trkpt>
      <trkpt lat="44.052877128124237" lon="5.809028623625636">
        <ele>710.5999755859375</ele>
        <time>2014-05-21T08:48:01Z</time>
      </trkpt>
      <trkpt lat="44.052774952724576" lon="5.808879844844341">
        <ele>710.20001220703125</ele>
        <time>2014-05-21T08:48:03Z</time>
      </trkpt>
      <trkpt lat="44.052576385438442" lon="5.808565188199282">
        <ele>709.4000244140625</ele>
        <time>2014-05-21T08:48:07Z</time>
      </trkpt>
      <trkpt lat="44.052425595000386" lon="5.808353209868074">
        <ele>709.4000244140625</ele>
        <time>2014-05-21T08:48:10Z</time>
      </trkpt>
      <trkpt lat="44.052318390458822" lon="5.80823871307075">
        <ele>709.4000244140625</ele>
        <time>2014-05-21T08:48:12Z</time>
      </trkpt>
      <trkpt lat="44.052141113206744" lon="5.808102004230022">
        <ele>710</ele>
        <time>2014-05-21T08:48:15Z</time>
      </trkpt>
      <trkpt lat="44.051813967525959" lon="5.807854235172272">
        <ele>708.20001220703125</ele>
        <time>2014-05-21T08:48:20Z</time>
      </trkpt>
      <trkpt lat="44.051608024165034" lon="5.807703780010343">
        <ele>708.4000244140625</ele>
        <time>2014-05-21T08:48:23Z</time>
      </trkpt>
      <trkpt lat="44.051072420552373" lon="5.807325504720211">
        <ele>708.4000244140625</ele>
        <time>2014-05-21T08:48:31Z</time>
      </trkpt>
      <trkpt lat="44.050581157207489" lon="5.806964747607708">
        <ele>708</ele>
        <time>2014-05-21T08:48:38Z</time>
      </trkpt>
      <trkpt lat="44.050507061183453" lon="5.806904817000032">
        <ele>707.20001220703125</ele>
        <time>2014-05-21T08:48:39Z</time>
      </trkpt>
      <trkpt lat="44.050040356814861" lon="5.806599045172334">
        <ele>706.20001220703125</ele>
        <time>2014-05-21T08:48:45Z</time>
      </trkpt>
      <trkpt lat="44.049957627430558" lon="5.806562332436442">
        <ele>706</ele>
        <time>2014-05-21T08:48:46Z</time>
      </trkpt>
      <trkpt lat="44.04960298910737" lon="5.806404249742627">
        <ele>704.5999755859375</ele>
        <time>2014-05-21T08:48:50Z</time>
      </trkpt>
      <trkpt lat="44.049508105963469" lon="5.806353539228439">
        <ele>704.20001220703125</ele>
        <time>2014-05-21T08:48:51Z</time>
      </trkpt>
      <trkpt lat="44.049316914752126" lon="5.806251699104905">
        <ele>703.20001220703125</ele>
        <time>2014-05-21T08:48:53Z</time>
      </trkpt>
      <trkpt lat="44.049130836501718" lon="5.806135861203075">
        <ele>702</ele>
        <time>2014-05-21T08:48:55Z</time>
      </trkpt>
      <trkpt lat="44.048858592286706" lon="5.805947603657842">
        <ele>701.4000244140625</ele>
        <time>2014-05-21T08:48:58Z</time>
      </trkpt>
      <trkpt lat="44.048420721665025" lon="5.805579135194421">
        <ele>700.4000244140625</ele>
        <time>2014-05-21T08:49:03Z</time>
      </trkpt>
      <trkpt lat="44.048346793279052" lon="5.805480144917965">
        <ele>699.79998779296875</ele>
        <time>2014-05-21T08:49:04Z</time>
      </trkpt>
      <trkpt lat="44.048110172152519" lon="5.805050488561392">
        <ele>700.4000244140625</ele>
        <time>2014-05-21T08:49:08Z</time>
      </trkpt>
      <trkpt lat="44.047917807474732" lon="5.804633153602481">
        <ele>701.5999755859375</ele>
        <time>2014-05-21T08:49:12Z</time>
      </trkpt>
      <trkpt lat="44.047886123880744" lon="5.804515220224857">
        <ele>702</ele>
        <time>2014-05-21T08:49:13Z</time>
      </trkpt>
      <trkpt lat="44.047845220193267" lon="5.80401306040585">
        <ele>701.4000244140625</ele>
        <time>2014-05-21T08:49:17Z</time>
      </trkpt>
      <trkpt lat="44.047844968736172" lon="5.803883140906692">
        <ele>701.20001220703125</ele>
        <time>2014-05-21T08:49:18Z</time>
      </trkpt>
      <trkpt lat="44.047806411981583" lon="5.803520036861301">
        <ele>700.5999755859375</ele>
        <time>2014-05-21T08:49:21Z</time>
      </trkpt>
      <trkpt lat="44.047771962359548" lon="5.803414927795529">
        <ele>700.5999755859375</ele>
        <time>2014-05-21T08:49:22Z</time>
      </trkpt>
      <trkpt lat="44.047635840252042" lon="5.803133882582188">
        <ele>701.5999755859375</ele>
        <time>2014-05-21T08:49:25Z</time>
      </trkpt>
      <trkpt lat="44.047588147222996" lon="5.803049309179187">
        <ele>702.20001220703125</ele>
        <time>2014-05-21T08:49:26Z</time>
      </trkpt>
      <trkpt lat="44.047541795298457" lon="5.802967920899391">
        <ele>702.79998779296875</ele>
        <time>2014-05-21T08:49:27Z</time>
      </trkpt>
      <trkpt lat="44.047419084236026" lon="5.802738927304745">
        <ele>704</ele>
        <time>2014-05-21T08:49:30Z</time>
      </trkpt>
      <trkpt lat="44.047350017353892" lon="5.802588472142816">
        <ele>704.79998779296875</ele>
        <time>2014-05-21T08:49:32Z</time>
      </trkpt>
      <trkpt lat="44.047319255769253" lon="5.802514543756843">
        <ele>705.20001220703125</ele>
        <time>2014-05-21T08:49:33Z</time>
      </trkpt>
      <trkpt lat="44.047190928831697" lon="5.802155882120132">
        <ele>706.4000244140625</ele>
        <time>2014-05-21T08:49:38Z</time>
      </trkpt>
      <trkpt lat="44.047098811715841" lon="5.801846506074071">
        <ele>707.5999755859375</ele>
        <time>2014-05-21T08:49:43Z</time>
      </trkpt>
      <trkpt lat="44.04708506539464" lon="5.80178682692349">
        <ele>707.79998779296875</ele>
        <time>2014-05-21T08:49:44Z</time>
      </trkpt>
      <trkpt lat="44.046959923580289" lon="5.801281901076436">
        <ele>708.20001220703125</ele>
        <time>2014-05-21T08:49:52Z</time>
      </trkpt>
      <trkpt lat="44.046862609684467" lon="5.800794158130884">
        <ele>708</ele>
        <time>2014-05-21T08:49:59Z</time>
      </trkpt>
      <trkpt lat="44.04680703766644" lon="5.800221674144268">
        <ele>707.20001220703125</ele>
        <time>2014-05-21T08:50:06Z</time>
      </trkpt>
      <trkpt lat="44.046715339645743" lon="5.799468224868178">
        <ele>706.5999755859375</ele>
        <time>2014-05-21T08:50:14Z</time>
      </trkpt>
      <trkpt lat="44.046622971072793" lon="5.798674458637834">
        <ele>707.4000244140625</ele>
        <time>2014-05-21T08:50:22Z</time>
      </trkpt>
      <trkpt lat="44.046605285257101" lon="5.798572450876236">
        <ele>707</ele>
        <time>2014-05-21T08:50:23Z</time>
      </trkpt>
      <trkpt lat="44.046506965532899" lon="5.798027040436864">
        <ele>706.5999755859375</ele>
        <time>2014-05-21T08:50:28Z</time>
      </trkpt>
      <trkpt lat="44.046464217826724" lon="5.797797879204154">
        <ele>706.20001220703125</ele>
        <time>2014-05-21T08:50:30Z</time>
      </trkpt>
      <trkpt lat="44.04633404687047" lon="5.797004532068968">
        <ele>706.20001220703125</ele>
        <time>2014-05-21T08:50:37Z</time>
      </trkpt>
      <trkpt lat="44.046232374384999" lon="5.79660932533443">
        <ele>707.79998779296875</ele>
        <time>2014-05-21T08:50:41Z</time>
      </trkpt>
      <trkpt lat="44.046187866479158" lon="5.796430623158813">
        <ele>708.4000244140625</ele>
        <time>2014-05-21T08:50:43Z</time>
      </trkpt>
      <trkpt lat="44.046120811253786" lon="5.796178914606571">
        <ele>709</ele>
        <time>2014-05-21T08:50:46Z</time>
      </trkpt>
      <trkpt lat="44.046063227578998" lon="5.795958386734128">
        <ele>710.4000244140625</ele>
        <time>2014-05-21T08:50:49Z</time>
      </trkpt>
      <trkpt lat="44.046004554256797" lon="5.795694943517447">
        <ele>711.5999755859375</ele>
        <time>2014-05-21T08:50:53Z</time>
      </trkpt>
      <trkpt lat="44.045998519286513" lon="5.795630486682057">
        <ele>711.79998779296875</ele>
        <time>2014-05-21T08:50:54Z</time>
      </trkpt>
      <trkpt lat="44.04597781598568" lon="5.795501740649343">
        <ele>712.4000244140625</ele>
        <time>2014-05-21T08:50:56Z</time>
      </trkpt>
      <trkpt lat="44.045969182625413" lon="5.795437032356858">
        <ele>712.5999755859375</ele>
        <time>2014-05-21T08:50:57Z</time>
      </trkpt>
      <trkpt lat="44.045933056622744" lon="5.795034617185593">
        <ele>713.4000244140625</ele>
        <time>2014-05-21T08:51:03Z</time>
      </trkpt>
      <trkpt lat="44.045935487374663" lon="5.794965382665396">
        <ele>713.5999755859375</ele>
        <time>2014-05-21T08:51:04Z</time>
      </trkpt>
      <trkpt lat="44.045976223424077" lon="5.794596914201975">
        <ele>714</ele>
        <time>2014-05-21T08:51:09Z</time>
      </trkpt>
      <trkpt lat="44.046037746593356" lon="5.794386696070433">
        <ele>714.20001220703125</ele>
        <time>2014-05-21T08:51:12Z</time>
      </trkpt>
      <trkpt lat="44.04609264805913" lon="5.794172286987305">
        <ele>714.4000244140625</ele>
        <time>2014-05-21T08:51:15Z</time>
      </trkpt>
      <trkpt lat="44.046103460714221" lon="5.794094670563936">
        <ele>714.4000244140625</ele>
        <time>2014-05-21T08:51:16Z</time>
      </trkpt>
      <trkpt lat="44.046090049669147" lon="5.793839357793331">
        <ele>714.20001220703125</ele>
        <time>2014-05-21T08:51:19Z</time>
      </trkpt>
      <trkpt lat="44.045970607548952" lon="5.793219096958637">
        <ele>714.4000244140625</ele>
        <time>2014-05-21T08:51:26Z</time>
      </trkpt>
      <trkpt lat="44.045948563143611" lon="5.793134355917573">
        <ele>714.79998779296875</ele>
        <time>2014-05-21T08:51:27Z</time>
      </trkpt>
      <trkpt lat="44.045882346108556" lon="5.79287719912827">
        <ele>715.79998779296875</ele>
        <time>2014-05-21T08:51:30Z</time>
      </trkpt>
      <trkpt lat="44.045768519863486" lon="5.792434802278876">
        <ele>716.20001220703125</ele>
        <time>2014-05-21T08:51:35Z</time>
      </trkpt>
      <trkpt lat="44.045632733032107" lon="5.791985783725977">
        <ele>716.79998779296875</ele>
        <time>2014-05-21T08:51:40Z</time>
      </trkpt>
      <trkpt lat="44.045543381944299" lon="5.791683280840516">
        <ele>716.20001220703125</ele>
        <time>2014-05-21T08:51:43Z</time>
      </trkpt>
      <trkpt lat="44.045482194051147" lon="5.791458478197455">
        <ele>715.20001220703125</ele>
        <time>2014-05-21T08:51:45Z</time>
      </trkpt>
      <trkpt lat="44.04542813077569" lon="5.791219342499971">
        <ele>713.5999755859375</ele>
        <time>2014-05-21T08:51:47Z</time>
      </trkpt>
      <trkpt lat="44.045406254008412" lon="5.791096212342382">
        <ele>713.20001220703125</ele>
        <time>2014-05-21T08:51:48Z</time>
      </trkpt>
      <trkpt lat="44.045366775244474" lon="5.790706872940064">
        <ele>712.5999755859375</ele>
        <time>2014-05-21T08:51:51Z</time>
      </trkpt>
      <trkpt lat="44.045367194339633" lon="5.790574522688985">
        <ele>712.4000244140625</ele>
        <time>2014-05-21T08:51:52Z</time>
      </trkpt>
      <trkpt lat="44.045373313128948" lon="5.790441418066621">
        <ele>712.4000244140625</ele>
        <time>2014-05-21T08:51:53Z</time>
      </trkpt>
      <trkpt lat="44.045460065826774" lon="5.789803806692362">
        <ele>713</ele>
        <time>2014-05-21T08:51:58Z</time>
      </trkpt>
      <trkpt lat="44.045632733032107" lon="5.788989840075374">
        <ele>713.5999755859375</ele>
        <time>2014-05-21T08:52:05Z</time>
      </trkpt>
      <trkpt lat="44.045657627284527" lon="5.788884982466698">
        <ele>713.5999755859375</ele>
        <time>2014-05-21T08:52:06Z</time>
      </trkpt>
      <trkpt lat="44.045722419396043" lon="5.788574516773224">
        <ele>714.79998779296875</ele>
        <time>2014-05-21T08:52:09Z</time>
      </trkpt>
      <trkpt lat="44.045749744400382" lon="5.788369830697775">
        <ele>715</ele>
        <time>2014-05-21T08:52:11Z</time>
      </trkpt>
      <trkpt lat="44.045755360275507" lon="5.78817754983902">
        <ele>714.5999755859375</ele>
        <time>2014-05-21T08:52:13Z</time>
      </trkpt>
      <trkpt lat="44.045747732743621" lon="5.7880715187639">
        <ele>714.79998779296875</ele>
        <time>2014-05-21T08:52:14Z</time>
      </trkpt>
      <trkpt lat="44.045708253979683" lon="5.787637587636709">
        <ele>713.5999755859375</ele>
        <time>2014-05-21T08:52:18Z</time>
      </trkpt>
      <trkpt lat="44.045673971995711" lon="5.78718613833189">
        <ele>712.79998779296875</ele>
        <time>2014-05-21T08:52:22Z</time>
      </trkpt>
      <trkpt lat="44.045667434111238" lon="5.78707423992455">
        <ele>712.20001220703125</ele>
        <time>2014-05-21T08:52:23Z</time>
      </trkpt>
      <trkpt lat="44.045622171834111" lon="5.786474011838436">
        <ele>711</ele>
        <time>2014-05-21T08:52:28Z</time>
      </trkpt>
      <trkpt lat="44.045599289238453" lon="5.786207132041454">
        <ele>710.20001220703125</ele>
        <time>2014-05-21T08:52:30Z</time>
      </trkpt>
      <trkpt lat="44.04558939859271" lon="5.786071177572012">
        <ele>709.79998779296875</ele>
        <time>2014-05-21T08:52:31Z</time>
      </trkpt>
      <trkpt lat="44.045567270368338" lon="5.785791808739305">
        <ele>708.5999755859375</ele>
        <time>2014-05-21T08:52:33Z</time>
      </trkpt>
      <trkpt lat="44.045543549582362" lon="5.785500286146998">
        <ele>707.4000244140625</ele>
        <time>2014-05-21T08:52:35Z</time>
      </trkpt>
      <trkpt lat="44.045520666986704" lon="5.785196525976062">
        <ele>706.4000244140625</ele>
        <time>2014-05-21T08:52:37Z</time>
      </trkpt>
      <trkpt lat="44.045501053333282" lon="5.784893101081252">
        <ele>704.79998779296875</ele>
        <time>2014-05-21T08:52:39Z</time>
      </trkpt>
      <trkpt lat="44.045469788834453" lon="5.784483896568418">
        <ele>703.79998779296875</ele>
        <time>2014-05-21T08:52:42Z</time>
      </trkpt>
      <trkpt lat="44.045460820198059" lon="5.784368058666587">
        <ele>703.79998779296875</ele>
        <time>2014-05-21T08:52:43Z</time>
      </trkpt>
      <trkpt lat="44.045436847954988" lon="5.784077877178788">
        <ele>703.79998779296875</ele>
        <time>2014-05-21T08:52:46Z</time>
      </trkpt>
      <trkpt lat="44.045433662831783" lon="5.783996907994151">
        <ele>703.79998779296875</ele>
        <time>2014-05-21T08:52:47Z</time>
      </trkpt>
      <trkpt lat="44.045415809378028" lon="5.783852152526379">
        <ele>704.20001220703125</ele>
        <time>2014-05-21T08:52:50Z</time>
      </trkpt>
      <trkpt lat="44.045409271493554" lon="5.783738577738404">
        <ele>704</ele>
        <time>2014-05-21T08:52:54Z</time>
      </trkpt>
      <trkpt lat="44.045413797721267" lon="5.783726088702679">
        <ele>704</ele>
        <time>2014-05-21T08:52:55Z</time>
      </trkpt>
      <trkpt lat="44.045428801327944" lon="5.783684933558106">
        <ele>703.79998779296875</ele>
        <time>2014-05-21T08:54:08Z</time>
      </trkpt>
      <trkpt lat="44.045429052785039" lon="5.783635480329394">
        <ele>703.79998779296875</ele>
        <time>2014-05-21T08:54:10Z</time>
      </trkpt>
      <trkpt lat="44.045430310070515" lon="5.78356247395277">
        <ele>703.79998779296875</ele>
        <time>2014-05-21T08:54:14Z</time>
      </trkpt>
      <trkpt lat="44.045434081926942" lon="5.783528443425894">
        <ele>703.79998779296875</ele>
        <time>2014-05-21T08:54:15Z</time>
      </trkpt>
      <trkpt lat="44.045457383617759" lon="5.783270448446274">
        <ele>703</ele>
        <time>2014-05-21T08:54:22Z</time>
      </trkpt>
      <trkpt lat="44.045461658388376" lon="5.782973561435938">
        <ele>703</ele>
        <time>2014-05-21T08:54:27Z</time>
      </trkpt>
      <trkpt lat="44.045464005321264" lon="5.78290524892509">
        <ele>702.4000244140625</ele>
        <time>2014-05-21T08:54:28Z</time>
      </trkpt>
      <trkpt lat="44.045475656166673" lon="5.782478777691722">
        <ele>702.5999755859375</ele>
        <time>2014-05-21T08:54:34Z</time>
      </trkpt>
      <trkpt lat="44.045474985614419" lon="5.781989023089409">
        <ele>701.20001220703125</ele>
        <time>2014-05-21T08:54:40Z</time>
      </trkpt>
      <trkpt lat="44.045473141595721" lon="5.781905874609947">
        <ele>701.20001220703125</ele>
        <time>2014-05-21T08:54:41Z</time>
      </trkpt>
      <trkpt lat="44.045473393052816" lon="5.781600521877408">
        <ele>700.5999755859375</ele>
        <time>2014-05-21T08:54:45Z</time>
      </trkpt>
      <trkpt lat="44.045486720278859" lon="5.781368678435683">
        <ele>700.5999755859375</ele>
        <time>2014-05-21T08:54:48Z</time>
      </trkpt>
      <trkpt lat="44.045496946200728" lon="5.781046561896801">
        <ele>701</ele>
        <time>2014-05-21T08:54:53Z</time>
      </trkpt>
      <trkpt lat="44.045459311455488" lon="5.7807288877666">
        <ele>700</ele>
        <time>2014-05-21T08:54:59Z</time>
      </trkpt>
      <trkpt lat="44.045444894582033" lon="5.780352288857102">
        <ele>699.5999755859375</ele>
        <time>2014-05-21T08:55:06Z</time>
      </trkpt>
      <trkpt lat="44.045442631468177" lon="5.780170569196343">
        <ele>699.4000244140625</ele>
        <time>2014-05-21T08:55:11Z</time>
      </trkpt>
      <trkpt lat="44.04543986544013" lon="5.780003853142262">
        <ele>699</ele>
        <time>2014-05-21T08:55:14Z</time>
      </trkpt>
      <trkpt lat="44.045456796884537" lon="5.77986060641706">
        <ele>698.5999755859375</ele>
        <time>2014-05-21T08:55:17Z</time>
      </trkpt>
      <trkpt lat="44.045472219586372" lon="5.779671426862478">
        <ele>697.79998779296875</ele>
        <time>2014-05-21T08:55:21Z</time>
      </trkpt>
      <trkpt lat="44.045468531548977" lon="5.779547123238444">
        <ele>697</ele>
        <time>2014-05-21T08:55:23Z</time>
      </trkpt>
      <trkpt lat="44.04546526260674" lon="5.779486522078514">
        <ele>696.5999755859375</ele>
        <time>2014-05-21T08:55:24Z</time>
      </trkpt>
      <trkpt lat="44.045435423031449" lon="5.77921511605382">
        <ele>695.4000244140625</ele>
        <time>2014-05-21T08:55:27Z</time>
      </trkpt>
      <trkpt lat="44.045424945652485" lon="5.779104810208082">
        <ele>694.79998779296875</ele>
        <time>2014-05-21T08:55:28Z</time>
      </trkpt>
      <trkpt lat="44.045413127169013" lon="5.778993414714932">
        <ele>694.20001220703125</ele>
        <time>2014-05-21T08:55:29Z</time>
      </trkpt>
      <trkpt lat="44.045404996722937" lon="5.77888579107821">
        <ele>694</ele>
        <time>2014-05-21T08:55:30Z</time>
      </trkpt>
      <trkpt lat="44.045394100248814" lon="5.77858722768724">
        <ele>693</ele>
        <time>2014-05-21T08:55:33Z</time>
      </trkpt>
      <trkpt lat="44.045369876548648" lon="5.778108788654208">
        <ele>693</ele>
        <time>2014-05-21T08:55:38Z</time>
      </trkpt>
      <trkpt lat="44.045359399169683" lon="5.778022957965732">
        <ele>693</ele>
        <time>2014-05-21T08:55:39Z</time>
      </trkpt>
      <trkpt lat="44.04531623236835" lon="5.777693297713995">
        <ele>694</ele>
        <time>2014-05-21T08:55:43Z</time>
      </trkpt>
      <trkpt lat="44.045293433591723" lon="5.777546027675271">
        <ele>694</ele>
        <time>2014-05-21T08:55:45Z</time>
      </trkpt>
      <trkpt lat="44.045210452750325" lon="5.776937920600176">
        <ele>693.79998779296875</ele>
        <time>2014-05-21T08:55:53Z</time>
      </trkpt>
      <trkpt lat="44.045146247372031" lon="5.776558639481664">
        <ele>692.79998779296875</ele>
        <time>2014-05-21T08:55:58Z</time>
      </trkpt>
      <trkpt lat="44.045123532414436" lon="5.776397623121738">
        <ele>692.5999755859375</ele>
        <time>2014-05-21T08:56:00Z</time>
      </trkpt>
      <trkpt lat="44.045037450268865" lon="5.776082295924425">
        <ele>692.20001220703125</ele>
        <time>2014-05-21T08:56:04Z</time>
      </trkpt>
      <trkpt lat="44.044999899342656" lon="5.77600434422493">
        <ele>692</ele>
        <time>2014-05-21T08:56:05Z</time>
      </trkpt>
      <trkpt lat="44.044911554083228" lon="5.775861600413919">
        <ele>691.5999755859375</ele>
        <time>2014-05-21T08:56:07Z</time>
      </trkpt>
      <trkpt lat="44.044855311512947" lon="5.77578448690474">
        <ele>691</ele>
        <time>2014-05-21T08:56:08Z</time>
      </trkpt>
      <trkpt lat="44.044801667332649" lon="5.775704020634294">
        <ele>690</ele>
        <time>2014-05-21T08:56:09Z</time>
      </trkpt>
      <trkpt lat="44.044692032039165" lon="5.775519870221615">
        <ele>688.20001220703125</ele>
        <time>2014-05-21T08:56:11Z</time>
      </trkpt>
      <trkpt lat="44.044586503878236" lon="5.775317782536149">
        <ele>687.20001220703125</ele>
        <time>2014-05-21T08:56:13Z</time>
      </trkpt>
      <trkpt lat="44.044537050649524" lon="5.775218121707439">
        <ele>686.79998779296875</ele>
        <time>2014-05-21T08:56:14Z</time>
      </trkpt>
      <trkpt lat="44.044308057054877" lon="5.774725433439016">
        <ele>687.20001220703125</ele>
        <time>2014-05-21T08:56:19Z</time>
      </trkpt>
      <trkpt lat="44.044257430359721" lon="5.774509515613318">
        <ele>687</ele>
        <time>2014-05-21T08:56:21Z</time>
      </trkpt>
      <trkpt lat="44.044082667678595" lon="5.773972738534212">
        <ele>686.79998779296875</ele>
        <time>2014-05-21T08:56:26Z</time>
      </trkpt>
      <trkpt lat="44.043906815350056" lon="5.773711893707514">
        <ele>686</ele>
        <time>2014-05-21T08:56:29Z</time>
      </trkpt>
      <trkpt lat="44.043784271925688" lon="5.773540064692497">
        <ele>685</ele>
        <time>2014-05-21T08:56:31Z</time>
      </trkpt>
      <trkpt lat="44.043721407651901" lon="5.773452809080482">
        <ele>684.79998779296875</ele>
        <time>2014-05-21T08:56:32Z</time>
      </trkpt>
      <trkpt lat="44.043517140671611" lon="5.773194562643766">
        <ele>683.5999755859375</ele>
        <time>2014-05-21T08:56:35Z</time>
      </trkpt>
      <trkpt lat="44.043380850926042" lon="5.773021560162306">
        <ele>682.20001220703125</ele>
        <time>2014-05-21T08:56:37Z</time>
      </trkpt>
      <trkpt lat="44.043312286958098" lon="5.772939752787352">
        <ele>682.20001220703125</ele>
        <time>2014-05-21T08:56:38Z</time>
      </trkpt>
      <trkpt lat="44.042963180691004" lon="5.772522334009409">
        <ele>681.20001220703125</ele>
        <time>2014-05-21T08:56:43Z</time>
      </trkpt>
      <trkpt lat="44.042818592861295" lon="5.772345056757331">
        <ele>680</ele>
        <time>2014-05-21T08:56:45Z</time>
      </trkpt>
      <trkpt lat="44.042673418298364" lon="5.772163337096572">
        <ele>679.5999755859375</ele>
        <time>2014-05-21T08:56:47Z</time>
      </trkpt>
      <trkpt lat="44.042525980621576" lon="5.771981701254845">
        <ele>678.79998779296875</ele>
        <time>2014-05-21T08:56:49Z</time>
      </trkpt>
      <trkpt lat="44.042235547676682" lon="5.771588338539004">
        <ele>677.5999755859375</ele>
        <time>2014-05-21T08:56:53Z</time>
      </trkpt>
      <trkpt lat="44.042167235165834" lon="5.77147476375103">
        <ele>677.20001220703125</ele>
        <time>2014-05-21T08:56:54Z</time>
      </trkpt>
      <trkpt lat="44.041904462501407" lon="5.770986014977098">
        <ele>676.20001220703125</ele>
        <time>2014-05-21T08:56:58Z</time>
      </trkpt>
      <trkpt lat="44.041772866621614" lon="5.770752830430865">
        <ele>675.5999755859375</ele>
        <time>2014-05-21T08:57:00Z</time>
      </trkpt>
      <trkpt lat="44.041461227461696" lon="5.770377488806844">
        <ele>676</ele>
        <time>2014-05-21T08:57:04Z</time>
      </trkpt>
      <trkpt lat="44.040959402918816" lon="5.769893685355783">
        <ele>675.4000244140625</ele>
        <time>2014-05-21T08:57:10Z</time>
      </trkpt>
      <trkpt lat="44.040804002434015" lon="5.769720515236259">
        <ele>675</ele>
        <time>2014-05-21T08:57:12Z</time>
      </trkpt>
      <trkpt lat="44.040515664964914" lon="5.769360680133104">
        <ele>674.5999755859375</ele>
        <time>2014-05-21T08:57:16Z</time>
      </trkpt>
      <trkpt lat="44.040117105469108" lon="5.768816526979208">
        <ele>674.79998779296875</ele>
        <time>2014-05-21T08:57:22Z</time>
      </trkpt>
      <trkpt lat="44.040048038586974" lon="5.768732791766524">
        <ele>674.5999755859375</ele>
        <time>2014-05-21T08:57:23Z</time>
      </trkpt>
      <trkpt lat="44.039766322821379" lon="5.768424505367875">
        <ele>674</ele>
        <time>2014-05-21T08:57:27Z</time>
      </trkpt>
      <trkpt lat="44.039504136890173" lon="5.768106412142515">
        <ele>674.20001220703125</ele>
        <time>2014-05-21T08:57:31Z</time>
      </trkpt>
      <trkpt lat="44.039059309288859" lon="5.767577681690455">
        <ele>674.20001220703125</ele>
        <time>2014-05-21T08:57:38Z</time>
      </trkpt>
      <trkpt lat="44.038661671802402" lon="5.766997653990984">
        <ele>673.79998779296875</ele>
        <time>2014-05-21T08:57:45Z</time>
      </trkpt>
      <trkpt lat="44.038479868322611" lon="5.766762206330895">
        <ele>673</ele>
        <time>2014-05-21T08:57:48Z</time>
      </trkpt>
      <trkpt lat="44.038293119519949" lon="5.766566572710872">
        <ele>674</ele>
        <time>2014-05-21T08:57:51Z</time>
      </trkpt>
      <trkpt lat="44.038230590522289" lon="5.766506809741259">
        <ele>674</ele>
        <time>2014-05-21T08:57:52Z</time>
      </trkpt>
      <trkpt lat="44.037949377670884" lon="5.766196008771658">
        <ele>674</ele>
        <time>2014-05-21T08:57:57Z</time>
      </trkpt>
      <trkpt lat="44.037526762112975" lon="5.765679096803069">
        <ele>674</ele>
        <time>2014-05-21T08:58:05Z</time>
      </trkpt>
      <trkpt lat="44.037430956959724" lon="5.76555454172194">
        <ele>674.79998779296875</ele>
        <time>2014-05-21T08:58:07Z</time>
      </trkpt>
      <trkpt lat="44.037230713292956" lon="5.765313813462853">
        <ele>675.4000244140625</ele>
        <time>2014-05-21T08:58:11Z</time>
      </trkpt>
      <trkpt lat="44.03703298419714" lon="5.765113737434149">
        <ele>675.79998779296875</ele>
        <time>2014-05-21T08:58:15Z</time>
      </trkpt>
      <trkpt lat="44.036924354732037" lon="5.765030588954687">
        <ele>676.5999755859375</ele>
        <time>2014-05-21T08:58:17Z</time>
      </trkpt>
      <trkpt lat="44.036718662828207" lon="5.764873092994094">
        <ele>677</ele>
        <time>2014-05-21T08:58:21Z</time>
      </trkpt>
      <trkpt lat="44.036521436646581" lon="5.764706460759044">
        <ele>677.5999755859375</ele>
        <time>2014-05-21T08:58:25Z</time>
      </trkpt>
      <trkpt lat="44.036474581807852" lon="5.764649547636509">
        <ele>677.4000244140625</ele>
        <time>2014-05-21T08:58:26Z</time>
      </trkpt>
      <trkpt lat="44.036428313702345" lon="5.764588108286262">
        <ele>677.20001220703125</ele>
        <time>2014-05-21T08:58:27Z</time>
      </trkpt>
      <trkpt lat="44.036271907389164" lon="5.764376129955053">
        <ele>676.20001220703125</ele>
        <time>2014-05-21T08:58:30Z</time>
      </trkpt>
      <trkpt lat="44.036154393106699" lon="5.764222573488951">
        <ele>675.4000244140625</ele>
        <time>2014-05-21T08:58:32Z</time>
      </trkpt>
      <trkpt lat="44.036092618480325" lon="5.764141688123345">
        <ele>675.20001220703125</ele>
        <time>2014-05-21T08:58:33Z</time>
      </trkpt>
      <trkpt lat="44.035889022052288" lon="5.763907833024859">
        <ele>674</ele>
        <time>2014-05-21T08:58:36Z</time>
      </trkpt>
      <trkpt lat="44.035813249647617" lon="5.763835413381457">
        <ele>673.79998779296875</ele>
        <time>2014-05-21T08:58:37Z</time>
      </trkpt>
      <trkpt lat="44.035589452832937" lon="5.763573562726378">
        <ele>672.4000244140625</ele>
        <time>2014-05-21T08:58:40Z</time>
      </trkpt>
      <trkpt lat="44.035440674051642" lon="5.763374073430896">
        <ele>671</ele>
        <time>2014-05-21T08:58:42Z</time>
      </trkpt>
      <trkpt lat="44.035280495882034" lon="5.763175087049604">
        <ele>669.4000244140625</ele>
        <time>2014-05-21T08:58:44Z</time>
      </trkpt>
      <trkpt lat="44.035103553906083" lon="5.762979621067643">
        <ele>668.20001220703125</ele>
        <time>2014-05-21T08:58:46Z</time>
      </trkpt>
      <trkpt lat="44.034925438463688" lon="5.762779293581843">
        <ele>666.79998779296875</ele>
        <time>2014-05-21T08:58:48Z</time>
      </trkpt>
      <trkpt lat="44.034743718802929" lon="5.762575278058648">
        <ele>665.4000244140625</ele>
        <time>2014-05-21T08:58:50Z</time>
      </trkpt>
      <trkpt lat="44.03449259698391" lon="5.762223992496729">
        <ele>664.20001220703125</ele>
        <time>2014-05-21T08:58:53Z</time>
      </trkpt>
      <trkpt lat="44.0343152359128" lon="5.761997010558844">
        <ele>663.20001220703125</ele>
        <time>2014-05-21T08:58:55Z</time>
      </trkpt>
      <trkpt lat="44.03420920483768" lon="5.761913023889065">
        <ele>663</ele>
        <time>2014-05-21T08:58:56Z</time>
      </trkpt>
      <trkpt lat="44.034097976982594" lon="5.761843034997582">
        <ele>662.4000244140625</ele>
        <time>2014-05-21T08:58:57Z</time>
      </trkpt>
      <trkpt lat="44.033986162394285" lon="5.76177597977221">
        <ele>661.4000244140625</ele>
        <time>2014-05-21T08:58:58Z</time>
      </trkpt>
      <trkpt lat="44.03387644328177" lon="5.761701967567205">
        <ele>660.4000244140625</ele>
        <time>2014-05-21T08:58:59Z</time>
      </trkpt>
      <trkpt lat="44.033656250685453" lon="5.761542208492756">
        <ele>659</ele>
        <time>2014-05-21T08:59:01Z</time>
      </trkpt>
      <trkpt lat="44.033438991755247" lon="5.761380773037672">
        <ele>657.79998779296875</ele>
        <time>2014-05-21T08:59:03Z</time>
      </trkpt>
      <trkpt lat="44.03313372284174" lon="5.761076426133514">
        <ele>656.4000244140625</ele>
        <time>2014-05-21T08:59:06Z</time>
      </trkpt>
      <trkpt lat="44.032845050096512" lon="5.76071809977293">
        <ele>655.5999755859375</ele>
        <time>2014-05-21T08:59:07Z</time>
      </trkpt>
      <trkpt lat="44.032732313498855" lon="5.760627323761582">
        <ele>655.20001220703125</ele>
        <time>2014-05-21T08:59:10Z</time>
      </trkpt>
      <trkpt lat="44.032506002113223" lon="5.760435294359922">
        <ele>654</ele>
        <time>2014-05-21T08:59:12Z</time>
      </trkpt>
      <trkpt lat="44.032393852248788" lon="5.760335884988308">
        <ele>653</ele>
        <time>2014-05-21T08:59:13Z</time>
      </trkpt>
      <trkpt lat="44.032281953841448" lon="5.760236475616694">
        <ele>652.20001220703125</ele>
        <time>2014-05-21T08:59:14Z</time>
      </trkpt>
      <trkpt lat="44.032170055434108" lon="5.760136311873794">
        <ele>651</ele>
        <time>2014-05-21T08:59:15Z</time>
      </trkpt>
      <trkpt lat="44.031948102638125" lon="5.759933553636074">
        <ele>649</ele>
        <time>2014-05-21T08:59:17Z</time>
      </trkpt>
      <trkpt lat="44.031728329136968" lon="5.759732807055116">
        <ele>648</ele>
        <time>2014-05-21T08:59:19Z</time>
      </trkpt>
      <trkpt lat="44.031515344977379" lon="5.759528707712889">
        <ele>647.4000244140625</ele>
        <time>2014-05-21T08:59:21Z</time>
      </trkpt>
      <trkpt lat="44.031407721340656" lon="5.759422592818737">
        <ele>646.5999755859375</ele>
        <time>2014-05-21T08:59:22Z</time>
      </trkpt>
      <trkpt lat="44.031206555664539" lon="5.759200556203723">
        <ele>645.5999755859375</ele>
        <time>2014-05-21T08:59:24Z</time>
      </trkpt>
      <trkpt lat="44.031004719436169" lon="5.75897173024714">
        <ele>644.4000244140625</ele>
        <time>2014-05-21T08:59:26Z</time>
      </trkpt>
      <trkpt lat="44.030901957303286" lon="5.758856814354658">
        <ele>644</ele>
        <time>2014-05-21T08:59:27Z</time>
      </trkpt>
      <trkpt lat="44.030685871839523" lon="5.758645255118609">
        <ele>643.20001220703125</ele>
        <time>2014-05-21T08:59:29Z</time>
      </trkpt>
      <trkpt lat="44.030470373108983" lon="5.758444592356682">
        <ele>642.20001220703125</ele>
        <time>2014-05-21T08:59:31Z</time>
      </trkpt>
      <trkpt lat="44.030367946252227" lon="5.758340656757355">
        <ele>640.5999755859375</ele>
        <time>2014-05-21T08:59:32Z</time>
      </trkpt>
      <trkpt lat="44.030160075053573" lon="5.758117781952024">
        <ele>639.4000244140625</ele>
        <time>2014-05-21T08:59:34Z</time>
      </trkpt>
      <trkpt lat="44.029956562444568" lon="5.757881496101618">
        <ele>638.20001220703125</ele>
        <time>2014-05-21T08:59:36Z</time>
      </trkpt>
      <trkpt lat="44.029858075082302" lon="5.757760042324662">
        <ele>637</ele>
        <time>2014-05-21T08:59:37Z</time>
      </trkpt>
      <trkpt lat="44.029761431738734" lon="5.757645964622498">
        <ele>636.20001220703125</ele>
        <time>2014-05-21T08:59:38Z</time>
      </trkpt>
      <trkpt lat="44.029586333781481" lon="5.757429711520672">
        <ele>635.79998779296875</ele>
        <time>2014-05-21T08:59:40Z</time>
      </trkpt>
      <trkpt lat="44.029439063742757" lon="5.757218990474939">
        <ele>635</ele>
        <time>2014-05-21T08:59:42Z</time>
      </trkpt>
      <trkpt lat="44.029376786202192" lon="5.757108433172107">
        <ele>634.79998779296875</ele>
        <time>2014-05-21T08:59:43Z</time>
      </trkpt>
      <trkpt lat="44.029328087344766" lon="5.756988907232881">
        <ele>634.5999755859375</ele>
        <time>2014-05-21T08:59:44Z</time>
      </trkpt>
      <trkpt lat="44.029302606359124" lon="5.756860496476293">
        <ele>634</ele>
        <time>2014-05-21T08:59:45Z</time>
      </trkpt>
      <trkpt lat="44.029299253597856" lon="5.756741724908352">
        <ele>633.79998779296875</ele>
        <time>2014-05-21T08:59:46Z</time>
      </trkpt>
      <trkpt lat="44.029319118708372" lon="5.756626389920712">
        <ele>633.5999755859375</ele>
        <time>2014-05-21T08:59:47Z</time>
      </trkpt>
      <trkpt lat="44.029441578313708" lon="5.756461014971137">
        <ele>633</ele>
        <time>2014-05-21T08:59:49Z</time>
      </trkpt>
      <trkpt lat="44.029526403173804" lon="5.756411645561457">
        <ele>632.4000244140625</ele>
        <time>2014-05-21T08:59:50Z</time>
      </trkpt>
      <trkpt lat="44.029613910242915" lon="5.756359593942761">
        <ele>632</ele>
        <time>2014-05-21T08:59:51Z</time>
      </trkpt>
      <trkpt lat="44.029704434797168" lon="5.756303602829576">
        <ele>631.20001220703125</ele>
        <time>2014-05-21T08:59:52Z</time>
      </trkpt>
      <trkpt lat="44.029887579381466" lon="5.75618558563292">
        <ele>630</ele>
        <time>2014-05-21T08:59:54Z</time>
      </trkpt>
      <trkpt lat="44.030072819441557" lon="5.756043763831258">
        <ele>627.4000244140625</ele>
        <time>2014-05-21T08:59:56Z</time>
      </trkpt>
      <trkpt lat="44.030259568244219" lon="5.755878640338779">
        <ele>625.5999755859375</ele>
        <time>2014-05-21T08:59:58Z</time>
      </trkpt>
      <trkpt lat="44.030345063656569" lon="5.755778644233942">
        <ele>624.79998779296875</ele>
        <time>2014-05-21T08:59:59Z</time>
      </trkpt>
      <trkpt lat="44.030419997870922" lon="5.755673451349139">
        <ele>624.20001220703125</ele>
        <time>2014-05-21T09:00:00Z</time>
      </trkpt>
      <trkpt lat="44.030482275411487" lon="5.75556012801826">
        <ele>623.5999755859375</ele>
        <time>2014-05-21T09:00:01Z</time>
      </trkpt>
      <trkpt lat="44.030530387535691" lon="5.755177913233638">
        <ele>623</ele>
        <time>2014-05-21T09:00:04Z</time>
      </trkpt>
      <trkpt lat="44.030426032841206" lon="5.754938777536154">
        <ele>621.5999755859375</ele>
        <time>2014-05-21T09:00:06Z</time>
      </trkpt>
      <trkpt lat="44.030280439183116" lon="5.754740880802274">
        <ele>620.5999755859375</ele>
        <time>2014-05-21T09:00:08Z</time>
      </trkpt>
      <trkpt lat="44.030213886871934" lon="5.754634011536837">
        <ele>620.4000244140625</ele>
        <time>2014-05-21T09:00:09Z</time>
      </trkpt>
      <trkpt lat="44.030154710635543" lon="5.754524376243353">
        <ele>620.5999755859375</ele>
        <time>2014-05-21T09:00:10Z</time>
      </trkpt>
      <trkpt lat="44.030103916302323" lon="5.754397055134177">
        <ele>620.79998779296875</ele>
        <time>2014-05-21T09:00:11Z</time>
      </trkpt>
      <trkpt lat="44.030031831935048" lon="5.754130342975259">
        <ele>620.5999755859375</ele>
        <time>2014-05-21T09:00:13Z</time>
      </trkpt>
      <trkpt lat="44.029962345957756" lon="5.75386505573988">
        <ele>620.4000244140625</ele>
        <time>2014-05-21T09:00:15Z</time>
      </trkpt>
      <trkpt lat="44.029842149466276" lon="5.753632709383965">
        <ele>620.4000244140625</ele>
        <time>2014-05-21T09:00:17Z</time>
      </trkpt>
      <trkpt lat="44.029606617987156" lon="5.753369433805347">
        <ele>620.4000244140625</ele>
        <time>2014-05-21T09:00:20Z</time>
      </trkpt>
      <trkpt lat="44.029435124248266" lon="5.753238676115871">
        <ele>620.5999755859375</ele>
        <time>2014-05-21T09:00:22Z</time>
      </trkpt>
      <trkpt lat="44.029187439009547" lon="5.753073133528233">
        <ele>621</ele>
        <time>2014-05-21T09:00:25Z</time>
      </trkpt>
      <trkpt lat="44.028745461255312" lon="5.752772642299533">
        <ele>618.79998779296875</ele>
        <time>2014-05-21T09:00:30Z</time>
      </trkpt>
      <trkpt lat="44.028570195659995" lon="5.752640208229423">
        <ele>618.4000244140625</ele>
        <time>2014-05-21T09:00:32Z</time>
      </trkpt>
      <trkpt lat="44.028393169865012" lon="5.752515150234103">
        <ele>617.79998779296875</ele>
        <time>2014-05-21T09:00:34Z</time>
      </trkpt>
      <trkpt lat="44.028216311708093" lon="5.75238992460072">
        <ele>616.5999755859375</ele>
        <time>2014-05-21T09:00:36Z</time>
      </trkpt>
      <trkpt lat="44.028041632845998" lon="5.752274338155985">
        <ele>615.4000244140625</ele>
        <time>2014-05-21T09:00:38Z</time>
      </trkpt>
      <trkpt lat="44.027875252068043" lon="5.752151878550649">
        <ele>615</ele>
        <time>2014-05-21T09:00:40Z</time>
      </trkpt>
      <trkpt lat="44.027378708124161" lon="5.751798497512937">
        <ele>614.20001220703125</ele>
        <time>2014-05-21T09:00:46Z</time>
      </trkpt>
      <trkpt lat="44.027049215510488" lon="5.751575790345669">
        <ele>614.20001220703125</ele>
        <time>2014-05-21T09:00:50Z</time>
      </trkpt>
      <trkpt lat="44.026644704863429" lon="5.751282591372728">
        <ele>613</ele>
        <time>2014-05-21T09:00:55Z</time>
      </trkpt>
      <trkpt lat="44.026251509785652" lon="5.750991655513644">
        <ele>612.4000244140625</ele>
        <time>2014-05-21T09:01:00Z</time>
      </trkpt>
      <trkpt lat="44.026001393795013" lon="5.750806499272585">
        <ele>611.4000244140625</ele>
        <time>2014-05-21T09:01:03Z</time>
      </trkpt>
      <trkpt lat="44.025910701602697" lon="5.750749167054892">
        <ele>610.4000244140625</ele>
        <time>2014-05-21T09:01:04Z</time>
      </trkpt>
      <trkpt lat="44.025819338858128" lon="5.750693092122674">
        <ele>609.20001220703125</ele>
        <time>2014-05-21T09:01:05Z</time>
      </trkpt>
      <trkpt lat="44.025726467370987" lon="5.750644225627184">
        <ele>608.5999755859375</ele>
        <time>2014-05-21T09:01:06Z</time>
      </trkpt>
      <trkpt lat="44.025540808215737" lon="5.750552443787456">
        <ele>607.79998779296875</ele>
        <time>2014-05-21T09:01:08Z</time>
      </trkpt>
      <trkpt lat="44.025251548737288" lon="5.750423362478614">
        <ele>606.4000244140625</ele>
        <time>2014-05-21T09:01:11Z</time>
      </trkpt>
      <trkpt lat="44.025057926774025" lon="5.75033962726593">
        <ele>606.4000244140625</ele>
        <time>2014-05-21T09:01:13Z</time>
      </trkpt>
      <trkpt lat="44.024571692571044" lon="5.750113818794489">
        <ele>605</ele>
        <time>2014-05-21T09:01:18Z</time>
      </trkpt>
      <trkpt lat="44.024285953491926" lon="5.749983647838235">
        <ele>604.4000244140625</ele>
        <time>2014-05-21T09:01:21Z</time>
      </trkpt>
      <trkpt lat="44.02419132180512" lon="5.749941822141409">
        <ele>603.79998779296875</ele>
        <time>2014-05-21T09:01:22Z</time>
      </trkpt>
      <trkpt lat="44.023815477266908" lon="5.749771082773805">
        <ele>602.5999755859375</ele>
        <time>2014-05-21T09:01:26Z</time>
      </trkpt>
      <trkpt lat="44.023533845320344" lon="5.749657843261957">
        <ele>601.79998779296875</ele>
        <time>2014-05-21T09:01:29Z</time>
      </trkpt>
      <trkpt lat="44.023438794538379" lon="5.749631021171808">
        <ele>601.5999755859375</ele>
        <time>2014-05-21T09:01:30Z</time>
      </trkpt>
      <trkpt lat="44.023155402392149" lon="5.749545944854617">
        <ele>600.5999755859375</ele>
        <time>2014-05-21T09:01:33Z</time>
      </trkpt>
      <trkpt lat="44.023066721856594" lon="5.749505627900362">
        <ele>600.4000244140625</ele>
        <time>2014-05-21T09:01:34Z</time>
      </trkpt>
      <trkpt lat="44.022668162360787" lon="5.749239753931761">
        <ele>601.5999755859375</ele>
        <time>2014-05-21T09:01:39Z</time>
      </trkpt>
      <trkpt lat="44.022591887041926" lon="5.749188540503383">
        <ele>601.79998779296875</ele>
        <time>2014-05-21T09:01:40Z</time>
      </trkpt>
      <trkpt lat="44.022049913182855" lon="5.74878478422761">
        <ele>601</ele>
        <time>2014-05-21T09:01:47Z</time>
      </trkpt>
      <trkpt lat="44.021971207112074" lon="5.748724518343806">
        <ele>600.5999755859375</ele>
        <time>2014-05-21T09:01:48Z</time>
      </trkpt>
      <trkpt lat="44.021491091698408" lon="5.748358815908432">
        <ele>600.4000244140625</ele>
        <time>2014-05-21T09:01:54Z</time>
      </trkpt>
      <trkpt lat="44.021330242976546" lon="5.748218419030309">
        <ele>599.4000244140625</ele>
        <time>2014-05-21T09:01:56Z</time>
      </trkpt>
      <trkpt lat="44.021102674305439" lon="5.747963609173894">
        <ele>598.20001220703125</ele>
        <time>2014-05-21T09:01:59Z</time>
      </trkpt>
      <trkpt lat="44.020963031798601" lon="5.747773591428995">
        <ele>597.5999755859375</ele>
        <time>2014-05-21T09:02:01Z</time>
      </trkpt>
      <trkpt lat="44.020765889436007" lon="5.74747527949512">
        <ele>597</ele>
        <time>2014-05-21T09:02:04Z</time>
      </trkpt>
      <trkpt lat="44.020514348521829" lon="5.74707655236125">
        <ele>596</ele>
        <time>2014-05-21T09:02:08Z</time>
      </trkpt>
      <trkpt lat="44.02045140042901" lon="5.746984351426363">
        <ele>596</ele>
        <time>2014-05-21T09:02:09Z</time>
      </trkpt>
      <trkpt lat="44.020138336345553" lon="5.746556455269456">
        <ele>597</ele>
        <time>2014-05-21T09:02:14Z</time>
      </trkpt>
      <trkpt lat="44.020089302212" lon="5.74646383523941">
        <ele>596.79998779296875</ele>
        <time>2014-05-21T09:02:15Z</time>
      </trkpt>
      <trkpt lat="44.019945133477449" lon="5.746165774762631">
        <ele>596.4000244140625</ele>
        <time>2014-05-21T09:02:18Z</time>
      </trkpt>
      <trkpt lat="44.019719995558262" lon="5.745656238868833">
        <ele>594.79998779296875</ele>
        <time>2014-05-21T09:02:23Z</time>
      </trkpt>
      <trkpt lat="44.019539365544915" lon="5.745232198387384">
        <ele>594</ele>
        <time>2014-05-21T09:02:27Z</time>
      </trkpt>
      <trkpt lat="44.019492929801345" lon="5.745126334950328">
        <ele>593.5999755859375</ele>
        <time>2014-05-21T09:02:28Z</time>
      </trkpt>
      <trkpt lat="44.019308779388666" lon="5.744694164022803">
        <ele>592.4000244140625</ele>
        <time>2014-05-21T09:02:32Z</time>
      </trkpt>
      <trkpt lat="44.019213980063796" lon="5.744477994740009">
        <ele>592.20001220703125</ele>
        <time>2014-05-21T09:02:34Z</time>
      </trkpt>
      <trkpt lat="44.019131753593683" lon="5.7442557066679">
        <ele>591.79998779296875</ele>
        <time>2014-05-21T09:02:36Z</time>
      </trkpt>
      <trkpt lat="44.019126389175653" lon="5.74400257319212">
        <ele>591.4000244140625</ele>
        <time>2014-05-21T09:02:38Z</time>
      </trkpt>
      <trkpt lat="44.019163521006703" lon="5.743887573480606">
        <ele>591.20001220703125</ele>
        <time>2014-05-21T09:02:39Z</time>
      </trkpt>
      <trkpt lat="44.019228648394346" lon="5.743807274848223">
        <ele>591.20001220703125</ele>
        <time>2014-05-21T09:02:40Z</time>
      </trkpt>
      <trkpt lat="44.0194555465132" lon="5.743639804422855">
        <ele>590.79998779296875</ele>
        <time>2014-05-21T09:02:43Z</time>
      </trkpt>
      <trkpt lat="44.019669871777296" lon="5.743448780849576">
        <ele>590.4000244140625</ele>
        <time>2014-05-21T09:02:46Z</time>
      </trkpt>
      <trkpt lat="44.019731311127543" lon="5.743368566036224">
        <ele>590</ele>
        <time>2014-05-21T09:02:47Z</time>
      </trkpt>
      <trkpt lat="44.01979073882103" lon="5.743284998461604">
        <ele>589.5999755859375</ele>
        <time>2014-05-21T09:02:48Z</time>
      </trkpt>
      <trkpt lat="44.019936416298151" lon="5.742996744811535">
        <ele>588.5999755859375</ele>
        <time>2014-05-21T09:02:51Z</time>
      </trkpt>
      <trkpt lat="44.01997547596693" lon="5.74289440177381">
        <ele>588.20001220703125</ele>
        <time>2014-05-21T09:02:52Z</time>
      </trkpt>
      <trkpt lat="44.020211258903146" lon="5.742140030488372">
        <ele>587.4000244140625</ele>
        <time>2014-05-21T09:02:59Z</time>
      </trkpt>
      <trkpt lat="44.020372610539198" lon="5.741559583693743">
        <ele>586.5999755859375</ele>
        <time>2014-05-21T09:03:04Z</time>
      </trkpt>
      <trkpt lat="44.020503954961896" lon="5.741378786042333">
        <ele>586.4000244140625</ele>
        <time>2014-05-21T09:03:06Z</time>
      </trkpt>
      <trkpt lat="44.020583666861057" lon="5.741306785494089">
        <ele>585.79998779296875</ele>
        <time>2014-05-21T09:03:07Z</time>
      </trkpt>
      <trkpt lat="44.020762452855706" lon="5.741009814664722">
        <ele>585.20001220703125</ele>
        <time>2014-05-21T09:03:10Z</time>
      </trkpt>
      <trkpt lat="44.020810732617974" lon="5.740892719477415">
        <ele>584.4000244140625</ele>
        <time>2014-05-21T09:03:11Z</time>
      </trkpt>
      <trkpt lat="44.020862616598606" lon="5.740771433338523">
        <ele>583.5999755859375</ele>
        <time>2014-05-21T09:03:12Z</time>
      </trkpt>
      <trkpt lat="44.020997229963541" lon="5.740549564361572">
        <ele>583.20001220703125</ele>
        <time>2014-05-21T09:03:14Z</time>
      </trkpt>
      <trkpt lat="44.021153384819627" lon="5.740356612950563">
        <ele>582.4000244140625</ele>
        <time>2014-05-21T09:03:16Z</time>
      </trkpt>
      <trkpt lat="44.021357987076044" lon="5.740066515281797">
        <ele>581.79998779296875</ele>
        <time>2014-05-21T09:03:19Z</time>
      </trkpt>
      <trkpt lat="44.021556051447988" lon="5.73963426053524">
        <ele>583</ele>
        <time>2014-05-21T09:03:23Z</time>
      </trkpt>
      <trkpt lat="44.021629560738802" lon="5.739412223920226">
        <ele>583.4000244140625</ele>
        <time>2014-05-21T09:03:25Z</time>
      </trkpt>
      <trkpt lat="44.021705919876695" lon="5.739084910601378">
        <ele>583.79998779296875</ele>
        <time>2014-05-21T09:03:28Z</time>
      </trkpt>
      <trkpt lat="44.021724862977862" lon="5.738871591165662">
        <ele>584.20001220703125</ele>
        <time>2014-05-21T09:03:30Z</time>
      </trkpt>
      <trkpt lat="44.021728886291385" lon="5.738769499585033">
        <ele>584.5999755859375</ele>
        <time>2014-05-21T09:03:31Z</time>
      </trkpt>
      <trkpt lat="44.021731652319431" lon="5.738571519032121">
        <ele>585.20001220703125</ele>
        <time>2014-05-21T09:03:33Z</time>
      </trkpt>
      <trkpt lat="44.021721929311752" lon="5.738385273143649">
        <ele>585.4000244140625</ele>
        <time>2014-05-21T09:03:35Z</time>
      </trkpt>
      <trkpt lat="44.021682366728783" lon="5.738123841583729">
        <ele>585.5999755859375</ele>
        <time>2014-05-21T09:03:38Z</time>
      </trkpt>
      <trkpt lat="44.021667446941137" lon="5.738041279837489">
        <ele>585.5999755859375</ele>
        <time>2014-05-21T09:03:39Z</time>
      </trkpt>
      <trkpt lat="44.021608941257" lon="5.737804071977735">
        <ele>586.79998779296875</ele>
        <time>2014-05-21T09:03:42Z</time>
      </trkpt>
      <trkpt lat="44.021534007042646" lon="5.737577928230166">
        <ele>587</ele>
        <time>2014-05-21T09:03:45Z</time>
      </trkpt>
      <trkpt lat="44.02135631069541" lon="5.737085323780775">
        <ele>587.79998779296875</ele>
        <time>2014-05-21T09:03:52Z</time>
      </trkpt>
      <trkpt lat="44.021291770040989" lon="5.736838979646564">
        <ele>587.5999755859375</ele>
        <time>2014-05-21T09:03:55Z</time>
      </trkpt>
      <trkpt lat="44.021229157224298" lon="5.736486185342073">
        <ele>588.5999755859375</ele>
        <time>2014-05-21T09:03:59Z</time>
      </trkpt>
      <trkpt lat="44.021195797249675" lon="5.736401863396168">
        <ele>588.4000244140625</ele>
        <time>2014-05-21T09:04:00Z</time>
      </trkpt>
      <trkpt lat="44.021074343472719" lon="5.736156776547432">
        <ele>587.79998779296875</ele>
        <time>2014-05-21T09:04:03Z</time>
      </trkpt>
      <trkpt lat="44.020985830575228" lon="5.736007578670979">
        <ele>588</ele>
        <time>2014-05-21T09:04:05Z</time>
      </trkpt>
      <trkpt lat="44.02088139206171" lon="5.735794678330421">
        <ele>589</ele>
        <time>2014-05-21T09:04:08Z</time>
      </trkpt>
      <trkpt lat="44.020827999338508" lon="5.735672973096371">
        <ele>589.5999755859375</ele>
        <time>2014-05-21T09:04:10Z</time>
      </trkpt>
      <trkpt lat="44.020782485604286" lon="5.735555794090033">
        <ele>590.4000244140625</ele>
        <time>2014-05-21T09:04:12Z</time>
      </trkpt>
      <trkpt lat="44.020720543339849" lon="5.735391676425934">
        <ele>591.4000244140625</ele>
        <time>2014-05-21T09:04:15Z</time>
      </trkpt>
      <trkpt lat="44.020657846704125" lon="5.735232336446643">
        <ele>592.20001220703125</ele>
        <time>2014-05-21T09:04:18Z</time>
      </trkpt>
      <trkpt lat="44.020616021007299" lon="5.73512957431376">
        <ele>592.79998779296875</ele>
        <time>2014-05-21T09:04:20Z</time>
      </trkpt>
      <trkpt lat="44.020519377663732" lon="5.734945172443986">
        <ele>593.79998779296875</ele>
        <time>2014-05-21T09:04:24Z</time>
      </trkpt>
      <trkpt lat="44.020491130650043" lon="5.734903598204255">
        <ele>594</ele>
        <time>2014-05-21T09:04:25Z</time>
      </trkpt>
      <trkpt lat="44.020365737378597" lon="5.734718777239323">
        <ele>595</ele>
        <time>2014-05-21T09:04:30Z</time>
      </trkpt>
      <trkpt lat="44.020342184230685" lon="5.734686842188239">
        <ele>595.20001220703125</ele>
        <time>2014-05-21T09:04:31Z</time>
      </trkpt>
      <trkpt lat="44.020179156213999" lon="5.734503529965878">
        <ele>595.79998779296875</ele>
        <time>2014-05-21T09:04:37Z</time>
      </trkpt>
      <trkpt lat="44.020086536183953" lon="5.734410071745515">
        <ele>596</ele>
        <time>2014-05-21T09:04:40Z</time>
      </trkpt>
      <trkpt lat="44.019963908940554" lon="5.734281996265054">
        <ele>596.5999755859375</ele>
        <time>2014-05-21T09:04:44Z</time>
      </trkpt>
      <trkpt lat="44.019864667207003" lon="5.734181078150868">
        <ele>597</ele>
        <time>2014-05-21T09:04:47Z</time>
      </trkpt>
      <trkpt lat="44.019656544551253" lon="5.733983432874084">
        <ele>597.20001220703125</ele>
        <time>2014-05-21T09:04:53Z</time>
      </trkpt>
      <trkpt lat="44.019545651972294" lon="5.733878659084439">
        <ele>597.4000244140625</ele>
        <time>2014-05-21T09:04:56Z</time>
      </trkpt>
      <trkpt lat="44.019440794363618" lon="5.733759887516499">
        <ele>598.20001220703125</ele>
        <time>2014-05-21T09:04:59Z</time>
      </trkpt>
      <trkpt lat="44.019234348088503" lon="5.733528546988964">
        <ele>598.79998779296875</ele>
        <time>2014-05-21T09:05:06Z</time>
      </trkpt>
      <trkpt lat="44.019176010042429" lon="5.73346191085875">
        <ele>599.4000244140625</ele>
        <time>2014-05-21T09:05:08Z</time>
      </trkpt>
      <trkpt lat="44.019049862399697" lon="5.733275748789311">
        <ele>600.20001220703125</ele>
        <time>2014-05-21T09:05:13Z</time>
      </trkpt>
      <trkpt lat="44.019030751660466" lon="5.733238700777292">
        <ele>600.4000244140625</ele>
        <time>2014-05-21T09:05:14Z</time>
      </trkpt>
      <trkpt lat="44.018922541290522" lon="5.732976933941245">
        <ele>601.4000244140625</ele>
        <time>2014-05-21T09:05:21Z</time>
      </trkpt>
      <trkpt lat="44.018896222114563" lon="5.732790688052774">
        <ele>602</ele>
        <time>2014-05-21T09:05:26Z</time>
      </trkpt>
      <trkpt lat="44.018888007849455" lon="5.732720950618386">
        <ele>602.4000244140625</ele>
        <time>2014-05-21T09:05:28Z</time>
      </trkpt>
      <trkpt lat="44.018884571269155" lon="5.73268692009151">
        <ele>602.5999755859375</ele>
        <time>2014-05-21T09:05:29Z</time>
      </trkpt>
      <trkpt lat="44.018881721422076" lon="5.732457507401705">
        <ele>603.4000244140625</ele>
        <time>2014-05-21T09:05:35Z</time>
      </trkpt>
      <trkpt lat="44.018878536298871" lon="5.732417860999703">
        <ele>603.79998779296875</ele>
        <time>2014-05-21T09:05:36Z</time>
      </trkpt>
      <trkpt lat="44.018874010071158" lon="5.73219045996666">
        <ele>604.79998779296875</ele>
        <time>2014-05-21T09:05:42Z</time>
      </trkpt>
      <trkpt lat="44.018875686451793" lon="5.732151651754975">
        <ele>605</ele>
        <time>2014-05-21T09:05:43Z</time>
      </trkpt>
      <trkpt lat="44.018873507156968" lon="5.731872031465173">
        <ele>605.79998779296875</ele>
        <time>2014-05-21T09:05:50Z</time>
      </trkpt>
      <trkpt lat="44.018875937908888" lon="5.73183280415833">
        <ele>606</ele>
        <time>2014-05-21T09:05:51Z</time>
      </trkpt>
      <trkpt lat="44.018890187144279" lon="5.731623927131295">
        <ele>607</ele>
        <time>2014-05-21T09:05:56Z</time>
      </trkpt>
      <trkpt lat="44.018895383924246" lon="5.731582017615438">
        <ele>607.20001220703125</ele>
        <time>2014-05-21T09:05:57Z</time>
      </trkpt>
      <trkpt lat="44.018921116366982" lon="5.731342881917954">
        <ele>608.20001220703125</ele>
        <time>2014-05-21T09:06:03Z</time>
      </trkpt>
      <trkpt lat="44.018933940678835" lon="5.731139872223139">
        <ele>609.4000244140625</ele>
        <time>2014-05-21T09:06:08Z</time>
      </trkpt>
      <trkpt lat="44.018945591524243" lon="5.731021435931325">
        <ele>609.5999755859375</ele>
        <time>2014-05-21T09:06:11Z</time>
      </trkpt>
      <trkpt lat="44.018959254026413" lon="5.730904508382082">
        <ele>610.4000244140625</ele>
        <time>2014-05-21T09:06:14Z</time>
      </trkpt>
      <trkpt lat="44.018981214612722" lon="5.73067719116807">
        <ele>610.79998779296875</ele>
        <time>2014-05-21T09:06:19Z</time>
      </trkpt>
      <trkpt lat="44.018978616222739" lon="5.730319870635867">
        <ele>611</ele>
        <time>2014-05-21T09:06:26Z</time>
      </trkpt>
      <trkpt lat="44.018902257084846" lon="5.729991300031543">
        <ele>611.5999755859375</ele>
        <time>2014-05-21T09:06:32Z</time>
      </trkpt>
      <trkpt lat="44.018789939582348" lon="5.729620233178139">
        <ele>612.5999755859375</ele>
        <time>2014-05-21T09:06:39Z</time>
      </trkpt>
      <trkpt lat="44.018778707832098" lon="5.729563906788826">
        <ele>612.79998779296875</ele>
        <time>2014-05-21T09:06:40Z</time>
      </trkpt>
      <trkpt lat="44.018724644556642" lon="5.729406410828233">
        <ele>613</ele>
        <time>2014-05-21T09:06:43Z</time>
      </trkpt>
      <trkpt lat="44.018672592937946" lon="5.729245143011212">
        <ele>613.4000244140625</ele>
        <time>2014-05-21T09:06:46Z</time>
      </trkpt>
      <trkpt lat="44.01866102591157" lon="5.729191079735756">
        <ele>613.5999755859375</ele>
        <time>2014-05-21T09:06:47Z</time>
      </trkpt>
      <trkpt lat="44.018611907958984" lon="5.729031739756465">
        <ele>613.5999755859375</ele>
        <time>2014-05-21T09:06:50Z</time>
      </trkpt>
      <trkpt lat="44.018585756421089" lon="5.728921182453632">
        <ele>614.20001220703125</ele>
        <time>2014-05-21T09:06:52Z</time>
      </trkpt>
      <trkpt lat="44.018540075048804" lon="5.728650195524097">
        <ele>614.20001220703125</ele>
        <time>2014-05-21T09:06:57Z</time>
      </trkpt>
      <trkpt lat="44.018529513850808" lon="5.728377113118768">
        <ele>614.5999755859375</ele>
        <time>2014-05-21T09:07:02Z</time>
      </trkpt>
      <trkpt lat="44.018531022593379" lon="5.728323049843311">
        <ele>614.79998779296875</ele>
        <time>2014-05-21T09:07:03Z</time>
      </trkpt>
      <trkpt lat="44.018531776964664" lon="5.72821450419724">
        <ele>615.20001220703125</ele>
        <time>2014-05-21T09:07:05Z</time>
      </trkpt>
      <trkpt lat="44.018570585176349" lon="5.728000681847334">
        <ele>615.79998779296875</ele>
        <time>2014-05-21T09:07:09Z</time>
      </trkpt>
      <trkpt lat="44.018593886867166" lon="5.727887526154518">
        <ele>616</ele>
        <time>2014-05-21T09:07:11Z</time>
      </trkpt>
      <trkpt lat="44.018643423914909" lon="5.72772684507072">
        <ele>616</ele>
        <time>2014-05-21T09:07:14Z</time>
      </trkpt>
      <trkpt lat="44.01870109140873" lon="5.727576138451695">
        <ele>616.5999755859375</ele>
        <time>2014-05-21T09:07:17Z</time>
      </trkpt>
      <trkpt lat="44.018723051995039" lon="5.727531379088759">
        <ele>616.79998779296875</ele>
        <time>2014-05-21T09:07:18Z</time>
      </trkpt>
      <trkpt lat="44.018866633996367" lon="5.727199539542198">
        <ele>617.79998779296875</ele>
        <time>2014-05-21T09:07:25Z</time>
      </trkpt>
      <trkpt lat="44.018882056698203" lon="5.727145224809647">
        <ele>617.79998779296875</ele>
        <time>2014-05-21T09:07:26Z</time>
      </trkpt>
      <trkpt lat="44.018896808847785" lon="5.727085629478097">
        <ele>618</ele>
        <time>2014-05-21T09:07:27Z</time>
      </trkpt>
      <trkpt lat="44.018977778032422" lon="5.726790251210332">
        <ele>618.5999755859375</ele>
        <time>2014-05-21T09:07:32Z</time>
      </trkpt>
      <trkpt lat="44.019048772752285" lon="5.726466458290815">
        <ele>619</ele>
        <time>2014-05-21T09:07:37Z</time>
      </trkpt>
      <trkpt lat="44.019096465781331" lon="5.726256491616368">
        <ele>619.20001220703125</ele>
        <time>2014-05-21T09:07:40Z</time>
      </trkpt>
      <trkpt lat="44.019270557910204" lon="5.725589962676168">
        <ele>619.79998779296875</ele>
        <time>2014-05-21T09:07:49Z</time>
      </trkpt>
      <trkpt lat="44.01929528452456" lon="5.725514944642782">
        <ele>620.20001220703125</ele>
        <time>2014-05-21T09:07:50Z</time>
      </trkpt>
      <trkpt lat="44.019488906487823" lon="5.725112780928612">
        <ele>621.20001220703125</ele>
        <time>2014-05-21T09:07:56Z</time>
      </trkpt>
      <trkpt lat="44.019724437966943" lon="5.724678933620453">
        <ele>622.20001220703125</ele>
        <time>2014-05-21T09:08:03Z</time>
      </trkpt>
      <trkpt lat="44.019762240350246" lon="5.724623193964362">
        <ele>622.4000244140625</ele>
        <time>2014-05-21T09:08:04Z</time>
      </trkpt>
      <trkpt lat="44.019949827343225" lon="5.724372658878565">
        <ele>623.5999755859375</ele>
        <time>2014-05-21T09:08:09Z</time>
      </trkpt>
      <trkpt lat="44.019982684403658" lon="5.72432454675436">
        <ele>623.79998779296875</ele>
        <time>2014-05-21T09:08:10Z</time>
      </trkpt>
      <trkpt lat="44.020150657743216" lon="5.724096391350031">
        <ele>624.5999755859375</ele>
        <time>2014-05-21T09:08:15Z</time>
      </trkpt>
      <trkpt lat="44.020206313580275" lon="5.724009554833174">
        <ele>625.20001220703125</ele>
        <time>2014-05-21T09:08:17Z</time>
      </trkpt>
      <trkpt lat="44.020249396562576" lon="5.723918946459889">
        <ele>625.79998779296875</ele>
        <time>2014-05-21T09:08:19Z</time>
      </trkpt>
      <trkpt lat="44.020325252786279" lon="5.723756002262235">
        <ele>626.5999755859375</ele>
        <time>2014-05-21T09:08:23Z</time>
      </trkpt>
      <trkpt lat="44.020341094583273" lon="5.723714428022504">
        <ele>626.79998779296875</ele>
        <time>2014-05-21T09:08:24Z</time>
      </trkpt>
      <trkpt lat="44.020445700734854" lon="5.723453499376774">
        <ele>627.5999755859375</ele>
        <time>2014-05-21T09:08:30Z</time>
      </trkpt>
      <trkpt lat="44.020459363237023" lon="5.723405722528696">
        <ele>627.79998779296875</ele>
        <time>2014-05-21T09:08:31Z</time>
      </trkpt>
      <trkpt lat="44.020570339635015" lon="5.723137250170112">
        <ele>628.5999755859375</ele>
        <time>2014-05-21T09:08:37Z</time>
      </trkpt>
      <trkpt lat="44.020698582753539" lon="5.722808595746756">
        <ele>628.79998779296875</ele>
        <time>2014-05-21T09:08:43Z</time>
      </trkpt>
      <trkpt lat="44.020919697359204" lon="5.7223607506603">
        <ele>628</ele>
        <time>2014-05-21T09:08:50Z</time>
      </trkpt>
      <trkpt lat="44.021119186654687" lon="5.721823135390878">
        <ele>627.4000244140625</ele>
        <time>2014-05-21T09:08:57Z</time>
      </trkpt>
      <trkpt lat="44.021138548851013" lon="5.721459025517106">
        <ele>626.79998779296875</ele>
        <time>2014-05-21T09:09:01Z</time>
      </trkpt>
      <trkpt lat="44.021133100613952" lon="5.721366824582219">
        <ele>627</ele>
        <time>2014-05-21T09:09:02Z</time>
      </trkpt>
      <trkpt lat="44.021123377606273" lon="5.721097178757191">
        <ele>626.79998779296875</ele>
        <time>2014-05-21T09:09:05Z</time>
      </trkpt>
      <trkpt lat="44.021071325987577" lon="5.720665426924825">
        <ele>626.5999755859375</ele>
        <time>2014-05-21T09:09:10Z</time>
      </trkpt>
      <trkpt lat="44.02101868763566" lon="5.720055392012">
        <ele>628</ele>
        <time>2014-05-21T09:09:18Z</time>
      </trkpt>
      <trkpt lat="44.021007623523474" lon="5.719367740675807">
        <ele>628.79998779296875</ele>
        <time>2014-05-21T09:09:28Z</time>
      </trkpt>
      <trkpt lat="44.021005779504776" lon="5.719292387366295">
        <ele>628.79998779296875</ele>
        <time>2014-05-21T09:09:29Z</time>
      </trkpt>
      <trkpt lat="44.021000331267715" lon="5.718920817598701">
        <ele>628.4000244140625</ele>
        <time>2014-05-21T09:09:34Z</time>
      </trkpt>
      <trkpt lat="44.021002678200603" lon="5.718380436301231">
        <ele>628.4000244140625</ele>
        <time>2014-05-21T09:09:41Z</time>
      </trkpt>
      <trkpt lat="44.021007623523474" lon="5.717930998653173">
        <ele>629</ele>
        <time>2014-05-21T09:09:47Z</time>
      </trkpt>
      <trkpt lat="44.021013993769884" lon="5.71778716519475">
        <ele>629</ele>
        <time>2014-05-21T09:09:49Z</time>
      </trkpt>
      <trkpt lat="44.021019022911787" lon="5.717244436964393">
        <ele>629.79998779296875</ele>
        <time>2014-05-21T09:09:57Z</time>
      </trkpt>
      <trkpt lat="44.021023968234658" lon="5.717121474444866">
        <ele>630</ele>
        <time>2014-05-21T09:09:59Z</time>
      </trkpt>
      <trkpt lat="44.021036708727479" lon="5.716739594936371">
        <ele>630.5999755859375</ele>
        <time>2014-05-21T09:10:05Z</time>
      </trkpt>
      <trkpt lat="44.021028745919466" lon="5.716613782569766">
        <ele>630.5999755859375</ele>
        <time>2014-05-21T09:10:07Z</time>
      </trkpt>
      <trkpt lat="44.021041318774223" lon="5.716424267739058">
        <ele>630.79998779296875</ele>
        <time>2014-05-21T09:10:10Z</time>
      </trkpt>
      <trkpt lat="44.02104701846838" lon="5.716359978541732">
        <ele>630.79998779296875</ele>
        <time>2014-05-21T09:10:11Z</time>
      </trkpt>
      <trkpt lat="44.02104701846838" lon="5.716295437887311">
        <ele>631</ele>
        <time>2014-05-21T09:10:12Z</time>
      </trkpt>
      <trkpt lat="44.021060345694423" lon="5.715979356318712">
        <ele>631.4000244140625</ele>
        <time>2014-05-21T09:10:17Z</time>
      </trkpt>
      <trkpt lat="44.021063530817628" lon="5.715664448216558">
        <ele>632</ele>
        <time>2014-05-21T09:10:23Z</time>
      </trkpt>
      <trkpt lat="44.021068811416626" lon="5.715613486245275">
        <ele>632.20001220703125</ele>
        <time>2014-05-21T09:10:24Z</time>
      </trkpt>
      <trkpt lat="44.021077612414956" lon="5.715276952832937">
        <ele>631.4000244140625</ele>
        <time>2014-05-21T09:10:30Z</time>
      </trkpt>
      <trkpt lat="44.021089011803269" lon="5.715014263987541">
        <ele>631</ele>
        <time>2014-05-21T09:10:34Z</time>
      </trkpt>
      <trkpt lat="44.021099908277392" lon="5.714876046404243">
        <ele>630.79998779296875</ele>
        <time>2014-05-21T09:10:36Z</time>
      </trkpt>
      <trkpt lat="44.021105524152517" lon="5.714804632589221">
        <ele>630.5999755859375</ele>
        <time>2014-05-21T09:10:37Z</time>
      </trkpt>
      <trkpt lat="44.021153301000595" lon="5.714320074766874">
        <ele>630.4000244140625</ele>
        <time>2014-05-21T09:10:44Z</time>
      </trkpt>
      <trkpt lat="44.021170986816287" lon="5.71418889798224">
        <ele>630.4000244140625</ele>
        <time>2014-05-21T09:10:46Z</time>
      </trkpt>
      <trkpt lat="44.021232007071376" lon="5.7140061724931">
        <ele>630.5999755859375</ele>
        <time>2014-05-21T09:10:49Z</time>
      </trkpt>
      <trkpt lat="44.021334601566195" lon="5.713812466710806">
        <ele>630.79998779296875</ele>
        <time>2014-05-21T09:10:53Z</time>
      </trkpt>
      <trkpt lat="44.021360669285059" lon="5.713772233575583">
        <ele>630.79998779296875</ele>
        <time>2014-05-21T09:10:54Z</time>
      </trkpt>
      <trkpt lat="44.021562589332461" lon="5.713429162278771">
        <ele>630.79998779296875</ele>
        <time>2014-05-21T09:11:02Z</time>
      </trkpt>
      <trkpt lat="44.021622519940138" lon="5.713338134810329">
        <ele>630.79998779296875</ele>
        <time>2014-05-21T09:11:04Z</time>
      </trkpt>
      <trkpt lat="44.02172670699656" lon="5.713125821202993">
        <ele>630.4000244140625</ele>
        <time>2014-05-21T09:11:08Z</time>
      </trkpt>
      <trkpt lat="44.021765263751149" lon="5.713004199787974">
        <ele>630.20001220703125</ele>
        <time>2014-05-21T09:11:10Z</time>
      </trkpt>
      <trkpt lat="44.021796947345138" lon="5.712809069082141">
        <ele>630.5999755859375</ele>
        <time>2014-05-21T09:11:13Z</time>
      </trkpt>
      <trkpt lat="44.021733244881034" lon="5.712594073265791">
        <ele>630.5999755859375</ele>
        <time>2014-05-21T09:11:17Z</time>
      </trkpt>
      <trkpt lat="44.021675325930119" lon="5.712510589510202">
        <ele>630.79998779296875</ele>
        <time>2014-05-21T09:11:19Z</time>
      </trkpt>
      <trkpt lat="44.021610617637634" lon="5.712433308362961">
        <ele>630.4000244140625</ele>
        <time>2014-05-21T09:11:21Z</time>
      </trkpt>
      <trkpt lat="44.021562924608588" lon="5.712345717474818">
        <ele>630.20001220703125</ele>
        <time>2014-05-21T09:11:23Z</time>
      </trkpt>
      <trkpt lat="44.021604498848319" lon="5.712194424122572">
        <ele>630.79998779296875</ele>
        <time>2014-05-21T09:11:26Z</time>
      </trkpt>
      <trkpt lat="44.021727964282036" lon="5.711888652294874">
        <ele>630.4000244140625</ele>
        <time>2014-05-21T09:11:32Z</time>
      </trkpt>
      <trkpt lat="44.021712457761168" lon="5.711711039766669">
        <ele>630.4000244140625</ele>
        <time>2014-05-21T09:11:35Z</time>
      </trkpt>
      <trkpt lat="44.021626794710755" lon="5.711493277922273">
        <ele>630.5999755859375</ele>
        <time>2014-05-21T09:11:39Z</time>
      </trkpt>
      <trkpt lat="44.021431244909763" lon="5.711079714819789">
        <ele>630.5999755859375</ele>
        <time>2014-05-21T09:11:47Z</time>
      </trkpt>
      <trkpt lat="44.021256817504764" lon="5.710809146985412">
        <ele>630.20001220703125</ele>
        <time>2014-05-21T09:11:53Z</time>
      </trkpt>
      <trkpt lat="44.021220020949841" lon="5.71077779866755">
        <ele>629.79998779296875</ele>
        <time>2014-05-21T09:11:54Z</time>
      </trkpt>
      <trkpt lat="44.021107703447342" lon="5.71069666184485">
        <ele>631.20001220703125</ele>
        <time>2014-05-21T09:11:57Z</time>
      </trkpt>
      <trkpt lat="44.021041402593255" lon="5.710624493658543">
        <ele>631.79998779296875</ele>
        <time>2014-05-21T09:11:59Z</time>
      </trkpt>
      <trkpt lat="44.020984573289752" lon="5.710531789809465">
        <ele>632.20001220703125</ele>
        <time>2014-05-21T09:12:01Z</time>
      </trkpt>
      <trkpt lat="44.020958170294762" lon="5.710484934970737">
        <ele>632.20001220703125</ele>
        <time>2014-05-21T09:12:02Z</time>
      </trkpt>
      <trkpt lat="44.020938305184245" lon="5.710434811189771">
        <ele>632.20001220703125</ele>
        <time>2014-05-21T09:12:03Z</time>
      </trkpt>
      <trkpt lat="44.020878374576569" lon="5.710237920284271">
        <ele>632.79998779296875</ele>
        <time>2014-05-21T09:12:07Z</time>
      </trkpt>
      <trkpt lat="44.020824898034334" lon="5.709862243384123">
        <ele>633.20001220703125</ele>
        <time>2014-05-21T09:12:14Z</time>
      </trkpt>
      <trkpt lat="44.020820036530495" lon="5.709809605032206">
        <ele>633.20001220703125</ele>
        <time>2014-05-21T09:12:15Z</time>
      </trkpt>
      <trkpt lat="44.02079246006906" lon="5.709519255906344">
        <ele>634</ele>
        <time>2014-05-21T09:12:20Z</time>
      </trkpt>
      <trkpt lat="44.020779551938176" lon="5.709401573985815">
        <ele>634</ele>
        <time>2014-05-21T09:12:22Z</time>
      </trkpt>
      <trkpt lat="44.020752813667059" lon="5.709107369184494">
        <ele>634</ele>
        <time>2014-05-21T09:12:27Z</time>
      </trkpt>
      <trkpt lat="44.02074065990746" lon="5.708987340331078">
        <ele>634.4000244140625</ele>
        <time>2014-05-21T09:12:29Z</time>
      </trkpt>
      <trkpt lat="44.020716352388263" lon="5.708781229332089">
        <ele>634</ele>
        <time>2014-05-21T09:12:32Z</time>
      </trkpt>
      <trkpt lat="44.020687351003289" lon="5.708646364510059">
        <ele>633.79998779296875</ele>
        <time>2014-05-21T09:12:34Z</time>
      </trkpt>
      <trkpt lat="44.020618116483092" lon="5.708455089479685">
        <ele>633.20001220703125</ele>
        <time>2014-05-21T09:12:37Z</time>
      </trkpt>
      <trkpt lat="44.020552402362227" lon="5.708338664844632">
        <ele>633</ele>
        <time>2014-05-21T09:12:39Z</time>
      </trkpt>
      <trkpt lat="44.020332293584943" lon="5.708007160574198">
        <ele>633.5999755859375</ele>
        <time>2014-05-21T09:12:45Z</time>
      </trkpt>
      <trkpt lat="44.020090978592634" lon="5.707662077620626">
        <ele>633.79998779296875</ele>
        <time>2014-05-21T09:12:51Z</time>
      </trkpt>
      <trkpt lat="44.019756792113185" lon="5.707212807610631">
        <ele>633.79998779296875</ele>
        <time>2014-05-21T09:12:59Z</time>
      </trkpt>
      <trkpt lat="44.019676158204675" lon="5.707103591412306">
        <ele>634.20001220703125</ele>
        <time>2014-05-21T09:13:01Z</time>
      </trkpt>
      <trkpt lat="44.019475160166621" lon="5.706846518442035">
        <ele>635</ele>
        <time>2014-05-21T09:13:06Z</time>
      </trkpt>
      <trkpt lat="44.019393436610699" lon="5.706740152090788">
        <ele>635.4000244140625</ele>
        <time>2014-05-21T09:13:08Z</time>
      </trkpt>
      <trkpt lat="44.019065452739596" lon="5.706312591210008">
        <ele>635</ele>
        <time>2014-05-21T09:13:16Z</time>
      </trkpt>
      <trkpt lat="44.018756160512567" lon="5.705894753336906">
        <ele>636</ele>
        <time>2014-05-21T09:13:24Z</time>
      </trkpt>
      <trkpt lat="44.018605789169669" lon="5.705707836896181">
        <ele>636.5999755859375</ele>
        <time>2014-05-21T09:13:28Z</time>
      </trkpt>
      <trkpt lat="44.018463799729943" lon="5.705509521067143">
        <ele>637.4000244140625</ele>
        <time>2014-05-21T09:13:32Z</time>
      </trkpt>
      <trkpt lat="44.018428092822433" lon="5.705460654571652">
        <ele>637.5999755859375</ele>
        <time>2014-05-21T09:13:33Z</time>
      </trkpt>
      <trkpt lat="44.018103629350662" lon="5.705038793385029">
        <ele>638.4000244140625</ele>
        <time>2014-05-21T09:13:42Z</time>
      </trkpt>
      <trkpt lat="44.018003046512604" lon="5.704908287152648">
        <ele>638.79998779296875</ele>
        <time>2014-05-21T09:13:45Z</time>
      </trkpt>
      <trkpt lat="44.017840856686234" lon="5.704689268022776">
        <ele>639.5999755859375</ele>
        <time>2014-05-21T09:13:50Z</time>
      </trkpt>
      <trkpt lat="44.017780758440495" lon="5.704603604972363">
        <ele>640</ele>
        <time>2014-05-21T09:13:52Z</time>
      </trkpt>
      <trkpt lat="44.017594428732991" lon="5.704355333000422">
        <ele>640.5999755859375</ele>
        <time>2014-05-21T09:13:58Z</time>
      </trkpt>
      <trkpt lat="44.017532235011458" lon="5.70428148843348">
        <ele>641</ele>
        <time>2014-05-21T09:14:00Z</time>
      </trkpt>
      <trkpt lat="44.017387479543686" lon="5.704086609184742">
        <ele>641.5999755859375</ele>
        <time>2014-05-21T09:14:05Z</time>
      </trkpt>
      <trkpt lat="44.017257643863559" lon="5.703907907009125">
        <ele>642.20001220703125</ele>
        <time>2014-05-21T09:14:10Z</time>
      </trkpt>
      <trkpt lat="44.017232162877917" lon="5.703869098797441">
        <ele>642.4000244140625</ele>
        <time>2014-05-21T09:14:11Z</time>
      </trkpt>
      <trkpt lat="44.017034014686942" lon="5.703606409952045">
        <ele>642.5999755859375</ele>
        <time>2014-05-21T09:14:18Z</time>
      </trkpt>
      <trkpt lat="44.016813486814499" lon="5.703343469649553">
        <ele>641.79998779296875</ele>
        <time>2014-05-21T09:14:25Z</time>
      </trkpt>
      <trkpt lat="44.016544092446566" lon="5.703149596229196">
        <ele>642</ele>
        <time>2014-05-21T09:14:32Z</time>
      </trkpt>
      <trkpt lat="44.016312081366777" lon="5.703015485778451">
        <ele>643.20001220703125</ele>
        <time>2014-05-21T09:14:38Z</time>
      </trkpt>
      <trkpt lat="44.016205966472626" lon="5.702957650646567">
        <ele>643.4000244140625</ele>
        <time>2014-05-21T09:14:41Z</time>
      </trkpt>
      <trkpt lat="44.016081411391497" lon="5.702874418348074">
        <ele>644.4000244140625</ele>
        <time>2014-05-21T09:14:45Z</time>
      </trkpt>
      <trkpt lat="44.016018463298678" lon="5.70284147746861">
        <ele>644.79998779296875</ele>
        <time>2014-05-21T09:14:47Z</time>
      </trkpt>
      <trkpt lat="44.01590371504426" lon="5.702754808589816">
        <ele>645.4000244140625</ele>
        <time>2014-05-21T09:14:51Z</time>
      </trkpt>
      <trkpt lat="44.015839509665966" lon="5.702717509120703">
        <ele>645.79998779296875</ele>
        <time>2014-05-21T09:14:53Z</time>
      </trkpt>
      <trkpt lat="44.015689725056291" lon="5.702621033415198">
        <ele>646.79998779296875</ele>
        <time>2014-05-21T09:14:58Z</time>
      </trkpt>
      <trkpt lat="44.015658125281334" lon="5.702600665390492">
        <ele>647</ele>
        <time>2014-05-21T09:14:59Z</time>
      </trkpt>
      <trkpt lat="44.015410440042615" lon="5.702417939901352">
        <ele>647.79998779296875</ele>
        <time>2014-05-21T09:15:07Z</time>
      </trkpt>
      <trkpt lat="44.015358975157142" lon="5.702366977930069">
        <ele>648.4000244140625</ele>
        <time>2014-05-21T09:15:09Z</time>
      </trkpt>
      <trkpt lat="44.015264762565494" lon="5.702246110886335">
        <ele>649</ele>
        <time>2014-05-21T09:15:13Z</time>
      </trkpt>
      <trkpt lat="44.015190163627267" lon="5.702126249670982">
        <ele>650</ele>
        <time>2014-05-21T09:15:17Z</time>
      </trkpt>
      <trkpt lat="44.015101566910744" lon="5.701990965753794">
        <ele>651.20001220703125</ele>
        <time>2014-05-21T09:15:22Z</time>
      </trkpt>
      <trkpt lat="44.015062004327774" lon="5.70195509120822">
        <ele>651.4000244140625</ele>
        <time>2014-05-21T09:15:24Z</time>
      </trkpt>
      <trkpt lat="44.014940718188882" lon="5.701872613281012">
        <ele>652.20001220703125</ele>
        <time>2014-05-21T09:15:29Z</time>
      </trkpt>
      <trkpt lat="44.014891600236297" lon="5.701848054304719">
        <ele>652.4000244140625</ele>
        <time>2014-05-21T09:15:31Z</time>
      </trkpt>
      <trkpt lat="44.014781210571527" lon="5.701829362660646">
        <ele>653.4000244140625</ele>
        <time>2014-05-21T09:15:35Z</time>
      </trkpt>
      <trkpt lat="44.014669731259346" lon="5.70180170238018">
        <ele>653.79998779296875</ele>
        <time>2014-05-21T09:15:39Z</time>
      </trkpt>
      <trkpt lat="44.014455154538155" lon="5.701696593314409">
        <ele>654.20001220703125</ele>
        <time>2014-05-21T09:15:47Z</time>
      </trkpt>
      <trkpt lat="44.014428835362196" lon="5.701681757345796">
        <ele>654.4000244140625</ele>
        <time>2014-05-21T09:15:48Z</time>
      </trkpt>
      <trkpt lat="44.014299334958196" lon="5.701540606096387">
        <ele>655.20001220703125</ele>
        <time>2014-05-21T09:15:54Z</time>
      </trkpt>
      <trkpt lat="44.014283660799265" lon="5.701512107625604">
        <ele>655.4000244140625</ele>
        <time>2014-05-21T09:15:55Z</time>
      </trkpt>
      <trkpt lat="44.014219623059034" lon="5.701367435976863">
        <ele>656.4000244140625</ele>
        <time>2014-05-21T09:16:00Z</time>
      </trkpt>
      <trkpt lat="44.014195231720805" lon="5.701316725462675">
        <ele>656.5999755859375</ele>
        <time>2014-05-21T09:16:02Z</time>
      </trkpt>
      <trkpt lat="44.01405718177557" lon="5.701180016621947">
        <ele>657.20001220703125</ele>
        <time>2014-05-21T09:16:09Z</time>
      </trkpt>
      <trkpt lat="44.014000855386257" lon="5.701166270300746">
        <ele>657.4000244140625</ele>
        <time>2014-05-21T09:16:11Z</time>
      </trkpt>
      <trkpt lat="44.013858027756214" lon="5.701166605576873">
        <ele>658.20001220703125</ele>
        <time>2014-05-21T09:16:16Z</time>
      </trkpt>
      <trkpt lat="44.013772029429674" lon="5.701165599748492">
        <ele>658.4000244140625</ele>
        <time>2014-05-21T09:16:19Z</time>
      </trkpt>
      <trkpt lat="44.013650994747877" lon="5.70116107352078">
        <ele>659.4000244140625</ele>
        <time>2014-05-21T09:16:23Z</time>
      </trkpt>
      <trkpt lat="44.013624088838696" lon="5.701155290007591">
        <ele>659.5999755859375</ele>
        <time>2014-05-21T09:16:24Z</time>
      </trkpt>
      <trkpt lat="44.013461144641042" lon="5.701124612241983">
        <ele>660.5999755859375</ele>
        <time>2014-05-21T09:16:30Z</time>
      </trkpt>
      <trkpt lat="44.013432646170259" lon="5.701120002195239">
        <ele>660.79998779296875</ele>
        <time>2014-05-21T09:16:31Z</time>
      </trkpt>
      <trkpt lat="44.01325679384172" lon="5.701075745746493">
        <ele>661.5999755859375</ele>
        <time>2014-05-21T09:16:37Z</time>
      </trkpt>
      <trkpt lat="44.013165598735213" lon="5.701048336923122">
        <ele>661.79998779296875</ele>
        <time>2014-05-21T09:16:40Z</time>
      </trkpt>
      <trkpt lat="44.012994104996324" lon="5.700997039675713">
        <ele>663</ele>
        <time>2014-05-21T09:16:46Z</time>
      </trkpt>
      <trkpt lat="44.012964935973287" lon="5.700990250334144">
        <ele>663.20001220703125</ele>
        <time>2014-05-21T09:16:47Z</time>
      </trkpt>
      <trkpt lat="44.012881200760603" lon="5.700967954471707">
        <ele>664</ele>
        <time>2014-05-21T09:16:50Z</time>
      </trkpt>
      <trkpt lat="44.012779695913196" lon="5.700927721336484">
        <ele>664.79998779296875</ele>
        <time>2014-05-21T09:16:54Z</time>
      </trkpt>
      <trkpt lat="44.012699313461781" lon="5.7008889131248">
        <ele>665.20001220703125</ele>
        <time>2014-05-21T09:16:57Z</time>
      </trkpt>
      <trkpt lat="44.012579116970301" lon="5.700809201225638">
        <ele>665.79998779296875</ele>
        <time>2014-05-21T09:17:02Z</time>
      </trkpt>
      <trkpt lat="44.012431260198355" lon="5.700713647529483">
        <ele>666.20001220703125</ele>
        <time>2014-05-21T09:17:08Z</time>
      </trkpt>
      <trkpt lat="44.012378035113215" lon="5.700683975592256">
        <ele>666.79998779296875</ele>
        <time>2014-05-21T09:17:10Z</time>
      </trkpt>
      <trkpt lat="44.012212743982673" lon="5.700583141297102">
        <ele>667.4000244140625</ele>
        <time>2014-05-21T09:17:17Z</time>
      </trkpt>
      <trkpt lat="44.012168822810054" lon="5.700560593977571">
        <ele>667.79998779296875</ele>
        <time>2014-05-21T09:17:19Z</time>
      </trkpt>
      <trkpt lat="44.012062372639775" lon="5.700490605086088">
        <ele>668.4000244140625</ele>
        <time>2014-05-21T09:17:24Z</time>
      </trkpt>
      <trkpt lat="44.011987522244453" lon="5.700428830459714">
        <ele>669</ele>
        <time>2014-05-21T09:17:28Z</time>
      </trkpt>
      <trkpt lat="44.011880233883858" lon="5.70034216158092">
        <ele>669.79998779296875</ele>
        <time>2014-05-21T09:17:33Z</time>
      </trkpt>
      <trkpt lat="44.011840336024761" lon="5.700300419703126">
        <ele>670</ele>
        <time>2014-05-21T09:17:35Z</time>
      </trkpt>
      <trkpt lat="44.011689629405737" lon="5.700148204341531">
        <ele>671</ele>
        <time>2014-05-21T09:17:42Z</time>
      </trkpt>
      <trkpt lat="44.011668674647808" lon="5.700122807174921">
        <ele>671</ele>
        <time>2014-05-21T09:17:43Z</time>
      </trkpt>
      <trkpt lat="44.011548645794392" lon="5.699923736974597">
        <ele>672</ele>
        <time>2014-05-21T09:17:50Z</time>
      </trkpt>
      <trkpt lat="44.011460971087217" lon="5.699772695079446">
        <ele>673.20001220703125</ele>
        <time>2014-05-21T09:17:56Z</time>
      </trkpt>
      <trkpt lat="44.011456863954663" lon="5.699739083647728">
        <ele>673.5999755859375</ele>
        <time>2014-05-21T09:22:05Z</time>
      </trkpt>
      <trkpt lat="44.011513777077198" lon="5.699567589908838">
        <ele>673.20001220703125</ele>
        <time>2014-05-21T09:22:10Z</time>
      </trkpt>
      <trkpt lat="44.011545376852155" lon="5.699307583272457">
        <ele>672.79998779296875</ele>
        <time>2014-05-21T09:22:15Z</time>
      </trkpt>
      <trkpt lat="44.011580161750317" lon="5.699175819754601">
        <ele>672.4000244140625</ele>
        <time>2014-05-21T09:22:17Z</time>
      </trkpt>
      <trkpt lat="44.01161746121943" lon="5.699021928012371">
        <ele>671.79998779296875</ele>
        <time>2014-05-21T09:22:19Z</time>
      </trkpt>
      <trkpt lat="44.01169122196734" lon="5.698760328814387">
        <ele>670.4000244140625</ele>
        <time>2014-05-21T09:22:22Z</time>
      </trkpt>
      <trkpt lat="44.011756516993046" lon="5.698568886145949">
        <ele>669.4000244140625</ele>
        <time>2014-05-21T09:22:24Z</time>
      </trkpt>
      <trkpt lat="44.011791972443461" lon="5.698467716574669">
        <ele>668.79998779296875</ele>
        <time>2014-05-21T09:22:25Z</time>
      </trkpt>
      <trkpt lat="44.011826841160655" lon="5.698359422385693">
        <ele>668.20001220703125</ele>
        <time>2014-05-21T09:22:26Z</time>
      </trkpt>
      <trkpt lat="44.011859195306897" lon="5.69824249483645">
        <ele>667.79998779296875</ele>
        <time>2014-05-21T09:22:27Z</time>
      </trkpt>
      <trkpt lat="44.011889537796378" lon="5.697992630302906">
        <ele>666.5999755859375</ele>
        <time>2014-05-21T09:22:29Z</time>
      </trkpt>
      <trkpt lat="44.011860033497214" lon="5.697740167379379">
        <ele>665.4000244140625</ele>
        <time>2014-05-21T09:22:31Z</time>
      </trkpt>
      <trkpt lat="44.011828768998384" lon="5.697619467973709">
        <ele>665.20001220703125</ele>
        <time>2014-05-21T09:22:32Z</time>
      </trkpt>
      <trkpt lat="44.01179188862443" lon="5.697501115500927">
        <ele>665</ele>
        <time>2014-05-21T09:22:33Z</time>
      </trkpt>
      <trkpt lat="44.011632297188044" lon="5.696893595159054">
        <ele>664.4000244140625</ele>
        <time>2014-05-21T09:22:38Z</time>
      </trkpt>
      <trkpt lat="44.011531379073858" lon="5.69624793715775">
        <ele>663.20001220703125</ele>
        <time>2014-05-21T09:22:43Z</time>
      </trkpt>
      <trkpt lat="44.011504808440804" lon="5.696122627705336">
        <ele>663</ele>
        <time>2014-05-21T09:22:44Z</time>
      </trkpt>
      <trkpt lat="44.011387964710593" lon="5.695773018524051">
        <ele>662.5999755859375</ele>
        <time>2014-05-21T09:22:47Z</time>
      </trkpt>
      <trkpt lat="44.011338511481881" lon="5.695669921115041">
        <ele>662.5999755859375</ele>
        <time>2014-05-21T09:22:48Z</time>
      </trkpt>
      <trkpt lat="44.011232228949666" lon="5.695477556437254">
        <ele>661.79998779296875</ele>
        <time>2014-05-21T09:22:50Z</time>
      </trkpt>
      <trkpt lat="44.011079594492912" lon="5.695207072421908">
        <ele>661.5999755859375</ele>
        <time>2014-05-21T09:22:53Z</time>
      </trkpt>
      <trkpt lat="44.010729566216469" lon="5.694610951468349">
        <ele>662</ele>
        <time>2014-05-21T09:23:00Z</time>
      </trkpt>
      <trkpt lat="44.010428907349706" lon="5.69425136782229">
        <ele>660.79998779296875</ele>
        <time>2014-05-21T09:23:05Z</time>
      </trkpt>
      <trkpt lat="44.009978463873267" lon="5.693847527727485">
        <ele>659.79998779296875</ele>
        <time>2014-05-21T09:23:12Z</time>
      </trkpt>
      <trkpt lat="44.009722480550408" lon="5.693579977378249">
        <ele>658.5999755859375</ele>
        <time>2014-05-21T09:23:16Z</time>
      </trkpt>
      <trkpt lat="44.009599601849914" lon="5.693427929654717">
        <ele>657.5999755859375</ele>
        <time>2014-05-21T09:23:18Z</time>
      </trkpt>
      <trkpt lat="44.009546544402838" lon="5.693341176956892">
        <ele>657.5999755859375</ele>
        <time>2014-05-21T09:23:19Z</time>
      </trkpt>
      <trkpt lat="44.009473621845245" lon="5.693138083443046">
        <ele>657.20001220703125</ele>
        <time>2014-05-21T09:23:21Z</time>
      </trkpt>
      <trkpt lat="44.009454594925046" lon="5.692906575277448">
        <ele>656.4000244140625</ele>
        <time>2014-05-21T09:23:23Z</time>
      </trkpt>
      <trkpt lat="44.009458115324378" lon="5.692785959690809">
        <ele>656.20001220703125</ele>
        <time>2014-05-21T09:23:24Z</time>
      </trkpt>
      <trkpt lat="44.009447805583477" lon="5.692553529515863">
        <ele>655.5999755859375</ele>
        <time>2014-05-21T09:23:26Z</time>
      </trkpt>
      <trkpt lat="44.009422324597836" lon="5.692442050203681">
        <ele>655.4000244140625</ele>
        <time>2014-05-21T09:23:27Z</time>
      </trkpt>
      <trkpt lat="44.009380163624883" lon="5.692337024956942">
        <ele>655.20001220703125</ele>
        <time>2014-05-21T09:23:28Z</time>
      </trkpt>
      <trkpt lat="44.00926616974175" lon="5.692149857059121">
        <ele>655.20001220703125</ele>
        <time>2014-05-21T09:23:30Z</time>
      </trkpt>
      <trkpt lat="44.009149996563792" lon="5.69197241216898">
        <ele>655</ele>
        <time>2014-05-21T09:23:32Z</time>
      </trkpt>
      <trkpt lat="44.009097525849938" lon="5.691879289224744">
        <ele>654.20001220703125</ele>
        <time>2014-05-21T09:23:33Z</time>
      </trkpt>
      <trkpt lat="44.009051090106368" lon="5.691780801862478">
        <ele>653.5999755859375</ele>
        <time>2014-05-21T09:23:34Z</time>
      </trkpt>
      <trkpt lat="44.009013455361128" lon="5.691674184054136">
        <ele>652.79998779296875</ele>
        <time>2014-05-21T09:23:35Z</time>
      </trkpt>
      <trkpt lat="44.008980849757791" lon="5.691562201827765">
        <ele>652.5999755859375</ele>
        <time>2014-05-21T09:23:36Z</time>
      </trkpt>
      <trkpt lat="44.008880518376827" lon="5.691237738355994">
        <ele>653</ele>
        <time>2014-05-21T09:23:39Z</time>
      </trkpt>
      <trkpt lat="44.008791837841272" lon="5.691041434183717">
        <ele>653.4000244140625</ele>
        <time>2014-05-21T09:23:41Z</time>
      </trkpt>
      <trkpt lat="44.008688824251294" lon="5.690864995121956">
        <ele>654.20001220703125</ele>
        <time>2014-05-21T09:23:43Z</time>
      </trkpt>
      <trkpt lat="44.008520599454641" lon="5.690614376217127">
        <ele>653.79998779296875</ele>
        <time>2014-05-21T09:23:46Z</time>
      </trkpt>
      <trkpt lat="44.008315242826939" lon="5.690242806449533">
        <ele>652.5999755859375</ele>
        <time>2014-05-21T09:23:50Z</time>
      </trkpt>
      <trkpt lat="44.008273249492049" lon="5.69014448672533">
        <ele>652</ele>
        <time>2014-05-21T09:23:51Z</time>
      </trkpt>
      <trkpt lat="44.008234357461333" lon="5.690044658258557">
        <ele>651.5999755859375</ele>
        <time>2014-05-21T09:23:52Z</time>
      </trkpt>
      <trkpt lat="44.008168475702405" lon="5.689832512289286">
        <ele>651.20001220703125</ele>
        <time>2014-05-21T09:23:54Z</time>
      </trkpt>
      <trkpt lat="44.008133271709085" lon="5.689603770151734">
        <ele>651.4000244140625</ele>
        <time>2014-05-21T09:23:56Z</time>
      </trkpt>
      <trkpt lat="44.008154310286045" lon="5.689244605600834">
        <ele>651</ele>
        <time>2014-05-21T09:23:59Z</time>
      </trkpt>
      <trkpt lat="44.008208205923438" lon="5.689004883170128">
        <ele>650.5999755859375</ele>
        <time>2014-05-21T09:24:01Z</time>
      </trkpt>
      <trkpt lat="44.008235028013587" lon="5.688884686678648">
        <ele>650.20001220703125</ele>
        <time>2014-05-21T09:24:02Z</time>
      </trkpt>
      <trkpt lat="44.008303759619594" lon="5.688523845747113">
        <ele>649.5999755859375</ele>
        <time>2014-05-21T09:24:05Z</time>
      </trkpt>
      <trkpt lat="44.008420016616583" lon="5.688050100579858">
        <ele>649.20001220703125</ele>
        <time>2014-05-21T09:24:09Z</time>
      </trkpt>
      <trkpt lat="44.008483635261655" lon="5.687813395634294">
        <ele>648.5999755859375</ele>
        <time>2014-05-21T09:24:11Z</time>
      </trkpt>
      <trkpt lat="44.00854205712676" lon="5.68758356384933">
        <ele>648.20001220703125</ele>
        <time>2014-05-21T09:24:13Z</time>
      </trkpt>
      <trkpt lat="44.008558820933104" lon="5.687341829761863">
        <ele>648.20001220703125</ele>
        <time>2014-05-21T09:24:15Z</time>
      </trkpt>
      <trkpt lat="44.008484641090035" lon="5.686997082084417">
        <ele>646.79998779296875</ele>
        <time>2014-05-21T09:24:18Z</time>
      </trkpt>
      <trkpt lat="44.008390177041292" lon="5.686786277219653">
        <ele>646.5999755859375</ele>
        <time>2014-05-21T09:24:20Z</time>
      </trkpt>
      <trkpt lat="44.008289678022265" lon="5.686578825116158">
        <ele>645.5999755859375</ele>
        <time>2014-05-21T09:24:22Z</time>
      </trkpt>
      <trkpt lat="44.008241398259997" lon="5.686478074640036">
        <ele>645</ele>
        <time>2014-05-21T09:24:23Z</time>
      </trkpt>
      <trkpt lat="44.008165122941136" lon="5.686269951984286">
        <ele>644.79998779296875</ele>
        <time>2014-05-21T09:24:25Z</time>
      </trkpt>
      <trkpt lat="44.008149784058332" lon="5.686159394681454">
        <ele>645.20001220703125</ele>
        <time>2014-05-21T09:24:26Z</time>
      </trkpt>
      <trkpt lat="44.008183227851987" lon="5.685964766889811">
        <ele>645.5999755859375</ele>
        <time>2014-05-21T09:24:28Z</time>
      </trkpt>
      <trkpt lat="44.008350279182196" lon="5.685790255665779">
        <ele>645.5999755859375</ele>
        <time>2014-05-21T09:24:31Z</time>
      </trkpt>
      <trkpt lat="44.008415658026934" lon="5.685748932883143">
        <ele>645.4000244140625</ele>
        <time>2014-05-21T09:24:32Z</time>
      </trkpt>
      <trkpt lat="44.008482713252306" lon="5.685712555423379">
        <ele>645.20001220703125</ele>
        <time>2014-05-21T09:24:33Z</time>
      </trkpt>
      <trkpt lat="44.008758142590523" lon="5.685564447194338">
        <ele>645</ele>
        <time>2014-05-21T09:24:37Z</time>
      </trkpt>
      <trkpt lat="44.008970959112048" lon="5.685452716425061">
        <ele>644.4000244140625</ele>
        <time>2014-05-21T09:24:40Z</time>
      </trkpt>
      <trkpt lat="44.009330291301012" lon="5.685269068926573">
        <ele>643</ele>
        <time>2014-05-21T09:24:45Z</time>
      </trkpt>
      <trkpt lat="44.009818285703659" lon="5.685019204393029">
        <ele>642.4000244140625</ele>
        <time>2014-05-21T09:24:52Z</time>
      </trkpt>
      <trkpt lat="44.010149789974093" lon="5.684833796694875">
        <ele>642</ele>
        <time>2014-05-21T09:24:57Z</time>
      </trkpt>
      <trkpt lat="44.010188430547714" lon="5.684792809188366">
        <ele>642.20001220703125</ele>
        <time>2014-05-21T09:24:58Z</time>
      </trkpt>
      <trkpt lat="44.010185077786446" lon="5.684715025126934">
        <ele>642.4000244140625</ele>
        <time>2014-05-21T09:25:00Z</time>
      </trkpt>
      <trkpt lat="44.010076196864247" lon="5.684710666537285">
        <ele>640.79998779296875</ele>
        <time>2014-05-21T09:25:03Z</time>
      </trkpt>
      <trkpt lat="44.009987264871597" lon="5.684758108109236">
        <ele>639.79998779296875</ele>
        <time>2014-05-21T09:25:05Z</time>
      </trkpt>
      <trkpt lat="44.009783249348402" lon="5.68485357798636">
        <ele>638.5999755859375</ele>
        <time>2014-05-21T09:25:09Z</time>
      </trkpt>
      <trkpt lat="44.00950119830668" lon="5.684965308755636">
        <ele>637.5999755859375</ele>
        <time>2014-05-21T09:25:14Z</time>
      </trkpt>
      <trkpt lat="44.0093844383955" lon="5.68501241505146">
        <ele>637.4000244140625</ele>
        <time>2014-05-21T09:25:16Z</time>
      </trkpt>
      <trkpt lat="44.008888145908713" lon="5.685208216309547">
        <ele>636.4000244140625</ele>
        <time>2014-05-21T09:25:24Z</time>
      </trkpt>
      <trkpt lat="44.008694440126419" lon="5.685281977057457">
        <ele>635.4000244140625</ele>
        <time>2014-05-21T09:25:27Z</time>
      </trkpt>
      <trkpt lat="44.008369976654649" lon="5.685406615957618">
        <ele>635.5999755859375</ele>
        <time>2014-05-21T09:25:32Z</time>
      </trkpt>
      <trkpt lat="44.008235530927777" lon="5.685452800244093">
        <ele>634.20001220703125</ele>
        <time>2014-05-21T09:25:34Z</time>
      </trkpt>
      <trkpt lat="44.008095050230622" lon="5.685494793578982">
        <ele>633.20001220703125</ele>
        <time>2014-05-21T09:25:36Z</time>
      </trkpt>
      <trkpt lat="44.007951216772199" lon="5.68554257042706">
        <ele>632</ele>
        <time>2014-05-21T09:25:38Z</time>
      </trkpt>
      <trkpt lat="44.007801348343492" lon="5.685588084161282">
        <ele>630.5999755859375</ele>
        <time>2014-05-21T09:25:40Z</time>
      </trkpt>
      <trkpt lat="44.007572522386909" lon="5.685650194063783">
        <ele>629.5999755859375</ele>
        <time>2014-05-21T09:25:43Z</time>
      </trkpt>
      <trkpt lat="44.007414020597935" lon="5.685691349208355">
        <ele>628.79998779296875</ele>
        <time>2014-05-21T09:25:45Z</time>
      </trkpt>
      <trkpt lat="44.007333386689425" lon="5.68570869974792">
        <ele>628</ele>
        <time>2014-05-21T09:25:46Z</time>
      </trkpt>
      <trkpt lat="44.007177650928497" lon="5.685752118006349">
        <ele>627</ele>
        <time>2014-05-21T09:25:48Z</time>
      </trkpt>
      <trkpt lat="44.006856875494123" lon="5.685835434123874">
        <ele>627.20001220703125</ele>
        <time>2014-05-21T09:25:52Z</time>
      </trkpt>
      <trkpt lat="44.006600892171264" lon="5.685911290347576">
        <ele>625.5999755859375</ele>
        <time>2014-05-21T09:25:55Z</time>
      </trkpt>
      <trkpt lat="44.006420262157917" lon="5.685964934527874">
        <ele>624.4000244140625</ele>
        <time>2014-05-21T09:25:57Z</time>
      </trkpt>
      <trkpt lat="44.006057912483811" lon="5.686050597578287">
        <ele>623.20001220703125</ele>
        <time>2014-05-21T09:26:01Z</time>
      </trkpt>
      <trkpt lat="44.00587510317564" lon="5.686097955331206">
        <ele>622</ele>
        <time>2014-05-21T09:26:03Z</time>
      </trkpt>
      <trkpt lat="44.005692042410374" lon="5.686148079112172">
        <ele>621</ele>
        <time>2014-05-21T09:26:05Z</time>
      </trkpt>
      <trkpt lat="44.005313850939274" lon="5.686243632808328">
        <ele>619.79998779296875</ele>
        <time>2014-05-21T09:26:09Z</time>
      </trkpt>
      <trkpt lat="44.005123414099216" lon="5.686278836801648">
        <ele>618.4000244140625</ele>
        <time>2014-05-21T09:26:11Z</time>
      </trkpt>
      <trkpt lat="44.005025932565331" lon="5.686285542324185">
        <ele>617.5999755859375</ele>
        <time>2014-05-21T09:26:12Z</time>
      </trkpt>
      <trkpt lat="44.004929456859827" lon="5.686272047460079">
        <ele>617</ele>
        <time>2014-05-21T09:26:13Z</time>
      </trkpt>
      <trkpt lat="44.004756705835462" lon="5.686188144609332">
        <ele>616.79998779296875</ele>
        <time>2014-05-21T09:26:15Z</time>
      </trkpt>
      <trkpt lat="44.004548499360681" lon="5.685997121036053">
        <ele>617.4000244140625</ele>
        <time>2014-05-21T09:26:18Z</time>
      </trkpt>
      <trkpt lat="44.004488401114941" lon="5.685935765504837">
        <ele>617.4000244140625</ele>
        <time>2014-05-21T09:26:19Z</time>
      </trkpt>
      <trkpt lat="44.004321685060859" lon="5.685781203210354">
        <ele>618.20001220703125</ele>
        <time>2014-05-21T09:26:22Z</time>
      </trkpt>
      <trkpt lat="44.004216408357024" lon="5.685706268996">
        <ele>619</ele>
        <time>2014-05-21T09:26:24Z</time>
      </trkpt>
      <trkpt lat="44.00416050106287" lon="5.685682380571961">
        <ele>619.20001220703125</ele>
        <time>2014-05-21T09:26:25Z</time>
      </trkpt>
      <trkpt lat="44.003935530781746" lon="5.68564273416996">
        <ele>619.4000244140625</ele>
        <time>2014-05-21T09:26:29Z</time>
      </trkpt>
      <trkpt lat="44.003826733678579" lon="5.68564030341804">
        <ele>619.4000244140625</ele>
        <time>2014-05-21T09:26:31Z</time>
      </trkpt>
      <trkpt lat="44.003611402586102" lon="5.685638543218374">
        <ele>620</ele>
        <time>2014-05-21T09:26:35Z</time>
      </trkpt>
      <trkpt lat="44.003554573282599" lon="5.685639968141913">
        <ele>620.4000244140625</ele>
        <time>2014-05-21T09:26:36Z</time>
      </trkpt>
      <trkpt lat="44.003094574436545" lon="5.685657737776637">
        <ele>620</ele>
        <time>2014-05-21T09:26:44Z</time>
      </trkpt>
      <trkpt lat="44.002681514248252" lon="5.685664527118206">
        <ele>619.4000244140625</ele>
        <time>2014-05-21T09:26:51Z</time>
      </trkpt>
      <trkpt lat="44.002623176202178" lon="5.685666957870126">
        <ele>619.20001220703125</ele>
        <time>2014-05-21T09:26:52Z</time>
      </trkpt>
      <trkpt lat="44.002083716914058" lon="5.685684811323881">
        <ele>619</ele>
        <time>2014-05-21T09:27:01Z</time>
      </trkpt>
      <trkpt lat="44.00178724899888" lon="5.685693109408021">
        <ele>618.20001220703125</ele>
        <time>2014-05-21T09:27:06Z</time>
      </trkpt>
      <trkpt lat="44.001608295366168" lon="5.68569746799767">
        <ele>618.5999755859375</ele>
        <time>2014-05-21T09:27:09Z</time>
      </trkpt>
      <trkpt lat="44.001213004812598" lon="5.685717836022377">
        <ele>617.20001220703125</ele>
        <time>2014-05-21T09:27:16Z</time>
      </trkpt>
      <trkpt lat="44.000819474458694" lon="5.68572043441236">
        <ele>618.4000244140625</ele>
        <time>2014-05-21T09:27:23Z</time>
      </trkpt>
      <trkpt lat="44.000761555507779" lon="5.685722613707185">
        <ele>618.79998779296875</ele>
        <time>2014-05-21T09:27:24Z</time>
      </trkpt>
      <trkpt lat="44.000288564711809" lon="5.685701994225383">
        <ele>618</ele>
        <time>2014-05-21T09:27:32Z</time>
      </trkpt>
      <trkpt lat="44.000038197264075" lon="5.685692941769958">
        <ele>617.20001220703125</ele>
        <time>2014-05-21T09:27:36Z</time>
      </trkpt>
      <trkpt lat="43.999913726001978" lon="5.685677602887154">
        <ele>617</ele>
        <time>2014-05-21T09:27:38Z</time>
      </trkpt>
      <trkpt lat="43.999374518170953" lon="5.685614990070462">
        <ele>617.20001220703125</ele>
        <time>2014-05-21T09:27:47Z</time>
      </trkpt>
      <trkpt lat="43.999317772686481" lon="5.685603255406022">
        <ele>617.20001220703125</ele>
        <time>2014-05-21T09:27:48Z</time>
      </trkpt>
      <trkpt lat="43.999032955616713" lon="5.685545168817043">
        <ele>616.4000244140625</ele>
        <time>2014-05-21T09:27:53Z</time>
      </trkpt>
      <trkpt lat="43.998977299779654" lon="5.685537960380316">
        <ele>616.4000244140625</ele>
        <time>2014-05-21T09:27:54Z</time>
      </trkpt>
      <trkpt lat="43.998702792450786" lon="5.685511976480484">
        <ele>617</ele>
        <time>2014-05-21T09:27:59Z</time>
      </trkpt>
      <trkpt lat="43.998316135257483" lon="5.685446681454778">
        <ele>616.4000244140625</ele>
        <time>2014-05-21T09:28:06Z</time>
      </trkpt>
      <trkpt lat="43.998259557411075" lon="5.685435114428401">
        <ele>616</ele>
        <time>2014-05-21T09:28:07Z</time>
      </trkpt>
      <trkpt lat="43.997871475294232" lon="5.685304859653115">
        <ele>615.5999755859375</ele>
        <time>2014-05-21T09:28:14Z</time>
      </trkpt>
      <trkpt lat="43.9975899271667" lon="5.685211652889848">
        <ele>616</ele>
        <time>2014-05-21T09:28:19Z</time>
      </trkpt>
      <trkpt lat="43.997190613299608" lon="5.685091707855463">
        <ele>616.20001220703125</ele>
        <time>2014-05-21T09:28:26Z</time>
      </trkpt>
      <trkpt lat="43.996869754046202" lon="5.684968745335937">
        <ele>616</ele>
        <time>2014-05-21T09:28:32Z</time>
      </trkpt>
      <trkpt lat="43.996431967243552" lon="5.684727095067501">
        <ele>615.4000244140625</ele>
        <time>2014-05-21T09:28:40Z</time>
      </trkpt>
      <trkpt lat="43.996004406362772" lon="5.684470357373357">
        <ele>615</ele>
        <time>2014-05-21T09:28:48Z</time>
      </trkpt>
      <trkpt lat="43.995895106345415" lon="5.684410091489554">
        <ele>615</ele>
        <time>2014-05-21T09:28:50Z</time>
      </trkpt>
      <trkpt lat="43.995496798306704" lon="5.684169782325625">
        <ele>613.79998779296875</ele>
        <time>2014-05-21T09:28:57Z</time>
      </trkpt>
      <trkpt lat="43.99510569870472" lon="5.683895274996758">
        <ele>613.20001220703125</ele>
        <time>2014-05-21T09:29:04Z</time>
      </trkpt>
      <trkpt lat="43.994787102565169" lon="5.683664605021477">
        <ele>612.79998779296875</ele>
        <time>2014-05-21T09:29:10Z</time>
      </trkpt>
      <trkpt lat="43.99463614448905" lon="5.683551114052534">
        <ele>613.20001220703125</ele>
        <time>2014-05-21T09:29:13Z</time>
      </trkpt>
      <trkpt lat="43.994242362678051" lon="5.683270655572414">
        <ele>613.5999755859375</ele>
        <time>2014-05-21T09:29:21Z</time>
      </trkpt>
      <trkpt lat="43.994045639410615" lon="5.683131599798799">
        <ele>614</ele>
        <time>2014-05-21T09:29:25Z</time>
      </trkpt>
      <trkpt lat="43.99380449205637" lon="5.682949125766754">
        <ele>614</ele>
        <time>2014-05-21T09:29:30Z</time>
      </trkpt>
      <trkpt lat="43.993552951142192" lon="5.682784672826529">
        <ele>613.20001220703125</ele>
        <time>2014-05-21T09:29:35Z</time>
      </trkpt>
      <trkpt lat="43.99350299499929" lon="5.682743601500988">
        <ele>613</ele>
        <time>2014-05-21T09:29:36Z</time>
      </trkpt>
      <trkpt lat="43.993184063583612" lon="5.682555427774787">
        <ele>612.4000244140625</ele>
        <time>2014-05-21T09:29:42Z</time>
      </trkpt>
      <trkpt lat="43.993006199598312" lon="5.682493569329381">
        <ele>611.5999755859375</ele>
        <time>2014-05-21T09:29:45Z</time>
      </trkpt>
      <trkpt lat="43.99282087571919" lon="5.682427268475294">
        <ele>610.4000244140625</ele>
        <time>2014-05-21T09:29:48Z</time>
      </trkpt>
      <trkpt lat="43.992757257074118" lon="5.68240019492805">
        <ele>610.20001220703125</ele>
        <time>2014-05-21T09:29:49Z</time>
      </trkpt>
      <trkpt lat="43.992554750293493" lon="5.682335067540407">
        <ele>609.20001220703125</ele>
        <time>2014-05-21T09:29:52Z</time>
      </trkpt>
      <trkpt lat="43.992413096129894" lon="5.682283686473966">
        <ele>608</ele>
        <time>2014-05-21T09:29:54Z</time>
      </trkpt>
      <trkpt lat="43.992340005934238" lon="5.682257115840912">
        <ele>607.5999755859375</ele>
        <time>2014-05-21T09:29:55Z</time>
      </trkpt>
      <trkpt lat="43.992196088656783" lon="5.682207327336073">
        <ele>606.20001220703125</ele>
        <time>2014-05-21T09:29:57Z</time>
      </trkpt>
      <trkpt lat="43.992123752832413" lon="5.68218226544559">
        <ele>605.20001220703125</ele>
        <time>2014-05-21T09:29:58Z</time>
      </trkpt>
      <trkpt lat="43.99175176396966" lon="5.682058297097683">
        <ele>603.5999755859375</ele>
        <time>2014-05-21T09:30:03Z</time>
      </trkpt>
      <trkpt lat="43.991317832842469" lon="5.681913709267974">
        <ele>604</ele>
        <time>2014-05-21T09:30:09Z</time>
      </trkpt>
      <trkpt lat="43.991133933886886" lon="5.681846905499697">
        <ele>604.79998779296875</ele>
        <time>2014-05-21T09:30:12Z</time>
      </trkpt>
      <trkpt lat="43.99101491086185" lon="5.681811030954123">
        <ele>605.4000244140625</ele>
        <time>2014-05-21T09:30:14Z</time>
      </trkpt>
      <trkpt lat="43.990582237020135" lon="5.681672729551792">
        <ele>604.20001220703125</ele>
        <time>2014-05-21T09:30:21Z</time>
      </trkpt>
      <trkpt lat="43.990515433251858" lon="5.68164573982358">
        <ele>603</ele>
        <time>2014-05-21T09:30:22Z</time>
      </trkpt>
      <trkpt lat="43.990240255370736" lon="5.681510707363486">
        <ele>601.79998779296875</ele>
        <time>2014-05-21T09:30:26Z</time>
      </trkpt>
      <trkpt lat="43.990098433569074" lon="5.681435940787196">
        <ele>601.20001220703125</ele>
        <time>2014-05-21T09:30:28Z</time>
      </trkpt>
      <trkpt lat="43.989952839910984" lon="5.681358240544796">
        <ele>600.5999755859375</ele>
        <time>2014-05-21T09:30:30Z</time>
      </trkpt>
      <trkpt lat="43.989579090848565" lon="5.681171324104071">
        <ele>600.20001220703125</ele>
        <time>2014-05-21T09:30:35Z</time>
      </trkpt>
      <trkpt lat="43.989200564101338" lon="5.68097585812211">
        <ele>599.20001220703125</ele>
        <time>2014-05-21T09:30:40Z</time>
      </trkpt>
      <trkpt lat="43.988832598552108" lon="5.68080235272646">
        <ele>598</ele>
        <time>2014-05-21T09:30:45Z</time>
      </trkpt>
      <trkpt lat="43.988505117595196" lon="5.680647538974881">
        <ele>599.20001220703125</ele>
        <time>2014-05-21T09:30:50Z</time>
      </trkpt>
      <trkpt lat="43.988444181159139" lon="5.68061962723732">
        <ele>599.5999755859375</ele>
        <time>2014-05-21T09:30:51Z</time>
      </trkpt>
      <trkpt lat="43.988159196451306" lon="5.68050529807806">
        <ele>598.20001220703125</ele>
        <time>2014-05-21T09:30:56Z</time>
      </trkpt>
      <trkpt lat="43.988110665231943" lon="5.680480822920799">
        <ele>598.5999755859375</ele>
        <time>2014-05-21T09:30:57Z</time>
      </trkpt>
      <trkpt lat="43.988008657470345" lon="5.680426759645343">
        <ele>599.20001220703125</ele>
        <time>2014-05-21T09:30:59Z</time>
      </trkpt>
      <trkpt lat="43.98772694170475" lon="5.680281165987253">
        <ele>598.79998779296875</ele>
        <time>2014-05-21T09:31:04Z</time>
      </trkpt>
      <trkpt lat="43.987482357770205" lon="5.680138925090432">
        <ele>597.79998779296875</ele>
        <time>2014-05-21T09:31:08Z</time>
      </trkpt>
      <trkpt lat="43.987355120480061" lon="5.680065415799618">
        <ele>596.5999755859375</ele>
        <time>2014-05-21T09:31:10Z</time>
      </trkpt>
      <trkpt lat="43.987158564850688" lon="5.679959720000625">
        <ele>595.4000244140625</ele>
        <time>2014-05-21T09:31:13Z</time>
      </trkpt>
      <trkpt lat="43.986884979531169" lon="5.67981144413352">
        <ele>594.79998779296875</ele>
        <time>2014-05-21T09:31:17Z</time>
      </trkpt>
      <trkpt lat="43.986743995919824" lon="5.6797313131392">
        <ele>594</ele>
        <time>2014-05-21T09:31:19Z</time>
      </trkpt>
      <trkpt lat="43.986525144428015" lon="5.679617654532194">
        <ele>592.79998779296875</ele>
        <time>2014-05-21T09:31:22Z</time>
      </trkpt>
      <trkpt lat="43.986381394788623" lon="5.679540457203984">
        <ele>592.5999755859375</ele>
        <time>2014-05-21T09:31:24Z</time>
      </trkpt>
      <trkpt lat="43.985869344323874" lon="5.679264441132546">
        <ele>591.5999755859375</ele>
        <time>2014-05-21T09:31:31Z</time>
      </trkpt>
      <trkpt lat="43.985724756494164" lon="5.679186740890145">
        <ele>591</ele>
        <time>2014-05-21T09:31:33Z</time>
      </trkpt>
      <trkpt lat="43.985655102878809" lon="5.679149525240064">
        <ele>590.4000244140625</ele>
        <time>2014-05-21T09:31:34Z</time>
      </trkpt>
      <trkpt lat="43.985255369916558" lon="5.678942324593663">
        <ele>590.4000244140625</ele>
        <time>2014-05-21T09:31:40Z</time>
      </trkpt>
      <trkpt lat="43.984784977510571" lon="5.678699165582657">
        <ele>589.20001220703125</ele>
        <time>2014-05-21T09:31:48Z</time>
      </trkpt>
      <trkpt lat="43.984260354191065" lon="5.678414767608047">
        <ele>590.20001220703125</ele>
        <time>2014-05-21T09:31:58Z</time>
      </trkpt>
      <trkpt lat="43.984207715839148" lon="5.678386352956295">
        <ele>590.20001220703125</ele>
        <time>2014-05-21T09:31:59Z</time>
      </trkpt>
      <trkpt lat="43.98374704644084" lon="5.678159454837441">
        <ele>590.5999755859375</ele>
        <time>2014-05-21T09:32:07Z</time>
      </trkpt>
      <trkpt lat="43.983261818066239" lon="5.677982093766332">
        <ele>589.4000244140625</ele>
        <time>2014-05-21T09:32:15Z</time>
      </trkpt>
      <trkpt lat="43.983144303783774" lon="5.677935071289539">
        <ele>589.20001220703125</ele>
        <time>2014-05-21T09:32:17Z</time>
      </trkpt>
      <trkpt lat="43.982838280498981" lon="5.677818981930614">
        <ele>587.79998779296875</ele>
        <time>2014-05-21T09:32:22Z</time>
      </trkpt>
      <trkpt lat="43.982773404568434" lon="5.677794758230448">
        <ele>587.20001220703125</ele>
        <time>2014-05-21T09:32:23Z</time>
      </trkpt>
      <trkpt lat="43.982638288289309" lon="5.677742455154657">
        <ele>586.5999755859375</ele>
        <time>2014-05-21T09:32:25Z</time>
      </trkpt>
      <trkpt lat="43.982362942770123" lon="5.677608177065849">
        <ele>585</ele>
        <time>2014-05-21T09:32:29Z</time>
      </trkpt>
      <trkpt lat="43.981839912012219" lon="5.677271895110607">
        <ele>584.79998779296875</ele>
        <time>2014-05-21T09:32:37Z</time>
      </trkpt>
      <trkpt lat="43.981775874271989" lon="5.677239038050175">
        <ele>584.5999755859375</ele>
        <time>2014-05-21T09:32:38Z</time>
      </trkpt>
      <trkpt lat="43.981433808803558" lon="5.677134767174721">
        <ele>584.79998779296875</ele>
        <time>2014-05-21T09:32:43Z</time>
      </trkpt>
      <trkpt lat="43.981219483539462" lon="5.677048433572054">
        <ele>584.79998779296875</ele>
        <time>2014-05-21T09:32:46Z</time>
      </trkpt>
      <trkpt lat="43.9810810983181" lon="5.676972325891256">
        <ele>584</ele>
        <time>2014-05-21T09:32:48Z</time>
      </trkpt>
      <trkpt lat="43.981015551835299" lon="5.676926476880908">
        <ele>583.5999755859375</ele>
        <time>2014-05-21T09:32:49Z</time>
      </trkpt>
      <trkpt lat="43.980756970122457" lon="5.676729585975409">
        <ele>582.4000244140625</ele>
        <time>2014-05-21T09:32:53Z</time>
      </trkpt>
      <trkpt lat="43.980493862181902" lon="5.676514254882932">
        <ele>581.5999755859375</ele>
        <time>2014-05-21T09:32:57Z</time>
      </trkpt>
      <trkpt lat="43.980291858315468" lon="5.676383497193456">
        <ele>581.4000244140625</ele>
        <time>2014-05-21T09:33:00Z</time>
      </trkpt>
      <trkpt lat="43.980104941874743" lon="5.676255589351058">
        <ele>580.79998779296875</ele>
        <time>2014-05-21T09:33:03Z</time>
      </trkpt>
      <trkpt lat="43.979858178645372" lon="5.676068756729364">
        <ele>582.20001220703125</ele>
        <time>2014-05-21T09:33:08Z</time>
      </trkpt>
      <trkpt lat="43.979817191138864" lon="5.676026763394475">
        <ele>582.79998779296875</ele>
        <time>2014-05-21T09:33:09Z</time>
      </trkpt>
      <trkpt lat="43.979579815641046" lon="5.675743957981467">
        <ele>583.4000244140625</ele>
        <time>2014-05-21T09:33:15Z</time>
      </trkpt>
      <trkpt lat="43.979542516171932" lon="5.675694923847914">
        <ele>583.4000244140625</ele>
        <time>2014-05-21T09:33:16Z</time>
      </trkpt>
      <trkpt lat="43.97942760027945" lon="5.675553604960442">
        <ele>583.4000244140625</ele>
        <time>2014-05-21T09:33:19Z</time>
      </trkpt>
      <trkpt lat="43.979182597249746" lon="5.675213215872645">
        <ele>583.20001220703125</ele>
        <time>2014-05-21T09:33:26Z</time>
      </trkpt>
      <trkpt lat="43.978968523442745" lon="5.674836784601212">
        <ele>582.79998779296875</ele>
        <time>2014-05-21T09:33:33Z</time>
      </trkpt>
      <trkpt lat="43.978731231763959" lon="5.674338229000568">
        <ele>581.79998779296875</ele>
        <time>2014-05-21T09:33:41Z</time>
      </trkpt>
      <trkpt lat="43.978666020557284" lon="5.674207219853997">
        <ele>581.5999755859375</ele>
        <time>2014-05-21T09:33:43Z</time>
      </trkpt>
      <trkpt lat="43.978553870692849" lon="5.674010831862688">
        <ele>581.4000244140625</ele>
        <time>2014-05-21T09:33:46Z</time>
      </trkpt>
      <trkpt lat="43.978462088853121" lon="5.673893569037318">
        <ele>580.4000244140625</ele>
        <time>2014-05-21T09:33:48Z</time>
      </trkpt>
      <trkpt lat="43.978207530453801" lon="5.67362735979259">
        <ele>579.79998779296875</ele>
        <time>2014-05-21T09:33:53Z</time>
      </trkpt>
      <trkpt lat="43.978045089170337" lon="5.673476569354534">
        <ele>579.20001220703125</ele>
        <time>2014-05-21T09:33:56Z</time>
      </trkpt>
      <trkpt lat="43.977934112772346" lon="5.673377746716142">
        <ele>578</ele>
        <time>2014-05-21T09:33:58Z</time>
      </trkpt>
      <trkpt lat="43.977823304012418" lon="5.673276577144861">
        <ele>578.20001220703125</ele>
        <time>2014-05-21T09:34:00Z</time>
      </trkpt>
      <trkpt lat="43.977402783930302" lon="5.67289880476892">
        <ele>578</ele>
        <time>2014-05-21T09:34:08Z</time>
      </trkpt>
      <trkpt lat="43.977090138942003" lon="5.672771232202649">
        <ele>578</ele>
        <time>2014-05-21T09:34:14Z</time>
      </trkpt>
      <trkpt lat="43.976750168949366" lon="5.67268724553287">
        <ele>578</ele>
        <time>2014-05-21T09:34:21Z</time>
      </trkpt>
      <trkpt lat="43.976530730724335" lon="5.672639384865761">
        <ele>579.4000244140625</ele>
        <time>2014-05-21T09:34:26Z</time>
      </trkpt>
      <trkpt lat="43.976449593901634" lon="5.672617927193642">
        <ele>580.20001220703125</ele>
        <time>2014-05-21T09:34:28Z</time>
      </trkpt>
      <trkpt lat="43.9762251265347" lon="5.672558750957251">
        <ele>580.5999755859375</ele>
        <time>2014-05-21T09:34:34Z</time>
      </trkpt>
      <trkpt lat="43.976114485412836" lon="5.672529833391309">
        <ele>580.20001220703125</ele>
        <time>2014-05-21T09:34:37Z</time>
      </trkpt>
      <trkpt lat="43.975839056074619" lon="5.672475099563599">
        <ele>581</ele>
        <time>2014-05-21T09:34:45Z</time>
      </trkpt>
      <trkpt lat="43.975571086630225" lon="5.672413995489478">
        <ele>580.5999755859375</ele>
        <time>2014-05-21T09:34:53Z</time>
      </trkpt>
      <trkpt lat="43.975305296480656" lon="5.672330595552921">
        <ele>581.79998779296875</ele>
        <time>2014-05-21T09:35:01Z</time>
      </trkpt>
      <trkpt lat="43.975272187963128" lon="5.672322046011686">
        <ele>582</ele>
        <time>2014-05-21T09:35:02Z</time>
      </trkpt>
      <trkpt lat="43.975082756951451" lon="5.672246860340238">
        <ele>582.5999755859375</ele>
        <time>2014-05-21T09:35:09Z</time>
      </trkpt>
      <trkpt lat="43.975009080022573" lon="5.672226324677467">
        <ele>582.79998779296875</ele>
        <time>2014-05-21T09:35:12Z</time>
      </trkpt>
      <trkpt lat="43.9749507419765" lon="5.67219614982605">
        <ele>582.79998779296875</ele>
        <time>2014-05-21T09:35:16Z</time>
      </trkpt>
      <trkpt lat="43.974925680086017" lon="5.672175446525216">
        <ele>582.5999755859375</ele>
        <time>2014-05-21T09:37:03Z</time>
      </trkpt>
      <trkpt lat="43.974909083917737" lon="5.672177961096168">
        <ele>582.5999755859375</ele>
        <time>2014-05-21T09:37:04Z</time>
      </trkpt>
      <trkpt lat="43.974852673709393" lon="5.672269156202674">
        <ele>582.20001220703125</ele>
        <time>2014-05-21T09:37:08Z</time>
      </trkpt>
      <trkpt lat="43.974840519949794" lon="5.67229924723506">
        <ele>582</ele>
        <time>2014-05-21T09:37:09Z</time>
      </trkpt>
      <trkpt lat="43.97482618689537" lon="5.672327410429716">
        <ele>581.20001220703125</ele>
        <time>2014-05-21T09:37:10Z</time>
      </trkpt>
      <trkpt lat="43.974769441410899" lon="5.672450456768274">
        <ele>580.5999755859375</ele>
        <time>2014-05-21T09:37:15Z</time>
      </trkpt>
      <trkpt lat="43.974699536338449" lon="5.672599738463759">
        <ele>580.5999755859375</ele>
        <time>2014-05-21T09:37:22Z</time>
      </trkpt>
      <trkpt lat="43.974676821380854" lon="5.672676935791969">
        <ele>580.20001220703125</ele>
        <time>2014-05-21T09:37:25Z</time>
      </trkpt>
      <trkpt lat="43.97462829016149" lon="5.672752875834703">
        <ele>579.5999755859375</ele>
        <time>2014-05-21T09:37:29Z</time>
      </trkpt>
      <trkpt lat="43.974643545225263" lon="5.672722784802318">
        <ele>580</ele>
        <time>2014-05-21T09:38:13Z</time>
      </trkpt>
      <trkpt lat="43.974653352051973" lon="5.672712391242385">
        <ele>579.79998779296875</ele>
        <time>2014-05-21T09:38:14Z</time>
      </trkpt>
      <trkpt lat="43.974725855514407" lon="5.672616250813007">
        <ele>580.20001220703125</ele>
        <time>2014-05-21T09:38:19Z</time>
      </trkpt>
      <trkpt lat="43.974802969023585" lon="5.672409888356924">
        <ele>581.20001220703125</ele>
        <time>2014-05-21T09:38:25Z</time>
      </trkpt>
      <trkpt lat="43.974834820255637" lon="5.672182738780975">
        <ele>582.20001220703125</ele>
        <time>2014-05-21T09:38:31Z</time>
      </trkpt>
      <trkpt lat="43.974805399775505" lon="5.672122305259109">
        <ele>582.4000244140625</ele>
        <time>2014-05-21T09:38:33Z</time>
      </trkpt>
      <trkpt lat="43.974727112799883" lon="5.672049466520548">
        <ele>582.5999755859375</ele>
        <time>2014-05-21T09:38:36Z</time>
      </trkpt>
      <trkpt lat="43.974484540522099" lon="5.671855928376317">
        <ele>581.79998779296875</ele>
        <time>2014-05-21T09:38:43Z</time>
      </trkpt>
      <trkpt lat="43.974272478371859" lon="5.671697845682502">
        <ele>582.4000244140625</ele>
        <time>2014-05-21T09:38:48Z</time>
      </trkpt>
      <trkpt lat="43.974222354590893" lon="5.671677393838763">
        <ele>582.4000244140625</ele>
        <time>2014-05-21T09:38:49Z</time>
      </trkpt>
      <trkpt lat="43.974024709314108" lon="5.67163179628551">
        <ele>582.5999755859375</ele>
        <time>2014-05-21T09:38:53Z</time>
      </trkpt>
      <trkpt lat="43.973933178931475" lon="5.671642441302538">
        <ele>583</ele>
        <time>2014-05-21T09:38:55Z</time>
      </trkpt>
      <trkpt lat="43.973851203918457" lon="5.671678315848112">
        <ele>583.4000244140625</ele>
        <time>2014-05-21T09:38:57Z</time>
      </trkpt>
      <trkpt lat="43.973779203370214" lon="5.671739000827074">
        <ele>583.5999755859375</ele>
        <time>2014-05-21T09:38:59Z</time>
      </trkpt>
      <trkpt lat="43.973685158416629" lon="5.671861041337252">
        <ele>584.5999755859375</ele>
        <time>2014-05-21T09:39:03Z</time>
      </trkpt>
      <trkpt lat="43.973664958029985" lon="5.671887611970305">
        <ele>585</ele>
        <time>2014-05-21T09:39:04Z</time>
      </trkpt>
      <trkpt lat="43.973632184788585" lon="5.67195039242506">
        <ele>585.5999755859375</ele>
        <time>2014-05-21T09:39:06Z</time>
      </trkpt>
      <trkpt lat="43.973580384626985" lon="5.672043934464455">
        <ele>586.4000244140625</ele>
        <time>2014-05-21T09:39:09Z</time>
      </trkpt>
      <trkpt lat="43.973563956096768" lon="5.672074276953936">
        <ele>586.79998779296875</ele>
        <time>2014-05-21T09:39:10Z</time>
      </trkpt>
      <trkpt lat="43.973452728241682" lon="5.672286506742239">
        <ele>587.4000244140625</ele>
        <time>2014-05-21T09:39:17Z</time>
      </trkpt>
      <trkpt lat="43.973415177315474" lon="5.672358339652419">
        <ele>588</ele>
        <time>2014-05-21T09:39:20Z</time>
      </trkpt>
      <trkpt lat="43.973360024392605" lon="5.672458419576287">
        <ele>588.5999755859375</ele>
        <time>2014-05-21T09:39:24Z</time>
      </trkpt>
      <trkpt lat="43.973310990259051" lon="5.672555984929204">
        <ele>589</ele>
        <time>2014-05-21T09:39:28Z</time>
      </trkpt>
      <trkpt lat="43.973264889791608" lon="5.672626895830035">
        <ele>589.4000244140625</ele>
        <time>2014-05-21T09:39:31Z</time>
      </trkpt>
      <trkpt lat="43.973170006647706" lon="5.672766119241715">
        <ele>590.20001220703125</ele>
        <time>2014-05-21T09:39:37Z</time>
      </trkpt>
      <trkpt lat="43.973121140152216" lon="5.672795874997973">
        <ele>590.5999755859375</ele>
        <time>2014-05-21T09:39:39Z</time>
      </trkpt>
      <trkpt lat="43.973027179017663" lon="5.672854883596301">
        <ele>591.20001220703125</ele>
        <time>2014-05-21T09:39:43Z</time>
      </trkpt>
      <trkpt lat="43.972940929234028" lon="5.672918586060405">
        <ele>592.4000244140625</ele>
        <time>2014-05-21T09:39:47Z</time>
      </trkpt>
      <trkpt lat="43.972892481833696" lon="5.672937696799636">
        <ele>592.79998779296875</ele>
        <time>2014-05-21T09:39:49Z</time>
      </trkpt>
      <trkpt lat="43.972769603133202" lon="5.672972146421671">
        <ele>593.5999755859375</ele>
        <time>2014-05-21T09:39:54Z</time>
      </trkpt>
      <trkpt lat="43.972746133804321" lon="5.672978181391954">
        <ele>593.79998779296875</ele>
        <time>2014-05-21T09:39:55Z</time>
      </trkpt>
      <trkpt lat="43.972648484632373" lon="5.673017492517829">
        <ele>594.5999755859375</ele>
        <time>2014-05-21T09:39:59Z</time>
      </trkpt>
      <trkpt lat="43.972600372508168" lon="5.67302830517292">
        <ele>595.20001220703125</ele>
        <time>2014-05-21T09:40:01Z</time>
      </trkpt>
      <trkpt lat="43.972504399716854" lon="5.673043476417661">
        <ele>595.79998779296875</ele>
        <time>2014-05-21T09:40:05Z</time>
      </trkpt>
      <trkpt lat="43.972393255680799" lon="5.673059737309814">
        <ele>596.5999755859375</ele>
        <time>2014-05-21T09:40:10Z</time>
      </trkpt>
      <trkpt lat="43.972345730289817" lon="5.673066023737192">
        <ele>597</ele>
        <time>2014-05-21T09:40:12Z</time>
      </trkpt>
      <trkpt lat="43.972172811627388" lon="5.67309033125639">
        <ele>597.79998779296875</ele>
        <time>2014-05-21T09:40:20Z</time>
      </trkpt>
      <trkpt lat="43.972151521593332" lon="5.673094186931849">
        <ele>598.20001220703125</ele>
        <time>2014-05-21T09:40:21Z</time>
      </trkpt>
      <trkpt lat="43.972060326486826" lon="5.673095863312483">
        <ele>599.20001220703125</ele>
        <time>2014-05-21T09:40:25Z</time>
      </trkpt>
      <trkpt lat="43.97199209779501" lon="5.673110615462065">
        <ele>599.5999755859375</ele>
        <time>2014-05-21T09:40:28Z</time>
      </trkpt>
      <trkpt lat="43.971867291256785" lon="5.673128133639693">
        <ele>600.4000244140625</ele>
        <time>2014-05-21T09:40:34Z</time>
      </trkpt>
      <trkpt lat="43.971847845241427" lon="5.673124110326171">
        <ele>600.4000244140625</ele>
        <time>2014-05-21T09:40:35Z</time>
      </trkpt>
      <trkpt lat="43.971744747832417" lon="5.673098964616656">
        <ele>601.4000244140625</ele>
        <time>2014-05-21T09:40:41Z</time>
      </trkpt>
      <trkpt lat="43.971669226884842" lon="5.673067783936858">
        <ele>602.5999755859375</ele>
        <time>2014-05-21T09:40:45Z</time>
      </trkpt>
      <trkpt lat="43.971608877182007" lon="5.673013972118497">
        <ele>603.5999755859375</ele>
        <time>2014-05-21T09:40:49Z</time>
      </trkpt>
      <trkpt lat="43.971564285457134" lon="5.67295940592885">
        <ele>604</ele>
        <time>2014-05-21T09:40:52Z</time>
      </trkpt>
      <trkpt lat="43.971533188596368" lon="5.672918502241373">
        <ele>604.5999755859375</ele>
        <time>2014-05-21T09:40:54Z</time>
      </trkpt>
      <trkpt lat="43.971472000703216" lon="5.672809453681111">
        <ele>605.79998779296875</ele>
        <time>2014-05-21T09:40:59Z</time>
      </trkpt>
      <trkpt lat="43.971461690962315" lon="5.672785649076104">
        <ele>606</ele>
        <time>2014-05-21T09:41:00Z</time>
      </trkpt>
      <trkpt lat="43.971393965184689" lon="5.67266914062202">
        <ele>607</ele>
        <time>2014-05-21T09:41:05Z</time>
      </trkpt>
      <trkpt lat="43.97138281725347" lon="5.672644749283791">
        <ele>607.20001220703125</ele>
        <time>2014-05-21T09:41:06Z</time>
      </trkpt>
      <trkpt lat="43.971344092860818" lon="5.672562941908836">
        <ele>608</ele>
        <time>2014-05-21T09:41:10Z</time>
      </trkpt>
      <trkpt lat="43.971301345154643" lon="5.672474848106504">
        <ele>609</ele>
        <time>2014-05-21T09:41:14Z</time>
      </trkpt>
      <trkpt lat="43.971287431195378" lon="5.672453474253416">
        <ele>609</ele>
        <time>2014-05-21T09:41:15Z</time>
      </trkpt>
      <trkpt lat="43.971224231645465" lon="5.672303773462772">
        <ele>610</ele>
        <time>2014-05-21T09:41:21Z</time>
      </trkpt>
      <trkpt lat="43.971212832257152" lon="5.67227678373456">
        <ele>610.20001220703125</ele>
        <time>2014-05-21T09:41:22Z</time>
      </trkpt>
      <trkpt lat="43.9711878541857" lon="5.672223474830389">
        <ele>610.4000244140625</ele>
        <time>2014-05-21T09:41:24Z</time>
      </trkpt>
      <trkpt lat="43.971149381250143" lon="5.672144014388323">
        <ele>611.4000244140625</ele>
        <time>2014-05-21T09:41:27Z</time>
      </trkpt>
      <trkpt lat="43.971118284389377" lon="5.672069163993001">
        <ele>612</ele>
        <time>2014-05-21T09:41:30Z</time>
      </trkpt>
      <trkpt lat="43.971102191135287" lon="5.672011999413371">
        <ele>612.5999755859375</ele>
        <time>2014-05-21T09:41:32Z</time>
      </trkpt>
      <trkpt lat="43.971067657694221" lon="5.67188928835094">
        <ele>614</ele>
        <time>2014-05-21T09:41:36Z</time>
      </trkpt>
      <trkpt lat="43.971055503934622" lon="5.67182726226747">
        <ele>614.4000244140625</ele>
        <time>2014-05-21T09:41:38Z</time>
      </trkpt>
      <trkpt lat="43.971034130081534" lon="5.671718800440431">
        <ele>615</ele>
        <time>2014-05-21T09:41:42Z</time>
      </trkpt>
      <trkpt lat="43.971015941351652" lon="5.671661887317896">
        <ele>615.20001220703125</ele>
        <time>2014-05-21T09:41:44Z</time>
      </trkpt>
      <trkpt lat="43.970986185595393" lon="5.671589551493526">
        <ele>616.20001220703125</ele>
        <time>2014-05-21T09:41:47Z</time>
      </trkpt>
      <trkpt lat="43.970949137583375" lon="5.671473881229758">
        <ele>616.79998779296875</ele>
        <time>2014-05-21T09:41:51Z</time>
      </trkpt>
      <trkpt lat="43.970898175612092" lon="5.671347817406058">
        <ele>617.20001220703125</ele>
        <time>2014-05-21T09:41:56Z</time>
      </trkpt>
      <trkpt lat="43.970886943861842" lon="5.671322671696544">
        <ele>617.4000244140625</ele>
        <time>2014-05-21T09:41:57Z</time>
      </trkpt>
      <trkpt lat="43.970812512561679" lon="5.671139778569341">
        <ele>618.4000244140625</ele>
        <time>2014-05-21T09:42:04Z</time>
      </trkpt>
      <trkpt lat="43.970806142315269" lon="5.671116225421429">
        <ele>618.4000244140625</ele>
        <time>2014-05-21T09:42:05Z</time>
      </trkpt>
      <trkpt lat="43.970788959413767" lon="5.670997453853488">
        <ele>618.5999755859375</ele>
        <time>2014-05-21T09:42:09Z</time>
      </trkpt>
      <trkpt lat="43.97082039155066" lon="5.670945234596729">
        <ele>619.20001220703125</ele>
        <time>2014-05-21T09:42:11Z</time>
      </trkpt>
      <trkpt lat="43.970841933041811" lon="5.670926878228784">
        <ele>619.4000244140625</ele>
        <time>2014-05-21T09:42:12Z</time>
      </trkpt>
      <trkpt lat="43.97088635712862" lon="5.670891758054495">
        <ele>620</ele>
        <time>2014-05-21T09:42:15Z</time>
      </trkpt>
      <trkpt lat="43.970917034894228" lon="5.670895781368017">
        <ele>620.5999755859375</ele>
        <time>2014-05-21T09:42:17Z</time>
      </trkpt>
      <trkpt lat="43.970926674082875" lon="5.670895529910922">
        <ele>620.79998779296875</ele>
        <time>2014-05-21T09:42:18Z</time>
      </trkpt>
      <trkpt lat="43.970981659367681" lon="5.670870719477534">
        <ele>621.4000244140625</ele>
        <time>2014-05-21T09:42:22Z</time>
      </trkpt>
      <trkpt lat="43.971029603853822" lon="5.670853201299906">
        <ele>621.79998779296875</ele>
        <time>2014-05-21T09:42:25Z</time>
      </trkpt>
      <trkpt lat="43.971071010455489" lon="5.670856637880206">
        <ele>622.5999755859375</ele>
        <time>2014-05-21T09:42:28Z</time>
      </trkpt>
      <trkpt lat="43.971087606623769" lon="5.670854039490223">
        <ele>623</ele>
        <time>2014-05-21T09:42:29Z</time>
      </trkpt>
      <trkpt lat="43.97117318585515" lon="5.670828223228455">
        <ele>624</ele>
        <time>2014-05-21T09:42:34Z</time>
      </trkpt>
      <trkpt lat="43.971191374585032" lon="5.670817662030459">
        <ele>624.4000244140625</ele>
        <time>2014-05-21T09:42:35Z</time>
      </trkpt>
      <trkpt lat="43.971234206110239" lon="5.670805340632796">
        <ele>625</ele>
        <time>2014-05-21T09:42:38Z</time>
      </trkpt>
      <trkpt lat="43.971245856955647" lon="5.670813135802746">
        <ele>625.20001220703125</ele>
        <time>2014-05-21T09:42:39Z</time>
      </trkpt>
      <trkpt lat="43.971277289092541" lon="5.670837024226785">
        <ele>625.4000244140625</ele>
        <time>2014-05-21T09:42:41Z</time>
      </trkpt>
      <trkpt lat="43.971320372074842" lon="5.670914892107248">
        <ele>626.20001220703125</ele>
        <time>2014-05-21T09:42:45Z</time>
      </trkpt>
      <trkpt lat="43.971333699300885" lon="5.670949844643474">
        <ele>626.79998779296875</ele>
        <time>2014-05-21T09:42:47Z</time>
      </trkpt>
      <trkpt lat="43.971337722614408" lon="5.670968871563673">
        <ele>626.79998779296875</ele>
        <time>2014-05-21T09:42:48Z</time>
      </trkpt>
      <trkpt lat="43.971390277147293" lon="5.671060401946306">
        <ele>626.79998779296875</ele>
        <time>2014-05-21T09:42:54Z</time>
      </trkpt>
      <trkpt lat="43.971397737041116" lon="5.671077752485871">
        <ele>626.5999755859375</ele>
        <time>2014-05-21T09:42:55Z</time>
      </trkpt>
      <trkpt lat="43.971420703455806" lon="5.671176575124264">
        <ele>627</ele>
        <time>2014-05-21T09:43:00Z</time>
      </trkpt>
      <trkpt lat="43.971470072865486" lon="5.671272967010737">
        <ele>626.79998779296875</ele>
        <time>2014-05-21T09:43:05Z</time>
      </trkpt>
      <trkpt lat="43.971446771174669" lon="5.671218233183026">
        <ele>627.20001220703125</ele>
        <time>2014-05-21T09:43:47Z</time>
      </trkpt>
      <trkpt lat="43.971425397321582" lon="5.671165343374014">
        <ele>627.5999755859375</ele>
        <time>2014-05-21T09:43:49Z</time>
      </trkpt>
      <trkpt lat="43.971364041790366" lon="5.670966356992722">
        <ele>626.79998779296875</ele>
        <time>2014-05-21T09:43:56Z</time>
      </trkpt>
      <trkpt lat="43.971294555813074" lon="5.670847836881876">
        <ele>626.20001220703125</ele>
        <time>2014-05-21T09:44:00Z</time>
      </trkpt>
      <trkpt lat="43.971260776743293" lon="5.670838197693229">
        <ele>625.5999755859375</ele>
        <time>2014-05-21T09:44:01Z</time>
      </trkpt>
      <trkpt lat="43.97118391469121" lon="5.670831324532628">
        <ele>625</ele>
        <time>2014-05-21T09:44:03Z</time>
      </trkpt>
      <trkpt lat="43.971142591908574" lon="5.670830653980374">
        <ele>624.5999755859375</ele>
        <time>2014-05-21T09:44:04Z</time>
      </trkpt>
      <trkpt lat="43.971095820888877" lon="5.670834761112928">
        <ele>623.4000244140625</ele>
        <time>2014-05-21T09:44:05Z</time>
      </trkpt>
      <trkpt lat="43.971042176708579" lon="5.670839119702578">
        <ele>622.4000244140625</ele>
        <time>2014-05-21T09:44:06Z</time>
      </trkpt>
      <trkpt lat="43.970943773165345" lon="5.670852111652494">
        <ele>621.79998779296875</ele>
        <time>2014-05-21T09:44:08Z</time>
      </trkpt>
      <trkpt lat="43.97085509262979" lon="5.670868456363678">
        <ele>620.79998779296875</ele>
        <time>2014-05-21T09:44:10Z</time>
      </trkpt>
      <trkpt lat="43.970778733491898" lon="5.670930901542306">
        <ele>620.20001220703125</ele>
        <time>2014-05-21T09:44:13Z</time>
      </trkpt>
      <trkpt lat="43.970795162022114" lon="5.671110190451145">
        <ele>620</ele>
        <time>2014-05-21T09:44:17Z</time>
      </trkpt>
      <trkpt lat="43.970813769847155" lon="5.671168360859156">
        <ele>619.20001220703125</ele>
        <time>2014-05-21T09:44:18Z</time>
      </trkpt>
      <trkpt lat="43.970838328823447" lon="5.671225944533944">
        <ele>618.4000244140625</ele>
        <time>2014-05-21T09:44:19Z</time>
      </trkpt>
      <trkpt lat="43.970861714333296" lon="5.671286126598716">
        <ele>617.4000244140625</ele>
        <time>2014-05-21T09:44:20Z</time>
      </trkpt>
      <trkpt lat="43.970916448161006" lon="5.67141043022275">
        <ele>616.5999755859375</ele>
        <time>2014-05-21T09:44:22Z</time>
      </trkpt>
      <trkpt lat="43.970940755680203" lon="5.671479580923915">
        <ele>616.20001220703125</ele>
        <time>2014-05-21T09:44:23Z</time>
      </trkpt>
      <trkpt lat="43.970988281071186" lon="5.671626683324575">
        <ele>614.4000244140625</ele>
        <time>2014-05-21T09:44:25Z</time>
      </trkpt>
      <trkpt lat="43.971007475629449" lon="5.671707820147276">
        <ele>613.4000244140625</ele>
        <time>2014-05-21T09:44:26Z</time>
      </trkpt>
      <trkpt lat="43.971023233607411" lon="5.671791387721896">
        <ele>612.4000244140625</ele>
        <time>2014-05-21T09:44:27Z</time>
      </trkpt>
      <trkpt lat="43.971093557775021" lon="5.67204175516963">
        <ele>610.4000244140625</ele>
        <time>2014-05-21T09:44:30Z</time>
      </trkpt>
      <trkpt lat="43.971148626878858" lon="5.672208052128553">
        <ele>609.4000244140625</ele>
        <time>2014-05-21T09:44:32Z</time>
      </trkpt>
      <trkpt lat="43.971189530566335" lon="5.672291116788983">
        <ele>609.4000244140625</ele>
        <time>2014-05-21T09:44:33Z</time>
      </trkpt>
      <trkpt lat="43.97127527743578" lon="5.672469148412347">
        <ele>608.20001220703125</ele>
        <time>2014-05-21T09:44:35Z</time>
      </trkpt>
      <trkpt lat="43.9714140817523" lon="5.672725886106491">
        <ele>607.20001220703125</ele>
        <time>2014-05-21T09:44:38Z</time>
      </trkpt>
      <trkpt lat="43.971460601314902" lon="5.67282403819263">
        <ele>606.5999755859375</ele>
        <time>2014-05-21T09:44:39Z</time>
      </trkpt>
      <trkpt lat="43.971556322649121" lon="5.673009948804975">
        <ele>605</ele>
        <time>2014-05-21T09:44:41Z</time>
      </trkpt>
      <trkpt lat="43.971614576876163" lon="5.673078428953886">
        <ele>604.5999755859375</ele>
        <time>2014-05-21T09:44:42Z</time>
      </trkpt>
      <trkpt lat="43.971850443631411" lon="5.673161577433348">
        <ele>603.4000244140625</ele>
        <time>2014-05-21T09:44:45Z</time>
      </trkpt>
      <trkpt lat="43.972056973725557" lon="5.673136599361897">
        <ele>601.79998779296875</ele>
        <time>2014-05-21T09:44:47Z</time>
      </trkpt>
      <trkpt lat="43.97216753102839" lon="5.673121176660061">
        <ele>599.20001220703125</ele>
        <time>2014-05-21T09:44:48Z</time>
      </trkpt>
      <trkpt lat="43.972285967320204" lon="5.67310307174921">
        <ele>597.4000244140625</ele>
        <time>2014-05-21T09:44:49Z</time>
      </trkpt>
      <trkpt lat="43.972406499087811" lon="5.67308597266674">
        <ele>596</ele>
        <time>2014-05-21T09:44:50Z</time>
      </trkpt>
      <trkpt lat="43.972529964521527" lon="5.67306837067008">
        <ele>594.79998779296875</ele>
        <time>2014-05-21T09:44:51Z</time>
      </trkpt>
      <trkpt lat="43.972654435783625" lon="5.673046493902803">
        <ele>593.4000244140625</ele>
        <time>2014-05-21T09:44:52Z</time>
      </trkpt>
      <trkpt lat="43.972779829055071" lon="5.673011876642704">
        <ele>592.20001220703125</ele>
        <time>2014-05-21T09:44:53Z</time>
      </trkpt>
      <trkpt lat="43.973006810992956" lon="5.672915233299136">
        <ele>591</ele>
        <time>2014-05-21T09:44:55Z</time>
      </trkpt>
      <trkpt lat="43.973196996375918" lon="5.672804927453399">
        <ele>590.5999755859375</ele>
        <time>2014-05-21T09:44:57Z</time>
      </trkpt>
      <trkpt lat="43.973344350233674" lon="5.672603258863092">
        <ele>589.79998779296875</ele>
        <time>2014-05-21T09:44:59Z</time>
      </trkpt>
      <trkpt lat="43.973405873402953" lon="5.672481888905168">
        <ele>589.20001220703125</ele>
        <time>2014-05-21T09:45:00Z</time>
      </trkpt>
      <trkpt lat="43.973463457077742" lon="5.672350293025374">
        <ele>588.4000244140625</ele>
        <time>2014-05-21T09:45:01Z</time>
      </trkpt>
      <trkpt lat="43.973518777638674" lon="5.672214673832059">
        <ele>587.4000244140625</ele>
        <time>2014-05-21T09:45:02Z</time>
      </trkpt>
      <trkpt lat="43.973572170361876" lon="5.672081233933568">
        <ele>586.20001220703125</ele>
        <time>2014-05-21T09:45:03Z</time>
      </trkpt>
      <trkpt lat="43.973627323284745" lon="5.671955337747932">
        <ele>585</ele>
        <time>2014-05-21T09:45:04Z</time>
      </trkpt>
      <trkpt lat="43.973687924444675" lon="5.671846624463797">
        <ele>584</ele>
        <time>2014-05-21T09:45:05Z</time>
      </trkpt>
      <trkpt lat="43.973753806203604" lon="5.671744868159294">
        <ele>583.4000244140625</ele>
        <time>2014-05-21T09:45:06Z</time>
      </trkpt>
      <trkpt lat="43.973914990201592" lon="5.671614110469818">
        <ele>582.20001220703125</ele>
        <time>2014-05-21T09:45:08Z</time>
      </trkpt>
      <trkpt lat="43.974103918299079" lon="5.671621570363641">
        <ele>580.79998779296875</ele>
        <time>2014-05-21T09:45:10Z</time>
      </trkpt>
      <trkpt lat="43.974298210814595" lon="5.671711759641767">
        <ele>579.79998779296875</ele>
        <time>2014-05-21T09:45:12Z</time>
      </trkpt>
      <trkpt lat="43.974383790045977" lon="5.671773115172982">
        <ele>580</ele>
        <time>2014-05-21T09:45:13Z</time>
      </trkpt>
      <trkpt lat="43.974538939073682" lon="5.67189272493124">
        <ele>580</ele>
        <time>2014-05-21T09:45:15Z</time>
      </trkpt>
      <trkpt lat="43.974674977362156" lon="5.671997666358948">
        <ele>580.4000244140625</ele>
        <time>2014-05-21T09:45:17Z</time>
      </trkpt>
      <trkpt lat="43.974727364256978" lon="5.672039743512869">
        <ele>581.5999755859375</ele>
        <time>2014-05-21T09:45:18Z</time>
      </trkpt>
      <trkpt lat="43.974810345098376" lon="5.672101182863116">
        <ele>582.79998779296875</ele>
        <time>2014-05-21T09:45:20Z</time>
      </trkpt>
      <trkpt lat="43.97491361014545" lon="5.672138147056103">
        <ele>583</ele>
        <time>2014-05-21T09:45:24Z</time>
      </trkpt>
      <trkpt lat="43.974991394206882" lon="5.671995235607028">
        <ele>583.4000244140625</ele>
        <time>2014-05-21T09:45:28Z</time>
      </trkpt>
      <trkpt lat="43.975006984546781" lon="5.671949554234743">
        <ele>583.5999755859375</ele>
        <time>2014-05-21T09:45:29Z</time>
      </trkpt>
      <trkpt lat="43.975045122206211" lon="5.671863555908203">
        <ele>584</ele>
        <time>2014-05-21T09:45:31Z</time>
      </trkpt>
      <trkpt lat="43.975122068077326" lon="5.671684853732586">
        <ele>584.4000244140625</ele>
        <time>2014-05-21T09:45:35Z</time>
      </trkpt>
      <trkpt lat="43.975178394466639" lon="5.671540517359972">
        <ele>585.20001220703125</ele>
        <time>2014-05-21T09:45:38Z</time>
      </trkpt>
      <trkpt lat="43.97528694011271" lon="5.671240529045463">
        <ele>586</ele>
        <time>2014-05-21T09:45:44Z</time>
      </trkpt>
      <trkpt lat="43.975327089428902" lon="5.671145729720593">
        <ele>586.20001220703125</ele>
        <time>2014-05-21T09:45:46Z</time>
      </trkpt>
      <trkpt lat="43.97538366727531" lon="5.670995190739632">
        <ele>587.20001220703125</ele>
        <time>2014-05-21T09:45:49Z</time>
      </trkpt>
      <trkpt lat="43.975425157696009" lon="5.670892847701907">
        <ele>587.5999755859375</ele>
        <time>2014-05-21T09:45:51Z</time>
      </trkpt>
      <trkpt lat="43.975498331710696" lon="5.670707104727626">
        <ele>588.20001220703125</ele>
        <time>2014-05-21T09:45:55Z</time>
      </trkpt>
      <trkpt lat="43.975561363622546" lon="5.670532425865531">
        <ele>588.4000244140625</ele>
        <time>2014-05-21T09:45:59Z</time>
      </trkpt>
      <trkpt lat="43.975618444383144" lon="5.670399991795421">
        <ele>589.4000244140625</ele>
        <time>2014-05-21T09:46:02Z</time>
      </trkpt>
      <trkpt lat="43.975698072463274" lon="5.670206286013126">
        <ele>589.20001220703125</ele>
        <time>2014-05-21T09:46:06Z</time>
      </trkpt>
      <trkpt lat="43.975921617820859" lon="5.669664312154055">
        <ele>590.20001220703125</ele>
        <time>2014-05-21T09:46:17Z</time>
      </trkpt>
      <trkpt lat="43.976017674431205" lon="5.669434815645218">
        <ele>590.4000244140625</ele>
        <time>2014-05-21T09:46:22Z</time>
      </trkpt>
      <trkpt lat="43.976057823747396" lon="5.669334568083286">
        <ele>590.5999755859375</ele>
        <time>2014-05-21T09:46:24Z</time>
      </trkpt>
      <trkpt lat="43.976123370230198" lon="5.669176066294313">
        <ele>590.79998779296875</ele>
        <time>2014-05-21T09:46:27Z</time>
      </trkpt>
      <trkpt lat="43.976185815408826" lon="5.669018235057592">
        <ele>591.5999755859375</ele>
        <time>2014-05-21T09:46:30Z</time>
      </trkpt>
      <trkpt lat="43.976208446547389" lon="5.66896534524858">
        <ele>591.5999755859375</ele>
        <time>2014-05-21T09:46:31Z</time>
      </trkpt>
      <trkpt lat="43.97639662027359" lon="5.668475842103362">
        <ele>592.20001220703125</ele>
        <time>2014-05-21T09:46:40Z</time>
      </trkpt>
      <trkpt lat="43.97660231217742" lon="5.667962031438947">
        <ele>592.4000244140625</ele>
        <time>2014-05-21T09:46:49Z</time>
      </trkpt>
      <trkpt lat="43.976706583052874" lon="5.667714513838291">
        <ele>592.20001220703125</ele>
        <time>2014-05-21T09:46:53Z</time>
      </trkpt>
      <trkpt lat="43.976783948019147" lon="5.667504044249654">
        <ele>591.79998779296875</ele>
        <time>2014-05-21T09:46:56Z</time>
      </trkpt>
      <trkpt lat="43.976952759549022" lon="5.66703625023365">
        <ele>590.5999755859375</ele>
        <time>2014-05-21T09:47:02Z</time>
      </trkpt>
      <trkpt lat="43.976983772590756" lon="5.666956286877394">
        <ele>590.5999755859375</ele>
        <time>2014-05-21T09:47:03Z</time>
      </trkpt>
      <trkpt lat="43.977137412875891" lon="5.666541298851371">
        <ele>589.4000244140625</ele>
        <time>2014-05-21T09:47:08Z</time>
      </trkpt>
      <trkpt lat="43.97723070345819" lon="5.666282046586275">
        <ele>589</ele>
        <time>2014-05-21T09:47:11Z</time>
      </trkpt>
      <trkpt lat="43.97737487219274" lon="5.665944926440716">
        <ele>588.20001220703125</ele>
        <time>2014-05-21T09:47:15Z</time>
      </trkpt>
      <trkpt lat="43.977421307936311" lon="5.665872506797314">
        <ele>588</ele>
        <time>2014-05-21T09:47:16Z</time>
      </trkpt>
      <trkpt lat="43.97747503593564" lon="5.66581366583705">
        <ele>587.79998779296875</ele>
        <time>2014-05-21T09:47:17Z</time>
      </trkpt>
      <trkpt lat="43.977660359814763" lon="5.665739988908172">
        <ele>587.79998779296875</ele>
        <time>2014-05-21T09:47:20Z</time>
      </trkpt>
      <trkpt lat="43.977720374241471" lon="5.665729846805334">
        <ele>588</ele>
        <time>2014-05-21T09:47:21Z</time>
      </trkpt>
      <trkpt lat="43.978006280958652" lon="5.665662037208676">
        <ele>587.79998779296875</ele>
        <time>2014-05-21T09:47:26Z</time>
      </trkpt>
      <trkpt lat="43.978329906240106" lon="5.665585929527879">
        <ele>589.4000244140625</ele>
        <time>2014-05-21T09:47:32Z</time>
      </trkpt>
      <trkpt lat="43.978432584553957" lon="5.665559777989984">
        <ele>590</ele>
        <time>2014-05-21T09:47:34Z</time>
      </trkpt>
      <trkpt lat="43.978527132421732" lon="5.665539409965277">
        <ele>590.79998779296875</ele>
        <time>2014-05-21T09:47:36Z</time>
      </trkpt>
      <trkpt lat="43.978689573705196" lon="5.665503283962607">
        <ele>591.79998779296875</ele>
        <time>2014-05-21T09:47:40Z</time>
      </trkpt>
      <trkpt lat="43.978727459907532" lon="5.665491297841072">
        <ele>592.20001220703125</ele>
        <time>2014-05-21T09:47:41Z</time>
      </trkpt>
      <trkpt lat="43.978901635855436" lon="5.665444107726216">
        <ele>593.20001220703125</ele>
        <time>2014-05-21T09:47:46Z</time>
      </trkpt>
      <trkpt lat="43.978968020528555" lon="5.665452824905515">
        <ele>594</ele>
        <time>2014-05-21T09:47:51Z</time>
      </trkpt>
      <trkpt lat="43.979019820690155" lon="5.665411753579974">
        <ele>594.5999755859375</ele>
        <time>2014-05-21T09:49:45Z</time>
      </trkpt>
      <trkpt lat="43.979044044390321" lon="5.665385853499174">
        <ele>594.4000244140625</ele>
        <time>2014-05-21T09:49:47Z</time>
      </trkpt>
      <trkpt lat="43.979111351072788" lon="5.665311422199011">
        <ele>594.5999755859375</ele>
        <time>2014-05-21T09:49:50Z</time>
      </trkpt>
      <trkpt lat="43.979149237275124" lon="5.665247719734907">
        <ele>594.79998779296875</ele>
        <time>2014-05-21T09:49:52Z</time>
      </trkpt>
      <trkpt lat="43.979171700775623" lon="5.665050577372313">
        <ele>595.5999755859375</ele>
        <time>2014-05-21T09:49:57Z</time>
      </trkpt>
      <trkpt lat="43.979170024394989" lon="5.665007913485169">
        <ele>595.5999755859375</ele>
        <time>2014-05-21T09:49:58Z</time>
      </trkpt>
      <trkpt lat="43.979144124314189" lon="5.664724269881845">
        <ele>596.5999755859375</ele>
        <time>2014-05-21T09:50:04Z</time>
      </trkpt>
      <trkpt lat="43.979136999696493" lon="5.66467666067183">
        <ele>596.5999755859375</ele>
        <time>2014-05-21T09:50:05Z</time>
      </trkpt>
      <trkpt lat="43.979113781824708" lon="5.664438111707568">
        <ele>597.79998779296875</ele>
        <time>2014-05-21T09:50:10Z</time>
      </trkpt>
      <trkpt lat="43.979100035503507" lon="5.664302324876189">
        <ele>598.4000244140625</ele>
        <time>2014-05-21T09:50:13Z</time>
      </trkpt>
      <trkpt lat="43.979080254212022" lon="5.66412303596735">
        <ele>598.79998779296875</ele>
        <time>2014-05-21T09:50:17Z</time>
      </trkpt>
      <trkpt lat="43.979043373838067" lon="5.663809217512608">
        <ele>600</ele>
        <time>2014-05-21T09:50:24Z</time>
      </trkpt>
      <trkpt lat="43.979021832346916" lon="5.663601346313953">
        <ele>601.20001220703125</ele>
        <time>2014-05-21T09:50:29Z</time>
      </trkpt>
      <trkpt lat="43.979010097682476" lon="5.663482742384076">
        <ele>601.5999755859375</ele>
        <time>2014-05-21T09:50:32Z</time>
      </trkpt>
      <trkpt lat="43.979004733264446" lon="5.663403617218137">
        <ele>602.20001220703125</ele>
        <time>2014-05-21T09:50:34Z</time>
      </trkpt>
      <trkpt lat="43.978999201208353" lon="5.663198260590434">
        <ele>602.79998779296875</ele>
        <time>2014-05-21T09:50:39Z</time>
      </trkpt>
      <trkpt lat="43.979001212865114" lon="5.66307102330029">
        <ele>603.4000244140625</ele>
        <time>2014-05-21T09:50:42Z</time>
      </trkpt>
      <trkpt lat="43.979003559798002" lon="5.662893075495958">
        <ele>604</ele>
        <time>2014-05-21T09:50:46Z</time>
      </trkpt>
      <trkpt lat="43.979019150137901" lon="5.66280422732234">
        <ele>604.5999755859375</ele>
        <time>2014-05-21T09:50:48Z</time>
      </trkpt>
      <trkpt lat="43.979062484577298" lon="5.66264346241951">
        <ele>605.4000244140625</ele>
        <time>2014-05-21T09:50:52Z</time>
      </trkpt>
      <trkpt lat="43.979079332202673" lon="5.662603983655572">
        <ele>606</ele>
        <time>2014-05-21T09:50:53Z</time>
      </trkpt>
      <trkpt lat="43.97913976572454" lon="5.662461072206497">
        <ele>607.20001220703125</ele>
        <time>2014-05-21T09:50:57Z</time>
      </trkpt>
      <trkpt lat="43.979181842878461" lon="5.662403153255582">
        <ele>607.5999755859375</ele>
        <time>2014-05-21T09:50:59Z</time>
      </trkpt>
      <trkpt lat="43.979292064905167" lon="5.662255631759763">
        <ele>608.4000244140625</ele>
        <time>2014-05-21T09:51:04Z</time>
      </trkpt>
      <trkpt lat="43.9793801587075" lon="5.662147756665945">
        <ele>608.5999755859375</ele>
        <time>2014-05-21T09:51:08Z</time>
      </trkpt>
      <trkpt lat="43.979477807879448" lon="5.662050694227219">
        <ele>609.4000244140625</ele>
        <time>2014-05-21T09:51:12Z</time>
      </trkpt>
      <trkpt lat="43.979570008814335" lon="5.661930916830897">
        <ele>610</ele>
        <time>2014-05-21T09:51:16Z</time>
      </trkpt>
      <trkpt lat="43.979606721550226" lon="5.661861849948764">
        <ele>610.4000244140625</ele>
        <time>2014-05-21T09:51:18Z</time>
      </trkpt>
      <trkpt lat="43.979709567502141" lon="5.661652721464634">
        <ele>611.4000244140625</ele>
        <time>2014-05-21T09:51:24Z</time>
      </trkpt>
      <trkpt lat="43.97972515784204" lon="5.661614835262299">
        <ele>611.5999755859375</ele>
        <time>2014-05-21T09:51:25Z</time>
      </trkpt>
      <trkpt lat="43.979792715981603" lon="5.661327168345451">
        <ele>612.5999755859375</ele>
        <time>2014-05-21T09:51:32Z</time>
      </trkpt>
      <trkpt lat="43.97984828799963" lon="5.661184089258313">
        <ele>613.79998779296875</ele>
        <time>2014-05-21T09:51:36Z</time>
      </trkpt>
      <trkpt lat="43.979864632710814" lon="5.661148549988866">
        <ele>614</ele>
        <time>2014-05-21T09:51:37Z</time>
      </trkpt>
      <trkpt lat="43.979909894987941" lon="5.66103782504797">
        <ele>615</ele>
        <time>2014-05-21T09:51:40Z</time>
      </trkpt>
      <trkpt lat="43.980033611878753" lon="5.660842275246978">
        <ele>615.79998779296875</ele>
        <time>2014-05-21T09:51:46Z</time>
      </trkpt>
      <trkpt lat="43.980056745931506" lon="5.660814782604575">
        <ele>616</ele>
        <time>2014-05-21T09:51:47Z</time>
      </trkpt>
      <trkpt lat="43.980153137817979" lon="5.660708835348487">
        <ele>617.20001220703125</ele>
        <time>2014-05-21T09:51:51Z</time>
      </trkpt>
      <trkpt lat="43.980262186378241" lon="5.660632476210594">
        <ele>618</ele>
        <time>2014-05-21T09:51:55Z</time>
      </trkpt>
      <trkpt lat="43.980313148349524" lon="5.660590650513768">
        <ele>618.4000244140625</ele>
        <time>2014-05-21T09:51:57Z</time>
      </trkpt>
      <trkpt lat="43.980439715087414" lon="5.66049350425601">
        <ele>619</ele>
        <time>2014-05-21T09:52:02Z</time>
      </trkpt>
      <trkpt lat="43.980492856353521" lon="5.660460898652673">
        <ele>619.4000244140625</ele>
        <time>2014-05-21T09:52:04Z</time>
      </trkpt>
      <trkpt lat="43.980640713125467" lon="5.660338355228305">
        <ele>620.20001220703125</ele>
        <time>2014-05-21T09:52:10Z</time>
      </trkpt>
      <trkpt lat="43.980691256001592" lon="5.660298457369208">
        <ele>620.5999755859375</ele>
        <time>2014-05-21T09:52:12Z</time>
      </trkpt>
      <trkpt lat="43.980838777497411" lon="5.660164933651686">
        <ele>621.20001220703125</ele>
        <time>2014-05-21T09:52:18Z</time>
      </trkpt>
      <trkpt lat="43.980904994532466" lon="5.660097459331155">
        <ele>621.5999755859375</ele>
        <time>2014-05-21T09:52:21Z</time>
      </trkpt>
      <trkpt lat="43.980994932353497" lon="5.660001570358872">
        <ele>622.5999755859375</ele>
        <time>2014-05-21T09:52:25Z</time>
      </trkpt>
      <trkpt lat="43.981015970930457" lon="5.659979609772563">
        <ele>622.79998779296875</ele>
        <time>2014-05-21T09:52:26Z</time>
      </trkpt>
      <trkpt lat="43.981151590123773" lon="5.659794453531504">
        <ele>623.79998779296875</ele>
        <time>2014-05-21T09:52:33Z</time>
      </trkpt>
      <trkpt lat="43.981170700863004" lon="5.65976151265204">
        <ele>623.79998779296875</ele>
        <time>2014-05-21T09:52:34Z</time>
      </trkpt>
      <trkpt lat="43.981266338378191" lon="5.659600161015987">
        <ele>624.79998779296875</ele>
        <time>2014-05-21T09:52:39Z</time>
      </trkpt>
      <trkpt lat="43.981298273429275" lon="5.659532099962235">
        <ele>625.20001220703125</ele>
        <time>2014-05-21T09:52:41Z</time>
      </trkpt>
      <trkpt lat="43.98137329146266" lon="5.659407041966915">
        <ele>626</ele>
        <time>2014-05-21T09:52:45Z</time>
      </trkpt>
      <trkpt lat="43.98142559453845" lon="5.659312997013331">
        <ele>626.5999755859375</ele>
        <time>2014-05-21T09:52:48Z</time>
      </trkpt>
      <trkpt lat="43.981460966169834" lon="5.659249378368259">
        <ele>627</ele>
        <time>2014-05-21T09:52:50Z</time>
      </trkpt>
      <trkpt lat="43.981556436046958" lon="5.659089284017682">
        <ele>627.5999755859375</ele>
        <time>2014-05-21T09:52:55Z</time>
      </trkpt>
      <trkpt lat="43.981618797406554" lon="5.658991634845734">
        <ele>628.20001220703125</ele>
        <time>2014-05-21T09:52:58Z</time>
      </trkpt>
      <trkpt lat="43.981725247576833" lon="5.658788960427046">
        <ele>629.4000244140625</ele>
        <time>2014-05-21T09:53:04Z</time>
      </trkpt>
      <trkpt lat="43.981831362470984" lon="5.658562397584319">
        <ele>630.4000244140625</ele>
        <time>2014-05-21T09:53:10Z</time>
      </trkpt>
      <trkpt lat="43.981848042458296" lon="5.658524679020047">
        <ele>630.5999755859375</ele>
        <time>2014-05-21T09:53:11Z</time>
      </trkpt>
      <trkpt lat="43.981935130432248" lon="5.65829954110086">
        <ele>631.5999755859375</ele>
        <time>2014-05-21T09:53:17Z</time>
      </trkpt>
      <trkpt lat="43.981967065483332" lon="5.658222930505872">
        <ele>632.20001220703125</ele>
        <time>2014-05-21T09:53:19Z</time>
      </trkpt>
      <trkpt lat="43.982028001919389" lon="5.65801958553493">
        <ele>632.79998779296875</ele>
        <time>2014-05-21T09:53:24Z</time>
      </trkpt>
      <trkpt lat="43.982061110436916" lon="5.657911123707891">
        <ele>633.20001220703125</ele>
        <time>2014-05-21T09:53:27Z</time>
      </trkpt>
      <trkpt lat="43.982091285288334" lon="5.657795704901218">
        <ele>634</ele>
        <time>2014-05-21T09:53:30Z</time>
      </trkpt>
      <trkpt lat="43.98213654756546" lon="5.65756268799305">
        <ele>635.20001220703125</ele>
        <time>2014-05-21T09:53:36Z</time>
      </trkpt>
      <trkpt lat="43.982183989137411" lon="5.657254988327622">
        <ele>636.4000244140625</ele>
        <time>2014-05-21T09:53:43Z</time>
      </trkpt>
      <trkpt lat="43.982227072119713" lon="5.656942678615451">
        <ele>637.5999755859375</ele>
        <time>2014-05-21T09:53:50Z</time>
      </trkpt>
      <trkpt lat="43.982251128181815" lon="5.656716283410788">
        <ele>638.5999755859375</ele>
        <time>2014-05-21T09:53:55Z</time>
      </trkpt>
      <trkpt lat="43.982274094596505" lon="5.656551998108625">
        <ele>639.20001220703125</ele>
        <time>2014-05-21T09:53:59Z</time>
      </trkpt>
      <trkpt lat="43.982286499813199" lon="5.656427945941687">
        <ele>639.79998779296875</ele>
        <time>2014-05-21T09:54:02Z</time>
      </trkpt>
      <trkpt lat="43.982308125123382" lon="5.656209597364068">
        <ele>640.4000244140625</ele>
        <time>2014-05-21T09:54:07Z</time>
      </trkpt>
      <trkpt lat="43.982327403500676" lon="5.656087892130017">
        <ele>641</ele>
        <time>2014-05-21T09:54:10Z</time>
      </trkpt>
      <trkpt lat="43.982344921678305" lon="5.655924696475267">
        <ele>641.5999755859375</ele>
        <time>2014-05-21T09:54:14Z</time>
      </trkpt>
      <trkpt lat="43.98235447704792" lon="5.655838781967759">
        <ele>642</ele>
        <time>2014-05-21T09:54:16Z</time>
      </trkpt>
      <trkpt lat="43.982367385178804" lon="5.655669299885631">
        <ele>642.5999755859375</ele>
        <time>2014-05-21T09:54:20Z</time>
      </trkpt>
      <trkpt lat="43.982378533110023" lon="5.655556144192815">
        <ele>643.20001220703125</ele>
        <time>2014-05-21T09:54:23Z</time>
      </trkpt>
      <trkpt lat="43.982405103743076" lon="5.655403258278966">
        <ele>644</ele>
        <time>2014-05-21T09:54:27Z</time>
      </trkpt>
      <trkpt lat="43.982410971075296" lon="5.655364785343409">
        <ele>644.20001220703125</ele>
        <time>2014-05-21T09:54:28Z</time>
      </trkpt>
      <trkpt lat="43.98243410512805" lon="5.655172001570463">
        <ele>645.20001220703125</ele>
        <time>2014-05-21T09:54:33Z</time>
      </trkpt>
      <trkpt lat="43.982434859499335" lon="5.65513419918716">
        <ele>645.20001220703125</ele>
        <time>2014-05-21T09:54:34Z</time>
      </trkpt>
      <trkpt lat="43.982457742094994" lon="5.654937643557787">
        <ele>646</ele>
        <time>2014-05-21T09:54:39Z</time>
      </trkpt>
      <trkpt lat="43.982461513951421" lon="5.654898583889008">
        <ele>646.20001220703125</ele>
        <time>2014-05-21T09:54:40Z</time>
      </trkpt>
      <trkpt lat="43.982485234737396" lon="5.65465877763927">
        <ele>647</ele>
        <time>2014-05-21T09:54:46Z</time>
      </trkpt>
      <trkpt lat="43.982495712116361" lon="5.654579820111394">
        <ele>647.4000244140625</ele>
        <time>2014-05-21T09:54:48Z</time>
      </trkpt>
      <trkpt lat="43.982509709894657" lon="5.654356107115746">
        <ele>648.20001220703125</ele>
        <time>2014-05-21T09:54:53Z</time>
      </trkpt>
      <trkpt lat="43.982514319941401" lon="5.654311599209905">
        <ele>648.4000244140625</ele>
        <time>2014-05-21T09:54:54Z</time>
      </trkpt>
      <trkpt lat="43.982554217800498" lon="5.654003899544478">
        <ele>649.20001220703125</ele>
        <time>2014-05-21T09:55:01Z</time>
      </trkpt>
      <trkpt lat="43.982567712664604" lon="5.653910525143147">
        <ele>649.5999755859375</ele>
        <time>2014-05-21T09:55:03Z</time>
      </trkpt>
      <trkpt lat="43.98261733353138" lon="5.65369519405067">
        <ele>650.5999755859375</ele>
        <time>2014-05-21T09:55:08Z</time>
      </trkpt>
      <trkpt lat="43.982643904164433" lon="5.65360969863832">
        <ele>651</ele>
        <time>2014-05-21T09:55:10Z</time>
      </trkpt>
      <trkpt lat="43.982691932469606" lon="5.653477432206273">
        <ele>651.79998779296875</ele>
        <time>2014-05-21T09:55:13Z</time>
      </trkpt>
      <trkpt lat="43.98278346285224" lon="5.653272327035666">
        <ele>652.79998779296875</ele>
        <time>2014-05-21T09:55:18Z</time>
      </trkpt>
      <trkpt lat="43.982800142839551" lon="5.653237709775567">
        <ele>653.20001220703125</ele>
        <time>2014-05-21T09:55:19Z</time>
      </trkpt>
      <trkpt lat="43.982902485877275" lon="5.653071748092771">
        <ele>654</ele>
        <time>2014-05-21T09:55:24Z</time>
      </trkpt>
      <trkpt lat="43.982965350151062" lon="5.652971919625998">
        <ele>654.4000244140625</ele>
        <time>2014-05-21T09:55:27Z</time>
      </trkpt>
      <trkpt lat="43.98303123190999" lon="5.652873432263732">
        <ele>655</ele>
        <time>2014-05-21T09:55:30Z</time>
      </trkpt>
      <trkpt lat="43.983144219964743" lon="5.652714343741536">
        <ele>655.4000244140625</ele>
        <time>2014-05-21T09:55:35Z</time>
      </trkpt>
      <trkpt lat="43.98323742672801" lon="5.652593476697803">
        <ele>656</ele>
        <time>2014-05-21T09:55:39Z</time>
      </trkpt>
      <trkpt lat="43.98334052413702" lon="5.65246632322669">
        <ele>656.20001220703125</ele>
        <time>2014-05-21T09:55:43Z</time>
      </trkpt>
      <trkpt lat="43.983554849401116" lon="5.652177566662431">
        <ele>657</ele>
        <time>2014-05-21T09:55:51Z</time>
      </trkpt>
      <trkpt lat="43.983581587672234" lon="5.652135154232383">
        <ele>657.20001220703125</ele>
        <time>2014-05-21T09:55:52Z</time>
      </trkpt>
      <trkpt lat="43.983760038390756" lon="5.651923175901175">
        <ele>657.79998779296875</ele>
        <time>2014-05-21T09:55:58Z</time>
      </trkpt>
      <trkpt lat="43.983916360884905" lon="5.651746317744255">
        <ele>658.4000244140625</ele>
        <time>2014-05-21T09:56:03Z</time>
      </trkpt>
      <trkpt lat="43.984013926237822" lon="5.651652775704861">
        <ele>658.5999755859375</ele>
        <time>2014-05-21T09:56:06Z</time>
      </trkpt>
      <trkpt lat="43.984305113554001" lon="5.651387320831418">
        <ele>659.20001220703125</ele>
        <time>2014-05-21T09:56:15Z</time>
      </trkpt>
      <trkpt lat="43.984361020848155" lon="5.651330156251788">
        <ele>659.4000244140625</ele>
        <time>2014-05-21T09:56:17Z</time>
      </trkpt>
      <trkpt lat="43.984454143792391" lon="5.651235524564982">
        <ele>660</ele>
        <time>2014-05-21T09:56:21Z</time>
      </trkpt>
      <trkpt lat="43.98461683653295" lon="5.651099737733603">
        <ele>660.5999755859375</ele>
        <time>2014-05-21T09:56:26Z</time>
      </trkpt>
      <trkpt lat="43.98468573577702" lon="5.651045087724924">
        <ele>660.5999755859375</ele>
        <time>2014-05-21T09:56:28Z</time>
      </trkpt>
      <trkpt lat="43.984973486512899" lon="5.650825146585703">
        <ele>661.5999755859375</ele>
        <time>2014-05-21T09:56:36Z</time>
      </trkpt>
      <trkpt lat="43.985007768496871" lon="5.650797486305237">
        <ele>661.5999755859375</ele>
        <time>2014-05-21T09:56:37Z</time>
      </trkpt>
      <trkpt lat="43.98518655449152" lon="5.650655413046479">
        <ele>662</ele>
        <time>2014-05-21T09:56:42Z</time>
      </trkpt>
      <trkpt lat="43.985428623855114" lon="5.650445697829127">
        <ele>662</ele>
        <time>2014-05-21T09:56:49Z</time>
      </trkpt>
      <trkpt lat="43.985457625240088" lon="5.650403872132301">
        <ele>662</ele>
        <time>2014-05-21T09:56:50Z</time>
      </trkpt>
      <trkpt lat="43.985479502007365" lon="5.65024352632463">
        <ele>662</ele>
        <time>2014-05-21T09:56:53Z</time>
      </trkpt>
      <trkpt lat="43.985437257215381" lon="5.650077983736992">
        <ele>662.20001220703125</ele>
        <time>2014-05-21T09:56:56Z</time>
      </trkpt>
      <trkpt lat="43.985405741259456" lon="5.649969773367047">
        <ele>662.20001220703125</ele>
        <time>2014-05-21T09:56:58Z</time>
      </trkpt>
      <trkpt lat="43.985351175069809" lon="5.649820743128657">
        <ele>662.79998779296875</ele>
        <time>2014-05-21T09:57:01Z</time>
      </trkpt>
      <trkpt lat="43.985313875600696" lon="5.649676322937012">
        <ele>663.5999755859375</ele>
        <time>2014-05-21T09:57:04Z</time>
      </trkpt>
      <trkpt lat="43.985309014096856" lon="5.649626534432173">
        <ele>663.79998779296875</ele>
        <time>2014-05-21T09:57:05Z</time>
      </trkpt>
      <trkpt lat="43.985240198671818" lon="5.649404330179095">
        <ele>664.4000244140625</ele>
        <time>2014-05-21T09:57:10Z</time>
      </trkpt>
      <trkpt lat="43.985206922516227" lon="5.649274829775095">
        <ele>665</ele>
        <time>2014-05-21T09:57:13Z</time>
      </trkpt>
      <trkpt lat="43.985144728794694" lon="5.649092691019177">
        <ele>665.5999755859375</ele>
        <time>2014-05-21T09:57:18Z</time>
      </trkpt>
      <trkpt lat="43.985119247809052" lon="5.649015409871936">
        <ele>666.20001220703125</ele>
        <time>2014-05-21T09:57:20Z</time>
      </trkpt>
      <trkpt lat="43.98506828583777" lon="5.648890770971775">
        <ele>667.20001220703125</ele>
        <time>2014-05-21T09:57:23Z</time>
      </trkpt>
      <trkpt lat="43.985005840659142" lon="5.648621628060937">
        <ele>668</ele>
        <time>2014-05-21T09:57:29Z</time>
      </trkpt>
      <trkpt lat="43.984988741576672" lon="5.64857829362154">
        <ele>668.20001220703125</ele>
        <time>2014-05-21T09:57:30Z</time>
      </trkpt>
      <trkpt lat="43.984919004142284" lon="5.648340918123722">
        <ele>669.4000244140625</ele>
        <time>2014-05-21T09:57:35Z</time>
      </trkpt>
      <trkpt lat="43.984812553972006" lon="5.648001283407211">
        <ele>670</ele>
        <time>2014-05-21T09:57:43Z</time>
      </trkpt>
      <trkpt lat="43.984767543151975" lon="5.647877817973495">
        <ele>670.5999755859375</ele>
        <time>2014-05-21T09:57:46Z</time>
      </trkpt>
      <trkpt lat="43.984708953648806" lon="5.647707413882017">
        <ele>671.20001220703125</ele>
        <time>2014-05-21T09:57:50Z</time>
      </trkpt>
      <trkpt lat="43.984540393576026" lon="5.647335425019264">
        <ele>671.4000244140625</ele>
        <time>2014-05-21T09:57:59Z</time>
      </trkpt>
      <trkpt lat="43.984496891498566" lon="5.647260490804911">
        <ele>671.79998779296875</ele>
        <time>2014-05-21T09:58:01Z</time>
      </trkpt>
      <trkpt lat="43.984399074688554" lon="5.647064186632633">
        <ele>671.79998779296875</ele>
        <time>2014-05-21T09:58:06Z</time>
      </trkpt>
      <trkpt lat="43.984214588999748" lon="5.646753385663033">
        <ele>672.4000244140625</ele>
        <time>2014-05-21T09:58:15Z</time>
      </trkpt>
      <trkpt lat="43.984149964526296" lon="5.646670656278729">
        <ele>673</ele>
        <time>2014-05-21T09:58:18Z</time>
      </trkpt>
      <trkpt lat="43.984071677550673" lon="5.646599913015962">
        <ele>673.79998779296875</ele>
        <time>2014-05-21T09:58:21Z</time>
      </trkpt>
      <trkpt lat="43.984016943722963" lon="5.646556662395597">
        <ele>674.4000244140625</ele>
        <time>2014-05-21T09:58:23Z</time>
      </trkpt>
      <trkpt lat="43.983876379206777" lon="5.646489690989256">
        <ele>675.4000244140625</ele>
        <time>2014-05-21T09:58:28Z</time>
      </trkpt>
      <trkpt lat="43.983733467757702" lon="5.646419618278742">
        <ele>676.5999755859375</ele>
        <time>2014-05-21T09:58:33Z</time>
      </trkpt>
      <trkpt lat="43.983647050336003" lon="5.646399753168225">
        <ele>676.5999755859375</ele>
        <time>2014-05-21T09:58:36Z</time>
      </trkpt>
      <trkpt lat="43.983532218262553" lon="5.646348455920816">
        <ele>677.5999755859375</ele>
        <time>2014-05-21T09:58:41Z</time>
      </trkpt>
      <trkpt lat="43.983484776690602" lon="5.646332865580916">
        <ele>678</ele>
        <time>2014-05-21T09:58:43Z</time>
      </trkpt>
      <trkpt lat="43.983367262408137" lon="5.646297661587596">
        <ele>678.79998779296875</ele>
        <time>2014-05-21T09:58:48Z</time>
      </trkpt>
      <trkpt lat="43.983307415619493" lon="5.646272851154208">
        <ele>679.5999755859375</ele>
        <time>2014-05-21T09:58:51Z</time>
      </trkpt>
      <trkpt lat="43.983178921043873" lon="5.646219961345196">
        <ele>680</ele>
        <time>2014-05-21T09:58:57Z</time>
      </trkpt>
      <trkpt lat="43.9831567928195" lon="5.646215854212642">
        <ele>680.4000244140625</ele>
        <time>2014-05-21T09:58:58Z</time>
      </trkpt>
      <trkpt lat="43.983115302398801" lon="5.646195402368903">
        <ele>681</ele>
        <time>2014-05-21T09:59:00Z</time>
      </trkpt>
      <trkpt lat="43.983013210818172" lon="5.646168831735849">
        <ele>682.20001220703125</ele>
        <time>2014-05-21T09:59:05Z</time>
      </trkpt>
      <trkpt lat="43.982931151986122" lon="5.646142680197954">
        <ele>682.4000244140625</ele>
        <time>2014-05-21T09:59:10Z</time>
      </trkpt>
      <trkpt lat="43.982867617160082" lon="5.646114265546203">
        <ele>683.20001220703125</ele>
        <time>2014-05-21T09:59:14Z</time>
      </trkpt>
      <trkpt lat="43.982802825048566" lon="5.64609456807375">
        <ele>684.20001220703125</ele>
        <time>2014-05-21T09:59:18Z</time>
      </trkpt>
      <trkpt lat="43.982767956331372" lon="5.646089790388942">
        <ele>684.4000244140625</ele>
        <time>2014-05-21T09:59:20Z</time>
      </trkpt>
      <trkpt lat="43.982628900557756" lon="5.646077888086438">
        <ele>685.4000244140625</ele>
        <time>2014-05-21T09:59:27Z</time>
      </trkpt>
      <trkpt lat="43.982460340484977" lon="5.646079648286104">
        <ele>686</ele>
        <time>2014-05-21T09:59:35Z</time>
      </trkpt>
      <trkpt lat="43.982366127893329" lon="5.646087778732181">
        <ele>686.79998779296875</ele>
        <time>2014-05-21T09:59:40Z</time>
      </trkpt>
      <trkpt lat="43.982305945828557" lon="5.646110745146871">
        <ele>687.4000244140625</ele>
        <time>2014-05-21T09:59:43Z</time>
      </trkpt>
      <trkpt lat="43.982156831771135" lon="5.646123318001628">
        <ele>688</ele>
        <time>2014-05-21T09:59:50Z</time>
      </trkpt>
      <trkpt lat="43.982011657208204" lon="5.646127425134182">
        <ele>689.4000244140625</ele>
        <time>2014-05-21T09:59:56Z</time>
      </trkpt>
      <trkpt lat="43.981964802369475" lon="5.646128850057721">
        <ele>690.5999755859375</ele>
        <time>2014-05-21T09:59:58Z</time>
      </trkpt>
      <trkpt lat="43.981882324442267" lon="5.64613563939929">
        <ele>690</ele>
        <time>2014-05-21T10:00:02Z</time>
      </trkpt>
      <trkpt lat="43.981742849573493" lon="5.646146032959223">
        <ele>690.5999755859375</ele>
        <time>2014-05-21T10:00:09Z</time>
      </trkpt>
      <trkpt lat="43.981614103540778" lon="5.646132621914148">
        <ele>691.4000244140625</ele>
        <time>2014-05-21T10:00:15Z</time>
      </trkpt>
      <trkpt lat="43.981569344177842" lon="5.64611803740263">
        <ele>691.79998779296875</ele>
        <time>2014-05-21T10:00:17Z</time>
      </trkpt>
      <trkpt lat="43.981455350294709" lon="5.646075205877423">
        <ele>692.79998779296875</ele>
        <time>2014-05-21T10:00:23Z</time>
      </trkpt>
      <trkpt lat="43.981393240392208" lon="5.645916787907481">
        <ele>693.5999755859375</ele>
        <time>2014-05-21T10:00:29Z</time>
      </trkpt>
      <trkpt lat="43.981370190158486" lon="5.645825592800975">
        <ele>693.79998779296875</ele>
        <time>2014-05-21T10:00:32Z</time>
      </trkpt>
      <trkpt lat="43.981338003650308" lon="5.645717717707157">
        <ele>694.20001220703125</ele>
        <time>2014-05-21T10:00:36Z</time>
      </trkpt>
      <trkpt lat="43.981328867375851" lon="5.645639011636376">
        <ele>695.20001220703125</ele>
        <time>2014-05-21T10:00:39Z</time>
      </trkpt>
      <trkpt lat="43.981317887082696" lon="5.645512780174613">
        <ele>695.5999755859375</ele>
        <time>2014-05-21T10:00:43Z</time>
      </trkpt>
      <trkpt lat="43.981306487694383" lon="5.645438935607672">
        <ele>696.20001220703125</ele>
        <time>2014-05-21T10:00:45Z</time>
      </trkpt>
      <trkpt lat="43.981249323114753" lon="5.645203907042742">
        <ele>696.79998779296875</ele>
        <time>2014-05-21T10:00:52Z</time>
      </trkpt>
      <trkpt lat="43.981221998110414" lon="5.645138612017036">
        <ele>697.20001220703125</ele>
        <time>2014-05-21T10:00:54Z</time>
      </trkpt>
      <trkpt lat="43.98114119656384" lon="5.644972817972302">
        <ele>697.79998779296875</ele>
        <time>2014-05-21T10:00:59Z</time>
      </trkpt>
      <trkpt lat="43.981024352833629" lon="5.644824709743261">
        <ele>698.4000244140625</ele>
        <time>2014-05-21T10:01:04Z</time>
      </trkpt>
      <trkpt lat="43.980945562943816" lon="5.644745752215385">
        <ele>698.79998779296875</ele>
        <time>2014-05-21T10:01:07Z</time>
      </trkpt>
      <trkpt lat="43.980871215462685" lon="5.644667968153954">
        <ele>699.4000244140625</ele>
        <time>2014-05-21T10:01:10Z</time>
      </trkpt>
      <trkpt lat="43.980713216587901" lon="5.644575515761972">
        <ele>700.4000244140625</ele>
        <time>2014-05-21T10:01:16Z</time>
      </trkpt>
      <trkpt lat="43.980629649013281" lon="5.64456227235496">
        <ele>700.5999755859375</ele>
        <time>2014-05-21T10:01:19Z</time>
      </trkpt>
      <trkpt lat="43.98052554577589" lon="5.6445446703583">
        <ele>701.4000244140625</ele>
        <time>2014-05-21T10:01:23Z</time>
      </trkpt>
      <trkpt lat="43.980359248816967" lon="5.644552214071155">
        <ele>701.79998779296875</ele>
        <time>2014-05-21T10:01:30Z</time>
      </trkpt>
      <trkpt lat="43.980338042601943" lon="5.644557997584343">
        <ele>702.20001220703125</ele>
        <time>2014-05-21T10:01:31Z</time>
      </trkpt>
      <trkpt lat="43.980259923264384" lon="5.644570654258132">
        <ele>703</ele>
        <time>2014-05-21T10:01:35Z</time>
      </trkpt>
      <trkpt lat="43.980245338752866" lon="5.644577275961638">
        <ele>703.20001220703125</ele>
        <time>2014-05-21T10:01:36Z</time>
      </trkpt>
      <trkpt lat="43.980132099241018" lon="5.6446154974401">
        <ele>704</ele>
        <time>2014-05-21T10:01:42Z</time>
      </trkpt>
      <trkpt lat="43.980115335434675" lon="5.6446223706007">
        <ele>704.20001220703125</ele>
        <time>2014-05-21T10:01:43Z</time>
      </trkpt>
      <trkpt lat="43.979939064010978" lon="5.644689928740263">
        <ele>705.20001220703125</ele>
        <time>2014-05-21T10:01:50Z</time>
      </trkpt>
      <trkpt lat="43.979798331856728" lon="5.644754050299525">
        <ele>706.4000244140625</ele>
        <time>2014-05-21T10:01:56Z</time>
      </trkpt>
      <trkpt lat="43.97977058775723" lon="5.644763521850109">
        <ele>706.5999755859375</ele>
        <time>2014-05-21T10:01:57Z</time>
      </trkpt>
      <trkpt lat="43.97954729385674" lon="5.64484566450119">
        <ele>707.20001220703125</ele>
        <time>2014-05-21T10:02:04Z</time>
      </trkpt>
      <trkpt lat="43.979433048516512" lon="5.644882712513208">
        <ele>707.5999755859375</ele>
        <time>2014-05-21T10:02:08Z</time>
      </trkpt>
      <trkpt lat="43.979326598346233" lon="5.644898302853108">
        <ele>708.79998779296875</ele>
        <time>2014-05-21T10:02:12Z</time>
      </trkpt>
      <trkpt lat="43.979229368269444" lon="5.644930154085159">
        <ele>709.20001220703125</ele>
        <time>2014-05-21T10:04:02Z</time>
      </trkpt>
      <trkpt lat="43.979065921157598" lon="5.64491992816329">
        <ele>709.79998779296875</ele>
        <time>2014-05-21T10:04:08Z</time>
      </trkpt>
      <trkpt lat="43.979039266705513" lon="5.644923532381654">
        <ele>710</ele>
        <time>2014-05-21T10:04:09Z</time>
      </trkpt>
      <trkpt lat="43.978887218981981" lon="5.644939374178648">
        <ele>711</ele>
        <time>2014-05-21T10:04:15Z</time>
      </trkpt>
      <trkpt lat="43.978854864835739" lon="5.644956724718213">
        <ele>711.20001220703125</ele>
        <time>2014-05-21T10:04:16Z</time>
      </trkpt>
      <trkpt lat="43.978710444644094" lon="5.644962508231401">
        <ele>711.4000244140625</ele>
        <time>2014-05-21T10:04:21Z</time>
      </trkpt>
      <trkpt lat="43.978569880127907" lon="5.64498245716095">
        <ele>712.20001220703125</ele>
        <time>2014-05-21T10:04:26Z</time>
      </trkpt>
      <trkpt lat="43.978540124371648" lon="5.644983379170299">
        <ele>712.20001220703125</ele>
        <time>2014-05-21T10:04:27Z</time>
      </trkpt>
      <trkpt lat="43.978320099413395" lon="5.644963849335909">
        <ele>711.79998779296875</ele>
        <time>2014-05-21T10:04:34Z</time>
      </trkpt>
      <trkpt lat="43.978044502437115" lon="5.644888579845429">
        <ele>712.79998779296875</ele>
        <time>2014-05-21T10:04:43Z</time>
      </trkpt>
      <trkpt lat="43.977987505495548" lon="5.644857650622726">
        <ele>713.4000244140625</ele>
        <time>2014-05-21T10:04:45Z</time>
      </trkpt>
      <trkpt lat="43.977903518825769" lon="5.644750026986003">
        <ele>713</ele>
        <time>2014-05-21T10:04:49Z</time>
      </trkpt>
      <trkpt lat="43.977766893804073" lon="5.644478369504213">
        <ele>714.20001220703125</ele>
        <time>2014-05-21T10:04:57Z</time>
      </trkpt>
      <trkpt lat="43.977751806378365" lon="5.644440399482846">
        <ele>714.4000244140625</ele>
        <time>2014-05-21T10:04:58Z</time>
      </trkpt>
      <trkpt lat="43.977651810273528" lon="5.644188188016415">
        <ele>715.79998779296875</ele>
        <time>2014-05-21T10:05:04Z</time>
      </trkpt>
      <trkpt lat="43.977582743391395" lon="5.644022896885872">
        <ele>717</ele>
        <time>2014-05-21T10:05:08Z</time>
      </trkpt>
      <trkpt lat="43.977495487779379" lon="5.643867161124945">
        <ele>717.20001220703125</ele>
        <time>2014-05-21T10:05:12Z</time>
      </trkpt>
      <trkpt lat="43.977300859987736" lon="5.643557868897915">
        <ele>717.79998779296875</ele>
        <time>2014-05-21T10:05:20Z</time>
      </trkpt>
      <trkpt lat="43.977193487808108" lon="5.64338956028223">
        <ele>718.20001220703125</ele>
        <time>2014-05-21T10:05:24Z</time>
      </trkpt>
      <trkpt lat="43.9771075733006" lon="5.643258718773723">
        <ele>718.20001220703125</ele>
        <time>2014-05-21T10:05:27Z</time>
      </trkpt>
      <trkpt lat="43.976918393746018" lon="5.643076496198773">
        <ele>718</ele>
        <time>2014-05-21T10:05:33Z</time>
      </trkpt>
      <trkpt lat="43.976798029616475" lon="5.642970213666558">
        <ele>717.79998779296875</ele>
        <time>2014-05-21T10:05:37Z</time>
      </trkpt>
      <trkpt lat="43.976707840338349" lon="5.64289360307157">
        <ele>719.20001220703125</ele>
        <time>2014-05-21T10:05:40Z</time>
      </trkpt>
      <trkpt lat="43.976575657725334" lon="5.642799809575081">
        <ele>720.20001220703125</ele>
        <time>2014-05-21T10:05:44Z</time>
      </trkpt>
      <trkpt lat="43.976543890312314" lon="5.642775753512979">
        <ele>720.4000244140625</ele>
        <time>2014-05-21T10:05:45Z</time>
      </trkpt>
      <trkpt lat="43.976356890052557" lon="5.642630914226174">
        <ele>721.4000244140625</ele>
        <time>2014-05-21T10:05:51Z</time>
      </trkpt>
      <trkpt lat="43.976285308599472" lon="5.642589759081602">
        <ele>721.79998779296875</ele>
        <time>2014-05-21T10:05:53Z</time>
      </trkpt>
      <trkpt lat="43.976041227579117" lon="5.64243427477777">
        <ele>722.79998779296875</ele>
        <time>2014-05-21T10:06:00Z</time>
      </trkpt>
      <trkpt lat="43.97600719705224" lon="5.642415247857571">
        <ele>723.79998779296875</ele>
        <time>2014-05-21T10:06:01Z</time>
      </trkpt>
      <trkpt lat="43.975817179307342" lon="5.642350455746055">
        <ele>724.79998779296875</ele>
        <time>2014-05-21T10:06:06Z</time>
      </trkpt>
      <trkpt lat="43.975779041647911" lon="5.642339726909995">
        <ele>724.79998779296875</ele>
        <time>2014-05-21T10:06:07Z</time>
      </trkpt>
      <trkpt lat="43.975710980594158" lon="5.642317095771432">
        <ele>726</ele>
        <time>2014-05-21T10:06:09Z</time>
      </trkpt>
      <trkpt lat="43.975582318380475" lon="5.642267810180783">
        <ele>726.79998779296875</ele>
        <time>2014-05-21T10:06:13Z</time>
      </trkpt>
      <trkpt lat="43.975491123273969" lon="5.642247861251235">
        <ele>727</ele>
        <time>2014-05-21T10:06:16Z</time>
      </trkpt>
      <trkpt lat="43.975387271493673" lon="5.642257081344724">
        <ele>727.79998779296875</ele>
        <time>2014-05-21T10:06:19Z</time>
      </trkpt>
      <trkpt lat="43.975257771089673" lon="5.642248364165425">
        <ele>728.20001220703125</ele>
        <time>2014-05-21T10:06:23Z</time>
      </trkpt>
      <trkpt lat="43.975154841318727" lon="5.642227409407497">
        <ele>728.20001220703125</ele>
        <time>2014-05-21T10:06:26Z</time>
      </trkpt>
      <trkpt lat="43.974997596815228" lon="5.64218994230032">
        <ele>729.20001220703125</ele>
        <time>2014-05-21T10:06:31Z</time>
      </trkpt>
      <trkpt lat="43.974964488297701" lon="5.642188182100654">
        <ele>729.4000244140625</ele>
        <time>2014-05-21T10:06:32Z</time>
      </trkpt>
      <trkpt lat="43.974820068106055" lon="5.64217334613204">
        <ele>730.4000244140625</ele>
        <time>2014-05-21T10:06:37Z</time>
      </trkpt>
      <trkpt lat="43.974645473062992" lon="5.642102099955082">
        <ele>731.5999755859375</ele>
        <time>2014-05-21T10:06:44Z</time>
      </trkpt>
      <trkpt lat="43.974546818062663" lon="5.641959104686976">
        <ele>732.5999755859375</ele>
        <time>2014-05-21T10:06:50Z</time>
      </trkpt>
      <trkpt lat="43.974430309608579" lon="5.641784425824881">
        <ele>733.79998779296875</ele>
        <time>2014-05-21T10:06:57Z</time>
      </trkpt>
      <trkpt lat="43.974410947412252" lon="5.641767159104347">
        <ele>734</ele>
        <time>2014-05-21T10:06:58Z</time>
      </trkpt>
      <trkpt lat="43.974317237734795" lon="5.641620475798845">
        <ele>734.4000244140625</ele>
        <time>2014-05-21T10:07:04Z</time>
      </trkpt>
      <trkpt lat="43.974220007658005" lon="5.641517378389835">
        <ele>735</ele>
        <time>2014-05-21T10:07:09Z</time>
      </trkpt>
      <trkpt lat="43.974201986566186" lon="5.641491310670972">
        <ele>735.4000244140625</ele>
        <time>2014-05-21T10:07:10Z</time>
      </trkpt>
      <trkpt lat="43.974044993519783" lon="5.641391901299357">
        <ele>736.20001220703125</ele>
        <time>2014-05-21T10:07:16Z</time>
      </trkpt>
      <trkpt lat="43.97391390055418" lon="5.641274973750114">
        <ele>737</ele>
        <time>2014-05-21T10:07:21Z</time>
      </trkpt>
      <trkpt lat="43.973868386819959" lon="5.641232645139098">
        <ele>737.20001220703125</ele>
        <time>2014-05-21T10:07:23Z</time>
      </trkpt>
      <trkpt lat="43.973810132592916" lon="5.641189981251955">
        <ele>737.5999755859375</ele>
        <time>2014-05-21T10:07:26Z</time>
      </trkpt>
      <trkpt lat="43.97373553365469" lon="5.641115549951792">
        <ele>738.20001220703125</ele>
        <time>2014-05-21T10:07:30Z</time>
      </trkpt>
      <trkpt lat="43.973654061555862" lon="5.641050757840276">
        <ele>739</ele>
        <time>2014-05-21T10:07:34Z</time>
      </trkpt>
      <trkpt lat="43.973588598892093" lon="5.640998035669327">
        <ele>739.4000244140625</ele>
        <time>2014-05-21T10:07:37Z</time>
      </trkpt>
      <trkpt lat="43.973476700484753" lon="5.640909690409899">
        <ele>739.5999755859375</ele>
        <time>2014-05-21T10:07:42Z</time>
      </trkpt>
      <trkpt lat="43.973358934745193" lon="5.640825033187866">
        <ele>740.5999755859375</ele>
        <time>2014-05-21T10:07:47Z</time>
      </trkpt>
      <trkpt lat="43.973279977217317" lon="5.640778681263328">
        <ele>741.20001220703125</ele>
        <time>2014-05-21T10:07:50Z</time>
      </trkpt>
      <trkpt lat="43.973108986392617" lon="5.640655132010579">
        <ele>741.5999755859375</ele>
        <time>2014-05-21T10:07:57Z</time>
      </trkpt>
      <trkpt lat="43.973066238686442" lon="5.640632249414921">
        <ele>742.20001220703125</ele>
        <time>2014-05-21T10:07:59Z</time>
      </trkpt>
      <trkpt lat="43.972945036366582" lon="5.640559662133455">
        <ele>742.79998779296875</ele>
        <time>2014-05-21T10:08:04Z</time>
      </trkpt>
      <trkpt lat="43.972890973091125" lon="5.640527475625277">
        <ele>743</ele>
        <time>2014-05-21T10:08:06Z</time>
      </trkpt>
      <trkpt lat="43.972705733031034" lon="5.640436196699739">
        <ele>742.20001220703125</ele>
        <time>2014-05-21T10:08:12Z</time>
      </trkpt>
      <trkpt lat="43.972545890137553" lon="5.640467796474695">
        <ele>743.4000244140625</ele>
        <time>2014-05-21T10:08:18Z</time>
      </trkpt>
      <trkpt lat="43.972438937053084" lon="5.640618251636624">
        <ele>744</ele>
        <time>2014-05-21T10:08:23Z</time>
      </trkpt>
      <trkpt lat="43.972421837970614" lon="5.640656724572182">
        <ele>744.20001220703125</ele>
        <time>2014-05-21T10:08:24Z</time>
      </trkpt>
      <trkpt lat="43.972383700311184" lon="5.640821931883693">
        <ele>745</ele>
        <time>2014-05-21T10:08:28Z</time>
      </trkpt>
      <trkpt lat="43.97236886434257" lon="5.640864092856646">
        <ele>745.20001220703125</ele>
        <time>2014-05-21T10:08:29Z</time>
      </trkpt>
      <trkpt lat="43.972322177141905" lon="5.641110856086016">
        <ele>745.79998779296875</ele>
        <time>2014-05-21T10:08:35Z</time>
      </trkpt>
      <trkpt lat="43.972213212400675" lon="5.641220072284341">
        <ele>746</ele>
        <time>2014-05-21T10:08:39Z</time>
      </trkpt>
      <trkpt lat="43.972174823284149" lon="5.641224598512054">
        <ele>746</ele>
        <time>2014-05-21T10:08:40Z</time>
      </trkpt>
      <trkpt lat="43.972027972340584" lon="5.64116626046598">
        <ele>746.5999755859375</ele>
        <time>2014-05-21T10:08:45Z</time>
      </trkpt>
      <trkpt lat="43.971908865496516" lon="5.641035921871662">
        <ele>747</ele>
        <time>2014-05-21T10:08:51Z</time>
      </trkpt>
      <trkpt lat="43.971881959587336" lon="5.641022091731429">
        <ele>747</ele>
        <time>2014-05-21T10:08:52Z</time>
      </trkpt>
      <trkpt lat="43.971751788631082" lon="5.640970543026924">
        <ele>747.5999755859375</ele>
        <time>2014-05-21T10:08:57Z</time>
      </trkpt>
      <trkpt lat="43.971707448363304" lon="5.640964424237609">
        <ele>748.4000244140625</ele>
        <time>2014-05-21T10:08:59Z</time>
      </trkpt>
      <trkpt lat="43.971638465300202" lon="5.640975320711732">
        <ele>748.79998779296875</ele>
        <time>2014-05-21T10:09:03Z</time>
      </trkpt>
      <trkpt lat="43.971533356234431" lon="5.640982110053301">
        <ele>749.4000244140625</ele>
        <time>2014-05-21T10:09:07Z</time>
      </trkpt>
      <trkpt lat="43.971359599381685" lon="5.640910780057311">
        <ele>750.5999755859375</ele>
        <time>2014-05-21T10:09:14Z</time>
      </trkpt>
      <trkpt lat="43.971162373200059" lon="5.640766359865665">
        <ele>751.4000244140625</ele>
        <time>2014-05-21T10:09:23Z</time>
      </trkpt>
      <trkpt lat="43.971090959385037" lon="5.640736855566502">
        <ele>751.5999755859375</ele>
        <time>2014-05-21T10:09:26Z</time>
      </trkpt>
      <trkpt lat="43.970998590812087" lon="5.640690755099058">
        <ele>752.4000244140625</ele>
        <time>2014-05-21T10:09:30Z</time>
      </trkpt>
      <trkpt lat="43.970972187817097" lon="5.640682959929109">
        <ele>752.5999755859375</ele>
        <time>2014-05-21T10:09:31Z</time>
      </trkpt>
      <trkpt lat="43.970878226682544" lon="5.640681283548474">
        <ele>753.5999755859375</ele>
        <time>2014-05-21T10:09:35Z</time>
      </trkpt>
      <trkpt lat="43.970833299681544" lon="5.640699304640293">
        <ele>753.5999755859375</ele>
        <time>2014-05-21T10:09:37Z</time>
      </trkpt>
      <trkpt lat="43.970815949141979" lon="5.64071673899889">
        <ele>753.79998779296875</ele>
        <time>2014-05-21T10:09:38Z</time>
      </trkpt>
      <trkpt lat="43.970805555582047" lon="5.640725372359157">
        <ele>754.20001220703125</ele>
        <time>2014-05-21T10:09:39Z</time>
      </trkpt>
      <trkpt lat="43.970779906958342" lon="5.640740962699056">
        <ele>755.20001220703125</ele>
        <time>2014-05-21T10:09:41Z</time>
      </trkpt>
      <trkpt lat="43.970762807875872" lon="5.640751607716084">
        <ele>755.20001220703125</ele>
        <time>2014-05-21T10:09:42Z</time>
      </trkpt>
      <trkpt lat="43.970643449574709" lon="5.640868786722422">
        <ele>756.20001220703125</ele>
        <time>2014-05-21T10:09:48Z</time>
      </trkpt>
      <trkpt lat="43.970610173419118" lon="5.640888316556811">
        <ele>756.20001220703125</ele>
        <time>2014-05-21T10:09:49Z</time>
      </trkpt>
      <trkpt lat="43.970442870631814" lon="5.640932824462652">
        <ele>757.20001220703125</ele>
        <time>2014-05-21T10:09:54Z</time>
      </trkpt>
      <trkpt lat="43.970410767942667" lon="5.640935506671667">
        <ele>757.4000244140625</ele>
        <time>2014-05-21T10:09:55Z</time>
      </trkpt>
      <trkpt lat="43.970264168456197" lon="5.640915306285024">
        <ele>758.5999755859375</ele>
        <time>2014-05-21T10:10:00Z</time>
      </trkpt>
      <trkpt lat="43.970204656943679" lon="5.640910360962153">
        <ele>758.79998779296875</ele>
        <time>2014-05-21T10:10:02Z</time>
      </trkpt>
      <trkpt lat="43.970039030537009" lon="5.640854453667998">
        <ele>758.79998779296875</ele>
        <time>2014-05-21T10:10:08Z</time>
      </trkpt>
      <trkpt lat="43.969936016947031" lon="5.640804413706064">
        <ele>759.5999755859375</ele>
        <time>2014-05-21T10:10:13Z</time>
      </trkpt>
      <trkpt lat="43.969913218170404" lon="5.640795696526766">
        <ele>760</ele>
        <time>2014-05-21T10:10:14Z</time>
      </trkpt>
      <trkpt lat="43.969752117991447" lon="5.640739873051643">
        <ele>760.5999755859375</ele>
        <time>2014-05-21T10:10:21Z</time>
      </trkpt>
      <trkpt lat="43.969701575115323" lon="5.640726629644632">
        <ele>761</ele>
        <time>2014-05-21T10:10:23Z</time>
      </trkpt>
      <trkpt lat="43.96947761066258" lon="5.640670554712415">
        <ele>761.5999755859375</ele>
        <time>2014-05-21T10:10:31Z</time>
      </trkpt>
      <trkpt lat="43.969449531286955" lon="5.640661837533116">
        <ele>761.79998779296875</ele>
        <time>2014-05-21T10:10:32Z</time>
      </trkpt>
      <trkpt lat="43.969268230721354" lon="5.640625292435288">
        <ele>762.79998779296875</ele>
        <time>2014-05-21T10:10:39Z</time>
      </trkpt>
      <trkpt lat="43.969190446659923" lon="5.640611546114087">
        <ele>762.79998779296875</ele>
        <time>2014-05-21T10:10:42Z</time>
      </trkpt>
      <trkpt lat="43.969063209369779" lon="5.640606433153153">
        <ele>763.5999755859375</ele>
        <time>2014-05-21T10:10:47Z</time>
      </trkpt>
      <trkpt lat="43.969037896022201" lon="5.640609869733453">
        <ele>764</ele>
        <time>2014-05-21T10:10:48Z</time>
      </trkpt>
      <trkpt lat="43.968851482495666" lon="5.640649851411581">
        <ele>764.5999755859375</ele>
        <time>2014-05-21T10:10:55Z</time>
      </trkpt>
      <trkpt lat="43.968812339007854" lon="5.640644570812583">
        <ele>765.20001220703125</ele>
        <time>2014-05-21T10:10:57Z</time>
      </trkpt>
      <trkpt lat="43.9687529951334" lon="5.640655970200896">
        <ele>766.20001220703125</ele>
        <time>2014-05-21T10:11:00Z</time>
      </trkpt>
      <trkpt lat="43.968733716756105" lon="5.640663262456656">
        <ele>766.20001220703125</ele>
        <time>2014-05-21T10:11:01Z</time>
      </trkpt>
      <trkpt lat="43.968705469742417" lon="5.640690084546804">
        <ele>766.4000244140625</ele>
        <time>2014-05-21T10:11:03Z</time>
      </trkpt>
      <trkpt lat="43.96868753246963" lon="5.640730066224933">
        <ele>766.20001220703125</ele>
        <time>2014-05-21T10:11:05Z</time>
      </trkpt>
      <trkpt lat="43.968633636832237" lon="5.640922766178846">
        <ele>767</ele>
        <time>2014-05-21T10:11:10Z</time>
      </trkpt>
      <trkpt lat="43.968625003471971" lon="5.640970123931766">
        <ele>767.20001220703125</ele>
        <time>2014-05-21T10:11:11Z</time>
      </trkpt>
      <trkpt lat="43.968556020408869" lon="5.641118567436934">
        <ele>768</ele>
        <time>2014-05-21T10:11:15Z</time>
      </trkpt>
      <trkpt lat="43.968536993488669" lon="5.641141533851624">
        <ele>768.4000244140625</ele>
        <time>2014-05-21T10:11:16Z</time>
      </trkpt>
      <trkpt lat="43.968454599380493" lon="5.641189478337765">
        <ele>769</ele>
        <time>2014-05-21T10:11:20Z</time>
      </trkpt>
      <trkpt lat="43.96841243840754" lon="5.641207499429584">
        <ele>769.4000244140625</ele>
        <time>2014-05-21T10:11:22Z</time>
      </trkpt>
      <trkpt lat="43.96833373233676" lon="5.641225101426244">
        <ele>770</ele>
        <time>2014-05-21T10:11:26Z</time>
      </trkpt>
      <trkpt lat="43.968294421210885" lon="5.641244547441602">
        <ele>770.5999755859375</ele>
        <time>2014-05-21T10:11:28Z</time>
      </trkpt>
      <trkpt lat="43.968213954940438" lon="5.641353093087673">
        <ele>771.20001220703125</ele>
        <time>2014-05-21T10:11:32Z</time>
      </trkpt>
      <trkpt lat="43.968161903321743" lon="5.641464991495013">
        <ele>771.5999755859375</ele>
        <time>2014-05-21T10:11:36Z</time>
      </trkpt>
      <trkpt lat="43.968149498105049" lon="5.641491478309035">
        <ele>771.79998779296875</ele>
        <time>2014-05-21T10:11:37Z</time>
      </trkpt>
      <trkpt lat="43.968100380152464" lon="5.64162215217948">
        <ele>772.79998779296875</ele>
        <time>2014-05-21T10:11:42Z</time>
      </trkpt>
      <trkpt lat="43.968089316040277" lon="5.641665067523718">
        <ele>773.20001220703125</ele>
        <time>2014-05-21T10:11:44Z</time>
      </trkpt>
      <trkpt lat="43.968046400696039" lon="5.641789119690657">
        <ele>773.79998779296875</ele>
        <time>2014-05-21T10:11:48Z</time>
      </trkpt>
      <trkpt lat="43.968034917488694" lon="5.641814433038235">
        <ele>774.20001220703125</ele>
        <time>2014-05-21T10:11:49Z</time>
      </trkpt>
      <trkpt lat="43.967972807586193" lon="5.641967821866274">
        <ele>775</ele>
        <time>2014-05-21T10:11:55Z</time>
      </trkpt>
      <trkpt lat="43.967959145084023" lon="5.641993721947074">
        <ele>775.20001220703125</ele>
        <time>2014-05-21T10:11:56Z</time>
      </trkpt>
      <trkpt lat="43.967901561409235" lon="5.642061699181795">
        <ele>775.4000244140625</ele>
        <time>2014-05-21T10:11:59Z</time>
      </trkpt>
      <trkpt lat="43.967833835631609" lon="5.642097825184465">
        <ele>776</ele>
        <time>2014-05-21T10:12:02Z</time>
      </trkpt>
      <trkpt lat="43.967710034921765" lon="5.642119366675615">
        <ele>777.20001220703125</ele>
        <time>2014-05-21T10:12:07Z</time>
      </trkpt>
      <trkpt lat="43.967685475945473" lon="5.642126407474279">
        <ele>777.5999755859375</ele>
        <time>2014-05-21T10:12:08Z</time>
      </trkpt>
      <trkpt lat="43.967513144016266" lon="5.642149792984128">
        <ele>778.20001220703125</ele>
        <time>2014-05-21T10:12:14Z</time>
      </trkpt>
      <trkpt lat="43.967461092397571" lon="5.642141746357083">
        <ele>778.5999755859375</ele>
        <time>2014-05-21T10:12:16Z</time>
      </trkpt>
      <trkpt lat="43.967349110171199" lon="5.642112912610173">
        <ele>779.4000244140625</ele>
        <time>2014-05-21T10:12:21Z</time>
      </trkpt>
      <trkpt lat="43.967305943369865" lon="5.642097154632211">
        <ele>779.79998779296875</ele>
        <time>2014-05-21T10:12:23Z</time>
      </trkpt>
      <trkpt lat="43.967230590060353" lon="5.642078127712011">
        <ele>780.5999755859375</ele>
        <time>2014-05-21T10:12:26Z</time>
      </trkpt>
      <trkpt lat="43.967131096869707" lon="5.642054909840226">
        <ele>781.20001220703125</ele>
        <time>2014-05-21T10:12:30Z</time>
      </trkpt>
      <trkpt lat="43.966903276741505" lon="5.642042169347405">
        <ele>781.4000244140625</ele>
        <time>2014-05-21T10:12:39Z</time>
      </trkpt>
      <trkpt lat="43.966852985322475" lon="5.642040325328708">
        <ele>782</ele>
        <time>2014-05-21T10:12:41Z</time>
      </trkpt>
      <trkpt lat="43.966733291745186" lon="5.642031775787473">
        <ele>783.20001220703125</ele>
        <time>2014-05-21T10:12:46Z</time>
      </trkpt>
      <trkpt lat="43.966707391664386" lon="5.642024567350745">
        <ele>783.20001220703125</ele>
        <time>2014-05-21T10:12:47Z</time>
      </trkpt>
      <trkpt lat="43.966538161039352" lon="5.642016101628542">
        <ele>783.20001220703125</ele>
        <time>2014-05-21T10:12:54Z</time>
      </trkpt>
      <trkpt lat="43.96644570864737" lon="5.642009731382132">
        <ele>784.20001220703125</ele>
        <time>2014-05-21T10:12:58Z</time>
      </trkpt>
      <trkpt lat="43.966350825503469" lon="5.642018113285303">
        <ele>784.4000244140625</ele>
        <time>2014-05-21T10:13:02Z</time>
      </trkpt>
      <trkpt lat="43.966258876025677" lon="5.642039487138391">
        <ele>785.4000244140625</ele>
        <time>2014-05-21T10:13:06Z</time>
      </trkpt>
      <trkpt lat="43.966188048943877" lon="5.642056670039892">
        <ele>785.79998779296875</ele>
        <time>2014-05-21T10:13:09Z</time>
      </trkpt>
      <trkpt lat="43.966144798323512" lon="5.642072595655918">
        <ele>786.5999755859375</ele>
        <time>2014-05-21T10:13:11Z</time>
      </trkpt>
      <trkpt lat="43.96608067676425" lon="5.642143255099654">
        <ele>786.79998779296875</ele>
        <time>2014-05-21T10:13:15Z</time>
      </trkpt>
      <trkpt lat="43.966008676216006" lon="5.642268564552069">
        <ele>787.5999755859375</ele>
        <time>2014-05-21T10:13:21Z</time>
      </trkpt>
      <trkpt lat="43.965929802507162" lon="5.642415834590793">
        <ele>787.79998779296875</ele>
        <time>2014-05-21T10:13:28Z</time>
      </trkpt>
      <trkpt lat="43.965914798900485" lon="5.642438717186451">
        <ele>788.20001220703125</ele>
        <time>2014-05-21T10:13:29Z</time>
      </trkpt>
      <trkpt lat="43.96584858186543" lon="5.642586406320334">
        <ele>787.79998779296875</ele>
        <time>2014-05-21T10:13:35Z</time>
      </trkpt>
      <trkpt lat="43.965786891058087" lon="5.642702328041196">
        <ele>789</ele>
        <time>2014-05-21T10:13:40Z</time>
      </trkpt>
      <trkpt lat="43.965741125866771" lon="5.642803916707635">
        <ele>789.4000244140625</ele>
        <time>2014-05-21T10:13:44Z</time>
      </trkpt>
      <trkpt lat="43.965654456987977" lon="5.64297960139811">
        <ele>789.5999755859375</ele>
        <time>2014-05-21T10:13:51Z</time>
      </trkpt>
      <trkpt lat="43.965620594099164" lon="5.643061241135001">
        <ele>790.5999755859375</ele>
        <time>2014-05-21T10:13:54Z</time>
      </trkpt>
      <trkpt lat="43.96559695713222" lon="5.643116980791092">
        <ele>791.20001220703125</ele>
        <time>2014-05-21T10:13:56Z</time>
      </trkpt>
      <trkpt lat="43.965555550530553" lon="5.643189568072557">
        <ele>791.4000244140625</ele>
        <time>2014-05-21T10:13:59Z</time>
      </trkpt>
      <trkpt lat="43.96551288664341" lon="5.643265005201101">
        <ele>791.79998779296875</ele>
        <time>2014-05-21T10:14:02Z</time>
      </trkpt>
      <trkpt lat="43.965466450899839" lon="5.643380843102932">
        <ele>792</ele>
        <time>2014-05-21T10:14:06Z</time>
      </trkpt>
      <trkpt lat="43.965420685708523" lon="5.643483940511942">
        <ele>793.20001220703125</ele>
        <time>2014-05-21T10:14:10Z</time>
      </trkpt>
      <trkpt lat="43.965407609939575" lon="5.643507996574044">
        <ele>793.4000244140625</ele>
        <time>2014-05-21T10:14:11Z</time>
      </trkpt>
      <trkpt lat="43.965330244973302" lon="5.643676389008761">
        <ele>793.79998779296875</ele>
        <time>2014-05-21T10:14:17Z</time>
      </trkpt>
      <trkpt lat="43.965319516137242" lon="5.643703965470195">
        <ele>794.20001220703125</ele>
        <time>2014-05-21T10:14:18Z</time>
      </trkpt>
      <trkpt lat="43.965245923027396" lon="5.643826927989721">
        <ele>794.79998779296875</ele>
        <time>2014-05-21T10:14:23Z</time>
      </trkpt>
      <trkpt lat="43.965195547789335" lon="5.643896497786045">
        <ele>795.20001220703125</ele>
        <time>2014-05-21T10:14:26Z</time>
      </trkpt>
      <trkpt lat="43.965143663808703" lon="5.643951734527946">
        <ele>795.20001220703125</ele>
        <time>2014-05-21T10:14:29Z</time>
      </trkpt>
      <trkpt lat="43.965074932202697" lon="5.644003869965673">
        <ele>796.4000244140625</ele>
        <time>2014-05-21T10:14:33Z</time>
      </trkpt>
      <trkpt lat="43.964990945532918" lon="5.644030524417758">
        <ele>797.20001220703125</ele>
        <time>2014-05-21T10:14:37Z</time>
      </trkpt>
      <trkpt lat="43.96496856585145" lon="5.644034631550312">
        <ele>797.5999755859375</ele>
        <time>2014-05-21T10:14:38Z</time>
      </trkpt>
      <trkpt lat="43.964875107631087" lon="5.644041504710913">
        <ele>798.5999755859375</ele>
        <time>2014-05-21T10:14:42Z</time>
      </trkpt>
      <trkpt lat="43.964808722957969" lon="5.644020466133952">
        <ele>798.5999755859375</ele>
        <time>2014-05-21T10:14:45Z</time>
      </trkpt>
      <trkpt lat="43.964651059359312" lon="5.643925331532955">
        <ele>799.79998779296875</ele>
        <time>2014-05-21T10:14:52Z</time>
      </trkpt>
      <trkpt lat="43.964634714648128" lon="5.643905466422439">
        <ele>799.79998779296875</ele>
        <time>2014-05-21T10:14:53Z</time>
      </trkpt>
      <trkpt lat="43.964571179822087" lon="5.643779905512929">
        <ele>800.79998779296875</ele>
        <time>2014-05-21T10:14:58Z</time>
      </trkpt>
      <trkpt lat="43.964532874524593" lon="5.643692398443818">
        <ele>801.5999755859375</ele>
        <time>2014-05-21T10:15:01Z</time>
      </trkpt>
      <trkpt lat="43.964492222294211" lon="5.643611345440149">
        <ele>801.79998779296875</ele>
        <time>2014-05-21T10:15:04Z</time>
      </trkpt>
      <trkpt lat="43.964461544528604" lon="5.643493831157684">
        <ele>802</ele>
        <time>2014-05-21T10:15:08Z</time>
      </trkpt>
      <trkpt lat="43.964378396049142" lon="5.643262406811118">
        <ele>802.5999755859375</ele>
        <time>2014-05-21T10:15:16Z</time>
      </trkpt>
      <trkpt lat="43.964351993054152" lon="5.643206834793091">
        <ele>802.79998779296875</ele>
        <time>2014-05-21T10:15:18Z</time>
      </trkpt>
      <trkpt lat="43.964255349710584" lon="5.643110442906618">
        <ele>803.5999755859375</ele>
        <time>2014-05-21T10:15:23Z</time>
      </trkpt>
      <trkpt lat="43.964234394952655" lon="5.643094517290592">
        <ele>803.79998779296875</ele>
        <time>2014-05-21T10:15:24Z</time>
      </trkpt>
      <trkpt lat="43.964210841804743" lon="5.643087644129992">
        <ele>804.4000244140625</ele>
        <time>2014-05-21T10:15:25Z</time>
      </trkpt>
      <trkpt lat="43.964140014722943" lon="5.643114633858204">
        <ele>805</ele>
        <time>2014-05-21T10:15:28Z</time>
      </trkpt>
      <trkpt lat="43.964029205963016" lon="5.64319753088057">
        <ele>806</ele>
        <time>2014-05-21T10:15:33Z</time>
      </trkpt>
      <trkpt lat="43.963994001969695" lon="5.643241284415126">
        <ele>806</ele>
        <time>2014-05-21T10:15:35Z</time>
      </trkpt>
      <trkpt lat="43.963882522657514" lon="5.643407832831144">
        <ele>805.79998779296875</ele>
        <time>2014-05-21T10:15:42Z</time>
      </trkpt>
      <trkpt lat="43.963858131319284" lon="5.643466506153345">
        <ele>807.20001220703125</ele>
        <time>2014-05-21T10:15:44Z</time>
      </trkpt>
      <trkpt lat="43.963833404704928" lon="5.643528867512941">
        <ele>808.4000244140625</ele>
        <time>2014-05-21T10:15:46Z</time>
      </trkpt>
      <trkpt lat="43.963798955082893" lon="5.643634311854839">
        <ele>808.4000244140625</ele>
        <time>2014-05-21T10:15:49Z</time>
      </trkpt>
      <trkpt lat="43.963703569024801" lon="5.643800524994731">
        <ele>809.4000244140625</ele>
        <time>2014-05-21T10:15:55Z</time>
      </trkpt>
      <trkpt lat="43.963681608438492" lon="5.643815193325281">
        <ele>809.5999755859375</ele>
        <time>2014-05-21T10:15:56Z</time>
      </trkpt>
      <trkpt lat="43.963574236258864" lon="5.643805889412761">
        <ele>810.4000244140625</ele>
        <time>2014-05-21T10:16:00Z</time>
      </trkpt>
      <trkpt lat="43.963522687554359" lon="5.643784599378705">
        <ele>810.79998779296875</ele>
        <time>2014-05-21T10:16:02Z</time>
      </trkpt>
      <trkpt lat="43.963441550731659" lon="5.64374377951026">
        <ele>811</ele>
        <time>2014-05-21T10:16:06Z</time>
      </trkpt>
      <trkpt lat="43.963265949860215" lon="5.643650824204087">
        <ele>811.79998779296875</ele>
        <time>2014-05-21T10:16:14Z</time>
      </trkpt>
      <trkpt lat="43.963246755301952" lon="5.643641352653503">
        <ele>811.79998779296875</ele>
        <time>2014-05-21T10:16:15Z</time>
      </trkpt>
      <trkpt lat="43.963114656507969" lon="5.643583349883556">
        <ele>812.5999755859375</ele>
        <time>2014-05-21T10:16:21Z</time>
      </trkpt>
      <trkpt lat="43.962978115305305" lon="5.643499447032809">
        <ele>813</ele>
        <time>2014-05-21T10:16:27Z</time>
      </trkpt>
      <trkpt lat="43.962767980992794" lon="5.64338612370193">
        <ele>813.5999755859375</ele>
        <time>2014-05-21T10:16:35Z</time>
      </trkpt>
      <trkpt lat="43.962604282423854" lon="5.643270872533321">
        <ele>814.20001220703125</ele>
        <time>2014-05-21T10:16:42Z</time>
      </trkpt>
      <trkpt lat="43.962576119229198" lon="5.643258551135659">
        <ele>814.5999755859375</ele>
        <time>2014-05-21T10:16:43Z</time>
      </trkpt>
      <trkpt lat="43.962432453408837" lon="5.643189400434494">
        <ele>815.5999755859375</ele>
        <time>2014-05-21T10:16:49Z</time>
      </trkpt>
      <trkpt lat="43.962405296042562" lon="5.643173893913627">
        <ele>815.5999755859375</ele>
        <time>2014-05-21T10:16:50Z</time>
      </trkpt>
      <trkpt lat="43.96218434907496" lon="5.643098121508956">
        <ele>814.5999755859375</ele>
        <time>2014-05-21T10:16:56Z</time>
      </trkpt>
      <trkpt lat="43.962028361856937" lon="5.643055122345686">
        <ele>814.20001220703125</ele>
        <time>2014-05-21T10:16:59Z</time>
      </trkpt>
      <trkpt lat="43.961908919736743" lon="5.643017403781414">
        <ele>813.20001220703125</ele>
        <time>2014-05-21T10:17:01Z</time>
      </trkpt>
      <trkpt lat="43.961417824029922" lon="5.642813052982092">
        <ele>812.4000244140625</ele>
        <time>2014-05-21T10:17:09Z</time>
      </trkpt>
      <trkpt lat="43.961171312257648" lon="5.642679529264569">
        <ele>814</ele>
        <time>2014-05-21T10:17:14Z</time>
      </trkpt>
      <trkpt lat="43.961129821836948" lon="5.642659328877926">
        <ele>813.79998779296875</ele>
        <time>2014-05-21T10:17:15Z</time>
      </trkpt>
      <trkpt lat="43.961023706942797" lon="5.642597554251552">
        <ele>813.5999755859375</ele>
        <time>2014-05-21T10:17:18Z</time>
      </trkpt>
      <trkpt lat="43.960960255935788" lon="5.64256670884788">
        <ele>814.4000244140625</ele>
        <time>2014-05-21T10:17:20Z</time>
      </trkpt>
      <trkpt lat="43.960730927065015" lon="5.642436956986785">
        <ele>814.4000244140625</ele>
        <time>2014-05-21T10:17:26Z</time>
      </trkpt>
      <trkpt lat="43.960634032264352" lon="5.64238540828228">
        <ele>813.4000244140625</ele>
        <time>2014-05-21T10:17:28Z</time>
      </trkpt>
      <trkpt lat="43.96041794680059" lon="5.642263283953071">
        <ele>813.20001220703125</ele>
        <time>2014-05-21T10:17:32Z</time>
      </trkpt>
      <trkpt lat="43.960238574072719" lon="5.642159013077617">
        <ele>812.4000244140625</ele>
        <time>2014-05-21T10:17:35Z</time>
      </trkpt>
      <trkpt lat="43.96006029099226" lon="5.642080474644899">
        <ele>812</ele>
        <time>2014-05-21T10:17:38Z</time>
      </trkpt>
      <trkpt lat="43.959747729822993" lon="5.641966313123703">
        <ele>812.4000244140625</ele>
        <time>2014-05-21T10:17:44Z</time>
      </trkpt>
      <trkpt lat="43.959525777027011" lon="5.641867574304342">
        <ele>813</ele>
        <time>2014-05-21T10:17:50Z</time>
      </trkpt>
      <trkpt lat="43.959250934422016" lon="5.64172918908298">
        <ele>812.4000244140625</ele>
        <time>2014-05-21T10:17:58Z</time>
      </trkpt>
      <trkpt lat="43.959211707115173" lon="5.641709743067622">
        <ele>812</ele>
        <time>2014-05-21T10:17:59Z</time>
      </trkpt>
      <trkpt lat="43.959129061549902" lon="5.641665486618877">
        <ele>811.20001220703125</ele>
        <time>2014-05-21T10:18:01Z</time>
      </trkpt>
      <trkpt lat="43.95904591307044" lon="5.641609495505691">
        <ele>811.20001220703125</ele>
        <time>2014-05-21T10:18:03Z</time>
      </trkpt>
      <trkpt lat="43.959002746269107" lon="5.64157672226429">
        <ele>811.20001220703125</ele>
        <time>2014-05-21T10:18:04Z</time>
      </trkpt>
      <trkpt lat="43.958801496773958" lon="5.641435319557786">
        <ele>810</ele>
        <time>2014-05-21T10:18:08Z</time>
      </trkpt>
      <trkpt lat="43.958747517317533" lon="5.641390979290009">
        <ele>809.79998779296875</ele>
        <time>2014-05-21T10:18:09Z</time>
      </trkpt>
      <trkpt lat="43.958632852882147" lon="5.641306824982166">
        <ele>809</ele>
        <time>2014-05-21T10:18:11Z</time>
      </trkpt>
      <trkpt lat="43.958441577851772" lon="5.641195848584175">
        <ele>808.5999755859375</ele>
        <time>2014-05-21T10:18:14Z</time>
      </trkpt>
      <trkpt lat="43.958180313929915" lon="5.641087722033262">
        <ele>807.5999755859375</ele>
        <time>2014-05-21T10:18:18Z</time>
      </trkpt>
      <trkpt lat="43.958057016134262" lon="5.64104899764061">
        <ele>806.5999755859375</ele>
        <time>2014-05-21T10:18:20Z</time>
      </trkpt>
      <trkpt lat="43.957518143579364" lon="5.640856130048633">
        <ele>807</ele>
        <time>2014-05-21T10:18:29Z</time>
      </trkpt>
      <trkpt lat="43.957133078947663" lon="5.640694610774517">
        <ele>806.79998779296875</ele>
        <time>2014-05-21T10:18:36Z</time>
      </trkpt>
      <trkpt lat="43.95691741257906" lon="5.640604924410582">
        <ele>806.4000244140625</ele>
        <time>2014-05-21T10:18:40Z</time>
      </trkpt>
      <trkpt lat="43.956711553037167" lon="5.640523368492723">
        <ele>806.20001220703125</ele>
        <time>2014-05-21T10:18:44Z</time>
      </trkpt>
      <trkpt lat="43.956382898613811" lon="5.640387246385217">
        <ele>805.20001220703125</ele>
        <time>2014-05-21T10:18:50Z</time>
      </trkpt>
      <trkpt lat="43.956266390159726" lon="5.640332344919443">
        <ele>804.79998779296875</ele>
        <time>2014-05-21T10:18:52Z</time>
      </trkpt>
      <trkpt lat="43.956207800656557" lon="5.640306361019611">
        <ele>804.5999755859375</ele>
        <time>2014-05-21T10:18:53Z</time>
      </trkpt>
      <trkpt lat="43.956090705469251" lon="5.640252130106092">
        <ele>804</ele>
        <time>2014-05-21T10:18:55Z</time>
      </trkpt>
      <trkpt lat="43.955721566453576" lon="5.640089269727469">
        <ele>804.20001220703125</ele>
        <time>2014-05-21T10:19:01Z</time>
      </trkpt>
      <trkpt lat="43.955360306426883" lon="5.639950800687075">
        <ele>802.79998779296875</ele>
        <time>2014-05-21T10:19:07Z</time>
      </trkpt>
      <trkpt lat="43.955300962552428" lon="5.639931354671717">
        <ele>802.4000244140625</ele>
        <time>2014-05-21T10:19:08Z</time>
      </trkpt>
      <trkpt lat="43.955055708065629" lon="5.639872262254357">
        <ele>801.79998779296875</ele>
        <time>2014-05-21T10:19:12Z</time>
      </trkpt>
      <trkpt lat="43.954857140779495" lon="5.63982599414885">
        <ele>802</ele>
        <time>2014-05-21T10:19:15Z</time>
      </trkpt>
      <trkpt lat="43.954581376165152" lon="5.639776708558202">
        <ele>800.20001220703125</ele>
        <time>2014-05-21T10:19:19Z</time>
      </trkpt>
      <trkpt lat="43.954310221597552" lon="5.639719041064382">
        <ele>799.79998779296875</ele>
        <time>2014-05-21T10:19:23Z</time>
      </trkpt>
      <trkpt lat="43.95417376421392" lon="5.639694398269057">
        <ele>799</ele>
        <time>2014-05-21T10:19:25Z</time>
      </trkpt>
      <trkpt lat="43.953683841973543" lon="5.639601526781917">
        <ele>799</ele>
        <time>2014-05-21T10:19:32Z</time>
      </trkpt>
      <trkpt lat="43.953476389870048" lon="5.63956162892282">
        <ele>798</ele>
        <time>2014-05-21T10:19:35Z</time>
      </trkpt>
      <trkpt lat="43.95327128469944" lon="5.639526508748531">
        <ele>796.20001220703125</ele>
        <time>2014-05-21T10:19:38Z</time>
      </trkpt>
      <trkpt lat="43.953138766810298" lon="5.639497172087431">
        <ele>796.4000244140625</ele>
        <time>2014-05-21T10:19:40Z</time>
      </trkpt>
      <trkpt lat="43.953008260577917" lon="5.639467248693109">
        <ele>797.5999755859375</ele>
        <time>2014-05-21T10:19:42Z</time>
      </trkpt>
      <trkpt lat="43.952614897862077" lon="5.639381250366569">
        <ele>798.20001220703125</ele>
        <time>2014-05-21T10:19:48Z</time>
      </trkpt>
      <trkpt lat="43.952153054997325" lon="5.639291815459728">
        <ele>797</ele>
        <time>2014-05-21T10:19:55Z</time>
      </trkpt>
      <trkpt lat="43.95202430896461" lon="5.639269268140197">
        <ele>796.20001220703125</ele>
        <time>2014-05-21T10:19:57Z</time>
      </trkpt>
      <trkpt lat="43.95196177996695" lon="5.639258120208979">
        <ele>795.5999755859375</ele>
        <time>2014-05-21T10:19:58Z</time>
      </trkpt>
      <trkpt lat="43.951728930696845" lon="5.639212606474757">
        <ele>795.79998779296875</ele>
        <time>2014-05-21T10:20:02Z</time>
      </trkpt>
      <trkpt lat="43.951616445556283" lon="5.639186203479767">
        <ele>795</ele>
        <time>2014-05-21T10:20:04Z</time>
      </trkpt>
      <trkpt lat="43.951397174969316" lon="5.639150999486446">
        <ele>793.79998779296875</ele>
        <time>2014-05-21T10:20:08Z</time>
      </trkpt>
      <trkpt lat="43.951345961540937" lon="5.639141695573926">
        <ele>793.4000244140625</ele>
        <time>2014-05-21T10:20:09Z</time>
      </trkpt>
      <trkpt lat="43.951046895235777" lon="5.639094924554229">
        <ele>794.20001220703125</ele>
        <time>2014-05-21T10:20:15Z</time>
      </trkpt>
      <trkpt lat="43.950993418693542" lon="5.63908327370882">
        <ele>794.20001220703125</ele>
        <time>2014-05-21T10:20:16Z</time>
      </trkpt>
      <trkpt lat="43.950636517256498" lon="5.63902803696692">
        <ele>793</ele>
        <time>2014-05-21T10:20:22Z</time>
      </trkpt>
      <trkpt lat="43.950446750968695" lon="5.639006579294801">
        <ele>792.5999755859375</ele>
        <time>2014-05-21T10:20:25Z</time>
      </trkpt>
      <trkpt lat="43.950130920857191" lon="5.638963999226689">
        <ele>791.5999755859375</ele>
        <time>2014-05-21T10:20:30Z</time>
      </trkpt>
      <trkpt lat="43.949805032461882" lon="5.638921838253737">
        <ele>790.20001220703125</ele>
        <time>2014-05-21T10:20:35Z</time>
      </trkpt>
      <trkpt lat="43.949543684720993" lon="5.638883784413338">
        <ele>789.20001220703125</ele>
        <time>2014-05-21T10:20:39Z</time>
      </trkpt>
      <trkpt lat="43.949218550696969" lon="5.638808347284794">
        <ele>787.79998779296875</ele>
        <time>2014-05-21T10:20:44Z</time>
      </trkpt>
      <trkpt lat="43.949078069999814" lon="5.638769706711173">
        <ele>787.4000244140625</ele>
        <time>2014-05-21T10:20:46Z</time>
      </trkpt>
      <trkpt lat="43.948929710313678" lon="5.638730144128203">
        <ele>786.5999755859375</ele>
        <time>2014-05-21T10:20:48Z</time>
      </trkpt>
      <trkpt lat="43.948777159675956" lon="5.63869041390717">
        <ele>785.20001220703125</ele>
        <time>2014-05-21T10:20:50Z</time>
      </trkpt>
      <trkpt lat="43.948624525219202" lon="5.638650516048074">
        <ele>784.20001220703125</ele>
        <time>2014-05-21T10:20:52Z</time>
      </trkpt>
      <trkpt lat="43.948388826102018" lon="5.638584550470114">
        <ele>783.5999755859375</ele>
        <time>2014-05-21T10:20:55Z</time>
      </trkpt>
      <trkpt lat="43.948307689279318" lon="5.638562254607678">
        <ele>783.4000244140625</ele>
        <time>2014-05-21T10:20:56Z</time>
      </trkpt>
      <trkpt lat="43.948146505281329" lon="5.638520177453756">
        <ele>783</ele>
        <time>2014-05-21T10:20:58Z</time>
      </trkpt>
      <trkpt lat="43.947906782850623" lon="5.638455133885145">
        <ele>781.79998779296875</ele>
        <time>2014-05-21T10:21:01Z</time>
      </trkpt>
      <trkpt lat="43.947597574442625" lon="5.638380786404014">
        <ele>780.79998779296875</ele>
        <time>2014-05-21T10:21:05Z</time>
      </trkpt>
      <trkpt lat="43.947359612211585" lon="5.638338793069124">
        <ele>779.5999755859375</ele>
        <time>2014-05-21T10:21:08Z</time>
      </trkpt>
      <trkpt lat="43.947041099891067" lon="5.638304678723216">
        <ele>778.20001220703125</ele>
        <time>2014-05-21T10:21:12Z</time>
      </trkpt>
      <trkpt lat="43.946962477639318" lon="5.638301745057106">
        <ele>778.20001220703125</ele>
        <time>2014-05-21T10:21:13Z</time>
      </trkpt>
      <trkpt lat="43.946474650874734" lon="5.638257572427392">
        <ele>777</ele>
        <time>2014-05-21T10:21:19Z</time>
      </trkpt>
      <trkpt lat="43.946224702522159" lon="5.638234103098512">
        <ele>775.79998779296875</ele>
        <time>2014-05-21T10:21:22Z</time>
      </trkpt>
      <trkpt lat="43.946141889318824" lon="5.638228571042419">
        <ele>775.4000244140625</ele>
        <time>2014-05-21T10:21:23Z</time>
      </trkpt>
      <trkpt lat="43.945886995643377" lon="5.638210214674473">
        <ele>774</ele>
        <time>2014-05-21T10:21:26Z</time>
      </trkpt>
      <trkpt lat="43.945800578221679" lon="5.638202084228396">
        <ele>772.79998779296875</ele>
        <time>2014-05-21T10:21:27Z</time>
      </trkpt>
      <trkpt lat="43.94544979557395" lon="5.638152211904526">
        <ele>772.20001220703125</ele>
        <time>2014-05-21T10:21:31Z</time>
      </trkpt>
      <trkpt lat="43.945362456142902" lon="5.638133268803358">
        <ele>771.5999755859375</ele>
        <time>2014-05-21T10:21:32Z</time>
      </trkpt>
      <trkpt lat="43.945107059553266" lon="5.638067051768303">
        <ele>770.20001220703125</ele>
        <time>2014-05-21T10:21:35Z</time>
      </trkpt>
      <trkpt lat="43.944938918575644" lon="5.638023214414716">
        <ele>769.5999755859375</ele>
        <time>2014-05-21T10:21:37Z</time>
      </trkpt>
      <trkpt lat="43.944372721016407" lon="5.63787778839469">
        <ele>769</ele>
        <time>2014-05-21T10:21:44Z</time>
      </trkpt>
      <trkpt lat="43.944295775145292" lon="5.637857085093856">
        <ele>768.5999755859375</ele>
        <time>2014-05-21T10:21:45Z</time>
      </trkpt>
      <trkpt lat="43.943776013329625" lon="5.637715766206384">
        <ele>768.4000244140625</ele>
        <time>2014-05-21T10:21:52Z</time>
      </trkpt>
      <trkpt lat="43.943494968116283" lon="5.637652482837439">
        <ele>767.79998779296875</ele>
        <time>2014-05-21T10:21:56Z</time>
      </trkpt>
      <trkpt lat="43.943281648680568" lon="5.637647369876504">
        <ele>768</ele>
        <time>2014-05-21T10:21:59Z</time>
      </trkpt>
      <trkpt lat="43.943210737779737" lon="5.637652231380343">
        <ele>768</ele>
        <time>2014-05-21T10:22:00Z</time>
      </trkpt>
      <trkpt lat="43.942801365628839" lon="5.637729093432427">
        <ele>767.79998779296875</ele>
        <time>2014-05-21T10:22:06Z</time>
      </trkpt>
      <trkpt lat="43.94266264513135" lon="5.637757927179337">
        <ele>766.5999755859375</ele>
        <time>2014-05-21T10:22:08Z</time>
      </trkpt>
      <trkpt lat="43.942592991515994" lon="5.637764967978001">
        <ele>766.5999755859375</ele>
        <time>2014-05-21T10:22:09Z</time>
      </trkpt>
      <trkpt lat="43.942395178601146" lon="5.637787682935596">
        <ele>767.4000244140625</ele>
        <time>2014-05-21T10:22:12Z</time>
      </trkpt>
      <trkpt lat="43.941884636878967" lon="5.6378357950598">
        <ele>766.4000244140625</ele>
        <time>2014-05-21T10:22:20Z</time>
      </trkpt>
      <trkpt lat="43.941752621904016" lon="5.637837052345276">
        <ele>765.5999755859375</ele>
        <time>2014-05-21T10:22:22Z</time>
      </trkpt>
      <trkpt lat="43.941186089068651" lon="5.637828670442104">
        <ele>765.20001220703125</ele>
        <time>2014-05-21T10:22:31Z</time>
      </trkpt>
      <trkpt lat="43.940747883170843" lon="5.637835124507546">
        <ele>765.5999755859375</ele>
        <time>2014-05-21T10:22:38Z</time>
      </trkpt>
      <trkpt lat="43.940557613968849" lon="5.637856665998697">
        <ele>766</ele>
        <time>2014-05-21T10:22:41Z</time>
      </trkpt>
      <trkpt lat="43.940376481041312" lon="5.637915842235088">
        <ele>766.20001220703125</ele>
        <time>2014-05-21T10:22:44Z</time>
      </trkpt>
      <trkpt lat="43.940263325348496" lon="5.637965714558959">
        <ele>766.5999755859375</ele>
        <time>2014-05-21T10:22:46Z</time>
      </trkpt>
      <trkpt lat="43.940049586817622" lon="5.638047941029072">
        <ele>767.20001220703125</ele>
        <time>2014-05-21T10:22:50Z</time>
      </trkpt>
      <trkpt lat="43.939681202173233" lon="5.638189511373639">
        <ele>767.79998779296875</ele>
        <time>2014-05-21T10:22:58Z</time>
      </trkpt>
      <trkpt lat="43.939465703442693" lon="5.638319933786988">
        <ele>768</ele>
        <time>2014-05-21T10:23:03Z</time>
      </trkpt>
      <trkpt lat="43.939429158344865" lon="5.638359077274799">
        <ele>768</ele>
        <time>2014-05-21T10:23:04Z</time>
      </trkpt>
      <trkpt lat="43.939185412600636" lon="5.638638865202665">
        <ele>768.20001220703125</ele>
        <time>2014-05-21T10:23:11Z</time>
      </trkpt>
      <trkpt lat="43.939098324626684" lon="5.638699969276786">
        <ele>768.4000244140625</ele>
        <time>2014-05-21T10:23:13Z</time>
      </trkpt>
      <trkpt lat="43.939051385968924" lon="5.638721259310842">
        <ele>768.20001220703125</ele>
        <time>2014-05-21T10:23:14Z</time>
      </trkpt>
      <trkpt lat="43.938951725140214" lon="5.638745566830039">
        <ele>768.20001220703125</ele>
        <time>2014-05-21T10:23:16Z</time>
      </trkpt>
      <trkpt lat="43.938899002969265" lon="5.638747662305832">
        <ele>768</ele>
        <time>2014-05-21T10:23:17Z</time>
      </trkpt>
      <trkpt lat="43.938693562522531" lon="5.638728216290474">
        <ele>766.5999755859375</ele>
        <time>2014-05-21T10:23:21Z</time>
      </trkpt>
      <trkpt lat="43.938594656065106" lon="5.638710530474782">
        <ele>767.5999755859375</ele>
        <time>2014-05-21T10:23:23Z</time>
      </trkpt>
      <trkpt lat="43.938383180648088" lon="5.638672644272447">
        <ele>768.20001220703125</ele>
        <time>2014-05-21T10:23:28Z</time>
      </trkpt>
      <trkpt lat="43.938314532861114" lon="5.638655964285135">
        <ele>768.79998779296875</ele>
        <time>2014-05-21T10:23:30Z</time>
      </trkpt>
      <trkpt lat="43.938163742423058" lon="5.638634758070111">
        <ele>770</ele>
        <time>2014-05-21T10:23:34Z</time>
      </trkpt>
      <trkpt lat="43.9381252694875" lon="5.638627465814352">
        <ele>770.20001220703125</ele>
        <time>2014-05-21T10:23:35Z</time>
      </trkpt>
      <trkpt lat="43.937947740778327" lon="5.638594441115856">
        <ele>771</ele>
        <time>2014-05-21T10:23:40Z</time>
      </trkpt>
      <trkpt lat="43.93781597726047" lon="5.638553202152252">
        <ele>771.4000244140625</ele>
        <time>2014-05-21T10:23:44Z</time>
      </trkpt>
      <trkpt lat="43.937702151015401" lon="5.638495283201337">
        <ele>772.20001220703125</ele>
        <time>2014-05-21T10:23:48Z</time>
      </trkpt>
      <trkpt lat="43.937594359740615" lon="5.638428311794996">
        <ele>773.20001220703125</ele>
        <time>2014-05-21T10:23:52Z</time>
      </trkpt>
      <trkpt lat="43.937567956745625" lon="5.638410961255431">
        <ele>773.20001220703125</ele>
        <time>2014-05-21T10:23:53Z</time>
      </trkpt>
      <trkpt lat="43.937411969527602" lon="5.63830878585577">
        <ele>774</ele>
        <time>2014-05-21T10:23:59Z</time>
      </trkpt>
      <trkpt lat="43.937271069735289" lon="5.638244580477476">
        <ele>774.20001220703125</ele>
        <time>2014-05-21T10:24:04Z</time>
      </trkpt>
      <trkpt lat="43.937150621786714" lon="5.638229828327894">
        <ele>774.5999755859375</ele>
        <time>2014-05-21T10:24:08Z</time>
      </trkpt>
      <trkpt lat="43.937088176608086" lon="5.638231169432402">
        <ele>775.4000244140625</ele>
        <time>2014-05-21T10:24:10Z</time>
      </trkpt>
      <trkpt lat="43.936964794993401" lon="5.638240724802017">
        <ele>776</ele>
        <time>2014-05-21T10:24:14Z</time>
      </trkpt>
      <trkpt lat="43.936848705634475" lon="5.63825061544776">
        <ele>776.79998779296875</ele>
        <time>2014-05-21T10:24:18Z</time>
      </trkpt>
      <trkpt lat="43.936733705922961" lon="5.63826335594058">
        <ele>777.4000244140625</ele>
        <time>2014-05-21T10:24:22Z</time>
      </trkpt>
      <trkpt lat="43.93661342561245" lon="5.638263775035739">
        <ele>778</ele>
        <time>2014-05-21T10:24:26Z</time>
      </trkpt>
      <trkpt lat="43.936503874137998" lon="5.638283723965287">
        <ele>778.4000244140625</ele>
        <time>2014-05-21T10:24:30Z</time>
      </trkpt>
      <trkpt lat="43.936388874426484" lon="5.638293949887157">
        <ele>779</ele>
        <time>2014-05-21T10:24:34Z</time>
      </trkpt>
      <trkpt lat="43.9362758025527" lon="5.638292273506522">
        <ele>779.79998779296875</ele>
        <time>2014-05-21T10:24:38Z</time>
      </trkpt>
      <trkpt lat="43.93624939955771" lon="5.638291016221046">
        <ele>780.20001220703125</ele>
        <time>2014-05-21T10:24:39Z</time>
      </trkpt>
      <trkpt lat="43.936111684888601" lon="5.638255476951599">
        <ele>781.4000244140625</ele>
        <time>2014-05-21T10:24:44Z</time>
      </trkpt>
      <trkpt lat="43.936087796464562" lon="5.638244580477476">
        <ele>781.5999755859375</ele>
        <time>2014-05-21T10:24:45Z</time>
      </trkpt>
      <trkpt lat="43.936001379042864" lon="5.638176184147596">
        <ele>782.4000244140625</ele>
        <time>2014-05-21T10:24:49Z</time>
      </trkpt>
      <trkpt lat="43.935965336859226" lon="5.638148607686162">
        <ele>783.4000244140625</ele>
        <time>2014-05-21T10:24:51Z</time>
      </trkpt>
      <trkpt lat="43.935941867530346" lon="5.638138214126229">
        <ele>783.5999755859375</ele>
        <time>2014-05-21T10:24:52Z</time>
      </trkpt>
      <trkpt lat="43.935837596654892" lon="5.638079205527902">
        <ele>783.79998779296875</ele>
        <time>2014-05-21T10:24:56Z</time>
      </trkpt>
      <trkpt lat="43.935695271939039" lon="5.638007121160626">
        <ele>784.5999755859375</ele>
        <time>2014-05-21T10:25:02Z</time>
      </trkpt>
      <trkpt lat="43.935644058510661" lon="5.637984490022063">
        <ele>784.79998779296875</ele>
        <time>2014-05-21T10:25:04Z</time>
      </trkpt>
      <trkpt lat="43.93550424836576" lon="5.637911399826407">
        <ele>785.5999755859375</ele>
        <time>2014-05-21T10:25:10Z</time>
      </trkpt>
      <trkpt lat="43.935463512316346" lon="5.637885248288512">
        <ele>786.20001220703125</ele>
        <time>2014-05-21T10:25:12Z</time>
      </trkpt>
      <trkpt lat="43.935401989147067" lon="5.637854989618063">
        <ele>786.79998779296875</ele>
        <time>2014-05-21T10:25:15Z</time>
      </trkpt>
      <trkpt lat="43.935345159843564" lon="5.637812241911888">
        <ele>787.20001220703125</ele>
        <time>2014-05-21T10:25:18Z</time>
      </trkpt>
      <trkpt lat="43.935272321105003" lon="5.637760190293193">
        <ele>787.79998779296875</ele>
        <time>2014-05-21T10:25:22Z</time>
      </trkpt>
      <trkpt lat="43.935235356912017" lon="5.637738900259137">
        <ele>788.4000244140625</ele>
        <time>2014-05-21T10:25:24Z</time>
      </trkpt>
      <trkpt lat="43.935159919783473" lon="5.637683747336268">
        <ele>789</ele>
        <time>2014-05-21T10:25:28Z</time>
      </trkpt>
      <trkpt lat="43.935084315016866" lon="5.637630773708224">
        <ele>789.79998779296875</ele>
        <time>2014-05-21T10:25:32Z</time>
      </trkpt>
      <trkpt lat="43.935062605887651" lon="5.637618200853467">
        <ele>790</ele>
        <time>2014-05-21T10:25:33Z</time>
      </trkpt>
      <trkpt lat="43.934959340840578" lon="5.637538405135274">
        <ele>791.4000244140625</ele>
        <time>2014-05-21T10:25:38Z</time>
      </trkpt>
      <trkpt lat="43.934941319748759" lon="5.637524910271168">
        <ele>791.5999755859375</ele>
        <time>2014-05-21T10:25:39Z</time>
      </trkpt>
      <trkpt lat="43.934889435768127" lon="5.637487610802054">
        <ele>792.4000244140625</ele>
        <time>2014-05-21T10:25:42Z</time>
      </trkpt>
      <trkpt lat="43.934814082458615" lon="5.637435475364327">
        <ele>792.79998779296875</ele>
        <time>2014-05-21T10:25:46Z</time>
      </trkpt>
      <trkpt lat="43.934729341417551" lon="5.637365151196718">
        <ele>794</ele>
        <time>2014-05-21T10:25:51Z</time>
      </trkpt>
      <trkpt lat="43.934676451608539" lon="5.637319888919592">
        <ele>794.20001220703125</ele>
        <time>2014-05-21T10:25:54Z</time>
      </trkpt>
      <trkpt lat="43.934586681425571" lon="5.63725140877068">
        <ele>795.4000244140625</ele>
        <time>2014-05-21T10:25:59Z</time>
      </trkpt>
      <trkpt lat="43.934527589008212" lon="5.637199943885207">
        <ele>795.79998779296875</ele>
        <time>2014-05-21T10:26:03Z</time>
      </trkpt>
      <trkpt lat="43.934429185464978" lon="5.637136744335294">
        <ele>796.4000244140625</ele>
        <time>2014-05-21T10:26:09Z</time>
      </trkpt>
      <trkpt lat="43.934412505477667" lon="5.637126099318266">
        <ele>796.5999755859375</ele>
        <time>2014-05-21T10:26:10Z</time>
      </trkpt>
      <trkpt lat="43.93432860262692" lon="5.637063067406416">
        <ele>797.4000244140625</ele>
        <time>2014-05-21T10:26:15Z</time>
      </trkpt>
      <trkpt lat="43.934253752231598" lon="5.63700657337904">
        <ele>798.5999755859375</ele>
        <time>2014-05-21T10:26:19Z</time>
      </trkpt>
      <trkpt lat="43.934187032282352" lon="5.636952426284552">
        <ele>799.79998779296875</ele>
        <time>2014-05-21T10:26:23Z</time>
      </trkpt>
      <trkpt lat="43.93415073864162" lon="5.636931136250496">
        <ele>800.20001220703125</ele>
        <time>2014-05-21T10:26:25Z</time>
      </trkpt>
      <trkpt lat="43.934062896296382" lon="5.636873301118612">
        <ele>800.79998779296875</ele>
        <time>2014-05-21T10:26:30Z</time>
      </trkpt>
      <trkpt lat="43.934046803042293" lon="5.636861147359014">
        <ele>801</ele>
        <time>2014-05-21T10:26:31Z</time>
      </trkpt>
      <trkpt lat="43.93393624573946" lon="5.636784033849835">
        <ele>801.79998779296875</ele>
        <time>2014-05-21T10:26:38Z</time>
      </trkpt>
      <trkpt lat="43.933920906856656" lon="5.636769700795412">
        <ele>802.20001220703125</ele>
        <time>2014-05-21T10:26:39Z</time>
      </trkpt>
      <trkpt lat="43.93381261266768" lon="5.636681690812111">
        <ele>803.20001220703125</ele>
        <time>2014-05-21T10:26:46Z</time>
      </trkpt>
      <trkpt lat="43.933730972930789" lon="5.636612791568041">
        <ele>804.5999755859375</ele>
        <time>2014-05-21T10:26:51Z</time>
      </trkpt>
      <trkpt lat="43.933698618784547" lon="5.636598207056522">
        <ele>804.79998779296875</ele>
        <time>2014-05-21T10:26:53Z</time>
      </trkpt>
      <trkpt lat="43.933643717318773" lon="5.636565014719963">
        <ele>805.5999755859375</ele>
        <time>2014-05-21T10:26:56Z</time>
      </trkpt>
      <trkpt lat="43.933560233563185" lon="5.636484632268548">
        <ele>806.5999755859375</ele>
        <time>2014-05-21T10:27:01Z</time>
      </trkpt>
      <trkpt lat="43.933544307947159" lon="5.636475412175059">
        <ele>806.79998779296875</ele>
        <time>2014-05-21T10:27:02Z</time>
      </trkpt>
      <trkpt lat="43.933421093970537" lon="5.636380109935999">
        <ele>807.4000244140625</ele>
        <time>2014-05-21T10:27:09Z</time>
      </trkpt>
      <trkpt lat="43.933389242738485" lon="5.636348426342011">
        <ele>808.20001220703125</ele>
        <time>2014-05-21T10:27:11Z</time>
      </trkpt>
      <trkpt lat="43.933346746489406" lon="5.63632152043283">
        <ele>809.4000244140625</ele>
        <time>2014-05-21T10:27:14Z</time>
      </trkpt>
      <trkpt lat="43.933331659063697" lon="5.636312551796436">
        <ele>809.20001220703125</ele>
        <time>2014-05-21T10:27:15Z</time>
      </trkpt>
      <trkpt lat="43.933205008506775" lon="5.636222949251533">
        <ele>810.5999755859375</ele>
        <time>2014-05-21T10:27:24Z</time>
      </trkpt>
      <trkpt lat="43.933141557499766" lon="5.636166706681252">
        <ele>811.5999755859375</ele>
        <time>2014-05-21T10:27:29Z</time>
      </trkpt>
      <trkpt lat="43.933103000745177" lon="5.636138543486595">
        <ele>811.5999755859375</ele>
        <time>2014-05-21T10:27:32Z</time>
      </trkpt>
      <trkpt lat="43.933023456484079" lon="5.636082133278251">
        <ele>812.5999755859375</ele>
        <time>2014-05-21T10:27:38Z</time>
      </trkpt>
      <trkpt lat="43.932988252490759" lon="5.636070230975747">
        <ele>812.79998779296875</ele>
        <time>2014-05-21T10:27:40Z</time>
      </trkpt>
      <trkpt lat="43.93293553031981" lon="5.636013904586434">
        <ele>813.5999755859375</ele>
        <time>2014-05-21T10:27:45Z</time>
      </trkpt>
      <trkpt lat="43.932912815362215" lon="5.63598389737308">
        <ele>814</ele>
        <time>2014-05-21T10:27:47Z</time>
      </trkpt>
      <trkpt lat="43.93287249840796" lon="5.635948861017823">
        <ele>814.79998779296875</ele>
        <time>2014-05-21T10:27:50Z</time>
      </trkpt>
      <trkpt lat="43.932813070714474" lon="5.635916087776423">
        <ele>815</ele>
        <time>2014-05-21T10:27:54Z</time>
      </trkpt>
      <trkpt lat="43.932716678828001" lon="5.635790526866913">
        <ele>815.5999755859375</ele>
        <time>2014-05-21T10:28:02Z</time>
      </trkpt>
      <trkpt lat="43.932704860344529" lon="5.635778373107314">
        <ele>815.79998779296875</ele>
        <time>2014-05-21T10:28:03Z</time>
      </trkpt>
      <trkpt lat="43.932618359103799" lon="5.635712239891291">
        <ele>817</ele>
        <time>2014-05-21T10:28:09Z</time>
      </trkpt>
      <trkpt lat="43.932602014392614" lon="5.635703438892961">
        <ele>817.20001220703125</ele>
        <time>2014-05-21T10:28:10Z</time>
      </trkpt>
      <trkpt lat="43.932540072128177" lon="5.635680388659239">
        <ele>818</ele>
        <time>2014-05-21T10:28:14Z</time>
      </trkpt>
      <trkpt lat="43.932512411847711" lon="5.635684411972761">
        <ele>818.20001220703125</ele>
        <time>2014-05-21T10:28:16Z</time>
      </trkpt>
      <trkpt lat="43.932484500110149" lon="5.635704277083278">
        <ele>818.4000244140625</ele>
        <time>2014-05-21T10:28:18Z</time>
      </trkpt>
      <trkpt lat="43.932433873414993" lon="5.635787341743708">
        <ele>819</ele>
        <time>2014-05-21T10:28:23Z</time>
      </trkpt>
      <trkpt lat="43.932422557845712" lon="5.635807458311319">
        <ele>819.20001220703125</ele>
        <time>2014-05-21T10:28:24Z</time>
      </trkpt>
      <trkpt lat="43.932394897565246" lon="5.635952213779092">
        <ele>819.79998779296875</ele>
        <time>2014-05-21T10:28:30Z</time>
      </trkpt>
      <trkpt lat="43.932390036061406" lon="5.6360346917063">
        <ele>820.4000244140625</ele>
        <time>2014-05-21T10:28:33Z</time>
      </trkpt>
      <trkpt lat="43.932385928928852" lon="5.636159917339683">
        <ele>821.4000244140625</ele>
        <time>2014-05-21T10:28:37Z</time>
      </trkpt>
      <trkpt lat="43.932384923100471" lon="5.636219596490264">
        <ele>821.5999755859375</ele>
        <time>2014-05-21T10:28:39Z</time>
      </trkpt>
      <trkpt lat="43.932402692735195" lon="5.636441214010119">
        <ele>822</ele>
        <time>2014-05-21T10:28:47Z</time>
      </trkpt>
      <trkpt lat="43.932406632229686" lon="5.63649645075202">
        <ele>822.5999755859375</ele>
        <time>2014-05-21T10:28:49Z</time>
      </trkpt>
      <trkpt lat="43.932435382157564" lon="5.636617736890912">
        <ele>823.5999755859375</ele>
        <time>2014-05-21T10:28:54Z</time>
      </trkpt>
      <trkpt lat="43.932492043823004" lon="5.636776657775044">
        <ele>824.79998779296875</ele>
        <time>2014-05-21T10:29:01Z</time>
      </trkpt>
      <trkpt lat="43.932504616677761" lon="5.63679694198072">
        <ele>824.79998779296875</ele>
        <time>2014-05-21T10:29:02Z</time>
      </trkpt>
      <trkpt lat="43.932565553113818" lon="5.636930214241147">
        <ele>826</ele>
        <time>2014-05-21T10:29:08Z</time>
      </trkpt>
      <trkpt lat="43.932582316920161" lon="5.636982349678874">
        <ele>826.79998779296875</ele>
        <time>2014-05-21T10:29:10Z</time>
      </trkpt>
      <trkpt lat="43.932603858411312" lon="5.637027360498905">
        <ele>827</ele>
        <time>2014-05-21T10:29:12Z</time>
      </trkpt>
      <trkpt lat="43.932658173143864" lon="5.637170523405075">
        <ele>827.4000244140625</ele>
        <time>2014-05-21T10:29:18Z</time>
      </trkpt>
      <trkpt lat="43.932661693543196" lon="5.637249145656824">
        <ele>828</ele>
        <time>2014-05-21T10:29:21Z</time>
      </trkpt>
      <trkpt lat="43.932625902816653" lon="5.637305807322264">
        <ele>828.4000244140625</ele>
        <time>2014-05-21T10:29:24Z</time>
      </trkpt>
      <trkpt lat="43.932529343292117" lon="5.637288372963667">
        <ele>829</ele>
        <time>2014-05-21T10:29:29Z</time>
      </trkpt>
      <trkpt lat="43.932507885619998" lon="5.637288959696889">
        <ele>829</ele>
        <time>2014-05-21T10:29:30Z</time>
      </trkpt>
      <trkpt lat="43.932409817352891" lon="5.637245960533619">
        <ele>830.4000244140625</ele>
        <time>2014-05-21T10:29:35Z</time>
      </trkpt>
      <trkpt lat="43.932393472641706" lon="5.637235147878528">
        <ele>830.5999755859375</ele>
        <time>2014-05-21T10:29:36Z</time>
      </trkpt>
      <trkpt lat="43.932345863431692" lon="5.637207068502903">
        <ele>831.79998779296875</ele>
        <time>2014-05-21T10:29:39Z</time>
      </trkpt>
      <trkpt lat="43.932252069935203" lon="5.637168679386377">
        <ele>833.20001220703125</ele>
        <time>2014-05-21T10:29:44Z</time>
      </trkpt>
      <trkpt lat="43.93210630863905" lon="5.637064492329955">
        <ele>833.79998779296875</ele>
        <time>2014-05-21T10:29:52Z</time>
      </trkpt>
      <trkpt lat="43.932006563991308" lon="5.637013111263514">
        <ele>834.20001220703125</ele>
        <time>2014-05-21T10:29:57Z</time>
      </trkpt>
      <trkpt lat="43.931987369433045" lon="5.637002717703581">
        <ele>834.4000244140625</ele>
        <time>2014-05-21T10:29:58Z</time>
      </trkpt>
      <trkpt lat="43.931895000860095" lon="5.636948235332966">
        <ele>835.5999755859375</ele>
        <time>2014-05-21T10:30:03Z</time>
      </trkpt>
      <trkpt lat="43.931862479075789" lon="5.636937255039811">
        <ele>836</ele>
        <time>2014-05-21T10:30:05Z</time>
      </trkpt>
      <trkpt lat="43.931775474920869" lon="5.636917389929295">
        <ele>836.79998779296875</ele>
        <time>2014-05-21T10:30:10Z</time>
      </trkpt>
      <trkpt lat="43.93170322291553" lon="5.636914372444153">
        <ele>837.4000244140625</ele>
        <time>2014-05-21T10:30:14Z</time>
      </trkpt>
      <trkpt lat="43.93161085434258" lon="5.636930465698242">
        <ele>838</ele>
        <time>2014-05-21T10:30:19Z</time>
      </trkpt>
      <trkpt lat="43.931581098586321" lon="5.636950163170695">
        <ele>838.4000244140625</ele>
        <time>2014-05-21T10:30:21Z</time>
      </trkpt>
      <trkpt lat="43.931563999503851" lon="5.636988300830126">
        <ele>838.79998779296875</ele>
        <time>2014-05-21T10:30:23Z</time>
      </trkpt>
      <trkpt lat="43.931557377800345" lon="5.637009926140308">
        <ele>839</ele>
        <time>2014-05-21T10:30:24Z</time>
      </trkpt>
      <trkpt lat="43.931551007553935" lon="5.637066503986716">
        <ele>839.20001220703125</ele>
        <time>2014-05-21T10:30:26Z</time>
      </trkpt>
      <trkpt lat="43.931560395285487" lon="5.637228861451149">
        <ele>838.20001220703125</ele>
        <time>2014-05-21T10:30:32Z</time>
      </trkpt>
      <trkpt lat="43.931560646742582" lon="5.637254929170013">
        <ele>838</ele>
        <time>2014-05-21T10:30:33Z</time>
      </trkpt>
      <trkpt lat="43.9315199945122" lon="5.637385100126267">
        <ele>838.20001220703125</ele>
        <time>2014-05-21T10:30:39Z</time>
      </trkpt>
      <trkpt lat="43.931510942056775" lon="5.637451652437449">
        <ele>837.5999755859375</ele>
        <time>2014-05-21T10:30:44Z</time>
      </trkpt>
      <trkpt lat="43.931502727791667" lon="5.637505631893873">
        <ele>838.20001220703125</ele>
        <time>2014-05-21T10:31:15Z</time>
      </trkpt>
      <trkpt lat="43.931526364758611" lon="5.637563299387693">
        <ele>837.5999755859375</ele>
        <time>2014-05-21T10:31:18Z</time>
      </trkpt>
      <trkpt lat="43.931588642299175" lon="5.637672180309892">
        <ele>838.20001220703125</ele>
        <time>2014-05-21T10:31:24Z</time>
      </trkpt>
      <trkpt lat="43.931670030578971" lon="5.637693554162979">
        <ele>839</ele>
        <time>2014-05-21T10:31:29Z</time>
      </trkpt>
      <trkpt lat="43.931704983115196" lon="5.637713335454464">
        <ele>839.4000244140625</ele>
        <time>2014-05-21T10:31:32Z</time>
      </trkpt>
      <trkpt lat="43.931702803820372" lon="5.637754574418068">
        <ele>839.5999755859375</ele>
        <time>2014-05-21T10:31:34Z</time>
      </trkpt>
      <trkpt lat="43.931695427745581" lon="5.637805201113224">
        <ele>839.4000244140625</ele>
        <time>2014-05-21T10:31:36Z</time>
      </trkpt>
      <trkpt lat="43.931698612868786" lon="5.637951549142599">
        <ele>839.5999755859375</ele>
        <time>2014-05-21T10:31:42Z</time>
      </trkpt>
      <trkpt lat="43.931782180443406" lon="5.638101249933243">
        <ele>838.79998779296875</ele>
        <time>2014-05-21T10:31:51Z</time>
      </trkpt>
      <trkpt lat="43.931772625073791" lon="5.6381656229496">
        <ele>841.5999755859375</ele>
        <time>2014-05-21T11:11:17Z</time>
      </trkpt>
      <trkpt lat="43.931771451607347" lon="5.638143494725227">
        <ele>841.5999755859375</ele>
        <time>2014-05-21T11:11:18Z</time>
      </trkpt>
      <trkpt lat="43.931777318939567" lon="5.638082725927234">
        <ele>841.5999755859375</ele>
        <time>2014-05-21T11:11:21Z</time>
      </trkpt>
      <trkpt lat="43.931789053604007" lon="5.638046013191342">
        <ele>841.5999755859375</ele>
        <time>2014-05-21T11:11:23Z</time>
      </trkpt>
      <trkpt lat="43.931768350303173" lon="5.637859012931585">
        <ele>842.20001220703125</ele>
        <time>2014-05-21T11:11:29Z</time>
      </trkpt>
      <trkpt lat="43.93173641525209" lon="5.637746443971992">
        <ele>842.20001220703125</ele>
        <time>2014-05-21T11:11:34Z</time>
      </trkpt>
      <trkpt lat="43.931720489636064" lon="5.637740911915898">
        <ele>842</ele>
        <time>2014-05-21T11:11:35Z</time>
      </trkpt>
      <trkpt lat="43.931642370298505" lon="5.637703947722912">
        <ele>841.20001220703125</ele>
        <time>2014-05-21T11:11:39Z</time>
      </trkpt>
      <trkpt lat="43.931605238467455" lon="5.637594563886523">
        <ele>840.5999755859375</ele>
        <time>2014-05-21T11:11:42Z</time>
      </trkpt>
      <trkpt lat="43.931601634249091" lon="5.637554666027427">
        <ele>840.20001220703125</ele>
        <time>2014-05-21T11:11:43Z</time>
      </trkpt>
      <trkpt lat="43.931603729724884" lon="5.637270854786038">
        <ele>840.5999755859375</ele>
        <time>2014-05-21T11:11:50Z</time>
      </trkpt>
      <trkpt lat="43.931570705026388" lon="5.637067845091224">
        <ele>841</ele>
        <time>2014-05-21T11:11:55Z</time>
      </trkpt>
      <trkpt lat="43.931513791903853" lon="5.636839773505926">
        <ele>840.79998779296875</ele>
        <time>2014-05-21T11:12:00Z</time>
      </trkpt>
      <trkpt lat="43.931418573483825" lon="5.636579934507608">
        <ele>840.5999755859375</ele>
        <time>2014-05-21T11:12:06Z</time>
      </trkpt>
      <trkpt lat="43.93127809278667" lon="5.636190511286259">
        <ele>840.5999755859375</ele>
        <time>2014-05-21T11:12:13Z</time>
      </trkpt>
      <trkpt lat="43.931217156350613" lon="5.635870574042201">
        <ele>841.20001220703125</ele>
        <time>2014-05-21T11:12:18Z</time>
      </trkpt>
      <trkpt lat="43.931207433342934" lon="5.635803937911987">
        <ele>841.20001220703125</ele>
        <time>2014-05-21T11:12:19Z</time>
      </trkpt>
      <trkpt lat="43.931172396987677" lon="5.635625151917338">
        <ele>841.5999755859375</ele>
        <time>2014-05-21T11:12:22Z</time>
      </trkpt>
      <trkpt lat="43.931126380339265" lon="5.635479558259249">
        <ele>842.4000244140625</ele>
        <time>2014-05-21T11:12:25Z</time>
      </trkpt>
      <trkpt lat="43.931093774735928" lon="5.635393308475614">
        <ele>842.79998779296875</ele>
        <time>2014-05-21T11:12:27Z</time>
      </trkpt>
      <trkpt lat="43.931047171354294" lon="5.635217791423202">
        <ele>844</ele>
        <time>2014-05-21T11:12:31Z</time>
      </trkpt>
      <trkpt lat="43.931030239909887" lon="5.635135900229216">
        <ele>844.4000244140625</ele>
        <time>2014-05-21T11:12:33Z</time>
      </trkpt>
      <trkpt lat="43.930991683155298" lon="5.634977566078305">
        <ele>845.20001220703125</ele>
        <time>2014-05-21T11:12:37Z</time>
      </trkpt>
      <trkpt lat="43.930953126400709" lon="5.634857201948762">
        <ele>845.5999755859375</ele>
        <time>2014-05-21T11:12:40Z</time>
      </trkpt>
      <trkpt lat="43.930891938507557" lon="5.634642625227571">
        <ele>846.4000244140625</ele>
        <time>2014-05-21T11:12:45Z</time>
      </trkpt>
      <trkpt lat="43.930852375924587" lon="5.634519411250949">
        <ele>846.5999755859375</ele>
        <time>2014-05-21T11:12:48Z</time>
      </trkpt>
      <trkpt lat="43.930773083120584" lon="5.634199138730764">
        <ele>847.20001220703125</ele>
        <time>2014-05-21T11:12:55Z</time>
      </trkpt>
      <trkpt lat="43.930753385648131" lon="5.634112553671002">
        <ele>847.5999755859375</ele>
        <time>2014-05-21T11:12:57Z</time>
      </trkpt>
      <trkpt lat="43.930688509717584" lon="5.633861096575856">
        <ele>848.20001220703125</ele>
        <time>2014-05-21T11:13:03Z</time>
      </trkpt>
      <trkpt lat="43.930665208026767" lon="5.633775852620602">
        <ele>848.5999755859375</ele>
        <time>2014-05-21T11:13:05Z</time>
      </trkpt>
      <trkpt lat="43.930617263540626" lon="5.633582398295403">
        <ele>849.5999755859375</ele>
        <time>2014-05-21T11:13:10Z</time>
      </trkpt>
      <trkpt lat="43.930609300732613" lon="5.633545015007258">
        <ele>849.5999755859375</ele>
        <time>2014-05-21T11:13:11Z</time>
      </trkpt>
      <trkpt lat="43.930540150031447" lon="5.633262293413281">
        <ele>850.5999755859375</ele>
        <time>2014-05-21T11:13:18Z</time>
      </trkpt>
      <trkpt lat="43.930529756471515" lon="5.63321971334517">
        <ele>850.5999755859375</ele>
        <time>2014-05-21T11:13:19Z</time>
      </trkpt>
      <trkpt lat="43.930450798943639" lon="5.632941098883748">
        <ele>851.4000244140625</ele>
        <time>2014-05-21T11:13:26Z</time>
      </trkpt>
      <trkpt lat="43.930426659062505" lon="5.632867170497775">
        <ele>851.79998779296875</ele>
        <time>2014-05-21T11:13:28Z</time>
      </trkpt>
      <trkpt lat="43.930385671555996" lon="5.632724175229669">
        <ele>852.5999755859375</ele>
        <time>2014-05-21T11:13:32Z</time>
      </trkpt>
      <trkpt lat="43.93028860911727" lon="5.632454445585609">
        <ele>852.4000244140625</ele>
        <time>2014-05-21T11:13:39Z</time>
      </trkpt>
      <trkpt lat="43.930175453424454" lon="5.63216962851584">
        <ele>852</ele>
        <time>2014-05-21T11:13:45Z</time>
      </trkpt>
      <trkpt lat="43.930100603029132" lon="5.631904592737556">
        <ele>850.79998779296875</ele>
        <time>2014-05-21T11:13:49Z</time>
      </trkpt>
      <trkpt lat="43.930079061537981" lon="5.631821360439062">
        <ele>850.5999755859375</ele>
        <time>2014-05-21T11:13:50Z</time>
      </trkpt>
      <trkpt lat="43.930028937757015" lon="5.631639808416367">
        <ele>849.5999755859375</ele>
        <time>2014-05-21T11:13:52Z</time>
      </trkpt>
      <trkpt lat="43.929987447336316" lon="5.631432523950934">
        <ele>848.5999755859375</ele>
        <time>2014-05-21T11:13:54Z</time>
      </trkpt>
      <trkpt lat="43.929942771792412" lon="5.63119824975729">
        <ele>847.4000244140625</ele>
        <time>2014-05-21T11:13:56Z</time>
      </trkpt>
      <trkpt lat="43.929889379069209" lon="5.630943607538939">
        <ele>845.5999755859375</ele>
        <time>2014-05-21T11:13:58Z</time>
      </trkpt>
      <trkpt lat="43.929860964417458" lon="5.630813855677843">
        <ele>844.5999755859375</ele>
        <time>2014-05-21T11:13:59Z</time>
      </trkpt>
      <trkpt lat="43.929834477603436" lon="5.630677063018084">
        <ele>843.4000244140625</ele>
        <time>2014-05-21T11:14:00Z</time>
      </trkpt>
      <trkpt lat="43.929778905585408" lon="5.630397526547313">
        <ele>842</ele>
        <time>2014-05-21T11:14:02Z</time>
      </trkpt>
      <trkpt lat="43.929725596681237" lon="5.630123019218445">
        <ele>840.5999755859375</ele>
        <time>2014-05-21T11:14:04Z</time>
      </trkpt>
      <trkpt lat="43.929676981642842" lon="5.62985890544951">
        <ele>841</ele>
        <time>2014-05-21T11:14:06Z</time>
      </trkpt>
      <trkpt lat="43.929521078243852" lon="5.629282230511308">
        <ele>841.20001220703125</ele>
        <time>2014-05-21T11:14:11Z</time>
      </trkpt>
      <trkpt lat="43.929454023018479" lon="5.629083663225174">
        <ele>841.5999755859375</ele>
        <time>2014-05-21T11:14:13Z</time>
      </trkpt>
      <trkpt lat="43.929353607818484" lon="5.628813095390797">
        <ele>842.5999755859375</ele>
        <time>2014-05-21T11:14:16Z</time>
      </trkpt>
      <trkpt lat="43.929322008043528" lon="5.628731790930033">
        <ele>842.4000244140625</ele>
        <time>2014-05-21T11:14:17Z</time>
      </trkpt>
      <trkpt lat="43.929179180413485" lon="5.628387294709683">
        <ele>843.79998779296875</ele>
        <time>2014-05-21T11:14:22Z</time>
      </trkpt>
      <trkpt lat="43.92915353178978" lon="5.628323340788484">
        <ele>844</ele>
        <time>2014-05-21T11:14:23Z</time>
      </trkpt>
      <trkpt lat="43.929056385532022" lon="5.628088982775807">
        <ele>844.79998779296875</ele>
        <time>2014-05-21T11:14:27Z</time>
      </trkpt>
      <trkpt lat="43.929033502936363" lon="5.628040451556444">
        <ele>845</ele>
        <time>2014-05-21T11:14:28Z</time>
      </trkpt>
      <trkpt lat="43.929009195417166" lon="5.627998122945428">
        <ele>845.20001220703125</ele>
        <time>2014-05-21T11:14:29Z</time>
      </trkpt>
      <trkpt lat="43.928907606750727" lon="5.627868371084333">
        <ele>846</ele>
        <time>2014-05-21T11:14:33Z</time>
      </trkpt>
      <trkpt lat="43.928854968398809" lon="5.627827467396855">
        <ele>846</ele>
        <time>2014-05-21T11:14:35Z</time>
      </trkpt>
      <trkpt lat="43.92876461148262" lon="5.627782037481666">
        <ele>846</ele>
        <time>2014-05-21T11:14:38Z</time>
      </trkpt>
      <trkpt lat="43.928650785237551" lon="5.62772898003459">
        <ele>846.20001220703125</ele>
        <time>2014-05-21T11:14:41Z</time>
      </trkpt>
      <trkpt lat="43.928398741409183" lon="5.627686399966478">
        <ele>845</ele>
        <time>2014-05-21T11:14:47Z</time>
      </trkpt>
      <trkpt lat="43.928289944306016" lon="5.627699224278331">
        <ele>844.5999755859375</ele>
        <time>2014-05-21T11:14:49Z</time>
      </trkpt>
      <trkpt lat="43.928162958472967" lon="5.627719173207879">
        <ele>844</ele>
        <time>2014-05-21T11:14:51Z</time>
      </trkpt>
      <trkpt lat="43.928095484152436" lon="5.627731746062636">
        <ele>843.5999755859375</ele>
        <time>2014-05-21T11:14:52Z</time>
      </trkpt>
      <trkpt lat="43.927953075617552" lon="5.627769380807877">
        <ele>842.20001220703125</ele>
        <time>2014-05-21T11:14:54Z</time>
      </trkpt>
      <trkpt lat="43.927876045927405" lon="5.62778128311038">
        <ele>840.4000244140625</ele>
        <time>2014-05-21T11:14:55Z</time>
      </trkpt>
      <trkpt lat="43.927717041224241" lon="5.627792598679662">
        <ele>839.4000244140625</ele>
        <time>2014-05-21T11:14:57Z</time>
      </trkpt>
      <trkpt lat="43.927636742591858" lon="5.627789665013552">
        <ele>839.20001220703125</ele>
        <time>2014-05-21T11:14:58Z</time>
      </trkpt>
      <trkpt lat="43.927370952442288" lon="5.627775583416224">
        <ele>839.4000244140625</ele>
        <time>2014-05-21T11:15:02Z</time>
      </trkpt>
      <trkpt lat="43.927290737628937" lon="5.627765441313386">
        <ele>839.20001220703125</ele>
        <time>2014-05-21T11:15:31Z</time>
      </trkpt>
      <trkpt lat="43.9272356685251" lon="5.62776954844594">
        <ele>839</ele>
        <time>2014-05-21T11:15:33Z</time>
      </trkpt>
      <trkpt lat="43.927116058766842" lon="5.627753622829914">
        <ele>838</ele>
        <time>2014-05-21T11:15:36Z</time>
      </trkpt>
      <trkpt lat="43.927065851166844" lon="5.627746833488345">
        <ele>837.20001220703125</ele>
        <time>2014-05-21T11:15:37Z</time>
      </trkpt>
      <trkpt lat="43.927010949701071" lon="5.627741888165474">
        <ele>837.20001220703125</ele>
        <time>2014-05-21T11:15:38Z</time>
      </trkpt>
      <trkpt lat="43.926765695214272" lon="5.627701403573155">
        <ele>837.4000244140625</ele>
        <time>2014-05-21T11:15:42Z</time>
      </trkpt>
      <trkpt lat="43.926698472350836" lon="5.627694362774491">
        <ele>836.5999755859375</ele>
        <time>2014-05-21T11:15:43Z</time>
      </trkpt>
      <trkpt lat="43.926552543416619" lon="5.627682209014893">
        <ele>835.20001220703125</ele>
        <time>2014-05-21T11:15:45Z</time>
      </trkpt>
      <trkpt lat="43.926475932821631" lon="5.627678269520402">
        <ele>834</ele>
        <time>2014-05-21T11:15:46Z</time>
      </trkpt>
      <trkpt lat="43.926312904804945" lon="5.627669636160135">
        <ele>833</ele>
        <time>2014-05-21T11:15:48Z</time>
      </trkpt>
      <trkpt lat="43.926050718873739" lon="5.62764834612608">
        <ele>831.5999755859375</ele>
        <time>2014-05-21T11:15:51Z</time>
      </trkpt>
      <trkpt lat="43.92586556263268" lon="5.627641305327416">
        <ele>830.20001220703125</ele>
        <time>2014-05-21T11:15:53Z</time>
      </trkpt>
      <trkpt lat="43.925674790516496" lon="5.627629151567817">
        <ele>829</ele>
        <time>2014-05-21T11:15:55Z</time>
      </trkpt>
      <trkpt lat="43.925390895456076" lon="5.627607610076666">
        <ele>827.5999755859375</ele>
        <time>2014-05-21T11:15:58Z</time>
      </trkpt>
      <trkpt lat="43.925210600718856" lon="5.627594366669655">
        <ele>826.5999755859375</ele>
        <time>2014-05-21T11:16:00Z</time>
      </trkpt>
      <trkpt lat="43.92504514195025" lon="5.627583973109722">
        <ele>825.79998779296875</ele>
        <time>2014-05-21T11:16:02Z</time>
      </trkpt>
      <trkpt lat="43.924969285726547" lon="5.627570310607553">
        <ele>825.5999755859375</ele>
        <time>2014-05-21T11:16:03Z</time>
      </trkpt>
      <trkpt lat="43.924895944073796" lon="5.627546841278672">
        <ele>825</ele>
        <time>2014-05-21T11:16:04Z</time>
      </trkpt>
      <trkpt lat="43.924767365679145" lon="5.627447851002216">
        <ele>823.4000244140625</ele>
        <time>2014-05-21T11:16:06Z</time>
      </trkpt>
      <trkpt lat="43.924652449786663" lon="5.627311645075679">
        <ele>824.20001220703125</ele>
        <time>2014-05-21T11:16:08Z</time>
      </trkpt>
      <trkpt lat="43.924594447016716" lon="5.627240063622594">
        <ele>824.79998779296875</ele>
        <time>2014-05-21T11:16:09Z</time>
      </trkpt>
      <trkpt lat="43.92453745007515" lon="5.627165045589209">
        <ele>824.5999755859375</ele>
        <time>2014-05-21T11:16:10Z</time>
      </trkpt>
      <trkpt lat="43.924375595524907" lon="5.626935549080372">
        <ele>823.5999755859375</ele>
        <time>2014-05-21T11:16:13Z</time>
      </trkpt>
      <trkpt lat="43.924233354628086" lon="5.626707226037979">
        <ele>823</ele>
        <time>2014-05-21T11:16:16Z</time>
      </trkpt>
      <trkpt lat="43.924142075702548" lon="5.626563979312778">
        <ele>822.20001220703125</ele>
        <time>2014-05-21T11:16:18Z</time>
      </trkpt>
      <trkpt lat="43.923949291929603" lon="5.626322831958532">
        <ele>823.20001220703125</ele>
        <time>2014-05-21T11:16:22Z</time>
      </trkpt>
      <trkpt lat="43.92389640212059" lon="5.62626650556922">
        <ele>824</ele>
        <time>2014-05-21T11:16:23Z</time>
      </trkpt>
      <trkpt lat="43.923844266682863" lon="5.626209089532495">
        <ele>824.20001220703125</ele>
        <time>2014-05-21T11:16:24Z</time>
      </trkpt>
      <trkpt lat="43.923528771847486" lon="5.625845734030008">
        <ele>823.4000244140625</ele>
        <time>2014-05-21T11:16:30Z</time>
      </trkpt>
      <trkpt lat="43.923474540933967" lon="5.625781863927841">
        <ele>821.79998779296875</ele>
        <time>2014-05-21T11:16:31Z</time>
      </trkpt>
      <trkpt lat="43.923364989459515" lon="5.625645825639367">
        <ele>820.79998779296875</ele>
        <time>2014-05-21T11:16:33Z</time>
      </trkpt>
      <trkpt lat="43.923178240656853" lon="5.625422783195972">
        <ele>819.5999755859375</ele>
        <time>2014-05-21T11:16:36Z</time>
      </trkpt>
      <trkpt lat="43.923045303672552" lon="5.62526436522603">
        <ele>818</ele>
        <time>2014-05-21T11:16:38Z</time>
      </trkpt>
      <trkpt lat="43.922981433570385" lon="5.625185072422028">
        <ele>817</ele>
        <time>2014-05-21T11:16:39Z</time>
      </trkpt>
      <trkpt lat="43.922801893204451" lon="5.624945349991322">
        <ele>815.5999755859375</ele>
        <time>2014-05-21T11:16:42Z</time>
      </trkpt>
      <trkpt lat="43.922738442197442" lon="5.624866560101509">
        <ele>815</ele>
        <time>2014-05-21T11:16:43Z</time>
      </trkpt>
      <trkpt lat="43.922672141343355" lon="5.624787183478475">
        <ele>814.20001220703125</ele>
        <time>2014-05-21T11:16:44Z</time>
      </trkpt>
      <trkpt lat="43.922604331746697" lon="5.624703951179981">
        <ele>813</ele>
        <time>2014-05-21T11:16:45Z</time>
      </trkpt>
      <trkpt lat="43.922531912103295" lon="5.624617701396346">
        <ele>812</ele>
        <time>2014-05-21T11:16:46Z</time>
      </trkpt>
      <trkpt lat="43.922457313165069" lon="5.624526087194681">
        <ele>810.79998779296875</ele>
        <time>2014-05-21T11:16:47Z</time>
      </trkpt>
      <trkpt lat="43.922378020361066" lon="5.624432042241097">
        <ele>809.79998779296875</ele>
        <time>2014-05-21T11:16:48Z</time>
      </trkpt>
      <trkpt lat="43.922298392280936" lon="5.624336823821068">
        <ele>808.5999755859375</ele>
        <time>2014-05-21T11:16:49Z</time>
      </trkpt>
      <trkpt lat="43.922218680381775" lon="5.624241940677166">
        <ele>807.4000244140625</ele>
        <time>2014-05-21T11:16:50Z</time>
      </trkpt>
      <trkpt lat="43.922065375372767" lon="5.624053347855806">
        <ele>805.5999755859375</ele>
        <time>2014-05-21T11:16:52Z</time>
      </trkpt>
      <trkpt lat="43.921993039548397" lon="5.623961398378015">
        <ele>804.79998779296875</ele>
        <time>2014-05-21T11:16:53Z</time>
      </trkpt>
      <trkpt lat="43.921919697895646" lon="5.623874729499221">
        <ele>803.79998779296875</ele>
        <time>2014-05-21T11:16:54Z</time>
      </trkpt>
      <trkpt lat="43.921840824186802" lon="5.623791413381696">
        <ele>802.4000244140625</ele>
        <time>2014-05-21T11:16:55Z</time>
      </trkpt>
      <trkpt lat="43.921758094802499" lon="5.623707175254822">
        <ele>801.5999755859375</ele>
        <time>2014-05-21T11:16:56Z</time>
      </trkpt>
      <trkpt lat="43.92167117446661" lon="5.623623942956328">
        <ele>800.5999755859375</ele>
        <time>2014-05-21T11:16:57Z</time>
      </trkpt>
      <trkpt lat="43.9214938133955" lon="5.623457645997405">
        <ele>799</ele>
        <time>2014-05-21T11:16:59Z</time>
      </trkpt>
      <trkpt lat="43.921311339363456" lon="5.623299982398748">
        <ele>797.79998779296875</ele>
        <time>2014-05-21T11:17:01Z</time>
      </trkpt>
      <trkpt lat="43.921220395714045" lon="5.623221360146999">
        <ele>797.20001220703125</ele>
        <time>2014-05-21T11:17:02Z</time>
      </trkpt>
      <trkpt lat="43.921048147603869" lon="5.623072078451514">
        <ele>796.5999755859375</ele>
        <time>2014-05-21T11:17:04Z</time>
      </trkpt>
      <trkpt lat="43.920826446264982" lon="5.622869236394763">
        <ele>796</ele>
        <time>2014-05-21T11:17:07Z</time>
      </trkpt>
      <trkpt lat="43.920764336362481" lon="5.622803438454866">
        <ele>795.4000244140625</ele>
        <time>2014-05-21T11:17:08Z</time>
      </trkpt>
      <trkpt lat="43.920640451833606" lon="5.622691959142685">
        <ele>795.4000244140625</ele>
        <time>2014-05-21T11:17:10Z</time>
      </trkpt>
      <trkpt lat="43.920577336102724" lon="5.62265214510262">
        <ele>795.4000244140625</ele>
        <time>2014-05-21T11:17:11Z</time>
      </trkpt>
      <trkpt lat="43.920445321127772" lon="5.622621132060885">
        <ele>793.20001220703125</ele>
        <time>2014-05-21T11:17:13Z</time>
      </trkpt>
      <trkpt lat="43.920374326407909" lon="5.622627167031169">
        <ele>791.79998779296875</ele>
        <time>2014-05-21T11:17:14Z</time>
      </trkpt>
      <trkpt lat="43.920210124924779" lon="5.622666478157044">
        <ele>790.20001220703125</ele>
        <time>2014-05-21T11:17:16Z</time>
      </trkpt>
      <trkpt lat="43.920114487409592" lon="5.622691120952368">
        <ele>788.79998779296875</ele>
        <time>2014-05-21T11:17:17Z</time>
      </trkpt>
      <trkpt lat="43.920019268989563" lon="5.62272003851831">
        <ele>787</ele>
        <time>2014-05-21T11:17:18Z</time>
      </trkpt>
      <trkpt lat="43.919922206550837" lon="5.622748453170061">
        <ele>783.20001220703125</ele>
        <time>2014-05-21T11:17:19Z</time>
      </trkpt>
      <trkpt lat="43.919820953160524" lon="5.622779214754701">
        <ele>782.20001220703125</ele>
        <time>2014-05-21T11:17:20Z</time>
      </trkpt>
      <trkpt lat="43.919609980657697" lon="5.622840654104948">
        <ele>780.5999755859375</ele>
        <time>2014-05-21T11:17:22Z</time>
      </trkpt>
      <trkpt lat="43.919507637619972" lon="5.622873678803444">
        <ele>779.20001220703125</ele>
        <time>2014-05-21T11:17:23Z</time>
      </trkpt>
      <trkpt lat="43.919406635686755" lon="5.622906787320972">
        <ele>778.20001220703125</ele>
        <time>2014-05-21T11:17:24Z</time>
      </trkpt>
      <trkpt lat="43.919028444215655" lon="5.623020529747009">
        <ele>776.5999755859375</ele>
        <time>2014-05-21T11:17:28Z</time>
      </trkpt>
      <trkpt lat="43.918938506394625" lon="5.623042490333319">
        <ele>775.4000244140625</ele>
        <time>2014-05-21T11:17:29Z</time>
      </trkpt>
      <trkpt lat="43.918758882209659" lon="5.623099319636822">
        <ele>774</ele>
        <time>2014-05-21T11:17:31Z</time>
      </trkpt>
      <trkpt lat="43.918499294668436" lon="5.623176768422127">
        <ele>773</ele>
        <time>2014-05-21T11:17:34Z</time>
      </trkpt>
      <trkpt lat="43.918418493121862" lon="5.623198477551341">
        <ele>772.4000244140625</ele>
        <time>2014-05-21T11:17:35Z</time>
      </trkpt>
      <trkpt lat="43.918257225304842" lon="5.623236112296581">
        <ele>771</ele>
        <time>2014-05-21T11:17:37Z</time>
      </trkpt>
      <trkpt lat="43.918176423758268" lon="5.623243236914277">
        <ele>770.4000244140625</ele>
        <time>2014-05-21T11:17:38Z</time>
      </trkpt>
      <trkpt lat="43.918093359097838" lon="5.623246002942324">
        <ele>769.79998779296875</ele>
        <time>2014-05-21T11:17:39Z</time>
      </trkpt>
      <trkpt lat="43.918008198961616" lon="5.623244075104594">
        <ele>769</ele>
        <time>2014-05-21T11:17:40Z</time>
      </trkpt>
      <trkpt lat="43.917920188978314" lon="5.62323602847755">
        <ele>768.4000244140625</ele>
        <time>2014-05-21T11:17:41Z</time>
      </trkpt>
      <trkpt lat="43.917833268642426" lon="5.623225886374712">
        <ele>767.20001220703125</ele>
        <time>2014-05-21T11:17:42Z</time>
      </trkpt>
      <trkpt lat="43.917746264487505" lon="5.623216414824128">
        <ele>764.5999755859375</ele>
        <time>2014-05-21T11:17:43Z</time>
      </trkpt>
      <trkpt lat="43.917659679427743" lon="5.623209625482559">
        <ele>763.4000244140625</ele>
        <time>2014-05-21T11:17:44Z</time>
      </trkpt>
      <trkpt lat="43.917574100196362" lon="5.623198980465531">
        <ele>762.4000244140625</ele>
        <time>2014-05-21T11:17:45Z</time>
      </trkpt>
      <trkpt lat="43.917486174032092" lon="5.623185569420457">
        <ele>761.20001220703125</ele>
        <time>2014-05-21T11:17:46Z</time>
      </trkpt>
      <trkpt lat="43.917308645322919" lon="5.623156232759357">
        <ele>759.4000244140625</ele>
        <time>2014-05-21T11:17:48Z</time>
      </trkpt>
      <trkpt lat="43.91722222790122" lon="5.623143995180726">
        <ele>758.4000244140625</ele>
        <time>2014-05-21T11:17:49Z</time>
      </trkpt>
      <trkpt lat="43.91713916324079" lon="5.623135948553681">
        <ele>757.20001220703125</ele>
        <time>2014-05-21T11:17:50Z</time>
      </trkpt>
      <trkpt lat="43.917058613151312" lon="5.623131673783064">
        <ele>755.5999755859375</ele>
        <time>2014-05-21T11:17:51Z</time>
      </trkpt>
      <trkpt lat="43.916978985071182" lon="5.623131841421127">
        <ele>754.4000244140625</ele>
        <time>2014-05-21T11:17:52Z</time>
      </trkpt>
      <trkpt lat="43.916901703923941" lon="5.623143576085568">
        <ele>753.4000244140625</ele>
        <time>2014-05-21T11:17:53Z</time>
      </trkpt>
      <trkpt lat="43.916671955958009" lon="5.623243069276214">
        <ele>752</ele>
        <time>2014-05-21T11:17:56Z</time>
      </trkpt>
      <trkpt lat="43.916593920439482" lon="5.623293779790402">
        <ele>751</ele>
        <time>2014-05-21T11:17:57Z</time>
      </trkpt>
      <trkpt lat="43.916515549644828" lon="5.623349351808429">
        <ele>749.4000244140625</ele>
        <time>2014-05-21T11:17:58Z</time>
      </trkpt>
      <trkpt lat="43.916441537439823" lon="5.623404169455171">
        <ele>748</ele>
        <time>2014-05-21T11:17:59Z</time>
      </trkpt>
      <trkpt lat="43.916371967643499" lon="5.623455047607422">
        <ele>746.5999755859375</ele>
        <time>2014-05-21T11:18:00Z</time>
      </trkpt>
      <trkpt lat="43.916301978752017" lon="5.62350039370358">
        <ele>745.5999755859375</ele>
        <time>2014-05-21T11:18:01Z</time>
      </trkpt>
      <trkpt lat="43.916230648756027" lon="5.623546745628119">
        <ele>744.79998779296875</ele>
        <time>2014-05-21T11:18:02Z</time>
      </trkpt>
      <trkpt lat="43.916158732026815" lon="5.623593768104911">
        <ele>743.79998779296875</ele>
        <time>2014-05-21T11:18:03Z</time>
      </trkpt>
      <trkpt lat="43.91608715057373" lon="5.623641461133957">
        <ele>742.5999755859375</ele>
        <time>2014-05-21T11:18:04Z</time>
      </trkpt>
      <trkpt lat="43.915946334600449" lon="5.623733745887876">
        <ele>740.5999755859375</ele>
        <time>2014-05-21T11:18:06Z</time>
      </trkpt>
      <trkpt lat="43.915876010432839" lon="5.623780433088541">
        <ele>737.5999755859375</ele>
        <time>2014-05-21T11:18:07Z</time>
      </trkpt>
      <trkpt lat="43.915738547220826" lon="5.623874310404062">
        <ele>736</ele>
        <time>2014-05-21T11:18:09Z</time>
      </trkpt>
      <trkpt lat="43.915606196969748" lon="5.623965337872505">
        <ele>734.79998779296875</ele>
        <time>2014-05-21T11:18:11Z</time>
      </trkpt>
      <trkpt lat="43.915474181994796" lon="5.624030297622085">
        <ele>733</ele>
        <time>2014-05-21T11:18:13Z</time>
      </trkpt>
      <trkpt lat="43.915401259437203" lon="5.624040691182017">
        <ele>731.79998779296875</ele>
        <time>2014-05-21T11:18:14Z</time>
      </trkpt>
      <trkpt lat="43.915320206433535" lon="5.624027196317911">
        <ele>730.5999755859375</ele>
        <time>2014-05-21T11:18:15Z</time>
      </trkpt>
      <trkpt lat="43.915233705192804" lon="5.623993584886193">
        <ele>729.20001220703125</ele>
        <time>2014-05-21T11:18:16Z</time>
      </trkpt>
      <trkpt lat="43.915144270285964" lon="5.623942958191037">
        <ele>728.4000244140625</ele>
        <time>2014-05-21T11:18:17Z</time>
      </trkpt>
      <trkpt lat="43.915053745731711" lon="5.623882440850139">
        <ele>727.20001220703125</ele>
        <time>2014-05-21T11:18:18Z</time>
      </trkpt>
      <trkpt lat="43.914961880072951" lon="5.623813373968005">
        <ele>726.20001220703125</ele>
        <time>2014-05-21T11:18:19Z</time>
      </trkpt>
      <trkpt lat="43.914867248386145" lon="5.623741960152984">
        <ele>724.5999755859375</ele>
        <time>2014-05-21T11:18:20Z</time>
      </trkpt>
      <trkpt lat="43.914770018309355" lon="5.623670797795057">
        <ele>723.5999755859375</ele>
        <time>2014-05-21T11:18:21Z</time>
      </trkpt>
      <trkpt lat="43.91456994228065" lon="5.623523024842143">
        <ele>722.20001220703125</ele>
        <time>2014-05-21T11:18:23Z</time>
      </trkpt>
      <trkpt lat="43.914361735805869" lon="5.623369803652167">
        <ele>720.79998779296875</ele>
        <time>2014-05-21T11:18:25Z</time>
      </trkpt>
      <trkpt lat="43.914151769131422" lon="5.623215744271874">
        <ele>719</ele>
        <time>2014-05-21T11:18:27Z</time>
      </trkpt>
      <trkpt lat="43.914047414436936" lon="5.623139385133982">
        <ele>718.4000244140625</ele>
        <time>2014-05-21T11:18:28Z</time>
      </trkpt>
      <trkpt lat="43.913943227380514" lon="5.623062439262867">
        <ele>717.20001220703125</ele>
        <time>2014-05-21T11:18:29Z</time>
      </trkpt>
      <trkpt lat="43.913728063926101" lon="5.622906619682908">
        <ele>714.4000244140625</ele>
        <time>2014-05-21T11:18:31Z</time>
      </trkpt>
      <trkpt lat="43.913428159430623" lon="5.622693886980414">
        <ele>714</ele>
        <time>2014-05-21T11:18:34Z</time>
      </trkpt>
      <trkpt lat="43.913103695958853" lon="5.622453158721328">
        <ele>714</ele>
        <time>2014-05-21T11:18:38Z</time>
      </trkpt>
      <trkpt lat="43.912956090644002" lon="5.622346037998796">
        <ele>713.4000244140625</ele>
        <time>2014-05-21T11:18:40Z</time>
      </trkpt>
      <trkpt lat="43.912754505872726" lon="5.622178819030523">
        <ele>712</ele>
        <time>2014-05-21T11:18:43Z</time>
      </trkpt>
      <trkpt lat="43.912699185311794" lon="5.622101621702313">
        <ele>711.4000244140625</ele>
        <time>2014-05-21T11:18:44Z</time>
      </trkpt>
      <trkpt lat="43.912648390978575" lon="5.622007744386792">
        <ele>710.4000244140625</ele>
        <time>2014-05-21T11:18:45Z</time>
      </trkpt>
      <trkpt lat="43.912561554461718" lon="5.621784282848239">
        <ele>708.4000244140625</ele>
        <time>2014-05-21T11:18:47Z</time>
      </trkpt>
      <trkpt lat="43.912522159516811" lon="5.621665427461267">
        <ele>707</ele>
        <time>2014-05-21T11:18:48Z</time>
      </trkpt>
      <trkpt lat="43.912444794550538" lon="5.621419167146087">
        <ele>705.20001220703125</ele>
        <time>2014-05-21T11:18:50Z</time>
      </trkpt>
      <trkpt lat="43.912366339936852" lon="5.621168045327067">
        <ele>703</ele>
        <time>2014-05-21T11:18:52Z</time>
      </trkpt>
      <trkpt lat="43.91232811845839" lon="5.621040221303701">
        <ele>701.4000244140625</ele>
        <time>2014-05-21T11:18:53Z</time>
      </trkpt>
      <trkpt lat="43.912288891151547" lon="5.620915498584509">
        <ele>700.4000244140625</ele>
        <time>2014-05-21T11:18:54Z</time>
      </trkpt>
      <trkpt lat="43.912253938615322" lon="5.620789937674999">
        <ele>698.20001220703125</ele>
        <time>2014-05-21T11:18:55Z</time>
      </trkpt>
      <trkpt lat="43.912167185917497" lon="5.620553735643625">
        <ele>696.4000244140625</ele>
        <time>2014-05-21T11:18:57Z</time>
      </trkpt>
      <trkpt lat="43.912100549787283" lon="5.620457930490375">
        <ele>695.5999755859375</ele>
        <time>2014-05-21T11:18:58Z</time>
      </trkpt>
      <trkpt lat="43.91201731748879" lon="5.620386097580195">
        <ele>694.5999755859375</ele>
        <time>2014-05-21T11:18:59Z</time>
      </trkpt>
      <trkpt lat="43.911818163469434" lon="5.6202891189605">
        <ele>693</ele>
        <time>2014-05-21T11:19:01Z</time>
      </trkpt>
      <trkpt lat="43.911707773804665" lon="5.620251316577196">
        <ele>692</ele>
        <time>2014-05-21T11:19:02Z</time>
      </trkpt>
      <trkpt lat="43.911480959504843" lon="5.62017428688705">
        <ele>689.79998779296875</ele>
        <time>2014-05-21T11:19:04Z</time>
      </trkpt>
      <trkpt lat="43.911376856267452" lon="5.620139501988888">
        <ele>688.79998779296875</ele>
        <time>2014-05-21T11:19:05Z</time>
      </trkpt>
      <trkpt lat="43.91128046438098" lon="5.620111422613263">
        <ele>687.20001220703125</ele>
        <time>2014-05-21T11:19:06Z</time>
      </trkpt>
      <trkpt lat="43.911102432757616" lon="5.620052749291062">
        <ele>685.79998779296875</ele>
        <time>2014-05-21T11:19:08Z</time>
      </trkpt>
      <trkpt lat="43.91084753908217" lon="5.619967505335808">
        <ele>684.20001220703125</ele>
        <time>2014-05-21T11:19:11Z</time>
      </trkpt>
      <trkpt lat="43.910677637904882" lon="5.619878070428968">
        <ele>682.79998779296875</ele>
        <time>2014-05-21T11:19:13Z</time>
      </trkpt>
      <trkpt lat="43.910512262955308" lon="5.619777571409941">
        <ele>681</ele>
        <time>2014-05-21T11:19:15Z</time>
      </trkpt>
      <trkpt lat="43.910433892160654" lon="5.619725771248341">
        <ele>679.5999755859375</ele>
        <time>2014-05-21T11:19:16Z</time>
      </trkpt>
      <trkpt lat="43.910354096442461" lon="5.619676066562533">
        <ele>678.5999755859375</ele>
        <time>2014-05-21T11:19:17Z</time>
      </trkpt>
      <trkpt lat="43.910203222185373" lon="5.619578752666712">
        <ele>677.20001220703125</ele>
        <time>2014-05-21T11:19:19Z</time>
      </trkpt>
      <trkpt lat="43.910135664045811" lon="5.619534496217966">
        <ele>675.4000244140625</ele>
        <time>2014-05-21T11:19:20Z</time>
      </trkpt>
      <trkpt lat="43.910007504746318" lon="5.619460316374898">
        <ele>674.20001220703125</ele>
        <time>2014-05-21T11:19:22Z</time>
      </trkpt>
      <trkpt lat="43.909944472834468" lon="5.619437517598271">
        <ele>673.5999755859375</ele>
        <time>2014-05-21T11:19:23Z</time>
      </trkpt>
      <trkpt lat="43.909881273284554" lon="5.619420502334833">
        <ele>673</ele>
        <time>2014-05-21T11:19:24Z</time>
      </trkpt>
      <trkpt lat="43.909745151177049" lon="5.619422430172563">
        <ele>671.79998779296875</ele>
        <time>2014-05-21T11:19:26Z</time>
      </trkpt>
      <trkpt lat="43.909607185050845" lon="5.619454113766551">
        <ele>669.4000244140625</ele>
        <time>2014-05-21T11:19:28Z</time>
      </trkpt>
      <trkpt lat="43.909541973844171" lon="5.619467021897435">
        <ele>668</ele>
        <time>2014-05-21T11:19:29Z</time>
      </trkpt>
      <trkpt lat="43.909475924447179" lon="5.619477666914463">
        <ele>666.5999755859375</ele>
        <time>2014-05-21T11:19:30Z</time>
      </trkpt>
      <trkpt lat="43.909341646358371" lon="5.619505997747183">
        <ele>665.5999755859375</ele>
        <time>2014-05-21T11:19:32Z</time>
      </trkpt>
      <trkpt lat="43.909273752942681" lon="5.619522426277399">
        <ele>665</ele>
        <time>2014-05-21T11:19:33Z</time>
      </trkpt>
      <trkpt lat="43.909138888120651" lon="5.619549918919802">
        <ele>662.20001220703125</ele>
        <time>2014-05-21T11:19:35Z</time>
      </trkpt>
      <trkpt lat="43.909077700227499" lon="5.61956643126905">
        <ele>660.20001220703125</ele>
        <time>2014-05-21T11:19:36Z</time>
      </trkpt>
      <trkpt lat="43.909017769619823" lon="5.619585290551186">
        <ele>658.4000244140625</ele>
        <time>2014-05-21T11:19:37Z</time>
      </trkpt>
      <trkpt lat="43.908959683030844" lon="5.619602221995592">
        <ele>658</ele>
        <time>2014-05-21T11:19:38Z</time>
      </trkpt>
      <trkpt lat="43.908742088824511" lon="5.61965930275619">
        <ele>657.20001220703125</ele>
        <time>2014-05-21T11:19:42Z</time>
      </trkpt>
      <trkpt lat="43.90863262116909" lon="5.619690651074052">
        <ele>655.5999755859375</ele>
        <time>2014-05-21T11:19:44Z</time>
      </trkpt>
      <trkpt lat="43.908578222617507" lon="5.619700038805604">
        <ele>654.20001220703125</ele>
        <time>2014-05-21T11:19:45Z</time>
      </trkpt>
      <trkpt lat="43.908416451886296" lon="5.619743289425969">
        <ele>653</ele>
        <time>2014-05-21T11:19:48Z</time>
      </trkpt>
      <trkpt lat="43.908364148810506" lon="5.619757790118456">
        <ele>651.5999755859375</ele>
        <time>2014-05-21T11:19:49Z</time>
      </trkpt>
      <trkpt lat="43.908311007544398" lon="5.619768099859357">
        <ele>650.4000244140625</ele>
        <time>2014-05-21T11:19:50Z</time>
      </trkpt>
      <trkpt lat="43.908260380849242" lon="5.619770865887404">
        <ele>649.79998779296875</ele>
        <time>2014-05-21T11:19:51Z</time>
      </trkpt>
      <trkpt lat="43.908210759982467" lon="5.619760639965534">
        <ele>650.20001220703125</ele>
        <time>2014-05-21T11:19:52Z</time>
      </trkpt>
      <trkpt lat="43.908120570704341" lon="5.619598450139165">
        <ele>649</ele>
        <time>2014-05-21T11:19:55Z</time>
      </trkpt>
      <trkpt lat="43.908154349774122" lon="5.619364008307457">
        <ele>648</ele>
        <time>2014-05-21T11:19:58Z</time>
      </trkpt>
      <trkpt lat="43.908179495483637" lon="5.619290163740516">
        <ele>647.79998779296875</ele>
        <time>2014-05-21T11:19:59Z</time>
      </trkpt>
      <trkpt lat="43.9082055632025" lon="5.619214475154877">
        <ele>647.79998779296875</ele>
        <time>2014-05-21T11:20:00Z</time>
      </trkpt>
      <trkpt lat="43.908337997272611" lon="5.618896465748549">
        <ele>647</ele>
        <time>2014-05-21T11:20:04Z</time>
      </trkpt>
      <trkpt lat="43.908368004485965" lon="5.618810970336199">
        <ele>646.5999755859375</ele>
        <time>2014-05-21T11:20:05Z</time>
      </trkpt>
      <trkpt lat="43.908429024741054" lon="5.618645679205656">
        <ele>645.4000244140625</ele>
        <time>2014-05-21T11:20:07Z</time>
      </trkpt>
      <trkpt lat="43.908454924821854" lon="5.618561273440719">
        <ele>644</ele>
        <time>2014-05-21T11:20:08Z</time>
      </trkpt>
      <trkpt lat="43.908496079966426" lon="5.618389444425702">
        <ele>643.79998779296875</ele>
        <time>2014-05-21T11:20:10Z</time>
      </trkpt>
      <trkpt lat="43.908517621457577" lon="5.618213759735227">
        <ele>643</ele>
        <time>2014-05-21T11:20:12Z</time>
      </trkpt>
      <trkpt lat="43.908528350293636" lon="5.618029525503516">
        <ele>641.4000244140625</ele>
        <time>2014-05-21T11:20:14Z</time>
      </trkpt>
      <trkpt lat="43.908533127978444" lon="5.617928775027394">
        <ele>640.4000244140625</ele>
        <time>2014-05-21T11:20:15Z</time>
      </trkpt>
      <trkpt lat="43.908536480739713" lon="5.61782592907548">
        <ele>638.79998779296875</ele>
        <time>2014-05-21T11:20:16Z</time>
      </trkpt>
      <trkpt lat="43.908542180433869" lon="5.617725932970643">
        <ele>637.79998779296875</ele>
        <time>2014-05-21T11:20:17Z</time>
      </trkpt>
      <trkpt lat="43.908557938411832" lon="5.617526695132256">
        <ele>636.4000244140625</ele>
        <time>2014-05-21T11:20:19Z</time>
      </trkpt>
      <trkpt lat="43.908565985038877" lon="5.617327373474836">
        <ele>634.79998779296875</ele>
        <time>2014-05-21T11:20:21Z</time>
      </trkpt>
      <trkpt lat="43.908575959503651" lon="5.617162585258484">
        <ele>633.79998779296875</ele>
        <time>2014-05-21T11:20:23Z</time>
      </trkpt>
      <trkpt lat="43.908588364720345" lon="5.61702168546617">
        <ele>633.4000244140625</ele>
        <time>2014-05-21T11:20:25Z</time>
      </trkpt>
      <trkpt lat="43.908568331971765" lon="5.616811886429787">
        <ele>632.79998779296875</ele>
        <time>2014-05-21T11:20:28Z</time>
      </trkpt>
      <trkpt lat="43.908550981432199" lon="5.616682218387723">
        <ele>632.5999755859375</ele>
        <time>2014-05-21T11:20:30Z</time>
      </trkpt>
      <trkpt lat="43.90855148434639" lon="5.616515502333641">
        <ele>632.5999755859375</ele>
        <time>2014-05-21T11:20:34Z</time>
      </trkpt>
      <trkpt lat="43.908618036657572" lon="5.616274857893586">
        <ele>633.5999755859375</ele>
        <time>2014-05-21T11:20:41Z</time>
      </trkpt>
      <trkpt lat="43.908631531521678" lon="5.616234876215458">
        <ele>633.79998779296875</ele>
        <time>2014-05-21T11:20:42Z</time>
      </trkpt>
      <trkpt lat="43.908651731908321" lon="5.616054246202111">
        <ele>634.4000244140625</ele>
        <time>2014-05-21T11:20:47Z</time>
      </trkpt>
      <trkpt lat="43.908613929525018" lon="5.615936731919646">
        <ele>634.79998779296875</ele>
        <time>2014-05-21T11:20:51Z</time>
      </trkpt>
      <trkpt lat="43.908588113263249" lon="5.615898845717311">
        <ele>634.79998779296875</ele>
        <time>2014-05-21T11:20:53Z</time>
      </trkpt>
      <trkpt lat="43.908472610637546" lon="5.615853248164058">
        <ele>634.20001220703125</ele>
        <time>2014-05-21T11:20:58Z</time>
      </trkpt>
      <trkpt lat="43.908344535157084" lon="5.61584847047925">
        <ele>636</ele>
        <time>2014-05-21T11:21:03Z</time>
      </trkpt>
      <trkpt lat="43.90831989236176" lon="5.615847213193774">
        <ele>636</ele>
        <time>2014-05-21T11:21:04Z</time>
      </trkpt>
      <trkpt lat="43.908154768869281" lon="5.615825168788433">
        <ele>636</ele>
        <time>2014-05-21T11:21:10Z</time>
      </trkpt>
      <trkpt lat="43.907951004803181" lon="5.615833215415478">
        <ele>634.79998779296875</ele>
        <time>2014-05-21T11:21:15Z</time>
      </trkpt>
      <trkpt lat="43.907847488299012" lon="5.615842770785093">
        <ele>633.4000244140625</ele>
        <time>2014-05-21T11:21:17Z</time>
      </trkpt>
      <trkpt lat="43.907670294865966" lon="5.615858780220151">
        <ele>631.5999755859375</ele>
        <time>2014-05-21T11:21:20Z</time>
      </trkpt>
      <trkpt lat="43.907608352601528" lon="5.615863474085927">
        <ele>631.4000244140625</ele>
        <time>2014-05-21T11:21:21Z</time>
      </trkpt>
      <trkpt lat="43.907485138624907" lon="5.615876633673906">
        <ele>630.20001220703125</ele>
        <time>2014-05-21T11:21:23Z</time>
      </trkpt>
      <trkpt lat="43.907120861113071" lon="5.615878142416477">
        <ele>628.79998779296875</ele>
        <time>2014-05-21T11:21:29Z</time>
      </trkpt>
      <trkpt lat="43.907065456733108" lon="5.615852158516645">
        <ele>628.5999755859375</ele>
        <time>2014-05-21T11:21:30Z</time>
      </trkpt>
      <trkpt lat="43.9069121517241" lon="5.615734225139022">
        <ele>628.4000244140625</ele>
        <time>2014-05-21T11:21:33Z</time>
      </trkpt>
      <trkpt lat="43.906817603856325" lon="5.615636575967073">
        <ele>628.20001220703125</ele>
        <time>2014-05-21T11:21:35Z</time>
      </trkpt>
      <trkpt lat="43.906638901680708" lon="5.615438343957067">
        <ele>629</ele>
        <time>2014-05-21T11:21:39Z</time>
      </trkpt>
      <trkpt lat="43.906595315784216" lon="5.615390818566084">
        <ele>629.20001220703125</ele>
        <time>2014-05-21T11:21:40Z</time>
      </trkpt>
      <trkpt lat="43.906510155647993" lon="5.615311022847891">
        <ele>629</ele>
        <time>2014-05-21T11:21:42Z</time>
      </trkpt>
      <trkpt lat="43.906362466514111" lon="5.615202896296978">
        <ele>628.5999755859375</ele>
        <time>2014-05-21T11:21:45Z</time>
      </trkpt>
      <trkpt lat="43.906245203688741" lon="5.615127291530371">
        <ele>627.5999755859375</ele>
        <time>2014-05-21T11:21:47Z</time>
      </trkpt>
      <trkpt lat="43.906055018305779" lon="5.614992678165436">
        <ele>626.5999755859375</ele>
        <time>2014-05-21T11:21:50Z</time>
      </trkpt>
      <trkpt lat="43.905988885089755" lon="5.614944817498326">
        <ele>626.4000244140625</ele>
        <time>2014-05-21T11:21:51Z</time>
      </trkpt>
      <trkpt lat="43.905851673334837" lon="5.614849934354425">
        <ele>625</ele>
        <time>2014-05-21T11:21:53Z</time>
      </trkpt>
      <trkpt lat="43.905559228733182" lon="5.614647343754768">
        <ele>623.79998779296875</ele>
        <time>2014-05-21T11:21:57Z</time>
      </trkpt>
      <trkpt lat="43.905262760818005" lon="5.614439388737083">
        <ele>622.79998779296875</ele>
        <time>2014-05-21T11:22:01Z</time>
      </trkpt>
      <trkpt lat="43.905115155503154" lon="5.614321371540427">
        <ele>621.79998779296875</ele>
        <time>2014-05-21T11:22:03Z</time>
      </trkpt>
      <trkpt lat="43.905042400583625" lon="5.614261776208878">
        <ele>621.4000244140625</ele>
        <time>2014-05-21T11:22:04Z</time>
      </trkpt>
      <trkpt lat="43.904762277379632" lon="5.614033872261643">
        <ele>620.4000244140625</ele>
        <time>2014-05-21T11:22:08Z</time>
      </trkpt>
      <trkpt lat="43.904553148895502" lon="5.613849302753806">
        <ele>619.79998779296875</ele>
        <time>2014-05-21T11:22:11Z</time>
      </trkpt>
      <trkpt lat="43.904419541358948" lon="5.61370387673378">
        <ele>619.20001220703125</ele>
        <time>2014-05-21T11:22:13Z</time>
      </trkpt>
      <trkpt lat="43.904288867488503" lon="5.613549565896392">
        <ele>618.20001220703125</ele>
        <time>2014-05-21T11:22:15Z</time>
      </trkpt>
      <trkpt lat="43.904155008494854" lon="5.613387962803245">
        <ele>618</ele>
        <time>2014-05-21T11:22:17Z</time>
      </trkpt>
      <trkpt lat="43.903946718201041" lon="5.613130806013942">
        <ele>616.5999755859375</ele>
        <time>2014-05-21T11:22:20Z</time>
      </trkpt>
      <trkpt lat="43.903736919164658" lon="5.612876582890749">
        <ele>615.4000244140625</ele>
        <time>2014-05-21T11:22:23Z</time>
      </trkpt>
      <trkpt lat="43.903676737099886" lon="5.612799217924476">
        <ele>615.20001220703125</ele>
        <time>2014-05-21T11:22:24Z</time>
      </trkpt>
      <trkpt lat="43.903371468186378" lon="5.612501241266727">
        <ele>614.20001220703125</ele>
        <time>2014-05-21T11:22:29Z</time>
      </trkpt>
      <trkpt lat="43.903303993865848" lon="5.612463522702456">
        <ele>614</ele>
        <time>2014-05-21T11:22:30Z</time>
      </trkpt>
      <trkpt lat="43.903159741312265" lon="5.61242806725204">
        <ele>612.79998779296875</ele>
        <time>2014-05-21T11:22:32Z</time>
      </trkpt>
      <trkpt lat="43.903086064383388" lon="5.612429324537516">
        <ele>612.20001220703125</ele>
        <time>2014-05-21T11:22:33Z</time>
      </trkpt>
      <trkpt lat="43.903012722730637" lon="5.612447513267398">
        <ele>611.79998779296875</ele>
        <time>2014-05-21T11:22:34Z</time>
      </trkpt>
      <trkpt lat="43.902793619781733" lon="5.612550443038344">
        <ele>611</ele>
        <time>2014-05-21T11:22:37Z</time>
      </trkpt>
      <trkpt lat="43.902655066922307" lon="5.612623281776905">
        <ele>610.5999755859375</ele>
        <time>2014-05-21T11:22:39Z</time>
      </trkpt>
      <trkpt lat="43.902462618425488" lon="5.612732162699103">
        <ele>609.20001220703125</ele>
        <time>2014-05-21T11:22:42Z</time>
      </trkpt>
      <trkpt lat="43.902395982295275" lon="5.612758565694094">
        <ele>609.20001220703125</ele>
        <time>2014-05-21T11:22:43Z</time>
      </trkpt>
      <trkpt lat="43.902326161041856" lon="5.612776083871722">
        <ele>608.79998779296875</ele>
        <time>2014-05-21T11:22:44Z</time>
      </trkpt>
      <trkpt lat="43.902190709486604" lon="5.612748339772224">
        <ele>607.79998779296875</ele>
        <time>2014-05-21T11:22:46Z</time>
      </trkpt>
      <trkpt lat="43.902126420289278" lon="5.61271246522665">
        <ele>607.4000244140625</ele>
        <time>2014-05-21T11:22:47Z</time>
      </trkpt>
      <trkpt lat="43.902063220739365" lon="5.612671142444015">
        <ele>606.79998779296875</ele>
        <time>2014-05-21T11:22:48Z</time>
      </trkpt>
      <trkpt lat="43.901942688971758" lon="5.612571397796273">
        <ele>605.20001220703125</ele>
        <time>2014-05-21T11:22:50Z</time>
      </trkpt>
      <trkpt lat="43.90182550996542" lon="5.612467881292105">
        <ele>604.5999755859375</ele>
        <time>2014-05-21T11:22:52Z</time>
      </trkpt>
      <trkpt lat="43.901766082271934" lon="5.612417086958885">
        <ele>604.20001220703125</ele>
        <time>2014-05-21T11:22:53Z</time>
      </trkpt>
      <trkpt lat="43.901657201349735" lon="5.61230200342834">
        <ele>603.20001220703125</ele>
        <time>2014-05-21T11:22:55Z</time>
      </trkpt>
      <trkpt lat="43.901574136689305" lon="5.612145848572254">
        <ele>603.4000244140625</ele>
        <time>2014-05-21T11:22:57Z</time>
      </trkpt>
      <trkpt lat="43.90148788690567" lon="5.611750474199653">
        <ele>601.79998779296875</ele>
        <time>2014-05-21T11:23:01Z</time>
      </trkpt>
      <trkpt lat="43.901462992653251" lon="5.611543189734221">
        <ele>600</ele>
        <time>2014-05-21T11:23:03Z</time>
      </trkpt>
      <trkpt lat="43.901419658213854" lon="5.611343029886484">
        <ele>598.20001220703125</ele>
        <time>2014-05-21T11:23:05Z</time>
      </trkpt>
      <trkpt lat="43.901377161964774" lon="5.611260803416371">
        <ele>597.5999755859375</ele>
        <time>2014-05-21T11:23:06Z</time>
      </trkpt>
      <trkpt lat="43.901187814772129" lon="5.611147563904524">
        <ele>597.20001220703125</ele>
        <time>2014-05-21T11:23:09Z</time>
      </trkpt>
      <trkpt lat="43.901113886386156" lon="5.611142870038748">
        <ele>597</ele>
        <time>2014-05-21T11:23:10Z</time>
      </trkpt>
      <trkpt lat="43.901038281619549" lon="5.611143372952938">
        <ele>596.4000244140625</ele>
        <time>2014-05-21T11:23:11Z</time>
      </trkpt>
      <trkpt lat="43.900959827005863" lon="5.611145552247763">
        <ele>595.79998779296875</ele>
        <time>2014-05-21T11:23:12Z</time>
      </trkpt>
      <trkpt lat="43.900878857821226" lon="5.611148485913873">
        <ele>595.20001220703125</ele>
        <time>2014-05-21T11:23:13Z</time>
      </trkpt>
      <trkpt lat="43.900797972455621" lon="5.611155526712537">
        <ele>594.79998779296875</ele>
        <time>2014-05-21T11:23:14Z</time>
      </trkpt>
      <trkpt lat="43.900632932782173" lon="5.611169943585992">
        <ele>593.5999755859375</ele>
        <time>2014-05-21T11:23:16Z</time>
      </trkpt>
      <trkpt lat="43.900469150394201" lon="5.611169189214706">
        <ele>592.4000244140625</ele>
        <time>2014-05-21T11:23:18Z</time>
      </trkpt>
      <trkpt lat="43.900310564786196" lon="5.611168351024389">
        <ele>589.79998779296875</ele>
        <time>2014-05-21T11:23:20Z</time>
      </trkpt>
      <trkpt lat="43.900152817368507" lon="5.611142618581653">
        <ele>589.79998779296875</ele>
        <time>2014-05-21T11:23:22Z</time>
      </trkpt>
      <trkpt lat="43.900007642805576" lon="5.61107698827982">
        <ele>589</ele>
        <time>2014-05-21T11:23:24Z</time>
      </trkpt>
      <trkpt lat="43.899935893714428" lon="5.611037760972977">
        <ele>588.20001220703125</ele>
        <time>2014-05-21T11:23:25Z</time>
      </trkpt>
      <trkpt lat="43.899646298959851" lon="5.610880684107542">
        <ele>587.20001220703125</ele>
        <time>2014-05-21T11:23:29Z</time>
      </trkpt>
      <trkpt lat="43.899426441639662" lon="5.610731653869152">
        <ele>586.79998779296875</ele>
        <time>2014-05-21T11:23:32Z</time>
      </trkpt>
      <trkpt lat="43.899358380585909" lon="5.610660826787353">
        <ele>586</ele>
        <time>2014-05-21T11:23:33Z</time>
      </trkpt>
      <trkpt lat="43.899225611239672" lon="5.610506432130933">
        <ele>584.79998779296875</ele>
        <time>2014-05-21T11:23:35Z</time>
      </trkpt>
      <trkpt lat="43.899095859378576" lon="5.610320940613747">
        <ele>583.4000244140625</ele>
        <time>2014-05-21T11:23:37Z</time>
      </trkpt>
      <trkpt lat="43.898975411430001" lon="5.610121786594391">
        <ele>582</ele>
        <time>2014-05-21T11:23:39Z</time>
      </trkpt>
      <trkpt lat="43.898860160261393" lon="5.609920956194401">
        <ele>580.79998779296875</ele>
        <time>2014-05-21T11:23:41Z</time>
      </trkpt>
      <trkpt lat="43.898753458634019" lon="5.609739739447832">
        <ele>580</ele>
        <time>2014-05-21T11:23:43Z</time>
      </trkpt>
      <trkpt lat="43.898704675957561" lon="5.609652232378721">
        <ele>579.5999755859375</ele>
        <time>2014-05-21T11:23:44Z</time>
      </trkpt>
      <trkpt lat="43.898616330698133" lon="5.609480990096927">
        <ele>578.4000244140625</ele>
        <time>2014-05-21T11:23:46Z</time>
      </trkpt>
      <trkpt lat="43.898551287129521" lon="5.609303042292595">
        <ele>578.20001220703125</ele>
        <time>2014-05-21T11:23:48Z</time>
      </trkpt>
      <trkpt lat="43.898547850549221" lon="5.609110593795776">
        <ele>577.4000244140625</ele>
        <time>2014-05-21T11:23:50Z</time>
      </trkpt>
      <trkpt lat="43.898559501394629" lon="5.609009508043528">
        <ele>576.5999755859375</ele>
        <time>2014-05-21T11:23:51Z</time>
      </trkpt>
      <trkpt lat="43.898583892732859" lon="5.608916385099292">
        <ele>576.20001220703125</ele>
        <time>2014-05-21T11:23:52Z</time>
      </trkpt>
      <trkpt lat="43.898682463914156" lon="5.608789566904306">
        <ele>575.79998779296875</ele>
        <time>2014-05-21T11:23:54Z</time>
      </trkpt>
      <trkpt lat="43.898815484717488" lon="5.608689319342375">
        <ele>575.20001220703125</ele>
        <time>2014-05-21T11:23:56Z</time>
      </trkpt>
      <trkpt lat="43.898924365639687" lon="5.608538445085287">
        <ele>574</ele>
        <time>2014-05-21T11:23:58Z</time>
      </trkpt>
      <trkpt lat="43.898964850232005" lon="5.608445573598146">
        <ele>573</ele>
        <time>2014-05-21T11:23:59Z</time>
      </trkpt>
      <trkpt lat="43.898994186893106" lon="5.608344236388803">
        <ele>572</ele>
        <time>2014-05-21T11:24:00Z</time>
      </trkpt>
      <trkpt lat="43.899019081145525" lon="5.608244156464934">
        <ele>571.4000244140625</ele>
        <time>2014-05-21T11:24:01Z</time>
      </trkpt>
      <trkpt lat="43.89910290017724" lon="5.607975013554096">
        <ele>570.79998779296875</ele>
        <time>2014-05-21T11:24:04Z</time>
      </trkpt>
      <trkpt lat="43.899149084463716" lon="5.607897732406855">
        <ele>570.5999755859375</ele>
        <time>2014-05-21T11:24:05Z</time>
      </trkpt>
      <trkpt lat="43.899264587089419" lon="5.607756664976478">
        <ele>569.4000244140625</ele>
        <time>2014-05-21T11:24:07Z</time>
      </trkpt>
      <trkpt lat="43.899331307038665" lon="5.607694555073977">
        <ele>568.20001220703125</ele>
        <time>2014-05-21T11:24:08Z</time>
      </trkpt>
      <trkpt lat="43.899394255131483" lon="5.607629595324397">
        <ele>567.5999755859375</ele>
        <time>2014-05-21T11:24:09Z</time>
      </trkpt>
      <trkpt lat="43.899510763585567" lon="5.60748903080821">
        <ele>566.5999755859375</ele>
        <time>2014-05-21T11:24:11Z</time>
      </trkpt>
      <trkpt lat="43.89955535531044" lon="5.607410660013557">
        <ele>566</ele>
        <time>2014-05-21T11:24:12Z</time>
      </trkpt>
      <trkpt lat="43.899582261219621" lon="5.607332456856966">
        <ele>565.5999755859375</ele>
        <time>2014-05-21T11:24:13Z</time>
      </trkpt>
      <trkpt lat="43.899576477706432" lon="5.60724662616849">
        <ele>565.4000244140625</ele>
        <time>2014-05-21T11:24:14Z</time>
      </trkpt>
      <trkpt lat="43.899547727778554" lon="5.607172027230263">
        <ele>565.20001220703125</ele>
        <time>2014-05-21T11:24:15Z</time>
      </trkpt>
      <trkpt lat="43.899442283436656" lon="5.607091812416911">
        <ele>564.20001220703125</ele>
        <time>2014-05-21T11:24:17Z</time>
      </trkpt>
      <trkpt lat="43.899247068911791" lon="5.607028445228934">
        <ele>563</ele>
        <time>2014-05-21T11:24:20Z</time>
      </trkpt>
      <trkpt lat="43.899179426953197" lon="5.60699156485498">
        <ele>562.79998779296875</ele>
        <time>2014-05-21T11:24:21Z</time>
      </trkpt>
      <trkpt lat="43.89905939809978" lon="5.606865165755153">
        <ele>561.79998779296875</ele>
        <time>2014-05-21T11:24:23Z</time>
      </trkpt>
      <trkpt lat="43.899002401158214" lon="5.606789058074355">
        <ele>561.4000244140625</ele>
        <time>2014-05-21T11:24:24Z</time>
      </trkpt>
      <trkpt lat="43.898897459730506" lon="5.606625862419605">
        <ele>560.4000244140625</ele>
        <time>2014-05-21T11:24:26Z</time>
      </trkpt>
      <trkpt lat="43.898794027045369" lon="5.606441460549831">
        <ele>559</ele>
        <time>2014-05-21T11:24:28Z</time>
      </trkpt>
      <trkpt lat="43.898746250197291" lon="5.606337608769536">
        <ele>558.5999755859375</ele>
        <time>2014-05-21T11:24:29Z</time>
      </trkpt>
      <trkpt lat="43.898705933243036" lon="5.60622395016253">
        <ele>558</ele>
        <time>2014-05-21T11:24:30Z</time>
      </trkpt>
      <trkpt lat="43.898670142516494" lon="5.606105010956526">
        <ele>557.20001220703125</ele>
        <time>2014-05-21T11:24:31Z</time>
      </trkpt>
      <trkpt lat="43.898644661530852" lon="5.605980874970555">
        <ele>555.5999755859375</ele>
        <time>2014-05-21T11:24:32Z</time>
      </trkpt>
      <trkpt lat="43.898626305162907" lon="5.605853050947189">
        <ele>555.4000244140625</ele>
        <time>2014-05-21T11:24:33Z</time>
      </trkpt>
      <trkpt lat="43.89861180447042" lon="5.605728412047029">
        <ele>555.20001220703125</ele>
        <time>2014-05-21T11:24:34Z</time>
      </trkpt>
      <trkpt lat="43.89858883805573" lon="5.60550520196557">
        <ele>554</ele>
        <time>2014-05-21T11:24:36Z</time>
      </trkpt>
      <trkpt lat="43.898553131148219" lon="5.605409564450383">
        <ele>553.4000244140625</ele>
        <time>2014-05-21T11:24:37Z</time>
      </trkpt>
      <trkpt lat="43.898504013195634" lon="5.605327086523175">
        <ele>552.79998779296875</ele>
        <time>2014-05-21T11:24:38Z</time>
      </trkpt>
      <trkpt lat="43.898378284648061" lon="5.605201777070761">
        <ele>550.79998779296875</ele>
        <time>2014-05-21T11:24:40Z</time>
      </trkpt>
      <trkpt lat="43.898316007107496" lon="5.605148887261748">
        <ele>550.5999755859375</ele>
        <time>2014-05-21T11:24:41Z</time>
      </trkpt>
      <trkpt lat="43.898186590522528" lon="5.60503656975925">
        <ele>550.79998779296875</ele>
        <time>2014-05-21T11:24:43Z</time>
      </trkpt>
      <trkpt lat="43.898046277463436" lon="5.604955349117518">
        <ele>549.20001220703125</ele>
        <time>2014-05-21T11:24:45Z</time>
      </trkpt>
      <trkpt lat="43.897833544760942" lon="5.604888377711177">
        <ele>548.4000244140625</ele>
        <time>2014-05-21T11:24:48Z</time>
      </trkpt>
      <trkpt lat="43.897772943601012" lon="5.604876894503832">
        <ele>547.4000244140625</ele>
        <time>2014-05-21T11:24:49Z</time>
      </trkpt>
      <trkpt lat="43.897717203944921" lon="5.604860046878457">
        <ele>547.5999755859375</ele>
        <time>2014-05-21T11:24:50Z</time>
      </trkpt>
      <trkpt lat="43.897619806230068" lon="5.604780083522201">
        <ele>548.5999755859375</ele>
        <time>2014-05-21T11:24:52Z</time>
      </trkpt>
      <trkpt lat="43.897579656913877" lon="5.604721829295158">
        <ele>548.5999755859375</ele>
        <time>2014-05-21T11:24:53Z</time>
      </trkpt>
      <trkpt lat="43.897507321089506" lon="5.604489482939243">
        <ele>547.20001220703125</ele>
        <time>2014-05-21T11:24:56Z</time>
      </trkpt>
      <trkpt lat="43.897469183430076" lon="5.604303404688835">
        <ele>546.20001220703125</ele>
        <time>2014-05-21T11:24:58Z</time>
      </trkpt>
      <trkpt lat="43.897417634725571" lon="5.603994699195027">
        <ele>545.5999755859375</ele>
        <time>2014-05-21T11:25:01Z</time>
      </trkpt>
      <trkpt lat="43.897398272529244" lon="5.60388682410121">
        <ele>544.5999755859375</ele>
        <time>2014-05-21T11:25:02Z</time>
      </trkpt>
      <trkpt lat="43.89737899415195" lon="5.603776182979345">
        <ele>543.20001220703125</ele>
        <time>2014-05-21T11:25:03Z</time>
      </trkpt>
      <trkpt lat="43.897316548973322" lon="5.603444427251816">
        <ele>542</ele>
        <time>2014-05-21T11:25:06Z</time>
      </trkpt>
      <trkpt lat="43.897275980561972" lon="5.603224318474531">
        <ele>541.20001220703125</ele>
        <time>2014-05-21T11:25:08Z</time>
      </trkpt>
      <trkpt lat="43.897231975570321" lon="5.603010496124625">
        <ele>540.79998779296875</ele>
        <time>2014-05-21T11:25:10Z</time>
      </trkpt>
      <trkpt lat="43.897149162366986" lon="5.602723835036159">
        <ele>539.4000244140625</ele>
        <time>2014-05-21T11:25:13Z</time>
      </trkpt>
      <trkpt lat="43.89710390008986" lon="5.602640099823475">
        <ele>539.5999755859375</ele>
        <time>2014-05-21T11:25:14Z</time>
      </trkpt>
      <trkpt lat="43.896894520148635" lon="5.602317983284593">
        <ele>537.4000244140625</ele>
        <time>2014-05-21T11:25:18Z</time>
      </trkpt>
      <trkpt lat="43.896850347518921" lon="5.602229638025165">
        <ele>536.4000244140625</ele>
        <time>2014-05-21T11:25:19Z</time>
      </trkpt>
      <trkpt lat="43.896812628954649" lon="5.602136263623834">
        <ele>536</ele>
        <time>2014-05-21T11:25:20Z</time>
      </trkpt>
      <trkpt lat="43.896729731932282" lon="5.601841472089291">
        <ele>534.4000244140625</ele>
        <time>2014-05-21T11:25:23Z</time>
      </trkpt>
      <trkpt lat="43.896696623414755" lon="5.601653466001153">
        <ele>533.79998779296875</ele>
        <time>2014-05-21T11:25:25Z</time>
      </trkpt>
      <trkpt lat="43.896649684756994" lon="5.601483481004834">
        <ele>534</ele>
        <time>2014-05-21T11:25:27Z</time>
      </trkpt>
      <trkpt lat="43.896573074162006" lon="5.601310478523374">
        <ele>532.79998779296875</ele>
        <time>2014-05-21T11:25:29Z</time>
      </trkpt>
      <trkpt lat="43.896471569314599" lon="5.601147199049592">
        <ele>531.20001220703125</ele>
        <time>2014-05-21T11:25:31Z</time>
      </trkpt>
      <trkpt lat="43.89641541056335" lon="5.601068073883653">
        <ele>530.4000244140625</ele>
        <time>2014-05-21T11:25:32Z</time>
      </trkpt>
      <trkpt lat="43.896354977041483" lon="5.600990625098348">
        <ele>530</ele>
        <time>2014-05-21T11:25:33Z</time>
      </trkpt>
      <trkpt lat="43.896232517436147" lon="5.600824998691678">
        <ele>528.79998779296875</ele>
        <time>2014-05-21T11:25:35Z</time>
      </trkpt>
      <trkpt lat="43.896122127771378" lon="5.600631544366479">
        <ele>528.20001220703125</ele>
        <time>2014-05-21T11:25:37Z</time>
      </trkpt>
      <trkpt lat="43.896075105294585" lon="5.600523250177503">
        <ele>527.79998779296875</ele>
        <time>2014-05-21T11:25:38Z</time>
      </trkpt>
      <trkpt lat="43.895994136109948" lon="5.600287802517414">
        <ele>526.20001220703125</ele>
        <time>2014-05-21T11:25:41Z</time>
      </trkpt>
      <trkpt lat="43.895960357040167" lon="5.600163834169507">
        <ele>525.20001220703125</ele>
        <time>2014-05-21T11:25:42Z</time>
      </trkpt>
      <trkpt lat="43.895893217995763" lon="5.599918998777866">
        <ele>523.79998779296875</ele>
        <time>2014-05-21T11:25:44Z</time>
      </trkpt>
      <trkpt lat="43.895862372592092" lon="5.599799389019609">
        <ele>522.5999755859375</ele>
        <time>2014-05-21T11:25:45Z</time>
      </trkpt>
      <trkpt lat="43.895766567438841" lon="5.599462436512113">
        <ele>522</ele>
        <time>2014-05-21T11:25:48Z</time>
      </trkpt>
      <trkpt lat="43.895712504163384" lon="5.599253978580236">
        <ele>521.4000244140625</ele>
        <time>2014-05-21T11:25:50Z</time>
      </trkpt>
      <trkpt lat="43.895632121711969" lon="5.598973603919148">
        <ele>520.4000244140625</ele>
        <time>2014-05-21T11:25:53Z</time>
      </trkpt>
      <trkpt lat="43.89561552554369" lon="5.598873104900122">
        <ele>520</ele>
        <time>2014-05-21T11:25:54Z</time>
      </trkpt>
      <trkpt lat="43.895597755908966" lon="5.598660120740533">
        <ele>519</ele>
        <time>2014-05-21T11:25:56Z</time>
      </trkpt>
      <trkpt lat="43.895589960739017" lon="5.598551407456398">
        <ele>518.4000244140625</ele>
        <time>2014-05-21T11:25:57Z</time>
      </trkpt>
      <trkpt lat="43.895581997931004" lon="5.598437329754233">
        <ele>517.79998779296875</ele>
        <time>2014-05-21T11:25:58Z</time>
      </trkpt>
      <trkpt lat="43.895564060658216" lon="5.598072884604335">
        <ele>516</ele>
        <time>2014-05-21T11:26:01Z</time>
      </trkpt>
      <trkpt lat="43.895554253831506" lon="5.59795193374157">
        <ele>515.4000244140625</ele>
        <time>2014-05-21T11:26:02Z</time>
      </trkpt>
      <trkpt lat="43.89554712921381" lon="5.597838275134563">
        <ele>514.79998779296875</ele>
        <time>2014-05-21T11:26:03Z</time>
      </trkpt>
      <trkpt lat="43.895523324608803" lon="5.597437703981996">
        <ele>514.4000244140625</ele>
        <time>2014-05-21T11:26:07Z</time>
      </trkpt>
      <trkpt lat="43.895509578287601" lon="5.597213236615062">
        <ele>514</ele>
        <time>2014-05-21T11:26:10Z</time>
      </trkpt>
      <trkpt lat="43.89548460021615" lon="5.597155569121242">
        <ele>514</ele>
        <time>2014-05-21T11:26:11Z</time>
      </trkpt>
      <trkpt lat="43.89539273455739" lon="5.597109720110893">
        <ele>513</ele>
        <time>2014-05-21T11:26:13Z</time>
      </trkpt>
      <trkpt lat="43.895344873890281" lon="5.597137380391359">
        <ele>512</ele>
        <time>2014-05-21T11:26:14Z</time>
      </trkpt>
      <trkpt lat="43.895278824493289" lon="5.597264533862472">
        <ele>510.39999389648437</ele>
        <time>2014-05-21T11:26:16Z</time>
      </trkpt>
      <trkpt lat="43.895264491438866" lon="5.597344245761633">
        <ele>510.20001220703125</ele>
        <time>2014-05-21T11:26:17Z</time>
      </trkpt>
      <trkpt lat="43.895253259688616" lon="5.59743007645011">
        <ele>510.39999389648437</ele>
        <time>2014-05-21T11:26:18Z</time>
      </trkpt>
      <trkpt lat="43.895237166434526" lon="5.597606096416712">
        <ele>509.39999389648437</ele>
        <time>2014-05-21T11:26:20Z</time>
      </trkpt>
      <trkpt lat="43.895193748176098" lon="5.597894182428718">
        <ele>508.60000610351562</ele>
        <time>2014-05-21T11:26:23Z</time>
      </trkpt>
      <trkpt lat="43.89516063965857" lon="5.597990825772286">
        <ele>508</ele>
        <time>2014-05-21T11:26:24Z</time>
      </trkpt>
      <trkpt lat="43.895065588876605" lon="5.598171120509505">
        <ele>506.20001220703125</ele>
        <time>2014-05-21T11:26:26Z</time>
      </trkpt>
      <trkpt lat="43.8949588034302" lon="5.598345045000315">
        <ele>505</ele>
        <time>2014-05-21T11:26:28Z</time>
      </trkpt>
      <trkpt lat="43.894801558926702" lon="5.598614271730185">
        <ele>503.79998779296875</ele>
        <time>2014-05-21T11:26:31Z</time>
      </trkpt>
      <trkpt lat="43.894671471789479" lon="5.598911996930838">
        <ele>502.60000610351562</ele>
        <time>2014-05-21T11:26:34Z</time>
      </trkpt>
      <trkpt lat="43.894639788195491" lon="5.599017860367894">
        <ele>501.39999389648438</ele>
        <time>2014-05-21T11:26:35Z</time>
      </trkpt>
      <trkpt lat="43.894611708819866" lon="5.599124813452363">
        <ele>500.20001220703125</ele>
        <time>2014-05-21T11:26:36Z</time>
      </trkpt>
      <trkpt lat="43.894564686343074" lon="5.599343329668045">
        <ele>499</ele>
        <time>2014-05-21T11:26:38Z</time>
      </trkpt>
      <trkpt lat="43.894547335803509" lon="5.5994544737041">
        <ele>499</ele>
        <time>2014-05-21T11:26:39Z</time>
      </trkpt>
      <trkpt lat="43.894507605582476" lon="5.599792012944818">
        <ele>497.39999389648437</ele>
        <time>2014-05-21T11:26:42Z</time>
      </trkpt>
      <trkpt lat="43.894476760178804" lon="5.600147573277354">
        <ele>496.39999389648437</ele>
        <time>2014-05-21T11:26:45Z</time>
      </trkpt>
      <trkpt lat="43.894470054656267" lon="5.600265003740788">
        <ele>495.79998779296875</ele>
        <time>2014-05-21T11:26:46Z</time>
      </trkpt>
      <trkpt lat="43.894463600590825" lon="5.600382434204221">
        <ele>495.20001220703125</ele>
        <time>2014-05-21T11:26:47Z</time>
      </trkpt>
      <trkpt lat="43.894451195374131" lon="5.600622743368149">
        <ele>493.79998779296875</ele>
        <time>2014-05-21T11:26:49Z</time>
      </trkpt>
      <trkpt lat="43.894438203424215" lon="5.600855760276318">
        <ele>492.79998779296875</ele>
        <time>2014-05-21T11:26:51Z</time>
      </trkpt>
      <trkpt lat="43.894426804035902" lon="5.601082658395171">
        <ele>491.60000610351562</ele>
        <time>2014-05-21T11:26:53Z</time>
      </trkpt>
      <trkpt lat="43.894421355798841" lon="5.60119598172605">
        <ele>491</ele>
        <time>2014-05-21T11:26:54Z</time>
      </trkpt>
      <trkpt lat="43.894416997209191" lon="5.60130980797112">
        <ele>490.60000610351562</ele>
        <time>2014-05-21T11:26:55Z</time>
      </trkpt>
      <trkpt lat="43.894408782944083" lon="5.601535784080625">
        <ele>489.20001220703125</ele>
        <time>2014-05-21T11:26:57Z</time>
      </trkpt>
      <trkpt lat="43.894386403262615" lon="5.601905761286616">
        <ele>489.20001220703125</ele>
        <time>2014-05-21T11:27:01Z</time>
      </trkpt>
      <trkpt lat="43.894308200106025" lon="5.601983293890953">
        <ele>488.60000610351562</ele>
        <time>2014-05-21T11:27:03Z</time>
      </trkpt>
      <trkpt lat="43.894209293648601" lon="5.60191229917109">
        <ele>488.60000610351562</ele>
        <time>2014-05-21T11:27:05Z</time>
      </trkpt>
      <trkpt lat="43.894152799621224" lon="5.60176276601851">
        <ele>488.20001220703125</ele>
        <time>2014-05-21T11:27:07Z</time>
      </trkpt>
      <trkpt lat="43.894126564264297" lon="5.601676097139716">
        <ele>487.79998779296875</ele>
        <time>2014-05-21T11:27:08Z</time>
      </trkpt>
      <trkpt lat="43.894067136570811" lon="5.601490773260593">
        <ele>486.60000610351562</ele>
        <time>2014-05-21T11:27:10Z</time>
      </trkpt>
      <trkpt lat="43.89400846324861" lon="5.601287260651588">
        <ele>485</ele>
        <time>2014-05-21T11:27:12Z</time>
      </trkpt>
      <trkpt lat="43.893943754956126" lon="5.601071091368794">
        <ele>483.39999389648437</ele>
        <time>2014-05-21T11:27:14Z</time>
      </trkpt>
      <trkpt lat="43.893847530707717" lon="5.600755009800196">
        <ele>482.20001220703125</ele>
        <time>2014-05-21T11:27:17Z</time>
      </trkpt>
      <trkpt lat="43.893768070265651" lon="5.600564405322075">
        <ele>481.60000610351562</ele>
        <time>2014-05-21T11:27:19Z</time>
      </trkpt>
      <trkpt lat="43.893711157143116" lon="5.600495841354132">
        <ele>481.39999389648438</ele>
        <time>2014-05-21T11:27:20Z</time>
      </trkpt>
      <trkpt lat="43.89364343136549" lon="5.600448735058308">
        <ele>479.79998779296875</ele>
        <time>2014-05-21T11:27:21Z</time>
      </trkpt>
      <trkpt lat="43.89356967061758" lon="5.600416967645288">
        <ele>478.79998779296875</ele>
        <time>2014-05-21T11:27:22Z</time>
      </trkpt>
      <trkpt lat="43.893494317308068" lon="5.600395509973168">
        <ele>477.39999389648437</ele>
        <time>2014-05-21T11:27:23Z</time>
      </trkpt>
      <trkpt lat="43.893417455255985" lon="5.600377069786191">
        <ele>476.79998779296875</ele>
        <time>2014-05-21T11:27:24Z</time>
      </trkpt>
      <trkpt lat="43.893127776682377" lon="5.600258968770504">
        <ele>476.60000610351562</ele>
        <time>2014-05-21T11:27:28Z</time>
      </trkpt>
      <trkpt lat="43.893074216321111" lon="5.600191494449973">
        <ele>475.79998779296875</ele>
        <time>2014-05-21T11:27:29Z</time>
      </trkpt>
      <trkpt lat="43.893013196066022" lon="5.599996531382203">
        <ele>474.60000610351562</ele>
        <time>2014-05-21T11:27:31Z</time>
      </trkpt>
      <trkpt lat="43.89298964291811" lon="5.599888907745481">
        <ele>474.60000610351562</ele>
        <time>2014-05-21T11:27:32Z</time>
      </trkpt>
      <trkpt lat="43.892924766987562" lon="5.59953854419291">
        <ele>473.20001220703125</ele>
        <time>2014-05-21T11:27:35Z</time>
      </trkpt>
      <trkpt lat="43.892901549115777" lon="5.599417090415955">
        <ele>472.60000610351562</ele>
        <time>2014-05-21T11:27:36Z</time>
      </trkpt>
      <trkpt lat="43.892881516367197" lon="5.599296055734158">
        <ele>471.60000610351562</ele>
        <time>2014-05-21T11:27:37Z</time>
      </trkpt>
      <trkpt lat="43.892859723418951" lon="5.599173428490758">
        <ele>470.60000610351562</ele>
        <time>2014-05-21T11:27:38Z</time>
      </trkpt>
      <trkpt lat="43.892753943800926" lon="5.598639165982604">
        <ele>469.60000610351562</ele>
        <time>2014-05-21T11:27:43Z</time>
      </trkpt>
      <trkpt lat="43.89270675368607" lon="5.598479071632028">
        <ele>469.39999389648437</ele>
        <time>2014-05-21T11:27:45Z</time>
      </trkpt>
      <trkpt lat="43.892611786723137" lon="5.598401706665754">
        <ele>468.20001220703125</ele>
        <time>2014-05-21T11:27:47Z</time>
      </trkpt>
      <trkpt lat="43.892513299360871" lon="5.598442777991295">
        <ele>467</ele>
        <time>2014-05-21T11:27:49Z</time>
      </trkpt>
      <trkpt lat="43.892482202500105" lon="5.598509078845382">
        <ele>466.20001220703125</ele>
        <time>2014-05-21T11:27:50Z</time>
      </trkpt>
      <trkpt lat="43.892461163923144" lon="5.598582085222006">
        <ele>465.20001220703125</ele>
        <time>2014-05-21T11:27:51Z</time>
      </trkpt>
      <trkpt lat="43.892425624653697" lon="5.598743939772248">
        <ele>463.79998779296875</ele>
        <time>2014-05-21T11:27:53Z</time>
      </trkpt>
      <trkpt lat="43.89240768738091" lon="5.598832201212645">
        <ele>463.60000610351562</ele>
        <time>2014-05-21T11:27:54Z</time>
      </trkpt>
      <trkpt lat="43.892373237758875" lon="5.599025990813971">
        <ele>462.79998779296875</ele>
        <time>2014-05-21T11:27:56Z</time>
      </trkpt>
      <trkpt lat="43.892332250252366" lon="5.599230928346515">
        <ele>461</ele>
        <time>2014-05-21T11:27:58Z</time>
      </trkpt>
      <trkpt lat="43.892306769266725" lon="5.599336205050349">
        <ele>460</ele>
        <time>2014-05-21T11:27:59Z</time>
      </trkpt>
      <trkpt lat="43.892286149784923" lon="5.599447684362531">
        <ele>459.60000610351562</ele>
        <time>2014-05-21T11:28:00Z</time>
      </trkpt>
      <trkpt lat="43.892214316874743" lon="5.599798047915101">
        <ele>458.20001220703125</ele>
        <time>2014-05-21T11:28:03Z</time>
      </trkpt>
      <trkpt lat="43.892189171165228" lon="5.599909946322441">
        <ele>457.20001220703125</ele>
        <time>2014-05-21T11:28:04Z</time>
      </trkpt>
      <trkpt lat="43.892163941636682" lon="5.600018491968513">
        <ele>456</ele>
        <time>2014-05-21T11:28:05Z</time>
      </trkpt>
      <trkpt lat="43.892142232507467" lon="5.600126702338457">
        <ele>454.60000610351562</ele>
        <time>2014-05-21T11:28:06Z</time>
      </trkpt>
      <trkpt lat="43.892116164788604" lon="5.600350080057979">
        <ele>455.20001220703125</ele>
        <time>2014-05-21T11:28:08Z</time>
      </trkpt>
      <trkpt lat="43.892114488407969" lon="5.600462313741446">
        <ele>454.39999389648437</ele>
        <time>2014-05-21T11:28:09Z</time>
      </trkpt>
      <trkpt lat="43.892124127596617" lon="5.600569602102041">
        <ele>453.20001220703125</ele>
        <time>2014-05-21T11:28:10Z</time>
      </trkpt>
      <trkpt lat="43.892155140638351" lon="5.60077135451138">
        <ele>454.39999389648437</ele>
        <time>2014-05-21T11:28:12Z</time>
      </trkpt>
      <trkpt lat="43.892172742635012" lon="5.600856933742762">
        <ele>455.20001220703125</ele>
        <time>2014-05-21T11:28:13Z</time>
      </trkpt>
      <trkpt lat="43.892196211963892" lon="5.600933125242591">
        <ele>455.20001220703125</ele>
        <time>2014-05-21T11:28:14Z</time>
      </trkpt>
      <trkpt lat="43.892197217792273" lon="5.601071594282985">
        <ele>455</ele>
        <time>2014-05-21T11:28:16Z</time>
      </trkpt>
      <trkpt lat="43.892115326598287" lon="5.601152647286654">
        <ele>454.20001220703125</ele>
        <time>2014-05-21T11:28:18Z</time>
      </trkpt>
      <trkpt lat="43.892011558637023" lon="5.601089028641582">
        <ele>453</ele>
        <time>2014-05-21T11:28:20Z</time>
      </trkpt>
      <trkpt lat="43.891931427642703" lon="5.600948631763458">
        <ele>451.60000610351562</ele>
        <time>2014-05-21T11:28:22Z</time>
      </trkpt>
      <trkpt lat="43.891889601945877" lon="5.600869338959456">
        <ele>451.39999389648437</ele>
        <time>2014-05-21T11:28:23Z</time>
      </trkpt>
      <trkpt lat="43.89179932884872" lon="5.600708154961467">
        <ele>450.60000610351562</ele>
        <time>2014-05-21T11:28:25Z</time>
      </trkpt>
      <trkpt lat="43.891708217561245" lon="5.600530877709389">
        <ele>449.39999389648437</ele>
        <time>2014-05-21T11:28:27Z</time>
      </trkpt>
      <trkpt lat="43.89167033135891" lon="5.600425601005554">
        <ele>449.20001220703125</ele>
        <time>2014-05-21T11:28:28Z</time>
      </trkpt>
      <trkpt lat="43.891564384102821" lon="5.600076075643301">
        <ele>448.20001220703125</ele>
        <time>2014-05-21T11:28:31Z</time>
      </trkpt>
      <trkpt lat="43.891489198431373" lon="5.599822103977203">
        <ele>446.39999389648437</ele>
        <time>2014-05-21T11:28:33Z</time>
      </trkpt>
      <trkpt lat="43.891417868435383" lon="5.599569138139486">
        <ele>444.60000610351562</ele>
        <time>2014-05-21T11:28:35Z</time>
      </trkpt>
      <trkpt lat="43.891356345266104" lon="5.599342156201601">
        <ele>442.60000610351562</ele>
        <time>2014-05-21T11:28:37Z</time>
      </trkpt>
      <trkpt lat="43.891293816268444" lon="5.599120706319809">
        <ele>441.60000610351562</ele>
        <time>2014-05-21T11:28:39Z</time>
      </trkpt>
      <trkpt lat="43.89119440689683" lon="5.598766067996621">
        <ele>439.60000610351562</ele>
        <time>2014-05-21T11:28:42Z</time>
      </trkpt>
      <trkpt lat="43.891128692775965" lon="5.598524585366249">
        <ele>438.39999389648437</ele>
        <time>2014-05-21T11:28:44Z</time>
      </trkpt>
      <trkpt lat="43.89109474606812" lon="5.598404305055738">
        <ele>438</ele>
        <time>2014-05-21T11:28:45Z</time>
      </trkpt>
      <trkpt lat="43.891024254262447" lon="5.598155613988638">
        <ele>437.20001220703125</ele>
        <time>2014-05-21T11:28:47Z</time>
      </trkpt>
      <trkpt lat="43.89088461175561" lon="5.597671642899513">
        <ele>435.60000610351562</ele>
        <time>2014-05-21T11:28:51Z</time>
      </trkpt>
      <trkpt lat="43.89082015492022" lon="5.597435692325234">
        <ele>434</ele>
        <time>2014-05-21T11:28:53Z</time>
      </trkpt>
      <trkpt lat="43.890734827145934" lon="5.597110725939274">
        <ele>432.79998779296875</ele>
        <time>2014-05-21T11:28:56Z</time>
      </trkpt>
      <trkpt lat="43.890712363645434" lon="5.597014836966991">
        <ele>432.20001220703125</ele>
        <time>2014-05-21T11:28:57Z</time>
      </trkpt>
      <trkpt lat="43.890661736950278" lon="5.596843929961324">
        <ele>431.60000610351562</ele>
        <time>2014-05-21T11:28:59Z</time>
      </trkpt>
      <trkpt lat="43.890634411945939" lon="5.596772599965334">
        <ele>431.39999389648437</ele>
        <time>2014-05-21T11:29:00Z</time>
      </trkpt>
      <trkpt lat="43.890596944838762" lon="5.596725158393383">
        <ele>431.60000610351562</ele>
        <time>2014-05-21T11:29:01Z</time>
      </trkpt>
      <trkpt lat="43.890500217676163" lon="5.596737395972014">
        <ele>430.79998779296875</ele>
        <time>2014-05-21T11:29:03Z</time>
      </trkpt>
      <trkpt lat="43.890460906550288" lon="5.596791626885533">
        <ele>429.79998779296875</ele>
        <time>2014-05-21T11:29:04Z</time>
      </trkpt>
      <trkpt lat="43.890440706163645" lon="5.596862621605396">
        <ele>429</ele>
        <time>2014-05-21T11:29:05Z</time>
      </trkpt>
      <trkpt lat="43.890432072803378" lon="5.596940238028765">
        <ele>428.20001220703125</ele>
        <time>2014-05-21T11:29:06Z</time>
      </trkpt>
      <trkpt lat="43.890408854931593" lon="5.597197478637099">
        <ele>427.60000610351562</ele>
        <time>2014-05-21T11:29:09Z</time>
      </trkpt>
      <trkpt lat="43.890399048104882" lon="5.597288841381669">
        <ele>427.20001220703125</ele>
        <time>2014-05-21T11:29:10Z</time>
      </trkpt>
      <trkpt lat="43.890391672030091" lon="5.597383556887507">
        <ele>425.79998779296875</ele>
        <time>2014-05-21T11:29:11Z</time>
      </trkpt>
      <trkpt lat="43.89037013053894" lon="5.597575586289167">
        <ele>424.60000610351562</ele>
        <time>2014-05-21T11:29:13Z</time>
      </trkpt>
      <trkpt lat="43.890351019799709" lon="5.597782619297504">
        <ele>424.20001220703125</ele>
        <time>2014-05-21T11:29:15Z</time>
      </trkpt>
      <trkpt lat="43.890342889353633" lon="5.597888315096498">
        <ele>423.39999389648437</ele>
        <time>2014-05-21T11:29:16Z</time>
      </trkpt>
      <trkpt lat="43.890294441953301" lon="5.598326520994306">
        <ele>422.20001220703125</ele>
        <time>2014-05-21T11:29:20Z</time>
      </trkpt>
      <trkpt lat="43.890254627913237" lon="5.598526177927852">
        <ele>423</ele>
        <time>2014-05-21T11:29:22Z</time>
      </trkpt>
      <trkpt lat="43.890102664008737" lon="5.598742179572582">
        <ele>421.79998779296875</ele>
        <time>2014-05-21T11:29:25Z</time>
      </trkpt>
      <trkpt lat="43.890035022050142" lon="5.598791381344199">
        <ele>421.79998779296875</ele>
        <time>2014-05-21T11:29:26Z</time>
      </trkpt>
      <trkpt lat="43.889964949339628" lon="5.598841840401292">
        <ele>421</ele>
        <time>2014-05-21T11:29:27Z</time>
      </trkpt>
      <trkpt lat="43.88989320024848" lon="5.598889952525497">
        <ele>420.39999389648437</ele>
        <time>2014-05-21T11:29:28Z</time>
      </trkpt>
      <trkpt lat="43.889826564118266" lon="5.598943345248699">
        <ele>419</ele>
        <time>2014-05-21T11:29:29Z</time>
      </trkpt>
      <trkpt lat="43.889755653217435" lon="5.598998917266727">
        <ele>417.79998779296875</ele>
        <time>2014-05-21T11:29:30Z</time>
      </trkpt>
      <trkpt lat="43.889689017087221" lon="5.599060775712133">
        <ele>416.39999389648437</ele>
        <time>2014-05-21T11:29:31Z</time>
      </trkpt>
      <trkpt lat="43.889625398442149" lon="5.599135458469391">
        <ele>415.79998779296875</ele>
        <time>2014-05-21T11:29:32Z</time>
      </trkpt>
      <trkpt lat="43.889572927728295" lon="5.599223803728819">
        <ele>415.20001220703125</ele>
        <time>2014-05-21T11:29:33Z</time>
      </trkpt>
      <trkpt lat="43.889493634924293" lon="5.599424634128809">
        <ele>414.20001220703125</ele>
        <time>2014-05-21T11:29:35Z</time>
      </trkpt>
      <trkpt lat="43.889448791742325" lon="5.59961817227304">
        <ele>414.60000610351562</ele>
        <time>2014-05-21T11:29:37Z</time>
      </trkpt>
      <trkpt lat="43.889355584979057" lon="5.59981657192111">
        <ele>414.60000610351562</ele>
        <time>2014-05-21T11:29:40Z</time>
      </trkpt>
      <trkpt lat="43.889214433729649" lon="5.599794695153832">
        <ele>415</ele>
        <time>2014-05-21T11:29:43Z</time>
      </trkpt>
      <trkpt lat="43.889169674366713" lon="5.599577352404594">
        <ele>413.79998779296875</ele>
        <time>2014-05-21T11:29:46Z</time>
      </trkpt>
      <trkpt lat="43.889181409031153" lon="5.599400075152516">
        <ele>412.79998779296875</ele>
        <time>2014-05-21T11:29:48Z</time>
      </trkpt>
      <trkpt lat="43.889200016856194" lon="5.599204609170556">
        <ele>411.79998779296875</ele>
        <time>2014-05-21T11:29:50Z</time>
      </trkpt>
      <trkpt lat="43.889207728207111" lon="5.599101008847356">
        <ele>411.20001220703125</ele>
        <time>2014-05-21T11:29:51Z</time>
      </trkpt>
      <trkpt lat="43.889230443164706" lon="5.598891042172909">
        <ele>410.39999389648438</ele>
        <time>2014-05-21T11:29:53Z</time>
      </trkpt>
      <trkpt lat="43.889257265254855" lon="5.598538750782609">
        <ele>409.60000610351562</ele>
        <time>2014-05-21T11:29:56Z</time>
      </trkpt>
      <trkpt lat="43.889260198920965" lon="5.598415872082114">
        <ele>408.79998779296875</ele>
        <time>2014-05-21T11:29:57Z</time>
      </trkpt>
      <trkpt lat="43.889273526147008" lon="5.598158044740558">
        <ele>407.39999389648438</ele>
        <time>2014-05-21T11:29:59Z</time>
      </trkpt>
      <trkpt lat="43.889304203912616" lon="5.59777507558465">
        <ele>406.60000610351562</ele>
        <time>2014-05-21T11:30:02Z</time>
      </trkpt>
      <trkpt lat="43.889316106215119" lon="5.597647000104189">
        <ele>406</ele>
        <time>2014-05-21T11:30:03Z</time>
      </trkpt>
      <trkpt lat="43.889331948012114" lon="5.59726151637733">
        <ele>405</ele>
        <time>2014-05-21T11:30:06Z</time>
      </trkpt>
      <trkpt lat="43.889330858364701" lon="5.597012070938945">
        <ele>405.39999389648437</ele>
        <time>2014-05-21T11:30:08Z</time>
      </trkpt>
      <trkpt lat="43.889315100386739" lon="5.596886426210403">
        <ele>405.60000610351562</ele>
        <time>2014-05-21T11:30:09Z</time>
      </trkpt>
      <trkpt lat="43.889261204749346" lon="5.596505049616098">
        <ele>404.20001220703125</ele>
        <time>2014-05-21T11:30:12Z</time>
      </trkpt>
      <trkpt lat="43.889176798984408" lon="5.596126019954681">
        <ele>403.60000610351562</ele>
        <time>2014-05-21T11:30:15Z</time>
      </trkpt>
      <trkpt lat="43.889078898355365" lon="5.595885124057531">
        <ele>402.60000610351562</ele>
        <time>2014-05-21T11:30:17Z</time>
      </trkpt>
      <trkpt lat="43.889014441519976" lon="5.595773309469223">
        <ele>402.39999389648437</ele>
        <time>2014-05-21T11:30:18Z</time>
      </trkpt>
      <trkpt lat="43.888811599463224" lon="5.59546384960413">
        <ele>402</ele>
        <time>2014-05-21T11:30:21Z</time>
      </trkpt>
      <trkpt lat="43.888610936701298" lon="5.595142235979438">
        <ele>401.20001220703125</ele>
        <time>2014-05-21T11:30:24Z</time>
      </trkpt>
      <trkpt lat="43.888556202873588" lon="5.595021117478609">
        <ele>401</ele>
        <time>2014-05-21T11:30:25Z</time>
      </trkpt>
      <trkpt lat="43.888516137376428" lon="5.594891114160419">
        <ele>400.60000610351562</ele>
        <time>2014-05-21T11:30:26Z</time>
      </trkpt>
      <trkpt lat="43.888486884534359" lon="5.594756500795484">
        <ele>400</ele>
        <time>2014-05-21T11:30:27Z</time>
      </trkpt>
      <trkpt lat="43.888438353314996" lon="5.594485765323043">
        <ele>398.79998779296875</ele>
        <time>2014-05-21T11:30:29Z</time>
      </trkpt>
      <trkpt lat="43.888416225090623" lon="5.594350900501013">
        <ele>398.60000610351562</ele>
        <time>2014-05-21T11:30:30Z</time>
      </trkpt>
      <trkpt lat="43.88827876187861" lon="5.593547997996211">
        <ele>398.39999389648437</ele>
        <time>2014-05-21T11:30:36Z</time>
      </trkpt>
      <trkpt lat="43.888234924525023" lon="5.593288745731115">
        <ele>398</ele>
        <time>2014-05-21T11:30:38Z</time>
      </trkpt>
      <trkpt lat="43.888106597587466" lon="5.592780383303762">
        <ele>397.60000610351562</ele>
        <time>2014-05-21T11:30:42Z</time>
      </trkpt>
      <trkpt lat="43.888067035004497" lon="5.592655576765537">
        <ele>397</ele>
        <time>2014-05-21T11:30:43Z</time>
      </trkpt>
      <trkpt lat="43.888025879859924" lon="5.592530770227313">
        <ele>396.60000610351562</ele>
        <time>2014-05-21T11:30:44Z</time>
      </trkpt>
      <trkpt lat="43.887834101915359" lon="5.591769609600306">
        <ele>396.20001220703125</ele>
        <time>2014-05-21T11:30:50Z</time>
      </trkpt>
      <trkpt lat="43.887685490772128" lon="5.591003922745585">
        <ele>396.60000610351562</ele>
        <time>2014-05-21T11:30:56Z</time>
      </trkpt>
      <trkpt lat="43.887612484395504" lon="5.590623216703534">
        <ele>395.60000610351562</ele>
        <time>2014-05-21T11:30:59Z</time>
      </trkpt>
      <trkpt lat="43.88758348301053" lon="5.590497488155961">
        <ele>395.60000610351562</ele>
        <time>2014-05-21T11:31:00Z</time>
      </trkpt>
      <trkpt lat="43.887416599318385" lon="5.589760299772024">
        <ele>395.20001220703125</ele>
        <time>2014-05-21T11:31:06Z</time>
      </trkpt>
      <trkpt lat="43.887225659564137" lon="5.58906133286655">
        <ele>395.79998779296875</ele>
        <time>2014-05-21T11:31:12Z</time>
      </trkpt>
      <trkpt lat="43.887194227427244" lon="5.588946836069226">
        <ele>396</ele>
        <time>2014-05-21T11:31:13Z</time>
      </trkpt>
      <trkpt lat="43.887163633480668" lon="5.588831249624491">
        <ele>396.60000610351562</ele>
        <time>2014-05-21T11:31:14Z</time>
      </trkpt>
      <trkpt lat="43.886968335136771" lon="5.588126918300986">
        <ele>396.60000610351562</ele>
        <time>2014-05-21T11:31:20Z</time>
      </trkpt>
      <trkpt lat="43.88692818582058" lon="5.588014014065266">
        <ele>396.20001220703125</ele>
        <time>2014-05-21T11:31:21Z</time>
      </trkpt>
      <trkpt lat="43.88666532933712" lon="5.587477991357446">
        <ele>395.60000610351562</ele>
        <time>2014-05-21T11:31:26Z</time>
      </trkpt>
      <trkpt lat="43.886609673500061" lon="5.587373301386833">
        <ele>394.79998779296875</ele>
        <time>2014-05-21T11:31:27Z</time>
      </trkpt>
      <trkpt lat="43.886449914425611" lon="5.587055375799537">
        <ele>393.79998779296875</ele>
        <time>2014-05-21T11:31:30Z</time>
      </trkpt>
      <trkpt lat="43.886309936642647" lon="5.586717249825597">
        <ele>392.60000610351562</ele>
        <time>2014-05-21T11:31:33Z</time>
      </trkpt>
      <trkpt lat="43.886203821748495" lon="5.586349032819271">
        <ele>391.20001220703125</ele>
        <time>2014-05-21T11:31:36Z</time>
      </trkpt>
      <trkpt lat="43.886184794828296" lon="5.586219700053334">
        <ele>391.20001220703125</ele>
        <time>2014-05-21T11:31:37Z</time>
      </trkpt>
      <trkpt lat="43.88616886921227" lon="5.585844106972218">
        <ele>390.20001220703125</ele>
        <time>2014-05-21T11:31:40Z</time>
      </trkpt>
      <trkpt lat="43.886171719059348" lon="5.585721982643008">
        <ele>390.20001220703125</ele>
        <time>2014-05-21T11:31:41Z</time>
      </trkpt>
      <trkpt lat="43.886188650503755" lon="5.585382347926498">
        <ele>391.20001220703125</ele>
        <time>2014-05-21T11:31:44Z</time>
      </trkpt>
      <trkpt lat="43.886202061548829" lon="5.585068026557565">
        <ele>392</ele>
        <time>2014-05-21T11:31:47Z</time>
      </trkpt>
      <trkpt lat="43.886213293299079" lon="5.584705257788301">
        <ele>392.20001220703125</ele>
        <time>2014-05-21T11:31:51Z</time>
      </trkpt>
      <trkpt lat="43.886204492300749" lon="5.584623031318188">
        <ele>392.39999389648437</ele>
        <time>2014-05-21T11:31:52Z</time>
      </trkpt>
      <trkpt lat="43.886088822036982" lon="5.58432606048882">
        <ele>393.20001220703125</ele>
        <time>2014-05-21T11:31:56Z</time>
      </trkpt>
      <trkpt lat="43.885989915579557" lon="5.584109975025058">
        <ele>393.39999389648438</ele>
        <time>2014-05-21T11:31:59Z</time>
      </trkpt>
      <trkpt lat="43.88592017814517" lon="5.583973014727235">
        <ele>393.20001220703125</ele>
        <time>2014-05-21T11:32:01Z</time>
      </trkpt>
      <trkpt lat="43.885872904211283" lon="5.583920627832413">
        <ele>393</ele>
        <time>2014-05-21T11:32:02Z</time>
      </trkpt>
      <trkpt lat="43.885697722434998" lon="5.583899170160294">
        <ele>393.39999389648438</ele>
        <time>2014-05-21T11:32:05Z</time>
      </trkpt>
      <trkpt lat="43.885581968352199" lon="5.583919454365969">
        <ele>393.39999389648438</ele>
        <time>2014-05-21T11:32:07Z</time>
      </trkpt>
      <trkpt lat="43.885369738563895" lon="5.583953820168972">
        <ele>394</ele>
        <time>2014-05-21T11:32:11Z</time>
      </trkpt>
      <trkpt lat="43.885225150734186" lon="5.583965051919222">
        <ele>394.39999389648437</ele>
        <time>2014-05-21T11:32:14Z</time>
      </trkpt>
      <trkpt lat="43.885086178779602" lon="5.583936721086502">
        <ele>395.39999389648437</ele>
        <time>2014-05-21T11:32:17Z</time>
      </trkpt>
      <trkpt lat="43.885042760521173" lon="5.583919705823064">
        <ele>395.79998779296875</ele>
        <time>2014-05-21T11:32:18Z</time>
      </trkpt>
      <trkpt lat="43.884888030588627" lon="5.583842005580664">
        <ele>396.79998779296875</ele>
        <time>2014-05-21T11:32:22Z</time>
      </trkpt>
      <trkpt lat="43.884816532954574" lon="5.583796408027411">
        <ele>397.20001220703125</ele>
        <time>2014-05-21T11:32:24Z</time>
      </trkpt>
      <trkpt lat="43.884484944865108" lon="5.58365223929286">
        <ele>396.79998779296875</ele>
        <time>2014-05-21T11:32:32Z</time>
      </trkpt>
      <trkpt lat="43.884149249643087" lon="5.583584513515234">
        <ele>396.20001220703125</ele>
        <time>2014-05-21T11:32:39Z</time>
      </trkpt>
      <trkpt lat="43.883661590516567" lon="5.583481499925256">
        <ele>396.20001220703125</ele>
        <time>2014-05-21T11:32:48Z</time>
      </trkpt>
      <trkpt lat="43.883355064317584" lon="5.583410086110234">
        <ele>396.60000610351562</ele>
        <time>2014-05-21T11:32:54Z</time>
      </trkpt>
      <trkpt lat="43.883108804002404" lon="5.583357028663158">
        <ele>397.20001220703125</ele>
        <time>2014-05-21T11:32:59Z</time>
      </trkpt>
      <trkpt lat="43.88301283121109" lon="5.58333900757134">
        <ele>397.20001220703125</ele>
        <time>2014-05-21T11:33:01Z</time>
      </trkpt>
      <trkpt lat="43.882832955569029" lon="5.583296259865165">
        <ele>397.79998779296875</ele>
        <time>2014-05-21T11:33:05Z</time>
      </trkpt>
      <trkpt lat="43.882692223414779" lon="5.583227109164">
        <ele>397.39999389648437</ele>
        <time>2014-05-21T11:33:08Z</time>
      </trkpt>
      <trkpt lat="43.882642686367035" lon="5.583190731704235">
        <ele>397</ele>
        <time>2014-05-21T11:33:09Z</time>
      </trkpt>
      <trkpt lat="43.882592897862196" lon="5.583145469427109">
        <ele>396.60000610351562</ele>
        <time>2014-05-21T11:33:10Z</time>
      </trkpt>
      <trkpt lat="43.882488207891583" lon="5.583024099469185">
        <ele>395.79998779296875</ele>
        <time>2014-05-21T11:33:12Z</time>
      </trkpt>
      <trkpt lat="43.882435904815793" lon="5.582951260730624">
        <ele>395.20001220703125</ele>
        <time>2014-05-21T11:33:13Z</time>
      </trkpt>
      <trkpt lat="43.88231897726655" lon="5.582807091996074">
        <ele>393.39999389648438</ele>
        <time>2014-05-21T11:33:15Z</time>
      </trkpt>
      <trkpt lat="43.882245467975736" lon="5.582750933244824">
        <ele>392.20001220703125</ele>
        <time>2014-05-21T11:33:16Z</time>
      </trkpt>
      <trkpt lat="43.882074058055878" lon="5.582718998193741">
        <ele>390.79998779296875</ele>
        <time>2014-05-21T11:33:18Z</time>
      </trkpt>
      <trkpt lat="43.881989065557718" lon="5.582751771435142">
        <ele>390.79998779296875</ele>
        <time>2014-05-21T11:33:19Z</time>
      </trkpt>
      <trkpt lat="43.881833497434855" lon="5.582828633487225">
        <ele>390.60000610351562</ele>
        <time>2014-05-21T11:33:21Z</time>
      </trkpt>
      <trkpt lat="43.881760574877262" lon="5.582869872450829">
        <ele>392</ele>
        <time>2014-05-21T11:33:22Z</time>
      </trkpt>
      <trkpt lat="43.881692849099636" lon="5.582905579358339">
        <ele>392.60000610351562</ele>
        <time>2014-05-21T11:33:23Z</time>
      </trkpt>
      <trkpt lat="43.881572652608156" lon="5.582954697310925">
        <ele>393.20001220703125</ele>
        <time>2014-05-21T11:33:25Z</time>
      </trkpt>
      <trkpt lat="43.881417587399483" lon="5.583026697859168">
        <ele>394.39999389648437</ele>
        <time>2014-05-21T11:33:28Z</time>
      </trkpt>
      <trkpt lat="43.881266377866268" lon="5.583081431686878">
        <ele>395.39999389648437</ele>
        <time>2014-05-21T11:33:31Z</time>
      </trkpt>
      <trkpt lat="43.881120197474957" lon="5.583146056160331">
        <ele>396</ele>
        <time>2014-05-21T11:33:34Z</time>
      </trkpt>
      <trkpt lat="43.881070911884308" lon="5.583156617358327">
        <ele>396</ele>
        <time>2014-05-21T11:33:35Z</time>
      </trkpt>
      <trkpt lat="43.880871422588825" lon="5.583170866593719">
        <ele>395.39999389648437</ele>
        <time>2014-05-21T11:33:39Z</time>
      </trkpt>
      <trkpt lat="43.880816102027893" lon="5.583155443891883">
        <ele>395</ele>
        <time>2014-05-21T11:33:40Z</time>
      </trkpt>
      <trkpt lat="43.880625078454614" lon="5.583100123330951">
        <ele>394.60000610351562</ele>
        <time>2014-05-21T11:33:43Z</time>
      </trkpt>
      <trkpt lat="43.88055207207799" lon="5.583077576011419">
        <ele>394.39999389648437</ele>
        <time>2014-05-21T11:33:44Z</time>
      </trkpt>
      <trkpt lat="43.880391307175159" lon="5.583015885204077">
        <ele>393</ele>
        <time>2014-05-21T11:33:46Z</time>
      </trkpt>
      <trkpt lat="43.880304219201207" lon="5.582981519401074">
        <ele>392.39999389648437</ele>
        <time>2014-05-21T11:33:47Z</time>
      </trkpt>
      <trkpt lat="43.880115877836943" lon="5.582915050908923">
        <ele>391.79998779296875</ele>
        <time>2014-05-21T11:33:49Z</time>
      </trkpt>
      <trkpt lat="43.879800215363503" lon="5.582802398130298">
        <ele>390.39999389648438</ele>
        <time>2014-05-21T11:33:52Z</time>
      </trkpt>
      <trkpt lat="43.879573736339808" lon="5.582720087841153">
        <ele>389.39999389648437</ele>
        <time>2014-05-21T11:33:54Z</time>
      </trkpt>
      <trkpt lat="43.879339043051004" lon="5.582632916048169">
        <ele>387.60000610351562</ele>
        <time>2014-05-21T11:33:56Z</time>
      </trkpt>
      <trkpt lat="43.879096638411283" lon="5.582543564960361">
        <ele>386.79998779296875</ele>
        <time>2014-05-21T11:33:58Z</time>
      </trkpt>
      <trkpt lat="43.878975687548518" lon="5.582502912729979">
        <ele>385.79998779296875</ele>
        <time>2014-05-21T11:33:59Z</time>
      </trkpt>
      <trkpt lat="43.878853814676404" lon="5.58245949447155">
        <ele>384.60000610351562</ele>
        <time>2014-05-21T11:34:00Z</time>
      </trkpt>
      <trkpt lat="43.878735210746527" lon="5.58241356164217">
        <ele>383.60000610351562</ele>
        <time>2014-05-21T11:34:01Z</time>
      </trkpt>
      <trkpt lat="43.878400102257729" lon="5.582245336845517">
        <ele>383.20001220703125</ele>
        <time>2014-05-21T11:34:04Z</time>
      </trkpt>
      <trkpt lat="43.877988634631038" lon="5.582002680748701">
        <ele>384.79998779296875</ele>
        <time>2014-05-21T11:34:08Z</time>
      </trkpt>
      <trkpt lat="43.877900457009673" lon="5.581913497298956">
        <ele>385.20001220703125</ele>
        <time>2014-05-21T11:34:09Z</time>
      </trkpt>
      <trkpt lat="43.877727035433054" lon="5.581565983593464">
        <ele>384.20001220703125</ele>
        <time>2014-05-21T11:34:12Z</time>
      </trkpt>
      <trkpt lat="43.87769652530551" lon="5.581440338864923">
        <ele>383.79998779296875</ele>
        <time>2014-05-21T11:34:13Z</time>
      </trkpt>
      <trkpt lat="43.87766526080668" lon="5.581315448507667">
        <ele>383.60000610351562</ele>
        <time>2014-05-21T11:34:14Z</time>
      </trkpt>
      <trkpt lat="43.877612538635731" lon="5.581067679449916">
        <ele>382.39999389648437</ele>
        <time>2014-05-21T11:34:16Z</time>
      </trkpt>
      <trkpt lat="43.87754020281136" lon="5.580605668947101">
        <ele>383.60000610351562</ele>
        <time>2014-05-21T11:34:20Z</time>
      </trkpt>
      <trkpt lat="43.877508686855435" lon="5.580501900985837">
        <ele>384</ele>
        <time>2014-05-21T11:34:21Z</time>
      </trkpt>
      <trkpt lat="43.877345072105527" lon="5.580273829400539">
        <ele>384</ele>
        <time>2014-05-21T11:34:24Z</time>
      </trkpt>
      <trkpt lat="43.877219008281827" lon="5.580155728384852">
        <ele>384.39999389648437</ele>
        <time>2014-05-21T11:34:26Z</time>
      </trkpt>
      <trkpt lat="43.877036115154624" lon="5.579986749216914">
        <ele>384.39999389648437</ele>
        <time>2014-05-21T11:34:29Z</time>
      </trkpt>
      <trkpt lat="43.876727996394038" lon="5.57971877977252">
        <ele>384.60000610351562</ele>
        <time>2014-05-21T11:34:34Z</time>
      </trkpt>
      <trkpt lat="43.876671837642789" lon="5.579659268260002">
        <ele>385</ele>
        <time>2014-05-21T11:34:35Z</time>
      </trkpt>
      <trkpt lat="43.876358522102237" lon="5.579253248870373">
        <ele>384.39999389648437</ele>
        <time>2014-05-21T11:34:41Z</time>
      </trkpt>
      <trkpt lat="43.876156937330961" lon="5.579004976898432">
        <ele>386</ele>
        <time>2014-05-21T11:34:45Z</time>
      </trkpt>
      <trkpt lat="43.876026514917612" lon="5.57883189059794">
        <ele>387.20001220703125</ele>
        <time>2014-05-21T11:34:48Z</time>
      </trkpt>
      <trkpt lat="43.875744128599763" lon="5.578462248668075">
        <ele>387.79998779296875</ele>
        <time>2014-05-21T11:34:55Z</time>
      </trkpt>
      <trkpt lat="43.875638013705611" lon="5.578323109075427">
        <ele>388.79998779296875</ele>
        <time>2014-05-21T11:34:58Z</time>
      </trkpt>
      <trkpt lat="43.875502645969391" lon="5.578171228989959">
        <ele>389.39999389648437</ele>
        <time>2014-05-21T11:35:02Z</time>
      </trkpt>
      <trkpt lat="43.875470794737339" lon="5.578139377757907">
        <ele>390</ele>
        <time>2014-05-21T11:35:03Z</time>
      </trkpt>
      <trkpt lat="43.875319669023156" lon="5.577939637005329">
        <ele>389.20001220703125</ele>
        <time>2014-05-21T11:35:09Z</time>
      </trkpt>
      <trkpt lat="43.875256134197116" lon="5.577743081375957">
        <ele>390.39999389648438</ele>
        <time>2014-05-21T11:35:15Z</time>
      </trkpt>
      <trkpt lat="43.875137446448207" lon="5.577531605958939">
        <ele>390</ele>
        <time>2014-05-21T11:35:20Z</time>
      </trkpt>
      <trkpt lat="43.875022362917662" lon="5.577315604314208">
        <ele>388.79998779296875</ele>
        <time>2014-05-21T11:35:24Z</time>
      </trkpt>
      <trkpt lat="43.874952206388116" lon="5.577194318175316">
        <ele>388.20001220703125</ele>
        <time>2014-05-21T11:35:26Z</time>
      </trkpt>
      <trkpt lat="43.874912057071924" lon="5.57712709531188">
        <ele>387.79998779296875</ele>
        <time>2014-05-21T11:35:27Z</time>
      </trkpt>
      <trkpt lat="43.874825052917004" lon="5.576977729797363">
        <ele>386.60000610351562</ele>
        <time>2014-05-21T11:35:29Z</time>
      </trkpt>
      <trkpt lat="43.874727906659245" lon="5.576818892732263">
        <ele>384.60000610351562</ele>
        <time>2014-05-21T11:35:31Z</time>
      </trkpt>
      <trkpt lat="43.874624809250236" lon="5.57665360160172">
        <ele>383.20001220703125</ele>
        <time>2014-05-21T11:35:33Z</time>
      </trkpt>
      <trkpt lat="43.87451165355742" lon="5.57649526745081">
        <ele>382</ele>
        <time>2014-05-21T11:35:35Z</time>
      </trkpt>
      <trkpt lat="43.874382153153419" lon="5.576359815895557">
        <ele>380.39999389648437</ele>
        <time>2014-05-21T11:35:37Z</time>
      </trkpt>
      <trkpt lat="43.87405383400619" lon="5.576025377959013">
        <ele>379.39999389648437</ele>
        <time>2014-05-21T11:35:42Z</time>
      </trkpt>
      <trkpt lat="43.87374303303659" lon="5.575718432664871">
        <ele>379.20001220703125</ele>
        <time>2014-05-21T11:35:47Z</time>
      </trkpt>
      <trkpt lat="43.873564163222909" lon="5.575536880642176">
        <ele>377.60000610351562</ele>
        <time>2014-05-21T11:35:50Z</time>
      </trkpt>
      <trkpt lat="43.873274819925427" lon="5.575240161269903">
        <ele>377.60000610351562</ele>
        <time>2014-05-21T11:35:55Z</time>
      </trkpt>
      <trkpt lat="43.872892940416932" lon="5.574864316731691">
        <ele>376.60000610351562</ele>
        <time>2014-05-21T11:36:02Z</time>
      </trkpt>
      <trkpt lat="43.872842146083713" lon="5.57481343857944">
        <ele>375.20001220703125</ele>
        <time>2014-05-21T11:36:03Z</time>
      </trkpt>
      <trkpt lat="43.872685069218278" lon="5.574670694768429">
        <ele>376.60000610351562</ele>
        <time>2014-05-21T11:36:06Z</time>
      </trkpt>
      <trkpt lat="43.872538218274713" lon="5.574528202414513">
        <ele>376.60000610351562</ele>
        <time>2014-05-21T11:36:09Z</time>
      </trkpt>
      <trkpt lat="43.872491950169206" lon="5.57447824627161">
        <ele>378.39999389648437</ele>
        <time>2014-05-21T11:36:10Z</time>
      </trkpt>
      <trkpt lat="43.872238313779235" lon="5.574224861338735">
        <ele>377.20001220703125</ele>
        <time>2014-05-21T11:36:15Z</time>
      </trkpt>
      <trkpt lat="43.872188106179237" lon="5.574176413938403">
        <ele>377</ele>
        <time>2014-05-21T11:36:16Z</time>
      </trkpt>
      <trkpt lat="43.871954083442688" lon="5.573939122259617">
        <ele>375.79998779296875</ele>
        <time>2014-05-21T11:36:21Z</time>
      </trkpt>
      <trkpt lat="43.871826510876417" lon="5.57381272315979">
        <ele>375.79998779296875</ele>
        <time>2014-05-21T11:36:24Z</time>
      </trkpt>
      <trkpt lat="43.871739925816655" lon="5.57373502291739">
        <ele>377</ele>
        <time>2014-05-21T11:36:26Z</time>
      </trkpt>
      <trkpt lat="43.871552590280771" lon="5.573532348498702">
        <ele>376.79998779296875</ele>
        <time>2014-05-21T11:36:31Z</time>
      </trkpt>
      <trkpt lat="43.871260732412338" lon="5.573261110112071">
        <ele>376.79998779296875</ele>
        <time>2014-05-21T11:36:39Z</time>
      </trkpt>
      <trkpt lat="43.871106170117855" lon="5.573111325502396">
        <ele>378</ele>
        <time>2014-05-21T11:36:43Z</time>
      </trkpt>
      <trkpt lat="43.871022602543235" lon="5.573039157316089">
        <ele>379.20001220703125</ele>
        <time>2014-05-21T11:36:45Z</time>
      </trkpt>
      <trkpt lat="43.870979687198997" lon="5.572997080162168">
        <ele>379.79998779296875</ele>
        <time>2014-05-21T11:36:46Z</time>
      </trkpt>
      <trkpt lat="43.870846834033728" lon="5.572885265573859">
        <ele>378</ele>
        <time>2014-05-21T11:36:49Z</time>
      </trkpt>
      <trkpt lat="43.870757902041078" lon="5.572808906435967">
        <ele>377.79998779296875</ele>
        <time>2014-05-21T11:36:51Z</time>
      </trkpt>
      <trkpt lat="43.870631251484156" lon="5.572697343304753">
        <ele>377</ele>
        <time>2014-05-21T11:36:54Z</time>
      </trkpt>
      <trkpt lat="43.870344087481499" lon="5.572470780462027">
        <ele>378.39999389648437</ele>
        <time>2014-05-21T11:37:01Z</time>
      </trkpt>
      <trkpt lat="43.870213329792023" lon="5.572378411889076">
        <ele>376.20001220703125</ele>
        <time>2014-05-21T11:37:04Z</time>
      </trkpt>
      <trkpt lat="43.870129007846117" lon="5.572312194854021">
        <ele>375</ele>
        <time>2014-05-21T11:37:06Z</time>
      </trkpt>
      <trkpt lat="43.869951646775007" lon="5.572145059704781">
        <ele>375.39999389648437</ele>
        <time>2014-05-21T11:37:10Z</time>
      </trkpt>
      <trkpt lat="43.869645036756992" lon="5.571815650910139">
        <ele>373.79998779296875</ele>
        <time>2014-05-21T11:37:17Z</time>
      </trkpt>
      <trkpt lat="43.86955451220274" lon="5.571717163547874">
        <ele>373.60000610351562</ele>
        <time>2014-05-21T11:37:19Z</time>
      </trkpt>
      <trkpt lat="43.869189564138651" lon="5.571315754204989">
        <ele>373.60000610351562</ele>
        <time>2014-05-21T11:37:27Z</time>
      </trkpt>
      <trkpt lat="43.869146900251508" lon="5.571271497756243">
        <ele>372.79998779296875</ele>
        <time>2014-05-21T11:37:28Z</time>
      </trkpt>
      <trkpt lat="43.86910842731595" lon="5.571225481107831">
        <ele>371.79998779296875</ele>
        <time>2014-05-21T11:37:29Z</time>
      </trkpt>
      <trkpt lat="43.869029050692916" lon="5.571111235767603">
        <ele>372.60000610351562</ele>
        <time>2014-05-21T11:37:32Z</time>
      </trkpt>
      <trkpt lat="43.869022345170379" lon="5.571084497496486">
        <ele>373.20001220703125</ele>
        <time>2014-05-21T11:37:33Z</time>
      </trkpt>
      <trkpt lat="43.869023770093918" lon="5.571070080623031">
        <ele>373.60000610351562</ele>
        <time>2014-05-21T11:37:34Z</time>
      </trkpt>
      <trkpt lat="43.868994181975722" lon="5.571048371493816">
        <ele>374.20001220703125</ele>
        <time>2014-05-21T11:38:07Z</time>
      </trkpt>
      <trkpt lat="43.868958726525307" lon="5.571027165278792">
        <ele>373.60000610351562</ele>
        <time>2014-05-21T11:38:09Z</time>
      </trkpt>
      <trkpt lat="43.868854204192758" lon="5.570929180830717">
        <ele>374</ele>
        <time>2014-05-21T11:38:13Z</time>
      </trkpt>
      <trkpt lat="43.868759823963046" lon="5.570826670154929">
        <ele>373.20001220703125</ele>
        <time>2014-05-21T11:38:16Z</time>
      </trkpt>
      <trkpt lat="43.86865790002048" lon="5.570727344602346">
        <ele>373.60000610351562</ele>
        <time>2014-05-21T11:38:19Z</time>
      </trkpt>
      <trkpt lat="43.868619594722986" lon="5.570701695978642">
        <ele>373.39999389648438</ele>
        <time>2014-05-21T11:38:20Z</time>
      </trkpt>
      <trkpt lat="43.86839596554637" lon="5.570578398182988">
        <ele>372.79998779296875</ele>
        <time>2014-05-21T11:38:25Z</time>
      </trkpt>
      <trkpt lat="43.868346847593784" lon="5.570556102320552">
        <ele>372.20001220703125</ele>
        <time>2014-05-21T11:38:26Z</time>
      </trkpt>
      <trkpt lat="43.868186920881271" lon="5.570494076237083">
        <ele>373.39999389648438</ele>
        <time>2014-05-21T11:38:29Z</time>
      </trkpt>
      <trkpt lat="43.868015175685287" lon="5.570431211963296">
        <ele>373.20001220703125</ele>
        <time>2014-05-21T11:38:32Z</time>
      </trkpt>
      <trkpt lat="43.867956334725022" lon="5.570413358509541">
        <ele>372</ele>
        <time>2014-05-21T11:38:33Z</time>
      </trkpt>
      <trkpt lat="43.867901349440217" lon="5.57038988918066">
        <ele>370.39999389648438</ele>
        <time>2014-05-21T11:38:34Z</time>
      </trkpt>
      <trkpt lat="43.867739159613848" lon="5.570319732651115">
        <ele>371.79998779296875</ele>
        <time>2014-05-21T11:38:37Z</time>
      </trkpt>
      <trkpt lat="43.867573365569115" lon="5.57025452144444">
        <ele>371.60000610351562</ele>
        <time>2014-05-21T11:38:40Z</time>
      </trkpt>
      <trkpt lat="43.86751988902688" lon="5.570235745981336">
        <ele>370.60000610351562</ele>
        <time>2014-05-21T11:38:41Z</time>
      </trkpt>
      <trkpt lat="43.86722132563591" lon="5.570122422650456">
        <ele>370.39999389648438</ele>
        <time>2014-05-21T11:38:47Z</time>
      </trkpt>
      <trkpt lat="43.866790663450956" lon="5.56995059363544">
        <ele>371</ele>
        <time>2014-05-21T11:38:56Z</time>
      </trkpt>
      <trkpt lat="43.866693684831262" lon="5.569917317479849">
        <ele>369.20001220703125</ele>
        <time>2014-05-21T11:38:58Z</time>
      </trkpt>
      <trkpt lat="43.86659343726933" lon="5.569876162335277">
        <ele>370.20001220703125</ele>
        <time>2014-05-21T11:39:00Z</time>
      </trkpt>
      <trkpt lat="43.866383554413915" lon="5.569815980270505">
        <ele>369.79998779296875</ele>
        <time>2014-05-21T11:39:04Z</time>
      </trkpt>
      <trkpt lat="43.866063700988889" lon="5.569789241999388">
        <ele>369.20001220703125</ele>
        <time>2014-05-21T11:39:10Z</time>
      </trkpt>
      <trkpt lat="43.865950461477041" lon="5.569784296676517">
        <ele>368.60000610351562</ele>
        <time>2014-05-21T11:39:12Z</time>
      </trkpt>
      <trkpt lat="43.865837221965194" lon="5.569785470142961">
        <ele>368</ele>
        <time>2014-05-21T11:39:14Z</time>
      </trkpt>
      <trkpt lat="43.865498760715127" lon="5.569769125431776">
        <ele>367.79998779296875</ele>
        <time>2014-05-21T11:39:20Z</time>
      </trkpt>
      <trkpt lat="43.865261301398277" lon="5.569750852882862">
        <ele>369</ele>
        <time>2014-05-21T11:39:24Z</time>
      </trkpt>
      <trkpt lat="43.865076899528503" lon="5.569744985550642">
        <ele>369.39999389648437</ele>
        <time>2014-05-21T11:39:27Z</time>
      </trkpt>
      <trkpt lat="43.864602148532867" lon="5.569728724658489">
        <ele>369.39999389648437</ele>
        <time>2014-05-21T11:39:35Z</time>
      </trkpt>
      <trkpt lat="43.864036034792662" lon="5.569711122661829">
        <ele>370</ele>
        <time>2014-05-21T11:39:45Z</time>
      </trkpt>
      <trkpt lat="43.863982725888491" lon="5.569704752415419">
        <ele>370.39999389648438</ele>
        <time>2014-05-21T11:39:46Z</time>
      </trkpt>
      <trkpt lat="43.86387225240469" lon="5.569691676646471">
        <ele>370.60000610351562</ele>
        <time>2014-05-21T11:39:48Z</time>
      </trkpt>
      <trkpt lat="43.863757168874145" lon="5.569657310843468">
        <ele>370.60000610351562</ele>
        <time>2014-05-21T11:39:50Z</time>
      </trkpt>
      <trkpt lat="43.863647952675819" lon="5.569575587287545">
        <ele>370.60000610351562</ele>
        <time>2014-05-21T11:39:52Z</time>
      </trkpt>
      <trkpt lat="43.863480649888515" lon="5.569320190697908">
        <ele>370</ele>
        <time>2014-05-21T11:39:56Z</time>
      </trkpt>
      <trkpt lat="43.863450475037098" lon="5.569242658093572">
        <ele>369.79998779296875</ele>
        <time>2014-05-21T11:39:57Z</time>
      </trkpt>
      <trkpt lat="43.863268671557307" lon="5.568792801350355">
        <ele>370.20001220703125</ele>
        <time>2014-05-21T11:40:03Z</time>
      </trkpt>
      <trkpt lat="43.863068176433444" lon="5.568251246586442">
        <ele>370.39999389648438</ele>
        <time>2014-05-21T11:40:10Z</time>
      </trkpt>
      <trkpt lat="43.863038755953312" lon="5.567921670153737">
        <ele>370.20001220703125</ele>
        <time>2014-05-21T11:40:14Z</time>
      </trkpt>
      <trkpt lat="43.863077061250806" lon="5.567664429545403">
        <ele>370.79998779296875</ele>
        <time>2014-05-21T11:40:17Z</time>
      </trkpt>
      <trkpt lat="43.863116623833776" lon="5.567483380436897">
        <ele>370.20001220703125</ele>
        <time>2014-05-21T11:40:19Z</time>
      </trkpt>
      <trkpt lat="43.86320429854095" lon="5.56709504686296">
        <ele>369.39999389648437</ele>
        <time>2014-05-21T11:40:23Z</time>
      </trkpt>
      <trkpt lat="43.863264648243785" lon="5.566790448501706">
        <ele>368.60000610351562</ele>
        <time>2014-05-21T11:40:26Z</time>
      </trkpt>
      <trkpt lat="43.863354921340942" lon="5.566277811303735">
        <ele>368.20001220703125</ele>
        <time>2014-05-21T11:40:31Z</time>
      </trkpt>
      <trkpt lat="43.863366404548287" lon="5.565969189628959">
        <ele>367.39999389648438</ele>
        <time>2014-05-21T11:40:34Z</time>
      </trkpt>
      <trkpt lat="43.863358777016401" lon="5.565870031714439">
        <ele>367.20001220703125</ele>
        <time>2014-05-21T11:40:35Z</time>
      </trkpt>
      <trkpt lat="43.86327613145113" lon="5.565470969304442">
        <ele>367.20001220703125</ele>
        <time>2014-05-21T11:40:39Z</time>
      </trkpt>
      <trkpt lat="43.863058034330606" lon="5.564878536388278">
        <ele>365.20001220703125</ele>
        <time>2014-05-21T11:40:45Z</time>
      </trkpt>
      <trkpt lat="43.862827280536294" lon="5.564327593892813">
        <ele>366.60000610351562</ele>
        <time>2014-05-21T11:40:51Z</time>
      </trkpt>
      <trkpt lat="43.86279140599072" lon="5.564235476776958">
        <ele>366.39999389648437</ele>
        <time>2014-05-21T11:40:52Z</time>
      </trkpt>
      <trkpt lat="43.862650506198406" lon="5.563889304175973">
        <ele>365.39999389648437</ele>
        <time>2014-05-21T11:40:56Z</time>
      </trkpt>
      <trkpt lat="43.862546235322952" lon="5.563632901757956">
        <ele>364.39999389648437</ele>
        <time>2014-05-21T11:40:59Z</time>
      </trkpt>
      <trkpt lat="43.862515306100249" lon="5.563547490164638">
        <ele>363.79998779296875</ele>
        <time>2014-05-21T11:41:00Z</time>
      </trkpt>
      <trkpt lat="43.8623883202672" lon="5.563221937045455">
        <ele>362.79998779296875</ele>
        <time>2014-05-21T11:41:04Z</time>
      </trkpt>
      <trkpt lat="43.862327886745334" lon="5.563073493540287">
        <ele>362.60000610351562</ele>
        <time>2014-05-21T11:41:06Z</time>
      </trkpt>
      <trkpt lat="43.862269381061196" lon="5.562923373654485">
        <ele>364.20001220703125</ele>
        <time>2014-05-21T11:41:08Z</time>
      </trkpt>
      <trkpt lat="43.862211462110281" lon="5.56277459487319">
        <ele>365.79998779296875</ele>
        <time>2014-05-21T11:41:10Z</time>
      </trkpt>
      <trkpt lat="43.862089924514294" lon="5.562477707862854">
        <ele>366.39999389648437</ele>
        <time>2014-05-21T11:41:14Z</time>
      </trkpt>
      <trkpt lat="43.861968973651528" lon="5.562190962955356">
        <ele>364.79998779296875</ele>
        <time>2014-05-21T11:41:18Z</time>
      </trkpt>
      <trkpt lat="43.861881466582417" lon="5.561993317678571">
        <ele>364.20001220703125</ele>
        <time>2014-05-21T11:41:21Z</time>
      </trkpt>
      <trkpt lat="43.861850453540683" lon="5.561927268281579">
        <ele>365.60000610351562</ele>
        <time>2014-05-21T11:41:22Z</time>
      </trkpt>
      <trkpt lat="43.861606791615486" lon="5.561420246958733">
        <ele>364</ele>
        <time>2014-05-21T11:41:29Z</time>
      </trkpt>
      <trkpt lat="43.861494725570083" lon="5.561172058805823">
        <ele>363.60000610351562</ele>
        <time>2014-05-21T11:41:32Z</time>
      </trkpt>
      <trkpt lat="43.861414343118668" lon="5.561010539531708">
        <ele>362.39999389648437</ele>
        <time>2014-05-21T11:41:34Z</time>
      </trkpt>
      <trkpt lat="43.861334295943379" lon="5.560847092419863">
        <ele>361</ele>
        <time>2014-05-21T11:41:36Z</time>
      </trkpt>
      <trkpt lat="43.861295571550727" lon="5.560768051072955">
        <ele>360</ele>
        <time>2014-05-21T11:41:37Z</time>
      </trkpt>
      <trkpt lat="43.861189959570765" lon="5.560538889840245">
        <ele>361.20001220703125</ele>
        <time>2014-05-21T11:41:40Z</time>
      </trkpt>
      <trkpt lat="43.861025841906667" lon="5.560154328122735">
        <ele>362.39999389648437</ele>
        <time>2014-05-21T11:41:45Z</time>
      </trkpt>
      <trkpt lat="43.860890055075288" lon="5.559851657599211">
        <ele>363.60000610351562</ele>
        <time>2014-05-21T11:41:49Z</time>
      </trkpt>
      <trkpt lat="43.860818976536393" lon="5.559710338711739">
        <ele>364.20001220703125</ele>
        <time>2014-05-21T11:41:51Z</time>
      </trkpt>
      <trkpt lat="43.860654523596168" lon="5.55949685163796">
        <ele>364.20001220703125</ele>
        <time>2014-05-21T11:41:55Z</time>
      </trkpt>
      <trkpt lat="43.860606411471963" lon="5.55944018997252">
        <ele>364</ele>
        <time>2014-05-21T11:41:56Z</time>
      </trkpt>
      <trkpt lat="43.860455369576812" lon="5.559253189712763">
        <ele>362.39999389648437</ele>
        <time>2014-05-21T11:41:59Z</time>
      </trkpt>
      <trkpt lat="43.860365683212876" lon="5.559099465608597">
        <ele>362.39999389648437</ele>
        <time>2014-05-21T11:42:01Z</time>
      </trkpt>
      <trkpt lat="43.860327880829573" lon="5.559016317129135">
        <ele>362.39999389648437</ele>
        <time>2014-05-21T11:42:02Z</time>
      </trkpt>
      <trkpt lat="43.860197206959128" lon="5.558663690462709">
        <ele>363.39999389648437</ele>
        <time>2014-05-21T11:42:06Z</time>
      </trkpt>
      <trkpt lat="43.860124535858631" lon="5.558490687981248">
        <ele>364.20001220703125</ele>
        <time>2014-05-21T11:42:08Z</time>
      </trkpt>
      <trkpt lat="43.860087068751454" lon="5.55840577930212">
        <ele>364.60000610351562</ele>
        <time>2014-05-21T11:42:09Z</time>
      </trkpt>
      <trkpt lat="43.86001942679286" lon="5.558232441544533">
        <ele>363.60000610351562</ele>
        <time>2014-05-21T11:42:11Z</time>
      </trkpt>
      <trkpt lat="43.859934266656637" lon="5.558085842058063">
        <ele>363.39999389648437</ele>
        <time>2014-05-21T11:42:13Z</time>
      </trkpt>
      <trkpt lat="43.859833935275674" lon="5.557977799326181">
        <ele>364</ele>
        <time>2014-05-21T11:42:15Z</time>
      </trkpt>
      <trkpt lat="43.859649449586868" lon="5.557879731059074">
        <ele>363.79998779296875</ele>
        <time>2014-05-21T11:42:18Z</time>
      </trkpt>
      <trkpt lat="43.859584908932447" lon="5.557850478217006">
        <ele>363.20001220703125</ele>
        <time>2014-05-21T11:42:19Z</time>
      </trkpt>
      <trkpt lat="43.859454905614257" lon="5.557783087715507">
        <ele>362.20001220703125</ele>
        <time>2014-05-21T11:42:21Z</time>
      </trkpt>
      <trkpt lat="43.859117366373539" lon="5.557627435773611">
        <ele>362.79998779296875</ele>
        <time>2014-05-21T11:42:26Z</time>
      </trkpt>
      <trkpt lat="43.858658624812961" lon="5.557426521554589">
        <ele>362.60000610351562</ele>
        <time>2014-05-21T11:42:33Z</time>
      </trkpt>
      <trkpt lat="43.858267357572913" lon="5.557253519073129">
        <ele>362.60000610351562</ele>
        <time>2014-05-21T11:42:40Z</time>
      </trkpt>
      <trkpt lat="43.858178174123168" lon="5.557230468839407">
        <ele>362.79998779296875</ele>
        <time>2014-05-21T11:42:42Z</time>
      </trkpt>
      <trkpt lat="43.858076920732856" lon="5.557197779417038">
        <ele>362.79998779296875</ele>
        <time>2014-05-21T11:42:45Z</time>
      </trkpt>
      <trkpt lat="43.858009446412325" lon="5.557075068354607">
        <ele>363.39999389648437</ele>
        <time>2014-05-21T11:42:48Z</time>
      </trkpt>
      <trkpt lat="43.857997376471758" lon="5.557015556842089">
        <ele>363.20001220703125</ele>
        <time>2014-05-21T11:42:49Z</time>
      </trkpt>
      <trkpt lat="43.857982540503144" lon="5.556953866034746">
        <ele>363</ele>
        <time>2014-05-21T11:42:50Z</time>
      </trkpt>
      <trkpt lat="43.857885226607323" lon="5.556618086993694">
        <ele>362.60000610351562</ele>
        <time>2014-05-21T11:42:55Z</time>
      </trkpt>
      <trkpt lat="43.857836863026023" lon="5.556468302384019">
        <ele>362.20001220703125</ele>
        <time>2014-05-21T11:42:57Z</time>
      </trkpt>
      <trkpt lat="43.857731502503157" lon="5.556141911074519">
        <ele>361.20001220703125</ele>
        <time>2014-05-21T11:43:01Z</time>
      </trkpt>
      <trkpt lat="43.85770577006042" lon="5.556057086214423">
        <ele>361</ele>
        <time>2014-05-21T11:43:02Z</time>
      </trkpt>
      <trkpt lat="43.857468143105507" lon="5.555360047146678">
        <ele>360.39999389648437</ele>
        <time>2014-05-21T11:43:10Z</time>
      </trkpt>
      <trkpt lat="43.857205873355269" lon="5.554584804922342">
        <ele>361.20001220703125</ele>
        <time>2014-05-21T11:43:18Z</time>
      </trkpt>
      <trkpt lat="43.857064386829734" lon="5.554195381700993">
        <ele>359.60000610351562</ele>
        <time>2014-05-21T11:43:22Z</time>
      </trkpt>
      <trkpt lat="43.856984339654446" lon="5.554005112498999">
        <ele>360.60000610351562</ele>
        <time>2014-05-21T11:43:24Z</time>
      </trkpt>
      <trkpt lat="43.85693765245378" lon="5.553914168849587">
        <ele>360.60000610351562</ele>
        <time>2014-05-21T11:43:25Z</time>
      </trkpt>
      <trkpt lat="43.856686865910888" lon="5.55345106869936">
        <ele>360.20001220703125</ele>
        <time>2014-05-21T11:43:30Z</time>
      </trkpt>
      <trkpt lat="43.856578655540943" lon="5.553269013762474">
        <ele>359</ele>
        <time>2014-05-21T11:43:32Z</time>
      </trkpt>
      <trkpt lat="43.85620666667819" lon="5.552659565582871">
        <ele>357.79998779296875</ele>
        <time>2014-05-21T11:43:39Z</time>
      </trkpt>
      <trkpt lat="43.855841048061848" lon="5.552036287263036">
        <ele>358.39999389648437</ele>
        <time>2014-05-21T11:43:46Z</time>
      </trkpt>
      <trkpt lat="43.855798132717609" lon="5.551931010559201">
        <ele>358.20001220703125</ele>
        <time>2014-05-21T11:43:47Z</time>
      </trkpt>
      <trkpt lat="43.855660166591406" lon="5.551471682265401">
        <ele>358.60000610351562</ele>
        <time>2014-05-21T11:43:51Z</time>
      </trkpt>
      <trkpt lat="43.855634853243828" lon="5.551354587078095">
        <ele>359</ele>
        <time>2014-05-21T11:43:52Z</time>
      </trkpt>
      <trkpt lat="43.855510549619794" lon="5.55084865540266">
        <ele>358.79998779296875</ele>
        <time>2014-05-21T11:43:56Z</time>
      </trkpt>
      <trkpt lat="43.855443829670548" lon="5.5505789257586">
        <ele>357.79998779296875</ele>
        <time>2014-05-21T11:43:58Z</time>
      </trkpt>
      <trkpt lat="43.855315335094929" lon="5.550047177821398">
        <ele>358</ele>
        <time>2014-05-21T11:44:02Z</time>
      </trkpt>
      <trkpt lat="43.855117438361049" lon="5.549214100465179">
        <ele>357.79998779296875</ele>
        <time>2014-05-21T11:44:08Z</time>
      </trkpt>
      <trkpt lat="43.855040743947029" lon="5.548934983089566">
        <ele>358.20001220703125</ele>
        <time>2014-05-21T11:44:10Z</time>
      </trkpt>
      <trkpt lat="43.854851564392447" lon="5.548391249030829">
        <ele>356.79998779296875</ele>
        <time>2014-05-21T11:44:14Z</time>
      </trkpt>
      <trkpt lat="43.854804458096623" lon="5.548257557675242">
        <ele>357</ele>
        <time>2014-05-21T11:44:15Z</time>
      </trkpt>
      <trkpt lat="43.854653751477599" lon="5.547863943502307">
        <ele>357.79998779296875</ele>
        <time>2014-05-21T11:44:18Z</time>
      </trkpt>
      <trkpt lat="43.85449985973537" lon="5.547463372349739">
        <ele>358</ele>
        <time>2014-05-21T11:44:21Z</time>
      </trkpt>
      <trkpt lat="43.85425066575408" lon="5.546785276383162">
        <ele>358.39999389648437</ele>
        <time>2014-05-21T11:44:26Z</time>
      </trkpt>
      <trkpt lat="43.854210851714015" lon="5.546644376590848">
        <ele>357.60000610351562</ele>
        <time>2014-05-21T11:44:27Z</time>
      </trkpt>
      <trkpt lat="43.854034747928381" lon="5.545805180445314">
        <ele>357.60000610351562</ele>
        <time>2014-05-21T11:44:33Z</time>
      </trkpt>
      <trkpt lat="43.853884963318706" lon="5.545001523569226">
        <ele>358</ele>
        <time>2014-05-21T11:44:39Z</time>
      </trkpt>
      <trkpt lat="43.853839030489326" lon="5.544742522761226">
        <ele>358.20001220703125</ele>
        <time>2014-05-21T11:44:41Z</time>
      </trkpt>
      <trkpt lat="43.853783207014203" lon="5.544347483664751">
        <ele>359</ele>
        <time>2014-05-21T11:44:44Z</time>
      </trkpt>
      <trkpt lat="43.85375713929534" lon="5.543947415426374">
        <ele>358</ele>
        <time>2014-05-21T11:44:47Z</time>
      </trkpt>
      <trkpt lat="43.853725707158446" lon="5.54313906468451">
        <ele>357.60000610351562</ele>
        <time>2014-05-21T11:44:53Z</time>
      </trkpt>
      <trkpt lat="43.853696789592505" lon="5.542721729725599">
        <ele>357.79998779296875</ele>
        <time>2014-05-21T11:44:56Z</time>
      </trkpt>
      <trkpt lat="43.853629566729069" lon="5.542295426130295">
        <ele>356.39999389648438</ele>
        <time>2014-05-21T11:44:59Z</time>
      </trkpt>
      <trkpt lat="43.853573324158788" lon="5.542016057297587">
        <ele>356</ele>
        <time>2014-05-21T11:45:01Z</time>
      </trkpt>
      <trkpt lat="43.853529486805201" lon="5.541882030665875">
        <ele>356.20001220703125</ele>
        <time>2014-05-21T11:45:02Z</time>
      </trkpt>
      <trkpt lat="43.85337945073843" lon="5.541483303532004">
        <ele>354.79998779296875</ele>
        <time>2014-05-21T11:45:05Z</time>
      </trkpt>
      <trkpt lat="43.853275766596198" lon="5.54122069850564">
        <ele>353.60000610351562</ele>
        <time>2014-05-21T11:45:07Z</time>
      </trkpt>
      <trkpt lat="43.853106619790196" lon="5.540838735178113">
        <ele>352.39999389648437</ele>
        <time>2014-05-21T11:45:10Z</time>
      </trkpt>
      <trkpt lat="43.852948788553476" lon="5.540476469323039">
        <ele>352.60000610351562</ele>
        <time>2014-05-21T11:45:13Z</time>
      </trkpt>
      <trkpt lat="43.852656846866012" lon="5.539769371971488">
        <ele>352.60000610351562</ele>
        <time>2014-05-21T11:45:19Z</time>
      </trkpt>
      <trkpt lat="43.852581912651658" lon="5.539526045322418">
        <ele>352.79998779296875</ele>
        <time>2014-05-21T11:45:21Z</time>
      </trkpt>
      <trkpt lat="43.852450316771865" lon="5.539062023162842">
        <ele>353.60000610351562</ele>
        <time>2014-05-21T11:45:25Z</time>
      </trkpt>
      <trkpt lat="43.852325929328799" lon="5.538612334057689">
        <ele>353</ele>
        <time>2014-05-21T11:45:29Z</time>
      </trkpt>
      <trkpt lat="43.852118141949177" lon="5.537890065461397">
        <ele>352.79998779296875</ele>
        <time>2014-05-21T11:45:36Z</time>
      </trkpt>
      <trkpt lat="43.851963663473725" lon="5.537340715527535">
        <ele>353.79998779296875</ele>
        <time>2014-05-21T11:45:42Z</time>
      </trkpt>
      <trkpt lat="43.851816896349192" lon="5.536631271243095">
        <ele>352.60000610351562</ele>
        <time>2014-05-21T11:45:49Z</time>
      </trkpt>
      <trkpt lat="43.851774483919144" lon="5.53596742451191">
        <ele>352.79998779296875</ele>
        <time>2014-05-21T11:45:55Z</time>
      </trkpt>
      <trkpt lat="43.851772053167224" lon="5.535619240254164">
        <ele>352.39999389648437</ele>
        <time>2014-05-21T11:45:58Z</time>
      </trkpt>
      <trkpt lat="43.851768113672733" lon="5.534926392138004">
        <ele>351.39999389648437</ele>
        <time>2014-05-21T11:46:04Z</time>
      </trkpt>
      <trkpt lat="43.851754534989595" lon="5.534196915104985">
        <ele>350.20001220703125</ele>
        <time>2014-05-21T11:46:10Z</time>
      </trkpt>
      <trkpt lat="43.85175034403801" lon="5.533824255689979">
        <ele>349.60000610351562</ele>
        <time>2014-05-21T11:46:13Z</time>
      </trkpt>
      <trkpt lat="43.851728886365891" lon="5.532974163070321">
        <ele>349.60000610351562</ele>
        <time>2014-05-21T11:46:20Z</time>
      </trkpt>
      <trkpt lat="43.851730898022652" lon="5.532729411497712">
        <ele>349.79998779296875</ele>
        <time>2014-05-21T11:46:22Z</time>
      </trkpt>
      <trkpt lat="43.851774483919144" lon="5.532270586118102">
        <ele>349.60000610351562</ele>
        <time>2014-05-21T11:46:26Z</time>
      </trkpt>
      <trkpt lat="43.851822260767221" lon="5.532054165378213">
        <ele>349.39999389648437</ele>
        <time>2014-05-21T11:46:28Z</time>
      </trkpt>
      <trkpt lat="43.851923430338502" lon="5.531542953103781">
        <ele>350.79998779296875</ele>
        <time>2014-05-21T11:46:33Z</time>
      </trkpt>
      <trkpt lat="43.851940613240004" lon="5.531329968944192">
        <ele>351.20001220703125</ele>
        <time>2014-05-21T11:46:35Z</time>
      </trkpt>
      <trkpt lat="43.851967100054026" lon="5.53088421933353">
        <ele>351.39999389648437</ele>
        <time>2014-05-21T11:46:39Z</time>
      </trkpt>
      <trkpt lat="43.851982019841671" lon="5.530277201905847">
        <ele>350.20001220703125</ele>
        <time>2014-05-21T11:46:44Z</time>
      </trkpt>
      <trkpt lat="43.851991072297096" lon="5.529897250235081">
        <ele>350.39999389648438</ele>
        <time>2014-05-21T11:46:47Z</time>
      </trkpt>
      <trkpt lat="43.851977158337831" lon="5.529216639697552">
        <ele>349.20001220703125</ele>
        <time>2014-05-21T11:46:52Z</time>
      </trkpt>
      <trkpt lat="43.851948995143175" lon="5.529073225334287">
        <ele>348.39999389648437</ele>
        <time>2014-05-21T11:46:53Z</time>
      </trkpt>
      <trkpt lat="43.851918568834662" lon="5.528936767950654">
        <ele>347.60000610351562</ele>
        <time>2014-05-21T11:46:54Z</time>
      </trkpt>
      <trkpt lat="43.851749338209629" lon="5.528248613700271">
        <ele>346.39999389648437</ele>
        <time>2014-05-21T11:46:59Z</time>
      </trkpt>
      <trkpt lat="43.851563511416316" lon="5.527537912130356">
        <ele>346</ele>
        <time>2014-05-21T11:47:05Z</time>
      </trkpt>
      <trkpt lat="43.851476842537522" lon="5.527145136147738">
        <ele>347.39999389648437</ele>
        <time>2014-05-21T11:47:09Z</time>
      </trkpt>
      <trkpt lat="43.85146058164537" lon="5.527048911899328">
        <ele>347.60000610351562</ele>
        <time>2014-05-21T11:47:10Z</time>
      </trkpt>
      <trkpt lat="43.851436609402299" lon="5.526853278279305">
        <ele>349.39999389648437</ele>
        <time>2014-05-21T11:47:12Z</time>
      </trkpt>
      <trkpt lat="43.851435268297791" lon="5.526756048202515">
        <ele>349.60000610351562</ele>
        <time>2014-05-21T11:47:13Z</time>
      </trkpt>
      <trkpt lat="43.851436525583267" lon="5.526664350181818">
        <ele>349.20001220703125</ele>
        <time>2014-05-21T11:47:14Z</time>
      </trkpt>
      <trkpt lat="43.851469131186604" lon="5.525871170684695">
        <ele>348.79998779296875</ele>
        <time>2014-05-21T11:47:22Z</time>
      </trkpt>
      <trkpt lat="43.851599553599954" lon="5.525146890431643">
        <ele>349.39999389648437</ele>
        <time>2014-05-21T11:47:29Z</time>
      </trkpt>
      <trkpt lat="43.851726036518812" lon="5.524440798908472">
        <ele>348</ele>
        <time>2014-05-21T11:47:36Z</time>
      </trkpt>
      <trkpt lat="43.851745650172234" lon="5.524247596040368">
        <ele>348.20001220703125</ele>
        <time>2014-05-21T11:47:38Z</time>
      </trkpt>
      <trkpt lat="43.851720755919814" lon="5.52374828606844">
        <ele>348.39999389648437</ele>
        <time>2014-05-21T11:47:43Z</time>
      </trkpt>
      <trkpt lat="43.851643977686763" lon="5.522905737161636">
        <ele>347.79998779296875</ele>
        <time>2014-05-21T11:47:51Z</time>
      </trkpt>
      <trkpt lat="43.851618077605963" lon="5.522571550682187">
        <ele>347</ele>
        <time>2014-05-21T11:47:54Z</time>
      </trkpt>
      <trkpt lat="43.851645234972239" lon="5.522220265120268">
        <ele>347.79998779296875</ele>
        <time>2014-05-21T11:47:57Z</time>
      </trkpt>
      <trkpt lat="43.851770041510463" lon="5.521644679829478">
        <ele>347</ele>
        <time>2014-05-21T11:48:02Z</time>
      </trkpt>
      <trkpt lat="43.851949414238334" lon="5.520808920264244">
        <ele>346.60000610351562</ele>
        <time>2014-05-21T11:48:09Z</time>
      </trkpt>
      <trkpt lat="43.85200833901763" lon="5.520568946376443">
        <ele>345</ele>
        <time>2014-05-21T11:48:11Z</time>
      </trkpt>
      <trkpt lat="43.852037340402603" lon="5.520453946664929">
        <ele>345</ele>
        <time>2014-05-21T11:48:12Z</time>
      </trkpt>
      <trkpt lat="43.852116884663701" lon="5.520112132653594">
        <ele>346.20001220703125</ele>
        <time>2014-05-21T11:48:15Z</time>
      </trkpt>
      <trkpt lat="43.852211935445666" lon="5.519676022231579">
        <ele>346</ele>
        <time>2014-05-21T11:48:19Z</time>
      </trkpt>
      <trkpt lat="43.852334478870034" lon="5.519087780267">
        <ele>345.79998779296875</ele>
        <time>2014-05-21T11:48:25Z</time>
      </trkpt>
      <trkpt lat="43.852503709495068" lon="5.518302228301764">
        <ele>346.39999389648437</ele>
        <time>2014-05-21T11:48:33Z</time>
      </trkpt>
      <trkpt lat="43.852682914584875" lon="5.517584066838026">
        <ele>345.79998779296875</ele>
        <time>2014-05-21T11:48:40Z</time>
      </trkpt>
      <trkpt lat="43.852718872949481" lon="5.517476862296462">
        <ele>345.60000610351562</ele>
        <time>2014-05-21T11:48:41Z</time>
      </trkpt>
      <trkpt lat="43.852923810482025" lon="5.517095988616347">
        <ele>345.20001220703125</ele>
        <time>2014-05-21T11:48:45Z</time>
      </trkpt>
      <trkpt lat="43.852986926212907" lon="5.517007140442729">
        <ele>345</ele>
        <time>2014-05-21T11:48:46Z</time>
      </trkpt>
      <trkpt lat="43.853279622271657" lon="5.516538005322218">
        <ele>344.20001220703125</ele>
        <time>2014-05-21T11:48:51Z</time>
      </trkpt>
      <trkpt lat="43.853326393291354" lon="5.516441445797682">
        <ele>344</ele>
        <time>2014-05-21T11:48:52Z</time>
      </trkpt>
      <trkpt lat="43.853414403274655" lon="5.516224522143602">
        <ele>343.39999389648437</ele>
        <time>2014-05-21T11:48:54Z</time>
      </trkpt>
      <trkpt lat="43.853450864553452" lon="5.516110528260469">
        <ele>343.20001220703125</ele>
        <time>2014-05-21T11:48:55Z</time>
      </trkpt>
      <trkpt lat="43.853524625301361" lon="5.515906093642116">
        <ele>342.60000610351562</ele>
        <time>2014-05-21T11:48:57Z</time>
      </trkpt>
      <trkpt lat="43.853625878691673" lon="5.515467301011086">
        <ele>341.39999389648437</ele>
        <time>2014-05-21T11:49:01Z</time>
      </trkpt>
      <trkpt lat="43.853640463203192" lon="5.515241073444486">
        <ele>340.79998779296875</ele>
        <time>2014-05-21T11:49:03Z</time>
      </trkpt>
      <trkpt lat="43.85364624671638" lon="5.514885596930981">
        <ele>341.20001220703125</ele>
        <time>2014-05-21T11:49:06Z</time>
      </trkpt>
      <trkpt lat="43.853630488738418" lon="5.514047993347049">
        <ele>341.39999389648437</ele>
        <time>2014-05-21T11:49:13Z</time>
      </trkpt>
      <trkpt lat="43.853616574779153" lon="5.513190440833569">
        <ele>340.60000610351562</ele>
        <time>2014-05-21T11:49:20Z</time>
      </trkpt>
      <trkpt lat="43.853618251159787" lon="5.513065969571471">
        <ele>340.60000610351562</ele>
        <time>2014-05-21T11:49:21Z</time>
      </trkpt>
      <trkpt lat="43.853615317493677" lon="5.512942839413881">
        <ele>340.20001220703125</ele>
        <time>2014-05-21T11:49:22Z</time>
      </trkpt>
      <trkpt lat="43.853613473474979" lon="5.512562468647957">
        <ele>339</ele>
        <time>2014-05-21T11:49:25Z</time>
      </trkpt>
      <trkpt lat="43.853590590879321" lon="5.511939525604248">
        <ele>338.20001220703125</ele>
        <time>2014-05-21T11:49:30Z</time>
      </trkpt>
      <trkpt lat="43.853511800989509" lon="5.5113376211375">
        <ele>338.60000610351562</ele>
        <time>2014-05-21T11:49:35Z</time>
      </trkpt>
      <trkpt lat="43.853461090475321" lon="5.511107118800283">
        <ele>337.79998779296875</ele>
        <time>2014-05-21T11:49:37Z</time>
      </trkpt>
      <trkpt lat="43.853330248966813" lon="5.51068626344204">
        <ele>338.20001220703125</ele>
        <time>2014-05-21T11:49:41Z</time>
      </trkpt>
      <trkpt lat="43.853289596736431" lon="5.510588446632028">
        <ele>338.79998779296875</ele>
        <time>2014-05-21T11:49:42Z</time>
      </trkpt>
      <trkpt lat="43.853079127147794" lon="5.510137835517526">
        <ele>338.60000610351562</ele>
        <time>2014-05-21T11:49:47Z</time>
      </trkpt>
      <trkpt lat="43.852789700031281" lon="5.509613463655114">
        <ele>337.60000610351562</ele>
        <time>2014-05-21T11:49:53Z</time>
      </trkpt>
      <trkpt lat="43.852744521573186" lon="5.509529057890177">
        <ele>337.60000610351562</ele>
        <time>2014-05-21T11:49:54Z</time>
      </trkpt>
      <trkpt lat="43.852469427511096" lon="5.509021952748299">
        <ele>336.60000610351562</ele>
        <time>2014-05-21T11:50:00Z</time>
      </trkpt>
      <trkpt lat="43.852422153577209" lon="5.508937798440456">
        <ele>336.60000610351562</ele>
        <time>2014-05-21T11:50:01Z</time>
      </trkpt>
      <trkpt lat="43.852219060063362" lon="5.508586429059506">
        <ele>337.79998779296875</ele>
        <time>2014-05-21T11:50:05Z</time>
      </trkpt>
      <trkpt lat="43.852012110874057" lon="5.508221900090575">
        <ele>337.20001220703125</ele>
        <time>2014-05-21T11:50:09Z</time>
      </trkpt>
      <trkpt lat="43.85196240618825" lon="5.508128106594086">
        <ele>336.79998779296875</ele>
        <time>2014-05-21T11:50:10Z</time>
      </trkpt>
      <trkpt lat="43.851816561073065" lon="5.507858796045184">
        <ele>335.39999389648437</ele>
        <time>2014-05-21T11:50:13Z</time>
      </trkpt>
      <trkpt lat="43.851676918566227" lon="5.507608093321323">
        <ele>336.79998779296875</ele>
        <time>2014-05-21T11:50:16Z</time>
      </trkpt>
      <trkpt lat="43.851422192528844" lon="5.507122613489628">
        <ele>337.79998779296875</ele>
        <time>2014-05-21T11:50:22Z</time>
      </trkpt>
      <trkpt lat="43.851377181708813" lon="5.507044158875942">
        <ele>338</ele>
        <time>2014-05-21T11:50:23Z</time>
      </trkpt>
      <trkpt lat="43.851038301363587" lon="5.506381653249264">
        <ele>337.79998779296875</ele>
        <time>2014-05-21T11:50:31Z</time>
      </trkpt>
      <trkpt lat="43.851002175360918" lon="5.506296828389168">
        <ele>337.79998779296875</ele>
        <time>2014-05-21T11:50:32Z</time>
      </trkpt>
      <trkpt lat="43.85085322894156" lon="5.505821155384183">
        <ele>337</ele>
        <time>2014-05-21T11:50:37Z</time>
      </trkpt>
      <trkpt lat="43.850833866745234" lon="5.505716884508729">
        <ele>337.39999389648437</ele>
        <time>2014-05-21T11:50:38Z</time>
      </trkpt>
      <trkpt lat="43.850745605304837" lon="5.505036106333137">
        <ele>338.79998779296875</ele>
        <time>2014-05-21T11:50:45Z</time>
      </trkpt>
      <trkpt lat="43.850714424625039" lon="5.504757659509778">
        <ele>339.79998779296875</ele>
        <time>2014-05-21T11:50:48Z</time>
      </trkpt>
      <trkpt lat="43.85066656395793" lon="5.504329763352871">
        <ele>339.20001220703125</ele>
        <time>2014-05-21T11:50:52Z</time>
      </trkpt>
      <trkpt lat="43.850651979446411" lon="5.504213003441691">
        <ele>338.60000610351562</ele>
        <time>2014-05-21T11:50:53Z</time>
      </trkpt>
      <trkpt lat="43.85062356479466" lon="5.503971772268415">
        <ele>337.60000610351562</ele>
        <time>2014-05-21T11:50:55Z</time>
      </trkpt>
      <trkpt lat="43.850580146536231" lon="5.50359919667244">
        <ele>336.60000610351562</ele>
        <time>2014-05-21T11:50:58Z</time>
      </trkpt>
      <trkpt lat="43.850564220920205" lon="5.503466930240393">
        <ele>335.79998779296875</ele>
        <time>2014-05-21T11:50:59Z</time>
      </trkpt>
      <trkpt lat="43.850535470992327" lon="5.503202900290489">
        <ele>334.39999389648437</ele>
        <time>2014-05-21T11:51:01Z</time>
      </trkpt>
      <trkpt lat="43.850517952814698" lon="5.502662267535925">
        <ele>333.60000610351562</ele>
        <time>2014-05-21T11:51:05Z</time>
      </trkpt>
      <trkpt lat="43.850528011098504" lon="5.502397231757641">
        <ele>333.20001220703125</ele>
        <time>2014-05-21T11:51:07Z</time>
      </trkpt>
      <trkpt lat="43.850557263940573" lon="5.50189632922411">
        <ele>333</ele>
        <time>2014-05-21T11:51:11Z</time>
      </trkpt>
      <trkpt lat="43.850612500682473" lon="5.501078758388758">
        <ele>334.20001220703125</ele>
        <time>2014-05-21T11:51:18Z</time>
      </trkpt>
      <trkpt lat="43.85064996778965" lon="5.50032639876008">
        <ele>334.20001220703125</ele>
        <time>2014-05-21T11:51:25Z</time>
      </trkpt>
      <trkpt lat="43.850662708282471" lon="5.500111905857921">
        <ele>334.20001220703125</ele>
        <time>2014-05-21T11:51:27Z</time>
      </trkpt>
      <trkpt lat="43.8507164362818" lon="5.499291652813554">
        <ele>334.79998779296875</ele>
        <time>2014-05-21T11:51:35Z</time>
      </trkpt>
      <trkpt lat="43.850760692730546" lon="5.498477350920439">
        <ele>335</ele>
        <time>2014-05-21T11:51:43Z</time>
      </trkpt>
      <trkpt lat="43.850759016349912" lon="5.498376684263349">
        <ele>335.39999389648437</ele>
        <time>2014-05-21T11:51:44Z</time>
      </trkpt>
      <trkpt lat="43.850738061591983" lon="5.497875530272722">
        <ele>334.20001220703125</ele>
        <time>2014-05-21T11:51:49Z</time>
      </trkpt>
      <trkpt lat="43.85072766803205" lon="5.497681321576238">
        <ele>334.60000610351562</ele>
        <time>2014-05-21T11:51:51Z</time>
      </trkpt>
      <trkpt lat="43.850718531757593" lon="5.49758417531848">
        <ele>334.60000610351562</ele>
        <time>2014-05-21T11:51:52Z</time>
      </trkpt>
      <trkpt lat="43.850682405754924" lon="5.496910018846393">
        <ele>334.79998779296875</ele>
        <time>2014-05-21T11:51:59Z</time>
      </trkpt>
      <trkpt lat="43.850663378834724" lon="5.496631236746907">
        <ele>335.39999389648437</ele>
        <time>2014-05-21T11:52:02Z</time>
      </trkpt>
      <trkpt lat="43.8506421726197" lon="5.496187582612038">
        <ele>335.60000610351562</ele>
        <time>2014-05-21T11:52:07Z</time>
      </trkpt>
      <trkpt lat="43.850599089637399" lon="5.495534045621753">
        <ele>335</ele>
        <time>2014-05-21T11:52:15Z</time>
      </trkpt>
      <trkpt lat="43.85055860504508" lon="5.495145125314593">
        <ele>334.79998779296875</ele>
        <time>2014-05-21T11:52:20Z</time>
      </trkpt>
      <trkpt lat="43.850524658337235" lon="5.494992909952998">
        <ele>335</ele>
        <time>2014-05-21T11:52:22Z</time>
      </trkpt>
      <trkpt lat="43.850392978638411" lon="5.494845220819116">
        <ele>334.79998779296875</ele>
        <time>2014-05-21T11:52:25Z</time>
      </trkpt>
      <trkpt lat="43.850330617278814" lon="5.494833486154676">
        <ele>334.39999389648437</ele>
        <time>2014-05-21T11:52:26Z</time>
      </trkpt>
      <trkpt lat="43.85020480491221" lon="5.494779674336314">
        <ele>332.60000610351562</ele>
        <time>2014-05-21T11:52:28Z</time>
      </trkpt>
      <trkpt lat="43.850142862647772" lon="5.494736507534981">
        <ele>331.60000610351562</ele>
        <time>2014-05-21T11:52:29Z</time>
      </trkpt>
      <trkpt lat="43.850076477974653" lon="5.494692837819457">
        <ele>330.60000610351562</ele>
        <time>2014-05-21T11:52:30Z</time>
      </trkpt>
      <trkpt lat="43.849945217370987" lon="5.494577586650848">
        <ele>331.20001220703125</ele>
        <time>2014-05-21T11:52:33Z</time>
      </trkpt>
      <trkpt lat="43.849940607324243" lon="5.494530061259866">
        <ele>331.79998779296875</ele>
        <time>2014-05-21T11:52:34Z</time>
      </trkpt>
      <trkpt lat="43.850003639236093" lon="5.49443936906755">
        <ele>331</ele>
        <time>2014-05-21T11:52:36Z</time>
      </trkpt>
      <trkpt lat="43.850035406649113" lon="5.494405925273895">
        <ele>331.20001220703125</ele>
        <time>2014-05-21T11:52:37Z</time>
      </trkpt>
      <trkpt lat="43.850182173773646" lon="5.494202580302954">
        <ele>332</ele>
        <time>2014-05-21T11:52:43Z</time>
      </trkpt>
      <trkpt lat="43.850331623107195" lon="5.493914829567075">
        <ele>331.79998779296875</ele>
        <time>2014-05-21T11:52:49Z</time>
      </trkpt>
      <trkpt lat="43.85033774189651" lon="5.493838554248214">
        <ele>331.60000610351562</ele>
        <time>2014-05-21T11:52:50Z</time>
      </trkpt>
      <trkpt lat="43.850349225103855" lon="5.493694972246885">
        <ele>330.60000610351562</ele>
        <time>2014-05-21T11:52:52Z</time>
      </trkpt>
      <trkpt lat="43.850339837372303" lon="5.493552731350064">
        <ele>329.60000610351562</ele>
        <time>2014-05-21T11:52:55Z</time>
      </trkpt>
      <trkpt lat="43.850315194576979" lon="5.493514509871602">
        <ele>329.60000610351562</ele>
        <time>2014-05-21T11:52:57Z</time>
      </trkpt>
      <trkpt lat="43.85030840523541" lon="5.49344846047461">
        <ele>329.79998779296875</ele>
        <time>2014-05-21T11:52:59Z</time>
      </trkpt>
      <trkpt lat="43.850309997797012" lon="5.493374280631542">
        <ele>329.60000610351562</ele>
        <time>2014-05-21T11:53:01Z</time>
      </trkpt>
      <trkpt lat="43.850320475175977" lon="5.493205385282636">
        <ele>329.20001220703125</ele>
        <time>2014-05-21T11:53:04Z</time>
      </trkpt>
      <trkpt lat="43.850309746339917" lon="5.493066245689988">
        <ele>328.60000610351562</ele>
        <time>2014-05-21T11:53:06Z</time>
      </trkpt>
      <trkpt lat="43.85029130615294" lon="5.492840856313705">
        <ele>328.60000610351562</ele>
        <time>2014-05-21T11:53:09Z</time>
      </trkpt>
      <trkpt lat="43.850263310596347" lon="5.492500383406878">
        <ele>327.20001220703125</ele>
        <time>2014-05-21T11:53:13Z</time>
      </trkpt>
      <trkpt lat="43.850248893722892" lon="5.492316400632262">
        <ele>326.60000610351562</ele>
        <time>2014-05-21T11:53:15Z</time>
      </trkpt>
      <trkpt lat="43.850236739963293" lon="5.492121186107397">
        <ele>325.79998779296875</ele>
        <time>2014-05-21T11:53:17Z</time>
      </trkpt>
      <trkpt lat="43.850192734971642" lon="5.491615338250995">
        <ele>325.60000610351562</ele>
        <time>2014-05-21T11:53:22Z</time>
      </trkpt>
      <trkpt lat="43.850158788263798" lon="5.491164224222302">
        <ele>327</ele>
        <time>2014-05-21T11:53:26Z</time>
      </trkpt>
      <trkpt lat="43.850146383047104" lon="5.490806065499783">
        <ele>325.79998779296875</ele>
        <time>2014-05-21T11:53:29Z</time>
      </trkpt>
      <trkpt lat="43.850146550685167" lon="5.490682935342193">
        <ele>325.60000610351562</ele>
        <time>2014-05-21T11:53:30Z</time>
      </trkpt>
      <trkpt lat="43.850196087732911" lon="5.490037528797984">
        <ele>324.60000610351562</ele>
        <time>2014-05-21T11:53:35Z</time>
      </trkpt>
      <trkpt lat="43.850211007520556" lon="5.489908615127206">
        <ele>324.20001220703125</ele>
        <time>2014-05-21T11:53:36Z</time>
      </trkpt>
      <trkpt lat="43.850354170426726" lon="5.48912356607616">
        <ele>323.20001220703125</ele>
        <time>2014-05-21T11:53:42Z</time>
      </trkpt>
      <trkpt lat="43.850513929501176" lon="5.488349832594395">
        <ele>322</ele>
        <time>2014-05-21T11:53:48Z</time>
      </trkpt>
      <trkpt lat="43.850566232576966" lon="5.488100051879883">
        <ele>321.79998779296875</ele>
        <time>2014-05-21T11:53:50Z</time>
      </trkpt>
      <trkpt lat="43.850622223690152" lon="5.487856809049845">
        <ele>320.79998779296875</ele>
        <time>2014-05-21T11:53:52Z</time>
      </trkpt>
      <trkpt lat="43.850747533142567" lon="5.487277368083596">
        <ele>321.20001220703125</ele>
        <time>2014-05-21T11:53:57Z</time>
      </trkpt>
      <trkpt lat="43.850814420729876" lon="5.486555937677622">
        <ele>320.20001220703125</ele>
        <time>2014-05-21T11:54:03Z</time>
      </trkpt>
      <trkpt lat="43.850817857310176" lon="5.486309928819537">
        <ele>319.60000610351562</ele>
        <time>2014-05-21T11:54:05Z</time>
      </trkpt>
      <trkpt lat="43.850785419344902" lon="5.485789328813553">
        <ele>319.20001220703125</ele>
        <time>2014-05-21T11:54:09Z</time>
      </trkpt>
      <trkpt lat="43.850664803758264" lon="5.485119530931115">
        <ele>320.60000610351562</ele>
        <time>2014-05-21T11:54:14Z</time>
      </trkpt>
      <trkpt lat="43.850512839853764" lon="5.484395753592253">
        <ele>319.79998779296875</ele>
        <time>2014-05-21T11:54:19Z</time>
      </trkpt>
      <trkpt lat="43.850480234250426" lon="5.484248315915465">
        <ele>318.39999389648437</ele>
        <time>2014-05-21T11:54:20Z</time>
      </trkpt>
      <trkpt lat="43.850447796285152" lon="5.484104482457042">
        <ele>317</ele>
        <time>2014-05-21T11:54:21Z</time>
      </trkpt>
      <trkpt lat="43.850327180698514" lon="5.483557479456067">
        <ele>318</ele>
        <time>2014-05-21T11:54:25Z</time>
      </trkpt>
      <trkpt lat="43.850277811288834" lon="5.483290934935212">
        <ele>316.39999389648438</ele>
        <time>2014-05-21T11:54:27Z</time>
      </trkpt>
      <trkpt lat="43.850252330303192" lon="5.483156824484468">
        <ele>316.60000610351562</ele>
        <time>2014-05-21T11:54:28Z</time>
      </trkpt>
      <trkpt lat="43.850199021399021" lon="5.482893800362945">
        <ele>317.79998779296875</ele>
        <time>2014-05-21T11:54:30Z</time>
      </trkpt>
      <trkpt lat="43.850086871534586" lon="5.482374541461468">
        <ele>319</ele>
        <time>2014-05-21T11:54:34Z</time>
      </trkpt>
      <trkpt lat="43.850063234567642" lon="5.482242358848453">
        <ele>320.60000610351562</ele>
        <time>2014-05-21T11:54:35Z</time>
      </trkpt>
      <trkpt lat="43.850033897906542" lon="5.481978915631771">
        <ele>320.39999389648437</ele>
        <time>2014-05-21T11:54:37Z</time>
      </trkpt>
      <trkpt lat="43.850024761632085" lon="5.481717148795724">
        <ele>319.60000610351562</ele>
        <time>2014-05-21T11:54:39Z</time>
      </trkpt>
      <trkpt lat="43.850034903734922" lon="5.481330323964357">
        <ele>319.20001220703125</ele>
        <time>2014-05-21T11:54:42Z</time>
      </trkpt>
      <trkpt lat="43.850127272307873" lon="5.480717523023486">
        <ele>321</ele>
        <time>2014-05-21T11:54:47Z</time>
      </trkpt>
      <trkpt lat="43.850360037758946" lon="5.480036744847894">
        <ele>321.60000610351562</ele>
        <time>2014-05-21T11:54:53Z</time>
      </trkpt>
      <trkpt lat="43.850689027458429" lon="5.479495022445917">
        <ele>320.60000610351562</ele>
        <time>2014-05-21T11:54:59Z</time>
      </trkpt>
      <trkpt lat="43.850750802084804" lon="5.479414639994502">
        <ele>320.20001220703125</ele>
        <time>2014-05-21T11:55:00Z</time>
      </trkpt>
      <trkpt lat="43.851006282493472" lon="5.479136696085334">
        <ele>321.39999389648437</ele>
        <time>2014-05-21T11:55:04Z</time>
      </trkpt>
      <trkpt lat="43.851470723748207" lon="5.478742327541113">
        <ele>321.20001220703125</ele>
        <time>2014-05-21T11:55:11Z</time>
      </trkpt>
      <trkpt lat="43.851742716506124" lon="5.478518446907401">
        <ele>319.79998779296875</ele>
        <time>2014-05-21T11:55:15Z</time>
      </trkpt>
      <trkpt lat="43.852007081732154" lon="5.478298086673021">
        <ele>320.79998779296875</ele>
        <time>2014-05-21T11:55:19Z</time>
      </trkpt>
      <trkpt lat="43.852071454748511" lon="5.478243017569184">
        <ele>320.60000610351562</ele>
        <time>2014-05-21T11:55:20Z</time>
      </trkpt>
      <trkpt lat="43.852328611537814" lon="5.478032128885388">
        <ele>319.79998779296875</ele>
        <time>2014-05-21T11:55:24Z</time>
      </trkpt>
      <trkpt lat="43.852575626224279" lon="5.477835657075048">
        <ele>320.39999389648437</ele>
        <time>2014-05-21T11:55:28Z</time>
      </trkpt>
      <trkpt lat="43.852633964270353" lon="5.477786706760526">
        <ele>321</ele>
        <time>2014-05-21T11:55:29Z</time>
      </trkpt>
      <trkpt lat="43.852996062487364" lon="5.477500464767218">
        <ele>321.20001220703125</ele>
        <time>2014-05-21T11:55:35Z</time>
      </trkpt>
      <trkpt lat="43.853462263941765" lon="5.47726065851748">
        <ele>320.39999389648437</ele>
        <time>2014-05-21T11:55:42Z</time>
      </trkpt>
      <trkpt lat="43.853601906448603" lon="5.477209277451038">
        <ele>319.60000610351562</ele>
        <time>2014-05-21T11:55:44Z</time>
      </trkpt>
      <trkpt lat="43.853808352723718" lon="5.477142557501793">
        <ele>318.20001220703125</ele>
        <time>2014-05-21T11:55:47Z</time>
      </trkpt>
      <trkpt lat="43.854014547541738" lon="5.477081788703799">
        <ele>317.79998779296875</ele>
        <time>2014-05-21T11:55:50Z</time>
      </trkpt>
      <trkpt lat="43.854541601613164" lon="5.476923706009984">
        <ele>318</ele>
        <time>2014-05-21T11:55:58Z</time>
      </trkpt>
      <trkpt lat="43.85488098487258" lon="5.476820021867752">
        <ele>317.79998779296875</ele>
        <time>2014-05-21T11:56:03Z</time>
      </trkpt>
      <trkpt lat="43.855083324015141" lon="5.476762605831027">
        <ele>317.20001220703125</ele>
        <time>2014-05-21T11:56:06Z</time>
      </trkpt>
      <trkpt lat="43.855547429993749" lon="5.476627238094807">
        <ele>317.60000610351562</ele>
        <time>2014-05-21T11:56:13Z</time>
      </trkpt>
      <trkpt lat="43.856035843491554" lon="5.476425988599658">
        <ele>317</ele>
        <time>2014-05-21T11:56:21Z</time>
      </trkpt>
      <trkpt lat="43.856389308348298" lon="5.476215099915862">
        <ele>316</ele>
        <time>2014-05-21T11:56:27Z</time>
      </trkpt>
      <trkpt lat="43.856730367988348" lon="5.475993230938911">
        <ele>315.79998779296875</ele>
        <time>2014-05-21T11:56:32Z</time>
      </trkpt>
      <trkpt lat="43.857093891128898" lon="5.475748814642429">
        <ele>314.79998779296875</ele>
        <time>2014-05-21T11:56:37Z</time>
      </trkpt>
      <trkpt lat="43.857167651876807" lon="5.475697098299861">
        <ele>315</ele>
        <time>2014-05-21T11:56:38Z</time>
      </trkpt>
      <trkpt lat="43.85768867097795" lon="5.47533743083477">
        <ele>314.20001220703125</ele>
        <time>2014-05-21T11:56:45Z</time>
      </trkpt>
      <trkpt lat="43.858081446960568" lon="5.474998215213418">
        <ele>314.20001220703125</ele>
        <time>2014-05-21T11:56:50Z</time>
      </trkpt>
      <trkpt lat="43.858351176604629" lon="5.4747056029737">
        <ele>314</ele>
        <time>2014-05-21T11:56:54Z</time>
      </trkpt>
      <trkpt lat="43.858394762501121" lon="5.474649779498577">
        <ele>314</ele>
        <time>2014-05-21T11:56:55Z</time>
      </trkpt>
      <trkpt lat="43.858445975929499" lon="5.474558584392071">
        <ele>313.79998779296875</ele>
        <time>2014-05-21T11:56:57Z</time>
      </trkpt>
      <trkpt lat="43.858481934294105" lon="5.474519859999418">
        <ele>313.39999389648438</ele>
        <time>2014-05-21T11:56:59Z</time>
      </trkpt>
      <trkpt lat="43.858498530462384" lon="5.474509717896581">
        <ele>313.20001220703125</ele>
        <time>2014-05-21T11:57:00Z</time>
      </trkpt>
      <trkpt lat="43.858553767204285" lon="5.474449032917619">
        <ele>313.20001220703125</ele>
        <time>2014-05-21T11:57:04Z</time>
      </trkpt>
      <trkpt lat="43.858573464676738" lon="5.474429922178388">
        <ele>313.60000610351562</ele>
        <time>2014-05-21T11:57:05Z</time>
      </trkpt>
      <trkpt lat="43.85872065089643" lon="5.474370159208775">
        <ele>313</ele>
        <time>2014-05-21T11:57:10Z</time>
      </trkpt>
      <trkpt lat="43.858747221529484" lon="5.474363872781396">
        <ele>312.79998779296875</ele>
        <time>2014-05-21T11:57:11Z</time>
      </trkpt>
      <trkpt lat="43.858766751363873" lon="5.474362196400762">
        <ele>312.79998779296875</ele>
        <time>2014-05-21T11:57:12Z</time>
      </trkpt>
      <trkpt lat="43.858788879588246" lon="5.474350629374385">
        <ele>312.79998779296875</ele>
        <time>2014-05-21T11:57:13Z</time>
      </trkpt>
      <trkpt lat="43.858879990875721" lon="5.474267983809114">
        <ele>312</ele>
        <time>2014-05-21T11:57:16Z</time>
      </trkpt>
      <trkpt lat="43.858914608135819" lon="5.474228421226144">
        <ele>311.60000610351562</ele>
        <time>2014-05-21T11:57:17Z</time>
      </trkpt>
      <trkpt lat="43.859062716364861" lon="5.474009150639176">
        <ele>311.60000610351562</ele>
        <time>2014-05-21T11:57:21Z</time>
      </trkpt>
      <trkpt lat="43.859094148501754" lon="5.473934886977077">
        <ele>311.20001220703125</ele>
        <time>2014-05-21T11:57:22Z</time>
      </trkpt>
      <trkpt lat="43.859172100201249" lon="5.473558120429516">
        <ele>311.60000610351562</ele>
        <time>2014-05-21T11:57:26Z</time>
      </trkpt>
      <trkpt lat="43.859182577580214" lon="5.473458962514997">
        <ele>311.60000610351562</ele>
        <time>2014-05-21T11:57:27Z</time>
      </trkpt>
      <trkpt lat="43.859212165698409" lon="5.473251845687628">
        <ele>310.79998779296875</ele>
        <time>2014-05-21T11:57:29Z</time>
      </trkpt>
      <trkpt lat="43.859238736331463" lon="5.473144138231874">
        <ele>310.60000610351562</ele>
        <time>2014-05-21T11:57:30Z</time>
      </trkpt>
      <trkpt lat="43.859274862334132" lon="5.473034670576453">
        <ele>310.60000610351562</ele>
        <time>2014-05-21T11:57:31Z</time>
      </trkpt>
      <trkpt lat="43.859541658312082" lon="5.472369063645601">
        <ele>310</ele>
        <time>2014-05-21T11:57:37Z</time>
      </trkpt>
      <trkpt lat="43.859589518979192" lon="5.472255907952786">
        <ele>310</ele>
        <time>2014-05-21T11:57:38Z</time>
      </trkpt>
      <trkpt lat="43.859682893380523" lon="5.47202842310071">
        <ele>308.79998779296875</ele>
        <time>2014-05-21T11:57:40Z</time>
      </trkpt>
      <trkpt lat="43.85986159555614" lon="5.471593905240297">
        <ele>309</ele>
        <time>2014-05-21T11:57:44Z</time>
      </trkpt>
      <trkpt lat="43.859988916665316" lon="5.471276398748159">
        <ele>310</ele>
        <time>2014-05-21T11:57:47Z</time>
      </trkpt>
      <trkpt lat="43.86025202460587" lon="5.470639877021313">
        <ele>309.20001220703125</ele>
        <time>2014-05-21T11:57:53Z</time>
      </trkpt>
      <trkpt lat="43.860528124496341" lon="5.470002517104149">
        <ele>310.39999389648437</ele>
        <time>2014-05-21T11:57:59Z</time>
      </trkpt>
      <trkpt lat="43.860625689849257" lon="5.469793807715178">
        <ele>308.79998779296875</ele>
        <time>2014-05-21T11:58:01Z</time>
      </trkpt>
      <trkpt lat="43.860912015661597" lon="5.469163237139583">
        <ele>308.20001220703125</ele>
        <time>2014-05-21T11:58:07Z</time>
      </trkpt>
      <trkpt lat="43.860962558537722" lon="5.469060558825731">
        <ele>307.79998779296875</ele>
        <time>2014-05-21T11:58:08Z</time>
      </trkpt>
      <trkpt lat="43.861305378377438" lon="5.468368548899889">
        <ele>307.79998779296875</ele>
        <time>2014-05-21T11:58:15Z</time>
      </trkpt>
      <trkpt lat="43.861352736130357" lon="5.468274336308241">
        <ele>307.79998779296875</ele>
        <time>2014-05-21T11:58:16Z</time>
      </trkpt>
      <trkpt lat="43.861392717808485" lon="5.468178782612085">
        <ele>307.79998779296875</ele>
        <time>2014-05-21T11:58:17Z</time>
      </trkpt>
      <trkpt lat="43.861467819660902" lon="5.467994464561343">
        <ele>308.60000610351562</ele>
        <time>2014-05-21T11:58:19Z</time>
      </trkpt>
      <trkpt lat="43.86150972917676" lon="5.467914836481214">
        <ele>309</ele>
        <time>2014-05-21T11:58:20Z</time>
      </trkpt>
      <trkpt lat="43.861700585111976" lon="5.467525916174054">
        <ele>310</ele>
        <time>2014-05-21T11:58:25Z</time>
      </trkpt>
      <trkpt lat="43.861781386658549" lon="5.46734151430428">
        <ele>311.20001220703125</ele>
        <time>2014-05-21T11:58:27Z</time>
      </trkpt>
      <trkpt lat="43.861931590363383" lon="5.467054350301623">
        <ele>311.20001220703125</ele>
        <time>2014-05-21T11:58:30Z</time>
      </trkpt>
      <trkpt lat="43.862119428813457" lon="5.466779423877597">
        <ele>310</ele>
        <time>2014-05-21T11:58:33Z</time>
      </trkpt>
      <trkpt lat="43.862251024693251" lon="5.466589154675603">
        <ele>308.79998779296875</ele>
        <time>2014-05-21T11:58:35Z</time>
      </trkpt>
      <trkpt lat="43.862316571176052" lon="5.466493517160416">
        <ele>307.79998779296875</ele>
        <time>2014-05-21T11:58:36Z</time>
      </trkpt>
      <trkpt lat="43.862383207306266" lon="5.466394945979118">
        <ele>307</ele>
        <time>2014-05-21T11:58:37Z</time>
      </trkpt>
      <trkpt lat="43.862806493416429" lon="5.465782564133406">
        <ele>306</ele>
        <time>2014-05-21T11:58:43Z</time>
      </trkpt>
      <trkpt lat="43.862881679087877" lon="5.465676113963127">
        <ele>305.79998779296875</ele>
        <time>2014-05-21T11:58:44Z</time>
      </trkpt>
      <trkpt lat="43.86325903236866" lon="5.46513095498085">
        <ele>305.20001220703125</ele>
        <time>2014-05-21T11:58:49Z</time>
      </trkpt>
      <trkpt lat="43.863337570801377" lon="5.465019978582859">
        <ele>304.79998779296875</ele>
        <time>2014-05-21T11:58:50Z</time>
      </trkpt>
      <trkpt lat="43.863415857776999" lon="5.464909672737122">
        <ele>303.60000610351562</ele>
        <time>2014-05-21T11:58:51Z</time>
      </trkpt>
      <trkpt lat="43.863494982942939" lon="5.464801043272018">
        <ele>303.20001220703125</ele>
        <time>2014-05-21T11:58:52Z</time>
      </trkpt>
      <trkpt lat="43.863810980692506" lon="5.464349091053009">
        <ele>304.79998779296875</ele>
        <time>2014-05-21T11:58:56Z</time>
      </trkpt>
      <trkpt lat="43.863897146657109" lon="5.464233253151178">
        <ele>304.79998779296875</ele>
        <time>2014-05-21T11:58:57Z</time>
      </trkpt>
      <trkpt lat="43.864256730303168" lon="5.463761184364557">
        <ele>303.39999389648437</ele>
        <time>2014-05-21T11:59:01Z</time>
      </trkpt>
      <trkpt lat="43.864447167143226" lon="5.463515846058726">
        <ele>302</ele>
        <time>2014-05-21T11:59:03Z</time>
      </trkpt>
      <trkpt lat="43.864542385563254" lon="5.46339338645339">
        <ele>301.20001220703125</ele>
        <time>2014-05-21T11:59:04Z</time>
      </trkpt>
      <trkpt lat="43.864637771621346" lon="5.463271848857403">
        <ele>300.39999389648437</ele>
        <time>2014-05-21T11:59:05Z</time>
      </trkpt>
      <trkpt lat="43.865121994167566" lon="5.462675811722875">
        <ele>299.79998779296875</ele>
        <time>2014-05-21T11:59:10Z</time>
      </trkpt>
      <trkpt lat="43.865314358845353" lon="5.462436005473137">
        <ele>299.39999389648438</ele>
        <time>2014-05-21T11:59:12Z</time>
      </trkpt>
      <trkpt lat="43.86578525416553" lon="5.46186008490622">
        <ele>298.20001220703125</ele>
        <time>2014-05-21T11:59:17Z</time>
      </trkpt>
      <trkpt lat="43.866069065406919" lon="5.461519779637456">
        <ele>298.79998779296875</ele>
        <time>2014-05-21T11:59:20Z</time>
      </trkpt>
      <trkpt lat="43.866522274911404" lon="5.460933549329639">
        <ele>297.60000610351562</ele>
        <time>2014-05-21T11:59:25Z</time>
      </trkpt>
      <trkpt lat="43.866703324019909" lon="5.460714362561703">
        <ele>297.20001220703125</ele>
        <time>2014-05-21T11:59:27Z</time>
      </trkpt>
      <trkpt lat="43.866790495812893" lon="5.460614282637835">
        <ele>297.20001220703125</ele>
        <time>2014-05-21T11:59:28Z</time>
      </trkpt>
      <trkpt lat="43.866998869925737" lon="5.460364250466228">
        <ele>297.20001220703125</ele>
        <time>2014-05-21T11:59:31Z</time>
      </trkpt>
      <trkpt lat="43.8670405279845" lon="5.460297865793109">
        <ele>297.39999389648437</ele>
        <time>2014-05-21T11:59:32Z</time>
      </trkpt>
      <trkpt lat="43.867066511884332" lon="5.460185129195452">
        <ele>298</ele>
        <time>2014-05-21T11:59:34Z</time>
      </trkpt>
      <trkpt lat="43.867054525762796" lon="5.460133664309979">
        <ele>298.60000610351562</ele>
        <time>2014-05-21T11:59:35Z</time>
      </trkpt>
      <trkpt lat="43.867039605975151" lon="5.460085803642869">
        <ele>299</ele>
        <time>2014-05-21T11:59:36Z</time>
      </trkpt>
      <trkpt lat="43.867018902674317" lon="5.460052192211151">
        <ele>299.60000610351562</ele>
        <time>2014-05-21T11:59:37Z</time>
      </trkpt>
      <trkpt lat="43.866993673145771" lon="5.460024951025844">
        <ele>299.39999389648438</ele>
        <time>2014-05-21T11:59:38Z</time>
      </trkpt>
      <trkpt lat="43.86689979583025" lon="5.459883883595467">
        <ele>299.39999389648438</ele>
        <time>2014-05-21T11:59:43Z</time>
      </trkpt>
      <trkpt lat="43.866898957639933" lon="5.45966561883688">
        <ele>300.20001220703125</ele>
        <time>2014-05-21T11:59:47Z</time>
      </trkpt>
      <trkpt lat="43.866884792223573" lon="5.459537208080292">
        <ele>300.60000610351562</ele>
        <time>2014-05-21T11:59:49Z</time>
      </trkpt>
      <trkpt lat="43.866838607937098" lon="5.459336964413524">
        <ele>300.20001220703125</ele>
        <time>2014-05-21T11:59:52Z</time>
      </trkpt>
      <trkpt lat="43.866775324568152" lon="5.459045525640249">
        <ele>300.39999389648437</ele>
        <time>2014-05-21T11:59:56Z</time>
      </trkpt>
      <trkpt lat="43.86677666567266" lon="5.458888448774815">
        <ele>300.20001220703125</ele>
        <time>2014-05-21T11:59:58Z</time>
      </trkpt>
      <trkpt lat="43.866829555481672" lon="5.45844990760088">
        <ele>300.39999389648437</ele>
        <time>2014-05-21T12:00:03Z</time>
      </trkpt>
      <trkpt lat="43.866901639848948" lon="5.458232900127769">
        <ele>298.60000610351562</ele>
        <time>2014-05-21T12:00:05Z</time>
      </trkpt>
      <trkpt lat="43.866996606811881" lon="5.458009606227279">
        <ele>296.79998779296875</ele>
        <time>2014-05-21T12:00:07Z</time>
      </trkpt>
      <trkpt lat="43.867313442751765" lon="5.457369731739163">
        <ele>296.20001220703125</ele>
        <time>2014-05-21T12:00:13Z</time>
      </trkpt>
      <trkpt lat="43.867375301197171" lon="5.457255737856031">
        <ele>295.79998779296875</ele>
        <time>2014-05-21T12:00:14Z</time>
      </trkpt>
      <trkpt lat="43.867778973653913" lon="5.456582922488451">
        <ele>294.79998779296875</ele>
        <time>2014-05-21T12:00:20Z</time>
      </trkpt>
      <trkpt lat="43.867919957265258" lon="5.456352671608329">
        <ele>293.60000610351562</ele>
        <time>2014-05-21T12:00:22Z</time>
      </trkpt>
      <trkpt lat="43.868138724938035" lon="5.456021334975958">
        <ele>294.20001220703125</ele>
        <time>2014-05-21T12:00:25Z</time>
      </trkpt>
      <trkpt lat="43.86822254396975" lon="5.455924272537231">
        <ele>294</ele>
        <time>2014-05-21T12:00:26Z</time>
      </trkpt>
      <trkpt lat="43.868500320240855" lon="5.455678515136242">
        <ele>293.79998779296875</ele>
        <time>2014-05-21T12:00:29Z</time>
      </trkpt>
      <trkpt lat="43.868595790117979" lon="5.455605089664459">
        <ele>294</ele>
        <time>2014-05-21T12:00:30Z</time>
      </trkpt>
      <trkpt lat="43.868773318827152" lon="5.455460418015719">
        <ele>294.60000610351562</ele>
        <time>2014-05-21T12:00:32Z</time>
      </trkpt>
      <trkpt lat="43.868835596367717" lon="5.455373832955957">
        <ele>295.39999389648437</ele>
        <time>2014-05-21T12:00:33Z</time>
      </trkpt>
      <trkpt lat="43.868882535025477" lon="5.455275513231754">
        <ele>296.39999389648438</ele>
        <time>2014-05-21T12:00:34Z</time>
      </trkpt>
      <trkpt lat="43.868959229439497" lon="5.455057667568326">
        <ele>298.39999389648437</ele>
        <time>2014-05-21T12:00:36Z</time>
      </trkpt>
      <trkpt lat="43.869120832532644" lon="5.454626586288214">
        <ele>298.20001220703125</ele>
        <time>2014-05-21T12:00:40Z</time>
      </trkpt>
      <trkpt lat="43.869203897193074" lon="5.454427348449826">
        <ele>297</ele>
        <time>2014-05-21T12:00:42Z</time>
      </trkpt>
      <trkpt lat="43.869434902444482" lon="5.453972462564707">
        <ele>297.60000610351562</ele>
        <time>2014-05-21T12:00:47Z</time>
      </trkpt>
      <trkpt lat="43.869632044807076" lon="5.453659985214472">
        <ele>297.20001220703125</ele>
        <time>2014-05-21T12:00:51Z</time>
      </trkpt>
      <trkpt lat="43.869679402559996" lon="5.453585973009467">
        <ele>297.60000610351562</ele>
        <time>2014-05-21T12:00:52Z</time>
      </trkpt>
      <trkpt lat="43.869779063388705" lon="5.453440463170409">
        <ele>298.39999389648437</ele>
        <time>2014-05-21T12:00:54Z</time>
      </trkpt>
      <trkpt lat="43.870033454149961" lon="5.453107114881277">
        <ele>298.79998779296875</ele>
        <time>2014-05-21T12:00:59Z</time>
      </trkpt>
      <trkpt lat="43.870084164664149" lon="5.453043580055237">
        <ele>299.39999389648438</ele>
        <time>2014-05-21T12:01:00Z</time>
      </trkpt>
      <trkpt lat="43.870364706963301" lon="5.452749207615852">
        <ele>298.79998779296875</ele>
        <time>2014-05-21T12:01:05Z</time>
      </trkpt>
      <trkpt lat="43.87042723596096" lon="5.452686510980129">
        <ele>297.79998779296875</ele>
        <time>2014-05-21T12:01:06Z</time>
      </trkpt>
      <trkpt lat="43.870732253417373" lon="5.452396078035235">
        <ele>297.60000610351562</ele>
        <time>2014-05-21T12:01:11Z</time>
      </trkpt>
      <trkpt lat="43.87087382376194" lon="5.452240509912372">
        <ele>298.79998779296875</ele>
        <time>2014-05-21T12:01:14Z</time>
      </trkpt>
      <trkpt lat="43.870945321395993" lon="5.452143782749772">
        <ele>298.79998779296875</ele>
        <time>2014-05-21T12:01:16Z</time>
      </trkpt>
      <trkpt lat="43.870968958362937" lon="5.451993579044938">
        <ele>299.79998779296875</ele>
        <time>2014-05-21T12:01:19Z</time>
      </trkpt>
      <trkpt lat="43.87097742408514" lon="5.451932977885008">
        <ele>300.20001220703125</ele>
        <time>2014-05-21T12:01:20Z</time>
      </trkpt>
      <trkpt lat="43.87102335691452" lon="5.451819989830256">
        <ele>300.20001220703125</ele>
        <time>2014-05-21T12:01:22Z</time>
      </trkpt>
      <trkpt lat="43.871155874803662" lon="5.451593426987529">
        <ele>299</ele>
        <time>2014-05-21T12:01:26Z</time>
      </trkpt>
      <trkpt lat="43.871235838159919" lon="5.45146694406867">
        <ele>298.39999389648437</ele>
        <time>2014-05-21T12:01:28Z</time>
      </trkpt>
      <trkpt lat="43.871361901983619" lon="5.451254798099399">
        <ele>298</ele>
        <time>2014-05-21T12:01:31Z</time>
      </trkpt>
      <trkpt lat="43.871543454006314" lon="5.450954893603921">
        <ele>297.20001220703125</ele>
        <time>2014-05-21T12:01:35Z</time>
      </trkpt>
      <trkpt lat="43.871589051559567" lon="5.450879205018282">
        <ele>297</ele>
        <time>2014-05-21T12:01:36Z</time>
      </trkpt>
      <trkpt lat="43.871933463960886" lon="5.450349133461714">
        <ele>296.20001220703125</ele>
        <time>2014-05-21T12:01:43Z</time>
      </trkpt>
      <trkpt lat="43.871985683217645" lon="5.450280401855707">
        <ele>295.60000610351562</ele>
        <time>2014-05-21T12:01:44Z</time>
      </trkpt>
      <trkpt lat="43.872205037623644" lon="5.449995920062065">
        <ele>294.79998779296875</ele>
        <time>2014-05-21T12:01:48Z</time>
      </trkpt>
      <trkpt lat="43.872268069535494" lon="5.44992727227509">
        <ele>294.60000610351562</ele>
        <time>2014-05-21T12:01:49Z</time>
      </trkpt>
      <trkpt lat="43.872404526919127" lon="5.449788719415665">
        <ele>293.60000610351562</ele>
        <time>2014-05-21T12:01:51Z</time>
      </trkpt>
      <trkpt lat="43.872538050636649" lon="5.449661482125521">
        <ele>293.60000610351562</ele>
        <time>2014-05-21T12:01:53Z</time>
      </trkpt>
      <trkpt lat="43.872965779155493" lon="5.449288235977292">
        <ele>293.79998779296875</ele>
        <time>2014-05-21T12:01:59Z</time>
      </trkpt>
      <trkpt lat="43.873124113306403" lon="5.449173236265779">
        <ele>292.20001220703125</ele>
        <time>2014-05-21T12:02:01Z</time>
      </trkpt>
      <trkpt lat="43.873453019186854" lon="5.448952205479145">
        <ele>292.60000610351562</ele>
        <time>2014-05-21T12:02:05Z</time>
      </trkpt>
      <trkpt lat="43.873971188440919" lon="5.448616007342935">
        <ele>291.60000610351562</ele>
        <time>2014-05-21T12:02:11Z</time>
      </trkpt>
      <trkpt lat="43.874055929481983" lon="5.448563285171986">
        <ele>291.60000610351562</ele>
        <time>2014-05-21T12:02:12Z</time>
      </trkpt>
      <trkpt lat="43.874606788158417" lon="5.448190290480852">
        <ele>292.60000610351562</ele>
        <time>2014-05-21T12:02:19Z</time>
      </trkpt>
      <trkpt lat="43.874835865572095" lon="5.448044445365667">
        <ele>293.20001220703125</ele>
        <time>2014-05-21T12:02:22Z</time>
      </trkpt>
      <trkpt lat="43.875150606036186" lon="5.447872364893556">
        <ele>293.20001220703125</ele>
        <time>2014-05-21T12:02:26Z</time>
      </trkpt>
      <trkpt lat="43.875607922673225" lon="5.447617806494236">
        <ele>294.20001220703125</ele>
        <time>2014-05-21T12:02:32Z</time>
      </trkpt>
      <trkpt lat="43.875682773068547" lon="5.447574891149998">
        <ele>294.79998779296875</ele>
        <time>2014-05-21T12:02:33Z</time>
      </trkpt>
      <trkpt lat="43.87610605917871" lon="5.447341874241829">
        <ele>294.20001220703125</ele>
        <time>2014-05-21T12:02:39Z</time>
      </trkpt>
      <trkpt lat="43.876491542905569" lon="5.447105001658201">
        <ele>294.79998779296875</ele>
        <time>2014-05-21T12:02:45Z</time>
      </trkpt>
      <trkpt lat="43.876726990565658" lon="5.44698178768158">
        <ele>293.79998779296875</ele>
        <time>2014-05-21T12:02:49Z</time>
      </trkpt>
      <trkpt lat="43.876783736050129" lon="5.446964353322983">
        <ele>293.79998779296875</ele>
        <time>2014-05-21T12:02:50Z</time>
      </trkpt>
      <trkpt lat="43.877082550898194" lon="5.446814401075244">
        <ele>293.60000610351562</ele>
        <time>2014-05-21T12:02:55Z</time>
      </trkpt>
      <trkpt lat="43.877363596111536" lon="5.446701161563397">
        <ele>294.20001220703125</ele>
        <time>2014-05-21T12:03:00Z</time>
      </trkpt>
      <trkpt lat="43.877645982429385" lon="5.446598818525672">
        <ele>292.79998779296875</ele>
        <time>2014-05-21T12:03:04Z</time>
      </trkpt>
      <trkpt lat="43.877788055688143" lon="5.446530925109983">
        <ele>292.39999389648437</ele>
        <time>2014-05-21T12:03:06Z</time>
      </trkpt>
      <trkpt lat="43.878051415085793" lon="5.446368819102645">
        <ele>291.79998779296875</ele>
        <time>2014-05-21T12:03:10Z</time>
      </trkpt>
      <trkpt lat="43.878174126148224" lon="5.446280892938376">
        <ele>291.60000610351562</ele>
        <time>2014-05-21T12:03:12Z</time>
      </trkpt>
      <trkpt lat="43.878506384789944" lon="5.446009570732713">
        <ele>291.39999389648437</ele>
        <time>2014-05-21T12:03:18Z</time>
      </trkpt>
      <trkpt lat="43.878579642623663" lon="5.445917285978794">
        <ele>292</ele>
        <time>2014-05-21T12:03:21Z</time>
      </trkpt>
      <trkpt lat="43.878658683970571" lon="5.445875795558095">
        <ele>292.79998779296875</ele>
        <time>2014-05-21T12:03:26Z</time>
      </trkpt>
      <trkpt lat="43.878673687577248" lon="5.445871101692319">
        <ele>292.79998779296875</ele>
        <time>2014-05-21T12:03:27Z</time>
      </trkpt>
      <trkpt lat="43.878783406689763" lon="5.445793149992824">
        <ele>293</ele>
        <time>2014-05-21T12:03:32Z</time>
      </trkpt>
      <trkpt lat="43.878916846588254" lon="5.445608915761113">
        <ele>292.39999389648437</ele>
        <time>2014-05-21T12:03:37Z</time>
      </trkpt>
      <trkpt lat="43.879083730280399" lon="5.445370869711042">
        <ele>291.79998779296875</ele>
        <time>2014-05-21T12:03:42Z</time>
      </trkpt>
      <trkpt lat="43.879117928445339" lon="5.445315381512046">
        <ele>291.60000610351562</ele>
        <time>2014-05-21T12:03:43Z</time>
      </trkpt>
      <trkpt lat="43.879152797162533" lon="5.44525402598083">
        <ele>291.60000610351562</ele>
        <time>2014-05-21T12:03:44Z</time>
      </trkpt>
      <trkpt lat="43.879272909834981" lon="5.445068450644612">
        <ele>290.79998779296875</ele>
        <time>2014-05-21T12:03:47Z</time>
      </trkpt>
      <trkpt lat="43.87935203500092" lon="5.444930484518409">
        <ele>289.79998779296875</ele>
        <time>2014-05-21T12:03:49Z</time>
      </trkpt>
      <trkpt lat="43.879394615069032" lon="5.444858819246292">
        <ele>289.60000610351562</ele>
        <time>2014-05-21T12:03:50Z</time>
      </trkpt>
      <trkpt lat="43.879622938111424" lon="5.444432180374861">
        <ele>289</ele>
        <time>2014-05-21T12:03:56Z</time>
      </trkpt>
      <trkpt lat="43.879639450460672" lon="5.444378117099404">
        <ele>289</ele>
        <time>2014-05-21T12:03:57Z</time>
      </trkpt>
      <trkpt lat="43.879685550928116" lon="5.444308966398239">
        <ele>289.60000610351562</ele>
        <time>2014-05-21T12:04:00Z</time>
      </trkpt>
      <trkpt lat="43.879728214815259" lon="5.444208802655339">
        <ele>289.60000610351562</ele>
        <time>2014-05-21T12:04:04Z</time>
      </trkpt>
      <trkpt lat="43.879814045503736" lon="5.44400604441762">
        <ele>289.39999389648437</ele>
        <time>2014-05-21T12:04:09Z</time>
      </trkpt>
      <trkpt lat="43.879933236166835" lon="5.443648220971227">
        <ele>289.20001220703125</ele>
        <time>2014-05-21T12:04:15Z</time>
      </trkpt>
      <trkpt lat="43.880059886723757" lon="5.443123765289784">
        <ele>289</ele>
        <time>2014-05-21T12:04:22Z</time>
      </trkpt>
      <trkpt lat="43.880098862573504" lon="5.442958306521177">
        <ele>289</ele>
        <time>2014-05-21T12:04:24Z</time>
      </trkpt>
      <trkpt lat="43.88013775460422" lon="5.442612720653415">
        <ele>288.60000610351562</ele>
        <time>2014-05-21T12:04:28Z</time>
      </trkpt>
      <trkpt lat="43.880167426541448" lon="5.442321784794331">
        <ele>288.79998779296875</ele>
        <time>2014-05-21T12:04:32Z</time>
      </trkpt>
      <trkpt lat="43.880170360207558" lon="5.44226361438632">
        <ele>288.60000610351562</ele>
        <time>2014-05-21T12:04:33Z</time>
      </trkpt>
      <trkpt lat="43.880202043801546" lon="5.442012995481491">
        <ele>289.20001220703125</ele>
        <time>2014-05-21T12:04:37Z</time>
      </trkpt>
      <trkpt lat="43.880206402391195" lon="5.441940324380994">
        <ele>289</ele>
        <time>2014-05-21T12:04:38Z</time>
      </trkpt>
      <trkpt lat="43.880207743495703" lon="5.441784337162972">
        <ele>288.39999389648437</ele>
        <time>2014-05-21T12:04:40Z</time>
      </trkpt>
      <trkpt lat="43.880197685211897" lon="5.441353842616081">
        <ele>287.60000610351562</ele>
        <time>2014-05-21T12:04:45Z</time>
      </trkpt>
      <trkpt lat="43.880184944719076" lon="5.440985625609756">
        <ele>287.20001220703125</ele>
        <time>2014-05-21T12:04:49Z</time>
      </trkpt>
      <trkpt lat="43.880178155377507" lon="5.440702987834811">
        <ele>287</ele>
        <time>2014-05-21T12:04:52Z</time>
      </trkpt>
      <trkpt lat="43.880171198397875" lon="5.440312223508954">
        <ele>286.20001220703125</ele>
        <time>2014-05-21T12:04:56Z</time>
      </trkpt>
      <trkpt lat="43.880159882828593" lon="5.4400266520679">
        <ele>286.20001220703125</ele>
        <time>2014-05-21T12:04:59Z</time>
      </trkpt>
      <trkpt lat="43.880133898928761" lon="5.439464980736375">
        <ele>285.79998779296875</ele>
        <time>2014-05-21T12:05:05Z</time>
      </trkpt>
      <trkpt lat="43.880122248083353" lon="5.438712788745761">
        <ele>286.39999389648437</ele>
        <time>2014-05-21T12:05:13Z</time>
      </trkpt>
      <trkpt lat="43.88010305352509" lon="5.437952047213912">
        <ele>286</ele>
        <time>2014-05-21T12:05:21Z</time>
      </trkpt>
      <trkpt lat="43.880101963877678" lon="5.437858505174518">
        <ele>286.20001220703125</ele>
        <time>2014-05-21T12:05:22Z</time>
      </trkpt>
      <trkpt lat="43.880083272233605" lon="5.437261126935482">
        <ele>285.20001220703125</ele>
        <time>2014-05-21T12:05:28Z</time>
      </trkpt>
      <trkpt lat="43.880079835653305" lon="5.437158029526472">
        <ele>284.79998779296875</ele>
        <time>2014-05-21T12:05:29Z</time>
      </trkpt>
      <trkpt lat="43.880071537569165" lon="5.43673281557858">
        <ele>284.60000610351562</ele>
        <time>2014-05-21T12:05:33Z</time>
      </trkpt>
      <trkpt lat="43.880068436264992" lon="5.436622258275747">
        <ele>284</ele>
        <time>2014-05-21T12:05:34Z</time>
      </trkpt>
      <trkpt lat="43.880060976371169" lon="5.436286395415664">
        <ele>283.60000610351562</ele>
        <time>2014-05-21T12:05:37Z</time>
      </trkpt>
      <trkpt lat="43.880056953057647" lon="5.436061006039381">
        <ele>283</ele>
        <time>2014-05-21T12:05:39Z</time>
      </trkpt>
      <trkpt lat="43.88004002161324" lon="5.43535977602005">
        <ele>282.79998779296875</ele>
        <time>2014-05-21T12:05:45Z</time>
      </trkpt>
      <trkpt lat="43.880029292777181" lon="5.434989798814058">
        <ele>282</ele>
        <time>2014-05-21T12:05:48Z</time>
      </trkpt>
      <trkpt lat="43.880017809569836" lon="5.434731720015407">
        <ele>280.79998779296875</ele>
        <time>2014-05-21T12:05:50Z</time>
      </trkpt>
      <trkpt lat="43.880009427666664" lon="5.434467941522598">
        <ele>280</ele>
        <time>2014-05-21T12:05:52Z</time>
      </trkpt>
      <trkpt lat="43.880006158724427" lon="5.434333831071854">
        <ele>279.79998779296875</ele>
        <time>2014-05-21T12:05:53Z</time>
      </trkpt>
      <trkpt lat="43.879987802356482" lon="5.433505950495601">
        <ele>279.39999389648438</ele>
        <time>2014-05-21T12:05:59Z</time>
      </trkpt>
      <trkpt lat="43.879984868690372" lon="5.433364883065224">
        <ele>279.60000610351562</ele>
        <time>2014-05-21T12:06:00Z</time>
      </trkpt>
      <trkpt lat="43.879963913932443" lon="5.432539097964764">
        <ele>278.79998779296875</ele>
        <time>2014-05-21T12:06:06Z</time>
      </trkpt>
      <trkpt lat="43.879962069913745" lon="5.43240406550467">
        <ele>278.60000610351562</ele>
        <time>2014-05-21T12:06:07Z</time>
      </trkpt>
      <trkpt lat="43.879961566999555" lon="5.432271547615528">
        <ele>278.60000610351562</ele>
        <time>2014-05-21T12:06:08Z</time>
      </trkpt>
      <trkpt lat="43.879944970831275" lon="5.431733764708042">
        <ele>279.79998779296875</ele>
        <time>2014-05-21T12:06:12Z</time>
      </trkpt>
      <trkpt lat="43.879925943911076" lon="5.431205788627267">
        <ele>278.79998779296875</ele>
        <time>2014-05-21T12:06:16Z</time>
      </trkpt>
      <trkpt lat="43.879925524815917" lon="5.431077713146806">
        <ele>278.60000610351562</ele>
        <time>2014-05-21T12:06:17Z</time>
      </trkpt>
      <trkpt lat="43.879909683018923" lon="5.430776048451662">
        <ele>278.20001220703125</ele>
        <time>2014-05-21T12:06:20Z</time>
      </trkpt>
      <trkpt lat="43.879897026345134" lon="5.430640010163188">
        <ele>279.79998779296875</ele>
        <time>2014-05-21T12:06:23Z</time>
      </trkpt>
      <trkpt lat="43.879875149577856" lon="5.430412022396922">
        <ele>279.39999389648438</ele>
        <time>2014-05-21T12:06:27Z</time>
      </trkpt>
      <trkpt lat="43.879859894514084" lon="5.430254861712456">
        <ele>278.20001220703125</ele>
        <time>2014-05-21T12:06:29Z</time>
      </trkpt>
      <trkpt lat="43.879834832623601" lon="5.429987395182252">
        <ele>278</ele>
        <time>2014-05-21T12:06:32Z</time>
      </trkpt>
      <trkpt lat="43.879770962521434" lon="5.429350202903152">
        <ele>278.60000610351562</ele>
        <time>2014-05-21T12:06:38Z</time>
      </trkpt>
      <trkpt lat="43.879668619483709" lon="5.428636986762285">
        <ele>279.39999389648438</ele>
        <time>2014-05-21T12:06:44Z</time>
      </trkpt>
      <trkpt lat="43.87953132390976" lon="5.428132060915232">
        <ele>278</ele>
        <time>2014-05-21T12:06:48Z</time>
      </trkpt>
      <trkpt lat="43.879486480727792" lon="5.428010020405054">
        <ele>277.60000610351562</ele>
        <time>2014-05-21T12:06:49Z</time>
      </trkpt>
      <trkpt lat="43.879197807982564" lon="5.427305856719613">
        <ele>276.79998779296875</ele>
        <time>2014-05-21T12:06:55Z</time>
      </trkpt>
      <trkpt lat="43.879148606210947" lon="5.427190437912941">
        <ele>276.79998779296875</ele>
        <time>2014-05-21T12:06:56Z</time>
      </trkpt>
      <trkpt lat="43.878868818283081" lon="5.42654100805521">
        <ele>276.39999389648438</ele>
        <time>2014-05-21T12:07:02Z</time>
      </trkpt>
      <trkpt lat="43.878789776936173" lon="5.426347302272916">
        <ele>275.39999389648437</ele>
        <time>2014-05-21T12:07:04Z</time>
      </trkpt>
      <trkpt lat="43.878657342866063" lon="5.425975313410163">
        <ele>276.20001220703125</ele>
        <time>2014-05-21T12:07:08Z</time>
      </trkpt>
      <trkpt lat="43.878607219085097" lon="5.425784457474947">
        <ele>276.60000610351562</ele>
        <time>2014-05-21T12:07:10Z</time>
      </trkpt>
      <trkpt lat="43.878527591004968" lon="5.425400566309691">
        <ele>277</ele>
        <time>2014-05-21T12:07:14Z</time>
      </trkpt>
      <trkpt lat="43.878463720902801" lon="5.424841409549117">
        <ele>277.60000610351562</ele>
        <time>2014-05-21T12:07:20Z</time>
      </trkpt>
      <trkpt lat="43.878463301807642" lon="5.424744682386518">
        <ele>277.60000610351562</ele>
        <time>2014-05-21T12:07:21Z</time>
      </trkpt>
      <trkpt lat="43.87848224490881" lon="5.424271104857326">
        <ele>277.60000610351562</ele>
        <time>2014-05-21T12:07:26Z</time>
      </trkpt>
      <trkpt lat="43.878545025363564" lon="5.423638354986906">
        <ele>278.39999389648437</ele>
        <time>2014-05-21T12:07:33Z</time>
      </trkpt>
      <trkpt lat="43.878571931272745" lon="5.423385892063379">
        <ele>278.79998779296875</ele>
        <time>2014-05-21T12:07:36Z</time>
      </trkpt>
      <trkpt lat="43.878606548532844" lon="5.423086155205965">
        <ele>279.39999389648438</ele>
        <time>2014-05-21T12:07:40Z</time>
      </trkpt>
      <trkpt lat="43.87862540781498" lon="5.422874176874757">
        <ele>279.79998779296875</ele>
        <time>2014-05-21T12:07:44Z</time>
      </trkpt>
      <trkpt lat="43.878625826910138" lon="5.422833608463407">
        <ele>280.20001220703125</ele>
        <time>2014-05-21T12:07:45Z</time>
      </trkpt>
      <trkpt lat="43.878650721162558" lon="5.422603692859411">
        <ele>280.20001220703125</ele>
        <time>2014-05-21T12:07:50Z</time>
      </trkpt>
      <trkpt lat="43.878656504675746" lon="5.422552982345223">
        <ele>280</ele>
        <time>2014-05-21T12:07:51Z</time>
      </trkpt>
      <trkpt lat="43.87866991572082" lon="5.422187866643071">
        <ele>278.79998779296875</ele>
        <time>2014-05-21T12:07:57Z</time>
      </trkpt>
      <trkpt lat="43.878668826073408" lon="5.422116871923208">
        <ele>278.60000610351562</ele>
        <time>2014-05-21T12:07:58Z</time>
      </trkpt>
      <trkpt lat="43.878657761961222" lon="5.42189659550786">
        <ele>278</ele>
        <time>2014-05-21T12:08:01Z</time>
      </trkpt>
      <trkpt lat="43.87862004339695" lon="5.421424442902207">
        <ele>278.60000610351562</ele>
        <time>2014-05-21T12:08:07Z</time>
      </trkpt>
      <trkpt lat="43.878543013706803" lon="5.420896299183369">
        <ele>277.39999389648437</ele>
        <time>2014-05-21T12:08:13Z</time>
      </trkpt>
      <trkpt lat="43.878515353426337" lon="5.420728242024779">
        <ele>277.20001220703125</ele>
        <time>2014-05-21T12:08:15Z</time>
      </trkpt>
      <trkpt lat="43.87842901982367" lon="5.420186603441834">
        <ele>277.20001220703125</ele>
        <time>2014-05-21T12:08:22Z</time>
      </trkpt>
      <trkpt lat="43.878393732011318" lon="5.419969093054533">
        <ele>278.60000610351562</ele>
        <time>2014-05-21T12:08:26Z</time>
      </trkpt>
      <trkpt lat="43.878389373421669" lon="5.419915532693267">
        <ele>278.60000610351562</ele>
        <time>2014-05-21T12:08:27Z</time>
      </trkpt>
      <trkpt lat="43.878372441977262" lon="5.419797599315643">
        <ele>277.39999389648437</ele>
        <time>2014-05-21T12:08:29Z</time>
      </trkpt>
      <trkpt lat="43.878340926021338" lon="5.419518817216158">
        <ele>276.79998779296875</ele>
        <time>2014-05-21T12:08:33Z</time>
      </trkpt>
      <trkpt lat="43.878287365660071" lon="5.418961420655251">
        <ele>277.20001220703125</ele>
        <time>2014-05-21T12:08:40Z</time>
      </trkpt>
      <trkpt lat="43.878246545791626" lon="5.418371083214879">
        <ele>276.79998779296875</ele>
        <time>2014-05-21T12:08:47Z</time>
      </trkpt>
      <trkpt lat="43.878242019563913" lon="5.418284330517054">
        <ele>276.60000610351562</ele>
        <time>2014-05-21T12:08:48Z</time>
      </trkpt>
      <trkpt lat="43.878236655145884" lon="5.418203361332417">
        <ele>276.20001220703125</ele>
        <time>2014-05-21T12:08:49Z</time>
      </trkpt>
      <trkpt lat="43.878216538578272" lon="5.418003704398871">
        <ele>275.60000610351562</ele>
        <time>2014-05-21T12:08:52Z</time>
      </trkpt>
      <trkpt lat="43.878197846934199" lon="5.417831791564822">
        <ele>275.20001220703125</ele>
        <time>2014-05-21T12:08:55Z</time>
      </trkpt>
      <trkpt lat="43.878181334584951" lon="5.417736740782857">
        <ele>274.79998779296875</ele>
        <time>2014-05-21T12:08:57Z</time>
      </trkpt>
      <trkpt lat="43.878188626840711" lon="5.417708493769169">
        <ele>274.79998779296875</ele>
        <time>2014-05-21T12:08:58Z</time>
      </trkpt>
      <trkpt lat="43.878192901611328" lon="5.417660297825933">
        <ele>275.39999389648437</ele>
        <time>2014-05-21T12:09:00Z</time>
      </trkpt>
      <trkpt lat="43.878184771165252" lon="5.417566755786538">
        <ele>276</ele>
        <time>2014-05-21T12:09:03Z</time>
      </trkpt>
      <trkpt lat="43.878174796700478" lon="5.417455611750484">
        <ele>275.79998779296875</ele>
        <time>2014-05-21T12:09:05Z</time>
      </trkpt>
      <trkpt lat="43.878157446160913" lon="5.417142631486058">
        <ele>274.60000610351562</ele>
        <time>2014-05-21T12:09:09Z</time>
      </trkpt>
      <trkpt lat="43.878153590485454" lon="5.417057303711772">
        <ele>274.39999389648437</ele>
        <time>2014-05-21T12:09:10Z</time>
      </trkpt>
      <trkpt lat="43.878135653212667" lon="5.416890922933817">
        <ele>274.79998779296875</ele>
        <time>2014-05-21T12:09:12Z</time>
      </trkpt>
      <trkpt lat="43.878114530816674" lon="5.416636280715466">
        <ele>274.39999389648437</ele>
        <time>2014-05-21T12:09:15Z</time>
      </trkpt>
      <trkpt lat="43.87808645144105" lon="5.416186172515154">
        <ele>274</ele>
        <time>2014-05-21T12:09:20Z</time>
      </trkpt>
      <trkpt lat="43.878052504733205" lon="5.415903031826019">
        <ele>273.20001220703125</ele>
        <time>2014-05-21T12:09:23Z</time>
      </trkpt>
      <trkpt lat="43.878043200820684" lon="5.41580974124372">
        <ele>272.79998779296875</ele>
        <time>2014-05-21T12:09:24Z</time>
      </trkpt>
      <trkpt lat="43.878002297133207" lon="5.415349993854761">
        <ele>272.39999389648437</ele>
        <time>2014-05-21T12:09:30Z</time>
      </trkpt>
      <trkpt lat="43.878011014312506" lon="5.415323423221707">
        <ele>272.79998779296875</ele>
        <time>2014-05-21T12:09:31Z</time>
      </trkpt>
      <trkpt lat="43.878012439236045" lon="5.415257625281811">
        <ele>273</ele>
        <time>2014-05-21T12:09:33Z</time>
      </trkpt>
      <trkpt lat="43.87799559161067" lon="5.415180595591664">
        <ele>272.79998779296875</ele>
        <time>2014-05-21T12:09:35Z</time>
      </trkpt>
      <trkpt lat="43.877975894138217" lon="5.415005078539252">
        <ele>272.39999389648437</ele>
        <time>2014-05-21T12:09:39Z</time>
      </trkpt>
      <trkpt lat="43.877951754257083" lon="5.414679693058133">
        <ele>272.20001220703125</ele>
        <time>2014-05-21T12:09:45Z</time>
      </trkpt>
      <trkpt lat="43.877923088148236" lon="5.414247857406735">
        <ele>273</ele>
        <time>2014-05-21T12:09:52Z</time>
      </trkpt>
      <trkpt lat="43.877896517515182" lon="5.413821050897241">
        <ele>273.60000610351562</ele>
        <time>2014-05-21T12:09:59Z</time>
      </trkpt>
      <trkpt lat="43.877890566363931" lon="5.413750559091568">
        <ele>273.79998779296875</ele>
        <time>2014-05-21T12:10:00Z</time>
      </trkpt>
      <trkpt lat="43.877854272723198" lon="5.413245046511293">
        <ele>273.20001220703125</ele>
        <time>2014-05-21T12:10:07Z</time>
      </trkpt>
      <trkpt lat="43.877828624099493" lon="5.412944555282593">
        <ele>272.60000610351562</ele>
        <time>2014-05-21T12:10:11Z</time>
      </trkpt>
      <trkpt lat="43.877805573865771" lon="5.412642722949386">
        <ele>272.60000610351562</ele>
        <time>2014-05-21T12:10:15Z</time>
      </trkpt>
      <trkpt lat="43.877742374315858" lon="5.411981558427215">
        <ele>272.79998779296875</ele>
        <time>2014-05-21T12:10:23Z</time>
      </trkpt>
      <trkpt lat="43.877625279128551" lon="5.411281082779169">
        <ele>272.79998779296875</ele>
        <time>2014-05-21T12:10:31Z</time>
      </trkpt>
      <trkpt lat="43.877577669918537" lon="5.410835668444634">
        <ele>273</ele>
        <time>2014-05-21T12:10:36Z</time>
      </trkpt>
      <trkpt lat="43.877524361014366" lon="5.410470301285386">
        <ele>273.60000610351562</ele>
        <time>2014-05-21T12:10:40Z</time>
      </trkpt>
      <trkpt lat="43.877448672428727" lon="5.410003513097763">
        <ele>273.39999389648437</ele>
        <time>2014-05-21T12:10:45Z</time>
      </trkpt>
      <trkpt lat="43.877396369352937" lon="5.409660609439015">
        <ele>273.39999389648437</ele>
        <time>2014-05-21T12:10:49Z</time>
      </trkpt>
      <trkpt lat="43.877335265278816" lon="5.40912726894021">
        <ele>273.60000610351562</ele>
        <time>2014-05-21T12:10:55Z</time>
      </trkpt>
      <trkpt lat="43.877256140112877" lon="5.408588480204344">
        <ele>272.60000610351562</ele>
        <time>2014-05-21T12:11:01Z</time>
      </trkpt>
      <trkpt lat="43.877153964713216" lon="5.40785095654428">
        <ele>272.39999389648437</ele>
        <time>2014-05-21T12:11:09Z</time>
      </trkpt>
      <trkpt lat="43.877145415171981" lon="5.407758001238108">
        <ele>272.20001220703125</ele>
        <time>2014-05-21T12:11:10Z</time>
      </trkpt>
      <trkpt lat="43.877114821225405" lon="5.40710236877203">
        <ele>272.60000610351562</ele>
        <time>2014-05-21T12:11:17Z</time>
      </trkpt>
      <trkpt lat="43.87712043710053" lon="5.407011173665524">
        <ele>272.39999389648437</ele>
        <time>2014-05-21T12:11:18Z</time>
      </trkpt>
      <trkpt lat="43.877157736569643" lon="5.406653601676226">
        <ele>272</ele>
        <time>2014-05-21T12:11:22Z</time>
      </trkpt>
      <trkpt lat="43.877172572538257" lon="5.406572464853525">
        <ele>272.20001220703125</ele>
        <time>2014-05-21T12:11:23Z</time>
      </trkpt>
      <trkpt lat="43.877226049080491" lon="5.406274488195777">
        <ele>272.39999389648437</ele>
        <time>2014-05-21T12:11:27Z</time>
      </trkpt>
      <trkpt lat="43.877231832593679" lon="5.406095115467906">
        <ele>272.60000610351562</ele>
        <time>2014-05-21T12:11:31Z</time>
      </trkpt>
      <trkpt lat="43.877275167033076" lon="5.405822116881609">
        <ele>271.60000610351562</ele>
        <time>2014-05-21T12:11:36Z</time>
      </trkpt>
      <trkpt lat="43.877284219488502" lon="5.405757492408156">
        <ele>271.39999389648437</ele>
        <time>2014-05-21T12:11:37Z</time>
      </trkpt>
      <trkpt lat="43.877317076548934" lon="5.405553728342056">
        <ele>271.39999389648437</ele>
        <time>2014-05-21T12:11:40Z</time>
      </trkpt>
      <trkpt lat="43.877345407381654" lon="5.405339235439897">
        <ele>271.39999389648437</ele>
        <time>2014-05-21T12:11:43Z</time>
      </trkpt>
      <trkpt lat="43.877431992441416" lon="5.404582768678665">
        <ele>270.39999389648437</ele>
        <time>2014-05-21T12:11:53Z</time>
      </trkpt>
      <trkpt lat="43.877469040453434" lon="5.404005087912083">
        <ele>270.60000610351562</ele>
        <time>2014-05-21T12:12:00Z</time>
      </trkpt>
      <trkpt lat="43.877442302182317" lon="5.403284998610616">
        <ele>271.39999389648437</ele>
        <time>2014-05-21T12:12:09Z</time>
      </trkpt>
      <trkpt lat="43.877439284697175" lon="5.403207130730152">
        <ele>271.79998779296875</ele>
        <time>2014-05-21T12:12:10Z</time>
      </trkpt>
      <trkpt lat="43.87742537073791" lon="5.402826759964228">
        <ele>272.79998779296875</ele>
        <time>2014-05-21T12:12:15Z</time>
      </trkpt>
      <trkpt lat="43.87739896774292" lon="5.402220748364925">
        <ele>273.60000610351562</ele>
        <time>2014-05-21T12:12:23Z</time>
      </trkpt>
      <trkpt lat="43.87739360332489" lon="5.402089571580291">
        <ele>274.20001220703125</ele>
        <time>2014-05-21T12:12:25Z</time>
      </trkpt>
      <trkpt lat="43.87738186866045" lon="5.401810789480805">
        <ele>274.60000610351562</ele>
        <time>2014-05-21T12:12:29Z</time>
      </trkpt>
      <trkpt lat="43.877378180623055" lon="5.401420779526234">
        <ele>274.60000610351562</ele>
        <time>2014-05-21T12:12:34Z</time>
      </trkpt>
      <trkpt lat="43.877370553091168" lon="5.40127107873559">
        <ele>275.39999389648437</ele>
        <time>2014-05-21T12:12:36Z</time>
      </trkpt>
      <trkpt lat="43.877336774021387" lon="5.400750646367669">
        <ele>275.60000610351562</ele>
        <time>2014-05-21T12:12:43Z</time>
      </trkpt>
      <trkpt lat="43.877328475937247" lon="5.400526933372021">
        <ele>276.60000610351562</ele>
        <time>2014-05-21T12:12:46Z</time>
      </trkpt>
      <trkpt lat="43.877338701859117" lon="5.400216551497579">
        <ele>277.60000610351562</ele>
        <time>2014-05-21T12:12:50Z</time>
      </trkpt>
      <trkpt lat="43.877343479543924" lon="5.400137007236481">
        <ele>278</ele>
        <time>2014-05-21T12:12:51Z</time>
      </trkpt>
      <trkpt lat="43.877384886145592" lon="5.399724617600441">
        <ele>278.79998779296875</ele>
        <time>2014-05-21T12:12:56Z</time>
      </trkpt>
      <trkpt lat="43.877427885308862" lon="5.399473663419485">
        <ele>279</ele>
        <time>2014-05-21T12:12:59Z</time>
      </trkpt>
      <trkpt lat="43.877457808703184" lon="5.399306612089276">
        <ele>280.20001220703125</ele>
        <time>2014-05-21T12:13:01Z</time>
      </trkpt>
      <trkpt lat="43.877567779272795" lon="5.398735385388136">
        <ele>280</ele>
        <time>2014-05-21T12:13:08Z</time>
      </trkpt>
      <trkpt lat="43.877608012408018" lon="5.398504212498665">
        <ele>280.39999389648437</ele>
        <time>2014-05-21T12:13:11Z</time>
      </trkpt>
      <trkpt lat="43.877635253593326" lon="5.398348812013865">
        <ele>281.39999389648437</ele>
        <time>2014-05-21T12:13:13Z</time>
      </trkpt>
      <trkpt lat="43.877719407901168" lon="5.39794011041522">
        <ele>281.60000610351562</ele>
        <time>2014-05-21T12:13:18Z</time>
      </trkpt>
      <trkpt lat="43.877733154222369" lon="5.397857716307044">
        <ele>281.60000610351562</ele>
        <time>2014-05-21T12:13:19Z</time>
      </trkpt>
      <trkpt lat="43.8777781650424" lon="5.397627465426922">
        <ele>280.39999389648437</ele>
        <time>2014-05-21T12:13:22Z</time>
      </trkpt>
      <trkpt lat="43.877813033759594" lon="5.397412301972508">
        <ele>280.20001220703125</ele>
        <time>2014-05-21T12:13:25Z</time>
      </trkpt>
      <trkpt lat="43.877837676554918" lon="5.397283220663667">
        <ele>280.20001220703125</ele>
        <time>2014-05-21T12:13:27Z</time>
      </trkpt>
      <trkpt lat="43.877883860841393" lon="5.397052718326449">
        <ele>281.20001220703125</ele>
        <time>2014-05-21T12:13:31Z</time>
      </trkpt>
      <trkpt lat="43.877899535000324" lon="5.396948279812932">
        <ele>281.39999389648437</ele>
        <time>2014-05-21T12:13:33Z</time>
      </trkpt>
      <trkpt lat="43.877935661002994" lon="5.396772008389235">
        <ele>281</ele>
        <time>2014-05-21T12:13:36Z</time>
      </trkpt>
      <trkpt lat="43.878006739541888" lon="5.396470678970218">
        <ele>280.60000610351562</ele>
        <time>2014-05-21T12:13:41Z</time>
      </trkpt>
      <trkpt lat="43.878022665157914" lon="5.396408401429653">
        <ele>280.39999389648437</ele>
        <time>2014-05-21T12:13:42Z</time>
      </trkpt>
      <trkpt lat="43.878061305731535" lon="5.396180748939514">
        <ele>280.60000610351562</ele>
        <time>2014-05-21T12:13:46Z</time>
      </trkpt>
      <trkpt lat="43.878063149750233" lon="5.396136827766895">
        <ele>280.60000610351562</ele>
        <time>2014-05-21T12:13:47Z</time>
      </trkpt>
      <trkpt lat="43.878119895234704" lon="5.395943205803633">
        <ele>280.20001220703125</ele>
        <time>2014-05-21T12:13:51Z</time>
      </trkpt>
      <trkpt lat="43.878215532749891" lon="5.395482704043388">
        <ele>280.60000610351562</ele>
        <time>2014-05-21T12:13:58Z</time>
      </trkpt>
      <trkpt lat="43.878275211900473" lon="5.394959170371294">
        <ele>279.60000610351562</ele>
        <time>2014-05-21T12:14:05Z</time>
      </trkpt>
      <trkpt lat="43.878336735069752" lon="5.394457094371319">
        <ele>280</ele>
        <time>2014-05-21T12:14:11Z</time>
      </trkpt>
      <trkpt lat="43.878353247419" lon="5.394274536520243">
        <ele>279.20001220703125</ele>
        <time>2014-05-21T12:14:13Z</time>
      </trkpt>
      <trkpt lat="43.878414686769247" lon="5.393809424713254">
        <ele>280</ele>
        <time>2014-05-21T12:14:18Z</time>
      </trkpt>
      <trkpt lat="43.878475120291114" lon="5.393266528844833">
        <ele>278.79998779296875</ele>
        <time>2014-05-21T12:14:24Z</time>
      </trkpt>
      <trkpt lat="43.878513593226671" lon="5.393013646826148">
        <ele>280.39999389648437</ele>
        <time>2014-05-21T12:14:27Z</time>
      </trkpt>
      <trkpt lat="43.878555921837687" lon="5.392756406217814">
        <ele>280.20001220703125</ele>
        <time>2014-05-21T12:14:30Z</time>
      </trkpt>
      <trkpt lat="43.878621468320489" lon="5.392314596101642">
        <ele>279.39999389648438</ele>
        <time>2014-05-21T12:14:35Z</time>
      </trkpt>
      <trkpt lat="43.878647619858384" lon="5.392133295536041">
        <ele>279</ele>
        <time>2014-05-21T12:14:37Z</time>
      </trkpt>
      <trkpt lat="43.878684500232339" lon="5.391958113759756">
        <ele>278.20001220703125</ele>
        <time>2014-05-21T12:14:39Z</time>
      </trkpt>
      <trkpt lat="43.878725655376911" lon="5.39169006049633">
        <ele>277.79998779296875</ele>
        <time>2014-05-21T12:14:42Z</time>
      </trkpt>
      <trkpt lat="43.878767397254705" lon="5.391414212062955">
        <ele>276.60000610351562</ele>
        <time>2014-05-21T12:14:45Z</time>
      </trkpt>
      <trkpt lat="43.878842582926154" lon="5.390942897647619">
        <ele>278.20001220703125</ele>
        <time>2014-05-21T12:14:50Z</time>
      </trkpt>
      <trkpt lat="43.878940567374229" lon="5.390326241031289">
        <ele>277.39999389648437</ele>
        <time>2014-05-21T12:14:56Z</time>
      </trkpt>
      <trkpt lat="43.87898163869977" lon="5.390027426183224">
        <ele>277.20001220703125</ele>
        <time>2014-05-21T12:14:59Z</time>
      </trkpt>
      <trkpt lat="43.878997229039669" lon="5.38987822830677">
        <ele>277.39999389648437</ele>
        <time>2014-05-21T12:15:01Z</time>
      </trkpt>
      <trkpt lat="43.87902120128274" lon="5.389632135629654">
        <ele>277</ele>
        <time>2014-05-21T12:15:05Z</time>
      </trkpt>
      <trkpt lat="43.879020279273391" lon="5.389572707936168">
        <ele>276.60000610351562</ele>
        <time>2014-05-21T12:15:06Z</time>
      </trkpt>
      <trkpt lat="43.879047269001603" lon="5.389380929991603">
        <ele>276.20001220703125</ele>
        <time>2014-05-21T12:15:09Z</time>
      </trkpt>
      <trkpt lat="43.87905347160995" lon="5.389310102909803">
        <ele>275.79998779296875</ele>
        <time>2014-05-21T12:15:10Z</time>
      </trkpt>
      <trkpt lat="43.879063362255692" lon="5.389166437089443">
        <ele>275.39999389648437</ele>
        <time>2014-05-21T12:15:12Z</time>
      </trkpt>
      <trkpt lat="43.879086580127478" lon="5.388778019696474">
        <ele>275.20001220703125</ele>
        <time>2014-05-21T12:15:17Z</time>
      </trkpt>
      <trkpt lat="43.879090854898095" lon="5.388692356646061">
        <ele>275</ele>
        <time>2014-05-21T12:15:18Z</time>
      </trkpt>
      <trkpt lat="43.879122454673052" lon="5.388156166300178">
        <ele>274</ele>
        <time>2014-05-21T12:15:24Z</time>
      </trkpt>
      <trkpt lat="43.879187917336822" lon="5.387591645121574">
        <ele>273.39999389648437</ele>
        <time>2014-05-21T12:15:30Z</time>
      </trkpt>
      <trkpt lat="43.879240639507771" lon="5.387297021225095">
        <ele>273</ele>
        <time>2014-05-21T12:15:33Z</time>
      </trkpt>
      <trkpt lat="43.879292942583561" lon="5.387097951024771">
        <ele>272.79998779296875</ele>
        <time>2014-05-21T12:15:35Z</time>
      </trkpt>
      <trkpt lat="43.879326218739152" lon="5.387000804767013">
        <ele>272.60000610351562</ele>
        <time>2014-05-21T12:15:36Z</time>
      </trkpt>
      <trkpt lat="43.879480361938477" lon="5.386601993814111">
        <ele>272</ele>
        <time>2014-05-21T12:15:40Z</time>
      </trkpt>
      <trkpt lat="43.879599887877703" lon="5.386311141774058">
        <ele>271.39999389648437</ele>
        <time>2014-05-21T12:15:43Z</time>
      </trkpt>
      <trkpt lat="43.879805831238627" lon="5.386022552847862">
        <ele>271.20001220703125</ele>
        <time>2014-05-21T12:15:47Z</time>
      </trkpt>
      <trkpt lat="43.879871629178524" lon="5.385949797928333">
        <ele>271.60000610351562</ele>
        <time>2014-05-21T12:15:49Z</time>
      </trkpt>
      <trkpt lat="43.879887387156487" lon="5.385918533429503">
        <ele>271.79998779296875</ele>
        <time>2014-05-21T12:15:50Z</time>
      </trkpt>
      <trkpt lat="43.879931978881359" lon="5.385843180119991">
        <ele>272.39999389648437</ele>
        <time>2014-05-21T12:15:54Z</time>
      </trkpt>
      <trkpt lat="43.87993399053812" lon="5.385819040238857">
        <ele>272.60000610351562</ele>
        <time>2014-05-21T12:15:55Z</time>
      </trkpt>
      <trkpt lat="43.879996938630939" lon="5.385697670280933">
        <ele>272.60000610351562</ele>
        <time>2014-05-21T12:15:59Z</time>
      </trkpt>
      <trkpt lat="43.88007765635848" lon="5.385648971423507">
        <ele>272.60000610351562</ele>
        <time>2014-05-21T12:16:02Z</time>
      </trkpt>
      <trkpt lat="43.880210593342781" lon="5.385557189583778">
        <ele>272.79998779296875</ele>
        <time>2014-05-21T12:16:05Z</time>
      </trkpt>
      <trkpt lat="43.880523825064301" lon="5.385319059714675">
        <ele>271.60000610351562</ele>
        <time>2014-05-21T12:16:12Z</time>
      </trkpt>
      <trkpt lat="43.88074854388833" lon="5.38513608276844">
        <ele>270.79998779296875</ele>
        <time>2014-05-21T12:16:17Z</time>
      </trkpt>
      <trkpt lat="43.880881061777472" lon="5.385028794407845">
        <ele>270.39999389648437</ele>
        <time>2014-05-21T12:16:20Z</time>
      </trkpt>
      <trkpt lat="43.881159843876958" lon="5.384816313162446">
        <ele>271.60000610351562</ele>
        <time>2014-05-21T12:16:26Z</time>
      </trkpt>
      <trkpt lat="43.881301833316684" lon="5.384705923497677">
        <ele>271</ele>
        <time>2014-05-21T12:16:29Z</time>
      </trkpt>
      <trkpt lat="43.881444409489632" lon="5.384613638743758">
        <ele>270.20001220703125</ele>
        <time>2014-05-21T12:16:32Z</time>
      </trkpt>
      <trkpt lat="43.88149076141417" lon="5.384598216041923">
        <ele>270.60000610351562</ele>
        <time>2014-05-21T12:16:33Z</time>
      </trkpt>
      <trkpt lat="43.881574831902981" lon="5.384554965421557">
        <ele>272</ele>
        <time>2014-05-21T12:16:35Z</time>
      </trkpt>
      <trkpt lat="43.881613137200475" lon="5.384535687044263">
        <ele>272.60000610351562</ele>
        <time>2014-05-21T12:16:36Z</time>
      </trkpt>
      <trkpt lat="43.881683461368084" lon="5.38450232706964">
        <ele>273.60000610351562</ele>
        <time>2014-05-21T12:16:38Z</time>
      </trkpt>
      <trkpt lat="43.881808519363403" lon="5.384464859962463">
        <ele>274.39999389648437</ele>
        <time>2014-05-21T12:16:42Z</time>
      </trkpt>
      <trkpt lat="43.881867695599794" lon="5.384488748386502">
        <ele>274.79998779296875</ele>
        <time>2014-05-21T12:16:44Z</time>
      </trkpt>
      <trkpt lat="43.881918825209141" lon="5.3845458291471">
        <ele>274.79998779296875</ele>
        <time>2014-05-21T12:16:46Z</time>
      </trkpt>
      <trkpt lat="43.882025945931673" lon="5.384679604321718">
        <ele>276</ele>
        <time>2014-05-21T12:16:51Z</time>
      </trkpt>
      <trkpt lat="43.882065927609801" lon="5.384732075035572">
        <ele>276.20001220703125</ele>
        <time>2014-05-21T12:16:53Z</time>
      </trkpt>
      <trkpt lat="43.882103143259883" lon="5.384777504950762">
        <ele>277.20001220703125</ele>
        <time>2014-05-21T12:16:55Z</time>
      </trkpt>
      <trkpt lat="43.882175562903285" lon="5.384848080575466">
        <ele>276.20001220703125</ele>
        <time>2014-05-21T12:16:59Z</time>
      </trkpt>
      <trkpt lat="43.882192494347692" lon="5.384868951514363">
        <ele>276.79998779296875</ele>
        <time>2014-05-21T12:17:00Z</time>
      </trkpt>
      <trkpt lat="43.882207749411464" lon="5.384886302053928">
        <ele>277.60000610351562</ele>
        <time>2014-05-21T12:17:01Z</time>
      </trkpt>
      <trkpt lat="43.882222501561046" lon="5.384906250983477">
        <ele>278.60000610351562</ele>
        <time>2014-05-21T12:17:02Z</time>
      </trkpt>
      <trkpt lat="43.882263991981745" lon="5.384962493553758">
        <ele>279.60000610351562</ele>
        <time>2014-05-21T12:17:05Z</time>
      </trkpt>
      <trkpt lat="43.882280755788088" lon="5.384976407513022">
        <ele>279.60000610351562</ele>
        <time>2014-05-21T12:17:06Z</time>
      </trkpt>
      <trkpt lat="43.882293161004782" lon="5.384996188804507">
        <ele>279.79998779296875</ele>
        <time>2014-05-21T12:17:07Z</time>
      </trkpt>
      <trkpt lat="43.882336160168052" lon="5.385043462738395">
        <ele>279</ele>
        <time>2014-05-21T12:17:10Z</time>
      </trkpt>
      <trkpt lat="43.882400533184409" lon="5.38513214327395">
        <ele>279.79998779296875</ele>
        <time>2014-05-21T12:17:15Z</time>
      </trkpt>
      <trkpt lat="43.882492985576391" lon="5.385223589837551">
        <ele>281</ele>
        <time>2014-05-21T12:17:21Z</time>
      </trkpt>
      <trkpt lat="43.882533805444837" lon="5.385249657556415">
        <ele>281.79998779296875</ele>
        <time>2014-05-21T12:17:23Z</time>
      </trkpt>
      <trkpt lat="43.882701694965363" lon="5.385339511558414">
        <ele>282</ele>
        <time>2014-05-21T12:17:31Z</time>
      </trkpt>
      <trkpt lat="43.882765732705593" lon="5.385375218465924">
        <ele>282.20001220703125</ele>
        <time>2014-05-21T12:17:34Z</time>
      </trkpt>
      <trkpt lat="43.882893137633801" lon="5.38543950766325">
        <ele>283.20001220703125</ele>
        <time>2014-05-21T12:17:40Z</time>
      </trkpt>
      <trkpt lat="43.883004197850823" lon="5.38548594340682">
        <ele>284</ele>
        <time>2014-05-21T12:17:45Z</time>
      </trkpt>
      <trkpt lat="43.883025823161006" lon="5.385498348623514">
        <ele>284</ele>
        <time>2014-05-21T12:17:46Z</time>
      </trkpt>
      <trkpt lat="43.883198574185371" lon="5.38558803498745">
        <ele>284.79998779296875</ele>
        <time>2014-05-21T12:17:54Z</time>
      </trkpt>
      <trkpt lat="43.883219612762332" lon="5.385600691661239">
        <ele>285.20001220703125</ele>
        <time>2014-05-21T12:17:55Z</time>
      </trkpt>
      <trkpt lat="43.883264204487205" lon="5.385616365820169">
        <ele>286.20001220703125</ele>
        <time>2014-05-21T12:17:57Z</time>
      </trkpt>
      <trkpt lat="43.88335975818336" lon="5.385664729401469">
        <ele>287</ele>
        <time>2014-05-21T12:18:01Z</time>
      </trkpt>
      <trkpt lat="43.883403846994042" lon="5.385688031092286">
        <ele>287.60000610351562</ele>
        <time>2014-05-21T12:18:03Z</time>
      </trkpt>
      <trkpt lat="43.883512644097209" lon="5.385724911466241">
        <ele>288.79998779296875</ele>
        <time>2014-05-21T12:18:08Z</time>
      </trkpt>
      <trkpt lat="43.883629152551293" lon="5.385761205106974">
        <ele>290</ele>
        <time>2014-05-21T12:18:14Z</time>
      </trkpt>
      <trkpt lat="43.883650526404381" lon="5.385761708021164">
        <ele>290.20001220703125</ele>
        <time>2014-05-21T12:18:15Z</time>
      </trkpt>
      <trkpt lat="43.883734177798033" lon="5.385767072439194">
        <ele>291.20001220703125</ele>
        <time>2014-05-21T12:18:19Z</time>
      </trkpt>
      <trkpt lat="43.883814308792353" lon="5.385791128501296">
        <ele>291.60000610351562</ele>
        <time>2014-05-21T12:18:23Z</time>
      </trkpt>
      <trkpt lat="43.883833587169647" lon="5.385798336938024">
        <ele>292.20001220703125</ele>
        <time>2014-05-21T12:18:24Z</time>
      </trkpt>
      <trkpt lat="43.883908353745937" lon="5.385820297524333">
        <ele>293.39999389648437</ele>
        <time>2014-05-21T12:18:28Z</time>
      </trkpt>
      <trkpt lat="43.883945317938924" lon="5.385834211483598">
        <ele>294.20001220703125</ele>
        <time>2014-05-21T12:18:30Z</time>
      </trkpt>
      <trkpt lat="43.883965853601694" lon="5.385842844843864">
        <ele>294.39999389648437</ele>
        <time>2014-05-21T12:18:31Z</time>
      </trkpt>
      <trkpt lat="43.884049253538251" lon="5.385885173454881">
        <ele>295.60000610351562</ele>
        <time>2014-05-21T12:18:36Z</time>
      </trkpt>
      <trkpt lat="43.884076913818717" lon="5.385898249223828">
        <ele>296.20001220703125</ele>
        <time>2014-05-21T12:18:38Z</time>
      </trkpt>
      <trkpt lat="43.884094431996346" lon="5.385902021080256">
        <ele>296.60000610351562</ele>
        <time>2014-05-21T12:18:39Z</time>
      </trkpt>
      <trkpt lat="43.88414254412055" lon="5.385929262265563">
        <ele>297.20001220703125</ele>
        <time>2014-05-21T12:18:42Z</time>
      </trkpt>
      <trkpt lat="43.884159978479147" lon="5.385938314720988">
        <ele>297.20001220703125</ele>
        <time>2014-05-21T12:18:43Z</time>
      </trkpt>
      <trkpt lat="43.88419384136796" lon="5.385952480137348">
        <ele>297.79998779296875</ele>
        <time>2014-05-21T12:18:45Z</time>
      </trkpt>
      <trkpt lat="43.884236253798008" lon="5.385969746857882">
        <ele>298.79998779296875</ele>
        <time>2014-05-21T12:18:48Z</time>
      </trkpt>
      <trkpt lat="43.884251257404685" lon="5.385973183438182">
        <ele>299</ele>
        <time>2014-05-21T12:18:49Z</time>
      </trkpt>
      <trkpt lat="43.884350163862109" lon="5.386035041883588">
        <ele>300</ele>
        <time>2014-05-21T12:18:55Z</time>
      </trkpt>
      <trkpt lat="43.884367682039738" lon="5.38604149594903">
        <ele>300.20001220703125</ele>
        <time>2014-05-21T12:18:56Z</time>
      </trkpt>
      <trkpt lat="43.884468181058764" lon="5.386083405464888">
        <ele>301.39999389648437</ele>
        <time>2014-05-21T12:19:02Z</time>
      </trkpt>
      <trkpt lat="43.884524842724204" lon="5.38611282594502">
        <ele>302.60000610351562</ele>
        <time>2014-05-21T12:19:06Z</time>
      </trkpt>
      <trkpt lat="43.884569266811013" lon="5.386141743510962">
        <ele>303.60000610351562</ele>
        <time>2014-05-21T12:19:09Z</time>
      </trkpt>
      <trkpt lat="43.884585024788976" lon="5.386154819279909">
        <ele>303.79998779296875</ele>
        <time>2014-05-21T12:19:10Z</time>
      </trkpt>
      <trkpt lat="43.884667167440057" lon="5.386214749887586">
        <ele>304.79998779296875</ele>
        <time>2014-05-21T12:19:15Z</time>
      </trkpt>
      <trkpt lat="43.884684853255749" lon="5.386230675503612">
        <ele>305</ele>
        <time>2014-05-21T12:19:16Z</time>
      </trkpt>
      <trkpt lat="43.884733552113175" lon="5.386262107640505">
        <ele>306.20001220703125</ele>
        <time>2014-05-21T12:19:19Z</time>
      </trkpt>
      <trkpt lat="43.88474159874022" lon="5.3862848225981">
        <ele>306.39999389648437</ele>
        <time>2014-05-21T12:19:20Z</time>
      </trkpt>
      <trkpt lat="43.884754339233041" lon="5.386304687708616">
        <ele>306.60000610351562</ele>
        <time>2014-05-21T12:19:21Z</time>
      </trkpt>
      <trkpt lat="43.88479390181601" lon="5.386366378515959">
        <ele>307.39999389648437</ele>
        <time>2014-05-21T12:19:24Z</time>
      </trkpt>
      <trkpt lat="43.884837152436376" lon="5.386430248618126">
        <ele>308.60000610351562</ele>
        <time>2014-05-21T12:19:27Z</time>
      </trkpt>
      <trkpt lat="43.88484762981534" lon="5.386452963575721">
        <ele>308.79998779296875</ele>
        <time>2014-05-21T12:19:28Z</time>
      </trkpt>
      <trkpt lat="43.884890042245388" lon="5.386562012135983">
        <ele>310</ele>
        <time>2014-05-21T12:19:33Z</time>
      </trkpt>
      <trkpt lat="43.884900519624352" lon="5.386612638831139">
        <ele>310.39999389648437</ele>
        <time>2014-05-21T12:19:35Z</time>
      </trkpt>
      <trkpt lat="43.884926168248057" lon="5.386692434549332">
        <ele>311.20001220703125</ele>
        <time>2014-05-21T12:19:38Z</time>
      </trkpt>
      <trkpt lat="43.884949637576938" lon="5.386799555271864">
        <ele>311.39999389648437</ele>
        <time>2014-05-21T12:19:42Z</time>
      </trkpt>
      <trkpt lat="43.884936310350895" lon="5.386916734278202">
        <ele>311.79998779296875</ele>
        <time>2014-05-21T12:19:47Z</time>
      </trkpt>
      <trkpt lat="43.88493362814188" lon="5.386938694864512">
        <ele>312.39999389648437</ele>
        <time>2014-05-21T12:19:48Z</time>
      </trkpt>
      <trkpt lat="43.88486766256392" lon="5.387034080922604">
        <ele>313.39999389648438</ele>
        <time>2014-05-21T12:19:53Z</time>
      </trkpt>
      <trkpt lat="43.884855089709163" lon="5.387060064822435">
        <ele>313</ele>
        <time>2014-05-21T12:19:54Z</time>
      </trkpt>
      <trkpt lat="43.884837822988629" lon="5.387082612141967">
        <ele>312.20001220703125</ele>
        <time>2014-05-21T12:19:55Z</time>
      </trkpt>
      <trkpt lat="43.88474646024406" lon="5.387215884402394">
        <ele>312.79998779296875</ele>
        <time>2014-05-21T12:20:01Z</time>
      </trkpt>
      <trkpt lat="43.884731791913509" lon="5.387237761169672">
        <ele>313.20001220703125</ele>
        <time>2014-05-21T12:20:02Z</time>
      </trkpt>
      <trkpt lat="43.884625760838389" lon="5.387407746165991">
        <ele>313</ele>
        <time>2014-05-21T12:20:09Z</time>
      </trkpt>
      <trkpt lat="43.884593741968274" lon="5.38745510391891">
        <ele>312</ele>
        <time>2014-05-21T12:20:11Z</time>
      </trkpt>
      <trkpt lat="43.884554849937558" lon="5.387543449178338">
        <ele>313.20001220703125</ele>
        <time>2014-05-21T12:20:14Z</time>
      </trkpt>
      <trkpt lat="43.884539511054754" lon="5.387574881315231">
        <ele>313.60000610351562</ele>
        <time>2014-05-21T12:20:15Z</time>
      </trkpt>
      <trkpt lat="43.884508246555924" lon="5.387770179659128">
        <ele>313.39999389648438</ele>
        <time>2014-05-21T12:20:21Z</time>
      </trkpt>
      <trkpt lat="43.8845095038414" lon="5.387799935415387">
        <ele>315</ele>
        <time>2014-05-21T12:20:23Z</time>
      </trkpt>
      <trkpt lat="43.884521741420031" lon="5.387845365330577">
        <ele>315.20001220703125</ele>
        <time>2014-05-21T12:20:25Z</time>
      </trkpt>
      <trkpt lat="43.884568093344569" lon="5.387893645092845">
        <ele>313.60000610351562</ele>
        <time>2014-05-21T12:20:28Z</time>
      </trkpt>
      <trkpt lat="43.884631711989641" lon="5.387912839651108">
        <ele>313</ele>
        <time>2014-05-21T12:20:30Z</time>
      </trkpt>
      <trkpt lat="43.884671023115516" lon="5.387931698933244">
        <ele>313.20001220703125</ele>
        <time>2014-05-21T12:20:31Z</time>
      </trkpt>
      <trkpt lat="43.884824328124523" lon="5.388062037527561">
        <ele>313.20001220703125</ele>
        <time>2014-05-21T12:20:35Z</time>
      </trkpt>
      <trkpt lat="43.884988445788622" lon="5.388258090242744">
        <ele>312.20001220703125</ele>
        <time>2014-05-21T12:20:39Z</time>
      </trkpt>
      <trkpt lat="43.885028595104814" lon="5.388325313106179">
        <ele>311.60000610351562</ele>
        <time>2014-05-21T12:20:40Z</time>
      </trkpt>
      <trkpt lat="43.885071510449052" lon="5.388399157673121">
        <ele>311</ele>
        <time>2014-05-21T12:20:41Z</time>
      </trkpt>
      <trkpt lat="43.885171338915825" lon="5.388527484610677">
        <ele>309.20001220703125</ele>
        <time>2014-05-21T12:20:43Z</time>
      </trkpt>
      <trkpt lat="43.885234957560897" lon="5.388578111305833">
        <ele>308.39999389648437</ele>
        <time>2014-05-21T12:20:44Z</time>
      </trkpt>
      <trkpt lat="43.885307796299458" lon="5.388629240915179">
        <ele>308.20001220703125</ele>
        <time>2014-05-21T12:20:45Z</time>
      </trkpt>
      <trkpt lat="43.885527905076742" lon="5.388751281425357">
        <ele>307.39999389648437</ele>
        <time>2014-05-21T12:20:48Z</time>
      </trkpt>
      <trkpt lat="43.885880447924137" lon="5.388834262266755">
        <ele>308</ele>
        <time>2014-05-21T12:20:53Z</time>
      </trkpt>
      <trkpt lat="43.886028472334146" lon="5.388742731884122">
        <ele>309.60000610351562</ele>
        <time>2014-05-21T12:20:56Z</time>
      </trkpt>
      <trkpt lat="43.886107346042991" lon="5.388661008328199">
        <ele>310.20001220703125</ele>
        <time>2014-05-21T12:20:58Z</time>
      </trkpt>
      <trkpt lat="43.88625729829073" lon="5.388507200405002">
        <ele>310.39999389648437</ele>
        <time>2014-05-21T12:21:02Z</time>
      </trkpt>
      <trkpt lat="43.886300632730126" lon="5.388478701934218">
        <ele>310</ele>
        <time>2014-05-21T12:21:03Z</time>
      </trkpt>
      <trkpt lat="43.886444885283709" lon="5.388476941734552">
        <ele>309.39999389648437</ele>
        <time>2014-05-21T12:21:06Z</time>
      </trkpt>
      <trkpt lat="43.886511605232954" lon="5.388594958931208">
        <ele>308.39999389648437</ele>
        <time>2014-05-21T12:21:08Z</time>
      </trkpt>
      <trkpt lat="43.886525519192219" lon="5.388677688315511">
        <ele>308</ele>
        <time>2014-05-21T12:21:09Z</time>
      </trkpt>
      <trkpt lat="43.886536080390215" lon="5.388768631964922">
        <ele>307</ele>
        <time>2014-05-21T12:21:10Z</time>
      </trkpt>
      <trkpt lat="43.886554436758161" lon="5.388961751013994">
        <ele>305.20001220703125</ele>
        <time>2014-05-21T12:21:12Z</time>
      </trkpt>
      <trkpt lat="43.886579247191548" lon="5.389056382700801">
        <ele>304.79998779296875</ele>
        <time>2014-05-21T12:21:13Z</time>
      </trkpt>
      <trkpt lat="43.886617887765169" lon="5.389145230874419">
        <ele>304.20001220703125</ele>
        <time>2014-05-21T12:21:14Z</time>
      </trkpt>
      <trkpt lat="43.886741185560822" lon="5.389239778742194">
        <ele>303.39999389648437</ele>
        <time>2014-05-21T12:21:16Z</time>
      </trkpt>
      <trkpt lat="43.886823747307062" lon="5.389263248071075">
        <ele>303</ele>
        <time>2014-05-21T12:21:17Z</time>
      </trkpt>
      <trkpt lat="43.887000856921077" lon="5.389300547540188">
        <ele>302</ele>
        <time>2014-05-21T12:21:19Z</time>
      </trkpt>
      <trkpt lat="43.887344934046268" lon="5.389443039894104">
        <ele>300.60000610351562</ele>
        <time>2014-05-21T12:21:23Z</time>
      </trkpt>
      <trkpt lat="43.887422550469637" lon="5.389498779550195">
        <ele>300.60000610351562</ele>
        <time>2014-05-21T12:21:24Z</time>
      </trkpt>
      <trkpt lat="43.887802418321371" lon="5.389732802286744">
        <ele>299.39999389648438</ele>
        <time>2014-05-21T12:21:29Z</time>
      </trkpt>
      <trkpt lat="43.887880370020866" lon="5.389765743166208">
        <ele>299.60000610351562</ele>
        <time>2014-05-21T12:21:30Z</time>
      </trkpt>
      <trkpt lat="43.888326454907656" lon="5.389912258833647">
        <ele>299</ele>
        <time>2014-05-21T12:21:36Z</time>
      </trkpt>
      <trkpt lat="43.88859685510397" lon="5.390028767287731">
        <ele>299</ele>
        <time>2014-05-21T12:21:40Z</time>
      </trkpt>
      <trkpt lat="43.888656701892614" lon="5.39008442312479">
        <ele>298.39999389648437</ele>
        <time>2014-05-21T12:21:41Z</time>
      </trkpt>
      <trkpt lat="43.888711435720325" lon="5.39015281945467">
        <ele>297.39999389648437</ele>
        <time>2014-05-21T12:21:42Z</time>
      </trkpt>
      <trkpt lat="43.888817969709635" lon="5.39030528627336">
        <ele>296.60000610351562</ele>
        <time>2014-05-21T12:21:44Z</time>
      </trkpt>
      <trkpt lat="43.888867674395442" lon="5.390382399782538">
        <ele>296.79998779296875</ele>
        <time>2014-05-21T12:21:45Z</time>
      </trkpt>
      <trkpt lat="43.889027601107955" lon="5.390558587387204">
        <ele>297</ele>
        <time>2014-05-21T12:21:48Z</time>
      </trkpt>
      <trkpt lat="43.889087196439505" lon="5.390583062544465">
        <ele>297</ele>
        <time>2014-05-21T12:21:49Z</time>
      </trkpt>
      <trkpt lat="43.889342341572046" lon="5.390607872977853">
        <ele>297.20001220703125</ele>
        <time>2014-05-21T12:21:53Z</time>
      </trkpt>
      <trkpt lat="43.889633025974035" lon="5.390601921826601">
        <ele>298.60000610351562</ele>
        <time>2014-05-21T12:21:58Z</time>
      </trkpt>
      <trkpt lat="43.889731429517269" lon="5.390602424740791">
        <ele>299.20001220703125</ele>
        <time>2014-05-21T12:22:00Z</time>
      </trkpt>
      <trkpt lat="43.889777613803744" lon="5.390593791380525">
        <ele>299.60000610351562</ele>
        <time>2014-05-21T12:22:01Z</time>
      </trkpt>
      <trkpt lat="43.889857493340969" lon="5.390590270981193">
        <ele>299.79998779296875</ele>
        <time>2014-05-21T12:22:03Z</time>
      </trkpt>
      <trkpt lat="43.889924800023437" lon="5.390579206869006">
        <ele>300.20001220703125</ele>
        <time>2014-05-21T12:22:05Z</time>
      </trkpt>
      <trkpt lat="43.889983724802732" lon="5.390579625964165">
        <ele>301</ele>
        <time>2014-05-21T12:22:07Z</time>
      </trkpt>
      <trkpt lat="43.890076009556651" lon="5.390573339536786">
        <ele>302.20001220703125</ele>
        <time>2014-05-21T12:22:10Z</time>
      </trkpt>
      <trkpt lat="43.890108028426766" lon="5.390572752803564">
        <ele>302.60000610351562</ele>
        <time>2014-05-21T12:22:11Z</time>
      </trkpt>
      <trkpt lat="43.890386056154966" lon="5.390583900734782">
        <ele>302.79998779296875</ele>
        <time>2014-05-21T12:22:20Z</time>
      </trkpt>
      <trkpt lat="43.890418577939272" lon="5.390584990382195">
        <ele>303.60000610351562</ele>
        <time>2014-05-21T12:22:21Z</time>
      </trkpt>
      <trkpt lat="43.890648745000362" lon="5.390590103343129">
        <ele>304.20001220703125</ele>
        <time>2014-05-21T12:22:28Z</time>
      </trkpt>
      <trkpt lat="43.891011094674468" lon="5.390574429184198">
        <ele>303.60000610351562</ele>
        <time>2014-05-21T12:22:39Z</time>
      </trkpt>
      <trkpt lat="43.891081837937236" lon="5.390573339536786">
        <ele>305</ele>
        <time>2014-05-21T12:22:41Z</time>
      </trkpt>
      <trkpt lat="43.891248553991318" lon="5.390612902119756">
        <ele>305</ele>
        <time>2014-05-21T12:22:45Z</time>
      </trkpt>
      <trkpt lat="43.891409570351243" lon="5.390683896839619">
        <ele>303.39999389648437</ele>
        <time>2014-05-21T12:22:48Z</time>
      </trkpt>
      <trkpt lat="43.891536891460419" lon="5.390746761113405">
        <ele>303.20001220703125</ele>
        <time>2014-05-21T12:22:50Z</time>
      </trkpt>
      <trkpt lat="43.891758089885116" lon="5.390865448862314">
        <ele>301</ele>
        <time>2014-05-21T12:22:53Z</time>
      </trkpt>
      <trkpt lat="43.891836628317833" lon="5.390902580693364">
        <ele>299</ele>
        <time>2014-05-21T12:22:54Z</time>
      </trkpt>
      <trkpt lat="43.891916424036026" lon="5.390947256237268">
        <ele>297.39999389648437</ele>
        <time>2014-05-21T12:22:55Z</time>
      </trkpt>
      <trkpt lat="43.892077775672078" lon="5.391047084704042">
        <ele>296.20001220703125</ele>
        <time>2014-05-21T12:22:57Z</time>
      </trkpt>
      <trkpt lat="43.892402742058039" lon="5.391210280358791">
        <ele>295.79998779296875</ele>
        <time>2014-05-21T12:23:01Z</time>
      </trkpt>
      <trkpt lat="43.892484633252025" lon="5.391231905668974">
        <ele>295.60000610351562</ele>
        <time>2014-05-21T12:23:02Z</time>
      </trkpt>
      <trkpt lat="43.892711279913783" lon="5.391269288957119">
        <ele>296.20001220703125</ele>
        <time>2014-05-21T12:23:05Z</time>
      </trkpt>
      <trkpt lat="43.893046220764518" lon="5.391274150460959">
        <ele>295.60000610351562</ele>
        <time>2014-05-21T12:23:10Z</time>
      </trkpt>
      <trkpt lat="43.893114617094398" lon="5.391276916489005">
        <ele>295</ele>
        <time>2014-05-21T12:23:11Z</time>
      </trkpt>
      <trkpt lat="43.893182761967182" lon="5.391277419403195">
        <ele>294</ele>
        <time>2014-05-21T12:23:12Z</time>
      </trkpt>
      <trkpt lat="43.893518708646297" lon="5.391260152682662">
        <ele>293.39999389648437</ele>
        <time>2014-05-21T12:23:17Z</time>
      </trkpt>
      <trkpt lat="43.893859852105379" lon="5.39124489761889">
        <ele>292.79998779296875</ele>
        <time>2014-05-21T12:23:22Z</time>
      </trkpt>
      <trkpt lat="43.894054312258959" lon="5.391236431896687">
        <ele>292</ele>
        <time>2014-05-21T12:23:25Z</time>
      </trkpt>
      <trkpt lat="43.894525123760104" lon="5.391227211803198">
        <ele>293.79998779296875</ele>
        <time>2014-05-21T12:23:32Z</time>
      </trkpt>
      <trkpt lat="43.894593352451921" lon="5.391232324764133">
        <ele>294</ele>
        <time>2014-05-21T12:23:33Z</time>
      </trkpt>
      <trkpt lat="43.894991492852569" lon="5.39126736111939">
        <ele>292.60000610351562</ele>
        <time>2014-05-21T12:23:39Z</time>
      </trkpt>
      <trkpt lat="43.895117724314332" lon="5.391285046935082">
        <ele>292</ele>
        <time>2014-05-21T12:23:41Z</time>
      </trkpt>
      <trkpt lat="43.895178576931357" lon="5.391292590647936">
        <ele>291.39999389648437</ele>
        <time>2014-05-21T12:23:42Z</time>
      </trkpt>
      <trkpt lat="43.895457442849874" lon="5.391370542347431">
        <ele>292.60000610351562</ele>
        <time>2014-05-21T12:23:47Z</time>
      </trkpt>
      <trkpt lat="43.895726501941681" lon="5.391470454633236">
        <ele>293.60000610351562</ele>
        <time>2014-05-21T12:23:52Z</time>
      </trkpt>
      <trkpt lat="43.895837310701609" lon="5.391514878720045">
        <ele>293.20001220703125</ele>
        <time>2014-05-21T12:23:54Z</time>
      </trkpt>
      <trkpt lat="43.896146100014448" lon="5.391624681651592">
        <ele>293</ele>
        <time>2014-05-21T12:24:00Z</time>
      </trkpt>
      <trkpt lat="43.896191278472543" lon="5.391626441851258">
        <ele>293</ele>
        <time>2014-05-21T12:24:01Z</time>
      </trkpt>
      <trkpt lat="43.896361347287893" lon="5.391613366082311">
        <ele>293.20001220703125</ele>
        <time>2014-05-21T12:24:04Z</time>
      </trkpt>
      <trkpt lat="43.896812126040459" lon="5.391556788235903">
        <ele>293.79998779296875</ele>
        <time>2014-05-21T12:24:11Z</time>
      </trkpt>
      <trkpt lat="43.897078586742282" lon="5.391532899811864">
        <ele>294.60000610351562</ele>
        <time>2014-05-21T12:24:16Z</time>
      </trkpt>
      <trkpt lat="43.897220743820071" lon="5.391530301421881">
        <ele>295.20001220703125</ele>
        <time>2014-05-21T12:24:19Z</time>
      </trkpt>
      <trkpt lat="43.897267850115895" lon="5.39152879267931">
        <ele>295.79998779296875</ele>
        <time>2014-05-21T12:24:20Z</time>
      </trkpt>
      <trkpt lat="43.897615531459451" lon="5.391551926732063">
        <ele>295</ele>
        <time>2014-05-21T12:24:27Z</time>
      </trkpt>
      <trkpt lat="43.897913424298167" lon="5.391599284484983">
        <ele>294.60000610351562</ele>
        <time>2014-05-21T12:24:33Z</time>
      </trkpt>
      <trkpt lat="43.897963128983974" lon="5.391602553427219">
        <ele>294.39999389648437</ele>
        <time>2014-05-21T12:24:34Z</time>
      </trkpt>
      <trkpt lat="43.898277617990971" lon="5.391597440466285">
        <ele>295.20001220703125</ele>
        <time>2014-05-21T12:24:41Z</time>
      </trkpt>
      <trkpt lat="43.898484148085117" lon="5.391586543992162">
        <ele>295.79998779296875</ele>
        <time>2014-05-21T12:24:47Z</time>
      </trkpt>
      <trkpt lat="43.898609038442373" lon="5.391596853733063">
        <ele>297</ele>
        <time>2014-05-21T12:24:51Z</time>
      </trkpt>
      <trkpt lat="43.898722361773252" lon="5.391616802662611">
        <ele>297.39999389648437</ele>
        <time>2014-05-21T12:24:54Z</time>
      </trkpt>
      <trkpt lat="43.898920426145196" lon="5.391680924221873">
        <ele>295.79998779296875</ele>
        <time>2014-05-21T12:24:58Z</time>
      </trkpt>
      <trkpt lat="43.898978931829333" lon="5.391714703291655">
        <ele>295</ele>
        <time>2014-05-21T12:24:59Z</time>
      </trkpt>
      <trkpt lat="43.899040706455708" lon="5.391752757132053">
        <ele>294</ele>
        <time>2014-05-21T12:25:00Z</time>
      </trkpt>
      <trkpt lat="43.899172469973564" lon="5.39184445515275">
        <ele>292.39999389648437</ele>
        <time>2014-05-21T12:25:02Z</time>
      </trkpt>
      <trkpt lat="43.899245224893093" lon="5.391889465972781">
        <ele>291</ele>
        <time>2014-05-21T12:25:03Z</time>
      </trkpt>
      <trkpt lat="43.899322506040335" lon="5.39193824864924">
        <ele>289.60000610351562</ele>
        <time>2014-05-21T12:25:04Z</time>
      </trkpt>
      <trkpt lat="43.899400625377893" lon="5.391989545896649">
        <ele>288.39999389648437</ele>
        <time>2014-05-21T12:25:05Z</time>
      </trkpt>
      <trkpt lat="43.899554768577218" lon="5.392097253352404">
        <ele>289.60000610351562</ele>
        <time>2014-05-21T12:25:07Z</time>
      </trkpt>
      <trkpt lat="43.899783343076706" lon="5.39224611595273">
        <ele>288.79998779296875</ele>
        <time>2014-05-21T12:25:10Z</time>
      </trkpt>
      <trkpt lat="43.900006804615259" lon="5.39233504794538">
        <ele>289.39999389648437</ele>
        <time>2014-05-21T12:25:13Z</time>
      </trkpt>
      <trkpt lat="43.90014074742794" lon="5.392370335757732">
        <ele>290</ele>
        <time>2014-05-21T12:25:15Z</time>
      </trkpt>
      <trkpt lat="43.900260776281357" lon="5.392402103170753">
        <ele>290.60000610351562</ele>
        <time>2014-05-21T12:25:17Z</time>
      </trkpt>
      <trkpt lat="43.900366136804223" lon="5.392436804249883">
        <ele>291.39999389648437</ele>
        <time>2014-05-21T12:25:19Z</time>
      </trkpt>
      <trkpt lat="43.900413746014237" lon="5.392457088455558">
        <ele>291.79998779296875</ele>
        <time>2014-05-21T12:25:20Z</time>
      </trkpt>
      <trkpt lat="43.900459427386522" lon="5.392477875575423">
        <ele>291.79998779296875</ele>
        <time>2014-05-21T12:25:21Z</time>
      </trkpt>
      <trkpt lat="43.900588927790523" lon="5.392548702657223">
        <ele>293</ele>
        <time>2014-05-21T12:25:24Z</time>
      </trkpt>
      <trkpt lat="43.900789087638259" lon="5.392675437033176">
        <ele>293.39999389648437</ele>
        <time>2014-05-21T12:25:29Z</time>
      </trkpt>
      <trkpt lat="43.900992264971137" lon="5.392806194722652">
        <ele>293.39999389648437</ele>
        <time>2014-05-21T12:25:34Z</time>
      </trkpt>
      <trkpt lat="43.901070216670632" lon="5.392851624637842">
        <ele>293.39999389648437</ele>
        <time>2014-05-21T12:25:36Z</time>
      </trkpt>
      <trkpt lat="43.90119519084692" lon="5.392916919663549">
        <ele>293.60000610351562</ele>
        <time>2014-05-21T12:25:39Z</time>
      </trkpt>
      <trkpt lat="43.901237268000841" lon="5.39293603040278">
        <ele>294</ele>
        <time>2014-05-21T12:25:40Z</time>
      </trkpt>
      <trkpt lat="43.901366265490651" lon="5.392988668754697">
        <ele>294</ele>
        <time>2014-05-21T12:25:43Z</time>
      </trkpt>
      <trkpt lat="43.901603305712342" lon="5.393097633495927">
        <ele>293.60000610351562</ele>
        <time>2014-05-21T12:25:49Z</time>
      </trkpt>
      <trkpt lat="43.901888038963079" lon="5.393219506368041">
        <ele>294.39999389648437</ele>
        <time>2014-05-21T12:25:56Z</time>
      </trkpt>
      <trkpt lat="43.902265140786767" lon="5.393381612375379">
        <ele>294.60000610351562</ele>
        <time>2014-05-21T12:26:04Z</time>
      </trkpt>
      <trkpt lat="43.902649451047182" lon="5.393553441390395">
        <ele>293.79998779296875</ele>
        <time>2014-05-21T12:26:11Z</time>
      </trkpt>
      <trkpt lat="43.902876852080226" lon="5.393662238493562">
        <ele>292.79998779296875</ele>
        <time>2014-05-21T12:26:15Z</time>
      </trkpt>
      <trkpt lat="43.9030871540308" lon="5.393772209063172">
        <ele>292.20001220703125</ele>
        <time>2014-05-21T12:26:19Z</time>
      </trkpt>
      <trkpt lat="43.903411366045475" lon="5.393961472436786">
        <ele>293.79998779296875</ele>
        <time>2014-05-21T12:26:26Z</time>
      </trkpt>
      <trkpt lat="43.903633821755648" lon="5.394112095236778">
        <ele>295</ele>
        <time>2014-05-21T12:26:32Z</time>
      </trkpt>
      <trkpt lat="43.903667433187366" lon="5.394137073308229">
        <ele>295</ele>
        <time>2014-05-21T12:26:33Z</time>
      </trkpt>
      <trkpt lat="43.903865832835436" lon="5.39427487179637">
        <ele>295.60000610351562</ele>
        <time>2014-05-21T12:26:39Z</time>
      </trkpt>
      <trkpt lat="43.903966164216399" lon="5.394336981698871">
        <ele>296.20001220703125</ele>
        <time>2014-05-21T12:26:42Z</time>
      </trkpt>
      <trkpt lat="43.904093317687511" lon="5.394414681941271">
        <ele>296.60000610351562</ele>
        <time>2014-05-21T12:26:46Z</time>
      </trkpt>
      <trkpt lat="43.904151152819395" lon="5.394456842914224">
        <ele>297.60000610351562</ele>
        <time>2014-05-21T12:26:48Z</time>
      </trkpt>
      <trkpt lat="43.904330860823393" lon="5.394527167081833">
        <ele>298</ele>
        <time>2014-05-21T12:26:54Z</time>
      </trkpt>
      <trkpt lat="43.904433120042086" lon="5.394544517621398">
        <ele>298.79998779296875</ele>
        <time>2014-05-21T12:26:57Z</time>
      </trkpt>
      <trkpt lat="43.904539905488491" lon="5.394556922838092">
        <ele>297.79998779296875</ele>
        <time>2014-05-21T12:27:00Z</time>
      </trkpt>
      <trkpt lat="43.904576785862446" lon="5.394557677209377">
        <ele>297.39999389648437</ele>
        <time>2014-05-21T12:27:01Z</time>
      </trkpt>
      <trkpt lat="43.904843246564269" lon="5.394545355811715">
        <ele>297.79998779296875</ele>
        <time>2014-05-21T12:27:09Z</time>
      </trkpt>
      <trkpt lat="43.905037958174944" lon="5.394525239244103">
        <ele>299</ele>
        <time>2014-05-21T12:27:15Z</time>
      </trkpt>
      <trkpt lat="43.905073078349233" lon="5.39452163502574">
        <ele>299</ele>
        <time>2014-05-21T12:27:16Z</time>
      </trkpt>
      <trkpt lat="43.905255468562245" lon="5.394511157646775">
        <ele>297.79998779296875</ele>
        <time>2014-05-21T12:27:21Z</time>
      </trkpt>
      <trkpt lat="43.905391674488783" lon="5.39449330419302">
        <ele>296.79998779296875</ele>
        <time>2014-05-21T12:27:24Z</time>
      </trkpt>
      <trkpt lat="43.905541375279427" lon="5.394467739388347">
        <ele>295.60000610351562</ele>
        <time>2014-05-21T12:27:27Z</time>
      </trkpt>
      <trkpt lat="43.905695602297783" lon="5.394440246745944">
        <ele>294.20001220703125</ele>
        <time>2014-05-21T12:27:30Z</time>
      </trkpt>
      <trkpt lat="43.905750000849366" lon="5.394432786852121">
        <ele>294.20001220703125</ele>
        <time>2014-05-21T12:27:31Z</time>
      </trkpt>
      <trkpt lat="43.906123833730817" lon="5.394378304481506">
        <ele>293.20001220703125</ele>
        <time>2014-05-21T12:27:37Z</time>
      </trkpt>
      <trkpt lat="43.90619533136487" lon="5.394368330016732">
        <ele>293</ele>
        <time>2014-05-21T12:27:38Z</time>
      </trkpt>
      <trkpt lat="43.906432371586561" lon="5.39433061145246">
        <ele>291.20001220703125</ele>
        <time>2014-05-21T12:27:41Z</time>
      </trkpt>
      <trkpt lat="43.906512670218945" lon="5.394323654472828">
        <ele>290.60000610351562</ele>
        <time>2014-05-21T12:27:42Z</time>
      </trkpt>
      <trkpt lat="43.906747698783875" lon="5.394291132688522">
        <ele>290.20001220703125</ele>
        <time>2014-05-21T12:27:45Z</time>
      </trkpt>
      <trkpt lat="43.906984068453312" lon="5.394260790199041">
        <ele>289.20001220703125</ele>
        <time>2014-05-21T12:27:48Z</time>
      </trkpt>
      <trkpt lat="43.907061852514744" lon="5.394248720258474">
        <ele>288.79998779296875</ele>
        <time>2014-05-21T12:27:49Z</time>
      </trkpt>
      <trkpt lat="43.907141815871" lon="5.3942318726331">
        <ele>287.60000610351562</ele>
        <time>2014-05-21T12:27:50Z</time>
      </trkpt>
      <trkpt lat="43.90722194686532" lon="5.394217791035771">
        <ele>286.39999389648437</ele>
        <time>2014-05-21T12:27:51Z</time>
      </trkpt>
      <trkpt lat="43.907565018162131" lon="5.394172193482518">
        <ele>284.60000610351562</ele>
        <time>2014-05-21T12:27:55Z</time>
      </trkpt>
      <trkpt lat="43.907654201611876" lon="5.394158866256475">
        <ele>283</ele>
        <time>2014-05-21T12:27:56Z</time>
      </trkpt>
      <trkpt lat="43.90774330124259" lon="5.394145622849464">
        <ele>282.39999389648438</ele>
        <time>2014-05-21T12:27:57Z</time>
      </trkpt>
      <trkpt lat="43.908104058355093" lon="5.39409164339304">
        <ele>281.79998779296875</ele>
        <time>2014-05-21T12:28:01Z</time>
      </trkpt>
      <trkpt lat="43.908362975344062" lon="5.394051158800721">
        <ele>281.39999389648437</ele>
        <time>2014-05-21T12:28:04Z</time>
      </trkpt>
      <trkpt lat="43.908748459070921" lon="5.39399977773428">
        <ele>282.39999389648438</ele>
        <time>2014-05-21T12:28:09Z</time>
      </trkpt>
      <trkpt lat="43.908818196505308" lon="5.394006734713912">
        <ele>282.39999389648438</ele>
        <time>2014-05-21T12:28:10Z</time>
      </trkpt>
      <trkpt lat="43.909011650830507" lon="5.394061049446464">
        <ele>283</ele>
        <time>2014-05-21T12:28:13Z</time>
      </trkpt>
      <trkpt lat="43.90930644236505" lon="5.394215527921915">
        <ele>281.60000610351562</ele>
        <time>2014-05-21T12:28:18Z</time>
      </trkpt>
      <trkpt lat="43.909411635249853" lon="5.394278727471829">
        <ele>282.79998779296875</ele>
        <time>2014-05-21T12:28:20Z</time>
      </trkpt>
      <trkpt lat="43.909511882811785" lon="5.394337400794029">
        <ele>284.20001220703125</ele>
        <time>2014-05-21T12:28:22Z</time>
      </trkpt>
      <trkpt lat="43.909604586660862" lon="5.394393475726247">
        <ele>285.20001220703125</ele>
        <time>2014-05-21T12:28:24Z</time>
      </trkpt>
      <trkpt lat="43.909648340195417" lon="5.394417112693191">
        <ele>285.39999389648438</ele>
        <time>2014-05-21T12:28:25Z</time>
      </trkpt>
      <trkpt lat="43.909841878339648" lon="5.394535548985004">
        <ele>286.20001220703125</ele>
        <time>2014-05-21T12:28:30Z</time>
      </trkpt>
      <trkpt lat="43.909952268004417" lon="5.394606376066804">
        <ele>287.60000610351562</ele>
        <time>2014-05-21T12:28:33Z</time>
      </trkpt>
      <trkpt lat="43.910176903009415" lon="5.394742749631405">
        <ele>288.79998779296875</ele>
        <time>2014-05-21T12:28:39Z</time>
      </trkpt>
      <trkpt lat="43.910211939364672" lon="5.39476253092289">
        <ele>289</ele>
        <time>2014-05-21T12:28:40Z</time>
      </trkpt>
      <trkpt lat="43.910350659862161" lon="5.394853558391333">
        <ele>289.79998779296875</ele>
        <time>2014-05-21T12:28:45Z</time>
      </trkpt>
      <trkpt lat="43.910398604348302" lon="5.394883481785655">
        <ele>290</ele>
        <time>2014-05-21T12:28:47Z</time>
      </trkpt>
      <trkpt lat="43.910529613494873" lon="5.394958332180977">
        <ele>290.20001220703125</ele>
        <time>2014-05-21T12:28:52Z</time>
      </trkpt>
      <trkpt lat="43.910630950704217" lon="5.395019017159939">
        <ele>291.60000610351562</ele>
        <time>2014-05-21T12:28:57Z</time>
      </trkpt>
      <trkpt lat="43.91064721159637" lon="5.395030081272125">
        <ele>292.20001220703125</ele>
        <time>2014-05-21T12:28:58Z</time>
      </trkpt>
      <trkpt lat="43.910669339820743" lon="5.395047096535564">
        <ele>292.60000610351562</ele>
        <time>2014-05-21T12:29:00Z</time>
      </trkpt>
      <trkpt lat="43.910761959850788" lon="5.395071571692824">
        <ele>293.39999389648437</ele>
        <time>2014-05-21T12:29:49Z</time>
      </trkpt>
      <trkpt lat="43.910821555182338" lon="5.395107194781303">
        <ele>293.60000610351562</ele>
        <time>2014-05-21T12:29:52Z</time>
      </trkpt>
      <trkpt lat="43.91087201423943" lon="5.39513049647212">
        <ele>294.20001220703125</ele>
        <time>2014-05-21T12:29:54Z</time>
      </trkpt>
      <trkpt lat="43.910894310101867" lon="5.395145080983639">
        <ele>294.60000610351562</ele>
        <time>2014-05-21T12:29:55Z</time>
      </trkpt>
      <trkpt lat="43.910918114706874" lon="5.395153043791652">
        <ele>295</ele>
        <time>2014-05-21T12:29:56Z</time>
      </trkpt>
      <trkpt lat="43.911052728071809" lon="5.395234851166606">
        <ele>294.79998779296875</ele>
        <time>2014-05-21T12:30:02Z</time>
      </trkpt>
      <trkpt lat="43.911164039745927" lon="5.395286902785301">
        <ele>296.39999389648438</ele>
        <time>2014-05-21T12:30:07Z</time>
      </trkpt>
      <trkpt lat="43.911183904856443" lon="5.395318334922195">
        <ele>296.79998779296875</ele>
        <time>2014-05-21T12:30:08Z</time>
      </trkpt>
      <trkpt lat="43.911358080804348" lon="5.395591920241714">
        <ele>296</ele>
        <time>2014-05-21T12:30:16Z</time>
      </trkpt>
      <trkpt lat="43.911532675847411" lon="5.395801886916161">
        <ele>295.20001220703125</ele>
        <time>2014-05-21T12:30:22Z</time>
      </trkpt>
      <trkpt lat="43.911629486829042" lon="5.395898027345538">
        <ele>295</ele>
        <time>2014-05-21T12:30:25Z</time>
      </trkpt>
      <trkpt lat="43.911880357190967" lon="5.396187119185925">
        <ele>295.39999389648437</ele>
        <time>2014-05-21T12:30:33Z</time>
      </trkpt>
      <trkpt lat="43.912207586690784" lon="5.39654552936554">
        <ele>296</ele>
        <time>2014-05-21T12:30:43Z</time>
      </trkpt>
      <trkpt lat="43.91224404796958" lon="5.396580314263701">
        <ele>296.60000610351562</ele>
        <time>2014-05-21T12:30:44Z</time>
      </trkpt>
      <trkpt lat="43.912317724898458" lon="5.396638568490744">
        <ele>298.20001220703125</ele>
        <time>2014-05-21T12:30:46Z</time>
      </trkpt>
      <trkpt lat="43.912389893084764" lon="5.396703025326133">
        <ele>299.39999389648438</ele>
        <time>2014-05-21T12:30:48Z</time>
      </trkpt>
      <trkpt lat="43.912467593327165" lon="5.396763458848">
        <ele>300.39999389648437</ele>
        <time>2014-05-21T12:30:50Z</time>
      </trkpt>
      <trkpt lat="43.912540599703789" lon="5.396829675883055">
        <ele>299.20001220703125</ele>
        <time>2014-05-21T12:30:52Z</time>
      </trkpt>
      <trkpt lat="43.912578066810966" lon="5.396860521286726">
        <ele>298</ele>
        <time>2014-05-21T12:30:53Z</time>
      </trkpt>
      <trkpt lat="43.912815609946847" lon="5.397019358351827">
        <ele>298.39999389648437</ele>
        <time>2014-05-21T12:30:59Z</time>
      </trkpt>
      <trkpt lat="43.912900015711784" lon="5.3970708232373">
        <ele>299.20001220703125</ele>
        <time>2014-05-21T12:31:01Z</time>
      </trkpt>
      <trkpt lat="43.913174858316779" lon="5.397220607846975">
        <ele>299.79998779296875</ele>
        <time>2014-05-21T12:31:07Z</time>
      </trkpt>
      <trkpt lat="43.913399241864681" lon="5.397331835702062">
        <ele>300.79998779296875</ele>
        <time>2014-05-21T12:31:12Z</time>
      </trkpt>
      <trkpt lat="43.913440816104412" lon="5.397356143221259">
        <ele>302</ele>
        <time>2014-05-21T12:31:13Z</time>
      </trkpt>
      <trkpt lat="43.913566125556827" lon="5.397424707189202">
        <ele>302.20001220703125</ele>
        <time>2014-05-21T12:31:16Z</time>
      </trkpt>
      <trkpt lat="43.913842476904392" lon="5.397553872317076">
        <ele>302.20001220703125</ele>
        <time>2014-05-21T12:31:23Z</time>
      </trkpt>
      <trkpt lat="43.913916992023587" lon="5.397590417414904">
        <ele>302.79998779296875</ele>
        <time>2014-05-21T12:31:25Z</time>
      </trkpt>
      <trkpt lat="43.913956135511398" lon="5.397605085745454">
        <ele>303.39999389648437</ele>
        <time>2014-05-21T12:31:26Z</time>
      </trkpt>
      <trkpt lat="43.91411648131907" lon="5.397661328315735">
        <ele>304.60000610351562</ele>
        <time>2014-05-21T12:31:30Z</time>
      </trkpt>
      <trkpt lat="43.914193175733089" lon="5.39768404327333">
        <ele>305.20001220703125</ele>
        <time>2014-05-21T12:31:32Z</time>
      </trkpt>
      <trkpt lat="43.914361819624901" lon="5.397726204246283">
        <ele>306</ele>
        <time>2014-05-21T12:31:36Z</time>
      </trkpt>
      <trkpt lat="43.914491403847933" lon="5.397753110155463">
        <ele>305.79998779296875</ele>
        <time>2014-05-21T12:31:39Z</time>
      </trkpt>
      <trkpt lat="43.91481326892972" lon="5.39780231192708">
        <ele>306.79998779296875</ele>
        <time>2014-05-21T12:31:47Z</time>
      </trkpt>
      <trkpt lat="43.914855848997831" lon="5.397809855639935">
        <ele>307</ele>
        <time>2014-05-21T12:31:48Z</time>
      </trkpt>
      <trkpt lat="43.915141923353076" lon="5.397838857024908">
        <ele>307.60000610351562</ele>
        <time>2014-05-21T12:31:55Z</time>
      </trkpt>
      <trkpt lat="43.915301095694304" lon="5.397868864238262">
        <ele>308.20001220703125</ele>
        <time>2014-05-21T12:31:59Z</time>
      </trkpt>
      <trkpt lat="43.915468398481607" lon="5.39788001216948">
        <ele>308.39999389648437</ele>
        <time>2014-05-21T12:32:03Z</time>
      </trkpt>
      <trkpt lat="43.915746677666903" lon="5.397905241698027">
        <ele>309.20001220703125</ele>
        <time>2014-05-21T12:32:10Z</time>
      </trkpt>
      <trkpt lat="43.915829658508301" lon="5.397915802896023">
        <ele>309.39999389648437</ele>
        <time>2014-05-21T12:32:12Z</time>
      </trkpt>
      <trkpt lat="43.915869053453207" lon="5.397917395457625">
        <ele>309.39999389648437</ele>
        <time>2014-05-21T12:32:13Z</time>
      </trkpt>
      <trkpt lat="43.916190164163709" lon="5.397944804280996">
        <ele>310</ele>
        <time>2014-05-21T12:32:21Z</time>
      </trkpt>
      <trkpt lat="43.916351180523634" lon="5.397957880049944">
        <ele>310.39999389648437</ele>
        <time>2014-05-21T12:32:25Z</time>
      </trkpt>
      <trkpt lat="43.916503563523293" lon="5.397990569472313">
        <ele>310.79998779296875</ele>
        <time>2014-05-21T12:32:29Z</time>
      </trkpt>
      <trkpt lat="43.916616886854172" lon="5.398011105135083">
        <ele>311.39999389648437</ele>
        <time>2014-05-21T12:32:32Z</time>
      </trkpt>
      <trkpt lat="43.916865242645144" lon="5.398054523393512">
        <ele>312.39999389648437</ele>
        <time>2014-05-21T12:32:39Z</time>
      </trkpt>
      <trkpt lat="43.916900027543306" lon="5.39806080982089">
        <ele>312.60000610351562</ele>
        <time>2014-05-21T12:32:40Z</time>
      </trkpt>
      <trkpt lat="43.917102869600058" lon="5.398119147866964">
        <ele>313.20001220703125</ele>
        <time>2014-05-21T12:32:46Z</time>
      </trkpt>
      <trkpt lat="43.917297413572669" lon="5.398181509226561">
        <ele>313.79998779296875</ele>
        <time>2014-05-21T12:32:52Z</time>
      </trkpt>
      <trkpt lat="43.917396906763315" lon="5.398222832009196">
        <ele>313.79998779296875</ele>
        <time>2014-05-21T12:32:55Z</time>
      </trkpt>
      <trkpt lat="43.917495058849454" lon="5.398266250267625">
        <ele>314.79998779296875</ele>
        <time>2014-05-21T12:32:58Z</time>
      </trkpt>
      <trkpt lat="43.917714664712548" lon="5.39838426746428">
        <ele>315.39999389648437</ele>
        <time>2014-05-21T12:33:05Z</time>
      </trkpt>
      <trkpt lat="43.917778870090842" lon="5.398416873067617">
        <ele>316.20001220703125</ele>
        <time>2014-05-21T12:33:07Z</time>
      </trkpt>
      <trkpt lat="43.918003253638744" lon="5.398533465340734">
        <ele>316.79998779296875</ele>
        <time>2014-05-21T12:33:14Z</time>
      </trkpt>
      <trkpt lat="43.918135017156601" lon="5.398588199168444">
        <ele>317.39999389648437</ele>
        <time>2014-05-21T12:33:18Z</time>
      </trkpt>
      <trkpt lat="43.918201737105846" lon="5.398621642962098">
        <ele>318.79998779296875</ele>
        <time>2014-05-21T12:33:20Z</time>
      </trkpt>
      <trkpt lat="43.918267199769616" lon="5.398654667660594">
        <ele>319</ele>
        <time>2014-05-21T12:33:22Z</time>
      </trkpt>
      <trkpt lat="43.918524440377951" lon="5.398789532482624">
        <ele>318.60000610351562</ele>
        <time>2014-05-21T12:33:30Z</time>
      </trkpt>
      <trkpt lat="43.918753182515502" lon="5.398892462253571">
        <ele>319.20001220703125</ele>
        <time>2014-05-21T12:33:37Z</time>
      </trkpt>
      <trkpt lat="43.918935405090451" lon="5.398928420618177">
        <ele>319.79998779296875</ele>
        <time>2014-05-21T12:33:42Z</time>
      </trkpt>
      <trkpt lat="43.919055266305804" lon="5.398940574377775">
        <ele>320</ele>
        <time>2014-05-21T12:33:45Z</time>
      </trkpt>
      <trkpt lat="43.91917772591114" lon="5.398939484730363">
        <ele>320.20001220703125</ele>
        <time>2014-05-21T12:33:48Z</time>
      </trkpt>
      <trkpt lat="43.919299347326159" lon="5.398939400911331">
        <ele>321</ele>
        <time>2014-05-21T12:33:51Z</time>
      </trkpt>
      <trkpt lat="43.919417951256037" lon="5.398950213566423">
        <ele>320</ele>
        <time>2014-05-21T12:33:54Z</time>
      </trkpt>
      <trkpt lat="43.919648788869381" lon="5.399004444479942">
        <ele>320.20001220703125</ele>
        <time>2014-05-21T12:34:00Z</time>
      </trkpt>
      <trkpt lat="43.919720873236656" lon="5.399026572704315">
        <ele>321</ele>
        <time>2014-05-21T12:34:02Z</time>
      </trkpt>
      <trkpt lat="43.919903011992574" lon="5.399077283218503">
        <ele>322</ele>
        <time>2014-05-21T12:34:07Z</time>
      </trkpt>
      <trkpt lat="43.919940060004592" lon="5.399086168035865">
        <ele>322.20001220703125</ele>
        <time>2014-05-21T12:34:08Z</time>
      </trkpt>
      <trkpt lat="43.920190762728453" lon="5.399138554930687">
        <ele>323.20001220703125</ele>
        <time>2014-05-21T12:34:15Z</time>
      </trkpt>
      <trkpt lat="43.920436603948474" lon="5.399215081706643">
        <ele>323.20001220703125</ele>
        <time>2014-05-21T12:34:22Z</time>
      </trkpt>
      <trkpt lat="43.920675739645958" lon="5.399294961243868">
        <ele>323.39999389648437</ele>
        <time>2014-05-21T12:34:29Z</time>
      </trkpt>
      <trkpt lat="43.920842790976167" lon="5.399355562403798">
        <ele>324.20001220703125</ele>
        <time>2014-05-21T12:34:34Z</time>
      </trkpt>
      <trkpt lat="43.920912612229586" lon="5.399378528818488">
        <ele>324.79998779296875</ele>
        <time>2014-05-21T12:34:36Z</time>
      </trkpt>
      <trkpt lat="43.921079412102699" lon="5.399437034502626">
        <ele>323.20001220703125</ele>
        <time>2014-05-21T12:34:41Z</time>
      </trkpt>
      <trkpt lat="43.921145461499691" lon="5.39945631287992">
        <ele>323.60000610351562</ele>
        <time>2014-05-21T12:34:43Z</time>
      </trkpt>
      <trkpt lat="43.921176223084331" lon="5.399469053372741">
        <ele>324.39999389648437</ele>
        <time>2014-05-21T12:34:44Z</time>
      </trkpt>
      <trkpt lat="43.921239590272307" lon="5.399493528530002">
        <ele>325.79998779296875</ele>
        <time>2014-05-21T12:34:46Z</time>
      </trkpt>
      <trkpt lat="43.921395996585488" lon="5.399564355611801">
        <ele>326.39999389648437</ele>
        <time>2014-05-21T12:34:51Z</time>
      </trkpt>
      <trkpt lat="43.921626163646579" lon="5.399660412222147">
        <ele>326</ele>
        <time>2014-05-21T12:34:58Z</time>
      </trkpt>
      <trkpt lat="43.921729009598494" lon="5.399699890986085">
        <ele>326.79998779296875</ele>
        <time>2014-05-21T12:35:01Z</time>
      </trkpt>
      <trkpt lat="43.921859012916684" lon="5.399762252345681">
        <ele>326.79998779296875</ele>
        <time>2014-05-21T12:35:05Z</time>
      </trkpt>
      <trkpt lat="43.922092113643885" lon="5.399869121611118">
        <ele>327.60000610351562</ele>
        <time>2014-05-21T12:35:12Z</time>
      </trkpt>
      <trkpt lat="43.922188505530357" lon="5.399924023076892">
        <ele>328</ele>
        <time>2014-05-21T12:35:15Z</time>
      </trkpt>
      <trkpt lat="43.922326806932688" lon="5.400002812966704">
        <ele>328.60000610351562</ele>
        <time>2014-05-21T12:35:19Z</time>
      </trkpt>
      <trkpt lat="43.922455133870244" lon="5.400077663362026">
        <ele>329.20001220703125</ele>
        <time>2014-05-21T12:35:23Z</time>
      </trkpt>
      <trkpt lat="43.922547418624163" lon="5.400140276178718">
        <ele>329</ele>
        <time>2014-05-21T12:35:26Z</time>
      </trkpt>
      <trkpt lat="43.922762079164386" lon="5.400274470448494">
        <ele>329.20001220703125</ele>
        <time>2014-05-21T12:35:33Z</time>
      </trkpt>
      <trkpt lat="43.922998532652855" lon="5.400439174845815">
        <ele>330</ele>
        <time>2014-05-21T12:35:41Z</time>
      </trkpt>
      <trkpt lat="43.923061899840832" lon="5.400484018027782">
        <ele>330.39999389648438</ele>
        <time>2014-05-21T12:35:43Z</time>
      </trkpt>
      <trkpt lat="43.923228951171041" lon="5.40059725753963">
        <ele>330.79998779296875</ele>
        <time>2014-05-21T12:35:49Z</time>
      </trkpt>
      <trkpt lat="43.923346633091569" lon="5.400684177875519">
        <ele>331.39999389648437</ele>
        <time>2014-05-21T12:35:53Z</time>
      </trkpt>
      <trkpt lat="43.923477223142982" lon="5.400749053806067">
        <ele>331.60000610351562</ele>
        <time>2014-05-21T12:35:57Z</time>
      </trkpt>
      <trkpt lat="43.923631785437465" lon="5.400798758491874">
        <ele>332.79998779296875</ele>
        <time>2014-05-21T12:36:02Z</time>
      </trkpt>
      <trkpt lat="43.923696493729949" lon="5.400822898373008">
        <ele>333</ele>
        <time>2014-05-21T12:36:04Z</time>
      </trkpt>
      <trkpt lat="43.923843177035451" lon="5.40087042376399">
        <ele>333.79998779296875</ele>
        <time>2014-05-21T12:36:09Z</time>
      </trkpt>
      <trkpt lat="43.923901934176683" lon="5.400883499532938">
        <ele>333.79998779296875</ele>
        <time>2014-05-21T12:36:11Z</time>
      </trkpt>
      <trkpt lat="43.924032859504223" lon="5.400930102914572">
        <ele>334.39999389648437</ele>
        <time>2014-05-21T12:36:17Z</time>
      </trkpt>
      <trkpt lat="43.924058927223086" lon="5.40095541626215">
        <ele>334.79998779296875</ele>
        <time>2014-05-21T12:36:19Z</time>
      </trkpt>
      <trkpt lat="43.924150876700878" lon="5.401002522557974">
        <ele>335</ele>
        <time>2014-05-21T12:36:23Z</time>
      </trkpt>
      <trkpt lat="43.924347097054124" lon="5.401043510064483">
        <ele>335.20001220703125</ele>
        <time>2014-05-21T12:36:30Z</time>
      </trkpt>
      <trkpt lat="43.924588663503528" lon="5.401087515056133">
        <ele>336</ele>
        <time>2014-05-21T12:36:38Z</time>
      </trkpt>
      <trkpt lat="43.924771137535572" lon="5.401142919436097">
        <ele>336.60000610351562</ele>
        <time>2014-05-21T12:36:44Z</time>
      </trkpt>
      <trkpt lat="43.924834337085485" lon="5.401163036003709">
        <ele>337</ele>
        <time>2014-05-21T12:36:46Z</time>
      </trkpt>
      <trkpt lat="43.925052434206009" lon="5.401205448433757">
        <ele>337.60000610351562</ele>
        <time>2014-05-21T12:36:53Z</time>
      </trkpt>
      <trkpt lat="43.92523574642837" lon="5.401243334636092">
        <ele>338.39999389648437</ele>
        <time>2014-05-21T12:36:59Z</time>
      </trkpt>
      <trkpt lat="43.9252670109272" lon="5.401250878348947">
        <ele>338.60000610351562</ele>
        <time>2014-05-21T12:37:00Z</time>
      </trkpt>
      <trkpt lat="43.925388045608997" lon="5.40129597298801">
        <ele>339.39999389648438</ele>
        <time>2014-05-21T12:37:04Z</time>
      </trkpt>
      <trkpt lat="43.925488376989961" lon="5.401318687945604">
        <ele>339.39999389648438</ele>
        <time>2014-05-21T12:37:07Z</time>
      </trkpt>
      <trkpt lat="43.925685184076428" lon="5.401352969929576">
        <ele>339.79998779296875</ele>
        <time>2014-05-21T12:37:13Z</time>
      </trkpt>
      <trkpt lat="43.925787024199963" lon="5.401375349611044">
        <ele>340.39999389648437</ele>
        <time>2014-05-21T12:37:16Z</time>
      </trkpt>
      <trkpt lat="43.925918284803629" lon="5.401403680443764">
        <ele>341</ele>
        <time>2014-05-21T12:37:20Z</time>
      </trkpt>
      <trkpt lat="43.92614308744669" lon="5.401455983519554">
        <ele>340.79998779296875</ele>
        <time>2014-05-21T12:37:27Z</time>
      </trkpt>
      <trkpt lat="43.926208717748523" lon="5.401471573859453">
        <ele>341.60000610351562</ele>
        <time>2014-05-21T12:37:29Z</time>
      </trkpt>
      <trkpt lat="43.926404770463705" lon="5.401510717347264">
        <ele>342.39999389648437</ele>
        <time>2014-05-21T12:37:35Z</time>
      </trkpt>
      <trkpt lat="43.92651641741395" lon="5.401421366259456">
        <ele>342.79998779296875</ele>
        <time>2014-05-21T12:37:39Z</time>
      </trkpt>
      <trkpt lat="43.926663435995579" lon="5.401190361008048">
        <ele>343.79998779296875</ele>
        <time>2014-05-21T12:37:45Z</time>
      </trkpt>
      <trkpt lat="43.926709704101086" lon="5.401114756241441">
        <ele>343.79998779296875</ele>
        <time>2014-05-21T12:37:47Z</time>
      </trkpt>
      <trkpt lat="43.926856303587556" lon="5.40093001909554">
        <ele>344.60000610351562</ele>
        <time>2014-05-21T12:37:52Z</time>
      </trkpt>
      <trkpt lat="43.926980271935463" lon="5.400782832875848">
        <ele>345</ele>
        <time>2014-05-21T12:37:56Z</time>
      </trkpt>
      <trkpt lat="43.927171295508742" lon="5.400545373558998">
        <ele>344.79998779296875</ele>
        <time>2014-05-21T12:38:02Z</time>
      </trkpt>
      <trkpt lat="43.927445467561483" lon="5.400173971429467">
        <ele>346</ele>
        <time>2014-05-21T12:38:10Z</time>
      </trkpt>
      <trkpt lat="43.927514366805553" lon="5.400087805464864">
        <ele>346</ele>
        <time>2014-05-21T12:38:12Z</time>
      </trkpt>
      <trkpt lat="43.927725926041603" lon="5.399820422753692">
        <ele>346.60000610351562</ele>
        <time>2014-05-21T12:38:18Z</time>
      </trkpt>
      <trkpt lat="43.927823910489678" lon="5.39970793761313">
        <ele>347.39999389648437</ele>
        <time>2014-05-21T12:38:21Z</time>
      </trkpt>
      <trkpt lat="43.9279695879668" lon="5.399542478844523">
        <ele>348.20001220703125</ele>
        <time>2014-05-21T12:38:26Z</time>
      </trkpt>
      <trkpt lat="43.927995655685663" lon="5.399508448317647">
        <ele>348.60000610351562</ele>
        <time>2014-05-21T12:38:27Z</time>
      </trkpt>
      <trkpt lat="43.928107973188162" lon="5.399334356188774">
        <ele>349.60000610351562</ele>
        <time>2014-05-21T12:38:32Z</time>
      </trkpt>
      <trkpt lat="43.92812792211771" lon="5.399308959022164">
        <ele>349.79998779296875</ele>
        <time>2014-05-21T12:38:33Z</time>
      </trkpt>
      <trkpt lat="43.928178213536739" lon="5.399222876876593">
        <ele>351</ele>
        <time>2014-05-21T12:38:36Z</time>
      </trkpt>
      <trkpt lat="43.928236719220877" lon="5.399101674556732">
        <ele>352</ele>
        <time>2014-05-21T12:38:40Z</time>
      </trkpt>
      <trkpt lat="43.928344594314694" lon="5.398948956280947">
        <ele>352.60000610351562</ele>
        <time>2014-05-21T12:38:46Z</time>
      </trkpt>
      <trkpt lat="43.928398573771119" lon="5.398881565779448">
        <ele>353</ele>
        <time>2014-05-21T12:38:49Z</time>
      </trkpt>
      <trkpt lat="43.928465964272618" lon="5.398817611858249">
        <ele>353</ele>
        <time>2014-05-21T12:38:52Z</time>
      </trkpt>
      <trkpt lat="43.928610803559422" lon="5.398682160302997">
        <ele>353.39999389648438</ele>
        <time>2014-05-21T12:38:58Z</time>
      </trkpt>
      <trkpt lat="43.92870937474072" lon="5.398601023480296">
        <ele>354.60000610351562</ele>
        <time>2014-05-21T12:39:02Z</time>
      </trkpt>
      <trkpt lat="43.928813813254237" lon="5.39853036403656">
        <ele>354.20001220703125</ele>
        <time>2014-05-21T12:39:06Z</time>
      </trkpt>
      <trkpt lat="43.929013637825847" lon="5.398374879732728">
        <ele>355.60000610351562</ele>
        <time>2014-05-21T12:39:14Z</time>
      </trkpt>
      <trkpt lat="43.929234081879258" lon="5.398298436775804">
        <ele>356.39999389648438</ele>
        <time>2014-05-21T12:39:22Z</time>
      </trkpt>
      <trkpt lat="43.929304238408804" lon="5.398261975497007">
        <ele>356.79998779296875</ele>
        <time>2014-05-21T12:39:25Z</time>
      </trkpt>
      <trkpt lat="43.929376071318984" lon="5.398233812302351">
        <ele>356.60000610351562</ele>
        <time>2014-05-21T12:39:28Z</time>
      </trkpt>
      <trkpt lat="43.929564412683249" lon="5.398135827854276">
        <ele>357</ele>
        <time>2014-05-21T12:39:35Z</time>
      </trkpt>
      <trkpt lat="43.929795250296593" lon="5.398050500079989">
        <ele>357.39999389648437</ele>
        <time>2014-05-21T12:39:43Z</time>
      </trkpt>
      <trkpt lat="43.929872196167707" lon="5.398020073771477">
        <ele>358</ele>
        <time>2014-05-21T12:39:46Z</time>
      </trkpt>
      <trkpt lat="43.929942017421126" lon="5.3979860432446">
        <ele>357.60000610351562</ele>
        <time>2014-05-21T12:39:49Z</time>
      </trkpt>
      <trkpt lat="43.930070009082556" lon="5.397906582802534">
        <ele>358.60000610351562</ele>
        <time>2014-05-21T12:39:55Z</time>
      </trkpt>
      <trkpt lat="43.930116528645158" lon="5.397875402122736">
        <ele>359.39999389648437</ele>
        <time>2014-05-21T12:39:57Z</time>
      </trkpt>
      <trkpt lat="43.930190373212099" lon="5.397828044369817">
        <ele>360.79998779296875</ele>
        <time>2014-05-21T12:40:00Z</time>
      </trkpt>
      <trkpt lat="43.930240832269192" lon="5.397786973044276">
        <ele>361.20001220703125</ele>
        <time>2014-05-21T12:40:02Z</time>
      </trkpt>
      <trkpt lat="43.930447027087212" lon="5.397654455155134">
        <ele>361.60000610351562</ele>
        <time>2014-05-21T12:40:09Z</time>
      </trkpt>
      <trkpt lat="43.930613407865167" lon="5.397560745477676">
        <ele>362</ele>
        <time>2014-05-21T12:40:14Z</time>
      </trkpt>
      <trkpt lat="43.930645762011409" lon="5.397548004984856">
        <ele>361.79998779296875</ele>
        <time>2014-05-21T12:40:15Z</time>
      </trkpt>
      <trkpt lat="43.93073720857501" lon="5.397509532049298">
        <ele>361</ele>
        <time>2014-05-21T12:40:18Z</time>
      </trkpt>
      <trkpt lat="43.93083343282342" lon="5.397469801828265">
        <ele>361.79998779296875</ele>
        <time>2014-05-21T12:40:21Z</time>
      </trkpt>
      <trkpt lat="43.930924795567989" lon="5.397435771301389">
        <ele>361</ele>
        <time>2014-05-21T12:40:23Z</time>
      </trkpt>
      <trkpt lat="43.931063348427415" lon="5.3973781876266">
        <ele>360.20001220703125</ele>
        <time>2014-05-21T12:40:26Z</time>
      </trkpt>
      <trkpt lat="43.931161165237427" lon="5.397339798510075">
        <ele>359.79998779296875</ele>
        <time>2014-05-21T12:40:28Z</time>
      </trkpt>
      <trkpt lat="43.931360654532909" lon="5.397258996963501">
        <ele>358.39999389648437</ele>
        <time>2014-05-21T12:40:32Z</time>
      </trkpt>
      <trkpt lat="43.931585373356938" lon="5.397162102162838">
        <ele>357.20001220703125</ele>
        <time>2014-05-21T12:40:36Z</time>
      </trkpt>
      <trkpt lat="43.931703977286816" lon="5.397109128534794">
        <ele>356.79998779296875</ele>
        <time>2014-05-21T12:40:38Z</time>
      </trkpt>
      <trkpt lat="43.931810930371284" lon="5.397071745246649">
        <ele>356</ele>
        <time>2014-05-21T12:40:40Z</time>
      </trkpt>
      <trkpt lat="43.931950489059091" lon="5.397010808810592">
        <ele>356.60000610351562</ele>
        <time>2014-05-21T12:40:43Z</time>
      </trkpt>
      <trkpt lat="43.932255255058408" lon="5.396837135776877">
        <ele>356.20001220703125</ele>
        <time>2014-05-21T12:40:49Z</time>
      </trkpt>
      <trkpt lat="43.932393556460738" lon="5.396625073626638">
        <ele>354</ele>
        <time>2014-05-21T12:40:52Z</time>
      </trkpt>
      <trkpt lat="43.932428173720837" lon="5.396538740023971">
        <ele>353</ele>
        <time>2014-05-21T12:40:53Z</time>
      </trkpt>
      <trkpt lat="43.932471508160233" lon="5.39645173586905">
        <ele>352.39999389648437</ele>
        <time>2014-05-21T12:40:54Z</time>
      </trkpt>
      <trkpt lat="43.932647360488772" lon="5.396003555506468">
        <ele>351.20001220703125</ele>
        <time>2014-05-21T12:40:59Z</time>
      </trkpt>
      <trkpt lat="43.932673679664731" lon="5.395913533866406">
        <ele>351.39999389648437</ele>
        <time>2014-05-21T12:41:00Z</time>
      </trkpt>
      <trkpt lat="43.932700920850039" lon="5.395823596045375">
        <ele>351</ele>
        <time>2014-05-21T12:41:01Z</time>
      </trkpt>
      <trkpt lat="43.93286319449544" lon="5.395316323265433">
        <ele>351.39999389648437</ele>
        <time>2014-05-21T12:41:07Z</time>
      </trkpt>
      <trkpt lat="43.932951958850026" lon="5.39508892223239">
        <ele>352.20001220703125</ele>
        <time>2014-05-21T12:41:10Z</time>
      </trkpt>
      <trkpt lat="43.932991856709123" lon="5.395026728510857">
        <ele>352.20001220703125</ele>
        <time>2014-05-21T12:41:11Z</time>
      </trkpt>
      <trkpt lat="43.933072322979569" lon="5.394910387694836">
        <ele>352</ele>
        <time>2014-05-21T12:41:13Z</time>
      </trkpt>
      <trkpt lat="43.933339286595583" lon="5.394595060497522">
        <ele>351.79998779296875</ele>
        <time>2014-05-21T12:41:20Z</time>
      </trkpt>
      <trkpt lat="43.933560736477375" lon="5.394401270896196">
        <ele>351.79998779296875</ele>
        <time>2014-05-21T12:41:26Z</time>
      </trkpt>
      <trkpt lat="43.933595269918442" lon="5.394368413835764">
        <ele>351.79998779296875</ele>
        <time>2014-05-21T12:41:27Z</time>
      </trkpt>
      <trkpt lat="43.933697529137135" lon="5.394289121031761">
        <ele>351</ele>
        <time>2014-05-21T12:41:30Z</time>
      </trkpt>
      <trkpt lat="43.933821162208915" lon="5.394196752458811">
        <ele>351.39999389648437</ele>
        <time>2014-05-21T12:41:34Z</time>
      </trkpt>
      <trkpt lat="43.934035152196884" lon="5.394030790776014">
        <ele>351.20001220703125</ele>
        <time>2014-05-21T12:41:42Z</time>
      </trkpt>
      <trkpt lat="43.934192648157477" lon="5.393915204331279">
        <ele>351.60000610351562</ele>
        <time>2014-05-21T12:41:48Z</time>
      </trkpt>
      <trkpt lat="43.934430610388517" lon="5.393723929300904">
        <ele>351.39999389648437</ele>
        <time>2014-05-21T12:41:56Z</time>
      </trkpt>
      <trkpt lat="43.934596152976155" lon="5.393583616241813">
        <ele>351.39999389648437</ele>
        <time>2014-05-21T12:42:02Z</time>
      </trkpt>
      <trkpt lat="43.934721210971475" lon="5.393496109172702">
        <ele>351.60000610351562</ele>
        <time>2014-05-21T12:42:07Z</time>
      </trkpt>
      <trkpt lat="43.934965375810862" lon="5.393304331228137">
        <ele>351.39999389648437</ele>
        <time>2014-05-21T12:42:16Z</time>
      </trkpt>
      <trkpt lat="43.935139551758766" lon="5.393184302374721">
        <ele>351.79998779296875</ele>
        <time>2014-05-21T12:42:21Z</time>
      </trkpt>
      <trkpt lat="43.93541045486927" lon="5.392952961847186">
        <ele>351.20001220703125</ele>
        <time>2014-05-21T12:42:29Z</time>
      </trkpt>
      <trkpt lat="43.935661828145385" lon="5.392657248303294">
        <ele>350</ele>
        <time>2014-05-21T12:42:37Z</time>
      </trkpt>
      <trkpt lat="43.93585704267025" lon="5.392372766509652">
        <ele>348.60000610351562</ele>
        <time>2014-05-21T12:42:43Z</time>
      </trkpt>
      <trkpt lat="43.936046725139022" lon="5.392048303037882">
        <ele>348</ele>
        <time>2014-05-21T12:42:50Z</time>
      </trkpt>
      <trkpt lat="43.936102129518986" lon="5.391916204243898">
        <ele>347.20001220703125</ele>
        <time>2014-05-21T12:42:53Z</time>
      </trkpt>
      <trkpt lat="43.936168011277914" lon="5.391783183440566">
        <ele>346.39999389648437</ele>
        <time>2014-05-21T12:42:55Z</time>
      </trkpt>
      <trkpt lat="43.936204137280583" lon="5.391706991940737">
        <ele>345.79998779296875</ele>
        <time>2014-05-21T12:42:56Z</time>
      </trkpt>
      <trkpt lat="43.936275132000446" lon="5.391549998894334">
        <ele>344.60000610351562</ele>
        <time>2014-05-21T12:42:58Z</time>
      </trkpt>
      <trkpt lat="43.936339756473899" lon="5.391386300325394">
        <ele>343.60000610351562</ele>
        <time>2014-05-21T12:43:00Z</time>
      </trkpt>
      <trkpt lat="43.93637009896338" lon="5.391308097168803">
        <ele>343.20001220703125</ele>
        <time>2014-05-21T12:43:01Z</time>
      </trkpt>
      <trkpt lat="43.936584759503603" lon="5.390822701156139">
        <ele>343</ele>
        <time>2014-05-21T12:43:08Z</time>
      </trkpt>
      <trkpt lat="43.936666902154684" lon="5.39064098149538">
        <ele>344.60000610351562</ele>
        <time>2014-05-21T12:43:11Z</time>
      </trkpt>
      <trkpt lat="43.936737645417452" lon="5.390479462221265">
        <ele>344.60000610351562</ele>
        <time>2014-05-21T12:43:14Z</time>
      </trkpt>
      <trkpt lat="43.936840826645494" lon="5.390254240483046">
        <ele>345.79998779296875</ele>
        <time>2014-05-21T12:43:19Z</time>
      </trkpt>
      <trkpt lat="43.936858847737312" lon="5.390216689556837">
        <ele>346.20001220703125</ele>
        <time>2014-05-21T12:43:20Z</time>
      </trkpt>
      <trkpt lat="43.936884915456176" lon="5.390145527198911">
        <ele>347.20001220703125</ele>
        <time>2014-05-21T12:43:22Z</time>
      </trkpt>
      <trkpt lat="43.936910899356008" lon="5.390018960461021">
        <ele>348</ele>
        <time>2014-05-21T12:43:26Z</time>
      </trkpt>
      <trkpt lat="43.936932859942317" lon="5.389958443120122">
        <ele>348.39999389648437</ele>
        <time>2014-05-21T12:43:28Z</time>
      </trkpt>
      <trkpt lat="43.936973176896572" lon="5.389810334891081">
        <ele>348.60000610351562</ele>
        <time>2014-05-21T12:43:32Z</time>
      </trkpt>
      <trkpt lat="43.936991030350327" lon="5.389732802286744">
        <ele>350</ele>
        <time>2014-05-21T12:43:34Z</time>
      </trkpt>
      <trkpt lat="43.9370874222368" lon="5.389494253322482">
        <ele>350.60000610351562</ele>
        <time>2014-05-21T12:43:41Z</time>
      </trkpt>
      <trkpt lat="43.937135869637132" lon="5.389414709061384">
        <ele>351.20001220703125</ele>
        <time>2014-05-21T12:43:44Z</time>
      </trkpt>
      <trkpt lat="43.937204517424107" lon="5.3893241006881">
        <ele>352</ele>
        <time>2014-05-21T12:43:48Z</time>
      </trkpt>
      <trkpt lat="43.937241900712252" lon="5.389286214485765">
        <ele>352.39999389648437</ele>
        <time>2014-05-21T12:43:50Z</time>
      </trkpt>
      <trkpt lat="43.937335610389709" lon="5.389200048521161">
        <ele>352.60000610351562</ele>
        <time>2014-05-21T12:43:56Z</time>
      </trkpt>
      <trkpt lat="43.937390511855483" lon="5.389154367148876">
        <ele>353.39999389648438</ele>
        <time>2014-05-21T12:44:00Z</time>
      </trkpt>
      <trkpt lat="43.937426386401057" lon="5.389131316915155">
        <ele>353.20001220703125</ele>
        <time>2014-05-21T12:44:02Z</time>
      </trkpt>
      <trkpt lat="43.937594695016742" lon="5.389007013291121">
        <ele>354</ele>
        <time>2014-05-21T12:44:11Z</time>
      </trkpt>
      <trkpt lat="43.937661163508892" lon="5.38896644487977">
        <ele>354.39999389648437</ele>
        <time>2014-05-21T12:44:14Z</time>
      </trkpt>
      <trkpt lat="43.937745233997703" lon="5.388905927538872">
        <ele>355.60000610351562</ele>
        <time>2014-05-21T12:44:18Z</time>
      </trkpt>
      <trkpt lat="43.937936257570982" lon="5.388794029131532">
        <ele>356.20001220703125</ele>
        <time>2014-05-21T12:44:27Z</time>
      </trkpt>
      <trkpt lat="43.938036505132914" lon="5.388732589781284">
        <ele>356.79998779296875</ele>
        <time>2014-05-21T12:44:32Z</time>
      </trkpt>
      <trkpt lat="43.938080761581659" lon="5.388707527890801">
        <ele>357.20001220703125</ele>
        <time>2014-05-21T12:44:34Z</time>
      </trkpt>
      <trkpt lat="43.938170112669468" lon="5.388658996671438">
        <ele>357.79998779296875</ele>
        <time>2014-05-21T12:44:38Z</time>
      </trkpt>
      <trkpt lat="43.938248818740249" lon="5.388610884547234">
        <ele>358.20001220703125</ele>
        <time>2014-05-21T12:44:42Z</time>
      </trkpt>
      <trkpt lat="43.938307240605354" lon="5.388577021658421">
        <ele>358.79998779296875</ele>
        <time>2014-05-21T12:44:45Z</time>
      </trkpt>
      <trkpt lat="43.938382174819708" lon="5.388537207618356">
        <ele>359</ele>
        <time>2014-05-21T12:44:49Z</time>
      </trkpt>
      <trkpt lat="43.938513435423374" lon="5.388454310595989">
        <ele>359.79998779296875</ele>
        <time>2014-05-21T12:44:56Z</time>
      </trkpt>
      <trkpt lat="43.938593314960599" lon="5.388394966721535">
        <ele>361</ele>
        <time>2014-05-21T12:45:00Z</time>
      </trkpt>
      <trkpt lat="43.938643019646406" lon="5.38835464976728">
        <ele>361.39999389648437</ele>
        <time>2014-05-21T12:45:03Z</time>
      </trkpt>
      <trkpt lat="43.93869255669415" lon="5.388333946466446">
        <ele>361.79998779296875</ele>
        <time>2014-05-21T12:45:06Z</time>
      </trkpt>
      <trkpt lat="43.93872189335525" lon="5.388319529592991">
        <ele>362.20001220703125</ele>
        <time>2014-05-21T12:45:08Z</time>
      </trkpt>
      <trkpt lat="43.938756259158254" lon="5.388307878747582">
        <ele>363.20001220703125</ele>
        <time>2014-05-21T12:45:10Z</time>
      </trkpt>
      <trkpt lat="43.93877268768847" lon="5.388300502672792">
        <ele>363.60000610351562</ele>
        <time>2014-05-21T12:45:11Z</time>
      </trkpt>
      <trkpt lat="43.938814513385296" lon="5.388267729431391">
        <ele>364.79998779296875</ele>
        <time>2014-05-21T12:45:14Z</time>
      </trkpt>
      <trkpt lat="43.938841922208667" lon="5.388222970068455">
        <ele>365</ele>
        <time>2014-05-21T12:45:16Z</time>
      </trkpt>
      <trkpt lat="43.938854997977614" lon="5.38814065977931">
        <ele>365.20001220703125</ele>
        <time>2014-05-21T12:45:18Z</time>
      </trkpt>
      <trkpt lat="43.938874611631036" lon="5.387919628992677">
        <ele>365.79998779296875</ele>
        <time>2014-05-21T12:45:23Z</time>
      </trkpt>
      <trkpt lat="43.938883580267429" lon="5.387757522985339">
        <ele>366.79998779296875</ele>
        <time>2014-05-21T12:45:27Z</time>
      </trkpt>
      <trkpt lat="43.938885424286127" lon="5.387717206031084">
        <ele>367.20001220703125</ele>
        <time>2014-05-21T12:45:28Z</time>
      </trkpt>
      <trkpt lat="43.938891878351569" lon="5.387566247954965">
        <ele>368.20001220703125</ele>
        <time>2014-05-21T12:45:32Z</time>
      </trkpt>
      <trkpt lat="43.938899841159582" lon="5.387496259063482">
        <ele>368.20001220703125</ele>
        <time>2014-05-21T12:45:34Z</time>
      </trkpt>
      <trkpt lat="43.938905457034707" lon="5.38727673701942">
        <ele>369.39999389648437</ele>
        <time>2014-05-21T12:45:40Z</time>
      </trkpt>
      <trkpt lat="43.938908809795976" lon="5.387209849432111">
        <ele>369.60000610351562</ele>
        <time>2014-05-21T12:45:42Z</time>
      </trkpt>
      <trkpt lat="43.938971590250731" lon="5.387109853327274">
        <ele>370.20001220703125</ele>
        <time>2014-05-21T12:45:46Z</time>
      </trkpt>
      <trkpt lat="43.938998244702816" lon="5.38710180670023">
        <ele>370.39999389648438</ele>
        <time>2014-05-21T12:45:47Z</time>
      </trkpt>
      <trkpt lat="43.939027916640043" lon="5.387098956853151">
        <ele>370.39999389648438</ele>
        <time>2014-05-21T12:45:48Z</time>
      </trkpt>
      <trkpt lat="43.93910544924438" lon="5.38711111061275">
        <ele>370.79998779296875</ele>
        <time>2014-05-21T12:45:51Z</time>
      </trkpt>
      <trkpt lat="43.939133947715163" lon="5.387114966288209">
        <ele>370.79998779296875</ele>
        <time>2014-05-21T12:45:52Z</time>
      </trkpt>
      <trkpt lat="43.939364366233349" lon="5.387158803641796">
        <ele>371</ele>
        <time>2014-05-21T12:45:59Z</time>
      </trkpt>
      <trkpt lat="43.939465200528502" lon="5.387178752571344">
        <ele>371.79998779296875</ele>
        <time>2014-05-21T12:46:02Z</time>
      </trkpt>
      <trkpt lat="43.939642393961549" lon="5.387190235778689">
        <ele>372.39999389648437</ele>
        <time>2014-05-21T12:46:07Z</time>
      </trkpt>
      <trkpt lat="43.939742809161544" lon="5.387206831946969">
        <ele>372.79998779296875</ele>
        <time>2014-05-21T12:46:10Z</time>
      </trkpt>
      <trkpt lat="43.939910866320133" lon="5.387231390923262">
        <ele>373.20001220703125</ele>
        <time>2014-05-21T12:46:15Z</time>
      </trkpt>
      <trkpt lat="43.939975071698427" lon="5.387235078960657">
        <ele>374</ele>
        <time>2014-05-21T12:46:17Z</time>
      </trkpt>
      <trkpt lat="43.940140446648002" lon="5.387256368994713">
        <ele>374.60000610351562</ele>
        <time>2014-05-21T12:46:22Z</time>
      </trkpt>
      <trkpt lat="43.94024295732379" lon="5.387269947677851">
        <ele>375.79998779296875</ele>
        <time>2014-05-21T12:46:25Z</time>
      </trkpt>
      <trkpt lat="43.940310096368194" lon="5.38728310726583">
        <ele>377</ele>
        <time>2014-05-21T12:46:27Z</time>
      </trkpt>
      <trkpt lat="43.940438507124782" lon="5.387304397299886">
        <ele>377</ele>
        <time>2014-05-21T12:46:31Z</time>
      </trkpt>
      <trkpt lat="43.940696585923433" lon="5.387340942397714">
        <ele>378</ele>
        <time>2014-05-21T12:46:39Z</time>
      </trkpt>
      <trkpt lat="43.940728940069675" lon="5.387345887720585">
        <ele>377.79998779296875</ele>
        <time>2014-05-21T12:46:40Z</time>
      </trkpt>
      <trkpt lat="43.940865565091372" lon="5.387366088107228">
        <ele>379.20001220703125</ele>
        <time>2014-05-21T12:46:44Z</time>
      </trkpt>
      <trkpt lat="43.941032364964485" lon="5.387379080057144">
        <ele>379.20001220703125</ele>
        <time>2014-05-21T12:46:49Z</time>
      </trkpt>
      <trkpt lat="43.941240152344108" lon="5.387409757822752">
        <ele>380.20001220703125</ele>
        <time>2014-05-21T12:46:56Z</time>
      </trkpt>
      <trkpt lat="43.941270243376493" lon="5.387413110584021">
        <ele>380.20001220703125</ele>
        <time>2014-05-21T12:46:57Z</time>
      </trkpt>
      <trkpt lat="43.941492699086666" lon="5.387440184131265">
        <ele>381</ele>
        <time>2014-05-21T12:47:05Z</time>
      </trkpt>
      <trkpt lat="43.94155053421855" lon="5.387428365647793">
        <ele>381.20001220703125</ele>
        <time>2014-05-21T12:47:07Z</time>
      </trkpt>
      <trkpt lat="43.94166293554008" lon="5.387381846085191">
        <ele>381.60000610351562</ele>
        <time>2014-05-21T12:47:11Z</time>
      </trkpt>
      <trkpt lat="43.941757399588823" lon="5.387305906042457">
        <ele>382.39999389648437</ele>
        <time>2014-05-21T12:47:15Z</time>
      </trkpt>
      <trkpt lat="43.941826047375798" lon="5.387241533026099">
        <ele>382.79998779296875</ele>
        <time>2014-05-21T12:47:18Z</time>
      </trkpt>
      <trkpt lat="43.941941550001502" lon="5.38713357411325">
        <ele>383.60000610351562</ele>
        <time>2014-05-21T12:47:23Z</time>
      </trkpt>
      <trkpt lat="43.942012041807175" lon="5.387076996266842">
        <ele>384.20001220703125</ele>
        <time>2014-05-21T12:47:26Z</time>
      </trkpt>
      <trkpt lat="43.942083204165101" lon="5.38701337762177">
        <ele>385</ele>
        <time>2014-05-21T12:47:29Z</time>
      </trkpt>
      <trkpt lat="43.942172974348068" lon="5.386916063725948">
        <ele>386</ele>
        <time>2014-05-21T12:47:33Z</time>
      </trkpt>
      <trkpt lat="43.942197281867266" lon="5.3868961147964">
        <ele>386.20001220703125</ele>
        <time>2014-05-21T12:47:34Z</time>
      </trkpt>
      <trkpt lat="43.942356621846557" lon="5.386750437319279">
        <ele>386.79998779296875</ele>
        <time>2014-05-21T12:47:41Z</time>
      </trkpt>
      <trkpt lat="43.942379336804152" lon="5.386730488389731">
        <ele>387</ele>
        <time>2014-05-21T12:47:42Z</time>
      </trkpt>
      <trkpt lat="43.942491402849555" lon="5.386626720428467">
        <ele>388</ele>
        <time>2014-05-21T12:47:47Z</time>
      </trkpt>
      <trkpt lat="43.942514033988118" lon="5.386608112603426">
        <ele>388.20001220703125</ele>
        <time>2014-05-21T12:47:48Z</time>
      </trkpt>
      <trkpt lat="43.942650239914656" lon="5.386474505066872">
        <ele>388.79998779296875</ele>
        <time>2014-05-21T12:47:54Z</time>
      </trkpt>
      <trkpt lat="43.942699022591114" lon="5.386428404599428">
        <ele>389.20001220703125</ele>
        <time>2014-05-21T12:47:56Z</time>
      </trkpt>
      <trkpt lat="43.942816620692611" lon="5.386313404887915">
        <ele>390.20001220703125</ele>
        <time>2014-05-21T12:48:01Z</time>
      </trkpt>
      <trkpt lat="43.942840760573745" lon="5.3862916957587">
        <ele>390.60000610351562</ele>
        <time>2014-05-21T12:48:02Z</time>
      </trkpt>
      <trkpt lat="43.943007308989763" lon="5.386154986917973">
        <ele>391.79998779296875</ele>
        <time>2014-05-21T12:48:09Z</time>
      </trkpt>
      <trkpt lat="43.943153405562043" lon="5.386112993583083">
        <ele>392.39999389648437</ele>
        <time>2014-05-21T12:48:14Z</time>
      </trkpt>
      <trkpt lat="43.943309560418129" lon="5.386130763217807">
        <ele>393.20001220703125</ele>
        <time>2014-05-21T12:48:19Z</time>
      </trkpt>
      <trkpt lat="43.943366473540664" lon="5.386158088222146">
        <ele>393.60000610351562</ele>
        <time>2014-05-21T12:48:21Z</time>
      </trkpt>
      <trkpt lat="43.94355489872396" lon="5.386287588626146">
        <ele>394.39999389648437</ele>
        <time>2014-05-21T12:48:28Z</time>
      </trkpt>
      <trkpt lat="43.94359789788723" lon="5.386323798447847">
        <ele>395</ele>
        <time>2014-05-21T12:48:30Z</time>
      </trkpt>
      <trkpt lat="43.943664114922285" lon="5.386361600831151">
        <ele>395.60000610351562</ele>
        <time>2014-05-21T12:48:33Z</time>
      </trkpt>
      <trkpt lat="43.943728320300579" lon="5.386402169242501">
        <ele>395.79998779296875</ele>
        <time>2014-05-21T12:48:36Z</time>
      </trkpt>
      <trkpt lat="43.943853797391057" lon="5.386425973847508">
        <ele>396.60000610351562</ele>
        <time>2014-05-21T12:48:42Z</time>
      </trkpt>
      <trkpt lat="43.94397608935833" lon="5.386359002441168">
        <ele>397.60000610351562</ele>
        <time>2014-05-21T12:48:47Z</time>
      </trkpt>
      <trkpt lat="43.944017747417092" lon="5.386316422373056">
        <ele>397.60000610351562</ele>
        <time>2014-05-21T12:48:49Z</time>
      </trkpt>
      <trkpt lat="43.944100476801395" lon="5.386126320809126">
        <ele>398.60000610351562</ele>
        <time>2014-05-21T12:48:55Z</time>
      </trkpt>
      <trkpt lat="43.944103326648474" lon="5.386088350787759">
        <ele>398.79998779296875</ele>
        <time>2014-05-21T12:48:56Z</time>
      </trkpt>
      <trkpt lat="43.944092346355319" lon="5.38592423312366">
        <ele>399.60000610351562</ele>
        <time>2014-05-21T12:49:00Z</time>
      </trkpt>
      <trkpt lat="43.944069296121597" lon="5.385843766853213">
        <ele>400</ele>
        <time>2014-05-21T12:49:02Z</time>
      </trkpt>
      <trkpt lat="43.944011712446809" lon="5.385737232863903">
        <ele>400.39999389648437</ele>
        <time>2014-05-21T12:49:05Z</time>
      </trkpt>
      <trkpt lat="43.943856814876199" lon="5.385601781308651">
        <ele>401</ele>
        <time>2014-05-21T12:49:11Z</time>
      </trkpt>
      <trkpt lat="43.943799398839474" lon="5.385562470182777">
        <ele>402.20001220703125</ele>
        <time>2014-05-21T12:49:13Z</time>
      </trkpt>
      <trkpt lat="43.943689847365022" lon="5.385482423007488">
        <ele>403.20001220703125</ele>
        <time>2014-05-21T12:49:17Z</time>
      </trkpt>
      <trkpt lat="43.943666880950332" lon="5.385458450764418">
        <ele>403.20001220703125</ele>
        <time>2014-05-21T12:49:18Z</time>
      </trkpt>
      <trkpt lat="43.943554228171706" lon="5.385236665606499">
        <ele>404</ele>
        <time>2014-05-21T12:49:25Z</time>
      </trkpt>
      <trkpt lat="43.943533776327968" lon="5.385155696421862">
        <ele>404.39999389648438</ele>
        <time>2014-05-21T12:49:27Z</time>
      </trkpt>
      <trkpt lat="43.94346940331161" lon="5.384869873523712">
        <ele>405</ele>
        <time>2014-05-21T12:49:34Z</time>
      </trkpt>
      <trkpt lat="43.943446772173047" lon="5.384754370898008">
        <ele>405.39999389648437</ele>
        <time>2014-05-21T12:49:37Z</time>
      </trkpt>
      <trkpt lat="43.943394301459193" lon="5.384534178301692">
        <ele>406.20001220703125</ele>
        <time>2014-05-21T12:49:43Z</time>
      </trkpt>
      <trkpt lat="43.943347698077559" lon="5.384357739239931">
        <ele>406.39999389648437</ele>
        <time>2014-05-21T12:49:48Z</time>
      </trkpt>
      <trkpt lat="43.943333951756358" lon="5.384324630722404">
        <ele>406.60000610351562</ele>
        <time>2014-05-21T12:49:49Z</time>
      </trkpt>
      <trkpt lat="43.94325097091496" lon="5.384152047336102">
        <ele>407.60000610351562</ele>
        <time>2014-05-21T12:49:54Z</time>
      </trkpt>
      <trkpt lat="43.943233788013458" lon="5.384117010980845">
        <ele>408.20001220703125</ele>
        <time>2014-05-21T12:49:55Z</time>
      </trkpt>
      <trkpt lat="43.943125745281577" lon="5.383915426209569">
        <ele>408.39999389648437</ele>
        <time>2014-05-21T12:50:01Z</time>
      </trkpt>
      <trkpt lat="43.942934470251203" lon="5.383655168116093">
        <ele>407.39999389648438</ele>
        <time>2014-05-21T12:50:09Z</time>
      </trkpt>
      <trkpt lat="43.942748978734016" lon="5.383391221985221">
        <ele>407.20001220703125</ele>
        <time>2014-05-21T12:50:16Z</time>
      </trkpt>
      <trkpt lat="43.942659962922335" lon="5.38309944793582">
        <ele>407.39999389648438</ele>
        <time>2014-05-21T12:50:22Z</time>
      </trkpt>
      <trkpt lat="43.942569522187114" lon="5.382780600339174">
        <ele>407.60000610351562</ele>
        <time>2014-05-21T12:50:30Z</time>
      </trkpt>
      <trkpt lat="43.942525517195463" lon="5.382655039429665">
        <ele>406.39999389648437</ele>
        <time>2014-05-21T12:50:33Z</time>
      </trkpt>
      <trkpt lat="43.942472292110324" lon="5.382485557347536">
        <ele>408.60000610351562</ele>
        <time>2014-05-21T12:50:37Z</time>
      </trkpt>
      <trkpt lat="43.942447062581778" lon="5.382401570677757">
        <ele>409.60000610351562</ele>
        <time>2014-05-21T12:50:39Z</time>
      </trkpt>
      <trkpt lat="43.94241395406425" lon="5.382274417206645">
        <ele>410.60000610351562</ele>
        <time>2014-05-21T12:50:42Z</time>
      </trkpt>
      <trkpt lat="43.942401967942715" lon="5.382183892652392">
        <ele>410.20001220703125</ele>
        <time>2014-05-21T12:50:44Z</time>
      </trkpt>
      <trkpt lat="43.942374056205153" lon="5.381905026733875">
        <ele>410.79998779296875</ele>
        <time>2014-05-21T12:50:50Z</time>
      </trkpt>
    </trkseg>
  </trk>

</gpx>
